﻿<?xml version="1.0" encoding="utf-8"?><gpx version="1.1" creator="izvne.com" xmlns="http://www.topografix.com/GPX/1/1"><trk><name>montenegro-overview</name><trkseg><trkpt lat="43.158974" lon="19.292824"><ele>827.1</ele><time>2012-04-29T09:54:05.0000000+00:00</time></trkpt><trkpt lat="43.159073" lon="19.292822"><ele>826.6</ele><time>2012-04-29T09:54:10.0000000+00:00</time></trkpt><trkpt lat="43.159065" lon="19.292799"><ele>821.4</ele><time>2012-04-29T09:54:15.0000000+00:00</time></trkpt><trkpt lat="43.159061" lon="19.292797"><ele>822.4</ele><time>2012-04-29T09:54:20.0000000+00:00</time></trkpt><trkpt lat="43.159058" lon="19.292765"><ele>827.6</ele><time>2012-04-29T09:54:25.0000000+00:00</time></trkpt><trkpt lat="43.159046" lon="19.292761"><ele>828.3</ele><time>2012-04-29T09:54:30.0000000+00:00</time></trkpt><trkpt lat="43.159046" lon="19.292759"><ele>830.1</ele><time>2012-04-29T09:54:35.0000000+00:00</time></trkpt><trkpt lat="43.159046" lon="19.292763"><ele>829.7</ele><time>2012-04-29T09:54:40.0000000+00:00</time></trkpt><trkpt lat="43.159046" lon="19.292763"><ele>829.6</ele><time>2012-04-29T09:54:45.0000000+00:00</time></trkpt><trkpt lat="43.159042" lon="19.292759"><ele>829.6</ele><time>2012-04-29T09:54:50.0000000+00:00</time></trkpt><trkpt lat="43.159042" lon="19.292757"><ele>829.5</ele><time>2012-04-29T09:54:55.0000000+00:00</time></trkpt><trkpt lat="43.159042" lon="19.292757"><ele>829.4</ele><time>2012-04-29T09:55:00.0000000+00:00</time></trkpt><trkpt lat="43.159042" lon="19.292757"><ele>829.4</ele><time>2012-04-29T09:55:05.0000000+00:00</time></trkpt><trkpt lat="43.159042" lon="19.292757"><ele>829.4</ele><time>2012-04-29T09:55:10.0000000+00:00</time></trkpt><trkpt lat="43.159042" lon="19.292757"><ele>829.4</ele><time>2012-04-29T09:55:15.0000000+00:00</time></trkpt><trkpt lat="43.159042" lon="19.292759"><ele>829.3</ele><time>2012-04-29T09:55:20.0000000+00:00</time></trkpt><trkpt lat="43.159042" lon="19.292759"><ele>829.3</ele><time>2012-04-29T09:55:25.0000000+00:00</time></trkpt><trkpt lat="43.159042" lon="19.292759"><ele>829.3</ele><time>2012-04-29T09:55:30.0000000+00:00</time></trkpt><trkpt lat="43.159042" lon="19.292759"><ele>829.3</ele><time>2012-04-29T09:55:35.0000000+00:00</time></trkpt><trkpt lat="43.159042" lon="19.292759"><ele>829.2</ele><time>2012-04-29T09:55:40.0000000+00:00</time></trkpt><trkpt lat="43.159039" lon="19.292746"><ele>828.9</ele><time>2012-04-29T09:55:45.0000000+00:00</time></trkpt><trkpt lat="43.159035" lon="19.292744"><ele>829.0</ele><time>2012-04-29T09:55:50.0000000+00:00</time></trkpt><trkpt lat="43.159027" lon="19.292744"><ele>829.0</ele><time>2012-04-29T09:55:55.0000000+00:00</time></trkpt><trkpt lat="43.159023" lon="19.292751"><ele>828.2</ele><time>2012-04-29T09:56:00.0000000+00:00</time></trkpt><trkpt lat="43.159019" lon="19.292755"><ele>827.4</ele><time>2012-04-29T09:56:05.0000000+00:00</time></trkpt><trkpt lat="43.159019" lon="19.29277"><ele>827.3</ele><time>2012-04-29T09:56:10.0000000+00:00</time></trkpt><trkpt lat="43.159019" lon="19.29277"><ele>827.2</ele><time>2012-04-29T09:56:15.0000000+00:00</time></trkpt><trkpt lat="43.159019" lon="19.292755"><ele>828.0</ele><time>2012-04-29T09:56:20.0000000+00:00</time></trkpt><trkpt lat="43.159019" lon="19.292742"><ele>828.5</ele><time>2012-04-29T09:56:25.0000000+00:00</time></trkpt><trkpt lat="43.159019" lon="19.292742"><ele>828.5</ele><time>2012-04-29T09:56:30.0000000+00:00</time></trkpt><trkpt lat="43.159019" lon="19.292742"><ele>828.5</ele><time>2012-04-29T09:56:35.0000000+00:00</time></trkpt><trkpt lat="43.159019" lon="19.292742"><ele>828.5</ele><time>2012-04-29T09:56:40.0000000+00:00</time></trkpt><trkpt lat="43.159019" lon="19.292744"><ele>828.5</ele><time>2012-04-29T09:56:45.0000000+00:00</time></trkpt><trkpt lat="43.159019" lon="19.292744"><ele>828.5</ele><time>2012-04-29T09:56:50.0000000+00:00</time></trkpt><trkpt lat="43.159019" lon="19.292744"><ele>828.5</ele><time>2012-04-29T09:56:55.0000000+00:00</time></trkpt><trkpt lat="43.159019" lon="19.292744"><ele>828.5</ele><time>2012-04-29T09:57:00.0000000+00:00</time></trkpt><trkpt lat="43.159004" lon="19.292797"><ele>827.6</ele><time>2012-04-29T09:57:05.0000000+00:00</time></trkpt><trkpt lat="43.158989" lon="19.2929"><ele>827.7</ele><time>2012-04-29T09:57:10.0000000+00:00</time></trkpt><trkpt lat="43.158978" lon="19.293022"><ele>827.3</ele><time>2012-04-29T09:57:15.0000000+00:00</time></trkpt><trkpt lat="43.15897" lon="19.29315"><ele>827.8</ele><time>2012-04-29T09:57:20.0000000+00:00</time></trkpt><trkpt lat="43.158951" lon="19.29327"><ele>827.9</ele><time>2012-04-29T09:57:25.0000000+00:00</time></trkpt><trkpt lat="43.158936" lon="19.293385"><ele>827.3</ele><time>2012-04-29T09:57:30.0000000+00:00</time></trkpt><trkpt lat="43.158932" lon="19.293486"><ele>829.3</ele><time>2012-04-29T09:57:35.0000000+00:00</time></trkpt><trkpt lat="43.158932" lon="19.2936"><ele>832.6</ele><time>2012-04-29T09:57:40.0000000+00:00</time></trkpt><trkpt lat="43.158947" lon="19.29373"><ele>833.9</ele><time>2012-04-29T09:57:45.0000000+00:00</time></trkpt><trkpt lat="43.158985" lon="19.293871"><ele>835.1</ele><time>2012-04-29T09:57:50.0000000+00:00</time></trkpt><trkpt lat="43.159023" lon="19.294001"><ele>837.5</ele><time>2012-04-29T09:57:55.0000000+00:00</time></trkpt><trkpt lat="43.1591" lon="19.294117"><ele>837.8</ele><time>2012-04-29T09:58:00.0000000+00:00</time></trkpt><trkpt lat="43.15918" lon="19.294184"><ele>837.6</ele><time>2012-04-29T09:58:05.0000000+00:00</time></trkpt><trkpt lat="43.15926" lon="19.294239"><ele>837.5</ele><time>2012-04-29T09:58:10.0000000+00:00</time></trkpt><trkpt lat="43.159351" lon="19.294285"><ele>837.5</ele><time>2012-04-29T09:58:15.0000000+00:00</time></trkpt><trkpt lat="43.159374" lon="19.294283"><ele>837.6</ele><time>2012-04-29T09:58:20.0000000+00:00</time></trkpt><trkpt lat="43.159374" lon="19.294287"><ele>837.7</ele><time>2012-04-29T09:58:25.0000000+00:00</time></trkpt><trkpt lat="43.159374" lon="19.294289"><ele>837.7</ele><time>2012-04-29T09:58:30.0000000+00:00</time></trkpt><trkpt lat="43.159374" lon="19.294289"><ele>837.6</ele><time>2012-04-29T09:58:35.0000000+00:00</time></trkpt><trkpt lat="43.159393" lon="19.294264"><ele>838.0</ele><time>2012-04-29T09:58:40.0000000+00:00</time></trkpt><trkpt lat="43.159512" lon="19.294226"><ele>837.0</ele><time>2012-04-29T09:58:45.0000000+00:00</time></trkpt><trkpt lat="43.159744" lon="19.294149"><ele>834.6</ele><time>2012-04-29T09:58:50.0000000+00:00</time></trkpt><trkpt lat="43.16" lon="19.294052"><ele>833.2</ele><time>2012-04-29T09:58:55.0000000+00:00</time></trkpt><trkpt lat="43.160198" lon="19.293846"><ele>830.6</ele><time>2012-04-29T09:59:00.0000000+00:00</time></trkpt><trkpt lat="43.160328" lon="19.293497"><ele>828.3</ele><time>2012-04-29T09:59:05.0000000+00:00</time></trkpt><trkpt lat="43.160389" lon="19.293114"><ele>827.7</ele><time>2012-04-29T09:59:10.0000000+00:00</time></trkpt><trkpt lat="43.160427" lon="19.292767"><ele>827.9</ele><time>2012-04-29T09:59:15.0000000+00:00</time></trkpt><trkpt lat="43.160431" lon="19.292475"><ele>825.8</ele><time>2012-04-29T09:59:20.0000000+00:00</time></trkpt><trkpt lat="43.160267" lon="19.292171"><ele>821.6</ele><time>2012-04-29T09:59:25.0000000+00:00</time></trkpt><trkpt lat="43.160072" lon="19.291891"><ele>820.5</ele><time>2012-04-29T09:59:30.0000000+00:00</time></trkpt><trkpt lat="43.159893" lon="19.291796"><ele>819.7</ele><time>2012-04-29T09:59:35.0000000+00:00</time></trkpt><trkpt lat="43.159657" lon="19.291691"><ele>819.3</ele><time>2012-04-29T09:59:40.0000000+00:00</time></trkpt><trkpt lat="43.159481" lon="19.291574"><ele>820.2</ele><time>2012-04-29T09:59:45.0000000+00:00</time></trkpt><trkpt lat="43.159317" lon="19.291483"><ele>820.6</ele><time>2012-04-29T09:59:50.0000000+00:00</time></trkpt><trkpt lat="43.159138" lon="19.291384"><ele>820.5</ele><time>2012-04-29T09:59:55.0000000+00:00</time></trkpt><trkpt lat="43.158958" lon="19.291275"><ele>821.8</ele><time>2012-04-29T10:00:00.0000000+00:00</time></trkpt><trkpt lat="43.158813" lon="19.291187"><ele>823.0</ele><time>2012-04-29T10:00:05.0000000+00:00</time></trkpt><trkpt lat="43.158691" lon="19.291018"><ele>822.1</ele><time>2012-04-29T10:00:10.0000000+00:00</time></trkpt><trkpt lat="43.158844" lon="19.290808"><ele>817.9</ele><time>2012-04-29T10:00:15.0000000+00:00</time></trkpt><trkpt lat="43.1591" lon="19.29063"><ele>813.7</ele><time>2012-04-29T10:00:20.0000000+00:00</time></trkpt><trkpt lat="43.15934" lon="19.290501"><ele>812.1</ele><time>2012-04-29T10:00:25.0000000+00:00</time></trkpt><trkpt lat="43.159595" lon="19.290426"><ele>810.8</ele><time>2012-04-29T10:00:30.0000000+00:00</time></trkpt><trkpt lat="43.159863" lon="19.2904"><ele>810.5</ele><time>2012-04-29T10:00:35.0000000+00:00</time></trkpt><trkpt lat="43.160053" lon="19.290415"><ele>811.3</ele><time>2012-04-29T10:00:40.0000000+00:00</time></trkpt><trkpt lat="43.160217" lon="19.290508"><ele>811.1</ele><time>2012-04-29T10:00:45.0000000+00:00</time></trkpt><trkpt lat="43.160435" lon="19.290474"><ele>808.8</ele><time>2012-04-29T10:00:50.0000000+00:00</time></trkpt><trkpt lat="43.160572" lon="19.290268"><ele>807.1</ele><time>2012-04-29T10:00:55.0000000+00:00</time></trkpt><trkpt lat="43.160698" lon="19.290031"><ele>804.3</ele><time>2012-04-29T10:01:00.0000000+00:00</time></trkpt><trkpt lat="43.160748" lon="19.289761"><ele>803.6</ele><time>2012-04-29T10:01:05.0000000+00:00</time></trkpt><trkpt lat="43.160732" lon="19.28948"><ele>803.8</ele><time>2012-04-29T10:01:10.0000000+00:00</time></trkpt><trkpt lat="43.160671" lon="19.289228"><ele>801.0</ele><time>2012-04-29T10:01:15.0000000+00:00</time></trkpt><trkpt lat="43.160583" lon="19.288908"><ele>798.0</ele><time>2012-04-29T10:01:20.0000000+00:00</time></trkpt><trkpt lat="43.160496" lon="19.288679"><ele>797.2</ele><time>2012-04-29T10:01:25.0000000+00:00</time></trkpt><trkpt lat="43.160423" lon="19.288506"><ele>797.1</ele><time>2012-04-29T10:01:30.0000000+00:00</time></trkpt><trkpt lat="43.160423" lon="19.28828"><ele>797.2</ele><time>2012-04-29T10:01:35.0000000+00:00</time></trkpt><trkpt lat="43.160496" lon="19.288074"><ele>796.4</ele><time>2012-04-29T10:01:40.0000000+00:00</time></trkpt><trkpt lat="43.160564" lon="19.287893"><ele>796.2</ele><time>2012-04-29T10:01:45.0000000+00:00</time></trkpt><trkpt lat="43.160587" lon="19.287758"><ele>796.5</ele><time>2012-04-29T10:01:50.0000000+00:00</time></trkpt><trkpt lat="43.160591" lon="19.287647"><ele>796.3</ele><time>2012-04-29T10:01:55.0000000+00:00</time></trkpt><trkpt lat="43.160572" lon="19.287491"><ele>796.3</ele><time>2012-04-29T10:02:00.0000000+00:00</time></trkpt><trkpt lat="43.160534" lon="19.287306"><ele>796.8</ele><time>2012-04-29T10:02:05.0000000+00:00</time></trkpt><trkpt lat="43.160488" lon="19.287128"><ele>797.3</ele><time>2012-04-29T10:02:10.0000000+00:00</time></trkpt><trkpt lat="43.16045" lon="19.286987"><ele>797.9</ele><time>2012-04-29T10:02:15.0000000+00:00</time></trkpt><trkpt lat="43.160408" lon="19.286816"><ele>798.5</ele><time>2012-04-29T10:02:20.0000000+00:00</time></trkpt><trkpt lat="43.160362" lon="19.286655"><ele>799.0</ele><time>2012-04-29T10:02:25.0000000+00:00</time></trkpt><trkpt lat="43.160305" lon="19.286474"><ele>799.4</ele><time>2012-04-29T10:02:30.0000000+00:00</time></trkpt><trkpt lat="43.160236" lon="19.286194"><ele>797.8</ele><time>2012-04-29T10:02:35.0000000+00:00</time></trkpt><trkpt lat="43.160152" lon="19.285931"><ele>795.6</ele><time>2012-04-29T10:02:40.0000000+00:00</time></trkpt><trkpt lat="43.160046" lon="19.285728"><ele>793.5</ele><time>2012-04-29T10:02:45.0000000+00:00</time></trkpt><trkpt lat="43.159966" lon="19.285467"><ele>789.8</ele><time>2012-04-29T10:02:50.0000000+00:00</time></trkpt><trkpt lat="43.159836" lon="19.285238"><ele>786.1</ele><time>2012-04-29T10:02:55.0000000+00:00</time></trkpt><trkpt lat="43.15984" lon="19.284878"><ele>781.5</ele><time>2012-04-29T10:03:00.0000000+00:00</time></trkpt><trkpt lat="43.159904" lon="19.284523"><ele>779.1</ele><time>2012-04-29T10:03:05.0000000+00:00</time></trkpt><trkpt lat="43.159969" lon="19.284157"><ele>778.3</ele><time>2012-04-29T10:03:10.0000000+00:00</time></trkpt><trkpt lat="43.159939" lon="19.283772"><ele>773.1</ele><time>2012-04-29T10:03:15.0000000+00:00</time></trkpt><trkpt lat="43.159863" lon="19.283369"><ele>768.7</ele><time>2012-04-29T10:03:20.0000000+00:00</time></trkpt><trkpt lat="43.15984" lon="19.282932"><ele>766.5</ele><time>2012-04-29T10:03:25.0000000+00:00</time></trkpt><trkpt lat="43.159843" lon="19.282534"><ele>765.1</ele><time>2012-04-29T10:03:30.0000000+00:00</time></trkpt><trkpt lat="43.159977" lon="19.282169"><ele>762.6</ele><time>2012-04-29T10:03:35.0000000+00:00</time></trkpt><trkpt lat="43.160122" lon="19.28171"><ele>759.7</ele><time>2012-04-29T10:03:40.0000000+00:00</time></trkpt><trkpt lat="43.160294" lon="19.281269"><ele>756.4</ele><time>2012-04-29T10:03:45.0000000+00:00</time></trkpt><trkpt lat="43.160461" lon="19.280933"><ele>752.2</ele><time>2012-04-29T10:03:50.0000000+00:00</time></trkpt><trkpt lat="43.160648" lon="19.280619"><ele>747.8</ele><time>2012-04-29T10:03:55.0000000+00:00</time></trkpt><trkpt lat="43.160576" lon="19.280319"><ele>748.1</ele><time>2012-04-29T10:04:00.0000000+00:00</time></trkpt><trkpt lat="43.160522" lon="19.28019"><ele>748.0</ele><time>2012-04-29T10:04:05.0000000+00:00</time></trkpt><trkpt lat="43.160515" lon="19.280174"><ele>747.8</ele><time>2012-04-29T10:04:10.0000000+00:00</time></trkpt><trkpt lat="43.160511" lon="19.28018"><ele>748.3</ele><time>2012-04-29T10:04:15.0000000+00:00</time></trkpt><trkpt lat="43.160507" lon="19.280188"><ele>748.9</ele><time>2012-04-29T10:04:20.0000000+00:00</time></trkpt><trkpt lat="43.160511" lon="19.28019"><ele>748.9</ele><time>2012-04-29T10:04:25.0000000+00:00</time></trkpt><trkpt lat="43.160511" lon="19.28019"><ele>748.8</ele><time>2012-04-29T10:04:30.0000000+00:00</time></trkpt><trkpt lat="43.160511" lon="19.280191"><ele>748.8</ele><time>2012-04-29T10:04:35.0000000+00:00</time></trkpt><trkpt lat="43.160507" lon="19.280182"><ele>749.0</ele><time>2012-04-29T10:04:40.0000000+00:00</time></trkpt><trkpt lat="43.160522" lon="19.279997"><ele>748.5</ele><time>2012-04-29T10:04:45.0000000+00:00</time></trkpt><trkpt lat="43.160606" lon="19.279696"><ele>746.3</ele><time>2012-04-29T10:04:50.0000000+00:00</time></trkpt><trkpt lat="43.160637" lon="19.279366"><ele>745.1</ele><time>2012-04-29T10:04:55.0000000+00:00</time></trkpt><trkpt lat="43.160606" lon="19.278994"><ele>744.5</ele><time>2012-04-29T10:05:00.0000000+00:00</time></trkpt><trkpt lat="43.16048" lon="19.278683"><ele>744.5</ele><time>2012-04-29T10:05:05.0000000+00:00</time></trkpt><trkpt lat="43.16024" lon="19.278545"><ele>746.1</ele><time>2012-04-29T10:05:10.0000000+00:00</time></trkpt><trkpt lat="43.160244" lon="19.278526"><ele>745.2</ele><time>2012-04-29T10:05:15.0000000+00:00</time></trkpt><trkpt lat="43.160248" lon="19.278528"><ele>746.1</ele><time>2012-04-29T10:05:20.0000000+00:00</time></trkpt><trkpt lat="43.160248" lon="19.278528"><ele>746.2</ele><time>2012-04-29T10:05:25.0000000+00:00</time></trkpt><trkpt lat="43.160244" lon="19.278532"><ele>746.2</ele><time>2012-04-29T10:05:30.0000000+00:00</time></trkpt><trkpt lat="43.160244" lon="19.278534"><ele>746.4</ele><time>2012-04-29T10:05:35.0000000+00:00</time></trkpt><trkpt lat="43.160244" lon="19.278534"><ele>746.4</ele><time>2012-04-29T10:05:40.0000000+00:00</time></trkpt><trkpt lat="43.160244" lon="19.278534"><ele>746.4</ele><time>2012-04-29T10:05:45.0000000+00:00</time></trkpt><trkpt lat="43.160244" lon="19.278534"><ele>746.4</ele><time>2012-04-29T10:05:50.0000000+00:00</time></trkpt><trkpt lat="43.160244" lon="19.278534"><ele>746.4</ele><time>2012-04-29T10:05:55.0000000+00:00</time></trkpt><trkpt lat="43.160244" lon="19.278534"><ele>746.4</ele><time>2012-04-29T10:06:00.0000000+00:00</time></trkpt><trkpt lat="43.160244" lon="19.278536"><ele>746.4</ele><time>2012-04-29T10:06:05.0000000+00:00</time></trkpt><trkpt lat="43.160248" lon="19.278543"><ele>746.4</ele><time>2012-04-29T10:06:10.0000000+00:00</time></trkpt><trkpt lat="43.160442" lon="19.27861"><ele>748.1</ele><time>2012-04-29T10:06:15.0000000+00:00</time></trkpt><trkpt lat="43.160561" lon="19.2787"><ele>750.8</ele><time>2012-04-29T10:06:20.0000000+00:00</time></trkpt><trkpt lat="43.16058" lon="19.278692"><ele>752.7</ele><time>2012-04-29T10:06:25.0000000+00:00</time></trkpt><trkpt lat="43.160583" lon="19.278692"><ele>751.9</ele><time>2012-04-29T10:06:30.0000000+00:00</time></trkpt><trkpt lat="43.160583" lon="19.27869"><ele>752.0</ele><time>2012-04-29T10:06:35.0000000+00:00</time></trkpt><trkpt lat="43.160583" lon="19.278688"><ele>752.1</ele><time>2012-04-29T10:06:40.0000000+00:00</time></trkpt><trkpt lat="43.160587" lon="19.278694"><ele>752.2</ele><time>2012-04-29T10:06:45.0000000+00:00</time></trkpt><trkpt lat="43.160606" lon="19.278727"><ele>752.4</ele><time>2012-04-29T10:06:50.0000000+00:00</time></trkpt><trkpt lat="43.160614" lon="19.278728"><ele>752.2</ele><time>2012-04-29T10:06:55.0000000+00:00</time></trkpt><trkpt lat="43.16061" lon="19.278719"><ele>752.3</ele><time>2012-04-29T10:07:00.0000000+00:00</time></trkpt><trkpt lat="43.160618" lon="19.278711"><ele>752.2</ele><time>2012-04-29T10:07:05.0000000+00:00</time></trkpt><trkpt lat="43.160614" lon="19.278706"><ele>752.2</ele><time>2012-04-29T10:07:10.0000000+00:00</time></trkpt><trkpt lat="43.160614" lon="19.278711"><ele>752.3</ele><time>2012-04-29T10:07:15.0000000+00:00</time></trkpt><trkpt lat="43.160614" lon="19.278717"><ele>752.4</ele><time>2012-04-29T10:07:20.0000000+00:00</time></trkpt><trkpt lat="43.160614" lon="19.278723"><ele>752.4</ele><time>2012-04-29T10:07:25.0000000+00:00</time></trkpt><trkpt lat="43.16061" lon="19.278725"><ele>752.4</ele><time>2012-04-29T10:07:30.0000000+00:00</time></trkpt><trkpt lat="43.16061" lon="19.278725"><ele>752.4</ele><time>2012-04-29T10:07:35.0000000+00:00</time></trkpt><trkpt lat="43.16061" lon="19.278725"><ele>752.4</ele><time>2012-04-29T10:07:40.0000000+00:00</time></trkpt><trkpt lat="43.16061" lon="19.278727"><ele>752.4</ele><time>2012-04-29T10:07:45.0000000+00:00</time></trkpt><trkpt lat="43.16061" lon="19.278727"><ele>752.4</ele><time>2012-04-29T10:07:50.0000000+00:00</time></trkpt><trkpt lat="43.16061" lon="19.278727"><ele>752.4</ele><time>2012-04-29T10:07:55.0000000+00:00</time></trkpt><trkpt lat="43.16061" lon="19.278727"><ele>752.4</ele><time>2012-04-29T10:08:00.0000000+00:00</time></trkpt><trkpt lat="43.16061" lon="19.278727"><ele>752.4</ele><time>2012-04-29T10:08:05.0000000+00:00</time></trkpt><trkpt lat="43.16061" lon="19.278727"><ele>752.4</ele><time>2012-04-29T10:08:10.0000000+00:00</time></trkpt><trkpt lat="43.16061" lon="19.278727"><ele>752.4</ele><time>2012-04-29T10:08:15.0000000+00:00</time></trkpt><trkpt lat="43.16061" lon="19.278727"><ele>752.4</ele><time>2012-04-29T10:08:20.0000000+00:00</time></trkpt><trkpt lat="43.160625" lon="19.278738"><ele>752.4</ele><time>2012-04-29T10:08:25.0000000+00:00</time></trkpt><trkpt lat="43.160641" lon="19.278811"><ele>751.8</ele><time>2012-04-29T10:08:30.0000000+00:00</time></trkpt><trkpt lat="43.160641" lon="19.278967"><ele>752.4</ele><time>2012-04-29T10:08:35.0000000+00:00</time></trkpt><trkpt lat="43.160633" lon="19.279123"><ele>752.7</ele><time>2012-04-29T10:08:40.0000000+00:00</time></trkpt><trkpt lat="43.160656" lon="19.279245"><ele>752.3</ele><time>2012-04-29T10:08:45.0000000+00:00</time></trkpt><trkpt lat="43.160698" lon="19.279295"><ele>752.1</ele><time>2012-04-29T10:08:50.0000000+00:00</time></trkpt><trkpt lat="43.160725" lon="19.279242"><ele>752.1</ele><time>2012-04-29T10:08:55.0000000+00:00</time></trkpt><trkpt lat="43.160763" lon="19.279156"><ele>752.4</ele><time>2012-04-29T10:09:00.0000000+00:00</time></trkpt><trkpt lat="43.160812" lon="19.279057"><ele>753.2</ele><time>2012-04-29T10:09:05.0000000+00:00</time></trkpt><trkpt lat="43.160809" lon="19.27906"><ele>752.6</ele><time>2012-04-29T10:09:10.0000000+00:00</time></trkpt><trkpt lat="43.160809" lon="19.27906"><ele>752.6</ele><time>2012-04-29T10:09:15.0000000+00:00</time></trkpt><trkpt lat="43.160809" lon="19.27906"><ele>752.7</ele><time>2012-04-29T10:09:20.0000000+00:00</time></trkpt><trkpt lat="43.160809" lon="19.27906"><ele>752.7</ele><time>2012-04-29T10:09:25.0000000+00:00</time></trkpt><trkpt lat="43.160809" lon="19.27906"><ele>752.7</ele><time>2012-04-29T10:09:30.0000000+00:00</time></trkpt><trkpt lat="43.160809" lon="19.27906"><ele>752.7</ele><time>2012-04-29T10:09:35.0000000+00:00</time></trkpt><trkpt lat="43.160812" lon="19.279055"><ele>752.8</ele><time>2012-04-29T10:09:40.0000000+00:00</time></trkpt><trkpt lat="43.160805" lon="19.27906"><ele>752.7</ele><time>2012-04-29T10:09:45.0000000+00:00</time></trkpt><trkpt lat="43.160805" lon="19.279062"><ele>752.6</ele><time>2012-04-29T10:09:50.0000000+00:00</time></trkpt><trkpt lat="43.160805" lon="19.279057"><ele>752.5</ele><time>2012-04-29T10:09:55.0000000+00:00</time></trkpt><trkpt lat="43.160805" lon="19.279058"><ele>752.4</ele><time>2012-04-29T10:10:00.0000000+00:00</time></trkpt><trkpt lat="43.160828" lon="19.279152"><ele>752.8</ele><time>2012-04-29T10:10:05.0000000+00:00</time></trkpt><trkpt lat="43.160847" lon="19.279268"><ele>753.6</ele><time>2012-04-29T10:10:10.0000000+00:00</time></trkpt><trkpt lat="43.160851" lon="19.279402"><ele>755.2</ele><time>2012-04-29T10:10:15.0000000+00:00</time></trkpt><trkpt lat="43.160873" lon="19.279499"><ele>756.7</ele><time>2012-04-29T10:10:20.0000000+00:00</time></trkpt><trkpt lat="43.1609" lon="19.279537"><ele>757.7</ele><time>2012-04-29T10:10:25.0000000+00:00</time></trkpt><trkpt lat="43.160904" lon="19.279583"><ele>758.5</ele><time>2012-04-29T10:10:30.0000000+00:00</time></trkpt><trkpt lat="43.160912" lon="19.279669"><ele>759.2</ele><time>2012-04-29T10:10:35.0000000+00:00</time></trkpt><trkpt lat="43.16095" lon="19.279722"><ele>760.0</ele><time>2012-04-29T10:10:40.0000000+00:00</time></trkpt><trkpt lat="43.160957" lon="19.279785"><ele>761.1</ele><time>2012-04-29T10:10:45.0000000+00:00</time></trkpt><trkpt lat="43.160984" lon="19.279816"><ele>762.4</ele><time>2012-04-29T10:10:50.0000000+00:00</time></trkpt><trkpt lat="43.160995" lon="19.279835"><ele>762.2</ele><time>2012-04-29T10:10:55.0000000+00:00</time></trkpt><trkpt lat="43.161015" lon="19.279833"><ele>763.4</ele><time>2012-04-29T10:11:00.0000000+00:00</time></trkpt><trkpt lat="43.161041" lon="19.27981"><ele>763.5</ele><time>2012-04-29T10:11:05.0000000+00:00</time></trkpt><trkpt lat="43.161053" lon="19.279816"><ele>763.2</ele><time>2012-04-29T10:11:10.0000000+00:00</time></trkpt><trkpt lat="43.161076" lon="19.27981"><ele>764.1</ele><time>2012-04-29T10:11:15.0000000+00:00</time></trkpt><trkpt lat="43.16111" lon="19.279789"><ele>764.9</ele><time>2012-04-29T10:11:20.0000000+00:00</time></trkpt><trkpt lat="43.16114" lon="19.279789"><ele>765.8</ele><time>2012-04-29T10:11:25.0000000+00:00</time></trkpt><trkpt lat="43.16119" lon="19.279762"><ele>767.2</ele><time>2012-04-29T10:11:30.0000000+00:00</time></trkpt><trkpt lat="43.161205" lon="19.279736"><ele>767.7</ele><time>2012-04-29T10:11:35.0000000+00:00</time></trkpt><trkpt lat="43.161236" lon="19.279699"><ele>768.9</ele><time>2012-04-29T10:11:40.0000000+00:00</time></trkpt><trkpt lat="43.161278" lon="19.27969"><ele>769.4</ele><time>2012-04-29T10:11:45.0000000+00:00</time></trkpt><trkpt lat="43.161312" lon="19.279665"><ele>770.4</ele><time>2012-04-29T10:11:50.0000000+00:00</time></trkpt><trkpt lat="43.161346" lon="19.279633"><ele>771.7</ele><time>2012-04-29T10:11:55.0000000+00:00</time></trkpt><trkpt lat="43.161377" lon="19.279617"><ele>773.6</ele><time>2012-04-29T10:12:00.0000000+00:00</time></trkpt><trkpt lat="43.161449" lon="19.279545"><ele>776.3</ele><time>2012-04-29T10:12:05.0000000+00:00</time></trkpt><trkpt lat="43.161491" lon="19.279514"><ele>778.5</ele><time>2012-04-29T10:12:10.0000000+00:00</time></trkpt><trkpt lat="43.161549" lon="19.279436"><ele>779.3</ele><time>2012-04-29T10:12:15.0000000+00:00</time></trkpt><trkpt lat="43.161575" lon="19.279421"><ele>779.7</ele><time>2012-04-29T10:12:20.0000000+00:00</time></trkpt><trkpt lat="43.161606" lon="19.279404"><ele>779.3</ele><time>2012-04-29T10:12:25.0000000+00:00</time></trkpt><trkpt lat="43.161598" lon="19.279413"><ele>779.5</ele><time>2012-04-29T10:12:30.0000000+00:00</time></trkpt><trkpt lat="43.161591" lon="19.279419"><ele>779.6</ele><time>2012-04-29T10:12:35.0000000+00:00</time></trkpt><trkpt lat="43.161587" lon="19.279421"><ele>779.7</ele><time>2012-04-29T10:12:40.0000000+00:00</time></trkpt><trkpt lat="43.161583" lon="19.279419"><ele>779.7</ele><time>2012-04-29T10:12:45.0000000+00:00</time></trkpt><trkpt lat="43.161583" lon="19.279423"><ele>779.7</ele><time>2012-04-29T10:12:50.0000000+00:00</time></trkpt><trkpt lat="43.161583" lon="19.279425"><ele>779.7</ele><time>2012-04-29T10:12:55.0000000+00:00</time></trkpt><trkpt lat="43.161579" lon="19.279427"><ele>779.8</ele><time>2012-04-29T10:13:00.0000000+00:00</time></trkpt><trkpt lat="43.161613" lon="19.279413"><ele>780.0</ele><time>2012-04-29T10:13:05.0000000+00:00</time></trkpt><trkpt lat="43.161636" lon="19.279415"><ele>780.2</ele><time>2012-04-29T10:13:10.0000000+00:00</time></trkpt><trkpt lat="43.16164" lon="19.279411"><ele>780.2</ele><time>2012-04-29T10:13:15.0000000+00:00</time></trkpt><trkpt lat="43.16164" lon="19.279413"><ele>780.1</ele><time>2012-04-29T10:13:20.0000000+00:00</time></trkpt><trkpt lat="43.161644" lon="19.279411"><ele>780.1</ele><time>2012-04-29T10:13:25.0000000+00:00</time></trkpt><trkpt lat="43.161648" lon="19.279409"><ele>780.0</ele><time>2012-04-29T10:13:30.0000000+00:00</time></trkpt><trkpt lat="43.161648" lon="19.279408"><ele>780.0</ele><time>2012-04-29T10:13:35.0000000+00:00</time></trkpt><trkpt lat="43.161652" lon="19.279406"><ele>779.9</ele><time>2012-04-29T10:13:40.0000000+00:00</time></trkpt><trkpt lat="43.161652" lon="19.279406"><ele>779.8</ele><time>2012-04-29T10:13:45.0000000+00:00</time></trkpt><trkpt lat="43.161652" lon="19.279408"><ele>779.7</ele><time>2012-04-29T10:13:50.0000000+00:00</time></trkpt><trkpt lat="43.161652" lon="19.279408"><ele>779.7</ele><time>2012-04-29T10:13:55.0000000+00:00</time></trkpt><trkpt lat="43.161652" lon="19.279408"><ele>779.7</ele><time>2012-04-29T10:14:00.0000000+00:00</time></trkpt><trkpt lat="43.161652" lon="19.279408"><ele>779.7</ele><time>2012-04-29T10:14:05.0000000+00:00</time></trkpt><trkpt lat="43.161648" lon="19.279408"><ele>779.7</ele><time>2012-04-29T10:14:10.0000000+00:00</time></trkpt><trkpt lat="43.161648" lon="19.279409"><ele>779.7</ele><time>2012-04-29T10:14:15.0000000+00:00</time></trkpt><trkpt lat="43.161648" lon="19.279409"><ele>779.7</ele><time>2012-04-29T10:14:20.0000000+00:00</time></trkpt><trkpt lat="43.161648" lon="19.279409"><ele>779.7</ele><time>2012-04-29T10:14:25.0000000+00:00</time></trkpt><trkpt lat="43.161648" lon="19.279409"><ele>779.7</ele><time>2012-04-29T10:14:30.0000000+00:00</time></trkpt><trkpt lat="43.161648" lon="19.279409"><ele>779.7</ele><time>2012-04-29T10:14:35.0000000+00:00</time></trkpt><trkpt lat="43.161648" lon="19.279409"><ele>779.7</ele><time>2012-04-29T10:14:40.0000000+00:00</time></trkpt><trkpt lat="43.161648" lon="19.279409"><ele>779.7</ele><time>2012-04-29T10:14:45.0000000+00:00</time></trkpt><trkpt lat="43.161648" lon="19.279409"><ele>779.7</ele><time>2012-04-29T10:14:50.0000000+00:00</time></trkpt><trkpt lat="43.161648" lon="19.279409"><ele>779.7</ele><time>2012-04-29T10:14:55.0000000+00:00</time></trkpt><trkpt lat="43.161648" lon="19.279409"><ele>779.7</ele><time>2012-04-29T10:15:00.0000000+00:00</time></trkpt><trkpt lat="43.161648" lon="19.279409"><ele>779.7</ele><time>2012-04-29T10:15:05.0000000+00:00</time></trkpt><trkpt lat="43.161652" lon="19.279409"><ele>779.7</ele><time>2012-04-29T10:15:10.0000000+00:00</time></trkpt><trkpt lat="43.161652" lon="19.279409"><ele>779.7</ele><time>2012-04-29T10:15:15.0000000+00:00</time></trkpt><trkpt lat="43.161652" lon="19.279409"><ele>779.7</ele><time>2012-04-29T10:15:20.0000000+00:00</time></trkpt><trkpt lat="43.161652" lon="19.279409"><ele>779.7</ele><time>2012-04-29T10:15:25.0000000+00:00</time></trkpt><trkpt lat="43.161652" lon="19.279409"><ele>779.7</ele><time>2012-04-29T10:15:30.0000000+00:00</time></trkpt><trkpt lat="43.161652" lon="19.279409"><ele>779.7</ele><time>2012-04-29T10:15:35.0000000+00:00</time></trkpt><trkpt lat="43.161652" lon="19.279409"><ele>779.7</ele><time>2012-04-29T10:15:40.0000000+00:00</time></trkpt><trkpt lat="43.161652" lon="19.279409"><ele>779.7</ele><time>2012-04-29T10:15:45.0000000+00:00</time></trkpt><trkpt lat="43.161652" lon="19.279409"><ele>779.7</ele><time>2012-04-29T10:15:50.0000000+00:00</time></trkpt><trkpt lat="43.161652" lon="19.279408"><ele>779.7</ele><time>2012-04-29T10:15:55.0000000+00:00</time></trkpt><trkpt lat="43.161652" lon="19.279408"><ele>779.7</ele><time>2012-04-29T10:16:00.0000000+00:00</time></trkpt><trkpt lat="43.161652" lon="19.279409"><ele>779.7</ele><time>2012-04-29T10:16:05.0000000+00:00</time></trkpt><trkpt lat="43.161652" lon="19.279409"><ele>779.7</ele><time>2012-04-29T10:16:10.0000000+00:00</time></trkpt><trkpt lat="43.161652" lon="19.279409"><ele>779.7</ele><time>2012-04-29T10:16:15.0000000+00:00</time></trkpt><trkpt lat="43.161652" lon="19.279409"><ele>779.7</ele><time>2012-04-29T10:16:20.0000000+00:00</time></trkpt><trkpt lat="43.161652" lon="19.279409"><ele>779.7</ele><time>2012-04-29T10:16:25.0000000+00:00</time></trkpt><trkpt lat="43.161652" lon="19.279408"><ele>779.7</ele><time>2012-04-29T10:16:30.0000000+00:00</time></trkpt><trkpt lat="43.161652" lon="19.279408"><ele>779.7</ele><time>2012-04-29T10:16:35.0000000+00:00</time></trkpt><trkpt lat="43.161652" lon="19.279408"><ele>779.7</ele><time>2012-04-29T10:16:40.0000000+00:00</time></trkpt><trkpt lat="43.161652" lon="19.279408"><ele>779.7</ele><time>2012-04-29T10:16:45.0000000+00:00</time></trkpt><trkpt lat="43.161652" lon="19.279406"><ele>779.8</ele><time>2012-04-29T10:16:50.0000000+00:00</time></trkpt><trkpt lat="43.161655" lon="19.279406"><ele>779.8</ele><time>2012-04-29T10:16:55.0000000+00:00</time></trkpt><trkpt lat="43.161655" lon="19.279406"><ele>779.8</ele><time>2012-04-29T10:17:00.0000000+00:00</time></trkpt><trkpt lat="43.161671" lon="19.279387"><ele>779.5</ele><time>2012-04-29T10:17:05.0000000+00:00</time></trkpt><trkpt lat="43.161762" lon="19.279364"><ele>781.7</ele><time>2012-04-29T10:17:10.0000000+00:00</time></trkpt><trkpt lat="43.161816" lon="19.279362"><ele>783.3</ele><time>2012-04-29T10:17:15.0000000+00:00</time></trkpt><trkpt lat="43.16188" lon="19.279354"><ele>783.4</ele><time>2012-04-29T10:17:20.0000000+00:00</time></trkpt><trkpt lat="43.161938" lon="19.279348"><ele>783.3</ele><time>2012-04-29T10:17:25.0000000+00:00</time></trkpt><trkpt lat="43.161949" lon="19.279419"><ele>784.0</ele><time>2012-04-29T10:17:30.0000000+00:00</time></trkpt><trkpt lat="43.161983" lon="19.279493"><ele>784.5</ele><time>2012-04-29T10:17:35.0000000+00:00</time></trkpt><trkpt lat="43.162033" lon="19.279537"><ele>785.5</ele><time>2012-04-29T10:17:40.0000000+00:00</time></trkpt><trkpt lat="43.162079" lon="19.279594"><ele>786.4</ele><time>2012-04-29T10:17:45.0000000+00:00</time></trkpt><trkpt lat="43.162113" lon="19.279654"><ele>787.4</ele><time>2012-04-29T10:17:50.0000000+00:00</time></trkpt><trkpt lat="43.162144" lon="19.279724"><ele>788.2</ele><time>2012-04-29T10:17:55.0000000+00:00</time></trkpt><trkpt lat="43.162189" lon="19.279779"><ele>789.8</ele><time>2012-04-29T10:18:00.0000000+00:00</time></trkpt><trkpt lat="43.162243" lon="19.279823"><ele>790.7</ele><time>2012-04-29T10:18:05.0000000+00:00</time></trkpt><trkpt lat="43.162273" lon="19.279877"><ele>792.2</ele><time>2012-04-29T10:18:10.0000000+00:00</time></trkpt><trkpt lat="43.162304" lon="19.279951"><ele>793.1</ele><time>2012-04-29T10:18:15.0000000+00:00</time></trkpt><trkpt lat="43.162334" lon="19.280043"><ele>794.1</ele><time>2012-04-29T10:18:20.0000000+00:00</time></trkpt><trkpt lat="43.16238" lon="19.280079"><ele>795.9</ele><time>2012-04-29T10:18:25.0000000+00:00</time></trkpt><trkpt lat="43.162411" lon="19.280079"><ele>797.3</ele><time>2012-04-29T10:18:30.0000000+00:00</time></trkpt><trkpt lat="43.162449" lon="19.280094"><ele>796.7</ele><time>2012-04-29T10:18:35.0000000+00:00</time></trkpt><trkpt lat="43.162491" lon="19.280111"><ele>796.3</ele><time>2012-04-29T10:18:40.0000000+00:00</time></trkpt><trkpt lat="43.162498" lon="19.280117"><ele>795.6</ele><time>2012-04-29T10:18:45.0000000+00:00</time></trkpt><trkpt lat="43.162498" lon="19.280119"><ele>795.5</ele><time>2012-04-29T10:18:50.0000000+00:00</time></trkpt><trkpt lat="43.162498" lon="19.280119"><ele>795.5</ele><time>2012-04-29T10:18:55.0000000+00:00</time></trkpt><trkpt lat="43.162502" lon="19.280121"><ele>795.7</ele><time>2012-04-29T10:19:00.0000000+00:00</time></trkpt><trkpt lat="43.16254" lon="19.280142"><ele>797.0</ele><time>2012-04-29T10:19:05.0000000+00:00</time></trkpt><trkpt lat="43.162579" lon="19.280167"><ele>798.0</ele><time>2012-04-29T10:19:10.0000000+00:00</time></trkpt><trkpt lat="43.162609" lon="19.280216"><ele>798.8</ele><time>2012-04-29T10:19:15.0000000+00:00</time></trkpt><trkpt lat="43.162632" lon="19.280281"><ele>799.5</ele><time>2012-04-29T10:19:20.0000000+00:00</time></trkpt><trkpt lat="43.162651" lon="19.280327"><ele>800.7</ele><time>2012-04-29T10:19:25.0000000+00:00</time></trkpt><trkpt lat="43.162663" lon="19.280344"><ele>801.0</ele><time>2012-04-29T10:19:30.0000000+00:00</time></trkpt><trkpt lat="43.16267" lon="19.280367"><ele>801.2</ele><time>2012-04-29T10:19:35.0000000+00:00</time></trkpt><trkpt lat="43.162666" lon="19.280369"><ele>800.7</ele><time>2012-04-29T10:19:40.0000000+00:00</time></trkpt><trkpt lat="43.162666" lon="19.280367"><ele>800.7</ele><time>2012-04-29T10:19:45.0000000+00:00</time></trkpt><trkpt lat="43.162666" lon="19.280367"><ele>800.7</ele><time>2012-04-29T10:19:50.0000000+00:00</time></trkpt><trkpt lat="43.162666" lon="19.280373"><ele>800.7</ele><time>2012-04-29T10:19:55.0000000+00:00</time></trkpt><trkpt lat="43.16267" lon="19.280405"><ele>801.1</ele><time>2012-04-29T10:20:00.0000000+00:00</time></trkpt><trkpt lat="43.162666" lon="19.280388"><ele>800.6</ele><time>2012-04-29T10:20:05.0000000+00:00</time></trkpt><trkpt lat="43.162663" lon="19.280386"><ele>800.7</ele><time>2012-04-29T10:20:10.0000000+00:00</time></trkpt><trkpt lat="43.162663" lon="19.280386"><ele>800.6</ele><time>2012-04-29T10:20:15.0000000+00:00</time></trkpt><trkpt lat="43.162663" lon="19.280386"><ele>800.6</ele><time>2012-04-29T10:20:20.0000000+00:00</time></trkpt><trkpt lat="43.162663" lon="19.280386"><ele>800.7</ele><time>2012-04-29T10:20:25.0000000+00:00</time></trkpt><trkpt lat="43.162663" lon="19.280386"><ele>800.7</ele><time>2012-04-29T10:20:30.0000000+00:00</time></trkpt><trkpt lat="43.162663" lon="19.280386"><ele>800.7</ele><time>2012-04-29T10:20:35.0000000+00:00</time></trkpt><trkpt lat="43.162663" lon="19.280386"><ele>800.7</ele><time>2012-04-29T10:20:40.0000000+00:00</time></trkpt><trkpt lat="43.162678" lon="19.280386"><ele>800.6</ele><time>2012-04-29T10:20:45.0000000+00:00</time></trkpt><trkpt lat="43.162685" lon="19.280392"><ele>800.3</ele><time>2012-04-29T10:20:50.0000000+00:00</time></trkpt><trkpt lat="43.162682" lon="19.280407"><ele>800.3</ele><time>2012-04-29T10:20:55.0000000+00:00</time></trkpt><trkpt lat="43.162678" lon="19.280422"><ele>800.1</ele><time>2012-04-29T10:21:00.0000000+00:00</time></trkpt><trkpt lat="43.162674" lon="19.280428"><ele>801.4</ele><time>2012-04-29T10:21:05.0000000+00:00</time></trkpt><trkpt lat="43.162678" lon="19.280424"><ele>801.7</ele><time>2012-04-29T10:21:10.0000000+00:00</time></trkpt><trkpt lat="43.162674" lon="19.280437"><ele>801.9</ele><time>2012-04-29T10:21:15.0000000+00:00</time></trkpt><trkpt lat="43.162674" lon="19.280439"><ele>802.0</ele><time>2012-04-29T10:21:20.0000000+00:00</time></trkpt><trkpt lat="43.162666" lon="19.280483"><ele>802.1</ele><time>2012-04-29T10:21:25.0000000+00:00</time></trkpt><trkpt lat="43.162659" lon="19.280512"><ele>802.3</ele><time>2012-04-29T10:21:30.0000000+00:00</time></trkpt><trkpt lat="43.162663" lon="19.280512"><ele>802.4</ele><time>2012-04-29T10:21:35.0000000+00:00</time></trkpt><trkpt lat="43.16267" lon="19.28051"><ele>802.5</ele><time>2012-04-29T10:21:40.0000000+00:00</time></trkpt><trkpt lat="43.162678" lon="19.280506"><ele>802.4</ele><time>2012-04-29T10:21:45.0000000+00:00</time></trkpt><trkpt lat="43.162682" lon="19.280512"><ele>802.3</ele><time>2012-04-29T10:21:50.0000000+00:00</time></trkpt><trkpt lat="43.162678" lon="19.280518"><ele>802.3</ele><time>2012-04-29T10:21:55.0000000+00:00</time></trkpt><trkpt lat="43.162685" lon="19.28054"><ele>802.3</ele><time>2012-04-29T10:22:00.0000000+00:00</time></trkpt><trkpt lat="43.162693" lon="19.280561"><ele>802.3</ele><time>2012-04-29T10:22:05.0000000+00:00</time></trkpt><trkpt lat="43.162678" lon="19.280636"><ele>801.9</ele><time>2012-04-29T10:22:10.0000000+00:00</time></trkpt><trkpt lat="43.162697" lon="19.280659"><ele>802.6</ele><time>2012-04-29T10:22:15.0000000+00:00</time></trkpt><trkpt lat="43.162739" lon="19.280678"><ele>803.1</ele><time>2012-04-29T10:22:20.0000000+00:00</time></trkpt><trkpt lat="43.162773" lon="19.280746"><ele>803.9</ele><time>2012-04-29T10:22:25.0000000+00:00</time></trkpt><trkpt lat="43.162827" lon="19.280766"><ele>804.8</ele><time>2012-04-29T10:22:30.0000000+00:00</time></trkpt><trkpt lat="43.162888" lon="19.280764"><ele>804.3</ele><time>2012-04-29T10:22:35.0000000+00:00</time></trkpt><trkpt lat="43.162918" lon="19.280809"><ele>804.0</ele><time>2012-04-29T10:22:40.0000000+00:00</time></trkpt><trkpt lat="43.162945" lon="19.280851"><ele>805.4</ele><time>2012-04-29T10:22:45.0000000+00:00</time></trkpt><trkpt lat="43.162964" lon="19.280859"><ele>806.4</ele><time>2012-04-29T10:22:50.0000000+00:00</time></trkpt><trkpt lat="43.162994" lon="19.280903"><ele>807.0</ele><time>2012-04-29T10:22:55.0000000+00:00</time></trkpt><trkpt lat="43.163021" lon="19.280952"><ele>807.8</ele><time>2012-04-29T10:23:00.0000000+00:00</time></trkpt><trkpt lat="43.16304" lon="19.280977"><ele>808.4</ele><time>2012-04-29T10:23:05.0000000+00:00</time></trkpt><trkpt lat="43.163048" lon="19.281002"><ele>808.6</ele><time>2012-04-29T10:23:10.0000000+00:00</time></trkpt><trkpt lat="43.163071" lon="19.281017"><ele>808.8</ele><time>2012-04-29T10:23:15.0000000+00:00</time></trkpt><trkpt lat="43.163086" lon="19.281034"><ele>808.9</ele><time>2012-04-29T10:23:20.0000000+00:00</time></trkpt><trkpt lat="43.163094" lon="19.281019"><ele>808.8</ele><time>2012-04-29T10:23:25.0000000+00:00</time></trkpt><trkpt lat="43.163101" lon="19.281025"><ele>808.8</ele><time>2012-04-29T10:23:30.0000000+00:00</time></trkpt><trkpt lat="43.163101" lon="19.281046"><ele>808.8</ele><time>2012-04-29T10:23:35.0000000+00:00</time></trkpt><trkpt lat="43.163101" lon="19.281052"><ele>808.9</ele><time>2012-04-29T10:23:40.0000000+00:00</time></trkpt><trkpt lat="43.163109" lon="19.281048"><ele>808.9</ele><time>2012-04-29T10:23:45.0000000+00:00</time></trkpt><trkpt lat="43.163132" lon="19.281021"><ele>809.4</ele><time>2012-04-29T10:23:50.0000000+00:00</time></trkpt><trkpt lat="43.163132" lon="19.281031"><ele>809.6</ele><time>2012-04-29T10:23:55.0000000+00:00</time></trkpt><trkpt lat="43.163139" lon="19.281065"><ele>810.1</ele><time>2012-04-29T10:24:00.0000000+00:00</time></trkpt><trkpt lat="43.163139" lon="19.281122"><ele>810.5</ele><time>2012-04-29T10:24:05.0000000+00:00</time></trkpt><trkpt lat="43.163139" lon="19.281199"><ele>810.6</ele><time>2012-04-29T10:24:10.0000000+00:00</time></trkpt><trkpt lat="43.163174" lon="19.28124"><ele>811.0</ele><time>2012-04-29T10:24:15.0000000+00:00</time></trkpt><trkpt lat="43.163235" lon="19.281244"><ele>811.9</ele><time>2012-04-29T10:24:20.0000000+00:00</time></trkpt><trkpt lat="43.163273" lon="19.281233"><ele>814.0</ele><time>2012-04-29T10:24:25.0000000+00:00</time></trkpt><trkpt lat="43.163307" lon="19.281237"><ele>817.4</ele><time>2012-04-29T10:24:30.0000000+00:00</time></trkpt><trkpt lat="43.163334" lon="19.281261"><ele>817.8</ele><time>2012-04-29T10:24:35.0000000+00:00</time></trkpt><trkpt lat="43.163361" lon="19.281288"><ele>817.3</ele><time>2012-04-29T10:24:40.0000000+00:00</time></trkpt><trkpt lat="43.163399" lon="19.281303"><ele>815.1</ele><time>2012-04-29T10:24:45.0000000+00:00</time></trkpt><trkpt lat="43.163425" lon="19.281328"><ele>813.4</ele><time>2012-04-29T10:24:50.0000000+00:00</time></trkpt><trkpt lat="43.163422" lon="19.281363"><ele>812.2</ele><time>2012-04-29T10:24:55.0000000+00:00</time></trkpt><trkpt lat="43.163448" lon="19.281393"><ele>810.9</ele><time>2012-04-29T10:25:00.0000000+00:00</time></trkpt><trkpt lat="43.163433" lon="19.281403"><ele>810.9</ele><time>2012-04-29T10:25:05.0000000+00:00</time></trkpt><trkpt lat="43.163433" lon="19.281406"><ele>811.0</ele><time>2012-04-29T10:25:10.0000000+00:00</time></trkpt><trkpt lat="43.163429" lon="19.281414"><ele>810.8</ele><time>2012-04-29T10:25:15.0000000+00:00</time></trkpt><trkpt lat="43.163433" lon="19.281416"><ele>810.6</ele><time>2012-04-29T10:25:20.0000000+00:00</time></trkpt><trkpt lat="43.163433" lon="19.281416"><ele>810.6</ele><time>2012-04-29T10:25:25.0000000+00:00</time></trkpt><trkpt lat="43.163433" lon="19.281414"><ele>810.7</ele><time>2012-04-29T10:25:30.0000000+00:00</time></trkpt><trkpt lat="43.163429" lon="19.281422"><ele>811.0</ele><time>2012-04-29T10:25:35.0000000+00:00</time></trkpt><trkpt lat="43.163422" lon="19.281464"><ele>811.6</ele><time>2012-04-29T10:25:40.0000000+00:00</time></trkpt><trkpt lat="43.163425" lon="19.281462"><ele>811.9</ele><time>2012-04-29T10:25:45.0000000+00:00</time></trkpt><trkpt lat="43.163429" lon="19.281473"><ele>812.2</ele><time>2012-04-29T10:25:50.0000000+00:00</time></trkpt><trkpt lat="43.163429" lon="19.28149"><ele>812.3</ele><time>2012-04-29T10:25:55.0000000+00:00</time></trkpt><trkpt lat="43.163445" lon="19.2815"><ele>813.8</ele><time>2012-04-29T10:26:00.0000000+00:00</time></trkpt><trkpt lat="43.163467" lon="19.281527"><ele>814.5</ele><time>2012-04-29T10:26:05.0000000+00:00</time></trkpt><trkpt lat="43.163475" lon="19.281551"><ele>815.1</ele><time>2012-04-29T10:26:10.0000000+00:00</time></trkpt><trkpt lat="43.163486" lon="19.281605"><ele>815.5</ele><time>2012-04-29T10:26:15.0000000+00:00</time></trkpt><trkpt lat="43.163509" lon="19.281637"><ele>817.0</ele><time>2012-04-29T10:26:20.0000000+00:00</time></trkpt><trkpt lat="43.163528" lon="19.281639"><ele>818.6</ele><time>2012-04-29T10:26:25.0000000+00:00</time></trkpt><trkpt lat="43.163525" lon="19.281672"><ele>819.5</ele><time>2012-04-29T10:26:30.0000000+00:00</time></trkpt><trkpt lat="43.163567" lon="19.28166"><ele>819.9</ele><time>2012-04-29T10:26:35.0000000+00:00</time></trkpt><trkpt lat="43.163567" lon="19.281658"><ele>820.2</ele><time>2012-04-29T10:26:40.0000000+00:00</time></trkpt><trkpt lat="43.163567" lon="19.281658"><ele>820.3</ele><time>2012-04-29T10:26:45.0000000+00:00</time></trkpt><trkpt lat="43.163567" lon="19.281656"><ele>820.3</ele><time>2012-04-29T10:26:50.0000000+00:00</time></trkpt><trkpt lat="43.163574" lon="19.281651"><ele>820.3</ele><time>2012-04-29T10:26:55.0000000+00:00</time></trkpt><trkpt lat="43.163574" lon="19.281649"><ele>820.3</ele><time>2012-04-29T10:27:00.0000000+00:00</time></trkpt><trkpt lat="43.163578" lon="19.281649"><ele>820.4</ele><time>2012-04-29T10:27:05.0000000+00:00</time></trkpt><trkpt lat="43.163578" lon="19.281647"><ele>820.4</ele><time>2012-04-29T10:27:10.0000000+00:00</time></trkpt><trkpt lat="43.163578" lon="19.281645"><ele>820.4</ele><time>2012-04-29T10:27:15.0000000+00:00</time></trkpt><trkpt lat="43.163578" lon="19.281645"><ele>820.5</ele><time>2012-04-29T10:27:20.0000000+00:00</time></trkpt><trkpt lat="43.163578" lon="19.281647"><ele>820.5</ele><time>2012-04-29T10:27:25.0000000+00:00</time></trkpt><trkpt lat="43.163578" lon="19.281647"><ele>820.6</ele><time>2012-04-29T10:27:30.0000000+00:00</time></trkpt><trkpt lat="43.163578" lon="19.281649"><ele>820.6</ele><time>2012-04-29T10:27:35.0000000+00:00</time></trkpt><trkpt lat="43.163578" lon="19.281649"><ele>820.7</ele><time>2012-04-29T10:27:40.0000000+00:00</time></trkpt><trkpt lat="43.163578" lon="19.281649"><ele>820.7</ele><time>2012-04-29T10:27:45.0000000+00:00</time></trkpt><trkpt lat="43.163578" lon="19.281649"><ele>820.7</ele><time>2012-04-29T10:27:50.0000000+00:00</time></trkpt><trkpt lat="43.163578" lon="19.281647"><ele>820.7</ele><time>2012-04-29T10:27:55.0000000+00:00</time></trkpt><trkpt lat="43.163578" lon="19.281649"><ele>820.8</ele><time>2012-04-29T10:28:00.0000000+00:00</time></trkpt><trkpt lat="43.163578" lon="19.281649"><ele>820.8</ele><time>2012-04-29T10:28:05.0000000+00:00</time></trkpt><trkpt lat="43.16357" lon="19.281679"><ele>821.4</ele><time>2012-04-29T10:28:10.0000000+00:00</time></trkpt><trkpt lat="43.163559" lon="19.281691"><ele>821.7</ele><time>2012-04-29T10:28:15.0000000+00:00</time></trkpt><trkpt lat="43.163574" lon="19.281731"><ele>822.9</ele><time>2012-04-29T10:28:20.0000000+00:00</time></trkpt><trkpt lat="43.163567" lon="19.28175"><ele>823.3</ele><time>2012-04-29T10:28:25.0000000+00:00</time></trkpt><trkpt lat="43.163563" lon="19.281784"><ele>824.6</ele><time>2012-04-29T10:28:30.0000000+00:00</time></trkpt><trkpt lat="43.163555" lon="19.281855"><ele>826.1</ele><time>2012-04-29T10:28:35.0000000+00:00</time></trkpt><trkpt lat="43.163559" lon="19.28186"><ele>827.5</ele><time>2012-04-29T10:28:40.0000000+00:00</time></trkpt><trkpt lat="43.163593" lon="19.281851"><ele>828.7</ele><time>2012-04-29T10:28:45.0000000+00:00</time></trkpt><trkpt lat="43.163643" lon="19.281881"><ele>829.7</ele><time>2012-04-29T10:28:50.0000000+00:00</time></trkpt><trkpt lat="43.163681" lon="19.281887"><ele>831.6</ele><time>2012-04-29T10:28:55.0000000+00:00</time></trkpt><trkpt lat="43.163677" lon="19.281904"><ele>832.3</ele><time>2012-04-29T10:29:00.0000000+00:00</time></trkpt><trkpt lat="43.163681" lon="19.28191"><ele>832.6</ele><time>2012-04-29T10:29:05.0000000+00:00</time></trkpt><trkpt lat="43.163685" lon="19.281948"><ele>833.6</ele><time>2012-04-29T10:29:10.0000000+00:00</time></trkpt><trkpt lat="43.163685" lon="19.281971"><ele>833.9</ele><time>2012-04-29T10:29:15.0000000+00:00</time></trkpt><trkpt lat="43.163654" lon="19.282032"><ele>835.5</ele><time>2012-04-29T10:29:20.0000000+00:00</time></trkpt><trkpt lat="43.163681" lon="19.282053"><ele>837.1</ele><time>2012-04-29T10:29:25.0000000+00:00</time></trkpt><trkpt lat="43.163715" lon="19.282013"><ele>837.7</ele><time>2012-04-29T10:29:30.0000000+00:00</time></trkpt><trkpt lat="43.163734" lon="19.282034"><ele>839.9</ele><time>2012-04-29T10:29:35.0000000+00:00</time></trkpt><trkpt lat="43.163738" lon="19.282074"><ele>842.5</ele><time>2012-04-29T10:29:40.0000000+00:00</time></trkpt><trkpt lat="43.163746" lon="19.282091"><ele>843.0</ele><time>2012-04-29T10:29:45.0000000+00:00</time></trkpt><trkpt lat="43.163742" lon="19.282137"><ele>843.2</ele><time>2012-04-29T10:29:50.0000000+00:00</time></trkpt><trkpt lat="43.16378" lon="19.282114"><ele>843.8</ele><time>2012-04-29T10:29:55.0000000+00:00</time></trkpt><trkpt lat="43.163788" lon="19.282131"><ele>844.1</ele><time>2012-04-29T10:30:00.0000000+00:00</time></trkpt><trkpt lat="43.163795" lon="19.282127"><ele>844.3</ele><time>2012-04-29T10:30:05.0000000+00:00</time></trkpt><trkpt lat="43.163826" lon="19.282154"><ele>846.2</ele><time>2012-04-29T10:30:10.0000000+00:00</time></trkpt><trkpt lat="43.163845" lon="19.282171"><ele>847.9</ele><time>2012-04-29T10:30:15.0000000+00:00</time></trkpt><trkpt lat="43.16386" lon="19.282158"><ele>848.5</ele><time>2012-04-29T10:30:20.0000000+00:00</time></trkpt><trkpt lat="43.163895" lon="19.282162"><ele>849.6</ele><time>2012-04-29T10:30:25.0000000+00:00</time></trkpt><trkpt lat="43.163914" lon="19.282171"><ele>851.6</ele><time>2012-04-29T10:30:30.0000000+00:00</time></trkpt><trkpt lat="43.163841" lon="19.282228"><ele>852.5</ele><time>2012-04-29T10:30:35.0000000+00:00</time></trkpt><trkpt lat="43.163857" lon="19.282274"><ele>852.8</ele><time>2012-04-29T10:30:40.0000000+00:00</time></trkpt><trkpt lat="43.163895" lon="19.282307"><ele>854.1</ele><time>2012-04-29T10:30:45.0000000+00:00</time></trkpt><trkpt lat="43.163929" lon="19.282272"><ele>854.6</ele><time>2012-04-29T10:30:50.0000000+00:00</time></trkpt><trkpt lat="43.163971" lon="19.282251"><ele>854.9</ele><time>2012-04-29T10:30:55.0000000+00:00</time></trkpt><trkpt lat="43.163948" lon="19.282291"><ele>855.4</ele><time>2012-04-29T10:31:00.0000000+00:00</time></trkpt><trkpt lat="43.16396" lon="19.28231"><ele>857.3</ele><time>2012-04-29T10:31:05.0000000+00:00</time></trkpt><trkpt lat="43.163933" lon="19.282364"><ele>859.3</ele><time>2012-04-29T10:31:10.0000000+00:00</time></trkpt><trkpt lat="43.163963" lon="19.282345"><ele>860.9</ele><time>2012-04-29T10:31:15.0000000+00:00</time></trkpt><trkpt lat="43.164013" lon="19.282303"><ele>861.8</ele><time>2012-04-29T10:31:20.0000000+00:00</time></trkpt><trkpt lat="43.164028" lon="19.282272"><ele>862.0</ele><time>2012-04-29T10:31:25.0000000+00:00</time></trkpt><trkpt lat="43.164036" lon="19.282276"><ele>862.4</ele><time>2012-04-29T10:31:30.0000000+00:00</time></trkpt><trkpt lat="43.164055" lon="19.282347"><ele>862.0</ele><time>2012-04-29T10:31:35.0000000+00:00</time></trkpt><trkpt lat="43.164089" lon="19.282387"><ele>862.3</ele><time>2012-04-29T10:31:40.0000000+00:00</time></trkpt><trkpt lat="43.164139" lon="19.282402"><ele>863.6</ele><time>2012-04-29T10:31:45.0000000+00:00</time></trkpt><trkpt lat="43.164169" lon="19.282387"><ele>864.7</ele><time>2012-04-29T10:31:50.0000000+00:00</time></trkpt><trkpt lat="43.164127" lon="19.282442"><ele>866.0</ele><time>2012-04-29T10:31:55.0000000+00:00</time></trkpt><trkpt lat="43.164131" lon="19.28245"><ele>866.2</ele><time>2012-04-29T10:32:00.0000000+00:00</time></trkpt><trkpt lat="43.164131" lon="19.282454"><ele>866.3</ele><time>2012-04-29T10:32:05.0000000+00:00</time></trkpt><trkpt lat="43.164127" lon="19.282461"><ele>866.6</ele><time>2012-04-29T10:32:10.0000000+00:00</time></trkpt><trkpt lat="43.164131" lon="19.282471"><ele>866.6</ele><time>2012-04-29T10:32:15.0000000+00:00</time></trkpt><trkpt lat="43.164135" lon="19.282471"><ele>866.6</ele><time>2012-04-29T10:32:20.0000000+00:00</time></trkpt><trkpt lat="43.164139" lon="19.282469"><ele>866.6</ele><time>2012-04-29T10:32:25.0000000+00:00</time></trkpt><trkpt lat="43.164135" lon="19.282475"><ele>866.7</ele><time>2012-04-29T10:32:30.0000000+00:00</time></trkpt><trkpt lat="43.164143" lon="19.282478"><ele>868.0</ele><time>2012-04-29T10:32:35.0000000+00:00</time></trkpt><trkpt lat="43.164173" lon="19.28245"><ele>868.9</ele><time>2012-04-29T10:32:40.0000000+00:00</time></trkpt><trkpt lat="43.164177" lon="19.282433"><ele>870.7</ele><time>2012-04-29T10:32:45.0000000+00:00</time></trkpt><trkpt lat="43.164177" lon="19.282431"><ele>870.8</ele><time>2012-04-29T10:32:50.0000000+00:00</time></trkpt><trkpt lat="43.164116" lon="19.282501"><ele>871.1</ele><time>2012-04-29T10:32:55.0000000+00:00</time></trkpt><trkpt lat="43.16404" lon="19.282579"><ele>871.9</ele><time>2012-04-29T10:33:00.0000000+00:00</time></trkpt><trkpt lat="43.163994" lon="19.282604"><ele>874.6</ele><time>2012-04-29T10:33:05.0000000+00:00</time></trkpt><trkpt lat="43.164001" lon="19.282595"><ele>876.8</ele><time>2012-04-29T10:33:10.0000000+00:00</time></trkpt><trkpt lat="43.164001" lon="19.282587"><ele>877.4</ele><time>2012-04-29T10:33:15.0000000+00:00</time></trkpt><trkpt lat="43.164028" lon="19.282574"><ele>878.2</ele><time>2012-04-29T10:33:20.0000000+00:00</time></trkpt><trkpt lat="43.164101" lon="19.282595"><ele>879.5</ele><time>2012-04-29T10:33:25.0000000+00:00</time></trkpt><trkpt lat="43.164177" lon="19.282602"><ele>881.2</ele><time>2012-04-29T10:33:30.0000000+00:00</time></trkpt><trkpt lat="43.164261" lon="19.282618"><ele>881.7</ele><time>2012-04-29T10:33:35.0000000+00:00</time></trkpt><trkpt lat="43.164299" lon="19.28266"><ele>881.4</ele><time>2012-04-29T10:33:40.0000000+00:00</time></trkpt><trkpt lat="43.164356" lon="19.282671"><ele>883.1</ele><time>2012-04-29T10:33:45.0000000+00:00</time></trkpt><trkpt lat="43.164379" lon="19.282692"><ele>884.6</ele><time>2012-04-29T10:33:50.0000000+00:00</time></trkpt><trkpt lat="43.164341" lon="19.282724"><ele>886.4</ele><time>2012-04-29T10:33:55.0000000+00:00</time></trkpt><trkpt lat="43.164326" lon="19.282742"><ele>887.8</ele><time>2012-04-29T10:34:00.0000000+00:00</time></trkpt><trkpt lat="43.164318" lon="19.28274"><ele>888.8</ele><time>2012-04-29T10:34:05.0000000+00:00</time></trkpt><trkpt lat="43.16431" lon="19.282743"><ele>889.6</ele><time>2012-04-29T10:34:10.0000000+00:00</time></trkpt><trkpt lat="43.164307" lon="19.282753"><ele>890.5</ele><time>2012-04-29T10:34:15.0000000+00:00</time></trkpt><trkpt lat="43.164314" lon="19.282755"><ele>891.3</ele><time>2012-04-29T10:34:20.0000000+00:00</time></trkpt><trkpt lat="43.164379" lon="19.282763"><ele>890.6</ele><time>2012-04-29T10:34:25.0000000+00:00</time></trkpt><trkpt lat="43.164391" lon="19.282772"><ele>891.9</ele><time>2012-04-29T10:34:30.0000000+00:00</time></trkpt><trkpt lat="43.164421" lon="19.282803"><ele>892.0</ele><time>2012-04-29T10:34:35.0000000+00:00</time></trkpt><trkpt lat="43.164406" lon="19.282825"><ele>891.1</ele><time>2012-04-29T10:34:40.0000000+00:00</time></trkpt><trkpt lat="43.164394" lon="19.282843"><ele>890.8</ele><time>2012-04-29T10:34:45.0000000+00:00</time></trkpt><trkpt lat="43.164383" lon="19.282883"><ele>890.3</ele><time>2012-04-29T10:34:50.0000000+00:00</time></trkpt><trkpt lat="43.164356" lon="19.28294"><ele>890.5</ele><time>2012-04-29T10:34:55.0000000+00:00</time></trkpt><trkpt lat="43.164345" lon="19.282961"><ele>891.3</ele><time>2012-04-29T10:35:00.0000000+00:00</time></trkpt><trkpt lat="43.164291" lon="19.282988"><ele>891.6</ele><time>2012-04-29T10:35:05.0000000+00:00</time></trkpt><trkpt lat="43.164284" lon="19.283028"><ele>891.3</ele><time>2012-04-29T10:35:10.0000000+00:00</time></trkpt><trkpt lat="43.164261" lon="19.283054"><ele>891.5</ele><time>2012-04-29T10:35:15.0000000+00:00</time></trkpt><trkpt lat="43.164238" lon="19.283083"><ele>891.6</ele><time>2012-04-29T10:35:20.0000000+00:00</time></trkpt><trkpt lat="43.164223" lon="19.283129"><ele>891.2</ele><time>2012-04-29T10:35:25.0000000+00:00</time></trkpt><trkpt lat="43.164211" lon="19.283155"><ele>891.0</ele><time>2012-04-29T10:35:30.0000000+00:00</time></trkpt><trkpt lat="43.164169" lon="19.283211"><ele>890.7</ele><time>2012-04-29T10:35:35.0000000+00:00</time></trkpt><trkpt lat="43.16412" lon="19.283264"><ele>892.1</ele><time>2012-04-29T10:35:40.0000000+00:00</time></trkpt><trkpt lat="43.164082" lon="19.283289"><ele>892.0</ele><time>2012-04-29T10:35:45.0000000+00:00</time></trkpt><trkpt lat="43.164059" lon="19.283308"><ele>891.7</ele><time>2012-04-29T10:35:50.0000000+00:00</time></trkpt><trkpt lat="43.164063" lon="19.28335"><ele>889.4</ele><time>2012-04-29T10:35:55.0000000+00:00</time></trkpt><trkpt lat="43.164116" lon="19.283407"><ele>888.0</ele><time>2012-04-29T10:36:00.0000000+00:00</time></trkpt><trkpt lat="43.164192" lon="19.28344"><ele>886.8</ele><time>2012-04-29T10:36:05.0000000+00:00</time></trkpt><trkpt lat="43.164253" lon="19.283447"><ele>886.1</ele><time>2012-04-29T10:36:10.0000000+00:00</time></trkpt><trkpt lat="43.16433" lon="19.283434"><ele>884.6</ele><time>2012-04-29T10:36:15.0000000+00:00</time></trkpt><trkpt lat="43.16441" lon="19.283426"><ele>884.8</ele><time>2012-04-29T10:36:20.0000000+00:00</time></trkpt><trkpt lat="43.164497" lon="19.283421"><ele>884.7</ele><time>2012-04-29T10:36:25.0000000+00:00</time></trkpt><trkpt lat="43.164639" lon="19.283407"><ele>883.4</ele><time>2012-04-29T10:36:30.0000000+00:00</time></trkpt><trkpt lat="43.16486" lon="19.283215"><ele>881.5</ele><time>2012-04-29T10:36:35.0000000+00:00</time></trkpt><trkpt lat="43.164898" lon="19.282875"><ele>882.6</ele><time>2012-04-29T10:36:40.0000000+00:00</time></trkpt><trkpt lat="43.164848" lon="19.282722"><ele>884.0</ele><time>2012-04-29T10:36:45.0000000+00:00</time></trkpt><trkpt lat="43.164757" lon="19.282566"><ele>883.5</ele><time>2012-04-29T10:36:50.0000000+00:00</time></trkpt><trkpt lat="43.16473" lon="19.282438"><ele>884.5</ele><time>2012-04-29T10:36:55.0000000+00:00</time></trkpt><trkpt lat="43.164745" lon="19.282293"><ele>885.2</ele><time>2012-04-29T10:37:00.0000000+00:00</time></trkpt><trkpt lat="43.164795" lon="19.282139"><ele>886.1</ele><time>2012-04-29T10:37:05.0000000+00:00</time></trkpt><trkpt lat="43.16486" lon="19.282021"><ele>887.0</ele><time>2012-04-29T10:37:10.0000000+00:00</time></trkpt><trkpt lat="43.164948" lon="19.281881"><ele>886.9</ele><time>2012-04-29T10:37:15.0000000+00:00</time></trkpt><trkpt lat="43.165035" lon="19.281813"><ele>887.9</ele><time>2012-04-29T10:37:20.0000000+00:00</time></trkpt><trkpt lat="43.165157" lon="19.281864"><ele>888.4</ele><time>2012-04-29T10:37:25.0000000+00:00</time></trkpt><trkpt lat="43.165264" lon="19.281973"><ele>889.6</ele><time>2012-04-29T10:37:30.0000000+00:00</time></trkpt><trkpt lat="43.165337" lon="19.282051"><ele>891.3</ele><time>2012-04-29T10:37:35.0000000+00:00</time></trkpt><trkpt lat="43.165421" lon="19.282097"><ele>892.7</ele><time>2012-04-29T10:37:40.0000000+00:00</time></trkpt><trkpt lat="43.16552" lon="19.282108"><ele>892.9</ele><time>2012-04-29T10:37:45.0000000+00:00</time></trkpt><trkpt lat="43.1656" lon="19.28212"><ele>893.2</ele><time>2012-04-29T10:37:50.0000000+00:00</time></trkpt><trkpt lat="43.165672" lon="19.282125"><ele>895.5</ele><time>2012-04-29T10:37:55.0000000+00:00</time></trkpt><trkpt lat="43.165756" lon="19.282112"><ele>898.0</ele><time>2012-04-29T10:38:00.0000000+00:00</time></trkpt><trkpt lat="43.165829" lon="19.282097"><ele>900.7</ele><time>2012-04-29T10:38:05.0000000+00:00</time></trkpt><trkpt lat="43.165894" lon="19.28199"><ele>901.4</ele><time>2012-04-29T10:38:10.0000000+00:00</time></trkpt><trkpt lat="43.165936" lon="19.281864"><ele>900.6</ele><time>2012-04-29T10:38:15.0000000+00:00</time></trkpt><trkpt lat="43.165977" lon="19.281759"><ele>901.5</ele><time>2012-04-29T10:38:20.0000000+00:00</time></trkpt><trkpt lat="43.166012" lon="19.281706"><ele>900.9</ele><time>2012-04-29T10:38:25.0000000+00:00</time></trkpt><trkpt lat="43.166012" lon="19.281715"><ele>900.6</ele><time>2012-04-29T10:38:30.0000000+00:00</time></trkpt><trkpt lat="43.166012" lon="19.281715"><ele>900.6</ele><time>2012-04-29T10:38:35.0000000+00:00</time></trkpt><trkpt lat="43.166012" lon="19.281713"><ele>900.6</ele><time>2012-04-29T10:38:40.0000000+00:00</time></trkpt><trkpt lat="43.166012" lon="19.281713"><ele>900.6</ele><time>2012-04-29T10:38:45.0000000+00:00</time></trkpt><trkpt lat="43.166012" lon="19.281713"><ele>900.6</ele><time>2012-04-29T10:38:50.0000000+00:00</time></trkpt><trkpt lat="43.166012" lon="19.281713"><ele>900.6</ele><time>2012-04-29T10:38:55.0000000+00:00</time></trkpt><trkpt lat="43.166016" lon="19.28171"><ele>900.5</ele><time>2012-04-29T10:39:00.0000000+00:00</time></trkpt><trkpt lat="43.166016" lon="19.28171"><ele>900.5</ele><time>2012-04-29T10:39:05.0000000+00:00</time></trkpt><trkpt lat="43.166016" lon="19.281704"><ele>900.5</ele><time>2012-04-29T10:39:10.0000000+00:00</time></trkpt><trkpt lat="43.166016" lon="19.281704"><ele>900.5</ele><time>2012-04-29T10:39:15.0000000+00:00</time></trkpt><trkpt lat="43.166016" lon="19.281689"><ele>900.2</ele><time>2012-04-29T10:39:20.0000000+00:00</time></trkpt><trkpt lat="43.166019" lon="19.281672"><ele>899.8</ele><time>2012-04-29T10:39:25.0000000+00:00</time></trkpt><trkpt lat="43.166027" lon="19.28162"><ele>898.6</ele><time>2012-04-29T10:39:30.0000000+00:00</time></trkpt><trkpt lat="43.166042" lon="19.281616"><ele>898.3</ele><time>2012-04-29T10:39:35.0000000+00:00</time></trkpt><trkpt lat="43.166054" lon="19.281609"><ele>897.7</ele><time>2012-04-29T10:39:40.0000000+00:00</time></trkpt><trkpt lat="43.166054" lon="19.281609"><ele>897.7</ele><time>2012-04-29T10:39:45.0000000+00:00</time></trkpt><trkpt lat="43.166054" lon="19.281609"><ele>897.8</ele><time>2012-04-29T10:39:50.0000000+00:00</time></trkpt><trkpt lat="43.16605" lon="19.281609"><ele>897.8</ele><time>2012-04-29T10:39:55.0000000+00:00</time></trkpt><trkpt lat="43.166054" lon="19.28161"><ele>897.8</ele><time>2012-04-29T10:40:00.0000000+00:00</time></trkpt><trkpt lat="43.166054" lon="19.28161"><ele>897.9</ele><time>2012-04-29T10:40:05.0000000+00:00</time></trkpt><trkpt lat="43.166054" lon="19.281609"><ele>897.9</ele><time>2012-04-29T10:40:10.0000000+00:00</time></trkpt><trkpt lat="43.166054" lon="19.28161"><ele>897.8</ele><time>2012-04-29T10:40:15.0000000+00:00</time></trkpt><trkpt lat="43.166054" lon="19.281609"><ele>897.8</ele><time>2012-04-29T10:40:20.0000000+00:00</time></trkpt><trkpt lat="43.166035" lon="19.281437"><ele>896.9</ele><time>2012-04-29T10:40:25.0000000+00:00</time></trkpt><trkpt lat="43.166031" lon="19.281208"><ele>896.0</ele><time>2012-04-29T10:40:30.0000000+00:00</time></trkpt><trkpt lat="43.166016" lon="19.280991"><ele>895.9</ele><time>2012-04-29T10:40:35.0000000+00:00</time></trkpt><trkpt lat="43.165958" lon="19.280773"><ele>894.6</ele><time>2012-04-29T10:40:40.0000000+00:00</time></trkpt><trkpt lat="43.165913" lon="19.280539"><ele>893.5</ele><time>2012-04-29T10:40:45.0000000+00:00</time></trkpt><trkpt lat="43.16589" lon="19.28035"><ele>892.9</ele><time>2012-04-29T10:40:50.0000000+00:00</time></trkpt><trkpt lat="43.165882" lon="19.280325"><ele>894.3</ele><time>2012-04-29T10:40:55.0000000+00:00</time></trkpt><trkpt lat="43.165882" lon="19.280321"><ele>894.0</ele><time>2012-04-29T10:41:00.0000000+00:00</time></trkpt><trkpt lat="43.165882" lon="19.280323"><ele>893.9</ele><time>2012-04-29T10:41:05.0000000+00:00</time></trkpt><trkpt lat="43.165882" lon="19.280323"><ele>893.9</ele><time>2012-04-29T10:41:10.0000000+00:00</time></trkpt><trkpt lat="43.165878" lon="19.280313"><ele>893.9</ele><time>2012-04-29T10:41:15.0000000+00:00</time></trkpt><trkpt lat="43.165878" lon="19.280294"><ele>893.6</ele><time>2012-04-29T10:41:20.0000000+00:00</time></trkpt><trkpt lat="43.165878" lon="19.280289"><ele>894.1</ele><time>2012-04-29T10:41:25.0000000+00:00</time></trkpt><trkpt lat="43.165878" lon="19.280268"><ele>894.9</ele><time>2012-04-29T10:41:30.0000000+00:00</time></trkpt><trkpt lat="43.165871" lon="19.280273"><ele>895.3</ele><time>2012-04-29T10:41:35.0000000+00:00</time></trkpt><trkpt lat="43.165874" lon="19.280237"><ele>895.6</ele><time>2012-04-29T10:41:40.0000000+00:00</time></trkpt><trkpt lat="43.165874" lon="19.28018"><ele>895.1</ele><time>2012-04-29T10:41:45.0000000+00:00</time></trkpt><trkpt lat="43.165878" lon="19.280117"><ele>895.6</ele><time>2012-04-29T10:41:50.0000000+00:00</time></trkpt><trkpt lat="43.165878" lon="19.280111"><ele>896.1</ele><time>2012-04-29T10:41:55.0000000+00:00</time></trkpt><trkpt lat="43.165878" lon="19.280111"><ele>896.1</ele><time>2012-04-29T10:42:00.0000000+00:00</time></trkpt><trkpt lat="43.165878" lon="19.280043"><ele>896.3</ele><time>2012-04-29T10:42:05.0000000+00:00</time></trkpt><trkpt lat="43.165863" lon="19.279976"><ele>896.1</ele><time>2012-04-29T10:42:10.0000000+00:00</time></trkpt><trkpt lat="43.165848" lon="19.27997"><ele>897.3</ele><time>2012-04-29T10:42:15.0000000+00:00</time></trkpt><trkpt lat="43.165844" lon="19.27997"><ele>898.0</ele><time>2012-04-29T10:42:20.0000000+00:00</time></trkpt><trkpt lat="43.165844" lon="19.279968"><ele>898.6</ele><time>2012-04-29T10:42:25.0000000+00:00</time></trkpt><trkpt lat="43.16584" lon="19.279968"><ele>899.2</ele><time>2012-04-29T10:42:30.0000000+00:00</time></trkpt><trkpt lat="43.165836" lon="19.279968"><ele>899.8</ele><time>2012-04-29T10:42:35.0000000+00:00</time></trkpt><trkpt lat="43.165836" lon="19.279968"><ele>900.4</ele><time>2012-04-29T10:42:40.0000000+00:00</time></trkpt><trkpt lat="43.165833" lon="19.279968"><ele>901.0</ele><time>2012-04-29T10:42:45.0000000+00:00</time></trkpt><trkpt lat="43.165833" lon="19.279968"><ele>901.6</ele><time>2012-04-29T10:42:50.0000000+00:00</time></trkpt><trkpt lat="43.165829" lon="19.279966"><ele>902.1</ele><time>2012-04-29T10:42:55.0000000+00:00</time></trkpt><trkpt lat="43.165829" lon="19.279966"><ele>902.7</ele><time>2012-04-29T10:43:00.0000000+00:00</time></trkpt><trkpt lat="43.165825" lon="19.279966"><ele>903.2</ele><time>2012-04-29T10:43:05.0000000+00:00</time></trkpt><trkpt lat="43.165825" lon="19.279966"><ele>903.6</ele><time>2012-04-29T10:43:10.0000000+00:00</time></trkpt><trkpt lat="43.165825" lon="19.279968"><ele>903.9</ele><time>2012-04-29T10:43:15.0000000+00:00</time></trkpt><trkpt lat="43.165821" lon="19.279968"><ele>903.9</ele><time>2012-04-29T10:43:20.0000000+00:00</time></trkpt><trkpt lat="43.165821" lon="19.279968"><ele>903.9</ele><time>2012-04-29T10:43:25.0000000+00:00</time></trkpt><trkpt lat="43.165821" lon="19.279968"><ele>903.9</ele><time>2012-04-29T10:43:30.0000000+00:00</time></trkpt><trkpt lat="43.165821" lon="19.279968"><ele>903.9</ele><time>2012-04-29T10:43:35.0000000+00:00</time></trkpt><trkpt lat="43.165821" lon="19.279968"><ele>903.9</ele><time>2012-04-29T10:43:40.0000000+00:00</time></trkpt><trkpt lat="43.165821" lon="19.279968"><ele>903.9</ele><time>2012-04-29T10:43:45.0000000+00:00</time></trkpt><trkpt lat="43.165821" lon="19.279968"><ele>903.9</ele><time>2012-04-29T10:43:50.0000000+00:00</time></trkpt><trkpt lat="43.165821" lon="19.27997"><ele>903.9</ele><time>2012-04-29T10:43:55.0000000+00:00</time></trkpt><trkpt lat="43.165821" lon="19.27997"><ele>903.8</ele><time>2012-04-29T10:44:00.0000000+00:00</time></trkpt><trkpt lat="43.165821" lon="19.27997"><ele>903.8</ele><time>2012-04-29T10:44:05.0000000+00:00</time></trkpt><trkpt lat="43.165821" lon="19.27997"><ele>903.8</ele><time>2012-04-29T10:44:10.0000000+00:00</time></trkpt><trkpt lat="43.165821" lon="19.27997"><ele>903.7</ele><time>2012-04-29T10:44:15.0000000+00:00</time></trkpt><trkpt lat="43.165821" lon="19.27997"><ele>903.7</ele><time>2012-04-29T10:44:20.0000000+00:00</time></trkpt><trkpt lat="43.165821" lon="19.27997"><ele>903.8</ele><time>2012-04-29T10:44:25.0000000+00:00</time></trkpt><trkpt lat="43.165821" lon="19.27997"><ele>903.8</ele><time>2012-04-29T10:44:30.0000000+00:00</time></trkpt><trkpt lat="43.165821" lon="19.27997"><ele>903.8</ele><time>2012-04-29T10:44:35.0000000+00:00</time></trkpt><trkpt lat="43.165821" lon="19.27997"><ele>903.8</ele><time>2012-04-29T10:44:40.0000000+00:00</time></trkpt><trkpt lat="43.165821" lon="19.27997"><ele>903.8</ele><time>2012-04-29T10:44:45.0000000+00:00</time></trkpt><trkpt lat="43.165821" lon="19.27997"><ele>903.8</ele><time>2012-04-29T10:44:50.0000000+00:00</time></trkpt><trkpt lat="43.165821" lon="19.27997"><ele>903.7</ele><time>2012-04-29T10:44:55.0000000+00:00</time></trkpt><trkpt lat="43.165821" lon="19.27997"><ele>903.7</ele><time>2012-04-29T10:45:00.0000000+00:00</time></trkpt><trkpt lat="43.165821" lon="19.27997"><ele>903.7</ele><time>2012-04-29T10:45:05.0000000+00:00</time></trkpt><trkpt lat="43.165821" lon="19.27997"><ele>903.6</ele><time>2012-04-29T10:45:10.0000000+00:00</time></trkpt><trkpt lat="43.165821" lon="19.27997"><ele>903.6</ele><time>2012-04-29T10:45:15.0000000+00:00</time></trkpt><trkpt lat="43.165821" lon="19.27997"><ele>903.6</ele><time>2012-04-29T10:45:20.0000000+00:00</time></trkpt><trkpt lat="43.165821" lon="19.279972"><ele>903.6</ele><time>2012-04-29T10:45:25.0000000+00:00</time></trkpt><trkpt lat="43.165821" lon="19.279972"><ele>903.6</ele><time>2012-04-29T10:45:30.0000000+00:00</time></trkpt><trkpt lat="43.165821" lon="19.279972"><ele>903.6</ele><time>2012-04-29T10:45:35.0000000+00:00</time></trkpt><trkpt lat="43.165821" lon="19.27997"><ele>903.6</ele><time>2012-04-29T10:45:40.0000000+00:00</time></trkpt><trkpt lat="43.165821" lon="19.27997"><ele>903.6</ele><time>2012-04-29T10:45:45.0000000+00:00</time></trkpt><trkpt lat="43.165821" lon="19.27997"><ele>903.6</ele><time>2012-04-29T10:45:50.0000000+00:00</time></trkpt><trkpt lat="43.165821" lon="19.27997"><ele>903.5</ele><time>2012-04-29T10:45:55.0000000+00:00</time></trkpt><trkpt lat="43.165821" lon="19.27997"><ele>903.6</ele><time>2012-04-29T10:46:00.0000000+00:00</time></trkpt><trkpt lat="43.165821" lon="19.27997"><ele>903.6</ele><time>2012-04-29T10:46:05.0000000+00:00</time></trkpt><trkpt lat="43.165821" lon="19.27997"><ele>903.6</ele><time>2012-04-29T10:46:10.0000000+00:00</time></trkpt><trkpt lat="43.165821" lon="19.27997"><ele>903.6</ele><time>2012-04-29T10:46:15.0000000+00:00</time></trkpt><trkpt lat="43.165821" lon="19.27997"><ele>903.6</ele><time>2012-04-29T10:46:20.0000000+00:00</time></trkpt><trkpt lat="43.165821" lon="19.27997"><ele>903.6</ele><time>2012-04-29T10:46:25.0000000+00:00</time></trkpt><trkpt lat="43.165821" lon="19.27997"><ele>903.6</ele><time>2012-04-29T10:46:30.0000000+00:00</time></trkpt><trkpt lat="43.165821" lon="19.279972"><ele>903.6</ele><time>2012-04-29T10:46:35.0000000+00:00</time></trkpt><trkpt lat="43.165821" lon="19.279972"><ele>903.6</ele><time>2012-04-29T10:46:40.0000000+00:00</time></trkpt><trkpt lat="43.165821" lon="19.27997"><ele>903.6</ele><time>2012-04-29T10:46:45.0000000+00:00</time></trkpt><trkpt lat="43.165817" lon="19.27997"><ele>903.7</ele><time>2012-04-29T10:46:50.0000000+00:00</time></trkpt><trkpt lat="43.165817" lon="19.27997"><ele>903.7</ele><time>2012-04-29T10:46:55.0000000+00:00</time></trkpt><trkpt lat="43.165817" lon="19.27997"><ele>903.7</ele><time>2012-04-29T10:47:00.0000000+00:00</time></trkpt><trkpt lat="43.165817" lon="19.27997"><ele>903.7</ele><time>2012-04-29T10:47:05.0000000+00:00</time></trkpt><trkpt lat="43.165817" lon="19.27997"><ele>903.8</ele><time>2012-04-29T10:47:10.0000000+00:00</time></trkpt><trkpt lat="43.165817" lon="19.27997"><ele>903.8</ele><time>2012-04-29T10:47:15.0000000+00:00</time></trkpt><trkpt lat="43.165817" lon="19.27997"><ele>903.8</ele><time>2012-04-29T10:47:20.0000000+00:00</time></trkpt><trkpt lat="43.165817" lon="19.27997"><ele>903.8</ele><time>2012-04-29T10:47:25.0000000+00:00</time></trkpt><trkpt lat="43.165817" lon="19.27997"><ele>903.8</ele><time>2012-04-29T10:47:30.0000000+00:00</time></trkpt><trkpt lat="43.165817" lon="19.27997"><ele>903.8</ele><time>2012-04-29T10:47:35.0000000+00:00</time></trkpt><trkpt lat="43.165817" lon="19.27997"><ele>903.8</ele><time>2012-04-29T10:47:40.0000000+00:00</time></trkpt><trkpt lat="43.165817" lon="19.27997"><ele>903.8</ele><time>2012-04-29T10:47:45.0000000+00:00</time></trkpt><trkpt lat="43.165817" lon="19.27997"><ele>903.8</ele><time>2012-04-29T10:47:50.0000000+00:00</time></trkpt><trkpt lat="43.165817" lon="19.27997"><ele>903.8</ele><time>2012-04-29T10:47:55.0000000+00:00</time></trkpt><trkpt lat="43.165817" lon="19.27997"><ele>903.8</ele><time>2012-04-29T10:48:00.0000000+00:00</time></trkpt><trkpt lat="43.165817" lon="19.27997"><ele>903.8</ele><time>2012-04-29T10:48:05.0000000+00:00</time></trkpt><trkpt lat="43.165817" lon="19.279972"><ele>903.8</ele><time>2012-04-29T10:48:10.0000000+00:00</time></trkpt><trkpt lat="43.165817" lon="19.279972"><ele>903.8</ele><time>2012-04-29T10:48:15.0000000+00:00</time></trkpt><trkpt lat="43.165817" lon="19.279972"><ele>903.7</ele><time>2012-04-29T10:48:20.0000000+00:00</time></trkpt><trkpt lat="43.165817" lon="19.279972"><ele>903.7</ele><time>2012-04-29T10:48:25.0000000+00:00</time></trkpt><trkpt lat="43.165825" lon="19.279972"><ele>904.1</ele><time>2012-04-29T10:48:30.0000000+00:00</time></trkpt><trkpt lat="43.165825" lon="19.27997"><ele>904.2</ele><time>2012-04-29T10:48:35.0000000+00:00</time></trkpt><trkpt lat="43.165825" lon="19.27997"><ele>904.2</ele><time>2012-04-29T10:48:40.0000000+00:00</time></trkpt><trkpt lat="43.165825" lon="19.27997"><ele>904.2</ele><time>2012-04-29T10:48:45.0000000+00:00</time></trkpt><trkpt lat="43.165825" lon="19.27997"><ele>904.2</ele><time>2012-04-29T10:48:50.0000000+00:00</time></trkpt><trkpt lat="43.165825" lon="19.27997"><ele>904.2</ele><time>2012-04-29T10:48:55.0000000+00:00</time></trkpt><trkpt lat="43.165825" lon="19.27997"><ele>904.2</ele><time>2012-04-29T10:49:00.0000000+00:00</time></trkpt><trkpt lat="43.165825" lon="19.27997"><ele>904.2</ele><time>2012-04-29T10:49:05.0000000+00:00</time></trkpt><trkpt lat="43.165825" lon="19.27997"><ele>904.2</ele><time>2012-04-29T10:49:10.0000000+00:00</time></trkpt><trkpt lat="43.165825" lon="19.27997"><ele>904.2</ele><time>2012-04-29T10:49:15.0000000+00:00</time></trkpt><trkpt lat="43.165825" lon="19.27997"><ele>904.2</ele><time>2012-04-29T10:49:20.0000000+00:00</time></trkpt><trkpt lat="43.165825" lon="19.27997"><ele>904.2</ele><time>2012-04-29T10:49:25.0000000+00:00</time></trkpt><trkpt lat="43.165825" lon="19.27997"><ele>904.2</ele><time>2012-04-29T10:49:30.0000000+00:00</time></trkpt><trkpt lat="43.165825" lon="19.27997"><ele>904.2</ele><time>2012-04-29T10:49:35.0000000+00:00</time></trkpt><trkpt lat="43.165825" lon="19.27997"><ele>904.2</ele><time>2012-04-29T10:49:40.0000000+00:00</time></trkpt><trkpt lat="43.165825" lon="19.27997"><ele>904.2</ele><time>2012-04-29T10:49:45.0000000+00:00</time></trkpt><trkpt lat="43.165825" lon="19.27997"><ele>904.2</ele><time>2012-04-29T10:49:50.0000000+00:00</time></trkpt><trkpt lat="43.165825" lon="19.27997"><ele>904.2</ele><time>2012-04-29T10:49:55.0000000+00:00</time></trkpt><trkpt lat="43.165825" lon="19.27997"><ele>904.2</ele><time>2012-04-29T10:50:00.0000000+00:00</time></trkpt><trkpt lat="43.165825" lon="19.27997"><ele>904.2</ele><time>2012-04-29T10:50:05.0000000+00:00</time></trkpt><trkpt lat="43.165825" lon="19.27997"><ele>904.2</ele><time>2012-04-29T10:50:10.0000000+00:00</time></trkpt><trkpt lat="43.165825" lon="19.27997"><ele>904.2</ele><time>2012-04-29T10:50:15.0000000+00:00</time></trkpt><trkpt lat="43.165825" lon="19.27997"><ele>904.2</ele><time>2012-04-29T10:50:20.0000000+00:00</time></trkpt><trkpt lat="43.165825" lon="19.27997"><ele>904.2</ele><time>2012-04-29T10:50:25.0000000+00:00</time></trkpt><trkpt lat="43.165825" lon="19.279968"><ele>904.2</ele><time>2012-04-29T10:50:30.0000000+00:00</time></trkpt><trkpt lat="43.165825" lon="19.279968"><ele>904.2</ele><time>2012-04-29T10:50:35.0000000+00:00</time></trkpt><trkpt lat="43.165829" lon="19.279968"><ele>904.1</ele><time>2012-04-29T10:50:40.0000000+00:00</time></trkpt><trkpt lat="43.165829" lon="19.279968"><ele>904.1</ele><time>2012-04-29T10:50:45.0000000+00:00</time></trkpt><trkpt lat="43.165829" lon="19.279968"><ele>904.1</ele><time>2012-04-29T10:50:50.0000000+00:00</time></trkpt><trkpt lat="43.165829" lon="19.279968"><ele>904.1</ele><time>2012-04-29T10:50:55.0000000+00:00</time></trkpt><trkpt lat="43.165829" lon="19.279968"><ele>904.1</ele><time>2012-04-29T10:51:00.0000000+00:00</time></trkpt><trkpt lat="43.165829" lon="19.279968"><ele>904.1</ele><time>2012-04-29T10:51:05.0000000+00:00</time></trkpt><trkpt lat="43.165829" lon="19.279968"><ele>904.1</ele><time>2012-04-29T10:51:10.0000000+00:00</time></trkpt><trkpt lat="43.165829" lon="19.279968"><ele>904.1</ele><time>2012-04-29T10:51:15.0000000+00:00</time></trkpt><trkpt lat="43.165829" lon="19.279968"><ele>904.1</ele><time>2012-04-29T10:51:20.0000000+00:00</time></trkpt><trkpt lat="43.165829" lon="19.279968"><ele>904.1</ele><time>2012-04-29T10:51:25.0000000+00:00</time></trkpt><trkpt lat="43.165825" lon="19.279968"><ele>904.1</ele><time>2012-04-29T10:51:30.0000000+00:00</time></trkpt><trkpt lat="43.165825" lon="19.279968"><ele>904.1</ele><time>2012-04-29T10:51:35.0000000+00:00</time></trkpt><trkpt lat="43.165825" lon="19.279968"><ele>904.1</ele><time>2012-04-29T10:51:40.0000000+00:00</time></trkpt><trkpt lat="43.165825" lon="19.279968"><ele>904.1</ele><time>2012-04-29T10:51:45.0000000+00:00</time></trkpt><trkpt lat="43.165825" lon="19.279968"><ele>904.1</ele><time>2012-04-29T10:51:50.0000000+00:00</time></trkpt><trkpt lat="43.165825" lon="19.279968"><ele>904.1</ele><time>2012-04-29T10:51:55.0000000+00:00</time></trkpt><trkpt lat="43.165825" lon="19.279968"><ele>904.1</ele><time>2012-04-29T10:52:00.0000000+00:00</time></trkpt><trkpt lat="43.165825" lon="19.279968"><ele>904.1</ele><time>2012-04-29T10:52:05.0000000+00:00</time></trkpt><trkpt lat="43.165825" lon="19.279968"><ele>904.1</ele><time>2012-04-29T10:52:10.0000000+00:00</time></trkpt><trkpt lat="43.165825" lon="19.279968"><ele>904.1</ele><time>2012-04-29T10:52:15.0000000+00:00</time></trkpt><trkpt lat="43.165825" lon="19.279968"><ele>904.1</ele><time>2012-04-29T10:52:20.0000000+00:00</time></trkpt><trkpt lat="43.165825" lon="19.279968"><ele>904.1</ele><time>2012-04-29T10:52:25.0000000+00:00</time></trkpt><trkpt lat="43.165825" lon="19.279968"><ele>904.1</ele><time>2012-04-29T10:52:30.0000000+00:00</time></trkpt><trkpt lat="43.165825" lon="19.279968"><ele>904.0</ele><time>2012-04-29T10:52:35.0000000+00:00</time></trkpt><trkpt lat="43.165825" lon="19.279968"><ele>904.1</ele><time>2012-04-29T10:52:40.0000000+00:00</time></trkpt><trkpt lat="43.165825" lon="19.279968"><ele>904.1</ele><time>2012-04-29T10:52:45.0000000+00:00</time></trkpt><trkpt lat="43.165825" lon="19.279968"><ele>904.0</ele><time>2012-04-29T10:52:50.0000000+00:00</time></trkpt><trkpt lat="43.165825" lon="19.279968"><ele>904.0</ele><time>2012-04-29T10:52:55.0000000+00:00</time></trkpt><trkpt lat="43.165825" lon="19.279968"><ele>904.0</ele><time>2012-04-29T10:53:00.0000000+00:00</time></trkpt><trkpt lat="43.165825" lon="19.279968"><ele>904.0</ele><time>2012-04-29T10:53:05.0000000+00:00</time></trkpt><trkpt lat="43.165825" lon="19.279968"><ele>904.1</ele><time>2012-04-29T10:53:10.0000000+00:00</time></trkpt><trkpt lat="43.165825" lon="19.279968"><ele>904.0</ele><time>2012-04-29T10:53:15.0000000+00:00</time></trkpt><trkpt lat="43.165825" lon="19.279968"><ele>904.0</ele><time>2012-04-29T10:53:20.0000000+00:00</time></trkpt><trkpt lat="43.165825" lon="19.279968"><ele>904.0</ele><time>2012-04-29T10:53:25.0000000+00:00</time></trkpt><trkpt lat="43.165825" lon="19.279968"><ele>904.0</ele><time>2012-04-29T10:53:30.0000000+00:00</time></trkpt><trkpt lat="43.165825" lon="19.279968"><ele>904.0</ele><time>2012-04-29T10:53:35.0000000+00:00</time></trkpt><trkpt lat="43.165825" lon="19.279968"><ele>904.0</ele><time>2012-04-29T10:53:40.0000000+00:00</time></trkpt><trkpt lat="43.165825" lon="19.279966"><ele>904.0</ele><time>2012-04-29T10:53:45.0000000+00:00</time></trkpt><trkpt lat="43.165825" lon="19.279966"><ele>904.0</ele><time>2012-04-29T10:53:50.0000000+00:00</time></trkpt><trkpt lat="43.165825" lon="19.279966"><ele>904.0</ele><time>2012-04-29T10:53:55.0000000+00:00</time></trkpt><trkpt lat="43.165825" lon="19.279966"><ele>904.0</ele><time>2012-04-29T10:54:00.0000000+00:00</time></trkpt><trkpt lat="43.165825" lon="19.279968"><ele>904.0</ele><time>2012-04-29T10:54:05.0000000+00:00</time></trkpt><trkpt lat="43.165825" lon="19.279968"><ele>904.0</ele><time>2012-04-29T10:54:10.0000000+00:00</time></trkpt><trkpt lat="43.165825" lon="19.279968"><ele>904.0</ele><time>2012-04-29T10:54:15.0000000+00:00</time></trkpt><trkpt lat="43.165825" lon="19.279966"><ele>904.0</ele><time>2012-04-29T10:54:20.0000000+00:00</time></trkpt><trkpt lat="43.165825" lon="19.279966"><ele>904.0</ele><time>2012-04-29T10:54:25.0000000+00:00</time></trkpt><trkpt lat="43.165825" lon="19.279968"><ele>903.9</ele><time>2012-04-29T10:54:30.0000000+00:00</time></trkpt><trkpt lat="43.165825" lon="19.279968"><ele>903.9</ele><time>2012-04-29T10:54:35.0000000+00:00</time></trkpt><trkpt lat="43.165825" lon="19.279968"><ele>903.9</ele><time>2012-04-29T10:54:40.0000000+00:00</time></trkpt><trkpt lat="43.165825" lon="19.279968"><ele>903.9</ele><time>2012-04-29T10:54:45.0000000+00:00</time></trkpt><trkpt lat="43.165825" lon="19.279968"><ele>903.9</ele><time>2012-04-29T10:54:50.0000000+00:00</time></trkpt><trkpt lat="43.165825" lon="19.279968"><ele>903.9</ele><time>2012-04-29T10:54:55.0000000+00:00</time></trkpt><trkpt lat="43.165829" lon="19.279964"><ele>903.7</ele><time>2012-04-29T10:55:00.0000000+00:00</time></trkpt><trkpt lat="43.165833" lon="19.279816"><ele>903.4</ele><time>2012-04-29T10:55:05.0000000+00:00</time></trkpt><trkpt lat="43.165874" lon="19.27953"><ele>901.6</ele><time>2012-04-29T10:55:10.0000000+00:00</time></trkpt><trkpt lat="43.165955" lon="19.279253"><ele>900.1</ele><time>2012-04-29T10:55:15.0000000+00:00</time></trkpt><trkpt lat="43.166039" lon="19.278969"><ele>898.4</ele><time>2012-04-29T10:55:20.0000000+00:00</time></trkpt><trkpt lat="43.16613" lon="19.278687"><ele>896.9</ele><time>2012-04-29T10:55:25.0000000+00:00</time></trkpt><trkpt lat="43.166241" lon="19.27844"><ele>895.8</ele><time>2012-04-29T10:55:30.0000000+00:00</time></trkpt><trkpt lat="43.166409" lon="19.278145"><ele>895.7</ele><time>2012-04-29T10:55:35.0000000+00:00</time></trkpt><trkpt lat="43.166569" lon="19.277885"><ele>896.0</ele><time>2012-04-29T10:55:40.0000000+00:00</time></trkpt><trkpt lat="43.166603" lon="19.277822"><ele>896.7</ele><time>2012-04-29T10:55:45.0000000+00:00</time></trkpt><trkpt lat="43.166721" lon="19.277641"><ele>897.6</ele><time>2012-04-29T10:55:50.0000000+00:00</time></trkpt><trkpt lat="43.166969" lon="19.277294"><ele>897.8</ele><time>2012-04-29T10:55:55.0000000+00:00</time></trkpt><trkpt lat="43.167244" lon="19.276838"><ele>898.1</ele><time>2012-04-29T10:56:00.0000000+00:00</time></trkpt><trkpt lat="43.167465" lon="19.276268"><ele>897.9</ele><time>2012-04-29T10:56:05.0000000+00:00</time></trkpt><trkpt lat="43.167721" lon="19.275862"><ele>897.1</ele><time>2012-04-29T10:56:10.0000000+00:00</time></trkpt><trkpt lat="43.167942" lon="19.275469"><ele>896.4</ele><time>2012-04-29T10:56:15.0000000+00:00</time></trkpt><trkpt lat="43.168034" lon="19.275284"><ele>896.1</ele><time>2012-04-29T10:56:20.0000000+00:00</time></trkpt><trkpt lat="43.168072" lon="19.275215"><ele>895.8</ele><time>2012-04-29T10:56:25.0000000+00:00</time></trkpt><trkpt lat="43.168102" lon="19.275095"><ele>895.6</ele><time>2012-04-29T10:56:30.0000000+00:00</time></trkpt><trkpt lat="43.168156" lon="19.274967"><ele>895.5</ele><time>2012-04-29T10:56:35.0000000+00:00</time></trkpt><trkpt lat="43.168221" lon="19.274696"><ele>895.8</ele><time>2012-04-29T10:56:40.0000000+00:00</time></trkpt><trkpt lat="43.168312" lon="19.274401"><ele>893.9</ele><time>2012-04-29T10:56:45.0000000+00:00</time></trkpt><trkpt lat="43.168495" lon="19.274059"><ele>890.3</ele><time>2012-04-29T10:56:50.0000000+00:00</time></trkpt><trkpt lat="43.16869" lon="19.273623"><ele>883.3</ele><time>2012-04-29T10:56:55.0000000+00:00</time></trkpt><trkpt lat="43.168755" lon="19.27314"><ele>880.8</ele><time>2012-04-29T10:57:00.0000000+00:00</time></trkpt><trkpt lat="43.168819" lon="19.272734"><ele>878.2</ele><time>2012-04-29T10:57:05.0000000+00:00</time></trkpt><trkpt lat="43.168861" lon="19.27253"><ele>876.9</ele><time>2012-04-29T10:57:10.0000000+00:00</time></trkpt><trkpt lat="43.168903" lon="19.272392"><ele>876.4</ele><time>2012-04-29T10:57:15.0000000+00:00</time></trkpt><trkpt lat="43.16893" lon="19.272316"><ele>875.0</ele><time>2012-04-29T10:57:20.0000000+00:00</time></trkpt><trkpt lat="43.168949" lon="19.272165"><ele>873.6</ele><time>2012-04-29T10:57:25.0000000+00:00</time></trkpt><trkpt lat="43.168976" lon="19.271915"><ele>872.3</ele><time>2012-04-29T10:57:30.0000000+00:00</time></trkpt><trkpt lat="43.169163" lon="19.271544"><ele>868.5</ele><time>2012-04-29T10:57:35.0000000+00:00</time></trkpt><trkpt lat="43.169342" lon="19.271019"><ele>864.8</ele><time>2012-04-29T10:57:40.0000000+00:00</time></trkpt><trkpt lat="43.169327" lon="19.270548"><ele>862.9</ele><time>2012-04-29T10:57:45.0000000+00:00</time></trkpt><trkpt lat="43.169315" lon="19.270287"><ele>860.7</ele><time>2012-04-29T10:57:50.0000000+00:00</time></trkpt><trkpt lat="43.169342" lon="19.270081"><ele>859.4</ele><time>2012-04-29T10:57:55.0000000+00:00</time></trkpt><trkpt lat="43.169392" lon="19.269905"><ele>861.0</ele><time>2012-04-29T10:58:00.0000000+00:00</time></trkpt><trkpt lat="43.16943" lon="19.269846"><ele>863.8</ele><time>2012-04-29T10:58:05.0000000+00:00</time></trkpt><trkpt lat="43.169434" lon="19.269836"><ele>864.3</ele><time>2012-04-29T10:58:10.0000000+00:00</time></trkpt><trkpt lat="43.169434" lon="19.269838"><ele>864.4</ele><time>2012-04-29T10:58:15.0000000+00:00</time></trkpt><trkpt lat="43.169434" lon="19.269838"><ele>864.5</ele><time>2012-04-29T10:58:20.0000000+00:00</time></trkpt><trkpt lat="43.169434" lon="19.269838"><ele>864.5</ele><time>2012-04-29T10:58:25.0000000+00:00</time></trkpt><trkpt lat="43.169434" lon="19.269838"><ele>864.5</ele><time>2012-04-29T10:58:30.0000000+00:00</time></trkpt><trkpt lat="43.169434" lon="19.269838"><ele>864.5</ele><time>2012-04-29T10:58:35.0000000+00:00</time></trkpt><trkpt lat="43.169434" lon="19.269838"><ele>864.6</ele><time>2012-04-29T10:58:40.0000000+00:00</time></trkpt><trkpt lat="43.169434" lon="19.269838"><ele>864.6</ele><time>2012-04-29T10:58:45.0000000+00:00</time></trkpt><trkpt lat="43.169453" lon="19.269823"><ele>864.9</ele><time>2012-04-29T10:58:50.0000000+00:00</time></trkpt><trkpt lat="43.169464" lon="19.269817"><ele>866.4</ele><time>2012-04-29T10:58:55.0000000+00:00</time></trkpt><trkpt lat="43.169464" lon="19.269817"><ele>866.4</ele><time>2012-04-29T10:59:00.0000000+00:00</time></trkpt><trkpt lat="43.169559" lon="19.269817"><ele>866.8</ele><time>2012-04-29T10:59:05.0000000+00:00</time></trkpt><trkpt lat="43.169693" lon="19.269787"><ele>866.1</ele><time>2012-04-29T10:59:10.0000000+00:00</time></trkpt><trkpt lat="43.169861" lon="19.269806"><ele>866.3</ele><time>2012-04-29T10:59:15.0000000+00:00</time></trkpt><trkpt lat="43.17001" lon="19.269831"><ele>867.0</ele><time>2012-04-29T10:59:20.0000000+00:00</time></trkpt><trkpt lat="43.170151" lon="19.26977"><ele>868.2</ele><time>2012-04-29T10:59:25.0000000+00:00</time></trkpt><trkpt lat="43.170254" lon="19.26972"><ele>871.2</ele><time>2012-04-29T10:59:30.0000000+00:00</time></trkpt><trkpt lat="43.170441" lon="19.269728"><ele>871.9</ele><time>2012-04-29T10:59:35.0000000+00:00</time></trkpt><trkpt lat="43.170753" lon="19.269669"><ele>867.4</ele><time>2012-04-29T10:59:40.0000000+00:00</time></trkpt><trkpt lat="43.171093" lon="19.269472"><ele>865.1</ele><time>2012-04-29T10:59:45.0000000+00:00</time></trkpt><trkpt lat="43.171326" lon="19.269163"><ele>862.3</ele><time>2012-04-29T10:59:50.0000000+00:00</time></trkpt><trkpt lat="43.171486" lon="19.268686"><ele>860.2</ele><time>2012-04-29T10:59:55.0000000+00:00</time></trkpt><trkpt lat="43.171535" lon="19.268549"><ele>859.4</ele><time>2012-04-29T11:00:00.0000000+00:00</time></trkpt><trkpt lat="43.171528" lon="19.268572"><ele>859.6</ele><time>2012-04-29T11:00:05.0000000+00:00</time></trkpt><trkpt lat="43.171528" lon="19.268572"><ele>859.7</ele><time>2012-04-29T11:00:10.0000000+00:00</time></trkpt><trkpt lat="43.171524" lon="19.26853"><ele>859.7</ele><time>2012-04-29T11:00:15.0000000+00:00</time></trkpt><trkpt lat="43.171551" lon="19.268419"><ele>859.9</ele><time>2012-04-29T11:00:20.0000000+00:00</time></trkpt><trkpt lat="43.171593" lon="19.268219"><ele>859.3</ele><time>2012-04-29T11:00:25.0000000+00:00</time></trkpt><trkpt lat="43.17173" lon="19.267992"><ele>857.2</ele><time>2012-04-29T11:00:30.0000000+00:00</time></trkpt><trkpt lat="43.17202" lon="19.267708"><ele>853.9</ele><time>2012-04-29T11:00:35.0000000+00:00</time></trkpt><trkpt lat="43.172352" lon="19.267452"><ele>850.5</ele><time>2012-04-29T11:00:40.0000000+00:00</time></trkpt><trkpt lat="43.172642" lon="19.267229"><ele>847.0</ele><time>2012-04-29T11:00:45.0000000+00:00</time></trkpt><trkpt lat="43.172737" lon="19.266909"><ele>845.2</ele><time>2012-04-29T11:00:50.0000000+00:00</time></trkpt><trkpt lat="43.17276" lon="19.266537"><ele>844.7</ele><time>2012-04-29T11:00:55.0000000+00:00</time></trkpt><trkpt lat="43.172844" lon="19.266085"><ele>841.6</ele><time>2012-04-29T11:01:00.0000000+00:00</time></trkpt><trkpt lat="43.173004" lon="19.265711"><ele>842.0</ele><time>2012-04-29T11:01:05.0000000+00:00</time></trkpt><trkpt lat="43.173241" lon="19.265459"><ele>842.5</ele><time>2012-04-29T11:01:10.0000000+00:00</time></trkpt><trkpt lat="43.173447" lon="19.265301"><ele>844.8</ele><time>2012-04-29T11:01:15.0000000+00:00</time></trkpt><trkpt lat="43.173702" lon="19.265232"><ele>843.7</ele><time>2012-04-29T11:01:20.0000000+00:00</time></trkpt><trkpt lat="43.173882" lon="19.265324"><ele>838.3</ele><time>2012-04-29T11:01:25.0000000+00:00</time></trkpt><trkpt lat="43.173866" lon="19.265587"><ele>836.4</ele><time>2012-04-29T11:01:30.0000000+00:00</time></trkpt><trkpt lat="43.173931" lon="19.265854"><ele>832.5</ele><time>2012-04-29T11:01:35.0000000+00:00</time></trkpt><trkpt lat="43.174049" lon="19.265846"><ele>830.0</ele><time>2012-04-29T11:01:40.0000000+00:00</time></trkpt><trkpt lat="43.174202" lon="19.265667"><ele>829.1</ele><time>2012-04-29T11:01:45.0000000+00:00</time></trkpt><trkpt lat="43.174347" lon="19.265453"><ele>826.3</ele><time>2012-04-29T11:01:50.0000000+00:00</time></trkpt><trkpt lat="43.1745" lon="19.265116"><ele>824.1</ele><time>2012-04-29T11:01:55.0000000+00:00</time></trkpt><trkpt lat="43.174553" lon="19.264828"><ele>822.7</ele><time>2012-04-29T11:02:00.0000000+00:00</time></trkpt><trkpt lat="43.174629" lon="19.264736"><ele>820.2</ele><time>2012-04-29T11:02:05.0000000+00:00</time></trkpt><trkpt lat="43.174797" lon="19.264563"><ele>816.1</ele><time>2012-04-29T11:02:10.0000000+00:00</time></trkpt><trkpt lat="43.174995" lon="19.264284"><ele>814.3</ele><time>2012-04-29T11:02:15.0000000+00:00</time></trkpt><trkpt lat="43.175201" lon="19.26388"><ele>809.5</ele><time>2012-04-29T11:02:20.0000000+00:00</time></trkpt><trkpt lat="43.175323" lon="19.263517"><ele>808.4</ele><time>2012-04-29T11:02:25.0000000+00:00</time></trkpt><trkpt lat="43.175541" lon="19.263203"><ele>807.6</ele><time>2012-04-29T11:02:30.0000000+00:00</time></trkpt><trkpt lat="43.175625" lon="19.262796"><ele>805.3</ele><time>2012-04-29T11:02:35.0000000+00:00</time></trkpt><trkpt lat="43.175716" lon="19.262373"><ele>801.0</ele><time>2012-04-29T11:02:40.0000000+00:00</time></trkpt><trkpt lat="43.175835" lon="19.261938"><ele>801.0</ele><time>2012-04-29T11:02:45.0000000+00:00</time></trkpt><trkpt lat="43.17593" lon="19.261715"><ele>804.7</ele><time>2012-04-29T11:02:50.0000000+00:00</time></trkpt><trkpt lat="43.175949" lon="19.261644"><ele>803.9</ele><time>2012-04-29T11:02:55.0000000+00:00</time></trkpt><trkpt lat="43.175949" lon="19.261637"><ele>802.8</ele><time>2012-04-29T11:03:00.0000000+00:00</time></trkpt><trkpt lat="43.175949" lon="19.261633"><ele>802.9</ele><time>2012-04-29T11:03:05.0000000+00:00</time></trkpt><trkpt lat="43.175949" lon="19.261633"><ele>802.9</ele><time>2012-04-29T11:03:10.0000000+00:00</time></trkpt><trkpt lat="43.176025" lon="19.261528"><ele>802.2</ele><time>2012-04-29T11:03:15.0000000+00:00</time></trkpt><trkpt lat="43.176224" lon="19.26129"><ele>797.6</ele><time>2012-04-29T11:03:20.0000000+00:00</time></trkpt><trkpt lat="43.176403" lon="19.261068"><ele>791.7</ele><time>2012-04-29T11:03:25.0000000+00:00</time></trkpt><trkpt lat="43.176643" lon="19.260815"><ele>788.5</ele><time>2012-04-29T11:03:30.0000000+00:00</time></trkpt><trkpt lat="43.17691" lon="19.260481"><ele>786.1</ele><time>2012-04-29T11:03:35.0000000+00:00</time></trkpt><trkpt lat="43.177036" lon="19.260237"><ele>786.5</ele><time>2012-04-29T11:03:40.0000000+00:00</time></trkpt><trkpt lat="43.177113" lon="19.260149"><ele>787.9</ele><time>2012-04-29T11:03:45.0000000+00:00</time></trkpt><trkpt lat="43.1772" lon="19.260111"><ele>789.6</ele><time>2012-04-29T11:03:50.0000000+00:00</time></trkpt><trkpt lat="43.177303" lon="19.260035"><ele>791.6</ele><time>2012-04-29T11:03:55.0000000+00:00</time></trkpt><trkpt lat="43.177544" lon="19.259869"><ele>790.6</ele><time>2012-04-29T11:04:00.0000000+00:00</time></trkpt><trkpt lat="43.177811" lon="19.259619"><ele>789.6</ele><time>2012-04-29T11:04:05.0000000+00:00</time></trkpt><trkpt lat="43.178059" lon="19.259401"><ele>786.6</ele><time>2012-04-29T11:04:10.0000000+00:00</time></trkpt><trkpt lat="43.178288" lon="19.259146"><ele>786.3</ele><time>2012-04-29T11:04:15.0000000+00:00</time></trkpt><trkpt lat="43.178482" lon="19.258904"><ele>785.9</ele><time>2012-04-29T11:04:20.0000000+00:00</time></trkpt><trkpt lat="43.178604" lon="19.258684"><ele>785.7</ele><time>2012-04-29T11:04:25.0000000+00:00</time></trkpt><trkpt lat="43.178749" lon="19.258461"><ele>782.9</ele><time>2012-04-29T11:04:30.0000000+00:00</time></trkpt><trkpt lat="43.178925" lon="19.258423"><ele>780.7</ele><time>2012-04-29T11:04:35.0000000+00:00</time></trkpt><trkpt lat="43.179127" lon="19.258423"><ele>773.9</ele><time>2012-04-29T11:04:40.0000000+00:00</time></trkpt><trkpt lat="43.17934" lon="19.258465"><ele>769.9</ele><time>2012-04-29T11:04:45.0000000+00:00</time></trkpt><trkpt lat="43.179604" lon="19.258591"><ele>766.1</ele><time>2012-04-29T11:04:50.0000000+00:00</time></trkpt><trkpt lat="43.179871" lon="19.258699"><ele>762.6</ele><time>2012-04-29T11:04:55.0000000+00:00</time></trkpt><trkpt lat="43.180157" lon="19.258751"><ele>761.3</ele><time>2012-04-29T11:05:00.0000000+00:00</time></trkpt><trkpt lat="43.180454" lon="19.258778"><ele>759.9</ele><time>2012-04-29T11:05:05.0000000+00:00</time></trkpt><trkpt lat="43.180744" lon="19.25882"><ele>757.4</ele><time>2012-04-29T11:05:10.0000000+00:00</time></trkpt><trkpt lat="43.181065" lon="19.258869"><ele>756.8</ele><time>2012-04-29T11:05:15.0000000+00:00</time></trkpt><trkpt lat="43.181332" lon="19.258909"><ele>755.6</ele><time>2012-04-29T11:05:20.0000000+00:00</time></trkpt><trkpt lat="43.181576" lon="19.259014"><ele>752.8</ele><time>2012-04-29T11:05:25.0000000+00:00</time></trkpt><trkpt lat="43.181824" lon="19.259155"><ele>750.9</ele><time>2012-04-29T11:05:30.0000000+00:00</time></trkpt><trkpt lat="43.182072" lon="19.259186"><ele>751.5</ele><time>2012-04-29T11:05:35.0000000+00:00</time></trkpt><trkpt lat="43.18232" lon="19.259172"><ele>744.6</ele><time>2012-04-29T11:05:40.0000000+00:00</time></trkpt><trkpt lat="43.182541" lon="19.259335"><ele>739.7</ele><time>2012-04-29T11:05:45.0000000+00:00</time></trkpt><trkpt lat="43.18264" lon="19.259636"><ele>735.2</ele><time>2012-04-29T11:05:50.0000000+00:00</time></trkpt><trkpt lat="43.182678" lon="19.259926"><ele>732.5</ele><time>2012-04-29T11:05:55.0000000+00:00</time></trkpt><trkpt lat="43.18277" lon="19.26012"><ele>730.0</ele><time>2012-04-29T11:06:00.0000000+00:00</time></trkpt><trkpt lat="43.182827" lon="19.260155"><ele>730.2</ele><time>2012-04-29T11:06:05.0000000+00:00</time></trkpt><trkpt lat="43.182831" lon="19.260153"><ele>730.3</ele><time>2012-04-29T11:06:10.0000000+00:00</time></trkpt><trkpt lat="43.182827" lon="19.260153"><ele>730.3</ele><time>2012-04-29T11:06:15.0000000+00:00</time></trkpt><trkpt lat="43.182827" lon="19.260155"><ele>730.2</ele><time>2012-04-29T11:06:20.0000000+00:00</time></trkpt><trkpt lat="43.182827" lon="19.260155"><ele>730.3</ele><time>2012-04-29T11:06:25.0000000+00:00</time></trkpt><trkpt lat="43.182827" lon="19.260155"><ele>730.5</ele><time>2012-04-29T11:06:30.0000000+00:00</time></trkpt><trkpt lat="43.182827" lon="19.260157"><ele>730.8</ele><time>2012-04-29T11:06:35.0000000+00:00</time></trkpt><trkpt lat="43.182827" lon="19.260159"><ele>730.9</ele><time>2012-04-29T11:06:40.0000000+00:00</time></trkpt><trkpt lat="43.182827" lon="19.260159"><ele>731.0</ele><time>2012-04-29T11:06:45.0000000+00:00</time></trkpt><trkpt lat="43.182827" lon="19.260159"><ele>731.0</ele><time>2012-04-29T11:06:50.0000000+00:00</time></trkpt><trkpt lat="43.182827" lon="19.260159"><ele>731.1</ele><time>2012-04-29T11:06:55.0000000+00:00</time></trkpt><trkpt lat="43.182827" lon="19.260159"><ele>731.1</ele><time>2012-04-29T11:07:00.0000000+00:00</time></trkpt><trkpt lat="43.182827" lon="19.260159"><ele>731.2</ele><time>2012-04-29T11:07:05.0000000+00:00</time></trkpt><trkpt lat="43.182827" lon="19.260159"><ele>731.2</ele><time>2012-04-29T11:07:10.0000000+00:00</time></trkpt><trkpt lat="43.182827" lon="19.260159"><ele>731.3</ele><time>2012-04-29T11:07:15.0000000+00:00</time></trkpt><trkpt lat="43.182823" lon="19.26016"><ele>731.3</ele><time>2012-04-29T11:07:20.0000000+00:00</time></trkpt><trkpt lat="43.182823" lon="19.26016"><ele>731.4</ele><time>2012-04-29T11:07:25.0000000+00:00</time></trkpt><trkpt lat="43.182823" lon="19.26016"><ele>731.5</ele><time>2012-04-29T11:07:30.0000000+00:00</time></trkpt><trkpt lat="43.182823" lon="19.26016"><ele>731.5</ele><time>2012-04-29T11:07:35.0000000+00:00</time></trkpt><trkpt lat="43.182823" lon="19.26016"><ele>731.6</ele><time>2012-04-29T11:07:40.0000000+00:00</time></trkpt><trkpt lat="43.182823" lon="19.26016"><ele>731.6</ele><time>2012-04-29T11:07:45.0000000+00:00</time></trkpt><trkpt lat="43.182823" lon="19.26016"><ele>731.6</ele><time>2012-04-29T11:07:50.0000000+00:00</time></trkpt><trkpt lat="43.182823" lon="19.260162"><ele>731.6</ele><time>2012-04-29T11:07:55.0000000+00:00</time></trkpt><trkpt lat="43.182823" lon="19.260162"><ele>731.7</ele><time>2012-04-29T11:08:00.0000000+00:00</time></trkpt><trkpt lat="43.182823" lon="19.26016"><ele>731.7</ele><time>2012-04-29T11:08:05.0000000+00:00</time></trkpt><trkpt lat="43.182808" lon="19.260134"><ele>731.7</ele><time>2012-04-29T11:08:10.0000000+00:00</time></trkpt><trkpt lat="43.182838" lon="19.259979"><ele>730.3</ele><time>2012-04-29T11:08:15.0000000+00:00</time></trkpt><trkpt lat="43.182838" lon="19.259668"><ele>727.6</ele><time>2012-04-29T11:08:20.0000000+00:00</time></trkpt><trkpt lat="43.182846" lon="19.259462"><ele>725.3</ele><time>2012-04-29T11:08:25.0000000+00:00</time></trkpt><trkpt lat="43.18285" lon="19.259287"><ele>723.3</ele><time>2012-04-29T11:08:30.0000000+00:00</time></trkpt><trkpt lat="43.182865" lon="19.259155"><ele>721.8</ele><time>2012-04-29T11:08:35.0000000+00:00</time></trkpt><trkpt lat="43.182919" lon="19.259083"><ele>721.5</ele><time>2012-04-29T11:08:40.0000000+00:00</time></trkpt><trkpt lat="43.18301" lon="19.259027"><ele>720.3</ele><time>2012-04-29T11:08:45.0000000+00:00</time></trkpt><trkpt lat="43.183083" lon="19.258945"><ele>718.6</ele><time>2012-04-29T11:08:50.0000000+00:00</time></trkpt><trkpt lat="43.183094" lon="19.258926"><ele>719.3</ele><time>2012-04-29T11:08:55.0000000+00:00</time></trkpt><trkpt lat="43.183094" lon="19.258926"><ele>719.4</ele><time>2012-04-29T11:09:00.0000000+00:00</time></trkpt><trkpt lat="43.183094" lon="19.258926"><ele>719.3</ele><time>2012-04-29T11:09:05.0000000+00:00</time></trkpt><trkpt lat="43.183094" lon="19.258926"><ele>719.3</ele><time>2012-04-29T11:09:10.0000000+00:00</time></trkpt><trkpt lat="43.183094" lon="19.258926"><ele>719.2</ele><time>2012-04-29T11:09:15.0000000+00:00</time></trkpt><trkpt lat="43.183094" lon="19.258926"><ele>719.2</ele><time>2012-04-29T11:09:20.0000000+00:00</time></trkpt><trkpt lat="43.183094" lon="19.258926"><ele>719.2</ele><time>2012-04-29T11:09:25.0000000+00:00</time></trkpt><trkpt lat="43.183094" lon="19.258926"><ele>719.2</ele><time>2012-04-29T11:09:30.0000000+00:00</time></trkpt><trkpt lat="43.183094" lon="19.258926"><ele>719.1</ele><time>2012-04-29T11:09:35.0000000+00:00</time></trkpt><trkpt lat="43.183094" lon="19.258926"><ele>719.1</ele><time>2012-04-29T11:09:40.0000000+00:00</time></trkpt><trkpt lat="43.183094" lon="19.258926"><ele>719.1</ele><time>2012-04-29T11:09:45.0000000+00:00</time></trkpt><trkpt lat="43.183094" lon="19.258924"><ele>719.1</ele><time>2012-04-29T11:09:50.0000000+00:00</time></trkpt><trkpt lat="43.183094" lon="19.258926"><ele>719.0</ele><time>2012-04-29T11:09:55.0000000+00:00</time></trkpt><trkpt lat="43.183094" lon="19.258926"><ele>719.0</ele><time>2012-04-29T11:10:00.0000000+00:00</time></trkpt><trkpt lat="43.183094" lon="19.258926"><ele>719.0</ele><time>2012-04-29T11:10:05.0000000+00:00</time></trkpt><trkpt lat="43.183094" lon="19.258926"><ele>719.0</ele><time>2012-04-29T11:10:10.0000000+00:00</time></trkpt><trkpt lat="43.183094" lon="19.258926"><ele>719.0</ele><time>2012-04-29T11:10:15.0000000+00:00</time></trkpt><trkpt lat="43.183094" lon="19.258926"><ele>719.0</ele><time>2012-04-29T11:10:20.0000000+00:00</time></trkpt><trkpt lat="43.183094" lon="19.258926"><ele>719.1</ele><time>2012-04-29T11:10:25.0000000+00:00</time></trkpt><trkpt lat="43.183094" lon="19.258926"><ele>719.1</ele><time>2012-04-29T11:10:30.0000000+00:00</time></trkpt><trkpt lat="43.183094" lon="19.258926"><ele>719.1</ele><time>2012-04-29T11:10:35.0000000+00:00</time></trkpt><trkpt lat="43.183094" lon="19.258926"><ele>719.1</ele><time>2012-04-29T11:10:40.0000000+00:00</time></trkpt><trkpt lat="43.183094" lon="19.258926"><ele>719.1</ele><time>2012-04-29T11:10:45.0000000+00:00</time></trkpt><trkpt lat="43.183094" lon="19.258926"><ele>719.1</ele><time>2012-04-29T11:10:50.0000000+00:00</time></trkpt><trkpt lat="43.183094" lon="19.258926"><ele>719.1</ele><time>2012-04-29T11:10:55.0000000+00:00</time></trkpt><trkpt lat="43.183094" lon="19.258926"><ele>719.1</ele><time>2012-04-29T11:11:00.0000000+00:00</time></trkpt><trkpt lat="43.183094" lon="19.258926"><ele>719.1</ele><time>2012-04-29T11:11:05.0000000+00:00</time></trkpt><trkpt lat="43.183094" lon="19.258926"><ele>719.1</ele><time>2012-04-29T11:11:10.0000000+00:00</time></trkpt><trkpt lat="43.183098" lon="19.258921"><ele>719.2</ele><time>2012-04-29T11:11:15.0000000+00:00</time></trkpt><trkpt lat="43.183102" lon="19.258921"><ele>719.0</ele><time>2012-04-29T11:11:20.0000000+00:00</time></trkpt><trkpt lat="43.183102" lon="19.258919"><ele>719.1</ele><time>2012-04-29T11:11:25.0000000+00:00</time></trkpt><trkpt lat="43.183102" lon="19.258919"><ele>719.1</ele><time>2012-04-29T11:11:30.0000000+00:00</time></trkpt><trkpt lat="43.183102" lon="19.258919"><ele>719.1</ele><time>2012-04-29T11:11:35.0000000+00:00</time></trkpt><trkpt lat="43.183102" lon="19.258919"><ele>719.1</ele><time>2012-04-29T11:11:40.0000000+00:00</time></trkpt><trkpt lat="43.183102" lon="19.258919"><ele>719.1</ele><time>2012-04-29T11:11:45.0000000+00:00</time></trkpt><trkpt lat="43.183102" lon="19.258919"><ele>719.1</ele><time>2012-04-29T11:11:50.0000000+00:00</time></trkpt><trkpt lat="43.183102" lon="19.258919"><ele>719.1</ele><time>2012-04-29T11:11:55.0000000+00:00</time></trkpt><trkpt lat="43.183102" lon="19.258919"><ele>719.1</ele><time>2012-04-29T11:12:00.0000000+00:00</time></trkpt><trkpt lat="43.183102" lon="19.258917"><ele>719.1</ele><time>2012-04-29T11:12:05.0000000+00:00</time></trkpt><trkpt lat="43.183102" lon="19.258917"><ele>719.1</ele><time>2012-04-29T11:12:10.0000000+00:00</time></trkpt><trkpt lat="43.183102" lon="19.258913"><ele>719.1</ele><time>2012-04-29T11:12:15.0000000+00:00</time></trkpt><trkpt lat="43.183102" lon="19.258913"><ele>719.1</ele><time>2012-04-29T11:12:20.0000000+00:00</time></trkpt><trkpt lat="43.183102" lon="19.258913"><ele>719.1</ele><time>2012-04-29T11:12:25.0000000+00:00</time></trkpt><trkpt lat="43.183105" lon="19.258913"><ele>719.1</ele><time>2012-04-29T11:12:30.0000000+00:00</time></trkpt><trkpt lat="43.183105" lon="19.258913"><ele>719.1</ele><time>2012-04-29T11:12:35.0000000+00:00</time></trkpt><trkpt lat="43.183105" lon="19.258913"><ele>719.1</ele><time>2012-04-29T11:12:40.0000000+00:00</time></trkpt><trkpt lat="43.183105" lon="19.258913"><ele>719.1</ele><time>2012-04-29T11:12:45.0000000+00:00</time></trkpt><trkpt lat="43.183105" lon="19.258913"><ele>719.2</ele><time>2012-04-29T11:12:50.0000000+00:00</time></trkpt><trkpt lat="43.183105" lon="19.258911"><ele>719.2</ele><time>2012-04-29T11:12:55.0000000+00:00</time></trkpt><trkpt lat="43.183105" lon="19.258911"><ele>719.2</ele><time>2012-04-29T11:13:00.0000000+00:00</time></trkpt><trkpt lat="43.183105" lon="19.258911"><ele>719.2</ele><time>2012-04-29T11:13:05.0000000+00:00</time></trkpt><trkpt lat="43.183105" lon="19.258911"><ele>719.2</ele><time>2012-04-29T11:13:10.0000000+00:00</time></trkpt><trkpt lat="43.183105" lon="19.258911"><ele>719.2</ele><time>2012-04-29T11:13:15.0000000+00:00</time></trkpt><trkpt lat="43.183113" lon="19.2589"><ele>719.1</ele><time>2012-04-29T11:13:20.0000000+00:00</time></trkpt><trkpt lat="43.183128" lon="19.258886"><ele>719.3</ele><time>2012-04-29T11:13:25.0000000+00:00</time></trkpt><trkpt lat="43.183128" lon="19.258886"><ele>719.2</ele><time>2012-04-29T11:13:30.0000000+00:00</time></trkpt><trkpt lat="43.183136" lon="19.258871"><ele>719.4</ele><time>2012-04-29T11:13:35.0000000+00:00</time></trkpt><trkpt lat="43.183167" lon="19.258787"><ele>718.6</ele><time>2012-04-29T11:13:40.0000000+00:00</time></trkpt><trkpt lat="43.183197" lon="19.258736"><ele>720.6</ele><time>2012-04-29T11:13:45.0000000+00:00</time></trkpt><trkpt lat="43.183231" lon="19.258692"><ele>722.3</ele><time>2012-04-29T11:13:50.0000000+00:00</time></trkpt><trkpt lat="43.183273" lon="19.258638"><ele>724.5</ele><time>2012-04-29T11:13:55.0000000+00:00</time></trkpt><trkpt lat="43.183319" lon="19.258579"><ele>725.8</ele><time>2012-04-29T11:14:00.0000000+00:00</time></trkpt><trkpt lat="43.183376" lon="19.25852"><ele>727.0</ele><time>2012-04-29T11:14:05.0000000+00:00</time></trkpt><trkpt lat="43.183434" lon="19.258448"><ele>728.0</ele><time>2012-04-29T11:14:10.0000000+00:00</time></trkpt><trkpt lat="43.183502" lon="19.258379"><ele>729.3</ele><time>2012-04-29T11:14:15.0000000+00:00</time></trkpt><trkpt lat="43.183563" lon="19.258274"><ele>729.0</ele><time>2012-04-29T11:14:20.0000000+00:00</time></trkpt><trkpt lat="43.183609" lon="19.258127"><ele>728.5</ele><time>2012-04-29T11:14:25.0000000+00:00</time></trkpt><trkpt lat="43.183628" lon="19.257978"><ele>730.6</ele><time>2012-04-29T11:14:30.0000000+00:00</time></trkpt><trkpt lat="43.183624" lon="19.257847"><ele>731.2</ele><time>2012-04-29T11:14:35.0000000+00:00</time></trkpt><trkpt lat="43.183624" lon="19.25771"><ele>732.5</ele><time>2012-04-29T11:14:40.0000000+00:00</time></trkpt><trkpt lat="43.183632" lon="19.257603"><ele>732.9</ele><time>2012-04-29T11:14:45.0000000+00:00</time></trkpt><trkpt lat="43.183632" lon="19.257498"><ele>733.6</ele><time>2012-04-29T11:14:50.0000000+00:00</time></trkpt><trkpt lat="43.183598" lon="19.257418"><ele>734.8</ele><time>2012-04-29T11:14:55.0000000+00:00</time></trkpt><trkpt lat="43.183563" lon="19.257374"><ele>736.1</ele><time>2012-04-29T11:15:00.0000000+00:00</time></trkpt><trkpt lat="43.183559" lon="19.257381"><ele>735.6</ele><time>2012-04-29T11:15:05.0000000+00:00</time></trkpt><trkpt lat="43.183537" lon="19.257341"><ele>736.2</ele><time>2012-04-29T11:15:10.0000000+00:00</time></trkpt><trkpt lat="43.183495" lon="19.25729"><ele>737.0</ele><time>2012-04-29T11:15:15.0000000+00:00</time></trkpt><trkpt lat="43.183456" lon="19.257235"><ele>737.7</ele><time>2012-04-29T11:15:20.0000000+00:00</time></trkpt><trkpt lat="43.183418" lon="19.257179"><ele>738.3</ele><time>2012-04-29T11:15:25.0000000+00:00</time></trkpt><trkpt lat="43.183376" lon="19.257132"><ele>739.7</ele><time>2012-04-29T11:15:30.0000000+00:00</time></trkpt><trkpt lat="43.18335" lon="19.257069"><ele>739.8</ele><time>2012-04-29T11:15:35.0000000+00:00</time></trkpt><trkpt lat="43.183334" lon="19.257017"><ele>740.0</ele><time>2012-04-29T11:15:40.0000000+00:00</time></trkpt><trkpt lat="43.183331" lon="19.257002"><ele>738.9</ele><time>2012-04-29T11:15:45.0000000+00:00</time></trkpt><trkpt lat="43.183323" lon="19.256985"><ele>739.3</ele><time>2012-04-29T11:15:50.0000000+00:00</time></trkpt><trkpt lat="43.183323" lon="19.256987"><ele>739.4</ele><time>2012-04-29T11:15:55.0000000+00:00</time></trkpt><trkpt lat="43.183323" lon="19.256985"><ele>739.3</ele><time>2012-04-29T11:16:00.0000000+00:00</time></trkpt><trkpt lat="43.183323" lon="19.256985"><ele>739.3</ele><time>2012-04-29T11:16:05.0000000+00:00</time></trkpt><trkpt lat="43.183323" lon="19.256985"><ele>739.3</ele><time>2012-04-29T11:16:10.0000000+00:00</time></trkpt><trkpt lat="43.183323" lon="19.256985"><ele>739.3</ele><time>2012-04-29T11:16:15.0000000+00:00</time></trkpt><trkpt lat="43.183323" lon="19.256985"><ele>739.3</ele><time>2012-04-29T11:16:20.0000000+00:00</time></trkpt><trkpt lat="43.183323" lon="19.256985"><ele>739.3</ele><time>2012-04-29T11:16:25.0000000+00:00</time></trkpt><trkpt lat="43.183323" lon="19.256985"><ele>739.3</ele><time>2012-04-29T11:16:30.0000000+00:00</time></trkpt><trkpt lat="43.183323" lon="19.256983"><ele>739.3</ele><time>2012-04-29T11:16:35.0000000+00:00</time></trkpt><trkpt lat="43.183331" lon="19.256956"><ele>739.4</ele><time>2012-04-29T11:16:40.0000000+00:00</time></trkpt><trkpt lat="43.183376" lon="19.256874"><ele>740.3</ele><time>2012-04-29T11:16:45.0000000+00:00</time></trkpt><trkpt lat="43.183434" lon="19.256783"><ele>741.2</ele><time>2012-04-29T11:16:50.0000000+00:00</time></trkpt><trkpt lat="43.183491" lon="19.256681"><ele>742.4</ele><time>2012-04-29T11:16:55.0000000+00:00</time></trkpt><trkpt lat="43.18354" lon="19.25658"><ele>743.5</ele><time>2012-04-29T11:17:00.0000000+00:00</time></trkpt><trkpt lat="43.183598" lon="19.256474"><ele>744.7</ele><time>2012-04-29T11:17:05.0000000+00:00</time></trkpt><trkpt lat="43.183655" lon="19.256367"><ele>746.1</ele><time>2012-04-29T11:17:10.0000000+00:00</time></trkpt><trkpt lat="43.183716" lon="19.256256"><ele>747.4</ele><time>2012-04-29T11:17:15.0000000+00:00</time></trkpt><trkpt lat="43.183777" lon="19.256149"><ele>748.8</ele><time>2012-04-29T11:17:20.0000000+00:00</time></trkpt><trkpt lat="43.183842" lon="19.256052"><ele>750.3</ele><time>2012-04-29T11:17:25.0000000+00:00</time></trkpt><trkpt lat="43.183914" lon="19.255964"><ele>752.5</ele><time>2012-04-29T11:17:30.0000000+00:00</time></trkpt><trkpt lat="43.183983" lon="19.255857"><ele>753.9</ele><time>2012-04-29T11:17:35.0000000+00:00</time></trkpt><trkpt lat="43.18404" lon="19.255781"><ele>755.5</ele><time>2012-04-29T11:17:40.0000000+00:00</time></trkpt><trkpt lat="43.18412" lon="19.255688"><ele>755.9</ele><time>2012-04-29T11:17:45.0000000+00:00</time></trkpt><trkpt lat="43.1842" lon="19.255581"><ele>756.2</ele><time>2012-04-29T11:17:50.0000000+00:00</time></trkpt><trkpt lat="43.184269" lon="19.255426"><ele>756.1</ele><time>2012-04-29T11:17:55.0000000+00:00</time></trkpt><trkpt lat="43.184315" lon="19.255272"><ele>756.4</ele><time>2012-04-29T11:18:00.0000000+00:00</time></trkpt><trkpt lat="43.184345" lon="19.255114"><ele>756.9</ele><time>2012-04-29T11:18:05.0000000+00:00</time></trkpt><trkpt lat="43.184341" lon="19.254955"><ele>758.1</ele><time>2012-04-29T11:18:10.0000000+00:00</time></trkpt><trkpt lat="43.184326" lon="19.254816"><ele>759.3</ele><time>2012-04-29T11:18:15.0000000+00:00</time></trkpt><trkpt lat="43.18433" lon="19.2547"><ele>759.9</ele><time>2012-04-29T11:18:20.0000000+00:00</time></trkpt><trkpt lat="43.184368" lon="19.254595"><ele>760.2</ele><time>2012-04-29T11:18:25.0000000+00:00</time></trkpt><trkpt lat="43.184414" lon="19.254486"><ele>761.0</ele><time>2012-04-29T11:18:30.0000000+00:00</time></trkpt><trkpt lat="43.184444" lon="19.254395"><ele>762.0</ele><time>2012-04-29T11:18:35.0000000+00:00</time></trkpt><trkpt lat="43.184444" lon="19.254313"><ele>763.2</ele><time>2012-04-29T11:18:40.0000000+00:00</time></trkpt><trkpt lat="43.184448" lon="19.25423"><ele>764.4</ele><time>2012-04-29T11:18:45.0000000+00:00</time></trkpt><trkpt lat="43.184437" lon="19.254152"><ele>765.7</ele><time>2012-04-29T11:18:50.0000000+00:00</time></trkpt><trkpt lat="43.184448" lon="19.254045"><ele>766.9</ele><time>2012-04-29T11:18:55.0000000+00:00</time></trkpt><trkpt lat="43.18446" lon="19.253925"><ele>768.5</ele><time>2012-04-29T11:19:00.0000000+00:00</time></trkpt><trkpt lat="43.184467" lon="19.253809"><ele>769.5</ele><time>2012-04-29T11:19:05.0000000+00:00</time></trkpt><trkpt lat="43.184471" lon="19.253702"><ele>770.8</ele><time>2012-04-29T11:19:10.0000000+00:00</time></trkpt><trkpt lat="43.184494" lon="19.253601"><ele>772.1</ele><time>2012-04-29T11:19:15.0000000+00:00</time></trkpt><trkpt lat="43.184528" lon="19.253523"><ele>773.7</ele><time>2012-04-29T11:19:20.0000000+00:00</time></trkpt><trkpt lat="43.184582" lon="19.253475"><ele>775.9</ele><time>2012-04-29T11:19:25.0000000+00:00</time></trkpt><trkpt lat="43.184624" lon="19.253418"><ele>776.5</ele><time>2012-04-29T11:19:30.0000000+00:00</time></trkpt><trkpt lat="43.184673" lon="19.253355"><ele>777.0</ele><time>2012-04-29T11:19:35.0000000+00:00</time></trkpt><trkpt lat="43.184723" lon="19.253302"><ele>777.9</ele><time>2012-04-29T11:19:40.0000000+00:00</time></trkpt><trkpt lat="43.184772" lon="19.25325"><ele>778.4</ele><time>2012-04-29T11:19:45.0000000+00:00</time></trkpt><trkpt lat="43.184826" lon="19.253204"><ele>779.7</ele><time>2012-04-29T11:19:50.0000000+00:00</time></trkpt><trkpt lat="43.184891" lon="19.253174"><ele>781.3</ele><time>2012-04-29T11:19:55.0000000+00:00</time></trkpt><trkpt lat="43.184948" lon="19.253141"><ele>782.5</ele><time>2012-04-29T11:20:00.0000000+00:00</time></trkpt><trkpt lat="43.185005" lon="19.253059"><ele>784.0</ele><time>2012-04-29T11:20:05.0000000+00:00</time></trkpt><trkpt lat="43.185032" lon="19.252949"><ele>785.1</ele><time>2012-04-29T11:20:10.0000000+00:00</time></trkpt><trkpt lat="43.185066" lon="19.252842"><ele>786.0</ele><time>2012-04-29T11:20:15.0000000+00:00</time></trkpt><trkpt lat="43.185112" lon="19.252773"><ele>787.3</ele><time>2012-04-29T11:20:20.0000000+00:00</time></trkpt><trkpt lat="43.18512" lon="19.252777"><ele>788.1</ele><time>2012-04-29T11:20:25.0000000+00:00</time></trkpt><trkpt lat="43.185143" lon="19.252754"><ele>789.1</ele><time>2012-04-29T11:20:30.0000000+00:00</time></trkpt><trkpt lat="43.185146" lon="19.252745"><ele>789.2</ele><time>2012-04-29T11:20:35.0000000+00:00</time></trkpt><trkpt lat="43.185146" lon="19.252743"><ele>789.2</ele><time>2012-04-29T11:20:40.0000000+00:00</time></trkpt><trkpt lat="43.185146" lon="19.252743"><ele>789.2</ele><time>2012-04-29T11:20:45.0000000+00:00</time></trkpt><trkpt lat="43.185146" lon="19.252741"><ele>789.2</ele><time>2012-04-29T11:20:50.0000000+00:00</time></trkpt><trkpt lat="43.185173" lon="19.252687"><ele>789.6</ele><time>2012-04-29T11:20:55.0000000+00:00</time></trkpt><trkpt lat="43.185196" lon="19.252628"><ele>789.7</ele><time>2012-04-29T11:21:00.0000000+00:00</time></trkpt><trkpt lat="43.185211" lon="19.252563"><ele>790.5</ele><time>2012-04-29T11:21:05.0000000+00:00</time></trkpt><trkpt lat="43.185207" lon="19.252504"><ele>791.2</ele><time>2012-04-29T11:21:10.0000000+00:00</time></trkpt><trkpt lat="43.185196" lon="19.252447"><ele>792.2</ele><time>2012-04-29T11:21:15.0000000+00:00</time></trkpt><trkpt lat="43.185169" lon="19.25239"><ele>793.2</ele><time>2012-04-29T11:21:20.0000000+00:00</time></trkpt><trkpt lat="43.185146" lon="19.252323"><ele>794.1</ele><time>2012-04-29T11:21:25.0000000+00:00</time></trkpt><trkpt lat="43.185116" lon="19.252253"><ele>794.7</ele><time>2012-04-29T11:21:30.0000000+00:00</time></trkpt><trkpt lat="43.185093" lon="19.252213"><ele>795.0</ele><time>2012-04-29T11:21:35.0000000+00:00</time></trkpt><trkpt lat="43.18507" lon="19.252169"><ele>795.4</ele><time>2012-04-29T11:21:40.0000000+00:00</time></trkpt><trkpt lat="43.185047" lon="19.252102"><ele>796.5</ele><time>2012-04-29T11:21:45.0000000+00:00</time></trkpt><trkpt lat="43.185036" lon="19.252024"><ele>796.7</ele><time>2012-04-29T11:21:50.0000000+00:00</time></trkpt><trkpt lat="43.185028" lon="19.251965"><ele>797.1</ele><time>2012-04-29T11:21:55.0000000+00:00</time></trkpt><trkpt lat="43.185032" lon="19.251907"><ele>798.2</ele><time>2012-04-29T11:22:00.0000000+00:00</time></trkpt><trkpt lat="43.185036" lon="19.251856"><ele>799.8</ele><time>2012-04-29T11:22:05.0000000+00:00</time></trkpt><trkpt lat="43.18504" lon="19.251793"><ele>800.4</ele><time>2012-04-29T11:22:10.0000000+00:00</time></trkpt><trkpt lat="43.185032" lon="19.251732"><ele>801.3</ele><time>2012-04-29T11:22:15.0000000+00:00</time></trkpt><trkpt lat="43.18502" lon="19.251678"><ele>802.9</ele><time>2012-04-29T11:22:20.0000000+00:00</time></trkpt><trkpt lat="43.185001" lon="19.251612"><ele>803.7</ele><time>2012-04-29T11:22:25.0000000+00:00</time></trkpt><trkpt lat="43.184982" lon="19.251541"><ele>804.3</ele><time>2012-04-29T11:22:30.0000000+00:00</time></trkpt><trkpt lat="43.184975" lon="19.251488"><ele>805.9</ele><time>2012-04-29T11:22:35.0000000+00:00</time></trkpt><trkpt lat="43.184986" lon="19.251444"><ele>806.2</ele><time>2012-04-29T11:22:40.0000000+00:00</time></trkpt><trkpt lat="43.185013" lon="19.251431"><ele>806.8</ele><time>2012-04-29T11:22:45.0000000+00:00</time></trkpt><trkpt lat="43.185062" lon="19.251434"><ele>807.7</ele><time>2012-04-29T11:22:50.0000000+00:00</time></trkpt><trkpt lat="43.185062" lon="19.251431"><ele>807.9</ele><time>2012-04-29T11:22:55.0000000+00:00</time></trkpt><trkpt lat="43.185062" lon="19.251431"><ele>808.1</ele><time>2012-04-29T11:23:00.0000000+00:00</time></trkpt><trkpt lat="43.185062" lon="19.251432"><ele>808.1</ele><time>2012-04-29T11:23:05.0000000+00:00</time></trkpt><trkpt lat="43.185062" lon="19.251432"><ele>808.1</ele><time>2012-04-29T11:23:10.0000000+00:00</time></trkpt><trkpt lat="43.18507" lon="19.251448"><ele>808.4</ele><time>2012-04-29T11:23:15.0000000+00:00</time></trkpt><trkpt lat="43.185085" lon="19.251451"><ele>808.5</ele><time>2012-04-29T11:23:20.0000000+00:00</time></trkpt><trkpt lat="43.185143" lon="19.25149"><ele>809.3</ele><time>2012-04-29T11:23:25.0000000+00:00</time></trkpt><trkpt lat="43.185223" lon="19.251539"><ele>810.2</ele><time>2012-04-29T11:23:30.0000000+00:00</time></trkpt><trkpt lat="43.185299" lon="19.251604"><ele>810.8</ele><time>2012-04-29T11:23:35.0000000+00:00</time></trkpt><trkpt lat="43.18536" lon="19.251686"><ele>812.2</ele><time>2012-04-29T11:23:40.0000000+00:00</time></trkpt><trkpt lat="43.185406" lon="19.251774"><ele>814.1</ele><time>2012-04-29T11:23:45.0000000+00:00</time></trkpt><trkpt lat="43.185459" lon="19.251863"><ele>815.6</ele><time>2012-04-29T11:23:50.0000000+00:00</time></trkpt><trkpt lat="43.185513" lon="19.251936"><ele>817.2</ele><time>2012-04-29T11:23:55.0000000+00:00</time></trkpt><trkpt lat="43.185574" lon="19.252014"><ele>818.4</ele><time>2012-04-29T11:24:00.0000000+00:00</time></trkpt><trkpt lat="43.185646" lon="19.252056"><ele>819.5</ele><time>2012-04-29T11:24:05.0000000+00:00</time></trkpt><trkpt lat="43.185707" lon="19.252071"><ele>819.8</ele><time>2012-04-29T11:24:10.0000000+00:00</time></trkpt><trkpt lat="43.18576" lon="19.252045"><ele>821.0</ele><time>2012-04-29T11:24:15.0000000+00:00</time></trkpt><trkpt lat="43.18576" lon="19.251965"><ele>822.3</ele><time>2012-04-29T11:24:20.0000000+00:00</time></trkpt><trkpt lat="43.18573" lon="19.251867"><ele>823.7</ele><time>2012-04-29T11:24:25.0000000+00:00</time></trkpt><trkpt lat="43.185699" lon="19.251797"><ele>825.0</ele><time>2012-04-29T11:24:30.0000000+00:00</time></trkpt><trkpt lat="43.185677" lon="19.251719"><ele>825.5</ele><time>2012-04-29T11:24:35.0000000+00:00</time></trkpt><trkpt lat="43.185673" lon="19.251612"><ele>825.4</ele><time>2012-04-29T11:24:40.0000000+00:00</time></trkpt><trkpt lat="43.185661" lon="19.251505"><ele>825.7</ele><time>2012-04-29T11:24:45.0000000+00:00</time></trkpt><trkpt lat="43.185658" lon="19.25139"><ele>827.0</ele><time>2012-04-29T11:24:50.0000000+00:00</time></trkpt><trkpt lat="43.185658" lon="19.251268"><ele>827.7</ele><time>2012-04-29T11:24:55.0000000+00:00</time></trkpt><trkpt lat="43.185673" lon="19.251177"><ele>827.9</ele><time>2012-04-29T11:25:00.0000000+00:00</time></trkpt><trkpt lat="43.185703" lon="19.251089"><ele>828.4</ele><time>2012-04-29T11:25:05.0000000+00:00</time></trkpt><trkpt lat="43.185707" lon="19.250999"><ele>830.6</ele><time>2012-04-29T11:25:10.0000000+00:00</time></trkpt><trkpt lat="43.185699" lon="19.250912"><ele>832.6</ele><time>2012-04-29T11:25:15.0000000+00:00</time></trkpt><trkpt lat="43.18568" lon="19.25083"><ele>834.0</ele><time>2012-04-29T11:25:20.0000000+00:00</time></trkpt><trkpt lat="43.185677" lon="19.250761"><ele>835.2</ele><time>2012-04-29T11:25:25.0000000+00:00</time></trkpt><trkpt lat="43.185665" lon="19.250681"><ele>835.7</ele><time>2012-04-29T11:25:30.0000000+00:00</time></trkpt><trkpt lat="43.185665" lon="19.25062"><ele>837.5</ele><time>2012-04-29T11:25:35.0000000+00:00</time></trkpt><trkpt lat="43.185665" lon="19.250557"><ele>840.6</ele><time>2012-04-29T11:25:40.0000000+00:00</time></trkpt><trkpt lat="43.185684" lon="19.250475"><ele>841.5</ele><time>2012-04-29T11:25:45.0000000+00:00</time></trkpt><trkpt lat="43.185715" lon="19.250406"><ele>842.7</ele><time>2012-04-29T11:25:50.0000000+00:00</time></trkpt><trkpt lat="43.185738" lon="19.250338"><ele>843.8</ele><time>2012-04-29T11:25:55.0000000+00:00</time></trkpt><trkpt lat="43.185764" lon="19.250263"><ele>844.4</ele><time>2012-04-29T11:26:00.0000000+00:00</time></trkpt><trkpt lat="43.185776" lon="19.250187"><ele>845.3</ele><time>2012-04-29T11:26:05.0000000+00:00</time></trkpt><trkpt lat="43.185791" lon="19.250105"><ele>846.9</ele><time>2012-04-29T11:26:10.0000000+00:00</time></trkpt><trkpt lat="43.185776" lon="19.250023"><ele>849.1</ele><time>2012-04-29T11:26:15.0000000+00:00</time></trkpt><trkpt lat="43.185757" lon="19.249949"><ele>851.2</ele><time>2012-04-29T11:26:20.0000000+00:00</time></trkpt><trkpt lat="43.185753" lon="19.249943"><ele>852.3</ele><time>2012-04-29T11:26:25.0000000+00:00</time></trkpt><trkpt lat="43.185749" lon="19.249922"><ele>853.3</ele><time>2012-04-29T11:26:30.0000000+00:00</time></trkpt><trkpt lat="43.185738" lon="19.249866"><ele>856.3</ele><time>2012-04-29T11:26:35.0000000+00:00</time></trkpt><trkpt lat="43.185734" lon="19.24983"><ele>858.3</ele><time>2012-04-29T11:26:40.0000000+00:00</time></trkpt><trkpt lat="43.185741" lon="19.249786"><ele>856.5</ele><time>2012-04-29T11:26:45.0000000+00:00</time></trkpt><trkpt lat="43.185741" lon="19.249779"><ele>856.3</ele><time>2012-04-29T11:26:50.0000000+00:00</time></trkpt><trkpt lat="43.185741" lon="19.249779"><ele>856.2</ele><time>2012-04-29T11:26:55.0000000+00:00</time></trkpt><trkpt lat="43.185741" lon="19.249779"><ele>856.2</ele><time>2012-04-29T11:27:00.0000000+00:00</time></trkpt><trkpt lat="43.185741" lon="19.249777"><ele>856.2</ele><time>2012-04-29T11:27:05.0000000+00:00</time></trkpt><trkpt lat="43.185741" lon="19.249777"><ele>856.2</ele><time>2012-04-29T11:27:10.0000000+00:00</time></trkpt><trkpt lat="43.185741" lon="19.249767"><ele>856.1</ele><time>2012-04-29T11:27:15.0000000+00:00</time></trkpt><trkpt lat="43.185738" lon="19.249689"><ele>856.5</ele><time>2012-04-29T11:27:20.0000000+00:00</time></trkpt><trkpt lat="43.185738" lon="19.249615"><ele>856.1</ele><time>2012-04-29T11:27:25.0000000+00:00</time></trkpt><trkpt lat="43.185749" lon="19.249554"><ele>855.5</ele><time>2012-04-29T11:27:30.0000000+00:00</time></trkpt><trkpt lat="43.18576" lon="19.249512"><ele>855.4</ele><time>2012-04-29T11:27:35.0000000+00:00</time></trkpt><trkpt lat="43.185764" lon="19.249475"><ele>855.4</ele><time>2012-04-29T11:27:40.0000000+00:00</time></trkpt><trkpt lat="43.185768" lon="19.249434"><ele>855.6</ele><time>2012-04-29T11:27:45.0000000+00:00</time></trkpt><trkpt lat="43.185776" lon="19.249395"><ele>855.7</ele><time>2012-04-29T11:27:50.0000000+00:00</time></trkpt><trkpt lat="43.185787" lon="19.249359"><ele>856.5</ele><time>2012-04-29T11:27:55.0000000+00:00</time></trkpt><trkpt lat="43.185787" lon="19.249359"><ele>856.6</ele><time>2012-04-29T11:28:00.0000000+00:00</time></trkpt><trkpt lat="43.185787" lon="19.249359"><ele>856.6</ele><time>2012-04-29T11:28:05.0000000+00:00</time></trkpt><trkpt lat="43.185787" lon="19.249359"><ele>856.6</ele><time>2012-04-29T11:28:10.0000000+00:00</time></trkpt><trkpt lat="43.185787" lon="19.249359"><ele>856.6</ele><time>2012-04-29T11:28:15.0000000+00:00</time></trkpt><trkpt lat="43.185787" lon="19.249359"><ele>856.6</ele><time>2012-04-29T11:28:20.0000000+00:00</time></trkpt><trkpt lat="43.185787" lon="19.249359"><ele>856.6</ele><time>2012-04-29T11:28:25.0000000+00:00</time></trkpt><trkpt lat="43.185787" lon="19.249359"><ele>856.6</ele><time>2012-04-29T11:28:30.0000000+00:00</time></trkpt><trkpt lat="43.185787" lon="19.249359"><ele>856.6</ele><time>2012-04-29T11:28:35.0000000+00:00</time></trkpt><trkpt lat="43.185787" lon="19.249359"><ele>856.7</ele><time>2012-04-29T11:28:40.0000000+00:00</time></trkpt><trkpt lat="43.185787" lon="19.249359"><ele>856.7</ele><time>2012-04-29T11:28:45.0000000+00:00</time></trkpt><trkpt lat="43.185787" lon="19.249359"><ele>856.7</ele><time>2012-04-29T11:28:50.0000000+00:00</time></trkpt><trkpt lat="43.185787" lon="19.249359"><ele>856.7</ele><time>2012-04-29T11:28:55.0000000+00:00</time></trkpt><trkpt lat="43.185787" lon="19.249359"><ele>856.7</ele><time>2012-04-29T11:29:00.0000000+00:00</time></trkpt><trkpt lat="43.185787" lon="19.249359"><ele>856.6</ele><time>2012-04-29T11:29:05.0000000+00:00</time></trkpt><trkpt lat="43.185787" lon="19.249359"><ele>856.6</ele><time>2012-04-29T11:29:10.0000000+00:00</time></trkpt><trkpt lat="43.185787" lon="19.249359"><ele>856.6</ele><time>2012-04-29T11:29:15.0000000+00:00</time></trkpt><trkpt lat="43.185787" lon="19.249359"><ele>856.6</ele><time>2012-04-29T11:29:20.0000000+00:00</time></trkpt><trkpt lat="43.185787" lon="19.249359"><ele>856.6</ele><time>2012-04-29T11:29:25.0000000+00:00</time></trkpt><trkpt lat="43.185787" lon="19.249359"><ele>856.6</ele><time>2012-04-29T11:29:30.0000000+00:00</time></trkpt><trkpt lat="43.185787" lon="19.249359"><ele>856.6</ele><time>2012-04-29T11:29:35.0000000+00:00</time></trkpt><trkpt lat="43.185787" lon="19.249359"><ele>856.6</ele><time>2012-04-29T11:29:40.0000000+00:00</time></trkpt><trkpt lat="43.185787" lon="19.249359"><ele>856.6</ele><time>2012-04-29T11:29:45.0000000+00:00</time></trkpt><trkpt lat="43.185787" lon="19.249359"><ele>856.6</ele><time>2012-04-29T11:29:50.0000000+00:00</time></trkpt><trkpt lat="43.185787" lon="19.249359"><ele>856.6</ele><time>2012-04-29T11:29:55.0000000+00:00</time></trkpt><trkpt lat="43.185787" lon="19.24935"><ele>856.8</ele><time>2012-04-29T11:30:00.0000000+00:00</time></trkpt><trkpt lat="43.185783" lon="19.249346"><ele>856.6</ele><time>2012-04-29T11:30:05.0000000+00:00</time></trkpt><trkpt lat="43.185783" lon="19.249346"><ele>856.6</ele><time>2012-04-29T11:30:10.0000000+00:00</time></trkpt><trkpt lat="43.185783" lon="19.249346"><ele>856.6</ele><time>2012-04-29T11:30:15.0000000+00:00</time></trkpt><trkpt lat="43.185783" lon="19.249346"><ele>856.6</ele><time>2012-04-29T11:30:20.0000000+00:00</time></trkpt><trkpt lat="43.185783" lon="19.249346"><ele>856.6</ele><time>2012-04-29T11:30:25.0000000+00:00</time></trkpt><trkpt lat="43.185783" lon="19.249346"><ele>856.6</ele><time>2012-04-29T11:30:30.0000000+00:00</time></trkpt><trkpt lat="43.185783" lon="19.249346"><ele>856.6</ele><time>2012-04-29T11:30:35.0000000+00:00</time></trkpt><trkpt lat="43.185783" lon="19.249346"><ele>856.6</ele><time>2012-04-29T11:30:40.0000000+00:00</time></trkpt><trkpt lat="43.185783" lon="19.249346"><ele>856.6</ele><time>2012-04-29T11:30:45.0000000+00:00</time></trkpt><trkpt lat="43.185783" lon="19.249346"><ele>856.6</ele><time>2012-04-29T11:30:50.0000000+00:00</time></trkpt><trkpt lat="43.185783" lon="19.249346"><ele>856.6</ele><time>2012-04-29T11:30:55.0000000+00:00</time></trkpt><trkpt lat="43.185783" lon="19.249344"><ele>856.6</ele><time>2012-04-29T11:31:00.0000000+00:00</time></trkpt><trkpt lat="43.185783" lon="19.249344"><ele>856.6</ele><time>2012-04-29T11:31:05.0000000+00:00</time></trkpt><trkpt lat="43.185783" lon="19.249344"><ele>856.6</ele><time>2012-04-29T11:31:10.0000000+00:00</time></trkpt><trkpt lat="43.185783" lon="19.249344"><ele>856.6</ele><time>2012-04-29T11:31:15.0000000+00:00</time></trkpt><trkpt lat="43.185783" lon="19.249346"><ele>856.6</ele><time>2012-04-29T11:31:20.0000000+00:00</time></trkpt><trkpt lat="43.185783" lon="19.249346"><ele>856.6</ele><time>2012-04-29T11:31:25.0000000+00:00</time></trkpt><trkpt lat="43.18578" lon="19.249346"><ele>856.6</ele><time>2012-04-29T11:31:30.0000000+00:00</time></trkpt><trkpt lat="43.18578" lon="19.249344"><ele>856.6</ele><time>2012-04-29T11:31:35.0000000+00:00</time></trkpt><trkpt lat="43.18578" lon="19.249346"><ele>856.6</ele><time>2012-04-29T11:31:40.0000000+00:00</time></trkpt><trkpt lat="43.18578" lon="19.249346"><ele>856.6</ele><time>2012-04-29T11:31:45.0000000+00:00</time></trkpt><trkpt lat="43.18578" lon="19.249346"><ele>856.6</ele><time>2012-04-29T11:31:50.0000000+00:00</time></trkpt><trkpt lat="43.18578" lon="19.249346"><ele>856.6</ele><time>2012-04-29T11:31:55.0000000+00:00</time></trkpt><trkpt lat="43.18578" lon="19.249346"><ele>856.6</ele><time>2012-04-29T11:32:00.0000000+00:00</time></trkpt><trkpt lat="43.18578" lon="19.249346"><ele>856.6</ele><time>2012-04-29T11:32:05.0000000+00:00</time></trkpt><trkpt lat="43.18578" lon="19.249346"><ele>856.6</ele><time>2012-04-29T11:32:10.0000000+00:00</time></trkpt><trkpt lat="43.18578" lon="19.249346"><ele>856.6</ele><time>2012-04-29T11:32:15.0000000+00:00</time></trkpt><trkpt lat="43.18578" lon="19.249346"><ele>856.6</ele><time>2012-04-29T11:32:20.0000000+00:00</time></trkpt><trkpt lat="43.18578" lon="19.249346"><ele>856.6</ele><time>2012-04-29T11:32:25.0000000+00:00</time></trkpt><trkpt lat="43.18578" lon="19.249346"><ele>856.6</ele><time>2012-04-29T11:32:30.0000000+00:00</time></trkpt><trkpt lat="43.18578" lon="19.249346"><ele>856.6</ele><time>2012-04-29T11:32:35.0000000+00:00</time></trkpt><trkpt lat="43.18578" lon="19.249346"><ele>856.6</ele><time>2012-04-29T11:32:40.0000000+00:00</time></trkpt><trkpt lat="43.18578" lon="19.249348"><ele>856.6</ele><time>2012-04-29T11:32:45.0000000+00:00</time></trkpt><trkpt lat="43.18578" lon="19.249348"><ele>856.6</ele><time>2012-04-29T11:32:50.0000000+00:00</time></trkpt><trkpt lat="43.18578" lon="19.249348"><ele>856.6</ele><time>2012-04-29T11:32:55.0000000+00:00</time></trkpt><trkpt lat="43.18578" lon="19.249348"><ele>856.6</ele><time>2012-04-29T11:33:00.0000000+00:00</time></trkpt><trkpt lat="43.18578" lon="19.249348"><ele>856.6</ele><time>2012-04-29T11:33:05.0000000+00:00</time></trkpt><trkpt lat="43.18578" lon="19.249348"><ele>856.6</ele><time>2012-04-29T11:33:10.0000000+00:00</time></trkpt><trkpt lat="43.18578" lon="19.249348"><ele>856.6</ele><time>2012-04-29T11:33:15.0000000+00:00</time></trkpt><trkpt lat="43.18578" lon="19.249348"><ele>856.6</ele><time>2012-04-29T11:33:20.0000000+00:00</time></trkpt><trkpt lat="43.18578" lon="19.249348"><ele>856.6</ele><time>2012-04-29T11:33:25.0000000+00:00</time></trkpt><trkpt lat="43.18578" lon="19.249348"><ele>856.6</ele><time>2012-04-29T11:33:30.0000000+00:00</time></trkpt><trkpt lat="43.18578" lon="19.249348"><ele>856.6</ele><time>2012-04-29T11:33:35.0000000+00:00</time></trkpt><trkpt lat="43.18578" lon="19.249348"><ele>856.6</ele><time>2012-04-29T11:33:40.0000000+00:00</time></trkpt><trkpt lat="43.18578" lon="19.24935"><ele>856.6</ele><time>2012-04-29T11:33:45.0000000+00:00</time></trkpt><trkpt lat="43.18578" lon="19.249348"><ele>856.6</ele><time>2012-04-29T11:33:50.0000000+00:00</time></trkpt><trkpt lat="43.18578" lon="19.249348"><ele>856.6</ele><time>2012-04-29T11:33:55.0000000+00:00</time></trkpt><trkpt lat="43.18578" lon="19.249348"><ele>856.6</ele><time>2012-04-29T11:34:00.0000000+00:00</time></trkpt><trkpt lat="43.18578" lon="19.249348"><ele>856.6</ele><time>2012-04-29T11:34:05.0000000+00:00</time></trkpt><trkpt lat="43.18578" lon="19.249348"><ele>856.5</ele><time>2012-04-29T11:34:10.0000000+00:00</time></trkpt><trkpt lat="43.185802" lon="19.249321"><ele>856.3</ele><time>2012-04-29T11:34:15.0000000+00:00</time></trkpt><trkpt lat="43.18581" lon="19.249245"><ele>856.7</ele><time>2012-04-29T11:34:20.0000000+00:00</time></trkpt><trkpt lat="43.185814" lon="19.249182"><ele>856.8</ele><time>2012-04-29T11:34:25.0000000+00:00</time></trkpt><trkpt lat="43.185814" lon="19.249125"><ele>857.3</ele><time>2012-04-29T11:34:30.0000000+00:00</time></trkpt><trkpt lat="43.18581" lon="19.249077"><ele>858.5</ele><time>2012-04-29T11:34:35.0000000+00:00</time></trkpt><trkpt lat="43.185783" lon="19.249029"><ele>861.2</ele><time>2012-04-29T11:34:40.0000000+00:00</time></trkpt><trkpt lat="43.185772" lon="19.248966"><ele>862.6</ele><time>2012-04-29T11:34:45.0000000+00:00</time></trkpt><trkpt lat="43.185757" lon="19.248898"><ele>863.1</ele><time>2012-04-29T11:34:50.0000000+00:00</time></trkpt><trkpt lat="43.185749" lon="19.248833"><ele>863.7</ele><time>2012-04-29T11:34:55.0000000+00:00</time></trkpt><trkpt lat="43.185738" lon="19.248772"><ele>863.8</ele><time>2012-04-29T11:35:00.0000000+00:00</time></trkpt><trkpt lat="43.185734" lon="19.248709"><ele>864.8</ele><time>2012-04-29T11:35:05.0000000+00:00</time></trkpt><trkpt lat="43.185726" lon="19.24865"><ele>865.9</ele><time>2012-04-29T11:35:10.0000000+00:00</time></trkpt><trkpt lat="43.185711" lon="19.248589"><ele>867.3</ele><time>2012-04-29T11:35:15.0000000+00:00</time></trkpt><trkpt lat="43.185696" lon="19.248528"><ele>867.6</ele><time>2012-04-29T11:35:20.0000000+00:00</time></trkpt><trkpt lat="43.185684" lon="19.248474"><ele>868.8</ele><time>2012-04-29T11:35:25.0000000+00:00</time></trkpt><trkpt lat="43.185669" lon="19.248407"><ele>869.5</ele><time>2012-04-29T11:35:30.0000000+00:00</time></trkpt><trkpt lat="43.185646" lon="19.24835"><ele>871.0</ele><time>2012-04-29T11:35:35.0000000+00:00</time></trkpt><trkpt lat="43.185619" lon="19.248295"><ele>872.0</ele><time>2012-04-29T11:35:40.0000000+00:00</time></trkpt><trkpt lat="43.185596" lon="19.248236"><ele>872.6</ele><time>2012-04-29T11:35:45.0000000+00:00</time></trkpt><trkpt lat="43.185581" lon="19.248184"><ele>873.5</ele><time>2012-04-29T11:35:50.0000000+00:00</time></trkpt><trkpt lat="43.185566" lon="19.248125"><ele>874.0</ele><time>2012-04-29T11:35:55.0000000+00:00</time></trkpt><trkpt lat="43.185558" lon="19.248096"><ele>874.5</ele><time>2012-04-29T11:36:00.0000000+00:00</time></trkpt><trkpt lat="43.185551" lon="19.248026"><ele>875.3</ele><time>2012-04-29T11:36:05.0000000+00:00</time></trkpt><trkpt lat="43.185532" lon="19.247959"><ele>876.0</ele><time>2012-04-29T11:36:10.0000000+00:00</time></trkpt><trkpt lat="43.18552" lon="19.247881"><ele>876.5</ele><time>2012-04-29T11:36:15.0000000+00:00</time></trkpt><trkpt lat="43.185516" lon="19.247776"><ele>876.7</ele><time>2012-04-29T11:36:20.0000000+00:00</time></trkpt><trkpt lat="43.185513" lon="19.247675"><ele>876.4</ele><time>2012-04-29T11:36:25.0000000+00:00</time></trkpt><trkpt lat="43.185513" lon="19.247543"><ele>875.8</ele><time>2012-04-29T11:36:30.0000000+00:00</time></trkpt><trkpt lat="43.185509" lon="19.247416"><ele>876.4</ele><time>2012-04-29T11:36:35.0000000+00:00</time></trkpt><trkpt lat="43.185505" lon="19.24732"><ele>876.9</ele><time>2012-04-29T11:36:40.0000000+00:00</time></trkpt><trkpt lat="43.185501" lon="19.247219"><ele>878.3</ele><time>2012-04-29T11:36:45.0000000+00:00</time></trkpt><trkpt lat="43.185501" lon="19.247099"><ele>879.5</ele><time>2012-04-29T11:36:50.0000000+00:00</time></trkpt><trkpt lat="43.185509" lon="19.246973"><ele>880.1</ele><time>2012-04-29T11:36:55.0000000+00:00</time></trkpt><trkpt lat="43.185524" lon="19.246834"><ele>879.3</ele><time>2012-04-29T11:37:00.0000000+00:00</time></trkpt><trkpt lat="43.185543" lon="19.246717"><ele>880.2</ele><time>2012-04-29T11:37:05.0000000+00:00</time></trkpt><trkpt lat="43.185558" lon="19.246618"><ele>882.1</ele><time>2012-04-29T11:37:10.0000000+00:00</time></trkpt><trkpt lat="43.185577" lon="19.246542"><ele>883.2</ele><time>2012-04-29T11:37:15.0000000+00:00</time></trkpt><trkpt lat="43.18557" lon="19.246412"><ele>884.4</ele><time>2012-04-29T11:37:20.0000000+00:00</time></trkpt><trkpt lat="43.185539" lon="19.2463"><ele>885.4</ele><time>2012-04-29T11:37:25.0000000+00:00</time></trkpt><trkpt lat="43.185493" lon="19.246193"><ele>884.9</ele><time>2012-04-29T11:37:30.0000000+00:00</time></trkpt><trkpt lat="43.185474" lon="19.246082"><ele>885.1</ele><time>2012-04-29T11:37:35.0000000+00:00</time></trkpt><trkpt lat="43.185444" lon="19.245981"><ele>886.1</ele><time>2012-04-29T11:37:40.0000000+00:00</time></trkpt><trkpt lat="43.185421" lon="19.245869"><ele>887.0</ele><time>2012-04-29T11:37:45.0000000+00:00</time></trkpt><trkpt lat="43.185387" lon="19.245754"><ele>888.4</ele><time>2012-04-29T11:37:50.0000000+00:00</time></trkpt><trkpt lat="43.185349" lon="19.245636"><ele>889.2</ele><time>2012-04-29T11:37:55.0000000+00:00</time></trkpt><trkpt lat="43.185337" lon="19.245535"><ele>889.7</ele><time>2012-04-29T11:38:00.0000000+00:00</time></trkpt><trkpt lat="43.185326" lon="19.24544"><ele>890.6</ele><time>2012-04-29T11:38:05.0000000+00:00</time></trkpt><trkpt lat="43.185322" lon="19.245337"><ele>891.2</ele><time>2012-04-29T11:38:10.0000000+00:00</time></trkpt><trkpt lat="43.185326" lon="19.245234"><ele>892.3</ele><time>2012-04-29T11:38:15.0000000+00:00</time></trkpt><trkpt lat="43.185322" lon="19.245129"><ele>892.9</ele><time>2012-04-29T11:38:20.0000000+00:00</time></trkpt><trkpt lat="43.18531" lon="19.245079"><ele>892.9</ele><time>2012-04-29T11:38:25.0000000+00:00</time></trkpt><trkpt lat="43.185295" lon="19.244987"><ele>893.4</ele><time>2012-04-29T11:38:30.0000000+00:00</time></trkpt><trkpt lat="43.185284" lon="19.244919"><ele>894.6</ele><time>2012-04-29T11:38:35.0000000+00:00</time></trkpt><trkpt lat="43.185265" lon="19.244865"><ele>896.1</ele><time>2012-04-29T11:38:40.0000000+00:00</time></trkpt><trkpt lat="43.185246" lon="19.244818"><ele>897.2</ele><time>2012-04-29T11:38:45.0000000+00:00</time></trkpt><trkpt lat="43.185226" lon="19.244772"><ele>897.7</ele><time>2012-04-29T11:38:50.0000000+00:00</time></trkpt><trkpt lat="43.185211" lon="19.24473"><ele>898.4</ele><time>2012-04-29T11:38:55.0000000+00:00</time></trkpt><trkpt lat="43.185188" lon="19.244665"><ele>899.6</ele><time>2012-04-29T11:39:00.0000000+00:00</time></trkpt><trkpt lat="43.185165" lon="19.244593"><ele>900.6</ele><time>2012-04-29T11:39:05.0000000+00:00</time></trkpt><trkpt lat="43.185143" lon="19.244524"><ele>901.5</ele><time>2012-04-29T11:39:10.0000000+00:00</time></trkpt><trkpt lat="43.185116" lon="19.244461"><ele>903.2</ele><time>2012-04-29T11:39:15.0000000+00:00</time></trkpt><trkpt lat="43.185093" lon="19.24439"><ele>904.6</ele><time>2012-04-29T11:39:20.0000000+00:00</time></trkpt><trkpt lat="43.18507" lon="19.24431"><ele>905.8</ele><time>2012-04-29T11:39:25.0000000+00:00</time></trkpt><trkpt lat="43.185051" lon="19.244236"><ele>907.3</ele><time>2012-04-29T11:39:30.0000000+00:00</time></trkpt><trkpt lat="43.185028" lon="19.244158"><ele>908.0</ele><time>2012-04-29T11:39:35.0000000+00:00</time></trkpt><trkpt lat="43.185013" lon="19.244093"><ele>908.9</ele><time>2012-04-29T11:39:40.0000000+00:00</time></trkpt><trkpt lat="43.185017" lon="19.244017"><ele>909.5</ele><time>2012-04-29T11:39:45.0000000+00:00</time></trkpt><trkpt lat="43.18502" lon="19.24395"><ele>910.2</ele><time>2012-04-29T11:39:50.0000000+00:00</time></trkpt><trkpt lat="43.185028" lon="19.243877"><ele>910.3</ele><time>2012-04-29T11:39:55.0000000+00:00</time></trkpt><trkpt lat="43.18504" lon="19.243809"><ele>910.6</ele><time>2012-04-29T11:40:00.0000000+00:00</time></trkpt><trkpt lat="43.185043" lon="19.243744"><ele>911.1</ele><time>2012-04-29T11:40:05.0000000+00:00</time></trkpt><trkpt lat="43.185066" lon="19.243696"><ele>911.4</ele><time>2012-04-29T11:40:10.0000000+00:00</time></trkpt><trkpt lat="43.185078" lon="19.243685"><ele>910.9</ele><time>2012-04-29T11:40:15.0000000+00:00</time></trkpt><trkpt lat="43.185078" lon="19.243685"><ele>910.9</ele><time>2012-04-29T11:40:20.0000000+00:00</time></trkpt><trkpt lat="43.185078" lon="19.243685"><ele>910.9</ele><time>2012-04-29T11:40:25.0000000+00:00</time></trkpt><trkpt lat="43.185078" lon="19.243685"><ele>910.9</ele><time>2012-04-29T11:40:30.0000000+00:00</time></trkpt><trkpt lat="43.185078" lon="19.243685"><ele>910.9</ele><time>2012-04-29T11:40:35.0000000+00:00</time></trkpt><trkpt lat="43.185078" lon="19.243685"><ele>910.9</ele><time>2012-04-29T11:40:40.0000000+00:00</time></trkpt><trkpt lat="43.185074" lon="19.243687"><ele>910.9</ele><time>2012-04-29T11:40:45.0000000+00:00</time></trkpt><trkpt lat="43.18507" lon="19.243689"><ele>910.7</ele><time>2012-04-29T11:40:50.0000000+00:00</time></trkpt><trkpt lat="43.18507" lon="19.243689"><ele>910.7</ele><time>2012-04-29T11:40:55.0000000+00:00</time></trkpt><trkpt lat="43.18507" lon="19.243689"><ele>910.7</ele><time>2012-04-29T11:41:00.0000000+00:00</time></trkpt><trkpt lat="43.18507" lon="19.243689"><ele>910.7</ele><time>2012-04-29T11:41:05.0000000+00:00</time></trkpt><trkpt lat="43.18507" lon="19.243689"><ele>910.7</ele><time>2012-04-29T11:41:10.0000000+00:00</time></trkpt><trkpt lat="43.18507" lon="19.243689"><ele>910.6</ele><time>2012-04-29T11:41:15.0000000+00:00</time></trkpt><trkpt lat="43.18507" lon="19.243689"><ele>910.6</ele><time>2012-04-29T11:41:20.0000000+00:00</time></trkpt><trkpt lat="43.18507" lon="19.243689"><ele>910.6</ele><time>2012-04-29T11:41:25.0000000+00:00</time></trkpt><trkpt lat="43.18507" lon="19.243689"><ele>910.6</ele><time>2012-04-29T11:41:30.0000000+00:00</time></trkpt><trkpt lat="43.18507" lon="19.243689"><ele>910.6</ele><time>2012-04-29T11:41:35.0000000+00:00</time></trkpt><trkpt lat="43.18507" lon="19.243689"><ele>910.6</ele><time>2012-04-29T11:41:40.0000000+00:00</time></trkpt><trkpt lat="43.18507" lon="19.243689"><ele>910.6</ele><time>2012-04-29T11:41:45.0000000+00:00</time></trkpt><trkpt lat="43.18507" lon="19.243689"><ele>910.5</ele><time>2012-04-29T11:41:50.0000000+00:00</time></trkpt><trkpt lat="43.18507" lon="19.243689"><ele>910.5</ele><time>2012-04-29T11:41:55.0000000+00:00</time></trkpt><trkpt lat="43.18507" lon="19.243689"><ele>910.5</ele><time>2012-04-29T11:42:00.0000000+00:00</time></trkpt><trkpt lat="43.18507" lon="19.24369"><ele>910.5</ele><time>2012-04-29T11:42:05.0000000+00:00</time></trkpt><trkpt lat="43.18507" lon="19.24369"><ele>910.5</ele><time>2012-04-29T11:42:10.0000000+00:00</time></trkpt><trkpt lat="43.18507" lon="19.24369"><ele>910.5</ele><time>2012-04-29T11:42:15.0000000+00:00</time></trkpt><trkpt lat="43.18507" lon="19.24369"><ele>910.5</ele><time>2012-04-29T11:42:20.0000000+00:00</time></trkpt><trkpt lat="43.18507" lon="19.24369"><ele>910.5</ele><time>2012-04-29T11:42:25.0000000+00:00</time></trkpt><trkpt lat="43.18507" lon="19.24369"><ele>910.6</ele><time>2012-04-29T11:42:30.0000000+00:00</time></trkpt><trkpt lat="43.18507" lon="19.24369"><ele>910.5</ele><time>2012-04-29T11:42:35.0000000+00:00</time></trkpt><trkpt lat="43.18507" lon="19.24369"><ele>910.5</ele><time>2012-04-29T11:42:40.0000000+00:00</time></trkpt><trkpt lat="43.18507" lon="19.24369"><ele>910.5</ele><time>2012-04-29T11:42:45.0000000+00:00</time></trkpt><trkpt lat="43.18507" lon="19.24369"><ele>910.5</ele><time>2012-04-29T11:42:50.0000000+00:00</time></trkpt><trkpt lat="43.18507" lon="19.24369"><ele>910.4</ele><time>2012-04-29T11:42:55.0000000+00:00</time></trkpt><trkpt lat="43.18507" lon="19.24369"><ele>910.4</ele><time>2012-04-29T11:43:00.0000000+00:00</time></trkpt><trkpt lat="43.18507" lon="19.24369"><ele>910.3</ele><time>2012-04-29T11:43:05.0000000+00:00</time></trkpt><trkpt lat="43.18507" lon="19.24369"><ele>910.3</ele><time>2012-04-29T11:43:10.0000000+00:00</time></trkpt><trkpt lat="43.18507" lon="19.243689"><ele>910.2</ele><time>2012-04-29T11:43:15.0000000+00:00</time></trkpt><trkpt lat="43.18507" lon="19.243689"><ele>910.2</ele><time>2012-04-29T11:43:20.0000000+00:00</time></trkpt><trkpt lat="43.18507" lon="19.243689"><ele>910.1</ele><time>2012-04-29T11:43:25.0000000+00:00</time></trkpt><trkpt lat="43.18507" lon="19.243689"><ele>910.1</ele><time>2012-04-29T11:43:30.0000000+00:00</time></trkpt><trkpt lat="43.185074" lon="19.243689"><ele>910.0</ele><time>2012-04-29T11:43:35.0000000+00:00</time></trkpt><trkpt lat="43.185074" lon="19.243687"><ele>909.9</ele><time>2012-04-29T11:43:40.0000000+00:00</time></trkpt><trkpt lat="43.185074" lon="19.243687"><ele>909.9</ele><time>2012-04-29T11:43:45.0000000+00:00</time></trkpt><trkpt lat="43.185074" lon="19.243687"><ele>909.8</ele><time>2012-04-29T11:43:50.0000000+00:00</time></trkpt><trkpt lat="43.185074" lon="19.243687"><ele>909.7</ele><time>2012-04-29T11:43:55.0000000+00:00</time></trkpt><trkpt lat="43.185074" lon="19.243687"><ele>909.7</ele><time>2012-04-29T11:44:00.0000000+00:00</time></trkpt><trkpt lat="43.185074" lon="19.243687"><ele>909.7</ele><time>2012-04-29T11:44:05.0000000+00:00</time></trkpt><trkpt lat="43.185074" lon="19.243687"><ele>909.6</ele><time>2012-04-29T11:44:10.0000000+00:00</time></trkpt><trkpt lat="43.185074" lon="19.243687"><ele>909.6</ele><time>2012-04-29T11:44:15.0000000+00:00</time></trkpt><trkpt lat="43.185074" lon="19.243685"><ele>909.5</ele><time>2012-04-29T11:44:20.0000000+00:00</time></trkpt><trkpt lat="43.185074" lon="19.243685"><ele>909.5</ele><time>2012-04-29T11:44:25.0000000+00:00</time></trkpt><trkpt lat="43.185074" lon="19.243685"><ele>909.4</ele><time>2012-04-29T11:44:30.0000000+00:00</time></trkpt><trkpt lat="43.185074" lon="19.243685"><ele>909.4</ele><time>2012-04-29T11:44:35.0000000+00:00</time></trkpt><trkpt lat="43.185074" lon="19.243685"><ele>909.4</ele><time>2012-04-29T11:44:40.0000000+00:00</time></trkpt><trkpt lat="43.185074" lon="19.243685"><ele>909.3</ele><time>2012-04-29T11:44:45.0000000+00:00</time></trkpt><trkpt lat="43.185074" lon="19.243685"><ele>909.3</ele><time>2012-04-29T11:44:50.0000000+00:00</time></trkpt><trkpt lat="43.185074" lon="19.243685"><ele>909.2</ele><time>2012-04-29T11:44:55.0000000+00:00</time></trkpt><trkpt lat="43.185074" lon="19.243685"><ele>909.2</ele><time>2012-04-29T11:45:00.0000000+00:00</time></trkpt><trkpt lat="43.185074" lon="19.243685"><ele>909.1</ele><time>2012-04-29T11:45:05.0000000+00:00</time></trkpt><trkpt lat="43.185074" lon="19.243685"><ele>909.0</ele><time>2012-04-29T11:45:10.0000000+00:00</time></trkpt><trkpt lat="43.185074" lon="19.243685"><ele>908.9</ele><time>2012-04-29T11:45:15.0000000+00:00</time></trkpt><trkpt lat="43.185074" lon="19.243685"><ele>908.9</ele><time>2012-04-29T11:45:20.0000000+00:00</time></trkpt><trkpt lat="43.185074" lon="19.243685"><ele>908.8</ele><time>2012-04-29T11:45:25.0000000+00:00</time></trkpt><trkpt lat="43.185074" lon="19.243685"><ele>908.8</ele><time>2012-04-29T11:45:30.0000000+00:00</time></trkpt><trkpt lat="43.185074" lon="19.243685"><ele>908.7</ele><time>2012-04-29T11:45:35.0000000+00:00</time></trkpt><trkpt lat="43.185074" lon="19.243685"><ele>908.6</ele><time>2012-04-29T11:45:40.0000000+00:00</time></trkpt><trkpt lat="43.185074" lon="19.243685"><ele>908.6</ele><time>2012-04-29T11:45:45.0000000+00:00</time></trkpt><trkpt lat="43.185074" lon="19.243685"><ele>908.5</ele><time>2012-04-29T11:45:50.0000000+00:00</time></trkpt><trkpt lat="43.185074" lon="19.243685"><ele>908.4</ele><time>2012-04-29T11:45:55.0000000+00:00</time></trkpt><trkpt lat="43.185074" lon="19.243685"><ele>908.3</ele><time>2012-04-29T11:46:00.0000000+00:00</time></trkpt><trkpt lat="43.185074" lon="19.243683"><ele>908.2</ele><time>2012-04-29T11:46:05.0000000+00:00</time></trkpt><trkpt lat="43.185074" lon="19.243683"><ele>908.1</ele><time>2012-04-29T11:46:10.0000000+00:00</time></trkpt><trkpt lat="43.185074" lon="19.243683"><ele>908.0</ele><time>2012-04-29T11:46:15.0000000+00:00</time></trkpt><trkpt lat="43.185074" lon="19.243683"><ele>908.0</ele><time>2012-04-29T11:46:20.0000000+00:00</time></trkpt><trkpt lat="43.185074" lon="19.243683"><ele>907.9</ele><time>2012-04-29T11:46:25.0000000+00:00</time></trkpt><trkpt lat="43.185074" lon="19.243683"><ele>907.9</ele><time>2012-04-29T11:46:30.0000000+00:00</time></trkpt><trkpt lat="43.185074" lon="19.243681"><ele>907.8</ele><time>2012-04-29T11:46:35.0000000+00:00</time></trkpt><trkpt lat="43.185074" lon="19.243681"><ele>907.8</ele><time>2012-04-29T11:46:40.0000000+00:00</time></trkpt><trkpt lat="43.185074" lon="19.243681"><ele>907.7</ele><time>2012-04-29T11:46:45.0000000+00:00</time></trkpt><trkpt lat="43.185074" lon="19.243681"><ele>907.7</ele><time>2012-04-29T11:46:50.0000000+00:00</time></trkpt><trkpt lat="43.185074" lon="19.243681"><ele>907.7</ele><time>2012-04-29T11:46:55.0000000+00:00</time></trkpt><trkpt lat="43.185074" lon="19.243681"><ele>907.7</ele><time>2012-04-29T11:47:00.0000000+00:00</time></trkpt><trkpt lat="43.185074" lon="19.243679"><ele>907.7</ele><time>2012-04-29T11:47:05.0000000+00:00</time></trkpt><trkpt lat="43.185074" lon="19.243679"><ele>907.7</ele><time>2012-04-29T11:47:10.0000000+00:00</time></trkpt><trkpt lat="43.185074" lon="19.243679"><ele>907.7</ele><time>2012-04-29T11:47:15.0000000+00:00</time></trkpt><trkpt lat="43.185074" lon="19.243679"><ele>907.6</ele><time>2012-04-29T11:47:20.0000000+00:00</time></trkpt><trkpt lat="43.185074" lon="19.243679"><ele>907.5</ele><time>2012-04-29T11:47:25.0000000+00:00</time></trkpt><trkpt lat="43.185074" lon="19.243677"><ele>907.4</ele><time>2012-04-29T11:47:30.0000000+00:00</time></trkpt><trkpt lat="43.185074" lon="19.243677"><ele>907.3</ele><time>2012-04-29T11:47:35.0000000+00:00</time></trkpt><trkpt lat="43.185074" lon="19.243677"><ele>907.3</ele><time>2012-04-29T11:47:40.0000000+00:00</time></trkpt><trkpt lat="43.185074" lon="19.243677"><ele>907.2</ele><time>2012-04-29T11:47:45.0000000+00:00</time></trkpt><trkpt lat="43.185074" lon="19.243677"><ele>907.1</ele><time>2012-04-29T11:47:50.0000000+00:00</time></trkpt><trkpt lat="43.185074" lon="19.243675"><ele>907.1</ele><time>2012-04-29T11:47:55.0000000+00:00</time></trkpt><trkpt lat="43.185074" lon="19.243675"><ele>907.0</ele><time>2012-04-29T11:48:00.0000000+00:00</time></trkpt><trkpt lat="43.185074" lon="19.243675"><ele>907.0</ele><time>2012-04-29T11:48:05.0000000+00:00</time></trkpt><trkpt lat="43.185074" lon="19.243675"><ele>906.9</ele><time>2012-04-29T11:48:10.0000000+00:00</time></trkpt><trkpt lat="43.185074" lon="19.243675"><ele>906.9</ele><time>2012-04-29T11:48:15.0000000+00:00</time></trkpt><trkpt lat="43.185074" lon="19.243675"><ele>906.9</ele><time>2012-04-29T11:48:20.0000000+00:00</time></trkpt><trkpt lat="43.185074" lon="19.243675"><ele>906.8</ele><time>2012-04-29T11:48:25.0000000+00:00</time></trkpt><trkpt lat="43.185074" lon="19.243675"><ele>906.8</ele><time>2012-04-29T11:48:30.0000000+00:00</time></trkpt><trkpt lat="43.185074" lon="19.243675"><ele>906.8</ele><time>2012-04-29T11:48:35.0000000+00:00</time></trkpt><trkpt lat="43.185074" lon="19.243675"><ele>906.8</ele><time>2012-04-29T11:48:40.0000000+00:00</time></trkpt><trkpt lat="43.185074" lon="19.243675"><ele>906.8</ele><time>2012-04-29T11:48:45.0000000+00:00</time></trkpt><trkpt lat="43.185074" lon="19.243675"><ele>906.9</ele><time>2012-04-29T11:48:50.0000000+00:00</time></trkpt><trkpt lat="43.185074" lon="19.243675"><ele>906.9</ele><time>2012-04-29T11:48:55.0000000+00:00</time></trkpt><trkpt lat="43.185074" lon="19.243675"><ele>906.8</ele><time>2012-04-29T11:49:00.0000000+00:00</time></trkpt><trkpt lat="43.185074" lon="19.243675"><ele>906.8</ele><time>2012-04-29T11:49:05.0000000+00:00</time></trkpt><trkpt lat="43.185074" lon="19.243673"><ele>906.8</ele><time>2012-04-29T11:49:10.0000000+00:00</time></trkpt><trkpt lat="43.185074" lon="19.243673"><ele>906.8</ele><time>2012-04-29T11:49:15.0000000+00:00</time></trkpt><trkpt lat="43.185074" lon="19.243673"><ele>906.7</ele><time>2012-04-29T11:49:20.0000000+00:00</time></trkpt><trkpt lat="43.185074" lon="19.243673"><ele>906.6</ele><time>2012-04-29T11:49:25.0000000+00:00</time></trkpt><trkpt lat="43.185074" lon="19.243671"><ele>906.6</ele><time>2012-04-29T11:49:30.0000000+00:00</time></trkpt><trkpt lat="43.185074" lon="19.243671"><ele>906.5</ele><time>2012-04-29T11:49:35.0000000+00:00</time></trkpt><trkpt lat="43.185074" lon="19.243671"><ele>906.5</ele><time>2012-04-29T11:49:40.0000000+00:00</time></trkpt><trkpt lat="43.185074" lon="19.243671"><ele>906.4</ele><time>2012-04-29T11:49:45.0000000+00:00</time></trkpt><trkpt lat="43.185074" lon="19.243671"><ele>906.4</ele><time>2012-04-29T11:49:50.0000000+00:00</time></trkpt><trkpt lat="43.185074" lon="19.24367"><ele>906.3</ele><time>2012-04-29T11:49:55.0000000+00:00</time></trkpt><trkpt lat="43.185074" lon="19.24367"><ele>906.3</ele><time>2012-04-29T11:50:00.0000000+00:00</time></trkpt><trkpt lat="43.185074" lon="19.24367"><ele>906.3</ele><time>2012-04-29T11:50:05.0000000+00:00</time></trkpt><trkpt lat="43.185074" lon="19.24367"><ele>906.2</ele><time>2012-04-29T11:50:10.0000000+00:00</time></trkpt><trkpt lat="43.185074" lon="19.243668"><ele>906.2</ele><time>2012-04-29T11:50:15.0000000+00:00</time></trkpt><trkpt lat="43.185074" lon="19.243668"><ele>906.1</ele><time>2012-04-29T11:50:20.0000000+00:00</time></trkpt><trkpt lat="43.185074" lon="19.243668"><ele>906.1</ele><time>2012-04-29T11:50:25.0000000+00:00</time></trkpt><trkpt lat="43.185074" lon="19.243668"><ele>906.0</ele><time>2012-04-29T11:50:30.0000000+00:00</time></trkpt><trkpt lat="43.185074" lon="19.243668"><ele>906.0</ele><time>2012-04-29T11:50:35.0000000+00:00</time></trkpt><trkpt lat="43.18507" lon="19.243666"><ele>905.9</ele><time>2012-04-29T11:50:40.0000000+00:00</time></trkpt><trkpt lat="43.18507" lon="19.243666"><ele>905.9</ele><time>2012-04-29T11:50:45.0000000+00:00</time></trkpt><trkpt lat="43.185074" lon="19.243666"><ele>905.8</ele><time>2012-04-29T11:50:50.0000000+00:00</time></trkpt><trkpt lat="43.185074" lon="19.243666"><ele>905.8</ele><time>2012-04-29T11:50:55.0000000+00:00</time></trkpt><trkpt lat="43.185074" lon="19.243666"><ele>905.7</ele><time>2012-04-29T11:51:00.0000000+00:00</time></trkpt><trkpt lat="43.185074" lon="19.243666"><ele>905.7</ele><time>2012-04-29T11:51:05.0000000+00:00</time></trkpt><trkpt lat="43.185074" lon="19.243666"><ele>905.6</ele><time>2012-04-29T11:51:10.0000000+00:00</time></trkpt><trkpt lat="43.185074" lon="19.243666"><ele>905.5</ele><time>2012-04-29T11:51:15.0000000+00:00</time></trkpt><trkpt lat="43.185074" lon="19.243664"><ele>905.5</ele><time>2012-04-29T11:51:20.0000000+00:00</time></trkpt><trkpt lat="43.185074" lon="19.243664"><ele>905.5</ele><time>2012-04-29T11:51:25.0000000+00:00</time></trkpt><trkpt lat="43.185074" lon="19.243664"><ele>905.4</ele><time>2012-04-29T11:51:30.0000000+00:00</time></trkpt><trkpt lat="43.185074" lon="19.243664"><ele>905.4</ele><time>2012-04-29T11:51:35.0000000+00:00</time></trkpt><trkpt lat="43.185074" lon="19.243664"><ele>905.4</ele><time>2012-04-29T11:51:40.0000000+00:00</time></trkpt><trkpt lat="43.185074" lon="19.243664"><ele>905.4</ele><time>2012-04-29T11:51:45.0000000+00:00</time></trkpt><trkpt lat="43.185074" lon="19.243664"><ele>905.4</ele><time>2012-04-29T11:51:50.0000000+00:00</time></trkpt><trkpt lat="43.185074" lon="19.243662"><ele>905.3</ele><time>2012-04-29T11:51:55.0000000+00:00</time></trkpt><trkpt lat="43.185074" lon="19.243662"><ele>905.3</ele><time>2012-04-29T11:52:00.0000000+00:00</time></trkpt><trkpt lat="43.185074" lon="19.243662"><ele>905.2</ele><time>2012-04-29T11:52:05.0000000+00:00</time></trkpt><trkpt lat="43.185074" lon="19.243662"><ele>905.2</ele><time>2012-04-29T11:52:10.0000000+00:00</time></trkpt><trkpt lat="43.185074" lon="19.243662"><ele>905.1</ele><time>2012-04-29T11:52:15.0000000+00:00</time></trkpt><trkpt lat="43.185074" lon="19.24366"><ele>905.1</ele><time>2012-04-29T11:52:20.0000000+00:00</time></trkpt><trkpt lat="43.185074" lon="19.24366"><ele>905.0</ele><time>2012-04-29T11:52:25.0000000+00:00</time></trkpt><trkpt lat="43.185074" lon="19.24366"><ele>905.0</ele><time>2012-04-29T11:52:30.0000000+00:00</time></trkpt><trkpt lat="43.18507" lon="19.24366"><ele>904.9</ele><time>2012-04-29T11:52:35.0000000+00:00</time></trkpt><trkpt lat="43.18507" lon="19.24366"><ele>904.9</ele><time>2012-04-29T11:52:40.0000000+00:00</time></trkpt><trkpt lat="43.18507" lon="19.24366"><ele>904.9</ele><time>2012-04-29T11:52:45.0000000+00:00</time></trkpt><trkpt lat="43.18507" lon="19.24366"><ele>904.9</ele><time>2012-04-29T11:52:50.0000000+00:00</time></trkpt><trkpt lat="43.18507" lon="19.24366"><ele>904.9</ele><time>2012-04-29T11:52:55.0000000+00:00</time></trkpt><trkpt lat="43.185074" lon="19.24366"><ele>904.9</ele><time>2012-04-29T11:53:00.0000000+00:00</time></trkpt><trkpt lat="43.185074" lon="19.24366"><ele>904.8</ele><time>2012-04-29T11:53:05.0000000+00:00</time></trkpt><trkpt lat="43.185074" lon="19.24366"><ele>904.8</ele><time>2012-04-29T11:53:10.0000000+00:00</time></trkpt><trkpt lat="43.185074" lon="19.243658"><ele>904.8</ele><time>2012-04-29T11:53:15.0000000+00:00</time></trkpt><trkpt lat="43.185074" lon="19.243658"><ele>904.7</ele><time>2012-04-29T11:53:20.0000000+00:00</time></trkpt><trkpt lat="43.185074" lon="19.243658"><ele>904.7</ele><time>2012-04-29T11:53:25.0000000+00:00</time></trkpt><trkpt lat="43.185074" lon="19.243658"><ele>904.7</ele><time>2012-04-29T11:53:30.0000000+00:00</time></trkpt><trkpt lat="43.185074" lon="19.243658"><ele>904.7</ele><time>2012-04-29T11:53:35.0000000+00:00</time></trkpt><trkpt lat="43.185074" lon="19.243658"><ele>904.7</ele><time>2012-04-29T11:53:40.0000000+00:00</time></trkpt><trkpt lat="43.185074" lon="19.243658"><ele>904.7</ele><time>2012-04-29T11:53:45.0000000+00:00</time></trkpt><trkpt lat="43.185074" lon="19.243658"><ele>904.7</ele><time>2012-04-29T11:53:50.0000000+00:00</time></trkpt><trkpt lat="43.185074" lon="19.243658"><ele>904.6</ele><time>2012-04-29T11:53:55.0000000+00:00</time></trkpt><trkpt lat="43.185074" lon="19.243658"><ele>904.6</ele><time>2012-04-29T11:54:00.0000000+00:00</time></trkpt><trkpt lat="43.185074" lon="19.243658"><ele>904.5</ele><time>2012-04-29T11:54:05.0000000+00:00</time></trkpt><trkpt lat="43.185074" lon="19.243658"><ele>904.5</ele><time>2012-04-29T11:54:10.0000000+00:00</time></trkpt><trkpt lat="43.185074" lon="19.243658"><ele>904.5</ele><time>2012-04-29T11:54:15.0000000+00:00</time></trkpt><trkpt lat="43.185074" lon="19.243656"><ele>904.5</ele><time>2012-04-29T11:54:20.0000000+00:00</time></trkpt><trkpt lat="43.185078" lon="19.243656"><ele>904.4</ele><time>2012-04-29T11:54:25.0000000+00:00</time></trkpt><trkpt lat="43.185078" lon="19.243656"><ele>904.4</ele><time>2012-04-29T11:54:30.0000000+00:00</time></trkpt><trkpt lat="43.185078" lon="19.243656"><ele>904.4</ele><time>2012-04-29T11:54:35.0000000+00:00</time></trkpt><trkpt lat="43.185078" lon="19.243654"><ele>904.4</ele><time>2012-04-29T11:54:40.0000000+00:00</time></trkpt><trkpt lat="43.185078" lon="19.243654"><ele>904.3</ele><time>2012-04-29T11:54:45.0000000+00:00</time></trkpt><trkpt lat="43.185078" lon="19.243654"><ele>904.3</ele><time>2012-04-29T11:54:50.0000000+00:00</time></trkpt><trkpt lat="43.185078" lon="19.243654"><ele>904.2</ele><time>2012-04-29T11:54:55.0000000+00:00</time></trkpt><trkpt lat="43.185078" lon="19.243654"><ele>904.2</ele><time>2012-04-29T11:55:00.0000000+00:00</time></trkpt><trkpt lat="43.185078" lon="19.243654"><ele>904.2</ele><time>2012-04-29T11:55:05.0000000+00:00</time></trkpt><trkpt lat="43.185078" lon="19.243652"><ele>904.1</ele><time>2012-04-29T11:55:10.0000000+00:00</time></trkpt><trkpt lat="43.185078" lon="19.243652"><ele>904.1</ele><time>2012-04-29T11:55:15.0000000+00:00</time></trkpt><trkpt lat="43.185078" lon="19.243652"><ele>904.0</ele><time>2012-04-29T11:55:20.0000000+00:00</time></trkpt><trkpt lat="43.185078" lon="19.243652"><ele>904.0</ele><time>2012-04-29T11:55:25.0000000+00:00</time></trkpt><trkpt lat="43.185078" lon="19.243652"><ele>904.0</ele><time>2012-04-29T11:55:30.0000000+00:00</time></trkpt><trkpt lat="43.185078" lon="19.243652"><ele>903.9</ele><time>2012-04-29T11:55:35.0000000+00:00</time></trkpt><trkpt lat="43.185078" lon="19.243652"><ele>903.9</ele><time>2012-04-29T11:55:40.0000000+00:00</time></trkpt><trkpt lat="43.185078" lon="19.243652"><ele>903.8</ele><time>2012-04-29T11:55:45.0000000+00:00</time></trkpt><trkpt lat="43.185078" lon="19.24365"><ele>903.8</ele><time>2012-04-29T11:55:50.0000000+00:00</time></trkpt><trkpt lat="43.185078" lon="19.24365"><ele>903.7</ele><time>2012-04-29T11:55:55.0000000+00:00</time></trkpt><trkpt lat="43.185078" lon="19.24365"><ele>903.7</ele><time>2012-04-29T11:56:00.0000000+00:00</time></trkpt><trkpt lat="43.185078" lon="19.24365"><ele>903.6</ele><time>2012-04-29T11:56:05.0000000+00:00</time></trkpt><trkpt lat="43.185078" lon="19.24365"><ele>903.6</ele><time>2012-04-29T11:56:10.0000000+00:00</time></trkpt><trkpt lat="43.185078" lon="19.243649"><ele>903.6</ele><time>2012-04-29T11:56:15.0000000+00:00</time></trkpt><trkpt lat="43.185078" lon="19.243649"><ele>903.6</ele><time>2012-04-29T11:56:20.0000000+00:00</time></trkpt><trkpt lat="43.185078" lon="19.243649"><ele>903.5</ele><time>2012-04-29T11:56:25.0000000+00:00</time></trkpt><trkpt lat="43.185078" lon="19.243649"><ele>903.5</ele><time>2012-04-29T11:56:30.0000000+00:00</time></trkpt><trkpt lat="43.185078" lon="19.243649"><ele>903.5</ele><time>2012-04-29T11:56:35.0000000+00:00</time></trkpt><trkpt lat="43.185078" lon="19.243649"><ele>903.4</ele><time>2012-04-29T11:56:40.0000000+00:00</time></trkpt><trkpt lat="43.185078" lon="19.243649"><ele>903.4</ele><time>2012-04-29T11:56:45.0000000+00:00</time></trkpt><trkpt lat="43.185078" lon="19.243649"><ele>903.4</ele><time>2012-04-29T11:56:50.0000000+00:00</time></trkpt><trkpt lat="43.185078" lon="19.243649"><ele>903.3</ele><time>2012-04-29T11:56:55.0000000+00:00</time></trkpt><trkpt lat="43.185078" lon="19.243649"><ele>903.3</ele><time>2012-04-29T11:57:00.0000000+00:00</time></trkpt><trkpt lat="43.185078" lon="19.243647"><ele>903.2</ele><time>2012-04-29T11:57:05.0000000+00:00</time></trkpt><trkpt lat="43.185078" lon="19.243647"><ele>903.2</ele><time>2012-04-29T11:57:10.0000000+00:00</time></trkpt><trkpt lat="43.185078" lon="19.243647"><ele>903.1</ele><time>2012-04-29T11:57:15.0000000+00:00</time></trkpt><trkpt lat="43.185078" lon="19.243647"><ele>903.1</ele><time>2012-04-29T11:57:20.0000000+00:00</time></trkpt><trkpt lat="43.185078" lon="19.243647"><ele>903.1</ele><time>2012-04-29T11:57:25.0000000+00:00</time></trkpt><trkpt lat="43.185078" lon="19.243647"><ele>903.1</ele><time>2012-04-29T11:57:30.0000000+00:00</time></trkpt><trkpt lat="43.185078" lon="19.243647"><ele>903.1</ele><time>2012-04-29T11:57:35.0000000+00:00</time></trkpt><trkpt lat="43.185078" lon="19.243647"><ele>903.0</ele><time>2012-04-29T11:57:40.0000000+00:00</time></trkpt><trkpt lat="43.185078" lon="19.243647"><ele>903.0</ele><time>2012-04-29T11:57:45.0000000+00:00</time></trkpt><trkpt lat="43.185078" lon="19.243647"><ele>903.0</ele><time>2012-04-29T11:57:50.0000000+00:00</time></trkpt><trkpt lat="43.185078" lon="19.243645"><ele>902.9</ele><time>2012-04-29T11:57:55.0000000+00:00</time></trkpt><trkpt lat="43.185078" lon="19.243645"><ele>902.9</ele><time>2012-04-29T11:58:00.0000000+00:00</time></trkpt><trkpt lat="43.185078" lon="19.243645"><ele>902.9</ele><time>2012-04-29T11:58:05.0000000+00:00</time></trkpt><trkpt lat="43.185078" lon="19.243645"><ele>902.9</ele><time>2012-04-29T11:58:10.0000000+00:00</time></trkpt><trkpt lat="43.185078" lon="19.243645"><ele>902.9</ele><time>2012-04-29T11:58:15.0000000+00:00</time></trkpt><trkpt lat="43.185078" lon="19.243645"><ele>903.0</ele><time>2012-04-29T11:58:20.0000000+00:00</time></trkpt><trkpt lat="43.185078" lon="19.243645"><ele>902.9</ele><time>2012-04-29T11:58:25.0000000+00:00</time></trkpt><trkpt lat="43.185078" lon="19.243645"><ele>903.0</ele><time>2012-04-29T11:58:30.0000000+00:00</time></trkpt><trkpt lat="43.185078" lon="19.243643"><ele>903.0</ele><time>2012-04-29T11:58:35.0000000+00:00</time></trkpt><trkpt lat="43.185078" lon="19.243643"><ele>903.0</ele><time>2012-04-29T11:58:40.0000000+00:00</time></trkpt><trkpt lat="43.185078" lon="19.243643"><ele>902.9</ele><time>2012-04-29T11:58:45.0000000+00:00</time></trkpt><trkpt lat="43.185078" lon="19.243643"><ele>902.9</ele><time>2012-04-29T11:58:50.0000000+00:00</time></trkpt><trkpt lat="43.185078" lon="19.243643"><ele>902.9</ele><time>2012-04-29T11:58:55.0000000+00:00</time></trkpt><trkpt lat="43.185078" lon="19.243643"><ele>902.9</ele><time>2012-04-29T11:59:00.0000000+00:00</time></trkpt><trkpt lat="43.185078" lon="19.243643"><ele>902.9</ele><time>2012-04-29T11:59:05.0000000+00:00</time></trkpt><trkpt lat="43.185078" lon="19.243641"><ele>902.9</ele><time>2012-04-29T11:59:10.0000000+00:00</time></trkpt><trkpt lat="43.185078" lon="19.243641"><ele>902.9</ele><time>2012-04-29T11:59:15.0000000+00:00</time></trkpt><trkpt lat="43.185078" lon="19.243641"><ele>902.8</ele><time>2012-04-29T11:59:20.0000000+00:00</time></trkpt><trkpt lat="43.185078" lon="19.243641"><ele>902.9</ele><time>2012-04-29T11:59:25.0000000+00:00</time></trkpt><trkpt lat="43.185078" lon="19.243641"><ele>902.9</ele><time>2012-04-29T11:59:30.0000000+00:00</time></trkpt><trkpt lat="43.185078" lon="19.243641"><ele>902.9</ele><time>2012-04-29T11:59:35.0000000+00:00</time></trkpt><trkpt lat="43.185078" lon="19.243641"><ele>902.9</ele><time>2012-04-29T11:59:40.0000000+00:00</time></trkpt><trkpt lat="43.185078" lon="19.243641"><ele>902.9</ele><time>2012-04-29T11:59:45.0000000+00:00</time></trkpt><trkpt lat="43.185078" lon="19.243641"><ele>902.8</ele><time>2012-04-29T11:59:50.0000000+00:00</time></trkpt><trkpt lat="43.185078" lon="19.243641"><ele>902.8</ele><time>2012-04-29T11:59:55.0000000+00:00</time></trkpt><trkpt lat="43.185078" lon="19.243641"><ele>902.8</ele><time>2012-04-29T12:00:00.0000000+00:00</time></trkpt><trkpt lat="43.185078" lon="19.243641"><ele>902.8</ele><time>2012-04-29T12:00:05.0000000+00:00</time></trkpt><trkpt lat="43.185078" lon="19.243641"><ele>902.7</ele><time>2012-04-29T12:00:10.0000000+00:00</time></trkpt><trkpt lat="43.185078" lon="19.243641"><ele>902.7</ele><time>2012-04-29T12:00:15.0000000+00:00</time></trkpt><trkpt lat="43.185078" lon="19.243641"><ele>902.7</ele><time>2012-04-29T12:00:20.0000000+00:00</time></trkpt><trkpt lat="43.185078" lon="19.243641"><ele>902.7</ele><time>2012-04-29T12:00:25.0000000+00:00</time></trkpt><trkpt lat="43.185078" lon="19.243641"><ele>902.7</ele><time>2012-04-29T12:00:30.0000000+00:00</time></trkpt><trkpt lat="43.185078" lon="19.243641"><ele>902.7</ele><time>2012-04-29T12:00:35.0000000+00:00</time></trkpt><trkpt lat="43.185078" lon="19.243641"><ele>902.6</ele><time>2012-04-29T12:00:40.0000000+00:00</time></trkpt><trkpt lat="43.185078" lon="19.243639"><ele>902.6</ele><time>2012-04-29T12:00:45.0000000+00:00</time></trkpt><trkpt lat="43.185078" lon="19.243639"><ele>902.6</ele><time>2012-04-29T12:00:50.0000000+00:00</time></trkpt><trkpt lat="43.185078" lon="19.243639"><ele>902.6</ele><time>2012-04-29T12:00:55.0000000+00:00</time></trkpt><trkpt lat="43.185078" lon="19.243639"><ele>902.7</ele><time>2012-04-29T12:01:00.0000000+00:00</time></trkpt><trkpt lat="43.185078" lon="19.243639"><ele>902.7</ele><time>2012-04-29T12:01:05.0000000+00:00</time></trkpt><trkpt lat="43.185078" lon="19.243641"><ele>902.7</ele><time>2012-04-29T12:01:10.0000000+00:00</time></trkpt><trkpt lat="43.185078" lon="19.243641"><ele>902.6</ele><time>2012-04-29T12:01:15.0000000+00:00</time></trkpt><trkpt lat="43.185078" lon="19.243641"><ele>902.6</ele><time>2012-04-29T12:01:20.0000000+00:00</time></trkpt><trkpt lat="43.185078" lon="19.243641"><ele>902.6</ele><time>2012-04-29T12:01:25.0000000+00:00</time></trkpt><trkpt lat="43.185078" lon="19.243641"><ele>902.6</ele><time>2012-04-29T12:01:30.0000000+00:00</time></trkpt><trkpt lat="43.185078" lon="19.243643"><ele>902.7</ele><time>2012-04-29T12:01:35.0000000+00:00</time></trkpt><trkpt lat="43.185078" lon="19.243643"><ele>902.7</ele><time>2012-04-29T12:01:40.0000000+00:00</time></trkpt><trkpt lat="43.185078" lon="19.243643"><ele>902.7</ele><time>2012-04-29T12:01:45.0000000+00:00</time></trkpt><trkpt lat="43.185078" lon="19.243643"><ele>902.8</ele><time>2012-04-29T12:01:50.0000000+00:00</time></trkpt><trkpt lat="43.185078" lon="19.243645"><ele>902.8</ele><time>2012-04-29T12:01:55.0000000+00:00</time></trkpt><trkpt lat="43.185078" lon="19.243645"><ele>902.8</ele><time>2012-04-29T12:02:00.0000000+00:00</time></trkpt><trkpt lat="43.185078" lon="19.243645"><ele>902.7</ele><time>2012-04-29T12:02:05.0000000+00:00</time></trkpt><trkpt lat="43.185078" lon="19.243645"><ele>902.7</ele><time>2012-04-29T12:02:10.0000000+00:00</time></trkpt><trkpt lat="43.185078" lon="19.243645"><ele>902.7</ele><time>2012-04-29T12:02:15.0000000+00:00</time></trkpt><trkpt lat="43.185078" lon="19.243645"><ele>902.7</ele><time>2012-04-29T12:02:20.0000000+00:00</time></trkpt><trkpt lat="43.185078" lon="19.243645"><ele>902.7</ele><time>2012-04-29T12:02:25.0000000+00:00</time></trkpt><trkpt lat="43.185078" lon="19.243645"><ele>902.6</ele><time>2012-04-29T12:02:30.0000000+00:00</time></trkpt><trkpt lat="43.185078" lon="19.243647"><ele>902.6</ele><time>2012-04-29T12:02:35.0000000+00:00</time></trkpt><trkpt lat="43.185078" lon="19.243647"><ele>902.6</ele><time>2012-04-29T12:02:40.0000000+00:00</time></trkpt><trkpt lat="43.185078" lon="19.243647"><ele>902.6</ele><time>2012-04-29T12:02:45.0000000+00:00</time></trkpt><trkpt lat="43.185078" lon="19.243647"><ele>902.6</ele><time>2012-04-29T12:02:50.0000000+00:00</time></trkpt><trkpt lat="43.185078" lon="19.243647"><ele>902.5</ele><time>2012-04-29T12:02:55.0000000+00:00</time></trkpt><trkpt lat="43.185078" lon="19.243647"><ele>902.5</ele><time>2012-04-29T12:03:00.0000000+00:00</time></trkpt><trkpt lat="43.185078" lon="19.243649"><ele>902.5</ele><time>2012-04-29T12:03:05.0000000+00:00</time></trkpt><trkpt lat="43.185078" lon="19.243649"><ele>902.5</ele><time>2012-04-29T12:03:10.0000000+00:00</time></trkpt><trkpt lat="43.185078" lon="19.243647"><ele>902.4</ele><time>2012-04-29T12:03:15.0000000+00:00</time></trkpt><trkpt lat="43.185078" lon="19.243647"><ele>902.4</ele><time>2012-04-29T12:03:20.0000000+00:00</time></trkpt><trkpt lat="43.185078" lon="19.243647"><ele>902.4</ele><time>2012-04-29T12:03:25.0000000+00:00</time></trkpt><trkpt lat="43.185078" lon="19.243647"><ele>902.4</ele><time>2012-04-29T12:03:30.0000000+00:00</time></trkpt><trkpt lat="43.185078" lon="19.243647"><ele>902.4</ele><time>2012-04-29T12:03:35.0000000+00:00</time></trkpt><trkpt lat="43.185078" lon="19.243647"><ele>902.4</ele><time>2012-04-29T12:03:40.0000000+00:00</time></trkpt><trkpt lat="43.185078" lon="19.243647"><ele>902.4</ele><time>2012-04-29T12:03:45.0000000+00:00</time></trkpt><trkpt lat="43.185078" lon="19.243647"><ele>902.4</ele><time>2012-04-29T12:03:50.0000000+00:00</time></trkpt><trkpt lat="43.185078" lon="19.243647"><ele>902.4</ele><time>2012-04-29T12:03:55.0000000+00:00</time></trkpt><trkpt lat="43.185078" lon="19.243647"><ele>902.4</ele><time>2012-04-29T12:04:00.0000000+00:00</time></trkpt><trkpt lat="43.185078" lon="19.243647"><ele>902.4</ele><time>2012-04-29T12:04:05.0000000+00:00</time></trkpt><trkpt lat="43.185078" lon="19.243647"><ele>902.5</ele><time>2012-04-29T12:04:10.0000000+00:00</time></trkpt><trkpt lat="43.185078" lon="19.243647"><ele>902.5</ele><time>2012-04-29T12:04:15.0000000+00:00</time></trkpt><trkpt lat="43.185078" lon="19.243647"><ele>902.5</ele><time>2012-04-29T12:04:20.0000000+00:00</time></trkpt><trkpt lat="43.185078" lon="19.243647"><ele>902.5</ele><time>2012-04-29T12:04:25.0000000+00:00</time></trkpt><trkpt lat="43.185078" lon="19.243647"><ele>902.5</ele><time>2012-04-29T12:04:30.0000000+00:00</time></trkpt><trkpt lat="43.185078" lon="19.243647"><ele>902.5</ele><time>2012-04-29T12:04:35.0000000+00:00</time></trkpt><trkpt lat="43.185078" lon="19.243647"><ele>902.6</ele><time>2012-04-29T12:04:40.0000000+00:00</time></trkpt><trkpt lat="43.185078" lon="19.243647"><ele>902.6</ele><time>2012-04-29T12:04:45.0000000+00:00</time></trkpt><trkpt lat="43.185078" lon="19.243647"><ele>902.6</ele><time>2012-04-29T12:04:50.0000000+00:00</time></trkpt><trkpt lat="43.185078" lon="19.243647"><ele>902.6</ele><time>2012-04-29T12:04:55.0000000+00:00</time></trkpt><trkpt lat="43.185078" lon="19.243647"><ele>902.7</ele><time>2012-04-29T12:05:00.0000000+00:00</time></trkpt><trkpt lat="43.185078" lon="19.243647"><ele>902.7</ele><time>2012-04-29T12:05:05.0000000+00:00</time></trkpt><trkpt lat="43.185078" lon="19.243649"><ele>902.7</ele><time>2012-04-29T12:05:10.0000000+00:00</time></trkpt><trkpt lat="43.185078" lon="19.243649"><ele>902.7</ele><time>2012-04-29T12:05:15.0000000+00:00</time></trkpt><trkpt lat="43.185078" lon="19.243649"><ele>902.7</ele><time>2012-04-29T12:05:20.0000000+00:00</time></trkpt><trkpt lat="43.185078" lon="19.243649"><ele>902.7</ele><time>2012-04-29T12:05:25.0000000+00:00</time></trkpt><trkpt lat="43.185078" lon="19.243649"><ele>902.7</ele><time>2012-04-29T12:05:30.0000000+00:00</time></trkpt><trkpt lat="43.185078" lon="19.243649"><ele>902.8</ele><time>2012-04-29T12:05:35.0000000+00:00</time></trkpt><trkpt lat="43.185078" lon="19.24365"><ele>902.8</ele><time>2012-04-29T12:05:40.0000000+00:00</time></trkpt><trkpt lat="43.185078" lon="19.24365"><ele>902.8</ele><time>2012-04-29T12:05:45.0000000+00:00</time></trkpt><trkpt lat="43.185078" lon="19.24365"><ele>902.9</ele><time>2012-04-29T12:05:50.0000000+00:00</time></trkpt><trkpt lat="43.185078" lon="19.24365"><ele>902.9</ele><time>2012-04-29T12:05:55.0000000+00:00</time></trkpt><trkpt lat="43.185078" lon="19.24365"><ele>902.9</ele><time>2012-04-29T12:06:00.0000000+00:00</time></trkpt><trkpt lat="43.185078" lon="19.24365"><ele>902.9</ele><time>2012-04-29T12:06:05.0000000+00:00</time></trkpt><trkpt lat="43.185078" lon="19.243652"><ele>903.0</ele><time>2012-04-29T12:06:10.0000000+00:00</time></trkpt><trkpt lat="43.185078" lon="19.243652"><ele>903.0</ele><time>2012-04-29T12:06:15.0000000+00:00</time></trkpt><trkpt lat="43.185078" lon="19.243654"><ele>903.1</ele><time>2012-04-29T12:06:20.0000000+00:00</time></trkpt><trkpt lat="43.185078" lon="19.243654"><ele>903.1</ele><time>2012-04-29T12:06:25.0000000+00:00</time></trkpt><trkpt lat="43.185081" lon="19.243654"><ele>903.1</ele><time>2012-04-29T12:06:30.0000000+00:00</time></trkpt><trkpt lat="43.185081" lon="19.243654"><ele>903.2</ele><time>2012-04-29T12:06:35.0000000+00:00</time></trkpt><trkpt lat="43.185081" lon="19.243656"><ele>903.2</ele><time>2012-04-29T12:06:40.0000000+00:00</time></trkpt><trkpt lat="43.185081" lon="19.243656"><ele>903.2</ele><time>2012-04-29T12:06:45.0000000+00:00</time></trkpt><trkpt lat="43.185081" lon="19.243656"><ele>903.2</ele><time>2012-04-29T12:06:50.0000000+00:00</time></trkpt><trkpt lat="43.185081" lon="19.243658"><ele>903.3</ele><time>2012-04-29T12:06:55.0000000+00:00</time></trkpt><trkpt lat="43.185081" lon="19.243658"><ele>903.3</ele><time>2012-04-29T12:07:00.0000000+00:00</time></trkpt><trkpt lat="43.185081" lon="19.243658"><ele>903.3</ele><time>2012-04-29T12:07:05.0000000+00:00</time></trkpt><trkpt lat="43.185081" lon="19.243658"><ele>903.4</ele><time>2012-04-29T12:07:10.0000000+00:00</time></trkpt><trkpt lat="43.185081" lon="19.24366"><ele>903.4</ele><time>2012-04-29T12:07:15.0000000+00:00</time></trkpt><trkpt lat="43.185081" lon="19.24366"><ele>903.4</ele><time>2012-04-29T12:07:20.0000000+00:00</time></trkpt><trkpt lat="43.185081" lon="19.24366"><ele>903.4</ele><time>2012-04-29T12:07:25.0000000+00:00</time></trkpt><trkpt lat="43.185081" lon="19.24366"><ele>903.4</ele><time>2012-04-29T12:07:30.0000000+00:00</time></trkpt><trkpt lat="43.185081" lon="19.24366"><ele>903.4</ele><time>2012-04-29T12:07:35.0000000+00:00</time></trkpt><trkpt lat="43.185081" lon="19.243662"><ele>903.5</ele><time>2012-04-29T12:07:40.0000000+00:00</time></trkpt><trkpt lat="43.185081" lon="19.243662"><ele>903.5</ele><time>2012-04-29T12:07:45.0000000+00:00</time></trkpt><trkpt lat="43.185081" lon="19.243662"><ele>903.6</ele><time>2012-04-29T12:07:50.0000000+00:00</time></trkpt><trkpt lat="43.185081" lon="19.243664"><ele>903.6</ele><time>2012-04-29T12:07:55.0000000+00:00</time></trkpt><trkpt lat="43.185081" lon="19.243664"><ele>903.6</ele><time>2012-04-29T12:08:00.0000000+00:00</time></trkpt><trkpt lat="43.185081" lon="19.243664"><ele>903.6</ele><time>2012-04-29T12:08:05.0000000+00:00</time></trkpt><trkpt lat="43.185081" lon="19.243664"><ele>903.7</ele><time>2012-04-29T12:08:10.0000000+00:00</time></trkpt><trkpt lat="43.185081" lon="19.243666"><ele>903.7</ele><time>2012-04-29T12:08:15.0000000+00:00</time></trkpt><trkpt lat="43.185081" lon="19.243666"><ele>903.7</ele><time>2012-04-29T12:08:20.0000000+00:00</time></trkpt><trkpt lat="43.185081" lon="19.243666"><ele>903.7</ele><time>2012-04-29T12:08:25.0000000+00:00</time></trkpt><trkpt lat="43.185081" lon="19.243666"><ele>903.7</ele><time>2012-04-29T12:08:30.0000000+00:00</time></trkpt><trkpt lat="43.185081" lon="19.243666"><ele>903.8</ele><time>2012-04-29T12:08:35.0000000+00:00</time></trkpt><trkpt lat="43.185081" lon="19.243666"><ele>903.8</ele><time>2012-04-29T12:08:40.0000000+00:00</time></trkpt><trkpt lat="43.185081" lon="19.243666"><ele>903.8</ele><time>2012-04-29T12:08:45.0000000+00:00</time></trkpt><trkpt lat="43.185081" lon="19.243666"><ele>903.8</ele><time>2012-04-29T12:08:50.0000000+00:00</time></trkpt><trkpt lat="43.185081" lon="19.243666"><ele>903.8</ele><time>2012-04-29T12:08:55.0000000+00:00</time></trkpt><trkpt lat="43.185081" lon="19.243666"><ele>903.8</ele><time>2012-04-29T12:09:00.0000000+00:00</time></trkpt><trkpt lat="43.185081" lon="19.243666"><ele>903.8</ele><time>2012-04-29T12:09:05.0000000+00:00</time></trkpt><trkpt lat="43.185081" lon="19.243666"><ele>903.8</ele><time>2012-04-29T12:09:10.0000000+00:00</time></trkpt><trkpt lat="43.185081" lon="19.243666"><ele>903.8</ele><time>2012-04-29T12:09:15.0000000+00:00</time></trkpt><trkpt lat="43.185081" lon="19.243666"><ele>903.8</ele><time>2012-04-29T12:09:20.0000000+00:00</time></trkpt><trkpt lat="43.185081" lon="19.243666"><ele>903.8</ele><time>2012-04-29T12:09:25.0000000+00:00</time></trkpt><trkpt lat="43.185081" lon="19.243666"><ele>903.8</ele><time>2012-04-29T12:09:30.0000000+00:00</time></trkpt><trkpt lat="43.185081" lon="19.243666"><ele>903.8</ele><time>2012-04-29T12:09:35.0000000+00:00</time></trkpt><trkpt lat="43.185081" lon="19.243666"><ele>903.8</ele><time>2012-04-29T12:09:40.0000000+00:00</time></trkpt><trkpt lat="43.185081" lon="19.243666"><ele>903.8</ele><time>2012-04-29T12:09:45.0000000+00:00</time></trkpt><trkpt lat="43.185081" lon="19.243666"><ele>903.8</ele><time>2012-04-29T12:09:50.0000000+00:00</time></trkpt><trkpt lat="43.185081" lon="19.243668"><ele>903.9</ele><time>2012-04-29T12:09:55.0000000+00:00</time></trkpt><trkpt lat="43.185081" lon="19.243668"><ele>903.9</ele><time>2012-04-29T12:10:00.0000000+00:00</time></trkpt><trkpt lat="43.185081" lon="19.243666"><ele>903.9</ele><time>2012-04-29T12:10:05.0000000+00:00</time></trkpt><trkpt lat="43.185081" lon="19.243666"><ele>903.9</ele><time>2012-04-29T12:10:10.0000000+00:00</time></trkpt><trkpt lat="43.185081" lon="19.243666"><ele>903.9</ele><time>2012-04-29T12:10:15.0000000+00:00</time></trkpt><trkpt lat="43.185081" lon="19.243668"><ele>903.9</ele><time>2012-04-29T12:10:20.0000000+00:00</time></trkpt><trkpt lat="43.185081" lon="19.243668"><ele>903.9</ele><time>2012-04-29T12:10:25.0000000+00:00</time></trkpt><trkpt lat="43.185081" lon="19.243668"><ele>903.9</ele><time>2012-04-29T12:10:30.0000000+00:00</time></trkpt><trkpt lat="43.185081" lon="19.243668"><ele>903.9</ele><time>2012-04-29T12:10:35.0000000+00:00</time></trkpt><trkpt lat="43.185081" lon="19.243668"><ele>903.9</ele><time>2012-04-29T12:10:40.0000000+00:00</time></trkpt><trkpt lat="43.185081" lon="19.243668"><ele>903.9</ele><time>2012-04-29T12:10:45.0000000+00:00</time></trkpt><trkpt lat="43.185081" lon="19.243668"><ele>903.9</ele><time>2012-04-29T12:10:50.0000000+00:00</time></trkpt><trkpt lat="43.185081" lon="19.243668"><ele>903.9</ele><time>2012-04-29T12:10:55.0000000+00:00</time></trkpt><trkpt lat="43.185081" lon="19.243668"><ele>904.0</ele><time>2012-04-29T12:11:00.0000000+00:00</time></trkpt><trkpt lat="43.185081" lon="19.243668"><ele>904.0</ele><time>2012-04-29T12:11:05.0000000+00:00</time></trkpt><trkpt lat="43.185081" lon="19.243668"><ele>904.0</ele><time>2012-04-29T12:11:10.0000000+00:00</time></trkpt><trkpt lat="43.185081" lon="19.243668"><ele>904.0</ele><time>2012-04-29T12:11:15.0000000+00:00</time></trkpt><trkpt lat="43.185081" lon="19.243668"><ele>904.0</ele><time>2012-04-29T12:11:20.0000000+00:00</time></trkpt><trkpt lat="43.185081" lon="19.243668"><ele>904.0</ele><time>2012-04-29T12:11:25.0000000+00:00</time></trkpt><trkpt lat="43.185081" lon="19.243668"><ele>904.0</ele><time>2012-04-29T12:11:30.0000000+00:00</time></trkpt><trkpt lat="43.185081" lon="19.243668"><ele>904.0</ele><time>2012-04-29T12:11:35.0000000+00:00</time></trkpt><trkpt lat="43.185081" lon="19.243668"><ele>904.0</ele><time>2012-04-29T12:11:40.0000000+00:00</time></trkpt><trkpt lat="43.185081" lon="19.243668"><ele>904.0</ele><time>2012-04-29T12:11:45.0000000+00:00</time></trkpt><trkpt lat="43.185081" lon="19.243668"><ele>904.0</ele><time>2012-04-29T12:11:50.0000000+00:00</time></trkpt><trkpt lat="43.185081" lon="19.243668"><ele>904.0</ele><time>2012-04-29T12:11:55.0000000+00:00</time></trkpt><trkpt lat="43.185081" lon="19.243668"><ele>904.0</ele><time>2012-04-29T12:12:00.0000000+00:00</time></trkpt><trkpt lat="43.185081" lon="19.243668"><ele>904.0</ele><time>2012-04-29T12:12:05.0000000+00:00</time></trkpt><trkpt lat="43.185081" lon="19.243666"><ele>904.0</ele><time>2012-04-29T12:12:10.0000000+00:00</time></trkpt><trkpt lat="43.185081" lon="19.243666"><ele>904.0</ele><time>2012-04-29T12:12:15.0000000+00:00</time></trkpt><trkpt lat="43.185081" lon="19.243666"><ele>904.0</ele><time>2012-04-29T12:12:20.0000000+00:00</time></trkpt><trkpt lat="43.185081" lon="19.243666"><ele>904.0</ele><time>2012-04-29T12:12:25.0000000+00:00</time></trkpt><trkpt lat="43.185081" lon="19.243668"><ele>904.0</ele><time>2012-04-29T12:12:30.0000000+00:00</time></trkpt><trkpt lat="43.185081" lon="19.243668"><ele>904.1</ele><time>2012-04-29T12:12:35.0000000+00:00</time></trkpt><trkpt lat="43.185081" lon="19.243668"><ele>904.1</ele><time>2012-04-29T12:12:40.0000000+00:00</time></trkpt><trkpt lat="43.185081" lon="19.243668"><ele>904.1</ele><time>2012-04-29T12:12:45.0000000+00:00</time></trkpt><trkpt lat="43.185081" lon="19.243668"><ele>904.1</ele><time>2012-04-29T12:12:50.0000000+00:00</time></trkpt><trkpt lat="43.185081" lon="19.243668"><ele>904.1</ele><time>2012-04-29T12:12:55.0000000+00:00</time></trkpt><trkpt lat="43.185081" lon="19.243668"><ele>904.1</ele><time>2012-04-29T12:13:00.0000000+00:00</time></trkpt><trkpt lat="43.185081" lon="19.243668"><ele>904.1</ele><time>2012-04-29T12:13:05.0000000+00:00</time></trkpt><trkpt lat="43.185081" lon="19.243668"><ele>904.1</ele><time>2012-04-29T12:13:10.0000000+00:00</time></trkpt><trkpt lat="43.185081" lon="19.243668"><ele>904.1</ele><time>2012-04-29T12:13:15.0000000+00:00</time></trkpt><trkpt lat="43.185081" lon="19.243668"><ele>904.1</ele><time>2012-04-29T12:13:20.0000000+00:00</time></trkpt><trkpt lat="43.185081" lon="19.243668"><ele>904.1</ele><time>2012-04-29T12:13:25.0000000+00:00</time></trkpt><trkpt lat="43.185081" lon="19.243668"><ele>904.1</ele><time>2012-04-29T12:13:30.0000000+00:00</time></trkpt><trkpt lat="43.185081" lon="19.243668"><ele>904.2</ele><time>2012-04-29T12:13:35.0000000+00:00</time></trkpt><trkpt lat="43.185081" lon="19.243668"><ele>904.2</ele><time>2012-04-29T12:13:40.0000000+00:00</time></trkpt><trkpt lat="43.185081" lon="19.243668"><ele>904.2</ele><time>2012-04-29T12:13:45.0000000+00:00</time></trkpt><trkpt lat="43.185081" lon="19.243668"><ele>904.2</ele><time>2012-04-29T12:13:50.0000000+00:00</time></trkpt><trkpt lat="43.185081" lon="19.24367"><ele>904.2</ele><time>2012-04-29T12:13:55.0000000+00:00</time></trkpt><trkpt lat="43.185081" lon="19.24367"><ele>904.2</ele><time>2012-04-29T12:14:00.0000000+00:00</time></trkpt><trkpt lat="43.185081" lon="19.24367"><ele>904.2</ele><time>2012-04-29T12:14:05.0000000+00:00</time></trkpt><trkpt lat="43.185081" lon="19.24367"><ele>904.3</ele><time>2012-04-29T12:14:10.0000000+00:00</time></trkpt><trkpt lat="43.185081" lon="19.24367"><ele>904.3</ele><time>2012-04-29T12:14:15.0000000+00:00</time></trkpt><trkpt lat="43.185081" lon="19.243671"><ele>904.3</ele><time>2012-04-29T12:14:20.0000000+00:00</time></trkpt><trkpt lat="43.185081" lon="19.243671"><ele>904.3</ele><time>2012-04-29T12:14:25.0000000+00:00</time></trkpt><trkpt lat="43.185081" lon="19.243671"><ele>904.3</ele><time>2012-04-29T12:14:30.0000000+00:00</time></trkpt><trkpt lat="43.185081" lon="19.243671"><ele>904.4</ele><time>2012-04-29T12:14:35.0000000+00:00</time></trkpt><trkpt lat="43.185081" lon="19.243671"><ele>904.4</ele><time>2012-04-29T12:14:40.0000000+00:00</time></trkpt><trkpt lat="43.185081" lon="19.243671"><ele>904.4</ele><time>2012-04-29T12:14:45.0000000+00:00</time></trkpt><trkpt lat="43.185081" lon="19.243671"><ele>904.5</ele><time>2012-04-29T12:14:50.0000000+00:00</time></trkpt><trkpt lat="43.185081" lon="19.243671"><ele>904.5</ele><time>2012-04-29T12:14:55.0000000+00:00</time></trkpt><trkpt lat="43.185081" lon="19.243671"><ele>904.5</ele><time>2012-04-29T12:15:00.0000000+00:00</time></trkpt><trkpt lat="43.185081" lon="19.243673"><ele>904.5</ele><time>2012-04-29T12:15:05.0000000+00:00</time></trkpt><trkpt lat="43.185081" lon="19.243673"><ele>904.6</ele><time>2012-04-29T12:15:10.0000000+00:00</time></trkpt><trkpt lat="43.185081" lon="19.243673"><ele>904.6</ele><time>2012-04-29T12:15:15.0000000+00:00</time></trkpt><trkpt lat="43.185081" lon="19.243673"><ele>904.6</ele><time>2012-04-29T12:15:20.0000000+00:00</time></trkpt><trkpt lat="43.185081" lon="19.243673"><ele>904.6</ele><time>2012-04-29T12:15:25.0000000+00:00</time></trkpt><trkpt lat="43.185081" lon="19.243673"><ele>904.6</ele><time>2012-04-29T12:15:30.0000000+00:00</time></trkpt><trkpt lat="43.185081" lon="19.243675"><ele>904.7</ele><time>2012-04-29T12:15:35.0000000+00:00</time></trkpt><trkpt lat="43.185081" lon="19.243675"><ele>904.7</ele><time>2012-04-29T12:15:40.0000000+00:00</time></trkpt><trkpt lat="43.185081" lon="19.243675"><ele>904.7</ele><time>2012-04-29T12:15:45.0000000+00:00</time></trkpt><trkpt lat="43.185081" lon="19.243675"><ele>904.7</ele><time>2012-04-29T12:15:50.0000000+00:00</time></trkpt><trkpt lat="43.185081" lon="19.243675"><ele>904.7</ele><time>2012-04-29T12:15:55.0000000+00:00</time></trkpt><trkpt lat="43.185081" lon="19.243675"><ele>904.8</ele><time>2012-04-29T12:16:00.0000000+00:00</time></trkpt><trkpt lat="43.185081" lon="19.243675"><ele>904.8</ele><time>2012-04-29T12:16:05.0000000+00:00</time></trkpt><trkpt lat="43.185081" lon="19.243675"><ele>904.8</ele><time>2012-04-29T12:16:10.0000000+00:00</time></trkpt><trkpt lat="43.185081" lon="19.243677"><ele>904.9</ele><time>2012-04-29T12:16:15.0000000+00:00</time></trkpt><trkpt lat="43.185081" lon="19.243677"><ele>904.9</ele><time>2012-04-29T12:16:20.0000000+00:00</time></trkpt><trkpt lat="43.185081" lon="19.243677"><ele>904.9</ele><time>2012-04-29T12:16:25.0000000+00:00</time></trkpt><trkpt lat="43.185081" lon="19.243677"><ele>905.0</ele><time>2012-04-29T12:16:30.0000000+00:00</time></trkpt><trkpt lat="43.185081" lon="19.243677"><ele>905.0</ele><time>2012-04-29T12:16:35.0000000+00:00</time></trkpt><trkpt lat="43.185081" lon="19.243677"><ele>905.0</ele><time>2012-04-29T12:16:40.0000000+00:00</time></trkpt><trkpt lat="43.185081" lon="19.243677"><ele>905.1</ele><time>2012-04-29T12:16:45.0000000+00:00</time></trkpt><trkpt lat="43.185081" lon="19.243677"><ele>905.1</ele><time>2012-04-29T12:16:50.0000000+00:00</time></trkpt><trkpt lat="43.185081" lon="19.243677"><ele>905.2</ele><time>2012-04-29T12:16:55.0000000+00:00</time></trkpt><trkpt lat="43.185081" lon="19.243677"><ele>905.2</ele><time>2012-04-29T12:17:00.0000000+00:00</time></trkpt><trkpt lat="43.185081" lon="19.243677"><ele>905.2</ele><time>2012-04-29T12:17:05.0000000+00:00</time></trkpt><trkpt lat="43.185081" lon="19.243677"><ele>905.3</ele><time>2012-04-29T12:17:10.0000000+00:00</time></trkpt><trkpt lat="43.185081" lon="19.243677"><ele>905.3</ele><time>2012-04-29T12:17:15.0000000+00:00</time></trkpt><trkpt lat="43.185081" lon="19.243677"><ele>905.3</ele><time>2012-04-29T12:17:20.0000000+00:00</time></trkpt><trkpt lat="43.185081" lon="19.243677"><ele>905.4</ele><time>2012-04-29T12:17:25.0000000+00:00</time></trkpt><trkpt lat="43.185081" lon="19.243677"><ele>905.4</ele><time>2012-04-29T12:17:30.0000000+00:00</time></trkpt><trkpt lat="43.185081" lon="19.243677"><ele>905.4</ele><time>2012-04-29T12:17:35.0000000+00:00</time></trkpt><trkpt lat="43.185081" lon="19.243677"><ele>905.4</ele><time>2012-04-29T12:17:40.0000000+00:00</time></trkpt><trkpt lat="43.185081" lon="19.243677"><ele>905.5</ele><time>2012-04-29T12:17:45.0000000+00:00</time></trkpt><trkpt lat="43.185081" lon="19.243677"><ele>905.5</ele><time>2012-04-29T12:17:50.0000000+00:00</time></trkpt><trkpt lat="43.185081" lon="19.243679"><ele>905.5</ele><time>2012-04-29T12:17:55.0000000+00:00</time></trkpt><trkpt lat="43.185081" lon="19.243679"><ele>905.6</ele><time>2012-04-29T12:18:00.0000000+00:00</time></trkpt><trkpt lat="43.185081" lon="19.243679"><ele>905.6</ele><time>2012-04-29T12:18:05.0000000+00:00</time></trkpt><trkpt lat="43.185081" lon="19.243679"><ele>905.6</ele><time>2012-04-29T12:18:10.0000000+00:00</time></trkpt><trkpt lat="43.185078" lon="19.243679"><ele>905.6</ele><time>2012-04-29T12:18:15.0000000+00:00</time></trkpt><trkpt lat="43.185081" lon="19.243679"><ele>905.7</ele><time>2012-04-29T12:18:20.0000000+00:00</time></trkpt><trkpt lat="43.185078" lon="19.243679"><ele>905.7</ele><time>2012-04-29T12:18:25.0000000+00:00</time></trkpt><trkpt lat="43.185078" lon="19.243679"><ele>905.7</ele><time>2012-04-29T12:18:30.0000000+00:00</time></trkpt><trkpt lat="43.185078" lon="19.243679"><ele>905.8</ele><time>2012-04-29T12:18:35.0000000+00:00</time></trkpt><trkpt lat="43.185081" lon="19.243679"><ele>905.8</ele><time>2012-04-29T12:18:40.0000000+00:00</time></trkpt><trkpt lat="43.185078" lon="19.243679"><ele>905.8</ele><time>2012-04-29T12:18:45.0000000+00:00</time></trkpt><trkpt lat="43.185078" lon="19.243679"><ele>905.9</ele><time>2012-04-29T12:18:50.0000000+00:00</time></trkpt><trkpt lat="43.185078" lon="19.243679"><ele>905.9</ele><time>2012-04-29T12:18:55.0000000+00:00</time></trkpt><trkpt lat="43.185078" lon="19.243679"><ele>905.9</ele><time>2012-04-29T12:19:00.0000000+00:00</time></trkpt><trkpt lat="43.185078" lon="19.243679"><ele>905.9</ele><time>2012-04-29T12:19:05.0000000+00:00</time></trkpt><trkpt lat="43.185078" lon="19.243679"><ele>906.0</ele><time>2012-04-29T12:19:10.0000000+00:00</time></trkpt><trkpt lat="43.185081" lon="19.243679"><ele>906.0</ele><time>2012-04-29T12:19:15.0000000+00:00</time></trkpt><trkpt lat="43.185081" lon="19.243679"><ele>906.0</ele><time>2012-04-29T12:19:20.0000000+00:00</time></trkpt><trkpt lat="43.185081" lon="19.243679"><ele>906.0</ele><time>2012-04-29T12:19:25.0000000+00:00</time></trkpt><trkpt lat="43.185081" lon="19.243679"><ele>906.1</ele><time>2012-04-29T12:19:30.0000000+00:00</time></trkpt><trkpt lat="43.185081" lon="19.243679"><ele>906.1</ele><time>2012-04-29T12:19:35.0000000+00:00</time></trkpt><trkpt lat="43.185078" lon="19.243679"><ele>906.1</ele><time>2012-04-29T12:19:40.0000000+00:00</time></trkpt><trkpt lat="43.185078" lon="19.243679"><ele>906.1</ele><time>2012-04-29T12:19:45.0000000+00:00</time></trkpt><trkpt lat="43.185078" lon="19.243679"><ele>906.1</ele><time>2012-04-29T12:19:50.0000000+00:00</time></trkpt><trkpt lat="43.185078" lon="19.243679"><ele>906.2</ele><time>2012-04-29T12:19:55.0000000+00:00</time></trkpt><trkpt lat="43.185078" lon="19.243679"><ele>906.2</ele><time>2012-04-29T12:20:00.0000000+00:00</time></trkpt><trkpt lat="43.185078" lon="19.243681"><ele>906.2</ele><time>2012-04-29T12:20:05.0000000+00:00</time></trkpt><trkpt lat="43.185078" lon="19.243681"><ele>906.2</ele><time>2012-04-29T12:20:10.0000000+00:00</time></trkpt><trkpt lat="43.185078" lon="19.243681"><ele>906.3</ele><time>2012-04-29T12:20:15.0000000+00:00</time></trkpt><trkpt lat="43.185078" lon="19.243681"><ele>906.3</ele><time>2012-04-29T12:20:20.0000000+00:00</time></trkpt><trkpt lat="43.185078" lon="19.243681"><ele>906.3</ele><time>2012-04-29T12:20:25.0000000+00:00</time></trkpt><trkpt lat="43.185078" lon="19.243681"><ele>906.3</ele><time>2012-04-29T12:20:30.0000000+00:00</time></trkpt><trkpt lat="43.185078" lon="19.243681"><ele>906.3</ele><time>2012-04-29T12:20:35.0000000+00:00</time></trkpt><trkpt lat="43.185081" lon="19.243681"><ele>906.4</ele><time>2012-04-29T12:20:40.0000000+00:00</time></trkpt><trkpt lat="43.185081" lon="19.243681"><ele>906.4</ele><time>2012-04-29T12:20:45.0000000+00:00</time></trkpt><trkpt lat="43.185081" lon="19.243681"><ele>906.4</ele><time>2012-04-29T12:20:50.0000000+00:00</time></trkpt><trkpt lat="43.185081" lon="19.243681"><ele>906.5</ele><time>2012-04-29T12:20:55.0000000+00:00</time></trkpt><trkpt lat="43.185081" lon="19.243681"><ele>906.5</ele><time>2012-04-29T12:21:00.0000000+00:00</time></trkpt><trkpt lat="43.185081" lon="19.243681"><ele>906.5</ele><time>2012-04-29T12:21:05.0000000+00:00</time></trkpt><trkpt lat="43.185081" lon="19.243681"><ele>906.5</ele><time>2012-04-29T12:21:10.0000000+00:00</time></trkpt><trkpt lat="43.185081" lon="19.243681"><ele>906.6</ele><time>2012-04-29T12:21:15.0000000+00:00</time></trkpt><trkpt lat="43.185078" lon="19.243681"><ele>906.6</ele><time>2012-04-29T12:21:20.0000000+00:00</time></trkpt><trkpt lat="43.185078" lon="19.243681"><ele>906.6</ele><time>2012-04-29T12:21:25.0000000+00:00</time></trkpt><trkpt lat="43.185078" lon="19.243683"><ele>906.6</ele><time>2012-04-29T12:21:30.0000000+00:00</time></trkpt><trkpt lat="43.185078" lon="19.243683"><ele>906.6</ele><time>2012-04-29T12:21:35.0000000+00:00</time></trkpt><trkpt lat="43.185078" lon="19.243683"><ele>906.6</ele><time>2012-04-29T12:21:40.0000000+00:00</time></trkpt><trkpt lat="43.185078" lon="19.243683"><ele>906.6</ele><time>2012-04-29T12:21:45.0000000+00:00</time></trkpt><trkpt lat="43.185078" lon="19.243683"><ele>906.7</ele><time>2012-04-29T12:21:50.0000000+00:00</time></trkpt><trkpt lat="43.185078" lon="19.243683"><ele>906.7</ele><time>2012-04-29T12:21:55.0000000+00:00</time></trkpt><trkpt lat="43.185078" lon="19.243683"><ele>906.7</ele><time>2012-04-29T12:22:00.0000000+00:00</time></trkpt><trkpt lat="43.185078" lon="19.243683"><ele>906.7</ele><time>2012-04-29T12:22:05.0000000+00:00</time></trkpt><trkpt lat="43.185078" lon="19.243683"><ele>906.7</ele><time>2012-04-29T12:22:10.0000000+00:00</time></trkpt><trkpt lat="43.185078" lon="19.243683"><ele>906.7</ele><time>2012-04-29T12:22:15.0000000+00:00</time></trkpt><trkpt lat="43.185078" lon="19.243683"><ele>906.7</ele><time>2012-04-29T12:22:20.0000000+00:00</time></trkpt><trkpt lat="43.185078" lon="19.243685"><ele>906.7</ele><time>2012-04-29T12:22:25.0000000+00:00</time></trkpt><trkpt lat="43.185078" lon="19.243685"><ele>906.8</ele><time>2012-04-29T12:22:30.0000000+00:00</time></trkpt><trkpt lat="43.185078" lon="19.243685"><ele>906.7</ele><time>2012-04-29T12:22:35.0000000+00:00</time></trkpt><trkpt lat="43.185078" lon="19.243685"><ele>906.7</ele><time>2012-04-29T12:22:40.0000000+00:00</time></trkpt><trkpt lat="43.185078" lon="19.243685"><ele>906.7</ele><time>2012-04-29T12:22:45.0000000+00:00</time></trkpt><trkpt lat="43.185078" lon="19.243685"><ele>906.7</ele><time>2012-04-29T12:22:50.0000000+00:00</time></trkpt><trkpt lat="43.185078" lon="19.243685"><ele>906.7</ele><time>2012-04-29T12:22:55.0000000+00:00</time></trkpt><trkpt lat="43.185078" lon="19.243685"><ele>906.7</ele><time>2012-04-29T12:23:00.0000000+00:00</time></trkpt><trkpt lat="43.185078" lon="19.243685"><ele>906.7</ele><time>2012-04-29T12:23:05.0000000+00:00</time></trkpt><trkpt lat="43.185078" lon="19.243685"><ele>906.7</ele><time>2012-04-29T12:23:10.0000000+00:00</time></trkpt><trkpt lat="43.185078" lon="19.243685"><ele>906.7</ele><time>2012-04-29T12:23:15.0000000+00:00</time></trkpt><trkpt lat="43.185078" lon="19.243685"><ele>906.7</ele><time>2012-04-29T12:23:20.0000000+00:00</time></trkpt><trkpt lat="43.185078" lon="19.243685"><ele>906.7</ele><time>2012-04-29T12:23:25.0000000+00:00</time></trkpt><trkpt lat="43.185078" lon="19.243685"><ele>906.7</ele><time>2012-04-29T12:23:30.0000000+00:00</time></trkpt><trkpt lat="43.185078" lon="19.243685"><ele>906.7</ele><time>2012-04-29T12:23:35.0000000+00:00</time></trkpt><trkpt lat="43.185078" lon="19.243685"><ele>906.7</ele><time>2012-04-29T12:23:40.0000000+00:00</time></trkpt><trkpt lat="43.185078" lon="19.243685"><ele>906.7</ele><time>2012-04-29T12:23:45.0000000+00:00</time></trkpt><trkpt lat="43.185078" lon="19.243685"><ele>906.7</ele><time>2012-04-29T12:23:50.0000000+00:00</time></trkpt><trkpt lat="43.185078" lon="19.243685"><ele>906.7</ele><time>2012-04-29T12:23:55.0000000+00:00</time></trkpt><trkpt lat="43.185078" lon="19.243687"><ele>906.7</ele><time>2012-04-29T12:24:00.0000000+00:00</time></trkpt><trkpt lat="43.185078" lon="19.243687"><ele>906.8</ele><time>2012-04-29T12:24:05.0000000+00:00</time></trkpt><trkpt lat="43.185078" lon="19.243687"><ele>906.8</ele><time>2012-04-29T12:24:10.0000000+00:00</time></trkpt><trkpt lat="43.185078" lon="19.243687"><ele>906.8</ele><time>2012-04-29T12:24:15.0000000+00:00</time></trkpt><trkpt lat="43.185078" lon="19.243685"><ele>906.8</ele><time>2012-04-29T12:24:20.0000000+00:00</time></trkpt><trkpt lat="43.185078" lon="19.243685"><ele>906.8</ele><time>2012-04-29T12:24:25.0000000+00:00</time></trkpt><trkpt lat="43.185078" lon="19.243685"><ele>906.8</ele><time>2012-04-29T12:24:30.0000000+00:00</time></trkpt><trkpt lat="43.185078" lon="19.243685"><ele>906.8</ele><time>2012-04-29T12:24:35.0000000+00:00</time></trkpt><trkpt lat="43.185078" lon="19.243685"><ele>906.8</ele><time>2012-04-29T12:24:40.0000000+00:00</time></trkpt><trkpt lat="43.185078" lon="19.243687"><ele>906.8</ele><time>2012-04-29T12:24:45.0000000+00:00</time></trkpt><trkpt lat="43.185078" lon="19.243687"><ele>906.9</ele><time>2012-04-29T12:24:50.0000000+00:00</time></trkpt><trkpt lat="43.185078" lon="19.243687"><ele>906.9</ele><time>2012-04-29T12:24:55.0000000+00:00</time></trkpt><trkpt lat="43.185078" lon="19.243687"><ele>907.0</ele><time>2012-04-29T12:25:00.0000000+00:00</time></trkpt><trkpt lat="43.185078" lon="19.243687"><ele>907.0</ele><time>2012-04-29T12:25:05.0000000+00:00</time></trkpt><trkpt lat="43.185078" lon="19.243687"><ele>907.1</ele><time>2012-04-29T12:25:10.0000000+00:00</time></trkpt><trkpt lat="43.185078" lon="19.243687"><ele>907.1</ele><time>2012-04-29T12:25:15.0000000+00:00</time></trkpt><trkpt lat="43.185078" lon="19.243687"><ele>907.1</ele><time>2012-04-29T12:25:20.0000000+00:00</time></trkpt><trkpt lat="43.185078" lon="19.243689"><ele>907.1</ele><time>2012-04-29T12:25:25.0000000+00:00</time></trkpt><trkpt lat="43.185078" lon="19.243687"><ele>907.1</ele><time>2012-04-29T12:25:30.0000000+00:00</time></trkpt><trkpt lat="43.185078" lon="19.243689"><ele>907.2</ele><time>2012-04-29T12:25:35.0000000+00:00</time></trkpt><trkpt lat="43.185078" lon="19.243689"><ele>907.1</ele><time>2012-04-29T12:25:40.0000000+00:00</time></trkpt><trkpt lat="43.185078" lon="19.243689"><ele>907.1</ele><time>2012-04-29T12:25:45.0000000+00:00</time></trkpt><trkpt lat="43.185078" lon="19.243689"><ele>907.1</ele><time>2012-04-29T12:25:50.0000000+00:00</time></trkpt><trkpt lat="43.185078" lon="19.243689"><ele>907.1</ele><time>2012-04-29T12:25:55.0000000+00:00</time></trkpt><trkpt lat="43.185078" lon="19.243689"><ele>907.1</ele><time>2012-04-29T12:26:00.0000000+00:00</time></trkpt><trkpt lat="43.185078" lon="19.243689"><ele>907.1</ele><time>2012-04-29T12:26:05.0000000+00:00</time></trkpt><trkpt lat="43.185078" lon="19.243689"><ele>907.1</ele><time>2012-04-29T12:26:10.0000000+00:00</time></trkpt><trkpt lat="43.185078" lon="19.243689"><ele>907.1</ele><time>2012-04-29T12:26:15.0000000+00:00</time></trkpt><trkpt lat="43.185078" lon="19.243689"><ele>907.1</ele><time>2012-04-29T12:26:20.0000000+00:00</time></trkpt><trkpt lat="43.185078" lon="19.243689"><ele>907.1</ele><time>2012-04-29T12:26:25.0000000+00:00</time></trkpt><trkpt lat="43.185078" lon="19.243689"><ele>907.1</ele><time>2012-04-29T12:26:30.0000000+00:00</time></trkpt><trkpt lat="43.185078" lon="19.243689"><ele>907.1</ele><time>2012-04-29T12:26:35.0000000+00:00</time></trkpt><trkpt lat="43.185078" lon="19.243689"><ele>907.1</ele><time>2012-04-29T12:26:40.0000000+00:00</time></trkpt><trkpt lat="43.185078" lon="19.243689"><ele>907.1</ele><time>2012-04-29T12:26:45.0000000+00:00</time></trkpt><trkpt lat="43.185078" lon="19.243687"><ele>907.1</ele><time>2012-04-29T12:26:50.0000000+00:00</time></trkpt><trkpt lat="43.185078" lon="19.243687"><ele>907.1</ele><time>2012-04-29T12:26:55.0000000+00:00</time></trkpt><trkpt lat="43.185078" lon="19.243687"><ele>907.0</ele><time>2012-04-29T12:27:00.0000000+00:00</time></trkpt><trkpt lat="43.185078" lon="19.243687"><ele>907.0</ele><time>2012-04-29T12:27:05.0000000+00:00</time></trkpt><trkpt lat="43.185078" lon="19.243687"><ele>907.0</ele><time>2012-04-29T12:27:10.0000000+00:00</time></trkpt><trkpt lat="43.185078" lon="19.243687"><ele>907.0</ele><time>2012-04-29T12:27:15.0000000+00:00</time></trkpt><trkpt lat="43.185078" lon="19.243687"><ele>907.0</ele><time>2012-04-29T12:27:20.0000000+00:00</time></trkpt><trkpt lat="43.185078" lon="19.243687"><ele>907.0</ele><time>2012-04-29T12:27:25.0000000+00:00</time></trkpt><trkpt lat="43.185078" lon="19.243685"><ele>907.0</ele><time>2012-04-29T12:27:30.0000000+00:00</time></trkpt><trkpt lat="43.185078" lon="19.243685"><ele>906.9</ele><time>2012-04-29T12:27:35.0000000+00:00</time></trkpt><trkpt lat="43.185078" lon="19.243685"><ele>906.9</ele><time>2012-04-29T12:27:40.0000000+00:00</time></trkpt><trkpt lat="43.185078" lon="19.243685"><ele>906.9</ele><time>2012-04-29T12:27:45.0000000+00:00</time></trkpt><trkpt lat="43.185078" lon="19.243685"><ele>906.9</ele><time>2012-04-29T12:27:50.0000000+00:00</time></trkpt><trkpt lat="43.185078" lon="19.243685"><ele>906.9</ele><time>2012-04-29T12:27:55.0000000+00:00</time></trkpt><trkpt lat="43.185078" lon="19.243685"><ele>906.9</ele><time>2012-04-29T12:28:00.0000000+00:00</time></trkpt><trkpt lat="43.185078" lon="19.243685"><ele>906.9</ele><time>2012-04-29T12:28:05.0000000+00:00</time></trkpt><trkpt lat="43.185078" lon="19.243685"><ele>906.9</ele><time>2012-04-29T12:28:10.0000000+00:00</time></trkpt><trkpt lat="43.185078" lon="19.243685"><ele>906.9</ele><time>2012-04-29T12:28:15.0000000+00:00</time></trkpt><trkpt lat="43.185074" lon="19.243685"><ele>906.9</ele><time>2012-04-29T12:28:20.0000000+00:00</time></trkpt><trkpt lat="43.185078" lon="19.243685"><ele>906.9</ele><time>2012-04-29T12:28:25.0000000+00:00</time></trkpt><trkpt lat="43.185078" lon="19.243685"><ele>906.9</ele><time>2012-04-29T12:28:30.0000000+00:00</time></trkpt><trkpt lat="43.185078" lon="19.243685"><ele>906.9</ele><time>2012-04-29T12:28:35.0000000+00:00</time></trkpt><trkpt lat="43.185078" lon="19.243685"><ele>906.9</ele><time>2012-04-29T12:28:40.0000000+00:00</time></trkpt><trkpt lat="43.185078" lon="19.243685"><ele>906.9</ele><time>2012-04-29T12:28:45.0000000+00:00</time></trkpt><trkpt lat="43.185078" lon="19.243685"><ele>907.0</ele><time>2012-04-29T12:28:50.0000000+00:00</time></trkpt><trkpt lat="43.185078" lon="19.243685"><ele>907.0</ele><time>2012-04-29T12:28:55.0000000+00:00</time></trkpt><trkpt lat="43.185078" lon="19.243685"><ele>907.0</ele><time>2012-04-29T12:29:00.0000000+00:00</time></trkpt><trkpt lat="43.185078" lon="19.243685"><ele>907.1</ele><time>2012-04-29T12:29:05.0000000+00:00</time></trkpt><trkpt lat="43.185078" lon="19.243685"><ele>907.1</ele><time>2012-04-29T12:29:10.0000000+00:00</time></trkpt><trkpt lat="43.185078" lon="19.243685"><ele>907.1</ele><time>2012-04-29T12:29:15.0000000+00:00</time></trkpt><trkpt lat="43.185078" lon="19.243685"><ele>907.1</ele><time>2012-04-29T12:29:20.0000000+00:00</time></trkpt><trkpt lat="43.185078" lon="19.243685"><ele>907.2</ele><time>2012-04-29T12:29:25.0000000+00:00</time></trkpt><trkpt lat="43.185078" lon="19.243685"><ele>907.2</ele><time>2012-04-29T12:29:30.0000000+00:00</time></trkpt><trkpt lat="43.185078" lon="19.243685"><ele>907.2</ele><time>2012-04-29T12:29:35.0000000+00:00</time></trkpt><trkpt lat="43.185078" lon="19.243685"><ele>907.3</ele><time>2012-04-29T12:29:40.0000000+00:00</time></trkpt><trkpt lat="43.185078" lon="19.243685"><ele>907.3</ele><time>2012-04-29T12:29:45.0000000+00:00</time></trkpt><trkpt lat="43.185078" lon="19.243685"><ele>907.3</ele><time>2012-04-29T12:29:50.0000000+00:00</time></trkpt><trkpt lat="43.185078" lon="19.243685"><ele>907.4</ele><time>2012-04-29T12:29:55.0000000+00:00</time></trkpt><trkpt lat="43.185078" lon="19.243685"><ele>907.4</ele><time>2012-04-29T12:30:00.0000000+00:00</time></trkpt><trkpt lat="43.185078" lon="19.243685"><ele>907.4</ele><time>2012-04-29T12:30:05.0000000+00:00</time></trkpt><trkpt lat="43.185078" lon="19.243685"><ele>907.4</ele><time>2012-04-29T12:30:10.0000000+00:00</time></trkpt><trkpt lat="43.185078" lon="19.243685"><ele>907.4</ele><time>2012-04-29T12:30:15.0000000+00:00</time></trkpt><trkpt lat="43.185078" lon="19.243685"><ele>907.4</ele><time>2012-04-29T12:30:20.0000000+00:00</time></trkpt><trkpt lat="43.185078" lon="19.243685"><ele>907.4</ele><time>2012-04-29T12:30:25.0000000+00:00</time></trkpt><trkpt lat="43.185078" lon="19.243685"><ele>907.4</ele><time>2012-04-29T12:30:30.0000000+00:00</time></trkpt><trkpt lat="43.185078" lon="19.243685"><ele>907.4</ele><time>2012-04-29T12:30:35.0000000+00:00</time></trkpt><trkpt lat="43.185078" lon="19.243685"><ele>907.4</ele><time>2012-04-29T12:30:40.0000000+00:00</time></trkpt><trkpt lat="43.185078" lon="19.243685"><ele>907.4</ele><time>2012-04-29T12:30:45.0000000+00:00</time></trkpt><trkpt lat="43.185078" lon="19.243685"><ele>907.4</ele><time>2012-04-29T12:30:50.0000000+00:00</time></trkpt><trkpt lat="43.185078" lon="19.243683"><ele>907.4</ele><time>2012-04-29T12:30:55.0000000+00:00</time></trkpt><trkpt lat="43.185078" lon="19.243683"><ele>907.4</ele><time>2012-04-29T12:31:00.0000000+00:00</time></trkpt><trkpt lat="43.185078" lon="19.243683"><ele>907.4</ele><time>2012-04-29T12:31:05.0000000+00:00</time></trkpt><trkpt lat="43.185078" lon="19.243683"><ele>907.4</ele><time>2012-04-29T12:31:10.0000000+00:00</time></trkpt><trkpt lat="43.185078" lon="19.243683"><ele>907.4</ele><time>2012-04-29T12:31:15.0000000+00:00</time></trkpt><trkpt lat="43.185078" lon="19.243683"><ele>907.4</ele><time>2012-04-29T12:31:20.0000000+00:00</time></trkpt><trkpt lat="43.185078" lon="19.243683"><ele>907.4</ele><time>2012-04-29T12:31:25.0000000+00:00</time></trkpt><trkpt lat="43.185078" lon="19.243683"><ele>907.4</ele><time>2012-04-29T12:31:30.0000000+00:00</time></trkpt><trkpt lat="43.185078" lon="19.243683"><ele>907.4</ele><time>2012-04-29T12:31:35.0000000+00:00</time></trkpt><trkpt lat="43.185078" lon="19.243683"><ele>907.4</ele><time>2012-04-29T12:31:40.0000000+00:00</time></trkpt><trkpt lat="43.185078" lon="19.243683"><ele>907.4</ele><time>2012-04-29T12:31:45.0000000+00:00</time></trkpt><trkpt lat="43.185078" lon="19.243683"><ele>907.5</ele><time>2012-04-29T12:31:50.0000000+00:00</time></trkpt><trkpt lat="43.185074" lon="19.243683"><ele>907.5</ele><time>2012-04-29T12:31:55.0000000+00:00</time></trkpt><trkpt lat="43.185051" lon="19.2437"><ele>908.0</ele><time>2012-04-29T12:32:00.0000000+00:00</time></trkpt><trkpt lat="43.185036" lon="19.243706"><ele>909.5</ele><time>2012-04-29T12:32:05.0000000+00:00</time></trkpt><trkpt lat="43.185024" lon="19.24375"><ele>909.7</ele><time>2012-04-29T12:32:10.0000000+00:00</time></trkpt><trkpt lat="43.185028" lon="19.243748"><ele>910.3</ele><time>2012-04-29T12:32:15.0000000+00:00</time></trkpt><trkpt lat="43.185024" lon="19.243753"><ele>910.5</ele><time>2012-04-29T12:32:20.0000000+00:00</time></trkpt><trkpt lat="43.185017" lon="19.243786"><ele>911.0</ele><time>2012-04-29T12:32:25.0000000+00:00</time></trkpt><trkpt lat="43.184998" lon="19.243931"><ele>910.3</ele><time>2012-04-29T12:32:30.0000000+00:00</time></trkpt><trkpt lat="43.18502" lon="19.244162"><ele>908.3</ele><time>2012-04-29T12:32:35.0000000+00:00</time></trkpt><trkpt lat="43.185093" lon="19.244408"><ele>905.2</ele><time>2012-04-29T12:32:40.0000000+00:00</time></trkpt><trkpt lat="43.185173" lon="19.244661"><ele>901.6</ele><time>2012-04-29T12:32:45.0000000+00:00</time></trkpt><trkpt lat="43.18528" lon="19.244947"><ele>898.2</ele><time>2012-04-29T12:32:50.0000000+00:00</time></trkpt><trkpt lat="43.18531" lon="19.245186"><ele>894.8</ele><time>2012-04-29T12:32:55.0000000+00:00</time></trkpt><trkpt lat="43.185337" lon="19.245426"><ele>891.7</ele><time>2012-04-29T12:33:00.0000000+00:00</time></trkpt><trkpt lat="43.185364" lon="19.245718"><ele>889.5</ele><time>2012-04-29T12:33:05.0000000+00:00</time></trkpt><trkpt lat="43.18544" lon="19.245947"><ele>887.2</ele><time>2012-04-29T12:33:10.0000000+00:00</time></trkpt><trkpt lat="43.18552" lon="19.246292"><ele>886.0</ele><time>2012-04-29T12:33:15.0000000+00:00</time></trkpt><trkpt lat="43.185562" lon="19.246582"><ele>885.5</ele><time>2012-04-29T12:33:20.0000000+00:00</time></trkpt><trkpt lat="43.185497" lon="19.246878"><ele>884.6</ele><time>2012-04-29T12:33:25.0000000+00:00</time></trkpt><trkpt lat="43.185478" lon="19.247206"><ele>882.8</ele><time>2012-04-29T12:33:30.0000000+00:00</time></trkpt><trkpt lat="43.185513" lon="19.247417"><ele>880.0</ele><time>2012-04-29T12:33:35.0000000+00:00</time></trkpt><trkpt lat="43.185513" lon="19.247423"><ele>880.0</ele><time>2012-04-29T12:33:40.0000000+00:00</time></trkpt><trkpt lat="43.185513" lon="19.247438"><ele>879.6</ele><time>2012-04-29T12:33:45.0000000+00:00</time></trkpt><trkpt lat="43.18552" lon="19.24744"><ele>878.9</ele><time>2012-04-29T12:33:50.0000000+00:00</time></trkpt><trkpt lat="43.18552" lon="19.24744"><ele>878.9</ele><time>2012-04-29T12:33:55.0000000+00:00</time></trkpt><trkpt lat="43.18552" lon="19.24744"><ele>878.8</ele><time>2012-04-29T12:34:00.0000000+00:00</time></trkpt><trkpt lat="43.18552" lon="19.24744"><ele>878.8</ele><time>2012-04-29T12:34:05.0000000+00:00</time></trkpt><trkpt lat="43.18552" lon="19.24744"><ele>878.8</ele><time>2012-04-29T12:34:10.0000000+00:00</time></trkpt><trkpt lat="43.18552" lon="19.24744"><ele>878.8</ele><time>2012-04-29T12:34:15.0000000+00:00</time></trkpt><trkpt lat="43.18552" lon="19.24744"><ele>878.7</ele><time>2012-04-29T12:34:20.0000000+00:00</time></trkpt><trkpt lat="43.18552" lon="19.24744"><ele>878.7</ele><time>2012-04-29T12:34:25.0000000+00:00</time></trkpt><trkpt lat="43.18552" lon="19.24744"><ele>878.7</ele><time>2012-04-29T12:34:30.0000000+00:00</time></trkpt><trkpt lat="43.18552" lon="19.24744"><ele>878.7</ele><time>2012-04-29T12:34:35.0000000+00:00</time></trkpt><trkpt lat="43.18552" lon="19.24744"><ele>878.6</ele><time>2012-04-29T12:34:40.0000000+00:00</time></trkpt><trkpt lat="43.18552" lon="19.24744"><ele>878.6</ele><time>2012-04-29T12:34:45.0000000+00:00</time></trkpt><trkpt lat="43.18552" lon="19.24744"><ele>878.6</ele><time>2012-04-29T12:34:50.0000000+00:00</time></trkpt><trkpt lat="43.18552" lon="19.24744"><ele>878.6</ele><time>2012-04-29T12:34:55.0000000+00:00</time></trkpt><trkpt lat="43.18552" lon="19.24744"><ele>878.6</ele><time>2012-04-29T12:35:00.0000000+00:00</time></trkpt><trkpt lat="43.18552" lon="19.24744"><ele>878.5</ele><time>2012-04-29T12:35:05.0000000+00:00</time></trkpt><trkpt lat="43.18552" lon="19.24744"><ele>878.5</ele><time>2012-04-29T12:35:10.0000000+00:00</time></trkpt><trkpt lat="43.18552" lon="19.24744"><ele>878.5</ele><time>2012-04-29T12:35:15.0000000+00:00</time></trkpt><trkpt lat="43.18552" lon="19.247438"><ele>878.1</ele><time>2012-04-29T12:35:20.0000000+00:00</time></trkpt><trkpt lat="43.185528" lon="19.247431"><ele>877.3</ele><time>2012-04-29T12:35:25.0000000+00:00</time></trkpt><trkpt lat="43.185528" lon="19.247429"><ele>877.0</ele><time>2012-04-29T12:35:30.0000000+00:00</time></trkpt><trkpt lat="43.185528" lon="19.247431"><ele>876.9</ele><time>2012-04-29T12:35:35.0000000+00:00</time></trkpt><trkpt lat="43.185532" lon="19.247477"><ele>876.5</ele><time>2012-04-29T12:35:40.0000000+00:00</time></trkpt><trkpt lat="43.185532" lon="19.247572"><ele>875.7</ele><time>2012-04-29T12:35:45.0000000+00:00</time></trkpt><trkpt lat="43.185535" lon="19.247585"><ele>875.2</ele><time>2012-04-29T12:35:50.0000000+00:00</time></trkpt><trkpt lat="43.185543" lon="19.247671"><ele>874.7</ele><time>2012-04-29T12:35:55.0000000+00:00</time></trkpt><trkpt lat="43.185555" lon="19.247814"><ele>873.3</ele><time>2012-04-29T12:36:00.0000000+00:00</time></trkpt><trkpt lat="43.185558" lon="19.247948"><ele>873.0</ele><time>2012-04-29T12:36:05.0000000+00:00</time></trkpt><trkpt lat="43.185558" lon="19.24799"><ele>872.5</ele><time>2012-04-29T12:36:10.0000000+00:00</time></trkpt><trkpt lat="43.185574" lon="19.248089"><ele>872.2</ele><time>2012-04-29T12:36:15.0000000+00:00</time></trkpt><trkpt lat="43.185631" lon="19.248301"><ele>870.1</ele><time>2012-04-29T12:36:20.0000000+00:00</time></trkpt><trkpt lat="43.185699" lon="19.248512"><ele>868.1</ele><time>2012-04-29T12:36:25.0000000+00:00</time></trkpt><trkpt lat="43.185741" lon="19.248749"><ele>864.6</ele><time>2012-04-29T12:36:30.0000000+00:00</time></trkpt><trkpt lat="43.185772" lon="19.249004"><ele>861.1</ele><time>2012-04-29T12:36:35.0000000+00:00</time></trkpt><trkpt lat="43.185791" lon="19.249184"><ele>858.8</ele><time>2012-04-29T12:36:40.0000000+00:00</time></trkpt><trkpt lat="43.185764" lon="19.249384"><ele>855.5</ele><time>2012-04-29T12:36:45.0000000+00:00</time></trkpt><trkpt lat="43.185734" lon="19.249628"><ele>852.7</ele><time>2012-04-29T12:36:50.0000000+00:00</time></trkpt><trkpt lat="43.185757" lon="19.249935"><ele>849.4</ele><time>2012-04-29T12:36:55.0000000+00:00</time></trkpt><trkpt lat="43.185753" lon="19.250204"><ele>846.9</ele><time>2012-04-29T12:37:00.0000000+00:00</time></trkpt><trkpt lat="43.185669" lon="19.250425"><ele>844.7</ele><time>2012-04-29T12:37:05.0000000+00:00</time></trkpt><trkpt lat="43.185619" lon="19.250614"><ele>843.3</ele><time>2012-04-29T12:37:10.0000000+00:00</time></trkpt><trkpt lat="43.185623" lon="19.250799"><ele>841.9</ele><time>2012-04-29T12:37:15.0000000+00:00</time></trkpt><trkpt lat="43.185631" lon="19.251032"><ele>839.5</ele><time>2012-04-29T12:37:20.0000000+00:00</time></trkpt><trkpt lat="43.185596" lon="19.251251"><ele>837.7</ele><time>2012-04-29T12:37:25.0000000+00:00</time></trkpt><trkpt lat="43.185612" lon="19.251492"><ele>835.3</ele><time>2012-04-29T12:37:30.0000000+00:00</time></trkpt><trkpt lat="43.185635" lon="19.251715"><ele>833.4</ele><time>2012-04-29T12:37:35.0000000+00:00</time></trkpt><trkpt lat="43.185703" lon="19.2519"><ele>830.4</ele><time>2012-04-29T12:37:40.0000000+00:00</time></trkpt><trkpt lat="43.185669" lon="19.252022"><ele>827.1</ele><time>2012-04-29T12:37:45.0000000+00:00</time></trkpt><trkpt lat="43.185585" lon="19.251995"><ele>826.4</ele><time>2012-04-29T12:37:50.0000000+00:00</time></trkpt><trkpt lat="43.18549" lon="19.251863"><ele>824.3</ele><time>2012-04-29T12:37:55.0000000+00:00</time></trkpt><trkpt lat="43.185345" lon="19.251644"><ele>822.0</ele><time>2012-04-29T12:38:00.0000000+00:00</time></trkpt><trkpt lat="43.185165" lon="19.251444"><ele>820.4</ele><time>2012-04-29T12:38:05.0000000+00:00</time></trkpt><trkpt lat="43.184967" lon="19.251371"><ele>818.9</ele><time>2012-04-29T12:38:10.0000000+00:00</time></trkpt><trkpt lat="43.184925" lon="19.251564"><ele>816.5</ele><time>2012-04-29T12:38:15.0000000+00:00</time></trkpt><trkpt lat="43.184956" lon="19.251808"><ele>814.0</ele><time>2012-04-29T12:38:20.0000000+00:00</time></trkpt><trkpt lat="43.184971" lon="19.252108"><ele>811.7</ele><time>2012-04-29T12:38:25.0000000+00:00</time></trkpt><trkpt lat="43.185081" lon="19.252329"><ele>810.3</ele><time>2012-04-29T12:38:30.0000000+00:00</time></trkpt><trkpt lat="43.185078" lon="19.252542"><ele>808.2</ele><time>2012-04-29T12:38:35.0000000+00:00</time></trkpt><trkpt lat="43.184956" lon="19.252771"><ele>804.4</ele><time>2012-04-29T12:38:40.0000000+00:00</time></trkpt><trkpt lat="43.184864" lon="19.252998"><ele>799.9</ele><time>2012-04-29T12:38:45.0000000+00:00</time></trkpt><trkpt lat="43.184734" lon="19.253105"><ele>798.2</ele><time>2012-04-29T12:38:50.0000000+00:00</time></trkpt><trkpt lat="43.184601" lon="19.253235"><ele>796.2</ele><time>2012-04-29T12:38:55.0000000+00:00</time></trkpt><trkpt lat="43.184509" lon="19.25333"><ele>794.0</ele><time>2012-04-29T12:39:00.0000000+00:00</time></trkpt><trkpt lat="43.18441" lon="19.253466"><ele>791.7</ele><time>2012-04-29T12:39:05.0000000+00:00</time></trkpt><trkpt lat="43.184361" lon="19.253675"><ele>787.3</ele><time>2012-04-29T12:39:10.0000000+00:00</time></trkpt><trkpt lat="43.184334" lon="19.25392"><ele>784.4</ele><time>2012-04-29T12:39:15.0000000+00:00</time></trkpt><trkpt lat="43.184288" lon="19.254211"><ele>781.1</ele><time>2012-04-29T12:39:20.0000000+00:00</time></trkpt><trkpt lat="43.184223" lon="19.254494"><ele>775.9</ele><time>2012-04-29T12:39:25.0000000+00:00</time></trkpt><trkpt lat="43.184185" lon="19.254696"><ele>773.6</ele><time>2012-04-29T12:39:30.0000000+00:00</time></trkpt><trkpt lat="43.184193" lon="19.25506"><ele>770.1</ele><time>2012-04-29T12:39:35.0000000+00:00</time></trkpt><trkpt lat="43.184093" lon="19.255405"><ele>767.5</ele><time>2012-04-29T12:39:40.0000000+00:00</time></trkpt><trkpt lat="43.183949" lon="19.255621"><ele>765.2</ele><time>2012-04-29T12:39:45.0000000+00:00</time></trkpt><trkpt lat="43.183784" lon="19.255857"><ele>763.0</ele><time>2012-04-29T12:39:50.0000000+00:00</time></trkpt><trkpt lat="43.183624" lon="19.256126"><ele>759.2</ele><time>2012-04-29T12:39:55.0000000+00:00</time></trkpt><trkpt lat="43.183502" lon="19.256353"><ele>756.5</ele><time>2012-04-29T12:40:00.0000000+00:00</time></trkpt><trkpt lat="43.183407" lon="19.256584"><ele>753.0</ele><time>2012-04-29T12:40:05.0000000+00:00</time></trkpt><trkpt lat="43.183281" lon="19.256824"><ele>749.9</ele><time>2012-04-29T12:40:10.0000000+00:00</time></trkpt><trkpt lat="43.183224" lon="19.256987"><ele>747.6</ele><time>2012-04-29T12:40:15.0000000+00:00</time></trkpt><trkpt lat="43.18327" lon="19.257101"><ele>746.0</ele><time>2012-04-29T12:40:20.0000000+00:00</time></trkpt><trkpt lat="43.183407" lon="19.257259"><ele>743.8</ele><time>2012-04-29T12:40:25.0000000+00:00</time></trkpt><trkpt lat="43.183521" lon="19.257427"><ele>742.1</ele><time>2012-04-29T12:40:30.0000000+00:00</time></trkpt><trkpt lat="43.18351" lon="19.257738"><ele>739.8</ele><time>2012-04-29T12:40:35.0000000+00:00</time></trkpt><trkpt lat="43.183407" lon="19.258125"><ele>737.9</ele><time>2012-04-29T12:40:40.0000000+00:00</time></trkpt><trkpt lat="43.183247" lon="19.258373"><ele>735.5</ele><time>2012-04-29T12:40:45.0000000+00:00</time></trkpt><trkpt lat="43.183105" lon="19.258558"><ele>733.0</ele><time>2012-04-29T12:40:50.0000000+00:00</time></trkpt><trkpt lat="43.18293" lon="19.258888"><ele>731.4</ele><time>2012-04-29T12:40:55.0000000+00:00</time></trkpt><trkpt lat="43.182854" lon="19.258955"><ele>731.3</ele><time>2012-04-29T12:41:00.0000000+00:00</time></trkpt><trkpt lat="43.182789" lon="19.25906"><ele>732.1</ele><time>2012-04-29T12:41:05.0000000+00:00</time></trkpt><trkpt lat="43.182762" lon="19.259171"><ele>732.7</ele><time>2012-04-29T12:41:10.0000000+00:00</time></trkpt><trkpt lat="43.182762" lon="19.259209"><ele>733.1</ele><time>2012-04-29T12:41:15.0000000+00:00</time></trkpt><trkpt lat="43.18277" lon="19.259209"><ele>732.5</ele><time>2012-04-29T12:41:20.0000000+00:00</time></trkpt><trkpt lat="43.182766" lon="19.259209"><ele>732.2</ele><time>2012-04-29T12:41:25.0000000+00:00</time></trkpt><trkpt lat="43.182774" lon="19.259232"><ele>732.2</ele><time>2012-04-29T12:41:30.0000000+00:00</time></trkpt><trkpt lat="43.182789" lon="19.259321"><ele>733.8</ele><time>2012-04-29T12:41:35.0000000+00:00</time></trkpt><trkpt lat="43.182789" lon="19.259396"><ele>734.8</ele><time>2012-04-29T12:41:40.0000000+00:00</time></trkpt><trkpt lat="43.182789" lon="19.259447"><ele>736.0</ele><time>2012-04-29T12:41:45.0000000+00:00</time></trkpt><trkpt lat="43.182789" lon="19.259518"><ele>736.3</ele><time>2012-04-29T12:41:50.0000000+00:00</time></trkpt><trkpt lat="43.182796" lon="19.259577"><ele>735.9</ele><time>2012-04-29T12:41:55.0000000+00:00</time></trkpt><trkpt lat="43.182804" lon="19.259653"><ele>736.0</ele><time>2012-04-29T12:42:00.0000000+00:00</time></trkpt><trkpt lat="43.182827" lon="19.259739"><ele>735.4</ele><time>2012-04-29T12:42:05.0000000+00:00</time></trkpt><trkpt lat="43.182842" lon="19.259804"><ele>735.0</ele><time>2012-04-29T12:42:10.0000000+00:00</time></trkpt><trkpt lat="43.182846" lon="19.259869"><ele>735.8</ele><time>2012-04-29T12:42:15.0000000+00:00</time></trkpt><trkpt lat="43.182846" lon="19.259941"><ele>737.5</ele><time>2012-04-29T12:42:20.0000000+00:00</time></trkpt><trkpt lat="43.182831" lon="19.260015"><ele>737.4</ele><time>2012-04-29T12:42:25.0000000+00:00</time></trkpt><trkpt lat="43.182819" lon="19.260069"><ele>736.7</ele><time>2012-04-29T12:42:30.0000000+00:00</time></trkpt><trkpt lat="43.182804" lon="19.260086"><ele>737.3</ele><time>2012-04-29T12:42:35.0000000+00:00</time></trkpt><trkpt lat="43.182808" lon="19.260077"><ele>737.5</ele><time>2012-04-29T12:42:40.0000000+00:00</time></trkpt><trkpt lat="43.182808" lon="19.260078"><ele>737.3</ele><time>2012-04-29T12:42:45.0000000+00:00</time></trkpt><trkpt lat="43.182804" lon="19.260078"><ele>737.3</ele><time>2012-04-29T12:42:50.0000000+00:00</time></trkpt><trkpt lat="43.182804" lon="19.260078"><ele>737.3</ele><time>2012-04-29T12:42:55.0000000+00:00</time></trkpt><trkpt lat="43.182804" lon="19.260078"><ele>737.3</ele><time>2012-04-29T12:43:00.0000000+00:00</time></trkpt><trkpt lat="43.182804" lon="19.260077"><ele>737.3</ele><time>2012-04-29T12:43:05.0000000+00:00</time></trkpt><trkpt lat="43.182804" lon="19.260077"><ele>737.3</ele><time>2012-04-29T12:43:10.0000000+00:00</time></trkpt><trkpt lat="43.182804" lon="19.260077"><ele>737.2</ele><time>2012-04-29T12:43:15.0000000+00:00</time></trkpt><trkpt lat="43.182804" lon="19.260077"><ele>737.2</ele><time>2012-04-29T12:43:20.0000000+00:00</time></trkpt><trkpt lat="43.182808" lon="19.260078"><ele>737.3</ele><time>2012-04-29T12:43:25.0000000+00:00</time></trkpt><trkpt lat="43.182808" lon="19.260077"><ele>737.3</ele><time>2012-04-29T12:43:30.0000000+00:00</time></trkpt><trkpt lat="43.182808" lon="19.260077"><ele>737.2</ele><time>2012-04-29T12:43:35.0000000+00:00</time></trkpt><trkpt lat="43.182808" lon="19.260077"><ele>737.3</ele><time>2012-04-29T12:43:40.0000000+00:00</time></trkpt><trkpt lat="43.182808" lon="19.260077"><ele>737.3</ele><time>2012-04-29T12:43:45.0000000+00:00</time></trkpt><trkpt lat="43.182808" lon="19.260077"><ele>737.3</ele><time>2012-04-29T12:43:50.0000000+00:00</time></trkpt><trkpt lat="43.182808" lon="19.260077"><ele>737.3</ele><time>2012-04-29T12:43:55.0000000+00:00</time></trkpt><trkpt lat="43.182808" lon="19.260077"><ele>737.3</ele><time>2012-04-29T12:44:00.0000000+00:00</time></trkpt><trkpt lat="43.182808" lon="19.260077"><ele>737.3</ele><time>2012-04-29T12:44:05.0000000+00:00</time></trkpt><trkpt lat="43.182808" lon="19.260077"><ele>737.3</ele><time>2012-04-29T12:44:10.0000000+00:00</time></trkpt><trkpt lat="43.182808" lon="19.260077"><ele>737.3</ele><time>2012-04-29T12:44:15.0000000+00:00</time></trkpt><trkpt lat="43.182808" lon="19.260075"><ele>737.3</ele><time>2012-04-29T12:44:20.0000000+00:00</time></trkpt><trkpt lat="43.182808" lon="19.260075"><ele>737.3</ele><time>2012-04-29T12:44:25.0000000+00:00</time></trkpt><trkpt lat="43.182808" lon="19.260075"><ele>737.3</ele><time>2012-04-29T12:44:30.0000000+00:00</time></trkpt><trkpt lat="43.182808" lon="19.260075"><ele>737.4</ele><time>2012-04-29T12:44:35.0000000+00:00</time></trkpt><trkpt lat="43.182808" lon="19.260075"><ele>737.4</ele><time>2012-04-29T12:44:40.0000000+00:00</time></trkpt><trkpt lat="43.182808" lon="19.260073"><ele>737.4</ele><time>2012-04-29T12:44:45.0000000+00:00</time></trkpt><trkpt lat="43.182808" lon="19.260073"><ele>737.4</ele><time>2012-04-29T12:44:50.0000000+00:00</time></trkpt><trkpt lat="43.182808" lon="19.260073"><ele>737.4</ele><time>2012-04-29T12:44:55.0000000+00:00</time></trkpt><trkpt lat="43.182808" lon="19.260073"><ele>737.5</ele><time>2012-04-29T12:45:00.0000000+00:00</time></trkpt><trkpt lat="43.182808" lon="19.260073"><ele>737.5</ele><time>2012-04-29T12:45:05.0000000+00:00</time></trkpt><trkpt lat="43.182808" lon="19.260073"><ele>737.6</ele><time>2012-04-29T12:45:10.0000000+00:00</time></trkpt><trkpt lat="43.182808" lon="19.260073"><ele>737.6</ele><time>2012-04-29T12:45:15.0000000+00:00</time></trkpt><trkpt lat="43.182808" lon="19.260071"><ele>737.7</ele><time>2012-04-29T12:45:20.0000000+00:00</time></trkpt><trkpt lat="43.182808" lon="19.260071"><ele>737.7</ele><time>2012-04-29T12:45:25.0000000+00:00</time></trkpt><trkpt lat="43.182808" lon="19.260071"><ele>737.8</ele><time>2012-04-29T12:45:30.0000000+00:00</time></trkpt><trkpt lat="43.182808" lon="19.260071"><ele>737.9</ele><time>2012-04-29T12:45:35.0000000+00:00</time></trkpt><trkpt lat="43.182808" lon="19.260071"><ele>737.9</ele><time>2012-04-29T12:45:40.0000000+00:00</time></trkpt><trkpt lat="43.182808" lon="19.260069"><ele>737.9</ele><time>2012-04-29T12:45:45.0000000+00:00</time></trkpt><trkpt lat="43.182808" lon="19.260069"><ele>737.9</ele><time>2012-04-29T12:45:50.0000000+00:00</time></trkpt><trkpt lat="43.182808" lon="19.260069"><ele>737.9</ele><time>2012-04-29T12:45:55.0000000+00:00</time></trkpt><trkpt lat="43.182796" lon="19.260057"><ele>737.9</ele><time>2012-04-29T12:46:00.0000000+00:00</time></trkpt><trkpt lat="43.182755" lon="19.259983"><ele>737.5</ele><time>2012-04-29T12:46:05.0000000+00:00</time></trkpt><trkpt lat="43.182735" lon="19.259888"><ele>738.1</ele><time>2012-04-29T12:46:10.0000000+00:00</time></trkpt><trkpt lat="43.18272" lon="19.259769"><ele>739.8</ele><time>2012-04-29T12:46:15.0000000+00:00</time></trkpt><trkpt lat="43.182693" lon="19.259649"><ele>740.8</ele><time>2012-04-29T12:46:20.0000000+00:00</time></trkpt><trkpt lat="43.182667" lon="19.259527"><ele>743.2</ele><time>2012-04-29T12:46:25.0000000+00:00</time></trkpt><trkpt lat="43.182625" lon="19.259409"><ele>744.1</ele><time>2012-04-29T12:46:30.0000000+00:00</time></trkpt><trkpt lat="43.182579" lon="19.259308"><ele>746.4</ele><time>2012-04-29T12:46:35.0000000+00:00</time></trkpt><trkpt lat="43.182514" lon="19.259228"><ele>747.4</ele><time>2012-04-29T12:46:40.0000000+00:00</time></trkpt><trkpt lat="43.182415" lon="19.259174"><ele>748.8</ele><time>2012-04-29T12:46:45.0000000+00:00</time></trkpt><trkpt lat="43.182323" lon="19.259148"><ele>749.7</ele><time>2012-04-29T12:46:50.0000000+00:00</time></trkpt><trkpt lat="43.182224" lon="19.25913"><ele>750.9</ele><time>2012-04-29T12:46:55.0000000+00:00</time></trkpt><trkpt lat="43.182125" lon="19.25913"><ele>751.3</ele><time>2012-04-29T12:47:00.0000000+00:00</time></trkpt><trkpt lat="43.182045" lon="19.259113"><ele>753.3</ele><time>2012-04-29T12:47:05.0000000+00:00</time></trkpt><trkpt lat="43.181946" lon="19.259123"><ele>754.4</ele><time>2012-04-29T12:47:10.0000000+00:00</time></trkpt><trkpt lat="43.181828" lon="19.259094"><ele>756.3</ele><time>2012-04-29T12:47:15.0000000+00:00</time></trkpt><trkpt lat="43.181686" lon="19.259027"><ele>758.4</ele><time>2012-04-29T12:47:20.0000000+00:00</time></trkpt><trkpt lat="43.181568" lon="19.258915"><ele>761.4</ele><time>2012-04-29T12:47:25.0000000+00:00</time></trkpt><trkpt lat="43.181419" lon="19.258827"><ele>762.7</ele><time>2012-04-29T12:47:30.0000000+00:00</time></trkpt><trkpt lat="43.181328" lon="19.258797"><ele>764.1</ele><time>2012-04-29T12:47:35.0000000+00:00</time></trkpt><trkpt lat="43.181198" lon="19.258766"><ele>766.3</ele><time>2012-04-29T12:47:40.0000000+00:00</time></trkpt><trkpt lat="43.181084" lon="19.258717"><ele>768.0</ele><time>2012-04-29T12:47:45.0000000+00:00</time></trkpt><trkpt lat="43.180992" lon="19.258692"><ele>769.8</ele><time>2012-04-29T12:47:50.0000000+00:00</time></trkpt><trkpt lat="43.180904" lon="19.258663"><ele>772.8</ele><time>2012-04-29T12:47:55.0000000+00:00</time></trkpt><trkpt lat="43.180809" lon="19.258671"><ele>775.5</ele><time>2012-04-29T12:48:00.0000000+00:00</time></trkpt><trkpt lat="43.18071" lon="19.25865"><ele>777.4</ele><time>2012-04-29T12:48:05.0000000+00:00</time></trkpt><trkpt lat="43.180622" lon="19.258623"><ele>778.1</ele><time>2012-04-29T12:48:10.0000000+00:00</time></trkpt><trkpt lat="43.180565" lon="19.25864"><ele>780.5</ele><time>2012-04-29T12:48:15.0000000+00:00</time></trkpt><trkpt lat="43.180553" lon="19.258661"><ele>781.5</ele><time>2012-04-29T12:48:20.0000000+00:00</time></trkpt><trkpt lat="43.180553" lon="19.258661"><ele>781.7</ele><time>2012-04-29T12:48:25.0000000+00:00</time></trkpt><trkpt lat="43.180534" lon="19.258661"><ele>781.9</ele><time>2012-04-29T12:48:30.0000000+00:00</time></trkpt><trkpt lat="43.180443" lon="19.258665"><ele>782.2</ele><time>2012-04-29T12:48:35.0000000+00:00</time></trkpt><trkpt lat="43.180305" lon="19.258648"><ele>782.0</ele><time>2012-04-29T12:48:40.0000000+00:00</time></trkpt><trkpt lat="43.180187" lon="19.258629"><ele>782.1</ele><time>2012-04-29T12:48:45.0000000+00:00</time></trkpt><trkpt lat="43.180058" lon="19.258619"><ele>780.8</ele><time>2012-04-29T12:48:50.0000000+00:00</time></trkpt><trkpt lat="43.179928" lon="19.258621"><ele>780.2</ele><time>2012-04-29T12:48:55.0000000+00:00</time></trkpt><trkpt lat="43.179813" lon="19.2586"><ele>778.8</ele><time>2012-04-29T12:49:00.0000000+00:00</time></trkpt><trkpt lat="43.17971" lon="19.258602"><ele>778.4</ele><time>2012-04-29T12:49:05.0000000+00:00</time></trkpt><trkpt lat="43.179619" lon="19.258537"><ele>777.5</ele><time>2012-04-29T12:49:10.0000000+00:00</time></trkpt><trkpt lat="43.179523" lon="19.258514"><ele>776.2</ele><time>2012-04-29T12:49:15.0000000+00:00</time></trkpt><trkpt lat="43.179436" lon="19.258501"><ele>775.3</ele><time>2012-04-29T12:49:20.0000000+00:00</time></trkpt><trkpt lat="43.179375" lon="19.258467"><ele>774.0</ele><time>2012-04-29T12:49:25.0000000+00:00</time></trkpt><trkpt lat="43.179298" lon="19.258453"><ele>775.3</ele><time>2012-04-29T12:49:30.0000000+00:00</time></trkpt><trkpt lat="43.17923" lon="19.258451"><ele>775.4</ele><time>2012-04-29T12:49:35.0000000+00:00</time></trkpt><trkpt lat="43.179173" lon="19.258457"><ele>775.9</ele><time>2012-04-29T12:49:40.0000000+00:00</time></trkpt><trkpt lat="43.179104" lon="19.258448"><ele>776.6</ele><time>2012-04-29T12:49:45.0000000+00:00</time></trkpt><trkpt lat="43.179047" lon="19.258427"><ele>777.1</ele><time>2012-04-29T12:49:50.0000000+00:00</time></trkpt><trkpt lat="43.178989" lon="19.258396"><ele>777.3</ele><time>2012-04-29T12:49:55.0000000+00:00</time></trkpt><trkpt lat="43.178928" lon="19.258375"><ele>779.7</ele><time>2012-04-29T12:50:00.0000000+00:00</time></trkpt><trkpt lat="43.178871" lon="19.258377"><ele>780.9</ele><time>2012-04-29T12:50:05.0000000+00:00</time></trkpt><trkpt lat="43.178814" lon="19.2584"><ele>782.1</ele><time>2012-04-29T12:50:10.0000000+00:00</time></trkpt><trkpt lat="43.178764" lon="19.258436"><ele>782.6</ele><time>2012-04-29T12:50:15.0000000+00:00</time></trkpt><trkpt lat="43.178699" lon="19.258512"><ele>784.5</ele><time>2012-04-29T12:50:20.0000000+00:00</time></trkpt><trkpt lat="43.17865" lon="19.258596"><ele>785.6</ele><time>2012-04-29T12:50:25.0000000+00:00</time></trkpt><trkpt lat="43.178619" lon="19.258688"><ele>786.5</ele><time>2012-04-29T12:50:30.0000000+00:00</time></trkpt><trkpt lat="43.17857" lon="19.25878"><ele>786.5</ele><time>2012-04-29T12:50:35.0000000+00:00</time></trkpt><trkpt lat="43.178513" lon="19.258896"><ele>786.7</ele><time>2012-04-29T12:50:40.0000000+00:00</time></trkpt><trkpt lat="43.17844" lon="19.258995"><ele>788.0</ele><time>2012-04-29T12:50:45.0000000+00:00</time></trkpt><trkpt lat="43.178364" lon="19.259096"><ele>787.6</ele><time>2012-04-29T12:50:50.0000000+00:00</time></trkpt><trkpt lat="43.178257" lon="19.259211"><ele>788.0</ele><time>2012-04-29T12:50:55.0000000+00:00</time></trkpt><trkpt lat="43.178196" lon="19.259329"><ele>788.6</ele><time>2012-04-29T12:51:00.0000000+00:00</time></trkpt><trkpt lat="43.178089" lon="19.259455"><ele>788.9</ele><time>2012-04-29T12:51:05.0000000+00:00</time></trkpt><trkpt lat="43.177971" lon="19.259565"><ele>788.7</ele><time>2012-04-29T12:51:10.0000000+00:00</time></trkpt><trkpt lat="43.177902" lon="19.259672"><ele>788.8</ele><time>2012-04-29T12:51:15.0000000+00:00</time></trkpt><trkpt lat="43.17778" lon="19.259769"><ele>790.5</ele><time>2012-04-29T12:51:20.0000000+00:00</time></trkpt><trkpt lat="43.177639" lon="19.259838"><ele>791.9</ele><time>2012-04-29T12:51:25.0000000+00:00</time></trkpt><trkpt lat="43.177525" lon="19.259882"><ele>791.9</ele><time>2012-04-29T12:51:30.0000000+00:00</time></trkpt><trkpt lat="43.177402" lon="19.259926"><ele>791.5</ele><time>2012-04-29T12:51:35.0000000+00:00</time></trkpt><trkpt lat="43.177311" lon="19.259993"><ele>790.7</ele><time>2012-04-29T12:51:40.0000000+00:00</time></trkpt><trkpt lat="43.177219" lon="19.260073"><ele>791.0</ele><time>2012-04-29T12:51:45.0000000+00:00</time></trkpt><trkpt lat="43.177094" lon="19.260214"><ele>791.5</ele><time>2012-04-29T12:51:50.0000000+00:00</time></trkpt><trkpt lat="43.176926" lon="19.26041"><ele>790.4</ele><time>2012-04-29T12:51:55.0000000+00:00</time></trkpt><trkpt lat="43.176701" lon="19.260717"><ele>789.9</ele><time>2012-04-29T12:52:00.0000000+00:00</time></trkpt><trkpt lat="43.176552" lon="19.260857"><ele>789.8</ele><time>2012-04-29T12:52:05.0000000+00:00</time></trkpt><trkpt lat="43.176449" lon="19.260962"><ele>790.3</ele><time>2012-04-29T12:52:10.0000000+00:00</time></trkpt><trkpt lat="43.17635" lon="19.261045"><ele>791.8</ele><time>2012-04-29T12:52:15.0000000+00:00</time></trkpt><trkpt lat="43.176292" lon="19.261147"><ele>790.6</ele><time>2012-04-29T12:52:20.0000000+00:00</time></trkpt><trkpt lat="43.176224" lon="19.261248"><ele>791.0</ele><time>2012-04-29T12:52:25.0000000+00:00</time></trkpt><trkpt lat="43.176163" lon="19.261326"><ele>791.5</ele><time>2012-04-29T12:52:30.0000000+00:00</time></trkpt><trkpt lat="43.176094" lon="19.261395"><ele>793.8</ele><time>2012-04-29T12:52:35.0000000+00:00</time></trkpt><trkpt lat="43.176037" lon="19.261463"><ele>794.8</ele><time>2012-04-29T12:52:40.0000000+00:00</time></trkpt><trkpt lat="43.175987" lon="19.261551"><ele>794.9</ele><time>2012-04-29T12:52:45.0000000+00:00</time></trkpt><trkpt lat="43.175945" lon="19.261652"><ele>796.0</ele><time>2012-04-29T12:52:50.0000000+00:00</time></trkpt><trkpt lat="43.175911" lon="19.261736"><ele>796.5</ele><time>2012-04-29T12:52:55.0000000+00:00</time></trkpt><trkpt lat="43.175861" lon="19.261827"><ele>796.9</ele><time>2012-04-29T12:53:00.0000000+00:00</time></trkpt><trkpt lat="43.175781" lon="19.2619"><ele>797.6</ele><time>2012-04-29T12:53:05.0000000+00:00</time></trkpt><trkpt lat="43.175758" lon="19.262051"><ele>797.7</ele><time>2012-04-29T12:53:10.0000000+00:00</time></trkpt><trkpt lat="43.175682" lon="19.26214"><ele>797.2</ele><time>2012-04-29T12:53:15.0000000+00:00</time></trkpt><trkpt lat="43.175629" lon="19.262297"><ele>797.4</ele><time>2012-04-29T12:53:20.0000000+00:00</time></trkpt><trkpt lat="43.175629" lon="19.262489"><ele>796.7</ele><time>2012-04-29T12:53:25.0000000+00:00</time></trkpt><trkpt lat="43.175652" lon="19.262695"><ele>796.9</ele><time>2012-04-29T12:53:30.0000000+00:00</time></trkpt><trkpt lat="43.175716" lon="19.262962"><ele>797.1</ele><time>2012-04-29T12:53:35.0000000+00:00</time></trkpt><trkpt lat="43.175629" lon="19.263096"><ele>796.7</ele><time>2012-04-29T12:53:40.0000000+00:00</time></trkpt><trkpt lat="43.175507" lon="19.263283"><ele>796.3</ele><time>2012-04-29T12:53:45.0000000+00:00</time></trkpt><trkpt lat="43.175392" lon="19.263416"><ele>795.6</ele><time>2012-04-29T12:53:50.0000000+00:00</time></trkpt><trkpt lat="43.175312" lon="19.263506"><ele>796.4</ele><time>2012-04-29T12:53:55.0000000+00:00</time></trkpt><trkpt lat="43.175282" lon="19.263636"><ele>795.3</ele><time>2012-04-29T12:54:00.0000000+00:00</time></trkpt><trkpt lat="43.175232" lon="19.263783"><ele>793.6</ele><time>2012-04-29T12:54:05.0000000+00:00</time></trkpt><trkpt lat="43.175198" lon="19.263895"><ele>790.4</ele><time>2012-04-29T12:54:10.0000000+00:00</time></trkpt><trkpt lat="43.175175" lon="19.264074"><ele>788.3</ele><time>2012-04-29T12:54:15.0000000+00:00</time></trkpt><trkpt lat="43.175056" lon="19.264217"><ele>788.7</ele><time>2012-04-29T12:54:20.0000000+00:00</time></trkpt><trkpt lat="43.174995" lon="19.264338"><ele>788.9</ele><time>2012-04-29T12:54:25.0000000+00:00</time></trkpt><trkpt lat="43.174938" lon="19.264442"><ele>788.7</ele><time>2012-04-29T12:54:30.0000000+00:00</time></trkpt><trkpt lat="43.1749" lon="19.264482"><ele>793.3</ele><time>2012-04-29T12:54:35.0000000+00:00</time></trkpt><trkpt lat="43.17485" lon="19.264542"><ele>794.7</ele><time>2012-04-29T12:54:40.0000000+00:00</time></trkpt><trkpt lat="43.174778" lon="19.264624"><ele>797.2</ele><time>2012-04-29T12:54:45.0000000+00:00</time></trkpt><trkpt lat="43.17469" lon="19.264671"><ele>797.6</ele><time>2012-04-29T12:54:50.0000000+00:00</time></trkpt><trkpt lat="43.174606" lon="19.264858"><ele>797.9</ele><time>2012-04-29T12:54:55.0000000+00:00</time></trkpt><trkpt lat="43.174515" lon="19.264965"><ele>798.4</ele><time>2012-04-29T12:55:00.0000000+00:00</time></trkpt><trkpt lat="43.17448" lon="19.26507"><ele>797.5</ele><time>2012-04-29T12:55:05.0000000+00:00</time></trkpt><trkpt lat="43.174484" lon="19.265194"><ele>796.4</ele><time>2012-04-29T12:55:10.0000000+00:00</time></trkpt><trkpt lat="43.174461" lon="19.26531"><ele>795.1</ele><time>2012-04-29T12:55:15.0000000+00:00</time></trkpt><trkpt lat="43.174404" lon="19.265394"><ele>793.5</ele><time>2012-04-29T12:55:20.0000000+00:00</time></trkpt><trkpt lat="43.174377" lon="19.265497"><ele>791.5</ele><time>2012-04-29T12:55:25.0000000+00:00</time></trkpt><trkpt lat="43.174362" lon="19.265594"><ele>790.1</ele><time>2012-04-29T12:55:30.0000000+00:00</time></trkpt><trkpt lat="43.174355" lon="19.265644"><ele>788.8</ele><time>2012-04-29T12:55:35.0000000+00:00</time></trkpt><trkpt lat="43.174335" lon="19.265675"><ele>787.6</ele><time>2012-04-29T12:55:40.0000000+00:00</time></trkpt><trkpt lat="43.174305" lon="19.265707"><ele>786.5</ele><time>2012-04-29T12:55:45.0000000+00:00</time></trkpt><trkpt lat="43.174278" lon="19.265759"><ele>786.1</ele><time>2012-04-29T12:55:50.0000000+00:00</time></trkpt><trkpt lat="43.174225" lon="19.265783"><ele>785.2</ele><time>2012-04-29T12:55:55.0000000+00:00</time></trkpt><trkpt lat="43.174179" lon="19.265844"><ele>784.6</ele><time>2012-04-29T12:56:00.0000000+00:00</time></trkpt><trkpt lat="43.174141" lon="19.265905"><ele>784.2</ele><time>2012-04-29T12:56:05.0000000+00:00</time></trkpt><trkpt lat="43.174103" lon="19.26598"><ele>784.2</ele><time>2012-04-29T12:56:10.0000000+00:00</time></trkpt><trkpt lat="43.174038" lon="19.266048"><ele>783.9</ele><time>2012-04-29T12:56:15.0000000+00:00</time></trkpt><trkpt lat="43.173988" lon="19.266098"><ele>784.5</ele><time>2012-04-29T12:56:20.0000000+00:00</time></trkpt><trkpt lat="43.173943" lon="19.266136"><ele>784.2</ele><time>2012-04-29T12:56:25.0000000+00:00</time></trkpt><trkpt lat="43.173874" lon="19.266171"><ele>784.4</ele><time>2012-04-29T12:56:30.0000000+00:00</time></trkpt><trkpt lat="43.173847" lon="19.266167"><ele>783.4</ele><time>2012-04-29T12:56:35.0000000+00:00</time></trkpt><trkpt lat="43.173847" lon="19.266136"><ele>783.1</ele><time>2012-04-29T12:56:40.0000000+00:00</time></trkpt><trkpt lat="43.17384" lon="19.266058"><ele>784.0</ele><time>2012-04-29T12:56:45.0000000+00:00</time></trkpt><trkpt lat="43.173847" lon="19.265963"><ele>786.5</ele><time>2012-04-29T12:56:50.0000000+00:00</time></trkpt><trkpt lat="43.173866" lon="19.265856"><ele>788.0</ele><time>2012-04-29T12:56:55.0000000+00:00</time></trkpt><trkpt lat="43.173908" lon="19.265738"><ele>792.9</ele><time>2012-04-29T12:57:00.0000000+00:00</time></trkpt><trkpt lat="43.173916" lon="19.265598"><ele>796.9</ele><time>2012-04-29T12:57:05.0000000+00:00</time></trkpt><trkpt lat="43.173824" lon="19.26549"><ele>798.8</ele><time>2012-04-29T12:57:10.0000000+00:00</time></trkpt><trkpt lat="43.173748" lon="19.265451"><ele>800.6</ele><time>2012-04-29T12:57:15.0000000+00:00</time></trkpt><trkpt lat="43.173641" lon="19.265463"><ele>802.0</ele><time>2012-04-29T12:57:20.0000000+00:00</time></trkpt><trkpt lat="43.173542" lon="19.265478"><ele>802.6</ele><time>2012-04-29T12:57:25.0000000+00:00</time></trkpt><trkpt lat="43.17345" lon="19.265516"><ele>802.5</ele><time>2012-04-29T12:57:30.0000000+00:00</time></trkpt><trkpt lat="43.173347" lon="19.265612"><ele>803.1</ele><time>2012-04-29T12:57:35.0000000+00:00</time></trkpt><trkpt lat="43.173256" lon="19.265701"><ele>803.4</ele><time>2012-04-29T12:57:40.0000000+00:00</time></trkpt><trkpt lat="43.17318" lon="19.265787"><ele>804.2</ele><time>2012-04-29T12:57:45.0000000+00:00</time></trkpt><trkpt lat="43.1731" lon="19.265862"><ele>804.1</ele><time>2012-04-29T12:57:50.0000000+00:00</time></trkpt><trkpt lat="43.172966" lon="19.26602"><ele>803.4</ele><time>2012-04-29T12:57:55.0000000+00:00</time></trkpt><trkpt lat="43.172871" lon="19.266188"><ele>803.3</ele><time>2012-04-29T12:58:00.0000000+00:00</time></trkpt><trkpt lat="43.17281" lon="19.266321"><ele>804.8</ele><time>2012-04-29T12:58:05.0000000+00:00</time></trkpt><trkpt lat="43.172779" lon="19.266476"><ele>805.8</ele><time>2012-04-29T12:58:10.0000000+00:00</time></trkpt><trkpt lat="43.172756" lon="19.266602"><ele>806.9</ele><time>2012-04-29T12:58:15.0000000+00:00</time></trkpt><trkpt lat="43.172726" lon="19.266766"><ele>807.9</ele><time>2012-04-29T12:58:20.0000000+00:00</time></trkpt><trkpt lat="43.172714" lon="19.266882"><ele>808.9</ele><time>2012-04-29T12:58:25.0000000+00:00</time></trkpt><trkpt lat="43.172699" lon="19.267021"><ele>809.8</ele><time>2012-04-29T12:58:30.0000000+00:00</time></trkpt><trkpt lat="43.172684" lon="19.267143"><ele>810.5</ele><time>2012-04-29T12:58:35.0000000+00:00</time></trkpt><trkpt lat="43.172676" lon="19.267282"><ele>811.0</ele><time>2012-04-29T12:58:40.0000000+00:00</time></trkpt><trkpt lat="43.172665" lon="19.267372"><ele>811.6</ele><time>2012-04-29T12:58:45.0000000+00:00</time></trkpt><trkpt lat="43.172619" lon="19.267469"><ele>812.9</ele><time>2012-04-29T12:58:50.0000000+00:00</time></trkpt><trkpt lat="43.172523" lon="19.26754"><ele>814.6</ele><time>2012-04-29T12:58:55.0000000+00:00</time></trkpt><trkpt lat="43.172424" lon="19.267611"><ele>816.6</ele><time>2012-04-29T12:59:00.0000000+00:00</time></trkpt><trkpt lat="43.172321" lon="19.267664"><ele>818.6</ele><time>2012-04-29T12:59:05.0000000+00:00</time></trkpt><trkpt lat="43.17223" lon="19.267736"><ele>820.4</ele><time>2012-04-29T12:59:10.0000000+00:00</time></trkpt><trkpt lat="43.172142" lon="19.267803"><ele>822.1</ele><time>2012-04-29T12:59:15.0000000+00:00</time></trkpt><trkpt lat="43.172058" lon="19.26787"><ele>822.8</ele><time>2012-04-29T12:59:20.0000000+00:00</time></trkpt><trkpt lat="43.171974" lon="19.267948"><ele>823.2</ele><time>2012-04-29T12:59:25.0000000+00:00</time></trkpt><trkpt lat="43.17189" lon="19.268017"><ele>823.8</ele><time>2012-04-29T12:59:30.0000000+00:00</time></trkpt><trkpt lat="43.171791" lon="19.268106"><ele>824.9</ele><time>2012-04-29T12:59:35.0000000+00:00</time></trkpt><trkpt lat="43.171719" lon="19.268181"><ele>825.7</ele><time>2012-04-29T12:59:40.0000000+00:00</time></trkpt><trkpt lat="43.17165" lon="19.268255"><ele>827.1</ele><time>2012-04-29T12:59:45.0000000+00:00</time></trkpt><trkpt lat="43.171566" lon="19.268354"><ele>829.1</ele><time>2012-04-29T12:59:50.0000000+00:00</time></trkpt><trkpt lat="43.17152" lon="19.268463"><ele>829.8</ele><time>2012-04-29T12:59:55.0000000+00:00</time></trkpt><trkpt lat="43.171478" lon="19.26861"><ele>830.5</ele><time>2012-04-29T13:00:00.0000000+00:00</time></trkpt><trkpt lat="43.171474" lon="19.268675"><ele>830.7</ele><time>2012-04-29T13:00:05.0000000+00:00</time></trkpt><trkpt lat="43.171478" lon="19.268663"><ele>830.4</ele><time>2012-04-29T13:00:10.0000000+00:00</time></trkpt><trkpt lat="43.171478" lon="19.268663"><ele>830.4</ele><time>2012-04-29T13:00:15.0000000+00:00</time></trkpt><trkpt lat="43.171471" lon="19.268736"><ele>830.7</ele><time>2012-04-29T13:00:20.0000000+00:00</time></trkpt><trkpt lat="43.171436" lon="19.268919"><ele>831.2</ele><time>2012-04-29T13:00:25.0000000+00:00</time></trkpt><trkpt lat="43.171387" lon="19.269121"><ele>831.7</ele><time>2012-04-29T13:00:30.0000000+00:00</time></trkpt><trkpt lat="43.171329" lon="19.269287"><ele>832.8</ele><time>2012-04-29T13:00:35.0000000+00:00</time></trkpt><trkpt lat="43.171288" lon="19.269413"><ele>833.9</ele><time>2012-04-29T13:00:40.0000000+00:00</time></trkpt><trkpt lat="43.171234" lon="19.269531"><ele>835.2</ele><time>2012-04-29T13:00:45.0000000+00:00</time></trkpt><trkpt lat="43.171154" lon="19.269617"><ele>835.9</ele><time>2012-04-29T13:00:50.0000000+00:00</time></trkpt><trkpt lat="43.171059" lon="19.269718"><ele>837.2</ele><time>2012-04-29T13:00:55.0000000+00:00</time></trkpt><trkpt lat="43.170933" lon="19.269869"><ele>838.7</ele><time>2012-04-29T13:01:00.0000000+00:00</time></trkpt><trkpt lat="43.17078" lon="19.269865"><ele>838.8</ele><time>2012-04-29T13:01:05.0000000+00:00</time></trkpt><trkpt lat="43.170677" lon="19.26988"><ele>839.6</ele><time>2012-04-29T13:01:10.0000000+00:00</time></trkpt><trkpt lat="43.17057" lon="19.269871"><ele>839.9</ele><time>2012-04-29T13:01:15.0000000+00:00</time></trkpt><trkpt lat="43.170441" lon="19.269859"><ele>841.1</ele><time>2012-04-29T13:01:20.0000000+00:00</time></trkpt><trkpt lat="43.170303" lon="19.269857"><ele>843.1</ele><time>2012-04-29T13:01:25.0000000+00:00</time></trkpt><trkpt lat="43.170174" lon="19.269917"><ele>846.2</ele><time>2012-04-29T13:01:30.0000000+00:00</time></trkpt><trkpt lat="43.170025" lon="19.269979"><ele>848.4</ele><time>2012-04-29T13:01:35.0000000+00:00</time></trkpt><trkpt lat="43.169819" lon="19.269915"><ele>851.4</ele><time>2012-04-29T13:01:40.0000000+00:00</time></trkpt><trkpt lat="43.169643" lon="19.269894"><ele>853.6</ele><time>2012-04-29T13:01:45.0000000+00:00</time></trkpt><trkpt lat="43.169518" lon="19.269855"><ele>859.2</ele><time>2012-04-29T13:01:50.0000000+00:00</time></trkpt><trkpt lat="43.169407" lon="19.269831"><ele>865.9</ele><time>2012-04-29T13:01:55.0000000+00:00</time></trkpt><trkpt lat="43.169323" lon="19.269882"><ele>868.7</ele><time>2012-04-29T13:02:00.0000000+00:00</time></trkpt><trkpt lat="43.169308" lon="19.269913"><ele>871.2</ele><time>2012-04-29T13:02:05.0000000+00:00</time></trkpt><trkpt lat="43.1693" lon="19.26993"><ele>872.2</ele><time>2012-04-29T13:02:10.0000000+00:00</time></trkpt><trkpt lat="43.169258" lon="19.270201"><ele>872.3</ele><time>2012-04-29T13:02:15.0000000+00:00</time></trkpt><trkpt lat="43.16927" lon="19.270725"><ele>869.5</ele><time>2012-04-29T13:02:20.0000000+00:00</time></trkpt><trkpt lat="43.16922" lon="19.271345"><ele>869.4</ele><time>2012-04-29T13:02:25.0000000+00:00</time></trkpt><trkpt lat="43.169044" lon="19.271673"><ele>873.4</ele><time>2012-04-29T13:02:30.0000000+00:00</time></trkpt><trkpt lat="43.168968" lon="19.271795"><ele>876.3</ele><time>2012-04-29T13:02:35.0000000+00:00</time></trkpt><trkpt lat="43.168919" lon="19.271902"><ele>878.1</ele><time>2012-04-29T13:02:40.0000000+00:00</time></trkpt><trkpt lat="43.168896" lon="19.27206"><ele>879.3</ele><time>2012-04-29T13:02:45.0000000+00:00</time></trkpt><trkpt lat="43.168892" lon="19.272207"><ele>880.6</ele><time>2012-04-29T13:02:50.0000000+00:00</time></trkpt><trkpt lat="43.168873" lon="19.272341"><ele>881.1</ele><time>2012-04-29T13:02:55.0000000+00:00</time></trkpt><trkpt lat="43.168854" lon="19.272469"><ele>880.9</ele><time>2012-04-29T13:03:00.0000000+00:00</time></trkpt><trkpt lat="43.168804" lon="19.272713"><ele>879.7</ele><time>2012-04-29T13:03:05.0000000+00:00</time></trkpt><trkpt lat="43.168736" lon="19.273064"><ele>879.4</ele><time>2012-04-29T13:03:10.0000000+00:00</time></trkpt><trkpt lat="43.168701" lon="19.273407"><ele>879.9</ele><time>2012-04-29T13:03:15.0000000+00:00</time></trkpt><trkpt lat="43.168644" lon="19.273727"><ele>880.6</ele><time>2012-04-29T13:03:20.0000000+00:00</time></trkpt><trkpt lat="43.16853" lon="19.273985"><ele>881.6</ele><time>2012-04-29T13:03:25.0000000+00:00</time></trkpt><trkpt lat="43.16843" lon="19.274151"><ele>882.3</ele><time>2012-04-29T13:03:30.0000000+00:00</time></trkpt><trkpt lat="43.168362" lon="19.274267"><ele>883.0</ele><time>2012-04-29T13:03:35.0000000+00:00</time></trkpt><trkpt lat="43.168301" lon="19.274416"><ele>883.9</ele><time>2012-04-29T13:03:40.0000000+00:00</time></trkpt><trkpt lat="43.168259" lon="19.274534"><ele>884.9</ele><time>2012-04-29T13:03:45.0000000+00:00</time></trkpt><trkpt lat="43.168221" lon="19.274696"><ele>885.8</ele><time>2012-04-29T13:03:50.0000000+00:00</time></trkpt><trkpt lat="43.168198" lon="19.274881"><ele>886.6</ele><time>2012-04-29T13:03:55.0000000+00:00</time></trkpt><trkpt lat="43.168163" lon="19.274998"><ele>887.2</ele><time>2012-04-29T13:04:00.0000000+00:00</time></trkpt><trkpt lat="43.16811" lon="19.275095"><ele>886.5</ele><time>2012-04-29T13:04:05.0000000+00:00</time></trkpt><trkpt lat="43.168091" lon="19.275204"><ele>887.1</ele><time>2012-04-29T13:04:10.0000000+00:00</time></trkpt><trkpt lat="43.16814" lon="19.275232"><ele>888.4</ele><time>2012-04-29T13:04:15.0000000+00:00</time></trkpt><trkpt lat="43.168213" lon="19.275143"><ele>888.9</ele><time>2012-04-29T13:04:20.0000000+00:00</time></trkpt><trkpt lat="43.168301" lon="19.275057"><ele>889.5</ele><time>2012-04-29T13:04:25.0000000+00:00</time></trkpt><trkpt lat="43.168377" lon="19.274952"><ele>889.8</ele><time>2012-04-29T13:04:30.0000000+00:00</time></trkpt><trkpt lat="43.168434" lon="19.274868"><ele>890.1</ele><time>2012-04-29T13:04:35.0000000+00:00</time></trkpt><trkpt lat="43.168526" lon="19.274748"><ele>891.1</ele><time>2012-04-29T13:04:40.0000000+00:00</time></trkpt><trkpt lat="43.168552" lon="19.274717"><ele>890.7</ele><time>2012-04-29T13:04:45.0000000+00:00</time></trkpt><trkpt lat="43.168552" lon="19.274717"><ele>890.6</ele><time>2012-04-29T13:04:50.0000000+00:00</time></trkpt><trkpt lat="43.168552" lon="19.274717"><ele>890.6</ele><time>2012-04-29T13:04:55.0000000+00:00</time></trkpt><trkpt lat="43.168552" lon="19.274717"><ele>890.7</ele><time>2012-04-29T13:05:00.0000000+00:00</time></trkpt><trkpt lat="43.168552" lon="19.274717"><ele>890.7</ele><time>2012-04-29T13:05:05.0000000+00:00</time></trkpt><trkpt lat="43.168552" lon="19.274717"><ele>890.7</ele><time>2012-04-29T13:05:10.0000000+00:00</time></trkpt><trkpt lat="43.168552" lon="19.274717"><ele>890.7</ele><time>2012-04-29T13:05:15.0000000+00:00</time></trkpt><trkpt lat="43.168549" lon="19.274717"><ele>890.7</ele><time>2012-04-29T13:05:20.0000000+00:00</time></trkpt><trkpt lat="43.168549" lon="19.274717"><ele>890.7</ele><time>2012-04-29T13:05:25.0000000+00:00</time></trkpt><trkpt lat="43.168549" lon="19.274717"><ele>890.7</ele><time>2012-04-29T13:05:30.0000000+00:00</time></trkpt><trkpt lat="43.168549" lon="19.274717"><ele>890.7</ele><time>2012-04-29T13:05:35.0000000+00:00</time></trkpt><trkpt lat="43.168549" lon="19.274717"><ele>890.8</ele><time>2012-04-29T13:05:40.0000000+00:00</time></trkpt><trkpt lat="43.168549" lon="19.274717"><ele>890.8</ele><time>2012-04-29T13:05:45.0000000+00:00</time></trkpt><trkpt lat="43.168549" lon="19.274717"><ele>890.7</ele><time>2012-04-29T13:05:50.0000000+00:00</time></trkpt><trkpt lat="43.168549" lon="19.274717"><ele>890.7</ele><time>2012-04-29T13:05:55.0000000+00:00</time></trkpt><trkpt lat="43.168549" lon="19.274717"><ele>890.7</ele><time>2012-04-29T13:06:00.0000000+00:00</time></trkpt><trkpt lat="43.168549" lon="19.274717"><ele>890.7</ele><time>2012-04-29T13:06:05.0000000+00:00</time></trkpt><trkpt lat="43.168549" lon="19.274717"><ele>890.7</ele><time>2012-04-29T13:06:10.0000000+00:00</time></trkpt><trkpt lat="43.168549" lon="19.274717"><ele>890.6</ele><time>2012-04-29T13:06:15.0000000+00:00</time></trkpt><trkpt lat="43.168549" lon="19.274717"><ele>890.6</ele><time>2012-04-29T13:06:20.0000000+00:00</time></trkpt><trkpt lat="43.168549" lon="19.274717"><ele>890.6</ele><time>2012-04-29T13:06:25.0000000+00:00</time></trkpt><trkpt lat="43.168549" lon="19.274719"><ele>890.6</ele><time>2012-04-29T13:06:30.0000000+00:00</time></trkpt><trkpt lat="43.168552" lon="19.274719"><ele>890.6</ele><time>2012-04-29T13:06:35.0000000+00:00</time></trkpt><trkpt lat="43.168552" lon="19.274719"><ele>890.6</ele><time>2012-04-29T13:06:40.0000000+00:00</time></trkpt><trkpt lat="43.168552" lon="19.274719"><ele>890.6</ele><time>2012-04-29T13:06:45.0000000+00:00</time></trkpt><trkpt lat="43.168552" lon="19.274719"><ele>890.6</ele><time>2012-04-29T13:06:50.0000000+00:00</time></trkpt><trkpt lat="43.168552" lon="19.274719"><ele>890.6</ele><time>2012-04-29T13:06:55.0000000+00:00</time></trkpt><trkpt lat="43.168552" lon="19.274721"><ele>890.6</ele><time>2012-04-29T13:07:00.0000000+00:00</time></trkpt><trkpt lat="43.168552" lon="19.274721"><ele>890.5</ele><time>2012-04-29T13:07:05.0000000+00:00</time></trkpt><trkpt lat="43.168552" lon="19.274721"><ele>890.5</ele><time>2012-04-29T13:07:10.0000000+00:00</time></trkpt><trkpt lat="43.168552" lon="19.274721"><ele>890.5</ele><time>2012-04-29T13:07:15.0000000+00:00</time></trkpt><trkpt lat="43.168552" lon="19.274721"><ele>890.5</ele><time>2012-04-29T13:07:20.0000000+00:00</time></trkpt><trkpt lat="43.168552" lon="19.274721"><ele>890.5</ele><time>2012-04-29T13:07:25.0000000+00:00</time></trkpt><trkpt lat="43.168552" lon="19.274721"><ele>890.4</ele><time>2012-04-29T13:07:30.0000000+00:00</time></trkpt><trkpt lat="43.168552" lon="19.274721"><ele>890.4</ele><time>2012-04-29T13:07:35.0000000+00:00</time></trkpt><trkpt lat="43.168552" lon="19.274721"><ele>890.4</ele><time>2012-04-29T13:07:40.0000000+00:00</time></trkpt><trkpt lat="43.168552" lon="19.274721"><ele>890.4</ele><time>2012-04-29T13:07:45.0000000+00:00</time></trkpt><trkpt lat="43.168552" lon="19.274721"><ele>890.4</ele><time>2012-04-29T13:07:50.0000000+00:00</time></trkpt><trkpt lat="43.168552" lon="19.274721"><ele>890.4</ele><time>2012-04-29T13:07:55.0000000+00:00</time></trkpt><trkpt lat="43.168617" lon="19.274637"><ele>890.4</ele><time>2012-04-29T13:08:00.0000000+00:00</time></trkpt><trkpt lat="43.168713" lon="19.274504"><ele>891.3</ele><time>2012-04-29T13:08:05.0000000+00:00</time></trkpt><trkpt lat="43.168755" lon="19.274376"><ele>893.2</ele><time>2012-04-29T13:08:10.0000000+00:00</time></trkpt><trkpt lat="43.168819" lon="19.274302"><ele>893.2</ele><time>2012-04-29T13:08:15.0000000+00:00</time></trkpt><trkpt lat="43.168831" lon="19.27429"><ele>893.3</ele><time>2012-04-29T13:08:20.0000000+00:00</time></trkpt><trkpt lat="43.168896" lon="19.274191"><ele>895.2</ele><time>2012-04-29T13:08:25.0000000+00:00</time></trkpt><trkpt lat="43.168968" lon="19.274088"><ele>895.5</ele><time>2012-04-29T13:08:30.0000000+00:00</time></trkpt><trkpt lat="43.169029" lon="19.273991"><ele>895.4</ele><time>2012-04-29T13:08:35.0000000+00:00</time></trkpt><trkpt lat="43.169083" lon="19.273882"><ele>895.7</ele><time>2012-04-29T13:08:40.0000000+00:00</time></trkpt><trkpt lat="43.169136" lon="19.273766"><ele>896.2</ele><time>2012-04-29T13:08:45.0000000+00:00</time></trkpt><trkpt lat="43.169182" lon="19.273643"><ele>896.9</ele><time>2012-04-29T13:08:50.0000000+00:00</time></trkpt><trkpt lat="43.16922" lon="19.273502"><ele>899.1</ele><time>2012-04-29T13:08:55.0000000+00:00</time></trkpt><trkpt lat="43.169254" lon="19.273392"><ele>900.0</ele><time>2012-04-29T13:09:00.0000000+00:00</time></trkpt><trkpt lat="43.169308" lon="19.273296"><ele>901.1</ele><time>2012-04-29T13:09:05.0000000+00:00</time></trkpt><trkpt lat="43.169357" lon="19.273167"><ele>902.7</ele><time>2012-04-29T13:09:10.0000000+00:00</time></trkpt><trkpt lat="43.16943" lon="19.273014"><ele>904.7</ele><time>2012-04-29T13:09:15.0000000+00:00</time></trkpt><trkpt lat="43.169491" lon="19.272881"><ele>906.2</ele><time>2012-04-29T13:09:20.0000000+00:00</time></trkpt><trkpt lat="43.169544" lon="19.272774"><ele>907.6</ele><time>2012-04-29T13:09:25.0000000+00:00</time></trkpt><trkpt lat="43.169605" lon="19.272699"><ele>908.6</ele><time>2012-04-29T13:09:30.0000000+00:00</time></trkpt><trkpt lat="43.16967" lon="19.272614"><ele>909.3</ele><time>2012-04-29T13:09:35.0000000+00:00</time></trkpt><trkpt lat="43.169754" lon="19.272537"><ele>909.8</ele><time>2012-04-29T13:09:40.0000000+00:00</time></trkpt><trkpt lat="43.169842" lon="19.272469"><ele>910.6</ele><time>2012-04-29T13:09:45.0000000+00:00</time></trkpt><trkpt lat="43.169937" lon="19.272394"><ele>910.9</ele><time>2012-04-29T13:09:50.0000000+00:00</time></trkpt><trkpt lat="43.170029" lon="19.272329"><ele>911.8</ele><time>2012-04-29T13:09:55.0000000+00:00</time></trkpt><trkpt lat="43.170116" lon="19.272264"><ele>912.8</ele><time>2012-04-29T13:10:00.0000000+00:00</time></trkpt><trkpt lat="43.170189" lon="19.272207"><ele>913.7</ele><time>2012-04-29T13:10:05.0000000+00:00</time></trkpt><trkpt lat="43.170288" lon="19.272154"><ele>914.2</ele><time>2012-04-29T13:10:10.0000000+00:00</time></trkpt><trkpt lat="43.170391" lon="19.272123"><ele>914.6</ele><time>2012-04-29T13:10:15.0000000+00:00</time></trkpt><trkpt lat="43.170486" lon="19.272099"><ele>914.9</ele><time>2012-04-29T13:10:20.0000000+00:00</time></trkpt><trkpt lat="43.170601" lon="19.272015"><ele>916.9</ele><time>2012-04-29T13:10:25.0000000+00:00</time></trkpt><trkpt lat="43.170696" lon="19.271931"><ele>919.3</ele><time>2012-04-29T13:10:30.0000000+00:00</time></trkpt><trkpt lat="43.170788" lon="19.271837"><ele>921.6</ele><time>2012-04-29T13:10:35.0000000+00:00</time></trkpt><trkpt lat="43.170887" lon="19.271797"><ele>924.0</ele><time>2012-04-29T13:10:40.0000000+00:00</time></trkpt><trkpt lat="43.170971" lon="19.271734"><ele>925.6</ele><time>2012-04-29T13:10:45.0000000+00:00</time></trkpt><trkpt lat="43.171066" lon="19.271683"><ele>926.4</ele><time>2012-04-29T13:10:50.0000000+00:00</time></trkpt><trkpt lat="43.1712" lon="19.271658"><ele>927.4</ele><time>2012-04-29T13:10:55.0000000+00:00</time></trkpt><trkpt lat="43.171249" lon="19.271645"><ele>927.6</ele><time>2012-04-29T13:11:00.0000000+00:00</time></trkpt><trkpt lat="43.171368" lon="19.271624"><ele>927.9</ele><time>2012-04-29T13:11:05.0000000+00:00</time></trkpt><trkpt lat="43.171471" lon="19.271597"><ele>928.4</ele><time>2012-04-29T13:11:10.0000000+00:00</time></trkpt><trkpt lat="43.171581" lon="19.271563"><ele>928.4</ele><time>2012-04-29T13:11:15.0000000+00:00</time></trkpt><trkpt lat="43.17168" lon="19.27157"><ele>928.2</ele><time>2012-04-29T13:11:20.0000000+00:00</time></trkpt><trkpt lat="43.171795" lon="19.271605"><ele>928.9</ele><time>2012-04-29T13:11:25.0000000+00:00</time></trkpt><trkpt lat="43.171894" lon="19.271633"><ele>929.3</ele><time>2012-04-29T13:11:30.0000000+00:00</time></trkpt><trkpt lat="43.171986" lon="19.271637"><ele>929.8</ele><time>2012-04-29T13:11:35.0000000+00:00</time></trkpt><trkpt lat="43.172119" lon="19.271517"><ele>931.4</ele><time>2012-04-29T13:11:40.0000000+00:00</time></trkpt><trkpt lat="43.172195" lon="19.271374"><ele>930.6</ele><time>2012-04-29T13:11:45.0000000+00:00</time></trkpt><trkpt lat="43.172276" lon="19.271246"><ele>931.1</ele><time>2012-04-29T13:11:50.0000000+00:00</time></trkpt><trkpt lat="43.172359" lon="19.271141"><ele>932.0</ele><time>2012-04-29T13:11:55.0000000+00:00</time></trkpt><trkpt lat="43.17247" lon="19.271067"><ele>933.9</ele><time>2012-04-29T13:12:00.0000000+00:00</time></trkpt><trkpt lat="43.172588" lon="19.271044"><ele>934.2</ele><time>2012-04-29T13:12:05.0000000+00:00</time></trkpt><trkpt lat="43.172691" lon="19.271025"><ele>935.2</ele><time>2012-04-29T13:12:10.0000000+00:00</time></trkpt><trkpt lat="43.172775" lon="19.271"><ele>936.1</ele><time>2012-04-29T13:12:15.0000000+00:00</time></trkpt><trkpt lat="43.172878" lon="19.27096"><ele>937.8</ele><time>2012-04-29T13:12:20.0000000+00:00</time></trkpt><trkpt lat="43.172985" lon="19.270926"><ele>936.9</ele><time>2012-04-29T13:12:25.0000000+00:00</time></trkpt><trkpt lat="43.173092" lon="19.270895"><ele>936.7</ele><time>2012-04-29T13:12:30.0000000+00:00</time></trkpt><trkpt lat="43.173191" lon="19.270882"><ele>936.6</ele><time>2012-04-29T13:12:35.0000000+00:00</time></trkpt><trkpt lat="43.173275" lon="19.270897"><ele>936.4</ele><time>2012-04-29T13:12:40.0000000+00:00</time></trkpt><trkpt lat="43.173351" lon="19.270927"><ele>935.9</ele><time>2012-04-29T13:12:45.0000000+00:00</time></trkpt><trkpt lat="43.173416" lon="19.270906"><ele>936.7</ele><time>2012-04-29T13:12:50.0000000+00:00</time></trkpt><trkpt lat="43.173485" lon="19.270872"><ele>941.1</ele><time>2012-04-29T13:12:55.0000000+00:00</time></trkpt><trkpt lat="43.173534" lon="19.270838"><ele>943.8</ele><time>2012-04-29T13:13:00.0000000+00:00</time></trkpt><trkpt lat="43.173569" lon="19.270748"><ele>943.6</ele><time>2012-04-29T13:13:05.0000000+00:00</time></trkpt><trkpt lat="43.173611" lon="19.270653"><ele>945.4</ele><time>2012-04-29T13:13:10.0000000+00:00</time></trkpt><trkpt lat="43.173668" lon="19.270571"><ele>947.3</ele><time>2012-04-29T13:13:15.0000000+00:00</time></trkpt><trkpt lat="43.173721" lon="19.270496"><ele>948.8</ele><time>2012-04-29T13:13:20.0000000+00:00</time></trkpt><trkpt lat="43.173779" lon="19.270428"><ele>949.9</ele><time>2012-04-29T13:13:25.0000000+00:00</time></trkpt><trkpt lat="43.173836" lon="19.270361"><ele>950.3</ele><time>2012-04-29T13:13:30.0000000+00:00</time></trkpt><trkpt lat="43.173893" lon="19.270306"><ele>952.0</ele><time>2012-04-29T13:13:35.0000000+00:00</time></trkpt><trkpt lat="43.173965" lon="19.270235"><ele>953.6</ele><time>2012-04-29T13:13:40.0000000+00:00</time></trkpt><trkpt lat="43.174046" lon="19.270176"><ele>954.4</ele><time>2012-04-29T13:13:45.0000000+00:00</time></trkpt><trkpt lat="43.174126" lon="19.270124"><ele>956.2</ele><time>2012-04-29T13:13:50.0000000+00:00</time></trkpt><trkpt lat="43.174202" lon="19.270065"><ele>958.0</ele><time>2012-04-29T13:13:55.0000000+00:00</time></trkpt><trkpt lat="43.174274" lon="19.269987"><ele>959.7</ele><time>2012-04-29T13:14:00.0000000+00:00</time></trkpt><trkpt lat="43.174366" lon="19.269928"><ele>962.2</ele><time>2012-04-29T13:14:05.0000000+00:00</time></trkpt><trkpt lat="43.174465" lon="19.269928"><ele>963.9</ele><time>2012-04-29T13:14:10.0000000+00:00</time></trkpt><trkpt lat="43.174564" lon="19.269955"><ele>963.7</ele><time>2012-04-29T13:14:15.0000000+00:00</time></trkpt><trkpt lat="43.174679" lon="19.269976"><ele>963.1</ele><time>2012-04-29T13:14:20.0000000+00:00</time></trkpt><trkpt lat="43.174744" lon="19.269981"><ele>966.2</ele><time>2012-04-29T13:14:25.0000000+00:00</time></trkpt><trkpt lat="43.174831" lon="19.26997"><ele>968.4</ele><time>2012-04-29T13:14:30.0000000+00:00</time></trkpt><trkpt lat="43.174946" lon="19.269884"><ele>971.7</ele><time>2012-04-29T13:14:35.0000000+00:00</time></trkpt><trkpt lat="43.175068" lon="19.269791"><ele>974.7</ele><time>2012-04-29T13:14:40.0000000+00:00</time></trkpt><trkpt lat="43.175167" lon="19.269711"><ele>976.2</ele><time>2012-04-29T13:14:45.0000000+00:00</time></trkpt><trkpt lat="43.175278" lon="19.269617"><ele>977.0</ele><time>2012-04-29T13:14:50.0000000+00:00</time></trkpt><trkpt lat="43.175392" lon="19.269604"><ele>976.9</ele><time>2012-04-29T13:14:55.0000000+00:00</time></trkpt><trkpt lat="43.175457" lon="19.269558"><ele>976.1</ele><time>2012-04-29T13:15:00.0000000+00:00</time></trkpt><trkpt lat="43.175522" lon="19.269543"><ele>974.6</ele><time>2012-04-29T13:15:05.0000000+00:00</time></trkpt><trkpt lat="43.175564" lon="19.26952"><ele>973.3</ele><time>2012-04-29T13:15:10.0000000+00:00</time></trkpt><trkpt lat="43.175632" lon="19.269497"><ele>972.6</ele><time>2012-04-29T13:15:15.0000000+00:00</time></trkpt><trkpt lat="43.175713" lon="19.269449"><ele>970.2</ele><time>2012-04-29T13:15:20.0000000+00:00</time></trkpt><trkpt lat="43.175762" lon="19.269382"><ele>970.1</ele><time>2012-04-29T13:15:25.0000000+00:00</time></trkpt><trkpt lat="43.175781" lon="19.269289"><ele>972.1</ele><time>2012-04-29T13:15:30.0000000+00:00</time></trkpt><trkpt lat="43.175827" lon="19.269207"><ele>974.4</ele><time>2012-04-29T13:15:35.0000000+00:00</time></trkpt><trkpt lat="43.1759" lon="19.26914"><ele>976.3</ele><time>2012-04-29T13:15:40.0000000+00:00</time></trkpt><trkpt lat="43.175999" lon="19.2691"><ele>976.9</ele><time>2012-04-29T13:15:45.0000000+00:00</time></trkpt><trkpt lat="43.176136" lon="19.269091"><ele>979.5</ele><time>2012-04-29T13:15:50.0000000+00:00</time></trkpt><trkpt lat="43.176281" lon="19.269056"><ele>981.6</ele><time>2012-04-29T13:15:55.0000000+00:00</time></trkpt><trkpt lat="43.176434" lon="19.26903"><ele>982.8</ele><time>2012-04-29T13:16:00.0000000+00:00</time></trkpt><trkpt lat="43.176571" lon="19.268986"><ele>984.1</ele><time>2012-04-29T13:16:05.0000000+00:00</time></trkpt><trkpt lat="43.176659" lon="19.26886"><ele>985.0</ele><time>2012-04-29T13:16:10.0000000+00:00</time></trkpt><trkpt lat="43.176701" lon="19.268681"><ele>986.1</ele><time>2012-04-29T13:16:15.0000000+00:00</time></trkpt><trkpt lat="43.176788" lon="19.268496"><ele>986.1</ele><time>2012-04-29T13:16:20.0000000+00:00</time></trkpt><trkpt lat="43.176849" lon="19.268358"><ele>986.8</ele><time>2012-04-29T13:16:25.0000000+00:00</time></trkpt><trkpt lat="43.176945" lon="19.268286"><ele>987.7</ele><time>2012-04-29T13:16:30.0000000+00:00</time></trkpt><trkpt lat="43.177059" lon="19.268293"><ele>988.4</ele><time>2012-04-29T13:16:35.0000000+00:00</time></trkpt><trkpt lat="43.177139" lon="19.268328"><ele>988.4</ele><time>2012-04-29T13:16:40.0000000+00:00</time></trkpt><trkpt lat="43.177231" lon="19.268391"><ele>985.9</ele><time>2012-04-29T13:16:45.0000000+00:00</time></trkpt><trkpt lat="43.177319" lon="19.268505"><ele>986.0</ele><time>2012-04-29T13:16:50.0000000+00:00</time></trkpt><trkpt lat="43.17741" lon="19.268587"><ele>985.4</ele><time>2012-04-29T13:16:55.0000000+00:00</time></trkpt><trkpt lat="43.177502" lon="19.268591"><ele>984.4</ele><time>2012-04-29T13:17:00.0000000+00:00</time></trkpt><trkpt lat="43.177605" lon="19.268572"><ele>987.0</ele><time>2012-04-29T13:17:05.0000000+00:00</time></trkpt><trkpt lat="43.177719" lon="19.268606"><ele>987.8</ele><time>2012-04-29T13:17:10.0000000+00:00</time></trkpt><trkpt lat="43.177834" lon="19.268673"><ele>988.4</ele><time>2012-04-29T13:17:15.0000000+00:00</time></trkpt><trkpt lat="43.177902" lon="19.268761"><ele>988.8</ele><time>2012-04-29T13:17:20.0000000+00:00</time></trkpt><trkpt lat="43.177975" lon="19.26882"><ele>989.4</ele><time>2012-04-29T13:17:25.0000000+00:00</time></trkpt><trkpt lat="43.178104" lon="19.268894"><ele>988.4</ele><time>2012-04-29T13:17:30.0000000+00:00</time></trkpt><trkpt lat="43.178226" lon="19.268982"><ele>988.4</ele><time>2012-04-29T13:17:35.0000000+00:00</time></trkpt><trkpt lat="43.17836" lon="19.269083"><ele>988.5</ele><time>2012-04-29T13:17:40.0000000+00:00</time></trkpt><trkpt lat="43.178497" lon="19.269199"><ele>989.3</ele><time>2012-04-29T13:17:45.0000000+00:00</time></trkpt><trkpt lat="43.178619" lon="19.269255"><ele>988.9</ele><time>2012-04-29T13:17:50.0000000+00:00</time></trkpt><trkpt lat="43.17878" lon="19.269272"><ele>989.1</ele><time>2012-04-29T13:17:55.0000000+00:00</time></trkpt><trkpt lat="43.178921" lon="19.269238"><ele>988.5</ele><time>2012-04-29T13:18:00.0000000+00:00</time></trkpt><trkpt lat="43.178993" lon="19.269209"><ele>987.5</ele><time>2012-04-29T13:18:05.0000000+00:00</time></trkpt><trkpt lat="43.1791" lon="19.269171"><ele>986.6</ele><time>2012-04-29T13:18:10.0000000+00:00</time></trkpt><trkpt lat="43.179211" lon="19.269184"><ele>986.1</ele><time>2012-04-29T13:18:15.0000000+00:00</time></trkpt><trkpt lat="43.17923" lon="19.269241"><ele>986.3</ele><time>2012-04-29T13:18:20.0000000+00:00</time></trkpt><trkpt lat="43.179211" lon="19.269255"><ele>986.3</ele><time>2012-04-29T13:18:25.0000000+00:00</time></trkpt><trkpt lat="43.179211" lon="19.269257"><ele>986.3</ele><time>2012-04-29T13:18:30.0000000+00:00</time></trkpt><trkpt lat="43.179211" lon="19.269257"><ele>986.3</ele><time>2012-04-29T13:18:35.0000000+00:00</time></trkpt><trkpt lat="43.179211" lon="19.269257"><ele>986.2</ele><time>2012-04-29T13:18:40.0000000+00:00</time></trkpt><trkpt lat="43.179211" lon="19.269257"><ele>986.2</ele><time>2012-04-29T13:18:45.0000000+00:00</time></trkpt><trkpt lat="43.179211" lon="19.269258"><ele>986.2</ele><time>2012-04-29T13:18:50.0000000+00:00</time></trkpt><trkpt lat="43.179211" lon="19.269258"><ele>986.2</ele><time>2012-04-29T13:18:55.0000000+00:00</time></trkpt><trkpt lat="43.179211" lon="19.269258"><ele>986.2</ele><time>2012-04-29T13:19:00.0000000+00:00</time></trkpt><trkpt lat="43.179211" lon="19.269258"><ele>986.2</ele><time>2012-04-29T13:19:05.0000000+00:00</time></trkpt><trkpt lat="43.179211" lon="19.269258"><ele>986.2</ele><time>2012-04-29T13:19:10.0000000+00:00</time></trkpt><trkpt lat="43.179211" lon="19.269258"><ele>986.2</ele><time>2012-04-29T13:19:15.0000000+00:00</time></trkpt><trkpt lat="43.179211" lon="19.269258"><ele>986.1</ele><time>2012-04-29T13:19:20.0000000+00:00</time></trkpt><trkpt lat="43.179207" lon="19.269258"><ele>986.1</ele><time>2012-04-29T13:19:25.0000000+00:00</time></trkpt><trkpt lat="43.179207" lon="19.269258"><ele>986.1</ele><time>2012-04-29T13:19:30.0000000+00:00</time></trkpt><trkpt lat="43.179207" lon="19.269258"><ele>986.1</ele><time>2012-04-29T13:19:35.0000000+00:00</time></trkpt><trkpt lat="43.179207" lon="19.269258"><ele>986.1</ele><time>2012-04-29T13:19:40.0000000+00:00</time></trkpt><trkpt lat="43.179207" lon="19.269258"><ele>986.1</ele><time>2012-04-29T13:19:45.0000000+00:00</time></trkpt><trkpt lat="43.179207" lon="19.269258"><ele>986.1</ele><time>2012-04-29T13:19:50.0000000+00:00</time></trkpt><trkpt lat="43.179207" lon="19.269258"><ele>986.1</ele><time>2012-04-29T13:19:55.0000000+00:00</time></trkpt><trkpt lat="43.179207" lon="19.269258"><ele>986.1</ele><time>2012-04-29T13:20:00.0000000+00:00</time></trkpt><trkpt lat="43.179207" lon="19.269257"><ele>986.2</ele><time>2012-04-29T13:20:05.0000000+00:00</time></trkpt><trkpt lat="43.179207" lon="19.269257"><ele>986.2</ele><time>2012-04-29T13:20:10.0000000+00:00</time></trkpt><trkpt lat="43.179207" lon="19.269257"><ele>986.2</ele><time>2012-04-29T13:20:15.0000000+00:00</time></trkpt><trkpt lat="43.179207" lon="19.269257"><ele>986.2</ele><time>2012-04-29T13:20:20.0000000+00:00</time></trkpt><trkpt lat="43.179207" lon="19.269255"><ele>986.2</ele><time>2012-04-29T13:20:25.0000000+00:00</time></trkpt><trkpt lat="43.179207" lon="19.269255"><ele>986.2</ele><time>2012-04-29T13:20:30.0000000+00:00</time></trkpt><trkpt lat="43.179207" lon="19.269255"><ele>986.2</ele><time>2012-04-29T13:20:35.0000000+00:00</time></trkpt><trkpt lat="43.179203" lon="19.269255"><ele>986.2</ele><time>2012-04-29T13:20:40.0000000+00:00</time></trkpt><trkpt lat="43.179203" lon="19.269253"><ele>986.2</ele><time>2012-04-29T13:20:45.0000000+00:00</time></trkpt><trkpt lat="43.179203" lon="19.269253"><ele>986.3</ele><time>2012-04-29T13:20:50.0000000+00:00</time></trkpt><trkpt lat="43.179203" lon="19.269253"><ele>986.3</ele><time>2012-04-29T13:20:55.0000000+00:00</time></trkpt><trkpt lat="43.179203" lon="19.269251"><ele>986.3</ele><time>2012-04-29T13:21:00.0000000+00:00</time></trkpt><trkpt lat="43.179203" lon="19.269251"><ele>986.3</ele><time>2012-04-29T13:21:05.0000000+00:00</time></trkpt><trkpt lat="43.179203" lon="19.269251"><ele>986.4</ele><time>2012-04-29T13:21:10.0000000+00:00</time></trkpt><trkpt lat="43.179203" lon="19.269251"><ele>986.4</ele><time>2012-04-29T13:21:15.0000000+00:00</time></trkpt><trkpt lat="43.179203" lon="19.269251"><ele>986.4</ele><time>2012-04-29T13:21:20.0000000+00:00</time></trkpt><trkpt lat="43.179203" lon="19.269251"><ele>986.4</ele><time>2012-04-29T13:21:25.0000000+00:00</time></trkpt><trkpt lat="43.179203" lon="19.269249"><ele>986.5</ele><time>2012-04-29T13:21:30.0000000+00:00</time></trkpt><trkpt lat="43.179203" lon="19.269249"><ele>986.5</ele><time>2012-04-29T13:21:35.0000000+00:00</time></trkpt><trkpt lat="43.179203" lon="19.269249"><ele>986.6</ele><time>2012-04-29T13:21:40.0000000+00:00</time></trkpt><trkpt lat="43.179203" lon="19.269249"><ele>986.6</ele><time>2012-04-29T13:21:45.0000000+00:00</time></trkpt><trkpt lat="43.179203" lon="19.269249"><ele>986.6</ele><time>2012-04-29T13:21:50.0000000+00:00</time></trkpt><trkpt lat="43.179203" lon="19.269249"><ele>986.6</ele><time>2012-04-29T13:21:55.0000000+00:00</time></trkpt><trkpt lat="43.179203" lon="19.269247"><ele>986.7</ele><time>2012-04-29T13:22:00.0000000+00:00</time></trkpt><trkpt lat="43.179203" lon="19.269247"><ele>986.7</ele><time>2012-04-29T13:22:05.0000000+00:00</time></trkpt><trkpt lat="43.179203" lon="19.269247"><ele>986.7</ele><time>2012-04-29T13:22:10.0000000+00:00</time></trkpt><trkpt lat="43.179203" lon="19.269247"><ele>986.7</ele><time>2012-04-29T13:22:15.0000000+00:00</time></trkpt><trkpt lat="43.179203" lon="19.269247"><ele>986.6</ele><time>2012-04-29T13:22:20.0000000+00:00</time></trkpt><trkpt lat="43.179203" lon="19.269247"><ele>986.6</ele><time>2012-04-29T13:22:25.0000000+00:00</time></trkpt><trkpt lat="43.179203" lon="19.269247"><ele>986.6</ele><time>2012-04-29T13:22:30.0000000+00:00</time></trkpt><trkpt lat="43.179199" lon="19.269247"><ele>986.6</ele><time>2012-04-29T13:22:35.0000000+00:00</time></trkpt><trkpt lat="43.179199" lon="19.269249"><ele>986.6</ele><time>2012-04-29T13:22:40.0000000+00:00</time></trkpt><trkpt lat="43.179199" lon="19.269249"><ele>986.7</ele><time>2012-04-29T13:22:45.0000000+00:00</time></trkpt><trkpt lat="43.179199" lon="19.269249"><ele>986.7</ele><time>2012-04-29T13:22:50.0000000+00:00</time></trkpt><trkpt lat="43.179199" lon="19.269249"><ele>986.7</ele><time>2012-04-29T13:22:55.0000000+00:00</time></trkpt><trkpt lat="43.179199" lon="19.269249"><ele>986.7</ele><time>2012-04-29T13:23:00.0000000+00:00</time></trkpt><trkpt lat="43.179199" lon="19.269247"><ele>986.7</ele><time>2012-04-29T13:23:05.0000000+00:00</time></trkpt><trkpt lat="43.179199" lon="19.269247"><ele>986.8</ele><time>2012-04-29T13:23:10.0000000+00:00</time></trkpt><trkpt lat="43.179199" lon="19.269247"><ele>986.8</ele><time>2012-04-29T13:23:15.0000000+00:00</time></trkpt><trkpt lat="43.179199" lon="19.269247"><ele>986.8</ele><time>2012-04-29T13:23:20.0000000+00:00</time></trkpt><trkpt lat="43.179199" lon="19.269247"><ele>986.8</ele><time>2012-04-29T13:23:25.0000000+00:00</time></trkpt><trkpt lat="43.179199" lon="19.269247"><ele>986.8</ele><time>2012-04-29T13:23:30.0000000+00:00</time></trkpt><trkpt lat="43.179199" lon="19.269247"><ele>986.9</ele><time>2012-04-29T13:23:35.0000000+00:00</time></trkpt><trkpt lat="43.179199" lon="19.269247"><ele>986.9</ele><time>2012-04-29T13:23:40.0000000+00:00</time></trkpt><trkpt lat="43.179199" lon="19.269247"><ele>987.0</ele><time>2012-04-29T13:23:45.0000000+00:00</time></trkpt><trkpt lat="43.179199" lon="19.269247"><ele>987.0</ele><time>2012-04-29T13:23:50.0000000+00:00</time></trkpt><trkpt lat="43.179199" lon="19.269247"><ele>987.1</ele><time>2012-04-29T13:23:55.0000000+00:00</time></trkpt><trkpt lat="43.179199" lon="19.269247"><ele>987.1</ele><time>2012-04-29T13:24:00.0000000+00:00</time></trkpt><trkpt lat="43.179199" lon="19.269247"><ele>987.2</ele><time>2012-04-29T13:24:05.0000000+00:00</time></trkpt><trkpt lat="43.179199" lon="19.269247"><ele>987.3</ele><time>2012-04-29T13:24:10.0000000+00:00</time></trkpt><trkpt lat="43.179199" lon="19.269247"><ele>987.4</ele><time>2012-04-29T13:24:15.0000000+00:00</time></trkpt><trkpt lat="43.179199" lon="19.269247"><ele>987.4</ele><time>2012-04-29T13:24:20.0000000+00:00</time></trkpt><trkpt lat="43.179199" lon="19.269247"><ele>987.5</ele><time>2012-04-29T13:24:25.0000000+00:00</time></trkpt><trkpt lat="43.179199" lon="19.269245"><ele>987.6</ele><time>2012-04-29T13:24:30.0000000+00:00</time></trkpt><trkpt lat="43.179199" lon="19.269245"><ele>987.6</ele><time>2012-04-29T13:24:35.0000000+00:00</time></trkpt><trkpt lat="43.179199" lon="19.269245"><ele>987.7</ele><time>2012-04-29T13:24:40.0000000+00:00</time></trkpt><trkpt lat="43.179199" lon="19.269245"><ele>987.7</ele><time>2012-04-29T13:24:45.0000000+00:00</time></trkpt><trkpt lat="43.179199" lon="19.269245"><ele>987.7</ele><time>2012-04-29T13:24:50.0000000+00:00</time></trkpt><trkpt lat="43.179199" lon="19.269245"><ele>987.7</ele><time>2012-04-29T13:24:55.0000000+00:00</time></trkpt><trkpt lat="43.179199" lon="19.269245"><ele>987.7</ele><time>2012-04-29T13:25:00.0000000+00:00</time></trkpt><trkpt lat="43.179199" lon="19.269245"><ele>987.7</ele><time>2012-04-29T13:25:05.0000000+00:00</time></trkpt><trkpt lat="43.179199" lon="19.269245"><ele>987.8</ele><time>2012-04-29T13:25:10.0000000+00:00</time></trkpt><trkpt lat="43.179199" lon="19.269245"><ele>987.8</ele><time>2012-04-29T13:25:15.0000000+00:00</time></trkpt><trkpt lat="43.179199" lon="19.269245"><ele>987.8</ele><time>2012-04-29T13:25:20.0000000+00:00</time></trkpt><trkpt lat="43.179199" lon="19.269245"><ele>987.7</ele><time>2012-04-29T13:25:25.0000000+00:00</time></trkpt><trkpt lat="43.179199" lon="19.269245"><ele>987.7</ele><time>2012-04-29T13:25:30.0000000+00:00</time></trkpt><trkpt lat="43.179199" lon="19.269245"><ele>987.7</ele><time>2012-04-29T13:25:35.0000000+00:00</time></trkpt><trkpt lat="43.179245" lon="19.269356"><ele>989.5</ele><time>2012-04-29T13:25:40.0000000+00:00</time></trkpt><trkpt lat="43.179451" lon="19.269537"><ele>986.8</ele><time>2012-04-29T13:25:45.0000000+00:00</time></trkpt><trkpt lat="43.179783" lon="19.269609"><ele>984.4</ele><time>2012-04-29T13:25:50.0000000+00:00</time></trkpt><trkpt lat="43.180191" lon="19.269842"><ele>980.9</ele><time>2012-04-29T13:25:55.0000000+00:00</time></trkpt><trkpt lat="43.180626" lon="19.27002"><ele>980.8</ele><time>2012-04-29T13:26:00.0000000+00:00</time></trkpt><trkpt lat="43.180683" lon="19.270229"><ele>983.8</ele><time>2012-04-29T13:26:05.0000000+00:00</time></trkpt><trkpt lat="43.180664" lon="19.270384"><ele>984.8</ele><time>2012-04-29T13:26:10.0000000+00:00</time></trkpt><trkpt lat="43.180595" lon="19.270571"><ele>985.2</ele><time>2012-04-29T13:26:15.0000000+00:00</time></trkpt><trkpt lat="43.180553" lon="19.27071"><ele>984.8</ele><time>2012-04-29T13:26:20.0000000+00:00</time></trkpt><trkpt lat="43.180531" lon="19.270947"><ele>984.1</ele><time>2012-04-29T13:26:25.0000000+00:00</time></trkpt><trkpt lat="43.180576" lon="19.271166"><ele>984.1</ele><time>2012-04-29T13:26:30.0000000+00:00</time></trkpt><trkpt lat="43.18063" lon="19.271393"><ele>983.6</ele><time>2012-04-29T13:26:35.0000000+00:00</time></trkpt><trkpt lat="43.180626" lon="19.271652"><ele>982.7</ele><time>2012-04-29T13:26:40.0000000+00:00</time></trkpt><trkpt lat="43.18066" lon="19.271904"><ele>982.8</ele><time>2012-04-29T13:26:45.0000000+00:00</time></trkpt><trkpt lat="43.180634" lon="19.272165"><ele>983.8</ele><time>2012-04-29T13:26:50.0000000+00:00</time></trkpt><trkpt lat="43.180626" lon="19.272379"><ele>984.1</ele><time>2012-04-29T13:26:55.0000000+00:00</time></trkpt><trkpt lat="43.180695" lon="19.272608"><ele>986.5</ele><time>2012-04-29T13:27:00.0000000+00:00</time></trkpt><trkpt lat="43.180687" lon="19.272825"><ele>986.9</ele><time>2012-04-29T13:27:05.0000000+00:00</time></trkpt><trkpt lat="43.180653" lon="19.273066"><ele>985.3</ele><time>2012-04-29T13:27:10.0000000+00:00</time></trkpt><trkpt lat="43.180569" lon="19.273428"><ele>985.4</ele><time>2012-04-29T13:27:15.0000000+00:00</time></trkpt><trkpt lat="43.180573" lon="19.273663"><ele>986.5</ele><time>2012-04-29T13:27:20.0000000+00:00</time></trkpt><trkpt lat="43.180561" lon="19.273819"><ele>987.2</ele><time>2012-04-29T13:27:25.0000000+00:00</time></trkpt><trkpt lat="43.180603" lon="19.273956"><ele>989.2</ele><time>2012-04-29T13:27:30.0000000+00:00</time></trkpt><trkpt lat="43.180622" lon="19.27408"><ele>991.1</ele><time>2012-04-29T13:27:35.0000000+00:00</time></trkpt><trkpt lat="43.180714" lon="19.274155"><ele>991.7</ele><time>2012-04-29T13:27:40.0000000+00:00</time></trkpt><trkpt lat="43.180801" lon="19.274199"><ele>994.2</ele><time>2012-04-29T13:27:45.0000000+00:00</time></trkpt><trkpt lat="43.180908" lon="19.2742"><ele>996.2</ele><time>2012-04-29T13:27:50.0000000+00:00</time></trkpt><trkpt lat="43.181011" lon="19.274216"><ele>997.8</ele><time>2012-04-29T13:27:55.0000000+00:00</time></trkpt><trkpt lat="43.181091" lon="19.274254"><ele>997.8</ele><time>2012-04-29T13:28:00.0000000+00:00</time></trkpt><trkpt lat="43.181171" lon="19.27433"><ele>997.3</ele><time>2012-04-29T13:28:05.0000000+00:00</time></trkpt><trkpt lat="43.181255" lon="19.274422"><ele>996.6</ele><time>2012-04-29T13:28:10.0000000+00:00</time></trkpt><trkpt lat="43.181366" lon="19.27453"><ele>997.6</ele><time>2012-04-29T13:28:15.0000000+00:00</time></trkpt><trkpt lat="43.181469" lon="19.274633"><ele>998.7</ele><time>2012-04-29T13:28:20.0000000+00:00</time></trkpt><trkpt lat="43.181583" lon="19.274696"><ele>1002.3</ele><time>2012-04-29T13:28:25.0000000+00:00</time></trkpt><trkpt lat="43.181671" lon="19.274773"><ele>1004.7</ele><time>2012-04-29T13:28:30.0000000+00:00</time></trkpt><trkpt lat="43.181728" lon="19.274874"><ele>1006.3</ele><time>2012-04-29T13:28:35.0000000+00:00</time></trkpt><trkpt lat="43.181782" lon="19.274971"><ele>1008.6</ele><time>2012-04-29T13:28:40.0000000+00:00</time></trkpt><trkpt lat="43.181786" lon="19.27508"><ele>1009.0</ele><time>2012-04-29T13:28:45.0000000+00:00</time></trkpt><trkpt lat="43.181812" lon="19.275173"><ele>1010.5</ele><time>2012-04-29T13:28:50.0000000+00:00</time></trkpt><trkpt lat="43.181839" lon="19.27529"><ele>1010.8</ele><time>2012-04-29T13:28:55.0000000+00:00</time></trkpt><trkpt lat="43.18185" lon="19.275457"><ele>1011.2</ele><time>2012-04-29T13:29:00.0000000+00:00</time></trkpt><trkpt lat="43.181877" lon="19.275688"><ele>1010.5</ele><time>2012-04-29T13:29:05.0000000+00:00</time></trkpt><trkpt lat="43.181919" lon="19.275854"><ele>1011.0</ele><time>2012-04-29T13:29:10.0000000+00:00</time></trkpt><trkpt lat="43.181999" lon="19.276012"><ele>1010.2</ele><time>2012-04-29T13:29:15.0000000+00:00</time></trkpt><trkpt lat="43.182068" lon="19.276104"><ele>1010.9</ele><time>2012-04-29T13:29:20.0000000+00:00</time></trkpt><trkpt lat="43.182137" lon="19.276205"><ele>1012.1</ele><time>2012-04-29T13:29:25.0000000+00:00</time></trkpt><trkpt lat="43.18222" lon="19.276283"><ele>1014.5</ele><time>2012-04-29T13:29:30.0000000+00:00</time></trkpt><trkpt lat="43.18227" lon="19.276354"><ele>1015.6</ele><time>2012-04-29T13:29:35.0000000+00:00</time></trkpt><trkpt lat="43.182316" lon="19.27643"><ele>1015.8</ele><time>2012-04-29T13:29:40.0000000+00:00</time></trkpt><trkpt lat="43.182358" lon="19.276497"><ele>1015.9</ele><time>2012-04-29T13:29:45.0000000+00:00</time></trkpt><trkpt lat="43.182419" lon="19.27656"><ele>1015.9</ele><time>2012-04-29T13:29:50.0000000+00:00</time></trkpt><trkpt lat="43.182499" lon="19.276628"><ele>1017.6</ele><time>2012-04-29T13:29:55.0000000+00:00</time></trkpt><trkpt lat="43.182594" lon="19.276697"><ele>1018.6</ele><time>2012-04-29T13:30:00.0000000+00:00</time></trkpt><trkpt lat="43.182674" lon="19.276752"><ele>1020.8</ele><time>2012-04-29T13:30:05.0000000+00:00</time></trkpt><trkpt lat="43.182762" lon="19.276794"><ele>1022.0</ele><time>2012-04-29T13:30:10.0000000+00:00</time></trkpt><trkpt lat="43.182854" lon="19.276827"><ele>1023.6</ele><time>2012-04-29T13:30:15.0000000+00:00</time></trkpt><trkpt lat="43.182945" lon="19.276852"><ele>1024.4</ele><time>2012-04-29T13:30:20.0000000+00:00</time></trkpt><trkpt lat="43.183025" lon="19.276859"><ele>1026.0</ele><time>2012-04-29T13:30:25.0000000+00:00</time></trkpt><trkpt lat="43.183079" lon="19.276867"><ele>1026.9</ele><time>2012-04-29T13:30:30.0000000+00:00</time></trkpt><trkpt lat="43.183155" lon="19.276863"><ele>1027.3</ele><time>2012-04-29T13:30:35.0000000+00:00</time></trkpt><trkpt lat="43.183289" lon="19.27685"><ele>1025.2</ele><time>2012-04-29T13:30:40.0000000+00:00</time></trkpt><trkpt lat="43.183392" lon="19.276833"><ele>1024.6</ele><time>2012-04-29T13:30:45.0000000+00:00</time></trkpt><trkpt lat="43.183475" lon="19.276827"><ele>1024.4</ele><time>2012-04-29T13:30:50.0000000+00:00</time></trkpt><trkpt lat="43.183594" lon="19.2768"><ele>1023.5</ele><time>2012-04-29T13:30:55.0000000+00:00</time></trkpt><trkpt lat="43.183731" lon="19.276798"><ele>1023.2</ele><time>2012-04-29T13:31:00.0000000+00:00</time></trkpt><trkpt lat="43.183926" lon="19.276899"><ele>1021.2</ele><time>2012-04-29T13:31:05.0000000+00:00</time></trkpt><trkpt lat="43.184105" lon="19.27717"><ele>1019.4</ele><time>2012-04-29T13:31:10.0000000+00:00</time></trkpt><trkpt lat="43.184238" lon="19.277388"><ele>1017.3</ele><time>2012-04-29T13:31:15.0000000+00:00</time></trkpt><trkpt lat="43.184475" lon="19.277542"><ele>1015.7</ele><time>2012-04-29T13:31:20.0000000+00:00</time></trkpt><trkpt lat="43.184723" lon="19.277634"><ele>1013.5</ele><time>2012-04-29T13:31:25.0000000+00:00</time></trkpt><trkpt lat="43.184872" lon="19.277754"><ele>1011.1</ele><time>2012-04-29T13:31:30.0000000+00:00</time></trkpt><trkpt lat="43.184959" lon="19.277945"><ele>1009.3</ele><time>2012-04-29T13:31:35.0000000+00:00</time></trkpt><trkpt lat="43.184982" lon="19.278011"><ele>1008.0</ele><time>2012-04-29T13:31:40.0000000+00:00</time></trkpt><trkpt lat="43.184982" lon="19.278015"><ele>1007.6</ele><time>2012-04-29T13:31:45.0000000+00:00</time></trkpt><trkpt lat="43.184982" lon="19.278015"><ele>1007.5</ele><time>2012-04-29T13:31:50.0000000+00:00</time></trkpt><trkpt lat="43.18499" lon="19.278032"><ele>1007.6</ele><time>2012-04-29T13:31:55.0000000+00:00</time></trkpt><trkpt lat="43.185093" lon="19.278173"><ele>1006.4</ele><time>2012-04-29T13:32:00.0000000+00:00</time></trkpt><trkpt lat="43.185223" lon="19.278393"><ele>1004.3</ele><time>2012-04-29T13:32:05.0000000+00:00</time></trkpt><trkpt lat="43.185394" lon="19.278332"><ele>1000.9</ele><time>2012-04-29T13:32:10.0000000+00:00</time></trkpt><trkpt lat="43.185658" lon="19.277962"><ele>997.8</ele><time>2012-04-29T13:32:15.0000000+00:00</time></trkpt><trkpt lat="43.185921" lon="19.277454"><ele>994.3</ele><time>2012-04-29T13:32:20.0000000+00:00</time></trkpt><trkpt lat="43.186157" lon="19.277004"><ele>994.0</ele><time>2012-04-29T13:32:25.0000000+00:00</time></trkpt><trkpt lat="43.186249" lon="19.276882"><ele>993.6</ele><time>2012-04-29T13:32:30.0000000+00:00</time></trkpt><trkpt lat="43.186317" lon="19.276806"><ele>992.3</ele><time>2012-04-29T13:32:35.0000000+00:00</time></trkpt><trkpt lat="43.186359" lon="19.276791"><ele>992.6</ele><time>2012-04-29T13:32:40.0000000+00:00</time></trkpt><trkpt lat="43.186356" lon="19.276772"><ele>991.9</ele><time>2012-04-29T13:32:45.0000000+00:00</time></trkpt><trkpt lat="43.186352" lon="19.276762"><ele>991.5</ele><time>2012-04-29T13:32:50.0000000+00:00</time></trkpt><trkpt lat="43.186352" lon="19.276764"><ele>991.4</ele><time>2012-04-29T13:32:55.0000000+00:00</time></trkpt><trkpt lat="43.186348" lon="19.27677"><ele>991.3</ele><time>2012-04-29T13:33:00.0000000+00:00</time></trkpt><trkpt lat="43.18634" lon="19.276773"><ele>991.3</ele><time>2012-04-29T13:33:05.0000000+00:00</time></trkpt><trkpt lat="43.186337" lon="19.276781"><ele>991.3</ele><time>2012-04-29T13:33:10.0000000+00:00</time></trkpt><trkpt lat="43.186337" lon="19.276783"><ele>991.3</ele><time>2012-04-29T13:33:15.0000000+00:00</time></trkpt><trkpt lat="43.18634" lon="19.276791"><ele>991.3</ele><time>2012-04-29T13:33:20.0000000+00:00</time></trkpt><trkpt lat="43.186352" lon="19.276802"><ele>991.3</ele><time>2012-04-29T13:33:25.0000000+00:00</time></trkpt><trkpt lat="43.186359" lon="19.27681"><ele>991.3</ele><time>2012-04-29T13:33:30.0000000+00:00</time></trkpt><trkpt lat="43.186359" lon="19.276815"><ele>991.3</ele><time>2012-04-29T13:33:35.0000000+00:00</time></trkpt><trkpt lat="43.186359" lon="19.276817"><ele>991.3</ele><time>2012-04-29T13:33:40.0000000+00:00</time></trkpt><trkpt lat="43.186363" lon="19.276819"><ele>991.3</ele><time>2012-04-29T13:33:45.0000000+00:00</time></trkpt><trkpt lat="43.186367" lon="19.276821"><ele>991.3</ele><time>2012-04-29T13:33:50.0000000+00:00</time></trkpt><trkpt lat="43.186375" lon="19.276821"><ele>991.3</ele><time>2012-04-29T13:33:55.0000000+00:00</time></trkpt><trkpt lat="43.186378" lon="19.276825"><ele>991.3</ele><time>2012-04-29T13:34:00.0000000+00:00</time></trkpt><trkpt lat="43.186386" lon="19.276825"><ele>991.3</ele><time>2012-04-29T13:34:05.0000000+00:00</time></trkpt><trkpt lat="43.186394" lon="19.276825"><ele>991.3</ele><time>2012-04-29T13:34:10.0000000+00:00</time></trkpt><trkpt lat="43.186398" lon="19.276829"><ele>991.3</ele><time>2012-04-29T13:34:15.0000000+00:00</time></trkpt><trkpt lat="43.186405" lon="19.276833"><ele>991.4</ele><time>2012-04-29T13:34:20.0000000+00:00</time></trkpt><trkpt lat="43.186417" lon="19.276833"><ele>991.4</ele><time>2012-04-29T13:34:25.0000000+00:00</time></trkpt><trkpt lat="43.186432" lon="19.276831"><ele>991.4</ele><time>2012-04-29T13:34:30.0000000+00:00</time></trkpt><trkpt lat="43.18644" lon="19.276831"><ele>991.5</ele><time>2012-04-29T13:34:35.0000000+00:00</time></trkpt><trkpt lat="43.186447" lon="19.276827"><ele>991.6</ele><time>2012-04-29T13:34:40.0000000+00:00</time></trkpt><trkpt lat="43.186447" lon="19.276823"><ele>991.6</ele><time>2012-04-29T13:34:45.0000000+00:00</time></trkpt><trkpt lat="43.186436" lon="19.276823"><ele>991.6</ele><time>2012-04-29T13:34:50.0000000+00:00</time></trkpt><trkpt lat="43.186424" lon="19.276817"><ele>991.7</ele><time>2012-04-29T13:34:55.0000000+00:00</time></trkpt><trkpt lat="43.186417" lon="19.27681"><ele>991.7</ele><time>2012-04-29T13:35:00.0000000+00:00</time></trkpt><trkpt lat="43.186428" lon="19.276798"><ele>991.8</ele><time>2012-04-29T13:35:05.0000000+00:00</time></trkpt><trkpt lat="43.18642" lon="19.276789"><ele>991.8</ele><time>2012-04-29T13:35:10.0000000+00:00</time></trkpt><trkpt lat="43.18642" lon="19.276783"><ele>992.0</ele><time>2012-04-29T13:35:15.0000000+00:00</time></trkpt><trkpt lat="43.186417" lon="19.276787"><ele>992.3</ele><time>2012-04-29T13:35:20.0000000+00:00</time></trkpt><trkpt lat="43.186413" lon="19.276787"><ele>992.5</ele><time>2012-04-29T13:35:25.0000000+00:00</time></trkpt><trkpt lat="43.186413" lon="19.276787"><ele>992.5</ele><time>2012-04-29T13:35:30.0000000+00:00</time></trkpt><trkpt lat="43.186413" lon="19.276787"><ele>992.5</ele><time>2012-04-29T13:35:35.0000000+00:00</time></trkpt><trkpt lat="43.186413" lon="19.276787"><ele>992.5</ele><time>2012-04-29T13:35:40.0000000+00:00</time></trkpt><trkpt lat="43.186413" lon="19.276787"><ele>992.6</ele><time>2012-04-29T13:35:45.0000000+00:00</time></trkpt><trkpt lat="43.186413" lon="19.276787"><ele>992.6</ele><time>2012-04-29T13:35:50.0000000+00:00</time></trkpt><trkpt lat="43.186413" lon="19.276787"><ele>992.6</ele><time>2012-04-29T13:35:55.0000000+00:00</time></trkpt><trkpt lat="43.186413" lon="19.276787"><ele>992.6</ele><time>2012-04-29T13:36:00.0000000+00:00</time></trkpt><trkpt lat="43.186413" lon="19.276787"><ele>992.6</ele><time>2012-04-29T13:36:05.0000000+00:00</time></trkpt><trkpt lat="43.186413" lon="19.276787"><ele>992.7</ele><time>2012-04-29T13:36:10.0000000+00:00</time></trkpt><trkpt lat="43.186413" lon="19.276787"><ele>992.7</ele><time>2012-04-29T13:36:15.0000000+00:00</time></trkpt><trkpt lat="43.186409" lon="19.276787"><ele>992.7</ele><time>2012-04-29T13:36:20.0000000+00:00</time></trkpt><trkpt lat="43.186409" lon="19.276787"><ele>992.7</ele><time>2012-04-29T13:36:25.0000000+00:00</time></trkpt><trkpt lat="43.186409" lon="19.276787"><ele>992.7</ele><time>2012-04-29T13:36:30.0000000+00:00</time></trkpt><trkpt lat="43.186409" lon="19.276787"><ele>992.7</ele><time>2012-04-29T13:36:35.0000000+00:00</time></trkpt><trkpt lat="43.186409" lon="19.276787"><ele>992.7</ele><time>2012-04-29T13:36:40.0000000+00:00</time></trkpt><trkpt lat="43.186409" lon="19.276787"><ele>992.7</ele><time>2012-04-29T13:36:45.0000000+00:00</time></trkpt><trkpt lat="43.186409" lon="19.276787"><ele>992.7</ele><time>2012-04-29T13:36:50.0000000+00:00</time></trkpt><trkpt lat="43.186409" lon="19.276787"><ele>992.8</ele><time>2012-04-29T13:36:55.0000000+00:00</time></trkpt><trkpt lat="43.186409" lon="19.276787"><ele>992.8</ele><time>2012-04-29T13:37:00.0000000+00:00</time></trkpt><trkpt lat="43.186409" lon="19.276787"><ele>992.8</ele><time>2012-04-29T13:37:05.0000000+00:00</time></trkpt><trkpt lat="43.186409" lon="19.276787"><ele>992.8</ele><time>2012-04-29T13:37:10.0000000+00:00</time></trkpt><trkpt lat="43.186409" lon="19.276787"><ele>992.8</ele><time>2012-04-29T13:37:15.0000000+00:00</time></trkpt><trkpt lat="43.186405" lon="19.276787"><ele>992.8</ele><time>2012-04-29T13:37:20.0000000+00:00</time></trkpt><trkpt lat="43.186405" lon="19.276787"><ele>992.8</ele><time>2012-04-29T13:37:25.0000000+00:00</time></trkpt><trkpt lat="43.186405" lon="19.276787"><ele>992.8</ele><time>2012-04-29T13:37:30.0000000+00:00</time></trkpt><trkpt lat="43.186405" lon="19.276787"><ele>992.8</ele><time>2012-04-29T13:37:35.0000000+00:00</time></trkpt><trkpt lat="43.186405" lon="19.276787"><ele>992.9</ele><time>2012-04-29T13:37:40.0000000+00:00</time></trkpt><trkpt lat="43.186405" lon="19.276785"><ele>992.9</ele><time>2012-04-29T13:37:45.0000000+00:00</time></trkpt><trkpt lat="43.186405" lon="19.276785"><ele>992.9</ele><time>2012-04-29T13:37:50.0000000+00:00</time></trkpt><trkpt lat="43.186405" lon="19.276785"><ele>992.9</ele><time>2012-04-29T13:37:55.0000000+00:00</time></trkpt><trkpt lat="43.186405" lon="19.276785"><ele>992.9</ele><time>2012-04-29T13:38:00.0000000+00:00</time></trkpt><trkpt lat="43.186405" lon="19.276785"><ele>992.9</ele><time>2012-04-29T13:38:05.0000000+00:00</time></trkpt><trkpt lat="43.186405" lon="19.276783"><ele>993.0</ele><time>2012-04-29T13:38:10.0000000+00:00</time></trkpt><trkpt lat="43.186405" lon="19.276783"><ele>993.0</ele><time>2012-04-29T13:38:15.0000000+00:00</time></trkpt><trkpt lat="43.186405" lon="19.276783"><ele>993.0</ele><time>2012-04-29T13:38:20.0000000+00:00</time></trkpt><trkpt lat="43.186405" lon="19.276783"><ele>993.0</ele><time>2012-04-29T13:38:25.0000000+00:00</time></trkpt><trkpt lat="43.186401" lon="19.276781"><ele>993.0</ele><time>2012-04-29T13:38:30.0000000+00:00</time></trkpt><trkpt lat="43.186401" lon="19.276781"><ele>993.0</ele><time>2012-04-29T13:38:35.0000000+00:00</time></trkpt><trkpt lat="43.186401" lon="19.276781"><ele>993.0</ele><time>2012-04-29T13:38:40.0000000+00:00</time></trkpt><trkpt lat="43.186401" lon="19.276781"><ele>993.0</ele><time>2012-04-29T13:38:45.0000000+00:00</time></trkpt><trkpt lat="43.186401" lon="19.276781"><ele>993.0</ele><time>2012-04-29T13:38:50.0000000+00:00</time></trkpt><trkpt lat="43.186401" lon="19.276781"><ele>993.0</ele><time>2012-04-29T13:38:55.0000000+00:00</time></trkpt><trkpt lat="43.186401" lon="19.276781"><ele>993.1</ele><time>2012-04-29T13:39:00.0000000+00:00</time></trkpt><trkpt lat="43.186401" lon="19.276781"><ele>993.1</ele><time>2012-04-29T13:39:05.0000000+00:00</time></trkpt><trkpt lat="43.186401" lon="19.276781"><ele>993.1</ele><time>2012-04-29T13:39:10.0000000+00:00</time></trkpt><trkpt lat="43.186401" lon="19.276781"><ele>993.1</ele><time>2012-04-29T13:39:15.0000000+00:00</time></trkpt><trkpt lat="43.186401" lon="19.276779"><ele>993.1</ele><time>2012-04-29T13:39:20.0000000+00:00</time></trkpt><trkpt lat="43.186401" lon="19.276779"><ele>993.1</ele><time>2012-04-29T13:39:25.0000000+00:00</time></trkpt><trkpt lat="43.186401" lon="19.276779"><ele>993.1</ele><time>2012-04-29T13:39:30.0000000+00:00</time></trkpt><trkpt lat="43.186401" lon="19.276779"><ele>993.2</ele><time>2012-04-29T13:39:35.0000000+00:00</time></trkpt><trkpt lat="43.186401" lon="19.276779"><ele>993.2</ele><time>2012-04-29T13:39:40.0000000+00:00</time></trkpt><trkpt lat="43.186401" lon="19.276779"><ele>993.2</ele><time>2012-04-29T13:39:45.0000000+00:00</time></trkpt><trkpt lat="43.186401" lon="19.276779"><ele>993.2</ele><time>2012-04-29T13:39:50.0000000+00:00</time></trkpt><trkpt lat="43.186401" lon="19.276779"><ele>993.2</ele><time>2012-04-29T13:39:55.0000000+00:00</time></trkpt><trkpt lat="43.186401" lon="19.276779"><ele>993.2</ele><time>2012-04-29T13:40:00.0000000+00:00</time></trkpt><trkpt lat="43.186401" lon="19.276777"><ele>993.3</ele><time>2012-04-29T13:40:05.0000000+00:00</time></trkpt><trkpt lat="43.186401" lon="19.276777"><ele>993.3</ele><time>2012-04-29T13:40:10.0000000+00:00</time></trkpt><trkpt lat="43.186398" lon="19.276777"><ele>993.3</ele><time>2012-04-29T13:40:15.0000000+00:00</time></trkpt><trkpt lat="43.186398" lon="19.276777"><ele>993.3</ele><time>2012-04-29T13:40:20.0000000+00:00</time></trkpt><trkpt lat="43.186398" lon="19.276777"><ele>993.3</ele><time>2012-04-29T13:40:25.0000000+00:00</time></trkpt><trkpt lat="43.186398" lon="19.276775"><ele>993.3</ele><time>2012-04-29T13:40:30.0000000+00:00</time></trkpt><trkpt lat="43.186398" lon="19.276775"><ele>993.3</ele><time>2012-04-29T13:40:35.0000000+00:00</time></trkpt><trkpt lat="43.186398" lon="19.276775"><ele>993.3</ele><time>2012-04-29T13:40:40.0000000+00:00</time></trkpt><trkpt lat="43.186398" lon="19.276775"><ele>993.3</ele><time>2012-04-29T13:40:45.0000000+00:00</time></trkpt><trkpt lat="43.186398" lon="19.276775"><ele>993.3</ele><time>2012-04-29T13:40:50.0000000+00:00</time></trkpt><trkpt lat="43.186398" lon="19.276775"><ele>993.3</ele><time>2012-04-29T13:40:55.0000000+00:00</time></trkpt><trkpt lat="43.186398" lon="19.276775"><ele>993.3</ele><time>2012-04-29T13:41:00.0000000+00:00</time></trkpt><trkpt lat="43.186398" lon="19.276773"><ele>993.3</ele><time>2012-04-29T13:41:05.0000000+00:00</time></trkpt><trkpt lat="43.186398" lon="19.276773"><ele>993.3</ele><time>2012-04-29T13:41:10.0000000+00:00</time></trkpt><trkpt lat="43.186398" lon="19.276773"><ele>993.3</ele><time>2012-04-29T13:41:15.0000000+00:00</time></trkpt><trkpt lat="43.186398" lon="19.276773"><ele>993.3</ele><time>2012-04-29T13:41:20.0000000+00:00</time></trkpt><trkpt lat="43.186398" lon="19.276773"><ele>993.3</ele><time>2012-04-29T13:41:25.0000000+00:00</time></trkpt><trkpt lat="43.186398" lon="19.276772"><ele>993.3</ele><time>2012-04-29T13:41:30.0000000+00:00</time></trkpt><trkpt lat="43.186394" lon="19.276772"><ele>993.4</ele><time>2012-04-29T13:41:35.0000000+00:00</time></trkpt><trkpt lat="43.186394" lon="19.276772"><ele>993.4</ele><time>2012-04-29T13:41:40.0000000+00:00</time></trkpt><trkpt lat="43.186394" lon="19.276772"><ele>993.4</ele><time>2012-04-29T13:41:45.0000000+00:00</time></trkpt><trkpt lat="43.186394" lon="19.276772"><ele>993.4</ele><time>2012-04-29T13:41:50.0000000+00:00</time></trkpt><trkpt lat="43.186394" lon="19.276772"><ele>993.4</ele><time>2012-04-29T13:41:55.0000000+00:00</time></trkpt><trkpt lat="43.186394" lon="19.276772"><ele>993.4</ele><time>2012-04-29T13:42:00.0000000+00:00</time></trkpt><trkpt lat="43.186394" lon="19.276772"><ele>993.4</ele><time>2012-04-29T13:42:05.0000000+00:00</time></trkpt><trkpt lat="43.186394" lon="19.27677"><ele>993.5</ele><time>2012-04-29T13:42:10.0000000+00:00</time></trkpt><trkpt lat="43.186394" lon="19.27677"><ele>993.5</ele><time>2012-04-29T13:42:15.0000000+00:00</time></trkpt><trkpt lat="43.186394" lon="19.27677"><ele>993.5</ele><time>2012-04-29T13:42:20.0000000+00:00</time></trkpt><trkpt lat="43.186394" lon="19.27677"><ele>993.5</ele><time>2012-04-29T13:42:25.0000000+00:00</time></trkpt><trkpt lat="43.186394" lon="19.27677"><ele>993.5</ele><time>2012-04-29T13:42:30.0000000+00:00</time></trkpt><trkpt lat="43.186394" lon="19.27677"><ele>993.5</ele><time>2012-04-29T13:42:35.0000000+00:00</time></trkpt><trkpt lat="43.186394" lon="19.27677"><ele>993.5</ele><time>2012-04-29T13:42:40.0000000+00:00</time></trkpt><trkpt lat="43.186394" lon="19.27677"><ele>993.5</ele><time>2012-04-29T13:42:45.0000000+00:00</time></trkpt><trkpt lat="43.186394" lon="19.276772"><ele>993.6</ele><time>2012-04-29T13:42:50.0000000+00:00</time></trkpt><trkpt lat="43.186394" lon="19.276772"><ele>993.6</ele><time>2012-04-29T13:42:55.0000000+00:00</time></trkpt><trkpt lat="43.186394" lon="19.276772"><ele>993.6</ele><time>2012-04-29T13:43:00.0000000+00:00</time></trkpt><trkpt lat="43.18639" lon="19.27677"><ele>993.6</ele><time>2012-04-29T13:43:05.0000000+00:00</time></trkpt><trkpt lat="43.18639" lon="19.27677"><ele>993.6</ele><time>2012-04-29T13:43:10.0000000+00:00</time></trkpt><trkpt lat="43.18639" lon="19.27677"><ele>993.6</ele><time>2012-04-29T13:43:15.0000000+00:00</time></trkpt><trkpt lat="43.18639" lon="19.27677"><ele>993.6</ele><time>2012-04-29T13:43:20.0000000+00:00</time></trkpt><trkpt lat="43.18639" lon="19.27677"><ele>993.7</ele><time>2012-04-29T13:43:25.0000000+00:00</time></trkpt><trkpt lat="43.18639" lon="19.27677"><ele>993.7</ele><time>2012-04-29T13:43:30.0000000+00:00</time></trkpt><trkpt lat="43.18639" lon="19.27677"><ele>993.7</ele><time>2012-04-29T13:43:35.0000000+00:00</time></trkpt><trkpt lat="43.18639" lon="19.276768"><ele>993.7</ele><time>2012-04-29T13:43:40.0000000+00:00</time></trkpt><trkpt lat="43.18639" lon="19.276768"><ele>993.7</ele><time>2012-04-29T13:43:45.0000000+00:00</time></trkpt><trkpt lat="43.18639" lon="19.276768"><ele>993.7</ele><time>2012-04-29T13:43:50.0000000+00:00</time></trkpt><trkpt lat="43.18639" lon="19.276768"><ele>993.8</ele><time>2012-04-29T13:43:55.0000000+00:00</time></trkpt><trkpt lat="43.18639" lon="19.276768"><ele>993.8</ele><time>2012-04-29T13:44:00.0000000+00:00</time></trkpt><trkpt lat="43.18639" lon="19.276768"><ele>993.8</ele><time>2012-04-29T13:44:05.0000000+00:00</time></trkpt><trkpt lat="43.18639" lon="19.276768"><ele>993.8</ele><time>2012-04-29T13:44:10.0000000+00:00</time></trkpt><trkpt lat="43.18639" lon="19.276766"><ele>993.8</ele><time>2012-04-29T13:44:15.0000000+00:00</time></trkpt><trkpt lat="43.18639" lon="19.276766"><ele>993.8</ele><time>2012-04-29T13:44:20.0000000+00:00</time></trkpt><trkpt lat="43.18639" lon="19.276766"><ele>993.8</ele><time>2012-04-29T13:44:25.0000000+00:00</time></trkpt><trkpt lat="43.18639" lon="19.276766"><ele>993.8</ele><time>2012-04-29T13:44:30.0000000+00:00</time></trkpt><trkpt lat="43.18639" lon="19.276766"><ele>993.8</ele><time>2012-04-29T13:44:35.0000000+00:00</time></trkpt><trkpt lat="43.18639" lon="19.276766"><ele>993.8</ele><time>2012-04-29T13:44:40.0000000+00:00</time></trkpt><trkpt lat="43.18639" lon="19.276766"><ele>993.8</ele><time>2012-04-29T13:44:45.0000000+00:00</time></trkpt><trkpt lat="43.18639" lon="19.276766"><ele>993.9</ele><time>2012-04-29T13:44:50.0000000+00:00</time></trkpt><trkpt lat="43.18639" lon="19.276766"><ele>993.9</ele><time>2012-04-29T13:44:55.0000000+00:00</time></trkpt><trkpt lat="43.18639" lon="19.276766"><ele>993.9</ele><time>2012-04-29T13:45:00.0000000+00:00</time></trkpt><trkpt lat="43.18639" lon="19.276766"><ele>993.9</ele><time>2012-04-29T13:45:05.0000000+00:00</time></trkpt><trkpt lat="43.18639" lon="19.276766"><ele>993.9</ele><time>2012-04-29T13:45:10.0000000+00:00</time></trkpt><trkpt lat="43.18639" lon="19.276766"><ele>993.9</ele><time>2012-04-29T13:45:15.0000000+00:00</time></trkpt><trkpt lat="43.18639" lon="19.276766"><ele>993.9</ele><time>2012-04-29T13:45:20.0000000+00:00</time></trkpt><trkpt lat="43.18639" lon="19.276766"><ele>993.9</ele><time>2012-04-29T13:45:25.0000000+00:00</time></trkpt><trkpt lat="43.18639" lon="19.276766"><ele>993.9</ele><time>2012-04-29T13:45:30.0000000+00:00</time></trkpt><trkpt lat="43.18639" lon="19.276766"><ele>993.9</ele><time>2012-04-29T13:45:35.0000000+00:00</time></trkpt><trkpt lat="43.18639" lon="19.276766"><ele>993.9</ele><time>2012-04-29T13:45:40.0000000+00:00</time></trkpt><trkpt lat="43.18639" lon="19.276766"><ele>993.9</ele><time>2012-04-29T13:45:45.0000000+00:00</time></trkpt><trkpt lat="43.18639" lon="19.276766"><ele>993.9</ele><time>2012-04-29T13:45:50.0000000+00:00</time></trkpt><trkpt lat="43.18639" lon="19.276766"><ele>993.9</ele><time>2012-04-29T13:45:55.0000000+00:00</time></trkpt><trkpt lat="43.18639" lon="19.276766"><ele>993.8</ele><time>2012-04-29T13:46:00.0000000+00:00</time></trkpt><trkpt lat="43.18639" lon="19.276768"><ele>993.8</ele><time>2012-04-29T13:46:05.0000000+00:00</time></trkpt><trkpt lat="43.18639" lon="19.276768"><ele>993.8</ele><time>2012-04-29T13:46:10.0000000+00:00</time></trkpt><trkpt lat="43.18639" lon="19.276768"><ele>993.8</ele><time>2012-04-29T13:46:15.0000000+00:00</time></trkpt><trkpt lat="43.18639" lon="19.276768"><ele>993.8</ele><time>2012-04-29T13:46:20.0000000+00:00</time></trkpt><trkpt lat="43.18639" lon="19.276768"><ele>993.8</ele><time>2012-04-29T13:46:25.0000000+00:00</time></trkpt><trkpt lat="43.18639" lon="19.276768"><ele>993.8</ele><time>2012-04-29T13:46:30.0000000+00:00</time></trkpt><trkpt lat="43.18639" lon="19.276768"><ele>993.8</ele><time>2012-04-29T13:46:35.0000000+00:00</time></trkpt><trkpt lat="43.18639" lon="19.276768"><ele>993.8</ele><time>2012-04-29T13:46:40.0000000+00:00</time></trkpt><trkpt lat="43.18639" lon="19.276768"><ele>993.8</ele><time>2012-04-29T13:46:45.0000000+00:00</time></trkpt><trkpt lat="43.18639" lon="19.276768"><ele>993.8</ele><time>2012-04-29T13:46:50.0000000+00:00</time></trkpt><trkpt lat="43.18639" lon="19.276768"><ele>993.8</ele><time>2012-04-29T13:46:55.0000000+00:00</time></trkpt><trkpt lat="43.18639" lon="19.276768"><ele>993.8</ele><time>2012-04-29T13:47:00.0000000+00:00</time></trkpt><trkpt lat="43.186386" lon="19.276768"><ele>993.8</ele><time>2012-04-29T13:47:05.0000000+00:00</time></trkpt><trkpt lat="43.186386" lon="19.276768"><ele>993.8</ele><time>2012-04-29T13:47:10.0000000+00:00</time></trkpt><trkpt lat="43.186386" lon="19.276768"><ele>993.9</ele><time>2012-04-29T13:47:15.0000000+00:00</time></trkpt><trkpt lat="43.186386" lon="19.276768"><ele>993.9</ele><time>2012-04-29T13:47:20.0000000+00:00</time></trkpt><trkpt lat="43.186386" lon="19.276768"><ele>993.9</ele><time>2012-04-29T13:47:25.0000000+00:00</time></trkpt><trkpt lat="43.186386" lon="19.27677"><ele>993.9</ele><time>2012-04-29T13:47:30.0000000+00:00</time></trkpt><trkpt lat="43.186386" lon="19.27677"><ele>993.9</ele><time>2012-04-29T13:47:35.0000000+00:00</time></trkpt><trkpt lat="43.186386" lon="19.27677"><ele>993.9</ele><time>2012-04-29T13:47:40.0000000+00:00</time></trkpt><trkpt lat="43.186386" lon="19.27677"><ele>993.9</ele><time>2012-04-29T13:47:45.0000000+00:00</time></trkpt><trkpt lat="43.186386" lon="19.27677"><ele>993.9</ele><time>2012-04-29T13:47:50.0000000+00:00</time></trkpt><trkpt lat="43.186386" lon="19.27677"><ele>993.9</ele><time>2012-04-29T13:47:55.0000000+00:00</time></trkpt><trkpt lat="43.186386" lon="19.27677"><ele>993.9</ele><time>2012-04-29T13:48:00.0000000+00:00</time></trkpt><trkpt lat="43.186386" lon="19.27677"><ele>993.9</ele><time>2012-04-29T13:48:05.0000000+00:00</time></trkpt><trkpt lat="43.186386" lon="19.27677"><ele>993.9</ele><time>2012-04-29T13:48:10.0000000+00:00</time></trkpt><trkpt lat="43.186386" lon="19.276772"><ele>993.9</ele><time>2012-04-29T13:48:15.0000000+00:00</time></trkpt><trkpt lat="43.186386" lon="19.276772"><ele>993.9</ele><time>2012-04-29T13:48:20.0000000+00:00</time></trkpt><trkpt lat="43.186386" lon="19.276772"><ele>993.9</ele><time>2012-04-29T13:48:25.0000000+00:00</time></trkpt><trkpt lat="43.186386" lon="19.27677"><ele>993.9</ele><time>2012-04-29T13:48:30.0000000+00:00</time></trkpt><trkpt lat="43.186386" lon="19.27677"><ele>993.9</ele><time>2012-04-29T13:48:35.0000000+00:00</time></trkpt><trkpt lat="43.186386" lon="19.27677"><ele>993.9</ele><time>2012-04-29T13:48:40.0000000+00:00</time></trkpt><trkpt lat="43.186386" lon="19.27677"><ele>993.9</ele><time>2012-04-29T13:48:45.0000000+00:00</time></trkpt><trkpt lat="43.186386" lon="19.27677"><ele>993.9</ele><time>2012-04-29T13:48:50.0000000+00:00</time></trkpt><trkpt lat="43.186386" lon="19.27677"><ele>993.9</ele><time>2012-04-29T13:48:55.0000000+00:00</time></trkpt><trkpt lat="43.186386" lon="19.27677"><ele>993.9</ele><time>2012-04-29T13:49:00.0000000+00:00</time></trkpt><trkpt lat="43.186386" lon="19.27677"><ele>993.9</ele><time>2012-04-29T13:49:05.0000000+00:00</time></trkpt><trkpt lat="43.186386" lon="19.27677"><ele>993.9</ele><time>2012-04-29T13:49:10.0000000+00:00</time></trkpt><trkpt lat="43.186386" lon="19.27677"><ele>993.9</ele><time>2012-04-29T13:49:15.0000000+00:00</time></trkpt><trkpt lat="43.186386" lon="19.27677"><ele>993.9</ele><time>2012-04-29T13:49:20.0000000+00:00</time></trkpt><trkpt lat="43.186386" lon="19.27677"><ele>993.9</ele><time>2012-04-29T13:49:25.0000000+00:00</time></trkpt><trkpt lat="43.186386" lon="19.27677"><ele>993.9</ele><time>2012-04-29T13:49:30.0000000+00:00</time></trkpt><trkpt lat="43.186386" lon="19.27677"><ele>993.9</ele><time>2012-04-29T13:49:35.0000000+00:00</time></trkpt><trkpt lat="43.186386" lon="19.27677"><ele>993.9</ele><time>2012-04-29T13:49:40.0000000+00:00</time></trkpt><trkpt lat="43.186386" lon="19.27677"><ele>993.9</ele><time>2012-04-29T13:49:45.0000000+00:00</time></trkpt><trkpt lat="43.186386" lon="19.27677"><ele>993.9</ele><time>2012-04-29T13:49:50.0000000+00:00</time></trkpt><trkpt lat="43.186386" lon="19.27677"><ele>993.9</ele><time>2012-04-29T13:49:55.0000000+00:00</time></trkpt><trkpt lat="43.186386" lon="19.27677"><ele>993.9</ele><time>2012-04-29T13:50:00.0000000+00:00</time></trkpt><trkpt lat="43.186386" lon="19.27677"><ele>993.9</ele><time>2012-04-29T13:50:05.0000000+00:00</time></trkpt><trkpt lat="43.186386" lon="19.27677"><ele>993.9</ele><time>2012-04-29T13:50:10.0000000+00:00</time></trkpt><trkpt lat="43.186386" lon="19.27677"><ele>993.9</ele><time>2012-04-29T13:50:15.0000000+00:00</time></trkpt><trkpt lat="43.186386" lon="19.276775"><ele>993.9</ele><time>2012-04-29T13:50:20.0000000+00:00</time></trkpt><trkpt lat="43.186386" lon="19.276775"><ele>993.9</ele><time>2012-04-29T13:50:25.0000000+00:00</time></trkpt><trkpt lat="43.186394" lon="19.276781"><ele>994.0</ele><time>2012-04-29T13:50:30.0000000+00:00</time></trkpt><trkpt lat="43.186394" lon="19.276781"><ele>994.0</ele><time>2012-04-29T13:50:35.0000000+00:00</time></trkpt><trkpt lat="43.186394" lon="19.276781"><ele>994.0</ele><time>2012-04-29T13:50:40.0000000+00:00</time></trkpt><trkpt lat="43.186394" lon="19.276781"><ele>994.0</ele><time>2012-04-29T13:50:45.0000000+00:00</time></trkpt><trkpt lat="43.186394" lon="19.276781"><ele>994.0</ele><time>2012-04-29T13:50:50.0000000+00:00</time></trkpt><trkpt lat="43.186394" lon="19.276781"><ele>994.0</ele><time>2012-04-29T13:50:55.0000000+00:00</time></trkpt><trkpt lat="43.186394" lon="19.276781"><ele>994.0</ele><time>2012-04-29T13:51:00.0000000+00:00</time></trkpt><trkpt lat="43.186394" lon="19.276781"><ele>994.0</ele><time>2012-04-29T13:51:05.0000000+00:00</time></trkpt><trkpt lat="43.186394" lon="19.276779"><ele>994.0</ele><time>2012-04-29T13:51:10.0000000+00:00</time></trkpt><trkpt lat="43.186394" lon="19.276779"><ele>994.0</ele><time>2012-04-29T13:51:15.0000000+00:00</time></trkpt><trkpt lat="43.186394" lon="19.276781"><ele>993.9</ele><time>2012-04-29T13:51:20.0000000+00:00</time></trkpt><trkpt lat="43.186428" lon="19.276787"><ele>993.6</ele><time>2012-04-29T13:51:25.0000000+00:00</time></trkpt><trkpt lat="43.186462" lon="19.276747"><ele>993.9</ele><time>2012-04-29T13:51:30.0000000+00:00</time></trkpt><trkpt lat="43.186516" lon="19.276686"><ele>995.2</ele><time>2012-04-29T13:51:35.0000000+00:00</time></trkpt><trkpt lat="43.186581" lon="19.276608"><ele>997.4</ele><time>2012-04-29T13:51:40.0000000+00:00</time></trkpt><trkpt lat="43.186623" lon="19.276543"><ele>999.8</ele><time>2012-04-29T13:51:45.0000000+00:00</time></trkpt><trkpt lat="43.186676" lon="19.27647"><ele>1002.1</ele><time>2012-04-29T13:51:50.0000000+00:00</time></trkpt><trkpt lat="43.186745" lon="19.276432"><ele>1005.9</ele><time>2012-04-29T13:51:55.0000000+00:00</time></trkpt><trkpt lat="43.186855" lon="19.2764"><ele>1008.3</ele><time>2012-04-29T13:52:00.0000000+00:00</time></trkpt><trkpt lat="43.186928" lon="19.276344"><ele>1010.0</ele><time>2012-04-29T13:52:05.0000000+00:00</time></trkpt><trkpt lat="43.187004" lon="19.276308"><ele>1011.2</ele><time>2012-04-29T13:52:10.0000000+00:00</time></trkpt><trkpt lat="43.187023" lon="19.276283"><ele>1011.1</ele><time>2012-04-29T13:52:15.0000000+00:00</time></trkpt><trkpt lat="43.187046" lon="19.276249"><ele>1011.7</ele><time>2012-04-29T13:52:20.0000000+00:00</time></trkpt><trkpt lat="43.187046" lon="19.27623"><ele>1012.2</ele><time>2012-04-29T13:52:25.0000000+00:00</time></trkpt><trkpt lat="43.187042" lon="19.276222"><ele>1012.3</ele><time>2012-04-29T13:52:30.0000000+00:00</time></trkpt><trkpt lat="43.187042" lon="19.276222"><ele>1012.4</ele><time>2012-04-29T13:52:35.0000000+00:00</time></trkpt><trkpt lat="43.187042" lon="19.276226"><ele>1012.6</ele><time>2012-04-29T13:52:40.0000000+00:00</time></trkpt><trkpt lat="43.187042" lon="19.276228"><ele>1012.7</ele><time>2012-04-29T13:52:45.0000000+00:00</time></trkpt><trkpt lat="43.187042" lon="19.276228"><ele>1012.6</ele><time>2012-04-29T13:52:50.0000000+00:00</time></trkpt><trkpt lat="43.187023" lon="19.276226"><ele>1012.6</ele><time>2012-04-29T13:52:55.0000000+00:00</time></trkpt><trkpt lat="43.18689" lon="19.276268"><ele>1013.4</ele><time>2012-04-29T13:53:00.0000000+00:00</time></trkpt><trkpt lat="43.186924" lon="19.276285"><ele>1013.9</ele><time>2012-04-29T13:53:05.0000000+00:00</time></trkpt><trkpt lat="43.18697" lon="19.276276"><ele>1014.7</ele><time>2012-04-29T13:53:10.0000000+00:00</time></trkpt><trkpt lat="43.187008" lon="19.276281"><ele>1015.7</ele><time>2012-04-29T13:53:15.0000000+00:00</time></trkpt><trkpt lat="43.187019" lon="19.276251"><ele>1017.0</ele><time>2012-04-29T13:53:20.0000000+00:00</time></trkpt><trkpt lat="43.187019" lon="19.276245"><ele>1017.1</ele><time>2012-04-29T13:53:25.0000000+00:00</time></trkpt><trkpt lat="43.18705" lon="19.27623"><ele>1016.7</ele><time>2012-04-29T13:53:30.0000000+00:00</time></trkpt><trkpt lat="43.186989" lon="19.276239"><ele>1016.0</ele><time>2012-04-29T13:53:35.0000000+00:00</time></trkpt><trkpt lat="43.186802" lon="19.276314"><ele>1016.3</ele><time>2012-04-29T13:53:40.0000000+00:00</time></trkpt><trkpt lat="43.186604" lon="19.276386"><ele>1017.3</ele><time>2012-04-29T13:53:45.0000000+00:00</time></trkpt><trkpt lat="43.18644" lon="19.27655"><ele>1015.7</ele><time>2012-04-29T13:53:50.0000000+00:00</time></trkpt><trkpt lat="43.186268" lon="19.276667"><ele>1013.1</ele><time>2012-04-29T13:53:55.0000000+00:00</time></trkpt><trkpt lat="43.186161" lon="19.276842"><ele>1010.9</ele><time>2012-04-29T13:54:00.0000000+00:00</time></trkpt><trkpt lat="43.186043" lon="19.277079"><ele>1005.7</ele><time>2012-04-29T13:54:05.0000000+00:00</time></trkpt><trkpt lat="43.185867" lon="19.277338"><ele>1004.3</ele><time>2012-04-29T13:54:10.0000000+00:00</time></trkpt><trkpt lat="43.185734" lon="19.277548"><ele>1006.5</ele><time>2012-04-29T13:54:15.0000000+00:00</time></trkpt><trkpt lat="43.185669" lon="19.277662"><ele>1007.6</ele><time>2012-04-29T13:54:20.0000000+00:00</time></trkpt><trkpt lat="43.185593" lon="19.277775"><ele>1011.5</ele><time>2012-04-29T13:54:25.0000000+00:00</time></trkpt><trkpt lat="43.185524" lon="19.277868"><ele>1014.8</ele><time>2012-04-29T13:54:30.0000000+00:00</time></trkpt><trkpt lat="43.185444" lon="19.277983"><ele>1017.4</ele><time>2012-04-29T13:54:35.0000000+00:00</time></trkpt><trkpt lat="43.18536" lon="19.27807"><ele>1020.6</ele><time>2012-04-29T13:54:40.0000000+00:00</time></trkpt><trkpt lat="43.185265" lon="19.278141"><ele>1023.5</ele><time>2012-04-29T13:54:45.0000000+00:00</time></trkpt><trkpt lat="43.185242" lon="19.278156"><ele>1022.8</ele><time>2012-04-29T13:54:50.0000000+00:00</time></trkpt><trkpt lat="43.18523" lon="19.278154"><ele>1023.0</ele><time>2012-04-29T13:54:55.0000000+00:00</time></trkpt><trkpt lat="43.18523" lon="19.278152"><ele>1023.3</ele><time>2012-04-29T13:55:00.0000000+00:00</time></trkpt><trkpt lat="43.185226" lon="19.278162"><ele>1023.4</ele><time>2012-04-29T13:55:05.0000000+00:00</time></trkpt><trkpt lat="43.185223" lon="19.27817"><ele>1023.5</ele><time>2012-04-29T13:55:10.0000000+00:00</time></trkpt><trkpt lat="43.185211" lon="19.278179"><ele>1023.5</ele><time>2012-04-29T13:55:15.0000000+00:00</time></trkpt><trkpt lat="43.185196" lon="19.278177"><ele>1023.5</ele><time>2012-04-29T13:55:20.0000000+00:00</time></trkpt><trkpt lat="43.185192" lon="19.278177"><ele>1023.5</ele><time>2012-04-29T13:55:25.0000000+00:00</time></trkpt><trkpt lat="43.185184" lon="19.278179"><ele>1023.4</ele><time>2012-04-29T13:55:30.0000000+00:00</time></trkpt><trkpt lat="43.185181" lon="19.278179"><ele>1023.3</ele><time>2012-04-29T13:55:35.0000000+00:00</time></trkpt><trkpt lat="43.185173" lon="19.278179"><ele>1023.2</ele><time>2012-04-29T13:55:40.0000000+00:00</time></trkpt><trkpt lat="43.185169" lon="19.278183"><ele>1023.1</ele><time>2012-04-29T13:55:45.0000000+00:00</time></trkpt><trkpt lat="43.185169" lon="19.278187"><ele>1023.1</ele><time>2012-04-29T13:55:50.0000000+00:00</time></trkpt><trkpt lat="43.185169" lon="19.278191"><ele>1023.0</ele><time>2012-04-29T13:55:55.0000000+00:00</time></trkpt><trkpt lat="43.185169" lon="19.278193"><ele>1022.9</ele><time>2012-04-29T13:56:00.0000000+00:00</time></trkpt><trkpt lat="43.185177" lon="19.278193"><ele>1022.8</ele><time>2012-04-29T13:56:05.0000000+00:00</time></trkpt><trkpt lat="43.185196" lon="19.278191"><ele>1022.8</ele><time>2012-04-29T13:56:10.0000000+00:00</time></trkpt><trkpt lat="43.185276" lon="19.278198"><ele>1022.7</ele><time>2012-04-29T13:56:15.0000000+00:00</time></trkpt><trkpt lat="43.185329" lon="19.278198"><ele>1022.7</ele><time>2012-04-29T13:56:20.0000000+00:00</time></trkpt><trkpt lat="43.185379" lon="19.278183"><ele>1022.7</ele><time>2012-04-29T13:56:25.0000000+00:00</time></trkpt><trkpt lat="43.185413" lon="19.278191"><ele>1022.7</ele><time>2012-04-29T13:56:30.0000000+00:00</time></trkpt><trkpt lat="43.185455" lon="19.278233"><ele>1022.7</ele><time>2012-04-29T13:56:35.0000000+00:00</time></trkpt><trkpt lat="43.185474" lon="19.278244"><ele>1022.8</ele><time>2012-04-29T13:56:40.0000000+00:00</time></trkpt><trkpt lat="43.185532" lon="19.278259"><ele>1022.8</ele><time>2012-04-29T13:56:45.0000000+00:00</time></trkpt><trkpt lat="43.18557" lon="19.278284"><ele>1022.7</ele><time>2012-04-29T13:56:50.0000000+00:00</time></trkpt><trkpt lat="43.185627" lon="19.278286"><ele>1022.6</ele><time>2012-04-29T13:56:55.0000000+00:00</time></trkpt><trkpt lat="43.185677" lon="19.278305"><ele>1022.6</ele><time>2012-04-29T13:57:00.0000000+00:00</time></trkpt><trkpt lat="43.185692" lon="19.278309"><ele>1022.5</ele><time>2012-04-29T13:57:05.0000000+00:00</time></trkpt><trkpt lat="43.185635" lon="19.27832"><ele>1022.4</ele><time>2012-04-29T13:57:10.0000000+00:00</time></trkpt><trkpt lat="43.185417" lon="19.278278"><ele>1022.3</ele><time>2012-04-29T13:57:15.0000000+00:00</time></trkpt><trkpt lat="43.185406" lon="19.278275"><ele>1022.2</ele><time>2012-04-29T13:57:20.0000000+00:00</time></trkpt><trkpt lat="43.185398" lon="19.278269"><ele>1022.1</ele><time>2012-04-29T13:57:25.0000000+00:00</time></trkpt><trkpt lat="43.185371" lon="19.27828"><ele>1021.9</ele><time>2012-04-29T13:57:30.0000000+00:00</time></trkpt><trkpt lat="43.185356" lon="19.278284"><ele>1021.5</ele><time>2012-04-29T13:57:35.0000000+00:00</time></trkpt><trkpt lat="43.185329" lon="19.278275"><ele>1021.0</ele><time>2012-04-29T13:57:40.0000000+00:00</time></trkpt><trkpt lat="43.185268" lon="19.278229"><ele>1021.4</ele><time>2012-04-29T13:57:45.0000000+00:00</time></trkpt><trkpt lat="43.185253" lon="19.278189"><ele>1021.1</ele><time>2012-04-29T13:57:50.0000000+00:00</time></trkpt><trkpt lat="43.185234" lon="19.278141"><ele>1021.0</ele><time>2012-04-29T13:57:55.0000000+00:00</time></trkpt><trkpt lat="43.185207" lon="19.278069"><ele>1021.1</ele><time>2012-04-29T13:58:00.0000000+00:00</time></trkpt><trkpt lat="43.185204" lon="19.278"><ele>1021.4</ele><time>2012-04-29T13:58:05.0000000+00:00</time></trkpt><trkpt lat="43.185165" lon="19.27791"><ele>1021.7</ele><time>2012-04-29T13:58:10.0000000+00:00</time></trkpt><trkpt lat="43.18512" lon="19.277826"><ele>1022.7</ele><time>2012-04-29T13:58:15.0000000+00:00</time></trkpt><trkpt lat="43.185062" lon="19.277763"><ele>1024.1</ele><time>2012-04-29T13:58:20.0000000+00:00</time></trkpt><trkpt lat="43.185017" lon="19.277689"><ele>1024.4</ele><time>2012-04-29T13:58:25.0000000+00:00</time></trkpt><trkpt lat="43.184959" lon="19.277637"><ele>1026.1</ele><time>2012-04-29T13:58:30.0000000+00:00</time></trkpt><trkpt lat="43.184883" lon="19.277575"><ele>1027.5</ele><time>2012-04-29T13:58:35.0000000+00:00</time></trkpt><trkpt lat="43.184788" lon="19.277529"><ele>1026.7</ele><time>2012-04-29T13:58:40.0000000+00:00</time></trkpt><trkpt lat="43.184643" lon="19.277489"><ele>1027.3</ele><time>2012-04-29T13:58:45.0000000+00:00</time></trkpt><trkpt lat="43.184563" lon="19.277456"><ele>1028.1</ele><time>2012-04-29T13:58:50.0000000+00:00</time></trkpt><trkpt lat="43.18449" lon="19.277428"><ele>1029.5</ele><time>2012-04-29T13:58:55.0000000+00:00</time></trkpt><trkpt lat="43.184425" lon="19.277399"><ele>1030.5</ele><time>2012-04-29T13:59:00.0000000+00:00</time></trkpt><trkpt lat="43.184368" lon="19.277376"><ele>1030.8</ele><time>2012-04-29T13:59:05.0000000+00:00</time></trkpt><trkpt lat="43.184303" lon="19.277328"><ele>1031.4</ele><time>2012-04-29T13:59:10.0000000+00:00</time></trkpt><trkpt lat="43.184258" lon="19.277283"><ele>1030.2</ele><time>2012-04-29T13:59:15.0000000+00:00</time></trkpt><trkpt lat="43.184216" lon="19.277227"><ele>1028.1</ele><time>2012-04-29T13:59:20.0000000+00:00</time></trkpt><trkpt lat="43.184181" lon="19.277153"><ele>1027.5</ele><time>2012-04-29T13:59:25.0000000+00:00</time></trkpt><trkpt lat="43.184147" lon="19.277081"><ele>1028.9</ele><time>2012-04-29T13:59:30.0000000+00:00</time></trkpt><trkpt lat="43.184109" lon="19.277014"><ele>1028.5</ele><time>2012-04-29T13:59:35.0000000+00:00</time></trkpt><trkpt lat="43.184074" lon="19.276941"><ele>1029.3</ele><time>2012-04-29T13:59:40.0000000+00:00</time></trkpt><trkpt lat="43.184013" lon="19.276861"><ele>1028.2</ele><time>2012-04-29T13:59:45.0000000+00:00</time></trkpt><trkpt lat="43.183945" lon="19.27681"><ele>1027.4</ele><time>2012-04-29T13:59:50.0000000+00:00</time></trkpt><trkpt lat="43.183872" lon="19.276762"><ele>1027.1</ele><time>2012-04-29T13:59:55.0000000+00:00</time></trkpt><trkpt lat="43.183788" lon="19.276747"><ele>1027.8</ele><time>2012-04-29T14:00:00.0000000+00:00</time></trkpt><trkpt lat="43.183723" lon="19.276737"><ele>1029.1</ele><time>2012-04-29T14:00:05.0000000+00:00</time></trkpt><trkpt lat="43.183659" lon="19.276737"><ele>1029.5</ele><time>2012-04-29T14:00:10.0000000+00:00</time></trkpt><trkpt lat="43.183624" lon="19.276737"><ele>1028.1</ele><time>2012-04-29T14:00:15.0000000+00:00</time></trkpt><trkpt lat="43.183628" lon="19.276735"><ele>1027.9</ele><time>2012-04-29T14:00:20.0000000+00:00</time></trkpt><trkpt lat="43.183628" lon="19.276735"><ele>1027.6</ele><time>2012-04-29T14:00:25.0000000+00:00</time></trkpt><trkpt lat="43.183628" lon="19.276731"><ele>1027.9</ele><time>2012-04-29T14:00:30.0000000+00:00</time></trkpt><trkpt lat="43.183628" lon="19.276731"><ele>1027.9</ele><time>2012-04-29T14:00:35.0000000+00:00</time></trkpt><trkpt lat="43.183628" lon="19.276733"><ele>1027.9</ele><time>2012-04-29T14:00:40.0000000+00:00</time></trkpt><trkpt lat="43.183628" lon="19.276733"><ele>1027.8</ele><time>2012-04-29T14:00:45.0000000+00:00</time></trkpt><trkpt lat="43.183628" lon="19.276733"><ele>1027.8</ele><time>2012-04-29T14:00:50.0000000+00:00</time></trkpt><trkpt lat="43.183628" lon="19.276733"><ele>1027.8</ele><time>2012-04-29T14:00:55.0000000+00:00</time></trkpt><trkpt lat="43.183556" lon="19.276751"><ele>1026.8</ele><time>2012-04-29T14:01:00.0000000+00:00</time></trkpt><trkpt lat="43.183479" lon="19.276762"><ele>1026.5</ele><time>2012-04-29T14:01:05.0000000+00:00</time></trkpt><trkpt lat="43.183395" lon="19.276764"><ele>1026.6</ele><time>2012-04-29T14:01:10.0000000+00:00</time></trkpt><trkpt lat="43.183327" lon="19.276775"><ele>1026.6</ele><time>2012-04-29T14:01:15.0000000+00:00</time></trkpt><trkpt lat="43.183262" lon="19.276793"><ele>1026.9</ele><time>2012-04-29T14:01:20.0000000+00:00</time></trkpt><trkpt lat="43.183189" lon="19.276804"><ele>1026.9</ele><time>2012-04-29T14:01:25.0000000+00:00</time></trkpt><trkpt lat="43.183105" lon="19.276798"><ele>1027.0</ele><time>2012-04-29T14:01:30.0000000+00:00</time></trkpt><trkpt lat="43.183041" lon="19.276791"><ele>1026.4</ele><time>2012-04-29T14:01:35.0000000+00:00</time></trkpt><trkpt lat="43.182976" lon="19.276772"><ele>1026.1</ele><time>2012-04-29T14:01:40.0000000+00:00</time></trkpt><trkpt lat="43.182911" lon="19.276752"><ele>1024.8</ele><time>2012-04-29T14:01:45.0000000+00:00</time></trkpt><trkpt lat="43.182884" lon="19.276751"><ele>1024.6</ele><time>2012-04-29T14:01:50.0000000+00:00</time></trkpt><trkpt lat="43.182888" lon="19.276756"><ele>1024.5</ele><time>2012-04-29T14:01:55.0000000+00:00</time></trkpt><trkpt lat="43.182888" lon="19.276756"><ele>1024.5</ele><time>2012-04-29T14:02:00.0000000+00:00</time></trkpt><trkpt lat="43.182888" lon="19.276758"><ele>1024.5</ele><time>2012-04-29T14:02:05.0000000+00:00</time></trkpt><trkpt lat="43.182888" lon="19.276758"><ele>1024.5</ele><time>2012-04-29T14:02:10.0000000+00:00</time></trkpt><trkpt lat="43.182838" lon="19.276737"><ele>1024.4</ele><time>2012-04-29T14:02:15.0000000+00:00</time></trkpt><trkpt lat="43.182755" lon="19.276701"><ele>1024.1</ele><time>2012-04-29T14:02:20.0000000+00:00</time></trkpt><trkpt lat="43.182682" lon="19.27667"><ele>1023.4</ele><time>2012-04-29T14:02:25.0000000+00:00</time></trkpt><trkpt lat="43.182613" lon="19.276634"><ele>1023.2</ele><time>2012-04-29T14:02:30.0000000+00:00</time></trkpt><trkpt lat="43.182549" lon="19.276585"><ele>1022.0</ele><time>2012-04-29T14:02:35.0000000+00:00</time></trkpt><trkpt lat="43.182491" lon="19.276541"><ele>1019.9</ele><time>2012-04-29T14:02:40.0000000+00:00</time></trkpt><trkpt lat="43.182438" lon="19.276493"><ele>1019.5</ele><time>2012-04-29T14:02:45.0000000+00:00</time></trkpt><trkpt lat="43.182396" lon="19.276436"><ele>1018.4</ele><time>2012-04-29T14:02:50.0000000+00:00</time></trkpt><trkpt lat="43.182362" lon="19.276375"><ele>1017.4</ele><time>2012-04-29T14:02:55.0000000+00:00</time></trkpt><trkpt lat="43.182335" lon="19.276318"><ele>1016.6</ele><time>2012-04-29T14:03:00.0000000+00:00</time></trkpt><trkpt lat="43.182297" lon="19.276243"><ele>1015.4</ele><time>2012-04-29T14:03:05.0000000+00:00</time></trkpt><trkpt lat="43.18227" lon="19.276167"><ele>1014.6</ele><time>2012-04-29T14:03:10.0000000+00:00</time></trkpt><trkpt lat="43.182224" lon="19.276093"><ele>1014.8</ele><time>2012-04-29T14:03:15.0000000+00:00</time></trkpt><trkpt lat="43.182171" lon="19.276022"><ele>1014.1</ele><time>2012-04-29T14:03:20.0000000+00:00</time></trkpt><trkpt lat="43.182152" lon="19.276012"><ele>1013.7</ele><time>2012-04-29T14:03:25.0000000+00:00</time></trkpt><trkpt lat="43.18214" lon="19.276003"><ele>1013.3</ele><time>2012-04-29T14:03:30.0000000+00:00</time></trkpt><trkpt lat="43.182102" lon="19.275938"><ele>1012.8</ele><time>2012-04-29T14:03:35.0000000+00:00</time></trkpt><trkpt lat="43.182053" lon="19.275858"><ele>1013.2</ele><time>2012-04-29T14:03:40.0000000+00:00</time></trkpt><trkpt lat="43.182014" lon="19.275774"><ele>1013.0</ele><time>2012-04-29T14:03:45.0000000+00:00</time></trkpt><trkpt lat="43.181984" lon="19.275681"><ele>1012.5</ele><time>2012-04-29T14:03:50.0000000+00:00</time></trkpt><trkpt lat="43.181976" lon="19.275585"><ele>1013.1</ele><time>2012-04-29T14:03:55.0000000+00:00</time></trkpt><trkpt lat="43.181969" lon="19.275488"><ele>1013.1</ele><time>2012-04-29T14:04:00.0000000+00:00</time></trkpt><trkpt lat="43.181957" lon="19.275393"><ele>1012.1</ele><time>2012-04-29T14:04:05.0000000+00:00</time></trkpt><trkpt lat="43.181919" lon="19.275299"><ele>1010.1</ele><time>2012-04-29T14:04:10.0000000+00:00</time></trkpt><trkpt lat="43.181885" lon="19.275196"><ele>1008.7</ele><time>2012-04-29T14:04:15.0000000+00:00</time></trkpt><trkpt lat="43.181858" lon="19.275101"><ele>1008.8</ele><time>2012-04-29T14:04:20.0000000+00:00</time></trkpt><trkpt lat="43.181816" lon="19.275007"><ele>1007.5</ele><time>2012-04-29T14:04:25.0000000+00:00</time></trkpt><trkpt lat="43.181778" lon="19.274935"><ele>1006.9</ele><time>2012-04-29T14:04:30.0000000+00:00</time></trkpt><trkpt lat="43.181747" lon="19.274849"><ele>1005.4</ele><time>2012-04-29T14:04:35.0000000+00:00</time></trkpt><trkpt lat="43.181713" lon="19.274759"><ele>1004.5</ele><time>2012-04-29T14:04:40.0000000+00:00</time></trkpt><trkpt lat="43.181667" lon="19.274694"><ele>1003.3</ele><time>2012-04-29T14:04:45.0000000+00:00</time></trkpt><trkpt lat="43.181606" lon="19.274633"><ele>1002.4</ele><time>2012-04-29T14:04:50.0000000+00:00</time></trkpt><trkpt lat="43.181549" lon="19.274565"><ele>1001.4</ele><time>2012-04-29T14:04:55.0000000+00:00</time></trkpt><trkpt lat="43.181492" lon="19.274496"><ele>1000.3</ele><time>2012-04-29T14:05:00.0000000+00:00</time></trkpt><trkpt lat="43.181446" lon="19.274427"><ele>1000.5</ele><time>2012-04-29T14:05:05.0000000+00:00</time></trkpt><trkpt lat="43.181404" lon="19.274364"><ele>1000.6</ele><time>2012-04-29T14:05:10.0000000+00:00</time></trkpt><trkpt lat="43.181343" lon="19.274305"><ele>1000.5</ele><time>2012-04-29T14:05:15.0000000+00:00</time></trkpt><trkpt lat="43.181286" lon="19.274242"><ele>1000.7</ele><time>2012-04-29T14:05:20.0000000+00:00</time></trkpt><trkpt lat="43.181229" lon="19.274187"><ele>1001.0</ele><time>2012-04-29T14:05:25.0000000+00:00</time></trkpt><trkpt lat="43.181175" lon="19.274147"><ele>1001.2</ele><time>2012-04-29T14:05:30.0000000+00:00</time></trkpt><trkpt lat="43.181129" lon="19.274137"><ele>1001.4</ele><time>2012-04-29T14:05:35.0000000+00:00</time></trkpt><trkpt lat="43.181049" lon="19.274118"><ele>1001.8</ele><time>2012-04-29T14:05:40.0000000+00:00</time></trkpt><trkpt lat="43.180969" lon="19.274107"><ele>1001.8</ele><time>2012-04-29T14:05:45.0000000+00:00</time></trkpt><trkpt lat="43.180897" lon="19.274088"><ele>1001.9</ele><time>2012-04-29T14:05:50.0000000+00:00</time></trkpt><trkpt lat="43.18082" lon="19.274052"><ele>1002.5</ele><time>2012-04-29T14:05:55.0000000+00:00</time></trkpt><trkpt lat="43.180771" lon="19.274014"><ele>1001.5</ele><time>2012-04-29T14:06:00.0000000+00:00</time></trkpt><trkpt lat="43.180733" lon="19.273958"><ele>1000.2</ele><time>2012-04-29T14:06:05.0000000+00:00</time></trkpt><trkpt lat="43.180698" lon="19.273884"><ele>999.0</ele><time>2012-04-29T14:06:10.0000000+00:00</time></trkpt><trkpt lat="43.180676" lon="19.273787"><ele>997.5</ele><time>2012-04-29T14:06:15.0000000+00:00</time></trkpt><trkpt lat="43.180664" lon="19.273685"><ele>996.3</ele><time>2012-04-29T14:06:20.0000000+00:00</time></trkpt><trkpt lat="43.180637" lon="19.273594"><ele>994.2</ele><time>2012-04-29T14:06:25.0000000+00:00</time></trkpt><trkpt lat="43.180637" lon="19.2735"><ele>994.0</ele><time>2012-04-29T14:06:30.0000000+00:00</time></trkpt><trkpt lat="43.18063" lon="19.273397"><ele>992.7</ele><time>2012-04-29T14:06:35.0000000+00:00</time></trkpt><trkpt lat="43.180641" lon="19.273289"><ele>993.6</ele><time>2012-04-29T14:06:40.0000000+00:00</time></trkpt><trkpt lat="43.180676" lon="19.273207"><ele>993.6</ele><time>2012-04-29T14:06:45.0000000+00:00</time></trkpt><trkpt lat="43.18071" lon="19.273125"><ele>994.0</ele><time>2012-04-29T14:06:50.0000000+00:00</time></trkpt><trkpt lat="43.180729" lon="19.273026"><ele>994.9</ele><time>2012-04-29T14:06:55.0000000+00:00</time></trkpt><trkpt lat="43.180737" lon="19.272928"><ele>995.1</ele><time>2012-04-29T14:07:00.0000000+00:00</time></trkpt><trkpt lat="43.180744" lon="19.272869"><ele>994.7</ele><time>2012-04-29T14:07:05.0000000+00:00</time></trkpt><trkpt lat="43.180748" lon="19.272854"><ele>995.0</ele><time>2012-04-29T14:07:10.0000000+00:00</time></trkpt><trkpt lat="43.180752" lon="19.272785"><ele>994.1</ele><time>2012-04-29T14:07:15.0000000+00:00</time></trkpt><trkpt lat="43.180744" lon="19.272673"><ele>992.6</ele><time>2012-04-29T14:07:20.0000000+00:00</time></trkpt><trkpt lat="43.180733" lon="19.272572"><ele>991.3</ele><time>2012-04-29T14:07:25.0000000+00:00</time></trkpt><trkpt lat="43.180717" lon="19.272465"><ele>989.7</ele><time>2012-04-29T14:07:30.0000000+00:00</time></trkpt><trkpt lat="43.180702" lon="19.272358"><ele>988.5</ele><time>2012-04-29T14:07:35.0000000+00:00</time></trkpt><trkpt lat="43.180691" lon="19.272253"><ele>988.1</ele><time>2012-04-29T14:07:40.0000000+00:00</time></trkpt><trkpt lat="43.180687" lon="19.272152"><ele>987.9</ele><time>2012-04-29T14:07:45.0000000+00:00</time></trkpt><trkpt lat="43.180683" lon="19.272053"><ele>987.3</ele><time>2012-04-29T14:07:50.0000000+00:00</time></trkpt><trkpt lat="43.180676" lon="19.271963"><ele>986.8</ele><time>2012-04-29T14:07:55.0000000+00:00</time></trkpt><trkpt lat="43.180653" lon="19.27187"><ele>986.7</ele><time>2012-04-29T14:08:00.0000000+00:00</time></trkpt><trkpt lat="43.180618" lon="19.271782"><ele>986.1</ele><time>2012-04-29T14:08:05.0000000+00:00</time></trkpt><trkpt lat="43.180607" lon="19.271709"><ele>986.2</ele><time>2012-04-29T14:08:10.0000000+00:00</time></trkpt><trkpt lat="43.180607" lon="19.271692"><ele>986.0</ele><time>2012-04-29T14:08:15.0000000+00:00</time></trkpt><trkpt lat="43.180611" lon="19.271595"><ele>986.7</ele><time>2012-04-29T14:08:20.0000000+00:00</time></trkpt><trkpt lat="43.180614" lon="19.271505"><ele>986.6</ele><time>2012-04-29T14:08:25.0000000+00:00</time></trkpt><trkpt lat="43.180614" lon="19.27141"><ele>986.6</ele><time>2012-04-29T14:08:30.0000000+00:00</time></trkpt><trkpt lat="43.18063" lon="19.271315"><ele>987.6</ele><time>2012-04-29T14:08:35.0000000+00:00</time></trkpt><trkpt lat="43.180649" lon="19.271236"><ele>988.3</ele><time>2012-04-29T14:08:40.0000000+00:00</time></trkpt><trkpt lat="43.18063" lon="19.271223"><ele>986.7</ele><time>2012-04-29T14:08:45.0000000+00:00</time></trkpt><trkpt lat="43.18063" lon="19.271223"><ele>986.6</ele><time>2012-04-29T14:08:50.0000000+00:00</time></trkpt><trkpt lat="43.180614" lon="19.271145"><ele>986.2</ele><time>2012-04-29T14:08:55.0000000+00:00</time></trkpt><trkpt lat="43.180637" lon="19.271074"><ele>986.8</ele><time>2012-04-29T14:09:00.0000000+00:00</time></trkpt><trkpt lat="43.180634" lon="19.270969"><ele>985.5</ele><time>2012-04-29T14:09:05.0000000+00:00</time></trkpt><trkpt lat="43.180626" lon="19.270863"><ele>984.4</ele><time>2012-04-29T14:09:10.0000000+00:00</time></trkpt><trkpt lat="43.180626" lon="19.270746"><ele>983.7</ele><time>2012-04-29T14:09:15.0000000+00:00</time></trkpt><trkpt lat="43.180637" lon="19.270622"><ele>984.3</ele><time>2012-04-29T14:09:20.0000000+00:00</time></trkpt><trkpt lat="43.180672" lon="19.270521"><ele>984.9</ele><time>2012-04-29T14:09:25.0000000+00:00</time></trkpt><trkpt lat="43.180695" lon="19.27042"><ele>985.7</ele><time>2012-04-29T14:09:30.0000000+00:00</time></trkpt><trkpt lat="43.180706" lon="19.270317"><ele>986.8</ele><time>2012-04-29T14:09:35.0000000+00:00</time></trkpt><trkpt lat="43.180737" lon="19.270224"><ele>987.1</ele><time>2012-04-29T14:09:40.0000000+00:00</time></trkpt><trkpt lat="43.180752" lon="19.270128"><ele>986.3</ele><time>2012-04-29T14:09:45.0000000+00:00</time></trkpt><trkpt lat="43.180744" lon="19.270035"><ele>984.6</ele><time>2012-04-29T14:09:50.0000000+00:00</time></trkpt><trkpt lat="43.180691" lon="19.269957"><ele>983.0</ele><time>2012-04-29T14:09:55.0000000+00:00</time></trkpt><trkpt lat="43.180595" lon="19.269917"><ele>980.9</ele><time>2012-04-29T14:10:00.0000000+00:00</time></trkpt><trkpt lat="43.180508" lon="19.269884"><ele>979.7</ele><time>2012-04-29T14:10:05.0000000+00:00</time></trkpt><trkpt lat="43.180435" lon="19.269865"><ele>979.3</ele><time>2012-04-29T14:10:10.0000000+00:00</time></trkpt><trkpt lat="43.180367" lon="19.269852"><ele>979.3</ele><time>2012-04-29T14:10:15.0000000+00:00</time></trkpt><trkpt lat="43.180305" lon="19.269833"><ele>979.2</ele><time>2012-04-29T14:10:20.0000000+00:00</time></trkpt><trkpt lat="43.180298" lon="19.269829"><ele>978.6</ele><time>2012-04-29T14:10:25.0000000+00:00</time></trkpt><trkpt lat="43.180229" lon="19.269804"><ele>979.0</ele><time>2012-04-29T14:10:30.0000000+00:00</time></trkpt><trkpt lat="43.180164" lon="19.269781"><ele>980.0</ele><time>2012-04-29T14:10:35.0000000+00:00</time></trkpt><trkpt lat="43.180107" lon="19.269762"><ele>981.6</ele><time>2012-04-29T14:10:40.0000000+00:00</time></trkpt><trkpt lat="43.18005" lon="19.269726"><ele>982.4</ele><time>2012-04-29T14:10:45.0000000+00:00</time></trkpt><trkpt lat="43.179993" lon="19.269695"><ele>983.6</ele><time>2012-04-29T14:10:50.0000000+00:00</time></trkpt><trkpt lat="43.179947" lon="19.269663"><ele>983.8</ele><time>2012-04-29T14:10:55.0000000+00:00</time></trkpt><trkpt lat="43.17989" lon="19.269621"><ele>983.8</ele><time>2012-04-29T14:11:00.0000000+00:00</time></trkpt><trkpt lat="43.17984" lon="19.269592"><ele>984.6</ele><time>2012-04-29T14:11:05.0000000+00:00</time></trkpt><trkpt lat="43.179794" lon="19.269564"><ele>985.4</ele><time>2012-04-29T14:11:10.0000000+00:00</time></trkpt><trkpt lat="43.179749" lon="19.269535"><ele>987.1</ele><time>2012-04-29T14:11:15.0000000+00:00</time></trkpt><trkpt lat="43.179729" lon="19.269524"><ele>988.2</ele><time>2012-04-29T14:11:20.0000000+00:00</time></trkpt><trkpt lat="43.17968" lon="19.269514"><ele>989.9</ele><time>2012-04-29T14:11:25.0000000+00:00</time></trkpt><trkpt lat="43.17963" lon="19.26952"><ele>990.4</ele><time>2012-04-29T14:11:30.0000000+00:00</time></trkpt><trkpt lat="43.179573" lon="19.269495"><ele>991.0</ele><time>2012-04-29T14:11:35.0000000+00:00</time></trkpt><trkpt lat="43.17952" lon="19.269476"><ele>991.9</ele><time>2012-04-29T14:11:40.0000000+00:00</time></trkpt><trkpt lat="43.179466" lon="19.269447"><ele>993.0</ele><time>2012-04-29T14:11:45.0000000+00:00</time></trkpt><trkpt lat="43.179428" lon="19.269398"><ele>993.6</ele><time>2012-04-29T14:11:50.0000000+00:00</time></trkpt><trkpt lat="43.179398" lon="19.269335"><ele>994.5</ele><time>2012-04-29T14:11:55.0000000+00:00</time></trkpt><trkpt lat="43.179367" lon="19.269272"><ele>994.3</ele><time>2012-04-29T14:12:00.0000000+00:00</time></trkpt><trkpt lat="43.179325" lon="19.269207"><ele>995.1</ele><time>2012-04-29T14:12:05.0000000+00:00</time></trkpt><trkpt lat="43.179272" lon="19.269157"><ele>995.7</ele><time>2012-04-29T14:12:10.0000000+00:00</time></trkpt><trkpt lat="43.179222" lon="19.2691"><ele>995.4</ele><time>2012-04-29T14:12:15.0000000+00:00</time></trkpt><trkpt lat="43.179127" lon="19.269066"><ele>994.2</ele><time>2012-04-29T14:12:20.0000000+00:00</time></trkpt><trkpt lat="43.17905" lon="19.269072"><ele>993.6</ele><time>2012-04-29T14:12:25.0000000+00:00</time></trkpt><trkpt lat="43.179035" lon="19.269066"><ele>993.7</ele><time>2012-04-29T14:12:30.0000000+00:00</time></trkpt><trkpt lat="43.179035" lon="19.269066"><ele>993.7</ele><time>2012-04-29T14:12:35.0000000+00:00</time></trkpt><trkpt lat="43.179035" lon="19.269066"><ele>993.7</ele><time>2012-04-29T14:12:40.0000000+00:00</time></trkpt><trkpt lat="43.179035" lon="19.269068"><ele>993.7</ele><time>2012-04-29T14:12:45.0000000+00:00</time></trkpt><trkpt lat="43.179035" lon="19.269068"><ele>993.7</ele><time>2012-04-29T14:12:50.0000000+00:00</time></trkpt><trkpt lat="43.179035" lon="19.269068"><ele>993.7</ele><time>2012-04-29T14:12:55.0000000+00:00</time></trkpt><trkpt lat="43.179035" lon="19.269068"><ele>993.7</ele><time>2012-04-29T14:13:00.0000000+00:00</time></trkpt><trkpt lat="43.179028" lon="19.269072"><ele>993.6</ele><time>2012-04-29T14:13:05.0000000+00:00</time></trkpt><trkpt lat="43.178963" lon="19.269108"><ele>992.2</ele><time>2012-04-29T14:13:10.0000000+00:00</time></trkpt><trkpt lat="43.178917" lon="19.269154"><ele>990.5</ele><time>2012-04-29T14:13:15.0000000+00:00</time></trkpt><trkpt lat="43.17886" lon="19.269182"><ele>990.6</ele><time>2012-04-29T14:13:20.0000000+00:00</time></trkpt><trkpt lat="43.178795" lon="19.269196"><ele>990.6</ele><time>2012-04-29T14:13:25.0000000+00:00</time></trkpt><trkpt lat="43.17873" lon="19.269199"><ele>990.8</ele><time>2012-04-29T14:13:30.0000000+00:00</time></trkpt><trkpt lat="43.178661" lon="19.269197"><ele>991.0</ele><time>2012-04-29T14:13:35.0000000+00:00</time></trkpt><trkpt lat="43.178596" lon="19.269197"><ele>990.7</ele><time>2012-04-29T14:13:40.0000000+00:00</time></trkpt><trkpt lat="43.178535" lon="19.269165"><ele>990.3</ele><time>2012-04-29T14:13:45.0000000+00:00</time></trkpt><trkpt lat="43.178482" lon="19.269125"><ele>990.6</ele><time>2012-04-29T14:13:50.0000000+00:00</time></trkpt><trkpt lat="43.178425" lon="19.269068"><ele>990.7</ele><time>2012-04-29T14:13:55.0000000+00:00</time></trkpt><trkpt lat="43.178356" lon="19.269011"><ele>990.6</ele><time>2012-04-29T14:14:00.0000000+00:00</time></trkpt><trkpt lat="43.178288" lon="19.268965"><ele>988.9</ele><time>2012-04-29T14:14:05.0000000+00:00</time></trkpt><trkpt lat="43.178226" lon="19.268917"><ele>988.9</ele><time>2012-04-29T14:14:10.0000000+00:00</time></trkpt><trkpt lat="43.178165" lon="19.268877"><ele>988.6</ele><time>2012-04-29T14:14:15.0000000+00:00</time></trkpt><trkpt lat="43.178101" lon="19.268831"><ele>987.8</ele><time>2012-04-29T14:14:20.0000000+00:00</time></trkpt><trkpt lat="43.178047" lon="19.268797"><ele>988.0</ele><time>2012-04-29T14:14:25.0000000+00:00</time></trkpt><trkpt lat="43.177994" lon="19.268753"><ele>988.4</ele><time>2012-04-29T14:14:30.0000000+00:00</time></trkpt><trkpt lat="43.177937" lon="19.2687"><ele>988.4</ele><time>2012-04-29T14:14:35.0000000+00:00</time></trkpt><trkpt lat="43.177883" lon="19.268641"><ele>987.8</ele><time>2012-04-29T14:14:40.0000000+00:00</time></trkpt><trkpt lat="43.177834" lon="19.268583"><ele>987.8</ele><time>2012-04-29T14:14:45.0000000+00:00</time></trkpt><trkpt lat="43.17778" lon="19.268526"><ele>988.7</ele><time>2012-04-29T14:14:50.0000000+00:00</time></trkpt><trkpt lat="43.177715" lon="19.268497"><ele>988.8</ele><time>2012-04-29T14:14:55.0000000+00:00</time></trkpt><trkpt lat="43.177647" lon="19.268484"><ele>987.9</ele><time>2012-04-29T14:15:00.0000000+00:00</time></trkpt><trkpt lat="43.177578" lon="19.268501"><ele>985.9</ele><time>2012-04-29T14:15:05.0000000+00:00</time></trkpt><trkpt lat="43.177513" lon="19.268532"><ele>984.1</ele><time>2012-04-29T14:15:10.0000000+00:00</time></trkpt><trkpt lat="43.177441" lon="19.268539"><ele>982.6</ele><time>2012-04-29T14:15:15.0000000+00:00</time></trkpt><trkpt lat="43.177383" lon="19.268501"><ele>982.2</ele><time>2012-04-29T14:15:20.0000000+00:00</time></trkpt><trkpt lat="43.177345" lon="19.268444"><ele>982.3</ele><time>2012-04-29T14:15:25.0000000+00:00</time></trkpt><trkpt lat="43.177315" lon="19.268385"><ele>983.4</ele><time>2012-04-29T14:15:30.0000000+00:00</time></trkpt><trkpt lat="43.17728" lon="19.268353"><ele>983.0</ele><time>2012-04-29T14:15:35.0000000+00:00</time></trkpt><trkpt lat="43.177212" lon="19.268309"><ele>982.3</ele><time>2012-04-29T14:15:40.0000000+00:00</time></trkpt><trkpt lat="43.177132" lon="19.268286"><ele>981.3</ele><time>2012-04-29T14:15:45.0000000+00:00</time></trkpt><trkpt lat="43.177067" lon="19.268261"><ele>980.6</ele><time>2012-04-29T14:15:50.0000000+00:00</time></trkpt><trkpt lat="43.176998" lon="19.268263"><ele>979.8</ele><time>2012-04-29T14:15:55.0000000+00:00</time></trkpt><trkpt lat="43.176922" lon="19.26829"><ele>978.3</ele><time>2012-04-29T14:16:00.0000000+00:00</time></trkpt><trkpt lat="43.176861" lon="19.268339"><ele>977.8</ele><time>2012-04-29T14:16:05.0000000+00:00</time></trkpt><trkpt lat="43.176815" lon="19.268423"><ele>976.7</ele><time>2012-04-29T14:16:10.0000000+00:00</time></trkpt><trkpt lat="43.176777" lon="19.268526"><ele>975.6</ele><time>2012-04-29T14:16:15.0000000+00:00</time></trkpt><trkpt lat="43.176743" lon="19.268621"><ele>976.0</ele><time>2012-04-29T14:16:20.0000000+00:00</time></trkpt><trkpt lat="43.176712" lon="19.268698"><ele>975.6</ele><time>2012-04-29T14:16:25.0000000+00:00</time></trkpt><trkpt lat="43.176666" lon="19.26877"><ele>975.0</ele><time>2012-04-29T14:16:30.0000000+00:00</time></trkpt><trkpt lat="43.176624" lon="19.268854"><ele>973.6</ele><time>2012-04-29T14:16:35.0000000+00:00</time></trkpt><trkpt lat="43.176579" lon="19.268917"><ele>973.6</ele><time>2012-04-29T14:16:40.0000000+00:00</time></trkpt><trkpt lat="43.176521" lon="19.268957"><ele>973.4</ele><time>2012-04-29T14:16:45.0000000+00:00</time></trkpt><trkpt lat="43.176453" lon="19.268976"><ele>974.3</ele><time>2012-04-29T14:16:50.0000000+00:00</time></trkpt><trkpt lat="43.176392" lon="19.268995"><ele>974.7</ele><time>2012-04-29T14:16:55.0000000+00:00</time></trkpt><trkpt lat="43.176327" lon="19.269012"><ele>973.6</ele><time>2012-04-29T14:17:00.0000000+00:00</time></trkpt><trkpt lat="43.176262" lon="19.269035"><ele>972.9</ele><time>2012-04-29T14:17:05.0000000+00:00</time></trkpt><trkpt lat="43.176197" lon="19.269062"><ele>972.0</ele><time>2012-04-29T14:17:10.0000000+00:00</time></trkpt><trkpt lat="43.176151" lon="19.269085"><ele>971.7</ele><time>2012-04-29T14:17:15.0000000+00:00</time></trkpt><trkpt lat="43.176128" lon="19.269106"><ele>971.5</ele><time>2012-04-29T14:17:20.0000000+00:00</time></trkpt><trkpt lat="43.176056" lon="19.269115"><ele>972.5</ele><time>2012-04-29T14:17:25.0000000+00:00</time></trkpt><trkpt lat="43.17601" lon="19.269119"><ele>972.5</ele><time>2012-04-29T14:17:30.0000000+00:00</time></trkpt><trkpt lat="43.175961" lon="19.269123"><ele>972.5</ele><time>2012-04-29T14:17:35.0000000+00:00</time></trkpt><trkpt lat="43.1759" lon="19.26915"><ele>972.2</ele><time>2012-04-29T14:17:40.0000000+00:00</time></trkpt><trkpt lat="43.175846" lon="19.269199"><ele>971.1</ele><time>2012-04-29T14:17:45.0000000+00:00</time></trkpt><trkpt lat="43.175804" lon="19.269255"><ele>970.6</ele><time>2012-04-29T14:17:50.0000000+00:00</time></trkpt><trkpt lat="43.175762" lon="19.269323"><ele>969.0</ele><time>2012-04-29T14:17:55.0000000+00:00</time></trkpt><trkpt lat="43.175732" lon="19.269348"><ele>968.2</ele><time>2012-04-29T14:18:00.0000000+00:00</time></trkpt><trkpt lat="43.175728" lon="19.269344"><ele>968.0</ele><time>2012-04-29T14:18:05.0000000+00:00</time></trkpt><trkpt lat="43.175728" lon="19.269344"><ele>968.0</ele><time>2012-04-29T14:18:10.0000000+00:00</time></trkpt><trkpt lat="43.175728" lon="19.269344"><ele>968.0</ele><time>2012-04-29T14:18:15.0000000+00:00</time></trkpt><trkpt lat="43.175716" lon="19.269392"><ele>965.5</ele><time>2012-04-29T14:18:20.0000000+00:00</time></trkpt><trkpt lat="43.175659" lon="19.269442"><ele>966.0</ele><time>2012-04-29T14:18:25.0000000+00:00</time></trkpt><trkpt lat="43.175602" lon="19.269472"><ele>964.6</ele><time>2012-04-29T14:18:30.0000000+00:00</time></trkpt><trkpt lat="43.175533" lon="19.269499"><ele>962.8</ele><time>2012-04-29T14:18:35.0000000+00:00</time></trkpt><trkpt lat="43.175449" lon="19.269484"><ele>965.8</ele><time>2012-04-29T14:18:40.0000000+00:00</time></trkpt><trkpt lat="43.175396" lon="19.269537"><ele>963.0</ele><time>2012-04-29T14:18:45.0000000+00:00</time></trkpt><trkpt lat="43.175339" lon="19.269569"><ele>961.6</ele><time>2012-04-29T14:18:50.0000000+00:00</time></trkpt><trkpt lat="43.175278" lon="19.269611"><ele>960.1</ele><time>2012-04-29T14:18:55.0000000+00:00</time></trkpt><trkpt lat="43.175217" lon="19.269655"><ele>960.1</ele><time>2012-04-29T14:19:00.0000000+00:00</time></trkpt><trkpt lat="43.175167" lon="19.269693"><ele>960.4</ele><time>2012-04-29T14:19:05.0000000+00:00</time></trkpt><trkpt lat="43.175159" lon="19.26969"><ele>960.6</ele><time>2012-04-29T14:19:10.0000000+00:00</time></trkpt><trkpt lat="43.175163" lon="19.269695"><ele>960.2</ele><time>2012-04-29T14:19:15.0000000+00:00</time></trkpt><trkpt lat="43.175125" lon="19.269733"><ele>959.5</ele><time>2012-04-29T14:19:20.0000000+00:00</time></trkpt><trkpt lat="43.175129" lon="19.269764"><ele>958.8</ele><time>2012-04-29T14:19:25.0000000+00:00</time></trkpt><trkpt lat="43.175152" lon="19.269785"><ele>958.2</ele><time>2012-04-29T14:19:30.0000000+00:00</time></trkpt><trkpt lat="43.175152" lon="19.269785"><ele>958.2</ele><time>2012-04-29T14:19:35.0000000+00:00</time></trkpt><trkpt lat="43.175152" lon="19.269785"><ele>958.2</ele><time>2012-04-29T14:19:40.0000000+00:00</time></trkpt><trkpt lat="43.175152" lon="19.269785"><ele>958.2</ele><time>2012-04-29T14:19:45.0000000+00:00</time></trkpt><trkpt lat="43.175152" lon="19.269787"><ele>958.2</ele><time>2012-04-29T14:19:50.0000000+00:00</time></trkpt><trkpt lat="43.175152" lon="19.269787"><ele>958.2</ele><time>2012-04-29T14:19:55.0000000+00:00</time></trkpt><trkpt lat="43.175152" lon="19.269787"><ele>958.2</ele><time>2012-04-29T14:20:00.0000000+00:00</time></trkpt><trkpt lat="43.175152" lon="19.269785"><ele>958.2</ele><time>2012-04-29T14:20:05.0000000+00:00</time></trkpt><trkpt lat="43.175152" lon="19.269785"><ele>958.2</ele><time>2012-04-29T14:20:10.0000000+00:00</time></trkpt><trkpt lat="43.175152" lon="19.269785"><ele>958.3</ele><time>2012-04-29T14:20:15.0000000+00:00</time></trkpt><trkpt lat="43.175152" lon="19.269787"><ele>958.3</ele><time>2012-04-29T14:20:20.0000000+00:00</time></trkpt><trkpt lat="43.175152" lon="19.269787"><ele>958.3</ele><time>2012-04-29T14:20:25.0000000+00:00</time></trkpt><trkpt lat="43.175152" lon="19.269787"><ele>958.4</ele><time>2012-04-29T14:20:30.0000000+00:00</time></trkpt><trkpt lat="43.175152" lon="19.269787"><ele>958.4</ele><time>2012-04-29T14:20:35.0000000+00:00</time></trkpt><trkpt lat="43.175152" lon="19.269787"><ele>958.4</ele><time>2012-04-29T14:20:40.0000000+00:00</time></trkpt><trkpt lat="43.175152" lon="19.269787"><ele>958.4</ele><time>2012-04-29T14:20:45.0000000+00:00</time></trkpt><trkpt lat="43.175152" lon="19.269787"><ele>958.4</ele><time>2012-04-29T14:20:50.0000000+00:00</time></trkpt><trkpt lat="43.175152" lon="19.269787"><ele>958.4</ele><time>2012-04-29T14:20:55.0000000+00:00</time></trkpt><trkpt lat="43.175152" lon="19.269781"><ele>958.5</ele><time>2012-04-29T14:21:00.0000000+00:00</time></trkpt><trkpt lat="43.175114" lon="19.269789"><ele>958.6</ele><time>2012-04-29T14:21:05.0000000+00:00</time></trkpt><trkpt lat="43.175045" lon="19.269819"><ele>958.8</ele><time>2012-04-29T14:21:10.0000000+00:00</time></trkpt><trkpt lat="43.174973" lon="19.269852"><ele>959.2</ele><time>2012-04-29T14:21:15.0000000+00:00</time></trkpt><trkpt lat="43.174908" lon="19.26989"><ele>958.9</ele><time>2012-04-29T14:21:20.0000000+00:00</time></trkpt><trkpt lat="43.174847" lon="19.26992"><ele>957.9</ele><time>2012-04-29T14:21:25.0000000+00:00</time></trkpt><trkpt lat="43.174782" lon="19.269939"><ele>956.8</ele><time>2012-04-29T14:21:30.0000000+00:00</time></trkpt><trkpt lat="43.174721" lon="19.269953"><ele>956.0</ele><time>2012-04-29T14:21:35.0000000+00:00</time></trkpt><trkpt lat="43.17466" lon="19.26997"><ele>954.2</ele><time>2012-04-29T14:21:40.0000000+00:00</time></trkpt><trkpt lat="43.174595" lon="19.269966"><ele>954.3</ele><time>2012-04-29T14:21:45.0000000+00:00</time></trkpt><trkpt lat="43.174522" lon="19.269953"><ele>954.4</ele><time>2012-04-29T14:21:50.0000000+00:00</time></trkpt><trkpt lat="43.174454" lon="19.269949"><ele>955.2</ele><time>2012-04-29T14:21:55.0000000+00:00</time></trkpt><trkpt lat="43.174389" lon="19.269953"><ele>954.9</ele><time>2012-04-29T14:22:00.0000000+00:00</time></trkpt><trkpt lat="43.174305" lon="19.269974"><ele>954.2</ele><time>2012-04-29T14:22:05.0000000+00:00</time></trkpt><trkpt lat="43.17421" lon="19.269987"><ele>953.2</ele><time>2012-04-29T14:22:10.0000000+00:00</time></trkpt><trkpt lat="43.174126" lon="19.270016"><ele>953.3</ele><time>2012-04-29T14:22:15.0000000+00:00</time></trkpt><trkpt lat="43.174042" lon="19.270041"><ele>953.9</ele><time>2012-04-29T14:22:20.0000000+00:00</time></trkpt><trkpt lat="43.173958" lon="19.270082"><ele>954.5</ele><time>2012-04-29T14:22:25.0000000+00:00</time></trkpt><trkpt lat="43.173885" lon="19.27014"><ele>953.9</ele><time>2012-04-29T14:22:30.0000000+00:00</time></trkpt><trkpt lat="43.173836" lon="19.270205"><ele>952.9</ele><time>2012-04-29T14:22:35.0000000+00:00</time></trkpt><trkpt lat="43.173759" lon="19.270245"><ele>953.3</ele><time>2012-04-29T14:22:40.0000000+00:00</time></trkpt><trkpt lat="43.173706" lon="19.270309"><ele>953.0</ele><time>2012-04-29T14:22:45.0000000+00:00</time></trkpt><trkpt lat="43.17363" lon="19.27035"><ele>952.7</ele><time>2012-04-29T14:22:50.0000000+00:00</time></trkpt><trkpt lat="43.173569" lon="19.270407"><ele>952.1</ele><time>2012-04-29T14:22:55.0000000+00:00</time></trkpt><trkpt lat="43.173492" lon="19.270433"><ele>951.2</ele><time>2012-04-29T14:23:00.0000000+00:00</time></trkpt><trkpt lat="43.173508" lon="19.270504"><ele>950.7</ele><time>2012-04-29T14:23:05.0000000+00:00</time></trkpt><trkpt lat="43.173534" lon="19.270533"><ele>950.6</ele><time>2012-04-29T14:23:10.0000000+00:00</time></trkpt><trkpt lat="43.173546" lon="19.270575"><ele>951.7</ele><time>2012-04-29T14:23:15.0000000+00:00</time></trkpt><trkpt lat="43.173527" lon="19.270662"><ele>952.5</ele><time>2012-04-29T14:23:20.0000000+00:00</time></trkpt><trkpt lat="43.173458" lon="19.2707"><ele>953.3</ele><time>2012-04-29T14:23:25.0000000+00:00</time></trkpt><trkpt lat="43.173386" lon="19.270718"><ele>955.2</ele><time>2012-04-29T14:23:30.0000000+00:00</time></trkpt><trkpt lat="43.173332" lon="19.270777"><ele>951.1</ele><time>2012-04-29T14:23:35.0000000+00:00</time></trkpt><trkpt lat="43.173283" lon="19.270815"><ele>949.6</ele><time>2012-04-29T14:23:40.0000000+00:00</time></trkpt><trkpt lat="43.173275" lon="19.270885"><ele>948.3</ele><time>2012-04-29T14:23:45.0000000+00:00</time></trkpt><trkpt lat="43.173222" lon="19.270889"><ele>946.0</ele><time>2012-04-29T14:23:50.0000000+00:00</time></trkpt><trkpt lat="43.173153" lon="19.270887"><ele>944.5</ele><time>2012-04-29T14:23:55.0000000+00:00</time></trkpt><trkpt lat="43.173084" lon="19.270884"><ele>942.9</ele><time>2012-04-29T14:24:00.0000000+00:00</time></trkpt><trkpt lat="43.173" lon="19.270901"><ele>941.8</ele><time>2012-04-29T14:24:05.0000000+00:00</time></trkpt><trkpt lat="43.172916" lon="19.270903"><ele>939.4</ele><time>2012-04-29T14:24:10.0000000+00:00</time></trkpt><trkpt lat="43.172844" lon="19.27092"><ele>938.9</ele><time>2012-04-29T14:24:15.0000000+00:00</time></trkpt><trkpt lat="43.172821" lon="19.270918"><ele>937.6</ele><time>2012-04-29T14:24:20.0000000+00:00</time></trkpt><trkpt lat="43.172821" lon="19.270918"><ele>937.3</ele><time>2012-04-29T14:24:25.0000000+00:00</time></trkpt><trkpt lat="43.172821" lon="19.270918"><ele>937.3</ele><time>2012-04-29T14:24:30.0000000+00:00</time></trkpt><trkpt lat="43.172821" lon="19.270918"><ele>937.3</ele><time>2012-04-29T14:24:35.0000000+00:00</time></trkpt><trkpt lat="43.172821" lon="19.270918"><ele>937.4</ele><time>2012-04-29T14:24:40.0000000+00:00</time></trkpt><trkpt lat="43.172821" lon="19.270918"><ele>937.4</ele><time>2012-04-29T14:24:45.0000000+00:00</time></trkpt><trkpt lat="43.172821" lon="19.270918"><ele>937.4</ele><time>2012-04-29T14:24:50.0000000+00:00</time></trkpt><trkpt lat="43.172821" lon="19.270918"><ele>937.4</ele><time>2012-04-29T14:24:55.0000000+00:00</time></trkpt><trkpt lat="43.172787" lon="19.270924"><ele>936.4</ele><time>2012-04-29T14:25:00.0000000+00:00</time></trkpt><trkpt lat="43.172714" lon="19.270943"><ele>936.1</ele><time>2012-04-29T14:25:05.0000000+00:00</time></trkpt><trkpt lat="43.172638" lon="19.270966"><ele>933.8</ele><time>2012-04-29T14:25:10.0000000+00:00</time></trkpt><trkpt lat="43.172573" lon="19.270979"><ele>932.8</ele><time>2012-04-29T14:25:15.0000000+00:00</time></trkpt><trkpt lat="43.172504" lon="19.270998"><ele>932.4</ele><time>2012-04-29T14:25:20.0000000+00:00</time></trkpt><trkpt lat="43.172432" lon="19.271013"><ele>931.5</ele><time>2012-04-29T14:25:25.0000000+00:00</time></trkpt><trkpt lat="43.172367" lon="19.271049"><ele>930.7</ele><time>2012-04-29T14:25:30.0000000+00:00</time></trkpt><trkpt lat="43.172306" lon="19.271101"><ele>929.9</ele><time>2012-04-29T14:25:35.0000000+00:00</time></trkpt><trkpt lat="43.172245" lon="19.271149"><ele>929.5</ele><time>2012-04-29T14:25:40.0000000+00:00</time></trkpt><trkpt lat="43.172195" lon="19.271235"><ele>928.7</ele><time>2012-04-29T14:25:45.0000000+00:00</time></trkpt><trkpt lat="43.172142" lon="19.271311"><ele>927.9</ele><time>2012-04-29T14:25:50.0000000+00:00</time></trkpt><trkpt lat="43.172085" lon="19.271368"><ele>926.4</ele><time>2012-04-29T14:25:55.0000000+00:00</time></trkpt><trkpt lat="43.172043" lon="19.271448"><ele>925.0</ele><time>2012-04-29T14:26:00.0000000+00:00</time></trkpt><trkpt lat="43.171986" lon="19.271505"><ele>924.3</ele><time>2012-04-29T14:26:05.0000000+00:00</time></trkpt><trkpt lat="43.171928" lon="19.271542"><ele>923.2</ele><time>2012-04-29T14:26:10.0000000+00:00</time></trkpt><trkpt lat="43.17186" lon="19.271549"><ele>921.6</ele><time>2012-04-29T14:26:15.0000000+00:00</time></trkpt><trkpt lat="43.171803" lon="19.271553"><ele>921.2</ele><time>2012-04-29T14:26:20.0000000+00:00</time></trkpt><trkpt lat="43.171741" lon="19.27154"><ele>921.2</ele><time>2012-04-29T14:26:25.0000000+00:00</time></trkpt><trkpt lat="43.17168" lon="19.271523"><ele>920.3</ele><time>2012-04-29T14:26:30.0000000+00:00</time></trkpt><trkpt lat="43.1716" lon="19.271503"><ele>920.1</ele><time>2012-04-29T14:26:35.0000000+00:00</time></trkpt><trkpt lat="43.171524" lon="19.271507"><ele>918.3</ele><time>2012-04-29T14:26:40.0000000+00:00</time></trkpt><trkpt lat="43.171471" lon="19.271524"><ele>920.5</ele><time>2012-04-29T14:26:45.0000000+00:00</time></trkpt><trkpt lat="43.171394" lon="19.271542"><ele>919.6</ele><time>2012-04-29T14:26:50.0000000+00:00</time></trkpt><trkpt lat="43.171307" lon="19.271542"><ele>918.7</ele><time>2012-04-29T14:26:55.0000000+00:00</time></trkpt><trkpt lat="43.171246" lon="19.271566"><ele>918.4</ele><time>2012-04-29T14:27:00.0000000+00:00</time></trkpt><trkpt lat="43.171169" lon="19.271591"><ele>917.6</ele><time>2012-04-29T14:27:05.0000000+00:00</time></trkpt><trkpt lat="43.171097" lon="19.271622"><ele>916.2</ele><time>2012-04-29T14:27:10.0000000+00:00</time></trkpt><trkpt lat="43.171024" lon="19.271645"><ele>915.3</ele><time>2012-04-29T14:27:15.0000000+00:00</time></trkpt><trkpt lat="43.170952" lon="19.271677"><ele>914.8</ele><time>2012-04-29T14:27:20.0000000+00:00</time></trkpt><trkpt lat="43.170879" lon="19.27173"><ele>914.1</ele><time>2012-04-29T14:27:25.0000000+00:00</time></trkpt><trkpt lat="43.170799" lon="19.27177"><ele>913.9</ele><time>2012-04-29T14:27:30.0000000+00:00</time></trkpt><trkpt lat="43.170734" lon="19.27183"><ele>914.0</ele><time>2012-04-29T14:27:35.0000000+00:00</time></trkpt><trkpt lat="43.170662" lon="19.271881"><ele>914.1</ele><time>2012-04-29T14:27:40.0000000+00:00</time></trkpt><trkpt lat="43.170593" lon="19.271929"><ele>915.0</ele><time>2012-04-29T14:27:45.0000000+00:00</time></trkpt><trkpt lat="43.170513" lon="19.271957"><ele>915.8</ele><time>2012-04-29T14:27:50.0000000+00:00</time></trkpt><trkpt lat="43.170456" lon="19.272013"><ele>913.2</ele><time>2012-04-29T14:27:55.0000000+00:00</time></trkpt><trkpt lat="43.17041" lon="19.272049"><ele>912.7</ele><time>2012-04-29T14:28:00.0000000+00:00</time></trkpt><trkpt lat="43.170357" lon="19.272091"><ele>913.1</ele><time>2012-04-29T14:28:05.0000000+00:00</time></trkpt><trkpt lat="43.170288" lon="19.272133"><ele>912.8</ele><time>2012-04-29T14:28:10.0000000+00:00</time></trkpt><trkpt lat="43.170216" lon="19.272165"><ele>912.0</ele><time>2012-04-29T14:28:15.0000000+00:00</time></trkpt><trkpt lat="43.170139" lon="19.272202"><ele>910.6</ele><time>2012-04-29T14:28:20.0000000+00:00</time></trkpt><trkpt lat="43.170059" lon="19.272249"><ele>909.9</ele><time>2012-04-29T14:28:25.0000000+00:00</time></trkpt><trkpt lat="43.169987" lon="19.272305"><ele>908.9</ele><time>2012-04-29T14:28:30.0000000+00:00</time></trkpt><trkpt lat="43.169918" lon="19.272346"><ele>907.9</ele><time>2012-04-29T14:28:35.0000000+00:00</time></trkpt><trkpt lat="43.169823" lon="19.272375"><ele>906.7</ele><time>2012-04-29T14:28:40.0000000+00:00</time></trkpt><trkpt lat="43.169743" lon="19.272415"><ele>905.9</ele><time>2012-04-29T14:28:45.0000000+00:00</time></trkpt><trkpt lat="43.16967" lon="19.272461"><ele>905.1</ele><time>2012-04-29T14:28:50.0000000+00:00</time></trkpt><trkpt lat="43.169605" lon="19.272516"><ele>905.3</ele><time>2012-04-29T14:28:55.0000000+00:00</time></trkpt><trkpt lat="43.169537" lon="19.272575"><ele>905.5</ele><time>2012-04-29T14:29:00.0000000+00:00</time></trkpt><trkpt lat="43.169479" lon="19.272657"><ele>905.6</ele><time>2012-04-29T14:29:05.0000000+00:00</time></trkpt><trkpt lat="43.169437" lon="19.272751"><ele>906.4</ele><time>2012-04-29T14:29:10.0000000+00:00</time></trkpt><trkpt lat="43.169384" lon="19.27284"><ele>907.3</ele><time>2012-04-29T14:29:15.0000000+00:00</time></trkpt><trkpt lat="43.169346" lon="19.272932"><ele>907.3</ele><time>2012-04-29T14:29:20.0000000+00:00</time></trkpt><trkpt lat="43.169308" lon="19.273018"><ele>907.4</ele><time>2012-04-29T14:29:25.0000000+00:00</time></trkpt><trkpt lat="43.169277" lon="19.273115"><ele>907.1</ele><time>2012-04-29T14:29:30.0000000+00:00</time></trkpt><trkpt lat="43.169247" lon="19.273214"><ele>906.9</ele><time>2012-04-29T14:29:35.0000000+00:00</time></trkpt><trkpt lat="43.169216" lon="19.27331"><ele>906.7</ele><time>2012-04-29T14:29:40.0000000+00:00</time></trkpt><trkpt lat="43.169193" lon="19.273409"><ele>906.0</ele><time>2012-04-29T14:29:45.0000000+00:00</time></trkpt><trkpt lat="43.169167" lon="19.273499"><ele>904.9</ele><time>2012-04-29T14:29:50.0000000+00:00</time></trkpt><trkpt lat="43.169147" lon="19.27356"><ele>905.7</ele><time>2012-04-29T14:29:55.0000000+00:00</time></trkpt><trkpt lat="43.169132" lon="19.2736"><ele>905.4</ele><time>2012-04-29T14:30:00.0000000+00:00</time></trkpt><trkpt lat="43.169117" lon="19.273697"><ele>904.1</ele><time>2012-04-29T14:30:05.0000000+00:00</time></trkpt><trkpt lat="43.16906" lon="19.27376"><ele>900.6</ele><time>2012-04-29T14:30:10.0000000+00:00</time></trkpt><trkpt lat="43.169029" lon="19.273857"><ele>898.7</ele><time>2012-04-29T14:30:15.0000000+00:00</time></trkpt><trkpt lat="43.168991" lon="19.273945"><ele>896.9</ele><time>2012-04-29T14:30:20.0000000+00:00</time></trkpt><trkpt lat="43.168938" lon="19.274029"><ele>895.4</ele><time>2012-04-29T14:30:25.0000000+00:00</time></trkpt><trkpt lat="43.168892" lon="19.274099"><ele>895.1</ele><time>2012-04-29T14:30:30.0000000+00:00</time></trkpt><trkpt lat="43.168835" lon="19.274162"><ele>895.3</ele><time>2012-04-29T14:30:35.0000000+00:00</time></trkpt><trkpt lat="43.168785" lon="19.274237"><ele>895.0</ele><time>2012-04-29T14:30:40.0000000+00:00</time></trkpt><trkpt lat="43.168743" lon="19.274292"><ele>894.3</ele><time>2012-04-29T14:30:45.0000000+00:00</time></trkpt><trkpt lat="43.168694" lon="19.274353"><ele>893.2</ele><time>2012-04-29T14:30:50.0000000+00:00</time></trkpt><trkpt lat="43.168648" lon="19.274435"><ele>893.5</ele><time>2012-04-29T14:30:55.0000000+00:00</time></trkpt><trkpt lat="43.168583" lon="19.274488"><ele>892.8</ele><time>2012-04-29T14:31:00.0000000+00:00</time></trkpt><trkpt lat="43.168514" lon="19.274551"><ele>891.7</ele><time>2012-04-29T14:31:05.0000000+00:00</time></trkpt><trkpt lat="43.168465" lon="19.274639"><ele>890.9</ele><time>2012-04-29T14:31:10.0000000+00:00</time></trkpt><trkpt lat="43.168446" lon="19.274755"><ele>889.4</ele><time>2012-04-29T14:31:15.0000000+00:00</time></trkpt><trkpt lat="43.168392" lon="19.274837"><ele>889.8</ele><time>2012-04-29T14:31:20.0000000+00:00</time></trkpt><trkpt lat="43.168335" lon="19.274912"><ele>890.4</ele><time>2012-04-29T14:31:25.0000000+00:00</time></trkpt><trkpt lat="43.168289" lon="19.274992"><ele>890.2</ele><time>2012-04-29T14:31:30.0000000+00:00</time></trkpt><trkpt lat="43.16824" lon="19.275066"><ele>889.4</ele><time>2012-04-29T14:31:35.0000000+00:00</time></trkpt><trkpt lat="43.168182" lon="19.275135"><ele>888.5</ele><time>2012-04-29T14:31:40.0000000+00:00</time></trkpt><trkpt lat="43.168114" lon="19.275194"><ele>888.0</ele><time>2012-04-29T14:31:45.0000000+00:00</time></trkpt><trkpt lat="43.168049" lon="19.275246"><ele>886.9</ele><time>2012-04-29T14:31:50.0000000+00:00</time></trkpt><trkpt lat="43.167984" lon="19.275312"><ele>886.9</ele><time>2012-04-29T14:31:55.0000000+00:00</time></trkpt><trkpt lat="43.16795" lon="19.27541"><ele>886.2</ele><time>2012-04-29T14:32:00.0000000+00:00</time></trkpt><trkpt lat="43.167912" lon="19.275496"><ele>884.6</ele><time>2012-04-29T14:32:05.0000000+00:00</time></trkpt><trkpt lat="43.167881" lon="19.275568"><ele>884.9</ele><time>2012-04-29T14:32:10.0000000+00:00</time></trkpt><trkpt lat="43.167854" lon="19.275637"><ele>884.4</ele><time>2012-04-29T14:32:15.0000000+00:00</time></trkpt><trkpt lat="43.167835" lon="19.275723"><ele>884.7</ele><time>2012-04-29T14:32:20.0000000+00:00</time></trkpt><trkpt lat="43.167809" lon="19.275782"><ele>884.6</ele><time>2012-04-29T14:32:25.0000000+00:00</time></trkpt><trkpt lat="43.167763" lon="19.275856"><ele>883.9</ele><time>2012-04-29T14:32:30.0000000+00:00</time></trkpt><trkpt lat="43.167725" lon="19.275936"><ele>883.1</ele><time>2012-04-29T14:32:35.0000000+00:00</time></trkpt><trkpt lat="43.167683" lon="19.276012"><ele>882.5</ele><time>2012-04-29T14:32:40.0000000+00:00</time></trkpt><trkpt lat="43.167679" lon="19.276028"><ele>881.1</ele><time>2012-04-29T14:32:45.0000000+00:00</time></trkpt><trkpt lat="43.167633" lon="19.276085"><ele>881.8</ele><time>2012-04-29T14:32:50.0000000+00:00</time></trkpt><trkpt lat="43.167572" lon="19.27615"><ele>882.8</ele><time>2012-04-29T14:32:55.0000000+00:00</time></trkpt><trkpt lat="43.167542" lon="19.276234"><ele>882.2</ele><time>2012-04-29T14:33:00.0000000+00:00</time></trkpt><trkpt lat="43.167519" lon="19.276329"><ele>881.7</ele><time>2012-04-29T14:33:05.0000000+00:00</time></trkpt><trkpt lat="43.167473" lon="19.276409"><ele>882.1</ele><time>2012-04-29T14:33:10.0000000+00:00</time></trkpt><trkpt lat="43.167435" lon="19.276508"><ele>882.4</ele><time>2012-04-29T14:33:15.0000000+00:00</time></trkpt><trkpt lat="43.167419" lon="19.276548"><ele>882.9</ele><time>2012-04-29T14:33:20.0000000+00:00</time></trkpt><trkpt lat="43.167419" lon="19.276554"><ele>882.7</ele><time>2012-04-29T14:33:25.0000000+00:00</time></trkpt><trkpt lat="43.167419" lon="19.276554"><ele>882.6</ele><time>2012-04-29T14:33:30.0000000+00:00</time></trkpt><trkpt lat="43.167419" lon="19.276554"><ele>882.7</ele><time>2012-04-29T14:33:35.0000000+00:00</time></trkpt><trkpt lat="43.167419" lon="19.276554"><ele>882.6</ele><time>2012-04-29T14:33:40.0000000+00:00</time></trkpt><trkpt lat="43.167419" lon="19.276554"><ele>882.7</ele><time>2012-04-29T14:33:45.0000000+00:00</time></trkpt><trkpt lat="43.167419" lon="19.276554"><ele>882.6</ele><time>2012-04-29T14:33:50.0000000+00:00</time></trkpt><trkpt lat="43.167419" lon="19.276554"><ele>882.7</ele><time>2012-04-29T14:33:55.0000000+00:00</time></trkpt><trkpt lat="43.167419" lon="19.276552"><ele>882.7</ele><time>2012-04-29T14:34:00.0000000+00:00</time></trkpt><trkpt lat="43.167419" lon="19.276554"><ele>882.6</ele><time>2012-04-29T14:34:05.0000000+00:00</time></trkpt><trkpt lat="43.167419" lon="19.276552"><ele>882.6</ele><time>2012-04-29T14:34:10.0000000+00:00</time></trkpt><trkpt lat="43.167419" lon="19.276552"><ele>882.6</ele><time>2012-04-29T14:34:15.0000000+00:00</time></trkpt><trkpt lat="43.167419" lon="19.276552"><ele>882.6</ele><time>2012-04-29T14:34:20.0000000+00:00</time></trkpt><trkpt lat="43.167419" lon="19.276552"><ele>882.7</ele><time>2012-04-29T14:34:25.0000000+00:00</time></trkpt><trkpt lat="43.167419" lon="19.276552"><ele>882.7</ele><time>2012-04-29T14:34:30.0000000+00:00</time></trkpt><trkpt lat="43.167419" lon="19.276552"><ele>882.7</ele><time>2012-04-29T14:34:35.0000000+00:00</time></trkpt><trkpt lat="43.167412" lon="19.276564"><ele>883.0</ele><time>2012-04-29T14:34:40.0000000+00:00</time></trkpt><trkpt lat="43.167377" lon="19.276648"><ele>883.8</ele><time>2012-04-29T14:34:45.0000000+00:00</time></trkpt><trkpt lat="43.167339" lon="19.276718"><ele>884.1</ele><time>2012-04-29T14:34:50.0000000+00:00</time></trkpt><trkpt lat="43.167301" lon="19.276796"><ele>884.1</ele><time>2012-04-29T14:34:55.0000000+00:00</time></trkpt><trkpt lat="43.167259" lon="19.276873"><ele>883.8</ele><time>2012-04-29T14:35:00.0000000+00:00</time></trkpt><trkpt lat="43.167221" lon="19.276945"><ele>883.9</ele><time>2012-04-29T14:35:05.0000000+00:00</time></trkpt><trkpt lat="43.167179" lon="19.277029"><ele>883.9</ele><time>2012-04-29T14:35:10.0000000+00:00</time></trkpt><trkpt lat="43.167137" lon="19.277109"><ele>882.5</ele><time>2012-04-29T14:35:15.0000000+00:00</time></trkpt><trkpt lat="43.167084" lon="19.277182"><ele>882.0</ele><time>2012-04-29T14:35:20.0000000+00:00</time></trkpt><trkpt lat="43.167034" lon="19.277239"><ele>883.1</ele><time>2012-04-29T14:35:25.0000000+00:00</time></trkpt><trkpt lat="43.166977" lon="19.277298"><ele>883.1</ele><time>2012-04-29T14:35:30.0000000+00:00</time></trkpt><trkpt lat="43.166912" lon="19.277357"><ele>884.4</ele><time>2012-04-29T14:35:35.0000000+00:00</time></trkpt><trkpt lat="43.166843" lon="19.27742"><ele>884.9</ele><time>2012-04-29T14:35:40.0000000+00:00</time></trkpt><trkpt lat="43.166782" lon="19.277462"><ele>887.4</ele><time>2012-04-29T14:35:45.0000000+00:00</time></trkpt><trkpt lat="43.166729" lon="19.277521"><ele>889.9</ele><time>2012-04-29T14:35:50.0000000+00:00</time></trkpt><trkpt lat="43.166668" lon="19.277563"><ele>891.9</ele><time>2012-04-29T14:35:55.0000000+00:00</time></trkpt><trkpt lat="43.166611" lon="19.277617"><ele>893.9</ele><time>2012-04-29T14:36:00.0000000+00:00</time></trkpt><trkpt lat="43.166569" lon="19.277681"><ele>895.2</ele><time>2012-04-29T14:36:05.0000000+00:00</time></trkpt><trkpt lat="43.166531" lon="19.277744"><ele>895.3</ele><time>2012-04-29T14:36:10.0000000+00:00</time></trkpt><trkpt lat="43.166504" lon="19.277784"><ele>895.8</ele><time>2012-04-29T14:36:15.0000000+00:00</time></trkpt><trkpt lat="43.166462" lon="19.277847"><ele>896.9</ele><time>2012-04-29T14:36:20.0000000+00:00</time></trkpt><trkpt lat="43.166401" lon="19.277927"><ele>897.1</ele><time>2012-04-29T14:36:25.0000000+00:00</time></trkpt><trkpt lat="43.166359" lon="19.277996"><ele>898.3</ele><time>2012-04-29T14:36:30.0000000+00:00</time></trkpt><trkpt lat="43.166332" lon="19.278051"><ele>898.6</ele><time>2012-04-29T14:36:35.0000000+00:00</time></trkpt><trkpt lat="43.166298" lon="19.278124"><ele>899.4</ele><time>2012-04-29T14:36:40.0000000+00:00</time></trkpt><trkpt lat="43.166264" lon="19.278194"><ele>899.8</ele><time>2012-04-29T14:36:45.0000000+00:00</time></trkpt><trkpt lat="43.166225" lon="19.278267"><ele>900.1</ele><time>2012-04-29T14:36:50.0000000+00:00</time></trkpt><trkpt lat="43.166203" lon="19.278368"><ele>900.7</ele><time>2012-04-29T14:36:55.0000000+00:00</time></trkpt><trkpt lat="43.166164" lon="19.278456"><ele>901.3</ele><time>2012-04-29T14:37:00.0000000+00:00</time></trkpt><trkpt lat="43.166134" lon="19.278536"><ele>901.9</ele><time>2012-04-29T14:37:05.0000000+00:00</time></trkpt><trkpt lat="43.166096" lon="19.278635"><ele>902.0</ele><time>2012-04-29T14:37:10.0000000+00:00</time></trkpt><trkpt lat="43.166058" lon="19.278727"><ele>903.1</ele><time>2012-04-29T14:37:15.0000000+00:00</time></trkpt><trkpt lat="43.166023" lon="19.278816"><ele>903.3</ele><time>2012-04-29T14:37:20.0000000+00:00</time></trkpt><trkpt lat="43.165985" lon="19.278927"><ele>903.3</ele><time>2012-04-29T14:37:25.0000000+00:00</time></trkpt><trkpt lat="43.165955" lon="19.279026"><ele>903.0</ele><time>2012-04-29T14:37:30.0000000+00:00</time></trkpt><trkpt lat="43.165932" lon="19.279116"><ele>903.3</ele><time>2012-04-29T14:37:35.0000000+00:00</time></trkpt><trkpt lat="43.16589" lon="19.279213"><ele>903.9</ele><time>2012-04-29T14:37:40.0000000+00:00</time></trkpt><trkpt lat="43.165863" lon="19.279308"><ele>903.5</ele><time>2012-04-29T14:37:45.0000000+00:00</time></trkpt><trkpt lat="43.165844" lon="19.279408"><ele>902.8</ele><time>2012-04-29T14:37:50.0000000+00:00</time></trkpt><trkpt lat="43.165817" lon="19.279503"><ele>902.2</ele><time>2012-04-29T14:37:55.0000000+00:00</time></trkpt><trkpt lat="43.165802" lon="19.279596"><ele>902.6</ele><time>2012-04-29T14:38:00.0000000+00:00</time></trkpt><trkpt lat="43.165787" lon="19.279692"><ele>902.5</ele><time>2012-04-29T14:38:05.0000000+00:00</time></trkpt><trkpt lat="43.165779" lon="19.279783"><ele>901.2</ele><time>2012-04-29T14:38:10.0000000+00:00</time></trkpt><trkpt lat="43.165771" lon="19.279877"><ele>902.1</ele><time>2012-04-29T14:38:15.0000000+00:00</time></trkpt><trkpt lat="43.165771" lon="19.279974"><ele>902.0</ele><time>2012-04-29T14:38:20.0000000+00:00</time></trkpt><trkpt lat="43.165771" lon="19.280069"><ele>902.6</ele><time>2012-04-29T14:38:25.0000000+00:00</time></trkpt><trkpt lat="43.165779" lon="19.280151"><ele>903.4</ele><time>2012-04-29T14:38:30.0000000+00:00</time></trkpt><trkpt lat="43.165787" lon="19.280237"><ele>902.1</ele><time>2012-04-29T14:38:35.0000000+00:00</time></trkpt><trkpt lat="43.165791" lon="19.28034"><ele>901.2</ele><time>2012-04-29T14:38:40.0000000+00:00</time></trkpt><trkpt lat="43.165802" lon="19.280432"><ele>901.2</ele><time>2012-04-29T14:38:45.0000000+00:00</time></trkpt><trkpt lat="43.165817" lon="19.280533"><ele>901.1</ele><time>2012-04-29T14:38:50.0000000+00:00</time></trkpt><trkpt lat="43.165844" lon="19.28063"><ele>902.0</ele><time>2012-04-29T14:38:55.0000000+00:00</time></trkpt><trkpt lat="43.165859" lon="19.280737"><ele>903.6</ele><time>2012-04-29T14:39:00.0000000+00:00</time></trkpt><trkpt lat="43.165874" lon="19.280838"><ele>904.9</ele><time>2012-04-29T14:39:05.0000000+00:00</time></trkpt><trkpt lat="43.165905" lon="19.280943"><ele>905.4</ele><time>2012-04-29T14:39:10.0000000+00:00</time></trkpt><trkpt lat="43.165905" lon="19.281038"><ele>906.2</ele><time>2012-04-29T14:39:15.0000000+00:00</time></trkpt><trkpt lat="43.165913" lon="19.281134"><ele>906.5</ele><time>2012-04-29T14:39:20.0000000+00:00</time></trkpt><trkpt lat="43.165928" lon="19.281233"><ele>904.9</ele><time>2012-04-29T14:39:25.0000000+00:00</time></trkpt><trkpt lat="43.165936" lon="19.281334"><ele>903.9</ele><time>2012-04-29T14:39:30.0000000+00:00</time></trkpt><trkpt lat="43.165947" lon="19.281452"><ele>902.9</ele><time>2012-04-29T14:39:35.0000000+00:00</time></trkpt><trkpt lat="43.165955" lon="19.281559"><ele>902.7</ele><time>2012-04-29T14:39:40.0000000+00:00</time></trkpt><trkpt lat="43.165962" lon="19.281654"><ele>902.7</ele><time>2012-04-29T14:39:45.0000000+00:00</time></trkpt><trkpt lat="43.165958" lon="19.281651"><ele>903.0</ele><time>2012-04-29T14:39:50.0000000+00:00</time></trkpt><trkpt lat="43.165958" lon="19.281651"><ele>902.9</ele><time>2012-04-29T14:39:55.0000000+00:00</time></trkpt><trkpt lat="43.165958" lon="19.281651"><ele>902.9</ele><time>2012-04-29T14:40:00.0000000+00:00</time></trkpt><trkpt lat="43.165958" lon="19.281651"><ele>903.0</ele><time>2012-04-29T14:40:05.0000000+00:00</time></trkpt><trkpt lat="43.165962" lon="19.28167"><ele>902.9</ele><time>2012-04-29T14:40:10.0000000+00:00</time></trkpt><trkpt lat="43.16597" lon="19.281786"><ele>903.5</ele><time>2012-04-29T14:40:15.0000000+00:00</time></trkpt><trkpt lat="43.165966" lon="19.281885"><ele>903.7</ele><time>2012-04-29T14:40:20.0000000+00:00</time></trkpt><trkpt lat="43.16597" lon="19.28199"><ele>903.8</ele><time>2012-04-29T14:40:25.0000000+00:00</time></trkpt><trkpt lat="43.165962" lon="19.282095"><ele>903.5</ele><time>2012-04-29T14:40:30.0000000+00:00</time></trkpt><trkpt lat="43.165966" lon="19.282196"><ele>903.2</ele><time>2012-04-29T14:40:35.0000000+00:00</time></trkpt><trkpt lat="43.16597" lon="19.282299"><ele>902.9</ele><time>2012-04-29T14:40:40.0000000+00:00</time></trkpt><trkpt lat="43.165974" lon="19.282404"><ele>902.0</ele><time>2012-04-29T14:40:45.0000000+00:00</time></trkpt><trkpt lat="43.165981" lon="19.282497"><ele>901.5</ele><time>2012-04-29T14:40:50.0000000+00:00</time></trkpt><trkpt lat="43.165974" lon="19.282507"><ele>901.7</ele><time>2012-04-29T14:40:55.0000000+00:00</time></trkpt><trkpt lat="43.165974" lon="19.282507"><ele>901.6</ele><time>2012-04-29T14:41:00.0000000+00:00</time></trkpt><trkpt lat="43.165974" lon="19.282534"><ele>901.1</ele><time>2012-04-29T14:41:05.0000000+00:00</time></trkpt><trkpt lat="43.165974" lon="19.282627"><ele>901.0</ele><time>2012-04-29T14:41:10.0000000+00:00</time></trkpt><trkpt lat="43.16597" lon="19.282726"><ele>901.9</ele><time>2012-04-29T14:41:15.0000000+00:00</time></trkpt><trkpt lat="43.165985" lon="19.28282"><ele>901.4</ele><time>2012-04-29T14:41:20.0000000+00:00</time></trkpt><trkpt lat="43.166004" lon="19.282909"><ele>901.2</ele><time>2012-04-29T14:41:25.0000000+00:00</time></trkpt><trkpt lat="43.166019" lon="19.283014"><ele>900.9</ele><time>2012-04-29T14:41:30.0000000+00:00</time></trkpt><trkpt lat="43.166046" lon="19.283113"><ele>900.5</ele><time>2012-04-29T14:41:35.0000000+00:00</time></trkpt><trkpt lat="43.166092" lon="19.283205"><ele>901.4</ele><time>2012-04-29T14:41:40.0000000+00:00</time></trkpt><trkpt lat="43.166142" lon="19.2833"><ele>902.5</ele><time>2012-04-29T14:41:45.0000000+00:00</time></trkpt><trkpt lat="43.166187" lon="19.283382"><ele>903.7</ele><time>2012-04-29T14:41:50.0000000+00:00</time></trkpt><trkpt lat="43.166225" lon="19.283468"><ele>903.7</ele><time>2012-04-29T14:41:55.0000000+00:00</time></trkpt><trkpt lat="43.16626" lon="19.283541"><ele>904.0</ele><time>2012-04-29T14:42:00.0000000+00:00</time></trkpt><trkpt lat="43.166302" lon="19.283634"><ele>904.0</ele><time>2012-04-29T14:42:05.0000000+00:00</time></trkpt><trkpt lat="43.166336" lon="19.283722"><ele>904.2</ele><time>2012-04-29T14:42:10.0000000+00:00</time></trkpt><trkpt lat="43.166363" lon="19.283787"><ele>904.9</ele><time>2012-04-29T14:42:15.0000000+00:00</time></trkpt><trkpt lat="43.166401" lon="19.283871"><ele>905.4</ele><time>2012-04-29T14:42:20.0000000+00:00</time></trkpt><trkpt lat="43.166439" lon="19.283962"><ele>904.7</ele><time>2012-04-29T14:42:25.0000000+00:00</time></trkpt><trkpt lat="43.166473" lon="19.284037"><ele>901.5</ele><time>2012-04-29T14:42:30.0000000+00:00</time></trkpt><trkpt lat="43.166512" lon="19.284121"><ele>899.1</ele><time>2012-04-29T14:42:35.0000000+00:00</time></trkpt><trkpt lat="43.166546" lon="19.284208"><ele>898.0</ele><time>2012-04-29T14:42:40.0000000+00:00</time></trkpt><trkpt lat="43.166592" lon="19.284279"><ele>897.0</ele><time>2012-04-29T14:42:45.0000000+00:00</time></trkpt><trkpt lat="43.166637" lon="19.284359"><ele>895.7</ele><time>2012-04-29T14:42:50.0000000+00:00</time></trkpt><trkpt lat="43.166676" lon="19.284437"><ele>894.5</ele><time>2012-04-29T14:42:55.0000000+00:00</time></trkpt><trkpt lat="43.166718" lon="19.284523"><ele>893.7</ele><time>2012-04-29T14:43:00.0000000+00:00</time></trkpt><trkpt lat="43.166752" lon="19.284613"><ele>893.9</ele><time>2012-04-29T14:43:05.0000000+00:00</time></trkpt><trkpt lat="43.166782" lon="19.284718"><ele>894.0</ele><time>2012-04-29T14:43:10.0000000+00:00</time></trkpt><trkpt lat="43.166805" lon="19.28483"><ele>893.4</ele><time>2012-04-29T14:43:15.0000000+00:00</time></trkpt><trkpt lat="43.166805" lon="19.284939"><ele>893.3</ele><time>2012-04-29T14:43:20.0000000+00:00</time></trkpt><trkpt lat="43.166798" lon="19.28504"><ele>893.0</ele><time>2012-04-29T14:43:25.0000000+00:00</time></trkpt><trkpt lat="43.166771" lon="19.285151"><ele>892.2</ele><time>2012-04-29T14:43:30.0000000+00:00</time></trkpt><trkpt lat="43.166744" lon="19.285252"><ele>891.8</ele><time>2012-04-29T14:43:35.0000000+00:00</time></trkpt><trkpt lat="43.166721" lon="19.285347"><ele>891.6</ele><time>2012-04-29T14:43:40.0000000+00:00</time></trkpt><trkpt lat="43.166691" lon="19.285446"><ele>889.0</ele><time>2012-04-29T14:43:45.0000000+00:00</time></trkpt><trkpt lat="43.16666" lon="19.285547"><ele>888.5</ele><time>2012-04-29T14:43:50.0000000+00:00</time></trkpt><trkpt lat="43.166637" lon="19.285648"><ele>888.4</ele><time>2012-04-29T14:43:55.0000000+00:00</time></trkpt><trkpt lat="43.166611" lon="19.285736"><ele>888.5</ele><time>2012-04-29T14:44:00.0000000+00:00</time></trkpt><trkpt lat="43.166573" lon="19.28582"><ele>888.5</ele><time>2012-04-29T14:44:05.0000000+00:00</time></trkpt><trkpt lat="43.166538" lon="19.285902"><ele>888.6</ele><time>2012-04-29T14:44:10.0000000+00:00</time></trkpt><trkpt lat="43.166504" lon="19.285995"><ele>887.7</ele><time>2012-04-29T14:44:15.0000000+00:00</time></trkpt><trkpt lat="43.166454" lon="19.286095"><ele>886.5</ele><time>2012-04-29T14:44:20.0000000+00:00</time></trkpt><trkpt lat="43.166397" lon="19.286177"><ele>885.7</ele><time>2012-04-29T14:44:25.0000000+00:00</time></trkpt><trkpt lat="43.166332" lon="19.286226"><ele>888.1</ele><time>2012-04-29T14:44:30.0000000+00:00</time></trkpt><trkpt lat="43.166283" lon="19.28628"><ele>888.7</ele><time>2012-04-29T14:44:35.0000000+00:00</time></trkpt><trkpt lat="43.166206" lon="19.286316"><ele>889.1</ele><time>2012-04-29T14:44:40.0000000+00:00</time></trkpt><trkpt lat="43.166138" lon="19.286337"><ele>889.1</ele><time>2012-04-29T14:44:45.0000000+00:00</time></trkpt><trkpt lat="43.166119" lon="19.286331"><ele>890.9</ele><time>2012-04-29T14:44:50.0000000+00:00</time></trkpt><trkpt lat="43.166119" lon="19.286331"><ele>890.9</ele><time>2012-04-29T14:44:55.0000000+00:00</time></trkpt><trkpt lat="43.166119" lon="19.286333"><ele>890.9</ele><time>2012-04-29T14:45:00.0000000+00:00</time></trkpt><trkpt lat="43.166119" lon="19.286333"><ele>891.0</ele><time>2012-04-29T14:45:05.0000000+00:00</time></trkpt><trkpt lat="43.166119" lon="19.286333"><ele>891.0</ele><time>2012-04-29T14:45:10.0000000+00:00</time></trkpt><trkpt lat="43.166092" lon="19.286356"><ele>891.9</ele><time>2012-04-29T14:45:15.0000000+00:00</time></trkpt><trkpt lat="43.166027" lon="19.2864"><ele>893.5</ele><time>2012-04-29T14:45:20.0000000+00:00</time></trkpt><trkpt lat="43.165958" lon="19.286428"><ele>894.8</ele><time>2012-04-29T14:45:25.0000000+00:00</time></trkpt><trkpt lat="43.165886" lon="19.286417"><ele>896.6</ele><time>2012-04-29T14:45:30.0000000+00:00</time></trkpt><trkpt lat="43.165829" lon="19.286406"><ele>897.9</ele><time>2012-04-29T14:45:35.0000000+00:00</time></trkpt><trkpt lat="43.165775" lon="19.286392"><ele>899.3</ele><time>2012-04-29T14:45:40.0000000+00:00</time></trkpt><trkpt lat="43.165722" lon="19.286385"><ele>900.2</ele><time>2012-04-29T14:45:45.0000000+00:00</time></trkpt><trkpt lat="43.165657" lon="19.286373"><ele>902.0</ele><time>2012-04-29T14:45:50.0000000+00:00</time></trkpt><trkpt lat="43.165585" lon="19.286367"><ele>903.6</ele><time>2012-04-29T14:45:55.0000000+00:00</time></trkpt><trkpt lat="43.165508" lon="19.286369"><ele>905.0</ele><time>2012-04-29T14:46:00.0000000+00:00</time></trkpt><trkpt lat="43.165462" lon="19.286364"><ele>906.3</ele><time>2012-04-29T14:46:05.0000000+00:00</time></trkpt><trkpt lat="43.165405" lon="19.286356"><ele>908.3</ele><time>2012-04-29T14:46:10.0000000+00:00</time></trkpt><trkpt lat="43.16534" lon="19.286367"><ele>909.9</ele><time>2012-04-29T14:46:15.0000000+00:00</time></trkpt><trkpt lat="43.165287" lon="19.286404"><ele>910.6</ele><time>2012-04-29T14:46:20.0000000+00:00</time></trkpt><trkpt lat="43.165241" lon="19.286448"><ele>910.3</ele><time>2012-04-29T14:46:25.0000000+00:00</time></trkpt><trkpt lat="43.165234" lon="19.286451"><ele>910.2</ele><time>2012-04-29T14:46:30.0000000+00:00</time></trkpt><trkpt lat="43.165234" lon="19.286451"><ele>910.2</ele><time>2012-04-29T14:46:35.0000000+00:00</time></trkpt><trkpt lat="43.165234" lon="19.286451"><ele>910.2</ele><time>2012-04-29T14:46:40.0000000+00:00</time></trkpt><trkpt lat="43.165234" lon="19.286451"><ele>910.2</ele><time>2012-04-29T14:46:45.0000000+00:00</time></trkpt><trkpt lat="43.165234" lon="19.286451"><ele>910.2</ele><time>2012-04-29T14:46:50.0000000+00:00</time></trkpt><trkpt lat="43.165199" lon="19.286472"><ele>910.4</ele><time>2012-04-29T14:46:55.0000000+00:00</time></trkpt><trkpt lat="43.16515" lon="19.286503"><ele>911.1</ele><time>2012-04-29T14:47:00.0000000+00:00</time></trkpt><trkpt lat="43.165081" lon="19.286484"><ele>910.2</ele><time>2012-04-29T14:47:05.0000000+00:00</time></trkpt><trkpt lat="43.165016" lon="19.286478"><ele>910.0</ele><time>2012-04-29T14:47:10.0000000+00:00</time></trkpt><trkpt lat="43.164944" lon="19.286476"><ele>909.7</ele><time>2012-04-29T14:47:15.0000000+00:00</time></trkpt><trkpt lat="43.164867" lon="19.286482"><ele>909.6</ele><time>2012-04-29T14:47:20.0000000+00:00</time></trkpt><trkpt lat="43.164783" lon="19.286501"><ele>909.2</ele><time>2012-04-29T14:47:25.0000000+00:00</time></trkpt><trkpt lat="43.164711" lon="19.286507"><ele>908.9</ele><time>2012-04-29T14:47:30.0000000+00:00</time></trkpt><trkpt lat="43.164642" lon="19.286514"><ele>908.6</ele><time>2012-04-29T14:47:35.0000000+00:00</time></trkpt><trkpt lat="43.164566" lon="19.286541"><ele>908.0</ele><time>2012-04-29T14:47:40.0000000+00:00</time></trkpt><trkpt lat="43.164486" lon="19.286568"><ele>907.9</ele><time>2012-04-29T14:47:45.0000000+00:00</time></trkpt><trkpt lat="43.164413" lon="19.286617"><ele>907.7</ele><time>2012-04-29T14:47:50.0000000+00:00</time></trkpt><trkpt lat="43.164349" lon="19.286674"><ele>907.6</ele><time>2012-04-29T14:47:55.0000000+00:00</time></trkpt><trkpt lat="43.164284" lon="19.286726"><ele>907.2</ele><time>2012-04-29T14:48:00.0000000+00:00</time></trkpt><trkpt lat="43.16423" lon="19.286787"><ele>907.3</ele><time>2012-04-29T14:48:05.0000000+00:00</time></trkpt><trkpt lat="43.164181" lon="19.286856"><ele>908.0</ele><time>2012-04-29T14:48:10.0000000+00:00</time></trkpt><trkpt lat="43.164131" lon="19.28693"><ele>908.6</ele><time>2012-04-29T14:48:15.0000000+00:00</time></trkpt><trkpt lat="43.164082" lon="19.286999"><ele>908.6</ele><time>2012-04-29T14:48:20.0000000+00:00</time></trkpt><trkpt lat="43.164047" lon="19.287083"><ele>907.6</ele><time>2012-04-29T14:48:25.0000000+00:00</time></trkpt><trkpt lat="43.164001" lon="19.287163"><ele>907.2</ele><time>2012-04-29T14:48:30.0000000+00:00</time></trkpt><trkpt lat="43.163956" lon="19.287249"><ele>906.9</ele><time>2012-04-29T14:48:35.0000000+00:00</time></trkpt><trkpt lat="43.163921" lon="19.287333"><ele>906.0</ele><time>2012-04-29T14:48:40.0000000+00:00</time></trkpt><trkpt lat="43.163876" lon="19.287413"><ele>905.4</ele><time>2012-04-29T14:48:45.0000000+00:00</time></trkpt><trkpt lat="43.163834" lon="19.287489"><ele>904.9</ele><time>2012-04-29T14:48:50.0000000+00:00</time></trkpt><trkpt lat="43.163792" lon="19.287569"><ele>903.8</ele><time>2012-04-29T14:48:55.0000000+00:00</time></trkpt><trkpt lat="43.163765" lon="19.287663"><ele>901.7</ele><time>2012-04-29T14:49:00.0000000+00:00</time></trkpt><trkpt lat="43.163731" lon="19.287756"><ele>899.5</ele><time>2012-04-29T14:49:05.0000000+00:00</time></trkpt><trkpt lat="43.163704" lon="19.287865"><ele>897.9</ele><time>2012-04-29T14:49:10.0000000+00:00</time></trkpt><trkpt lat="43.163673" lon="19.287966"><ele>896.3</ele><time>2012-04-29T14:49:15.0000000+00:00</time></trkpt><trkpt lat="43.163643" lon="19.288061"><ele>894.5</ele><time>2012-04-29T14:49:20.0000000+00:00</time></trkpt><trkpt lat="43.16362" lon="19.28817"><ele>892.6</ele><time>2012-04-29T14:49:25.0000000+00:00</time></trkpt><trkpt lat="43.163601" lon="19.288282"><ele>890.6</ele><time>2012-04-29T14:49:30.0000000+00:00</time></trkpt><trkpt lat="43.163582" lon="19.288389"><ele>887.4</ele><time>2012-04-29T14:49:35.0000000+00:00</time></trkpt><trkpt lat="43.16357" lon="19.28849"><ele>887.2</ele><time>2012-04-29T14:49:40.0000000+00:00</time></trkpt><trkpt lat="43.163555" lon="19.288595"><ele>886.5</ele><time>2012-04-29T14:49:45.0000000+00:00</time></trkpt><trkpt lat="43.163536" lon="19.2887"><ele>885.0</ele><time>2012-04-29T14:49:50.0000000+00:00</time></trkpt><trkpt lat="43.163517" lon="19.288795"><ele>883.1</ele><time>2012-04-29T14:49:55.0000000+00:00</time></trkpt><trkpt lat="43.16349" lon="19.288891"><ele>880.2</ele><time>2012-04-29T14:50:00.0000000+00:00</time></trkpt><trkpt lat="43.163467" lon="19.288988"><ele>878.2</ele><time>2012-04-29T14:50:05.0000000+00:00</time></trkpt><trkpt lat="43.163448" lon="19.289087"><ele>876.8</ele><time>2012-04-29T14:50:10.0000000+00:00</time></trkpt><trkpt lat="43.163418" lon="19.289183"><ele>875.4</ele><time>2012-04-29T14:50:15.0000000+00:00</time></trkpt><trkpt lat="43.163387" lon="19.289278"><ele>874.5</ele><time>2012-04-29T14:50:20.0000000+00:00</time></trkpt><trkpt lat="43.163357" lon="19.289362"><ele>874.4</ele><time>2012-04-29T14:50:25.0000000+00:00</time></trkpt><trkpt lat="43.163311" lon="19.289442"><ele>875.6</ele><time>2012-04-29T14:50:30.0000000+00:00</time></trkpt><trkpt lat="43.16328" lon="19.289541"><ele>875.1</ele><time>2012-04-29T14:50:35.0000000+00:00</time></trkpt><trkpt lat="43.163239" lon="19.289619"><ele>876.9</ele><time>2012-04-29T14:50:40.0000000+00:00</time></trkpt><trkpt lat="43.163197" lon="19.289701"><ele>877.8</ele><time>2012-04-29T14:50:45.0000000+00:00</time></trkpt><trkpt lat="43.163155" lon="19.289787"><ele>878.6</ele><time>2012-04-29T14:50:50.0000000+00:00</time></trkpt><trkpt lat="43.163113" lon="19.289864"><ele>880.2</ele><time>2012-04-29T14:50:55.0000000+00:00</time></trkpt><trkpt lat="43.163101" lon="19.289883"><ele>880.5</ele><time>2012-04-29T14:51:00.0000000+00:00</time></trkpt><trkpt lat="43.163101" lon="19.289885"><ele>880.2</ele><time>2012-04-29T14:51:05.0000000+00:00</time></trkpt><trkpt lat="43.163101" lon="19.289885"><ele>880.2</ele><time>2012-04-29T14:51:10.0000000+00:00</time></trkpt><trkpt lat="43.163101" lon="19.289885"><ele>880.3</ele><time>2012-04-29T14:51:15.0000000+00:00</time></trkpt><trkpt lat="43.163086" lon="19.289906"><ele>881.2</ele><time>2012-04-29T14:51:20.0000000+00:00</time></trkpt><trkpt lat="43.163052" lon="19.289948"><ele>882.4</ele><time>2012-04-29T14:51:25.0000000+00:00</time></trkpt><trkpt lat="43.162991" lon="19.29001"><ele>882.8</ele><time>2012-04-29T14:51:30.0000000+00:00</time></trkpt><trkpt lat="43.162933" lon="19.290079"><ele>883.5</ele><time>2012-04-29T14:51:35.0000000+00:00</time></trkpt><trkpt lat="43.16288" lon="19.290142"><ele>884.1</ele><time>2012-04-29T14:51:40.0000000+00:00</time></trkpt><trkpt lat="43.162811" lon="19.290209"><ele>883.7</ele><time>2012-04-29T14:51:45.0000000+00:00</time></trkpt><trkpt lat="43.162758" lon="19.29027"><ele>884.1</ele><time>2012-04-29T14:51:50.0000000+00:00</time></trkpt><trkpt lat="43.162693" lon="19.290331"><ele>883.9</ele><time>2012-04-29T14:51:55.0000000+00:00</time></trkpt><trkpt lat="43.162632" lon="19.290396"><ele>883.9</ele><time>2012-04-29T14:52:00.0000000+00:00</time></trkpt><trkpt lat="43.162582" lon="19.290468"><ele>883.6</ele><time>2012-04-29T14:52:05.0000000+00:00</time></trkpt><trkpt lat="43.162537" lon="19.290556"><ele>883.5</ele><time>2012-04-29T14:52:10.0000000+00:00</time></trkpt><trkpt lat="43.162506" lon="19.290636"><ele>882.5</ele><time>2012-04-29T14:52:15.0000000+00:00</time></trkpt><trkpt lat="43.162479" lon="19.290726"><ele>881.8</ele><time>2012-04-29T14:52:20.0000000+00:00</time></trkpt><trkpt lat="43.16246" lon="19.290831"><ele>880.4</ele><time>2012-04-29T14:52:25.0000000+00:00</time></trkpt><trkpt lat="43.162441" lon="19.290913"><ele>878.7</ele><time>2012-04-29T14:52:30.0000000+00:00</time></trkpt><trkpt lat="43.162422" lon="19.291016"><ele>877.7</ele><time>2012-04-29T14:52:35.0000000+00:00</time></trkpt><trkpt lat="43.162415" lon="19.291121"><ele>877.1</ele><time>2012-04-29T14:52:40.0000000+00:00</time></trkpt><trkpt lat="43.162411" lon="19.291225"><ele>876.2</ele><time>2012-04-29T14:52:45.0000000+00:00</time></trkpt><trkpt lat="43.162395" lon="19.291325"><ele>874.2</ele><time>2012-04-29T14:52:50.0000000+00:00</time></trkpt><trkpt lat="43.162373" lon="19.291431"><ele>872.0</ele><time>2012-04-29T14:52:55.0000000+00:00</time></trkpt><trkpt lat="43.162346" lon="19.291529"><ele>870.2</ele><time>2012-04-29T14:53:00.0000000+00:00</time></trkpt><trkpt lat="43.162312" lon="19.291615"><ele>869.0</ele><time>2012-04-29T14:53:05.0000000+00:00</time></trkpt><trkpt lat="43.162277" lon="19.291706"><ele>868.6</ele><time>2012-04-29T14:53:10.0000000+00:00</time></trkpt><trkpt lat="43.162231" lon="19.291794"><ele>869.6</ele><time>2012-04-29T14:53:15.0000000+00:00</time></trkpt><trkpt lat="43.162189" lon="19.291874"><ele>870.8</ele><time>2012-04-29T14:53:20.0000000+00:00</time></trkpt><trkpt lat="43.162132" lon="19.291945"><ele>871.2</ele><time>2012-04-29T14:53:25.0000000+00:00</time></trkpt><trkpt lat="43.162083" lon="19.292025"><ele>871.6</ele><time>2012-04-29T14:53:30.0000000+00:00</time></trkpt><trkpt lat="43.162022" lon="19.292088"><ele>872.1</ele><time>2012-04-29T14:53:35.0000000+00:00</time></trkpt><trkpt lat="43.161961" lon="19.292158"><ele>871.7</ele><time>2012-04-29T14:53:40.0000000+00:00</time></trkpt><trkpt lat="43.1619" lon="19.292227"><ele>869.9</ele><time>2012-04-29T14:53:45.0000000+00:00</time></trkpt><trkpt lat="43.161839" lon="19.292301"><ele>870.3</ele><time>2012-04-29T14:53:50.0000000+00:00</time></trkpt><trkpt lat="43.161777" lon="19.29236"><ele>870.1</ele><time>2012-04-29T14:53:55.0000000+00:00</time></trkpt><trkpt lat="43.161728" lon="19.292427"><ele>870.9</ele><time>2012-04-29T14:54:00.0000000+00:00</time></trkpt><trkpt lat="43.161678" lon="19.292494"><ele>870.2</ele><time>2012-04-29T14:54:05.0000000+00:00</time></trkpt><trkpt lat="43.161629" lon="19.292566"><ele>870.1</ele><time>2012-04-29T14:54:10.0000000+00:00</time></trkpt><trkpt lat="43.161579" lon="19.292641"><ele>868.9</ele><time>2012-04-29T14:54:15.0000000+00:00</time></trkpt><trkpt lat="43.161522" lon="19.292721"><ele>868.8</ele><time>2012-04-29T14:54:20.0000000+00:00</time></trkpt><trkpt lat="43.161476" lon="19.292803"><ele>868.1</ele><time>2012-04-29T14:54:25.0000000+00:00</time></trkpt><trkpt lat="43.161427" lon="19.292879"><ele>867.6</ele><time>2012-04-29T14:54:30.0000000+00:00</time></trkpt><trkpt lat="43.161377" lon="19.292955"><ele>866.6</ele><time>2012-04-29T14:54:35.0000000+00:00</time></trkpt><trkpt lat="43.161339" lon="19.293028"><ele>866.8</ele><time>2012-04-29T14:54:40.0000000+00:00</time></trkpt><trkpt lat="43.161297" lon="19.293119"><ele>866.4</ele><time>2012-04-29T14:54:45.0000000+00:00</time></trkpt><trkpt lat="43.161251" lon="19.293205"><ele>865.0</ele><time>2012-04-29T14:54:50.0000000+00:00</time></trkpt><trkpt lat="43.161205" lon="19.293282"><ele>864.6</ele><time>2012-04-29T14:54:55.0000000+00:00</time></trkpt><trkpt lat="43.161156" lon="19.293364"><ele>864.5</ele><time>2012-04-29T14:55:00.0000000+00:00</time></trkpt><trkpt lat="43.161114" lon="19.293451"><ele>864.6</ele><time>2012-04-29T14:55:05.0000000+00:00</time></trkpt><trkpt lat="43.161079" lon="19.293541"><ele>863.5</ele><time>2012-04-29T14:55:10.0000000+00:00</time></trkpt><trkpt lat="43.161045" lon="19.293631"><ele>862.9</ele><time>2012-04-29T14:55:15.0000000+00:00</time></trkpt><trkpt lat="43.161018" lon="19.29373"><ele>861.8</ele><time>2012-04-29T14:55:20.0000000+00:00</time></trkpt><trkpt lat="43.160988" lon="19.293825"><ele>860.6</ele><time>2012-04-29T14:55:25.0000000+00:00</time></trkpt><trkpt lat="43.160957" lon="19.293913"><ele>859.0</ele><time>2012-04-29T14:55:30.0000000+00:00</time></trkpt><trkpt lat="43.160927" lon="19.294014"><ele>857.2</ele><time>2012-04-29T14:55:35.0000000+00:00</time></trkpt><trkpt lat="43.160889" lon="19.2941"><ele>856.8</ele><time>2012-04-29T14:55:40.0000000+00:00</time></trkpt><trkpt lat="43.160839" lon="19.294184"><ele>856.5</ele><time>2012-04-29T14:55:45.0000000+00:00</time></trkpt><trkpt lat="43.160793" lon="19.294268"><ele>855.9</ele><time>2012-04-29T14:55:50.0000000+00:00</time></trkpt><trkpt lat="43.160748" lon="19.294342"><ele>856.3</ele><time>2012-04-29T14:55:55.0000000+00:00</time></trkpt><trkpt lat="43.160702" lon="19.294422"><ele>856.5</ele><time>2012-04-29T14:56:00.0000000+00:00</time></trkpt><trkpt lat="43.160648" lon="19.294485"><ele>855.9</ele><time>2012-04-29T14:56:05.0000000+00:00</time></trkpt><trkpt lat="43.160587" lon="19.294538"><ele>856.3</ele><time>2012-04-29T14:56:10.0000000+00:00</time></trkpt><trkpt lat="43.160519" lon="19.294584"><ele>856.3</ele><time>2012-04-29T14:56:15.0000000+00:00</time></trkpt><trkpt lat="43.160446" lon="19.294622"><ele>856.1</ele><time>2012-04-29T14:56:20.0000000+00:00</time></trkpt><trkpt lat="43.160442" lon="19.29464"><ele>857.0</ele><time>2012-04-29T14:56:25.0000000+00:00</time></trkpt><trkpt lat="43.160439" lon="19.294638"><ele>857.0</ele><time>2012-04-29T14:56:30.0000000+00:00</time></trkpt><trkpt lat="43.160381" lon="19.294645"><ele>857.9</ele><time>2012-04-29T14:56:35.0000000+00:00</time></trkpt><trkpt lat="43.160313" lon="19.294666"><ele>856.4</ele><time>2012-04-29T14:56:40.0000000+00:00</time></trkpt><trkpt lat="43.160236" lon="19.294691"><ele>855.6</ele><time>2012-04-29T14:56:45.0000000+00:00</time></trkpt><trkpt lat="43.160156" lon="19.294699"><ele>855.7</ele><time>2012-04-29T14:56:50.0000000+00:00</time></trkpt><trkpt lat="43.160084" lon="19.294689"><ele>854.5</ele><time>2012-04-29T14:56:55.0000000+00:00</time></trkpt><trkpt lat="43.160011" lon="19.29468"><ele>853.9</ele><time>2012-04-29T14:57:00.0000000+00:00</time></trkpt><trkpt lat="43.159935" lon="19.294661"><ele>853.4</ele><time>2012-04-29T14:57:05.0000000+00:00</time></trkpt><trkpt lat="43.159859" lon="19.294638"><ele>853.4</ele><time>2012-04-29T14:57:10.0000000+00:00</time></trkpt><trkpt lat="43.159786" lon="19.294605"><ele>853.7</ele><time>2012-04-29T14:57:15.0000000+00:00</time></trkpt><trkpt lat="43.15971" lon="19.294567"><ele>853.5</ele><time>2012-04-29T14:57:20.0000000+00:00</time></trkpt><trkpt lat="43.159645" lon="19.294521"><ele>853.0</ele><time>2012-04-29T14:57:25.0000000+00:00</time></trkpt><trkpt lat="43.159584" lon="19.294474"><ele>852.7</ele><time>2012-04-29T14:57:30.0000000+00:00</time></trkpt><trkpt lat="43.159523" lon="19.294418"><ele>852.1</ele><time>2012-04-29T14:57:35.0000000+00:00</time></trkpt><trkpt lat="43.159462" lon="19.294361"><ele>851.7</ele><time>2012-04-29T14:57:40.0000000+00:00</time></trkpt><trkpt lat="43.159409" lon="19.294302"><ele>851.2</ele><time>2012-04-29T14:57:45.0000000+00:00</time></trkpt><trkpt lat="43.159351" lon="19.294237"><ele>850.7</ele><time>2012-04-29T14:57:50.0000000+00:00</time></trkpt><trkpt lat="43.159283" lon="19.294174"><ele>850.6</ele><time>2012-04-29T14:57:55.0000000+00:00</time></trkpt><trkpt lat="43.159218" lon="19.294123"><ele>850.5</ele><time>2012-04-29T14:58:00.0000000+00:00</time></trkpt><trkpt lat="43.159149" lon="19.294073"><ele>850.4</ele><time>2012-04-29T14:58:05.0000000+00:00</time></trkpt><trkpt lat="43.159073" lon="19.294037"><ele>850.0</ele><time>2012-04-29T14:58:10.0000000+00:00</time></trkpt><trkpt lat="43.159012" lon="19.293983"><ele>849.8</ele><time>2012-04-29T14:58:15.0000000+00:00</time></trkpt><trkpt lat="43.158958" lon="19.293919"><ele>849.9</ele><time>2012-04-29T14:58:20.0000000+00:00</time></trkpt><trkpt lat="43.158943" lon="19.293859"><ele>848.0</ele><time>2012-04-29T14:58:25.0000000+00:00</time></trkpt><trkpt lat="43.158913" lon="19.293772"><ele>846.8</ele><time>2012-04-29T14:58:30.0000000+00:00</time></trkpt><trkpt lat="43.158886" lon="19.293688"><ele>846.2</ele><time>2012-04-29T14:58:35.0000000+00:00</time></trkpt><trkpt lat="43.158882" lon="19.293613"><ele>845.0</ele><time>2012-04-29T14:58:40.0000000+00:00</time></trkpt><trkpt lat="43.158871" lon="19.293531"><ele>842.8</ele><time>2012-04-29T14:58:45.0000000+00:00</time></trkpt><trkpt lat="43.158878" lon="19.293447"><ele>840.4</ele><time>2012-04-29T14:58:50.0000000+00:00</time></trkpt><trkpt lat="43.158894" lon="19.293341"><ele>839.1</ele><time>2012-04-29T14:58:55.0000000+00:00</time></trkpt><trkpt lat="43.158905" lon="19.29324"><ele>837.5</ele><time>2012-04-29T14:59:00.0000000+00:00</time></trkpt><trkpt lat="43.158924" lon="19.293131"><ele>837.5</ele><time>2012-04-29T14:59:05.0000000+00:00</time></trkpt><trkpt lat="43.158936" lon="19.293036"><ele>836.5</ele><time>2012-04-29T14:59:10.0000000+00:00</time></trkpt><trkpt lat="43.158955" lon="19.292934"><ele>836.7</ele><time>2012-04-29T14:59:15.0000000+00:00</time></trkpt><trkpt lat="43.158974" lon="19.29283"><ele>836.7</ele><time>2012-04-29T14:59:20.0000000+00:00</time></trkpt><trkpt lat="43.158993" lon="19.29273"><ele>836.0</ele><time>2012-04-29T14:59:25.0000000+00:00</time></trkpt><trkpt lat="43.158981" lon="19.292686"><ele>836.1</ele><time>2012-04-29T14:59:30.0000000+00:00</time></trkpt><trkpt lat="43.158974" lon="19.292683"><ele>836.1</ele><time>2012-04-29T14:59:35.0000000+00:00</time></trkpt><trkpt lat="43.158962" lon="19.292679"><ele>836.1</ele><time>2012-04-29T14:59:40.0000000+00:00</time></trkpt><trkpt lat="43.158958" lon="19.292677"><ele>836.0</ele><time>2012-04-29T14:59:45.0000000+00:00</time></trkpt><trkpt lat="43.158958" lon="19.292677"><ele>836.0</ele><time>2012-04-29T14:59:50.0000000+00:00</time></trkpt><trkpt lat="43.158958" lon="19.292677"><ele>836.0</ele><time>2012-04-29T14:59:55.0000000+00:00</time></trkpt><trkpt lat="43.158958" lon="19.292677"><ele>836.0</ele><time>2012-04-29T15:00:00.0000000+00:00</time></trkpt><trkpt lat="43.158958" lon="19.292677"><ele>836.0</ele><time>2012-04-29T15:00:05.0000000+00:00</time></trkpt><trkpt lat="43.158958" lon="19.292677"><ele>836.0</ele><time>2012-04-29T15:00:10.0000000+00:00</time></trkpt><trkpt lat="43.158958" lon="19.292677"><ele>836.0</ele><time>2012-04-29T15:00:15.0000000+00:00</time></trkpt><trkpt lat="43.158962" lon="19.292677"><ele>836.0</ele><time>2012-04-29T15:00:20.0000000+00:00</time></trkpt><trkpt lat="43.158962" lon="19.292677"><ele>836.0</ele><time>2012-04-29T15:00:25.0000000+00:00</time></trkpt><trkpt lat="43.158962" lon="19.292677"><ele>835.9</ele><time>2012-04-29T15:00:30.0000000+00:00</time></trkpt><trkpt lat="43.158962" lon="19.292677"><ele>835.9</ele><time>2012-04-29T15:00:35.0000000+00:00</time></trkpt><trkpt lat="43.158962" lon="19.292679"><ele>835.9</ele><time>2012-04-29T15:00:40.0000000+00:00</time></trkpt><trkpt lat="43.158962" lon="19.292679"><ele>835.9</ele><time>2012-04-29T15:00:45.0000000+00:00</time></trkpt><trkpt lat="43.158962" lon="19.292679"><ele>835.9</ele><time>2012-04-29T15:00:50.0000000+00:00</time></trkpt><trkpt lat="43.158962" lon="19.292679"><ele>835.9</ele><time>2012-04-29T15:00:55.0000000+00:00</time></trkpt><trkpt lat="43.158962" lon="19.292679"><ele>836.0</ele><time>2012-04-29T15:01:00.0000000+00:00</time></trkpt><trkpt lat="43.158962" lon="19.292679"><ele>836.0</ele><time>2012-04-29T15:01:05.0000000+00:00</time></trkpt><trkpt lat="43.158962" lon="19.292679"><ele>836.0</ele><time>2012-04-29T15:01:10.0000000+00:00</time></trkpt><trkpt lat="43.158962" lon="19.292679"><ele>836.0</ele><time>2012-04-29T15:01:15.0000000+00:00</time></trkpt><trkpt lat="43.158962" lon="19.292679"><ele>836.0</ele><time>2012-04-29T15:01:20.0000000+00:00</time></trkpt><trkpt lat="43.158962" lon="19.292679"><ele>835.9</ele><time>2012-04-29T15:01:25.0000000+00:00</time></trkpt><trkpt lat="43.158962" lon="19.292679"><ele>835.9</ele><time>2012-04-29T15:01:30.0000000+00:00</time></trkpt><trkpt lat="43.158962" lon="19.292679"><ele>835.9</ele><time>2012-04-29T15:01:35.0000000+00:00</time></trkpt><trkpt lat="43.158962" lon="19.292679"><ele>835.9</ele><time>2012-04-29T15:01:40.0000000+00:00</time></trkpt><trkpt lat="43.158962" lon="19.292679"><ele>835.9</ele><time>2012-04-29T15:01:45.0000000+00:00</time></trkpt><trkpt lat="43.158962" lon="19.292679"><ele>835.9</ele><time>2012-04-29T15:01:50.0000000+00:00</time></trkpt><trkpt lat="43.158962" lon="19.292679"><ele>835.9</ele><time>2012-04-29T15:01:55.0000000+00:00</time></trkpt><trkpt lat="43.158962" lon="19.292679"><ele>835.9</ele><time>2012-04-29T15:02:00.0000000+00:00</time></trkpt><trkpt lat="43.158962" lon="19.292679"><ele>835.9</ele><time>2012-04-29T15:02:05.0000000+00:00</time></trkpt><trkpt lat="43.158962" lon="19.292679"><ele>835.9</ele><time>2012-04-29T15:02:10.0000000+00:00</time></trkpt><trkpt lat="43.158962" lon="19.292679"><ele>835.9</ele><time>2012-04-29T15:02:15.0000000+00:00</time></trkpt><trkpt lat="43.158962" lon="19.292679"><ele>835.9</ele><time>2012-04-29T15:02:20.0000000+00:00</time></trkpt><trkpt lat="43.158962" lon="19.292679"><ele>835.9</ele><time>2012-04-29T15:02:25.0000000+00:00</time></trkpt><trkpt lat="43.158962" lon="19.292679"><ele>835.9</ele><time>2012-04-29T15:02:30.0000000+00:00</time></trkpt><trkpt lat="43.158962" lon="19.292679"><ele>835.9</ele><time>2012-04-29T15:02:35.0000000+00:00</time></trkpt><trkpt lat="43.158962" lon="19.292679"><ele>835.9</ele><time>2012-04-29T15:02:40.0000000+00:00</time></trkpt><trkpt lat="43.158962" lon="19.292681"><ele>835.9</ele><time>2012-04-29T15:02:45.0000000+00:00</time></trkpt><trkpt lat="43.158962" lon="19.292681"><ele>835.9</ele><time>2012-04-29T15:02:50.0000000+00:00</time></trkpt><trkpt lat="43.158962" lon="19.292681"><ele>835.8</ele><time>2012-04-29T15:02:55.0000000+00:00</time></trkpt><trkpt lat="43.158962" lon="19.292681"><ele>835.8</ele><time>2012-04-29T15:03:00.0000000+00:00</time></trkpt><trkpt lat="43.158962" lon="19.292681"><ele>835.8</ele><time>2012-04-29T15:03:05.0000000+00:00</time></trkpt><trkpt lat="43.158962" lon="19.292681"><ele>835.8</ele><time>2012-04-29T15:03:10.0000000+00:00</time></trkpt><trkpt lat="43.158962" lon="19.292681"><ele>835.8</ele><time>2012-04-29T15:03:15.0000000+00:00</time></trkpt><trkpt lat="43.158962" lon="19.292681"><ele>835.8</ele><time>2012-04-29T15:03:20.0000000+00:00</time></trkpt><trkpt lat="43.158962" lon="19.292681"><ele>835.8</ele><time>2012-04-29T15:03:25.0000000+00:00</time></trkpt><trkpt lat="43.158962" lon="19.292681"><ele>835.8</ele><time>2012-04-29T15:03:30.0000000+00:00</time></trkpt><trkpt lat="43.158962" lon="19.292681"><ele>835.7</ele><time>2012-04-29T15:03:35.0000000+00:00</time></trkpt><trkpt lat="43.158962" lon="19.292681"><ele>835.7</ele><time>2012-04-29T15:03:40.0000000+00:00</time></trkpt><trkpt lat="43.158962" lon="19.292679"><ele>835.7</ele><time>2012-04-29T15:03:45.0000000+00:00</time></trkpt><trkpt lat="43.158962" lon="19.292679"><ele>835.7</ele><time>2012-04-29T15:03:50.0000000+00:00</time></trkpt><trkpt lat="43.158962" lon="19.292679"><ele>835.7</ele><time>2012-04-29T15:03:55.0000000+00:00</time></trkpt><trkpt lat="43.158962" lon="19.292681"><ele>835.7</ele><time>2012-04-29T15:04:00.0000000+00:00</time></trkpt><trkpt lat="43.158962" lon="19.292681"><ele>835.6</ele><time>2012-04-29T15:04:05.0000000+00:00</time></trkpt><trkpt lat="43.158962" lon="19.292681"><ele>835.6</ele><time>2012-04-29T15:04:10.0000000+00:00</time></trkpt><trkpt lat="43.158962" lon="19.292681"><ele>835.6</ele><time>2012-04-29T15:04:15.0000000+00:00</time></trkpt><trkpt lat="43.158962" lon="19.292679"><ele>835.6</ele><time>2012-04-29T15:04:20.0000000+00:00</time></trkpt><trkpt lat="43.158962" lon="19.292679"><ele>835.6</ele><time>2012-04-29T15:04:25.0000000+00:00</time></trkpt><trkpt lat="43.158962" lon="19.292679"><ele>835.6</ele><time>2012-04-29T15:04:30.0000000+00:00</time></trkpt><trkpt lat="43.158962" lon="19.292681"><ele>835.6</ele><time>2012-04-29T15:04:35.0000000+00:00</time></trkpt><trkpt lat="43.158962" lon="19.292681"><ele>835.7</ele><time>2012-04-29T15:04:40.0000000+00:00</time></trkpt><trkpt lat="43.158962" lon="19.292681"><ele>835.7</ele><time>2012-04-29T15:04:45.0000000+00:00</time></trkpt><trkpt lat="43.158962" lon="19.292681"><ele>835.7</ele><time>2012-04-29T15:04:50.0000000+00:00</time></trkpt><trkpt lat="43.158962" lon="19.292681"><ele>835.7</ele><time>2012-04-29T15:04:55.0000000+00:00</time></trkpt><trkpt lat="43.158962" lon="19.292681"><ele>835.7</ele><time>2012-04-29T15:05:00.0000000+00:00</time></trkpt><trkpt lat="43.158962" lon="19.292681"><ele>835.7</ele><time>2012-04-29T15:05:05.0000000+00:00</time></trkpt><trkpt lat="43.158962" lon="19.292681"><ele>835.7</ele><time>2012-04-29T15:05:10.0000000+00:00</time></trkpt><trkpt lat="43.158962" lon="19.292681"><ele>835.7</ele><time>2012-04-29T15:05:15.0000000+00:00</time></trkpt><trkpt lat="43.158962" lon="19.292683"><ele>835.7</ele><time>2012-04-29T15:05:20.0000000+00:00</time></trkpt><trkpt lat="43.158962" lon="19.292683"><ele>835.7</ele><time>2012-04-29T15:05:25.0000000+00:00</time></trkpt><trkpt lat="43.158962" lon="19.292683"><ele>835.7</ele><time>2012-04-29T15:05:30.0000000+00:00</time></trkpt><trkpt lat="43.158962" lon="19.292683"><ele>835.7</ele><time>2012-04-29T15:05:35.0000000+00:00</time></trkpt><trkpt lat="43.158962" lon="19.292683"><ele>835.7</ele><time>2012-04-29T15:05:40.0000000+00:00</time></trkpt><trkpt lat="43.158962" lon="19.292683"><ele>835.7</ele><time>2012-04-29T15:05:45.0000000+00:00</time></trkpt><trkpt lat="43.158966" lon="19.292683"><ele>835.7</ele><time>2012-04-29T15:05:50.0000000+00:00</time></trkpt><trkpt lat="43.158966" lon="19.292685"><ele>835.7</ele><time>2012-04-29T15:05:55.0000000+00:00</time></trkpt><trkpt lat="43.158966" lon="19.292685"><ele>835.7</ele><time>2012-04-29T15:06:00.0000000+00:00</time></trkpt><trkpt lat="43.15897" lon="19.292685"><ele>835.7</ele><time>2012-04-29T15:06:05.0000000+00:00</time></trkpt><trkpt lat="43.15897" lon="19.292685"><ele>835.7</ele><time>2012-04-29T15:06:10.0000000+00:00</time></trkpt><trkpt lat="43.15897" lon="19.292685"><ele>835.7</ele><time>2012-04-29T15:06:15.0000000+00:00</time></trkpt><trkpt lat="43.15897" lon="19.292685"><ele>835.7</ele><time>2012-04-29T15:06:20.0000000+00:00</time></trkpt><trkpt lat="43.15897" lon="19.292686"><ele>835.7</ele><time>2012-04-29T15:06:25.0000000+00:00</time></trkpt><trkpt lat="43.15897" lon="19.292686"><ele>835.7</ele><time>2012-04-29T15:06:30.0000000+00:00</time></trkpt><trkpt lat="43.15897" lon="19.292685"><ele>835.8</ele><time>2012-04-29T15:06:35.0000000+00:00</time></trkpt><trkpt lat="43.15897" lon="19.292685"><ele>835.8</ele><time>2012-04-29T15:06:40.0000000+00:00</time></trkpt><trkpt lat="43.15897" lon="19.292685"><ele>835.8</ele><time>2012-04-29T15:06:45.0000000+00:00</time></trkpt><trkpt lat="43.15897" lon="19.292685"><ele>835.8</ele><time>2012-04-29T15:06:50.0000000+00:00</time></trkpt><trkpt lat="43.15897" lon="19.292685"><ele>835.8</ele><time>2012-04-29T15:06:55.0000000+00:00</time></trkpt><trkpt lat="43.15897" lon="19.292685"><ele>835.8</ele><time>2012-04-29T15:07:00.0000000+00:00</time></trkpt><trkpt lat="43.15897" lon="19.292685"><ele>835.8</ele><time>2012-04-29T15:07:05.0000000+00:00</time></trkpt><trkpt lat="43.15897" lon="19.292685"><ele>835.8</ele><time>2012-04-29T15:07:10.0000000+00:00</time></trkpt><trkpt lat="43.158974" lon="19.292685"><ele>835.8</ele><time>2012-04-29T15:07:15.0000000+00:00</time></trkpt><trkpt lat="43.158974" lon="19.292685"><ele>835.8</ele><time>2012-04-29T15:07:20.0000000+00:00</time></trkpt><trkpt lat="43.158974" lon="19.292685"><ele>835.8</ele><time>2012-04-29T15:07:25.0000000+00:00</time></trkpt><trkpt lat="43.158974" lon="19.292685"><ele>835.8</ele><time>2012-04-29T15:07:30.0000000+00:00</time></trkpt><trkpt lat="43.158974" lon="19.292685"><ele>835.8</ele><time>2012-04-29T15:07:35.0000000+00:00</time></trkpt><trkpt lat="43.158974" lon="19.292685"><ele>835.9</ele><time>2012-04-29T15:07:40.0000000+00:00</time></trkpt><trkpt lat="43.158974" lon="19.292685"><ele>835.9</ele><time>2012-04-29T15:07:45.0000000+00:00</time></trkpt><trkpt lat="43.158974" lon="19.292685"><ele>835.9</ele><time>2012-04-29T15:07:50.0000000+00:00</time></trkpt><trkpt lat="43.158974" lon="19.292685"><ele>835.9</ele><time>2012-04-29T15:07:55.0000000+00:00</time></trkpt><trkpt lat="43.158974" lon="19.292685"><ele>835.9</ele><time>2012-04-29T15:08:00.0000000+00:00</time></trkpt><trkpt lat="43.158974" lon="19.292685"><ele>836.0</ele><time>2012-04-29T15:08:05.0000000+00:00</time></trkpt><trkpt lat="43.158974" lon="19.292685"><ele>836.0</ele><time>2012-04-29T15:08:10.0000000+00:00</time></trkpt><trkpt lat="43.158974" lon="19.292685"><ele>836.0</ele><time>2012-04-29T15:08:15.0000000+00:00</time></trkpt><trkpt lat="43.158974" lon="19.292685"><ele>836.0</ele><time>2012-04-29T15:08:20.0000000+00:00</time></trkpt><trkpt lat="43.158974" lon="19.292686"><ele>836.0</ele><time>2012-04-29T15:08:25.0000000+00:00</time></trkpt><trkpt lat="43.158974" lon="19.292686"><ele>836.0</ele><time>2012-04-29T15:08:30.0000000+00:00</time></trkpt><trkpt lat="43.158974" lon="19.292686"><ele>836.0</ele><time>2012-04-29T15:08:35.0000000+00:00</time></trkpt><trkpt lat="43.158974" lon="19.292686"><ele>836.0</ele><time>2012-04-29T15:08:40.0000000+00:00</time></trkpt><trkpt lat="43.158974" lon="19.292686"><ele>836.0</ele><time>2012-04-29T15:08:45.0000000+00:00</time></trkpt><trkpt lat="43.158974" lon="19.292686"><ele>836.1</ele><time>2012-04-29T15:08:50.0000000+00:00</time></trkpt><trkpt lat="43.158974" lon="19.292686"><ele>836.1</ele><time>2012-04-29T15:08:55.0000000+00:00</time></trkpt><trkpt lat="43.158974" lon="19.292686"><ele>836.1</ele><time>2012-04-29T15:09:00.0000000+00:00</time></trkpt><trkpt lat="43.158974" lon="19.292686"><ele>836.1</ele><time>2012-04-29T15:09:05.0000000+00:00</time></trkpt><trkpt lat="43.158974" lon="19.292686"><ele>836.1</ele><time>2012-04-29T15:09:10.0000000+00:00</time></trkpt><trkpt lat="43.15897" lon="19.292686"><ele>836.1</ele><time>2012-04-29T15:09:15.0000000+00:00</time></trkpt><trkpt lat="43.15897" lon="19.292686"><ele>836.1</ele><time>2012-04-29T15:09:20.0000000+00:00</time></trkpt><trkpt lat="43.15897" lon="19.292686"><ele>836.1</ele><time>2012-04-29T15:09:25.0000000+00:00</time></trkpt><trkpt lat="43.15897" lon="19.292686"><ele>836.1</ele><time>2012-04-29T15:09:30.0000000+00:00</time></trkpt><trkpt lat="43.15897" lon="19.292686"><ele>836.1</ele><time>2012-04-29T15:09:35.0000000+00:00</time></trkpt><trkpt lat="43.15897" lon="19.292686"><ele>836.1</ele><time>2012-04-29T15:09:40.0000000+00:00</time></trkpt><trkpt lat="43.15897" lon="19.292686"><ele>836.1</ele><time>2012-04-29T15:09:45.0000000+00:00</time></trkpt><trkpt lat="43.15897" lon="19.292686"><ele>836.1</ele><time>2012-04-29T15:09:50.0000000+00:00</time></trkpt><trkpt lat="43.15897" lon="19.292686"><ele>836.1</ele><time>2012-04-29T15:09:55.0000000+00:00</time></trkpt><trkpt lat="43.15897" lon="19.292686"><ele>836.1</ele><time>2012-04-29T15:10:00.0000000+00:00</time></trkpt><trkpt lat="43.15897" lon="19.292688"><ele>836.1</ele><time>2012-04-29T15:10:05.0000000+00:00</time></trkpt><trkpt lat="43.15897" lon="19.292688"><ele>836.1</ele><time>2012-04-29T15:10:10.0000000+00:00</time></trkpt><trkpt lat="43.158974" lon="19.292688"><ele>836.1</ele><time>2012-04-29T15:10:15.0000000+00:00</time></trkpt><trkpt lat="43.158974" lon="19.292688"><ele>836.1</ele><time>2012-04-29T15:10:20.0000000+00:00</time></trkpt><trkpt lat="43.158974" lon="19.292688"><ele>836.1</ele><time>2012-04-29T15:10:25.0000000+00:00</time></trkpt><trkpt lat="43.15897" lon="19.292688"><ele>836.1</ele><time>2012-04-29T15:10:30.0000000+00:00</time></trkpt><trkpt lat="43.15897" lon="19.292688"><ele>836.1</ele><time>2012-04-29T15:10:35.0000000+00:00</time></trkpt><trkpt lat="43.15897" lon="19.292688"><ele>836.1</ele><time>2012-04-29T15:10:40.0000000+00:00</time></trkpt><trkpt lat="43.15897" lon="19.292688"><ele>836.1</ele><time>2012-04-29T15:10:45.0000000+00:00</time></trkpt><trkpt lat="43.15897" lon="19.292688"><ele>836.0</ele><time>2012-04-29T15:10:50.0000000+00:00</time></trkpt><trkpt lat="43.15897" lon="19.292688"><ele>836.0</ele><time>2012-04-29T15:10:55.0000000+00:00</time></trkpt><trkpt lat="43.15897" lon="19.292688"><ele>836.0</ele><time>2012-04-29T15:11:00.0000000+00:00</time></trkpt><trkpt lat="43.15897" lon="19.292688"><ele>836.0</ele><time>2012-04-29T15:11:05.0000000+00:00</time></trkpt><trkpt lat="43.15897" lon="19.292688"><ele>836.0</ele><time>2012-04-29T15:11:10.0000000+00:00</time></trkpt><trkpt lat="43.15897" lon="19.292688"><ele>836.0</ele><time>2012-04-29T15:11:15.0000000+00:00</time></trkpt><trkpt lat="43.15897" lon="19.292688"><ele>836.0</ele><time>2012-04-29T15:11:20.0000000+00:00</time></trkpt><trkpt lat="43.158966" lon="19.292688"><ele>836.0</ele><time>2012-04-29T15:11:25.0000000+00:00</time></trkpt><trkpt lat="43.158966" lon="19.292688"><ele>836.0</ele><time>2012-04-29T15:11:30.0000000+00:00</time></trkpt><trkpt lat="43.158966" lon="19.292688"><ele>836.0</ele><time>2012-04-29T15:11:35.0000000+00:00</time></trkpt><trkpt lat="43.158966" lon="19.292688"><ele>836.0</ele><time>2012-04-29T15:11:40.0000000+00:00</time></trkpt><trkpt lat="43.158966" lon="19.292688"><ele>836.1</ele><time>2012-04-29T15:11:45.0000000+00:00</time></trkpt><trkpt lat="43.158966" lon="19.292688"><ele>836.1</ele><time>2012-04-29T15:11:50.0000000+00:00</time></trkpt><trkpt lat="43.158966" lon="19.29269"><ele>836.1</ele><time>2012-04-29T15:11:55.0000000+00:00</time></trkpt><trkpt lat="43.158966" lon="19.29269"><ele>836.1</ele><time>2012-04-29T15:12:00.0000000+00:00</time></trkpt><trkpt lat="43.158966" lon="19.29269"><ele>836.2</ele><time>2012-04-29T15:12:05.0000000+00:00</time></trkpt><trkpt lat="43.158966" lon="19.29269"><ele>836.2</ele><time>2012-04-29T15:12:10.0000000+00:00</time></trkpt><trkpt lat="43.158966" lon="19.29269"><ele>836.2</ele><time>2012-04-29T15:12:15.0000000+00:00</time></trkpt><trkpt lat="43.158966" lon="19.29269"><ele>836.3</ele><time>2012-04-29T15:12:20.0000000+00:00</time></trkpt><trkpt lat="43.158966" lon="19.29269"><ele>836.3</ele><time>2012-04-29T15:12:25.0000000+00:00</time></trkpt><trkpt lat="43.158966" lon="19.29269"><ele>836.3</ele><time>2012-04-29T15:12:30.0000000+00:00</time></trkpt><trkpt lat="43.158966" lon="19.292692"><ele>836.4</ele><time>2012-04-29T15:12:35.0000000+00:00</time></trkpt><trkpt lat="43.158966" lon="19.292692"><ele>836.4</ele><time>2012-04-29T15:12:40.0000000+00:00</time></trkpt><trkpt lat="43.158966" lon="19.292692"><ele>836.4</ele><time>2012-04-29T15:12:45.0000000+00:00</time></trkpt><trkpt lat="43.158966" lon="19.292692"><ele>836.4</ele><time>2012-04-29T15:12:50.0000000+00:00</time></trkpt><trkpt lat="43.158966" lon="19.292692"><ele>836.4</ele><time>2012-04-29T15:12:55.0000000+00:00</time></trkpt><trkpt lat="43.158966" lon="19.292692"><ele>836.4</ele><time>2012-04-29T15:13:00.0000000+00:00</time></trkpt><trkpt lat="43.158966" lon="19.292692"><ele>836.4</ele><time>2012-04-29T15:13:05.0000000+00:00</time></trkpt><trkpt lat="43.158966" lon="19.292692"><ele>836.4</ele><time>2012-04-29T15:13:10.0000000+00:00</time></trkpt><trkpt lat="43.158966" lon="19.292692"><ele>836.4</ele><time>2012-04-29T15:13:15.0000000+00:00</time></trkpt><trkpt lat="43.158966" lon="19.292692"><ele>836.4</ele><time>2012-04-29T15:13:20.0000000+00:00</time></trkpt><trkpt lat="43.158966" lon="19.292692"><ele>836.4</ele><time>2012-04-29T15:13:25.0000000+00:00</time></trkpt><trkpt lat="43.158966" lon="19.292692"><ele>836.4</ele><time>2012-04-29T15:13:30.0000000+00:00</time></trkpt><trkpt lat="43.158966" lon="19.292692"><ele>836.4</ele><time>2012-04-29T15:13:35.0000000+00:00</time></trkpt><trkpt lat="43.158966" lon="19.292692"><ele>836.4</ele><time>2012-04-29T15:13:40.0000000+00:00</time></trkpt><trkpt lat="43.158966" lon="19.292692"><ele>836.4</ele><time>2012-04-29T15:13:45.0000000+00:00</time></trkpt><trkpt lat="43.158966" lon="19.292692"><ele>836.4</ele><time>2012-04-29T15:13:50.0000000+00:00</time></trkpt><trkpt lat="43.158966" lon="19.292692"><ele>836.4</ele><time>2012-04-29T15:13:55.0000000+00:00</time></trkpt><trkpt lat="43.158966" lon="19.292692"><ele>836.4</ele><time>2012-04-29T15:14:00.0000000+00:00</time></trkpt><trkpt lat="43.158966" lon="19.292694"><ele>836.3</ele><time>2012-04-29T15:14:05.0000000+00:00</time></trkpt><trkpt lat="43.158966" lon="19.292694"><ele>836.3</ele><time>2012-04-29T15:14:10.0000000+00:00</time></trkpt><trkpt lat="43.158966" lon="19.292694"><ele>836.3</ele><time>2012-04-29T15:14:15.0000000+00:00</time></trkpt><trkpt lat="43.158966" lon="19.292694"><ele>836.3</ele><time>2012-04-29T15:14:20.0000000+00:00</time></trkpt><trkpt lat="43.158966" lon="19.292694"><ele>836.3</ele><time>2012-04-29T15:14:25.0000000+00:00</time></trkpt><trkpt lat="43.158966" lon="19.292694"><ele>836.3</ele><time>2012-04-29T15:14:30.0000000+00:00</time></trkpt><trkpt lat="43.158966" lon="19.292692"><ele>836.3</ele><time>2012-04-29T15:14:35.0000000+00:00</time></trkpt><trkpt lat="43.158962" lon="19.292692"><ele>836.3</ele><time>2012-04-29T15:14:40.0000000+00:00</time></trkpt><trkpt lat="43.158962" lon="19.292692"><ele>836.4</ele><time>2012-04-29T15:14:45.0000000+00:00</time></trkpt><trkpt lat="43.158962" lon="19.292692"><ele>836.4</ele><time>2012-04-29T15:14:50.0000000+00:00</time></trkpt><trkpt lat="43.158962" lon="19.292692"><ele>836.4</ele><time>2012-04-29T15:14:55.0000000+00:00</time></trkpt><trkpt lat="43.158962" lon="19.292692"><ele>836.4</ele><time>2012-04-29T15:15:00.0000000+00:00</time></trkpt><trkpt lat="43.158962" lon="19.292692"><ele>836.4</ele><time>2012-04-29T15:15:05.0000000+00:00</time></trkpt><trkpt lat="43.158962" lon="19.292692"><ele>836.4</ele><time>2012-04-29T15:15:10.0000000+00:00</time></trkpt><trkpt lat="43.158962" lon="19.292694"><ele>836.4</ele><time>2012-04-29T15:15:15.0000000+00:00</time></trkpt><trkpt lat="43.158962" lon="19.292694"><ele>836.4</ele><time>2012-04-29T15:15:20.0000000+00:00</time></trkpt><trkpt lat="43.158962" lon="19.292694"><ele>836.4</ele><time>2012-04-29T15:15:25.0000000+00:00</time></trkpt><trkpt lat="43.158962" lon="19.292694"><ele>836.3</ele><time>2012-04-29T15:15:30.0000000+00:00</time></trkpt><trkpt lat="43.158966" lon="19.292694"><ele>836.3</ele><time>2012-04-29T15:15:35.0000000+00:00</time></trkpt><trkpt lat="43.158966" lon="19.292694"><ele>836.3</ele><time>2012-04-29T15:15:40.0000000+00:00</time></trkpt><trkpt lat="43.158966" lon="19.292694"><ele>836.3</ele><time>2012-04-29T15:15:45.0000000+00:00</time></trkpt><trkpt lat="43.158966" lon="19.292694"><ele>836.3</ele><time>2012-04-29T15:15:50.0000000+00:00</time></trkpt><trkpt lat="43.158966" lon="19.292694"><ele>836.3</ele><time>2012-04-29T15:15:55.0000000+00:00</time></trkpt><trkpt lat="43.158966" lon="19.292694"><ele>836.4</ele><time>2012-04-29T15:16:00.0000000+00:00</time></trkpt><trkpt lat="43.158966" lon="19.292694"><ele>836.4</ele><time>2012-04-29T15:16:05.0000000+00:00</time></trkpt><trkpt lat="43.158966" lon="19.292694"><ele>836.4</ele><time>2012-04-29T15:16:10.0000000+00:00</time></trkpt><trkpt lat="43.158966" lon="19.292696"><ele>836.4</ele><time>2012-04-29T15:16:15.0000000+00:00</time></trkpt><trkpt lat="43.158966" lon="19.292696"><ele>836.4</ele><time>2012-04-29T15:16:20.0000000+00:00</time></trkpt><trkpt lat="43.158966" lon="19.292696"><ele>836.4</ele><time>2012-04-29T15:16:25.0000000+00:00</time></trkpt><trkpt lat="43.158966" lon="19.292696"><ele>836.4</ele><time>2012-04-29T15:16:30.0000000+00:00</time></trkpt><trkpt lat="43.158966" lon="19.292696"><ele>836.4</ele><time>2012-04-29T15:16:35.0000000+00:00</time></trkpt><trkpt lat="43.158966" lon="19.292696"><ele>836.5</ele><time>2012-04-29T15:16:40.0000000+00:00</time></trkpt><trkpt lat="43.158966" lon="19.292696"><ele>836.5</ele><time>2012-04-29T15:16:45.0000000+00:00</time></trkpt><trkpt lat="43.158966" lon="19.292696"><ele>836.5</ele><time>2012-04-29T15:16:50.0000000+00:00</time></trkpt><trkpt lat="43.158966" lon="19.292696"><ele>836.5</ele><time>2012-04-29T15:16:55.0000000+00:00</time></trkpt><trkpt lat="43.158966" lon="19.292696"><ele>836.5</ele><time>2012-04-29T15:17:00.0000000+00:00</time></trkpt><trkpt lat="43.158966" lon="19.292696"><ele>836.6</ele><time>2012-04-29T15:17:05.0000000+00:00</time></trkpt><trkpt lat="43.158966" lon="19.292698"><ele>836.6</ele><time>2012-04-29T15:17:10.0000000+00:00</time></trkpt><trkpt lat="43.158966" lon="19.292698"><ele>836.6</ele><time>2012-04-29T15:17:15.0000000+00:00</time></trkpt><trkpt lat="43.158966" lon="19.292698"><ele>836.6</ele><time>2012-04-29T15:17:20.0000000+00:00</time></trkpt><trkpt lat="43.158966" lon="19.292698"><ele>836.6</ele><time>2012-04-29T15:17:25.0000000+00:00</time></trkpt><trkpt lat="43.158966" lon="19.292698"><ele>836.7</ele><time>2012-04-29T15:17:30.0000000+00:00</time></trkpt><trkpt lat="43.158966" lon="19.292698"><ele>836.7</ele><time>2012-04-29T15:17:35.0000000+00:00</time></trkpt><trkpt lat="43.15897" lon="19.292698"><ele>836.7</ele><time>2012-04-29T15:17:40.0000000+00:00</time></trkpt><trkpt lat="43.15897" lon="19.292698"><ele>836.7</ele><time>2012-04-29T15:17:45.0000000+00:00</time></trkpt><trkpt lat="43.15897" lon="19.292698"><ele>836.7</ele><time>2012-04-29T15:17:50.0000000+00:00</time></trkpt><trkpt lat="43.15897" lon="19.292698"><ele>836.7</ele><time>2012-04-29T15:17:55.0000000+00:00</time></trkpt><trkpt lat="43.15897" lon="19.2927"><ele>836.7</ele><time>2012-04-29T15:18:00.0000000+00:00</time></trkpt><trkpt lat="43.15897" lon="19.2927"><ele>836.8</ele><time>2012-04-29T15:18:05.0000000+00:00</time></trkpt><trkpt lat="43.15897" lon="19.2927"><ele>836.8</ele><time>2012-04-29T15:18:10.0000000+00:00</time></trkpt><trkpt lat="43.15897" lon="19.2927"><ele>836.8</ele><time>2012-04-29T15:18:15.0000000+00:00</time></trkpt><trkpt lat="43.15897" lon="19.2927"><ele>836.8</ele><time>2012-04-29T15:18:20.0000000+00:00</time></trkpt><trkpt lat="43.15897" lon="19.2927"><ele>836.8</ele><time>2012-04-29T15:18:25.0000000+00:00</time></trkpt><trkpt lat="43.15897" lon="19.2927"><ele>836.8</ele><time>2012-04-29T15:18:30.0000000+00:00</time></trkpt><trkpt lat="43.158974" lon="19.2927"><ele>836.8</ele><time>2012-04-29T15:18:35.0000000+00:00</time></trkpt><trkpt lat="43.158974" lon="19.2927"><ele>836.8</ele><time>2012-04-29T15:18:40.0000000+00:00</time></trkpt><trkpt lat="43.158974" lon="19.2927"><ele>836.8</ele><time>2012-04-29T15:18:45.0000000+00:00</time></trkpt><trkpt lat="43.158974" lon="19.2927"><ele>836.8</ele><time>2012-04-29T15:18:50.0000000+00:00</time></trkpt><trkpt lat="43.158974" lon="19.2927"><ele>836.8</ele><time>2012-04-29T15:18:55.0000000+00:00</time></trkpt><trkpt lat="43.158974" lon="19.2927"><ele>836.9</ele><time>2012-04-29T15:19:00.0000000+00:00</time></trkpt><trkpt lat="43.158974" lon="19.2927"><ele>836.9</ele><time>2012-04-29T15:19:05.0000000+00:00</time></trkpt><trkpt lat="43.158974" lon="19.292702"><ele>836.9</ele><time>2012-04-29T15:19:10.0000000+00:00</time></trkpt><trkpt lat="43.158978" lon="19.292702"><ele>837.0</ele><time>2012-04-29T15:19:15.0000000+00:00</time></trkpt><trkpt lat="43.158978" lon="19.292702"><ele>837.0</ele><time>2012-04-29T15:19:20.0000000+00:00</time></trkpt><trkpt lat="43.158978" lon="19.292702"><ele>837.1</ele><time>2012-04-29T15:19:25.0000000+00:00</time></trkpt><trkpt lat="43.158978" lon="19.292702"><ele>837.1</ele><time>2012-04-29T15:19:30.0000000+00:00</time></trkpt><trkpt lat="43.158978" lon="19.292702"><ele>837.1</ele><time>2012-04-29T15:19:35.0000000+00:00</time></trkpt><trkpt lat="43.158978" lon="19.292702"><ele>837.2</ele><time>2012-04-29T15:19:40.0000000+00:00</time></trkpt><trkpt lat="43.158978" lon="19.292702"><ele>837.2</ele><time>2012-04-29T15:19:45.0000000+00:00</time></trkpt><trkpt lat="43.158978" lon="19.292702"><ele>837.2</ele><time>2012-04-29T15:19:50.0000000+00:00</time></trkpt><trkpt lat="43.158978" lon="19.292702"><ele>837.2</ele><time>2012-04-29T15:19:55.0000000+00:00</time></trkpt><trkpt lat="43.158974" lon="19.292702"><ele>837.2</ele><time>2012-04-29T15:20:00.0000000+00:00</time></trkpt><trkpt lat="43.158974" lon="19.292702"><ele>837.2</ele><time>2012-04-29T15:20:05.0000000+00:00</time></trkpt><trkpt lat="43.158974" lon="19.2927"><ele>837.2</ele><time>2012-04-29T15:20:10.0000000+00:00</time></trkpt><trkpt lat="43.158974" lon="19.2927"><ele>837.3</ele><time>2012-04-29T15:20:15.0000000+00:00</time></trkpt><trkpt lat="43.158974" lon="19.2927"><ele>837.3</ele><time>2012-04-29T15:20:20.0000000+00:00</time></trkpt><trkpt lat="43.158974" lon="19.2927"><ele>837.3</ele><time>2012-04-29T15:20:25.0000000+00:00</time></trkpt><trkpt lat="43.158974" lon="19.2927"><ele>837.3</ele><time>2012-04-29T15:20:30.0000000+00:00</time></trkpt><trkpt lat="43.158974" lon="19.292702"><ele>837.3</ele><time>2012-04-29T15:20:35.0000000+00:00</time></trkpt><trkpt lat="43.158974" lon="19.292702"><ele>837.3</ele><time>2012-04-29T15:20:40.0000000+00:00</time></trkpt><trkpt lat="43.158974" lon="19.292702"><ele>837.3</ele><time>2012-04-29T15:20:45.0000000+00:00</time></trkpt><trkpt lat="43.158974" lon="19.292702"><ele>837.4</ele><time>2012-04-29T15:20:50.0000000+00:00</time></trkpt><trkpt lat="43.158974" lon="19.292702"><ele>837.4</ele><time>2012-04-29T15:20:55.0000000+00:00</time></trkpt><trkpt lat="43.158974" lon="19.292702"><ele>837.4</ele><time>2012-04-29T15:21:00.0000000+00:00</time></trkpt><trkpt lat="43.158974" lon="19.292702"><ele>837.4</ele><time>2012-04-29T15:21:05.0000000+00:00</time></trkpt><trkpt lat="43.158974" lon="19.292702"><ele>837.5</ele><time>2012-04-29T15:21:10.0000000+00:00</time></trkpt><trkpt lat="43.158974" lon="19.292702"><ele>837.5</ele><time>2012-04-29T15:21:15.0000000+00:00</time></trkpt><trkpt lat="43.158974" lon="19.292702"><ele>837.5</ele><time>2012-04-29T15:21:20.0000000+00:00</time></trkpt><trkpt lat="43.158974" lon="19.292702"><ele>837.6</ele><time>2012-04-29T15:21:25.0000000+00:00</time></trkpt><trkpt lat="43.158978" lon="19.292702"><ele>837.6</ele><time>2012-04-29T15:21:30.0000000+00:00</time></trkpt><trkpt lat="43.158978" lon="19.292702"><ele>837.6</ele><time>2012-04-29T15:21:35.0000000+00:00</time></trkpt><trkpt lat="43.158978" lon="19.292704"><ele>837.7</ele><time>2012-04-29T15:21:40.0000000+00:00</time></trkpt><trkpt lat="43.158978" lon="19.292704"><ele>837.7</ele><time>2012-04-29T15:21:45.0000000+00:00</time></trkpt><trkpt lat="43.158981" lon="19.292704"><ele>837.8</ele><time>2012-04-29T15:21:50.0000000+00:00</time></trkpt><trkpt lat="43.158981" lon="19.292704"><ele>837.8</ele><time>2012-04-29T15:21:55.0000000+00:00</time></trkpt><trkpt lat="43.158981" lon="19.292704"><ele>837.9</ele><time>2012-04-29T15:22:00.0000000+00:00</time></trkpt><trkpt lat="43.158981" lon="19.292704"><ele>837.9</ele><time>2012-04-29T15:22:05.0000000+00:00</time></trkpt><trkpt lat="43.158981" lon="19.292704"><ele>837.9</ele><time>2012-04-29T15:22:10.0000000+00:00</time></trkpt><trkpt lat="43.158981" lon="19.292706"><ele>838.0</ele><time>2012-04-29T15:22:15.0000000+00:00</time></trkpt><trkpt lat="43.158981" lon="19.292706"><ele>838.0</ele><time>2012-04-29T15:22:20.0000000+00:00</time></trkpt><trkpt lat="43.158981" lon="19.292706"><ele>838.0</ele><time>2012-04-29T15:22:25.0000000+00:00</time></trkpt><trkpt lat="43.158981" lon="19.292706"><ele>838.0</ele><time>2012-04-29T15:22:30.0000000+00:00</time></trkpt><trkpt lat="43.158981" lon="19.292706"><ele>838.1</ele><time>2012-04-29T15:22:35.0000000+00:00</time></trkpt><trkpt lat="43.158981" lon="19.292704"><ele>838.1</ele><time>2012-04-29T15:22:40.0000000+00:00</time></trkpt><trkpt lat="43.158981" lon="19.292704"><ele>838.1</ele><time>2012-04-29T15:22:45.0000000+00:00</time></trkpt><trkpt lat="43.158978" lon="19.292704"><ele>838.1</ele><time>2012-04-29T15:22:50.0000000+00:00</time></trkpt><trkpt lat="43.158978" lon="19.292706"><ele>838.1</ele><time>2012-04-29T15:22:55.0000000+00:00</time></trkpt><trkpt lat="43.158978" lon="19.292706"><ele>838.1</ele><time>2012-04-29T15:23:00.0000000+00:00</time></trkpt><trkpt lat="43.158978" lon="19.292704"><ele>838.1</ele><time>2012-04-29T15:23:05.0000000+00:00</time></trkpt><trkpt lat="43.158978" lon="19.292704"><ele>838.1</ele><time>2012-04-29T15:23:10.0000000+00:00</time></trkpt><trkpt lat="43.158978" lon="19.292704"><ele>838.1</ele><time>2012-04-29T15:23:15.0000000+00:00</time></trkpt><trkpt lat="43.158978" lon="19.292704"><ele>838.1</ele><time>2012-04-29T15:23:20.0000000+00:00</time></trkpt><trkpt lat="43.158978" lon="19.292704"><ele>838.1</ele><time>2012-04-29T15:23:25.0000000+00:00</time></trkpt><trkpt lat="43.158978" lon="19.292704"><ele>838.1</ele><time>2012-04-29T15:23:30.0000000+00:00</time></trkpt><trkpt lat="43.158978" lon="19.292704"><ele>838.1</ele><time>2012-04-29T15:23:35.0000000+00:00</time></trkpt><trkpt lat="43.158978" lon="19.292706"><ele>838.1</ele><time>2012-04-29T15:23:40.0000000+00:00</time></trkpt><trkpt lat="43.158978" lon="19.292706"><ele>838.1</ele><time>2012-04-29T15:23:45.0000000+00:00</time></trkpt></trkseg><trkseg><trkpt lat="42.956818" lon="19.577368"><ele>844.0</ele><time>2012-04-30T11:02:52.0000000+00:00</time></trkpt><trkpt lat="42.95657" lon="19.577129"><ele>834.6</ele><time>2012-04-30T11:02:57.0000000+00:00</time></trkpt><trkpt lat="42.95639" lon="19.576931"><ele>833.6</ele><time>2012-04-30T11:03:02.0000000+00:00</time></trkpt><trkpt lat="42.956188" lon="19.576721"><ele>835.5</ele><time>2012-04-30T11:03:07.0000000+00:00</time></trkpt><trkpt lat="42.956009" lon="19.576532"><ele>835.1</ele><time>2012-04-30T11:03:12.0000000+00:00</time></trkpt><trkpt lat="42.955822" lon="19.576336"><ele>834.6</ele><time>2012-04-30T11:03:17.0000000+00:00</time></trkpt><trkpt lat="42.955612" lon="19.576122"><ele>834.6</ele><time>2012-04-30T11:03:22.0000000+00:00</time></trkpt><trkpt lat="42.955387" lon="19.575874"><ele>835.0</ele><time>2012-04-30T11:03:27.0000000+00:00</time></trkpt><trkpt lat="42.955139" lon="19.575642"><ele>833.6</ele><time>2012-04-30T11:03:32.0000000+00:00</time></trkpt><trkpt lat="42.954895" lon="19.575466"><ele>830.7</ele><time>2012-04-30T11:03:37.0000000+00:00</time></trkpt><trkpt lat="42.954651" lon="19.575298"><ele>828.6</ele><time>2012-04-30T11:03:42.0000000+00:00</time></trkpt><trkpt lat="42.954395" lon="19.57513"><ele>827.1</ele><time>2012-04-30T11:03:47.0000000+00:00</time></trkpt><trkpt lat="42.954151" lon="19.574991"><ele>826.5</ele><time>2012-04-30T11:03:52.0000000+00:00</time></trkpt><trkpt lat="42.953915" lon="19.574888"><ele>825.2</ele><time>2012-04-30T11:03:57.0000000+00:00</time></trkpt><trkpt lat="42.953705" lon="19.57478"><ele>824.7</ele><time>2012-04-30T11:04:02.0000000+00:00</time></trkpt><trkpt lat="42.953495" lon="19.574648"><ele>824.4</ele><time>2012-04-30T11:04:07.0000000+00:00</time></trkpt><trkpt lat="42.953331" lon="19.574444"><ele>824.6</ele><time>2012-04-30T11:04:12.0000000+00:00</time></trkpt><trkpt lat="42.953201" lon="19.574213"><ele>826.6</ele><time>2012-04-30T11:04:17.0000000+00:00</time></trkpt><trkpt lat="42.953106" lon="19.574001"><ele>829.8</ele><time>2012-04-30T11:04:22.0000000+00:00</time></trkpt><trkpt lat="42.953045" lon="19.573788"><ele>832.4</ele><time>2012-04-30T11:04:27.0000000+00:00</time></trkpt><trkpt lat="42.952999" lon="19.573551"><ele>834.4</ele><time>2012-04-30T11:04:32.0000000+00:00</time></trkpt><trkpt lat="42.952957" lon="19.573307"><ele>836.3</ele><time>2012-04-30T11:04:37.0000000+00:00</time></trkpt><trkpt lat="42.9529" lon="19.573053"><ele>838.6</ele><time>2012-04-30T11:04:42.0000000+00:00</time></trkpt><trkpt lat="42.952824" lon="19.572805"><ele>840.8</ele><time>2012-04-30T11:04:47.0000000+00:00</time></trkpt><trkpt lat="42.952728" lon="19.572559"><ele>843.1</ele><time>2012-04-30T11:04:52.0000000+00:00</time></trkpt><trkpt lat="42.952599" lon="19.572327"><ele>844.1</ele><time>2012-04-30T11:04:57.0000000+00:00</time></trkpt><trkpt lat="42.952457" lon="19.572126"><ele>844.8</ele><time>2012-04-30T11:05:02.0000000+00:00</time></trkpt><trkpt lat="42.952297" lon="19.571945"><ele>844.4</ele><time>2012-04-30T11:05:07.0000000+00:00</time></trkpt><trkpt lat="42.952114" lon="19.571779"><ele>844.6</ele><time>2012-04-30T11:05:12.0000000+00:00</time></trkpt><trkpt lat="42.951885" lon="19.57164"><ele>845.8</ele><time>2012-04-30T11:05:17.0000000+00:00</time></trkpt><trkpt lat="42.951653" lon="19.571545"><ele>846.8</ele><time>2012-04-30T11:05:22.0000000+00:00</time></trkpt><trkpt lat="42.951427" lon="19.57148"><ele>848.1</ele><time>2012-04-30T11:05:27.0000000+00:00</time></trkpt><trkpt lat="42.951149" lon="19.57151"><ele>849.8</ele><time>2012-04-30T11:05:32.0000000+00:00</time></trkpt><trkpt lat="42.950844" lon="19.571587"><ele>851.4</ele><time>2012-04-30T11:05:37.0000000+00:00</time></trkpt><trkpt lat="42.950535" lon="19.57173"><ele>851.4</ele><time>2012-04-30T11:05:42.0000000+00:00</time></trkpt><trkpt lat="42.950264" lon="19.57192"><ele>848.8</ele><time>2012-04-30T11:05:47.0000000+00:00</time></trkpt><trkpt lat="42.95002" lon="19.57218"><ele>846.4</ele><time>2012-04-30T11:05:52.0000000+00:00</time></trkpt><trkpt lat="42.949791" lon="19.572521"><ele>844.5</ele><time>2012-04-30T11:05:57.0000000+00:00</time></trkpt><trkpt lat="42.949608" lon="19.57283"><ele>841.5</ele><time>2012-04-30T11:06:02.0000000+00:00</time></trkpt><trkpt lat="42.949429" lon="19.573214"><ele>837.1</ele><time>2012-04-30T11:06:07.0000000+00:00</time></trkpt><trkpt lat="42.949253" lon="19.573536"><ele>836.8</ele><time>2012-04-30T11:06:12.0000000+00:00</time></trkpt><trkpt lat="42.949078" lon="19.573856"><ele>836.9</ele><time>2012-04-30T11:06:17.0000000+00:00</time></trkpt><trkpt lat="42.94891" lon="19.57415"><ele>836.8</ele><time>2012-04-30T11:06:22.0000000+00:00</time></trkpt><trkpt lat="42.948727" lon="19.574465"><ele>837.8</ele><time>2012-04-30T11:06:27.0000000+00:00</time></trkpt><trkpt lat="42.948536" lon="19.574759"><ele>837.5</ele><time>2012-04-30T11:06:32.0000000+00:00</time></trkpt><trkpt lat="42.94833" lon="19.57506"><ele>834.3</ele><time>2012-04-30T11:06:37.0000000+00:00</time></trkpt><trkpt lat="42.948128" lon="19.57535"><ele>832.3</ele><time>2012-04-30T11:06:42.0000000+00:00</time></trkpt><trkpt lat="42.947922" lon="19.575651"><ele>831.7</ele><time>2012-04-30T11:06:47.0000000+00:00</time></trkpt><trkpt lat="42.947712" lon="19.575937"><ele>830.9</ele><time>2012-04-30T11:06:52.0000000+00:00</time></trkpt><trkpt lat="42.947514" lon="19.576193"><ele>830.7</ele><time>2012-04-30T11:06:57.0000000+00:00</time></trkpt><trkpt lat="42.9473" lon="19.576458"><ele>830.6</ele><time>2012-04-30T11:07:02.0000000+00:00</time></trkpt><trkpt lat="42.947109" lon="19.576712"><ele>830.8</ele><time>2012-04-30T11:07:07.0000000+00:00</time></trkpt><trkpt lat="42.946907" lon="19.576944"><ele>830.6</ele><time>2012-04-30T11:07:12.0000000+00:00</time></trkpt><trkpt lat="42.946693" lon="19.577185"><ele>830.3</ele><time>2012-04-30T11:07:17.0000000+00:00</time></trkpt><trkpt lat="42.946449" lon="19.577417"><ele>830.4</ele><time>2012-04-30T11:07:22.0000000+00:00</time></trkpt><trkpt lat="42.946205" lon="19.577616"><ele>830.7</ele><time>2012-04-30T11:07:27.0000000+00:00</time></trkpt><trkpt lat="42.945961" lon="19.577785"><ele>831.0</ele><time>2012-04-30T11:07:32.0000000+00:00</time></trkpt><trkpt lat="42.945679" lon="19.577934"><ele>831.0</ele><time>2012-04-30T11:07:37.0000000+00:00</time></trkpt><trkpt lat="42.945366" lon="19.578051"><ele>830.8</ele><time>2012-04-30T11:07:42.0000000+00:00</time></trkpt><trkpt lat="42.945057" lon="19.578093"><ele>830.0</ele><time>2012-04-30T11:07:47.0000000+00:00</time></trkpt><trkpt lat="42.944775" lon="19.578081"><ele>828.1</ele><time>2012-04-30T11:07:52.0000000+00:00</time></trkpt><trkpt lat="42.944492" lon="19.578053"><ele>828.1</ele><time>2012-04-30T11:07:57.0000000+00:00</time></trkpt><trkpt lat="42.944206" lon="19.57799"><ele>827.6</ele><time>2012-04-30T11:08:02.0000000+00:00</time></trkpt><trkpt lat="42.943909" lon="19.577854"><ele>827.4</ele><time>2012-04-30T11:08:07.0000000+00:00</time></trkpt><trkpt lat="42.943607" lon="19.577665"><ele>828.0</ele><time>2012-04-30T11:08:12.0000000+00:00</time></trkpt><trkpt lat="42.94331" lon="19.57741"><ele>828.0</ele><time>2012-04-30T11:08:17.0000000+00:00</time></trkpt><trkpt lat="42.943001" lon="19.577145"><ele>827.9</ele><time>2012-04-30T11:08:22.0000000+00:00</time></trkpt><trkpt lat="42.942654" lon="19.576853"><ele>828.3</ele><time>2012-04-30T11:08:27.0000000+00:00</time></trkpt><trkpt lat="42.942299" lon="19.576572"><ele>829.0</ele><time>2012-04-30T11:08:32.0000000+00:00</time></trkpt><trkpt lat="42.941952" lon="19.576303"><ele>828.5</ele><time>2012-04-30T11:08:37.0000000+00:00</time></trkpt><trkpt lat="42.941643" lon="19.576052"><ele>828.7</ele><time>2012-04-30T11:08:42.0000000+00:00</time></trkpt><trkpt lat="42.941303" lon="19.575876"><ele>830.7</ele><time>2012-04-30T11:08:47.0000000+00:00</time></trkpt><trkpt lat="42.940952" lon="19.575752"><ele>829.4</ele><time>2012-04-30T11:08:52.0000000+00:00</time></trkpt><trkpt lat="42.94059" lon="19.57571"><ele>829.2</ele><time>2012-04-30T11:08:57.0000000+00:00</time></trkpt><trkpt lat="42.940197" lon="19.575741"><ele>827.8</ele><time>2012-04-30T11:09:02.0000000+00:00</time></trkpt><trkpt lat="42.93977" lon="19.575861"><ele>825.4</ele><time>2012-04-30T11:09:07.0000000+00:00</time></trkpt><trkpt lat="42.939327" lon="19.575932"><ele>824.0</ele><time>2012-04-30T11:09:12.0000000+00:00</time></trkpt><trkpt lat="42.938934" lon="19.57583"><ele>823.3</ele><time>2012-04-30T11:09:17.0000000+00:00</time></trkpt><trkpt lat="42.938614" lon="19.575577"><ele>824.7</ele><time>2012-04-30T11:09:22.0000000+00:00</time></trkpt><trkpt lat="42.938362" lon="19.575268"><ele>828.8</ele><time>2012-04-30T11:09:27.0000000+00:00</time></trkpt><trkpt lat="42.938129" lon="19.574951"><ele>832.4</ele><time>2012-04-30T11:09:32.0000000+00:00</time></trkpt><trkpt lat="42.93792" lon="19.574642"><ele>835.0</ele><time>2012-04-30T11:09:37.0000000+00:00</time></trkpt><trkpt lat="42.937717" lon="19.574343"><ele>837.7</ele><time>2012-04-30T11:09:42.0000000+00:00</time></trkpt><trkpt lat="42.937531" lon="19.574057"><ele>839.1</ele><time>2012-04-30T11:09:47.0000000+00:00</time></trkpt><trkpt lat="42.937325" lon="19.57375"><ele>839.8</ele><time>2012-04-30T11:09:52.0000000+00:00</time></trkpt><trkpt lat="42.937115" lon="19.573439"><ele>839.8</ele><time>2012-04-30T11:09:57.0000000+00:00</time></trkpt><trkpt lat="42.936859" lon="19.573072"><ele>839.0</ele><time>2012-04-30T11:10:02.0000000+00:00</time></trkpt><trkpt lat="42.936649" lon="19.572628"><ele>838.6</ele><time>2012-04-30T11:10:07.0000000+00:00</time></trkpt><trkpt lat="42.936382" lon="19.572237"><ele>839.0</ele><time>2012-04-30T11:10:12.0000000+00:00</time></trkpt><trkpt lat="42.936016" lon="19.571972"><ele>838.3</ele><time>2012-04-30T11:10:17.0000000+00:00</time></trkpt><trkpt lat="42.935608" lon="19.571842"><ele>838.9</ele><time>2012-04-30T11:10:22.0000000+00:00</time></trkpt><trkpt lat="42.935177" lon="19.571894"><ele>837.7</ele><time>2012-04-30T11:10:27.0000000+00:00</time></trkpt><trkpt lat="42.934826" lon="19.571985"><ele>835.6</ele><time>2012-04-30T11:10:32.0000000+00:00</time></trkpt><trkpt lat="42.934483" lon="19.572107"><ele>830.7</ele><time>2012-04-30T11:10:37.0000000+00:00</time></trkpt><trkpt lat="42.934139" lon="19.572227"><ele>828.7</ele><time>2012-04-30T11:10:42.0000000+00:00</time></trkpt><trkpt lat="42.933804" lon="19.572306"><ele>828.3</ele><time>2012-04-30T11:10:47.0000000+00:00</time></trkpt><trkpt lat="42.933464" lon="19.572355"><ele>828.7</ele><time>2012-04-30T11:10:52.0000000+00:00</time></trkpt><trkpt lat="42.933144" lon="19.57238"><ele>830.0</ele><time>2012-04-30T11:10:57.0000000+00:00</time></trkpt><trkpt lat="42.932842" lon="19.572378"><ele>830.8</ele><time>2012-04-30T11:11:02.0000000+00:00</time></trkpt><trkpt lat="42.932552" lon="19.572344"><ele>831.4</ele><time>2012-04-30T11:11:07.0000000+00:00</time></trkpt><trkpt lat="42.932262" lon="19.5723"><ele>833.8</ele><time>2012-04-30T11:11:12.0000000+00:00</time></trkpt><trkpt lat="42.931976" lon="19.572252"><ele>835.0</ele><time>2012-04-30T11:11:17.0000000+00:00</time></trkpt><trkpt lat="42.931702" lon="19.572269"><ele>836.4</ele><time>2012-04-30T11:11:22.0000000+00:00</time></trkpt><trkpt lat="42.931461" lon="19.572384"><ele>837.3</ele><time>2012-04-30T11:11:27.0000000+00:00</time></trkpt><trkpt lat="42.931309" lon="19.572561"><ele>838.2</ele><time>2012-04-30T11:11:32.0000000+00:00</time></trkpt><trkpt lat="42.931141" lon="19.572803"><ele>841.1</ele><time>2012-04-30T11:11:37.0000000+00:00</time></trkpt><trkpt lat="42.931049" lon="19.573175"><ele>842.2</ele><time>2012-04-30T11:11:42.0000000+00:00</time></trkpt><trkpt lat="42.930958" lon="19.5735"><ele>843.4</ele><time>2012-04-30T11:11:47.0000000+00:00</time></trkpt><trkpt lat="42.930889" lon="19.573784"><ele>843.0</ele><time>2012-04-30T11:11:52.0000000+00:00</time></trkpt><trkpt lat="42.930817" lon="19.57402"><ele>842.7</ele><time>2012-04-30T11:11:57.0000000+00:00</time></trkpt><trkpt lat="42.930664" lon="19.574261"><ele>843.4</ele><time>2012-04-30T11:12:02.0000000+00:00</time></trkpt><trkpt lat="42.9305" lon="19.574518"><ele>844.4</ele><time>2012-04-30T11:12:07.0000000+00:00</time></trkpt><trkpt lat="42.930355" lon="19.574764"><ele>845.2</ele><time>2012-04-30T11:12:12.0000000+00:00</time></trkpt><trkpt lat="42.930214" lon="19.575037"><ele>846.7</ele><time>2012-04-30T11:12:17.0000000+00:00</time></trkpt><trkpt lat="42.93008" lon="19.575327"><ele>847.6</ele><time>2012-04-30T11:12:22.0000000+00:00</time></trkpt><trkpt lat="42.92989" lon="19.57564"><ele>847.7</ele><time>2012-04-30T11:12:27.0000000+00:00</time></trkpt><trkpt lat="42.929661" lon="19.575947"><ele>846.1</ele><time>2012-04-30T11:12:32.0000000+00:00</time></trkpt><trkpt lat="42.929367" lon="19.576181"><ele>843.4</ele><time>2012-04-30T11:12:37.0000000+00:00</time></trkpt><trkpt lat="42.929005" lon="19.576208"><ele>842.5</ele><time>2012-04-30T11:12:42.0000000+00:00</time></trkpt><trkpt lat="42.92865" lon="19.57612"><ele>841.0</ele><time>2012-04-30T11:12:47.0000000+00:00</time></trkpt><trkpt lat="42.928329" lon="19.576017"><ele>840.7</ele><time>2012-04-30T11:12:52.0000000+00:00</time></trkpt><trkpt lat="42.928013" lon="19.57592"><ele>840.1</ele><time>2012-04-30T11:12:57.0000000+00:00</time></trkpt><trkpt lat="42.927704" lon="19.575806"><ele>839.3</ele><time>2012-04-30T11:13:02.0000000+00:00</time></trkpt><trkpt lat="42.927383" lon="19.575699"><ele>838.3</ele><time>2012-04-30T11:13:07.0000000+00:00</time></trkpt><trkpt lat="42.927052" lon="19.575592"><ele>839.7</ele><time>2012-04-30T11:13:12.0000000+00:00</time></trkpt><trkpt lat="42.926704" lon="19.575455"><ele>840.4</ele><time>2012-04-30T11:13:17.0000000+00:00</time></trkpt><trkpt lat="42.926418" lon="19.575247"><ele>841.2</ele><time>2012-04-30T11:13:22.0000000+00:00</time></trkpt><trkpt lat="42.926117" lon="19.574957"><ele>843.2</ele><time>2012-04-30T11:13:27.0000000+00:00</time></trkpt><trkpt lat="42.92577" lon="19.574602"><ele>845.0</ele><time>2012-04-30T11:13:32.0000000+00:00</time></trkpt><trkpt lat="42.925781" lon="19.573957"><ele>843.9</ele><time>2012-04-30T11:13:40.0000000+00:00</time></trkpt><trkpt lat="42.925526" lon="19.573704"><ele>851.1</ele><time>2012-04-30T11:13:45.0000000+00:00</time></trkpt><trkpt lat="42.925232" lon="19.573473"><ele>850.3</ele><time>2012-04-30T11:13:50.0000000+00:00</time></trkpt><trkpt lat="42.924938" lon="19.573408"><ele>850.2</ele><time>2012-04-30T11:13:55.0000000+00:00</time></trkpt><trkpt lat="42.924622" lon="19.573429"><ele>849.5</ele><time>2012-04-30T11:14:00.0000000+00:00</time></trkpt><trkpt lat="42.924316" lon="19.573603"><ele>850.0</ele><time>2012-04-30T11:14:05.0000000+00:00</time></trkpt><trkpt lat="42.924088" lon="19.573847"><ele>851.6</ele><time>2012-04-30T11:14:10.0000000+00:00</time></trkpt><trkpt lat="42.92392" lon="19.574099"><ele>853.6</ele><time>2012-04-30T11:14:15.0000000+00:00</time></trkpt><trkpt lat="42.923748" lon="19.574358"><ele>855.0</ele><time>2012-04-30T11:14:20.0000000+00:00</time></trkpt><trkpt lat="42.923615" lon="19.574629"><ele>856.5</ele><time>2012-04-30T11:14:25.0000000+00:00</time></trkpt><trkpt lat="42.923458" lon="19.574955"><ele>857.7</ele><time>2012-04-30T11:14:30.0000000+00:00</time></trkpt><trkpt lat="42.923264" lon="19.575293"><ele>854.0</ele><time>2012-04-30T11:14:35.0000000+00:00</time></trkpt><trkpt lat="42.923115" lon="19.575636"><ele>854.0</ele><time>2012-04-30T11:14:40.0000000+00:00</time></trkpt><trkpt lat="42.922977" lon="19.575924"><ele>852.5</ele><time>2012-04-30T11:14:45.0000000+00:00</time></trkpt><trkpt lat="42.922836" lon="19.576185"><ele>851.3</ele><time>2012-04-30T11:14:50.0000000+00:00</time></trkpt><trkpt lat="42.922691" lon="19.576397"><ele>849.6</ele><time>2012-04-30T11:14:55.0000000+00:00</time></trkpt><trkpt lat="42.922531" lon="19.576553"><ele>847.8</ele><time>2012-04-30T11:15:00.0000000+00:00</time></trkpt><trkpt lat="42.922363" lon="19.576715"><ele>846.2</ele><time>2012-04-30T11:15:05.0000000+00:00</time></trkpt><trkpt lat="42.92218" lon="19.576836"><ele>845.0</ele><time>2012-04-30T11:15:10.0000000+00:00</time></trkpt><trkpt lat="42.921997" lon="19.57691"><ele>845.0</ele><time>2012-04-30T11:15:15.0000000+00:00</time></trkpt><trkpt lat="42.921795" lon="19.576933"><ele>847.4</ele><time>2012-04-30T11:15:20.0000000+00:00</time></trkpt><trkpt lat="42.921581" lon="19.576939"><ele>849.2</ele><time>2012-04-30T11:15:25.0000000+00:00</time></trkpt><trkpt lat="42.921364" lon="19.576912"><ele>849.7</ele><time>2012-04-30T11:15:30.0000000+00:00</time></trkpt><trkpt lat="42.921162" lon="19.576874"><ele>849.9</ele><time>2012-04-30T11:15:35.0000000+00:00</time></trkpt><trkpt lat="42.92094" lon="19.57683"><ele>850.5</ele><time>2012-04-30T11:15:40.0000000+00:00</time></trkpt><trkpt lat="42.920708" lon="19.576759"><ele>851.3</ele><time>2012-04-30T11:15:45.0000000+00:00</time></trkpt><trkpt lat="42.920467" lon="19.576664"><ele>852.5</ele><time>2012-04-30T11:15:50.0000000+00:00</time></trkpt><trkpt lat="42.920219" lon="19.576567"><ele>852.9</ele><time>2012-04-30T11:15:55.0000000+00:00</time></trkpt><trkpt lat="42.919949" lon="19.576471"><ele>853.7</ele><time>2012-04-30T11:16:00.0000000+00:00</time></trkpt><trkpt lat="42.919674" lon="19.576401"><ele>854.6</ele><time>2012-04-30T11:16:05.0000000+00:00</time></trkpt><trkpt lat="42.919376" lon="19.576284"><ele>855.3</ele><time>2012-04-30T11:16:10.0000000+00:00</time></trkpt><trkpt lat="42.91909" lon="19.576172"><ele>855.9</ele><time>2012-04-30T11:16:15.0000000+00:00</time></trkpt><trkpt lat="42.918789" lon="19.57604"><ele>856.0</ele><time>2012-04-30T11:16:20.0000000+00:00</time></trkpt><trkpt lat="42.918468" lon="19.575924"><ele>856.1</ele><time>2012-04-30T11:16:25.0000000+00:00</time></trkpt><trkpt lat="42.918167" lon="19.575806"><ele>856.1</ele><time>2012-04-30T11:16:30.0000000+00:00</time></trkpt><trkpt lat="42.917858" lon="19.575644"><ele>856.5</ele><time>2012-04-30T11:16:35.0000000+00:00</time></trkpt><trkpt lat="42.917545" lon="19.575472"><ele>857.1</ele><time>2012-04-30T11:16:40.0000000+00:00</time></trkpt><trkpt lat="42.91724" lon="19.575274"><ele>858.0</ele><time>2012-04-30T11:16:45.0000000+00:00</time></trkpt><trkpt lat="42.916977" lon="19.575098"><ele>858.4</ele><time>2012-04-30T11:16:50.0000000+00:00</time></trkpt><trkpt lat="42.916767" lon="19.574997"><ele>857.7</ele><time>2012-04-30T11:16:55.0000000+00:00</time></trkpt><trkpt lat="42.916603" lon="19.574837"><ele>858.9</ele><time>2012-04-30T11:17:00.0000000+00:00</time></trkpt><trkpt lat="42.91647" lon="19.574762"><ele>860.4</ele><time>2012-04-30T11:17:05.0000000+00:00</time></trkpt><trkpt lat="42.916306" lon="19.574898"><ele>859.9</ele><time>2012-04-30T11:17:10.0000000+00:00</time></trkpt><trkpt lat="42.916241" lon="19.574951"><ele>858.8</ele><time>2012-04-30T11:17:15.0000000+00:00</time></trkpt><trkpt lat="42.916248" lon="19.574947"><ele>858.7</ele><time>2012-04-30T11:17:20.0000000+00:00</time></trkpt><trkpt lat="42.916241" lon="19.574945"><ele>858.6</ele><time>2012-04-30T11:17:25.0000000+00:00</time></trkpt><trkpt lat="42.916237" lon="19.574942"><ele>858.5</ele><time>2012-04-30T11:17:30.0000000+00:00</time></trkpt><trkpt lat="42.916233" lon="19.574957"><ele>858.2</ele><time>2012-04-30T11:17:35.0000000+00:00</time></trkpt><trkpt lat="42.916218" lon="19.574984"><ele>858.1</ele><time>2012-04-30T11:17:40.0000000+00:00</time></trkpt><trkpt lat="42.916218" lon="19.574989"><ele>858.0</ele><time>2012-04-30T11:17:45.0000000+00:00</time></trkpt><trkpt lat="42.916218" lon="19.574987"><ele>858.1</ele><time>2012-04-30T11:17:50.0000000+00:00</time></trkpt><trkpt lat="42.916214" lon="19.574997"><ele>858.1</ele><time>2012-04-30T11:17:55.0000000+00:00</time></trkpt><trkpt lat="42.916214" lon="19.574999"><ele>858.1</ele><time>2012-04-30T11:18:00.0000000+00:00</time></trkpt><trkpt lat="42.916214" lon="19.57498"><ele>856.8</ele><time>2012-04-30T11:18:05.0000000+00:00</time></trkpt><trkpt lat="42.916214" lon="19.574963"><ele>855.3</ele><time>2012-04-30T11:18:10.0000000+00:00</time></trkpt><trkpt lat="42.916206" lon="19.574986"><ele>854.3</ele><time>2012-04-30T11:18:15.0000000+00:00</time></trkpt><trkpt lat="42.916206" lon="19.574978"><ele>853.5</ele><time>2012-04-30T11:18:20.0000000+00:00</time></trkpt><trkpt lat="42.916191" lon="19.574961"><ele>852.5</ele><time>2012-04-30T11:18:25.0000000+00:00</time></trkpt><trkpt lat="42.916206" lon="19.574984"><ele>852.1</ele><time>2012-04-30T11:18:30.0000000+00:00</time></trkpt><trkpt lat="42.916203" lon="19.574984"><ele>850.9</ele><time>2012-04-30T11:18:35.0000000+00:00</time></trkpt><trkpt lat="42.916157" lon="19.575045"><ele>849.9</ele><time>2012-04-30T11:18:40.0000000+00:00</time></trkpt><trkpt lat="42.916054" lon="19.57515"><ele>848.8</ele><time>2012-04-30T11:18:45.0000000+00:00</time></trkpt><trkpt lat="42.915924" lon="19.575243"><ele>847.2</ele><time>2012-04-30T11:18:50.0000000+00:00</time></trkpt><trkpt lat="42.915882" lon="19.575441"><ele>846.3</ele><time>2012-04-30T11:18:55.0000000+00:00</time></trkpt><trkpt lat="42.915882" lon="19.575539"><ele>847.4</ele><time>2012-04-30T11:19:00.0000000+00:00</time></trkpt><trkpt lat="42.915829" lon="19.575563"><ele>848.6</ele><time>2012-04-30T11:19:05.0000000+00:00</time></trkpt><trkpt lat="42.915695" lon="19.575558"><ele>850.0</ele><time>2012-04-30T11:19:10.0000000+00:00</time></trkpt><trkpt lat="42.915535" lon="19.575607"><ele>851.3</ele><time>2012-04-30T11:19:15.0000000+00:00</time></trkpt><trkpt lat="42.915348" lon="19.575687"><ele>851.1</ele><time>2012-04-30T11:19:20.0000000+00:00</time></trkpt><trkpt lat="42.915279" lon="19.575708"><ele>852.2</ele><time>2012-04-30T11:19:25.0000000+00:00</time></trkpt><trkpt lat="42.915192" lon="19.575695"><ele>853.7</ele><time>2012-04-30T11:19:30.0000000+00:00</time></trkpt><trkpt lat="42.915028" lon="19.575758"><ele>855.9</ele><time>2012-04-30T11:19:35.0000000+00:00</time></trkpt><trkpt lat="42.914867" lon="19.575834"><ele>860.0</ele><time>2012-04-30T11:19:40.0000000+00:00</time></trkpt><trkpt lat="42.914742" lon="19.575796"><ele>863.1</ele><time>2012-04-30T11:19:45.0000000+00:00</time></trkpt><trkpt lat="42.91457" lon="19.57559"><ele>866.8</ele><time>2012-04-30T11:19:50.0000000+00:00</time></trkpt><trkpt lat="42.914318" lon="19.575602"><ele>865.3</ele><time>2012-04-30T11:19:55.0000000+00:00</time></trkpt><trkpt lat="42.914238" lon="19.57572"><ele>865.4</ele><time>2012-04-30T11:20:00.0000000+00:00</time></trkpt><trkpt lat="42.914234" lon="19.575808"><ele>866.9</ele><time>2012-04-30T11:20:05.0000000+00:00</time></trkpt><trkpt lat="42.914276" lon="19.575884"><ele>867.7</ele><time>2012-04-30T11:20:10.0000000+00:00</time></trkpt><trkpt lat="42.914337" lon="19.575928"><ele>868.3</ele><time>2012-04-30T11:20:15.0000000+00:00</time></trkpt><trkpt lat="42.914425" lon="19.57593"><ele>868.1</ele><time>2012-04-30T11:20:20.0000000+00:00</time></trkpt><trkpt lat="42.914516" lon="19.575977"><ele>868.7</ele><time>2012-04-30T11:20:25.0000000+00:00</time></trkpt><trkpt lat="42.914597" lon="19.576015"><ele>869.9</ele><time>2012-04-30T11:20:30.0000000+00:00</time></trkpt><trkpt lat="42.914734" lon="19.576107"><ele>870.1</ele><time>2012-04-30T11:20:35.0000000+00:00</time></trkpt><trkpt lat="42.914814" lon="19.576147"><ele>870.9</ele><time>2012-04-30T11:20:40.0000000+00:00</time></trkpt><trkpt lat="42.914913" lon="19.576128"><ele>870.0</ele><time>2012-04-30T11:20:45.0000000+00:00</time></trkpt><trkpt lat="42.915012" lon="19.576113"><ele>870.9</ele><time>2012-04-30T11:20:50.0000000+00:00</time></trkpt><trkpt lat="42.915081" lon="19.576155"><ele>871.0</ele><time>2012-04-30T11:20:55.0000000+00:00</time></trkpt><trkpt lat="42.915154" lon="19.576178"><ele>871.8</ele><time>2012-04-30T11:21:00.0000000+00:00</time></trkpt><trkpt lat="42.915241" lon="19.576162"><ele>872.4</ele><time>2012-04-30T11:21:05.0000000+00:00</time></trkpt><trkpt lat="42.915329" lon="19.576166"><ele>874.5</ele><time>2012-04-30T11:21:10.0000000+00:00</time></trkpt><trkpt lat="42.915417" lon="19.576202"><ele>877.7</ele><time>2012-04-30T11:21:15.0000000+00:00</time></trkpt><trkpt lat="42.915508" lon="19.576275"><ele>879.7</ele><time>2012-04-30T11:21:20.0000000+00:00</time></trkpt><trkpt lat="42.915627" lon="19.576374"><ele>881.9</ele><time>2012-04-30T11:21:25.0000000+00:00</time></trkpt><trkpt lat="42.91571" lon="19.57641"><ele>884.0</ele><time>2012-04-30T11:21:30.0000000+00:00</time></trkpt><trkpt lat="42.915833" lon="19.576412"><ele>886.8</ele><time>2012-04-30T11:21:35.0000000+00:00</time></trkpt><trkpt lat="42.915909" lon="19.576429"><ele>889.8</ele><time>2012-04-30T11:21:40.0000000+00:00</time></trkpt><trkpt lat="42.916012" lon="19.576387"><ele>893.4</ele><time>2012-04-30T11:21:45.0000000+00:00</time></trkpt><trkpt lat="42.916103" lon="19.576424"><ele>894.9</ele><time>2012-04-30T11:21:50.0000000+00:00</time></trkpt><trkpt lat="42.916203" lon="19.576435"><ele>893.0</ele><time>2012-04-30T11:21:55.0000000+00:00</time></trkpt><trkpt lat="42.916271" lon="19.576542"><ele>890.7</ele><time>2012-04-30T11:22:00.0000000+00:00</time></trkpt><trkpt lat="42.916344" lon="19.576714"><ele>887.9</ele><time>2012-04-30T11:22:05.0000000+00:00</time></trkpt><trkpt lat="42.916367" lon="19.576834"><ele>886.0</ele><time>2012-04-30T11:22:10.0000000+00:00</time></trkpt><trkpt lat="42.916397" lon="19.576969"><ele>884.4</ele><time>2012-04-30T11:22:15.0000000+00:00</time></trkpt><trkpt lat="42.916416" lon="19.577105"><ele>882.8</ele><time>2012-04-30T11:22:20.0000000+00:00</time></trkpt><trkpt lat="42.916451" lon="19.577169"><ele>881.1</ele><time>2012-04-30T11:22:25.0000000+00:00</time></trkpt><trkpt lat="42.916431" lon="19.577168"><ele>881.0</ele><time>2012-04-30T11:22:30.0000000+00:00</time></trkpt><trkpt lat="42.916431" lon="19.577168"><ele>880.9</ele><time>2012-04-30T11:22:35.0000000+00:00</time></trkpt><trkpt lat="42.916435" lon="19.577168"><ele>880.9</ele><time>2012-04-30T11:22:40.0000000+00:00</time></trkpt><trkpt lat="42.916435" lon="19.577168"><ele>881.0</ele><time>2012-04-30T11:22:45.0000000+00:00</time></trkpt><trkpt lat="42.916435" lon="19.577168"><ele>881.0</ele><time>2012-04-30T11:22:50.0000000+00:00</time></trkpt><trkpt lat="42.916435" lon="19.577168"><ele>881.0</ele><time>2012-04-30T11:22:55.0000000+00:00</time></trkpt><trkpt lat="42.916435" lon="19.577168"><ele>880.9</ele><time>2012-04-30T11:23:00.0000000+00:00</time></trkpt><trkpt lat="42.916435" lon="19.577168"><ele>880.9</ele><time>2012-04-30T11:23:05.0000000+00:00</time></trkpt><trkpt lat="42.916435" lon="19.577168"><ele>880.9</ele><time>2012-04-30T11:23:10.0000000+00:00</time></trkpt><trkpt lat="42.916435" lon="19.577168"><ele>880.9</ele><time>2012-04-30T11:23:15.0000000+00:00</time></trkpt><trkpt lat="42.916435" lon="19.577168"><ele>880.9</ele><time>2012-04-30T11:23:20.0000000+00:00</time></trkpt><trkpt lat="42.916435" lon="19.577168"><ele>880.9</ele><time>2012-04-30T11:23:25.0000000+00:00</time></trkpt><trkpt lat="42.916435" lon="19.577168"><ele>880.9</ele><time>2012-04-30T11:23:30.0000000+00:00</time></trkpt><trkpt lat="42.916435" lon="19.577168"><ele>880.9</ele><time>2012-04-30T11:23:35.0000000+00:00</time></trkpt><trkpt lat="42.916435" lon="19.577168"><ele>880.9</ele><time>2012-04-30T11:23:40.0000000+00:00</time></trkpt><trkpt lat="42.916435" lon="19.577168"><ele>880.9</ele><time>2012-04-30T11:23:45.0000000+00:00</time></trkpt><trkpt lat="42.916435" lon="19.577171"><ele>880.9</ele><time>2012-04-30T11:23:50.0000000+00:00</time></trkpt><trkpt lat="42.916435" lon="19.577173"><ele>880.9</ele><time>2012-04-30T11:23:55.0000000+00:00</time></trkpt><trkpt lat="42.916435" lon="19.577173"><ele>880.9</ele><time>2012-04-30T11:24:00.0000000+00:00</time></trkpt><trkpt lat="42.916435" lon="19.577173"><ele>880.8</ele><time>2012-04-30T11:24:05.0000000+00:00</time></trkpt><trkpt lat="42.916435" lon="19.577173"><ele>880.8</ele><time>2012-04-30T11:24:10.0000000+00:00</time></trkpt><trkpt lat="42.916435" lon="19.577177"><ele>880.8</ele><time>2012-04-30T11:24:15.0000000+00:00</time></trkpt><trkpt lat="42.916492" lon="19.577173"><ele>880.2</ele><time>2012-04-30T11:24:20.0000000+00:00</time></trkpt><trkpt lat="42.916542" lon="19.577181"><ele>880.1</ele><time>2012-04-30T11:24:25.0000000+00:00</time></trkpt><trkpt lat="42.916553" lon="19.577234"><ele>880.1</ele><time>2012-04-30T11:24:30.0000000+00:00</time></trkpt><trkpt lat="42.916561" lon="19.577271"><ele>878.7</ele><time>2012-04-30T11:24:35.0000000+00:00</time></trkpt><trkpt lat="42.916576" lon="19.577303"><ele>878.0</ele><time>2012-04-30T11:24:40.0000000+00:00</time></trkpt><trkpt lat="42.916595" lon="19.577353"><ele>877.4</ele><time>2012-04-30T11:24:45.0000000+00:00</time></trkpt><trkpt lat="42.916622" lon="19.577381"><ele>876.4</ele><time>2012-04-30T11:24:50.0000000+00:00</time></trkpt><trkpt lat="42.916676" lon="19.577372"><ele>875.9</ele><time>2012-04-30T11:24:55.0000000+00:00</time></trkpt><trkpt lat="42.916718" lon="19.577372"><ele>874.8</ele><time>2012-04-30T11:25:00.0000000+00:00</time></trkpt><trkpt lat="42.916729" lon="19.577375"><ele>874.4</ele><time>2012-04-30T11:25:05.0000000+00:00</time></trkpt><trkpt lat="42.916729" lon="19.577412"><ele>875.4</ele><time>2012-04-30T11:25:10.0000000+00:00</time></trkpt><trkpt lat="42.916737" lon="19.577431"><ele>875.9</ele><time>2012-04-30T11:25:15.0000000+00:00</time></trkpt><trkpt lat="42.916763" lon="19.577459"><ele>876.3</ele><time>2012-04-30T11:25:20.0000000+00:00</time></trkpt><trkpt lat="42.916771" lon="19.577478"><ele>876.7</ele><time>2012-04-30T11:25:25.0000000+00:00</time></trkpt><trkpt lat="42.916775" lon="19.577503"><ele>877.5</ele><time>2012-04-30T11:25:30.0000000+00:00</time></trkpt><trkpt lat="42.916794" lon="19.577551"><ele>879.4</ele><time>2012-04-30T11:25:35.0000000+00:00</time></trkpt><trkpt lat="42.916794" lon="19.577551"><ele>879.7</ele><time>2012-04-30T11:25:40.0000000+00:00</time></trkpt><trkpt lat="42.91679" lon="19.577549"><ele>879.8</ele><time>2012-04-30T11:25:45.0000000+00:00</time></trkpt><trkpt lat="42.916813" lon="19.577576"><ele>880.4</ele><time>2012-04-30T11:25:50.0000000+00:00</time></trkpt><trkpt lat="42.916828" lon="19.5776"><ele>881.1</ele><time>2012-04-30T11:25:55.0000000+00:00</time></trkpt><trkpt lat="42.91679" lon="19.577599"><ele>881.5</ele><time>2012-04-30T11:26:00.0000000+00:00</time></trkpt><trkpt lat="42.916771" lon="19.57762"><ele>882.8</ele><time>2012-04-30T11:26:05.0000000+00:00</time></trkpt><trkpt lat="42.916763" lon="19.577658"><ele>883.6</ele><time>2012-04-30T11:26:10.0000000+00:00</time></trkpt><trkpt lat="42.916771" lon="19.577721"><ele>883.1</ele><time>2012-04-30T11:26:15.0000000+00:00</time></trkpt><trkpt lat="42.916779" lon="19.577785"><ele>883.5</ele><time>2012-04-30T11:26:20.0000000+00:00</time></trkpt><trkpt lat="42.916771" lon="19.577862"><ele>883.8</ele><time>2012-04-30T11:26:25.0000000+00:00</time></trkpt><trkpt lat="42.916775" lon="19.577969"><ele>884.1</ele><time>2012-04-30T11:26:30.0000000+00:00</time></trkpt><trkpt lat="42.916763" lon="19.578072"><ele>883.8</ele><time>2012-04-30T11:26:35.0000000+00:00</time></trkpt><trkpt lat="42.916706" lon="19.578072"><ele>883.8</ele><time>2012-04-30T11:26:40.0000000+00:00</time></trkpt><trkpt lat="42.916656" lon="19.577995"><ele>885.0</ele><time>2012-04-30T11:26:45.0000000+00:00</time></trkpt><trkpt lat="42.916599" lon="19.577944"><ele>885.3</ele><time>2012-04-30T11:26:50.0000000+00:00</time></trkpt><trkpt lat="42.916538" lon="19.577927"><ele>885.4</ele><time>2012-04-30T11:26:55.0000000+00:00</time></trkpt><trkpt lat="42.916431" lon="19.577909"><ele>885.2</ele><time>2012-04-30T11:27:00.0000000+00:00</time></trkpt><trkpt lat="42.916302" lon="19.577938"><ele>886.4</ele><time>2012-04-30T11:27:05.0000000+00:00</time></trkpt><trkpt lat="42.916199" lon="19.578009"><ele>887.6</ele><time>2012-04-30T11:27:10.0000000+00:00</time></trkpt><trkpt lat="42.916088" lon="19.578039"><ele>887.7</ele><time>2012-04-30T11:27:15.0000000+00:00</time></trkpt><trkpt lat="42.915977" lon="19.578051"><ele>888.6</ele><time>2012-04-30T11:27:20.0000000+00:00</time></trkpt><trkpt lat="42.915874" lon="19.578054"><ele>889.5</ele><time>2012-04-30T11:27:25.0000000+00:00</time></trkpt><trkpt lat="42.91576" lon="19.578016"><ele>891.7</ele><time>2012-04-30T11:27:30.0000000+00:00</time></trkpt><trkpt lat="42.915657" lon="19.577948"><ele>892.3</ele><time>2012-04-30T11:27:35.0000000+00:00</time></trkpt><trkpt lat="42.915585" lon="19.577881"><ele>892.7</ele><time>2012-04-30T11:27:40.0000000+00:00</time></trkpt><trkpt lat="42.915501" lon="19.577827"><ele>893.6</ele><time>2012-04-30T11:27:45.0000000+00:00</time></trkpt><trkpt lat="42.915424" lon="19.577787"><ele>894.4</ele><time>2012-04-30T11:27:50.0000000+00:00</time></trkpt><trkpt lat="42.915325" lon="19.577738"><ele>895.2</ele><time>2012-04-30T11:27:55.0000000+00:00</time></trkpt><trkpt lat="42.915234" lon="19.577703"><ele>897.4</ele><time>2012-04-30T11:28:00.0000000+00:00</time></trkpt><trkpt lat="42.915176" lon="19.577787"><ele>899.2</ele><time>2012-04-30T11:28:05.0000000+00:00</time></trkpt><trkpt lat="42.915157" lon="19.577925"><ele>901.2</ele><time>2012-04-30T11:28:10.0000000+00:00</time></trkpt><trkpt lat="42.915237" lon="19.577932"><ele>902.2</ele><time>2012-04-30T11:28:15.0000000+00:00</time></trkpt><trkpt lat="42.915363" lon="19.577929"><ele>902.8</ele><time>2012-04-30T11:28:20.0000000+00:00</time></trkpt><trkpt lat="42.915462" lon="19.577984"><ele>902.1</ele><time>2012-04-30T11:28:25.0000000+00:00</time></trkpt><trkpt lat="42.915516" lon="19.578075"><ele>901.6</ele><time>2012-04-30T11:28:30.0000000+00:00</time></trkpt><trkpt lat="42.915588" lon="19.57818"><ele>900.6</ele><time>2012-04-30T11:28:35.0000000+00:00</time></trkpt><trkpt lat="42.915638" lon="19.578291"><ele>900.1</ele><time>2012-04-30T11:28:40.0000000+00:00</time></trkpt><trkpt lat="42.915699" lon="19.578367"><ele>900.5</ele><time>2012-04-30T11:28:45.0000000+00:00</time></trkpt><trkpt lat="42.915752" lon="19.578457"><ele>901.4</ele><time>2012-04-30T11:28:50.0000000+00:00</time></trkpt><trkpt lat="42.915825" lon="19.578541"><ele>901.3</ele><time>2012-04-30T11:28:55.0000000+00:00</time></trkpt><trkpt lat="42.915894" lon="19.5786"><ele>901.4</ele><time>2012-04-30T11:29:00.0000000+00:00</time></trkpt><trkpt lat="42.91597" lon="19.578646"><ele>903.7</ele><time>2012-04-30T11:29:05.0000000+00:00</time></trkpt><trkpt lat="42.916107" lon="19.578709"><ele>904.4</ele><time>2012-04-30T11:29:10.0000000+00:00</time></trkpt><trkpt lat="42.916153" lon="19.578814"><ele>904.2</ele><time>2012-04-30T11:29:15.0000000+00:00</time></trkpt><trkpt lat="42.916115" lon="19.578909"><ele>907.3</ele><time>2012-04-30T11:29:20.0000000+00:00</time></trkpt><trkpt lat="42.916088" lon="19.578947"><ele>909.1</ele><time>2012-04-30T11:29:25.0000000+00:00</time></trkpt><trkpt lat="42.916039" lon="19.578865"><ele>913.3</ele><time>2012-04-30T11:29:30.0000000+00:00</time></trkpt><trkpt lat="42.915977" lon="19.578779"><ele>915.9</ele><time>2012-04-30T11:29:35.0000000+00:00</time></trkpt><trkpt lat="42.91589" lon="19.578781"><ele>919.1</ele><time>2012-04-30T11:29:40.0000000+00:00</time></trkpt><trkpt lat="42.915825" lon="19.578726"><ele>921.3</ele><time>2012-04-30T11:29:45.0000000+00:00</time></trkpt><trkpt lat="42.915741" lon="19.578667"><ele>923.1</ele><time>2012-04-30T11:29:50.0000000+00:00</time></trkpt><trkpt lat="42.915684" lon="19.57864"><ele>924.9</ele><time>2012-04-30T11:29:55.0000000+00:00</time></trkpt><trkpt lat="42.915646" lon="19.578587"><ele>926.9</ele><time>2012-04-30T11:30:00.0000000+00:00</time></trkpt><trkpt lat="42.915581" lon="19.57856"><ele>928.6</ele><time>2012-04-30T11:30:05.0000000+00:00</time></trkpt><trkpt lat="42.915558" lon="19.578571"><ele>930.2</ele><time>2012-04-30T11:30:10.0000000+00:00</time></trkpt><trkpt lat="42.915535" lon="19.578547"><ele>931.5</ele><time>2012-04-30T11:30:15.0000000+00:00</time></trkpt><trkpt lat="42.915497" lon="19.578526"><ele>932.6</ele><time>2012-04-30T11:30:20.0000000+00:00</time></trkpt><trkpt lat="42.915421" lon="19.57848"><ele>934.0</ele><time>2012-04-30T11:30:25.0000000+00:00</time></trkpt><trkpt lat="42.915318" lon="19.578423"><ele>936.5</ele><time>2012-04-30T11:30:30.0000000+00:00</time></trkpt><trkpt lat="42.915241" lon="19.578323"><ele>940.0</ele><time>2012-04-30T11:30:35.0000000+00:00</time></trkpt><trkpt lat="42.915157" lon="19.578249"><ele>944.5</ele><time>2012-04-30T11:30:40.0000000+00:00</time></trkpt><trkpt lat="42.9151" lon="19.578135"><ele>948.8</ele><time>2012-04-30T11:30:45.0000000+00:00</time></trkpt><trkpt lat="42.915058" lon="19.578028"><ele>952.4</ele><time>2012-04-30T11:30:50.0000000+00:00</time></trkpt><trkpt lat="42.914982" lon="19.577929"><ele>954.9</ele><time>2012-04-30T11:30:55.0000000+00:00</time></trkpt><trkpt lat="42.914879" lon="19.577839"><ele>957.7</ele><time>2012-04-30T11:31:00.0000000+00:00</time></trkpt><trkpt lat="42.914799" lon="19.577793"><ele>958.0</ele><time>2012-04-30T11:31:05.0000000+00:00</time></trkpt><trkpt lat="42.914726" lon="19.577759"><ele>958.1</ele><time>2012-04-30T11:31:10.0000000+00:00</time></trkpt><trkpt lat="42.914661" lon="19.577724"><ele>958.3</ele><time>2012-04-30T11:31:15.0000000+00:00</time></trkpt><trkpt lat="42.914574" lon="19.577671"><ele>957.2</ele><time>2012-04-30T11:31:20.0000000+00:00</time></trkpt><trkpt lat="42.914486" lon="19.577629"><ele>957.1</ele><time>2012-04-30T11:31:25.0000000+00:00</time></trkpt><trkpt lat="42.914387" lon="19.5776"><ele>958.6</ele><time>2012-04-30T11:31:30.0000000+00:00</time></trkpt><trkpt lat="42.91428" lon="19.577608"><ele>960.5</ele><time>2012-04-30T11:31:35.0000000+00:00</time></trkpt><trkpt lat="42.914207" lon="19.57765"><ele>963.5</ele><time>2012-04-30T11:31:40.0000000+00:00</time></trkpt><trkpt lat="42.914127" lon="19.577782"><ele>964.5</ele><time>2012-04-30T11:31:45.0000000+00:00</time></trkpt><trkpt lat="42.914165" lon="19.577919"><ele>965.0</ele><time>2012-04-30T11:31:50.0000000+00:00</time></trkpt><trkpt lat="42.914116" lon="19.577984"><ele>965.4</ele><time>2012-04-30T11:31:55.0000000+00:00</time></trkpt><trkpt lat="42.914066" lon="19.578056"><ele>965.3</ele><time>2012-04-30T11:32:00.0000000+00:00</time></trkpt><trkpt lat="42.91404" lon="19.578176"><ele>965.5</ele><time>2012-04-30T11:32:05.0000000+00:00</time></trkpt><trkpt lat="42.914032" lon="19.578295"><ele>966.5</ele><time>2012-04-30T11:32:10.0000000+00:00</time></trkpt><trkpt lat="42.913998" lon="19.57844"><ele>968.3</ele><time>2012-04-30T11:32:15.0000000+00:00</time></trkpt><trkpt lat="42.913929" lon="19.578558"><ele>970.2</ele><time>2012-04-30T11:32:20.0000000+00:00</time></trkpt><trkpt lat="42.913872" lon="19.578623"><ele>972.0</ele><time>2012-04-30T11:32:25.0000000+00:00</time></trkpt><trkpt lat="42.913834" lon="19.578688"><ele>973.9</ele><time>2012-04-30T11:32:30.0000000+00:00</time></trkpt><trkpt lat="42.9137" lon="19.578737"><ele>975.3</ele><time>2012-04-30T11:32:35.0000000+00:00</time></trkpt><trkpt lat="42.913536" lon="19.578819"><ele>976.2</ele><time>2012-04-30T11:32:40.0000000+00:00</time></trkpt><trkpt lat="42.91341" lon="19.578905"><ele>977.3</ele><time>2012-04-30T11:32:45.0000000+00:00</time></trkpt><trkpt lat="42.913311" lon="19.579048"><ele>975.7</ele><time>2012-04-30T11:32:50.0000000+00:00</time></trkpt><trkpt lat="42.913239" lon="19.579144"><ele>975.5</ele><time>2012-04-30T11:32:55.0000000+00:00</time></trkpt><trkpt lat="42.913162" lon="19.579214"><ele>973.8</ele><time>2012-04-30T11:33:00.0000000+00:00</time></trkpt><trkpt lat="42.913067" lon="19.579292"><ele>972.9</ele><time>2012-04-30T11:33:05.0000000+00:00</time></trkpt><trkpt lat="42.912968" lon="19.579418"><ele>972.9</ele><time>2012-04-30T11:33:10.0000000+00:00</time></trkpt><trkpt lat="42.912888" lon="19.579512"><ele>974.6</ele><time>2012-04-30T11:33:15.0000000+00:00</time></trkpt><trkpt lat="42.912785" lon="19.579582"><ele>976.3</ele><time>2012-04-30T11:33:20.0000000+00:00</time></trkpt><trkpt lat="42.912724" lon="19.579672"><ele>976.5</ele><time>2012-04-30T11:33:25.0000000+00:00</time></trkpt><trkpt lat="42.912693" lon="19.579794"><ele>975.8</ele><time>2012-04-30T11:33:30.0000000+00:00</time></trkpt><trkpt lat="42.912643" lon="19.57991"><ele>974.4</ele><time>2012-04-30T11:33:35.0000000+00:00</time></trkpt><trkpt lat="42.912598" lon="19.580011"><ele>973.6</ele><time>2012-04-30T11:33:40.0000000+00:00</time></trkpt><trkpt lat="42.912556" lon="19.58012"><ele>973.0</ele><time>2012-04-30T11:33:45.0000000+00:00</time></trkpt><trkpt lat="42.912525" lon="19.580248"><ele>972.2</ele><time>2012-04-30T11:33:50.0000000+00:00</time></trkpt><trkpt lat="42.912491" lon="19.580402"><ele>971.3</ele><time>2012-04-30T11:33:55.0000000+00:00</time></trkpt><trkpt lat="42.912437" lon="19.580523"><ele>971.5</ele><time>2012-04-30T11:34:00.0000000+00:00</time></trkpt><trkpt lat="42.912388" lon="19.580666"><ele>970.4</ele><time>2012-04-30T11:34:05.0000000+00:00</time></trkpt><trkpt lat="42.912357" lon="19.580799"><ele>970.8</ele><time>2012-04-30T11:34:10.0000000+00:00</time></trkpt><trkpt lat="42.912319" lon="19.580935"><ele>970.7</ele><time>2012-04-30T11:34:15.0000000+00:00</time></trkpt><trkpt lat="42.912247" lon="19.581072"><ele>970.5</ele><time>2012-04-30T11:34:20.0000000+00:00</time></trkpt><trkpt lat="42.912205" lon="19.5812"><ele>969.5</ele><time>2012-04-30T11:34:25.0000000+00:00</time></trkpt><trkpt lat="42.912125" lon="19.581257"><ele>969.4</ele><time>2012-04-30T11:34:30.0000000+00:00</time></trkpt><trkpt lat="42.91209" lon="19.581373"><ele>969.0</ele><time>2012-04-30T11:34:35.0000000+00:00</time></trkpt><trkpt lat="42.912052" lon="19.581495"><ele>969.1</ele><time>2012-04-30T11:34:40.0000000+00:00</time></trkpt><trkpt lat="42.912045" lon="19.581633"><ele>968.6</ele><time>2012-04-30T11:34:45.0000000+00:00</time></trkpt><trkpt lat="42.912018" lon="19.581747"><ele>968.6</ele><time>2012-04-30T11:34:50.0000000+00:00</time></trkpt><trkpt lat="42.911957" lon="19.581858"><ele>968.6</ele><time>2012-04-30T11:34:55.0000000+00:00</time></trkpt><trkpt lat="42.911911" lon="19.582029"><ele>969.3</ele><time>2012-04-30T11:35:00.0000000+00:00</time></trkpt><trkpt lat="42.911858" lon="19.582081"><ele>971.5</ele><time>2012-04-30T11:35:05.0000000+00:00</time></trkpt><trkpt lat="42.911781" lon="19.582138"><ele>972.9</ele><time>2012-04-30T11:35:10.0000000+00:00</time></trkpt><trkpt lat="42.911774" lon="19.582195"><ele>972.5</ele><time>2012-04-30T11:35:15.0000000+00:00</time></trkpt><trkpt lat="42.911785" lon="19.582212"><ele>972.4</ele><time>2012-04-30T11:35:20.0000000+00:00</time></trkpt><trkpt lat="42.911781" lon="19.582214"><ele>972.4</ele><time>2012-04-30T11:35:25.0000000+00:00</time></trkpt><trkpt lat="42.911785" lon="19.582232"><ele>975.0</ele><time>2012-04-30T11:35:30.0000000+00:00</time></trkpt><trkpt lat="42.911785" lon="19.582232"><ele>975.0</ele><time>2012-04-30T11:35:35.0000000+00:00</time></trkpt><trkpt lat="42.911785" lon="19.582233"><ele>975.0</ele><time>2012-04-30T11:35:40.0000000+00:00</time></trkpt><trkpt lat="42.911781" lon="19.582232"><ele>974.9</ele><time>2012-04-30T11:35:45.0000000+00:00</time></trkpt><trkpt lat="42.911785" lon="19.582233"><ele>974.8</ele><time>2012-04-30T11:35:50.0000000+00:00</time></trkpt><trkpt lat="42.911785" lon="19.582233"><ele>974.8</ele><time>2012-04-30T11:35:55.0000000+00:00</time></trkpt><trkpt lat="42.911785" lon="19.582237"><ele>974.8</ele><time>2012-04-30T11:36:00.0000000+00:00</time></trkpt><trkpt lat="42.911785" lon="19.582241"><ele>974.8</ele><time>2012-04-30T11:36:05.0000000+00:00</time></trkpt><trkpt lat="42.911789" lon="19.582243"><ele>974.8</ele><time>2012-04-30T11:36:10.0000000+00:00</time></trkpt><trkpt lat="42.911789" lon="19.582245"><ele>974.9</ele><time>2012-04-30T11:36:15.0000000+00:00</time></trkpt><trkpt lat="42.911789" lon="19.582247"><ele>975.0</ele><time>2012-04-30T11:36:20.0000000+00:00</time></trkpt><trkpt lat="42.911789" lon="19.582249"><ele>974.9</ele><time>2012-04-30T11:36:25.0000000+00:00</time></trkpt><trkpt lat="42.911789" lon="19.582251"><ele>974.9</ele><time>2012-04-30T11:36:30.0000000+00:00</time></trkpt><trkpt lat="42.911793" lon="19.582258"><ele>974.9</ele><time>2012-04-30T11:36:35.0000000+00:00</time></trkpt><trkpt lat="42.911793" lon="19.582258"><ele>974.8</ele><time>2012-04-30T11:36:40.0000000+00:00</time></trkpt><trkpt lat="42.911793" lon="19.58226"><ele>974.8</ele><time>2012-04-30T11:36:45.0000000+00:00</time></trkpt><trkpt lat="42.911793" lon="19.58226"><ele>974.8</ele><time>2012-04-30T11:36:50.0000000+00:00</time></trkpt><trkpt lat="42.911793" lon="19.58226"><ele>974.8</ele><time>2012-04-30T11:36:55.0000000+00:00</time></trkpt><trkpt lat="42.911804" lon="19.58231"><ele>974.4</ele><time>2012-04-30T11:37:00.0000000+00:00</time></trkpt><trkpt lat="42.911816" lon="19.58243"><ele>973.9</ele><time>2012-04-30T11:37:05.0000000+00:00</time></trkpt><trkpt lat="42.911808" lon="19.582508"><ele>973.6</ele><time>2012-04-30T11:37:10.0000000+00:00</time></trkpt><trkpt lat="42.911812" lon="19.582693"><ele>973.8</ele><time>2012-04-30T11:37:15.0000000+00:00</time></trkpt><trkpt lat="42.911686" lon="19.582785"><ele>975.0</ele><time>2012-04-30T11:37:20.0000000+00:00</time></trkpt><trkpt lat="42.911541" lon="19.582876"><ele>976.3</ele><time>2012-04-30T11:37:25.0000000+00:00</time></trkpt><trkpt lat="42.911407" lon="19.583035"><ele>977.6</ele><time>2012-04-30T11:37:30.0000000+00:00</time></trkpt><trkpt lat="42.91132" lon="19.583229"><ele>978.6</ele><time>2012-04-30T11:37:35.0000000+00:00</time></trkpt><trkpt lat="42.911301" lon="19.583359"><ele>979.7</ele><time>2012-04-30T11:37:40.0000000+00:00</time></trkpt><trkpt lat="42.911266" lon="19.583433"><ele>980.8</ele><time>2012-04-30T11:37:45.0000000+00:00</time></trkpt><trkpt lat="42.911255" lon="19.583517"><ele>981.2</ele><time>2012-04-30T11:37:50.0000000+00:00</time></trkpt><trkpt lat="42.911232" lon="19.583698"><ele>982.4</ele><time>2012-04-30T11:37:55.0000000+00:00</time></trkpt><trkpt lat="42.91111" lon="19.583786"><ele>983.9</ele><time>2012-04-30T11:38:00.0000000+00:00</time></trkpt><trkpt lat="42.911018" lon="19.583866"><ele>984.1</ele><time>2012-04-30T11:38:05.0000000+00:00</time></trkpt><trkpt lat="42.910927" lon="19.58399"><ele>985.0</ele><time>2012-04-30T11:38:10.0000000+00:00</time></trkpt><trkpt lat="42.910751" lon="19.584078"><ele>985.8</ele><time>2012-04-30T11:38:15.0000000+00:00</time></trkpt><trkpt lat="42.91066" lon="19.5842"><ele>986.6</ele><time>2012-04-30T11:38:20.0000000+00:00</time></trkpt><trkpt lat="42.910568" lon="19.584335"><ele>987.7</ele><time>2012-04-30T11:38:25.0000000+00:00</time></trkpt><trkpt lat="42.910461" lon="19.584461"><ele>987.9</ele><time>2012-04-30T11:38:30.0000000+00:00</time></trkpt><trkpt lat="42.910366" lon="19.584576"><ele>988.0</ele><time>2012-04-30T11:38:35.0000000+00:00</time></trkpt><trkpt lat="42.91029" lon="19.584673"><ele>988.5</ele><time>2012-04-30T11:38:40.0000000+00:00</time></trkpt><trkpt lat="42.910217" lon="19.584661"><ele>988.1</ele><time>2012-04-30T11:38:45.0000000+00:00</time></trkpt><trkpt lat="42.910126" lon="19.584713"><ele>988.0</ele><time>2012-04-30T11:38:50.0000000+00:00</time></trkpt><trkpt lat="42.910038" lon="19.584772"><ele>989.4</ele><time>2012-04-30T11:38:55.0000000+00:00</time></trkpt><trkpt lat="42.909946" lon="19.584822"><ele>990.7</ele><time>2012-04-30T11:39:00.0000000+00:00</time></trkpt><trkpt lat="42.90984" lon="19.584833"><ele>992.7</ele><time>2012-04-30T11:39:05.0000000+00:00</time></trkpt><trkpt lat="42.90976" lon="19.5849"><ele>992.8</ele><time>2012-04-30T11:39:10.0000000+00:00</time></trkpt><trkpt lat="42.909653" lon="19.58494"><ele>993.3</ele><time>2012-04-30T11:39:15.0000000+00:00</time></trkpt><trkpt lat="42.909557" lon="19.584961"><ele>993.5</ele><time>2012-04-30T11:39:20.0000000+00:00</time></trkpt><trkpt lat="42.909473" lon="19.585024"><ele>994.0</ele><time>2012-04-30T11:39:25.0000000+00:00</time></trkpt><trkpt lat="42.909416" lon="19.585144"><ele>993.2</ele><time>2012-04-30T11:39:30.0000000+00:00</time></trkpt><trkpt lat="42.909374" lon="19.585255"><ele>993.0</ele><time>2012-04-30T11:39:35.0000000+00:00</time></trkpt><trkpt lat="42.909351" lon="19.585356"><ele>996.9</ele><time>2012-04-30T11:39:40.0000000+00:00</time></trkpt><trkpt lat="42.909344" lon="19.585443"><ele>999.0</ele><time>2012-04-30T11:39:45.0000000+00:00</time></trkpt><trkpt lat="42.909359" lon="19.585581"><ele>1000.1</ele><time>2012-04-30T11:39:50.0000000+00:00</time></trkpt><trkpt lat="42.909355" lon="19.585665"><ele>1001.9</ele><time>2012-04-30T11:39:55.0000000+00:00</time></trkpt><trkpt lat="42.909348" lon="19.585768"><ele>1003.1</ele><time>2012-04-30T11:40:00.0000000+00:00</time></trkpt><trkpt lat="42.909321" lon="19.58588"><ele>1004.5</ele><time>2012-04-30T11:40:05.0000000+00:00</time></trkpt><trkpt lat="42.909302" lon="19.586027"><ele>1006.5</ele><time>2012-04-30T11:40:10.0000000+00:00</time></trkpt><trkpt lat="42.909233" lon="19.586115"><ele>1009.5</ele><time>2012-04-30T11:40:15.0000000+00:00</time></trkpt><trkpt lat="42.909134" lon="19.586134"><ele>1008.9</ele><time>2012-04-30T11:40:20.0000000+00:00</time></trkpt><trkpt lat="42.9091" lon="19.586151"><ele>1011.2</ele><time>2012-04-30T11:40:25.0000000+00:00</time></trkpt><trkpt lat="42.909077" lon="19.586117"><ele>1013.1</ele><time>2012-04-30T11:40:30.0000000+00:00</time></trkpt><trkpt lat="42.909019" lon="19.586075"><ele>1015.2</ele><time>2012-04-30T11:40:35.0000000+00:00</time></trkpt><trkpt lat="42.908947" lon="19.586052"><ele>1017.0</ele><time>2012-04-30T11:40:40.0000000+00:00</time></trkpt><trkpt lat="42.908852" lon="19.586056"><ele>1018.3</ele><time>2012-04-30T11:40:45.0000000+00:00</time></trkpt><trkpt lat="42.908722" lon="19.586069"><ele>1018.9</ele><time>2012-04-30T11:40:50.0000000+00:00</time></trkpt><trkpt lat="42.9086" lon="19.586096"><ele>1019.3</ele><time>2012-04-30T11:40:55.0000000+00:00</time></trkpt><trkpt lat="42.908508" lon="19.586119"><ele>1019.4</ele><time>2012-04-30T11:41:00.0000000+00:00</time></trkpt><trkpt lat="42.908459" lon="19.586166"><ele>1020.2</ele><time>2012-04-30T11:41:05.0000000+00:00</time></trkpt><trkpt lat="42.908363" lon="19.586216"><ele>1021.4</ele><time>2012-04-30T11:41:10.0000000+00:00</time></trkpt><trkpt lat="42.908283" lon="19.58625"><ele>1022.2</ele><time>2012-04-30T11:41:15.0000000+00:00</time></trkpt><trkpt lat="42.908173" lon="19.586372"><ele>1022.9</ele><time>2012-04-30T11:41:20.0000000+00:00</time></trkpt><trkpt lat="42.908081" lon="19.586424"><ele>1023.6</ele><time>2012-04-30T11:41:25.0000000+00:00</time></trkpt><trkpt lat="42.908012" lon="19.586519"><ele>1023.7</ele><time>2012-04-30T11:41:30.0000000+00:00</time></trkpt><trkpt lat="42.907928" lon="19.586554"><ele>1023.6</ele><time>2012-04-30T11:41:35.0000000+00:00</time></trkpt><trkpt lat="42.907837" lon="19.586588"><ele>1024.9</ele><time>2012-04-30T11:41:40.0000000+00:00</time></trkpt><trkpt lat="42.907742" lon="19.586611"><ele>1026.0</ele><time>2012-04-30T11:41:45.0000000+00:00</time></trkpt><trkpt lat="42.907665" lon="19.586668"><ele>1027.4</ele><time>2012-04-30T11:41:50.0000000+00:00</time></trkpt><trkpt lat="42.907597" lon="19.586761"><ele>1029.1</ele><time>2012-04-30T11:41:55.0000000+00:00</time></trkpt><trkpt lat="42.907543" lon="19.586819"><ele>1030.0</ele><time>2012-04-30T11:42:00.0000000+00:00</time></trkpt><trkpt lat="42.907471" lon="19.586868"><ele>1031.0</ele><time>2012-04-30T11:42:05.0000000+00:00</time></trkpt><trkpt lat="42.907379" lon="19.586878"><ele>1031.0</ele><time>2012-04-30T11:42:10.0000000+00:00</time></trkpt><trkpt lat="42.907341" lon="19.586981"><ele>1028.3</ele><time>2012-04-30T11:42:15.0000000+00:00</time></trkpt><trkpt lat="42.907253" lon="19.587076"><ele>1029.3</ele><time>2012-04-30T11:42:20.0000000+00:00</time></trkpt><trkpt lat="42.907173" lon="19.587126"><ele>1030.0</ele><time>2012-04-30T11:42:25.0000000+00:00</time></trkpt><trkpt lat="42.907078" lon="19.587223"><ele>1030.9</ele><time>2012-04-30T11:42:30.0000000+00:00</time></trkpt><trkpt lat="42.906998" lon="19.587275"><ele>1032.0</ele><time>2012-04-30T11:42:35.0000000+00:00</time></trkpt><trkpt lat="42.906929" lon="19.58736"><ele>1034.0</ele><time>2012-04-30T11:42:40.0000000+00:00</time></trkpt><trkpt lat="42.906849" lon="19.587452"><ele>1036.5</ele><time>2012-04-30T11:42:45.0000000+00:00</time></trkpt><trkpt lat="42.906784" lon="19.587528"><ele>1038.3</ele><time>2012-04-30T11:42:50.0000000+00:00</time></trkpt><trkpt lat="42.906708" lon="19.587597"><ele>1039.4</ele><time>2012-04-30T11:42:55.0000000+00:00</time></trkpt><trkpt lat="42.906624" lon="19.58769"><ele>1041.2</ele><time>2012-04-30T11:43:00.0000000+00:00</time></trkpt><trkpt lat="42.906551" lon="19.587805"><ele>1042.6</ele><time>2012-04-30T11:43:05.0000000+00:00</time></trkpt><trkpt lat="42.906437" lon="19.587851"><ele>1043.3</ele><time>2012-04-30T11:43:10.0000000+00:00</time></trkpt><trkpt lat="42.906357" lon="19.587921"><ele>1045.1</ele><time>2012-04-30T11:43:15.0000000+00:00</time></trkpt><trkpt lat="42.906254" lon="19.587975"><ele>1046.5</ele><time>2012-04-30T11:43:20.0000000+00:00</time></trkpt><trkpt lat="42.906166" lon="19.588083"><ele>1048.8</ele><time>2012-04-30T11:43:25.0000000+00:00</time></trkpt><trkpt lat="42.906067" lon="19.588182"><ele>1049.9</ele><time>2012-04-30T11:43:30.0000000+00:00</time></trkpt><trkpt lat="42.905949" lon="19.588219"><ele>1050.4</ele><time>2012-04-30T11:43:35.0000000+00:00</time></trkpt><trkpt lat="42.905899" lon="19.588243"><ele>1050.1</ele><time>2012-04-30T11:43:40.0000000+00:00</time></trkpt><trkpt lat="42.905777" lon="19.588329"><ele>1051.0</ele><time>2012-04-30T11:43:45.0000000+00:00</time></trkpt><trkpt lat="42.905636" lon="19.588444"><ele>1050.5</ele><time>2012-04-30T11:43:50.0000000+00:00</time></trkpt><trkpt lat="42.905548" lon="19.58861"><ele>1050.6</ele><time>2012-04-30T11:43:55.0000000+00:00</time></trkpt><trkpt lat="42.90551" lon="19.588755"><ele>1052.1</ele><time>2012-04-30T11:44:00.0000000+00:00</time></trkpt><trkpt lat="42.905441" lon="19.588867"><ele>1053.6</ele><time>2012-04-30T11:44:05.0000000+00:00</time></trkpt><trkpt lat="42.905384" lon="19.588995"><ele>1054.7</ele><time>2012-04-30T11:44:10.0000000+00:00</time></trkpt><trkpt lat="42.905334" lon="19.589075"><ele>1055.8</ele><time>2012-04-30T11:44:15.0000000+00:00</time></trkpt><trkpt lat="42.905312" lon="19.589254"><ele>1057.3</ele><time>2012-04-30T11:44:20.0000000+00:00</time></trkpt><trkpt lat="42.905266" lon="19.589382"><ele>1058.1</ele><time>2012-04-30T11:44:25.0000000+00:00</time></trkpt><trkpt lat="42.905239" lon="19.589548"><ele>1059.1</ele><time>2012-04-30T11:44:30.0000000+00:00</time></trkpt><trkpt lat="42.905128" lon="19.589705"><ele>1060.6</ele><time>2012-04-30T11:44:35.0000000+00:00</time></trkpt><trkpt lat="42.905052" lon="19.589766"><ele>1059.7</ele><time>2012-04-30T11:44:40.0000000+00:00</time></trkpt><trkpt lat="42.904999" lon="19.589849"><ele>1060.0</ele><time>2012-04-30T11:44:45.0000000+00:00</time></trkpt><trkpt lat="42.904922" lon="19.589914"><ele>1062.0</ele><time>2012-04-30T11:44:50.0000000+00:00</time></trkpt><trkpt lat="42.904778" lon="19.589981"><ele>1062.2</ele><time>2012-04-30T11:44:55.0000000+00:00</time></trkpt><trkpt lat="42.904617" lon="19.59004"><ele>1061.8</ele><time>2012-04-30T11:45:00.0000000+00:00</time></trkpt><trkpt lat="42.904526" lon="19.590105"><ele>1061.8</ele><time>2012-04-30T11:45:05.0000000+00:00</time></trkpt><trkpt lat="42.904381" lon="19.590219"><ele>1062.0</ele><time>2012-04-30T11:45:10.0000000+00:00</time></trkpt><trkpt lat="42.904285" lon="19.590279"><ele>1062.2</ele><time>2012-04-30T11:45:15.0000000+00:00</time></trkpt><trkpt lat="42.904209" lon="19.590317"><ele>1063.0</ele><time>2012-04-30T11:45:20.0000000+00:00</time></trkpt><trkpt lat="42.904087" lon="19.590418"><ele>1062.1</ele><time>2012-04-30T11:45:25.0000000+00:00</time></trkpt><trkpt lat="42.903996" lon="19.590483"><ele>1062.9</ele><time>2012-04-30T11:45:30.0000000+00:00</time></trkpt><trkpt lat="42.9039" lon="19.590521"><ele>1064.8</ele><time>2012-04-30T11:45:35.0000000+00:00</time></trkpt><trkpt lat="42.903782" lon="19.59062"><ele>1066.8</ele><time>2012-04-30T11:45:40.0000000+00:00</time></trkpt><trkpt lat="42.903637" lon="19.590683"><ele>1068.2</ele><time>2012-04-30T11:45:45.0000000+00:00</time></trkpt><trkpt lat="42.903492" lon="19.590725"><ele>1068.1</ele><time>2012-04-30T11:45:50.0000000+00:00</time></trkpt><trkpt lat="42.903339" lon="19.590744"><ele>1069.1</ele><time>2012-04-30T11:45:55.0000000+00:00</time></trkpt><trkpt lat="42.903206" lon="19.590807"><ele>1070.9</ele><time>2012-04-30T11:46:00.0000000+00:00</time></trkpt><trkpt lat="42.903198" lon="19.590923"><ele>1072.1</ele><time>2012-04-30T11:46:05.0000000+00:00</time></trkpt><trkpt lat="42.903282" lon="19.591007"><ele>1073.2</ele><time>2012-04-30T11:46:10.0000000+00:00</time></trkpt><trkpt lat="42.903419" lon="19.591099"><ele>1071.7</ele><time>2012-04-30T11:46:15.0000000+00:00</time></trkpt><trkpt lat="42.903545" lon="19.59116"><ele>1070.7</ele><time>2012-04-30T11:46:20.0000000+00:00</time></trkpt><trkpt lat="42.903614" lon="19.591272"><ele>1069.5</ele><time>2012-04-30T11:46:25.0000000+00:00</time></trkpt><trkpt lat="42.903629" lon="19.591368"><ele>1069.9</ele><time>2012-04-30T11:46:30.0000000+00:00</time></trkpt><trkpt lat="42.903584" lon="19.591476"><ele>1070.8</ele><time>2012-04-30T11:46:35.0000000+00:00</time></trkpt><trkpt lat="42.903557" lon="19.591562"><ele>1070.0</ele><time>2012-04-30T11:46:40.0000000+00:00</time></trkpt><trkpt lat="42.903515" lon="19.591648"><ele>1071.5</ele><time>2012-04-30T11:46:45.0000000+00:00</time></trkpt><trkpt lat="42.903481" lon="19.591749"><ele>1072.1</ele><time>2012-04-30T11:46:50.0000000+00:00</time></trkpt><trkpt lat="42.903458" lon="19.591866"><ele>1072.8</ele><time>2012-04-30T11:46:55.0000000+00:00</time></trkpt><trkpt lat="42.903423" lon="19.591957"><ele>1073.1</ele><time>2012-04-30T11:47:00.0000000+00:00</time></trkpt><trkpt lat="42.903431" lon="19.592064"><ele>1074.0</ele><time>2012-04-30T11:47:05.0000000+00:00</time></trkpt><trkpt lat="42.903488" lon="19.592184"><ele>1074.6</ele><time>2012-04-30T11:47:10.0000000+00:00</time></trkpt><trkpt lat="42.903572" lon="19.592365"><ele>1075.2</ele><time>2012-04-30T11:47:15.0000000+00:00</time></trkpt><trkpt lat="42.903656" lon="19.592461"><ele>1076.7</ele><time>2012-04-30T11:47:20.0000000+00:00</time></trkpt><trkpt lat="42.903679" lon="19.592554"><ele>1079.8</ele><time>2012-04-30T11:47:25.0000000+00:00</time></trkpt><trkpt lat="42.903683" lon="19.592646"><ele>1083.9</ele><time>2012-04-30T11:47:30.0000000+00:00</time></trkpt><trkpt lat="42.903576" lon="19.592714"><ele>1087.2</ele><time>2012-04-30T11:47:35.0000000+00:00</time></trkpt><trkpt lat="42.9035" lon="19.592743"><ele>1089.6</ele><time>2012-04-30T11:47:40.0000000+00:00</time></trkpt><trkpt lat="42.903408" lon="19.592798"><ele>1092.1</ele><time>2012-04-30T11:47:45.0000000+00:00</time></trkpt><trkpt lat="42.903355" lon="19.592815"><ele>1095.6</ele><time>2012-04-30T11:47:50.0000000+00:00</time></trkpt><trkpt lat="42.903252" lon="19.592884"><ele>1098.5</ele><time>2012-04-30T11:47:55.0000000+00:00</time></trkpt><trkpt lat="42.903149" lon="19.592947"><ele>1102.8</ele><time>2012-04-30T11:48:00.0000000+00:00</time></trkpt><trkpt lat="42.903065" lon="19.593033"><ele>1106.2</ele><time>2012-04-30T11:48:05.0000000+00:00</time></trkpt><trkpt lat="42.902996" lon="19.593142"><ele>1108.9</ele><time>2012-04-30T11:48:10.0000000+00:00</time></trkpt><trkpt lat="42.902924" lon="19.59322"><ele>1112.1</ele><time>2012-04-30T11:48:15.0000000+00:00</time></trkpt><trkpt lat="42.902893" lon="19.593313"><ele>1114.0</ele><time>2012-04-30T11:48:20.0000000+00:00</time></trkpt><trkpt lat="42.902821" lon="19.593372"><ele>1117.4</ele><time>2012-04-30T11:48:25.0000000+00:00</time></trkpt><trkpt lat="42.902752" lon="19.593435"><ele>1120.8</ele><time>2012-04-30T11:48:30.0000000+00:00</time></trkpt><trkpt lat="42.902676" lon="19.593475"><ele>1123.2</ele><time>2012-04-30T11:48:35.0000000+00:00</time></trkpt><trkpt lat="42.902557" lon="19.593559"><ele>1125.9</ele><time>2012-04-30T11:48:40.0000000+00:00</time></trkpt><trkpt lat="42.902435" lon="19.593681"><ele>1128.4</ele><time>2012-04-30T11:48:45.0000000+00:00</time></trkpt><trkpt lat="42.902325" lon="19.593819"><ele>1131.0</ele><time>2012-04-30T11:48:50.0000000+00:00</time></trkpt><trkpt lat="42.902233" lon="19.593916"><ele>1134.7</ele><time>2012-04-30T11:48:55.0000000+00:00</time></trkpt><trkpt lat="42.902126" lon="19.593987"><ele>1138.7</ele><time>2012-04-30T11:49:00.0000000+00:00</time></trkpt><trkpt lat="42.902046" lon="19.594044"><ele>1139.6</ele><time>2012-04-30T11:49:05.0000000+00:00</time></trkpt><trkpt lat="42.902004" lon="19.594122"><ele>1138.0</ele><time>2012-04-30T11:49:10.0000000+00:00</time></trkpt><trkpt lat="42.90192" lon="19.594172"><ele>1138.6</ele><time>2012-04-30T11:49:15.0000000+00:00</time></trkpt><trkpt lat="42.901836" lon="19.594225"><ele>1140.4</ele><time>2012-04-30T11:49:20.0000000+00:00</time></trkpt><trkpt lat="42.901749" lon="19.594233"><ele>1143.4</ele><time>2012-04-30T11:49:25.0000000+00:00</time></trkpt><trkpt lat="42.901646" lon="19.594255"><ele>1147.0</ele><time>2012-04-30T11:49:30.0000000+00:00</time></trkpt><trkpt lat="42.901569" lon="19.594343"><ele>1150.5</ele><time>2012-04-30T11:49:35.0000000+00:00</time></trkpt><trkpt lat="42.901482" lon="19.594418"><ele>1152.5</ele><time>2012-04-30T11:49:40.0000000+00:00</time></trkpt><trkpt lat="42.901417" lon="19.594425"><ele>1154.2</ele><time>2012-04-30T11:49:45.0000000+00:00</time></trkpt><trkpt lat="42.901402" lon="19.594439"><ele>1154.2</ele><time>2012-04-30T11:49:50.0000000+00:00</time></trkpt><trkpt lat="42.901333" lon="19.594433"><ele>1153.1</ele><time>2012-04-30T11:49:55.0000000+00:00</time></trkpt><trkpt lat="42.901291" lon="19.594439"><ele>1151.0</ele><time>2012-04-30T11:50:00.0000000+00:00</time></trkpt><trkpt lat="42.901203" lon="19.594429"><ele>1150.4</ele><time>2012-04-30T11:50:05.0000000+00:00</time></trkpt><trkpt lat="42.901112" lon="19.594416"><ele>1153.1</ele><time>2012-04-30T11:50:10.0000000+00:00</time></trkpt><trkpt lat="42.901001" lon="19.594406"><ele>1154.1</ele><time>2012-04-30T11:50:15.0000000+00:00</time></trkpt><trkpt lat="42.900871" lon="19.594421"><ele>1155.4</ele><time>2012-04-30T11:50:20.0000000+00:00</time></trkpt><trkpt lat="42.900806" lon="19.594488"><ele>1155.2</ele><time>2012-04-30T11:50:25.0000000+00:00</time></trkpt><trkpt lat="42.900688" lon="19.594587"><ele>1152.4</ele><time>2012-04-30T11:50:30.0000000+00:00</time></trkpt><trkpt lat="42.900631" lon="19.594683"><ele>1149.8</ele><time>2012-04-30T11:50:35.0000000+00:00</time></trkpt><trkpt lat="42.900612" lon="19.594751"><ele>1147.6</ele><time>2012-04-30T11:50:40.0000000+00:00</time></trkpt><trkpt lat="42.900616" lon="19.59486"><ele>1145.3</ele><time>2012-04-30T11:50:45.0000000+00:00</time></trkpt><trkpt lat="42.900627" lon="19.594994"><ele>1143.6</ele><time>2012-04-30T11:50:50.0000000+00:00</time></trkpt><trkpt lat="42.900608" lon="19.595127"><ele>1142.0</ele><time>2012-04-30T11:50:55.0000000+00:00</time></trkpt><trkpt lat="42.900589" lon="19.595287"><ele>1139.0</ele><time>2012-04-30T11:51:00.0000000+00:00</time></trkpt><trkpt lat="42.900547" lon="19.595346"><ele>1136.5</ele><time>2012-04-30T11:51:05.0000000+00:00</time></trkpt><trkpt lat="42.900551" lon="19.595364"><ele>1135.9</ele><time>2012-04-30T11:51:10.0000000+00:00</time></trkpt><trkpt lat="42.90057" lon="19.595415"><ele>1134.8</ele><time>2012-04-30T11:51:15.0000000+00:00</time></trkpt><trkpt lat="42.900558" lon="19.59544"><ele>1133.5</ele><time>2012-04-30T11:51:20.0000000+00:00</time></trkpt><trkpt lat="42.900539" lon="19.59543"><ele>1132.9</ele><time>2012-04-30T11:51:25.0000000+00:00</time></trkpt><trkpt lat="42.900536" lon="19.595432"><ele>1132.8</ele><time>2012-04-30T11:51:30.0000000+00:00</time></trkpt><trkpt lat="42.900532" lon="19.595434"><ele>1132.8</ele><time>2012-04-30T11:51:35.0000000+00:00</time></trkpt><trkpt lat="42.900528" lon="19.59544"><ele>1132.9</ele><time>2012-04-30T11:51:40.0000000+00:00</time></trkpt><trkpt lat="42.90052" lon="19.595444"><ele>1132.9</ele><time>2012-04-30T11:51:45.0000000+00:00</time></trkpt><trkpt lat="42.900517" lon="19.595449"><ele>1133.0</ele><time>2012-04-30T11:51:50.0000000+00:00</time></trkpt><trkpt lat="42.900513" lon="19.595453"><ele>1133.0</ele><time>2012-04-30T11:51:55.0000000+00:00</time></trkpt><trkpt lat="42.900509" lon="19.595457"><ele>1133.1</ele><time>2012-04-30T11:52:00.0000000+00:00</time></trkpt><trkpt lat="42.900505" lon="19.595461"><ele>1133.1</ele><time>2012-04-30T11:52:05.0000000+00:00</time></trkpt><trkpt lat="42.900501" lon="19.595463"><ele>1133.1</ele><time>2012-04-30T11:52:10.0000000+00:00</time></trkpt><trkpt lat="42.900501" lon="19.595465"><ele>1133.0</ele><time>2012-04-30T11:52:15.0000000+00:00</time></trkpt><trkpt lat="42.900501" lon="19.595465"><ele>1133.0</ele><time>2012-04-30T11:52:20.0000000+00:00</time></trkpt><trkpt lat="42.900501" lon="19.595467"><ele>1132.8</ele><time>2012-04-30T11:52:25.0000000+00:00</time></trkpt><trkpt lat="42.900497" lon="19.595469"><ele>1132.7</ele><time>2012-04-30T11:52:30.0000000+00:00</time></trkpt><trkpt lat="42.900497" lon="19.59547"><ele>1132.6</ele><time>2012-04-30T11:52:35.0000000+00:00</time></trkpt><trkpt lat="42.900497" lon="19.59547"><ele>1132.5</ele><time>2012-04-30T11:52:40.0000000+00:00</time></trkpt><trkpt lat="42.900497" lon="19.595469"><ele>1132.3</ele><time>2012-04-30T11:52:45.0000000+00:00</time></trkpt><trkpt lat="42.900497" lon="19.59547"><ele>1132.2</ele><time>2012-04-30T11:52:50.0000000+00:00</time></trkpt><trkpt lat="42.900497" lon="19.59547"><ele>1132.1</ele><time>2012-04-30T11:52:55.0000000+00:00</time></trkpt><trkpt lat="42.900497" lon="19.595472"><ele>1132.0</ele><time>2012-04-30T11:53:00.0000000+00:00</time></trkpt><trkpt lat="42.900494" lon="19.595476"><ele>1132.0</ele><time>2012-04-30T11:53:05.0000000+00:00</time></trkpt><trkpt lat="42.900494" lon="19.595476"><ele>1132.0</ele><time>2012-04-30T11:53:10.0000000+00:00</time></trkpt><trkpt lat="42.90049" lon="19.595478"><ele>1131.9</ele><time>2012-04-30T11:53:15.0000000+00:00</time></trkpt><trkpt lat="42.90049" lon="19.59548"><ele>1131.8</ele><time>2012-04-30T11:53:20.0000000+00:00</time></trkpt><trkpt lat="42.900486" lon="19.595486"><ele>1131.7</ele><time>2012-04-30T11:53:25.0000000+00:00</time></trkpt><trkpt lat="42.900482" lon="19.595493"><ele>1131.6</ele><time>2012-04-30T11:53:30.0000000+00:00</time></trkpt><trkpt lat="42.900478" lon="19.595501"><ele>1131.6</ele><time>2012-04-30T11:53:35.0000000+00:00</time></trkpt><trkpt lat="42.900471" lon="19.595507"><ele>1131.6</ele><time>2012-04-30T11:53:40.0000000+00:00</time></trkpt><trkpt lat="42.900467" lon="19.59551"><ele>1131.6</ele><time>2012-04-30T11:53:45.0000000+00:00</time></trkpt><trkpt lat="42.900467" lon="19.595512"><ele>1131.5</ele><time>2012-04-30T11:53:50.0000000+00:00</time></trkpt><trkpt lat="42.900467" lon="19.595514"><ele>1131.5</ele><time>2012-04-30T11:53:55.0000000+00:00</time></trkpt><trkpt lat="42.900463" lon="19.595518"><ele>1131.4</ele><time>2012-04-30T11:54:00.0000000+00:00</time></trkpt><trkpt lat="42.900463" lon="19.59552"><ele>1131.5</ele><time>2012-04-30T11:54:05.0000000+00:00</time></trkpt><trkpt lat="42.900459" lon="19.595524"><ele>1131.5</ele><time>2012-04-30T11:54:10.0000000+00:00</time></trkpt><trkpt lat="42.900455" lon="19.59553"><ele>1131.4</ele><time>2012-04-30T11:54:15.0000000+00:00</time></trkpt><trkpt lat="42.900452" lon="19.595537"><ele>1131.3</ele><time>2012-04-30T11:54:20.0000000+00:00</time></trkpt><trkpt lat="42.900444" lon="19.595547"><ele>1131.2</ele><time>2012-04-30T11:54:25.0000000+00:00</time></trkpt><trkpt lat="42.90044" lon="19.595552"><ele>1131.2</ele><time>2012-04-30T11:54:30.0000000+00:00</time></trkpt><trkpt lat="42.90044" lon="19.595556"><ele>1131.1</ele><time>2012-04-30T11:54:35.0000000+00:00</time></trkpt><trkpt lat="42.900444" lon="19.595558"><ele>1131.1</ele><time>2012-04-30T11:54:40.0000000+00:00</time></trkpt><trkpt lat="42.900444" lon="19.595554"><ele>1131.1</ele><time>2012-04-30T11:54:45.0000000+00:00</time></trkpt><trkpt lat="42.900448" lon="19.595552"><ele>1131.0</ele><time>2012-04-30T11:54:50.0000000+00:00</time></trkpt><trkpt lat="42.900448" lon="19.595552"><ele>1131.0</ele><time>2012-04-30T11:54:55.0000000+00:00</time></trkpt><trkpt lat="42.900448" lon="19.595551"><ele>1131.0</ele><time>2012-04-30T11:55:00.0000000+00:00</time></trkpt><trkpt lat="42.900448" lon="19.595551"><ele>1131.0</ele><time>2012-04-30T11:55:05.0000000+00:00</time></trkpt><trkpt lat="42.900448" lon="19.595554"><ele>1131.0</ele><time>2012-04-30T11:55:10.0000000+00:00</time></trkpt><trkpt lat="42.900452" lon="19.595554"><ele>1131.0</ele><time>2012-04-30T11:55:15.0000000+00:00</time></trkpt><trkpt lat="42.900448" lon="19.595558"><ele>1130.9</ele><time>2012-04-30T11:55:20.0000000+00:00</time></trkpt><trkpt lat="42.900452" lon="19.595558"><ele>1130.7</ele><time>2012-04-30T11:55:25.0000000+00:00</time></trkpt><trkpt lat="42.900459" lon="19.595562"><ele>1130.5</ele><time>2012-04-30T11:55:30.0000000+00:00</time></trkpt><trkpt lat="42.900459" lon="19.595564"><ele>1130.3</ele><time>2012-04-30T11:55:35.0000000+00:00</time></trkpt><trkpt lat="42.900459" lon="19.595566"><ele>1130.1</ele><time>2012-04-30T11:55:40.0000000+00:00</time></trkpt><trkpt lat="42.900459" lon="19.595566"><ele>1130.0</ele><time>2012-04-30T11:55:45.0000000+00:00</time></trkpt><trkpt lat="42.900459" lon="19.59557"><ele>1129.9</ele><time>2012-04-30T11:55:50.0000000+00:00</time></trkpt><trkpt lat="42.900459" lon="19.595575"><ele>1129.7</ele><time>2012-04-30T11:55:55.0000000+00:00</time></trkpt><trkpt lat="42.900459" lon="19.595573"><ele>1129.6</ele><time>2012-04-30T11:56:00.0000000+00:00</time></trkpt><trkpt lat="42.900459" lon="19.595572"><ele>1129.7</ele><time>2012-04-30T11:56:05.0000000+00:00</time></trkpt><trkpt lat="42.900459" lon="19.595572"><ele>1129.7</ele><time>2012-04-30T11:56:10.0000000+00:00</time></trkpt><trkpt lat="42.900463" lon="19.595568"><ele>1129.6</ele><time>2012-04-30T11:56:15.0000000+00:00</time></trkpt><trkpt lat="42.900467" lon="19.595566"><ele>1129.6</ele><time>2012-04-30T11:56:20.0000000+00:00</time></trkpt><trkpt lat="42.900467" lon="19.595566"><ele>1129.5</ele><time>2012-04-30T11:56:25.0000000+00:00</time></trkpt><trkpt lat="42.900471" lon="19.595572"><ele>1129.5</ele><time>2012-04-30T11:56:30.0000000+00:00</time></trkpt><trkpt lat="42.900471" lon="19.595573"><ele>1129.4</ele><time>2012-04-30T11:56:35.0000000+00:00</time></trkpt><trkpt lat="42.900471" lon="19.595572"><ele>1129.4</ele><time>2012-04-30T11:56:40.0000000+00:00</time></trkpt><trkpt lat="42.900471" lon="19.595573"><ele>1129.4</ele><time>2012-04-30T11:56:45.0000000+00:00</time></trkpt><trkpt lat="42.900471" lon="19.595573"><ele>1129.5</ele><time>2012-04-30T11:56:50.0000000+00:00</time></trkpt><trkpt lat="42.900471" lon="19.595573"><ele>1129.5</ele><time>2012-04-30T11:56:55.0000000+00:00</time></trkpt><trkpt lat="42.900475" lon="19.595573"><ele>1129.4</ele><time>2012-04-30T11:57:00.0000000+00:00</time></trkpt><trkpt lat="42.900475" lon="19.595573"><ele>1129.4</ele><time>2012-04-30T11:57:05.0000000+00:00</time></trkpt><trkpt lat="42.900475" lon="19.595575"><ele>1129.4</ele><time>2012-04-30T11:57:10.0000000+00:00</time></trkpt><trkpt lat="42.900475" lon="19.595579"><ele>1129.3</ele><time>2012-04-30T11:57:15.0000000+00:00</time></trkpt><trkpt lat="42.900475" lon="19.595581"><ele>1129.2</ele><time>2012-04-30T11:57:20.0000000+00:00</time></trkpt><trkpt lat="42.900475" lon="19.595581"><ele>1129.0</ele><time>2012-04-30T11:57:25.0000000+00:00</time></trkpt><trkpt lat="42.900475" lon="19.595583"><ele>1129.0</ele><time>2012-04-30T11:57:30.0000000+00:00</time></trkpt><trkpt lat="42.900475" lon="19.595583"><ele>1129.0</ele><time>2012-04-30T11:57:35.0000000+00:00</time></trkpt><trkpt lat="42.900475" lon="19.595583"><ele>1128.8</ele><time>2012-04-30T11:57:40.0000000+00:00</time></trkpt><trkpt lat="42.900478" lon="19.595585"><ele>1128.6</ele><time>2012-04-30T11:57:45.0000000+00:00</time></trkpt><trkpt lat="42.900478" lon="19.595585"><ele>1128.3</ele><time>2012-04-30T11:57:50.0000000+00:00</time></trkpt><trkpt lat="42.900478" lon="19.595583"><ele>1128.0</ele><time>2012-04-30T11:57:55.0000000+00:00</time></trkpt><trkpt lat="42.900478" lon="19.595581"><ele>1127.8</ele><time>2012-04-30T11:58:00.0000000+00:00</time></trkpt><trkpt lat="42.900478" lon="19.595581"><ele>1127.5</ele><time>2012-04-30T11:58:05.0000000+00:00</time></trkpt><trkpt lat="42.900482" lon="19.595579"><ele>1127.3</ele><time>2012-04-30T11:58:10.0000000+00:00</time></trkpt><trkpt lat="42.900482" lon="19.595579"><ele>1127.0</ele><time>2012-04-30T11:58:15.0000000+00:00</time></trkpt><trkpt lat="42.900482" lon="19.595581"><ele>1126.8</ele><time>2012-04-30T11:58:20.0000000+00:00</time></trkpt><trkpt lat="42.900482" lon="19.595589"><ele>1126.5</ele><time>2012-04-30T11:58:25.0000000+00:00</time></trkpt><trkpt lat="42.900486" lon="19.595594"><ele>1126.2</ele><time>2012-04-30T11:58:30.0000000+00:00</time></trkpt><trkpt lat="42.900486" lon="19.5956"><ele>1125.9</ele><time>2012-04-30T11:58:35.0000000+00:00</time></trkpt><trkpt lat="42.900486" lon="19.595602"><ele>1125.6</ele><time>2012-04-30T11:58:40.0000000+00:00</time></trkpt><trkpt lat="42.900486" lon="19.5956"><ele>1125.4</ele><time>2012-04-30T11:58:45.0000000+00:00</time></trkpt><trkpt lat="42.900486" lon="19.5956"><ele>1125.2</ele><time>2012-04-30T11:58:50.0000000+00:00</time></trkpt><trkpt lat="42.900486" lon="19.5956"><ele>1125.0</ele><time>2012-04-30T11:58:55.0000000+00:00</time></trkpt><trkpt lat="42.900486" lon="19.5956"><ele>1124.8</ele><time>2012-04-30T11:59:00.0000000+00:00</time></trkpt><trkpt lat="42.90049" lon="19.595602"><ele>1124.5</ele><time>2012-04-30T11:59:05.0000000+00:00</time></trkpt><trkpt lat="42.90049" lon="19.59561"><ele>1124.3</ele><time>2012-04-30T11:59:10.0000000+00:00</time></trkpt><trkpt lat="42.900494" lon="19.595615"><ele>1124.0</ele><time>2012-04-30T11:59:15.0000000+00:00</time></trkpt><trkpt lat="42.900494" lon="19.595619"><ele>1123.8</ele><time>2012-04-30T11:59:20.0000000+00:00</time></trkpt><trkpt lat="42.90049" lon="19.595615"><ele>1123.6</ele><time>2012-04-30T11:59:25.0000000+00:00</time></trkpt><trkpt lat="42.900486" lon="19.595604"><ele>1123.5</ele><time>2012-04-30T11:59:30.0000000+00:00</time></trkpt><trkpt lat="42.900478" lon="19.595579"><ele>1123.9</ele><time>2012-04-30T11:59:35.0000000+00:00</time></trkpt><trkpt lat="42.900478" lon="19.595537"><ele>1124.8</ele><time>2012-04-30T11:59:40.0000000+00:00</time></trkpt><trkpt lat="42.900486" lon="19.595482"><ele>1124.9</ele><time>2012-04-30T11:59:45.0000000+00:00</time></trkpt><trkpt lat="42.900482" lon="19.595383"><ele>1126.0</ele><time>2012-04-30T11:59:50.0000000+00:00</time></trkpt><trkpt lat="42.900455" lon="19.595322"><ele>1126.5</ele><time>2012-04-30T11:59:55.0000000+00:00</time></trkpt><trkpt lat="42.900433" lon="19.595236"><ele>1128.0</ele><time>2012-04-30T12:00:00.0000000+00:00</time></trkpt><trkpt lat="42.900425" lon="19.595169"><ele>1129.5</ele><time>2012-04-30T12:00:05.0000000+00:00</time></trkpt><trkpt lat="42.900436" lon="19.595182"><ele>1132.4</ele><time>2012-04-30T12:00:10.0000000+00:00</time></trkpt><trkpt lat="42.900436" lon="19.595181"><ele>1132.7</ele><time>2012-04-30T12:00:15.0000000+00:00</time></trkpt><trkpt lat="42.900436" lon="19.595175"><ele>1133.0</ele><time>2012-04-30T12:00:20.0000000+00:00</time></trkpt><trkpt lat="42.900436" lon="19.595169"><ele>1133.3</ele><time>2012-04-30T12:00:25.0000000+00:00</time></trkpt><trkpt lat="42.900436" lon="19.595163"><ele>1133.6</ele><time>2012-04-30T12:00:30.0000000+00:00</time></trkpt><trkpt lat="42.900433" lon="19.595163"><ele>1133.8</ele><time>2012-04-30T12:00:35.0000000+00:00</time></trkpt><trkpt lat="42.900436" lon="19.59516"><ele>1133.9</ele><time>2012-04-30T12:00:40.0000000+00:00</time></trkpt><trkpt lat="42.900436" lon="19.59516"><ele>1133.9</ele><time>2012-04-30T12:00:45.0000000+00:00</time></trkpt><trkpt lat="42.900436" lon="19.59516"><ele>1134.0</ele><time>2012-04-30T12:00:50.0000000+00:00</time></trkpt><trkpt lat="42.900433" lon="19.595158"><ele>1134.0</ele><time>2012-04-30T12:00:55.0000000+00:00</time></trkpt><trkpt lat="42.900433" lon="19.595156"><ele>1134.2</ele><time>2012-04-30T12:01:00.0000000+00:00</time></trkpt><trkpt lat="42.900433" lon="19.595158"><ele>1134.2</ele><time>2012-04-30T12:01:05.0000000+00:00</time></trkpt><trkpt lat="42.900433" lon="19.59516"><ele>1134.2</ele><time>2012-04-30T12:01:10.0000000+00:00</time></trkpt><trkpt lat="42.900433" lon="19.59516"><ele>1134.2</ele><time>2012-04-30T12:01:15.0000000+00:00</time></trkpt><trkpt lat="42.900433" lon="19.595158"><ele>1134.1</ele><time>2012-04-30T12:01:20.0000000+00:00</time></trkpt><trkpt lat="42.900436" lon="19.595156"><ele>1134.0</ele><time>2012-04-30T12:01:25.0000000+00:00</time></trkpt><trkpt lat="42.900436" lon="19.595152"><ele>1134.0</ele><time>2012-04-30T12:01:30.0000000+00:00</time></trkpt><trkpt lat="42.900436" lon="19.595152"><ele>1133.9</ele><time>2012-04-30T12:01:35.0000000+00:00</time></trkpt><trkpt lat="42.900436" lon="19.595158"><ele>1133.6</ele><time>2012-04-30T12:01:40.0000000+00:00</time></trkpt><trkpt lat="42.90044" lon="19.595171"><ele>1133.2</ele><time>2012-04-30T12:01:45.0000000+00:00</time></trkpt><trkpt lat="42.90044" lon="19.595186"><ele>1132.8</ele><time>2012-04-30T12:01:50.0000000+00:00</time></trkpt><trkpt lat="42.90044" lon="19.5952"><ele>1132.3</ele><time>2012-04-30T12:01:55.0000000+00:00</time></trkpt><trkpt lat="42.900444" lon="19.595205"><ele>1131.9</ele><time>2012-04-30T12:02:00.0000000+00:00</time></trkpt><trkpt lat="42.900444" lon="19.595207"><ele>1131.6</ele><time>2012-04-30T12:02:05.0000000+00:00</time></trkpt><trkpt lat="42.900444" lon="19.595211"><ele>1131.3</ele><time>2012-04-30T12:02:10.0000000+00:00</time></trkpt><trkpt lat="42.900448" lon="19.595213"><ele>1131.0</ele><time>2012-04-30T12:02:15.0000000+00:00</time></trkpt><trkpt lat="42.900448" lon="19.595211"><ele>1130.7</ele><time>2012-04-30T12:02:20.0000000+00:00</time></trkpt><trkpt lat="42.900444" lon="19.595207"><ele>1130.4</ele><time>2012-04-30T12:02:25.0000000+00:00</time></trkpt><trkpt lat="42.900444" lon="19.595205"><ele>1130.0</ele><time>2012-04-30T12:02:30.0000000+00:00</time></trkpt><trkpt lat="42.900444" lon="19.595205"><ele>1129.6</ele><time>2012-04-30T12:02:35.0000000+00:00</time></trkpt><trkpt lat="42.900452" lon="19.595213"><ele>1129.0</ele><time>2012-04-30T12:02:40.0000000+00:00</time></trkpt><trkpt lat="42.900455" lon="19.595219"><ele>1128.4</ele><time>2012-04-30T12:02:45.0000000+00:00</time></trkpt><trkpt lat="42.900459" lon="19.595226"><ele>1127.7</ele><time>2012-04-30T12:02:50.0000000+00:00</time></trkpt><trkpt lat="42.900459" lon="19.595228"><ele>1127.0</ele><time>2012-04-30T12:02:55.0000000+00:00</time></trkpt><trkpt lat="42.900459" lon="19.59523"><ele>1126.3</ele><time>2012-04-30T12:03:00.0000000+00:00</time></trkpt><trkpt lat="42.900455" lon="19.595228"><ele>1125.4</ele><time>2012-04-30T12:03:05.0000000+00:00</time></trkpt><trkpt lat="42.900455" lon="19.595226"><ele>1124.6</ele><time>2012-04-30T12:03:10.0000000+00:00</time></trkpt><trkpt lat="42.900455" lon="19.595224"><ele>1123.8</ele><time>2012-04-30T12:03:15.0000000+00:00</time></trkpt><trkpt lat="42.900452" lon="19.595224"><ele>1123.0</ele><time>2012-04-30T12:03:20.0000000+00:00</time></trkpt><trkpt lat="42.900455" lon="19.595228"><ele>1122.2</ele><time>2012-04-30T12:03:25.0000000+00:00</time></trkpt><trkpt lat="42.900459" lon="19.595238"><ele>1121.5</ele><time>2012-04-30T12:03:30.0000000+00:00</time></trkpt><trkpt lat="42.900467" lon="19.595249"><ele>1120.8</ele><time>2012-04-30T12:03:35.0000000+00:00</time></trkpt><trkpt lat="42.900471" lon="19.595255"><ele>1120.1</ele><time>2012-04-30T12:03:40.0000000+00:00</time></trkpt><trkpt lat="42.900475" lon="19.595259"><ele>1119.4</ele><time>2012-04-30T12:03:45.0000000+00:00</time></trkpt><trkpt lat="42.900471" lon="19.595259"><ele>1118.7</ele><time>2012-04-30T12:03:50.0000000+00:00</time></trkpt><trkpt lat="42.900471" lon="19.595259"><ele>1118.0</ele><time>2012-04-30T12:03:55.0000000+00:00</time></trkpt><trkpt lat="42.900467" lon="19.595257"><ele>1117.3</ele><time>2012-04-30T12:04:00.0000000+00:00</time></trkpt><trkpt lat="42.900467" lon="19.595253"><ele>1116.7</ele><time>2012-04-30T12:04:05.0000000+00:00</time></trkpt><trkpt lat="42.900467" lon="19.595257"><ele>1116.1</ele><time>2012-04-30T12:04:10.0000000+00:00</time></trkpt><trkpt lat="42.900471" lon="19.595268"><ele>1115.5</ele><time>2012-04-30T12:04:15.0000000+00:00</time></trkpt><trkpt lat="42.900463" lon="19.595259"><ele>1115.7</ele><time>2012-04-30T12:04:20.0000000+00:00</time></trkpt><trkpt lat="42.900455" lon="19.595263"><ele>1118.1</ele><time>2012-04-30T12:04:25.0000000+00:00</time></trkpt><trkpt lat="42.900459" lon="19.595327"><ele>1120.0</ele><time>2012-04-30T12:04:30.0000000+00:00</time></trkpt><trkpt lat="42.900475" lon="19.595362"><ele>1121.7</ele><time>2012-04-30T12:04:35.0000000+00:00</time></trkpt><trkpt lat="42.900486" lon="19.595402"><ele>1122.1</ele><time>2012-04-30T12:04:40.0000000+00:00</time></trkpt><trkpt lat="42.900463" lon="19.595409"><ele>1123.0</ele><time>2012-04-30T12:04:45.0000000+00:00</time></trkpt><trkpt lat="42.900421" lon="19.595379"><ele>1124.6</ele><time>2012-04-30T12:04:50.0000000+00:00</time></trkpt><trkpt lat="42.90041" lon="19.595375"><ele>1125.0</ele><time>2012-04-30T12:04:55.0000000+00:00</time></trkpt><trkpt lat="42.900398" lon="19.595335"><ele>1125.0</ele><time>2012-04-30T12:05:00.0000000+00:00</time></trkpt><trkpt lat="42.900379" lon="19.595295"><ele>1124.8</ele><time>2012-04-30T12:05:05.0000000+00:00</time></trkpt><trkpt lat="42.900375" lon="19.595306"><ele>1124.1</ele><time>2012-04-30T12:05:10.0000000+00:00</time></trkpt><trkpt lat="42.900375" lon="19.595304"><ele>1124.0</ele><time>2012-04-30T12:05:15.0000000+00:00</time></trkpt><trkpt lat="42.900375" lon="19.59531"><ele>1123.8</ele><time>2012-04-30T12:05:20.0000000+00:00</time></trkpt><trkpt lat="42.900375" lon="19.595318"><ele>1123.6</ele><time>2012-04-30T12:05:25.0000000+00:00</time></trkpt><trkpt lat="42.900375" lon="19.595318"><ele>1123.5</ele><time>2012-04-30T12:05:30.0000000+00:00</time></trkpt><trkpt lat="42.900375" lon="19.59532"><ele>1123.5</ele><time>2012-04-30T12:05:35.0000000+00:00</time></trkpt><trkpt lat="42.900394" lon="19.595339"><ele>1123.7</ele><time>2012-04-30T12:05:40.0000000+00:00</time></trkpt><trkpt lat="42.90041" lon="19.595379"><ele>1123.5</ele><time>2012-04-30T12:05:45.0000000+00:00</time></trkpt><trkpt lat="42.90041" lon="19.595419"><ele>1123.4</ele><time>2012-04-30T12:05:50.0000000+00:00</time></trkpt><trkpt lat="42.900421" lon="19.595501"><ele>1123.6</ele><time>2012-04-30T12:05:55.0000000+00:00</time></trkpt><trkpt lat="42.900448" lon="19.59553"><ele>1123.0</ele><time>2012-04-30T12:06:00.0000000+00:00</time></trkpt><trkpt lat="42.900475" lon="19.595552"><ele>1122.3</ele><time>2012-04-30T12:06:05.0000000+00:00</time></trkpt><trkpt lat="42.900467" lon="19.59549"><ele>1123.0</ele><time>2012-04-30T12:06:10.0000000+00:00</time></trkpt><trkpt lat="42.900467" lon="19.595482"><ele>1122.9</ele><time>2012-04-30T12:06:15.0000000+00:00</time></trkpt><trkpt lat="42.900467" lon="19.595478"><ele>1122.8</ele><time>2012-04-30T12:06:20.0000000+00:00</time></trkpt><trkpt lat="42.900471" lon="19.595478"><ele>1122.7</ele><time>2012-04-30T12:06:25.0000000+00:00</time></trkpt><trkpt lat="42.900471" lon="19.595478"><ele>1122.6</ele><time>2012-04-30T12:06:30.0000000+00:00</time></trkpt><trkpt lat="42.900471" lon="19.595476"><ele>1122.7</ele><time>2012-04-30T12:06:35.0000000+00:00</time></trkpt><trkpt lat="42.900482" lon="19.595474"><ele>1122.8</ele><time>2012-04-30T12:06:40.0000000+00:00</time></trkpt><trkpt lat="42.90049" lon="19.59547"><ele>1122.9</ele><time>2012-04-30T12:06:45.0000000+00:00</time></trkpt><trkpt lat="42.900494" lon="19.595469"><ele>1123.0</ele><time>2012-04-30T12:06:50.0000000+00:00</time></trkpt><trkpt lat="42.900494" lon="19.59547"><ele>1123.0</ele><time>2012-04-30T12:06:55.0000000+00:00</time></trkpt><trkpt lat="42.900494" lon="19.595474"><ele>1122.9</ele><time>2012-04-30T12:07:00.0000000+00:00</time></trkpt><trkpt lat="42.900494" lon="19.595476"><ele>1122.9</ele><time>2012-04-30T12:07:05.0000000+00:00</time></trkpt><trkpt lat="42.900497" lon="19.595478"><ele>1123.0</ele><time>2012-04-30T12:07:10.0000000+00:00</time></trkpt><trkpt lat="42.900497" lon="19.59548"><ele>1123.1</ele><time>2012-04-30T12:07:15.0000000+00:00</time></trkpt><trkpt lat="42.900497" lon="19.595484"><ele>1123.2</ele><time>2012-04-30T12:07:20.0000000+00:00</time></trkpt><trkpt lat="42.900497" lon="19.595488"><ele>1123.2</ele><time>2012-04-30T12:07:25.0000000+00:00</time></trkpt><trkpt lat="42.900497" lon="19.595486"><ele>1123.3</ele><time>2012-04-30T12:07:30.0000000+00:00</time></trkpt><trkpt lat="42.900494" lon="19.595488"><ele>1123.3</ele><time>2012-04-30T12:07:35.0000000+00:00</time></trkpt><trkpt lat="42.90049" lon="19.59549"><ele>1123.3</ele><time>2012-04-30T12:07:40.0000000+00:00</time></trkpt><trkpt lat="42.90049" lon="19.595491"><ele>1123.3</ele><time>2012-04-30T12:07:45.0000000+00:00</time></trkpt><trkpt lat="42.90049" lon="19.595491"><ele>1123.2</ele><time>2012-04-30T12:07:50.0000000+00:00</time></trkpt><trkpt lat="42.90049" lon="19.595493"><ele>1123.1</ele><time>2012-04-30T12:07:55.0000000+00:00</time></trkpt><trkpt lat="42.90049" lon="19.595495"><ele>1123.1</ele><time>2012-04-30T12:08:00.0000000+00:00</time></trkpt><trkpt lat="42.90049" lon="19.595495"><ele>1123.1</ele><time>2012-04-30T12:08:05.0000000+00:00</time></trkpt><trkpt lat="42.900494" lon="19.595497"><ele>1123.1</ele><time>2012-04-30T12:08:10.0000000+00:00</time></trkpt><trkpt lat="42.90049" lon="19.595497"><ele>1123.3</ele><time>2012-04-30T12:08:15.0000000+00:00</time></trkpt><trkpt lat="42.90049" lon="19.595495"><ele>1123.7</ele><time>2012-04-30T12:08:20.0000000+00:00</time></trkpt><trkpt lat="42.900482" lon="19.59549"><ele>1124.4</ele><time>2012-04-30T12:08:25.0000000+00:00</time></trkpt><trkpt lat="42.900478" lon="19.595488"><ele>1125.3</ele><time>2012-04-30T12:08:30.0000000+00:00</time></trkpt><trkpt lat="42.900478" lon="19.59549"><ele>1126.0</ele><time>2012-04-30T12:08:35.0000000+00:00</time></trkpt><trkpt lat="42.900478" lon="19.59549"><ele>1126.5</ele><time>2012-04-30T12:08:40.0000000+00:00</time></trkpt><trkpt lat="42.900482" lon="19.59549"><ele>1127.0</ele><time>2012-04-30T12:08:45.0000000+00:00</time></trkpt><trkpt lat="42.900482" lon="19.595488"><ele>1127.5</ele><time>2012-04-30T12:08:50.0000000+00:00</time></trkpt><trkpt lat="42.900486" lon="19.595482"><ele>1128.0</ele><time>2012-04-30T12:08:55.0000000+00:00</time></trkpt><trkpt lat="42.90049" lon="19.59548"><ele>1128.5</ele><time>2012-04-30T12:09:00.0000000+00:00</time></trkpt><trkpt lat="42.900494" lon="19.595476"><ele>1129.0</ele><time>2012-04-30T12:09:05.0000000+00:00</time></trkpt><trkpt lat="42.900501" lon="19.59547"><ele>1129.5</ele><time>2012-04-30T12:09:10.0000000+00:00</time></trkpt><trkpt lat="42.900505" lon="19.595459"><ele>1130.0</ele><time>2012-04-30T12:09:15.0000000+00:00</time></trkpt><trkpt lat="42.900513" lon="19.595446"><ele>1130.4</ele><time>2012-04-30T12:09:20.0000000+00:00</time></trkpt><trkpt lat="42.900517" lon="19.595415"><ele>1131.7</ele><time>2012-04-30T12:09:25.0000000+00:00</time></trkpt><trkpt lat="42.900513" lon="19.595383"><ele>1133.0</ele><time>2012-04-30T12:09:30.0000000+00:00</time></trkpt><trkpt lat="42.900555" lon="19.595417"><ele>1135.7</ele><time>2012-04-30T12:09:35.0000000+00:00</time></trkpt><trkpt lat="42.90057" lon="19.595406"><ele>1138.3</ele><time>2012-04-30T12:09:40.0000000+00:00</time></trkpt><trkpt lat="42.900585" lon="19.595438"><ele>1140.6</ele><time>2012-04-30T12:09:45.0000000+00:00</time></trkpt><trkpt lat="42.900585" lon="19.595423"><ele>1141.1</ele><time>2012-04-30T12:09:50.0000000+00:00</time></trkpt><trkpt lat="42.900589" lon="19.595413"><ele>1141.5</ele><time>2012-04-30T12:09:55.0000000+00:00</time></trkpt><trkpt lat="42.900589" lon="19.595409"><ele>1141.8</ele><time>2012-04-30T12:10:00.0000000+00:00</time></trkpt><trkpt lat="42.900593" lon="19.595411"><ele>1142.2</ele><time>2012-04-30T12:10:05.0000000+00:00</time></trkpt><trkpt lat="42.900597" lon="19.595419"><ele>1142.5</ele><time>2012-04-30T12:10:10.0000000+00:00</time></trkpt><trkpt lat="42.900597" lon="19.595423"><ele>1142.9</ele><time>2012-04-30T12:10:15.0000000+00:00</time></trkpt><trkpt lat="42.900593" lon="19.595421"><ele>1143.3</ele><time>2012-04-30T12:10:20.0000000+00:00</time></trkpt><trkpt lat="42.900589" lon="19.595421"><ele>1143.6</ele><time>2012-04-30T12:10:25.0000000+00:00</time></trkpt><trkpt lat="42.900585" lon="19.595427"><ele>1144.0</ele><time>2012-04-30T12:10:30.0000000+00:00</time></trkpt><trkpt lat="42.900585" lon="19.595434"><ele>1144.3</ele><time>2012-04-30T12:10:35.0000000+00:00</time></trkpt><trkpt lat="42.900585" lon="19.59544"><ele>1144.7</ele><time>2012-04-30T12:10:40.0000000+00:00</time></trkpt><trkpt lat="42.900585" lon="19.595442"><ele>1145.0</ele><time>2012-04-30T12:10:45.0000000+00:00</time></trkpt><trkpt lat="42.900589" lon="19.595442"><ele>1145.3</ele><time>2012-04-30T12:10:50.0000000+00:00</time></trkpt><trkpt lat="42.900589" lon="19.595442"><ele>1145.4</ele><time>2012-04-30T12:10:55.0000000+00:00</time></trkpt><trkpt lat="42.900589" lon="19.595442"><ele>1145.4</ele><time>2012-04-30T12:11:00.0000000+00:00</time></trkpt><trkpt lat="42.900589" lon="19.595442"><ele>1145.4</ele><time>2012-04-30T12:11:05.0000000+00:00</time></trkpt><trkpt lat="42.900589" lon="19.595442"><ele>1145.4</ele><time>2012-04-30T12:11:10.0000000+00:00</time></trkpt><trkpt lat="42.900589" lon="19.595444"><ele>1145.3</ele><time>2012-04-30T12:11:15.0000000+00:00</time></trkpt><trkpt lat="42.900589" lon="19.595444"><ele>1145.3</ele><time>2012-04-30T12:11:20.0000000+00:00</time></trkpt><trkpt lat="42.900589" lon="19.595446"><ele>1145.2</ele><time>2012-04-30T12:11:25.0000000+00:00</time></trkpt><trkpt lat="42.900593" lon="19.595449"><ele>1145.1</ele><time>2012-04-30T12:11:30.0000000+00:00</time></trkpt><trkpt lat="42.900593" lon="19.595453"><ele>1145.0</ele><time>2012-04-30T12:11:35.0000000+00:00</time></trkpt><trkpt lat="42.900593" lon="19.595455"><ele>1144.9</ele><time>2012-04-30T12:11:40.0000000+00:00</time></trkpt><trkpt lat="42.900593" lon="19.595455"><ele>1144.9</ele><time>2012-04-30T12:11:45.0000000+00:00</time></trkpt><trkpt lat="42.900593" lon="19.595455"><ele>1144.8</ele><time>2012-04-30T12:11:50.0000000+00:00</time></trkpt><trkpt lat="42.900616" lon="19.595417"><ele>1143.9</ele><time>2012-04-30T12:11:55.0000000+00:00</time></trkpt><trkpt lat="42.900623" lon="19.595438"><ele>1141.4</ele><time>2012-04-30T12:12:00.0000000+00:00</time></trkpt><trkpt lat="42.900623" lon="19.595434"><ele>1140.5</ele><time>2012-04-30T12:12:05.0000000+00:00</time></trkpt><trkpt lat="42.90062" lon="19.595434"><ele>1140.3</ele><time>2012-04-30T12:12:10.0000000+00:00</time></trkpt><trkpt lat="42.900616" lon="19.595442"><ele>1140.2</ele><time>2012-04-30T12:12:15.0000000+00:00</time></trkpt><trkpt lat="42.900612" lon="19.595446"><ele>1140.2</ele><time>2012-04-30T12:12:20.0000000+00:00</time></trkpt><trkpt lat="42.900608" lon="19.595448"><ele>1140.1</ele><time>2012-04-30T12:12:25.0000000+00:00</time></trkpt><trkpt lat="42.900608" lon="19.595449"><ele>1140.1</ele><time>2012-04-30T12:12:30.0000000+00:00</time></trkpt><trkpt lat="42.900608" lon="19.595449"><ele>1140.0</ele><time>2012-04-30T12:12:35.0000000+00:00</time></trkpt><trkpt lat="42.900612" lon="19.595451"><ele>1140.0</ele><time>2012-04-30T12:12:40.0000000+00:00</time></trkpt><trkpt lat="42.900612" lon="19.595451"><ele>1139.9</ele><time>2012-04-30T12:12:45.0000000+00:00</time></trkpt><trkpt lat="42.900612" lon="19.595453"><ele>1139.8</ele><time>2012-04-30T12:12:50.0000000+00:00</time></trkpt><trkpt lat="42.900627" lon="19.595449"><ele>1139.1</ele><time>2012-04-30T12:12:55.0000000+00:00</time></trkpt><trkpt lat="42.900627" lon="19.595449"><ele>1139.0</ele><time>2012-04-30T12:13:00.0000000+00:00</time></trkpt><trkpt lat="42.900631" lon="19.595467"><ele>1138.9</ele><time>2012-04-30T12:13:05.0000000+00:00</time></trkpt><trkpt lat="42.900684" lon="19.595491"><ele>1138.3</ele><time>2012-04-30T12:13:10.0000000+00:00</time></trkpt><trkpt lat="42.900738" lon="19.595589"><ele>1137.1</ele><time>2012-04-30T12:13:15.0000000+00:00</time></trkpt><trkpt lat="42.90081" lon="19.595673"><ele>1137.1</ele><time>2012-04-30T12:13:20.0000000+00:00</time></trkpt><trkpt lat="42.900845" lon="19.595675"><ele>1133.9</ele><time>2012-04-30T12:13:25.0000000+00:00</time></trkpt><trkpt lat="42.900898" lon="19.595663"><ele>1132.1</ele><time>2012-04-30T12:13:30.0000000+00:00</time></trkpt><trkpt lat="42.900993" lon="19.595669"><ele>1132.1</ele><time>2012-04-30T12:13:35.0000000+00:00</time></trkpt><trkpt lat="42.901012" lon="19.595636"><ele>1131.7</ele><time>2012-04-30T12:13:40.0000000+00:00</time></trkpt><trkpt lat="42.901035" lon="19.595594"><ele>1128.5</ele><time>2012-04-30T12:13:45.0000000+00:00</time></trkpt><trkpt lat="42.901039" lon="19.595598"><ele>1128.1</ele><time>2012-04-30T12:13:50.0000000+00:00</time></trkpt><trkpt lat="42.901043" lon="19.595596"><ele>1127.5</ele><time>2012-04-30T12:13:55.0000000+00:00</time></trkpt><trkpt lat="42.901043" lon="19.595598"><ele>1127.0</ele><time>2012-04-30T12:14:00.0000000+00:00</time></trkpt><trkpt lat="42.901051" lon="19.595602"><ele>1126.4</ele><time>2012-04-30T12:14:05.0000000+00:00</time></trkpt><trkpt lat="42.901051" lon="19.595608"><ele>1125.9</ele><time>2012-04-30T12:14:10.0000000+00:00</time></trkpt><trkpt lat="42.901051" lon="19.595617"><ele>1125.4</ele><time>2012-04-30T12:14:15.0000000+00:00</time></trkpt><trkpt lat="42.901047" lon="19.595619"><ele>1125.0</ele><time>2012-04-30T12:14:20.0000000+00:00</time></trkpt><trkpt lat="42.901039" lon="19.59561"><ele>1124.6</ele><time>2012-04-30T12:14:25.0000000+00:00</time></trkpt><trkpt lat="42.901043" lon="19.595612"><ele>1124.2</ele><time>2012-04-30T12:14:30.0000000+00:00</time></trkpt><trkpt lat="42.901047" lon="19.595617"><ele>1123.7</ele><time>2012-04-30T12:14:35.0000000+00:00</time></trkpt><trkpt lat="42.901051" lon="19.595619"><ele>1123.1</ele><time>2012-04-30T12:14:40.0000000+00:00</time></trkpt><trkpt lat="42.901051" lon="19.595621"><ele>1122.5</ele><time>2012-04-30T12:14:45.0000000+00:00</time></trkpt><trkpt lat="42.901051" lon="19.595621"><ele>1121.8</ele><time>2012-04-30T12:14:50.0000000+00:00</time></trkpt><trkpt lat="42.901051" lon="19.595619"><ele>1121.2</ele><time>2012-04-30T12:14:55.0000000+00:00</time></trkpt><trkpt lat="42.901047" lon="19.595619"><ele>1120.6</ele><time>2012-04-30T12:15:00.0000000+00:00</time></trkpt><trkpt lat="42.901047" lon="19.595617"><ele>1120.0</ele><time>2012-04-30T12:15:05.0000000+00:00</time></trkpt><trkpt lat="42.901051" lon="19.595621"><ele>1119.5</ele><time>2012-04-30T12:15:10.0000000+00:00</time></trkpt><trkpt lat="42.901096" lon="19.595562"><ele>1118.7</ele><time>2012-04-30T12:15:15.0000000+00:00</time></trkpt><trkpt lat="42.901176" lon="19.595469"><ele>1121.5</ele><time>2012-04-30T12:15:20.0000000+00:00</time></trkpt><trkpt lat="42.901237" lon="19.595434"><ele>1122.8</ele><time>2012-04-30T12:15:25.0000000+00:00</time></trkpt><trkpt lat="42.901321" lon="19.595404"><ele>1129.0</ele><time>2012-04-30T12:15:30.0000000+00:00</time></trkpt><trkpt lat="42.901382" lon="19.595413"><ele>1131.7</ele><time>2012-04-30T12:15:35.0000000+00:00</time></trkpt><trkpt lat="42.901478" lon="19.59549"><ele>1132.0</ele><time>2012-04-30T12:15:40.0000000+00:00</time></trkpt><trkpt lat="42.901531" lon="19.595537"><ele>1133.8</ele><time>2012-04-30T12:15:45.0000000+00:00</time></trkpt><trkpt lat="42.901585" lon="19.595633"><ele>1134.8</ele><time>2012-04-30T12:15:50.0000000+00:00</time></trkpt><trkpt lat="42.901619" lon="19.595734"><ele>1136.6</ele><time>2012-04-30T12:15:55.0000000+00:00</time></trkpt><trkpt lat="42.90168" lon="19.59584"><ele>1138.8</ele><time>2012-04-30T12:16:00.0000000+00:00</time></trkpt><trkpt lat="42.901699" lon="19.595934"><ele>1141.0</ele><time>2012-04-30T12:16:05.0000000+00:00</time></trkpt><trkpt lat="42.901707" lon="19.595997"><ele>1142.2</ele><time>2012-04-30T12:16:10.0000000+00:00</time></trkpt><trkpt lat="42.901726" lon="19.596079"><ele>1143.0</ele><time>2012-04-30T12:16:15.0000000+00:00</time></trkpt><trkpt lat="42.901752" lon="19.59617"><ele>1144.8</ele><time>2012-04-30T12:16:20.0000000+00:00</time></trkpt><trkpt lat="42.901787" lon="19.596283"><ele>1145.5</ele><time>2012-04-30T12:16:25.0000000+00:00</time></trkpt><trkpt lat="42.901779" lon="19.596432"><ele>1147.4</ele><time>2012-04-30T12:16:30.0000000+00:00</time></trkpt><trkpt lat="42.901775" lon="19.596592"><ele>1148.5</ele><time>2012-04-30T12:16:35.0000000+00:00</time></trkpt><trkpt lat="42.901772" lon="19.596693"><ele>1148.9</ele><time>2012-04-30T12:16:40.0000000+00:00</time></trkpt><trkpt lat="42.901772" lon="19.596786"><ele>1149.5</ele><time>2012-04-30T12:16:45.0000000+00:00</time></trkpt><trkpt lat="42.901772" lon="19.596832"><ele>1150.6</ele><time>2012-04-30T12:16:50.0000000+00:00</time></trkpt><trkpt lat="42.901768" lon="19.596777"><ele>1148.8</ele><time>2012-04-30T12:16:55.0000000+00:00</time></trkpt><trkpt lat="42.901764" lon="19.596771"><ele>1148.7</ele><time>2012-04-30T12:17:00.0000000+00:00</time></trkpt><trkpt lat="42.901764" lon="19.596771"><ele>1148.7</ele><time>2012-04-30T12:17:05.0000000+00:00</time></trkpt><trkpt lat="42.901764" lon="19.596771"><ele>1148.6</ele><time>2012-04-30T12:17:10.0000000+00:00</time></trkpt><trkpt lat="42.901768" lon="19.596773"><ele>1148.6</ele><time>2012-04-30T12:17:15.0000000+00:00</time></trkpt><trkpt lat="42.901775" lon="19.596878"><ele>1148.4</ele><time>2012-04-30T12:17:20.0000000+00:00</time></trkpt><trkpt lat="42.901722" lon="19.597015"><ele>1149.5</ele><time>2012-04-30T12:17:25.0000000+00:00</time></trkpt><trkpt lat="42.901688" lon="19.597124"><ele>1149.8</ele><time>2012-04-30T12:17:30.0000000+00:00</time></trkpt><trkpt lat="42.901695" lon="19.597244"><ele>1149.3</ele><time>2012-04-30T12:17:35.0000000+00:00</time></trkpt><trkpt lat="42.901741" lon="19.597389"><ele>1149.8</ele><time>2012-04-30T12:17:40.0000000+00:00</time></trkpt><trkpt lat="42.901787" lon="19.597525"><ele>1151.6</ele><time>2012-04-30T12:17:45.0000000+00:00</time></trkpt><trkpt lat="42.901836" lon="19.597662"><ele>1152.0</ele><time>2012-04-30T12:17:50.0000000+00:00</time></trkpt><trkpt lat="42.901875" lon="19.597752"><ele>1154.4</ele><time>2012-04-30T12:17:55.0000000+00:00</time></trkpt><trkpt lat="42.901966" lon="19.597771"><ele>1156.0</ele><time>2012-04-30T12:18:00.0000000+00:00</time></trkpt><trkpt lat="42.902035" lon="19.597763"><ele>1157.9</ele><time>2012-04-30T12:18:05.0000000+00:00</time></trkpt><trkpt lat="42.902065" lon="19.597755"><ele>1157.1</ele><time>2012-04-30T12:18:10.0000000+00:00</time></trkpt><trkpt lat="42.902119" lon="19.597759"><ele>1157.5</ele><time>2012-04-30T12:18:15.0000000+00:00</time></trkpt><trkpt lat="42.902168" lon="19.597784"><ele>1158.2</ele><time>2012-04-30T12:18:20.0000000+00:00</time></trkpt><trkpt lat="42.902233" lon="19.597679"><ele>1160.5</ele><time>2012-04-30T12:18:25.0000000+00:00</time></trkpt><trkpt lat="42.902252" lon="19.597633"><ele>1162.0</ele><time>2012-04-30T12:18:30.0000000+00:00</time></trkpt><trkpt lat="42.902294" lon="19.597584"><ele>1163.1</ele><time>2012-04-30T12:18:35.0000000+00:00</time></trkpt><trkpt lat="42.902344" lon="19.597551"><ele>1165.0</ele><time>2012-04-30T12:18:40.0000000+00:00</time></trkpt><trkpt lat="42.902382" lon="19.597507"><ele>1166.4</ele><time>2012-04-30T12:18:45.0000000+00:00</time></trkpt><trkpt lat="42.902409" lon="19.597481"><ele>1166.7</ele><time>2012-04-30T12:18:50.0000000+00:00</time></trkpt><trkpt lat="42.902435" lon="19.597456"><ele>1167.8</ele><time>2012-04-30T12:18:55.0000000+00:00</time></trkpt><trkpt lat="42.902435" lon="19.597427"><ele>1168.3</ele><time>2012-04-30T12:19:00.0000000+00:00</time></trkpt><trkpt lat="42.902462" lon="19.597376"><ele>1169.0</ele><time>2012-04-30T12:19:05.0000000+00:00</time></trkpt><trkpt lat="42.902504" lon="19.597326"><ele>1169.1</ele><time>2012-04-30T12:19:10.0000000+00:00</time></trkpt><trkpt lat="42.90258" lon="19.597256"><ele>1169.2</ele><time>2012-04-30T12:19:15.0000000+00:00</time></trkpt><trkpt lat="42.902634" lon="19.59721"><ele>1169.4</ele><time>2012-04-30T12:19:20.0000000+00:00</time></trkpt><trkpt lat="42.902691" lon="19.59717"><ele>1169.5</ele><time>2012-04-30T12:19:25.0000000+00:00</time></trkpt><trkpt lat="42.902748" lon="19.597153"><ele>1170.7</ele><time>2012-04-30T12:19:30.0000000+00:00</time></trkpt><trkpt lat="42.902821" lon="19.597048"><ele>1170.2</ele><time>2012-04-30T12:19:35.0000000+00:00</time></trkpt><trkpt lat="42.902889" lon="19.596964"><ele>1170.2</ele><time>2012-04-30T12:19:40.0000000+00:00</time></trkpt><trkpt lat="42.902985" lon="19.596872"><ele>1171.9</ele><time>2012-04-30T12:19:45.0000000+00:00</time></trkpt><trkpt lat="42.903076" lon="19.596939"><ele>1172.8</ele><time>2012-04-30T12:19:50.0000000+00:00</time></trkpt><trkpt lat="42.903156" lon="19.596939"><ele>1174.2</ele><time>2012-04-30T12:19:55.0000000+00:00</time></trkpt><trkpt lat="42.903221" lon="19.596878"><ele>1175.2</ele><time>2012-04-30T12:20:00.0000000+00:00</time></trkpt><trkpt lat="42.903309" lon="19.596867"><ele>1174.2</ele><time>2012-04-30T12:20:05.0000000+00:00</time></trkpt><trkpt lat="42.903366" lon="19.596809"><ele>1174.7</ele><time>2012-04-30T12:20:10.0000000+00:00</time></trkpt><trkpt lat="42.90337" lon="19.596811"><ele>1175.2</ele><time>2012-04-30T12:20:15.0000000+00:00</time></trkpt><trkpt lat="42.90337" lon="19.596811"><ele>1175.3</ele><time>2012-04-30T12:20:20.0000000+00:00</time></trkpt><trkpt lat="42.90337" lon="19.596811"><ele>1175.3</ele><time>2012-04-30T12:20:25.0000000+00:00</time></trkpt><trkpt lat="42.90337" lon="19.596811"><ele>1175.2</ele><time>2012-04-30T12:20:30.0000000+00:00</time></trkpt><trkpt lat="42.90337" lon="19.596811"><ele>1175.2</ele><time>2012-04-30T12:20:35.0000000+00:00</time></trkpt><trkpt lat="42.90337" lon="19.596811"><ele>1175.1</ele><time>2012-04-30T12:20:40.0000000+00:00</time></trkpt><trkpt lat="42.90337" lon="19.596809"><ele>1175.1</ele><time>2012-04-30T12:20:45.0000000+00:00</time></trkpt><trkpt lat="42.90337" lon="19.596809"><ele>1175.1</ele><time>2012-04-30T12:20:50.0000000+00:00</time></trkpt><trkpt lat="42.90337" lon="19.596809"><ele>1175.1</ele><time>2012-04-30T12:20:55.0000000+00:00</time></trkpt><trkpt lat="42.90337" lon="19.596811"><ele>1175.1</ele><time>2012-04-30T12:21:00.0000000+00:00</time></trkpt><trkpt lat="42.903332" lon="19.59683"><ele>1174.6</ele><time>2012-04-30T12:21:05.0000000+00:00</time></trkpt><trkpt lat="42.903263" lon="19.596888"><ele>1175.6</ele><time>2012-04-30T12:21:10.0000000+00:00</time></trkpt><trkpt lat="42.903217" lon="19.596922"><ele>1176.1</ele><time>2012-04-30T12:21:15.0000000+00:00</time></trkpt><trkpt lat="42.903175" lon="19.59696"><ele>1177.7</ele><time>2012-04-30T12:21:20.0000000+00:00</time></trkpt><trkpt lat="42.903107" lon="19.597004"><ele>1179.4</ele><time>2012-04-30T12:21:25.0000000+00:00</time></trkpt><trkpt lat="42.902969" lon="19.597084"><ele>1179.8</ele><time>2012-04-30T12:21:30.0000000+00:00</time></trkpt><trkpt lat="42.902889" lon="19.597195"><ele>1179.6</ele><time>2012-04-30T12:21:35.0000000+00:00</time></trkpt><trkpt lat="42.902866" lon="19.59734"><ele>1178.6</ele><time>2012-04-30T12:21:40.0000000+00:00</time></trkpt><trkpt lat="42.902832" lon="19.597481"><ele>1179.0</ele><time>2012-04-30T12:21:45.0000000+00:00</time></trkpt><trkpt lat="42.902817" lon="19.597548"><ele>1180.1</ele><time>2012-04-30T12:21:50.0000000+00:00</time></trkpt><trkpt lat="42.902843" lon="19.597614"><ele>1181.6</ele><time>2012-04-30T12:21:55.0000000+00:00</time></trkpt><trkpt lat="42.902874" lon="19.597689"><ele>1182.6</ele><time>2012-04-30T12:22:00.0000000+00:00</time></trkpt><trkpt lat="42.902851" lon="19.597801"><ele>1183.8</ele><time>2012-04-30T12:22:05.0000000+00:00</time></trkpt><trkpt lat="42.902809" lon="19.597929"><ele>1184.5</ele><time>2012-04-30T12:22:10.0000000+00:00</time></trkpt><trkpt lat="42.902779" lon="19.598059"><ele>1185.1</ele><time>2012-04-30T12:22:15.0000000+00:00</time></trkpt><trkpt lat="42.902748" lon="19.598192"><ele>1184.5</ele><time>2012-04-30T12:22:20.0000000+00:00</time></trkpt><trkpt lat="42.902702" lon="19.598289"><ele>1185.3</ele><time>2012-04-30T12:22:25.0000000+00:00</time></trkpt><trkpt lat="42.902687" lon="19.598391"><ele>1185.0</ele><time>2012-04-30T12:22:30.0000000+00:00</time></trkpt><trkpt lat="42.902672" lon="19.598518"><ele>1185.3</ele><time>2012-04-30T12:22:35.0000000+00:00</time></trkpt><trkpt lat="42.902657" lon="19.598667"><ele>1186.4</ele><time>2012-04-30T12:22:40.0000000+00:00</time></trkpt><trkpt lat="42.90263" lon="19.598795"><ele>1187.5</ele><time>2012-04-30T12:22:45.0000000+00:00</time></trkpt><trkpt lat="42.902622" lon="19.598928"><ele>1187.8</ele><time>2012-04-30T12:22:50.0000000+00:00</time></trkpt><trkpt lat="42.902596" lon="19.599039"><ele>1187.7</ele><time>2012-04-30T12:22:55.0000000+00:00</time></trkpt><trkpt lat="42.902584" lon="19.599129"><ele>1187.2</ele><time>2012-04-30T12:23:00.0000000+00:00</time></trkpt><trkpt lat="42.902592" lon="19.599253"><ele>1186.0</ele><time>2012-04-30T12:23:05.0000000+00:00</time></trkpt><trkpt lat="42.902573" lon="19.599352"><ele>1186.4</ele><time>2012-04-30T12:23:10.0000000+00:00</time></trkpt><trkpt lat="42.902534" lon="19.599463"><ele>1185.6</ele><time>2012-04-30T12:23:15.0000000+00:00</time></trkpt><trkpt lat="42.902489" lon="19.599546"><ele>1183.6</ele><time>2012-04-30T12:23:20.0000000+00:00</time></trkpt><trkpt lat="42.902454" lon="19.599636"><ele>1182.8</ele><time>2012-04-30T12:23:25.0000000+00:00</time></trkpt><trkpt lat="42.902454" lon="19.599764"><ele>1183.8</ele><time>2012-04-30T12:23:30.0000000+00:00</time></trkpt><trkpt lat="42.902439" lon="19.599854"><ele>1184.3</ele><time>2012-04-30T12:23:35.0000000+00:00</time></trkpt><trkpt lat="42.902424" lon="19.599964"><ele>1184.7</ele><time>2012-04-30T12:23:40.0000000+00:00</time></trkpt><trkpt lat="42.902393" lon="19.600067"><ele>1184.8</ele><time>2012-04-30T12:23:45.0000000+00:00</time></trkpt><trkpt lat="42.902367" lon="19.600155"><ele>1183.3</ele><time>2012-04-30T12:23:50.0000000+00:00</time></trkpt><trkpt lat="42.902332" lon="19.600262"><ele>1182.8</ele><time>2012-04-30T12:23:55.0000000+00:00</time></trkpt><trkpt lat="42.902313" lon="19.600357"><ele>1182.4</ele><time>2012-04-30T12:24:00.0000000+00:00</time></trkpt><trkpt lat="42.90229" lon="19.600431"><ele>1181.0</ele><time>2012-04-30T12:24:05.0000000+00:00</time></trkpt><trkpt lat="42.902306" lon="19.600594"><ele>1181.5</ele><time>2012-04-30T12:24:10.0000000+00:00</time></trkpt><trkpt lat="42.902294" lon="19.600628"><ele>1181.7</ele><time>2012-04-30T12:24:15.0000000+00:00</time></trkpt><trkpt lat="42.90229" lon="19.60063"><ele>1182.3</ele><time>2012-04-30T12:24:20.0000000+00:00</time></trkpt><trkpt lat="42.902267" lon="19.60063"><ele>1185.5</ele><time>2012-04-30T12:24:25.0000000+00:00</time></trkpt><trkpt lat="42.902283" lon="19.600683"><ele>1187.2</ele><time>2012-04-30T12:24:30.0000000+00:00</time></trkpt><trkpt lat="42.902279" lon="19.600742"><ele>1188.0</ele><time>2012-04-30T12:24:35.0000000+00:00</time></trkpt><trkpt lat="42.902267" lon="19.60084"><ele>1188.8</ele><time>2012-04-30T12:24:40.0000000+00:00</time></trkpt><trkpt lat="42.902256" lon="19.600916"><ele>1190.0</ele><time>2012-04-30T12:24:45.0000000+00:00</time></trkpt><trkpt lat="42.902233" lon="19.600992"><ele>1190.8</ele><time>2012-04-30T12:24:50.0000000+00:00</time></trkpt><trkpt lat="42.902195" lon="19.601103"><ele>1191.2</ele><time>2012-04-30T12:24:55.0000000+00:00</time></trkpt><trkpt lat="42.902184" lon="19.601231"><ele>1191.8</ele><time>2012-04-30T12:25:00.0000000+00:00</time></trkpt><trkpt lat="42.902142" lon="19.601265"><ele>1193.8</ele><time>2012-04-30T12:25:05.0000000+00:00</time></trkpt><trkpt lat="42.902138" lon="19.601362"><ele>1195.4</ele><time>2012-04-30T12:25:10.0000000+00:00</time></trkpt><trkpt lat="42.902119" lon="19.601463"><ele>1196.9</ele><time>2012-04-30T12:25:15.0000000+00:00</time></trkpt><trkpt lat="42.902088" lon="19.601526"><ele>1197.2</ele><time>2012-04-30T12:25:20.0000000+00:00</time></trkpt><trkpt lat="42.902107" lon="19.601547"><ele>1197.9</ele><time>2012-04-30T12:25:25.0000000+00:00</time></trkpt><trkpt lat="42.902157" lon="19.601538"><ele>1199.0</ele><time>2012-04-30T12:25:30.0000000+00:00</time></trkpt><trkpt lat="42.902195" lon="19.601473"><ele>1200.5</ele><time>2012-04-30T12:25:35.0000000+00:00</time></trkpt><trkpt lat="42.902248" lon="19.601374"><ele>1201.5</ele><time>2012-04-30T12:25:40.0000000+00:00</time></trkpt><trkpt lat="42.902325" lon="19.601265"><ele>1203.4</ele><time>2012-04-30T12:25:45.0000000+00:00</time></trkpt><trkpt lat="42.902393" lon="19.601238"><ele>1205.2</ele><time>2012-04-30T12:25:50.0000000+00:00</time></trkpt><trkpt lat="42.902454" lon="19.601196"><ele>1206.0</ele><time>2012-04-30T12:25:55.0000000+00:00</time></trkpt><trkpt lat="42.902531" lon="19.601175"><ele>1206.5</ele><time>2012-04-30T12:26:00.0000000+00:00</time></trkpt><trkpt lat="42.902603" lon="19.601068"><ele>1211.2</ele><time>2012-04-30T12:26:05.0000000+00:00</time></trkpt><trkpt lat="42.902653" lon="19.601053"><ele>1215.5</ele><time>2012-04-30T12:26:10.0000000+00:00</time></trkpt><trkpt lat="42.90276" lon="19.601011"><ele>1219.6</ele><time>2012-04-30T12:26:15.0000000+00:00</time></trkpt><trkpt lat="42.902885" lon="19.600885"><ele>1219.2</ele><time>2012-04-30T12:26:20.0000000+00:00</time></trkpt><trkpt lat="42.902985" lon="19.60079"><ele>1218.4</ele><time>2012-04-30T12:26:25.0000000+00:00</time></trkpt><trkpt lat="42.903088" lon="19.600782"><ele>1219.2</ele><time>2012-04-30T12:26:30.0000000+00:00</time></trkpt><trkpt lat="42.903164" lon="19.600809"><ele>1219.9</ele><time>2012-04-30T12:26:35.0000000+00:00</time></trkpt><trkpt lat="42.903206" lon="19.60084"><ele>1219.3</ele><time>2012-04-30T12:26:40.0000000+00:00</time></trkpt><trkpt lat="42.903168" lon="19.600859"><ele>1217.2</ele><time>2012-04-30T12:26:45.0000000+00:00</time></trkpt><trkpt lat="42.903118" lon="19.600891"><ele>1216.7</ele><time>2012-04-30T12:26:50.0000000+00:00</time></trkpt><trkpt lat="42.903061" lon="19.600981"><ele>1217.0</ele><time>2012-04-30T12:26:55.0000000+00:00</time></trkpt><trkpt lat="42.902943" lon="19.601088"><ele>1215.5</ele><time>2012-04-30T12:27:00.0000000+00:00</time></trkpt><trkpt lat="42.902908" lon="19.601173"><ele>1215.3</ele><time>2012-04-30T12:27:05.0000000+00:00</time></trkpt><trkpt lat="42.902832" lon="19.601282"><ele>1214.5</ele><time>2012-04-30T12:27:10.0000000+00:00</time></trkpt><trkpt lat="42.902748" lon="19.601402"><ele>1215.7</ele><time>2012-04-30T12:27:15.0000000+00:00</time></trkpt><trkpt lat="42.902679" lon="19.60148"><ele>1215.0</ele><time>2012-04-30T12:27:20.0000000+00:00</time></trkpt><trkpt lat="42.902637" lon="19.60157"><ele>1215.1</ele><time>2012-04-30T12:27:25.0000000+00:00</time></trkpt><trkpt lat="42.902603" lon="19.601667"><ele>1215.0</ele><time>2012-04-30T12:27:30.0000000+00:00</time></trkpt><trkpt lat="42.902557" lon="19.601744"><ele>1215.2</ele><time>2012-04-30T12:27:35.0000000+00:00</time></trkpt><trkpt lat="42.902512" lon="19.601839"><ele>1215.1</ele><time>2012-04-30T12:27:40.0000000+00:00</time></trkpt><trkpt lat="42.902489" lon="19.602007"><ele>1215.7</ele><time>2012-04-30T12:27:45.0000000+00:00</time></trkpt><trkpt lat="42.902451" lon="19.602083"><ele>1216.5</ele><time>2012-04-30T12:27:50.0000000+00:00</time></trkpt><trkpt lat="42.90242" lon="19.602215"><ele>1217.6</ele><time>2012-04-30T12:27:55.0000000+00:00</time></trkpt><trkpt lat="42.902416" lon="19.602301"><ele>1219.7</ele><time>2012-04-30T12:28:00.0000000+00:00</time></trkpt><trkpt lat="42.902412" lon="19.602428"><ele>1220.7</ele><time>2012-04-30T12:28:05.0000000+00:00</time></trkpt><trkpt lat="42.902382" lon="19.602501"><ele>1221.1</ele><time>2012-04-30T12:28:10.0000000+00:00</time></trkpt><trkpt lat="42.902367" lon="19.602608"><ele>1222.2</ele><time>2012-04-30T12:28:15.0000000+00:00</time></trkpt><trkpt lat="42.902355" lon="19.602724"><ele>1224.3</ele><time>2012-04-30T12:28:20.0000000+00:00</time></trkpt><trkpt lat="42.902332" lon="19.602839"><ele>1225.7</ele><time>2012-04-30T12:28:25.0000000+00:00</time></trkpt><trkpt lat="42.902306" lon="19.602974"><ele>1227.0</ele><time>2012-04-30T12:28:30.0000000+00:00</time></trkpt><trkpt lat="42.902294" lon="19.603125"><ele>1229.4</ele><time>2012-04-30T12:28:35.0000000+00:00</time></trkpt><trkpt lat="42.902287" lon="19.603243"><ele>1232.4</ele><time>2012-04-30T12:28:40.0000000+00:00</time></trkpt><trkpt lat="42.902325" lon="19.603388"><ele>1233.3</ele><time>2012-04-30T12:28:45.0000000+00:00</time></trkpt><trkpt lat="42.902271" lon="19.603472"><ele>1236.6</ele><time>2012-04-30T12:28:50.0000000+00:00</time></trkpt><trkpt lat="42.902222" lon="19.603502"><ele>1238.1</ele><time>2012-04-30T12:28:55.0000000+00:00</time></trkpt><trkpt lat="42.902184" lon="19.603483"><ele>1238.4</ele><time>2012-04-30T12:29:00.0000000+00:00</time></trkpt><trkpt lat="42.902184" lon="19.603483"><ele>1238.6</ele><time>2012-04-30T12:29:05.0000000+00:00</time></trkpt><trkpt lat="42.902176" lon="19.603485"><ele>1238.7</ele><time>2012-04-30T12:29:10.0000000+00:00</time></trkpt><trkpt lat="42.902176" lon="19.603544"><ele>1241.4</ele><time>2012-04-30T12:29:15.0000000+00:00</time></trkpt><trkpt lat="42.902153" lon="19.603586"><ele>1242.9</ele><time>2012-04-30T12:29:20.0000000+00:00</time></trkpt><trkpt lat="42.902153" lon="19.60364"><ele>1244.4</ele><time>2012-04-30T12:29:25.0000000+00:00</time></trkpt><trkpt lat="42.902145" lon="19.603687"><ele>1245.0</ele><time>2012-04-30T12:29:30.0000000+00:00</time></trkpt><trkpt lat="42.902149" lon="19.603695"><ele>1245.4</ele><time>2012-04-30T12:29:35.0000000+00:00</time></trkpt><trkpt lat="42.902145" lon="19.603748"><ele>1246.4</ele><time>2012-04-30T12:29:40.0000000+00:00</time></trkpt><trkpt lat="42.902145" lon="19.603752"><ele>1247.6</ele><time>2012-04-30T12:29:45.0000000+00:00</time></trkpt><trkpt lat="42.90213" lon="19.603762"><ele>1247.5</ele><time>2012-04-30T12:29:50.0000000+00:00</time></trkpt><trkpt lat="42.902134" lon="19.603773"><ele>1247.6</ele><time>2012-04-30T12:29:55.0000000+00:00</time></trkpt><trkpt lat="42.902134" lon="19.603771"><ele>1247.4</ele><time>2012-04-30T12:30:00.0000000+00:00</time></trkpt><trkpt lat="42.90213" lon="19.603773"><ele>1246.7</ele><time>2012-04-30T12:30:05.0000000+00:00</time></trkpt><trkpt lat="42.90213" lon="19.603777"><ele>1246.1</ele><time>2012-04-30T12:30:10.0000000+00:00</time></trkpt><trkpt lat="42.902126" lon="19.603783"><ele>1245.5</ele><time>2012-04-30T12:30:15.0000000+00:00</time></trkpt><trkpt lat="42.902096" lon="19.603781"><ele>1245.0</ele><time>2012-04-30T12:30:20.0000000+00:00</time></trkpt><trkpt lat="42.9021" lon="19.603754"><ele>1244.9</ele><time>2012-04-30T12:30:25.0000000+00:00</time></trkpt><trkpt lat="42.9021" lon="19.603758"><ele>1244.4</ele><time>2012-04-30T12:30:30.0000000+00:00</time></trkpt><trkpt lat="42.902096" lon="19.60376"><ele>1243.9</ele><time>2012-04-30T12:30:35.0000000+00:00</time></trkpt><trkpt lat="42.902096" lon="19.603764"><ele>1243.4</ele><time>2012-04-30T12:30:40.0000000+00:00</time></trkpt><trkpt lat="42.902096" lon="19.603764"><ele>1242.9</ele><time>2012-04-30T12:30:45.0000000+00:00</time></trkpt><trkpt lat="42.902096" lon="19.603765"><ele>1242.4</ele><time>2012-04-30T12:30:50.0000000+00:00</time></trkpt><trkpt lat="42.902096" lon="19.603767"><ele>1241.9</ele><time>2012-04-30T12:30:55.0000000+00:00</time></trkpt><trkpt lat="42.902096" lon="19.603769"><ele>1241.3</ele><time>2012-04-30T12:31:00.0000000+00:00</time></trkpt><trkpt lat="42.902096" lon="19.603769"><ele>1240.8</ele><time>2012-04-30T12:31:05.0000000+00:00</time></trkpt><trkpt lat="42.902096" lon="19.603769"><ele>1240.5</ele><time>2012-04-30T12:31:10.0000000+00:00</time></trkpt><trkpt lat="42.902096" lon="19.603769"><ele>1240.4</ele><time>2012-04-30T12:31:15.0000000+00:00</time></trkpt><trkpt lat="42.902096" lon="19.603769"><ele>1240.4</ele><time>2012-04-30T12:31:20.0000000+00:00</time></trkpt><trkpt lat="42.902096" lon="19.603769"><ele>1240.3</ele><time>2012-04-30T12:31:25.0000000+00:00</time></trkpt><trkpt lat="42.902096" lon="19.603769"><ele>1240.3</ele><time>2012-04-30T12:31:30.0000000+00:00</time></trkpt><trkpt lat="42.902096" lon="19.603769"><ele>1240.3</ele><time>2012-04-30T12:31:35.0000000+00:00</time></trkpt><trkpt lat="42.902096" lon="19.603767"><ele>1240.3</ele><time>2012-04-30T12:31:40.0000000+00:00</time></trkpt><trkpt lat="42.902096" lon="19.603764"><ele>1240.3</ele><time>2012-04-30T12:31:45.0000000+00:00</time></trkpt><trkpt lat="42.902096" lon="19.603762"><ele>1240.1</ele><time>2012-04-30T12:31:50.0000000+00:00</time></trkpt><trkpt lat="42.902096" lon="19.603762"><ele>1240.1</ele><time>2012-04-30T12:31:55.0000000+00:00</time></trkpt><trkpt lat="42.902096" lon="19.603762"><ele>1240.0</ele><time>2012-04-30T12:32:00.0000000+00:00</time></trkpt><trkpt lat="42.902096" lon="19.603762"><ele>1240.0</ele><time>2012-04-30T12:32:05.0000000+00:00</time></trkpt><trkpt lat="42.902096" lon="19.603762"><ele>1240.0</ele><time>2012-04-30T12:32:10.0000000+00:00</time></trkpt><trkpt lat="42.902096" lon="19.603762"><ele>1240.0</ele><time>2012-04-30T12:32:15.0000000+00:00</time></trkpt><trkpt lat="42.902096" lon="19.603762"><ele>1240.0</ele><time>2012-04-30T12:32:20.0000000+00:00</time></trkpt><trkpt lat="42.902096" lon="19.60376"><ele>1239.8</ele><time>2012-04-30T12:32:25.0000000+00:00</time></trkpt><trkpt lat="42.902096" lon="19.60376"><ele>1239.5</ele><time>2012-04-30T12:32:30.0000000+00:00</time></trkpt><trkpt lat="42.902092" lon="19.603762"><ele>1239.4</ele><time>2012-04-30T12:32:35.0000000+00:00</time></trkpt><trkpt lat="42.902092" lon="19.603762"><ele>1239.2</ele><time>2012-04-30T12:32:40.0000000+00:00</time></trkpt><trkpt lat="42.902092" lon="19.603762"><ele>1239.2</ele><time>2012-04-30T12:32:45.0000000+00:00</time></trkpt><trkpt lat="42.902092" lon="19.603762"><ele>1238.8</ele><time>2012-04-30T12:32:50.0000000+00:00</time></trkpt><trkpt lat="42.902088" lon="19.603764"><ele>1238.3</ele><time>2012-04-30T12:32:55.0000000+00:00</time></trkpt><trkpt lat="42.902092" lon="19.603765"><ele>1237.6</ele><time>2012-04-30T12:33:00.0000000+00:00</time></trkpt><trkpt lat="42.902092" lon="19.603767"><ele>1237.1</ele><time>2012-04-30T12:33:05.0000000+00:00</time></trkpt><trkpt lat="42.902092" lon="19.603771"><ele>1236.5</ele><time>2012-04-30T12:33:10.0000000+00:00</time></trkpt><trkpt lat="42.902096" lon="19.603775"><ele>1235.9</ele><time>2012-04-30T12:33:15.0000000+00:00</time></trkpt><trkpt lat="42.902096" lon="19.603781"><ele>1235.1</ele><time>2012-04-30T12:33:20.0000000+00:00</time></trkpt><trkpt lat="42.902096" lon="19.60379"><ele>1234.4</ele><time>2012-04-30T12:33:25.0000000+00:00</time></trkpt><trkpt lat="42.902096" lon="19.6038"><ele>1233.5</ele><time>2012-04-30T12:33:30.0000000+00:00</time></trkpt><trkpt lat="42.902096" lon="19.603807"><ele>1232.8</ele><time>2012-04-30T12:33:35.0000000+00:00</time></trkpt><trkpt lat="42.9021" lon="19.603815"><ele>1232.2</ele><time>2012-04-30T12:33:40.0000000+00:00</time></trkpt><trkpt lat="42.902107" lon="19.603827"><ele>1231.6</ele><time>2012-04-30T12:33:45.0000000+00:00</time></trkpt><trkpt lat="42.902119" lon="19.603838"><ele>1231.1</ele><time>2012-04-30T12:33:50.0000000+00:00</time></trkpt><trkpt lat="42.902126" lon="19.603851"><ele>1230.6</ele><time>2012-04-30T12:33:55.0000000+00:00</time></trkpt><trkpt lat="42.902172" lon="19.603889"><ele>1231.6</ele><time>2012-04-30T12:34:00.0000000+00:00</time></trkpt><trkpt lat="42.902199" lon="19.603926"><ele>1234.2</ele><time>2012-04-30T12:34:05.0000000+00:00</time></trkpt><trkpt lat="42.902187" lon="19.603901"><ele>1234.2</ele><time>2012-04-30T12:34:10.0000000+00:00</time></trkpt><trkpt lat="42.902187" lon="19.603897"><ele>1234.0</ele><time>2012-04-30T12:34:15.0000000+00:00</time></trkpt><trkpt lat="42.902187" lon="19.603886"><ele>1233.9</ele><time>2012-04-30T12:34:20.0000000+00:00</time></trkpt><trkpt lat="42.902184" lon="19.603884"><ele>1233.8</ele><time>2012-04-30T12:34:25.0000000+00:00</time></trkpt><trkpt lat="42.902176" lon="19.603884"><ele>1233.7</ele><time>2012-04-30T12:34:30.0000000+00:00</time></trkpt><trkpt lat="42.902172" lon="19.60388"><ele>1233.7</ele><time>2012-04-30T12:34:35.0000000+00:00</time></trkpt><trkpt lat="42.902168" lon="19.603876"><ele>1233.7</ele><time>2012-04-30T12:34:40.0000000+00:00</time></trkpt><trkpt lat="42.902164" lon="19.603872"><ele>1233.7</ele><time>2012-04-30T12:34:45.0000000+00:00</time></trkpt><trkpt lat="42.902153" lon="19.603859"><ele>1233.8</ele><time>2012-04-30T12:34:50.0000000+00:00</time></trkpt><trkpt lat="42.902142" lon="19.603815"><ele>1235.0</ele><time>2012-04-30T12:34:55.0000000+00:00</time></trkpt><trkpt lat="42.902126" lon="19.60379"><ele>1238.0</ele><time>2012-04-30T12:35:00.0000000+00:00</time></trkpt><trkpt lat="42.9021" lon="19.603762"><ele>1240.3</ele><time>2012-04-30T12:35:05.0000000+00:00</time></trkpt><trkpt lat="42.902084" lon="19.603729"><ele>1241.5</ele><time>2012-04-30T12:35:10.0000000+00:00</time></trkpt><trkpt lat="42.902058" lon="19.603748"><ele>1238.8</ele><time>2012-04-30T12:35:15.0000000+00:00</time></trkpt><trkpt lat="42.902065" lon="19.603756"><ele>1239.2</ele><time>2012-04-30T12:35:20.0000000+00:00</time></trkpt><trkpt lat="42.902077" lon="19.603794"><ele>1240.1</ele><time>2012-04-30T12:35:25.0000000+00:00</time></trkpt><trkpt lat="42.902088" lon="19.603832"><ele>1241.1</ele><time>2012-04-30T12:35:30.0000000+00:00</time></trkpt><trkpt lat="42.902081" lon="19.603821"><ele>1241.1</ele><time>2012-04-30T12:35:35.0000000+00:00</time></trkpt><trkpt lat="42.902065" lon="19.603769"><ele>1242.2</ele><time>2012-04-30T12:35:40.0000000+00:00</time></trkpt><trkpt lat="42.902061" lon="19.603731"><ele>1243.1</ele><time>2012-04-30T12:35:45.0000000+00:00</time></trkpt><trkpt lat="42.902058" lon="19.603708"><ele>1244.1</ele><time>2012-04-30T12:35:50.0000000+00:00</time></trkpt><trkpt lat="42.902046" lon="19.603678"><ele>1244.5</ele><time>2012-04-30T12:35:55.0000000+00:00</time></trkpt><trkpt lat="42.902023" lon="19.603662"><ele>1246.0</ele><time>2012-04-30T12:36:00.0000000+00:00</time></trkpt><trkpt lat="42.902016" lon="19.603655"><ele>1246.5</ele><time>2012-04-30T12:36:05.0000000+00:00</time></trkpt><trkpt lat="42.902004" lon="19.603647"><ele>1247.1</ele><time>2012-04-30T12:36:10.0000000+00:00</time></trkpt><trkpt lat="42.901997" lon="19.603645"><ele>1247.7</ele><time>2012-04-30T12:36:15.0000000+00:00</time></trkpt><trkpt lat="42.901993" lon="19.603643"><ele>1248.4</ele><time>2012-04-30T12:36:20.0000000+00:00</time></trkpt><trkpt lat="42.902042" lon="19.603704"><ele>1249.0</ele><time>2012-04-30T12:36:25.0000000+00:00</time></trkpt><trkpt lat="42.902084" lon="19.60372"><ele>1249.6</ele><time>2012-04-30T12:36:30.0000000+00:00</time></trkpt><trkpt lat="42.902088" lon="19.603716"><ele>1250.7</ele><time>2012-04-30T12:36:35.0000000+00:00</time></trkpt><trkpt lat="42.902092" lon="19.603716"><ele>1251.4</ele><time>2012-04-30T12:36:40.0000000+00:00</time></trkpt><trkpt lat="42.902088" lon="19.603714"><ele>1252.1</ele><time>2012-04-30T12:36:45.0000000+00:00</time></trkpt><trkpt lat="42.902084" lon="19.603716"><ele>1252.7</ele><time>2012-04-30T12:36:50.0000000+00:00</time></trkpt><trkpt lat="42.902084" lon="19.603718"><ele>1253.2</ele><time>2012-04-30T12:36:55.0000000+00:00</time></trkpt><trkpt lat="42.902084" lon="19.603716"><ele>1253.5</ele><time>2012-04-30T12:37:00.0000000+00:00</time></trkpt><trkpt lat="42.902084" lon="19.603716"><ele>1253.5</ele><time>2012-04-30T12:37:05.0000000+00:00</time></trkpt><trkpt lat="42.902084" lon="19.603718"><ele>1253.5</ele><time>2012-04-30T12:37:10.0000000+00:00</time></trkpt><trkpt lat="42.902084" lon="19.603718"><ele>1253.5</ele><time>2012-04-30T12:37:15.0000000+00:00</time></trkpt><trkpt lat="42.902077" lon="19.60372"><ele>1253.5</ele><time>2012-04-30T12:37:20.0000000+00:00</time></trkpt><trkpt lat="42.902065" lon="19.603727"><ele>1254.0</ele><time>2012-04-30T12:37:25.0000000+00:00</time></trkpt><trkpt lat="42.902061" lon="19.60372"><ele>1253.8</ele><time>2012-04-30T12:37:30.0000000+00:00</time></trkpt><trkpt lat="42.902039" lon="19.603632"><ele>1253.3</ele><time>2012-04-30T12:37:35.0000000+00:00</time></trkpt><trkpt lat="42.901989" lon="19.603573"><ele>1253.5</ele><time>2012-04-30T12:37:40.0000000+00:00</time></trkpt><trkpt lat="42.901913" lon="19.60355"><ele>1254.2</ele><time>2012-04-30T12:37:45.0000000+00:00</time></trkpt><trkpt lat="42.90181" lon="19.603533"><ele>1254.5</ele><time>2012-04-30T12:37:50.0000000+00:00</time></trkpt><trkpt lat="42.901718" lon="19.603518"><ele>1254.5</ele><time>2012-04-30T12:37:55.0000000+00:00</time></trkpt><trkpt lat="42.901649" lon="19.603525"><ele>1254.3</ele><time>2012-04-30T12:38:00.0000000+00:00</time></trkpt><trkpt lat="42.9016" lon="19.603582"><ele>1254.0</ele><time>2012-04-30T12:38:05.0000000+00:00</time></trkpt><trkpt lat="42.901558" lon="19.603609"><ele>1256.2</ele><time>2012-04-30T12:38:10.0000000+00:00</time></trkpt><trkpt lat="42.901485" lon="19.603662"><ele>1261.3</ele><time>2012-04-30T12:38:15.0000000+00:00</time></trkpt><trkpt lat="42.901485" lon="19.603703"><ele>1262.3</ele><time>2012-04-30T12:38:20.0000000+00:00</time></trkpt><trkpt lat="42.901485" lon="19.603704"><ele>1262.7</ele><time>2012-04-30T12:38:25.0000000+00:00</time></trkpt><trkpt lat="42.901482" lon="19.603704"><ele>1263.0</ele><time>2012-04-30T12:38:30.0000000+00:00</time></trkpt><trkpt lat="42.901482" lon="19.603704"><ele>1263.1</ele><time>2012-04-30T12:38:35.0000000+00:00</time></trkpt><trkpt lat="42.901482" lon="19.603704"><ele>1263.1</ele><time>2012-04-30T12:38:40.0000000+00:00</time></trkpt><trkpt lat="42.901459" lon="19.603754"><ele>1262.5</ele><time>2012-04-30T12:38:45.0000000+00:00</time></trkpt><trkpt lat="42.901409" lon="19.603838"><ele>1262.2</ele><time>2012-04-30T12:38:50.0000000+00:00</time></trkpt><trkpt lat="42.901329" lon="19.603874"><ele>1262.8</ele><time>2012-04-30T12:38:55.0000000+00:00</time></trkpt><trkpt lat="42.901272" lon="19.603937"><ele>1262.6</ele><time>2012-04-30T12:39:00.0000000+00:00</time></trkpt><trkpt lat="42.901207" lon="19.604012"><ele>1264.3</ele><time>2012-04-30T12:39:05.0000000+00:00</time></trkpt><trkpt lat="42.901157" lon="19.60408"><ele>1265.3</ele><time>2012-04-30T12:39:10.0000000+00:00</time></trkpt><trkpt lat="42.901115" lon="19.604139"><ele>1266.6</ele><time>2012-04-30T12:39:15.0000000+00:00</time></trkpt><trkpt lat="42.901062" lon="19.604223"><ele>1268.7</ele><time>2012-04-30T12:39:20.0000000+00:00</time></trkpt><trkpt lat="42.901012" lon="19.604343"><ele>1270.4</ele><time>2012-04-30T12:39:25.0000000+00:00</time></trkpt><trkpt lat="42.900932" lon="19.604467"><ele>1272.1</ele><time>2012-04-30T12:39:30.0000000+00:00</time></trkpt><trkpt lat="42.900887" lon="19.604609"><ele>1271.1</ele><time>2012-04-30T12:39:35.0000000+00:00</time></trkpt><trkpt lat="42.900806" lon="19.604757"><ele>1269.9</ele><time>2012-04-30T12:39:40.0000000+00:00</time></trkpt><trkpt lat="42.900753" lon="19.6049"><ele>1270.0</ele><time>2012-04-30T12:39:45.0000000+00:00</time></trkpt><trkpt lat="42.900688" lon="19.605047"><ele>1268.0</ele><time>2012-04-30T12:39:50.0000000+00:00</time></trkpt><trkpt lat="42.900669" lon="19.605175"><ele>1267.5</ele><time>2012-04-30T12:39:55.0000000+00:00</time></trkpt><trkpt lat="42.90062" lon="19.605345"><ele>1266.5</ele><time>2012-04-30T12:40:00.0000000+00:00</time></trkpt><trkpt lat="42.900558" lon="19.605459"><ele>1267.0</ele><time>2012-04-30T12:40:05.0000000+00:00</time></trkpt><trkpt lat="42.900482" lon="19.605577"><ele>1267.5</ele><time>2012-04-30T12:40:10.0000000+00:00</time></trkpt><trkpt lat="42.900448" lon="19.60565"><ele>1267.0</ele><time>2012-04-30T12:40:15.0000000+00:00</time></trkpt><trkpt lat="42.90041" lon="19.605728"><ele>1266.9</ele><time>2012-04-30T12:40:20.0000000+00:00</time></trkpt><trkpt lat="42.900398" lon="19.605833"><ele>1268.6</ele><time>2012-04-30T12:40:25.0000000+00:00</time></trkpt><trkpt lat="42.900402" lon="19.606012"><ele>1267.7</ele><time>2012-04-30T12:40:30.0000000+00:00</time></trkpt><trkpt lat="42.900402" lon="19.606106"><ele>1266.9</ele><time>2012-04-30T12:40:35.0000000+00:00</time></trkpt><trkpt lat="42.900402" lon="19.606199"><ele>1265.9</ele><time>2012-04-30T12:40:40.0000000+00:00</time></trkpt><trkpt lat="42.900433" lon="19.606285"><ele>1265.8</ele><time>2012-04-30T12:40:45.0000000+00:00</time></trkpt><trkpt lat="42.900425" lon="19.606337"><ele>1266.1</ele><time>2012-04-30T12:40:50.0000000+00:00</time></trkpt><trkpt lat="42.900436" lon="19.606483"><ele>1266.9</ele><time>2012-04-30T12:40:55.0000000+00:00</time></trkpt><trkpt lat="42.900471" lon="19.606577"><ele>1266.0</ele><time>2012-04-30T12:41:00.0000000+00:00</time></trkpt><trkpt lat="42.900398" lon="19.606569"><ele>1267.6</ele><time>2012-04-30T12:41:05.0000000+00:00</time></trkpt><trkpt lat="42.900349" lon="19.606562"><ele>1269.1</ele><time>2012-04-30T12:41:10.0000000+00:00</time></trkpt><trkpt lat="42.900276" lon="19.606529"><ele>1270.0</ele><time>2012-04-30T12:41:15.0000000+00:00</time></trkpt><trkpt lat="42.900177" lon="19.606506"><ele>1271.6</ele><time>2012-04-30T12:41:20.0000000+00:00</time></trkpt><trkpt lat="42.900131" lon="19.606535"><ele>1271.4</ele><time>2012-04-30T12:41:25.0000000+00:00</time></trkpt><trkpt lat="42.900085" lon="19.606583"><ele>1272.5</ele><time>2012-04-30T12:41:30.0000000+00:00</time></trkpt><trkpt lat="42.900036" lon="19.606646"><ele>1273.2</ele><time>2012-04-30T12:41:35.0000000+00:00</time></trkpt><trkpt lat="42.899952" lon="19.606718"><ele>1274.7</ele><time>2012-04-30T12:41:40.0000000+00:00</time></trkpt><trkpt lat="42.899864" lon="19.606771"><ele>1277.1</ele><time>2012-04-30T12:41:45.0000000+00:00</time></trkpt><trkpt lat="42.899818" lon="19.606836"><ele>1278.4</ele><time>2012-04-30T12:41:50.0000000+00:00</time></trkpt><trkpt lat="42.899742" lon="19.60693"><ele>1280.6</ele><time>2012-04-30T12:41:55.0000000+00:00</time></trkpt><trkpt lat="42.899712" lon="19.607"><ele>1281.9</ele><time>2012-04-30T12:42:00.0000000+00:00</time></trkpt><trkpt lat="42.899632" lon="19.607086"><ele>1283.0</ele><time>2012-04-30T12:42:05.0000000+00:00</time></trkpt><trkpt lat="42.89957" lon="19.607193"><ele>1283.6</ele><time>2012-04-30T12:42:10.0000000+00:00</time></trkpt><trkpt lat="42.899529" lon="19.60729"><ele>1283.6</ele><time>2012-04-30T12:42:15.0000000+00:00</time></trkpt><trkpt lat="42.89949" lon="19.607359"><ele>1284.9</ele><time>2012-04-30T12:42:20.0000000+00:00</time></trkpt><trkpt lat="42.899456" lon="19.607464"><ele>1284.7</ele><time>2012-04-30T12:42:25.0000000+00:00</time></trkpt><trkpt lat="42.899395" lon="19.607548"><ele>1286.8</ele><time>2012-04-30T12:42:30.0000000+00:00</time></trkpt><trkpt lat="42.899384" lon="19.607655"><ele>1288.6</ele><time>2012-04-30T12:42:35.0000000+00:00</time></trkpt><trkpt lat="42.899345" lon="19.607761"><ele>1288.3</ele><time>2012-04-30T12:42:40.0000000+00:00</time></trkpt><trkpt lat="42.899315" lon="19.60788"><ele>1287.8</ele><time>2012-04-30T12:42:45.0000000+00:00</time></trkpt><trkpt lat="42.899311" lon="19.60803"><ele>1290.0</ele><time>2012-04-30T12:42:50.0000000+00:00</time></trkpt><trkpt lat="42.899303" lon="19.60813"><ele>1292.5</ele><time>2012-04-30T12:42:55.0000000+00:00</time></trkpt><trkpt lat="42.899281" lon="19.608196"><ele>1295.0</ele><time>2012-04-30T12:43:00.0000000+00:00</time></trkpt><trkpt lat="42.899265" lon="19.608276"><ele>1296.0</ele><time>2012-04-30T12:43:05.0000000+00:00</time></trkpt><trkpt lat="42.899239" lon="19.608374"><ele>1296.2</ele><time>2012-04-30T12:43:10.0000000+00:00</time></trkpt><trkpt lat="42.899197" lon="19.608498"><ele>1296.9</ele><time>2012-04-30T12:43:15.0000000+00:00</time></trkpt><trkpt lat="42.899181" lon="19.608566"><ele>1297.1</ele><time>2012-04-30T12:43:20.0000000+00:00</time></trkpt><trkpt lat="42.899158" lon="19.608675"><ele>1298.3</ele><time>2012-04-30T12:43:25.0000000+00:00</time></trkpt><trkpt lat="42.899139" lon="19.608698"><ele>1299.5</ele><time>2012-04-30T12:43:30.0000000+00:00</time></trkpt><trkpt lat="42.899082" lon="19.608746"><ele>1299.6</ele><time>2012-04-30T12:43:35.0000000+00:00</time></trkpt><trkpt lat="42.899006" lon="19.608868"><ele>1299.1</ele><time>2012-04-30T12:43:40.0000000+00:00</time></trkpt><trkpt lat="42.898987" lon="19.608932"><ele>1300.6</ele><time>2012-04-30T12:43:45.0000000+00:00</time></trkpt><trkpt lat="42.898945" lon="19.609047"><ele>1301.7</ele><time>2012-04-30T12:43:50.0000000+00:00</time></trkpt><trkpt lat="42.898918" lon="19.609138"><ele>1300.6</ele><time>2012-04-30T12:43:55.0000000+00:00</time></trkpt><trkpt lat="42.898869" lon="19.609213"><ele>1301.2</ele><time>2012-04-30T12:44:00.0000000+00:00</time></trkpt><trkpt lat="42.898834" lon="19.609285"><ele>1301.1</ele><time>2012-04-30T12:44:05.0000000+00:00</time></trkpt><trkpt lat="42.898781" lon="19.609379"><ele>1300.8</ele><time>2012-04-30T12:44:10.0000000+00:00</time></trkpt><trkpt lat="42.898716" lon="19.609447"><ele>1300.5</ele><time>2012-04-30T12:44:15.0000000+00:00</time></trkpt><trkpt lat="42.898685" lon="19.609507"><ele>1302.0</ele><time>2012-04-30T12:44:20.0000000+00:00</time></trkpt><trkpt lat="42.898712" lon="19.609554"><ele>1302.0</ele><time>2012-04-30T12:44:25.0000000+00:00</time></trkpt><trkpt lat="42.898724" lon="19.609589"><ele>1303.5</ele><time>2012-04-30T12:44:30.0000000+00:00</time></trkpt><trkpt lat="42.898735" lon="19.609604"><ele>1304.5</ele><time>2012-04-30T12:44:35.0000000+00:00</time></trkpt><trkpt lat="42.898739" lon="19.60961"><ele>1304.7</ele><time>2012-04-30T12:44:40.0000000+00:00</time></trkpt><trkpt lat="42.898739" lon="19.60961"><ele>1304.8</ele><time>2012-04-30T12:44:45.0000000+00:00</time></trkpt><trkpt lat="42.898743" lon="19.60961"><ele>1304.7</ele><time>2012-04-30T12:44:50.0000000+00:00</time></trkpt><trkpt lat="42.898746" lon="19.609606"><ele>1304.7</ele><time>2012-04-30T12:44:55.0000000+00:00</time></trkpt><trkpt lat="42.898746" lon="19.609602"><ele>1304.7</ele><time>2012-04-30T12:45:00.0000000+00:00</time></trkpt><trkpt lat="42.898746" lon="19.60961"><ele>1304.7</ele><time>2012-04-30T12:45:05.0000000+00:00</time></trkpt><trkpt lat="42.898743" lon="19.609619"><ele>1304.5</ele><time>2012-04-30T12:45:10.0000000+00:00</time></trkpt><trkpt lat="42.898743" lon="19.609625"><ele>1304.5</ele><time>2012-04-30T12:45:15.0000000+00:00</time></trkpt><trkpt lat="42.898739" lon="19.609623"><ele>1304.4</ele><time>2012-04-30T12:45:20.0000000+00:00</time></trkpt><trkpt lat="42.898743" lon="19.609627"><ele>1304.4</ele><time>2012-04-30T12:45:25.0000000+00:00</time></trkpt><trkpt lat="42.898754" lon="19.609627"><ele>1304.3</ele><time>2012-04-30T12:45:30.0000000+00:00</time></trkpt><trkpt lat="42.898762" lon="19.609629"><ele>1304.3</ele><time>2012-04-30T12:45:35.0000000+00:00</time></trkpt><trkpt lat="42.898769" lon="19.609629"><ele>1304.3</ele><time>2012-04-30T12:45:40.0000000+00:00</time></trkpt><trkpt lat="42.898769" lon="19.609623"><ele>1304.5</ele><time>2012-04-30T12:45:45.0000000+00:00</time></trkpt><trkpt lat="42.898769" lon="19.609619"><ele>1304.5</ele><time>2012-04-30T12:45:50.0000000+00:00</time></trkpt><trkpt lat="42.898766" lon="19.609617"><ele>1304.6</ele><time>2012-04-30T12:45:55.0000000+00:00</time></trkpt><trkpt lat="42.898769" lon="19.609617"><ele>1304.7</ele><time>2012-04-30T12:46:00.0000000+00:00</time></trkpt><trkpt lat="42.898769" lon="19.609619"><ele>1304.7</ele><time>2012-04-30T12:46:05.0000000+00:00</time></trkpt><trkpt lat="42.898769" lon="19.609621"><ele>1304.7</ele><time>2012-04-30T12:46:10.0000000+00:00</time></trkpt><trkpt lat="42.898769" lon="19.609617"><ele>1304.7</ele><time>2012-04-30T12:46:15.0000000+00:00</time></trkpt><trkpt lat="42.898769" lon="19.609612"><ele>1304.7</ele><time>2012-04-30T12:46:20.0000000+00:00</time></trkpt><trkpt lat="42.898769" lon="19.609608"><ele>1304.7</ele><time>2012-04-30T12:46:25.0000000+00:00</time></trkpt><trkpt lat="42.898773" lon="19.609604"><ele>1304.7</ele><time>2012-04-30T12:46:30.0000000+00:00</time></trkpt><trkpt lat="42.898777" lon="19.609608"><ele>1304.7</ele><time>2012-04-30T12:46:35.0000000+00:00</time></trkpt><trkpt lat="42.898777" lon="19.60961"><ele>1304.8</ele><time>2012-04-30T12:46:40.0000000+00:00</time></trkpt><trkpt lat="42.898781" lon="19.60961"><ele>1304.8</ele><time>2012-04-30T12:46:45.0000000+00:00</time></trkpt><trkpt lat="42.898781" lon="19.609608"><ele>1304.9</ele><time>2012-04-30T12:46:50.0000000+00:00</time></trkpt><trkpt lat="42.898781" lon="19.60961"><ele>1304.8</ele><time>2012-04-30T12:46:55.0000000+00:00</time></trkpt><trkpt lat="42.898781" lon="19.60961"><ele>1304.8</ele><time>2012-04-30T12:47:00.0000000+00:00</time></trkpt><trkpt lat="42.898781" lon="19.609612"><ele>1304.8</ele><time>2012-04-30T12:47:05.0000000+00:00</time></trkpt><trkpt lat="42.898781" lon="19.609613"><ele>1304.7</ele><time>2012-04-30T12:47:10.0000000+00:00</time></trkpt><trkpt lat="42.898781" lon="19.609613"><ele>1304.7</ele><time>2012-04-30T12:47:15.0000000+00:00</time></trkpt><trkpt lat="42.898781" lon="19.609613"><ele>1304.8</ele><time>2012-04-30T12:47:20.0000000+00:00</time></trkpt><trkpt lat="42.898781" lon="19.609613"><ele>1304.8</ele><time>2012-04-30T12:47:25.0000000+00:00</time></trkpt><trkpt lat="42.898781" lon="19.609613"><ele>1304.8</ele><time>2012-04-30T12:47:30.0000000+00:00</time></trkpt><trkpt lat="42.898781" lon="19.609612"><ele>1304.9</ele><time>2012-04-30T12:47:35.0000000+00:00</time></trkpt><trkpt lat="42.898781" lon="19.609612"><ele>1305.0</ele><time>2012-04-30T12:47:40.0000000+00:00</time></trkpt><trkpt lat="42.898781" lon="19.609612"><ele>1305.0</ele><time>2012-04-30T12:47:45.0000000+00:00</time></trkpt><trkpt lat="42.898781" lon="19.609612"><ele>1305.0</ele><time>2012-04-30T12:47:50.0000000+00:00</time></trkpt><trkpt lat="42.898781" lon="19.609612"><ele>1305.0</ele><time>2012-04-30T12:47:55.0000000+00:00</time></trkpt><trkpt lat="42.898781" lon="19.609612"><ele>1305.1</ele><time>2012-04-30T12:48:00.0000000+00:00</time></trkpt><trkpt lat="42.898781" lon="19.60961"><ele>1305.3</ele><time>2012-04-30T12:48:05.0000000+00:00</time></trkpt><trkpt lat="42.898785" lon="19.60961"><ele>1305.4</ele><time>2012-04-30T12:48:10.0000000+00:00</time></trkpt><trkpt lat="42.898785" lon="19.60961"><ele>1305.4</ele><time>2012-04-30T12:48:15.0000000+00:00</time></trkpt><trkpt lat="42.898785" lon="19.609612"><ele>1305.4</ele><time>2012-04-30T12:48:20.0000000+00:00</time></trkpt><trkpt lat="42.898788" lon="19.609613"><ele>1305.4</ele><time>2012-04-30T12:48:25.0000000+00:00</time></trkpt><trkpt lat="42.898788" lon="19.609613"><ele>1305.4</ele><time>2012-04-30T12:48:30.0000000+00:00</time></trkpt><trkpt lat="42.898788" lon="19.609613"><ele>1305.5</ele><time>2012-04-30T12:48:35.0000000+00:00</time></trkpt><trkpt lat="42.898788" lon="19.609615"><ele>1305.5</ele><time>2012-04-30T12:48:40.0000000+00:00</time></trkpt><trkpt lat="42.898788" lon="19.609615"><ele>1305.5</ele><time>2012-04-30T12:48:45.0000000+00:00</time></trkpt><trkpt lat="42.898788" lon="19.609615"><ele>1305.6</ele><time>2012-04-30T12:48:50.0000000+00:00</time></trkpt><trkpt lat="42.898788" lon="19.609615"><ele>1305.7</ele><time>2012-04-30T12:48:55.0000000+00:00</time></trkpt><trkpt lat="42.898788" lon="19.609615"><ele>1305.8</ele><time>2012-04-30T12:49:00.0000000+00:00</time></trkpt><trkpt lat="42.898773" lon="19.609617"><ele>1307.7</ele><time>2012-04-30T12:49:05.0000000+00:00</time></trkpt><trkpt lat="42.898773" lon="19.609617"><ele>1307.9</ele><time>2012-04-30T12:49:10.0000000+00:00</time></trkpt><trkpt lat="42.898773" lon="19.609617"><ele>1308.0</ele><time>2012-04-30T12:49:15.0000000+00:00</time></trkpt><trkpt lat="42.898773" lon="19.609619"><ele>1308.0</ele><time>2012-04-30T12:49:20.0000000+00:00</time></trkpt><trkpt lat="42.898773" lon="19.609619"><ele>1308.0</ele><time>2012-04-30T12:49:25.0000000+00:00</time></trkpt><trkpt lat="42.898773" lon="19.609619"><ele>1308.0</ele><time>2012-04-30T12:49:30.0000000+00:00</time></trkpt><trkpt lat="42.898769" lon="19.609621"><ele>1308.1</ele><time>2012-04-30T12:49:35.0000000+00:00</time></trkpt><trkpt lat="42.898769" lon="19.609621"><ele>1308.1</ele><time>2012-04-30T12:49:40.0000000+00:00</time></trkpt><trkpt lat="42.898769" lon="19.609621"><ele>1308.2</ele><time>2012-04-30T12:49:45.0000000+00:00</time></trkpt><trkpt lat="42.898769" lon="19.609621"><ele>1308.2</ele><time>2012-04-30T12:49:50.0000000+00:00</time></trkpt><trkpt lat="42.898769" lon="19.609623"><ele>1308.2</ele><time>2012-04-30T12:49:55.0000000+00:00</time></trkpt><trkpt lat="42.898769" lon="19.609623"><ele>1308.2</ele><time>2012-04-30T12:50:00.0000000+00:00</time></trkpt><trkpt lat="42.898769" lon="19.609623"><ele>1308.1</ele><time>2012-04-30T12:50:05.0000000+00:00</time></trkpt><trkpt lat="42.898769" lon="19.609625"><ele>1308.1</ele><time>2012-04-30T12:50:10.0000000+00:00</time></trkpt><trkpt lat="42.898769" lon="19.609625"><ele>1308.3</ele><time>2012-04-30T12:50:15.0000000+00:00</time></trkpt><trkpt lat="42.898769" lon="19.609627"><ele>1308.4</ele><time>2012-04-30T12:50:20.0000000+00:00</time></trkpt><trkpt lat="42.898769" lon="19.609627"><ele>1308.5</ele><time>2012-04-30T12:50:25.0000000+00:00</time></trkpt><trkpt lat="42.898769" lon="19.609629"><ele>1308.5</ele><time>2012-04-30T12:50:30.0000000+00:00</time></trkpt><trkpt lat="42.898769" lon="19.609627"><ele>1308.5</ele><time>2012-04-30T12:50:35.0000000+00:00</time></trkpt><trkpt lat="42.898769" lon="19.609627"><ele>1308.6</ele><time>2012-04-30T12:50:40.0000000+00:00</time></trkpt><trkpt lat="42.898769" lon="19.609627"><ele>1308.6</ele><time>2012-04-30T12:50:45.0000000+00:00</time></trkpt><trkpt lat="42.898769" lon="19.609627"><ele>1308.7</ele><time>2012-04-30T12:50:50.0000000+00:00</time></trkpt><trkpt lat="42.898769" lon="19.609627"><ele>1308.8</ele><time>2012-04-30T12:50:55.0000000+00:00</time></trkpt><trkpt lat="42.898769" lon="19.609625"><ele>1308.9</ele><time>2012-04-30T12:51:00.0000000+00:00</time></trkpt><trkpt lat="42.898769" lon="19.609625"><ele>1309.0</ele><time>2012-04-30T12:51:05.0000000+00:00</time></trkpt><trkpt lat="42.898769" lon="19.609623"><ele>1309.0</ele><time>2012-04-30T12:51:10.0000000+00:00</time></trkpt><trkpt lat="42.898769" lon="19.609623"><ele>1309.1</ele><time>2012-04-30T12:51:15.0000000+00:00</time></trkpt><trkpt lat="42.898769" lon="19.609621"><ele>1309.1</ele><time>2012-04-30T12:51:20.0000000+00:00</time></trkpt><trkpt lat="42.898769" lon="19.609619"><ele>1309.1</ele><time>2012-04-30T12:51:25.0000000+00:00</time></trkpt><trkpt lat="42.898769" lon="19.609617"><ele>1309.1</ele><time>2012-04-30T12:51:30.0000000+00:00</time></trkpt><trkpt lat="42.898773" lon="19.609613"><ele>1309.1</ele><time>2012-04-30T12:51:35.0000000+00:00</time></trkpt><trkpt lat="42.898773" lon="19.609613"><ele>1309.0</ele><time>2012-04-30T12:51:40.0000000+00:00</time></trkpt><trkpt lat="42.898773" lon="19.609613"><ele>1309.0</ele><time>2012-04-30T12:51:45.0000000+00:00</time></trkpt><trkpt lat="42.898773" lon="19.609613"><ele>1309.0</ele><time>2012-04-30T12:51:50.0000000+00:00</time></trkpt><trkpt lat="42.898777" lon="19.609612"><ele>1309.0</ele><time>2012-04-30T12:51:55.0000000+00:00</time></trkpt><trkpt lat="42.898808" lon="19.609594"><ele>1309.0</ele><time>2012-04-30T12:52:00.0000000+00:00</time></trkpt><trkpt lat="42.898872" lon="19.609537"><ele>1308.3</ele><time>2012-04-30T12:52:05.0000000+00:00</time></trkpt><trkpt lat="42.898968" lon="19.609461"><ele>1308.7</ele><time>2012-04-30T12:52:10.0000000+00:00</time></trkpt><trkpt lat="42.899002" lon="19.60948"><ele>1310.1</ele><time>2012-04-30T12:52:15.0000000+00:00</time></trkpt><trkpt lat="42.899036" lon="19.609419"><ele>1309.9</ele><time>2012-04-30T12:52:20.0000000+00:00</time></trkpt><trkpt lat="42.899067" lon="19.609434"><ele>1309.3</ele><time>2012-04-30T12:52:25.0000000+00:00</time></trkpt><trkpt lat="42.899082" lon="19.609423"><ele>1309.4</ele><time>2012-04-30T12:52:30.0000000+00:00</time></trkpt><trkpt lat="42.899113" lon="19.609417"><ele>1309.3</ele><time>2012-04-30T12:52:35.0000000+00:00</time></trkpt><trkpt lat="42.899197" lon="19.609335"><ele>1309.6</ele><time>2012-04-30T12:52:40.0000000+00:00</time></trkpt><trkpt lat="42.899292" lon="19.609247"><ele>1310.4</ele><time>2012-04-30T12:52:45.0000000+00:00</time></trkpt><trkpt lat="42.899418" lon="19.609222"><ele>1314.0</ele><time>2012-04-30T12:52:50.0000000+00:00</time></trkpt><trkpt lat="42.899509" lon="19.609236"><ele>1313.9</ele><time>2012-04-30T12:52:55.0000000+00:00</time></trkpt><trkpt lat="42.899593" lon="19.609203"><ele>1312.2</ele><time>2012-04-30T12:53:00.0000000+00:00</time></trkpt><trkpt lat="42.899662" lon="19.609148"><ele>1311.4</ele><time>2012-04-30T12:53:05.0000000+00:00</time></trkpt><trkpt lat="42.899719" lon="19.609125"><ele>1311.0</ele><time>2012-04-30T12:53:10.0000000+00:00</time></trkpt><trkpt lat="42.899757" lon="19.609112"><ele>1310.5</ele><time>2012-04-30T12:53:15.0000000+00:00</time></trkpt><trkpt lat="42.899807" lon="19.609076"><ele>1310.7</ele><time>2012-04-30T12:53:20.0000000+00:00</time></trkpt><trkpt lat="42.899918" lon="19.608984"><ele>1311.6</ele><time>2012-04-30T12:53:25.0000000+00:00</time></trkpt><trkpt lat="42.900043" lon="19.608847"><ele>1311.9</ele><time>2012-04-30T12:53:30.0000000+00:00</time></trkpt><trkpt lat="42.900208" lon="19.608728"><ele>1314.5</ele><time>2012-04-30T12:53:35.0000000+00:00</time></trkpt><trkpt lat="42.900322" lon="19.608498"><ele>1313.7</ele><time>2012-04-30T12:53:40.0000000+00:00</time></trkpt><trkpt lat="42.900356" lon="19.608442"><ele>1313.8</ele><time>2012-04-30T12:53:45.0000000+00:00</time></trkpt><trkpt lat="42.900379" lon="19.608467"><ele>1314.0</ele><time>2012-04-30T12:53:50.0000000+00:00</time></trkpt><trkpt lat="42.900417" lon="19.608469"><ele>1313.7</ele><time>2012-04-30T12:53:55.0000000+00:00</time></trkpt><trkpt lat="42.900417" lon="19.608583"><ele>1313.2</ele><time>2012-04-30T12:54:00.0000000+00:00</time></trkpt><trkpt lat="42.900433" lon="19.608685"><ele>1313.3</ele><time>2012-04-30T12:54:05.0000000+00:00</time></trkpt><trkpt lat="42.900425" lon="19.608751"><ele>1314.1</ele><time>2012-04-30T12:54:10.0000000+00:00</time></trkpt><trkpt lat="42.900398" lon="19.608809"><ele>1315.0</ele><time>2012-04-30T12:54:15.0000000+00:00</time></trkpt><trkpt lat="42.900372" lon="19.608879"><ele>1316.2</ele><time>2012-04-30T12:54:20.0000000+00:00</time></trkpt><trkpt lat="42.900341" lon="19.608952"><ele>1317.2</ele><time>2012-04-30T12:54:25.0000000+00:00</time></trkpt><trkpt lat="42.900333" lon="19.60906"><ele>1318.8</ele><time>2012-04-30T12:54:30.0000000+00:00</time></trkpt><trkpt lat="42.900311" lon="19.609144"><ele>1319.4</ele><time>2012-04-30T12:54:35.0000000+00:00</time></trkpt><trkpt lat="42.900242" lon="19.609219"><ele>1321.8</ele><time>2012-04-30T12:54:40.0000000+00:00</time></trkpt><trkpt lat="42.900219" lon="19.609295"><ele>1323.0</ele><time>2012-04-30T12:54:45.0000000+00:00</time></trkpt><trkpt lat="42.900181" lon="19.60935"><ele>1324.6</ele><time>2012-04-30T12:54:50.0000000+00:00</time></trkpt><trkpt lat="42.900135" lon="19.609434"><ele>1326.1</ele><time>2012-04-30T12:54:55.0000000+00:00</time></trkpt><trkpt lat="42.900124" lon="19.609566"><ele>1327.9</ele><time>2012-04-30T12:55:00.0000000+00:00</time></trkpt><trkpt lat="42.900089" lon="19.609701"><ele>1329.6</ele><time>2012-04-30T12:55:05.0000000+00:00</time></trkpt><trkpt lat="42.900085" lon="19.609806"><ele>1331.1</ele><time>2012-04-30T12:55:10.0000000+00:00</time></trkpt><trkpt lat="42.900078" lon="19.609892"><ele>1332.4</ele><time>2012-04-30T12:55:15.0000000+00:00</time></trkpt><trkpt lat="42.900063" lon="19.609957"><ele>1333.7</ele><time>2012-04-30T12:55:20.0000000+00:00</time></trkpt><trkpt lat="42.900055" lon="19.610031"><ele>1335.0</ele><time>2012-04-30T12:55:25.0000000+00:00</time></trkpt><trkpt lat="42.900009" lon="19.610125"><ele>1336.4</ele><time>2012-04-30T12:55:30.0000000+00:00</time></trkpt><trkpt lat="42.899998" lon="19.61017"><ele>1337.8</ele><time>2012-04-30T12:55:35.0000000+00:00</time></trkpt><trkpt lat="42.899967" lon="19.610157"><ele>1339.0</ele><time>2012-04-30T12:55:40.0000000+00:00</time></trkpt><trkpt lat="42.899952" lon="19.610159"><ele>1339.3</ele><time>2012-04-30T12:55:45.0000000+00:00</time></trkpt><trkpt lat="42.899925" lon="19.610172"><ele>1339.3</ele><time>2012-04-30T12:55:50.0000000+00:00</time></trkpt><trkpt lat="42.899914" lon="19.610182"><ele>1339.3</ele><time>2012-04-30T12:55:55.0000000+00:00</time></trkpt><trkpt lat="42.899895" lon="19.610201"><ele>1339.4</ele><time>2012-04-30T12:56:00.0000000+00:00</time></trkpt><trkpt lat="42.899876" lon="19.610233"><ele>1339.5</ele><time>2012-04-30T12:56:05.0000000+00:00</time></trkpt><trkpt lat="42.899784" lon="19.610275"><ele>1339.7</ele><time>2012-04-30T12:56:10.0000000+00:00</time></trkpt><trkpt lat="42.899727" lon="19.610275"><ele>1339.6</ele><time>2012-04-30T12:56:15.0000000+00:00</time></trkpt><trkpt lat="42.899662" lon="19.610292"><ele>1339.3</ele><time>2012-04-30T12:56:20.0000000+00:00</time></trkpt><trkpt lat="42.899597" lon="19.610275"><ele>1338.3</ele><time>2012-04-30T12:56:25.0000000+00:00</time></trkpt><trkpt lat="42.899548" lon="19.610279"><ele>1338.0</ele><time>2012-04-30T12:56:30.0000000+00:00</time></trkpt><trkpt lat="42.899509" lon="19.610321"><ele>1337.9</ele><time>2012-04-30T12:56:35.0000000+00:00</time></trkpt><trkpt lat="42.899433" lon="19.610363"><ele>1337.8</ele><time>2012-04-30T12:56:40.0000000+00:00</time></trkpt><trkpt lat="42.899334" lon="19.610344"><ele>1337.4</ele><time>2012-04-30T12:56:45.0000000+00:00</time></trkpt><trkpt lat="42.899288" lon="19.610411"><ele>1337.0</ele><time>2012-04-30T12:56:50.0000000+00:00</time></trkpt><trkpt lat="42.899227" lon="19.610445"><ele>1336.4</ele><time>2012-04-30T12:56:55.0000000+00:00</time></trkpt><trkpt lat="42.899147" lon="19.610497"><ele>1336.0</ele><time>2012-04-30T12:57:00.0000000+00:00</time></trkpt><trkpt lat="42.899067" lon="19.610544"><ele>1335.9</ele><time>2012-04-30T12:57:05.0000000+00:00</time></trkpt><trkpt lat="42.899014" lon="19.610649"><ele>1335.8</ele><time>2012-04-30T12:57:10.0000000+00:00</time></trkpt><trkpt lat="42.898949" lon="19.610685"><ele>1336.0</ele><time>2012-04-30T12:57:15.0000000+00:00</time></trkpt><trkpt lat="42.898903" lon="19.610739"><ele>1336.4</ele><time>2012-04-30T12:57:20.0000000+00:00</time></trkpt><trkpt lat="42.898865" lon="19.610821"><ele>1336.9</ele><time>2012-04-30T12:57:25.0000000+00:00</time></trkpt><trkpt lat="42.898811" lon="19.610868"><ele>1337.9</ele><time>2012-04-30T12:57:30.0000000+00:00</time></trkpt><trkpt lat="42.898788" lon="19.610962"><ele>1338.8</ele><time>2012-04-30T12:57:35.0000000+00:00</time></trkpt><trkpt lat="42.898754" lon="19.611065"><ele>1340.0</ele><time>2012-04-30T12:57:40.0000000+00:00</time></trkpt><trkpt lat="42.898724" lon="19.611149"><ele>1341.4</ele><time>2012-04-30T12:57:45.0000000+00:00</time></trkpt><trkpt lat="42.898701" lon="19.611208"><ele>1343.0</ele><time>2012-04-30T12:57:50.0000000+00:00</time></trkpt><trkpt lat="42.898674" lon="19.611294"><ele>1344.4</ele><time>2012-04-30T12:57:55.0000000+00:00</time></trkpt><trkpt lat="42.898636" lon="19.611359"><ele>1346.4</ele><time>2012-04-30T12:58:00.0000000+00:00</time></trkpt><trkpt lat="42.89859" lon="19.611439"><ele>1348.7</ele><time>2012-04-30T12:58:05.0000000+00:00</time></trkpt><trkpt lat="42.898556" lon="19.611532"><ele>1350.4</ele><time>2012-04-30T12:58:10.0000000+00:00</time></trkpt><trkpt lat="42.898521" lon="19.611614"><ele>1352.1</ele><time>2012-04-30T12:58:15.0000000+00:00</time></trkpt><trkpt lat="42.898483" lon="19.611662"><ele>1353.5</ele><time>2012-04-30T12:58:20.0000000+00:00</time></trkpt><trkpt lat="42.898468" lon="19.611748"><ele>1354.9</ele><time>2012-04-30T12:58:25.0000000+00:00</time></trkpt><trkpt lat="42.898426" lon="19.611864"><ele>1356.7</ele><time>2012-04-30T12:58:30.0000000+00:00</time></trkpt><trkpt lat="42.898418" lon="19.611958"><ele>1358.2</ele><time>2012-04-30T12:58:35.0000000+00:00</time></trkpt><trkpt lat="42.898373" lon="19.612049"><ele>1359.7</ele><time>2012-04-30T12:58:40.0000000+00:00</time></trkpt><trkpt lat="42.898346" lon="19.612125"><ele>1361.0</ele><time>2012-04-30T12:58:45.0000000+00:00</time></trkpt><trkpt lat="42.898335" lon="19.612221"><ele>1362.4</ele><time>2012-04-30T12:58:50.0000000+00:00</time></trkpt><trkpt lat="42.8983" lon="19.612337"><ele>1363.9</ele><time>2012-04-30T12:58:55.0000000+00:00</time></trkpt><trkpt lat="42.898293" lon="19.612465"><ele>1365.3</ele><time>2012-04-30T12:59:00.0000000+00:00</time></trkpt><trkpt lat="42.898277" lon="19.612526"><ele>1366.7</ele><time>2012-04-30T12:59:05.0000000+00:00</time></trkpt><trkpt lat="42.898258" lon="19.61261"><ele>1368.0</ele><time>2012-04-30T12:59:10.0000000+00:00</time></trkpt><trkpt lat="42.898224" lon="19.612654"><ele>1369.4</ele><time>2012-04-30T12:59:15.0000000+00:00</time></trkpt><trkpt lat="42.898159" lon="19.612724"><ele>1370.8</ele><time>2012-04-30T12:59:20.0000000+00:00</time></trkpt><trkpt lat="42.898087" lon="19.612745"><ele>1372.3</ele><time>2012-04-30T12:59:25.0000000+00:00</time></trkpt><trkpt lat="42.898041" lon="19.612722"><ele>1373.5</ele><time>2012-04-30T12:59:30.0000000+00:00</time></trkpt><trkpt lat="42.89798" lon="19.612686"><ele>1374.7</ele><time>2012-04-30T12:59:35.0000000+00:00</time></trkpt><trkpt lat="42.897915" lon="19.612694"><ele>1376.0</ele><time>2012-04-30T12:59:40.0000000+00:00</time></trkpt><trkpt lat="42.897831" lon="19.612753"><ele>1377.5</ele><time>2012-04-30T12:59:45.0000000+00:00</time></trkpt><trkpt lat="42.897804" lon="19.612822"><ele>1378.1</ele><time>2012-04-30T12:59:50.0000000+00:00</time></trkpt><trkpt lat="42.89777" lon="19.612888"><ele>1378.6</ele><time>2012-04-30T12:59:55.0000000+00:00</time></trkpt><trkpt lat="42.89772" lon="19.612993"><ele>1378.9</ele><time>2012-04-30T13:00:00.0000000+00:00</time></trkpt><trkpt lat="42.897717" lon="19.613083"><ele>1379.5</ele><time>2012-04-30T13:00:05.0000000+00:00</time></trkpt><trkpt lat="42.897659" lon="19.61315"><ele>1379.7</ele><time>2012-04-30T13:00:10.0000000+00:00</time></trkpt><trkpt lat="42.897568" lon="19.613243"><ele>1379.9</ele><time>2012-04-30T13:00:15.0000000+00:00</time></trkpt><trkpt lat="42.897491" lon="19.613264"><ele>1380.1</ele><time>2012-04-30T13:00:20.0000000+00:00</time></trkpt><trkpt lat="42.897442" lon="19.61322"><ele>1380.4</ele><time>2012-04-30T13:00:25.0000000+00:00</time></trkpt><trkpt lat="42.897362" lon="19.613213"><ele>1380.5</ele><time>2012-04-30T13:00:30.0000000+00:00</time></trkpt><trkpt lat="42.897251" lon="19.613178"><ele>1381.1</ele><time>2012-04-30T13:00:35.0000000+00:00</time></trkpt><trkpt lat="42.897156" lon="19.613146"><ele>1381.8</ele><time>2012-04-30T13:00:40.0000000+00:00</time></trkpt><trkpt lat="42.897068" lon="19.613144"><ele>1382.5</ele><time>2012-04-30T13:00:45.0000000+00:00</time></trkpt><trkpt lat="42.897022" lon="19.613199"><ele>1383.7</ele><time>2012-04-30T13:00:50.0000000+00:00</time></trkpt><trkpt lat="42.897022" lon="19.613279"><ele>1385.0</ele><time>2012-04-30T13:00:55.0000000+00:00</time></trkpt><trkpt lat="42.896992" lon="19.613331"><ele>1386.5</ele><time>2012-04-30T13:01:00.0000000+00:00</time></trkpt><trkpt lat="42.896961" lon="19.613411"><ele>1387.7</ele><time>2012-04-30T13:01:05.0000000+00:00</time></trkpt><trkpt lat="42.896942" lon="19.613535"><ele>1388.9</ele><time>2012-04-30T13:01:10.0000000+00:00</time></trkpt><trkpt lat="42.896935" lon="19.613621"><ele>1390.0</ele><time>2012-04-30T13:01:15.0000000+00:00</time></trkpt><trkpt lat="42.896919" lon="19.613716"><ele>1390.8</ele><time>2012-04-30T13:01:20.0000000+00:00</time></trkpt><trkpt lat="42.896908" lon="19.613802"><ele>1391.8</ele><time>2012-04-30T13:01:25.0000000+00:00</time></trkpt><trkpt lat="42.896885" lon="19.613886"><ele>1392.4</ele><time>2012-04-30T13:01:30.0000000+00:00</time></trkpt><trkpt lat="42.896866" lon="19.61404"><ele>1393.6</ele><time>2012-04-30T13:01:35.0000000+00:00</time></trkpt><trkpt lat="42.896847" lon="19.614174"><ele>1394.7</ele><time>2012-04-30T13:01:40.0000000+00:00</time></trkpt><trkpt lat="42.896816" lon="19.614265"><ele>1395.6</ele><time>2012-04-30T13:01:45.0000000+00:00</time></trkpt><trkpt lat="42.89677" lon="19.614368"><ele>1396.2</ele><time>2012-04-30T13:01:50.0000000+00:00</time></trkpt><trkpt lat="42.896729" lon="19.614491"><ele>1397.0</ele><time>2012-04-30T13:01:55.0000000+00:00</time></trkpt><trkpt lat="42.896698" lon="19.614592"><ele>1397.6</ele><time>2012-04-30T13:02:00.0000000+00:00</time></trkpt><trkpt lat="42.896675" lon="19.614666"><ele>1397.8</ele><time>2012-04-30T13:02:05.0000000+00:00</time></trkpt><trkpt lat="42.896664" lon="19.61474"><ele>1398.1</ele><time>2012-04-30T13:02:10.0000000+00:00</time></trkpt><trkpt lat="42.896652" lon="19.614832"><ele>1397.8</ele><time>2012-04-30T13:02:15.0000000+00:00</time></trkpt><trkpt lat="42.896641" lon="19.61492"><ele>1397.7</ele><time>2012-04-30T13:02:20.0000000+00:00</time></trkpt><trkpt lat="42.896626" lon="19.615013"><ele>1397.3</ele><time>2012-04-30T13:02:25.0000000+00:00</time></trkpt><trkpt lat="42.896614" lon="19.615086"><ele>1398.2</ele><time>2012-04-30T13:02:30.0000000+00:00</time></trkpt><trkpt lat="42.89661" lon="19.615145"><ele>1399.0</ele><time>2012-04-30T13:02:35.0000000+00:00</time></trkpt><trkpt lat="42.89661" lon="19.615158"><ele>1398.2</ele><time>2012-04-30T13:02:40.0000000+00:00</time></trkpt><trkpt lat="42.896614" lon="19.615158"><ele>1398.1</ele><time>2012-04-30T13:02:45.0000000+00:00</time></trkpt><trkpt lat="42.896614" lon="19.615158"><ele>1398.2</ele><time>2012-04-30T13:02:50.0000000+00:00</time></trkpt><trkpt lat="42.896614" lon="19.615158"><ele>1398.1</ele><time>2012-04-30T13:02:55.0000000+00:00</time></trkpt><trkpt lat="42.896614" lon="19.61516"><ele>1398.1</ele><time>2012-04-30T13:03:00.0000000+00:00</time></trkpt><trkpt lat="42.896622" lon="19.615191"><ele>1398.7</ele><time>2012-04-30T13:03:05.0000000+00:00</time></trkpt><trkpt lat="42.896652" lon="19.615124"><ele>1399.0</ele><time>2012-04-30T13:03:10.0000000+00:00</time></trkpt><trkpt lat="42.896698" lon="19.61504"><ele>1400.2</ele><time>2012-04-30T13:03:15.0000000+00:00</time></trkpt><trkpt lat="42.896755" lon="19.614962"><ele>1401.0</ele><time>2012-04-30T13:03:20.0000000+00:00</time></trkpt><trkpt lat="42.896805" lon="19.614927"><ele>1401.9</ele><time>2012-04-30T13:03:25.0000000+00:00</time></trkpt><trkpt lat="42.896881" lon="19.614897"><ele>1402.3</ele><time>2012-04-30T13:03:30.0000000+00:00</time></trkpt><trkpt lat="42.896942" lon="19.614864"><ele>1403.1</ele><time>2012-04-30T13:03:35.0000000+00:00</time></trkpt><trkpt lat="42.896996" lon="19.614826"><ele>1404.0</ele><time>2012-04-30T13:03:40.0000000+00:00</time></trkpt><trkpt lat="42.897015" lon="19.614769"><ele>1405.3</ele><time>2012-04-30T13:03:45.0000000+00:00</time></trkpt><trkpt lat="42.897049" lon="19.614689"><ele>1407.1</ele><time>2012-04-30T13:03:50.0000000+00:00</time></trkpt><trkpt lat="42.897068" lon="19.614639"><ele>1408.7</ele><time>2012-04-30T13:03:55.0000000+00:00</time></trkpt><trkpt lat="42.897133" lon="19.614582"><ele>1410.5</ele><time>2012-04-30T13:04:00.0000000+00:00</time></trkpt><trkpt lat="42.897152" lon="19.614511"><ele>1411.8</ele><time>2012-04-30T13:04:05.0000000+00:00</time></trkpt><trkpt lat="42.897167" lon="19.614437"><ele>1413.1</ele><time>2012-04-30T13:04:10.0000000+00:00</time></trkpt><trkpt lat="42.897243" lon="19.614347"><ele>1414.6</ele><time>2012-04-30T13:04:15.0000000+00:00</time></trkpt><trkpt lat="42.897301" lon="19.614302"><ele>1416.0</ele><time>2012-04-30T13:04:20.0000000+00:00</time></trkpt><trkpt lat="42.897354" lon="19.614225"><ele>1417.4</ele><time>2012-04-30T13:04:25.0000000+00:00</time></trkpt><trkpt lat="42.897411" lon="19.614109"><ele>1418.7</ele><time>2012-04-30T13:04:30.0000000+00:00</time></trkpt><trkpt lat="42.897469" lon="19.614126"><ele>1420.0</ele><time>2012-04-30T13:04:35.0000000+00:00</time></trkpt><trkpt lat="42.897537" lon="19.614141"><ele>1421.2</ele><time>2012-04-30T13:04:40.0000000+00:00</time></trkpt><trkpt lat="42.897617" lon="19.614122"><ele>1422.7</ele><time>2012-04-30T13:04:45.0000000+00:00</time></trkpt><trkpt lat="42.897694" lon="19.614124"><ele>1424.4</ele><time>2012-04-30T13:04:50.0000000+00:00</time></trkpt><trkpt lat="42.897755" lon="19.614109"><ele>1425.8</ele><time>2012-04-30T13:04:55.0000000+00:00</time></trkpt><trkpt lat="42.897804" lon="19.614172"><ele>1427.7</ele><time>2012-04-30T13:05:00.0000000+00:00</time></trkpt><trkpt lat="42.897896" lon="19.614206"><ele>1430.5</ele><time>2012-04-30T13:05:05.0000000+00:00</time></trkpt><trkpt lat="42.897938" lon="19.614201"><ele>1432.8</ele><time>2012-04-30T13:05:10.0000000+00:00</time></trkpt><trkpt lat="42.897995" lon="19.614143"><ele>1434.3</ele><time>2012-04-30T13:05:15.0000000+00:00</time></trkpt><trkpt lat="42.898098" lon="19.614077"><ele>1435.7</ele><time>2012-04-30T13:05:20.0000000+00:00</time></trkpt><trkpt lat="42.89819" lon="19.613977"><ele>1436.8</ele><time>2012-04-30T13:05:25.0000000+00:00</time></trkpt><trkpt lat="42.89827" lon="19.613932"><ele>1438.2</ele><time>2012-04-30T13:05:30.0000000+00:00</time></trkpt><trkpt lat="42.898327" lon="19.613937"><ele>1440.9</ele><time>2012-04-30T13:05:35.0000000+00:00</time></trkpt><trkpt lat="42.898335" lon="19.614017"><ele>1442.0</ele><time>2012-04-30T13:05:40.0000000+00:00</time></trkpt><trkpt lat="42.898331" lon="19.614038"><ele>1442.4</ele><time>2012-04-30T13:05:45.0000000+00:00</time></trkpt><trkpt lat="42.898331" lon="19.614048"><ele>1442.5</ele><time>2012-04-30T13:05:50.0000000+00:00</time></trkpt><trkpt lat="42.898369" lon="19.614067"><ele>1442.7</ele><time>2012-04-30T13:05:55.0000000+00:00</time></trkpt><trkpt lat="42.898403" lon="19.614124"><ele>1442.8</ele><time>2012-04-30T13:06:00.0000000+00:00</time></trkpt><trkpt lat="42.898411" lon="19.614157"><ele>1442.8</ele><time>2012-04-30T13:06:05.0000000+00:00</time></trkpt><trkpt lat="42.89835" lon="19.614031"><ele>1443.0</ele><time>2012-04-30T13:06:10.0000000+00:00</time></trkpt><trkpt lat="42.89835" lon="19.61404"><ele>1443.1</ele><time>2012-04-30T13:06:15.0000000+00:00</time></trkpt><trkpt lat="42.898392" lon="19.614058"><ele>1442.8</ele><time>2012-04-30T13:06:20.0000000+00:00</time></trkpt><trkpt lat="42.898422" lon="19.61408"><ele>1443.0</ele><time>2012-04-30T13:06:25.0000000+00:00</time></trkpt><trkpt lat="42.898472" lon="19.614115"><ele>1442.9</ele><time>2012-04-30T13:06:30.0000000+00:00</time></trkpt><trkpt lat="42.898533" lon="19.614153"><ele>1443.6</ele><time>2012-04-30T13:06:35.0000000+00:00</time></trkpt><trkpt lat="42.898552" lon="19.614164"><ele>1444.3</ele><time>2012-04-30T13:06:40.0000000+00:00</time></trkpt><trkpt lat="42.898575" lon="19.614155"><ele>1444.4</ele><time>2012-04-30T13:06:45.0000000+00:00</time></trkpt><trkpt lat="42.898682" lon="19.614149"><ele>1444.9</ele><time>2012-04-30T13:06:50.0000000+00:00</time></trkpt><trkpt lat="42.898735" lon="19.614061"><ele>1445.4</ele><time>2012-04-30T13:06:55.0000000+00:00</time></trkpt><trkpt lat="42.898808" lon="19.613991"><ele>1445.7</ele><time>2012-04-30T13:07:00.0000000+00:00</time></trkpt><trkpt lat="42.898865" lon="19.613909"><ele>1446.1</ele><time>2012-04-30T13:07:05.0000000+00:00</time></trkpt><trkpt lat="42.898941" lon="19.613909"><ele>1446.8</ele><time>2012-04-30T13:07:10.0000000+00:00</time></trkpt><trkpt lat="42.898991" lon="19.613817"><ele>1447.4</ele><time>2012-04-30T13:07:15.0000000+00:00</time></trkpt><trkpt lat="42.898987" lon="19.6138"><ele>1447.8</ele><time>2012-04-30T13:07:20.0000000+00:00</time></trkpt><trkpt lat="42.899025" lon="19.613724"><ele>1448.1</ele><time>2012-04-30T13:07:25.0000000+00:00</time></trkpt><trkpt lat="42.89909" lon="19.613665"><ele>1448.4</ele><time>2012-04-30T13:07:30.0000000+00:00</time></trkpt><trkpt lat="42.899166" lon="19.613607"><ele>1448.8</ele><time>2012-04-30T13:07:35.0000000+00:00</time></trkpt><trkpt lat="42.899197" lon="19.613523"><ele>1449.0</ele><time>2012-04-30T13:07:40.0000000+00:00</time></trkpt><trkpt lat="42.899254" lon="19.613483"><ele>1448.8</ele><time>2012-04-30T13:07:45.0000000+00:00</time></trkpt><trkpt lat="42.899258" lon="19.61348"><ele>1448.8</ele><time>2012-04-30T13:07:50.0000000+00:00</time></trkpt><trkpt lat="42.899265" lon="19.61347"><ele>1448.8</ele><time>2012-04-30T13:07:55.0000000+00:00</time></trkpt><trkpt lat="42.899254" lon="19.613461"><ele>1448.8</ele><time>2012-04-30T13:08:00.0000000+00:00</time></trkpt><trkpt lat="42.899239" lon="19.613468"><ele>1448.9</ele><time>2012-04-30T13:08:05.0000000+00:00</time></trkpt><trkpt lat="42.899242" lon="19.613461"><ele>1449.2</ele><time>2012-04-30T13:08:10.0000000+00:00</time></trkpt><trkpt lat="42.89925" lon="19.613466"><ele>1449.1</ele><time>2012-04-30T13:08:15.0000000+00:00</time></trkpt><trkpt lat="42.899261" lon="19.613462"><ele>1449.2</ele><time>2012-04-30T13:08:20.0000000+00:00</time></trkpt><trkpt lat="42.899281" lon="19.613455"><ele>1449.1</ele><time>2012-04-30T13:08:25.0000000+00:00</time></trkpt><trkpt lat="42.899277" lon="19.613445"><ele>1449.3</ele><time>2012-04-30T13:08:30.0000000+00:00</time></trkpt><trkpt lat="42.899277" lon="19.613443"><ele>1449.3</ele><time>2012-04-30T13:08:35.0000000+00:00</time></trkpt><trkpt lat="42.899349" lon="19.613422"><ele>1449.4</ele><time>2012-04-30T13:08:40.0000000+00:00</time></trkpt><trkpt lat="42.899414" lon="19.613453"><ele>1449.6</ele><time>2012-04-30T13:08:45.0000000+00:00</time></trkpt><trkpt lat="42.89941" lon="19.613457"><ele>1449.8</ele><time>2012-04-30T13:08:50.0000000+00:00</time></trkpt><trkpt lat="42.89941" lon="19.613457"><ele>1449.9</ele><time>2012-04-30T13:08:55.0000000+00:00</time></trkpt><trkpt lat="42.89941" lon="19.613461"><ele>1449.9</ele><time>2012-04-30T13:09:00.0000000+00:00</time></trkpt><trkpt lat="42.899406" lon="19.613464"><ele>1449.9</ele><time>2012-04-30T13:09:05.0000000+00:00</time></trkpt><trkpt lat="42.899395" lon="19.613476"><ele>1450.0</ele><time>2012-04-30T13:09:10.0000000+00:00</time></trkpt><trkpt lat="42.899384" lon="19.613518"><ele>1450.4</ele><time>2012-04-30T13:09:15.0000000+00:00</time></trkpt><trkpt lat="42.899376" lon="19.61352"><ele>1450.5</ele><time>2012-04-30T13:09:20.0000000+00:00</time></trkpt><trkpt lat="42.899372" lon="19.613529"><ele>1450.7</ele><time>2012-04-30T13:09:25.0000000+00:00</time></trkpt><trkpt lat="42.899368" lon="19.613533"><ele>1451.0</ele><time>2012-04-30T13:09:30.0000000+00:00</time></trkpt><trkpt lat="42.899368" lon="19.613531"><ele>1451.2</ele><time>2012-04-30T13:09:35.0000000+00:00</time></trkpt><trkpt lat="42.899368" lon="19.613531"><ele>1451.2</ele><time>2012-04-30T13:09:40.0000000+00:00</time></trkpt><trkpt lat="42.899368" lon="19.613531"><ele>1451.2</ele><time>2012-04-30T13:09:45.0000000+00:00</time></trkpt><trkpt lat="42.899364" lon="19.613533"><ele>1451.2</ele><time>2012-04-30T13:09:50.0000000+00:00</time></trkpt><trkpt lat="42.899364" lon="19.613531"><ele>1451.2</ele><time>2012-04-30T13:09:55.0000000+00:00</time></trkpt><trkpt lat="42.899364" lon="19.613531"><ele>1451.3</ele><time>2012-04-30T13:10:00.0000000+00:00</time></trkpt><trkpt lat="42.899364" lon="19.613531"><ele>1451.2</ele><time>2012-04-30T13:10:05.0000000+00:00</time></trkpt><trkpt lat="42.899364" lon="19.613531"><ele>1451.2</ele><time>2012-04-30T13:10:10.0000000+00:00</time></trkpt><trkpt lat="42.899364" lon="19.613529"><ele>1451.3</ele><time>2012-04-30T13:10:15.0000000+00:00</time></trkpt><trkpt lat="42.899364" lon="19.613529"><ele>1451.3</ele><time>2012-04-30T13:10:20.0000000+00:00</time></trkpt><trkpt lat="42.899364" lon="19.613529"><ele>1451.3</ele><time>2012-04-30T13:10:25.0000000+00:00</time></trkpt><trkpt lat="42.899364" lon="19.613527"><ele>1451.4</ele><time>2012-04-30T13:10:30.0000000+00:00</time></trkpt><trkpt lat="42.899364" lon="19.613527"><ele>1451.4</ele><time>2012-04-30T13:10:35.0000000+00:00</time></trkpt><trkpt lat="42.899364" lon="19.613525"><ele>1451.5</ele><time>2012-04-30T13:10:40.0000000+00:00</time></trkpt><trkpt lat="42.899364" lon="19.613523"><ele>1451.5</ele><time>2012-04-30T13:10:45.0000000+00:00</time></trkpt><trkpt lat="42.899364" lon="19.613523"><ele>1451.5</ele><time>2012-04-30T13:10:50.0000000+00:00</time></trkpt><trkpt lat="42.899364" lon="19.613522"><ele>1451.5</ele><time>2012-04-30T13:10:55.0000000+00:00</time></trkpt><trkpt lat="42.899364" lon="19.613522"><ele>1451.5</ele><time>2012-04-30T13:11:00.0000000+00:00</time></trkpt><trkpt lat="42.899368" lon="19.613523"><ele>1451.5</ele><time>2012-04-30T13:11:05.0000000+00:00</time></trkpt><trkpt lat="42.899368" lon="19.613523"><ele>1451.6</ele><time>2012-04-30T13:11:10.0000000+00:00</time></trkpt><trkpt lat="42.899368" lon="19.613523"><ele>1451.6</ele><time>2012-04-30T13:11:15.0000000+00:00</time></trkpt><trkpt lat="42.899368" lon="19.613523"><ele>1451.7</ele><time>2012-04-30T13:11:20.0000000+00:00</time></trkpt><trkpt lat="42.899368" lon="19.613523"><ele>1451.7</ele><time>2012-04-30T13:11:25.0000000+00:00</time></trkpt><trkpt lat="42.899368" lon="19.613523"><ele>1451.6</ele><time>2012-04-30T13:11:30.0000000+00:00</time></trkpt><trkpt lat="42.899368" lon="19.613523"><ele>1451.6</ele><time>2012-04-30T13:11:35.0000000+00:00</time></trkpt><trkpt lat="42.899368" lon="19.613523"><ele>1451.6</ele><time>2012-04-30T13:11:40.0000000+00:00</time></trkpt><trkpt lat="42.899368" lon="19.613523"><ele>1451.7</ele><time>2012-04-30T13:11:45.0000000+00:00</time></trkpt><trkpt lat="42.899368" lon="19.613522"><ele>1451.7</ele><time>2012-04-30T13:11:50.0000000+00:00</time></trkpt><trkpt lat="42.899368" lon="19.61352"><ele>1451.8</ele><time>2012-04-30T13:11:55.0000000+00:00</time></trkpt><trkpt lat="42.899368" lon="19.613518"><ele>1452.0</ele><time>2012-04-30T13:12:00.0000000+00:00</time></trkpt><trkpt lat="42.899368" lon="19.613518"><ele>1452.1</ele><time>2012-04-30T13:12:05.0000000+00:00</time></trkpt><trkpt lat="42.899368" lon="19.613518"><ele>1452.1</ele><time>2012-04-30T13:12:10.0000000+00:00</time></trkpt><trkpt lat="42.899368" lon="19.613518"><ele>1452.2</ele><time>2012-04-30T13:12:15.0000000+00:00</time></trkpt><trkpt lat="42.899368" lon="19.613518"><ele>1452.2</ele><time>2012-04-30T13:12:20.0000000+00:00</time></trkpt><trkpt lat="42.899368" lon="19.613518"><ele>1452.3</ele><time>2012-04-30T13:12:25.0000000+00:00</time></trkpt><trkpt lat="42.899368" lon="19.613516"><ele>1452.4</ele><time>2012-04-30T13:12:30.0000000+00:00</time></trkpt><trkpt lat="42.899368" lon="19.613516"><ele>1452.5</ele><time>2012-04-30T13:12:35.0000000+00:00</time></trkpt><trkpt lat="42.899368" lon="19.613516"><ele>1452.5</ele><time>2012-04-30T13:12:40.0000000+00:00</time></trkpt><trkpt lat="42.899368" lon="19.613516"><ele>1452.6</ele><time>2012-04-30T13:12:45.0000000+00:00</time></trkpt><trkpt lat="42.899368" lon="19.613516"><ele>1452.7</ele><time>2012-04-30T13:12:50.0000000+00:00</time></trkpt><trkpt lat="42.899368" lon="19.613518"><ele>1452.7</ele><time>2012-04-30T13:12:55.0000000+00:00</time></trkpt><trkpt lat="42.899368" lon="19.613518"><ele>1452.7</ele><time>2012-04-30T13:13:00.0000000+00:00</time></trkpt><trkpt lat="42.899372" lon="19.613518"><ele>1452.8</ele><time>2012-04-30T13:13:05.0000000+00:00</time></trkpt><trkpt lat="42.899372" lon="19.61352"><ele>1452.8</ele><time>2012-04-30T13:13:10.0000000+00:00</time></trkpt><trkpt lat="42.899372" lon="19.613518"><ele>1452.8</ele><time>2012-04-30T13:13:15.0000000+00:00</time></trkpt><trkpt lat="42.899372" lon="19.613518"><ele>1452.9</ele><time>2012-04-30T13:13:20.0000000+00:00</time></trkpt><trkpt lat="42.899372" lon="19.613518"><ele>1453.0</ele><time>2012-04-30T13:13:25.0000000+00:00</time></trkpt><trkpt lat="42.899372" lon="19.613514"><ele>1453.3</ele><time>2012-04-30T13:13:30.0000000+00:00</time></trkpt><trkpt lat="42.899376" lon="19.61351"><ele>1453.4</ele><time>2012-04-30T13:13:35.0000000+00:00</time></trkpt><trkpt lat="42.899376" lon="19.613508"><ele>1453.4</ele><time>2012-04-30T13:13:40.0000000+00:00</time></trkpt><trkpt lat="42.899372" lon="19.613506"><ele>1453.4</ele><time>2012-04-30T13:13:45.0000000+00:00</time></trkpt><trkpt lat="42.899372" lon="19.613504"><ele>1453.4</ele><time>2012-04-30T13:13:50.0000000+00:00</time></trkpt><trkpt lat="42.899372" lon="19.613504"><ele>1453.4</ele><time>2012-04-30T13:13:55.0000000+00:00</time></trkpt><trkpt lat="42.899372" lon="19.613504"><ele>1453.5</ele><time>2012-04-30T13:14:00.0000000+00:00</time></trkpt><trkpt lat="42.899372" lon="19.613504"><ele>1453.5</ele><time>2012-04-30T13:14:05.0000000+00:00</time></trkpt><trkpt lat="42.899372" lon="19.613503"><ele>1453.5</ele><time>2012-04-30T13:14:10.0000000+00:00</time></trkpt><trkpt lat="42.899376" lon="19.613503"><ele>1453.5</ele><time>2012-04-30T13:14:15.0000000+00:00</time></trkpt><trkpt lat="42.899376" lon="19.613503"><ele>1453.5</ele><time>2012-04-30T13:14:20.0000000+00:00</time></trkpt><trkpt lat="42.899376" lon="19.613503"><ele>1453.5</ele><time>2012-04-30T13:14:25.0000000+00:00</time></trkpt><trkpt lat="42.899376" lon="19.613503"><ele>1453.5</ele><time>2012-04-30T13:14:30.0000000+00:00</time></trkpt><trkpt lat="42.899376" lon="19.613503"><ele>1453.5</ele><time>2012-04-30T13:14:35.0000000+00:00</time></trkpt><trkpt lat="42.899376" lon="19.613501"><ele>1453.5</ele><time>2012-04-30T13:14:40.0000000+00:00</time></trkpt><trkpt lat="42.899376" lon="19.613503"><ele>1453.5</ele><time>2012-04-30T13:14:45.0000000+00:00</time></trkpt><trkpt lat="42.899376" lon="19.613503"><ele>1453.5</ele><time>2012-04-30T13:14:50.0000000+00:00</time></trkpt><trkpt lat="42.899376" lon="19.613503"><ele>1453.5</ele><time>2012-04-30T13:14:55.0000000+00:00</time></trkpt><trkpt lat="42.899376" lon="19.613504"><ele>1453.5</ele><time>2012-04-30T13:15:00.0000000+00:00</time></trkpt><trkpt lat="42.899376" lon="19.613504"><ele>1453.5</ele><time>2012-04-30T13:15:05.0000000+00:00</time></trkpt><trkpt lat="42.899376" lon="19.613504"><ele>1453.6</ele><time>2012-04-30T13:15:10.0000000+00:00</time></trkpt><trkpt lat="42.899376" lon="19.613504"><ele>1453.6</ele><time>2012-04-30T13:15:15.0000000+00:00</time></trkpt><trkpt lat="42.899376" lon="19.613506"><ele>1453.6</ele><time>2012-04-30T13:15:20.0000000+00:00</time></trkpt><trkpt lat="42.89938" lon="19.613506"><ele>1453.6</ele><time>2012-04-30T13:15:25.0000000+00:00</time></trkpt><trkpt lat="42.89938" lon="19.613506"><ele>1453.6</ele><time>2012-04-30T13:15:30.0000000+00:00</time></trkpt><trkpt lat="42.899376" lon="19.613506"><ele>1453.7</ele><time>2012-04-30T13:15:35.0000000+00:00</time></trkpt><trkpt lat="42.899376" lon="19.613506"><ele>1453.7</ele><time>2012-04-30T13:15:40.0000000+00:00</time></trkpt><trkpt lat="42.899376" lon="19.613506"><ele>1453.7</ele><time>2012-04-30T13:15:45.0000000+00:00</time></trkpt><trkpt lat="42.899376" lon="19.613506"><ele>1453.8</ele><time>2012-04-30T13:15:50.0000000+00:00</time></trkpt><trkpt lat="42.899376" lon="19.613506"><ele>1453.8</ele><time>2012-04-30T13:15:55.0000000+00:00</time></trkpt><trkpt lat="42.899376" lon="19.613506"><ele>1453.9</ele><time>2012-04-30T13:16:00.0000000+00:00</time></trkpt><trkpt lat="42.899372" lon="19.613506"><ele>1454.0</ele><time>2012-04-30T13:16:05.0000000+00:00</time></trkpt><trkpt lat="42.899376" lon="19.613504"><ele>1454.0</ele><time>2012-04-30T13:16:10.0000000+00:00</time></trkpt><trkpt lat="42.899376" lon="19.613503"><ele>1454.0</ele><time>2012-04-30T13:16:15.0000000+00:00</time></trkpt><trkpt lat="42.899376" lon="19.613503"><ele>1454.2</ele><time>2012-04-30T13:16:20.0000000+00:00</time></trkpt><trkpt lat="42.899376" lon="19.613501"><ele>1454.2</ele><time>2012-04-30T13:16:25.0000000+00:00</time></trkpt><trkpt lat="42.899376" lon="19.613501"><ele>1454.3</ele><time>2012-04-30T13:16:30.0000000+00:00</time></trkpt><trkpt lat="42.899376" lon="19.613501"><ele>1454.2</ele><time>2012-04-30T13:16:35.0000000+00:00</time></trkpt><trkpt lat="42.899376" lon="19.613503"><ele>1454.2</ele><time>2012-04-30T13:16:40.0000000+00:00</time></trkpt><trkpt lat="42.899376" lon="19.613503"><ele>1454.2</ele><time>2012-04-30T13:16:45.0000000+00:00</time></trkpt><trkpt lat="42.899376" lon="19.613503"><ele>1454.2</ele><time>2012-04-30T13:16:50.0000000+00:00</time></trkpt><trkpt lat="42.899376" lon="19.613503"><ele>1454.2</ele><time>2012-04-30T13:16:55.0000000+00:00</time></trkpt><trkpt lat="42.899376" lon="19.613503"><ele>1454.2</ele><time>2012-04-30T13:17:00.0000000+00:00</time></trkpt><trkpt lat="42.899376" lon="19.613504"><ele>1454.1</ele><time>2012-04-30T13:17:05.0000000+00:00</time></trkpt><trkpt lat="42.899376" lon="19.613504"><ele>1454.2</ele><time>2012-04-30T13:17:10.0000000+00:00</time></trkpt><trkpt lat="42.899376" lon="19.613504"><ele>1454.2</ele><time>2012-04-30T13:17:15.0000000+00:00</time></trkpt><trkpt lat="42.899376" lon="19.613504"><ele>1454.2</ele><time>2012-04-30T13:17:20.0000000+00:00</time></trkpt><trkpt lat="42.899376" lon="19.613504"><ele>1454.3</ele><time>2012-04-30T13:17:25.0000000+00:00</time></trkpt><trkpt lat="42.899372" lon="19.613504"><ele>1454.3</ele><time>2012-04-30T13:17:30.0000000+00:00</time></trkpt><trkpt lat="42.899372" lon="19.613504"><ele>1454.3</ele><time>2012-04-30T13:17:35.0000000+00:00</time></trkpt><trkpt lat="42.899372" lon="19.613504"><ele>1454.3</ele><time>2012-04-30T13:17:40.0000000+00:00</time></trkpt><trkpt lat="42.899372" lon="19.613504"><ele>1454.3</ele><time>2012-04-30T13:17:45.0000000+00:00</time></trkpt><trkpt lat="42.899372" lon="19.613504"><ele>1454.4</ele><time>2012-04-30T13:17:50.0000000+00:00</time></trkpt><trkpt lat="42.899372" lon="19.613504"><ele>1454.4</ele><time>2012-04-30T13:17:55.0000000+00:00</time></trkpt><trkpt lat="42.899372" lon="19.613501"><ele>1454.4</ele><time>2012-04-30T13:18:00.0000000+00:00</time></trkpt><trkpt lat="42.899372" lon="19.613501"><ele>1454.5</ele><time>2012-04-30T13:18:05.0000000+00:00</time></trkpt><trkpt lat="42.899372" lon="19.613499"><ele>1454.5</ele><time>2012-04-30T13:18:10.0000000+00:00</time></trkpt><trkpt lat="42.899372" lon="19.613499"><ele>1454.5</ele><time>2012-04-30T13:18:15.0000000+00:00</time></trkpt><trkpt lat="42.899372" lon="19.613499"><ele>1454.5</ele><time>2012-04-30T13:18:20.0000000+00:00</time></trkpt><trkpt lat="42.899372" lon="19.613499"><ele>1454.5</ele><time>2012-04-30T13:18:25.0000000+00:00</time></trkpt><trkpt lat="42.899372" lon="19.613497"><ele>1454.5</ele><time>2012-04-30T13:18:30.0000000+00:00</time></trkpt><trkpt lat="42.899372" lon="19.613497"><ele>1454.5</ele><time>2012-04-30T13:18:35.0000000+00:00</time></trkpt><trkpt lat="42.899372" lon="19.613497"><ele>1454.5</ele><time>2012-04-30T13:18:40.0000000+00:00</time></trkpt><trkpt lat="42.899326" lon="19.61351"><ele>1455.0</ele><time>2012-04-30T13:18:45.0000000+00:00</time></trkpt><trkpt lat="42.899265" lon="19.613571"><ele>1455.3</ele><time>2012-04-30T13:18:50.0000000+00:00</time></trkpt><trkpt lat="42.899227" lon="19.613602"><ele>1455.5</ele><time>2012-04-30T13:18:55.0000000+00:00</time></trkpt><trkpt lat="42.899132" lon="19.613626"><ele>1456.9</ele><time>2012-04-30T13:19:00.0000000+00:00</time></trkpt><trkpt lat="42.899033" lon="19.613695"><ele>1458.5</ele><time>2012-04-30T13:19:05.0000000+00:00</time></trkpt><trkpt lat="42.89896" lon="19.613785"><ele>1459.5</ele><time>2012-04-30T13:19:10.0000000+00:00</time></trkpt><trkpt lat="42.898911" lon="19.613855"><ele>1459.9</ele><time>2012-04-30T13:19:15.0000000+00:00</time></trkpt><trkpt lat="42.898838" lon="19.613962"><ele>1461.0</ele><time>2012-04-30T13:19:20.0000000+00:00</time></trkpt><trkpt lat="42.8988" lon="19.614119"><ele>1461.9</ele><time>2012-04-30T13:19:25.0000000+00:00</time></trkpt><trkpt lat="42.898773" lon="19.61426"><ele>1463.5</ele><time>2012-04-30T13:19:30.0000000+00:00</time></trkpt><trkpt lat="42.898697" lon="19.614363"><ele>1465.1</ele><time>2012-04-30T13:19:35.0000000+00:00</time></trkpt><trkpt lat="42.898605" lon="19.614437"><ele>1466.2</ele><time>2012-04-30T13:19:40.0000000+00:00</time></trkpt><trkpt lat="42.898571" lon="19.614492"><ele>1468.0</ele><time>2012-04-30T13:19:45.0000000+00:00</time></trkpt><trkpt lat="42.898483" lon="19.614491"><ele>1470.8</ele><time>2012-04-30T13:19:50.0000000+00:00</time></trkpt><trkpt lat="42.898369" lon="19.614523"><ele>1472.2</ele><time>2012-04-30T13:19:55.0000000+00:00</time></trkpt><trkpt lat="42.898304" lon="19.614567"><ele>1472.6</ele><time>2012-04-30T13:20:00.0000000+00:00</time></trkpt><trkpt lat="42.898243" lon="19.614685"><ele>1470.9</ele><time>2012-04-30T13:20:05.0000000+00:00</time></trkpt><trkpt lat="42.898163" lon="19.614748"><ele>1471.4</ele><time>2012-04-30T13:20:10.0000000+00:00</time></trkpt><trkpt lat="42.898079" lon="19.614782"><ele>1471.5</ele><time>2012-04-30T13:20:15.0000000+00:00</time></trkpt><trkpt lat="42.898056" lon="19.614868"><ele>1472.0</ele><time>2012-04-30T13:20:20.0000000+00:00</time></trkpt><trkpt lat="42.89798" lon="19.614922"><ele>1471.4</ele><time>2012-04-30T13:20:25.0000000+00:00</time></trkpt><trkpt lat="42.89793" lon="19.614977"><ele>1471.1</ele><time>2012-04-30T13:20:30.0000000+00:00</time></trkpt><trkpt lat="42.897869" lon="19.615044"><ele>1472.6</ele><time>2012-04-30T13:20:35.0000000+00:00</time></trkpt><trkpt lat="42.897839" lon="19.615074"><ele>1473.5</ele><time>2012-04-30T13:20:40.0000000+00:00</time></trkpt><trkpt lat="42.897831" lon="19.615147"><ele>1475.4</ele><time>2012-04-30T13:20:45.0000000+00:00</time></trkpt><trkpt lat="42.897816" lon="19.615322"><ele>1473.6</ele><time>2012-04-30T13:20:50.0000000+00:00</time></trkpt><trkpt lat="42.8978" lon="19.615398"><ele>1473.9</ele><time>2012-04-30T13:20:55.0000000+00:00</time></trkpt><trkpt lat="42.897789" lon="19.615538"><ele>1473.7</ele><time>2012-04-30T13:21:00.0000000+00:00</time></trkpt><trkpt lat="42.8978" lon="19.615631"><ele>1475.0</ele><time>2012-04-30T13:21:05.0000000+00:00</time></trkpt><trkpt lat="42.897804" lon="19.615761"><ele>1474.8</ele><time>2012-04-30T13:21:10.0000000+00:00</time></trkpt><trkpt lat="42.897797" lon="19.615873"><ele>1474.8</ele><time>2012-04-30T13:21:15.0000000+00:00</time></trkpt><trkpt lat="42.897842" lon="19.615889"><ele>1475.4</ele><time>2012-04-30T13:21:20.0000000+00:00</time></trkpt><trkpt lat="42.897839" lon="19.615835"><ele>1475.3</ele><time>2012-04-30T13:21:25.0000000+00:00</time></trkpt><trkpt lat="42.897865" lon="19.61577"><ele>1475.1</ele><time>2012-04-30T13:21:30.0000000+00:00</time></trkpt><trkpt lat="42.897884" lon="19.61573"><ele>1475.8</ele><time>2012-04-30T13:21:35.0000000+00:00</time></trkpt><trkpt lat="42.897911" lon="19.615667"><ele>1476.5</ele><time>2012-04-30T13:21:40.0000000+00:00</time></trkpt><trkpt lat="42.89798" lon="19.615635"><ele>1478.6</ele><time>2012-04-30T13:21:45.0000000+00:00</time></trkpt><trkpt lat="42.898041" lon="19.615561"><ele>1479.2</ele><time>2012-04-30T13:21:50.0000000+00:00</time></trkpt><trkpt lat="42.898079" lon="19.61548"><ele>1478.8</ele><time>2012-04-30T13:21:55.0000000+00:00</time></trkpt><trkpt lat="42.89817" lon="19.615423"><ele>1478.3</ele><time>2012-04-30T13:22:00.0000000+00:00</time></trkpt><trkpt lat="42.898224" lon="19.615364"><ele>1478.0</ele><time>2012-04-30T13:22:05.0000000+00:00</time></trkpt><trkpt lat="42.898331" lon="19.615358"><ele>1483.1</ele><time>2012-04-30T13:22:10.0000000+00:00</time></trkpt><trkpt lat="42.898426" lon="19.615318"><ele>1483.7</ele><time>2012-04-30T13:22:15.0000000+00:00</time></trkpt><trkpt lat="42.898518" lon="19.615322"><ele>1485.2</ele><time>2012-04-30T13:22:20.0000000+00:00</time></trkpt><trkpt lat="42.898586" lon="19.615349"><ele>1487.6</ele><time>2012-04-30T13:22:25.0000000+00:00</time></trkpt><trkpt lat="42.898659" lon="19.615307"><ele>1490.4</ele><time>2012-04-30T13:22:30.0000000+00:00</time></trkpt><trkpt lat="42.898727" lon="19.615301"><ele>1493.7</ele><time>2012-04-30T13:22:35.0000000+00:00</time></trkpt><trkpt lat="42.898788" lon="19.615223"><ele>1494.5</ele><time>2012-04-30T13:22:40.0000000+00:00</time></trkpt><trkpt lat="42.898876" lon="19.615194"><ele>1496.7</ele><time>2012-04-30T13:22:45.0000000+00:00</time></trkpt><trkpt lat="42.898922" lon="19.615145"><ele>1498.5</ele><time>2012-04-30T13:22:50.0000000+00:00</time></trkpt><trkpt lat="42.898972" lon="19.615112"><ele>1500.7</ele><time>2012-04-30T13:22:55.0000000+00:00</time></trkpt><trkpt lat="42.898998" lon="19.615055"><ele>1501.8</ele><time>2012-04-30T13:23:00.0000000+00:00</time></trkpt><trkpt lat="42.899071" lon="19.614992"><ele>1504.2</ele><time>2012-04-30T13:23:05.0000000+00:00</time></trkpt><trkpt lat="42.899147" lon="19.614933"><ele>1506.1</ele><time>2012-04-30T13:23:10.0000000+00:00</time></trkpt><trkpt lat="42.89922" lon="19.614885"><ele>1507.6</ele><time>2012-04-30T13:23:15.0000000+00:00</time></trkpt><trkpt lat="42.899269" lon="19.61483"><ele>1509.1</ele><time>2012-04-30T13:23:20.0000000+00:00</time></trkpt><trkpt lat="42.899307" lon="19.614784"><ele>1510.0</ele><time>2012-04-30T13:23:25.0000000+00:00</time></trkpt><trkpt lat="42.899338" lon="19.614719"><ele>1511.6</ele><time>2012-04-30T13:23:30.0000000+00:00</time></trkpt><trkpt lat="42.899403" lon="19.614639"><ele>1511.3</ele><time>2012-04-30T13:23:35.0000000+00:00</time></trkpt><trkpt lat="42.899506" lon="19.614605"><ele>1512.3</ele><time>2012-04-30T13:23:40.0000000+00:00</time></trkpt><trkpt lat="42.899555" lon="19.614574"><ele>1512.8</ele><time>2012-04-30T13:23:45.0000000+00:00</time></trkpt><trkpt lat="42.899479" lon="19.614561"><ele>1514.1</ele><time>2012-04-30T13:23:50.0000000+00:00</time></trkpt><trkpt lat="42.899448" lon="19.614559"><ele>1515.1</ele><time>2012-04-30T13:23:55.0000000+00:00</time></trkpt><trkpt lat="42.899448" lon="19.61459"><ele>1514.8</ele><time>2012-04-30T13:24:00.0000000+00:00</time></trkpt><trkpt lat="42.899418" lon="19.614635"><ele>1514.9</ele><time>2012-04-30T13:24:05.0000000+00:00</time></trkpt><trkpt lat="42.899395" lon="19.614676"><ele>1514.5</ele><time>2012-04-30T13:24:10.0000000+00:00</time></trkpt><trkpt lat="42.899349" lon="19.614723"><ele>1515.2</ele><time>2012-04-30T13:24:15.0000000+00:00</time></trkpt><trkpt lat="42.899307" lon="19.61479"><ele>1516.5</ele><time>2012-04-30T13:24:20.0000000+00:00</time></trkpt><trkpt lat="42.899303" lon="19.614897"><ele>1516.9</ele><time>2012-04-30T13:24:25.0000000+00:00</time></trkpt><trkpt lat="42.899261" lon="19.614983"><ele>1518.6</ele><time>2012-04-30T13:24:30.0000000+00:00</time></trkpt><trkpt lat="42.899246" lon="19.615097"><ele>1517.7</ele><time>2012-04-30T13:24:35.0000000+00:00</time></trkpt><trkpt lat="42.899223" lon="19.615145"><ele>1517.2</ele><time>2012-04-30T13:24:40.0000000+00:00</time></trkpt><trkpt lat="42.899178" lon="19.615194"><ele>1517.7</ele><time>2012-04-30T13:24:45.0000000+00:00</time></trkpt><trkpt lat="42.899124" lon="19.615229"><ele>1517.9</ele><time>2012-04-30T13:24:50.0000000+00:00</time></trkpt><trkpt lat="42.899101" lon="19.61529"><ele>1519.0</ele><time>2012-04-30T13:24:55.0000000+00:00</time></trkpt><trkpt lat="42.899036" lon="19.615353"><ele>1518.5</ele><time>2012-04-30T13:25:00.0000000+00:00</time></trkpt><trkpt lat="42.898968" lon="19.615459"><ele>1519.3</ele><time>2012-04-30T13:25:05.0000000+00:00</time></trkpt><trkpt lat="42.898911" lon="19.615568"><ele>1518.6</ele><time>2012-04-30T13:25:10.0000000+00:00</time></trkpt><trkpt lat="42.898861" lon="19.615669"><ele>1519.2</ele><time>2012-04-30T13:25:15.0000000+00:00</time></trkpt><trkpt lat="42.898811" lon="19.615683"><ele>1519.3</ele><time>2012-04-30T13:25:20.0000000+00:00</time></trkpt><trkpt lat="42.898811" lon="19.61574"><ele>1519.8</ele><time>2012-04-30T13:25:25.0000000+00:00</time></trkpt><trkpt lat="42.898754" lon="19.615805"><ele>1521.3</ele><time>2012-04-30T13:25:30.0000000+00:00</time></trkpt><trkpt lat="42.898659" lon="19.615858"><ele>1522.1</ele><time>2012-04-30T13:25:35.0000000+00:00</time></trkpt><trkpt lat="42.89859" lon="19.6159"><ele>1522.0</ele><time>2012-04-30T13:25:40.0000000+00:00</time></trkpt><trkpt lat="42.898521" lon="19.615927"><ele>1522.6</ele><time>2012-04-30T13:25:45.0000000+00:00</time></trkpt><trkpt lat="42.898495" lon="19.616009"><ele>1521.0</ele><time>2012-04-30T13:25:50.0000000+00:00</time></trkpt><trkpt lat="42.898491" lon="19.616074"><ele>1520.0</ele><time>2012-04-30T13:25:55.0000000+00:00</time></trkpt><trkpt lat="42.898483" lon="19.616167"><ele>1517.9</ele><time>2012-04-30T13:26:00.0000000+00:00</time></trkpt><trkpt lat="42.898506" lon="19.616245"><ele>1517.3</ele><time>2012-04-30T13:26:05.0000000+00:00</time></trkpt><trkpt lat="42.898552" lon="19.616285"><ele>1518.3</ele><time>2012-04-30T13:26:10.0000000+00:00</time></trkpt><trkpt lat="42.898552" lon="19.616304"><ele>1518.6</ele><time>2012-04-30T13:26:15.0000000+00:00</time></trkpt><trkpt lat="42.89854" lon="19.616316"><ele>1518.5</ele><time>2012-04-30T13:26:20.0000000+00:00</time></trkpt><trkpt lat="42.898571" lon="19.616331"><ele>1518.9</ele><time>2012-04-30T13:26:25.0000000+00:00</time></trkpt><trkpt lat="42.898586" lon="19.616306"><ele>1520.4</ele><time>2012-04-30T13:26:30.0000000+00:00</time></trkpt><trkpt lat="42.898624" lon="19.616295"><ele>1521.6</ele><time>2012-04-30T13:26:35.0000000+00:00</time></trkpt><trkpt lat="42.89867" lon="19.616287"><ele>1523.2</ele><time>2012-04-30T13:26:40.0000000+00:00</time></trkpt><trkpt lat="42.898685" lon="19.616243"><ele>1523.9</ele><time>2012-04-30T13:26:45.0000000+00:00</time></trkpt><trkpt lat="42.898697" lon="19.616224"><ele>1522.9</ele><time>2012-04-30T13:26:50.0000000+00:00</time></trkpt><trkpt lat="42.898689" lon="19.616196"><ele>1522.6</ele><time>2012-04-30T13:26:55.0000000+00:00</time></trkpt><trkpt lat="42.898689" lon="19.616184"><ele>1522.4</ele><time>2012-04-30T13:27:00.0000000+00:00</time></trkpt><trkpt lat="42.898689" lon="19.616184"><ele>1522.3</ele><time>2012-04-30T13:27:05.0000000+00:00</time></trkpt><trkpt lat="42.898693" lon="19.616179"><ele>1522.3</ele><time>2012-04-30T13:27:10.0000000+00:00</time></trkpt><trkpt lat="42.898708" lon="19.616192"><ele>1522.3</ele><time>2012-04-30T13:27:15.0000000+00:00</time></trkpt><trkpt lat="42.898705" lon="19.616188"><ele>1522.3</ele><time>2012-04-30T13:27:20.0000000+00:00</time></trkpt><trkpt lat="42.898701" lon="19.616182"><ele>1522.4</ele><time>2012-04-30T13:27:25.0000000+00:00</time></trkpt><trkpt lat="42.898697" lon="19.616179"><ele>1522.5</ele><time>2012-04-30T13:27:30.0000000+00:00</time></trkpt><trkpt lat="42.898697" lon="19.616177"><ele>1522.4</ele><time>2012-04-30T13:27:35.0000000+00:00</time></trkpt><trkpt lat="42.898697" lon="19.616175"><ele>1522.2</ele><time>2012-04-30T13:27:40.0000000+00:00</time></trkpt><trkpt lat="42.898697" lon="19.616175"><ele>1522.2</ele><time>2012-04-30T13:27:45.0000000+00:00</time></trkpt><trkpt lat="42.898697" lon="19.616175"><ele>1522.2</ele><time>2012-04-30T13:27:50.0000000+00:00</time></trkpt><trkpt lat="42.898697" lon="19.616175"><ele>1522.2</ele><time>2012-04-30T13:27:55.0000000+00:00</time></trkpt><trkpt lat="42.898697" lon="19.616173"><ele>1522.2</ele><time>2012-04-30T13:28:00.0000000+00:00</time></trkpt><trkpt lat="42.898697" lon="19.616173"><ele>1522.2</ele><time>2012-04-30T13:28:05.0000000+00:00</time></trkpt><trkpt lat="42.898697" lon="19.616173"><ele>1522.2</ele><time>2012-04-30T13:28:10.0000000+00:00</time></trkpt><trkpt lat="42.898697" lon="19.616175"><ele>1522.2</ele><time>2012-04-30T13:28:15.0000000+00:00</time></trkpt><trkpt lat="42.898697" lon="19.616175"><ele>1522.1</ele><time>2012-04-30T13:28:20.0000000+00:00</time></trkpt><trkpt lat="42.898701" lon="19.616177"><ele>1522.1</ele><time>2012-04-30T13:28:25.0000000+00:00</time></trkpt><trkpt lat="42.898701" lon="19.616179"><ele>1522.1</ele><time>2012-04-30T13:28:30.0000000+00:00</time></trkpt><trkpt lat="42.898701" lon="19.616179"><ele>1522.1</ele><time>2012-04-30T13:28:35.0000000+00:00</time></trkpt><trkpt lat="42.898697" lon="19.616177"><ele>1522.1</ele><time>2012-04-30T13:28:40.0000000+00:00</time></trkpt><trkpt lat="42.898697" lon="19.616177"><ele>1522.2</ele><time>2012-04-30T13:28:45.0000000+00:00</time></trkpt><trkpt lat="42.898697" lon="19.616179"><ele>1522.2</ele><time>2012-04-30T13:28:50.0000000+00:00</time></trkpt><trkpt lat="42.898697" lon="19.616179"><ele>1522.2</ele><time>2012-04-30T13:28:55.0000000+00:00</time></trkpt><trkpt lat="42.898697" lon="19.616179"><ele>1522.2</ele><time>2012-04-30T13:29:00.0000000+00:00</time></trkpt><trkpt lat="42.898697" lon="19.616179"><ele>1522.1</ele><time>2012-04-30T13:29:05.0000000+00:00</time></trkpt><trkpt lat="42.898697" lon="19.616179"><ele>1522.2</ele><time>2012-04-30T13:29:10.0000000+00:00</time></trkpt><trkpt lat="42.898697" lon="19.616179"><ele>1522.2</ele><time>2012-04-30T13:29:15.0000000+00:00</time></trkpt><trkpt lat="42.898693" lon="19.616179"><ele>1522.1</ele><time>2012-04-30T13:29:20.0000000+00:00</time></trkpt><trkpt lat="42.898693" lon="19.616179"><ele>1522.1</ele><time>2012-04-30T13:29:25.0000000+00:00</time></trkpt><trkpt lat="42.898693" lon="19.616177"><ele>1522.0</ele><time>2012-04-30T13:29:30.0000000+00:00</time></trkpt><trkpt lat="42.898693" lon="19.616177"><ele>1522.0</ele><time>2012-04-30T13:29:35.0000000+00:00</time></trkpt><trkpt lat="42.898689" lon="19.616177"><ele>1521.9</ele><time>2012-04-30T13:29:40.0000000+00:00</time></trkpt><trkpt lat="42.898689" lon="19.616177"><ele>1521.8</ele><time>2012-04-30T13:29:45.0000000+00:00</time></trkpt><trkpt lat="42.898689" lon="19.616177"><ele>1521.8</ele><time>2012-04-30T13:29:50.0000000+00:00</time></trkpt><trkpt lat="42.898689" lon="19.616177"><ele>1521.7</ele><time>2012-04-30T13:29:55.0000000+00:00</time></trkpt><trkpt lat="42.898689" lon="19.616177"><ele>1521.8</ele><time>2012-04-30T13:30:00.0000000+00:00</time></trkpt><trkpt lat="42.898689" lon="19.616177"><ele>1521.8</ele><time>2012-04-30T13:30:05.0000000+00:00</time></trkpt><trkpt lat="42.898685" lon="19.616175"><ele>1521.8</ele><time>2012-04-30T13:30:10.0000000+00:00</time></trkpt><trkpt lat="42.898682" lon="19.616175"><ele>1521.8</ele><time>2012-04-30T13:30:15.0000000+00:00</time></trkpt><trkpt lat="42.898682" lon="19.616175"><ele>1521.8</ele><time>2012-04-30T13:30:20.0000000+00:00</time></trkpt><trkpt lat="42.898682" lon="19.616175"><ele>1521.9</ele><time>2012-04-30T13:30:25.0000000+00:00</time></trkpt><trkpt lat="42.898682" lon="19.616175"><ele>1521.9</ele><time>2012-04-30T13:30:30.0000000+00:00</time></trkpt><trkpt lat="42.898682" lon="19.616175"><ele>1521.9</ele><time>2012-04-30T13:30:35.0000000+00:00</time></trkpt><trkpt lat="42.898682" lon="19.616175"><ele>1521.9</ele><time>2012-04-30T13:30:40.0000000+00:00</time></trkpt><trkpt lat="42.898682" lon="19.616175"><ele>1522.0</ele><time>2012-04-30T13:30:45.0000000+00:00</time></trkpt><trkpt lat="42.898682" lon="19.616175"><ele>1522.0</ele><time>2012-04-30T13:30:50.0000000+00:00</time></trkpt><trkpt lat="42.898682" lon="19.616175"><ele>1522.0</ele><time>2012-04-30T13:30:55.0000000+00:00</time></trkpt><trkpt lat="42.898682" lon="19.616175"><ele>1522.0</ele><time>2012-04-30T13:31:00.0000000+00:00</time></trkpt><trkpt lat="42.898682" lon="19.616175"><ele>1522.0</ele><time>2012-04-30T13:31:05.0000000+00:00</time></trkpt><trkpt lat="42.898682" lon="19.616175"><ele>1522.0</ele><time>2012-04-30T13:31:10.0000000+00:00</time></trkpt><trkpt lat="42.898682" lon="19.616175"><ele>1522.0</ele><time>2012-04-30T13:31:15.0000000+00:00</time></trkpt><trkpt lat="42.898678" lon="19.616175"><ele>1522.0</ele><time>2012-04-30T13:31:20.0000000+00:00</time></trkpt><trkpt lat="42.898678" lon="19.616175"><ele>1522.0</ele><time>2012-04-30T13:31:25.0000000+00:00</time></trkpt><trkpt lat="42.898678" lon="19.616175"><ele>1522.0</ele><time>2012-04-30T13:31:30.0000000+00:00</time></trkpt><trkpt lat="42.898678" lon="19.616175"><ele>1522.0</ele><time>2012-04-30T13:31:35.0000000+00:00</time></trkpt><trkpt lat="42.898678" lon="19.616177"><ele>1522.0</ele><time>2012-04-30T13:31:40.0000000+00:00</time></trkpt><trkpt lat="42.898678" lon="19.616177"><ele>1522.0</ele><time>2012-04-30T13:31:45.0000000+00:00</time></trkpt><trkpt lat="42.898678" lon="19.616175"><ele>1522.0</ele><time>2012-04-30T13:31:50.0000000+00:00</time></trkpt><trkpt lat="42.898678" lon="19.616175"><ele>1522.0</ele><time>2012-04-30T13:31:55.0000000+00:00</time></trkpt><trkpt lat="42.898674" lon="19.616173"><ele>1522.1</ele><time>2012-04-30T13:32:00.0000000+00:00</time></trkpt><trkpt lat="42.898674" lon="19.616173"><ele>1522.1</ele><time>2012-04-30T13:32:05.0000000+00:00</time></trkpt><trkpt lat="42.898674" lon="19.616175"><ele>1522.1</ele><time>2012-04-30T13:32:10.0000000+00:00</time></trkpt><trkpt lat="42.898674" lon="19.616175"><ele>1522.1</ele><time>2012-04-30T13:32:15.0000000+00:00</time></trkpt><trkpt lat="42.898674" lon="19.616175"><ele>1522.1</ele><time>2012-04-30T13:32:20.0000000+00:00</time></trkpt><trkpt lat="42.898674" lon="19.616173"><ele>1522.1</ele><time>2012-04-30T13:32:25.0000000+00:00</time></trkpt><trkpt lat="42.89867" lon="19.616173"><ele>1522.1</ele><time>2012-04-30T13:32:30.0000000+00:00</time></trkpt><trkpt lat="42.89867" lon="19.616173"><ele>1522.1</ele><time>2012-04-30T13:32:35.0000000+00:00</time></trkpt><trkpt lat="42.89867" lon="19.616173"><ele>1522.1</ele><time>2012-04-30T13:32:40.0000000+00:00</time></trkpt><trkpt lat="42.89867" lon="19.616173"><ele>1522.1</ele><time>2012-04-30T13:32:45.0000000+00:00</time></trkpt><trkpt lat="42.89867" lon="19.616173"><ele>1522.1</ele><time>2012-04-30T13:32:50.0000000+00:00</time></trkpt><trkpt lat="42.89867" lon="19.616173"><ele>1522.1</ele><time>2012-04-30T13:32:55.0000000+00:00</time></trkpt><trkpt lat="42.89867" lon="19.616173"><ele>1522.1</ele><time>2012-04-30T13:33:00.0000000+00:00</time></trkpt><trkpt lat="42.89867" lon="19.616173"><ele>1522.1</ele><time>2012-04-30T13:33:05.0000000+00:00</time></trkpt><trkpt lat="42.89867" lon="19.616173"><ele>1522.2</ele><time>2012-04-30T13:33:10.0000000+00:00</time></trkpt><trkpt lat="42.89867" lon="19.616173"><ele>1522.2</ele><time>2012-04-30T13:33:15.0000000+00:00</time></trkpt><trkpt lat="42.89867" lon="19.616173"><ele>1522.2</ele><time>2012-04-30T13:33:20.0000000+00:00</time></trkpt><trkpt lat="42.89867" lon="19.616173"><ele>1522.2</ele><time>2012-04-30T13:33:25.0000000+00:00</time></trkpt><trkpt lat="42.898674" lon="19.616173"><ele>1521.5</ele><time>2012-04-30T13:33:30.0000000+00:00</time></trkpt><trkpt lat="42.89867" lon="19.616161"><ele>1522.0</ele><time>2012-04-30T13:33:35.0000000+00:00</time></trkpt><trkpt lat="42.898666" lon="19.616171"><ele>1520.7</ele><time>2012-04-30T13:33:40.0000000+00:00</time></trkpt><trkpt lat="42.898666" lon="19.616171"><ele>1520.6</ele><time>2012-04-30T13:33:45.0000000+00:00</time></trkpt><trkpt lat="42.898666" lon="19.616171"><ele>1520.6</ele><time>2012-04-30T13:33:50.0000000+00:00</time></trkpt><trkpt lat="42.898666" lon="19.616171"><ele>1520.6</ele><time>2012-04-30T13:33:55.0000000+00:00</time></trkpt><trkpt lat="42.898666" lon="19.616171"><ele>1520.6</ele><time>2012-04-30T13:34:00.0000000+00:00</time></trkpt><trkpt lat="42.898666" lon="19.616171"><ele>1520.6</ele><time>2012-04-30T13:34:05.0000000+00:00</time></trkpt><trkpt lat="42.898666" lon="19.616171"><ele>1520.7</ele><time>2012-04-30T13:34:10.0000000+00:00</time></trkpt><trkpt lat="42.898663" lon="19.616171"><ele>1520.7</ele><time>2012-04-30T13:34:15.0000000+00:00</time></trkpt><trkpt lat="42.898663" lon="19.616171"><ele>1520.7</ele><time>2012-04-30T13:34:20.0000000+00:00</time></trkpt><trkpt lat="42.89867" lon="19.616169"><ele>1520.8</ele><time>2012-04-30T13:34:25.0000000+00:00</time></trkpt><trkpt lat="42.89867" lon="19.616169"><ele>1520.8</ele><time>2012-04-30T13:34:30.0000000+00:00</time></trkpt><trkpt lat="42.89867" lon="19.616169"><ele>1520.8</ele><time>2012-04-30T13:34:35.0000000+00:00</time></trkpt><trkpt lat="42.89867" lon="19.616169"><ele>1520.8</ele><time>2012-04-30T13:34:40.0000000+00:00</time></trkpt><trkpt lat="42.89867" lon="19.616169"><ele>1520.8</ele><time>2012-04-30T13:34:45.0000000+00:00</time></trkpt><trkpt lat="42.898678" lon="19.616165"><ele>1521.0</ele><time>2012-04-30T13:34:50.0000000+00:00</time></trkpt><trkpt lat="42.898735" lon="19.616148"><ele>1521.1</ele><time>2012-04-30T13:34:55.0000000+00:00</time></trkpt><trkpt lat="42.898834" lon="19.616125"><ele>1521.9</ele><time>2012-04-30T13:35:00.0000000+00:00</time></trkpt><trkpt lat="42.898914" lon="19.616087"><ele>1524.0</ele><time>2012-04-30T13:35:05.0000000+00:00</time></trkpt><trkpt lat="42.898975" lon="19.616083"><ele>1525.3</ele><time>2012-04-30T13:35:10.0000000+00:00</time></trkpt><trkpt lat="42.899052" lon="19.616072"><ele>1527.5</ele><time>2012-04-30T13:35:15.0000000+00:00</time></trkpt><trkpt lat="42.899136" lon="19.61606"><ele>1529.2</ele><time>2012-04-30T13:35:20.0000000+00:00</time></trkpt><trkpt lat="42.899197" lon="19.616013"><ele>1529.4</ele><time>2012-04-30T13:35:25.0000000+00:00</time></trkpt><trkpt lat="42.89925" lon="19.61598"><ele>1531.1</ele><time>2012-04-30T13:35:30.0000000+00:00</time></trkpt><trkpt lat="42.899342" lon="19.615887"><ele>1534.5</ele><time>2012-04-30T13:35:35.0000000+00:00</time></trkpt><trkpt lat="42.899406" lon="19.615852"><ele>1537.4</ele><time>2012-04-30T13:35:40.0000000+00:00</time></trkpt><trkpt lat="42.899479" lon="19.615793"><ele>1540.4</ele><time>2012-04-30T13:35:45.0000000+00:00</time></trkpt><trkpt lat="42.899544" lon="19.615709"><ele>1542.9</ele><time>2012-04-30T13:35:50.0000000+00:00</time></trkpt><trkpt lat="42.899582" lon="19.615648"><ele>1543.5</ele><time>2012-04-30T13:35:55.0000000+00:00</time></trkpt><trkpt lat="42.899632" lon="19.615578"><ele>1544.7</ele><time>2012-04-30T13:36:00.0000000+00:00</time></trkpt><trkpt lat="42.899681" lon="19.615484"><ele>1544.0</ele><time>2012-04-30T13:36:05.0000000+00:00</time></trkpt><trkpt lat="42.899769" lon="19.615452"><ele>1541.1</ele><time>2012-04-30T13:36:10.0000000+00:00</time></trkpt><trkpt lat="42.899857" lon="19.615404"><ele>1538.1</ele><time>2012-04-30T13:36:15.0000000+00:00</time></trkpt><trkpt lat="42.899902" lon="19.61529"><ele>1535.7</ele><time>2012-04-30T13:36:20.0000000+00:00</time></trkpt><trkpt lat="42.899937" lon="19.615328"><ele>1536.0</ele><time>2012-04-30T13:36:25.0000000+00:00</time></trkpt><trkpt lat="42.89991" lon="19.615353"><ele>1538.4</ele><time>2012-04-30T13:36:30.0000000+00:00</time></trkpt><trkpt lat="42.899864" lon="19.615355"><ele>1539.3</ele><time>2012-04-30T13:36:35.0000000+00:00</time></trkpt><trkpt lat="42.899807" lon="19.615379"><ele>1541.6</ele><time>2012-04-30T13:36:40.0000000+00:00</time></trkpt><trkpt lat="42.899765" lon="19.615461"><ele>1540.5</ele><time>2012-04-30T13:36:45.0000000+00:00</time></trkpt><trkpt lat="42.899742" lon="19.615498"><ele>1540.7</ele><time>2012-04-30T13:36:50.0000000+00:00</time></trkpt><trkpt lat="42.899704" lon="19.615572"><ele>1541.3</ele><time>2012-04-30T13:36:55.0000000+00:00</time></trkpt><trkpt lat="42.899677" lon="19.615679"><ele>1541.2</ele><time>2012-04-30T13:37:00.0000000+00:00</time></trkpt><trkpt lat="42.899662" lon="19.615795"><ele>1541.0</ele><time>2012-04-30T13:37:05.0000000+00:00</time></trkpt><trkpt lat="42.899654" lon="19.615839"><ele>1541.7</ele><time>2012-04-30T13:37:10.0000000+00:00</time></trkpt><trkpt lat="42.899616" lon="19.615881"><ele>1542.9</ele><time>2012-04-30T13:37:15.0000000+00:00</time></trkpt><trkpt lat="42.899559" lon="19.615921"><ele>1544.6</ele><time>2012-04-30T13:37:20.0000000+00:00</time></trkpt><trkpt lat="42.899487" lon="19.615969"><ele>1546.2</ele><time>2012-04-30T13:37:25.0000000+00:00</time></trkpt><trkpt lat="42.899448" lon="19.616007"><ele>1548.0</ele><time>2012-04-30T13:37:30.0000000+00:00</time></trkpt><trkpt lat="42.899384" lon="19.616056"><ele>1550.3</ele><time>2012-04-30T13:37:35.0000000+00:00</time></trkpt><trkpt lat="42.899334" lon="19.616205"><ele>1551.5</ele><time>2012-04-30T13:37:40.0000000+00:00</time></trkpt><trkpt lat="42.899277" lon="19.616344"><ele>1553.0</ele><time>2012-04-30T13:37:45.0000000+00:00</time></trkpt><trkpt lat="42.899216" lon="19.61647"><ele>1554.0</ele><time>2012-04-30T13:37:50.0000000+00:00</time></trkpt><trkpt lat="42.899124" lon="19.616558"><ele>1556.3</ele><time>2012-04-30T13:37:55.0000000+00:00</time></trkpt><trkpt lat="42.899044" lon="19.616665"><ele>1555.5</ele><time>2012-04-30T13:38:00.0000000+00:00</time></trkpt><trkpt lat="42.899029" lon="19.616648"><ele>1557.6</ele><time>2012-04-30T13:38:05.0000000+00:00</time></trkpt><trkpt lat="42.899044" lon="19.616619"><ele>1559.7</ele><time>2012-04-30T13:38:10.0000000+00:00</time></trkpt><trkpt lat="42.899124" lon="19.616634"><ele>1561.0</ele><time>2012-04-30T13:38:15.0000000+00:00</time></trkpt><trkpt lat="42.899189" lon="19.616646"><ele>1562.2</ele><time>2012-04-30T13:38:20.0000000+00:00</time></trkpt><trkpt lat="42.899239" lon="19.616648"><ele>1564.9</ele><time>2012-04-30T13:38:25.0000000+00:00</time></trkpt><trkpt lat="42.899242" lon="19.616655"><ele>1563.7</ele><time>2012-04-30T13:38:30.0000000+00:00</time></trkpt><trkpt lat="42.899242" lon="19.616657"><ele>1563.9</ele><time>2012-04-30T13:38:35.0000000+00:00</time></trkpt><trkpt lat="42.899311" lon="19.616621"><ele>1563.3</ele><time>2012-04-30T13:38:40.0000000+00:00</time></trkpt><trkpt lat="42.899357" lon="19.61659"><ele>1563.2</ele><time>2012-04-30T13:38:45.0000000+00:00</time></trkpt><trkpt lat="42.899399" lon="19.616495"><ele>1562.3</ele><time>2012-04-30T13:38:50.0000000+00:00</time></trkpt><trkpt lat="42.899452" lon="19.616436"><ele>1561.8</ele><time>2012-04-30T13:38:55.0000000+00:00</time></trkpt><trkpt lat="42.899506" lon="19.616404"><ele>1562.6</ele><time>2012-04-30T13:39:00.0000000+00:00</time></trkpt><trkpt lat="42.899563" lon="19.616329"><ele>1563.0</ele><time>2012-04-30T13:39:05.0000000+00:00</time></trkpt><trkpt lat="42.899628" lon="19.616289"><ele>1563.6</ele><time>2012-04-30T13:39:10.0000000+00:00</time></trkpt><trkpt lat="42.899673" lon="19.616205"><ele>1564.8</ele><time>2012-04-30T13:39:15.0000000+00:00</time></trkpt><trkpt lat="42.899754" lon="19.616161"><ele>1565.0</ele><time>2012-04-30T13:39:20.0000000+00:00</time></trkpt><trkpt lat="42.899822" lon="19.616129"><ele>1565.6</ele><time>2012-04-30T13:39:25.0000000+00:00</time></trkpt><trkpt lat="42.899887" lon="19.61607"><ele>1564.8</ele><time>2012-04-30T13:39:30.0000000+00:00</time></trkpt><trkpt lat="42.899948" lon="19.616024"><ele>1563.7</ele><time>2012-04-30T13:39:35.0000000+00:00</time></trkpt><trkpt lat="42.900005" lon="19.615969"><ele>1564.7</ele><time>2012-04-30T13:39:40.0000000+00:00</time></trkpt><trkpt lat="42.900036" lon="19.615915"><ele>1566.2</ele><time>2012-04-30T13:39:45.0000000+00:00</time></trkpt><trkpt lat="42.900028" lon="19.615959"><ele>1567.5</ele><time>2012-04-30T13:39:50.0000000+00:00</time></trkpt><trkpt lat="42.89999" lon="19.616003"><ele>1570.7</ele><time>2012-04-30T13:39:55.0000000+00:00</time></trkpt><trkpt lat="42.899921" lon="19.616062"><ele>1571.7</ele><time>2012-04-30T13:40:00.0000000+00:00</time></trkpt><trkpt lat="42.899879" lon="19.616188"><ele>1572.7</ele><time>2012-04-30T13:40:05.0000000+00:00</time></trkpt><trkpt lat="42.899845" lon="19.616302"><ele>1573.0</ele><time>2012-04-30T13:40:10.0000000+00:00</time></trkpt><trkpt lat="42.899788" lon="19.616404"><ele>1573.9</ele><time>2012-04-30T13:40:15.0000000+00:00</time></trkpt><trkpt lat="42.899734" lon="19.616467"><ele>1575.2</ele><time>2012-04-30T13:40:20.0000000+00:00</time></trkpt><trkpt lat="42.899681" lon="19.616558"><ele>1574.2</ele><time>2012-04-30T13:40:25.0000000+00:00</time></trkpt><trkpt lat="42.899605" lon="19.616693"><ele>1575.7</ele><time>2012-04-30T13:40:30.0000000+00:00</time></trkpt><trkpt lat="42.899532" lon="19.61685"><ele>1575.6</ele><time>2012-04-30T13:40:35.0000000+00:00</time></trkpt><trkpt lat="42.899494" lon="19.616924"><ele>1575.5</ele><time>2012-04-30T13:40:40.0000000+00:00</time></trkpt><trkpt lat="42.899414" lon="19.616999"><ele>1575.5</ele><time>2012-04-30T13:40:45.0000000+00:00</time></trkpt><trkpt lat="42.899323" lon="19.617088"><ele>1575.4</ele><time>2012-04-30T13:40:50.0000000+00:00</time></trkpt><trkpt lat="42.899273" lon="19.617199"><ele>1575.5</ele><time>2012-04-30T13:40:55.0000000+00:00</time></trkpt><trkpt lat="42.899258" lon="19.617325"><ele>1576.3</ele><time>2012-04-30T13:41:00.0000000+00:00</time></trkpt><trkpt lat="42.899284" lon="19.617451"><ele>1576.7</ele><time>2012-04-30T13:41:05.0000000+00:00</time></trkpt><trkpt lat="42.899319" lon="19.617565"><ele>1576.0</ele><time>2012-04-30T13:41:10.0000000+00:00</time></trkpt><trkpt lat="42.899368" lon="19.617666"><ele>1576.4</ele><time>2012-04-30T13:41:15.0000000+00:00</time></trkpt><trkpt lat="42.899426" lon="19.617735"><ele>1576.4</ele><time>2012-04-30T13:41:20.0000000+00:00</time></trkpt><trkpt lat="42.899479" lon="19.617838"><ele>1576.4</ele><time>2012-04-30T13:41:25.0000000+00:00</time></trkpt><trkpt lat="42.899521" lon="19.617903"><ele>1576.3</ele><time>2012-04-30T13:41:30.0000000+00:00</time></trkpt><trkpt lat="42.899548" lon="19.61797"><ele>1575.6</ele><time>2012-04-30T13:41:35.0000000+00:00</time></trkpt><trkpt lat="42.899548" lon="19.617977"><ele>1575.0</ele><time>2012-04-30T13:41:40.0000000+00:00</time></trkpt><trkpt lat="42.899548" lon="19.617977"><ele>1575.0</ele><time>2012-04-30T13:41:45.0000000+00:00</time></trkpt><trkpt lat="42.899548" lon="19.617977"><ele>1575.0</ele><time>2012-04-30T13:41:50.0000000+00:00</time></trkpt><trkpt lat="42.899548" lon="19.617977"><ele>1575.0</ele><time>2012-04-30T13:41:55.0000000+00:00</time></trkpt><trkpt lat="42.899548" lon="19.617977"><ele>1575.0</ele><time>2012-04-30T13:42:00.0000000+00:00</time></trkpt><trkpt lat="42.899548" lon="19.617977"><ele>1575.0</ele><time>2012-04-30T13:42:05.0000000+00:00</time></trkpt><trkpt lat="42.89957" lon="19.617992"><ele>1574.6</ele><time>2012-04-30T13:42:10.0000000+00:00</time></trkpt><trkpt lat="42.899582" lon="19.617996"><ele>1575.0</ele><time>2012-04-30T13:42:15.0000000+00:00</time></trkpt><trkpt lat="42.899586" lon="19.617992"><ele>1575.4</ele><time>2012-04-30T13:42:20.0000000+00:00</time></trkpt><trkpt lat="42.899597" lon="19.617989"><ele>1575.9</ele><time>2012-04-30T13:42:25.0000000+00:00</time></trkpt><trkpt lat="42.899616" lon="19.617996"><ele>1577.1</ele><time>2012-04-30T13:42:30.0000000+00:00</time></trkpt><trkpt lat="42.899643" lon="19.617992"><ele>1578.0</ele><time>2012-04-30T13:42:35.0000000+00:00</time></trkpt><trkpt lat="42.899666" lon="19.618004"><ele>1579.5</ele><time>2012-04-30T13:42:40.0000000+00:00</time></trkpt><trkpt lat="42.899685" lon="19.618008"><ele>1581.4</ele><time>2012-04-30T13:42:45.0000000+00:00</time></trkpt><trkpt lat="42.899681" lon="19.618025"><ele>1581.7</ele><time>2012-04-30T13:42:50.0000000+00:00</time></trkpt><trkpt lat="42.899708" lon="19.617985"><ele>1581.0</ele><time>2012-04-30T13:42:55.0000000+00:00</time></trkpt><trkpt lat="42.899708" lon="19.617939"><ele>1581.1</ele><time>2012-04-30T13:43:00.0000000+00:00</time></trkpt><trkpt lat="42.899704" lon="19.617893"><ele>1581.0</ele><time>2012-04-30T13:43:05.0000000+00:00</time></trkpt><trkpt lat="42.899708" lon="19.617887"><ele>1580.2</ele><time>2012-04-30T13:43:10.0000000+00:00</time></trkpt><trkpt lat="42.899708" lon="19.617891"><ele>1580.0</ele><time>2012-04-30T13:43:15.0000000+00:00</time></trkpt><trkpt lat="42.899708" lon="19.617891"><ele>1580.0</ele><time>2012-04-30T13:43:20.0000000+00:00</time></trkpt><trkpt lat="42.899708" lon="19.617891"><ele>1580.0</ele><time>2012-04-30T13:43:25.0000000+00:00</time></trkpt><trkpt lat="42.899708" lon="19.617891"><ele>1580.0</ele><time>2012-04-30T13:43:30.0000000+00:00</time></trkpt><trkpt lat="42.899712" lon="19.617891"><ele>1580.0</ele><time>2012-04-30T13:43:35.0000000+00:00</time></trkpt><trkpt lat="42.899712" lon="19.617891"><ele>1580.0</ele><time>2012-04-30T13:43:40.0000000+00:00</time></trkpt><trkpt lat="42.899712" lon="19.617891"><ele>1580.0</ele><time>2012-04-30T13:43:45.0000000+00:00</time></trkpt><trkpt lat="42.899712" lon="19.617891"><ele>1579.9</ele><time>2012-04-30T13:43:50.0000000+00:00</time></trkpt><trkpt lat="42.899712" lon="19.617891"><ele>1579.9</ele><time>2012-04-30T13:43:55.0000000+00:00</time></trkpt><trkpt lat="42.899712" lon="19.617893"><ele>1580.0</ele><time>2012-04-30T13:44:00.0000000+00:00</time></trkpt><trkpt lat="42.899712" lon="19.617893"><ele>1580.0</ele><time>2012-04-30T13:44:05.0000000+00:00</time></trkpt><trkpt lat="42.899712" lon="19.617893"><ele>1580.0</ele><time>2012-04-30T13:44:10.0000000+00:00</time></trkpt><trkpt lat="42.899712" lon="19.617893"><ele>1580.0</ele><time>2012-04-30T13:44:15.0000000+00:00</time></trkpt><trkpt lat="42.899712" lon="19.617893"><ele>1580.0</ele><time>2012-04-30T13:44:20.0000000+00:00</time></trkpt><trkpt lat="42.899712" lon="19.617891"><ele>1580.7</ele><time>2012-04-30T13:44:25.0000000+00:00</time></trkpt><trkpt lat="42.899715" lon="19.617891"><ele>1580.8</ele><time>2012-04-30T13:44:30.0000000+00:00</time></trkpt><trkpt lat="42.899715" lon="19.617891"><ele>1580.8</ele><time>2012-04-30T13:44:35.0000000+00:00</time></trkpt><trkpt lat="42.899715" lon="19.617891"><ele>1580.8</ele><time>2012-04-30T13:44:40.0000000+00:00</time></trkpt><trkpt lat="42.899715" lon="19.617891"><ele>1580.9</ele><time>2012-04-30T13:44:45.0000000+00:00</time></trkpt><trkpt lat="42.899715" lon="19.617891"><ele>1580.9</ele><time>2012-04-30T13:44:50.0000000+00:00</time></trkpt><trkpt lat="42.899715" lon="19.617891"><ele>1580.9</ele><time>2012-04-30T13:44:55.0000000+00:00</time></trkpt><trkpt lat="42.899715" lon="19.617891"><ele>1581.0</ele><time>2012-04-30T13:45:00.0000000+00:00</time></trkpt><trkpt lat="42.899715" lon="19.617891"><ele>1581.0</ele><time>2012-04-30T13:45:05.0000000+00:00</time></trkpt><trkpt lat="42.899715" lon="19.617891"><ele>1581.0</ele><time>2012-04-30T13:45:10.0000000+00:00</time></trkpt><trkpt lat="42.899715" lon="19.617891"><ele>1581.0</ele><time>2012-04-30T13:45:15.0000000+00:00</time></trkpt><trkpt lat="42.899715" lon="19.617891"><ele>1581.1</ele><time>2012-04-30T13:45:20.0000000+00:00</time></trkpt><trkpt lat="42.899715" lon="19.617891"><ele>1581.1</ele><time>2012-04-30T13:45:25.0000000+00:00</time></trkpt><trkpt lat="42.899715" lon="19.617891"><ele>1581.1</ele><time>2012-04-30T13:45:30.0000000+00:00</time></trkpt><trkpt lat="42.899715" lon="19.617891"><ele>1581.1</ele><time>2012-04-30T13:45:35.0000000+00:00</time></trkpt><trkpt lat="42.899715" lon="19.617891"><ele>1581.2</ele><time>2012-04-30T13:45:40.0000000+00:00</time></trkpt><trkpt lat="42.899715" lon="19.617891"><ele>1581.2</ele><time>2012-04-30T13:45:45.0000000+00:00</time></trkpt><trkpt lat="42.899715" lon="19.617891"><ele>1581.2</ele><time>2012-04-30T13:45:50.0000000+00:00</time></trkpt><trkpt lat="42.899715" lon="19.617891"><ele>1581.2</ele><time>2012-04-30T13:45:55.0000000+00:00</time></trkpt><trkpt lat="42.899715" lon="19.617891"><ele>1581.3</ele><time>2012-04-30T13:46:00.0000000+00:00</time></trkpt><trkpt lat="42.899715" lon="19.617891"><ele>1581.3</ele><time>2012-04-30T13:46:05.0000000+00:00</time></trkpt><trkpt lat="42.899715" lon="19.617891"><ele>1581.3</ele><time>2012-04-30T13:46:10.0000000+00:00</time></trkpt><trkpt lat="42.899715" lon="19.617891"><ele>1581.3</ele><time>2012-04-30T13:46:15.0000000+00:00</time></trkpt><trkpt lat="42.899715" lon="19.617891"><ele>1581.4</ele><time>2012-04-30T13:46:20.0000000+00:00</time></trkpt><trkpt lat="42.899715" lon="19.617891"><ele>1581.4</ele><time>2012-04-30T13:46:25.0000000+00:00</time></trkpt><trkpt lat="42.899715" lon="19.61787"><ele>1581.6</ele><time>2012-04-30T13:46:30.0000000+00:00</time></trkpt><trkpt lat="42.8997" lon="19.617767"><ele>1582.4</ele><time>2012-04-30T13:46:35.0000000+00:00</time></trkpt><trkpt lat="42.8997" lon="19.617643"><ele>1583.4</ele><time>2012-04-30T13:46:40.0000000+00:00</time></trkpt><trkpt lat="42.899681" lon="19.617508"><ele>1585.1</ele><time>2012-04-30T13:46:45.0000000+00:00</time></trkpt><trkpt lat="42.89967" lon="19.617399"><ele>1587.1</ele><time>2012-04-30T13:46:50.0000000+00:00</time></trkpt><trkpt lat="42.899662" lon="19.617281"><ele>1587.5</ele><time>2012-04-30T13:46:55.0000000+00:00</time></trkpt><trkpt lat="42.899673" lon="19.617161"><ele>1588.8</ele><time>2012-04-30T13:47:00.0000000+00:00</time></trkpt><trkpt lat="42.899715" lon="19.617043"><ele>1589.4</ele><time>2012-04-30T13:47:05.0000000+00:00</time></trkpt><trkpt lat="42.899754" lon="19.616947"><ele>1590.3</ele><time>2012-04-30T13:47:10.0000000+00:00</time></trkpt><trkpt lat="42.899788" lon="19.616867"><ele>1591.1</ele><time>2012-04-30T13:47:15.0000000+00:00</time></trkpt><trkpt lat="42.899834" lon="19.616798"><ele>1593.1</ele><time>2012-04-30T13:47:20.0000000+00:00</time></trkpt><trkpt lat="42.899895" lon="19.616726"><ele>1592.3</ele><time>2012-04-30T13:47:25.0000000+00:00</time></trkpt><trkpt lat="42.899944" lon="19.616669"><ele>1593.0</ele><time>2012-04-30T13:47:30.0000000+00:00</time></trkpt><trkpt lat="42.899994" lon="19.616638"><ele>1593.4</ele><time>2012-04-30T13:47:35.0000000+00:00</time></trkpt><trkpt lat="42.900055" lon="19.616632"><ele>1593.9</ele><time>2012-04-30T13:47:40.0000000+00:00</time></trkpt><trkpt lat="42.900124" lon="19.616648"><ele>1597.3</ele><time>2012-04-30T13:47:45.0000000+00:00</time></trkpt><trkpt lat="42.900204" lon="19.616699"><ele>1598.6</ele><time>2012-04-30T13:47:50.0000000+00:00</time></trkpt><trkpt lat="42.900284" lon="19.616745"><ele>1600.1</ele><time>2012-04-30T13:47:55.0000000+00:00</time></trkpt><trkpt lat="42.900364" lon="19.616772"><ele>1602.4</ele><time>2012-04-30T13:48:00.0000000+00:00</time></trkpt><trkpt lat="42.900421" lon="19.616787"><ele>1605.5</ele><time>2012-04-30T13:48:05.0000000+00:00</time></trkpt><trkpt lat="42.900463" lon="19.616827"><ele>1603.2</ele><time>2012-04-30T13:48:10.0000000+00:00</time></trkpt><trkpt lat="42.900486" lon="19.616877"><ele>1605.8</ele><time>2012-04-30T13:48:15.0000000+00:00</time></trkpt><trkpt lat="42.90044" lon="19.616898"><ele>1606.2</ele><time>2012-04-30T13:48:20.0000000+00:00</time></trkpt><trkpt lat="42.900364" lon="19.616867"><ele>1606.5</ele><time>2012-04-30T13:48:25.0000000+00:00</time></trkpt><trkpt lat="42.900272" lon="19.616859"><ele>1607.2</ele><time>2012-04-30T13:48:30.0000000+00:00</time></trkpt><trkpt lat="42.900185" lon="19.61688"><ele>1605.2</ele><time>2012-04-30T13:48:35.0000000+00:00</time></trkpt><trkpt lat="42.900089" lon="19.616898"><ele>1604.6</ele><time>2012-04-30T13:48:40.0000000+00:00</time></trkpt><trkpt lat="42.900036" lon="19.61698"><ele>1604.5</ele><time>2012-04-30T13:48:45.0000000+00:00</time></trkpt><trkpt lat="42.900043" lon="19.617086"><ele>1603.8</ele><time>2012-04-30T13:48:50.0000000+00:00</time></trkpt><trkpt lat="42.900078" lon="19.617178"><ele>1604.5</ele><time>2012-04-30T13:48:55.0000000+00:00</time></trkpt><trkpt lat="42.900116" lon="19.617256"><ele>1606.3</ele><time>2012-04-30T13:49:00.0000000+00:00</time></trkpt><trkpt lat="42.900146" lon="19.617334"><ele>1609.6</ele><time>2012-04-30T13:49:05.0000000+00:00</time></trkpt><trkpt lat="42.900177" lon="19.617409"><ele>1610.4</ele><time>2012-04-30T13:49:10.0000000+00:00</time></trkpt><trkpt lat="42.90023" lon="19.617476"><ele>1610.1</ele><time>2012-04-30T13:49:15.0000000+00:00</time></trkpt><trkpt lat="42.900265" lon="19.617542"><ele>1610.6</ele><time>2012-04-30T13:49:20.0000000+00:00</time></trkpt><trkpt lat="42.900295" lon="19.61763"><ele>1613.6</ele><time>2012-04-30T13:49:25.0000000+00:00</time></trkpt><trkpt lat="42.900314" lon="19.617716"><ele>1614.5</ele><time>2012-04-30T13:49:30.0000000+00:00</time></trkpt><trkpt lat="42.900333" lon="19.617805"><ele>1615.4</ele><time>2012-04-30T13:49:35.0000000+00:00</time></trkpt><trkpt lat="42.900345" lon="19.617897"><ele>1616.0</ele><time>2012-04-30T13:49:40.0000000+00:00</time></trkpt><trkpt lat="42.900341" lon="19.618019"><ele>1617.1</ele><time>2012-04-30T13:49:45.0000000+00:00</time></trkpt><trkpt lat="42.900326" lon="19.618111"><ele>1617.4</ele><time>2012-04-30T13:49:50.0000000+00:00</time></trkpt><trkpt lat="42.900284" lon="19.618219"><ele>1618.4</ele><time>2012-04-30T13:49:55.0000000+00:00</time></trkpt><trkpt lat="42.900269" lon="19.618269"><ele>1620.1</ele><time>2012-04-30T13:50:00.0000000+00:00</time></trkpt><trkpt lat="42.900253" lon="19.618305"><ele>1622.0</ele><time>2012-04-30T13:50:05.0000000+00:00</time></trkpt><trkpt lat="42.900261" lon="19.618328"><ele>1623.1</ele><time>2012-04-30T13:50:10.0000000+00:00</time></trkpt><trkpt lat="42.900249" lon="19.61841"><ele>1624.9</ele><time>2012-04-30T13:50:15.0000000+00:00</time></trkpt><trkpt lat="42.900234" lon="19.61846"><ele>1626.5</ele><time>2012-04-30T13:50:20.0000000+00:00</time></trkpt><trkpt lat="42.900234" lon="19.618513"><ele>1627.5</ele><time>2012-04-30T13:50:25.0000000+00:00</time></trkpt><trkpt lat="42.900204" lon="19.618582"><ele>1627.9</ele><time>2012-04-30T13:50:30.0000000+00:00</time></trkpt><trkpt lat="42.900196" lon="19.618645"><ele>1627.9</ele><time>2012-04-30T13:50:35.0000000+00:00</time></trkpt><trkpt lat="42.900139" lon="19.618696"><ele>1629.1</ele><time>2012-04-30T13:50:40.0000000+00:00</time></trkpt><trkpt lat="42.900143" lon="19.618721"><ele>1630.4</ele><time>2012-04-30T13:50:45.0000000+00:00</time></trkpt><trkpt lat="42.900143" lon="19.618755"><ele>1630.8</ele><time>2012-04-30T13:50:50.0000000+00:00</time></trkpt><trkpt lat="42.900108" lon="19.618799"><ele>1630.3</ele><time>2012-04-30T13:50:55.0000000+00:00</time></trkpt><trkpt lat="42.900047" lon="19.618847"><ele>1629.9</ele><time>2012-04-30T13:51:00.0000000+00:00</time></trkpt><trkpt lat="42.900032" lon="19.61891"><ele>1630.2</ele><time>2012-04-30T13:51:05.0000000+00:00</time></trkpt><trkpt lat="42.900002" lon="19.618965"><ele>1631.6</ele><time>2012-04-30T13:51:10.0000000+00:00</time></trkpt><trkpt lat="42.899956" lon="19.619001"><ele>1632.7</ele><time>2012-04-30T13:51:15.0000000+00:00</time></trkpt><trkpt lat="42.899933" lon="19.619051"><ele>1634.5</ele><time>2012-04-30T13:51:20.0000000+00:00</time></trkpt><trkpt lat="42.89991" lon="19.619068"><ele>1636.7</ele><time>2012-04-30T13:51:25.0000000+00:00</time></trkpt><trkpt lat="42.899891" lon="19.619089"><ele>1638.0</ele><time>2012-04-30T13:51:30.0000000+00:00</time></trkpt><trkpt lat="42.899868" lon="19.619112"><ele>1638.9</ele><time>2012-04-30T13:51:35.0000000+00:00</time></trkpt><trkpt lat="42.899887" lon="19.619108"><ele>1639.9</ele><time>2012-04-30T13:51:40.0000000+00:00</time></trkpt><trkpt lat="42.89991" lon="19.619083"><ele>1640.9</ele><time>2012-04-30T13:51:45.0000000+00:00</time></trkpt><trkpt lat="42.899956" lon="19.61908"><ele>1642.2</ele><time>2012-04-30T13:51:50.0000000+00:00</time></trkpt><trkpt lat="42.899967" lon="19.619064"><ele>1643.4</ele><time>2012-04-30T13:51:55.0000000+00:00</time></trkpt><trkpt lat="42.899982" lon="19.61904"><ele>1643.6</ele><time>2012-04-30T13:52:00.0000000+00:00</time></trkpt><trkpt lat="42.900051" lon="19.618971"><ele>1644.4</ele><time>2012-04-30T13:52:05.0000000+00:00</time></trkpt><trkpt lat="42.900112" lon="19.618931"><ele>1645.9</ele><time>2012-04-30T13:52:10.0000000+00:00</time></trkpt><trkpt lat="42.900139" lon="19.618864"><ele>1647.2</ele><time>2012-04-30T13:52:15.0000000+00:00</time></trkpt><trkpt lat="42.900166" lon="19.618814"><ele>1649.0</ele><time>2012-04-30T13:52:20.0000000+00:00</time></trkpt><trkpt lat="42.900192" lon="19.618761"><ele>1650.5</ele><time>2012-04-30T13:52:25.0000000+00:00</time></trkpt><trkpt lat="42.900204" lon="19.618713"><ele>1652.8</ele><time>2012-04-30T13:52:30.0000000+00:00</time></trkpt><trkpt lat="42.900215" lon="19.618681"><ele>1654.0</ele><time>2012-04-30T13:52:35.0000000+00:00</time></trkpt><trkpt lat="42.900227" lon="19.618643"><ele>1652.6</ele><time>2012-04-30T13:52:40.0000000+00:00</time></trkpt><trkpt lat="42.900269" lon="19.618601"><ele>1653.4</ele><time>2012-04-30T13:52:45.0000000+00:00</time></trkpt><trkpt lat="42.900299" lon="19.618538"><ele>1653.9</ele><time>2012-04-30T13:52:50.0000000+00:00</time></trkpt><trkpt lat="42.900322" lon="19.618467"><ele>1654.4</ele><time>2012-04-30T13:52:55.0000000+00:00</time></trkpt><trkpt lat="42.900352" lon="19.618408"><ele>1654.8</ele><time>2012-04-30T13:53:00.0000000+00:00</time></trkpt><trkpt lat="42.900406" lon="19.618343"><ele>1654.7</ele><time>2012-04-30T13:53:05.0000000+00:00</time></trkpt><trkpt lat="42.900436" lon="19.618296"><ele>1653.4</ele><time>2012-04-30T13:53:10.0000000+00:00</time></trkpt><trkpt lat="42.900475" lon="19.618269"><ele>1653.2</ele><time>2012-04-30T13:53:15.0000000+00:00</time></trkpt><trkpt lat="42.900482" lon="19.618191"><ele>1653.7</ele><time>2012-04-30T13:53:20.0000000+00:00</time></trkpt><trkpt lat="42.90052" lon="19.618118"><ele>1652.0</ele><time>2012-04-30T13:53:25.0000000+00:00</time></trkpt><trkpt lat="42.900555" lon="19.618052"><ele>1650.1</ele><time>2012-04-30T13:53:30.0000000+00:00</time></trkpt><trkpt lat="42.900585" lon="19.618006"><ele>1649.1</ele><time>2012-04-30T13:53:35.0000000+00:00</time></trkpt><trkpt lat="42.90062" lon="19.617928"><ele>1647.8</ele><time>2012-04-30T13:53:40.0000000+00:00</time></trkpt><trkpt lat="42.900646" lon="19.617851"><ele>1647.0</ele><time>2012-04-30T13:53:45.0000000+00:00</time></trkpt><trkpt lat="42.900692" lon="19.617785"><ele>1644.9</ele><time>2012-04-30T13:53:50.0000000+00:00</time></trkpt><trkpt lat="42.900723" lon="19.617725"><ele>1644.9</ele><time>2012-04-30T13:53:55.0000000+00:00</time></trkpt><trkpt lat="42.900749" lon="19.617695"><ele>1644.7</ele><time>2012-04-30T13:54:00.0000000+00:00</time></trkpt><trkpt lat="42.900745" lon="19.617702"><ele>1644.0</ele><time>2012-04-30T13:54:05.0000000+00:00</time></trkpt><trkpt lat="42.900745" lon="19.617702"><ele>1644.2</ele><time>2012-04-30T13:54:10.0000000+00:00</time></trkpt><trkpt lat="42.900749" lon="19.617697"><ele>1644.4</ele><time>2012-04-30T13:54:15.0000000+00:00</time></trkpt><trkpt lat="42.900757" lon="19.617695"><ele>1642.6</ele><time>2012-04-30T13:54:20.0000000+00:00</time></trkpt><trkpt lat="42.900776" lon="19.617739"><ele>1641.8</ele><time>2012-04-30T13:54:25.0000000+00:00</time></trkpt><trkpt lat="42.900784" lon="19.617832"><ele>1641.8</ele><time>2012-04-30T13:54:30.0000000+00:00</time></trkpt><trkpt lat="42.900757" lon="19.617882"><ele>1642.1</ele><time>2012-04-30T13:54:35.0000000+00:00</time></trkpt><trkpt lat="42.900738" lon="19.617926"><ele>1642.5</ele><time>2012-04-30T13:54:40.0000000+00:00</time></trkpt><trkpt lat="42.900726" lon="19.617979"><ele>1643.2</ele><time>2012-04-30T13:54:45.0000000+00:00</time></trkpt><trkpt lat="42.900734" lon="19.618071"><ele>1642.9</ele><time>2012-04-30T13:54:50.0000000+00:00</time></trkpt><trkpt lat="42.900723" lon="19.618162"><ele>1643.4</ele><time>2012-04-30T13:54:55.0000000+00:00</time></trkpt><trkpt lat="42.900692" lon="19.618231"><ele>1644.5</ele><time>2012-04-30T13:55:00.0000000+00:00</time></trkpt><trkpt lat="42.900654" lon="19.618311"><ele>1645.8</ele><time>2012-04-30T13:55:05.0000000+00:00</time></trkpt><trkpt lat="42.900627" lon="19.618401"><ele>1645.9</ele><time>2012-04-30T13:55:10.0000000+00:00</time></trkpt><trkpt lat="42.900627" lon="19.618465"><ele>1648.0</ele><time>2012-04-30T13:55:15.0000000+00:00</time></trkpt><trkpt lat="42.900608" lon="19.61857"><ele>1648.9</ele><time>2012-04-30T13:55:20.0000000+00:00</time></trkpt><trkpt lat="42.90057" lon="19.618601"><ele>1652.2</ele><time>2012-04-30T13:55:25.0000000+00:00</time></trkpt><trkpt lat="42.900547" lon="19.618668"><ele>1655.4</ele><time>2012-04-30T13:55:30.0000000+00:00</time></trkpt><trkpt lat="42.900539" lon="19.618675"><ele>1655.4</ele><time>2012-04-30T13:55:35.0000000+00:00</time></trkpt><trkpt lat="42.900539" lon="19.618675"><ele>1655.6</ele><time>2012-04-30T13:55:40.0000000+00:00</time></trkpt><trkpt lat="42.900539" lon="19.618679"><ele>1655.6</ele><time>2012-04-30T13:55:45.0000000+00:00</time></trkpt><trkpt lat="42.90052" lon="19.618729"><ele>1657.2</ele><time>2012-04-30T13:55:50.0000000+00:00</time></trkpt><trkpt lat="42.900505" lon="19.618786"><ele>1655.9</ele><time>2012-04-30T13:55:55.0000000+00:00</time></trkpt><trkpt lat="42.900513" lon="19.61886"><ele>1653.8</ele><time>2012-04-30T13:56:00.0000000+00:00</time></trkpt><trkpt lat="42.900501" lon="19.61891"><ele>1653.8</ele><time>2012-04-30T13:56:05.0000000+00:00</time></trkpt><trkpt lat="42.900486" lon="19.618979"><ele>1656.0</ele><time>2012-04-30T13:56:10.0000000+00:00</time></trkpt><trkpt lat="42.900463" lon="19.61904"><ele>1657.9</ele><time>2012-04-30T13:56:15.0000000+00:00</time></trkpt><trkpt lat="42.90044" lon="19.619068"><ele>1659.2</ele><time>2012-04-30T13:56:20.0000000+00:00</time></trkpt><trkpt lat="42.900406" lon="19.619123"><ele>1659.4</ele><time>2012-04-30T13:56:25.0000000+00:00</time></trkpt><trkpt lat="42.900349" lon="19.61916"><ele>1660.1</ele><time>2012-04-30T13:56:30.0000000+00:00</time></trkpt><trkpt lat="42.900333" lon="19.6192"><ele>1659.5</ele><time>2012-04-30T13:56:35.0000000+00:00</time></trkpt><trkpt lat="42.900322" lon="19.619278"><ele>1658.7</ele><time>2012-04-30T13:56:40.0000000+00:00</time></trkpt><trkpt lat="42.900314" lon="19.619406"><ele>1660.2</ele><time>2012-04-30T13:56:45.0000000+00:00</time></trkpt><trkpt lat="42.900257" lon="19.61949"><ele>1660.6</ele><time>2012-04-30T13:56:50.0000000+00:00</time></trkpt><trkpt lat="42.900181" lon="19.619574"><ele>1660.5</ele><time>2012-04-30T13:56:55.0000000+00:00</time></trkpt><trkpt lat="42.900154" lon="19.619635"><ele>1662.2</ele><time>2012-04-30T13:57:00.0000000+00:00</time></trkpt><trkpt lat="42.900105" lon="19.619711"><ele>1662.0</ele><time>2012-04-30T13:57:05.0000000+00:00</time></trkpt><trkpt lat="42.900059" lon="19.619722"><ele>1661.6</ele><time>2012-04-30T13:57:10.0000000+00:00</time></trkpt><trkpt lat="42.900047" lon="19.619717"><ele>1662.3</ele><time>2012-04-30T13:57:15.0000000+00:00</time></trkpt><trkpt lat="42.900043" lon="19.61973"><ele>1661.4</ele><time>2012-04-30T13:57:20.0000000+00:00</time></trkpt><trkpt lat="42.90004" lon="19.619736"><ele>1661.0</ele><time>2012-04-30T13:57:25.0000000+00:00</time></trkpt><trkpt lat="42.900036" lon="19.619741"><ele>1659.4</ele><time>2012-04-30T13:57:30.0000000+00:00</time></trkpt><trkpt lat="42.900036" lon="19.61974"><ele>1659.3</ele><time>2012-04-30T13:57:35.0000000+00:00</time></trkpt><trkpt lat="42.900036" lon="19.61974"><ele>1659.3</ele><time>2012-04-30T13:57:40.0000000+00:00</time></trkpt><trkpt lat="42.900036" lon="19.61974"><ele>1659.3</ele><time>2012-04-30T13:57:45.0000000+00:00</time></trkpt><trkpt lat="42.900036" lon="19.619738"><ele>1659.3</ele><time>2012-04-30T13:57:50.0000000+00:00</time></trkpt><trkpt lat="42.900032" lon="19.619738"><ele>1659.2</ele><time>2012-04-30T13:57:55.0000000+00:00</time></trkpt><trkpt lat="42.900032" lon="19.619738"><ele>1659.2</ele><time>2012-04-30T13:58:00.0000000+00:00</time></trkpt><trkpt lat="42.90004" lon="19.619766"><ele>1658.9</ele><time>2012-04-30T13:58:05.0000000+00:00</time></trkpt><trkpt lat="42.900047" lon="19.619843"><ele>1659.3</ele><time>2012-04-30T13:58:10.0000000+00:00</time></trkpt><trkpt lat="42.900066" lon="19.619921"><ele>1659.0</ele><time>2012-04-30T13:58:15.0000000+00:00</time></trkpt><trkpt lat="42.900082" lon="19.62001"><ele>1658.7</ele><time>2012-04-30T13:58:20.0000000+00:00</time></trkpt><trkpt lat="42.900089" lon="19.62009"><ele>1658.4</ele><time>2012-04-30T13:58:25.0000000+00:00</time></trkpt><trkpt lat="42.900074" lon="19.620171"><ele>1658.9</ele><time>2012-04-30T13:58:30.0000000+00:00</time></trkpt><trkpt lat="42.900074" lon="19.620214"><ele>1658.7</ele><time>2012-04-30T13:58:35.0000000+00:00</time></trkpt><trkpt lat="42.90007" lon="19.620213"><ele>1658.6</ele><time>2012-04-30T13:58:40.0000000+00:00</time></trkpt><trkpt lat="42.90007" lon="19.620235"><ele>1659.0</ele><time>2012-04-30T13:58:45.0000000+00:00</time></trkpt><trkpt lat="42.90007" lon="19.620287"><ele>1659.0</ele><time>2012-04-30T13:58:50.0000000+00:00</time></trkpt><trkpt lat="42.900055" lon="19.620377"><ele>1659.2</ele><time>2012-04-30T13:58:55.0000000+00:00</time></trkpt><trkpt lat="42.900051" lon="19.620392"><ele>1658.9</ele><time>2012-04-30T13:59:00.0000000+00:00</time></trkpt><trkpt lat="42.900032" lon="19.620409"><ele>1658.8</ele><time>2012-04-30T13:59:05.0000000+00:00</time></trkpt><trkpt lat="42.900005" lon="19.620472"><ele>1659.3</ele><time>2012-04-30T13:59:10.0000000+00:00</time></trkpt><trkpt lat="42.900005" lon="19.62055"><ele>1658.9</ele><time>2012-04-30T13:59:15.0000000+00:00</time></trkpt><trkpt lat="42.900002" lon="19.620565"><ele>1659.3</ele><time>2012-04-30T13:59:20.0000000+00:00</time></trkpt><trkpt lat="42.900009" lon="19.620621"><ele>1659.5</ele><time>2012-04-30T13:59:25.0000000+00:00</time></trkpt><trkpt lat="42.900009" lon="19.620665"><ele>1659.6</ele><time>2012-04-30T13:59:30.0000000+00:00</time></trkpt><trkpt lat="42.899998" lon="19.620674"><ele>1660.0</ele><time>2012-04-30T13:59:35.0000000+00:00</time></trkpt><trkpt lat="42.899975" lon="19.620686"><ele>1660.5</ele><time>2012-04-30T13:59:40.0000000+00:00</time></trkpt><trkpt lat="42.899986" lon="19.620718"><ele>1660.6</ele><time>2012-04-30T13:59:45.0000000+00:00</time></trkpt><trkpt lat="42.899979" lon="19.620737"><ele>1661.1</ele><time>2012-04-30T13:59:50.0000000+00:00</time></trkpt><trkpt lat="42.899963" lon="19.62072"><ele>1661.2</ele><time>2012-04-30T13:59:55.0000000+00:00</time></trkpt><trkpt lat="42.899963" lon="19.620718"><ele>1661.3</ele><time>2012-04-30T14:00:00.0000000+00:00</time></trkpt><trkpt lat="42.899963" lon="19.620745"><ele>1661.3</ele><time>2012-04-30T14:00:05.0000000+00:00</time></trkpt><trkpt lat="42.899944" lon="19.62076"><ele>1661.4</ele><time>2012-04-30T14:00:10.0000000+00:00</time></trkpt><trkpt lat="42.899929" lon="19.620749"><ele>1661.4</ele><time>2012-04-30T14:00:15.0000000+00:00</time></trkpt><trkpt lat="42.899918" lon="19.620764"><ele>1660.3</ele><time>2012-04-30T14:00:20.0000000+00:00</time></trkpt><trkpt lat="42.89991" lon="19.620764"><ele>1660.2</ele><time>2012-04-30T14:00:25.0000000+00:00</time></trkpt><trkpt lat="42.899906" lon="19.620768"><ele>1660.3</ele><time>2012-04-30T14:00:30.0000000+00:00</time></trkpt><trkpt lat="42.899914" lon="19.620773"><ele>1661.1</ele><time>2012-04-30T14:00:35.0000000+00:00</time></trkpt><trkpt lat="42.899902" lon="19.620779"><ele>1661.9</ele><time>2012-04-30T14:00:40.0000000+00:00</time></trkpt><trkpt lat="42.899895" lon="19.620829"><ele>1661.9</ele><time>2012-04-30T14:00:45.0000000+00:00</time></trkpt><trkpt lat="42.899887" lon="19.620892"><ele>1661.3</ele><time>2012-04-30T14:00:50.0000000+00:00</time></trkpt><trkpt lat="42.899879" lon="19.620918"><ele>1663.2</ele><time>2012-04-30T14:00:55.0000000+00:00</time></trkpt><trkpt lat="42.899879" lon="19.620922"><ele>1663.3</ele><time>2012-04-30T14:01:00.0000000+00:00</time></trkpt><trkpt lat="42.899876" lon="19.62096"><ele>1664.0</ele><time>2012-04-30T14:01:05.0000000+00:00</time></trkpt><trkpt lat="42.899879" lon="19.620983"><ele>1663.9</ele><time>2012-04-30T14:01:10.0000000+00:00</time></trkpt><trkpt lat="42.899883" lon="19.621"><ele>1663.8</ele><time>2012-04-30T14:01:15.0000000+00:00</time></trkpt><trkpt lat="42.899879" lon="19.62101"><ele>1664.0</ele><time>2012-04-30T14:01:20.0000000+00:00</time></trkpt><trkpt lat="42.899872" lon="19.621019"><ele>1664.1</ele><time>2012-04-30T14:01:25.0000000+00:00</time></trkpt><trkpt lat="42.899879" lon="19.621019"><ele>1664.7</ele><time>2012-04-30T14:01:30.0000000+00:00</time></trkpt><trkpt lat="42.899887" lon="19.621019"><ele>1664.6</ele><time>2012-04-30T14:01:35.0000000+00:00</time></trkpt><trkpt lat="42.899891" lon="19.621021"><ele>1664.6</ele><time>2012-04-30T14:01:40.0000000+00:00</time></trkpt><trkpt lat="42.899895" lon="19.621027"><ele>1664.7</ele><time>2012-04-30T14:01:45.0000000+00:00</time></trkpt><trkpt lat="42.899876" lon="19.621029"><ele>1664.5</ele><time>2012-04-30T14:01:50.0000000+00:00</time></trkpt><trkpt lat="42.899868" lon="19.621058"><ele>1664.6</ele><time>2012-04-30T14:01:55.0000000+00:00</time></trkpt><trkpt lat="42.899849" lon="19.621092"><ele>1664.6</ele><time>2012-04-30T14:02:00.0000000+00:00</time></trkpt><trkpt lat="42.899811" lon="19.621143"><ele>1665.5</ele><time>2012-04-30T14:02:05.0000000+00:00</time></trkpt><trkpt lat="42.899803" lon="19.621204"><ele>1666.7</ele><time>2012-04-30T14:02:10.0000000+00:00</time></trkpt><trkpt lat="42.899792" lon="19.621271"><ele>1667.4</ele><time>2012-04-30T14:02:15.0000000+00:00</time></trkpt><trkpt lat="42.899773" lon="19.621323"><ele>1668.0</ele><time>2012-04-30T14:02:20.0000000+00:00</time></trkpt><trkpt lat="42.899738" lon="19.621374"><ele>1667.0</ele><time>2012-04-30T14:02:25.0000000+00:00</time></trkpt><trkpt lat="42.899723" lon="19.621424"><ele>1666.8</ele><time>2012-04-30T14:02:30.0000000+00:00</time></trkpt><trkpt lat="42.899715" lon="19.621475"><ele>1667.3</ele><time>2012-04-30T14:02:35.0000000+00:00</time></trkpt><trkpt lat="42.899712" lon="19.621523"><ele>1667.7</ele><time>2012-04-30T14:02:40.0000000+00:00</time></trkpt><trkpt lat="42.899693" lon="19.621607"><ele>1667.2</ele><time>2012-04-30T14:02:45.0000000+00:00</time></trkpt><trkpt lat="42.899677" lon="19.621685"><ele>1668.2</ele><time>2012-04-30T14:02:50.0000000+00:00</time></trkpt><trkpt lat="42.899647" lon="19.62174"><ele>1668.8</ele><time>2012-04-30T14:02:55.0000000+00:00</time></trkpt><trkpt lat="42.899639" lon="19.621826"><ele>1670.0</ele><time>2012-04-30T14:03:00.0000000+00:00</time></trkpt><trkpt lat="42.899635" lon="19.621866"><ele>1673.0</ele><time>2012-04-30T14:03:05.0000000+00:00</time></trkpt><trkpt lat="42.89962" lon="19.621883"><ele>1674.9</ele><time>2012-04-30T14:03:10.0000000+00:00</time></trkpt><trkpt lat="42.899605" lon="19.621939"><ele>1676.3</ele><time>2012-04-30T14:03:15.0000000+00:00</time></trkpt><trkpt lat="42.899597" lon="19.622032"><ele>1677.6</ele><time>2012-04-30T14:03:20.0000000+00:00</time></trkpt><trkpt lat="42.899593" lon="19.622139"><ele>1677.9</ele><time>2012-04-30T14:03:25.0000000+00:00</time></trkpt><trkpt lat="42.899574" lon="19.622217"><ele>1679.1</ele><time>2012-04-30T14:03:30.0000000+00:00</time></trkpt><trkpt lat="42.899567" lon="19.622316"><ele>1679.6</ele><time>2012-04-30T14:03:35.0000000+00:00</time></trkpt><trkpt lat="42.899567" lon="19.622429"><ele>1680.5</ele><time>2012-04-30T14:03:40.0000000+00:00</time></trkpt><trkpt lat="42.899582" lon="19.622541"><ele>1679.6</ele><time>2012-04-30T14:03:45.0000000+00:00</time></trkpt><trkpt lat="42.89962" lon="19.622641"><ele>1677.1</ele><time>2012-04-30T14:03:50.0000000+00:00</time></trkpt><trkpt lat="42.899643" lon="19.62274"><ele>1677.6</ele><time>2012-04-30T14:03:55.0000000+00:00</time></trkpt><trkpt lat="42.89967" lon="19.622826"><ele>1678.1</ele><time>2012-04-30T14:04:00.0000000+00:00</time></trkpt><trkpt lat="42.899696" lon="19.622932"><ele>1679.3</ele><time>2012-04-30T14:04:05.0000000+00:00</time></trkpt><trkpt lat="42.899719" lon="19.623039"><ele>1680.2</ele><time>2012-04-30T14:04:10.0000000+00:00</time></trkpt><trkpt lat="42.899742" lon="19.623142"><ele>1680.5</ele><time>2012-04-30T14:04:15.0000000+00:00</time></trkpt><trkpt lat="42.899754" lon="19.623228"><ele>1681.2</ele><time>2012-04-30T14:04:20.0000000+00:00</time></trkpt><trkpt lat="42.899769" lon="19.623316"><ele>1680.8</ele><time>2012-04-30T14:04:25.0000000+00:00</time></trkpt><trkpt lat="42.89978" lon="19.623415"><ele>1680.9</ele><time>2012-04-30T14:04:30.0000000+00:00</time></trkpt><trkpt lat="42.899776" lon="19.623528"><ele>1681.3</ele><time>2012-04-30T14:04:35.0000000+00:00</time></trkpt><trkpt lat="42.899773" lon="19.623646"><ele>1682.4</ele><time>2012-04-30T14:04:40.0000000+00:00</time></trkpt><trkpt lat="42.899761" lon="19.623775"><ele>1682.4</ele><time>2012-04-30T14:04:45.0000000+00:00</time></trkpt><trkpt lat="42.899746" lon="19.623892"><ele>1683.7</ele><time>2012-04-30T14:04:50.0000000+00:00</time></trkpt><trkpt lat="42.899731" lon="19.624037"><ele>1684.6</ele><time>2012-04-30T14:04:55.0000000+00:00</time></trkpt><trkpt lat="42.899734" lon="19.624153"><ele>1684.0</ele><time>2012-04-30T14:05:00.0000000+00:00</time></trkpt><trkpt lat="42.899738" lon="19.624283"><ele>1684.4</ele><time>2012-04-30T14:05:05.0000000+00:00</time></trkpt><trkpt lat="42.89975" lon="19.624437"><ele>1683.3</ele><time>2012-04-30T14:05:10.0000000+00:00</time></trkpt><trkpt lat="42.899746" lon="19.624563"><ele>1684.0</ele><time>2012-04-30T14:05:15.0000000+00:00</time></trkpt><trkpt lat="42.899738" lon="19.624695"><ele>1686.1</ele><time>2012-04-30T14:05:20.0000000+00:00</time></trkpt><trkpt lat="42.89975" lon="19.624792"><ele>1686.4</ele><time>2012-04-30T14:05:25.0000000+00:00</time></trkpt><trkpt lat="42.899765" lon="19.62488"><ele>1685.8</ele><time>2012-04-30T14:05:30.0000000+00:00</time></trkpt><trkpt lat="42.899792" lon="19.624893"><ele>1686.7</ele><time>2012-04-30T14:05:35.0000000+00:00</time></trkpt><trkpt lat="42.899796" lon="19.624895"><ele>1686.7</ele><time>2012-04-30T14:05:40.0000000+00:00</time></trkpt><trkpt lat="42.899796" lon="19.624893"><ele>1686.8</ele><time>2012-04-30T14:05:45.0000000+00:00</time></trkpt><trkpt lat="42.899799" lon="19.624891"><ele>1686.8</ele><time>2012-04-30T14:05:50.0000000+00:00</time></trkpt><trkpt lat="42.899799" lon="19.624891"><ele>1686.7</ele><time>2012-04-30T14:05:55.0000000+00:00</time></trkpt><trkpt lat="42.899799" lon="19.624891"><ele>1686.7</ele><time>2012-04-30T14:06:00.0000000+00:00</time></trkpt><trkpt lat="42.899799" lon="19.624891"><ele>1686.7</ele><time>2012-04-30T14:06:05.0000000+00:00</time></trkpt><trkpt lat="42.899799" lon="19.624891"><ele>1686.8</ele><time>2012-04-30T14:06:10.0000000+00:00</time></trkpt><trkpt lat="42.899799" lon="19.624891"><ele>1686.8</ele><time>2012-04-30T14:06:15.0000000+00:00</time></trkpt><trkpt lat="42.899799" lon="19.624891"><ele>1686.8</ele><time>2012-04-30T14:06:20.0000000+00:00</time></trkpt><trkpt lat="42.899799" lon="19.624891"><ele>1686.8</ele><time>2012-04-30T14:06:25.0000000+00:00</time></trkpt><trkpt lat="42.899799" lon="19.624891"><ele>1686.8</ele><time>2012-04-30T14:06:30.0000000+00:00</time></trkpt><trkpt lat="42.899799" lon="19.624891"><ele>1686.8</ele><time>2012-04-30T14:06:35.0000000+00:00</time></trkpt><trkpt lat="42.899799" lon="19.624891"><ele>1686.8</ele><time>2012-04-30T14:06:40.0000000+00:00</time></trkpt><trkpt lat="42.899799" lon="19.624891"><ele>1686.8</ele><time>2012-04-30T14:06:45.0000000+00:00</time></trkpt><trkpt lat="42.899799" lon="19.624891"><ele>1686.9</ele><time>2012-04-30T14:06:50.0000000+00:00</time></trkpt><trkpt lat="42.899799" lon="19.624891"><ele>1686.9</ele><time>2012-04-30T14:06:55.0000000+00:00</time></trkpt><trkpt lat="42.899799" lon="19.624891"><ele>1686.9</ele><time>2012-04-30T14:07:00.0000000+00:00</time></trkpt><trkpt lat="42.899799" lon="19.624891"><ele>1686.9</ele><time>2012-04-30T14:07:05.0000000+00:00</time></trkpt><trkpt lat="42.899799" lon="19.624891"><ele>1686.9</ele><time>2012-04-30T14:07:10.0000000+00:00</time></trkpt><trkpt lat="42.899799" lon="19.624891"><ele>1686.9</ele><time>2012-04-30T14:07:15.0000000+00:00</time></trkpt><trkpt lat="42.899799" lon="19.624891"><ele>1686.9</ele><time>2012-04-30T14:07:20.0000000+00:00</time></trkpt><trkpt lat="42.899799" lon="19.624891"><ele>1686.9</ele><time>2012-04-30T14:07:25.0000000+00:00</time></trkpt><trkpt lat="42.899799" lon="19.624891"><ele>1687.0</ele><time>2012-04-30T14:07:30.0000000+00:00</time></trkpt><trkpt lat="42.899799" lon="19.624891"><ele>1687.0</ele><time>2012-04-30T14:07:35.0000000+00:00</time></trkpt><trkpt lat="42.899799" lon="19.624891"><ele>1687.0</ele><time>2012-04-30T14:07:40.0000000+00:00</time></trkpt><trkpt lat="42.899799" lon="19.624891"><ele>1687.0</ele><time>2012-04-30T14:07:45.0000000+00:00</time></trkpt><trkpt lat="42.899799" lon="19.624891"><ele>1687.0</ele><time>2012-04-30T14:07:50.0000000+00:00</time></trkpt><trkpt lat="42.899799" lon="19.624891"><ele>1687.0</ele><time>2012-04-30T14:07:55.0000000+00:00</time></trkpt><trkpt lat="42.899799" lon="19.624893"><ele>1687.0</ele><time>2012-04-30T14:08:00.0000000+00:00</time></trkpt><trkpt lat="42.899799" lon="19.624893"><ele>1687.0</ele><time>2012-04-30T14:08:05.0000000+00:00</time></trkpt><trkpt lat="42.899799" lon="19.624893"><ele>1687.0</ele><time>2012-04-30T14:08:10.0000000+00:00</time></trkpt><trkpt lat="42.899799" lon="19.624893"><ele>1687.0</ele><time>2012-04-30T14:08:15.0000000+00:00</time></trkpt><trkpt lat="42.899799" lon="19.624893"><ele>1687.0</ele><time>2012-04-30T14:08:20.0000000+00:00</time></trkpt><trkpt lat="42.899799" lon="19.624893"><ele>1687.0</ele><time>2012-04-30T14:08:25.0000000+00:00</time></trkpt><trkpt lat="42.899799" lon="19.624893"><ele>1687.0</ele><time>2012-04-30T14:08:30.0000000+00:00</time></trkpt><trkpt lat="42.899799" lon="19.624893"><ele>1687.1</ele><time>2012-04-30T14:08:35.0000000+00:00</time></trkpt><trkpt lat="42.899799" lon="19.624893"><ele>1687.1</ele><time>2012-04-30T14:08:40.0000000+00:00</time></trkpt><trkpt lat="42.899799" lon="19.624893"><ele>1687.1</ele><time>2012-04-30T14:08:45.0000000+00:00</time></trkpt><trkpt lat="42.899799" lon="19.624893"><ele>1687.1</ele><time>2012-04-30T14:08:50.0000000+00:00</time></trkpt><trkpt lat="42.899799" lon="19.624893"><ele>1687.1</ele><time>2012-04-30T14:08:55.0000000+00:00</time></trkpt><trkpt lat="42.899799" lon="19.624893"><ele>1687.1</ele><time>2012-04-30T14:09:00.0000000+00:00</time></trkpt><trkpt lat="42.899799" lon="19.624893"><ele>1687.1</ele><time>2012-04-30T14:09:05.0000000+00:00</time></trkpt><trkpt lat="42.899799" lon="19.624893"><ele>1687.1</ele><time>2012-04-30T14:09:10.0000000+00:00</time></trkpt><trkpt lat="42.899799" lon="19.624893"><ele>1687.1</ele><time>2012-04-30T14:09:15.0000000+00:00</time></trkpt><trkpt lat="42.899799" lon="19.624893"><ele>1687.2</ele><time>2012-04-30T14:09:20.0000000+00:00</time></trkpt><trkpt lat="42.899799" lon="19.624893"><ele>1687.2</ele><time>2012-04-30T14:09:25.0000000+00:00</time></trkpt><trkpt lat="42.899799" lon="19.624893"><ele>1687.2</ele><time>2012-04-30T14:09:30.0000000+00:00</time></trkpt><trkpt lat="42.899799" lon="19.624893"><ele>1687.2</ele><time>2012-04-30T14:09:35.0000000+00:00</time></trkpt><trkpt lat="42.899799" lon="19.624893"><ele>1687.2</ele><time>2012-04-30T14:09:40.0000000+00:00</time></trkpt><trkpt lat="42.899799" lon="19.624893"><ele>1687.2</ele><time>2012-04-30T14:09:45.0000000+00:00</time></trkpt><trkpt lat="42.899799" lon="19.624893"><ele>1687.3</ele><time>2012-04-30T14:09:50.0000000+00:00</time></trkpt><trkpt lat="42.899799" lon="19.624893"><ele>1687.3</ele><time>2012-04-30T14:09:55.0000000+00:00</time></trkpt><trkpt lat="42.899799" lon="19.624893"><ele>1687.3</ele><time>2012-04-30T14:10:00.0000000+00:00</time></trkpt><trkpt lat="42.899799" lon="19.624893"><ele>1687.3</ele><time>2012-04-30T14:10:05.0000000+00:00</time></trkpt><trkpt lat="42.899799" lon="19.624893"><ele>1687.4</ele><time>2012-04-30T14:10:10.0000000+00:00</time></trkpt><trkpt lat="42.899799" lon="19.624893"><ele>1687.4</ele><time>2012-04-30T14:10:15.0000000+00:00</time></trkpt><trkpt lat="42.899799" lon="19.624893"><ele>1687.4</ele><time>2012-04-30T14:10:20.0000000+00:00</time></trkpt><trkpt lat="42.899799" lon="19.624893"><ele>1687.4</ele><time>2012-04-30T14:10:25.0000000+00:00</time></trkpt><trkpt lat="42.899799" lon="19.624893"><ele>1687.4</ele><time>2012-04-30T14:10:30.0000000+00:00</time></trkpt><trkpt lat="42.899799" lon="19.624893"><ele>1687.5</ele><time>2012-04-30T14:10:35.0000000+00:00</time></trkpt><trkpt lat="42.899799" lon="19.624893"><ele>1687.5</ele><time>2012-04-30T14:10:40.0000000+00:00</time></trkpt><trkpt lat="42.899799" lon="19.624893"><ele>1687.5</ele><time>2012-04-30T14:10:45.0000000+00:00</time></trkpt><trkpt lat="42.899799" lon="19.624893"><ele>1687.5</ele><time>2012-04-30T14:10:50.0000000+00:00</time></trkpt><trkpt lat="42.899799" lon="19.624893"><ele>1687.6</ele><time>2012-04-30T14:10:55.0000000+00:00</time></trkpt><trkpt lat="42.899799" lon="19.624893"><ele>1687.6</ele><time>2012-04-30T14:11:00.0000000+00:00</time></trkpt><trkpt lat="42.899799" lon="19.624893"><ele>1687.6</ele><time>2012-04-30T14:11:05.0000000+00:00</time></trkpt><trkpt lat="42.899799" lon="19.624893"><ele>1687.6</ele><time>2012-04-30T14:11:10.0000000+00:00</time></trkpt><trkpt lat="42.899799" lon="19.624893"><ele>1687.7</ele><time>2012-04-30T14:11:15.0000000+00:00</time></trkpt><trkpt lat="42.899799" lon="19.624889"><ele>1687.9</ele><time>2012-04-30T14:11:20.0000000+00:00</time></trkpt><trkpt lat="42.899796" lon="19.62488"><ele>1688.0</ele><time>2012-04-30T14:11:25.0000000+00:00</time></trkpt><trkpt lat="42.899796" lon="19.624872"><ele>1688.1</ele><time>2012-04-30T14:11:30.0000000+00:00</time></trkpt><trkpt lat="42.899792" lon="19.624868"><ele>1688.3</ele><time>2012-04-30T14:11:35.0000000+00:00</time></trkpt><trkpt lat="42.899792" lon="19.624865"><ele>1688.3</ele><time>2012-04-30T14:11:40.0000000+00:00</time></trkpt><trkpt lat="42.899788" lon="19.624863"><ele>1688.4</ele><time>2012-04-30T14:11:45.0000000+00:00</time></trkpt><trkpt lat="42.899796" lon="19.624956"><ele>1688.9</ele><time>2012-04-30T14:11:50.0000000+00:00</time></trkpt><trkpt lat="42.899788" lon="19.625008"><ele>1689.1</ele><time>2012-04-30T14:11:55.0000000+00:00</time></trkpt><trkpt lat="42.899776" lon="19.625086"><ele>1688.4</ele><time>2012-04-30T14:12:00.0000000+00:00</time></trkpt><trkpt lat="42.899765" lon="19.625185"><ele>1687.9</ele><time>2012-04-30T14:12:05.0000000+00:00</time></trkpt><trkpt lat="42.899792" lon="19.625328"><ele>1686.8</ele><time>2012-04-30T14:12:10.0000000+00:00</time></trkpt><trkpt lat="42.89983" lon="19.62546"><ele>1686.4</ele><time>2012-04-30T14:12:15.0000000+00:00</time></trkpt><trkpt lat="42.899826" lon="19.625622"><ele>1685.0</ele><time>2012-04-30T14:12:20.0000000+00:00</time></trkpt><trkpt lat="42.899822" lon="19.625792"><ele>1683.7</ele><time>2012-04-30T14:12:25.0000000+00:00</time></trkpt><trkpt lat="42.899826" lon="19.625961"><ele>1682.7</ele><time>2012-04-30T14:12:30.0000000+00:00</time></trkpt><trkpt lat="42.899826" lon="19.626064"><ele>1681.4</ele><time>2012-04-30T14:12:35.0000000+00:00</time></trkpt><trkpt lat="42.899734" lon="19.626091"><ele>1680.3</ele><time>2012-04-30T14:12:40.0000000+00:00</time></trkpt><trkpt lat="42.89962" lon="19.626131"><ele>1680.8</ele><time>2012-04-30T14:12:45.0000000+00:00</time></trkpt><trkpt lat="42.899506" lon="19.626234"><ele>1680.0</ele><time>2012-04-30T14:12:50.0000000+00:00</time></trkpt><trkpt lat="42.899418" lon="19.626431"><ele>1677.5</ele><time>2012-04-30T14:12:55.0000000+00:00</time></trkpt><trkpt lat="42.89933" lon="19.6266"><ele>1676.5</ele><time>2012-04-30T14:13:00.0000000+00:00</time></trkpt><trkpt lat="42.8992" lon="19.626669"><ele>1676.0</ele><time>2012-04-30T14:13:05.0000000+00:00</time></trkpt><trkpt lat="42.899075" lon="19.626778"><ele>1675.4</ele><time>2012-04-30T14:13:10.0000000+00:00</time></trkpt><trkpt lat="42.899055" lon="19.626816"><ele>1675.1</ele><time>2012-04-30T14:13:15.0000000+00:00</time></trkpt><trkpt lat="42.899055" lon="19.62682"><ele>1675.1</ele><time>2012-04-30T14:13:20.0000000+00:00</time></trkpt><trkpt lat="42.899055" lon="19.62682"><ele>1675.2</ele><time>2012-04-30T14:13:25.0000000+00:00</time></trkpt><trkpt lat="42.899059" lon="19.62682"><ele>1675.2</ele><time>2012-04-30T14:13:30.0000000+00:00</time></trkpt><trkpt lat="42.899059" lon="19.626818"><ele>1675.3</ele><time>2012-04-30T14:13:35.0000000+00:00</time></trkpt><trkpt lat="42.899059" lon="19.626818"><ele>1675.2</ele><time>2012-04-30T14:13:40.0000000+00:00</time></trkpt><trkpt lat="42.899059" lon="19.626818"><ele>1675.2</ele><time>2012-04-30T14:13:45.0000000+00:00</time></trkpt><trkpt lat="42.899059" lon="19.626818"><ele>1675.2</ele><time>2012-04-30T14:13:50.0000000+00:00</time></trkpt><trkpt lat="42.899048" lon="19.626842"><ele>1675.2</ele><time>2012-04-30T14:13:55.0000000+00:00</time></trkpt><trkpt lat="42.898998" lon="19.626947"><ele>1675.4</ele><time>2012-04-30T14:14:00.0000000+00:00</time></trkpt><trkpt lat="42.898964" lon="19.626984"><ele>1674.0</ele><time>2012-04-30T14:14:05.0000000+00:00</time></trkpt><trkpt lat="42.898926" lon="19.627075"><ele>1674.1</ele><time>2012-04-30T14:14:10.0000000+00:00</time></trkpt><trkpt lat="42.898884" lon="19.627104"><ele>1673.7</ele><time>2012-04-30T14:14:15.0000000+00:00</time></trkpt><trkpt lat="42.898876" lon="19.627083"><ele>1673.9</ele><time>2012-04-30T14:14:20.0000000+00:00</time></trkpt><trkpt lat="42.898884" lon="19.62709"><ele>1672.9</ele><time>2012-04-30T14:14:25.0000000+00:00</time></trkpt><trkpt lat="42.898884" lon="19.627089"><ele>1672.4</ele><time>2012-04-30T14:14:30.0000000+00:00</time></trkpt><trkpt lat="42.898884" lon="19.62709"><ele>1672.4</ele><time>2012-04-30T14:14:35.0000000+00:00</time></trkpt><trkpt lat="42.898884" lon="19.62709"><ele>1672.4</ele><time>2012-04-30T14:14:40.0000000+00:00</time></trkpt><trkpt lat="42.898884" lon="19.62709"><ele>1672.3</ele><time>2012-04-30T14:14:45.0000000+00:00</time></trkpt><trkpt lat="42.898884" lon="19.62709"><ele>1672.3</ele><time>2012-04-30T14:14:50.0000000+00:00</time></trkpt><trkpt lat="42.89888" lon="19.62709"><ele>1672.3</ele><time>2012-04-30T14:14:55.0000000+00:00</time></trkpt><trkpt lat="42.898884" lon="19.62709"><ele>1672.3</ele><time>2012-04-30T14:15:00.0000000+00:00</time></trkpt><trkpt lat="42.898884" lon="19.62709"><ele>1672.3</ele><time>2012-04-30T14:15:05.0000000+00:00</time></trkpt><trkpt lat="42.898884" lon="19.62709"><ele>1672.3</ele><time>2012-04-30T14:15:10.0000000+00:00</time></trkpt><trkpt lat="42.89888" lon="19.62709"><ele>1672.3</ele><time>2012-04-30T14:15:15.0000000+00:00</time></trkpt><trkpt lat="42.89888" lon="19.62709"><ele>1672.3</ele><time>2012-04-30T14:15:20.0000000+00:00</time></trkpt><trkpt lat="42.898884" lon="19.62709"><ele>1672.3</ele><time>2012-04-30T14:15:25.0000000+00:00</time></trkpt><trkpt lat="42.898884" lon="19.62709"><ele>1672.3</ele><time>2012-04-30T14:15:30.0000000+00:00</time></trkpt><trkpt lat="42.898884" lon="19.62709"><ele>1672.3</ele><time>2012-04-30T14:15:35.0000000+00:00</time></trkpt><trkpt lat="42.898884" lon="19.62709"><ele>1672.3</ele><time>2012-04-30T14:15:40.0000000+00:00</time></trkpt><trkpt lat="42.898884" lon="19.62709"><ele>1672.3</ele><time>2012-04-30T14:15:45.0000000+00:00</time></trkpt><trkpt lat="42.898884" lon="19.627089"><ele>1672.4</ele><time>2012-04-30T14:15:50.0000000+00:00</time></trkpt><trkpt lat="42.898884" lon="19.62709"><ele>1672.4</ele><time>2012-04-30T14:15:55.0000000+00:00</time></trkpt><trkpt lat="42.898884" lon="19.62709"><ele>1672.4</ele><time>2012-04-30T14:16:00.0000000+00:00</time></trkpt><trkpt lat="42.898884" lon="19.62709"><ele>1672.4</ele><time>2012-04-30T14:16:05.0000000+00:00</time></trkpt><trkpt lat="42.898884" lon="19.62709"><ele>1672.4</ele><time>2012-04-30T14:16:10.0000000+00:00</time></trkpt><trkpt lat="42.898884" lon="19.62709"><ele>1672.4</ele><time>2012-04-30T14:16:15.0000000+00:00</time></trkpt><trkpt lat="42.898884" lon="19.62709"><ele>1672.3</ele><time>2012-04-30T14:16:20.0000000+00:00</time></trkpt><trkpt lat="42.898884" lon="19.62709"><ele>1672.3</ele><time>2012-04-30T14:16:25.0000000+00:00</time></trkpt><trkpt lat="42.898884" lon="19.62709"><ele>1672.4</ele><time>2012-04-30T14:16:30.0000000+00:00</time></trkpt><trkpt lat="42.898884" lon="19.62709"><ele>1672.4</ele><time>2012-04-30T14:16:35.0000000+00:00</time></trkpt><trkpt lat="42.898876" lon="19.627104"><ele>1672.5</ele><time>2012-04-30T14:16:40.0000000+00:00</time></trkpt><trkpt lat="42.898857" lon="19.627144"><ele>1673.6</ele><time>2012-04-30T14:16:45.0000000+00:00</time></trkpt><trkpt lat="42.898861" lon="19.627144"><ele>1673.7</ele><time>2012-04-30T14:16:50.0000000+00:00</time></trkpt><trkpt lat="42.898861" lon="19.627144"><ele>1673.7</ele><time>2012-04-30T14:16:55.0000000+00:00</time></trkpt><trkpt lat="42.898861" lon="19.627176"><ele>1673.9</ele><time>2012-04-30T14:17:00.0000000+00:00</time></trkpt><trkpt lat="42.898834" lon="19.627237"><ele>1673.7</ele><time>2012-04-30T14:17:05.0000000+00:00</time></trkpt><trkpt lat="42.898834" lon="19.627262"><ele>1673.8</ele><time>2012-04-30T14:17:10.0000000+00:00</time></trkpt><trkpt lat="42.898846" lon="19.627239"><ele>1673.8</ele><time>2012-04-30T14:17:15.0000000+00:00</time></trkpt><trkpt lat="42.898842" lon="19.627283"><ele>1674.1</ele><time>2012-04-30T14:17:20.0000000+00:00</time></trkpt><trkpt lat="42.898804" lon="19.627365"><ele>1674.7</ele><time>2012-04-30T14:17:25.0000000+00:00</time></trkpt><trkpt lat="42.898781" lon="19.627439"><ele>1675.2</ele><time>2012-04-30T14:17:30.0000000+00:00</time></trkpt><trkpt lat="42.898769" lon="19.62752"><ele>1675.7</ele><time>2012-04-30T14:17:35.0000000+00:00</time></trkpt><trkpt lat="42.898766" lon="19.627573"><ele>1675.8</ele><time>2012-04-30T14:17:40.0000000+00:00</time></trkpt><trkpt lat="42.898773" lon="19.62763"><ele>1675.9</ele><time>2012-04-30T14:17:45.0000000+00:00</time></trkpt><trkpt lat="42.898754" lon="19.627693"><ele>1676.2</ele><time>2012-04-30T14:17:50.0000000+00:00</time></trkpt><trkpt lat="42.898762" lon="19.627768"><ele>1676.2</ele><time>2012-04-30T14:17:55.0000000+00:00</time></trkpt><trkpt lat="42.898781" lon="19.627863"><ele>1676.5</ele><time>2012-04-30T14:18:00.0000000+00:00</time></trkpt><trkpt lat="42.898773" lon="19.627941"><ele>1677.0</ele><time>2012-04-30T14:18:05.0000000+00:00</time></trkpt><trkpt lat="42.898769" lon="19.628"><ele>1677.0</ele><time>2012-04-30T14:18:10.0000000+00:00</time></trkpt><trkpt lat="42.898758" lon="19.628063"><ele>1677.6</ele><time>2012-04-30T14:18:15.0000000+00:00</time></trkpt><trkpt lat="42.898762" lon="19.628136"><ele>1678.0</ele><time>2012-04-30T14:18:20.0000000+00:00</time></trkpt><trkpt lat="42.898754" lon="19.628197"><ele>1678.3</ele><time>2012-04-30T14:18:25.0000000+00:00</time></trkpt><trkpt lat="42.898754" lon="19.628244"><ele>1678.9</ele><time>2012-04-30T14:18:30.0000000+00:00</time></trkpt><trkpt lat="42.898781" lon="19.62829"><ele>1679.8</ele><time>2012-04-30T14:18:35.0000000+00:00</time></trkpt><trkpt lat="42.898819" lon="19.628323"><ele>1681.5</ele><time>2012-04-30T14:18:40.0000000+00:00</time></trkpt><trkpt lat="42.898891" lon="19.628359"><ele>1682.5</ele><time>2012-04-30T14:18:45.0000000+00:00</time></trkpt><trkpt lat="42.898914" lon="19.628405"><ele>1683.5</ele><time>2012-04-30T14:18:50.0000000+00:00</time></trkpt><trkpt lat="42.898903" lon="19.628471"><ele>1684.5</ele><time>2012-04-30T14:18:55.0000000+00:00</time></trkpt><trkpt lat="42.898914" lon="19.628529"><ele>1685.7</ele><time>2012-04-30T14:19:00.0000000+00:00</time></trkpt><trkpt lat="42.898926" lon="19.628588"><ele>1686.8</ele><time>2012-04-30T14:19:05.0000000+00:00</time></trkpt><trkpt lat="42.898945" lon="19.628639"><ele>1688.2</ele><time>2012-04-30T14:19:10.0000000+00:00</time></trkpt><trkpt lat="42.898964" lon="19.628656"><ele>1688.7</ele><time>2012-04-30T14:19:15.0000000+00:00</time></trkpt><trkpt lat="42.898987" lon="19.628683"><ele>1689.5</ele><time>2012-04-30T14:19:20.0000000+00:00</time></trkpt><trkpt lat="42.899014" lon="19.6287"><ele>1690.1</ele><time>2012-04-30T14:19:25.0000000+00:00</time></trkpt><trkpt lat="42.899052" lon="19.628731"><ele>1690.9</ele><time>2012-04-30T14:19:30.0000000+00:00</time></trkpt><trkpt lat="42.899067" lon="19.628771"><ele>1691.8</ele><time>2012-04-30T14:19:35.0000000+00:00</time></trkpt><trkpt lat="42.899078" lon="19.628798"><ele>1692.8</ele><time>2012-04-30T14:19:40.0000000+00:00</time></trkpt><trkpt lat="42.899086" lon="19.628838"><ele>1693.3</ele><time>2012-04-30T14:19:45.0000000+00:00</time></trkpt><trkpt lat="42.899097" lon="19.628864"><ele>1694.0</ele><time>2012-04-30T14:19:50.0000000+00:00</time></trkpt><trkpt lat="42.899113" lon="19.628899"><ele>1694.1</ele><time>2012-04-30T14:19:55.0000000+00:00</time></trkpt><trkpt lat="42.899143" lon="19.629019"><ele>1693.6</ele><time>2012-04-30T14:20:00.0000000+00:00</time></trkpt><trkpt lat="42.899109" lon="19.629137"><ele>1692.8</ele><time>2012-04-30T14:20:05.0000000+00:00</time></trkpt><trkpt lat="42.899075" lon="19.629244"><ele>1691.5</ele><time>2012-04-30T14:20:10.0000000+00:00</time></trkpt><trkpt lat="42.89901" lon="19.629324"><ele>1692.3</ele><time>2012-04-30T14:20:15.0000000+00:00</time></trkpt><trkpt lat="42.898972" lon="19.629412"><ele>1691.5</ele><time>2012-04-30T14:20:20.0000000+00:00</time></trkpt><trkpt lat="42.898872" lon="19.629473"><ele>1688.8</ele><time>2012-04-30T14:20:25.0000000+00:00</time></trkpt><trkpt lat="42.8988" lon="19.629519"><ele>1686.7</ele><time>2012-04-30T14:20:30.0000000+00:00</time></trkpt><trkpt lat="42.898739" lon="19.62956"><ele>1686.5</ele><time>2012-04-30T14:20:35.0000000+00:00</time></trkpt><trkpt lat="42.898766" lon="19.62965"><ele>1686.0</ele><time>2012-04-30T14:20:40.0000000+00:00</time></trkpt><trkpt lat="42.898739" lon="19.629778"><ele>1686.9</ele><time>2012-04-30T14:20:45.0000000+00:00</time></trkpt><trkpt lat="42.898697" lon="19.629875"><ele>1689.3</ele><time>2012-04-30T14:20:50.0000000+00:00</time></trkpt><trkpt lat="42.898643" lon="19.629972"><ele>1690.2</ele><time>2012-04-30T14:20:55.0000000+00:00</time></trkpt><trkpt lat="42.898643" lon="19.630104"><ele>1693.7</ele><time>2012-04-30T14:21:00.0000000+00:00</time></trkpt><trkpt lat="42.898659" lon="19.630238"><ele>1696.7</ele><time>2012-04-30T14:21:05.0000000+00:00</time></trkpt><trkpt lat="42.898602" lon="19.630327"><ele>1695.9</ele><time>2012-04-30T14:21:10.0000000+00:00</time></trkpt><trkpt lat="42.898594" lon="19.630381"><ele>1695.5</ele><time>2012-04-30T14:21:15.0000000+00:00</time></trkpt><trkpt lat="42.898628" lon="19.63044"><ele>1695.0</ele><time>2012-04-30T14:21:20.0000000+00:00</time></trkpt><trkpt lat="42.898647" lon="19.630499"><ele>1694.1</ele><time>2012-04-30T14:21:25.0000000+00:00</time></trkpt><trkpt lat="42.898628" lon="19.630545"><ele>1691.7</ele><time>2012-04-30T14:21:30.0000000+00:00</time></trkpt><trkpt lat="42.898643" lon="19.630566"><ele>1691.7</ele><time>2012-04-30T14:21:35.0000000+00:00</time></trkpt><trkpt lat="42.89864" lon="19.630564"><ele>1691.0</ele><time>2012-04-30T14:21:40.0000000+00:00</time></trkpt><trkpt lat="42.898643" lon="19.630564"><ele>1691.0</ele><time>2012-04-30T14:21:45.0000000+00:00</time></trkpt><trkpt lat="42.898624" lon="19.630592"><ele>1690.2</ele><time>2012-04-30T14:21:50.0000000+00:00</time></trkpt><trkpt lat="42.898609" lon="19.630634"><ele>1689.6</ele><time>2012-04-30T14:21:55.0000000+00:00</time></trkpt><trkpt lat="42.898605" lon="19.630657"><ele>1689.5</ele><time>2012-04-30T14:22:00.0000000+00:00</time></trkpt><trkpt lat="42.898602" lon="19.630663"><ele>1688.2</ele><time>2012-04-30T14:22:05.0000000+00:00</time></trkpt><trkpt lat="42.898598" lon="19.630693"><ele>1688.1</ele><time>2012-04-30T14:22:10.0000000+00:00</time></trkpt><trkpt lat="42.898602" lon="19.630707"><ele>1688.3</ele><time>2012-04-30T14:22:15.0000000+00:00</time></trkpt><trkpt lat="42.898594" lon="19.630745"><ele>1688.5</ele><time>2012-04-30T14:22:20.0000000+00:00</time></trkpt><trkpt lat="42.898598" lon="19.630796"><ele>1688.0</ele><time>2012-04-30T14:22:25.0000000+00:00</time></trkpt><trkpt lat="42.898582" lon="19.630808"><ele>1686.8</ele><time>2012-04-30T14:22:30.0000000+00:00</time></trkpt><trkpt lat="42.898567" lon="19.630814"><ele>1686.7</ele><time>2012-04-30T14:22:35.0000000+00:00</time></trkpt><trkpt lat="42.898552" lon="19.630821"><ele>1686.5</ele><time>2012-04-30T14:22:40.0000000+00:00</time></trkpt><trkpt lat="42.898544" lon="19.630836"><ele>1686.1</ele><time>2012-04-30T14:22:45.0000000+00:00</time></trkpt><trkpt lat="42.898514" lon="19.630875"><ele>1686.3</ele><time>2012-04-30T14:22:50.0000000+00:00</time></trkpt><trkpt lat="42.898464" lon="19.630873"><ele>1686.4</ele><time>2012-04-30T14:22:55.0000000+00:00</time></trkpt><trkpt lat="42.898418" lon="19.630859"><ele>1686.3</ele><time>2012-04-30T14:23:00.0000000+00:00</time></trkpt><trkpt lat="42.898365" lon="19.63084"><ele>1684.5</ele><time>2012-04-30T14:23:05.0000000+00:00</time></trkpt><trkpt lat="42.898323" lon="19.630812"><ele>1684.4</ele><time>2012-04-30T14:23:10.0000000+00:00</time></trkpt><trkpt lat="42.8983" lon="19.630854"><ele>1684.5</ele><time>2012-04-30T14:23:15.0000000+00:00</time></trkpt><trkpt lat="42.898312" lon="19.630865"><ele>1685.2</ele><time>2012-04-30T14:23:20.0000000+00:00</time></trkpt><trkpt lat="42.898319" lon="19.630878"><ele>1685.6</ele><time>2012-04-30T14:23:25.0000000+00:00</time></trkpt><trkpt lat="42.898312" lon="19.630993"><ele>1686.4</ele><time>2012-04-30T14:23:30.0000000+00:00</time></trkpt><trkpt lat="42.898289" lon="19.631128"><ele>1686.9</ele><time>2012-04-30T14:23:35.0000000+00:00</time></trkpt><trkpt lat="42.898296" lon="19.631264"><ele>1688.0</ele><time>2012-04-30T14:23:40.0000000+00:00</time></trkpt><trkpt lat="42.898304" lon="19.631405"><ele>1688.5</ele><time>2012-04-30T14:23:45.0000000+00:00</time></trkpt><trkpt lat="42.898319" lon="19.631556"><ele>1689.2</ele><time>2012-04-30T14:23:50.0000000+00:00</time></trkpt><trkpt lat="42.89835" lon="19.631697"><ele>1689.0</ele><time>2012-04-30T14:23:55.0000000+00:00</time></trkpt><trkpt lat="42.898346" lon="19.631828"><ele>1689.9</ele><time>2012-04-30T14:24:00.0000000+00:00</time></trkpt><trkpt lat="42.898335" lon="19.631933"><ele>1691.4</ele><time>2012-04-30T14:24:05.0000000+00:00</time></trkpt><trkpt lat="42.898323" lon="19.632063"><ele>1690.8</ele><time>2012-04-30T14:24:10.0000000+00:00</time></trkpt><trkpt lat="42.898335" lon="19.63216"><ele>1690.6</ele><time>2012-04-30T14:24:15.0000000+00:00</time></trkpt><trkpt lat="42.898312" lon="19.632267"><ele>1692.0</ele><time>2012-04-30T14:24:20.0000000+00:00</time></trkpt><trkpt lat="42.898331" lon="19.632318"><ele>1694.6</ele><time>2012-04-30T14:24:25.0000000+00:00</time></trkpt><trkpt lat="42.898331" lon="19.632368"><ele>1696.6</ele><time>2012-04-30T14:24:30.0000000+00:00</time></trkpt><trkpt lat="42.898323" lon="19.63242"><ele>1697.4</ele><time>2012-04-30T14:24:35.0000000+00:00</time></trkpt><trkpt lat="42.898312" lon="19.632456"><ele>1697.8</ele><time>2012-04-30T14:24:40.0000000+00:00</time></trkpt><trkpt lat="42.898304" lon="19.632492"><ele>1698.3</ele><time>2012-04-30T14:24:45.0000000+00:00</time></trkpt><trkpt lat="42.898296" lon="19.632523"><ele>1698.7</ele><time>2012-04-30T14:24:50.0000000+00:00</time></trkpt><trkpt lat="42.898293" lon="19.63254"><ele>1698.9</ele><time>2012-04-30T14:24:55.0000000+00:00</time></trkpt><trkpt lat="42.898281" lon="19.632612"><ele>1698.9</ele><time>2012-04-30T14:25:00.0000000+00:00</time></trkpt><trkpt lat="42.898289" lon="19.632675"><ele>1699.0</ele><time>2012-04-30T14:25:05.0000000+00:00</time></trkpt><trkpt lat="42.898293" lon="19.63273"><ele>1699.3</ele><time>2012-04-30T14:25:10.0000000+00:00</time></trkpt><trkpt lat="42.898296" lon="19.632788"><ele>1699.5</ele><time>2012-04-30T14:25:15.0000000+00:00</time></trkpt><trkpt lat="42.898285" lon="19.632837"><ele>1699.8</ele><time>2012-04-30T14:25:20.0000000+00:00</time></trkpt><trkpt lat="42.89827" lon="19.632904"><ele>1699.5</ele><time>2012-04-30T14:25:25.0000000+00:00</time></trkpt><trkpt lat="42.898289" lon="19.632975"><ele>1699.6</ele><time>2012-04-30T14:25:30.0000000+00:00</time></trkpt><trkpt lat="42.898323" lon="19.633041"><ele>1700.9</ele><time>2012-04-30T14:25:35.0000000+00:00</time></trkpt><trkpt lat="42.898346" lon="19.633091"><ele>1700.5</ele><time>2012-04-30T14:25:40.0000000+00:00</time></trkpt><trkpt lat="42.898365" lon="19.63315"><ele>1701.0</ele><time>2012-04-30T14:25:45.0000000+00:00</time></trkpt><trkpt lat="42.898384" lon="19.633198"><ele>1701.4</ele><time>2012-04-30T14:25:50.0000000+00:00</time></trkpt><trkpt lat="42.898415" lon="19.633251"><ele>1701.7</ele><time>2012-04-30T14:25:55.0000000+00:00</time></trkpt><trkpt lat="42.89843" lon="19.633291"><ele>1701.5</ele><time>2012-04-30T14:26:00.0000000+00:00</time></trkpt><trkpt lat="42.898445" lon="19.633345"><ele>1701.2</ele><time>2012-04-30T14:26:05.0000000+00:00</time></trkpt><trkpt lat="42.898445" lon="19.633377"><ele>1700.5</ele><time>2012-04-30T14:26:10.0000000+00:00</time></trkpt><trkpt lat="42.898438" lon="19.633404"><ele>1700.4</ele><time>2012-04-30T14:26:15.0000000+00:00</time></trkpt><trkpt lat="42.898434" lon="19.633467"><ele>1700.5</ele><time>2012-04-30T14:26:20.0000000+00:00</time></trkpt><trkpt lat="42.89843" lon="19.633528"><ele>1700.7</ele><time>2012-04-30T14:26:25.0000000+00:00</time></trkpt><trkpt lat="42.898438" lon="19.63357"><ele>1700.5</ele><time>2012-04-30T14:26:30.0000000+00:00</time></trkpt><trkpt lat="42.898434" lon="19.633615"><ele>1700.0</ele><time>2012-04-30T14:26:35.0000000+00:00</time></trkpt><trkpt lat="42.89843" lon="19.633614"><ele>1699.7</ele><time>2012-04-30T14:26:40.0000000+00:00</time></trkpt><trkpt lat="42.898434" lon="19.633612"><ele>1699.7</ele><time>2012-04-30T14:26:45.0000000+00:00</time></trkpt><trkpt lat="42.898434" lon="19.633614"><ele>1699.7</ele><time>2012-04-30T14:26:50.0000000+00:00</time></trkpt><trkpt lat="42.898434" lon="19.633614"><ele>1699.7</ele><time>2012-04-30T14:26:55.0000000+00:00</time></trkpt><trkpt lat="42.898422" lon="19.633638"><ele>1698.3</ele><time>2012-04-30T14:27:00.0000000+00:00</time></trkpt><trkpt lat="42.898407" lon="19.633659"><ele>1697.3</ele><time>2012-04-30T14:27:05.0000000+00:00</time></trkpt><trkpt lat="42.898399" lon="19.633677"><ele>1697.3</ele><time>2012-04-30T14:27:10.0000000+00:00</time></trkpt><trkpt lat="42.898396" lon="19.63369"><ele>1697.5</ele><time>2012-04-30T14:27:15.0000000+00:00</time></trkpt><trkpt lat="42.898392" lon="19.633705"><ele>1697.9</ele><time>2012-04-30T14:27:20.0000000+00:00</time></trkpt><trkpt lat="42.898384" lon="19.633759"><ele>1698.7</ele><time>2012-04-30T14:27:25.0000000+00:00</time></trkpt><trkpt lat="42.89838" lon="19.63381"><ele>1699.4</ele><time>2012-04-30T14:27:30.0000000+00:00</time></trkpt><trkpt lat="42.898365" lon="19.633867"><ele>1699.8</ele><time>2012-04-30T14:27:35.0000000+00:00</time></trkpt><trkpt lat="42.898357" lon="19.633924"><ele>1700.6</ele><time>2012-04-30T14:27:40.0000000+00:00</time></trkpt><trkpt lat="42.898354" lon="19.633982"><ele>1701.0</ele><time>2012-04-30T14:27:45.0000000+00:00</time></trkpt><trkpt lat="42.898354" lon="19.634037"><ele>1701.3</ele><time>2012-04-30T14:27:50.0000000+00:00</time></trkpt><trkpt lat="42.898354" lon="19.634077"><ele>1702.5</ele><time>2012-04-30T14:27:55.0000000+00:00</time></trkpt><trkpt lat="42.898346" lon="19.634132"><ele>1702.5</ele><time>2012-04-30T14:28:00.0000000+00:00</time></trkpt><trkpt lat="42.898342" lon="19.634192"><ele>1703.0</ele><time>2012-04-30T14:28:05.0000000+00:00</time></trkpt><trkpt lat="42.898335" lon="19.634254"><ele>1703.5</ele><time>2012-04-30T14:28:10.0000000+00:00</time></trkpt><trkpt lat="42.898323" lon="19.634317"><ele>1703.7</ele><time>2012-04-30T14:28:15.0000000+00:00</time></trkpt><trkpt lat="42.898312" lon="19.63435"><ele>1703.6</ele><time>2012-04-30T14:28:20.0000000+00:00</time></trkpt><trkpt lat="42.898312" lon="19.63435"><ele>1703.7</ele><time>2012-04-30T14:28:25.0000000+00:00</time></trkpt><trkpt lat="42.898312" lon="19.63435"><ele>1703.8</ele><time>2012-04-30T14:28:30.0000000+00:00</time></trkpt><trkpt lat="42.898308" lon="19.634356"><ele>1703.8</ele><time>2012-04-30T14:28:35.0000000+00:00</time></trkpt><trkpt lat="42.898308" lon="19.634367"><ele>1703.4</ele><time>2012-04-30T14:28:40.0000000+00:00</time></trkpt><trkpt lat="42.898308" lon="19.634367"><ele>1703.4</ele><time>2012-04-30T14:28:45.0000000+00:00</time></trkpt><trkpt lat="42.898308" lon="19.634367"><ele>1703.4</ele><time>2012-04-30T14:28:50.0000000+00:00</time></trkpt><trkpt lat="42.898308" lon="19.634367"><ele>1703.3</ele><time>2012-04-30T14:28:55.0000000+00:00</time></trkpt><trkpt lat="42.898289" lon="19.634394"><ele>1703.5</ele><time>2012-04-30T14:29:00.0000000+00:00</time></trkpt><trkpt lat="42.898251" lon="19.634418"><ele>1704.2</ele><time>2012-04-30T14:29:05.0000000+00:00</time></trkpt><trkpt lat="42.898216" lon="19.634417"><ele>1705.4</ele><time>2012-04-30T14:29:10.0000000+00:00</time></trkpt><trkpt lat="42.898182" lon="19.63442"><ele>1706.1</ele><time>2012-04-30T14:29:15.0000000+00:00</time></trkpt><trkpt lat="42.898155" lon="19.63442"><ele>1708.3</ele><time>2012-04-30T14:29:20.0000000+00:00</time></trkpt><trkpt lat="42.898129" lon="19.634422"><ele>1709.8</ele><time>2012-04-30T14:29:25.0000000+00:00</time></trkpt><trkpt lat="42.898106" lon="19.63442"><ele>1711.0</ele><time>2012-04-30T14:29:30.0000000+00:00</time></trkpt><trkpt lat="42.898087" lon="19.634415"><ele>1713.2</ele><time>2012-04-30T14:29:35.0000000+00:00</time></trkpt><trkpt lat="42.898071" lon="19.634401"><ele>1715.5</ele><time>2012-04-30T14:29:40.0000000+00:00</time></trkpt><trkpt lat="42.898075" lon="19.634413"><ele>1717.3</ele><time>2012-04-30T14:29:45.0000000+00:00</time></trkpt><trkpt lat="42.898075" lon="19.634405"><ele>1718.5</ele><time>2012-04-30T14:29:50.0000000+00:00</time></trkpt><trkpt lat="42.898071" lon="19.634373"><ele>1720.2</ele><time>2012-04-30T14:29:55.0000000+00:00</time></trkpt><trkpt lat="42.898079" lon="19.634361"><ele>1718.8</ele><time>2012-04-30T14:30:00.0000000+00:00</time></trkpt><trkpt lat="42.898067" lon="19.634354"><ele>1716.6</ele><time>2012-04-30T14:30:05.0000000+00:00</time></trkpt><trkpt lat="42.898067" lon="19.634348"><ele>1716.8</ele><time>2012-04-30T14:30:10.0000000+00:00</time></trkpt><trkpt lat="42.898067" lon="19.634342"><ele>1716.9</ele><time>2012-04-30T14:30:15.0000000+00:00</time></trkpt><trkpt lat="42.898071" lon="19.634289"><ele>1716.3</ele><time>2012-04-30T14:30:20.0000000+00:00</time></trkpt><trkpt lat="42.898083" lon="19.634266"><ele>1716.9</ele><time>2012-04-30T14:30:25.0000000+00:00</time></trkpt><trkpt lat="42.898083" lon="19.634262"><ele>1716.8</ele><time>2012-04-30T14:30:30.0000000+00:00</time></trkpt><trkpt lat="42.898083" lon="19.634262"><ele>1716.8</ele><time>2012-04-30T14:30:35.0000000+00:00</time></trkpt><trkpt lat="42.898083" lon="19.634262"><ele>1716.7</ele><time>2012-04-30T14:30:40.0000000+00:00</time></trkpt><trkpt lat="42.898083" lon="19.634262"><ele>1716.7</ele><time>2012-04-30T14:30:45.0000000+00:00</time></trkpt><trkpt lat="42.898083" lon="19.634262"><ele>1716.7</ele><time>2012-04-30T14:30:50.0000000+00:00</time></trkpt><trkpt lat="42.898083" lon="19.634262"><ele>1716.7</ele><time>2012-04-30T14:30:55.0000000+00:00</time></trkpt><trkpt lat="42.898083" lon="19.634262"><ele>1716.7</ele><time>2012-04-30T14:31:00.0000000+00:00</time></trkpt><trkpt lat="42.898083" lon="19.63426"><ele>1716.6</ele><time>2012-04-30T14:31:05.0000000+00:00</time></trkpt><trkpt lat="42.898083" lon="19.63426"><ele>1716.6</ele><time>2012-04-30T14:31:10.0000000+00:00</time></trkpt><trkpt lat="42.898083" lon="19.63426"><ele>1716.6</ele><time>2012-04-30T14:31:15.0000000+00:00</time></trkpt><trkpt lat="42.898083" lon="19.63426"><ele>1716.5</ele><time>2012-04-30T14:31:20.0000000+00:00</time></trkpt><trkpt lat="42.898087" lon="19.63426"><ele>1716.6</ele><time>2012-04-30T14:31:25.0000000+00:00</time></trkpt><trkpt lat="42.898079" lon="19.634218"><ele>1716.7</ele><time>2012-04-30T14:31:30.0000000+00:00</time></trkpt><trkpt lat="42.898071" lon="19.634186"><ele>1716.4</ele><time>2012-04-30T14:31:35.0000000+00:00</time></trkpt><trkpt lat="42.898056" lon="19.634132"><ele>1716.3</ele><time>2012-04-30T14:31:40.0000000+00:00</time></trkpt><trkpt lat="42.898048" lon="19.634115"><ele>1716.5</ele><time>2012-04-30T14:31:45.0000000+00:00</time></trkpt><trkpt lat="42.898041" lon="19.634098"><ele>1717.1</ele><time>2012-04-30T14:31:50.0000000+00:00</time></trkpt><trkpt lat="42.898014" lon="19.634071"><ele>1717.7</ele><time>2012-04-30T14:31:55.0000000+00:00</time></trkpt><trkpt lat="42.897991" lon="19.634039"><ele>1717.2</ele><time>2012-04-30T14:32:00.0000000+00:00</time></trkpt><trkpt lat="42.897976" lon="19.633982"><ele>1716.8</ele><time>2012-04-30T14:32:05.0000000+00:00</time></trkpt><trkpt lat="42.897961" lon="19.633938"><ele>1717.2</ele><time>2012-04-30T14:32:10.0000000+00:00</time></trkpt><trkpt lat="42.897961" lon="19.633921"><ele>1717.2</ele><time>2012-04-30T14:32:15.0000000+00:00</time></trkpt><trkpt lat="42.897942" lon="19.633875"><ele>1717.0</ele><time>2012-04-30T14:32:20.0000000+00:00</time></trkpt><trkpt lat="42.897926" lon="19.633831"><ele>1717.2</ele><time>2012-04-30T14:32:25.0000000+00:00</time></trkpt><trkpt lat="42.897907" lon="19.633772"><ele>1717.5</ele><time>2012-04-30T14:32:30.0000000+00:00</time></trkpt><trkpt lat="42.897888" lon="19.633745"><ele>1717.1</ele><time>2012-04-30T14:32:35.0000000+00:00</time></trkpt><trkpt lat="42.897881" lon="19.633743"><ele>1717.5</ele><time>2012-04-30T14:32:40.0000000+00:00</time></trkpt><trkpt lat="42.897842" lon="19.633722"><ele>1717.7</ele><time>2012-04-30T14:32:45.0000000+00:00</time></trkpt><trkpt lat="42.897823" lon="19.633739"><ele>1716.9</ele><time>2012-04-30T14:32:50.0000000+00:00</time></trkpt><trkpt lat="42.897812" lon="19.633698"><ele>1716.9</ele><time>2012-04-30T14:32:55.0000000+00:00</time></trkpt><trkpt lat="42.897789" lon="19.633652"><ele>1716.9</ele><time>2012-04-30T14:33:00.0000000+00:00</time></trkpt><trkpt lat="42.897781" lon="19.633633"><ele>1717.4</ele><time>2012-04-30T14:33:05.0000000+00:00</time></trkpt><trkpt lat="42.897762" lon="19.633604"><ele>1717.7</ele><time>2012-04-30T14:33:10.0000000+00:00</time></trkpt><trkpt lat="42.897747" lon="19.633541"><ele>1718.2</ele><time>2012-04-30T14:33:15.0000000+00:00</time></trkpt><trkpt lat="42.897724" lon="19.633507"><ele>1718.4</ele><time>2012-04-30T14:33:20.0000000+00:00</time></trkpt><trkpt lat="42.897724" lon="19.633492"><ele>1718.3</ele><time>2012-04-30T14:33:25.0000000+00:00</time></trkpt><trkpt lat="42.89772" lon="19.63349"><ele>1718.3</ele><time>2012-04-30T14:33:30.0000000+00:00</time></trkpt><trkpt lat="42.897697" lon="19.633442"><ele>1719.5</ele><time>2012-04-30T14:33:35.0000000+00:00</time></trkpt><trkpt lat="42.897678" lon="19.633379"><ele>1719.5</ele><time>2012-04-30T14:33:40.0000000+00:00</time></trkpt><trkpt lat="42.897655" lon="19.633326"><ele>1719.7</ele><time>2012-04-30T14:33:45.0000000+00:00</time></trkpt><trkpt lat="42.897621" lon="19.633282"><ele>1720.5</ele><time>2012-04-30T14:33:50.0000000+00:00</time></trkpt><trkpt lat="42.897602" lon="19.633253"><ele>1722.0</ele><time>2012-04-30T14:33:55.0000000+00:00</time></trkpt><trkpt lat="42.897594" lon="19.633238"><ele>1722.0</ele><time>2012-04-30T14:34:00.0000000+00:00</time></trkpt><trkpt lat="42.897587" lon="19.633219"><ele>1723.8</ele><time>2012-04-30T14:34:05.0000000+00:00</time></trkpt><trkpt lat="42.897575" lon="19.633215"><ele>1724.4</ele><time>2012-04-30T14:34:10.0000000+00:00</time></trkpt><trkpt lat="42.897575" lon="19.633215"><ele>1724.5</ele><time>2012-04-30T14:34:15.0000000+00:00</time></trkpt><trkpt lat="42.897572" lon="19.633209"><ele>1724.7</ele><time>2012-04-30T14:34:20.0000000+00:00</time></trkpt><trkpt lat="42.897549" lon="19.63319"><ele>1725.4</ele><time>2012-04-30T14:34:25.0000000+00:00</time></trkpt><trkpt lat="42.897541" lon="19.633169"><ele>1726.1</ele><time>2012-04-30T14:34:30.0000000+00:00</time></trkpt><trkpt lat="42.897537" lon="19.633141"><ele>1726.5</ele><time>2012-04-30T14:34:35.0000000+00:00</time></trkpt><trkpt lat="42.897533" lon="19.633106"><ele>1726.7</ele><time>2012-04-30T14:34:40.0000000+00:00</time></trkpt><trkpt lat="42.897518" lon="19.633072"><ele>1726.9</ele><time>2012-04-30T14:34:45.0000000+00:00</time></trkpt><trkpt lat="42.897511" lon="19.633041"><ele>1726.9</ele><time>2012-04-30T14:34:50.0000000+00:00</time></trkpt><trkpt lat="42.897484" lon="19.633045"><ele>1726.6</ele><time>2012-04-30T14:34:55.0000000+00:00</time></trkpt><trkpt lat="42.897476" lon="19.633032"><ele>1726.9</ele><time>2012-04-30T14:35:00.0000000+00:00</time></trkpt><trkpt lat="42.897488" lon="19.633001"><ele>1727.2</ele><time>2012-04-30T14:35:05.0000000+00:00</time></trkpt><trkpt lat="42.897476" lon="19.632965"><ele>1727.5</ele><time>2012-04-30T14:35:10.0000000+00:00</time></trkpt><trkpt lat="42.897461" lon="19.632925"><ele>1728.0</ele><time>2012-04-30T14:35:15.0000000+00:00</time></trkpt><trkpt lat="42.897442" lon="19.632875"><ele>1727.8</ele><time>2012-04-30T14:35:20.0000000+00:00</time></trkpt><trkpt lat="42.897423" lon="19.632832"><ele>1727.6</ele><time>2012-04-30T14:35:25.0000000+00:00</time></trkpt><trkpt lat="42.897411" lon="19.632765"><ele>1726.7</ele><time>2012-04-30T14:35:30.0000000+00:00</time></trkpt><trkpt lat="42.897388" lon="19.632723"><ele>1727.0</ele><time>2012-04-30T14:35:35.0000000+00:00</time></trkpt><trkpt lat="42.897377" lon="19.632702"><ele>1727.2</ele><time>2012-04-30T14:35:40.0000000+00:00</time></trkpt><trkpt lat="42.897362" lon="19.632702"><ele>1727.3</ele><time>2012-04-30T14:35:45.0000000+00:00</time></trkpt><trkpt lat="42.897358" lon="19.632683"><ele>1727.2</ele><time>2012-04-30T14:35:50.0000000+00:00</time></trkpt><trkpt lat="42.897358" lon="19.632641"><ele>1727.7</ele><time>2012-04-30T14:35:55.0000000+00:00</time></trkpt><trkpt lat="42.897346" lon="19.632597"><ele>1727.5</ele><time>2012-04-30T14:36:00.0000000+00:00</time></trkpt><trkpt lat="42.897339" lon="19.632563"><ele>1727.1</ele><time>2012-04-30T14:36:05.0000000+00:00</time></trkpt><trkpt lat="42.897335" lon="19.632542"><ele>1727.1</ele><time>2012-04-30T14:36:10.0000000+00:00</time></trkpt><trkpt lat="42.897335" lon="19.632524"><ele>1727.2</ele><time>2012-04-30T14:36:15.0000000+00:00</time></trkpt><trkpt lat="42.897331" lon="19.632515"><ele>1727.0</ele><time>2012-04-30T14:36:20.0000000+00:00</time></trkpt><trkpt lat="42.897312" lon="19.632509"><ele>1726.6</ele><time>2012-04-30T14:36:25.0000000+00:00</time></trkpt><trkpt lat="42.897297" lon="19.632488"><ele>1726.9</ele><time>2012-04-30T14:36:30.0000000+00:00</time></trkpt><trkpt lat="42.897289" lon="19.632483"><ele>1725.5</ele><time>2012-04-30T14:36:35.0000000+00:00</time></trkpt><trkpt lat="42.897285" lon="19.632483"><ele>1726.0</ele><time>2012-04-30T14:36:40.0000000+00:00</time></trkpt><trkpt lat="42.897263" lon="19.63246"><ele>1726.1</ele><time>2012-04-30T14:36:45.0000000+00:00</time></trkpt><trkpt lat="42.89724" lon="19.632431"><ele>1725.9</ele><time>2012-04-30T14:36:50.0000000+00:00</time></trkpt><trkpt lat="42.897209" lon="19.632416"><ele>1726.1</ele><time>2012-04-30T14:36:55.0000000+00:00</time></trkpt><trkpt lat="42.897175" lon="19.632401"><ele>1726.3</ele><time>2012-04-30T14:37:00.0000000+00:00</time></trkpt><trkpt lat="42.89716" lon="19.632399"><ele>1726.8</ele><time>2012-04-30T14:37:05.0000000+00:00</time></trkpt><trkpt lat="42.897133" lon="19.632389"><ele>1727.2</ele><time>2012-04-30T14:37:10.0000000+00:00</time></trkpt><trkpt lat="42.897114" lon="19.632378"><ele>1727.0</ele><time>2012-04-30T14:37:15.0000000+00:00</time></trkpt><trkpt lat="42.897106" lon="19.632364"><ele>1726.8</ele><time>2012-04-30T14:37:20.0000000+00:00</time></trkpt><trkpt lat="42.897091" lon="19.632343"><ele>1726.1</ele><time>2012-04-30T14:37:25.0000000+00:00</time></trkpt><trkpt lat="42.897091" lon="19.632336"><ele>1725.7</ele><time>2012-04-30T14:37:30.0000000+00:00</time></trkpt><trkpt lat="42.897076" lon="19.63232"><ele>1726.1</ele><time>2012-04-30T14:37:35.0000000+00:00</time></trkpt><trkpt lat="42.897068" lon="19.632303"><ele>1726.3</ele><time>2012-04-30T14:37:40.0000000+00:00</time></trkpt><trkpt lat="42.897064" lon="19.632294"><ele>1727.1</ele><time>2012-04-30T14:37:45.0000000+00:00</time></trkpt><trkpt lat="42.897038" lon="19.632275"><ele>1726.9</ele><time>2012-04-30T14:37:50.0000000+00:00</time></trkpt><trkpt lat="42.897015" lon="19.632242"><ele>1726.6</ele><time>2012-04-30T14:37:55.0000000+00:00</time></trkpt><trkpt lat="42.897011" lon="19.632223"><ele>1726.1</ele><time>2012-04-30T14:38:00.0000000+00:00</time></trkpt><trkpt lat="42.897011" lon="19.632221"><ele>1725.9</ele><time>2012-04-30T14:38:05.0000000+00:00</time></trkpt><trkpt lat="42.897015" lon="19.632217"><ele>1725.7</ele><time>2012-04-30T14:38:10.0000000+00:00</time></trkpt><trkpt lat="42.896996" lon="19.632214"><ele>1726.2</ele><time>2012-04-30T14:38:15.0000000+00:00</time></trkpt><trkpt lat="42.896976" lon="19.632215"><ele>1727.0</ele><time>2012-04-30T14:38:20.0000000+00:00</time></trkpt><trkpt lat="42.896927" lon="19.632238"><ele>1728.2</ele><time>2012-04-30T14:38:25.0000000+00:00</time></trkpt><trkpt lat="42.896912" lon="19.632235"><ele>1728.8</ele><time>2012-04-30T14:38:30.0000000+00:00</time></trkpt><trkpt lat="42.896908" lon="19.632235"><ele>1728.8</ele><time>2012-04-30T14:38:35.0000000+00:00</time></trkpt><trkpt lat="42.8969" lon="19.632242"><ele>1729.1</ele><time>2012-04-30T14:38:40.0000000+00:00</time></trkpt><trkpt lat="42.896893" lon="19.632256"><ele>1729.2</ele><time>2012-04-30T14:38:45.0000000+00:00</time></trkpt><trkpt lat="42.896881" lon="19.632263"><ele>1729.7</ele><time>2012-04-30T14:38:50.0000000+00:00</time></trkpt><trkpt lat="42.896877" lon="19.632271"><ele>1730.1</ele><time>2012-04-30T14:38:55.0000000+00:00</time></trkpt><trkpt lat="42.89687" lon="19.632271"><ele>1730.4</ele><time>2012-04-30T14:39:00.0000000+00:00</time></trkpt><trkpt lat="42.89687" lon="19.632267"><ele>1730.5</ele><time>2012-04-30T14:39:05.0000000+00:00</time></trkpt><trkpt lat="42.89687" lon="19.632271"><ele>1730.5</ele><time>2012-04-30T14:39:10.0000000+00:00</time></trkpt><trkpt lat="42.89687" lon="19.632277"><ele>1730.6</ele><time>2012-04-30T14:39:15.0000000+00:00</time></trkpt><trkpt lat="42.896851" lon="19.632267"><ele>1732.2</ele><time>2012-04-30T14:39:20.0000000+00:00</time></trkpt><trkpt lat="42.896847" lon="19.632263"><ele>1733.8</ele><time>2012-04-30T14:39:25.0000000+00:00</time></trkpt><trkpt lat="42.896847" lon="19.632256"><ele>1734.7</ele><time>2012-04-30T14:39:30.0000000+00:00</time></trkpt><trkpt lat="42.896847" lon="19.63225"><ele>1735.4</ele><time>2012-04-30T14:39:35.0000000+00:00</time></trkpt><trkpt lat="42.896847" lon="19.632256"><ele>1735.4</ele><time>2012-04-30T14:39:40.0000000+00:00</time></trkpt><trkpt lat="42.896843" lon="19.632263"><ele>1735.3</ele><time>2012-04-30T14:39:45.0000000+00:00</time></trkpt><trkpt lat="42.896843" lon="19.632271"><ele>1735.3</ele><time>2012-04-30T14:39:50.0000000+00:00</time></trkpt><trkpt lat="42.896835" lon="19.632259"><ele>1735.2</ele><time>2012-04-30T14:39:55.0000000+00:00</time></trkpt><trkpt lat="42.896832" lon="19.632277"><ele>1735.5</ele><time>2012-04-30T14:40:00.0000000+00:00</time></trkpt><trkpt lat="42.896832" lon="19.63228"><ele>1735.5</ele><time>2012-04-30T14:40:05.0000000+00:00</time></trkpt><trkpt lat="42.896828" lon="19.632277"><ele>1735.8</ele><time>2012-04-30T14:40:10.0000000+00:00</time></trkpt><trkpt lat="42.896828" lon="19.632278"><ele>1735.6</ele><time>2012-04-30T14:40:15.0000000+00:00</time></trkpt><trkpt lat="42.896828" lon="19.632278"><ele>1735.6</ele><time>2012-04-30T14:40:20.0000000+00:00</time></trkpt><trkpt lat="42.896832" lon="19.632278"><ele>1735.6</ele><time>2012-04-30T14:40:25.0000000+00:00</time></trkpt><trkpt lat="42.896832" lon="19.632278"><ele>1735.6</ele><time>2012-04-30T14:40:30.0000000+00:00</time></trkpt><trkpt lat="42.896828" lon="19.632282"><ele>1735.7</ele><time>2012-04-30T14:40:35.0000000+00:00</time></trkpt><trkpt lat="42.896828" lon="19.632292"><ele>1735.8</ele><time>2012-04-30T14:40:40.0000000+00:00</time></trkpt><trkpt lat="42.896828" lon="19.632301"><ele>1736.0</ele><time>2012-04-30T14:40:45.0000000+00:00</time></trkpt><trkpt lat="42.896832" lon="19.632305"><ele>1736.0</ele><time>2012-04-30T14:40:50.0000000+00:00</time></trkpt><trkpt lat="42.896839" lon="19.632309"><ele>1736.0</ele><time>2012-04-30T14:40:55.0000000+00:00</time></trkpt><trkpt lat="42.896839" lon="19.632313"><ele>1736.0</ele><time>2012-04-30T14:41:00.0000000+00:00</time></trkpt><trkpt lat="42.896839" lon="19.632313"><ele>1735.9</ele><time>2012-04-30T14:41:05.0000000+00:00</time></trkpt><trkpt lat="42.896839" lon="19.632315"><ele>1735.8</ele><time>2012-04-30T14:41:10.0000000+00:00</time></trkpt><trkpt lat="42.896843" lon="19.632313"><ele>1735.8</ele><time>2012-04-30T14:41:15.0000000+00:00</time></trkpt><trkpt lat="42.896847" lon="19.632318"><ele>1735.8</ele><time>2012-04-30T14:41:20.0000000+00:00</time></trkpt><trkpt lat="42.896847" lon="19.632322"><ele>1735.7</ele><time>2012-04-30T14:41:25.0000000+00:00</time></trkpt><trkpt lat="42.896847" lon="19.632322"><ele>1735.7</ele><time>2012-04-30T14:41:30.0000000+00:00</time></trkpt><trkpt lat="42.896847" lon="19.632318"><ele>1735.7</ele><time>2012-04-30T14:41:35.0000000+00:00</time></trkpt><trkpt lat="42.896843" lon="19.632317"><ele>1735.7</ele><time>2012-04-30T14:41:40.0000000+00:00</time></trkpt><trkpt lat="42.896843" lon="19.632317"><ele>1735.7</ele><time>2012-04-30T14:41:45.0000000+00:00</time></trkpt><trkpt lat="42.896843" lon="19.632317"><ele>1735.7</ele><time>2012-04-30T14:41:50.0000000+00:00</time></trkpt><trkpt lat="42.896843" lon="19.632317"><ele>1735.7</ele><time>2012-04-30T14:41:55.0000000+00:00</time></trkpt><trkpt lat="42.896847" lon="19.632317"><ele>1735.7</ele><time>2012-04-30T14:42:00.0000000+00:00</time></trkpt><trkpt lat="42.896847" lon="19.632317"><ele>1735.7</ele><time>2012-04-30T14:42:05.0000000+00:00</time></trkpt><trkpt lat="42.896847" lon="19.632317"><ele>1735.7</ele><time>2012-04-30T14:42:10.0000000+00:00</time></trkpt><trkpt lat="42.896847" lon="19.632317"><ele>1735.7</ele><time>2012-04-30T14:42:15.0000000+00:00</time></trkpt><trkpt lat="42.896847" lon="19.632317"><ele>1735.7</ele><time>2012-04-30T14:42:20.0000000+00:00</time></trkpt><trkpt lat="42.896847" lon="19.632317"><ele>1735.7</ele><time>2012-04-30T14:42:25.0000000+00:00</time></trkpt><trkpt lat="42.896847" lon="19.632317"><ele>1735.7</ele><time>2012-04-30T14:42:30.0000000+00:00</time></trkpt><trkpt lat="42.896847" lon="19.632317"><ele>1735.7</ele><time>2012-04-30T14:42:35.0000000+00:00</time></trkpt><trkpt lat="42.896847" lon="19.632317"><ele>1735.7</ele><time>2012-04-30T14:42:40.0000000+00:00</time></trkpt><trkpt lat="42.896847" lon="19.632317"><ele>1735.7</ele><time>2012-04-30T14:42:45.0000000+00:00</time></trkpt><trkpt lat="42.896847" lon="19.632315"><ele>1735.7</ele><time>2012-04-30T14:42:50.0000000+00:00</time></trkpt><trkpt lat="42.896847" lon="19.632315"><ele>1735.7</ele><time>2012-04-30T14:42:55.0000000+00:00</time></trkpt><trkpt lat="42.896847" lon="19.632315"><ele>1735.7</ele><time>2012-04-30T14:43:00.0000000+00:00</time></trkpt><trkpt lat="42.896847" lon="19.632315"><ele>1735.7</ele><time>2012-04-30T14:43:05.0000000+00:00</time></trkpt><trkpt lat="42.896847" lon="19.632315"><ele>1735.7</ele><time>2012-04-30T14:43:10.0000000+00:00</time></trkpt><trkpt lat="42.896847" lon="19.632315"><ele>1735.7</ele><time>2012-04-30T14:43:15.0000000+00:00</time></trkpt><trkpt lat="42.896847" lon="19.632315"><ele>1735.7</ele><time>2012-04-30T14:43:20.0000000+00:00</time></trkpt><trkpt lat="42.896847" lon="19.632315"><ele>1735.7</ele><time>2012-04-30T14:43:25.0000000+00:00</time></trkpt><trkpt lat="42.896847" lon="19.632315"><ele>1735.7</ele><time>2012-04-30T14:43:30.0000000+00:00</time></trkpt><trkpt lat="42.896847" lon="19.632313"><ele>1735.7</ele><time>2012-04-30T14:43:35.0000000+00:00</time></trkpt><trkpt lat="42.896847" lon="19.632315"><ele>1735.7</ele><time>2012-04-30T14:43:40.0000000+00:00</time></trkpt><trkpt lat="42.896847" lon="19.632318"><ele>1735.7</ele><time>2012-04-30T14:43:45.0000000+00:00</time></trkpt><trkpt lat="42.896847" lon="19.632322"><ele>1736.6</ele><time>2012-04-30T14:43:50.0000000+00:00</time></trkpt><trkpt lat="42.896847" lon="19.632334"><ele>1736.6</ele><time>2012-04-30T14:43:55.0000000+00:00</time></trkpt><trkpt lat="42.896847" lon="19.632332"><ele>1736.8</ele><time>2012-04-30T14:44:00.0000000+00:00</time></trkpt><trkpt lat="42.896851" lon="19.632364"><ele>1737.2</ele><time>2012-04-30T14:44:05.0000000+00:00</time></trkpt><trkpt lat="42.896847" lon="19.632401"><ele>1738.7</ele><time>2012-04-30T14:44:10.0000000+00:00</time></trkpt><trkpt lat="42.896843" lon="19.632437"><ele>1740.5</ele><time>2012-04-30T14:44:15.0000000+00:00</time></trkpt><trkpt lat="42.896847" lon="19.632477"><ele>1742.1</ele><time>2012-04-30T14:44:20.0000000+00:00</time></trkpt><trkpt lat="42.896851" lon="19.632521"><ele>1743.7</ele><time>2012-04-30T14:44:25.0000000+00:00</time></trkpt><trkpt lat="42.896858" lon="19.632557"><ele>1745.5</ele><time>2012-04-30T14:44:30.0000000+00:00</time></trkpt><trkpt lat="42.896873" lon="19.63261"><ele>1747.4</ele><time>2012-04-30T14:44:35.0000000+00:00</time></trkpt><trkpt lat="42.8969" lon="19.632648"><ele>1747.2</ele><time>2012-04-30T14:44:40.0000000+00:00</time></trkpt><trkpt lat="42.896927" lon="19.632679"><ele>1748.2</ele><time>2012-04-30T14:44:45.0000000+00:00</time></trkpt><trkpt lat="42.896957" lon="19.632711"><ele>1748.7</ele><time>2012-04-30T14:44:50.0000000+00:00</time></trkpt><trkpt lat="42.896961" lon="19.63275"><ele>1750.3</ele><time>2012-04-30T14:44:55.0000000+00:00</time></trkpt><trkpt lat="42.896961" lon="19.632797"><ele>1750.6</ele><time>2012-04-30T14:45:00.0000000+00:00</time></trkpt><trkpt lat="42.896969" lon="19.632833"><ele>1751.4</ele><time>2012-04-30T14:45:05.0000000+00:00</time></trkpt><trkpt lat="42.896965" lon="19.632832"><ele>1751.8</ele><time>2012-04-30T14:45:10.0000000+00:00</time></trkpt><trkpt lat="42.89698" lon="19.6329"><ele>1752.3</ele><time>2012-04-30T14:45:15.0000000+00:00</time></trkpt><trkpt lat="42.896984" lon="19.632957"><ele>1753.8</ele><time>2012-04-30T14:45:20.0000000+00:00</time></trkpt><trkpt lat="42.89698" lon="19.632994"><ele>1755.2</ele><time>2012-04-30T14:45:25.0000000+00:00</time></trkpt><trkpt lat="42.896988" lon="19.633038"><ele>1757.0</ele><time>2012-04-30T14:45:30.0000000+00:00</time></trkpt><trkpt lat="42.897003" lon="19.633072"><ele>1757.5</ele><time>2012-04-30T14:45:35.0000000+00:00</time></trkpt><trkpt lat="42.897003" lon="19.633093"><ele>1758.4</ele><time>2012-04-30T14:45:40.0000000+00:00</time></trkpt><trkpt lat="42.897003" lon="19.633104"><ele>1758.7</ele><time>2012-04-30T14:45:45.0000000+00:00</time></trkpt><trkpt lat="42.896984" lon="19.633148"><ele>1758.0</ele><time>2012-04-30T14:45:50.0000000+00:00</time></trkpt><trkpt lat="42.896976" lon="19.633188"><ele>1758.5</ele><time>2012-04-30T14:45:55.0000000+00:00</time></trkpt><trkpt lat="42.896984" lon="19.633226"><ele>1759.0</ele><time>2012-04-30T14:46:00.0000000+00:00</time></trkpt><trkpt lat="42.896999" lon="19.633274"><ele>1760.2</ele><time>2012-04-30T14:46:05.0000000+00:00</time></trkpt><trkpt lat="42.896996" lon="19.633324"><ele>1760.5</ele><time>2012-04-30T14:46:10.0000000+00:00</time></trkpt><trkpt lat="42.896976" lon="19.633383"><ele>1760.4</ele><time>2012-04-30T14:46:15.0000000+00:00</time></trkpt><trkpt lat="42.896984" lon="19.633442"><ele>1761.2</ele><time>2012-04-30T14:46:20.0000000+00:00</time></trkpt><trkpt lat="42.897003" lon="19.633478"><ele>1762.1</ele><time>2012-04-30T14:46:25.0000000+00:00</time></trkpt><trkpt lat="42.897026" lon="19.633528"><ele>1762.0</ele><time>2012-04-30T14:46:30.0000000+00:00</time></trkpt><trkpt lat="42.897053" lon="19.633575"><ele>1759.3</ele><time>2012-04-30T14:46:35.0000000+00:00</time></trkpt><trkpt lat="42.897064" lon="19.633636"><ele>1759.4</ele><time>2012-04-30T14:46:40.0000000+00:00</time></trkpt><trkpt lat="42.897076" lon="19.633696"><ele>1759.8</ele><time>2012-04-30T14:46:45.0000000+00:00</time></trkpt><trkpt lat="42.897079" lon="19.633745"><ele>1761.0</ele><time>2012-04-30T14:46:50.0000000+00:00</time></trkpt><trkpt lat="42.897079" lon="19.633766"><ele>1761.9</ele><time>2012-04-30T14:46:55.0000000+00:00</time></trkpt><trkpt lat="42.897076" lon="19.633802"><ele>1761.7</ele><time>2012-04-30T14:47:00.0000000+00:00</time></trkpt><trkpt lat="42.897072" lon="19.633854"><ele>1761.8</ele><time>2012-04-30T14:47:05.0000000+00:00</time></trkpt><trkpt lat="42.89706" lon="19.633892"><ele>1761.0</ele><time>2012-04-30T14:47:10.0000000+00:00</time></trkpt><trkpt lat="42.897053" lon="19.633944"><ele>1761.0</ele><time>2012-04-30T14:47:15.0000000+00:00</time></trkpt><trkpt lat="42.897041" lon="19.633995"><ele>1761.6</ele><time>2012-04-30T14:47:20.0000000+00:00</time></trkpt><trkpt lat="42.897018" lon="19.634048"><ele>1761.1</ele><time>2012-04-30T14:47:25.0000000+00:00</time></trkpt><trkpt lat="42.897015" lon="19.634104"><ele>1761.1</ele><time>2012-04-30T14:47:30.0000000+00:00</time></trkpt><trkpt lat="42.896992" lon="19.634136"><ele>1760.7</ele><time>2012-04-30T14:47:35.0000000+00:00</time></trkpt><trkpt lat="42.896992" lon="19.634163"><ele>1760.4</ele><time>2012-04-30T14:47:40.0000000+00:00</time></trkpt><trkpt lat="42.896984" lon="19.634222"><ele>1760.2</ele><time>2012-04-30T14:47:45.0000000+00:00</time></trkpt><trkpt lat="42.896976" lon="19.63426"><ele>1760.1</ele><time>2012-04-30T14:47:50.0000000+00:00</time></trkpt><trkpt lat="42.896957" lon="19.6343"><ele>1760.8</ele><time>2012-04-30T14:47:55.0000000+00:00</time></trkpt><trkpt lat="42.896946" lon="19.634344"><ele>1761.0</ele><time>2012-04-30T14:48:00.0000000+00:00</time></trkpt><trkpt lat="42.89695" lon="19.634373"><ele>1760.2</ele><time>2012-04-30T14:48:05.0000000+00:00</time></trkpt><trkpt lat="42.89695" lon="19.634369"><ele>1760.3</ele><time>2012-04-30T14:48:10.0000000+00:00</time></trkpt><trkpt lat="42.89695" lon="19.634367"><ele>1760.4</ele><time>2012-04-30T14:48:15.0000000+00:00</time></trkpt><trkpt lat="42.89695" lon="19.634367"><ele>1760.4</ele><time>2012-04-30T14:48:20.0000000+00:00</time></trkpt><trkpt lat="42.89695" lon="19.634367"><ele>1760.4</ele><time>2012-04-30T14:48:25.0000000+00:00</time></trkpt><trkpt lat="42.89695" lon="19.634367"><ele>1760.4</ele><time>2012-04-30T14:48:30.0000000+00:00</time></trkpt><trkpt lat="42.89695" lon="19.634367"><ele>1760.4</ele><time>2012-04-30T14:48:35.0000000+00:00</time></trkpt><trkpt lat="42.89695" lon="19.634367"><ele>1760.3</ele><time>2012-04-30T14:48:40.0000000+00:00</time></trkpt><trkpt lat="42.89695" lon="19.634367"><ele>1760.3</ele><time>2012-04-30T14:48:45.0000000+00:00</time></trkpt><trkpt lat="42.89695" lon="19.634367"><ele>1760.3</ele><time>2012-04-30T14:48:50.0000000+00:00</time></trkpt><trkpt lat="42.896946" lon="19.634378"><ele>1760.5</ele><time>2012-04-30T14:48:55.0000000+00:00</time></trkpt><trkpt lat="42.896938" lon="19.634428"><ele>1761.0</ele><time>2012-04-30T14:49:00.0000000+00:00</time></trkpt><trkpt lat="42.896931" lon="19.634481"><ele>1762.1</ele><time>2012-04-30T14:49:05.0000000+00:00</time></trkpt><trkpt lat="42.896923" lon="19.634506"><ele>1761.7</ele><time>2012-04-30T14:49:10.0000000+00:00</time></trkpt><trkpt lat="42.896915" lon="19.634548"><ele>1761.9</ele><time>2012-04-30T14:49:15.0000000+00:00</time></trkpt><trkpt lat="42.896893" lon="19.634596"><ele>1762.4</ele><time>2012-04-30T14:49:20.0000000+00:00</time></trkpt><trkpt lat="42.896873" lon="19.634642"><ele>1763.2</ele><time>2012-04-30T14:49:25.0000000+00:00</time></trkpt><trkpt lat="42.896862" lon="19.634659"><ele>1763.9</ele><time>2012-04-30T14:49:30.0000000+00:00</time></trkpt><trkpt lat="42.896854" lon="19.634693"><ele>1763.9</ele><time>2012-04-30T14:49:35.0000000+00:00</time></trkpt><trkpt lat="42.896835" lon="19.634729"><ele>1764.4</ele><time>2012-04-30T14:49:40.0000000+00:00</time></trkpt><trkpt lat="42.896816" lon="19.634787"><ele>1764.7</ele><time>2012-04-30T14:49:45.0000000+00:00</time></trkpt><trkpt lat="42.896797" lon="19.634827"><ele>1764.8</ele><time>2012-04-30T14:49:50.0000000+00:00</time></trkpt><trkpt lat="42.896786" lon="19.634867"><ele>1763.9</ele><time>2012-04-30T14:49:55.0000000+00:00</time></trkpt><trkpt lat="42.89677" lon="19.634907"><ele>1763.8</ele><time>2012-04-30T14:50:00.0000000+00:00</time></trkpt><trkpt lat="42.896767" lon="19.634899"><ele>1764.0</ele><time>2012-04-30T14:50:05.0000000+00:00</time></trkpt><trkpt lat="42.896744" lon="19.634937"><ele>1764.3</ele><time>2012-04-30T14:50:10.0000000+00:00</time></trkpt><trkpt lat="42.896736" lon="19.634987"><ele>1764.2</ele><time>2012-04-30T14:50:15.0000000+00:00</time></trkpt><trkpt lat="42.896725" lon="19.635033"><ele>1764.5</ele><time>2012-04-30T14:50:20.0000000+00:00</time></trkpt><trkpt lat="42.896706" lon="19.635075"><ele>1764.8</ele><time>2012-04-30T14:50:25.0000000+00:00</time></trkpt><trkpt lat="42.896683" lon="19.635111"><ele>1764.5</ele><time>2012-04-30T14:50:30.0000000+00:00</time></trkpt><trkpt lat="42.896687" lon="19.635103"><ele>1764.3</ele><time>2012-04-30T14:50:35.0000000+00:00</time></trkpt><trkpt lat="42.896671" lon="19.635136"><ele>1764.5</ele><time>2012-04-30T14:50:40.0000000+00:00</time></trkpt><trkpt lat="42.89666" lon="19.635189"><ele>1764.8</ele><time>2012-04-30T14:50:45.0000000+00:00</time></trkpt><trkpt lat="42.896645" lon="19.635248"><ele>1764.9</ele><time>2012-04-30T14:50:50.0000000+00:00</time></trkpt><trkpt lat="42.896629" lon="19.635303"><ele>1765.2</ele><time>2012-04-30T14:50:55.0000000+00:00</time></trkpt><trkpt lat="42.896614" lon="19.635345"><ele>1765.4</ele><time>2012-04-30T14:51:00.0000000+00:00</time></trkpt><trkpt lat="42.896595" lon="19.635372"><ele>1765.5</ele><time>2012-04-30T14:51:05.0000000+00:00</time></trkpt><trkpt lat="42.896576" lon="19.635406"><ele>1765.6</ele><time>2012-04-30T14:51:10.0000000+00:00</time></trkpt><trkpt lat="42.896564" lon="19.63546"><ele>1766.1</ele><time>2012-04-30T14:51:15.0000000+00:00</time></trkpt><trkpt lat="42.896557" lon="19.635525"><ele>1766.2</ele><time>2012-04-30T14:51:20.0000000+00:00</time></trkpt><trkpt lat="42.896545" lon="19.635588"><ele>1766.1</ele><time>2012-04-30T14:51:25.0000000+00:00</time></trkpt><trkpt lat="42.896523" lon="19.635637"><ele>1766.5</ele><time>2012-04-30T14:51:30.0000000+00:00</time></trkpt><trkpt lat="42.896507" lon="19.635687"><ele>1767.2</ele><time>2012-04-30T14:51:35.0000000+00:00</time></trkpt><trkpt lat="42.896492" lon="19.635738"><ele>1767.4</ele><time>2012-04-30T14:51:40.0000000+00:00</time></trkpt><trkpt lat="42.896488" lon="19.635738"><ele>1767.6</ele><time>2012-04-30T14:51:45.0000000+00:00</time></trkpt><trkpt lat="42.896481" lon="19.63578"><ele>1767.8</ele><time>2012-04-30T14:51:50.0000000+00:00</time></trkpt><trkpt lat="42.896481" lon="19.635841"><ele>1768.0</ele><time>2012-04-30T14:51:55.0000000+00:00</time></trkpt><trkpt lat="42.896469" lon="19.635849"><ele>1768.8</ele><time>2012-04-30T14:52:00.0000000+00:00</time></trkpt><trkpt lat="42.896465" lon="19.635849"><ele>1769.1</ele><time>2012-04-30T14:52:05.0000000+00:00</time></trkpt><trkpt lat="42.896465" lon="19.635859"><ele>1769.2</ele><time>2012-04-30T14:52:10.0000000+00:00</time></trkpt><trkpt lat="42.896465" lon="19.635912"><ele>1769.6</ele><time>2012-04-30T14:52:15.0000000+00:00</time></trkpt><trkpt lat="42.896458" lon="19.635963"><ele>1770.2</ele><time>2012-04-30T14:52:20.0000000+00:00</time></trkpt><trkpt lat="42.896461" lon="19.636021"><ele>1771.1</ele><time>2012-04-30T14:52:25.0000000+00:00</time></trkpt><trkpt lat="42.896446" lon="19.636068"><ele>1771.6</ele><time>2012-04-30T14:52:30.0000000+00:00</time></trkpt><trkpt lat="42.89642" lon="19.636086"><ele>1770.3</ele><time>2012-04-30T14:52:35.0000000+00:00</time></trkpt><trkpt lat="42.89642" lon="19.636078"><ele>1770.6</ele><time>2012-04-30T14:52:40.0000000+00:00</time></trkpt><trkpt lat="42.89642" lon="19.636076"><ele>1770.8</ele><time>2012-04-30T14:52:45.0000000+00:00</time></trkpt><trkpt lat="42.896416" lon="19.636076"><ele>1771.0</ele><time>2012-04-30T14:52:50.0000000+00:00</time></trkpt><trkpt lat="42.896416" lon="19.636076"><ele>1771.0</ele><time>2012-04-30T14:52:55.0000000+00:00</time></trkpt><trkpt lat="42.896416" lon="19.636076"><ele>1771.0</ele><time>2012-04-30T14:53:00.0000000+00:00</time></trkpt><trkpt lat="42.896416" lon="19.636076"><ele>1771.0</ele><time>2012-04-30T14:53:05.0000000+00:00</time></trkpt><trkpt lat="42.896416" lon="19.636076"><ele>1771.0</ele><time>2012-04-30T14:53:10.0000000+00:00</time></trkpt><trkpt lat="42.896416" lon="19.636076"><ele>1771.0</ele><time>2012-04-30T14:53:15.0000000+00:00</time></trkpt><trkpt lat="42.896416" lon="19.636076"><ele>1771.0</ele><time>2012-04-30T14:53:20.0000000+00:00</time></trkpt><trkpt lat="42.896416" lon="19.636074"><ele>1771.0</ele><time>2012-04-30T14:53:25.0000000+00:00</time></trkpt><trkpt lat="42.896416" lon="19.636074"><ele>1771.0</ele><time>2012-04-30T14:53:30.0000000+00:00</time></trkpt><trkpt lat="42.896416" lon="19.636076"><ele>1771.0</ele><time>2012-04-30T14:53:35.0000000+00:00</time></trkpt><trkpt lat="42.89642" lon="19.636122"><ele>1770.9</ele><time>2012-04-30T14:53:40.0000000+00:00</time></trkpt><trkpt lat="42.89642" lon="19.636187"><ele>1771.3</ele><time>2012-04-30T14:53:45.0000000+00:00</time></trkpt><trkpt lat="42.89642" lon="19.636253"><ele>1772.5</ele><time>2012-04-30T14:53:50.0000000+00:00</time></trkpt><trkpt lat="42.896423" lon="19.636318"><ele>1773.8</ele><time>2012-04-30T14:53:55.0000000+00:00</time></trkpt><trkpt lat="42.896454" lon="19.636372"><ele>1774.4</ele><time>2012-04-30T14:54:00.0000000+00:00</time></trkpt><trkpt lat="42.896492" lon="19.636414"><ele>1775.0</ele><time>2012-04-30T14:54:05.0000000+00:00</time></trkpt><trkpt lat="42.896526" lon="19.636448"><ele>1775.9</ele><time>2012-04-30T14:54:10.0000000+00:00</time></trkpt><trkpt lat="42.896557" lon="19.636484"><ele>1776.6</ele><time>2012-04-30T14:54:15.0000000+00:00</time></trkpt><trkpt lat="42.896584" lon="19.636522"><ele>1778.5</ele><time>2012-04-30T14:54:20.0000000+00:00</time></trkpt><trkpt lat="42.89661" lon="19.63658"><ele>1780.4</ele><time>2012-04-30T14:54:25.0000000+00:00</time></trkpt><trkpt lat="42.896614" lon="19.636646"><ele>1783.3</ele><time>2012-04-30T14:54:30.0000000+00:00</time></trkpt><trkpt lat="42.896606" lon="19.636696"><ele>1784.7</ele><time>2012-04-30T14:54:35.0000000+00:00</time></trkpt><trkpt lat="42.896622" lon="19.636726"><ele>1783.7</ele><time>2012-04-30T14:54:40.0000000+00:00</time></trkpt><trkpt lat="42.896618" lon="19.636778"><ele>1783.3</ele><time>2012-04-30T14:54:45.0000000+00:00</time></trkpt><trkpt lat="42.896629" lon="19.636772"><ele>1778.5</ele><time>2012-04-30T14:54:50.0000000+00:00</time></trkpt><trkpt lat="42.896629" lon="19.636772"><ele>1778.3</ele><time>2012-04-30T14:54:55.0000000+00:00</time></trkpt><trkpt lat="42.896629" lon="19.636799"><ele>1778.8</ele><time>2012-04-30T14:55:00.0000000+00:00</time></trkpt><trkpt lat="42.896633" lon="19.636848"><ele>1779.1</ele><time>2012-04-30T14:55:05.0000000+00:00</time></trkpt><trkpt lat="42.896626" lon="19.63689"><ele>1779.9</ele><time>2012-04-30T14:55:10.0000000+00:00</time></trkpt><trkpt lat="42.896622" lon="19.636877"><ele>1779.8</ele><time>2012-04-30T14:55:15.0000000+00:00</time></trkpt><trkpt lat="42.896622" lon="19.636877"><ele>1779.8</ele><time>2012-04-30T14:55:20.0000000+00:00</time></trkpt><trkpt lat="42.896622" lon="19.636877"><ele>1779.8</ele><time>2012-04-30T14:55:25.0000000+00:00</time></trkpt><trkpt lat="42.896622" lon="19.636877"><ele>1779.8</ele><time>2012-04-30T14:55:30.0000000+00:00</time></trkpt><trkpt lat="42.896622" lon="19.636915"><ele>1780.5</ele><time>2012-04-30T14:55:35.0000000+00:00</time></trkpt><trkpt lat="42.896618" lon="19.636913"><ele>1781.1</ele><time>2012-04-30T14:55:40.0000000+00:00</time></trkpt><trkpt lat="42.896618" lon="19.636913"><ele>1781.1</ele><time>2012-04-30T14:55:45.0000000+00:00</time></trkpt><trkpt lat="42.896618" lon="19.636932"><ele>1781.5</ele><time>2012-04-30T14:55:50.0000000+00:00</time></trkpt><trkpt lat="42.89661" lon="19.63698"><ele>1782.1</ele><time>2012-04-30T14:55:55.0000000+00:00</time></trkpt><trkpt lat="42.896599" lon="19.637026"><ele>1782.5</ele><time>2012-04-30T14:56:00.0000000+00:00</time></trkpt><trkpt lat="42.896606" lon="19.637074"><ele>1782.6</ele><time>2012-04-30T14:56:05.0000000+00:00</time></trkpt><trkpt lat="42.89661" lon="19.637127"><ele>1782.5</ele><time>2012-04-30T14:56:10.0000000+00:00</time></trkpt><trkpt lat="42.896618" lon="19.637171"><ele>1782.8</ele><time>2012-04-30T14:56:15.0000000+00:00</time></trkpt><trkpt lat="42.896622" lon="19.637218"><ele>1783.1</ele><time>2012-04-30T14:56:20.0000000+00:00</time></trkpt><trkpt lat="42.896618" lon="19.637264"><ele>1783.2</ele><time>2012-04-30T14:56:25.0000000+00:00</time></trkpt><trkpt lat="42.89661" lon="19.637306"><ele>1783.5</ele><time>2012-04-30T14:56:30.0000000+00:00</time></trkpt><trkpt lat="42.896606" lon="19.637308"><ele>1783.7</ele><time>2012-04-30T14:56:35.0000000+00:00</time></trkpt><trkpt lat="42.896606" lon="19.637308"><ele>1783.9</ele><time>2012-04-30T14:56:40.0000000+00:00</time></trkpt><trkpt lat="42.896606" lon="19.637308"><ele>1783.9</ele><time>2012-04-30T14:56:45.0000000+00:00</time></trkpt><trkpt lat="42.896606" lon="19.637306"><ele>1783.8</ele><time>2012-04-30T14:56:50.0000000+00:00</time></trkpt><trkpt lat="42.896606" lon="19.637306"><ele>1783.8</ele><time>2012-04-30T14:56:55.0000000+00:00</time></trkpt><trkpt lat="42.896606" lon="19.637306"><ele>1783.8</ele><time>2012-04-30T14:57:00.0000000+00:00</time></trkpt><trkpt lat="42.896603" lon="19.637321"><ele>1784.0</ele><time>2012-04-30T14:57:05.0000000+00:00</time></trkpt><trkpt lat="42.896587" lon="19.637365"><ele>1784.9</ele><time>2012-04-30T14:57:10.0000000+00:00</time></trkpt><trkpt lat="42.896584" lon="19.637405"><ele>1785.2</ele><time>2012-04-30T14:57:15.0000000+00:00</time></trkpt><trkpt lat="42.896587" lon="19.637451"><ele>1785.6</ele><time>2012-04-30T14:57:20.0000000+00:00</time></trkpt><trkpt lat="42.89658" lon="19.637497"><ele>1786.3</ele><time>2012-04-30T14:57:25.0000000+00:00</time></trkpt><trkpt lat="42.896576" lon="19.637537"><ele>1787.2</ele><time>2012-04-30T14:57:30.0000000+00:00</time></trkpt><trkpt lat="42.896564" lon="19.637575"><ele>1788.0</ele><time>2012-04-30T14:57:35.0000000+00:00</time></trkpt><trkpt lat="42.896553" lon="19.637604"><ele>1788.2</ele><time>2012-04-30T14:57:40.0000000+00:00</time></trkpt><trkpt lat="42.896545" lon="19.637625"><ele>1788.7</ele><time>2012-04-30T14:57:45.0000000+00:00</time></trkpt><trkpt lat="42.89653" lon="19.637672"><ele>1789.3</ele><time>2012-04-30T14:57:50.0000000+00:00</time></trkpt><trkpt lat="42.896523" lon="19.637712"><ele>1789.6</ele><time>2012-04-30T14:57:55.0000000+00:00</time></trkpt><trkpt lat="42.896519" lon="19.637707"><ele>1789.2</ele><time>2012-04-30T14:58:00.0000000+00:00</time></trkpt><trkpt lat="42.896519" lon="19.637716"><ele>1789.2</ele><time>2012-04-30T14:58:05.0000000+00:00</time></trkpt><trkpt lat="42.896515" lon="19.637762"><ele>1789.7</ele><time>2012-04-30T14:58:10.0000000+00:00</time></trkpt><trkpt lat="42.896523" lon="19.637783"><ele>1789.8</ele><time>2012-04-30T14:58:15.0000000+00:00</time></trkpt><trkpt lat="42.896523" lon="19.637783"><ele>1789.9</ele><time>2012-04-30T14:58:20.0000000+00:00</time></trkpt><trkpt lat="42.896523" lon="19.637783"><ele>1789.9</ele><time>2012-04-30T14:58:25.0000000+00:00</time></trkpt><trkpt lat="42.896523" lon="19.637783"><ele>1789.9</ele><time>2012-04-30T14:58:30.0000000+00:00</time></trkpt><trkpt lat="42.896523" lon="19.637783"><ele>1789.9</ele><time>2012-04-30T14:58:35.0000000+00:00</time></trkpt><trkpt lat="42.896523" lon="19.637783"><ele>1789.9</ele><time>2012-04-30T14:58:40.0000000+00:00</time></trkpt><trkpt lat="42.896523" lon="19.637783"><ele>1789.9</ele><time>2012-04-30T14:58:45.0000000+00:00</time></trkpt><trkpt lat="42.896523" lon="19.637783"><ele>1789.9</ele><time>2012-04-30T14:58:50.0000000+00:00</time></trkpt><trkpt lat="42.896523" lon="19.637783"><ele>1789.9</ele><time>2012-04-30T14:58:55.0000000+00:00</time></trkpt><trkpt lat="42.896523" lon="19.637783"><ele>1789.9</ele><time>2012-04-30T14:59:00.0000000+00:00</time></trkpt><trkpt lat="42.896519" lon="19.637783"><ele>1789.9</ele><time>2012-04-30T14:59:05.0000000+00:00</time></trkpt><trkpt lat="42.896519" lon="19.637785"><ele>1789.9</ele><time>2012-04-30T14:59:10.0000000+00:00</time></trkpt><trkpt lat="42.896519" lon="19.637785"><ele>1789.9</ele><time>2012-04-30T14:59:15.0000000+00:00</time></trkpt><trkpt lat="42.896523" lon="19.637785"><ele>1789.9</ele><time>2012-04-30T14:59:20.0000000+00:00</time></trkpt><trkpt lat="42.896523" lon="19.637785"><ele>1789.9</ele><time>2012-04-30T14:59:25.0000000+00:00</time></trkpt><trkpt lat="42.896538" lon="19.6378"><ele>1790.0</ele><time>2012-04-30T14:59:30.0000000+00:00</time></trkpt><trkpt lat="42.896538" lon="19.637836"><ele>1793.7</ele><time>2012-04-30T14:59:35.0000000+00:00</time></trkpt><trkpt lat="42.896523" lon="19.637894"><ele>1794.9</ele><time>2012-04-30T14:59:40.0000000+00:00</time></trkpt><trkpt lat="42.896515" lon="19.637945"><ele>1796.2</ele><time>2012-04-30T14:59:45.0000000+00:00</time></trkpt><trkpt lat="42.896507" lon="19.637999"><ele>1797.8</ele><time>2012-04-30T14:59:50.0000000+00:00</time></trkpt><trkpt lat="42.896507" lon="19.638054"><ele>1799.3</ele><time>2012-04-30T14:59:55.0000000+00:00</time></trkpt><trkpt lat="42.89653" lon="19.638102"><ele>1800.5</ele><time>2012-04-30T15:00:00.0000000+00:00</time></trkpt><trkpt lat="42.896534" lon="19.638144"><ele>1801.9</ele><time>2012-04-30T15:00:05.0000000+00:00</time></trkpt><trkpt lat="42.896523" lon="19.638178"><ele>1802.2</ele><time>2012-04-30T15:00:10.0000000+00:00</time></trkpt><trkpt lat="42.896519" lon="19.638166"><ele>1802.1</ele><time>2012-04-30T15:00:15.0000000+00:00</time></trkpt><trkpt lat="42.896526" lon="19.638206"><ele>1802.9</ele><time>2012-04-30T15:00:20.0000000+00:00</time></trkpt><trkpt lat="42.896519" lon="19.638256"><ele>1803.6</ele><time>2012-04-30T15:00:25.0000000+00:00</time></trkpt><trkpt lat="42.896519" lon="19.638292"><ele>1805.0</ele><time>2012-04-30T15:00:30.0000000+00:00</time></trkpt><trkpt lat="42.896503" lon="19.638334"><ele>1806.7</ele><time>2012-04-30T15:00:35.0000000+00:00</time></trkpt><trkpt lat="42.896503" lon="19.638369"><ele>1807.1</ele><time>2012-04-30T15:00:40.0000000+00:00</time></trkpt><trkpt lat="42.896523" lon="19.638393"><ele>1808.2</ele><time>2012-04-30T15:00:45.0000000+00:00</time></trkpt><trkpt lat="42.896545" lon="19.638437"><ele>1809.8</ele><time>2012-04-30T15:00:50.0000000+00:00</time></trkpt><trkpt lat="42.89653" lon="19.638479"><ele>1811.3</ele><time>2012-04-30T15:00:55.0000000+00:00</time></trkpt><trkpt lat="42.896538" lon="19.638521"><ele>1812.5</ele><time>2012-04-30T15:01:00.0000000+00:00</time></trkpt><trkpt lat="42.896526" lon="19.638548"><ele>1813.4</ele><time>2012-04-30T15:01:05.0000000+00:00</time></trkpt><trkpt lat="42.896511" lon="19.638544"><ele>1813.5</ele><time>2012-04-30T15:01:10.0000000+00:00</time></trkpt><trkpt lat="42.896511" lon="19.638544"><ele>1813.8</ele><time>2012-04-30T15:01:15.0000000+00:00</time></trkpt><trkpt lat="42.896507" lon="19.638544"><ele>1813.8</ele><time>2012-04-30T15:01:20.0000000+00:00</time></trkpt><trkpt lat="42.896511" lon="19.638544"><ele>1813.8</ele><time>2012-04-30T15:01:25.0000000+00:00</time></trkpt><trkpt lat="42.896511" lon="19.638544"><ele>1813.8</ele><time>2012-04-30T15:01:30.0000000+00:00</time></trkpt><trkpt lat="42.896511" lon="19.638544"><ele>1813.8</ele><time>2012-04-30T15:01:35.0000000+00:00</time></trkpt><trkpt lat="42.896511" lon="19.638544"><ele>1813.8</ele><time>2012-04-30T15:01:40.0000000+00:00</time></trkpt><trkpt lat="42.896511" lon="19.638544"><ele>1813.8</ele><time>2012-04-30T15:01:45.0000000+00:00</time></trkpt><trkpt lat="42.896511" lon="19.638544"><ele>1813.8</ele><time>2012-04-30T15:01:50.0000000+00:00</time></trkpt><trkpt lat="42.896511" lon="19.638544"><ele>1813.8</ele><time>2012-04-30T15:01:55.0000000+00:00</time></trkpt><trkpt lat="42.896511" lon="19.638544"><ele>1813.8</ele><time>2012-04-30T15:02:00.0000000+00:00</time></trkpt><trkpt lat="42.896511" lon="19.638544"><ele>1813.8</ele><time>2012-04-30T15:02:05.0000000+00:00</time></trkpt><trkpt lat="42.896523" lon="19.638575"><ele>1813.7</ele><time>2012-04-30T15:02:10.0000000+00:00</time></trkpt><trkpt lat="42.896542" lon="19.638615"><ele>1812.6</ele><time>2012-04-30T15:02:15.0000000+00:00</time></trkpt><trkpt lat="42.896542" lon="19.638662"><ele>1811.9</ele><time>2012-04-30T15:02:20.0000000+00:00</time></trkpt><trkpt lat="42.896538" lon="19.638727"><ele>1811.1</ele><time>2012-04-30T15:02:25.0000000+00:00</time></trkpt><trkpt lat="42.89653" lon="19.638765"><ele>1810.5</ele><time>2012-04-30T15:02:30.0000000+00:00</time></trkpt><trkpt lat="42.896553" lon="19.638807"><ele>1809.8</ele><time>2012-04-30T15:02:35.0000000+00:00</time></trkpt><trkpt lat="42.896557" lon="19.63884"><ele>1809.6</ele><time>2012-04-30T15:02:40.0000000+00:00</time></trkpt><trkpt lat="42.896557" lon="19.638874"><ele>1809.6</ele><time>2012-04-30T15:02:45.0000000+00:00</time></trkpt><trkpt lat="42.896561" lon="19.638912"><ele>1810.2</ele><time>2012-04-30T15:02:50.0000000+00:00</time></trkpt><trkpt lat="42.896557" lon="19.638952"><ele>1811.2</ele><time>2012-04-30T15:02:55.0000000+00:00</time></trkpt><trkpt lat="42.896564" lon="19.638952"><ele>1811.5</ele><time>2012-04-30T15:03:00.0000000+00:00</time></trkpt><trkpt lat="42.896564" lon="19.638952"><ele>1811.5</ele><time>2012-04-30T15:03:05.0000000+00:00</time></trkpt><trkpt lat="42.896568" lon="19.638985"><ele>1811.4</ele><time>2012-04-30T15:03:10.0000000+00:00</time></trkpt><trkpt lat="42.896553" lon="19.639019"><ele>1811.8</ele><time>2012-04-30T15:03:15.0000000+00:00</time></trkpt><trkpt lat="42.896542" lon="19.639059"><ele>1813.0</ele><time>2012-04-30T15:03:20.0000000+00:00</time></trkpt><trkpt lat="42.896526" lon="19.639086"><ele>1813.6</ele><time>2012-04-30T15:03:25.0000000+00:00</time></trkpt><trkpt lat="42.896526" lon="19.63912"><ele>1814.1</ele><time>2012-04-30T15:03:30.0000000+00:00</time></trkpt><trkpt lat="42.896519" lon="19.639158"><ele>1814.8</ele><time>2012-04-30T15:03:35.0000000+00:00</time></trkpt><trkpt lat="42.896515" lon="19.639191"><ele>1815.5</ele><time>2012-04-30T15:03:40.0000000+00:00</time></trkpt><trkpt lat="42.896523" lon="19.639225"><ele>1815.9</ele><time>2012-04-30T15:03:45.0000000+00:00</time></trkpt><trkpt lat="42.896515" lon="19.639236"><ele>1816.5</ele><time>2012-04-30T15:03:50.0000000+00:00</time></trkpt><trkpt lat="42.896515" lon="19.639269"><ele>1816.3</ele><time>2012-04-30T15:03:55.0000000+00:00</time></trkpt><trkpt lat="42.896515" lon="19.639299"><ele>1816.5</ele><time>2012-04-30T15:04:00.0000000+00:00</time></trkpt><trkpt lat="42.8965" lon="19.639322"><ele>1817.6</ele><time>2012-04-30T15:04:05.0000000+00:00</time></trkpt><trkpt lat="42.896492" lon="19.63932"><ele>1818.3</ele><time>2012-04-30T15:04:10.0000000+00:00</time></trkpt><trkpt lat="42.896492" lon="19.63932"><ele>1818.2</ele><time>2012-04-30T15:04:15.0000000+00:00</time></trkpt><trkpt lat="42.896492" lon="19.63932"><ele>1818.3</ele><time>2012-04-30T15:04:20.0000000+00:00</time></trkpt><trkpt lat="42.896492" lon="19.63932"><ele>1818.3</ele><time>2012-04-30T15:04:25.0000000+00:00</time></trkpt><trkpt lat="42.896492" lon="19.639336"><ele>1818.7</ele><time>2012-04-30T15:04:30.0000000+00:00</time></trkpt><trkpt lat="42.896492" lon="19.639372"><ele>1819.3</ele><time>2012-04-30T15:04:35.0000000+00:00</time></trkpt><trkpt lat="42.896488" lon="19.6394"><ele>1820.6</ele><time>2012-04-30T15:04:40.0000000+00:00</time></trkpt><trkpt lat="42.8965" lon="19.639431"><ele>1821.7</ele><time>2012-04-30T15:04:45.0000000+00:00</time></trkpt><trkpt lat="42.896496" lon="19.639448"><ele>1822.5</ele><time>2012-04-30T15:04:50.0000000+00:00</time></trkpt><trkpt lat="42.896496" lon="19.639465"><ele>1823.0</ele><time>2012-04-30T15:04:55.0000000+00:00</time></trkpt><trkpt lat="42.8965" lon="19.639488"><ele>1823.3</ele><time>2012-04-30T15:05:00.0000000+00:00</time></trkpt><trkpt lat="42.896519" lon="19.639523"><ele>1823.4</ele><time>2012-04-30T15:05:05.0000000+00:00</time></trkpt><trkpt lat="42.896519" lon="19.639555"><ele>1823.8</ele><time>2012-04-30T15:05:10.0000000+00:00</time></trkpt><trkpt lat="42.896515" lon="19.639565"><ele>1823.8</ele><time>2012-04-30T15:05:15.0000000+00:00</time></trkpt><trkpt lat="42.896507" lon="19.639599"><ele>1824.3</ele><time>2012-04-30T15:05:20.0000000+00:00</time></trkpt><trkpt lat="42.8965" lon="19.639633"><ele>1824.3</ele><time>2012-04-30T15:05:25.0000000+00:00</time></trkpt><trkpt lat="42.896492" lon="19.639668"><ele>1824.7</ele><time>2012-04-30T15:05:30.0000000+00:00</time></trkpt><trkpt lat="42.896484" lon="19.639694"><ele>1824.8</ele><time>2012-04-30T15:05:35.0000000+00:00</time></trkpt><trkpt lat="42.896481" lon="19.639723"><ele>1825.0</ele><time>2012-04-30T15:05:40.0000000+00:00</time></trkpt><trkpt lat="42.896481" lon="19.639746"><ele>1825.0</ele><time>2012-04-30T15:05:45.0000000+00:00</time></trkpt><trkpt lat="42.896473" lon="19.639761"><ele>1825.1</ele><time>2012-04-30T15:05:50.0000000+00:00</time></trkpt><trkpt lat="42.896461" lon="19.639799"><ele>1824.7</ele><time>2012-04-30T15:05:55.0000000+00:00</time></trkpt><trkpt lat="42.896461" lon="19.639853"><ele>1825.4</ele><time>2012-04-30T15:06:00.0000000+00:00</time></trkpt><trkpt lat="42.896461" lon="19.639883"><ele>1826.5</ele><time>2012-04-30T15:06:05.0000000+00:00</time></trkpt><trkpt lat="42.896477" lon="19.639917"><ele>1827.5</ele><time>2012-04-30T15:06:10.0000000+00:00</time></trkpt><trkpt lat="42.896484" lon="19.639925"><ele>1828.0</ele><time>2012-04-30T15:06:15.0000000+00:00</time></trkpt><trkpt lat="42.896507" lon="19.639944"><ele>1829.8</ele><time>2012-04-30T15:06:20.0000000+00:00</time></trkpt><trkpt lat="42.89653" lon="19.639948"><ele>1830.1</ele><time>2012-04-30T15:06:25.0000000+00:00</time></trkpt><trkpt lat="42.89653" lon="19.639948"><ele>1828.3</ele><time>2012-04-30T15:06:30.0000000+00:00</time></trkpt><trkpt lat="42.896526" lon="19.639942"><ele>1828.3</ele><time>2012-04-30T15:06:35.0000000+00:00</time></trkpt><trkpt lat="42.896526" lon="19.639942"><ele>1828.3</ele><time>2012-04-30T15:06:40.0000000+00:00</time></trkpt><trkpt lat="42.896526" lon="19.639942"><ele>1828.3</ele><time>2012-04-30T15:06:45.0000000+00:00</time></trkpt><trkpt lat="42.896526" lon="19.639942"><ele>1828.3</ele><time>2012-04-30T15:06:50.0000000+00:00</time></trkpt><trkpt lat="42.896526" lon="19.639942"><ele>1828.3</ele><time>2012-04-30T15:06:55.0000000+00:00</time></trkpt><trkpt lat="42.896526" lon="19.639942"><ele>1828.3</ele><time>2012-04-30T15:07:00.0000000+00:00</time></trkpt><trkpt lat="42.896526" lon="19.639942"><ele>1828.3</ele><time>2012-04-30T15:07:05.0000000+00:00</time></trkpt><trkpt lat="42.896526" lon="19.639942"><ele>1828.3</ele><time>2012-04-30T15:07:10.0000000+00:00</time></trkpt><trkpt lat="42.896526" lon="19.63994"><ele>1828.3</ele><time>2012-04-30T15:07:15.0000000+00:00</time></trkpt><trkpt lat="42.896526" lon="19.63994"><ele>1828.3</ele><time>2012-04-30T15:07:20.0000000+00:00</time></trkpt><trkpt lat="42.896526" lon="19.639942"><ele>1828.3</ele><time>2012-04-30T15:07:25.0000000+00:00</time></trkpt><trkpt lat="42.89653" lon="19.639942"><ele>1828.3</ele><time>2012-04-30T15:07:30.0000000+00:00</time></trkpt><trkpt lat="42.896534" lon="19.639942"><ele>1828.3</ele><time>2012-04-30T15:07:35.0000000+00:00</time></trkpt><trkpt lat="42.896534" lon="19.63994"><ele>1828.3</ele><time>2012-04-30T15:07:40.0000000+00:00</time></trkpt><trkpt lat="42.896538" lon="19.63994"><ele>1828.4</ele><time>2012-04-30T15:07:45.0000000+00:00</time></trkpt><trkpt lat="42.896538" lon="19.639936"><ele>1828.4</ele><time>2012-04-30T15:07:50.0000000+00:00</time></trkpt><trkpt lat="42.896542" lon="19.639936"><ele>1828.4</ele><time>2012-04-30T15:07:55.0000000+00:00</time></trkpt><trkpt lat="42.896545" lon="19.639936"><ele>1828.4</ele><time>2012-04-30T15:08:00.0000000+00:00</time></trkpt><trkpt lat="42.896549" lon="19.639933"><ele>1828.4</ele><time>2012-04-30T15:08:05.0000000+00:00</time></trkpt><trkpt lat="42.896557" lon="19.639929"><ele>1828.5</ele><time>2012-04-30T15:08:10.0000000+00:00</time></trkpt><trkpt lat="42.896564" lon="19.639923"><ele>1828.5</ele><time>2012-04-30T15:08:15.0000000+00:00</time></trkpt><trkpt lat="42.896576" lon="19.63991"><ele>1828.5</ele><time>2012-04-30T15:08:20.0000000+00:00</time></trkpt><trkpt lat="42.896587" lon="19.639893"><ele>1828.5</ele><time>2012-04-30T15:08:25.0000000+00:00</time></trkpt><trkpt lat="42.896599" lon="19.639883"><ele>1828.7</ele><time>2012-04-30T15:08:30.0000000+00:00</time></trkpt><trkpt lat="42.896599" lon="19.639875"><ele>1828.8</ele><time>2012-04-30T15:08:35.0000000+00:00</time></trkpt><trkpt lat="42.896606" lon="19.639881"><ele>1829.1</ele><time>2012-04-30T15:08:40.0000000+00:00</time></trkpt><trkpt lat="42.89661" lon="19.639881"><ele>1829.3</ele><time>2012-04-30T15:08:45.0000000+00:00</time></trkpt><trkpt lat="42.896622" lon="19.639879"><ele>1829.4</ele><time>2012-04-30T15:08:50.0000000+00:00</time></trkpt><trkpt lat="42.896626" lon="19.639885"><ele>1829.6</ele><time>2012-04-30T15:08:55.0000000+00:00</time></trkpt><trkpt lat="42.896629" lon="19.639894"><ele>1829.8</ele><time>2012-04-30T15:09:00.0000000+00:00</time></trkpt><trkpt lat="42.896633" lon="19.6399"><ele>1830.1</ele><time>2012-04-30T15:09:05.0000000+00:00</time></trkpt><trkpt lat="42.896629" lon="19.639908"><ele>1830.4</ele><time>2012-04-30T15:09:10.0000000+00:00</time></trkpt><trkpt lat="42.896626" lon="19.639912"><ele>1830.7</ele><time>2012-04-30T15:09:15.0000000+00:00</time></trkpt><trkpt lat="42.896626" lon="19.639912"><ele>1831.0</ele><time>2012-04-30T15:09:20.0000000+00:00</time></trkpt><trkpt lat="42.896626" lon="19.639912"><ele>1831.3</ele><time>2012-04-30T15:09:25.0000000+00:00</time></trkpt><trkpt lat="42.896626" lon="19.639912"><ele>1831.3</ele><time>2012-04-30T15:09:30.0000000+00:00</time></trkpt><trkpt lat="42.896622" lon="19.639912"><ele>1831.3</ele><time>2012-04-30T15:09:35.0000000+00:00</time></trkpt><trkpt lat="42.896622" lon="19.639914"><ele>1831.4</ele><time>2012-04-30T15:09:40.0000000+00:00</time></trkpt><trkpt lat="42.896614" lon="19.639914"><ele>1831.4</ele><time>2012-04-30T15:09:45.0000000+00:00</time></trkpt><trkpt lat="42.89661" lon="19.639912"><ele>1831.4</ele><time>2012-04-30T15:09:50.0000000+00:00</time></trkpt><trkpt lat="42.896606" lon="19.639912"><ele>1831.4</ele><time>2012-04-30T15:09:55.0000000+00:00</time></trkpt><trkpt lat="42.896606" lon="19.639914"><ele>1831.4</ele><time>2012-04-30T15:10:00.0000000+00:00</time></trkpt><trkpt lat="42.896599" lon="19.639914"><ele>1831.3</ele><time>2012-04-30T15:10:05.0000000+00:00</time></trkpt><trkpt lat="42.896591" lon="19.639914"><ele>1831.2</ele><time>2012-04-30T15:10:10.0000000+00:00</time></trkpt><trkpt lat="42.896584" lon="19.63991"><ele>1831.1</ele><time>2012-04-30T15:10:15.0000000+00:00</time></trkpt><trkpt lat="42.896576" lon="19.639906"><ele>1831.0</ele><time>2012-04-30T15:10:20.0000000+00:00</time></trkpt><trkpt lat="42.896568" lon="19.639902"><ele>1830.9</ele><time>2012-04-30T15:10:25.0000000+00:00</time></trkpt><trkpt lat="42.896568" lon="19.639906"><ele>1830.7</ele><time>2012-04-30T15:10:30.0000000+00:00</time></trkpt><trkpt lat="42.896572" lon="19.639902"><ele>1830.8</ele><time>2012-04-30T15:10:35.0000000+00:00</time></trkpt><trkpt lat="42.896576" lon="19.639902"><ele>1830.7</ele><time>2012-04-30T15:10:40.0000000+00:00</time></trkpt><trkpt lat="42.896576" lon="19.639904"><ele>1830.7</ele><time>2012-04-30T15:10:45.0000000+00:00</time></trkpt><trkpt lat="42.896576" lon="19.639902"><ele>1830.9</ele><time>2012-04-30T15:10:50.0000000+00:00</time></trkpt><trkpt lat="42.896576" lon="19.639902"><ele>1830.9</ele><time>2012-04-30T15:10:55.0000000+00:00</time></trkpt><trkpt lat="42.896572" lon="19.639902"><ele>1830.7</ele><time>2012-04-30T15:11:00.0000000+00:00</time></trkpt><trkpt lat="42.896572" lon="19.6399"><ele>1830.9</ele><time>2012-04-30T15:11:05.0000000+00:00</time></trkpt><trkpt lat="42.896557" lon="19.639912"><ele>1830.5</ele><time>2012-04-30T15:11:10.0000000+00:00</time></trkpt><trkpt lat="42.896549" lon="19.639923"><ele>1830.5</ele><time>2012-04-30T15:11:15.0000000+00:00</time></trkpt><trkpt lat="42.896534" lon="19.639973"><ele>1831.1</ele><time>2012-04-30T15:11:20.0000000+00:00</time></trkpt><trkpt lat="42.896515" lon="19.639986"><ele>1831.5</ele><time>2012-04-30T15:11:25.0000000+00:00</time></trkpt><trkpt lat="42.896511" lon="19.639982"><ele>1831.0</ele><time>2012-04-30T15:11:30.0000000+00:00</time></trkpt><trkpt lat="42.896511" lon="19.63998"><ele>1830.9</ele><time>2012-04-30T15:11:35.0000000+00:00</time></trkpt><trkpt lat="42.896507" lon="19.63998"><ele>1831.0</ele><time>2012-04-30T15:11:40.0000000+00:00</time></trkpt><trkpt lat="42.896507" lon="19.63998"><ele>1831.0</ele><time>2012-04-30T15:11:45.0000000+00:00</time></trkpt><trkpt lat="42.896507" lon="19.63998"><ele>1831.0</ele><time>2012-04-30T15:11:50.0000000+00:00</time></trkpt><trkpt lat="42.896492" lon="19.640034"><ele>1831.5</ele><time>2012-04-30T15:11:55.0000000+00:00</time></trkpt><trkpt lat="42.896473" lon="19.6401"><ele>1833.6</ele><time>2012-04-30T15:12:00.0000000+00:00</time></trkpt><trkpt lat="42.896465" lon="19.640158"><ele>1834.6</ele><time>2012-04-30T15:12:05.0000000+00:00</time></trkpt><trkpt lat="42.896446" lon="19.640209"><ele>1836.3</ele><time>2012-04-30T15:12:10.0000000+00:00</time></trkpt><trkpt lat="42.896412" lon="19.640259"><ele>1837.9</ele><time>2012-04-30T15:12:15.0000000+00:00</time></trkpt><trkpt lat="42.896389" lon="19.640289"><ele>1837.9</ele><time>2012-04-30T15:12:20.0000000+00:00</time></trkpt><trkpt lat="42.896366" lon="19.640305"><ele>1838.6</ele><time>2012-04-30T15:12:25.0000000+00:00</time></trkpt><trkpt lat="42.896347" lon="19.640347"><ele>1839.7</ele><time>2012-04-30T15:12:30.0000000+00:00</time></trkpt><trkpt lat="42.896324" lon="19.640392"><ele>1840.2</ele><time>2012-04-30T15:12:35.0000000+00:00</time></trkpt><trkpt lat="42.896309" lon="19.64044"><ele>1839.3</ele><time>2012-04-30T15:12:40.0000000+00:00</time></trkpt><trkpt lat="42.896297" lon="19.640478"><ele>1839.7</ele><time>2012-04-30T15:12:45.0000000+00:00</time></trkpt><trkpt lat="42.896297" lon="19.640524"><ele>1839.4</ele><time>2012-04-30T15:12:50.0000000+00:00</time></trkpt><trkpt lat="42.896278" lon="19.640551"><ele>1840.1</ele><time>2012-04-30T15:12:55.0000000+00:00</time></trkpt><trkpt lat="42.896267" lon="19.640577"><ele>1841.5</ele><time>2012-04-30T15:13:00.0000000+00:00</time></trkpt><trkpt lat="42.896252" lon="19.640612"><ele>1842.3</ele><time>2012-04-30T15:13:05.0000000+00:00</time></trkpt><trkpt lat="42.89624" lon="19.640654"><ele>1842.9</ele><time>2012-04-30T15:13:10.0000000+00:00</time></trkpt><trkpt lat="42.896233" lon="19.640675"><ele>1843.0</ele><time>2012-04-30T15:13:15.0000000+00:00</time></trkpt><trkpt lat="42.896225" lon="19.640667"><ele>1843.4</ele><time>2012-04-30T15:13:20.0000000+00:00</time></trkpt><trkpt lat="42.89621" lon="19.640718"><ele>1844.8</ele><time>2012-04-30T15:13:25.0000000+00:00</time></trkpt><trkpt lat="42.896202" lon="19.640772"><ele>1845.5</ele><time>2012-04-30T15:13:30.0000000+00:00</time></trkpt><trkpt lat="42.896191" lon="19.640816"><ele>1847.9</ele><time>2012-04-30T15:13:35.0000000+00:00</time></trkpt><trkpt lat="42.896179" lon="19.640865"><ele>1849.5</ele><time>2012-04-30T15:13:40.0000000+00:00</time></trkpt><trkpt lat="42.896168" lon="19.640884"><ele>1850.3</ele><time>2012-04-30T15:13:45.0000000+00:00</time></trkpt><trkpt lat="42.89616" lon="19.640902"><ele>1849.1</ele><time>2012-04-30T15:13:50.0000000+00:00</time></trkpt><trkpt lat="42.896145" lon="19.640934"><ele>1849.6</ele><time>2012-04-30T15:13:55.0000000+00:00</time></trkpt><trkpt lat="42.896126" lon="19.64097"><ele>1850.1</ele><time>2012-04-30T15:14:00.0000000+00:00</time></trkpt><trkpt lat="42.896114" lon="19.641016"><ele>1851.6</ele><time>2012-04-30T15:14:05.0000000+00:00</time></trkpt><trkpt lat="42.896103" lon="19.641043"><ele>1852.5</ele><time>2012-04-30T15:14:10.0000000+00:00</time></trkpt><trkpt lat="42.896076" lon="19.641071"><ele>1852.5</ele><time>2012-04-30T15:14:15.0000000+00:00</time></trkpt><trkpt lat="42.896065" lon="19.641098"><ele>1852.4</ele><time>2012-04-30T15:14:20.0000000+00:00</time></trkpt><trkpt lat="42.896049" lon="19.641132"><ele>1852.5</ele><time>2012-04-30T15:14:25.0000000+00:00</time></trkpt><trkpt lat="42.896019" lon="19.641172"><ele>1852.6</ele><time>2012-04-30T15:14:30.0000000+00:00</time></trkpt><trkpt lat="42.896" lon="19.641199"><ele>1852.9</ele><time>2012-04-30T15:14:35.0000000+00:00</time></trkpt><trkpt lat="42.895981" lon="19.641233"><ele>1853.2</ele><time>2012-04-30T15:14:40.0000000+00:00</time></trkpt><trkpt lat="42.895966" lon="19.64126"><ele>1854.1</ele><time>2012-04-30T15:14:45.0000000+00:00</time></trkpt><trkpt lat="42.895947" lon="19.641283"><ele>1854.3</ele><time>2012-04-30T15:14:50.0000000+00:00</time></trkpt><trkpt lat="42.895931" lon="19.641273"><ele>1853.9</ele><time>2012-04-30T15:14:55.0000000+00:00</time></trkpt><trkpt lat="42.895939" lon="19.64127"><ele>1853.3</ele><time>2012-04-30T15:15:00.0000000+00:00</time></trkpt><trkpt lat="42.895916" lon="19.641302"><ele>1852.6</ele><time>2012-04-30T15:15:05.0000000+00:00</time></trkpt><trkpt lat="42.895897" lon="19.641325"><ele>1852.3</ele><time>2012-04-30T15:15:10.0000000+00:00</time></trkpt><trkpt lat="42.895878" lon="19.641375"><ele>1852.3</ele><time>2012-04-30T15:15:15.0000000+00:00</time></trkpt><trkpt lat="42.895851" lon="19.641417"><ele>1852.1</ele><time>2012-04-30T15:15:20.0000000+00:00</time></trkpt><trkpt lat="42.895828" lon="19.641438"><ele>1852.1</ele><time>2012-04-30T15:15:25.0000000+00:00</time></trkpt><trkpt lat="42.89579" lon="19.641434"><ele>1852.8</ele><time>2012-04-30T15:15:30.0000000+00:00</time></trkpt><trkpt lat="42.895763" lon="19.641441"><ele>1853.0</ele><time>2012-04-30T15:15:35.0000000+00:00</time></trkpt><trkpt lat="42.895763" lon="19.641432"><ele>1853.3</ele><time>2012-04-30T15:15:40.0000000+00:00</time></trkpt><trkpt lat="42.895763" lon="19.641434"><ele>1853.5</ele><time>2012-04-30T15:15:45.0000000+00:00</time></trkpt><trkpt lat="42.895763" lon="19.64143"><ele>1853.2</ele><time>2012-04-30T15:15:50.0000000+00:00</time></trkpt><trkpt lat="42.895721" lon="19.641462"><ele>1853.8</ele><time>2012-04-30T15:15:55.0000000+00:00</time></trkpt><trkpt lat="42.895676" lon="19.641516"><ele>1854.2</ele><time>2012-04-30T15:16:00.0000000+00:00</time></trkpt><trkpt lat="42.89563" lon="19.641563"><ele>1854.7</ele><time>2012-04-30T15:16:05.0000000+00:00</time></trkpt><trkpt lat="42.895592" lon="19.641588"><ele>1855.0</ele><time>2012-04-30T15:16:10.0000000+00:00</time></trkpt><trkpt lat="42.895565" lon="19.641632"><ele>1854.6</ele><time>2012-04-30T15:16:15.0000000+00:00</time></trkpt><trkpt lat="42.895573" lon="19.64167"><ele>1854.6</ele><time>2012-04-30T15:16:20.0000000+00:00</time></trkpt><trkpt lat="42.895576" lon="19.641668"><ele>1854.2</ele><time>2012-04-30T15:16:25.0000000+00:00</time></trkpt><trkpt lat="42.89558" lon="19.641731"><ele>1855.5</ele><time>2012-04-30T15:16:30.0000000+00:00</time></trkpt><trkpt lat="42.89558" lon="19.641788"><ele>1856.9</ele><time>2012-04-30T15:16:35.0000000+00:00</time></trkpt><trkpt lat="42.895596" lon="19.64185"><ele>1857.7</ele><time>2012-04-30T15:16:40.0000000+00:00</time></trkpt><trkpt lat="42.895596" lon="19.641895"><ele>1859.0</ele><time>2012-04-30T15:16:45.0000000+00:00</time></trkpt><trkpt lat="42.895599" lon="19.641882"><ele>1859.0</ele><time>2012-04-30T15:16:50.0000000+00:00</time></trkpt><trkpt lat="42.895603" lon="19.641895"><ele>1859.6</ele><time>2012-04-30T15:16:55.0000000+00:00</time></trkpt><trkpt lat="42.89563" lon="19.641943"><ele>1861.3</ele><time>2012-04-30T15:17:00.0000000+00:00</time></trkpt><trkpt lat="42.895649" lon="19.641998"><ele>1861.4</ele><time>2012-04-30T15:17:05.0000000+00:00</time></trkpt><trkpt lat="42.895664" lon="19.642036"><ele>1862.2</ele><time>2012-04-30T15:17:10.0000000+00:00</time></trkpt><trkpt lat="42.895668" lon="19.642097"><ele>1863.0</ele><time>2012-04-30T15:17:15.0000000+00:00</time></trkpt><trkpt lat="42.895668" lon="19.642149"><ele>1863.6</ele><time>2012-04-30T15:17:20.0000000+00:00</time></trkpt><trkpt lat="42.895687" lon="19.642214"><ele>1864.8</ele><time>2012-04-30T15:17:25.0000000+00:00</time></trkpt><trkpt lat="42.89571" lon="19.642252"><ele>1867.7</ele><time>2012-04-30T15:17:30.0000000+00:00</time></trkpt><trkpt lat="42.895699" lon="19.642252"><ele>1868.4</ele><time>2012-04-30T15:17:35.0000000+00:00</time></trkpt><trkpt lat="42.895721" lon="19.642305"><ele>1869.7</ele><time>2012-04-30T15:17:40.0000000+00:00</time></trkpt><trkpt lat="42.895744" lon="19.642353"><ele>1870.5</ele><time>2012-04-30T15:17:45.0000000+00:00</time></trkpt><trkpt lat="42.895763" lon="19.642412"><ele>1870.2</ele><time>2012-04-30T15:17:50.0000000+00:00</time></trkpt><trkpt lat="42.895794" lon="19.642479"><ele>1870.1</ele><time>2012-04-30T15:17:55.0000000+00:00</time></trkpt><trkpt lat="42.895813" lon="19.642523"><ele>1870.8</ele><time>2012-04-30T15:18:00.0000000+00:00</time></trkpt><trkpt lat="42.895813" lon="19.642527"><ele>1871.1</ele><time>2012-04-30T15:18:05.0000000+00:00</time></trkpt><trkpt lat="42.895813" lon="19.642527"><ele>1871.2</ele><time>2012-04-30T15:18:10.0000000+00:00</time></trkpt><trkpt lat="42.895813" lon="19.642527"><ele>1871.4</ele><time>2012-04-30T15:18:15.0000000+00:00</time></trkpt><trkpt lat="42.895813" lon="19.642527"><ele>1871.4</ele><time>2012-04-30T15:18:20.0000000+00:00</time></trkpt><trkpt lat="42.895813" lon="19.642527"><ele>1871.3</ele><time>2012-04-30T15:18:25.0000000+00:00</time></trkpt><trkpt lat="42.895824" lon="19.642544"><ele>1871.0</ele><time>2012-04-30T15:18:30.0000000+00:00</time></trkpt><trkpt lat="42.895844" lon="19.642548"><ele>1870.6</ele><time>2012-04-30T15:18:35.0000000+00:00</time></trkpt><trkpt lat="42.89584" lon="19.642553"><ele>1870.6</ele><time>2012-04-30T15:18:40.0000000+00:00</time></trkpt><trkpt lat="42.89584" lon="19.642553"><ele>1870.7</ele><time>2012-04-30T15:18:45.0000000+00:00</time></trkpt><trkpt lat="42.89584" lon="19.642553"><ele>1870.7</ele><time>2012-04-30T15:18:50.0000000+00:00</time></trkpt><trkpt lat="42.89584" lon="19.642553"><ele>1870.7</ele><time>2012-04-30T15:18:55.0000000+00:00</time></trkpt><trkpt lat="42.89584" lon="19.642553"><ele>1870.7</ele><time>2012-04-30T15:19:00.0000000+00:00</time></trkpt><trkpt lat="42.89584" lon="19.642553"><ele>1870.6</ele><time>2012-04-30T15:19:05.0000000+00:00</time></trkpt><trkpt lat="42.89584" lon="19.642551"><ele>1870.6</ele><time>2012-04-30T15:19:10.0000000+00:00</time></trkpt><trkpt lat="42.89584" lon="19.642551"><ele>1870.5</ele><time>2012-04-30T15:19:15.0000000+00:00</time></trkpt><trkpt lat="42.89584" lon="19.642551"><ele>1870.5</ele><time>2012-04-30T15:19:20.0000000+00:00</time></trkpt><trkpt lat="42.89584" lon="19.642551"><ele>1870.5</ele><time>2012-04-30T15:19:25.0000000+00:00</time></trkpt><trkpt lat="42.89584" lon="19.642551"><ele>1870.5</ele><time>2012-04-30T15:19:30.0000000+00:00</time></trkpt><trkpt lat="42.89584" lon="19.642551"><ele>1870.5</ele><time>2012-04-30T15:19:35.0000000+00:00</time></trkpt><trkpt lat="42.89584" lon="19.642551"><ele>1870.5</ele><time>2012-04-30T15:19:40.0000000+00:00</time></trkpt><trkpt lat="42.89584" lon="19.642551"><ele>1870.5</ele><time>2012-04-30T15:19:45.0000000+00:00</time></trkpt><trkpt lat="42.89584" lon="19.642551"><ele>1870.5</ele><time>2012-04-30T15:19:50.0000000+00:00</time></trkpt><trkpt lat="42.89584" lon="19.64255"><ele>1870.5</ele><time>2012-04-30T15:19:55.0000000+00:00</time></trkpt><trkpt lat="42.89584" lon="19.64255"><ele>1870.4</ele><time>2012-04-30T15:20:00.0000000+00:00</time></trkpt><trkpt lat="42.89584" lon="19.64255"><ele>1870.4</ele><time>2012-04-30T15:20:05.0000000+00:00</time></trkpt><trkpt lat="42.89584" lon="19.64255"><ele>1870.4</ele><time>2012-04-30T15:20:10.0000000+00:00</time></trkpt><trkpt lat="42.895844" lon="19.64255"><ele>1870.4</ele><time>2012-04-30T15:20:15.0000000+00:00</time></trkpt><trkpt lat="42.895844" lon="19.64255"><ele>1870.4</ele><time>2012-04-30T15:20:20.0000000+00:00</time></trkpt><trkpt lat="42.895844" lon="19.64255"><ele>1870.4</ele><time>2012-04-30T15:20:25.0000000+00:00</time></trkpt><trkpt lat="42.895844" lon="19.64255"><ele>1870.4</ele><time>2012-04-30T15:20:30.0000000+00:00</time></trkpt><trkpt lat="42.895844" lon="19.642548"><ele>1870.4</ele><time>2012-04-30T15:20:35.0000000+00:00</time></trkpt><trkpt lat="42.895844" lon="19.642548"><ele>1870.4</ele><time>2012-04-30T15:20:40.0000000+00:00</time></trkpt><trkpt lat="42.895844" lon="19.642548"><ele>1870.3</ele><time>2012-04-30T15:20:45.0000000+00:00</time></trkpt><trkpt lat="42.895844" lon="19.642548"><ele>1870.3</ele><time>2012-04-30T15:20:50.0000000+00:00</time></trkpt><trkpt lat="42.895844" lon="19.642548"><ele>1870.3</ele><time>2012-04-30T15:20:55.0000000+00:00</time></trkpt><trkpt lat="42.895844" lon="19.642548"><ele>1870.3</ele><time>2012-04-30T15:21:00.0000000+00:00</time></trkpt><trkpt lat="42.895844" lon="19.642548"><ele>1870.3</ele><time>2012-04-30T15:21:05.0000000+00:00</time></trkpt><trkpt lat="42.895844" lon="19.642548"><ele>1870.3</ele><time>2012-04-30T15:21:10.0000000+00:00</time></trkpt><trkpt lat="42.895844" lon="19.642546"><ele>1870.3</ele><time>2012-04-30T15:21:15.0000000+00:00</time></trkpt><trkpt lat="42.895844" lon="19.642546"><ele>1870.2</ele><time>2012-04-30T15:21:20.0000000+00:00</time></trkpt><trkpt lat="42.895844" lon="19.642546"><ele>1870.2</ele><time>2012-04-30T15:21:25.0000000+00:00</time></trkpt><trkpt lat="42.895844" lon="19.642546"><ele>1870.2</ele><time>2012-04-30T15:21:30.0000000+00:00</time></trkpt><trkpt lat="42.895844" lon="19.642546"><ele>1870.2</ele><time>2012-04-30T15:21:35.0000000+00:00</time></trkpt><trkpt lat="42.895844" lon="19.642546"><ele>1870.2</ele><time>2012-04-30T15:21:40.0000000+00:00</time></trkpt><trkpt lat="42.895844" lon="19.642546"><ele>1870.1</ele><time>2012-04-30T15:21:45.0000000+00:00</time></trkpt><trkpt lat="42.895844" lon="19.642546"><ele>1870.1</ele><time>2012-04-30T15:21:50.0000000+00:00</time></trkpt><trkpt lat="42.895847" lon="19.642544"><ele>1869.1</ele><time>2012-04-30T15:21:55.0000000+00:00</time></trkpt><trkpt lat="42.895847" lon="19.642542"><ele>1868.6</ele><time>2012-04-30T15:22:00.0000000+00:00</time></trkpt><trkpt lat="42.895847" lon="19.642542"><ele>1868.6</ele><time>2012-04-30T15:22:05.0000000+00:00</time></trkpt><trkpt lat="42.895847" lon="19.642542"><ele>1868.6</ele><time>2012-04-30T15:22:10.0000000+00:00</time></trkpt><trkpt lat="42.895847" lon="19.642542"><ele>1868.6</ele><time>2012-04-30T15:22:15.0000000+00:00</time></trkpt><trkpt lat="42.895847" lon="19.642542"><ele>1868.6</ele><time>2012-04-30T15:22:20.0000000+00:00</time></trkpt><trkpt lat="42.895847" lon="19.642542"><ele>1868.5</ele><time>2012-04-30T15:22:25.0000000+00:00</time></trkpt><trkpt lat="42.895847" lon="19.642542"><ele>1868.5</ele><time>2012-04-30T15:22:30.0000000+00:00</time></trkpt><trkpt lat="42.895847" lon="19.642542"><ele>1868.5</ele><time>2012-04-30T15:22:35.0000000+00:00</time></trkpt><trkpt lat="42.895847" lon="19.64254"><ele>1868.5</ele><time>2012-04-30T15:22:40.0000000+00:00</time></trkpt><trkpt lat="42.895847" lon="19.64254"><ele>1868.5</ele><time>2012-04-30T15:22:45.0000000+00:00</time></trkpt><trkpt lat="42.895847" lon="19.64254"><ele>1868.5</ele><time>2012-04-30T15:22:50.0000000+00:00</time></trkpt><trkpt lat="42.895847" lon="19.64254"><ele>1868.5</ele><time>2012-04-30T15:22:55.0000000+00:00</time></trkpt><trkpt lat="42.895847" lon="19.64254"><ele>1868.5</ele><time>2012-04-30T15:23:00.0000000+00:00</time></trkpt><trkpt lat="42.895847" lon="19.64254"><ele>1868.5</ele><time>2012-04-30T15:23:05.0000000+00:00</time></trkpt><trkpt lat="42.895847" lon="19.64254"><ele>1868.4</ele><time>2012-04-30T15:23:10.0000000+00:00</time></trkpt><trkpt lat="42.895847" lon="19.64254"><ele>1868.4</ele><time>2012-04-30T15:23:15.0000000+00:00</time></trkpt><trkpt lat="42.895847" lon="19.64254"><ele>1868.4</ele><time>2012-04-30T15:23:20.0000000+00:00</time></trkpt><trkpt lat="42.895847" lon="19.64254"><ele>1868.4</ele><time>2012-04-30T15:23:25.0000000+00:00</time></trkpt><trkpt lat="42.895847" lon="19.64254"><ele>1868.4</ele><time>2012-04-30T15:23:30.0000000+00:00</time></trkpt><trkpt lat="42.895847" lon="19.642538"><ele>1868.3</ele><time>2012-04-30T15:23:35.0000000+00:00</time></trkpt><trkpt lat="42.895847" lon="19.642538"><ele>1868.3</ele><time>2012-04-30T15:23:40.0000000+00:00</time></trkpt><trkpt lat="42.895847" lon="19.642538"><ele>1868.3</ele><time>2012-04-30T15:23:45.0000000+00:00</time></trkpt><trkpt lat="42.895847" lon="19.642538"><ele>1868.3</ele><time>2012-04-30T15:23:50.0000000+00:00</time></trkpt><trkpt lat="42.895847" lon="19.642538"><ele>1868.3</ele><time>2012-04-30T15:23:55.0000000+00:00</time></trkpt><trkpt lat="42.895847" lon="19.642538"><ele>1868.3</ele><time>2012-04-30T15:24:00.0000000+00:00</time></trkpt><trkpt lat="42.895847" lon="19.642538"><ele>1868.2</ele><time>2012-04-30T15:24:05.0000000+00:00</time></trkpt><trkpt lat="42.895847" lon="19.642538"><ele>1868.2</ele><time>2012-04-30T15:24:10.0000000+00:00</time></trkpt><trkpt lat="42.895847" lon="19.642538"><ele>1868.2</ele><time>2012-04-30T15:24:15.0000000+00:00</time></trkpt><trkpt lat="42.895847" lon="19.642538"><ele>1868.2</ele><time>2012-04-30T15:24:20.0000000+00:00</time></trkpt><trkpt lat="42.895847" lon="19.642538"><ele>1868.2</ele><time>2012-04-30T15:24:25.0000000+00:00</time></trkpt><trkpt lat="42.895847" lon="19.642538"><ele>1868.1</ele><time>2012-04-30T15:24:30.0000000+00:00</time></trkpt><trkpt lat="42.895847" lon="19.642538"><ele>1868.1</ele><time>2012-04-30T15:24:35.0000000+00:00</time></trkpt><trkpt lat="42.895847" lon="19.642536"><ele>1868.1</ele><time>2012-04-30T15:24:40.0000000+00:00</time></trkpt><trkpt lat="42.895847" lon="19.642536"><ele>1868.1</ele><time>2012-04-30T15:24:45.0000000+00:00</time></trkpt><trkpt lat="42.895851" lon="19.642536"><ele>1868.1</ele><time>2012-04-30T15:24:50.0000000+00:00</time></trkpt><trkpt lat="42.895851" lon="19.642536"><ele>1868.0</ele><time>2012-04-30T15:24:55.0000000+00:00</time></trkpt><trkpt lat="42.895847" lon="19.642536"><ele>1868.0</ele><time>2012-04-30T15:25:00.0000000+00:00</time></trkpt><trkpt lat="42.895847" lon="19.642536"><ele>1868.0</ele><time>2012-04-30T15:25:05.0000000+00:00</time></trkpt><trkpt lat="42.895847" lon="19.642536"><ele>1868.0</ele><time>2012-04-30T15:25:10.0000000+00:00</time></trkpt><trkpt lat="42.895847" lon="19.642536"><ele>1868.0</ele><time>2012-04-30T15:25:15.0000000+00:00</time></trkpt><trkpt lat="42.895847" lon="19.642536"><ele>1868.0</ele><time>2012-04-30T15:25:20.0000000+00:00</time></trkpt><trkpt lat="42.895847" lon="19.642536"><ele>1867.9</ele><time>2012-04-30T15:25:25.0000000+00:00</time></trkpt><trkpt lat="42.895847" lon="19.642536"><ele>1867.9</ele><time>2012-04-30T15:25:30.0000000+00:00</time></trkpt><trkpt lat="42.895847" lon="19.642536"><ele>1867.9</ele><time>2012-04-30T15:25:35.0000000+00:00</time></trkpt><trkpt lat="42.895847" lon="19.642536"><ele>1867.9</ele><time>2012-04-30T15:25:40.0000000+00:00</time></trkpt><trkpt lat="42.895847" lon="19.642536"><ele>1867.9</ele><time>2012-04-30T15:25:45.0000000+00:00</time></trkpt><trkpt lat="42.895847" lon="19.642536"><ele>1867.8</ele><time>2012-04-30T15:25:50.0000000+00:00</time></trkpt><trkpt lat="42.895847" lon="19.642536"><ele>1867.8</ele><time>2012-04-30T15:25:55.0000000+00:00</time></trkpt><trkpt lat="42.895847" lon="19.642536"><ele>1867.8</ele><time>2012-04-30T15:26:00.0000000+00:00</time></trkpt><trkpt lat="42.895847" lon="19.642536"><ele>1867.8</ele><time>2012-04-30T15:26:05.0000000+00:00</time></trkpt><trkpt lat="42.895847" lon="19.642536"><ele>1867.7</ele><time>2012-04-30T15:26:10.0000000+00:00</time></trkpt><trkpt lat="42.895847" lon="19.642536"><ele>1867.7</ele><time>2012-04-30T15:26:15.0000000+00:00</time></trkpt><trkpt lat="42.895847" lon="19.642536"><ele>1867.7</ele><time>2012-04-30T15:26:20.0000000+00:00</time></trkpt><trkpt lat="42.895847" lon="19.642536"><ele>1867.7</ele><time>2012-04-30T15:26:25.0000000+00:00</time></trkpt><trkpt lat="42.895847" lon="19.642536"><ele>1867.7</ele><time>2012-04-30T15:26:30.0000000+00:00</time></trkpt><trkpt lat="42.895847" lon="19.642536"><ele>1867.7</ele><time>2012-04-30T15:26:35.0000000+00:00</time></trkpt><trkpt lat="42.895847" lon="19.642536"><ele>1867.6</ele><time>2012-04-30T15:26:40.0000000+00:00</time></trkpt><trkpt lat="42.895847" lon="19.642536"><ele>1867.6</ele><time>2012-04-30T15:26:45.0000000+00:00</time></trkpt><trkpt lat="42.895847" lon="19.642538"><ele>1867.6</ele><time>2012-04-30T15:26:50.0000000+00:00</time></trkpt><trkpt lat="42.895847" lon="19.642538"><ele>1867.6</ele><time>2012-04-30T15:26:55.0000000+00:00</time></trkpt><trkpt lat="42.895847" lon="19.642538"><ele>1867.6</ele><time>2012-04-30T15:27:00.0000000+00:00</time></trkpt><trkpt lat="42.895847" lon="19.642538"><ele>1867.5</ele><time>2012-04-30T15:27:05.0000000+00:00</time></trkpt><trkpt lat="42.895847" lon="19.642538"><ele>1867.5</ele><time>2012-04-30T15:27:10.0000000+00:00</time></trkpt><trkpt lat="42.895847" lon="19.642538"><ele>1867.5</ele><time>2012-04-30T15:27:15.0000000+00:00</time></trkpt><trkpt lat="42.895847" lon="19.642538"><ele>1867.5</ele><time>2012-04-30T15:27:20.0000000+00:00</time></trkpt><trkpt lat="42.895847" lon="19.642538"><ele>1867.5</ele><time>2012-04-30T15:27:25.0000000+00:00</time></trkpt><trkpt lat="42.895847" lon="19.642538"><ele>1867.4</ele><time>2012-04-30T15:27:30.0000000+00:00</time></trkpt><trkpt lat="42.895847" lon="19.642538"><ele>1867.4</ele><time>2012-04-30T15:27:35.0000000+00:00</time></trkpt><trkpt lat="42.895847" lon="19.642538"><ele>1867.4</ele><time>2012-04-30T15:27:40.0000000+00:00</time></trkpt><trkpt lat="42.895847" lon="19.642538"><ele>1867.4</ele><time>2012-04-30T15:27:45.0000000+00:00</time></trkpt><trkpt lat="42.895847" lon="19.642538"><ele>1867.4</ele><time>2012-04-30T15:27:50.0000000+00:00</time></trkpt><trkpt lat="42.895847" lon="19.642538"><ele>1867.4</ele><time>2012-04-30T15:27:55.0000000+00:00</time></trkpt><trkpt lat="42.895847" lon="19.642538"><ele>1867.3</ele><time>2012-04-30T15:28:00.0000000+00:00</time></trkpt><trkpt lat="42.895847" lon="19.642538"><ele>1867.3</ele><time>2012-04-30T15:28:05.0000000+00:00</time></trkpt><trkpt lat="42.895847" lon="19.642538"><ele>1867.3</ele><time>2012-04-30T15:28:10.0000000+00:00</time></trkpt><trkpt lat="42.895847" lon="19.64254"><ele>1867.3</ele><time>2012-04-30T15:28:15.0000000+00:00</time></trkpt><trkpt lat="42.895847" lon="19.64254"><ele>1867.3</ele><time>2012-04-30T15:28:20.0000000+00:00</time></trkpt><trkpt lat="42.895847" lon="19.64254"><ele>1867.2</ele><time>2012-04-30T15:28:25.0000000+00:00</time></trkpt><trkpt lat="42.895847" lon="19.64254"><ele>1867.2</ele><time>2012-04-30T15:28:30.0000000+00:00</time></trkpt><trkpt lat="42.895847" lon="19.64254"><ele>1867.2</ele><time>2012-04-30T15:28:35.0000000+00:00</time></trkpt><trkpt lat="42.895847" lon="19.64254"><ele>1867.2</ele><time>2012-04-30T15:28:40.0000000+00:00</time></trkpt><trkpt lat="42.895847" lon="19.64254"><ele>1867.1</ele><time>2012-04-30T15:28:45.0000000+00:00</time></trkpt><trkpt lat="42.895847" lon="19.64254"><ele>1867.1</ele><time>2012-04-30T15:28:50.0000000+00:00</time></trkpt><trkpt lat="42.895847" lon="19.64254"><ele>1867.1</ele><time>2012-04-30T15:28:55.0000000+00:00</time></trkpt><trkpt lat="42.895847" lon="19.64254"><ele>1867.1</ele><time>2012-04-30T15:29:00.0000000+00:00</time></trkpt><trkpt lat="42.895847" lon="19.64254"><ele>1867.1</ele><time>2012-04-30T15:29:05.0000000+00:00</time></trkpt><trkpt lat="42.895847" lon="19.64254"><ele>1867.1</ele><time>2012-04-30T15:29:10.0000000+00:00</time></trkpt><trkpt lat="42.895851" lon="19.64254"><ele>1867.1</ele><time>2012-04-30T15:29:15.0000000+00:00</time></trkpt><trkpt lat="42.895851" lon="19.64254"><ele>1867.1</ele><time>2012-04-30T15:29:20.0000000+00:00</time></trkpt><trkpt lat="42.895851" lon="19.642538"><ele>1867.1</ele><time>2012-04-30T15:29:25.0000000+00:00</time></trkpt><trkpt lat="42.895851" lon="19.642538"><ele>1867.1</ele><time>2012-04-30T15:29:30.0000000+00:00</time></trkpt><trkpt lat="42.895851" lon="19.642538"><ele>1867.0</ele><time>2012-04-30T15:29:35.0000000+00:00</time></trkpt><trkpt lat="42.895851" lon="19.642538"><ele>1867.0</ele><time>2012-04-30T15:29:40.0000000+00:00</time></trkpt><trkpt lat="42.895851" lon="19.642538"><ele>1867.0</ele><time>2012-04-30T15:29:45.0000000+00:00</time></trkpt><trkpt lat="42.895851" lon="19.642538"><ele>1867.0</ele><time>2012-04-30T15:29:50.0000000+00:00</time></trkpt><trkpt lat="42.895851" lon="19.642538"><ele>1867.0</ele><time>2012-04-30T15:29:55.0000000+00:00</time></trkpt><trkpt lat="42.895851" lon="19.642538"><ele>1867.0</ele><time>2012-04-30T15:30:00.0000000+00:00</time></trkpt><trkpt lat="42.895851" lon="19.642536"><ele>1867.0</ele><time>2012-04-30T15:30:05.0000000+00:00</time></trkpt><trkpt lat="42.895851" lon="19.642536"><ele>1867.0</ele><time>2012-04-30T15:30:10.0000000+00:00</time></trkpt><trkpt lat="42.895851" lon="19.642536"><ele>1867.0</ele><time>2012-04-30T15:30:15.0000000+00:00</time></trkpt><trkpt lat="42.895855" lon="19.642536"><ele>1867.0</ele><time>2012-04-30T15:30:20.0000000+00:00</time></trkpt><trkpt lat="42.895855" lon="19.642536"><ele>1867.0</ele><time>2012-04-30T15:30:25.0000000+00:00</time></trkpt><trkpt lat="42.895855" lon="19.642536"><ele>1867.0</ele><time>2012-04-30T15:30:30.0000000+00:00</time></trkpt><trkpt lat="42.895855" lon="19.642536"><ele>1866.9</ele><time>2012-04-30T15:30:35.0000000+00:00</time></trkpt><trkpt lat="42.895855" lon="19.642534"><ele>1866.9</ele><time>2012-04-30T15:30:40.0000000+00:00</time></trkpt><trkpt lat="42.895855" lon="19.642534"><ele>1866.9</ele><time>2012-04-30T15:30:45.0000000+00:00</time></trkpt><trkpt lat="42.895855" lon="19.642534"><ele>1866.9</ele><time>2012-04-30T15:30:50.0000000+00:00</time></trkpt><trkpt lat="42.89587" lon="19.64254"><ele>1867.1</ele><time>2012-04-30T15:30:55.0000000+00:00</time></trkpt><trkpt lat="42.895927" lon="19.642574"><ele>1868.2</ele><time>2012-04-30T15:31:00.0000000+00:00</time></trkpt><trkpt lat="42.895973" lon="19.642612"><ele>1867.8</ele><time>2012-04-30T15:31:05.0000000+00:00</time></trkpt><trkpt lat="42.896008" lon="19.642672"><ele>1867.4</ele><time>2012-04-30T15:31:10.0000000+00:00</time></trkpt><trkpt lat="42.896027" lon="19.642717"><ele>1866.7</ele><time>2012-04-30T15:31:15.0000000+00:00</time></trkpt><trkpt lat="42.896053" lon="19.642813"><ele>1865.9</ele><time>2012-04-30T15:31:20.0000000+00:00</time></trkpt><trkpt lat="42.896084" lon="19.642881"><ele>1865.7</ele><time>2012-04-30T15:31:25.0000000+00:00</time></trkpt><trkpt lat="42.896095" lon="19.642946"><ele>1865.9</ele><time>2012-04-30T15:31:30.0000000+00:00</time></trkpt><trkpt lat="42.896111" lon="19.643051"><ele>1866.5</ele><time>2012-04-30T15:31:35.0000000+00:00</time></trkpt><trkpt lat="42.896126" lon="19.643106"><ele>1867.2</ele><time>2012-04-30T15:31:40.0000000+00:00</time></trkpt><trkpt lat="42.896126" lon="19.643208"><ele>1868.0</ele><time>2012-04-30T15:31:45.0000000+00:00</time></trkpt><trkpt lat="42.896152" lon="19.643303"><ele>1869.2</ele><time>2012-04-30T15:31:50.0000000+00:00</time></trkpt><trkpt lat="42.896198" lon="19.643356"><ele>1870.7</ele><time>2012-04-30T15:31:55.0000000+00:00</time></trkpt><trkpt lat="42.896198" lon="19.643414"><ele>1873.0</ele><time>2012-04-30T15:32:00.0000000+00:00</time></trkpt><trkpt lat="42.896236" lon="19.643452"><ele>1875.7</ele><time>2012-04-30T15:32:05.0000000+00:00</time></trkpt><trkpt lat="42.896267" lon="19.643499"><ele>1877.8</ele><time>2012-04-30T15:32:10.0000000+00:00</time></trkpt><trkpt lat="42.89632" lon="19.643543"><ele>1878.3</ele><time>2012-04-30T15:32:15.0000000+00:00</time></trkpt><trkpt lat="42.896347" lon="19.643578"><ele>1879.5</ele><time>2012-04-30T15:32:20.0000000+00:00</time></trkpt><trkpt lat="42.896378" lon="19.6436"><ele>1880.8</ele><time>2012-04-30T15:32:25.0000000+00:00</time></trkpt><trkpt lat="42.896408" lon="19.643629"><ele>1881.4</ele><time>2012-04-30T15:32:30.0000000+00:00</time></trkpt><trkpt lat="42.896446" lon="19.643639"><ele>1882.2</ele><time>2012-04-30T15:32:35.0000000+00:00</time></trkpt><trkpt lat="42.89645" lon="19.643665"><ele>1883.4</ele><time>2012-04-30T15:32:40.0000000+00:00</time></trkpt><trkpt lat="42.896473" lon="19.643686"><ele>1883.9</ele><time>2012-04-30T15:32:45.0000000+00:00</time></trkpt><trkpt lat="42.896496" lon="19.643696"><ele>1884.7</ele><time>2012-04-30T15:32:50.0000000+00:00</time></trkpt><trkpt lat="42.896507" lon="19.643723"><ele>1884.9</ele><time>2012-04-30T15:32:55.0000000+00:00</time></trkpt><trkpt lat="42.896515" lon="19.64377"><ele>1885.3</ele><time>2012-04-30T15:33:00.0000000+00:00</time></trkpt><trkpt lat="42.896526" lon="19.643799"><ele>1885.6</ele><time>2012-04-30T15:33:05.0000000+00:00</time></trkpt><trkpt lat="42.896526" lon="19.643845"><ele>1885.8</ele><time>2012-04-30T15:33:10.0000000+00:00</time></trkpt><trkpt lat="42.896542" lon="19.643894"><ele>1885.6</ele><time>2012-04-30T15:33:15.0000000+00:00</time></trkpt><trkpt lat="42.896572" lon="19.643883"><ele>1885.9</ele><time>2012-04-30T15:33:20.0000000+00:00</time></trkpt><trkpt lat="42.896606" lon="19.643921"><ele>1886.5</ele><time>2012-04-30T15:33:25.0000000+00:00</time></trkpt><trkpt lat="42.896603" lon="19.643972"><ele>1886.8</ele><time>2012-04-30T15:33:30.0000000+00:00</time></trkpt><trkpt lat="42.896591" lon="19.644037"><ele>1886.5</ele><time>2012-04-30T15:33:35.0000000+00:00</time></trkpt><trkpt lat="42.896584" lon="19.644064"><ele>1886.7</ele><time>2012-04-30T15:33:40.0000000+00:00</time></trkpt><trkpt lat="42.896576" lon="19.644066"><ele>1885.2</ele><time>2012-04-30T15:33:45.0000000+00:00</time></trkpt><trkpt lat="42.896561" lon="19.644108"><ele>1884.3</ele><time>2012-04-30T15:33:50.0000000+00:00</time></trkpt><trkpt lat="42.896553" lon="19.644127"><ele>1884.1</ele><time>2012-04-30T15:33:55.0000000+00:00</time></trkpt><trkpt lat="42.896523" lon="19.64415"><ele>1883.7</ele><time>2012-04-30T15:34:00.0000000+00:00</time></trkpt><trkpt lat="42.896534" lon="19.644152"><ele>1882.4</ele><time>2012-04-30T15:34:05.0000000+00:00</time></trkpt><trkpt lat="42.896545" lon="19.64418"><ele>1882.0</ele><time>2012-04-30T15:34:10.0000000+00:00</time></trkpt><trkpt lat="42.896549" lon="19.644184"><ele>1882.2</ele><time>2012-04-30T15:34:15.0000000+00:00</time></trkpt><trkpt lat="42.896576" lon="19.644245"><ele>1881.9</ele><time>2012-04-30T15:34:20.0000000+00:00</time></trkpt><trkpt lat="42.89661" lon="19.6443"><ele>1881.5</ele><time>2012-04-30T15:34:25.0000000+00:00</time></trkpt><trkpt lat="42.89661" lon="19.64432"><ele>1881.2</ele><time>2012-04-30T15:34:30.0000000+00:00</time></trkpt><trkpt lat="42.896626" lon="19.644342"><ele>1880.4</ele><time>2012-04-30T15:34:35.0000000+00:00</time></trkpt><trkpt lat="42.896645" lon="19.64439"><ele>1879.8</ele><time>2012-04-30T15:34:40.0000000+00:00</time></trkpt><trkpt lat="42.89666" lon="19.644449"><ele>1879.9</ele><time>2012-04-30T15:34:45.0000000+00:00</time></trkpt><trkpt lat="42.896679" lon="19.644484"><ele>1880.0</ele><time>2012-04-30T15:34:50.0000000+00:00</time></trkpt><trkpt lat="42.896721" lon="19.644545"><ele>1879.5</ele><time>2012-04-30T15:34:55.0000000+00:00</time></trkpt><trkpt lat="42.896732" lon="19.64459"><ele>1879.4</ele><time>2012-04-30T15:35:00.0000000+00:00</time></trkpt><trkpt lat="42.896755" lon="19.644644"><ele>1879.3</ele><time>2012-04-30T15:35:05.0000000+00:00</time></trkpt><trkpt lat="42.89677" lon="19.644653"><ele>1878.8</ele><time>2012-04-30T15:35:10.0000000+00:00</time></trkpt><trkpt lat="42.89679" lon="19.644709"><ele>1878.2</ele><time>2012-04-30T15:35:15.0000000+00:00</time></trkpt><trkpt lat="42.89679" lon="19.644737"><ele>1877.3</ele><time>2012-04-30T15:35:20.0000000+00:00</time></trkpt><trkpt lat="42.896782" lon="19.644791"><ele>1876.2</ele><time>2012-04-30T15:35:25.0000000+00:00</time></trkpt><trkpt lat="42.89679" lon="19.644848"><ele>1875.8</ele><time>2012-04-30T15:35:30.0000000+00:00</time></trkpt><trkpt lat="42.896809" lon="19.644941"><ele>1875.9</ele><time>2012-04-30T15:35:35.0000000+00:00</time></trkpt><trkpt lat="42.896843" lon="19.645008"><ele>1876.0</ele><time>2012-04-30T15:35:40.0000000+00:00</time></trkpt><trkpt lat="42.896858" lon="19.645094"><ele>1876.9</ele><time>2012-04-30T15:35:45.0000000+00:00</time></trkpt><trkpt lat="42.896862" lon="19.645172"><ele>1876.9</ele><time>2012-04-30T15:35:50.0000000+00:00</time></trkpt><trkpt lat="42.89687" lon="19.645226"><ele>1876.2</ele><time>2012-04-30T15:35:55.0000000+00:00</time></trkpt><trkpt lat="42.896896" lon="19.645281"><ele>1875.9</ele><time>2012-04-30T15:36:00.0000000+00:00</time></trkpt><trkpt lat="42.896885" lon="19.645323"><ele>1876.6</ele><time>2012-04-30T15:36:05.0000000+00:00</time></trkpt><trkpt lat="42.896854" lon="19.645447"><ele>1877.0</ele><time>2012-04-30T15:36:10.0000000+00:00</time></trkpt><trkpt lat="42.896877" lon="19.645555"><ele>1877.7</ele><time>2012-04-30T15:36:15.0000000+00:00</time></trkpt><trkpt lat="42.896893" lon="19.64567"><ele>1878.2</ele><time>2012-04-30T15:36:20.0000000+00:00</time></trkpt><trkpt lat="42.896885" lon="19.645817"><ele>1879.1</ele><time>2012-04-30T15:36:25.0000000+00:00</time></trkpt><trkpt lat="42.896919" lon="19.645952"><ele>1878.7</ele><time>2012-04-30T15:36:30.0000000+00:00</time></trkpt><trkpt lat="42.896923" lon="19.646093"><ele>1877.8</ele><time>2012-04-30T15:36:35.0000000+00:00</time></trkpt><trkpt lat="42.896923" lon="19.646236"><ele>1877.8</ele><time>2012-04-30T15:36:40.0000000+00:00</time></trkpt><trkpt lat="42.896912" lon="19.646357"><ele>1878.6</ele><time>2012-04-30T15:36:45.0000000+00:00</time></trkpt><trkpt lat="42.896889" lon="19.646458"><ele>1876.9</ele><time>2012-04-30T15:36:50.0000000+00:00</time></trkpt><trkpt lat="42.896877" lon="19.646542"><ele>1876.6</ele><time>2012-04-30T15:36:55.0000000+00:00</time></trkpt><trkpt lat="42.89687" lon="19.646608"><ele>1875.9</ele><time>2012-04-30T15:37:00.0000000+00:00</time></trkpt><trkpt lat="42.896873" lon="19.646643"><ele>1875.8</ele><time>2012-04-30T15:37:05.0000000+00:00</time></trkpt><trkpt lat="42.896904" lon="19.646639"><ele>1874.0</ele><time>2012-04-30T15:37:10.0000000+00:00</time></trkpt><trkpt lat="42.8969" lon="19.646645"><ele>1874.2</ele><time>2012-04-30T15:37:15.0000000+00:00</time></trkpt><trkpt lat="42.8969" lon="19.646646"><ele>1874.4</ele><time>2012-04-30T15:37:20.0000000+00:00</time></trkpt><trkpt lat="42.896896" lon="19.646645"><ele>1874.4</ele><time>2012-04-30T15:37:25.0000000+00:00</time></trkpt><trkpt lat="42.896889" lon="19.646643"><ele>1874.5</ele><time>2012-04-30T15:37:30.0000000+00:00</time></trkpt><trkpt lat="42.896889" lon="19.646685"><ele>1874.6</ele><time>2012-04-30T15:37:35.0000000+00:00</time></trkpt><trkpt lat="42.896889" lon="19.646742"><ele>1874.4</ele><time>2012-04-30T15:37:40.0000000+00:00</time></trkpt><trkpt lat="42.896873" lon="19.646811"><ele>1874.3</ele><time>2012-04-30T15:37:45.0000000+00:00</time></trkpt><trkpt lat="42.896843" lon="19.646893"><ele>1874.3</ele><time>2012-04-30T15:37:50.0000000+00:00</time></trkpt><trkpt lat="42.896824" lon="19.646944"><ele>1873.9</ele><time>2012-04-30T15:37:55.0000000+00:00</time></trkpt><trkpt lat="42.896824" lon="19.64699"><ele>1873.9</ele><time>2012-04-30T15:38:00.0000000+00:00</time></trkpt><trkpt lat="42.896828" lon="19.646997"><ele>1874.0</ele><time>2012-04-30T15:38:05.0000000+00:00</time></trkpt><trkpt lat="42.896824" lon="19.646996"><ele>1874.0</ele><time>2012-04-30T15:38:10.0000000+00:00</time></trkpt><trkpt lat="42.896824" lon="19.646997"><ele>1874.1</ele><time>2012-04-30T15:38:15.0000000+00:00</time></trkpt><trkpt lat="42.896828" lon="19.646999"><ele>1874.2</ele><time>2012-04-30T15:38:20.0000000+00:00</time></trkpt><trkpt lat="42.896832" lon="19.647009"><ele>1874.3</ele><time>2012-04-30T15:38:25.0000000+00:00</time></trkpt><trkpt lat="42.896835" lon="19.647051"><ele>1875.4</ele><time>2012-04-30T15:38:30.0000000+00:00</time></trkpt><trkpt lat="42.896828" lon="19.647095"><ele>1875.4</ele><time>2012-04-30T15:38:35.0000000+00:00</time></trkpt><trkpt lat="42.896824" lon="19.647121"><ele>1876.5</ele><time>2012-04-30T15:38:40.0000000+00:00</time></trkpt><trkpt lat="42.896816" lon="19.647154"><ele>1876.5</ele><time>2012-04-30T15:38:45.0000000+00:00</time></trkpt><trkpt lat="42.896816" lon="19.647186"><ele>1876.4</ele><time>2012-04-30T15:38:50.0000000+00:00</time></trkpt><trkpt lat="42.896809" lon="19.647242"><ele>1876.2</ele><time>2012-04-30T15:38:55.0000000+00:00</time></trkpt><trkpt lat="42.896797" lon="19.647312"><ele>1875.2</ele><time>2012-04-30T15:39:00.0000000+00:00</time></trkpt><trkpt lat="42.896763" lon="19.647352"><ele>1875.3</ele><time>2012-04-30T15:39:05.0000000+00:00</time></trkpt><trkpt lat="42.896759" lon="19.64739"><ele>1875.3</ele><time>2012-04-30T15:39:10.0000000+00:00</time></trkpt><trkpt lat="42.896774" lon="19.647446"><ele>1876.0</ele><time>2012-04-30T15:39:15.0000000+00:00</time></trkpt><trkpt lat="42.896812" lon="19.647518"><ele>1876.5</ele><time>2012-04-30T15:39:20.0000000+00:00</time></trkpt><trkpt lat="42.896816" lon="19.647594"><ele>1877.1</ele><time>2012-04-30T15:39:25.0000000+00:00</time></trkpt><trkpt lat="42.896812" lon="19.647646"><ele>1877.7</ele><time>2012-04-30T15:39:30.0000000+00:00</time></trkpt><trkpt lat="42.896809" lon="19.647764"><ele>1878.3</ele><time>2012-04-30T15:39:35.0000000+00:00</time></trkpt><trkpt lat="42.896832" lon="19.647886"><ele>1879.2</ele><time>2012-04-30T15:39:40.0000000+00:00</time></trkpt><trkpt lat="42.896828" lon="19.648024"><ele>1879.7</ele><time>2012-04-30T15:39:45.0000000+00:00</time></trkpt><trkpt lat="42.896847" lon="19.648085"><ele>1879.4</ele><time>2012-04-30T15:39:50.0000000+00:00</time></trkpt><trkpt lat="42.896873" lon="19.648096"><ele>1881.1</ele><time>2012-04-30T15:39:55.0000000+00:00</time></trkpt><trkpt lat="42.896862" lon="19.648129"><ele>1881.7</ele><time>2012-04-30T15:40:00.0000000+00:00</time></trkpt><trkpt lat="42.896851" lon="19.648138"><ele>1881.7</ele><time>2012-04-30T15:40:05.0000000+00:00</time></trkpt><trkpt lat="42.896835" lon="19.648149"><ele>1881.3</ele><time>2012-04-30T15:40:10.0000000+00:00</time></trkpt><trkpt lat="42.896828" lon="19.648151"><ele>1881.5</ele><time>2012-04-30T15:40:15.0000000+00:00</time></trkpt><trkpt lat="42.896839" lon="19.64817"><ele>1881.8</ele><time>2012-04-30T15:40:20.0000000+00:00</time></trkpt><trkpt lat="42.896854" lon="19.648207"><ele>1882.3</ele><time>2012-04-30T15:40:25.0000000+00:00</time></trkpt><trkpt lat="42.89687" lon="19.648235"><ele>1882.6</ele><time>2012-04-30T15:40:30.0000000+00:00</time></trkpt><trkpt lat="42.896877" lon="19.648268"><ele>1882.9</ele><time>2012-04-30T15:40:35.0000000+00:00</time></trkpt><trkpt lat="42.896885" lon="19.648296"><ele>1882.7</ele><time>2012-04-30T15:40:40.0000000+00:00</time></trkpt><trkpt lat="42.896893" lon="19.648327"><ele>1882.3</ele><time>2012-04-30T15:40:45.0000000+00:00</time></trkpt><trkpt lat="42.896889" lon="19.648382"><ele>1882.7</ele><time>2012-04-30T15:40:50.0000000+00:00</time></trkpt><trkpt lat="42.896885" lon="19.648447"><ele>1882.9</ele><time>2012-04-30T15:40:55.0000000+00:00</time></trkpt><trkpt lat="42.896885" lon="19.648525"><ele>1882.7</ele><time>2012-04-30T15:41:00.0000000+00:00</time></trkpt><trkpt lat="42.896893" lon="19.648567"><ele>1882.9</ele><time>2012-04-30T15:41:05.0000000+00:00</time></trkpt><trkpt lat="42.8969" lon="19.648624"><ele>1882.9</ele><time>2012-04-30T15:41:10.0000000+00:00</time></trkpt><trkpt lat="42.896908" lon="19.648687"><ele>1883.2</ele><time>2012-04-30T15:41:15.0000000+00:00</time></trkpt><trkpt lat="42.896896" lon="19.648777"><ele>1883.2</ele><time>2012-04-30T15:41:20.0000000+00:00</time></trkpt><trkpt lat="42.896893" lon="19.648823"><ele>1883.4</ele><time>2012-04-30T15:41:25.0000000+00:00</time></trkpt><trkpt lat="42.896904" lon="19.648893"><ele>1882.7</ele><time>2012-04-30T15:41:30.0000000+00:00</time></trkpt><trkpt lat="42.896908" lon="19.649002"><ele>1882.9</ele><time>2012-04-30T15:41:35.0000000+00:00</time></trkpt><trkpt lat="42.896938" lon="19.649128"><ele>1882.8</ele><time>2012-04-30T15:41:40.0000000+00:00</time></trkpt><trkpt lat="42.896957" lon="19.649258"><ele>1882.7</ele><time>2012-04-30T15:41:45.0000000+00:00</time></trkpt><trkpt lat="42.896965" lon="19.649399"><ele>1882.5</ele><time>2012-04-30T15:41:50.0000000+00:00</time></trkpt><trkpt lat="42.897011" lon="19.6495"><ele>1881.5</ele><time>2012-04-30T15:41:55.0000000+00:00</time></trkpt><trkpt lat="42.897049" lon="19.649651"><ele>1884.8</ele><time>2012-04-30T15:42:00.0000000+00:00</time></trkpt><trkpt lat="42.897068" lon="19.649803"><ele>1886.8</ele><time>2012-04-30T15:42:05.0000000+00:00</time></trkpt><trkpt lat="42.896996" lon="19.649973"><ele>1885.5</ele><time>2012-04-30T15:42:10.0000000+00:00</time></trkpt><trkpt lat="42.896988" lon="19.650122"><ele>1886.0</ele><time>2012-04-30T15:42:15.0000000+00:00</time></trkpt><trkpt lat="42.896957" lon="19.650242"><ele>1885.1</ele><time>2012-04-30T15:42:20.0000000+00:00</time></trkpt><trkpt lat="42.896935" lon="19.650341"><ele>1884.5</ele><time>2012-04-30T15:42:25.0000000+00:00</time></trkpt><trkpt lat="42.896912" lon="19.650442"><ele>1882.7</ele><time>2012-04-30T15:42:30.0000000+00:00</time></trkpt><trkpt lat="42.896873" lon="19.650547"><ele>1882.1</ele><time>2012-04-30T15:42:35.0000000+00:00</time></trkpt><trkpt lat="42.896839" lon="19.650646"><ele>1881.3</ele><time>2012-04-30T15:42:40.0000000+00:00</time></trkpt><trkpt lat="42.896793" lon="19.650709"><ele>1881.4</ele><time>2012-04-30T15:42:45.0000000+00:00</time></trkpt><trkpt lat="42.89674" lon="19.650774"><ele>1883.0</ele><time>2012-04-30T15:42:50.0000000+00:00</time></trkpt><trkpt lat="42.896683" lon="19.650852"><ele>1883.5</ele><time>2012-04-30T15:42:55.0000000+00:00</time></trkpt><trkpt lat="42.896629" lon="19.650946"><ele>1887.0</ele><time>2012-04-30T15:43:00.0000000+00:00</time></trkpt><trkpt lat="42.896568" lon="19.650993"><ele>1888.2</ele><time>2012-04-30T15:43:05.0000000+00:00</time></trkpt><trkpt lat="42.896496" lon="19.651039"><ele>1888.8</ele><time>2012-04-30T15:43:10.0000000+00:00</time></trkpt><trkpt lat="42.896423" lon="19.651081"><ele>1888.7</ele><time>2012-04-30T15:43:15.0000000+00:00</time></trkpt><trkpt lat="42.896355" lon="19.651133"><ele>1888.2</ele><time>2012-04-30T15:43:20.0000000+00:00</time></trkpt><trkpt lat="42.89629" lon="19.651173"><ele>1888.2</ele><time>2012-04-30T15:43:25.0000000+00:00</time></trkpt><trkpt lat="42.896221" lon="19.651222"><ele>1890.9</ele><time>2012-04-30T15:43:30.0000000+00:00</time></trkpt><trkpt lat="42.89616" lon="19.651279"><ele>1891.6</ele><time>2012-04-30T15:43:35.0000000+00:00</time></trkpt><trkpt lat="42.896084" lon="19.65135"><ele>1892.4</ele><time>2012-04-30T15:43:40.0000000+00:00</time></trkpt><trkpt lat="42.896019" lon="19.651421"><ele>1893.5</ele><time>2012-04-30T15:43:45.0000000+00:00</time></trkpt><trkpt lat="42.895977" lon="19.651485"><ele>1894.1</ele><time>2012-04-30T15:43:50.0000000+00:00</time></trkpt><trkpt lat="42.89592" lon="19.651548"><ele>1894.1</ele><time>2012-04-30T15:43:55.0000000+00:00</time></trkpt><trkpt lat="42.895882" lon="19.65163"><ele>1894.2</ele><time>2012-04-30T15:44:00.0000000+00:00</time></trkpt><trkpt lat="42.895832" lon="19.651709"><ele>1894.4</ele><time>2012-04-30T15:44:05.0000000+00:00</time></trkpt><trkpt lat="42.89579" lon="19.651804"><ele>1894.0</ele><time>2012-04-30T15:44:10.0000000+00:00</time></trkpt><trkpt lat="42.895744" lon="19.651888"><ele>1893.6</ele><time>2012-04-30T15:44:15.0000000+00:00</time></trkpt><trkpt lat="42.895691" lon="19.651999"><ele>1892.4</ele><time>2012-04-30T15:44:20.0000000+00:00</time></trkpt><trkpt lat="42.895649" lon="19.652111"><ele>1891.3</ele><time>2012-04-30T15:44:25.0000000+00:00</time></trkpt><trkpt lat="42.895596" lon="19.652206"><ele>1891.5</ele><time>2012-04-30T15:44:30.0000000+00:00</time></trkpt><trkpt lat="42.895538" lon="19.652292"><ele>1891.5</ele><time>2012-04-30T15:44:35.0000000+00:00</time></trkpt><trkpt lat="42.895496" lon="19.652365"><ele>1890.6</ele><time>2012-04-30T15:44:40.0000000+00:00</time></trkpt><trkpt lat="42.895466" lon="19.652468"><ele>1890.8</ele><time>2012-04-30T15:44:45.0000000+00:00</time></trkpt><trkpt lat="42.895432" lon="19.652557"><ele>1890.5</ele><time>2012-04-30T15:44:50.0000000+00:00</time></trkpt><trkpt lat="42.895378" lon="19.652649"><ele>1891.9</ele><time>2012-04-30T15:44:55.0000000+00:00</time></trkpt><trkpt lat="42.89534" lon="19.652739"><ele>1891.3</ele><time>2012-04-30T15:45:00.0000000+00:00</time></trkpt><trkpt lat="42.895294" lon="19.652821"><ele>1892.8</ele><time>2012-04-30T15:45:05.0000000+00:00</time></trkpt><trkpt lat="42.895248" lon="19.652906"><ele>1894.1</ele><time>2012-04-30T15:45:10.0000000+00:00</time></trkpt><trkpt lat="42.895195" lon="19.653006"><ele>1894.2</ele><time>2012-04-30T15:45:15.0000000+00:00</time></trkpt><trkpt lat="42.895142" lon="19.65309"><ele>1894.7</ele><time>2012-04-30T15:45:20.0000000+00:00</time></trkpt><trkpt lat="42.895081" lon="19.653158"><ele>1895.7</ele><time>2012-04-30T15:45:25.0000000+00:00</time></trkpt><trkpt lat="42.895016" lon="19.653214"><ele>1896.8</ele><time>2012-04-30T15:45:30.0000000+00:00</time></trkpt><trkpt lat="42.894962" lon="19.653282"><ele>1898.3</ele><time>2012-04-30T15:45:35.0000000+00:00</time></trkpt><trkpt lat="42.894897" lon="19.653334"><ele>1898.6</ele><time>2012-04-30T15:45:40.0000000+00:00</time></trkpt><trkpt lat="42.894859" lon="19.653397"><ele>1900.0</ele><time>2012-04-30T15:45:45.0000000+00:00</time></trkpt><trkpt lat="42.894794" lon="19.653454"><ele>1899.2</ele><time>2012-04-30T15:45:50.0000000+00:00</time></trkpt><trkpt lat="42.894726" lon="19.653515"><ele>1898.9</ele><time>2012-04-30T15:45:55.0000000+00:00</time></trkpt><trkpt lat="42.894657" lon="19.653547"><ele>1900.1</ele><time>2012-04-30T15:46:00.0000000+00:00</time></trkpt><trkpt lat="42.894577" lon="19.653584"><ele>1899.8</ele><time>2012-04-30T15:46:05.0000000+00:00</time></trkpt><trkpt lat="42.894516" lon="19.653629"><ele>1899.9</ele><time>2012-04-30T15:46:10.0000000+00:00</time></trkpt><trkpt lat="42.894436" lon="19.653673"><ele>1900.6</ele><time>2012-04-30T15:46:15.0000000+00:00</time></trkpt><trkpt lat="42.894367" lon="19.653715"><ele>1902.5</ele><time>2012-04-30T15:46:20.0000000+00:00</time></trkpt><trkpt lat="42.894314" lon="19.653725"><ele>1903.8</ele><time>2012-04-30T15:46:25.0000000+00:00</time></trkpt><trkpt lat="42.894268" lon="19.65377"><ele>1904.4</ele><time>2012-04-30T15:46:30.0000000+00:00</time></trkpt><trkpt lat="42.894222" lon="19.653799"><ele>1905.0</ele><time>2012-04-30T15:46:35.0000000+00:00</time></trkpt><trkpt lat="42.894161" lon="19.653824"><ele>1904.7</ele><time>2012-04-30T15:46:40.0000000+00:00</time></trkpt><trkpt lat="42.894135" lon="19.653833"><ele>1904.4</ele><time>2012-04-30T15:46:45.0000000+00:00</time></trkpt><trkpt lat="42.894135" lon="19.653841"><ele>1903.7</ele><time>2012-04-30T15:46:50.0000000+00:00</time></trkpt><trkpt lat="42.894138" lon="19.653854"><ele>1903.1</ele><time>2012-04-30T15:46:55.0000000+00:00</time></trkpt><trkpt lat="42.894146" lon="19.653866"><ele>1902.5</ele><time>2012-04-30T15:47:00.0000000+00:00</time></trkpt><trkpt lat="42.89415" lon="19.653877"><ele>1901.9</ele><time>2012-04-30T15:47:05.0000000+00:00</time></trkpt><trkpt lat="42.894138" lon="19.653885"><ele>1901.2</ele><time>2012-04-30T15:47:10.0000000+00:00</time></trkpt><trkpt lat="42.894123" lon="19.653883"><ele>1899.9</ele><time>2012-04-30T15:47:15.0000000+00:00</time></trkpt><trkpt lat="42.894089" lon="19.653896"><ele>1899.2</ele><time>2012-04-30T15:47:20.0000000+00:00</time></trkpt><trkpt lat="42.894047" lon="19.6539"><ele>1899.7</ele><time>2012-04-30T15:47:25.0000000+00:00</time></trkpt><trkpt lat="42.894005" lon="19.653938"><ele>1900.6</ele><time>2012-04-30T15:47:30.0000000+00:00</time></trkpt><trkpt lat="42.89399" lon="19.65395"><ele>1901.8</ele><time>2012-04-30T15:47:35.0000000+00:00</time></trkpt><trkpt lat="42.893982" lon="19.653952"><ele>1901.6</ele><time>2012-04-30T15:47:40.0000000+00:00</time></trkpt><trkpt lat="42.89397" lon="19.653961"><ele>1901.6</ele><time>2012-04-30T15:47:45.0000000+00:00</time></trkpt><trkpt lat="42.893955" lon="19.653948"><ele>1902.0</ele><time>2012-04-30T15:47:50.0000000+00:00</time></trkpt><trkpt lat="42.893909" lon="19.653952"><ele>1901.7</ele><time>2012-04-30T15:47:55.0000000+00:00</time></trkpt><trkpt lat="42.893875" lon="19.653982"><ele>1902.0</ele><time>2012-04-30T15:48:00.0000000+00:00</time></trkpt><trkpt lat="42.893841" lon="19.654013"><ele>1902.0</ele><time>2012-04-30T15:48:05.0000000+00:00</time></trkpt><trkpt lat="42.893799" lon="19.654047"><ele>1902.1</ele><time>2012-04-30T15:48:10.0000000+00:00</time></trkpt><trkpt lat="42.893768" lon="19.654076"><ele>1902.2</ele><time>2012-04-30T15:48:15.0000000+00:00</time></trkpt><trkpt lat="42.89373" lon="19.654106"><ele>1902.5</ele><time>2012-04-30T15:48:20.0000000+00:00</time></trkpt><trkpt lat="42.893688" lon="19.65415"><ele>1902.7</ele><time>2012-04-30T15:48:25.0000000+00:00</time></trkpt><trkpt lat="42.893661" lon="19.654179"><ele>1902.4</ele><time>2012-04-30T15:48:30.0000000+00:00</time></trkpt><trkpt lat="42.893627" lon="19.654192"><ele>1902.9</ele><time>2012-04-30T15:48:35.0000000+00:00</time></trkpt><trkpt lat="42.893593" lon="19.654219"><ele>1903.1</ele><time>2012-04-30T15:48:40.0000000+00:00</time></trkpt><trkpt lat="42.893555" lon="19.654242"><ele>1903.1</ele><time>2012-04-30T15:48:45.0000000+00:00</time></trkpt><trkpt lat="42.893555" lon="19.65424"><ele>1903.2</ele><time>2012-04-30T15:48:50.0000000+00:00</time></trkpt><trkpt lat="42.893555" lon="19.654238"><ele>1902.7</ele><time>2012-04-30T15:48:55.0000000+00:00</time></trkpt><trkpt lat="42.893539" lon="19.654247"><ele>1903.0</ele><time>2012-04-30T15:49:00.0000000+00:00</time></trkpt><trkpt lat="42.893539" lon="19.654255"><ele>1902.6</ele><time>2012-04-30T15:49:05.0000000+00:00</time></trkpt><trkpt lat="42.893543" lon="19.654259"><ele>1902.0</ele><time>2012-04-30T15:49:10.0000000+00:00</time></trkpt><trkpt lat="42.893547" lon="19.654263"><ele>1901.4</ele><time>2012-04-30T15:49:15.0000000+00:00</time></trkpt><trkpt lat="42.893524" lon="19.654305"><ele>1901.4</ele><time>2012-04-30T15:49:20.0000000+00:00</time></trkpt><trkpt lat="42.893482" lon="19.654322"><ele>1901.1</ele><time>2012-04-30T15:49:25.0000000+00:00</time></trkpt><trkpt lat="42.893429" lon="19.654333"><ele>1901.6</ele><time>2012-04-30T15:49:30.0000000+00:00</time></trkpt><trkpt lat="42.893372" lon="19.65435"><ele>1902.7</ele><time>2012-04-30T15:49:35.0000000+00:00</time></trkpt><trkpt lat="42.893349" lon="19.654383"><ele>1903.1</ele><time>2012-04-30T15:49:40.0000000+00:00</time></trkpt><trkpt lat="42.893341" lon="19.654394"><ele>1903.3</ele><time>2012-04-30T15:49:45.0000000+00:00</time></trkpt><trkpt lat="42.893337" lon="19.654411"><ele>1903.9</ele><time>2012-04-30T15:49:50.0000000+00:00</time></trkpt><trkpt lat="42.893307" lon="19.654449"><ele>1904.4</ele><time>2012-04-30T15:49:55.0000000+00:00</time></trkpt><trkpt lat="42.893269" lon="19.654486"><ele>1905.0</ele><time>2012-04-30T15:50:00.0000000+00:00</time></trkpt><trkpt lat="42.893246" lon="19.654533"><ele>1905.1</ele><time>2012-04-30T15:50:05.0000000+00:00</time></trkpt><trkpt lat="42.893208" lon="19.654552"><ele>1905.5</ele><time>2012-04-30T15:50:10.0000000+00:00</time></trkpt><trkpt lat="42.89315" lon="19.654572"><ele>1905.6</ele><time>2012-04-30T15:50:15.0000000+00:00</time></trkpt><trkpt lat="42.893127" lon="19.65461"><ele>1905.6</ele><time>2012-04-30T15:50:20.0000000+00:00</time></trkpt><trkpt lat="42.893116" lon="19.654642"><ele>1905.7</ele><time>2012-04-30T15:50:25.0000000+00:00</time></trkpt><trkpt lat="42.893093" lon="19.654686"><ele>1905.8</ele><time>2012-04-30T15:50:30.0000000+00:00</time></trkpt><trkpt lat="42.893059" lon="19.654713"><ele>1905.9</ele><time>2012-04-30T15:50:35.0000000+00:00</time></trkpt><trkpt lat="42.893051" lon="19.654747"><ele>1906.1</ele><time>2012-04-30T15:50:40.0000000+00:00</time></trkpt><trkpt lat="42.89304" lon="19.654797"><ele>1906.5</ele><time>2012-04-30T15:50:45.0000000+00:00</time></trkpt><trkpt lat="42.893009" lon="19.654835"><ele>1906.5</ele><time>2012-04-30T15:50:50.0000000+00:00</time></trkpt><trkpt lat="42.892971" lon="19.654869"><ele>1907.1</ele><time>2012-04-30T15:50:55.0000000+00:00</time></trkpt><trkpt lat="42.892937" lon="19.654894"><ele>1907.4</ele><time>2012-04-30T15:51:00.0000000+00:00</time></trkpt><trkpt lat="42.892895" lon="19.654915"><ele>1907.6</ele><time>2012-04-30T15:51:05.0000000+00:00</time></trkpt><trkpt lat="42.892864" lon="19.654945"><ele>1908.0</ele><time>2012-04-30T15:51:10.0000000+00:00</time></trkpt><trkpt lat="42.892834" lon="19.654963"><ele>1909.0</ele><time>2012-04-30T15:51:15.0000000+00:00</time></trkpt><trkpt lat="42.892811" lon="19.654995"><ele>1909.6</ele><time>2012-04-30T15:51:20.0000000+00:00</time></trkpt><trkpt lat="42.892796" lon="19.655031"><ele>1910.2</ele><time>2012-04-30T15:51:25.0000000+00:00</time></trkpt><trkpt lat="42.892784" lon="19.655102"><ele>1910.5</ele><time>2012-04-30T15:51:30.0000000+00:00</time></trkpt><trkpt lat="42.892773" lon="19.655186"><ele>1911.1</ele><time>2012-04-30T15:51:35.0000000+00:00</time></trkpt><trkpt lat="42.892754" lon="19.65523"><ele>1911.7</ele><time>2012-04-30T15:51:40.0000000+00:00</time></trkpt><trkpt lat="42.892738" lon="19.655254"><ele>1912.0</ele><time>2012-04-30T15:51:45.0000000+00:00</time></trkpt><trkpt lat="42.892723" lon="19.65527"><ele>1912.3</ele><time>2012-04-30T15:51:50.0000000+00:00</time></trkpt><trkpt lat="42.8927" lon="19.65531"><ele>1912.6</ele><time>2012-04-30T15:51:55.0000000+00:00</time></trkpt><trkpt lat="42.892666" lon="19.65534"><ele>1913.1</ele><time>2012-04-30T15:52:00.0000000+00:00</time></trkpt><trkpt lat="42.892651" lon="19.655344"><ele>1913.1</ele><time>2012-04-30T15:52:05.0000000+00:00</time></trkpt><trkpt lat="42.892651" lon="19.655346"><ele>1913.3</ele><time>2012-04-30T15:52:10.0000000+00:00</time></trkpt><trkpt lat="42.892643" lon="19.655388"><ele>1913.5</ele><time>2012-04-30T15:52:15.0000000+00:00</time></trkpt><trkpt lat="42.892609" lon="19.65543"><ele>1914.9</ele><time>2012-04-30T15:52:20.0000000+00:00</time></trkpt><trkpt lat="42.892563" lon="19.655481"><ele>1915.5</ele><time>2012-04-30T15:52:25.0000000+00:00</time></trkpt><trkpt lat="42.892513" lon="19.65551"><ele>1916.4</ele><time>2012-04-30T15:52:30.0000000+00:00</time></trkpt><trkpt lat="42.892513" lon="19.655514"><ele>1916.7</ele><time>2012-04-30T15:52:35.0000000+00:00</time></trkpt><trkpt lat="42.892513" lon="19.655514"><ele>1917.2</ele><time>2012-04-30T15:52:40.0000000+00:00</time></trkpt><trkpt lat="42.892498" lon="19.655531"><ele>1918.0</ele><time>2012-04-30T15:52:45.0000000+00:00</time></trkpt><trkpt lat="42.892441" lon="19.655582"><ele>1918.7</ele><time>2012-04-30T15:52:50.0000000+00:00</time></trkpt><trkpt lat="42.892399" lon="19.655621"><ele>1919.5</ele><time>2012-04-30T15:52:55.0000000+00:00</time></trkpt><trkpt lat="42.892353" lon="19.655663"><ele>1920.1</ele><time>2012-04-30T15:53:00.0000000+00:00</time></trkpt><trkpt lat="42.892334" lon="19.655689"><ele>1920.4</ele><time>2012-04-30T15:53:05.0000000+00:00</time></trkpt><trkpt lat="42.892307" lon="19.655735"><ele>1920.5</ele><time>2012-04-30T15:53:10.0000000+00:00</time></trkpt><trkpt lat="42.892273" lon="19.655754"><ele>1921.0</ele><time>2012-04-30T15:53:15.0000000+00:00</time></trkpt><trkpt lat="42.892246" lon="19.655785"><ele>1921.4</ele><time>2012-04-30T15:53:20.0000000+00:00</time></trkpt><trkpt lat="42.892204" lon="19.655813"><ele>1922.2</ele><time>2012-04-30T15:53:25.0000000+00:00</time></trkpt><trkpt lat="42.892166" lon="19.655851"><ele>1922.1</ele><time>2012-04-30T15:53:30.0000000+00:00</time></trkpt><trkpt lat="42.892139" lon="19.655878"><ele>1922.9</ele><time>2012-04-30T15:53:35.0000000+00:00</time></trkpt><trkpt lat="42.892139" lon="19.655888"><ele>1923.1</ele><time>2012-04-30T15:53:40.0000000+00:00</time></trkpt><trkpt lat="42.892139" lon="19.655891"><ele>1923.3</ele><time>2012-04-30T15:53:45.0000000+00:00</time></trkpt><trkpt lat="42.892136" lon="19.655891"><ele>1923.5</ele><time>2012-04-30T15:53:50.0000000+00:00</time></trkpt><trkpt lat="42.892113" lon="19.65592"><ele>1923.6</ele><time>2012-04-30T15:53:55.0000000+00:00</time></trkpt><trkpt lat="42.892063" lon="19.655954"><ele>1923.5</ele><time>2012-04-30T15:54:00.0000000+00:00</time></trkpt><trkpt lat="42.892033" lon="19.655996"><ele>1923.5</ele><time>2012-04-30T15:54:05.0000000+00:00</time></trkpt><trkpt lat="42.891983" lon="19.656021"><ele>1923.5</ele><time>2012-04-30T15:54:10.0000000+00:00</time></trkpt><trkpt lat="42.891945" lon="19.65605"><ele>1923.5</ele><time>2012-04-30T15:54:15.0000000+00:00</time></trkpt><trkpt lat="42.891933" lon="19.656067"><ele>1923.9</ele><time>2012-04-30T15:54:20.0000000+00:00</time></trkpt><trkpt lat="42.891903" lon="19.656065"><ele>1923.3</ele><time>2012-04-30T15:54:25.0000000+00:00</time></trkpt><trkpt lat="42.891869" lon="19.656069"><ele>1923.8</ele><time>2012-04-30T15:54:30.0000000+00:00</time></trkpt><trkpt lat="42.891838" lon="19.65609"><ele>1922.7</ele><time>2012-04-30T15:54:35.0000000+00:00</time></trkpt><trkpt lat="42.891788" lon="19.656118"><ele>1922.5</ele><time>2012-04-30T15:54:40.0000000+00:00</time></trkpt><trkpt lat="42.891743" lon="19.656122"><ele>1923.0</ele><time>2012-04-30T15:54:45.0000000+00:00</time></trkpt><trkpt lat="42.891705" lon="19.656162"><ele>1923.5</ele><time>2012-04-30T15:54:50.0000000+00:00</time></trkpt><trkpt lat="42.891666" lon="19.656181"><ele>1923.7</ele><time>2012-04-30T15:54:55.0000000+00:00</time></trkpt><trkpt lat="42.891632" lon="19.656191"><ele>1923.9</ele><time>2012-04-30T15:55:00.0000000+00:00</time></trkpt><trkpt lat="42.891602" lon="19.656218"><ele>1924.1</ele><time>2012-04-30T15:55:05.0000000+00:00</time></trkpt><trkpt lat="42.891571" lon="19.656265"><ele>1924.7</ele><time>2012-04-30T15:55:10.0000000+00:00</time></trkpt><trkpt lat="42.891541" lon="19.656301"><ele>1925.0</ele><time>2012-04-30T15:55:15.0000000+00:00</time></trkpt><trkpt lat="42.891499" lon="19.656336"><ele>1925.3</ele><time>2012-04-30T15:55:20.0000000+00:00</time></trkpt><trkpt lat="42.89146" lon="19.656353"><ele>1925.5</ele><time>2012-04-30T15:55:25.0000000+00:00</time></trkpt><trkpt lat="42.891415" lon="19.656387"><ele>1924.6</ele><time>2012-04-30T15:55:30.0000000+00:00</time></trkpt><trkpt lat="42.89138" lon="19.656418"><ele>1924.3</ele><time>2012-04-30T15:55:35.0000000+00:00</time></trkpt><trkpt lat="42.891354" lon="19.656443"><ele>1923.5</ele><time>2012-04-30T15:55:40.0000000+00:00</time></trkpt><trkpt lat="42.89135" lon="19.656448"><ele>1923.7</ele><time>2012-04-30T15:55:45.0000000+00:00</time></trkpt><trkpt lat="42.891331" lon="19.656479"><ele>1924.0</ele><time>2012-04-30T15:55:50.0000000+00:00</time></trkpt><trkpt lat="42.891304" lon="19.656509"><ele>1924.5</ele><time>2012-04-30T15:55:55.0000000+00:00</time></trkpt><trkpt lat="42.891273" lon="19.656551"><ele>1924.6</ele><time>2012-04-30T15:56:00.0000000+00:00</time></trkpt><trkpt lat="42.89122" lon="19.656582"><ele>1924.7</ele><time>2012-04-30T15:56:05.0000000+00:00</time></trkpt><trkpt lat="42.891174" lon="19.65661"><ele>1924.9</ele><time>2012-04-30T15:56:10.0000000+00:00</time></trkpt><trkpt lat="42.891129" lon="19.656618"><ele>1925.0</ele><time>2012-04-30T15:56:15.0000000+00:00</time></trkpt><trkpt lat="42.891106" lon="19.656645"><ele>1925.5</ele><time>2012-04-30T15:56:20.0000000+00:00</time></trkpt><trkpt lat="42.891079" lon="19.656681"><ele>1926.5</ele><time>2012-04-30T15:56:25.0000000+00:00</time></trkpt><trkpt lat="42.891075" lon="19.656702"><ele>1926.3</ele><time>2012-04-30T15:56:30.0000000+00:00</time></trkpt><trkpt lat="42.891075" lon="19.656712"><ele>1926.4</ele><time>2012-04-30T15:56:35.0000000+00:00</time></trkpt><trkpt lat="42.891071" lon="19.656721"><ele>1926.6</ele><time>2012-04-30T15:56:40.0000000+00:00</time></trkpt><trkpt lat="42.891064" lon="19.656725"><ele>1926.7</ele><time>2012-04-30T15:56:45.0000000+00:00</time></trkpt><trkpt lat="42.891056" lon="19.656723"><ele>1926.9</ele><time>2012-04-30T15:56:50.0000000+00:00</time></trkpt><trkpt lat="42.891052" lon="19.656723"><ele>1927.0</ele><time>2012-04-30T15:56:55.0000000+00:00</time></trkpt><trkpt lat="42.891048" lon="19.656727"><ele>1927.2</ele><time>2012-04-30T15:57:00.0000000+00:00</time></trkpt><trkpt lat="42.891041" lon="19.656733"><ele>1927.4</ele><time>2012-04-30T15:57:05.0000000+00:00</time></trkpt><trkpt lat="42.891037" lon="19.656742"><ele>1927.5</ele><time>2012-04-30T15:57:10.0000000+00:00</time></trkpt><trkpt lat="42.89101" lon="19.656794"><ele>1927.9</ele><time>2012-04-30T15:57:15.0000000+00:00</time></trkpt><trkpt lat="42.890991" lon="19.656853"><ele>1927.6</ele><time>2012-04-30T15:57:20.0000000+00:00</time></trkpt><trkpt lat="42.890987" lon="19.656898"><ele>1927.5</ele><time>2012-04-30T15:57:25.0000000+00:00</time></trkpt><trkpt lat="42.890961" lon="19.656952"><ele>1928.2</ele><time>2012-04-30T15:57:30.0000000+00:00</time></trkpt><trkpt lat="42.890938" lon="19.657019"><ele>1929.3</ele><time>2012-04-30T15:57:35.0000000+00:00</time></trkpt><trkpt lat="42.890923" lon="19.657091"><ele>1929.8</ele><time>2012-04-30T15:57:40.0000000+00:00</time></trkpt><trkpt lat="42.890919" lon="19.65716"><ele>1930.1</ele><time>2012-04-30T15:57:45.0000000+00:00</time></trkpt><trkpt lat="42.890957" lon="19.657232"><ele>1929.4</ele><time>2012-04-30T15:57:50.0000000+00:00</time></trkpt><trkpt lat="42.890961" lon="19.657291"><ele>1928.9</ele><time>2012-04-30T15:57:55.0000000+00:00</time></trkpt><trkpt lat="42.890953" lon="19.657364"><ele>1928.0</ele><time>2012-04-30T15:58:00.0000000+00:00</time></trkpt><trkpt lat="42.890907" lon="19.657427"><ele>1927.5</ele><time>2012-04-30T15:58:05.0000000+00:00</time></trkpt><trkpt lat="42.890881" lon="19.65749"><ele>1927.3</ele><time>2012-04-30T15:58:10.0000000+00:00</time></trkpt><trkpt lat="42.89085" lon="19.657543"><ele>1927.5</ele><time>2012-04-30T15:58:15.0000000+00:00</time></trkpt><trkpt lat="42.890846" lon="19.657591"><ele>1926.9</ele><time>2012-04-30T15:58:20.0000000+00:00</time></trkpt><trkpt lat="42.890831" lon="19.65764"><ele>1926.6</ele><time>2012-04-30T15:58:25.0000000+00:00</time></trkpt><trkpt lat="42.890785" lon="19.657671"><ele>1925.5</ele><time>2012-04-30T15:58:30.0000000+00:00</time></trkpt><trkpt lat="42.890736" lon="19.657722"><ele>1924.9</ele><time>2012-04-30T15:58:35.0000000+00:00</time></trkpt><trkpt lat="42.89072" lon="19.657791"><ele>1924.1</ele><time>2012-04-30T15:58:40.0000000+00:00</time></trkpt><trkpt lat="42.890717" lon="19.657829"><ele>1924.4</ele><time>2012-04-30T15:58:45.0000000+00:00</time></trkpt><trkpt lat="42.890701" lon="19.657883"><ele>1924.4</ele><time>2012-04-30T15:58:50.0000000+00:00</time></trkpt><trkpt lat="42.890682" lon="19.657902"><ele>1924.3</ele><time>2012-04-30T15:58:55.0000000+00:00</time></trkpt><trkpt lat="42.890678" lon="19.657978"><ele>1924.0</ele><time>2012-04-30T15:59:00.0000000+00:00</time></trkpt><trkpt lat="42.890671" lon="19.65802"><ele>1923.7</ele><time>2012-04-30T15:59:05.0000000+00:00</time></trkpt><trkpt lat="42.890663" lon="19.65802"><ele>1924.0</ele><time>2012-04-30T15:59:10.0000000+00:00</time></trkpt><trkpt lat="42.890663" lon="19.65802"><ele>1924.0</ele><time>2012-04-30T15:59:15.0000000+00:00</time></trkpt><trkpt lat="42.890663" lon="19.658022"><ele>1924.0</ele><time>2012-04-30T15:59:20.0000000+00:00</time></trkpt><trkpt lat="42.890648" lon="19.658079"><ele>1924.3</ele><time>2012-04-30T15:59:25.0000000+00:00</time></trkpt><trkpt lat="42.890652" lon="19.658094"><ele>1924.4</ele><time>2012-04-30T15:59:30.0000000+00:00</time></trkpt><trkpt lat="42.890633" lon="19.658129"><ele>1924.5</ele><time>2012-04-30T15:59:35.0000000+00:00</time></trkpt><trkpt lat="42.890617" lon="19.658169"><ele>1924.9</ele><time>2012-04-30T15:59:40.0000000+00:00</time></trkpt><trkpt lat="42.890594" lon="19.658216"><ele>1924.8</ele><time>2012-04-30T15:59:45.0000000+00:00</time></trkpt><trkpt lat="42.890568" lon="19.658274"><ele>1924.7</ele><time>2012-04-30T15:59:50.0000000+00:00</time></trkpt><trkpt lat="42.890556" lon="19.658325"><ele>1924.1</ele><time>2012-04-30T15:59:55.0000000+00:00</time></trkpt><trkpt lat="42.890556" lon="19.658333"><ele>1923.6</ele><time>2012-04-30T16:00:00.0000000+00:00</time></trkpt><trkpt lat="42.890556" lon="19.658337"><ele>1923.6</ele><time>2012-04-30T16:00:05.0000000+00:00</time></trkpt><trkpt lat="42.890556" lon="19.658337"><ele>1923.6</ele><time>2012-04-30T16:00:10.0000000+00:00</time></trkpt><trkpt lat="42.890556" lon="19.65835"><ele>1923.4</ele><time>2012-04-30T16:00:15.0000000+00:00</time></trkpt><trkpt lat="42.890553" lon="19.658381"><ele>1923.6</ele><time>2012-04-30T16:00:20.0000000+00:00</time></trkpt><trkpt lat="42.890556" lon="19.658386"><ele>1923.6</ele><time>2012-04-30T16:00:25.0000000+00:00</time></trkpt><trkpt lat="42.890533" lon="19.658417"><ele>1923.6</ele><time>2012-04-30T16:00:30.0000000+00:00</time></trkpt><trkpt lat="42.890491" lon="19.658449"><ele>1923.3</ele><time>2012-04-30T16:00:35.0000000+00:00</time></trkpt><trkpt lat="42.890465" lon="19.658504"><ele>1922.8</ele><time>2012-04-30T16:00:40.0000000+00:00</time></trkpt><trkpt lat="42.890442" lon="19.658569"><ele>1923.5</ele><time>2012-04-30T16:00:45.0000000+00:00</time></trkpt><trkpt lat="42.890446" lon="19.658634"><ele>1924.3</ele><time>2012-04-30T16:00:50.0000000+00:00</time></trkpt><trkpt lat="42.890408" lon="19.658672"><ele>1924.5</ele><time>2012-04-30T16:00:55.0000000+00:00</time></trkpt><trkpt lat="42.890369" lon="19.658745"><ele>1924.8</ele><time>2012-04-30T16:01:00.0000000+00:00</time></trkpt><trkpt lat="42.890343" lon="19.658794"><ele>1925.0</ele><time>2012-04-30T16:01:05.0000000+00:00</time></trkpt><trkpt lat="42.890331" lon="19.658855"><ele>1925.0</ele><time>2012-04-30T16:01:10.0000000+00:00</time></trkpt><trkpt lat="42.890327" lon="19.658865"><ele>1924.8</ele><time>2012-04-30T16:01:15.0000000+00:00</time></trkpt><trkpt lat="42.890331" lon="19.658863"><ele>1925.0</ele><time>2012-04-30T16:01:20.0000000+00:00</time></trkpt><trkpt lat="42.890331" lon="19.658863"><ele>1925.3</ele><time>2012-04-30T16:01:25.0000000+00:00</time></trkpt><trkpt lat="42.890312" lon="19.658886"><ele>1925.5</ele><time>2012-04-30T16:01:30.0000000+00:00</time></trkpt><trkpt lat="42.890293" lon="19.658943"><ele>1926.0</ele><time>2012-04-30T16:01:35.0000000+00:00</time></trkpt><trkpt lat="42.890266" lon="19.659004"><ele>1926.1</ele><time>2012-04-30T16:01:40.0000000+00:00</time></trkpt><trkpt lat="42.890244" lon="19.659071"><ele>1925.3</ele><time>2012-04-30T16:01:45.0000000+00:00</time></trkpt><trkpt lat="42.890236" lon="19.6591"><ele>1925.5</ele><time>2012-04-30T16:01:50.0000000+00:00</time></trkpt><trkpt lat="42.890228" lon="19.65913"><ele>1925.8</ele><time>2012-04-30T16:01:55.0000000+00:00</time></trkpt><trkpt lat="42.89019" lon="19.659172"><ele>1925.4</ele><time>2012-04-30T16:02:00.0000000+00:00</time></trkpt><trkpt lat="42.890148" lon="19.659227"><ele>1924.8</ele><time>2012-04-30T16:02:05.0000000+00:00</time></trkpt><trkpt lat="42.890133" lon="19.659285"><ele>1924.6</ele><time>2012-04-30T16:02:10.0000000+00:00</time></trkpt><trkpt lat="42.89011" lon="19.659348"><ele>1924.2</ele><time>2012-04-30T16:02:15.0000000+00:00</time></trkpt><trkpt lat="42.890076" lon="19.659389"><ele>1924.4</ele><time>2012-04-30T16:02:20.0000000+00:00</time></trkpt><trkpt lat="42.89003" lon="19.659445"><ele>1925.5</ele><time>2012-04-30T16:02:25.0000000+00:00</time></trkpt><trkpt lat="42.889992" lon="19.659475"><ele>1925.0</ele><time>2012-04-30T16:02:30.0000000+00:00</time></trkpt><trkpt lat="42.88995" lon="19.659517"><ele>1924.6</ele><time>2012-04-30T16:02:35.0000000+00:00</time></trkpt><trkpt lat="42.889908" lon="19.659565"><ele>1924.3</ele><time>2012-04-30T16:02:40.0000000+00:00</time></trkpt><trkpt lat="42.889881" lon="19.659588"><ele>1924.4</ele><time>2012-04-30T16:02:45.0000000+00:00</time></trkpt><trkpt lat="42.889839" lon="19.659607"><ele>1924.6</ele><time>2012-04-30T16:02:50.0000000+00:00</time></trkpt><trkpt lat="42.889801" lon="19.65963"><ele>1924.7</ele><time>2012-04-30T16:02:55.0000000+00:00</time></trkpt><trkpt lat="42.889778" lon="19.659657"><ele>1924.8</ele><time>2012-04-30T16:03:00.0000000+00:00</time></trkpt><trkpt lat="42.889755" lon="19.659689"><ele>1925.0</ele><time>2012-04-30T16:03:05.0000000+00:00</time></trkpt><trkpt lat="42.889732" lon="19.659742"><ele>1925.3</ele><time>2012-04-30T16:03:10.0000000+00:00</time></trkpt><trkpt lat="42.889706" lon="19.659798"><ele>1925.8</ele><time>2012-04-30T16:03:15.0000000+00:00</time></trkpt><trkpt lat="42.889671" lon="19.659834"><ele>1926.0</ele><time>2012-04-30T16:03:20.0000000+00:00</time></trkpt><trkpt lat="42.889645" lon="19.659874"><ele>1926.6</ele><time>2012-04-30T16:03:25.0000000+00:00</time></trkpt><trkpt lat="42.88961" lon="19.659912"><ele>1927.5</ele><time>2012-04-30T16:03:30.0000000+00:00</time></trkpt><trkpt lat="42.889591" lon="19.659973"><ele>1927.6</ele><time>2012-04-30T16:03:35.0000000+00:00</time></trkpt><trkpt lat="42.889565" lon="19.660019"><ele>1927.8</ele><time>2012-04-30T16:03:40.0000000+00:00</time></trkpt><trkpt lat="42.889534" lon="19.660067"><ele>1929.0</ele><time>2012-04-30T16:03:45.0000000+00:00</time></trkpt><trkpt lat="42.889507" lon="19.66012"><ele>1929.2</ele><time>2012-04-30T16:03:50.0000000+00:00</time></trkpt><trkpt lat="42.889473" lon="19.660151"><ele>1929.6</ele><time>2012-04-30T16:03:55.0000000+00:00</time></trkpt><trkpt lat="42.889454" lon="19.660206"><ele>1929.6</ele><time>2012-04-30T16:04:00.0000000+00:00</time></trkpt><trkpt lat="42.889435" lon="19.66025"><ele>1929.8</ele><time>2012-04-30T16:04:05.0000000+00:00</time></trkpt><trkpt lat="42.889408" lon="19.660286"><ele>1929.8</ele><time>2012-04-30T16:04:10.0000000+00:00</time></trkpt><trkpt lat="42.889366" lon="19.660326"><ele>1930.6</ele><time>2012-04-30T16:04:15.0000000+00:00</time></trkpt><trkpt lat="42.889339" lon="19.660355"><ele>1930.8</ele><time>2012-04-30T16:04:20.0000000+00:00</time></trkpt><trkpt lat="42.889305" lon="19.660395"><ele>1930.9</ele><time>2012-04-30T16:04:25.0000000+00:00</time></trkpt><trkpt lat="42.88929" lon="19.660454"><ele>1931.2</ele><time>2012-04-30T16:04:30.0000000+00:00</time></trkpt><trkpt lat="42.889256" lon="19.660505"><ele>1931.0</ele><time>2012-04-30T16:04:35.0000000+00:00</time></trkpt><trkpt lat="42.889236" lon="19.660551"><ele>1931.1</ele><time>2012-04-30T16:04:40.0000000+00:00</time></trkpt><trkpt lat="42.889214" lon="19.660608"><ele>1931.5</ele><time>2012-04-30T16:04:45.0000000+00:00</time></trkpt><trkpt lat="42.889198" lon="19.66066"><ele>1931.9</ele><time>2012-04-30T16:04:50.0000000+00:00</time></trkpt><trkpt lat="42.889187" lon="19.660702"><ele>1932.0</ele><time>2012-04-30T16:04:55.0000000+00:00</time></trkpt><trkpt lat="42.889168" lon="19.660757"><ele>1932.2</ele><time>2012-04-30T16:05:00.0000000+00:00</time></trkpt><trkpt lat="42.889137" lon="19.660807"><ele>1932.3</ele><time>2012-04-30T16:05:05.0000000+00:00</time></trkpt><trkpt lat="42.889114" lon="19.660851"><ele>1932.3</ele><time>2012-04-30T16:05:10.0000000+00:00</time></trkpt><trkpt lat="42.889088" lon="19.66086"><ele>1932.8</ele><time>2012-04-30T16:05:15.0000000+00:00</time></trkpt><trkpt lat="42.889084" lon="19.660868"><ele>1933.5</ele><time>2012-04-30T16:05:20.0000000+00:00</time></trkpt><trkpt lat="42.889065" lon="19.660885"><ele>1933.4</ele><time>2012-04-30T16:05:25.0000000+00:00</time></trkpt><trkpt lat="42.889061" lon="19.660898"><ele>1933.6</ele><time>2012-04-30T16:05:30.0000000+00:00</time></trkpt><trkpt lat="42.88905" lon="19.66091"><ele>1933.9</ele><time>2012-04-30T16:05:35.0000000+00:00</time></trkpt><trkpt lat="42.889015" lon="19.660915"><ele>1934.0</ele><time>2012-04-30T16:05:40.0000000+00:00</time></trkpt><trkpt lat="42.888973" lon="19.660913"><ele>1934.1</ele><time>2012-04-30T16:05:45.0000000+00:00</time></trkpt><trkpt lat="42.888931" lon="19.660931"><ele>1933.7</ele><time>2012-04-30T16:05:50.0000000+00:00</time></trkpt><trkpt lat="42.888905" lon="19.660934"><ele>1933.9</ele><time>2012-04-30T16:05:55.0000000+00:00</time></trkpt><trkpt lat="42.888905" lon="19.660936"><ele>1933.9</ele><time>2012-04-30T16:06:00.0000000+00:00</time></trkpt><trkpt lat="42.888905" lon="19.66094"><ele>1933.9</ele><time>2012-04-30T16:06:05.0000000+00:00</time></trkpt><trkpt lat="42.888905" lon="19.660942"><ele>1933.8</ele><time>2012-04-30T16:06:10.0000000+00:00</time></trkpt><trkpt lat="42.888905" lon="19.660944"><ele>1933.8</ele><time>2012-04-30T16:06:15.0000000+00:00</time></trkpt><trkpt lat="42.888905" lon="19.660944"><ele>1933.8</ele><time>2012-04-30T16:06:20.0000000+00:00</time></trkpt><trkpt lat="42.888905" lon="19.660944"><ele>1933.8</ele><time>2012-04-30T16:06:25.0000000+00:00</time></trkpt><trkpt lat="42.888905" lon="19.660944"><ele>1933.8</ele><time>2012-04-30T16:06:30.0000000+00:00</time></trkpt><trkpt lat="42.888905" lon="19.660944"><ele>1933.8</ele><time>2012-04-30T16:06:35.0000000+00:00</time></trkpt><trkpt lat="42.888885" lon="19.660944"><ele>1933.7</ele><time>2012-04-30T16:06:40.0000000+00:00</time></trkpt><trkpt lat="42.888817" lon="19.660952"><ele>1934.4</ele><time>2012-04-30T16:06:45.0000000+00:00</time></trkpt><trkpt lat="42.888748" lon="19.660992"><ele>1935.3</ele><time>2012-04-30T16:06:50.0000000+00:00</time></trkpt><trkpt lat="42.888702" lon="19.661039"><ele>1936.7</ele><time>2012-04-30T16:06:55.0000000+00:00</time></trkpt><trkpt lat="42.888664" lon="19.661077"><ele>1936.9</ele><time>2012-04-30T16:07:00.0000000+00:00</time></trkpt><trkpt lat="42.888626" lon="19.661133"><ele>1937.6</ele><time>2012-04-30T16:07:05.0000000+00:00</time></trkpt><trkpt lat="42.888611" lon="19.661201"><ele>1936.9</ele><time>2012-04-30T16:07:10.0000000+00:00</time></trkpt><trkpt lat="42.888592" lon="19.661257"><ele>1937.3</ele><time>2012-04-30T16:07:15.0000000+00:00</time></trkpt><trkpt lat="42.888584" lon="19.661318"><ele>1937.3</ele><time>2012-04-30T16:07:20.0000000+00:00</time></trkpt><trkpt lat="42.88858" lon="19.661383"><ele>1937.7</ele><time>2012-04-30T16:07:25.0000000+00:00</time></trkpt><trkpt lat="42.888588" lon="19.661421"><ele>1937.8</ele><time>2012-04-30T16:07:30.0000000+00:00</time></trkpt><trkpt lat="42.888577" lon="19.661469"><ele>1938.4</ele><time>2012-04-30T16:07:35.0000000+00:00</time></trkpt><trkpt lat="42.888573" lon="19.661514"><ele>1938.1</ele><time>2012-04-30T16:07:40.0000000+00:00</time></trkpt><trkpt lat="42.888561" lon="19.661568"><ele>1938.8</ele><time>2012-04-30T16:07:45.0000000+00:00</time></trkpt><trkpt lat="42.888569" lon="19.661589"><ele>1939.2</ele><time>2012-04-30T16:07:50.0000000+00:00</time></trkpt><trkpt lat="42.888565" lon="19.661648"><ele>1940.0</ele><time>2012-04-30T16:07:55.0000000+00:00</time></trkpt><trkpt lat="42.888565" lon="19.661705"><ele>1941.4</ele><time>2012-04-30T16:08:00.0000000+00:00</time></trkpt><trkpt lat="42.888557" lon="19.661751"><ele>1942.1</ele><time>2012-04-30T16:08:05.0000000+00:00</time></trkpt><trkpt lat="42.88855" lon="19.6618"><ele>1943.2</ele><time>2012-04-30T16:08:10.0000000+00:00</time></trkpt><trkpt lat="42.888557" lon="19.661867"><ele>1943.6</ele><time>2012-04-30T16:08:15.0000000+00:00</time></trkpt><trkpt lat="42.888569" lon="19.661913"><ele>1944.5</ele><time>2012-04-30T16:08:20.0000000+00:00</time></trkpt><trkpt lat="42.888565" lon="19.661924"><ele>1944.1</ele><time>2012-04-30T16:08:25.0000000+00:00</time></trkpt><trkpt lat="42.888561" lon="19.661951"><ele>1944.2</ele><time>2012-04-30T16:08:30.0000000+00:00</time></trkpt><trkpt lat="42.888573" lon="19.661999"><ele>1944.2</ele><time>2012-04-30T16:08:35.0000000+00:00</time></trkpt><trkpt lat="42.88858" lon="19.662046"><ele>1944.0</ele><time>2012-04-30T16:08:40.0000000+00:00</time></trkpt><trkpt lat="42.888592" lon="19.66205"><ele>1943.8</ele><time>2012-04-30T16:08:45.0000000+00:00</time></trkpt><trkpt lat="42.888596" lon="19.662052"><ele>1943.8</ele><time>2012-04-30T16:08:50.0000000+00:00</time></trkpt><trkpt lat="42.888596" lon="19.662054"><ele>1943.9</ele><time>2012-04-30T16:08:55.0000000+00:00</time></trkpt><trkpt lat="42.888596" lon="19.662052"><ele>1944.0</ele><time>2012-04-30T16:09:00.0000000+00:00</time></trkpt><trkpt lat="42.888596" lon="19.66205"><ele>1944.0</ele><time>2012-04-30T16:09:05.0000000+00:00</time></trkpt><trkpt lat="42.888596" lon="19.66205"><ele>1944.0</ele><time>2012-04-30T16:09:10.0000000+00:00</time></trkpt><trkpt lat="42.888596" lon="19.66205"><ele>1944.0</ele><time>2012-04-30T16:09:15.0000000+00:00</time></trkpt><trkpt lat="42.888596" lon="19.66205"><ele>1944.0</ele><time>2012-04-30T16:09:20.0000000+00:00</time></trkpt><trkpt lat="42.888596" lon="19.66205"><ele>1944.1</ele><time>2012-04-30T16:09:25.0000000+00:00</time></trkpt><trkpt lat="42.888596" lon="19.66205"><ele>1944.1</ele><time>2012-04-30T16:09:30.0000000+00:00</time></trkpt><trkpt lat="42.888596" lon="19.66205"><ele>1944.0</ele><time>2012-04-30T16:09:35.0000000+00:00</time></trkpt><trkpt lat="42.888596" lon="19.66205"><ele>1944.0</ele><time>2012-04-30T16:09:40.0000000+00:00</time></trkpt><trkpt lat="42.888596" lon="19.66205"><ele>1944.0</ele><time>2012-04-30T16:09:45.0000000+00:00</time></trkpt><trkpt lat="42.888596" lon="19.66205"><ele>1944.1</ele><time>2012-04-30T16:09:50.0000000+00:00</time></trkpt><trkpt lat="42.888596" lon="19.66205"><ele>1944.1</ele><time>2012-04-30T16:09:55.0000000+00:00</time></trkpt><trkpt lat="42.888596" lon="19.66205"><ele>1944.1</ele><time>2012-04-30T16:10:00.0000000+00:00</time></trkpt><trkpt lat="42.888596" lon="19.66205"><ele>1944.1</ele><time>2012-04-30T16:10:05.0000000+00:00</time></trkpt><trkpt lat="42.888596" lon="19.66205"><ele>1944.1</ele><time>2012-04-30T16:10:10.0000000+00:00</time></trkpt><trkpt lat="42.888596" lon="19.66205"><ele>1944.1</ele><time>2012-04-30T16:10:15.0000000+00:00</time></trkpt><trkpt lat="42.888596" lon="19.66205"><ele>1944.1</ele><time>2012-04-30T16:10:20.0000000+00:00</time></trkpt><trkpt lat="42.888596" lon="19.66205"><ele>1944.1</ele><time>2012-04-30T16:10:25.0000000+00:00</time></trkpt><trkpt lat="42.888596" lon="19.66205"><ele>1944.1</ele><time>2012-04-30T16:10:30.0000000+00:00</time></trkpt><trkpt lat="42.888596" lon="19.66205"><ele>1944.1</ele><time>2012-04-30T16:10:35.0000000+00:00</time></trkpt><trkpt lat="42.888596" lon="19.66205"><ele>1944.1</ele><time>2012-04-30T16:10:40.0000000+00:00</time></trkpt><trkpt lat="42.888596" lon="19.66205"><ele>1944.1</ele><time>2012-04-30T16:10:45.0000000+00:00</time></trkpt><trkpt lat="42.888596" lon="19.662052"><ele>1944.1</ele><time>2012-04-30T16:10:50.0000000+00:00</time></trkpt><trkpt lat="42.888622" lon="19.662117"><ele>1944.7</ele><time>2012-04-30T16:10:55.0000000+00:00</time></trkpt><trkpt lat="42.888653" lon="19.662207"><ele>1944.7</ele><time>2012-04-30T16:11:00.0000000+00:00</time></trkpt><trkpt lat="42.888668" lon="19.662292"><ele>1944.7</ele><time>2012-04-30T16:11:05.0000000+00:00</time></trkpt><trkpt lat="42.888664" lon="19.662395"><ele>1945.2</ele><time>2012-04-30T16:11:10.0000000+00:00</time></trkpt><trkpt lat="42.888695" lon="19.662451"><ele>1945.5</ele><time>2012-04-30T16:11:15.0000000+00:00</time></trkpt><trkpt lat="42.88871" lon="19.662458"><ele>1945.1</ele><time>2012-04-30T16:11:20.0000000+00:00</time></trkpt><trkpt lat="42.88871" lon="19.66246"><ele>1945.0</ele><time>2012-04-30T16:11:25.0000000+00:00</time></trkpt><trkpt lat="42.888706" lon="19.662458"><ele>1945.0</ele><time>2012-04-30T16:11:30.0000000+00:00</time></trkpt><trkpt lat="42.888748" lon="19.6625"><ele>1945.1</ele><time>2012-04-30T16:11:35.0000000+00:00</time></trkpt><trkpt lat="42.888779" lon="19.662561"><ele>1945.3</ele><time>2012-04-30T16:11:40.0000000+00:00</time></trkpt><trkpt lat="42.888783" lon="19.662638"><ele>1945.8</ele><time>2012-04-30T16:11:45.0000000+00:00</time></trkpt><trkpt lat="42.888779" lon="19.662699"><ele>1945.9</ele><time>2012-04-30T16:11:50.0000000+00:00</time></trkpt><trkpt lat="42.888767" lon="19.662754"><ele>1947.0</ele><time>2012-04-30T16:11:55.0000000+00:00</time></trkpt><trkpt lat="42.888756" lon="19.662817"><ele>1947.6</ele><time>2012-04-30T16:12:00.0000000+00:00</time></trkpt><trkpt lat="42.888752" lon="19.662848"><ele>1947.5</ele><time>2012-04-30T16:12:05.0000000+00:00</time></trkpt><trkpt lat="42.888748" lon="19.662899"><ele>1948.5</ele><time>2012-04-30T16:12:10.0000000+00:00</time></trkpt><trkpt lat="42.88876" lon="19.66296"><ele>1950.3</ele><time>2012-04-30T16:12:15.0000000+00:00</time></trkpt><trkpt lat="42.888748" lon="19.663023"><ele>1951.2</ele><time>2012-04-30T16:12:20.0000000+00:00</time></trkpt><trkpt lat="42.888748" lon="19.663073"><ele>1952.0</ele><time>2012-04-30T16:12:25.0000000+00:00</time></trkpt><trkpt lat="42.888756" lon="19.663124"><ele>1952.3</ele><time>2012-04-30T16:12:30.0000000+00:00</time></trkpt><trkpt lat="42.888771" lon="19.663187"><ele>1952.1</ele><time>2012-04-30T16:12:35.0000000+00:00</time></trkpt><trkpt lat="42.88876" lon="19.663244"><ele>1952.0</ele><time>2012-04-30T16:12:40.0000000+00:00</time></trkpt><trkpt lat="42.888733" lon="19.663319"><ele>1952.3</ele><time>2012-04-30T16:12:45.0000000+00:00</time></trkpt><trkpt lat="42.888695" lon="19.66337"><ele>1953.0</ele><time>2012-04-30T16:12:50.0000000+00:00</time></trkpt><trkpt lat="42.888687" lon="19.663448"><ele>1952.8</ele><time>2012-04-30T16:12:55.0000000+00:00</time></trkpt><trkpt lat="42.88868" lon="19.66353"><ele>1952.6</ele><time>2012-04-30T16:13:00.0000000+00:00</time></trkpt><trkpt lat="42.888676" lon="19.663607"><ele>1952.4</ele><time>2012-04-30T16:13:05.0000000+00:00</time></trkpt><trkpt lat="42.888668" lon="19.663656"><ele>1952.1</ele><time>2012-04-30T16:13:10.0000000+00:00</time></trkpt><trkpt lat="42.888657" lon="19.663656"><ele>1952.3</ele><time>2012-04-30T16:13:15.0000000+00:00</time></trkpt><trkpt lat="42.888641" lon="19.663713"><ele>1952.4</ele><time>2012-04-30T16:13:20.0000000+00:00</time></trkpt><trkpt lat="42.88863" lon="19.663778"><ele>1952.2</ele><time>2012-04-30T16:13:25.0000000+00:00</time></trkpt><trkpt lat="42.888618" lon="19.663837"><ele>1951.7</ele><time>2012-04-30T16:13:30.0000000+00:00</time></trkpt><trkpt lat="42.888615" lon="19.663893"><ele>1952.7</ele><time>2012-04-30T16:13:35.0000000+00:00</time></trkpt><trkpt lat="42.888607" lon="19.663937"><ele>1953.6</ele><time>2012-04-30T16:13:40.0000000+00:00</time></trkpt><trkpt lat="42.888599" lon="19.663988"><ele>1953.5</ele><time>2012-04-30T16:13:45.0000000+00:00</time></trkpt><trkpt lat="42.88858" lon="19.664063"><ele>1953.1</ele><time>2012-04-30T16:13:50.0000000+00:00</time></trkpt><trkpt lat="42.888584" lon="19.664116"><ele>1952.3</ele><time>2012-04-30T16:13:55.0000000+00:00</time></trkpt><trkpt lat="42.888554" lon="19.664169"><ele>1952.0</ele><time>2012-04-30T16:14:00.0000000+00:00</time></trkpt><trkpt lat="42.888527" lon="19.664236"><ele>1952.3</ele><time>2012-04-30T16:14:05.0000000+00:00</time></trkpt><trkpt lat="42.888496" lon="19.664295"><ele>1951.9</ele><time>2012-04-30T16:14:10.0000000+00:00</time></trkpt><trkpt lat="42.88847" lon="19.664354"><ele>1952.0</ele><time>2012-04-30T16:14:15.0000000+00:00</time></trkpt><trkpt lat="42.888454" lon="19.664408"><ele>1950.9</ele><time>2012-04-30T16:14:20.0000000+00:00</time></trkpt><trkpt lat="42.888428" lon="19.664471"><ele>1950.3</ele><time>2012-04-30T16:14:25.0000000+00:00</time></trkpt><trkpt lat="42.888401" lon="19.664536"><ele>1949.9</ele><time>2012-04-30T16:14:30.0000000+00:00</time></trkpt><trkpt lat="42.888378" lon="19.664604"><ele>1951.7</ele><time>2012-04-30T16:14:35.0000000+00:00</time></trkpt><trkpt lat="42.88834" lon="19.664667"><ele>1952.9</ele><time>2012-04-30T16:14:40.0000000+00:00</time></trkpt><trkpt lat="42.888298" lon="19.664728"><ele>1953.0</ele><time>2012-04-30T16:14:45.0000000+00:00</time></trkpt><trkpt lat="42.888279" lon="19.664801"><ele>1954.7</ele><time>2012-04-30T16:14:50.0000000+00:00</time></trkpt><trkpt lat="42.888252" lon="19.664856"><ele>1955.3</ele><time>2012-04-30T16:14:55.0000000+00:00</time></trkpt><trkpt lat="42.888233" lon="19.664925"><ele>1955.6</ele><time>2012-04-30T16:15:00.0000000+00:00</time></trkpt><trkpt lat="42.888218" lon="19.665012"><ele>1955.7</ele><time>2012-04-30T16:15:05.0000000+00:00</time></trkpt><trkpt lat="42.888184" lon="19.665089"><ele>1955.5</ele><time>2012-04-30T16:15:10.0000000+00:00</time></trkpt><trkpt lat="42.888138" lon="19.665142"><ele>1954.9</ele><time>2012-04-30T16:15:15.0000000+00:00</time></trkpt><trkpt lat="42.888111" lon="19.66519"><ele>1955.0</ele><time>2012-04-30T16:15:20.0000000+00:00</time></trkpt><trkpt lat="42.888081" lon="19.665239"><ele>1954.4</ele><time>2012-04-30T16:15:25.0000000+00:00</time></trkpt><trkpt lat="42.888065" lon="19.665272"><ele>1953.5</ele><time>2012-04-30T16:15:30.0000000+00:00</time></trkpt><trkpt lat="42.888054" lon="19.665281"><ele>1954.7</ele><time>2012-04-30T16:15:35.0000000+00:00</time></trkpt><trkpt lat="42.888035" lon="19.665304"><ele>1955.0</ele><time>2012-04-30T16:15:40.0000000+00:00</time></trkpt><trkpt lat="42.888012" lon="19.665356"><ele>1954.9</ele><time>2012-04-30T16:15:45.0000000+00:00</time></trkpt><trkpt lat="42.887981" lon="19.665413"><ele>1954.2</ele><time>2012-04-30T16:15:50.0000000+00:00</time></trkpt><trkpt lat="42.887955" lon="19.665476"><ele>1953.9</ele><time>2012-04-30T16:15:55.0000000+00:00</time></trkpt><trkpt lat="42.88792" lon="19.66555"><ele>1954.4</ele><time>2012-04-30T16:16:00.0000000+00:00</time></trkpt><trkpt lat="42.887905" lon="19.665611"><ele>1954.6</ele><time>2012-04-30T16:16:05.0000000+00:00</time></trkpt><trkpt lat="42.887882" lon="19.665665"><ele>1956.2</ele><time>2012-04-30T16:16:10.0000000+00:00</time></trkpt><trkpt lat="42.887836" lon="19.665751"><ele>1957.8</ele><time>2012-04-30T16:16:15.0000000+00:00</time></trkpt><trkpt lat="42.887806" lon="19.665794"><ele>1959.5</ele><time>2012-04-30T16:16:20.0000000+00:00</time></trkpt><trkpt lat="42.887775" lon="19.665861"><ele>1960.7</ele><time>2012-04-30T16:16:25.0000000+00:00</time></trkpt><trkpt lat="42.887768" lon="19.665911"><ele>1961.7</ele><time>2012-04-30T16:16:30.0000000+00:00</time></trkpt><trkpt lat="42.887775" lon="19.665915"><ele>1962.3</ele><time>2012-04-30T16:16:35.0000000+00:00</time></trkpt><trkpt lat="42.887764" lon="19.665981"><ele>1963.4</ele><time>2012-04-30T16:16:40.0000000+00:00</time></trkpt><trkpt lat="42.887733" lon="19.666039"><ele>1963.9</ele><time>2012-04-30T16:16:45.0000000+00:00</time></trkpt><trkpt lat="42.887699" lon="19.666101"><ele>1966.2</ele><time>2012-04-30T16:16:50.0000000+00:00</time></trkpt><trkpt lat="42.887646" lon="19.666164"><ele>1967.0</ele><time>2012-04-30T16:16:55.0000000+00:00</time></trkpt><trkpt lat="42.887608" lon="19.666191"><ele>1967.5</ele><time>2012-04-30T16:17:00.0000000+00:00</time></trkpt><trkpt lat="42.887581" lon="19.666225"><ele>1968.8</ele><time>2012-04-30T16:17:05.0000000+00:00</time></trkpt><trkpt lat="42.887558" lon="19.666283"><ele>1970.3</ele><time>2012-04-30T16:17:10.0000000+00:00</time></trkpt><trkpt lat="42.887554" lon="19.666311"><ele>1969.7</ele><time>2012-04-30T16:17:15.0000000+00:00</time></trkpt><trkpt lat="42.887539" lon="19.66638"><ele>1971.7</ele><time>2012-04-30T16:17:20.0000000+00:00</time></trkpt><trkpt lat="42.887524" lon="19.666443"><ele>1972.5</ele><time>2012-04-30T16:17:25.0000000+00:00</time></trkpt><trkpt lat="42.887501" lon="19.666502"><ele>1974.5</ele><time>2012-04-30T16:17:30.0000000+00:00</time></trkpt><trkpt lat="42.887466" lon="19.666548"><ele>1975.1</ele><time>2012-04-30T16:17:35.0000000+00:00</time></trkpt><trkpt lat="42.88744" lon="19.666597"><ele>1975.1</ele><time>2012-04-30T16:17:40.0000000+00:00</time></trkpt><trkpt lat="42.887402" lon="19.666639"><ele>1974.7</ele><time>2012-04-30T16:17:45.0000000+00:00</time></trkpt><trkpt lat="42.887394" lon="19.666658"><ele>1974.0</ele><time>2012-04-30T16:17:50.0000000+00:00</time></trkpt><trkpt lat="42.887371" lon="19.666681"><ele>1972.8</ele><time>2012-04-30T16:17:55.0000000+00:00</time></trkpt><trkpt lat="42.887356" lon="19.666731"><ele>1973.0</ele><time>2012-04-30T16:18:00.0000000+00:00</time></trkpt><trkpt lat="42.887329" lon="19.666813"><ele>1974.0</ele><time>2012-04-30T16:18:05.0000000+00:00</time></trkpt><trkpt lat="42.887299" lon="19.666855"><ele>1974.0</ele><time>2012-04-30T16:18:10.0000000+00:00</time></trkpt><trkpt lat="42.887283" lon="19.666885"><ele>1973.3</ele><time>2012-04-30T16:18:15.0000000+00:00</time></trkpt><trkpt lat="42.88728" lon="19.666927"><ele>1973.3</ele><time>2012-04-30T16:18:20.0000000+00:00</time></trkpt><trkpt lat="42.887272" lon="19.666979"><ele>1973.4</ele><time>2012-04-30T16:18:25.0000000+00:00</time></trkpt><trkpt lat="42.887241" lon="19.667015"><ele>1973.5</ele><time>2012-04-30T16:18:30.0000000+00:00</time></trkpt><trkpt lat="42.887211" lon="19.667091"><ele>1973.4</ele><time>2012-04-30T16:18:35.0000000+00:00</time></trkpt><trkpt lat="42.88718" lon="19.66715"><ele>1973.7</ele><time>2012-04-30T16:18:40.0000000+00:00</time></trkpt><trkpt lat="42.887146" lon="19.667187"><ele>1974.0</ele><time>2012-04-30T16:18:45.0000000+00:00</time></trkpt><trkpt lat="42.887127" lon="19.667191"><ele>1974.5</ele><time>2012-04-30T16:18:50.0000000+00:00</time></trkpt><trkpt lat="42.887119" lon="19.667187"><ele>1974.9</ele><time>2012-04-30T16:18:55.0000000+00:00</time></trkpt><trkpt lat="42.887119" lon="19.667187"><ele>1975.0</ele><time>2012-04-30T16:19:00.0000000+00:00</time></trkpt><trkpt lat="42.887115" lon="19.667187"><ele>1975.0</ele><time>2012-04-30T16:19:05.0000000+00:00</time></trkpt><trkpt lat="42.887115" lon="19.667187"><ele>1975.1</ele><time>2012-04-30T16:19:10.0000000+00:00</time></trkpt><trkpt lat="42.887115" lon="19.667187"><ele>1975.1</ele><time>2012-04-30T16:19:15.0000000+00:00</time></trkpt><trkpt lat="42.887115" lon="19.667187"><ele>1975.1</ele><time>2012-04-30T16:19:20.0000000+00:00</time></trkpt><trkpt lat="42.887115" lon="19.667187"><ele>1975.1</ele><time>2012-04-30T16:19:25.0000000+00:00</time></trkpt><trkpt lat="42.887115" lon="19.667189"><ele>1975.1</ele><time>2012-04-30T16:19:30.0000000+00:00</time></trkpt><trkpt lat="42.887115" lon="19.667189"><ele>1975.2</ele><time>2012-04-30T16:19:35.0000000+00:00</time></trkpt><trkpt lat="42.887115" lon="19.667187"><ele>1975.2</ele><time>2012-04-30T16:19:40.0000000+00:00</time></trkpt><trkpt lat="42.887115" lon="19.667189"><ele>1975.2</ele><time>2012-04-30T16:19:45.0000000+00:00</time></trkpt><trkpt lat="42.887112" lon="19.667204"><ele>1975.1</ele><time>2012-04-30T16:19:50.0000000+00:00</time></trkpt><trkpt lat="42.887096" lon="19.667288"><ele>1975.2</ele><time>2012-04-30T16:19:55.0000000+00:00</time></trkpt><trkpt lat="42.887054" lon="19.667393"><ele>1975.7</ele><time>2012-04-30T16:20:00.0000000+00:00</time></trkpt><trkpt lat="42.887001" lon="19.667475"><ele>1976.2</ele><time>2012-04-30T16:20:05.0000000+00:00</time></trkpt><trkpt lat="42.886951" lon="19.66754"><ele>1976.2</ele><time>2012-04-30T16:20:10.0000000+00:00</time></trkpt><trkpt lat="42.886921" lon="19.66761"><ele>1976.5</ele><time>2012-04-30T16:20:15.0000000+00:00</time></trkpt><trkpt lat="42.88686" lon="19.66766"><ele>1977.6</ele><time>2012-04-30T16:20:20.0000000+00:00</time></trkpt><trkpt lat="42.886822" lon="19.667677"><ele>1976.7</ele><time>2012-04-30T16:20:25.0000000+00:00</time></trkpt><trkpt lat="42.886787" lon="19.667662"><ele>1973.0</ele><time>2012-04-30T16:20:30.0000000+00:00</time></trkpt><trkpt lat="42.886738" lon="19.667694"><ele>1970.8</ele><time>2012-04-30T16:20:35.0000000+00:00</time></trkpt><trkpt lat="42.886703" lon="19.667744"><ele>1969.0</ele><time>2012-04-30T16:20:40.0000000+00:00</time></trkpt><trkpt lat="42.886665" lon="19.667788"><ele>1965.3</ele><time>2012-04-30T16:20:45.0000000+00:00</time></trkpt><trkpt lat="42.8866" lon="19.667809"><ele>1963.9</ele><time>2012-04-30T16:20:50.0000000+00:00</time></trkpt><trkpt lat="42.886566" lon="19.66781"><ele>1962.7</ele><time>2012-04-30T16:20:55.0000000+00:00</time></trkpt><trkpt lat="42.886517" lon="19.667854"><ele>1963.3</ele><time>2012-04-30T16:21:00.0000000+00:00</time></trkpt><trkpt lat="42.886478" lon="19.6679"><ele>1964.2</ele><time>2012-04-30T16:21:05.0000000+00:00</time></trkpt><trkpt lat="42.886448" lon="19.667952"><ele>1963.8</ele><time>2012-04-30T16:21:10.0000000+00:00</time></trkpt><trkpt lat="42.886417" lon="19.668013"><ele>1964.4</ele><time>2012-04-30T16:21:15.0000000+00:00</time></trkpt><trkpt lat="42.886383" lon="19.668064"><ele>1965.3</ele><time>2012-04-30T16:21:20.0000000+00:00</time></trkpt><trkpt lat="42.886353" lon="19.668121"><ele>1965.3</ele><time>2012-04-30T16:21:25.0000000+00:00</time></trkpt><trkpt lat="42.886314" lon="19.668165"><ele>1965.0</ele><time>2012-04-30T16:21:30.0000000+00:00</time></trkpt><trkpt lat="42.886295" lon="19.668222"><ele>1965.6</ele><time>2012-04-30T16:21:35.0000000+00:00</time></trkpt><trkpt lat="42.886276" lon="19.668282"><ele>1966.2</ele><time>2012-04-30T16:21:40.0000000+00:00</time></trkpt><trkpt lat="42.886253" lon="19.668335"><ele>1967.0</ele><time>2012-04-30T16:21:45.0000000+00:00</time></trkpt><trkpt lat="42.886234" lon="19.668358"><ele>1967.2</ele><time>2012-04-30T16:21:50.0000000+00:00</time></trkpt><trkpt lat="42.886234" lon="19.668356"><ele>1967.5</ele><time>2012-04-30T16:21:55.0000000+00:00</time></trkpt><trkpt lat="42.886234" lon="19.668348"><ele>1967.5</ele><time>2012-04-30T16:22:00.0000000+00:00</time></trkpt><trkpt lat="42.886238" lon="19.668341"><ele>1967.2</ele><time>2012-04-30T16:22:05.0000000+00:00</time></trkpt><trkpt lat="42.88625" lon="19.668343"><ele>1966.8</ele><time>2012-04-30T16:22:10.0000000+00:00</time></trkpt><trkpt lat="42.886253" lon="19.668344"><ele>1966.3</ele><time>2012-04-30T16:22:15.0000000+00:00</time></trkpt><trkpt lat="42.886257" lon="19.668344"><ele>1966.0</ele><time>2012-04-30T16:22:20.0000000+00:00</time></trkpt><trkpt lat="42.886265" lon="19.668346"><ele>1965.8</ele><time>2012-04-30T16:22:25.0000000+00:00</time></trkpt><trkpt lat="42.886265" lon="19.668343"><ele>1965.7</ele><time>2012-04-30T16:22:30.0000000+00:00</time></trkpt><trkpt lat="42.886269" lon="19.668343"><ele>1965.7</ele><time>2012-04-30T16:22:35.0000000+00:00</time></trkpt><trkpt lat="42.886272" lon="19.668339"><ele>1965.6</ele><time>2012-04-30T16:22:40.0000000+00:00</time></trkpt><trkpt lat="42.886272" lon="19.668337"><ele>1965.6</ele><time>2012-04-30T16:22:45.0000000+00:00</time></trkpt><trkpt lat="42.886272" lon="19.668339"><ele>1965.6</ele><time>2012-04-30T16:22:50.0000000+00:00</time></trkpt><trkpt lat="42.886272" lon="19.668339"><ele>1965.6</ele><time>2012-04-30T16:22:55.0000000+00:00</time></trkpt><trkpt lat="42.886272" lon="19.668339"><ele>1965.6</ele><time>2012-04-30T16:23:00.0000000+00:00</time></trkpt><trkpt lat="42.886272" lon="19.668337"><ele>1965.6</ele><time>2012-04-30T16:23:05.0000000+00:00</time></trkpt><trkpt lat="42.886269" lon="19.668337"><ele>1965.6</ele><time>2012-04-30T16:23:10.0000000+00:00</time></trkpt><trkpt lat="42.886269" lon="19.668337"><ele>1965.6</ele><time>2012-04-30T16:23:15.0000000+00:00</time></trkpt><trkpt lat="42.886272" lon="19.668337"><ele>1965.6</ele><time>2012-04-30T16:23:20.0000000+00:00</time></trkpt><trkpt lat="42.886269" lon="19.668337"><ele>1965.6</ele><time>2012-04-30T16:23:25.0000000+00:00</time></trkpt><trkpt lat="42.886269" lon="19.668337"><ele>1965.6</ele><time>2012-04-30T16:23:30.0000000+00:00</time></trkpt><trkpt lat="42.886269" lon="19.668337"><ele>1965.6</ele><time>2012-04-30T16:23:35.0000000+00:00</time></trkpt><trkpt lat="42.886269" lon="19.668337"><ele>1965.7</ele><time>2012-04-30T16:23:40.0000000+00:00</time></trkpt><trkpt lat="42.886269" lon="19.668337"><ele>1965.7</ele><time>2012-04-30T16:23:45.0000000+00:00</time></trkpt><trkpt lat="42.886269" lon="19.668337"><ele>1965.7</ele><time>2012-04-30T16:23:50.0000000+00:00</time></trkpt><trkpt lat="42.886269" lon="19.668337"><ele>1965.7</ele><time>2012-04-30T16:23:55.0000000+00:00</time></trkpt><trkpt lat="42.886269" lon="19.668337"><ele>1965.7</ele><time>2012-04-30T16:24:00.0000000+00:00</time></trkpt><trkpt lat="42.886269" lon="19.668337"><ele>1965.7</ele><time>2012-04-30T16:24:05.0000000+00:00</time></trkpt><trkpt lat="42.886269" lon="19.668337"><ele>1965.7</ele><time>2012-04-30T16:24:10.0000000+00:00</time></trkpt><trkpt lat="42.886269" lon="19.668337"><ele>1965.7</ele><time>2012-04-30T16:24:15.0000000+00:00</time></trkpt><trkpt lat="42.886269" lon="19.668337"><ele>1965.7</ele><time>2012-04-30T16:24:20.0000000+00:00</time></trkpt><trkpt lat="42.886269" lon="19.668337"><ele>1965.7</ele><time>2012-04-30T16:24:25.0000000+00:00</time></trkpt><trkpt lat="42.886269" lon="19.668337"><ele>1965.7</ele><time>2012-04-30T16:24:30.0000000+00:00</time></trkpt><trkpt lat="42.886269" lon="19.668337"><ele>1965.7</ele><time>2012-04-30T16:24:35.0000000+00:00</time></trkpt><trkpt lat="42.886269" lon="19.668337"><ele>1965.7</ele><time>2012-04-30T16:24:40.0000000+00:00</time></trkpt><trkpt lat="42.886269" lon="19.668337"><ele>1965.7</ele><time>2012-04-30T16:24:45.0000000+00:00</time></trkpt><trkpt lat="42.886269" lon="19.668337"><ele>1965.7</ele><time>2012-04-30T16:24:50.0000000+00:00</time></trkpt><trkpt lat="42.886269" lon="19.668337"><ele>1965.8</ele><time>2012-04-30T16:24:55.0000000+00:00</time></trkpt><trkpt lat="42.886269" lon="19.668337"><ele>1965.7</ele><time>2012-04-30T16:25:00.0000000+00:00</time></trkpt><trkpt lat="42.886269" lon="19.668337"><ele>1965.7</ele><time>2012-04-30T16:25:05.0000000+00:00</time></trkpt><trkpt lat="42.886269" lon="19.668335"><ele>1965.8</ele><time>2012-04-30T16:25:10.0000000+00:00</time></trkpt><trkpt lat="42.886269" lon="19.668335"><ele>1965.8</ele><time>2012-04-30T16:25:15.0000000+00:00</time></trkpt><trkpt lat="42.886269" lon="19.668335"><ele>1965.8</ele><time>2012-04-30T16:25:20.0000000+00:00</time></trkpt><trkpt lat="42.886265" lon="19.668335"><ele>1965.8</ele><time>2012-04-30T16:25:25.0000000+00:00</time></trkpt><trkpt lat="42.886265" lon="19.668337"><ele>1965.8</ele><time>2012-04-30T16:25:30.0000000+00:00</time></trkpt><trkpt lat="42.886265" lon="19.668335"><ele>1965.8</ele><time>2012-04-30T16:25:35.0000000+00:00</time></trkpt><trkpt lat="42.886265" lon="19.668335"><ele>1965.8</ele><time>2012-04-30T16:25:40.0000000+00:00</time></trkpt><trkpt lat="42.886269" lon="19.668333"><ele>1965.8</ele><time>2012-04-30T16:25:45.0000000+00:00</time></trkpt><trkpt lat="42.886375" lon="19.668278"><ele>1965.5</ele><time>2012-04-30T16:25:50.0000000+00:00</time></trkpt><trkpt lat="42.886524" lon="19.668173"><ele>1966.2</ele><time>2012-04-30T16:25:55.0000000+00:00</time></trkpt><trkpt lat="42.886673" lon="19.668118"><ele>1967.2</ele><time>2012-04-30T16:26:00.0000000+00:00</time></trkpt><trkpt lat="42.88681" lon="19.668037"><ele>1967.9</ele><time>2012-04-30T16:26:05.0000000+00:00</time></trkpt><trkpt lat="42.886936" lon="19.66803"><ele>1966.0</ele><time>2012-04-30T16:26:10.0000000+00:00</time></trkpt><trkpt lat="42.887066" lon="19.668032"><ele>1967.2</ele><time>2012-04-30T16:26:15.0000000+00:00</time></trkpt><trkpt lat="42.887096" lon="19.668064"><ele>1971.8</ele><time>2012-04-30T16:26:20.0000000+00:00</time></trkpt><trkpt lat="42.887112" lon="19.668112"><ele>1978.0</ele><time>2012-04-30T16:26:25.0000000+00:00</time></trkpt><trkpt lat="42.887131" lon="19.668112"><ele>1980.8</ele><time>2012-04-30T16:26:30.0000000+00:00</time></trkpt><trkpt lat="42.887169" lon="19.668093"><ele>1982.8</ele><time>2012-04-30T16:26:35.0000000+00:00</time></trkpt><trkpt lat="42.887215" lon="19.668108"><ele>1985.8</ele><time>2012-04-30T16:26:40.0000000+00:00</time></trkpt><trkpt lat="42.88723" lon="19.668177"><ele>1989.7</ele><time>2012-04-30T16:26:45.0000000+00:00</time></trkpt><trkpt lat="42.887226" lon="19.668179"><ele>1991.5</ele><time>2012-04-30T16:26:50.0000000+00:00</time></trkpt><trkpt lat="42.887264" lon="19.668154"><ele>1992.2</ele><time>2012-04-30T16:26:55.0000000+00:00</time></trkpt><trkpt lat="42.887325" lon="19.668119"><ele>1992.5</ele><time>2012-04-30T16:27:00.0000000+00:00</time></trkpt><trkpt lat="42.887363" lon="19.668079"><ele>1992.4</ele><time>2012-04-30T16:27:05.0000000+00:00</time></trkpt><trkpt lat="42.887413" lon="19.668066"><ele>1993.0</ele><time>2012-04-30T16:27:10.0000000+00:00</time></trkpt><trkpt lat="42.887455" lon="19.668056"><ele>1993.5</ele><time>2012-04-30T16:27:15.0000000+00:00</time></trkpt><trkpt lat="42.887478" lon="19.668055"><ele>1994.3</ele><time>2012-04-30T16:27:20.0000000+00:00</time></trkpt><trkpt lat="42.887474" lon="19.668053"><ele>1995.0</ele><time>2012-04-30T16:27:25.0000000+00:00</time></trkpt><trkpt lat="42.887478" lon="19.668049"><ele>1996.0</ele><time>2012-04-30T16:27:30.0000000+00:00</time></trkpt><trkpt lat="42.887478" lon="19.668047"><ele>1996.9</ele><time>2012-04-30T16:27:35.0000000+00:00</time></trkpt><trkpt lat="42.88747" lon="19.668049"><ele>1997.7</ele><time>2012-04-30T16:27:40.0000000+00:00</time></trkpt><trkpt lat="42.887463" lon="19.668053"><ele>1998.4</ele><time>2012-04-30T16:27:45.0000000+00:00</time></trkpt><trkpt lat="42.887455" lon="19.668056"><ele>1999.0</ele><time>2012-04-30T16:27:50.0000000+00:00</time></trkpt><trkpt lat="42.887447" lon="19.668062"><ele>1999.5</ele><time>2012-04-30T16:27:55.0000000+00:00</time></trkpt><trkpt lat="42.887436" lon="19.668062"><ele>1999.8</ele><time>2012-04-30T16:28:00.0000000+00:00</time></trkpt><trkpt lat="42.887447" lon="19.668068"><ele>1997.1</ele><time>2012-04-30T16:28:05.0000000+00:00</time></trkpt><trkpt lat="42.887447" lon="19.668068"><ele>1993.2</ele><time>2012-04-30T16:28:10.0000000+00:00</time></trkpt><trkpt lat="42.88744" lon="19.668097"><ele>1992.0</ele><time>2012-04-30T16:28:15.0000000+00:00</time></trkpt><trkpt lat="42.887424" lon="19.668091"><ele>1991.4</ele><time>2012-04-30T16:28:20.0000000+00:00</time></trkpt><trkpt lat="42.887386" lon="19.668058"><ele>1990.9</ele><time>2012-04-30T16:28:25.0000000+00:00</time></trkpt><trkpt lat="42.887299" lon="19.668043"><ele>1989.8</ele><time>2012-04-30T16:28:30.0000000+00:00</time></trkpt><trkpt lat="42.887226" lon="19.668049"><ele>1988.9</ele><time>2012-04-30T16:28:35.0000000+00:00</time></trkpt><trkpt lat="42.887199" lon="19.66806"><ele>1987.9</ele><time>2012-04-30T16:28:40.0000000+00:00</time></trkpt><trkpt lat="42.887157" lon="19.668037"><ele>1987.0</ele><time>2012-04-30T16:28:45.0000000+00:00</time></trkpt><trkpt lat="42.887131" lon="19.66803"><ele>1986.1</ele><time>2012-04-30T16:28:50.0000000+00:00</time></trkpt><trkpt lat="42.887081" lon="19.668034"><ele>1985.2</ele><time>2012-04-30T16:28:55.0000000+00:00</time></trkpt><trkpt lat="42.887024" lon="19.668058"><ele>1984.5</ele><time>2012-04-30T16:29:00.0000000+00:00</time></trkpt><trkpt lat="42.886974" lon="19.66806"><ele>1984.2</ele><time>2012-04-30T16:29:05.0000000+00:00</time></trkpt><trkpt lat="42.886898" lon="19.668081"><ele>1984.0</ele><time>2012-04-30T16:29:10.0000000+00:00</time></trkpt><trkpt lat="42.886818" lon="19.668102"><ele>1983.7</ele><time>2012-04-30T16:29:15.0000000+00:00</time></trkpt><trkpt lat="42.886745" lon="19.668112"><ele>1983.0</ele><time>2012-04-30T16:29:20.0000000+00:00</time></trkpt><trkpt lat="42.88673" lon="19.668106"><ele>1982.0</ele><time>2012-04-30T16:29:25.0000000+00:00</time></trkpt><trkpt lat="42.886677" lon="19.668121"><ele>1981.0</ele><time>2012-04-30T16:29:30.0000000+00:00</time></trkpt><trkpt lat="42.886635" lon="19.668173"><ele>1979.8</ele><time>2012-04-30T16:29:35.0000000+00:00</time></trkpt><trkpt lat="42.886589" lon="19.668179"><ele>1978.1</ele><time>2012-04-30T16:29:40.0000000+00:00</time></trkpt><trkpt lat="42.886528" lon="19.668224"><ele>1976.4</ele><time>2012-04-30T16:29:45.0000000+00:00</time></trkpt><trkpt lat="42.886459" lon="19.668253"><ele>1975.0</ele><time>2012-04-30T16:29:50.0000000+00:00</time></trkpt><trkpt lat="42.886414" lon="19.668262"><ele>1974.1</ele><time>2012-04-30T16:29:55.0000000+00:00</time></trkpt><trkpt lat="42.886345" lon="19.668308"><ele>1973.3</ele><time>2012-04-30T16:30:00.0000000+00:00</time></trkpt><trkpt lat="42.88628" lon="19.668339"><ele>1972.7</ele><time>2012-04-30T16:30:05.0000000+00:00</time></trkpt><trkpt lat="42.886253" lon="19.66835"><ele>1971.3</ele><time>2012-04-30T16:30:10.0000000+00:00</time></trkpt><trkpt lat="42.886246" lon="19.668373"><ele>1970.7</ele><time>2012-04-30T16:30:15.0000000+00:00</time></trkpt><trkpt lat="42.886238" lon="19.668383"><ele>1969.7</ele><time>2012-04-30T16:30:20.0000000+00:00</time></trkpt><trkpt lat="42.886234" lon="19.66839"><ele>1969.0</ele><time>2012-04-30T16:30:25.0000000+00:00</time></trkpt><trkpt lat="42.886219" lon="19.668386"><ele>1969.5</ele><time>2012-04-30T16:30:30.0000000+00:00</time></trkpt><trkpt lat="42.886215" lon="19.668386"><ele>1969.5</ele><time>2012-04-30T16:30:35.0000000+00:00</time></trkpt><trkpt lat="42.886204" lon="19.6684"><ele>1969.9</ele><time>2012-04-30T16:30:40.0000000+00:00</time></trkpt><trkpt lat="42.8862" lon="19.668407"><ele>1970.3</ele><time>2012-04-30T16:30:45.0000000+00:00</time></trkpt><trkpt lat="42.886204" lon="19.668409"><ele>1970.3</ele><time>2012-04-30T16:30:50.0000000+00:00</time></trkpt><trkpt lat="42.886204" lon="19.668392"><ele>1969.7</ele><time>2012-04-30T16:30:55.0000000+00:00</time></trkpt><trkpt lat="42.886196" lon="19.668385"><ele>1969.6</ele><time>2012-04-30T16:31:00.0000000+00:00</time></trkpt><trkpt lat="42.886196" lon="19.668379"><ele>1969.6</ele><time>2012-04-30T16:31:05.0000000+00:00</time></trkpt><trkpt lat="42.8862" lon="19.668375"><ele>1969.7</ele><time>2012-04-30T16:31:10.0000000+00:00</time></trkpt><trkpt lat="42.886204" lon="19.668362"><ele>1969.7</ele><time>2012-04-30T16:31:15.0000000+00:00</time></trkpt><trkpt lat="42.886204" lon="19.668356"><ele>1969.1</ele><time>2012-04-30T16:31:20.0000000+00:00</time></trkpt><trkpt lat="42.886208" lon="19.66835"><ele>1969.1</ele><time>2012-04-30T16:31:25.0000000+00:00</time></trkpt><trkpt lat="42.886211" lon="19.66835"><ele>1969.1</ele><time>2012-04-30T16:31:30.0000000+00:00</time></trkpt><trkpt lat="42.886211" lon="19.66835"><ele>1969.0</ele><time>2012-04-30T16:31:35.0000000+00:00</time></trkpt><trkpt lat="42.886211" lon="19.66835"><ele>1969.0</ele><time>2012-04-30T16:31:40.0000000+00:00</time></trkpt><trkpt lat="42.886211" lon="19.66835"><ele>1969.0</ele><time>2012-04-30T16:31:45.0000000+00:00</time></trkpt><trkpt lat="42.886211" lon="19.66835"><ele>1969.0</ele><time>2012-04-30T16:31:50.0000000+00:00</time></trkpt><trkpt lat="42.886211" lon="19.668352"><ele>1969.0</ele><time>2012-04-30T16:31:55.0000000+00:00</time></trkpt><trkpt lat="42.886211" lon="19.668352"><ele>1969.0</ele><time>2012-04-30T16:32:00.0000000+00:00</time></trkpt><trkpt lat="42.886211" lon="19.668352"><ele>1969.0</ele><time>2012-04-30T16:32:05.0000000+00:00</time></trkpt><trkpt lat="42.886211" lon="19.668352"><ele>1969.0</ele><time>2012-04-30T16:32:10.0000000+00:00</time></trkpt><trkpt lat="42.886211" lon="19.668352"><ele>1968.9</ele><time>2012-04-30T16:32:15.0000000+00:00</time></trkpt><trkpt lat="42.886211" lon="19.668352"><ele>1968.9</ele><time>2012-04-30T16:32:20.0000000+00:00</time></trkpt><trkpt lat="42.886211" lon="19.668352"><ele>1968.9</ele><time>2012-04-30T16:32:25.0000000+00:00</time></trkpt><trkpt lat="42.886211" lon="19.668352"><ele>1968.9</ele><time>2012-04-30T16:32:30.0000000+00:00</time></trkpt><trkpt lat="42.886211" lon="19.668352"><ele>1968.9</ele><time>2012-04-30T16:32:35.0000000+00:00</time></trkpt><trkpt lat="42.886211" lon="19.668352"><ele>1968.9</ele><time>2012-04-30T16:32:40.0000000+00:00</time></trkpt><trkpt lat="42.886211" lon="19.668352"><ele>1968.9</ele><time>2012-04-30T16:32:45.0000000+00:00</time></trkpt><trkpt lat="42.886211" lon="19.668352"><ele>1968.9</ele><time>2012-04-30T16:32:50.0000000+00:00</time></trkpt><trkpt lat="42.886211" lon="19.668352"><ele>1968.9</ele><time>2012-04-30T16:32:55.0000000+00:00</time></trkpt><trkpt lat="42.886211" lon="19.668352"><ele>1968.8</ele><time>2012-04-30T16:33:00.0000000+00:00</time></trkpt><trkpt lat="42.886215" lon="19.668352"><ele>1968.8</ele><time>2012-04-30T16:33:05.0000000+00:00</time></trkpt><trkpt lat="42.886215" lon="19.668352"><ele>1968.7</ele><time>2012-04-30T16:33:10.0000000+00:00</time></trkpt><trkpt lat="42.886215" lon="19.668352"><ele>1968.7</ele><time>2012-04-30T16:33:15.0000000+00:00</time></trkpt><trkpt lat="42.886215" lon="19.668352"><ele>1968.7</ele><time>2012-04-30T16:33:20.0000000+00:00</time></trkpt><trkpt lat="42.886215" lon="19.668352"><ele>1968.7</ele><time>2012-04-30T16:33:25.0000000+00:00</time></trkpt><trkpt lat="42.886215" lon="19.668352"><ele>1968.7</ele><time>2012-04-30T16:33:30.0000000+00:00</time></trkpt><trkpt lat="42.886208" lon="19.66836"><ele>1968.6</ele><time>2012-04-30T16:33:35.0000000+00:00</time></trkpt><trkpt lat="42.886169" lon="19.66836"><ele>1968.4</ele><time>2012-04-30T16:33:40.0000000+00:00</time></trkpt><trkpt lat="42.88612" lon="19.668362"><ele>1968.9</ele><time>2012-04-30T16:33:45.0000000+00:00</time></trkpt><trkpt lat="42.886059" lon="19.668367"><ele>1968.8</ele><time>2012-04-30T16:33:50.0000000+00:00</time></trkpt><trkpt lat="42.886013" lon="19.668394"><ele>1968.7</ele><time>2012-04-30T16:33:55.0000000+00:00</time></trkpt><trkpt lat="42.885979" lon="19.668438"><ele>1968.3</ele><time>2012-04-30T16:34:00.0000000+00:00</time></trkpt><trkpt lat="42.885948" lon="19.668491"><ele>1968.3</ele><time>2012-04-30T16:34:05.0000000+00:00</time></trkpt><trkpt lat="42.885921" lon="19.668547"><ele>1967.8</ele><time>2012-04-30T16:34:10.0000000+00:00</time></trkpt><trkpt lat="42.885883" lon="19.668579"><ele>1968.4</ele><time>2012-04-30T16:34:15.0000000+00:00</time></trkpt><trkpt lat="42.885845" lon="19.668598"><ele>1969.4</ele><time>2012-04-30T16:34:20.0000000+00:00</time></trkpt><trkpt lat="42.885799" lon="19.668627"><ele>1970.6</ele><time>2012-04-30T16:34:25.0000000+00:00</time></trkpt><trkpt lat="42.88575" lon="19.668657"><ele>1970.7</ele><time>2012-04-30T16:34:30.0000000+00:00</time></trkpt><trkpt lat="42.885708" lon="19.668694"><ele>1971.0</ele><time>2012-04-30T16:34:35.0000000+00:00</time></trkpt><trkpt lat="42.885666" lon="19.668739"><ele>1972.5</ele><time>2012-04-30T16:34:40.0000000+00:00</time></trkpt><trkpt lat="42.885639" lon="19.668783"><ele>1973.5</ele><time>2012-04-30T16:34:45.0000000+00:00</time></trkpt><trkpt lat="42.885612" lon="19.66884"><ele>1973.9</ele><time>2012-04-30T16:34:50.0000000+00:00</time></trkpt><trkpt lat="42.885605" lon="19.668915"><ele>1973.8</ele><time>2012-04-30T16:34:55.0000000+00:00</time></trkpt><trkpt lat="42.88559" lon="19.668989"><ele>1973.8</ele><time>2012-04-30T16:35:00.0000000+00:00</time></trkpt><trkpt lat="42.885586" lon="19.66906"><ele>1974.0</ele><time>2012-04-30T16:35:05.0000000+00:00</time></trkpt><trkpt lat="42.885574" lon="19.66913"><ele>1974.0</ele><time>2012-04-30T16:35:10.0000000+00:00</time></trkpt><trkpt lat="42.885555" lon="19.669203"><ele>1974.5</ele><time>2012-04-30T16:35:15.0000000+00:00</time></trkpt><trkpt lat="42.88554" lon="19.669277"><ele>1974.3</ele><time>2012-04-30T16:35:20.0000000+00:00</time></trkpt><trkpt lat="42.885525" lon="19.669355"><ele>1973.9</ele><time>2012-04-30T16:35:25.0000000+00:00</time></trkpt><trkpt lat="42.885509" lon="19.669447"><ele>1973.7</ele><time>2012-04-30T16:35:30.0000000+00:00</time></trkpt><trkpt lat="42.88549" lon="19.669527"><ele>1973.0</ele><time>2012-04-30T16:35:35.0000000+00:00</time></trkpt><trkpt lat="42.885475" lon="19.669605"><ele>1972.5</ele><time>2012-04-30T16:35:40.0000000+00:00</time></trkpt><trkpt lat="42.885464" lon="19.669674"><ele>1971.1</ele><time>2012-04-30T16:35:45.0000000+00:00</time></trkpt><trkpt lat="42.885456" lon="19.669708"><ele>1970.5</ele><time>2012-04-30T16:35:50.0000000+00:00</time></trkpt><trkpt lat="42.885452" lon="19.669764"><ele>1969.7</ele><time>2012-04-30T16:35:55.0000000+00:00</time></trkpt><trkpt lat="42.885468" lon="19.669823"><ele>1968.5</ele><time>2012-04-30T16:36:00.0000000+00:00</time></trkpt><trkpt lat="42.885479" lon="19.669897"><ele>1966.9</ele><time>2012-04-30T16:36:05.0000000+00:00</time></trkpt><trkpt lat="42.885475" lon="19.66995"><ele>1965.9</ele><time>2012-04-30T16:36:10.0000000+00:00</time></trkpt><trkpt lat="42.885475" lon="19.669958"><ele>1965.3</ele><time>2012-04-30T16:36:15.0000000+00:00</time></trkpt><trkpt lat="42.885475" lon="19.66996"><ele>1965.3</ele><time>2012-04-30T16:36:20.0000000+00:00</time></trkpt><trkpt lat="42.885471" lon="19.669962"><ele>1965.3</ele><time>2012-04-30T16:36:25.0000000+00:00</time></trkpt><trkpt lat="42.885468" lon="19.669985"><ele>1965.0</ele><time>2012-04-30T16:36:30.0000000+00:00</time></trkpt><trkpt lat="42.88546" lon="19.669996"><ele>1964.9</ele><time>2012-04-30T16:36:35.0000000+00:00</time></trkpt><trkpt lat="42.885452" lon="19.670006"><ele>1965.0</ele><time>2012-04-30T16:36:40.0000000+00:00</time></trkpt><trkpt lat="42.885441" lon="19.670015"><ele>1965.5</ele><time>2012-04-30T16:36:45.0000000+00:00</time></trkpt><trkpt lat="42.885437" lon="19.670021"><ele>1965.8</ele><time>2012-04-30T16:36:50.0000000+00:00</time></trkpt><trkpt lat="42.885422" lon="19.670023"><ele>1966.4</ele><time>2012-04-30T16:36:55.0000000+00:00</time></trkpt><trkpt lat="42.885403" lon="19.670031"><ele>1967.7</ele><time>2012-04-30T16:37:00.0000000+00:00</time></trkpt><trkpt lat="42.88538" lon="19.67004"><ele>1968.5</ele><time>2012-04-30T16:37:05.0000000+00:00</time></trkpt><trkpt lat="42.885349" lon="19.670063"><ele>1969.0</ele><time>2012-04-30T16:37:10.0000000+00:00</time></trkpt><trkpt lat="42.885342" lon="19.670086"><ele>1968.1</ele><time>2012-04-30T16:37:15.0000000+00:00</time></trkpt><trkpt lat="42.885353" lon="19.670126"><ele>1965.5</ele><time>2012-04-30T16:37:20.0000000+00:00</time></trkpt><trkpt lat="42.88533" lon="19.670156"><ele>1965.2</ele><time>2012-04-30T16:37:25.0000000+00:00</time></trkpt><trkpt lat="42.885307" lon="19.670189"><ele>1964.8</ele><time>2012-04-30T16:37:30.0000000+00:00</time></trkpt><trkpt lat="42.885284" lon="19.670219"><ele>1964.5</ele><time>2012-04-30T16:37:35.0000000+00:00</time></trkpt><trkpt lat="42.885262" lon="19.67028"><ele>1964.0</ele><time>2012-04-30T16:37:40.0000000+00:00</time></trkpt><trkpt lat="42.885258" lon="19.670326"><ele>1963.0</ele><time>2012-04-30T16:37:45.0000000+00:00</time></trkpt><trkpt lat="42.88525" lon="19.670364"><ele>1961.7</ele><time>2012-04-30T16:37:50.0000000+00:00</time></trkpt><trkpt lat="42.885246" lon="19.670401"><ele>1960.6</ele><time>2012-04-30T16:37:55.0000000+00:00</time></trkpt><trkpt lat="42.885242" lon="19.670425"><ele>1960.4</ele><time>2012-04-30T16:38:00.0000000+00:00</time></trkpt><trkpt lat="42.885242" lon="19.670446"><ele>1959.6</ele><time>2012-04-30T16:38:05.0000000+00:00</time></trkpt><trkpt lat="42.885246" lon="19.670473"><ele>1958.8</ele><time>2012-04-30T16:38:10.0000000+00:00</time></trkpt><trkpt lat="42.885235" lon="19.670486"><ele>1959.5</ele><time>2012-04-30T16:38:15.0000000+00:00</time></trkpt><trkpt lat="42.88522" lon="19.670519"><ele>1957.9</ele><time>2012-04-30T16:38:20.0000000+00:00</time></trkpt><trkpt lat="42.885212" lon="19.670549"><ele>1956.7</ele><time>2012-04-30T16:38:25.0000000+00:00</time></trkpt><trkpt lat="42.885208" lon="19.670574"><ele>1955.9</ele><time>2012-04-30T16:38:30.0000000+00:00</time></trkpt><trkpt lat="42.885197" lon="19.670584"><ele>1956.1</ele><time>2012-04-30T16:38:35.0000000+00:00</time></trkpt><trkpt lat="42.885201" lon="19.670614"><ele>1954.8</ele><time>2012-04-30T16:38:40.0000000+00:00</time></trkpt><trkpt lat="42.885193" lon="19.67063"><ele>1953.5</ele><time>2012-04-30T16:38:45.0000000+00:00</time></trkpt><trkpt lat="42.885193" lon="19.670639"><ele>1952.9</ele><time>2012-04-30T16:38:50.0000000+00:00</time></trkpt><trkpt lat="42.885189" lon="19.670645"><ele>1952.2</ele><time>2012-04-30T16:38:55.0000000+00:00</time></trkpt><trkpt lat="42.885197" lon="19.67067"><ele>1950.9</ele><time>2012-04-30T16:39:00.0000000+00:00</time></trkpt><trkpt lat="42.885197" lon="19.670681"><ele>1949.8</ele><time>2012-04-30T16:39:05.0000000+00:00</time></trkpt><trkpt lat="42.885193" lon="19.670691"><ele>1949.3</ele><time>2012-04-30T16:39:10.0000000+00:00</time></trkpt><trkpt lat="42.885189" lon="19.6707"><ele>1948.8</ele><time>2012-04-30T16:39:15.0000000+00:00</time></trkpt><trkpt lat="42.885185" lon="19.670708"><ele>1948.5</ele><time>2012-04-30T16:39:20.0000000+00:00</time></trkpt><trkpt lat="42.885185" lon="19.670715"><ele>1948.0</ele><time>2012-04-30T16:39:25.0000000+00:00</time></trkpt><trkpt lat="42.885178" lon="19.670729"><ele>1947.8</ele><time>2012-04-30T16:39:30.0000000+00:00</time></trkpt><trkpt lat="42.88517" lon="19.670744"><ele>1947.2</ele><time>2012-04-30T16:39:35.0000000+00:00</time></trkpt><trkpt lat="42.885162" lon="19.670753"><ele>1947.0</ele><time>2012-04-30T16:39:40.0000000+00:00</time></trkpt><trkpt lat="42.885151" lon="19.670763"><ele>1945.9</ele><time>2012-04-30T16:39:45.0000000+00:00</time></trkpt><trkpt lat="42.885139" lon="19.670773"><ele>1945.6</ele><time>2012-04-30T16:39:50.0000000+00:00</time></trkpt><trkpt lat="42.885147" lon="19.670795"><ele>1944.1</ele><time>2012-04-30T16:39:55.0000000+00:00</time></trkpt><trkpt lat="42.885147" lon="19.670818"><ele>1942.9</ele><time>2012-04-30T16:40:00.0000000+00:00</time></trkpt><trkpt lat="42.885139" lon="19.670843"><ele>1941.9</ele><time>2012-04-30T16:40:05.0000000+00:00</time></trkpt><trkpt lat="42.885147" lon="19.670879"><ele>1939.3</ele><time>2012-04-30T16:40:10.0000000+00:00</time></trkpt><trkpt lat="42.885136" lon="19.670891"><ele>1939.0</ele><time>2012-04-30T16:40:15.0000000+00:00</time></trkpt><trkpt lat="42.885128" lon="19.670904"><ele>1938.2</ele><time>2012-04-30T16:40:20.0000000+00:00</time></trkpt><trkpt lat="42.885117" lon="19.670916"><ele>1938.1</ele><time>2012-04-30T16:40:25.0000000+00:00</time></trkpt><trkpt lat="42.885117" lon="19.670931"><ele>1937.8</ele><time>2012-04-30T16:40:30.0000000+00:00</time></trkpt><trkpt lat="42.885113" lon="19.670929"><ele>1938.0</ele><time>2012-04-30T16:40:35.0000000+00:00</time></trkpt><trkpt lat="42.885113" lon="19.670935"><ele>1937.9</ele><time>2012-04-30T16:40:40.0000000+00:00</time></trkpt><trkpt lat="42.885113" lon="19.670935"><ele>1938.0</ele><time>2012-04-30T16:40:45.0000000+00:00</time></trkpt><trkpt lat="42.885109" lon="19.670948"><ele>1937.8</ele><time>2012-04-30T16:40:50.0000000+00:00</time></trkpt><trkpt lat="42.885105" lon="19.67095"><ele>1937.9</ele><time>2012-04-30T16:40:55.0000000+00:00</time></trkpt><trkpt lat="42.885105" lon="19.670948"><ele>1937.6</ele><time>2012-04-30T16:41:00.0000000+00:00</time></trkpt><trkpt lat="42.885105" lon="19.670948"><ele>1937.6</ele><time>2012-04-30T16:41:05.0000000+00:00</time></trkpt><trkpt lat="42.885105" lon="19.670948"><ele>1937.6</ele><time>2012-04-30T16:41:10.0000000+00:00</time></trkpt><trkpt lat="42.885101" lon="19.67095"><ele>1937.6</ele><time>2012-04-30T16:41:15.0000000+00:00</time></trkpt><trkpt lat="42.88509" lon="19.670982"><ele>1936.9</ele><time>2012-04-30T16:41:20.0000000+00:00</time></trkpt><trkpt lat="42.885067" lon="19.671003"><ele>1936.3</ele><time>2012-04-30T16:41:25.0000000+00:00</time></trkpt><trkpt lat="42.885044" lon="19.671032"><ele>1935.0</ele><time>2012-04-30T16:41:30.0000000+00:00</time></trkpt><trkpt lat="42.885021" lon="19.671051"><ele>1934.5</ele><time>2012-04-30T16:41:35.0000000+00:00</time></trkpt><trkpt lat="42.885002" lon="19.671061"><ele>1933.9</ele><time>2012-04-30T16:41:40.0000000+00:00</time></trkpt><trkpt lat="42.884983" lon="19.671083"><ele>1932.1</ele><time>2012-04-30T16:41:45.0000000+00:00</time></trkpt><trkpt lat="42.884968" lon="19.671101"><ele>1931.9</ele><time>2012-04-30T16:41:50.0000000+00:00</time></trkpt><trkpt lat="42.884945" lon="19.671099"><ele>1930.6</ele><time>2012-04-30T16:41:55.0000000+00:00</time></trkpt><trkpt lat="42.884937" lon="19.671097"><ele>1929.3</ele><time>2012-04-30T16:42:00.0000000+00:00</time></trkpt><trkpt lat="42.884899" lon="19.671099"><ele>1928.8</ele><time>2012-04-30T16:42:05.0000000+00:00</time></trkpt><trkpt lat="42.884888" lon="19.67115"><ele>1927.4</ele><time>2012-04-30T16:42:10.0000000+00:00</time></trkpt><trkpt lat="42.884861" lon="19.671186"><ele>1926.8</ele><time>2012-04-30T16:42:15.0000000+00:00</time></trkpt><trkpt lat="42.884834" lon="19.67124"><ele>1925.0</ele><time>2012-04-30T16:42:20.0000000+00:00</time></trkpt><trkpt lat="42.884792" lon="19.67128"><ele>1922.6</ele><time>2012-04-30T16:42:25.0000000+00:00</time></trkpt><trkpt lat="42.884754" lon="19.671324"><ele>1921.4</ele><time>2012-04-30T16:42:30.0000000+00:00</time></trkpt><trkpt lat="42.884689" lon="19.671381"><ele>1920.0</ele><time>2012-04-30T16:42:35.0000000+00:00</time></trkpt><trkpt lat="42.884651" lon="19.671434"><ele>1919.3</ele><time>2012-04-30T16:42:40.0000000+00:00</time></trkpt><trkpt lat="42.884647" lon="19.671442"><ele>1919.1</ele><time>2012-04-30T16:42:45.0000000+00:00</time></trkpt><trkpt lat="42.884647" lon="19.671442"><ele>1919.1</ele><time>2012-04-30T16:42:50.0000000+00:00</time></trkpt><trkpt lat="42.884647" lon="19.671442"><ele>1919.0</ele><time>2012-04-30T16:42:55.0000000+00:00</time></trkpt><trkpt lat="42.884647" lon="19.671442"><ele>1919.0</ele><time>2012-04-30T16:43:00.0000000+00:00</time></trkpt><trkpt lat="42.884628" lon="19.671469"><ele>1918.5</ele><time>2012-04-30T16:43:05.0000000+00:00</time></trkpt><trkpt lat="42.884594" lon="19.671482"><ele>1917.5</ele><time>2012-04-30T16:43:10.0000000+00:00</time></trkpt><trkpt lat="42.884567" lon="19.671497"><ele>1916.6</ele><time>2012-04-30T16:43:15.0000000+00:00</time></trkpt><trkpt lat="42.884575" lon="19.671507"><ele>1915.3</ele><time>2012-04-30T16:43:20.0000000+00:00</time></trkpt><trkpt lat="42.884579" lon="19.671507"><ele>1915.0</ele><time>2012-04-30T16:43:25.0000000+00:00</time></trkpt><trkpt lat="42.88456" lon="19.671511"><ele>1915.1</ele><time>2012-04-30T16:43:30.0000000+00:00</time></trkpt><trkpt lat="42.884521" lon="19.671513"><ele>1915.4</ele><time>2012-04-30T16:43:35.0000000+00:00</time></trkpt><trkpt lat="42.884518" lon="19.671524"><ele>1914.6</ele><time>2012-04-30T16:43:40.0000000+00:00</time></trkpt><trkpt lat="42.88451" lon="19.671543"><ele>1913.1</ele><time>2012-04-30T16:43:45.0000000+00:00</time></trkpt><trkpt lat="42.884487" lon="19.671549"><ele>1911.8</ele><time>2012-04-30T16:43:50.0000000+00:00</time></trkpt><trkpt lat="42.884491" lon="19.671543"><ele>1910.5</ele><time>2012-04-30T16:43:55.0000000+00:00</time></trkpt><trkpt lat="42.884457" lon="19.671547"><ele>1910.6</ele><time>2012-04-30T16:44:00.0000000+00:00</time></trkpt><trkpt lat="42.884426" lon="19.671562"><ele>1910.1</ele><time>2012-04-30T16:44:05.0000000+00:00</time></trkpt><trkpt lat="42.884399" lon="19.671574"><ele>1909.4</ele><time>2012-04-30T16:44:10.0000000+00:00</time></trkpt><trkpt lat="42.884388" lon="19.671568"><ele>1908.4</ele><time>2012-04-30T16:44:15.0000000+00:00</time></trkpt><trkpt lat="42.884354" lon="19.671562"><ele>1907.5</ele><time>2012-04-30T16:44:20.0000000+00:00</time></trkpt><trkpt lat="42.884338" lon="19.671556"><ele>1906.4</ele><time>2012-04-30T16:44:25.0000000+00:00</time></trkpt><trkpt lat="42.884338" lon="19.671564"><ele>1905.5</ele><time>2012-04-30T16:44:30.0000000+00:00</time></trkpt><trkpt lat="42.884338" lon="19.671562"><ele>1905.6</ele><time>2012-04-30T16:44:35.0000000+00:00</time></trkpt><trkpt lat="42.884335" lon="19.67156"><ele>1905.7</ele><time>2012-04-30T16:44:40.0000000+00:00</time></trkpt><trkpt lat="42.884335" lon="19.671558"><ele>1905.7</ele><time>2012-04-30T16:44:45.0000000+00:00</time></trkpt><trkpt lat="42.884319" lon="19.671516"><ele>1906.0</ele><time>2012-04-30T16:44:50.0000000+00:00</time></trkpt><trkpt lat="42.884327" lon="19.671471"><ele>1905.7</ele><time>2012-04-30T16:44:55.0000000+00:00</time></trkpt><trkpt lat="42.884331" lon="19.671446"><ele>1905.2</ele><time>2012-04-30T16:45:00.0000000+00:00</time></trkpt><trkpt lat="42.884319" lon="19.671413"><ele>1904.8</ele><time>2012-04-30T16:45:05.0000000+00:00</time></trkpt><trkpt lat="42.884315" lon="19.671398"><ele>1904.0</ele><time>2012-04-30T16:45:10.0000000+00:00</time></trkpt><trkpt lat="42.884312" lon="19.671362"><ele>1903.8</ele><time>2012-04-30T16:45:15.0000000+00:00</time></trkpt><trkpt lat="42.884289" lon="19.671331"><ele>1902.9</ele><time>2012-04-30T16:45:20.0000000+00:00</time></trkpt><trkpt lat="42.88427" lon="19.671289"><ele>1902.0</ele><time>2012-04-30T16:45:25.0000000+00:00</time></trkpt><trkpt lat="42.884251" lon="19.671249"><ele>1900.9</ele><time>2012-04-30T16:45:30.0000000+00:00</time></trkpt><trkpt lat="42.884251" lon="19.671209"><ele>1899.5</ele><time>2012-04-30T16:45:35.0000000+00:00</time></trkpt><trkpt lat="42.884277" lon="19.671186"><ele>1898.2</ele><time>2012-04-30T16:45:40.0000000+00:00</time></trkpt><trkpt lat="42.884262" lon="19.671158"><ele>1897.3</ele><time>2012-04-30T16:45:45.0000000+00:00</time></trkpt><trkpt lat="42.884224" lon="19.671097"><ele>1896.3</ele><time>2012-04-30T16:45:50.0000000+00:00</time></trkpt><trkpt lat="42.884232" lon="19.671034"><ele>1895.7</ele><time>2012-04-30T16:45:55.0000000+00:00</time></trkpt><trkpt lat="42.884209" lon="19.670986"><ele>1895.3</ele><time>2012-04-30T16:46:00.0000000+00:00</time></trkpt><trkpt lat="42.884178" lon="19.670942"><ele>1894.8</ele><time>2012-04-30T16:46:05.0000000+00:00</time></trkpt><trkpt lat="42.884155" lon="19.670897"><ele>1894.5</ele><time>2012-04-30T16:46:10.0000000+00:00</time></trkpt><trkpt lat="42.884132" lon="19.670876"><ele>1894.1</ele><time>2012-04-30T16:46:15.0000000+00:00</time></trkpt><trkpt lat="42.884125" lon="19.670864"><ele>1893.8</ele><time>2012-04-30T16:46:20.0000000+00:00</time></trkpt><trkpt lat="42.884121" lon="19.670841"><ele>1893.5</ele><time>2012-04-30T16:46:25.0000000+00:00</time></trkpt><trkpt lat="42.88409" lon="19.670811"><ele>1893.3</ele><time>2012-04-30T16:46:30.0000000+00:00</time></trkpt><trkpt lat="42.88406" lon="19.670778"><ele>1893.1</ele><time>2012-04-30T16:46:35.0000000+00:00</time></trkpt><trkpt lat="42.884045" lon="19.670776"><ele>1893.0</ele><time>2012-04-30T16:46:40.0000000+00:00</time></trkpt><trkpt lat="42.884041" lon="19.670776"><ele>1892.8</ele><time>2012-04-30T16:46:45.0000000+00:00</time></trkpt><trkpt lat="42.884022" lon="19.670782"><ele>1891.1</ele><time>2012-04-30T16:46:50.0000000+00:00</time></trkpt><trkpt lat="42.884003" lon="19.670801"><ele>1889.7</ele><time>2012-04-30T16:46:55.0000000+00:00</time></trkpt><trkpt lat="42.883995" lon="19.670818"><ele>1888.4</ele><time>2012-04-30T16:47:00.0000000+00:00</time></trkpt><trkpt lat="42.883991" lon="19.670832"><ele>1887.5</ele><time>2012-04-30T16:47:05.0000000+00:00</time></trkpt><trkpt lat="42.883953" lon="19.670841"><ele>1886.5</ele><time>2012-04-30T16:47:10.0000000+00:00</time></trkpt><trkpt lat="42.883926" lon="19.670866"><ele>1885.5</ele><time>2012-04-30T16:47:15.0000000+00:00</time></trkpt><trkpt lat="42.883907" lon="19.670895"><ele>1884.1</ele><time>2012-04-30T16:47:20.0000000+00:00</time></trkpt><trkpt lat="42.883884" lon="19.670919"><ele>1882.3</ele><time>2012-04-30T16:47:25.0000000+00:00</time></trkpt><trkpt lat="42.883862" lon="19.67095"><ele>1880.9</ele><time>2012-04-30T16:47:30.0000000+00:00</time></trkpt><trkpt lat="42.883839" lon="19.670973"><ele>1879.6</ele><time>2012-04-30T16:47:35.0000000+00:00</time></trkpt><trkpt lat="42.883842" lon="19.670984"><ele>1878.4</ele><time>2012-04-30T16:47:40.0000000+00:00</time></trkpt><trkpt lat="42.883842" lon="19.67099"><ele>1878.3</ele><time>2012-04-30T16:47:45.0000000+00:00</time></trkpt><trkpt lat="42.88382" lon="19.671013"><ele>1878.4</ele><time>2012-04-30T16:47:50.0000000+00:00</time></trkpt><trkpt lat="42.883789" lon="19.67104"><ele>1877.3</ele><time>2012-04-30T16:47:55.0000000+00:00</time></trkpt><trkpt lat="42.883766" lon="19.671061"><ele>1876.4</ele><time>2012-04-30T16:48:00.0000000+00:00</time></trkpt><trkpt lat="42.883739" lon="19.671074"><ele>1875.5</ele><time>2012-04-30T16:48:05.0000000+00:00</time></trkpt><trkpt lat="42.883713" lon="19.671095"><ele>1874.6</ele><time>2012-04-30T16:48:10.0000000+00:00</time></trkpt><trkpt lat="42.883698" lon="19.671103"><ele>1873.9</ele><time>2012-04-30T16:48:15.0000000+00:00</time></trkpt><trkpt lat="42.883667" lon="19.671108"><ele>1873.0</ele><time>2012-04-30T16:48:20.0000000+00:00</time></trkpt><trkpt lat="42.883671" lon="19.671118"><ele>1872.0</ele><time>2012-04-30T16:48:25.0000000+00:00</time></trkpt><trkpt lat="42.883656" lon="19.671148"><ele>1870.9</ele><time>2012-04-30T16:48:30.0000000+00:00</time></trkpt><trkpt lat="42.883652" lon="19.671188"><ele>1869.5</ele><time>2012-04-30T16:48:35.0000000+00:00</time></trkpt><trkpt lat="42.883633" lon="19.671234"><ele>1868.1</ele><time>2012-04-30T16:48:40.0000000+00:00</time></trkpt><trkpt lat="42.883614" lon="19.671255"><ele>1867.6</ele><time>2012-04-30T16:48:45.0000000+00:00</time></trkpt><trkpt lat="42.883591" lon="19.671259"><ele>1867.4</ele><time>2012-04-30T16:48:50.0000000+00:00</time></trkpt><trkpt lat="42.883572" lon="19.671251"><ele>1867.2</ele><time>2012-04-30T16:48:55.0000000+00:00</time></trkpt><trkpt lat="42.883549" lon="19.671272"><ele>1866.7</ele><time>2012-04-30T16:49:00.0000000+00:00</time></trkpt><trkpt lat="42.88353" lon="19.67128"><ele>1866.3</ele><time>2012-04-30T16:49:05.0000000+00:00</time></trkpt><trkpt lat="42.883495" lon="19.671286"><ele>1866.0</ele><time>2012-04-30T16:49:10.0000000+00:00</time></trkpt><trkpt lat="42.883476" lon="19.671299"><ele>1865.7</ele><time>2012-04-30T16:49:15.0000000+00:00</time></trkpt><trkpt lat="42.883438" lon="19.67131"><ele>1865.2</ele><time>2012-04-30T16:49:20.0000000+00:00</time></trkpt><trkpt lat="42.883427" lon="19.671324"><ele>1864.1</ele><time>2012-04-30T16:49:25.0000000+00:00</time></trkpt><trkpt lat="42.883411" lon="19.671322"><ele>1863.2</ele><time>2012-04-30T16:49:30.0000000+00:00</time></trkpt><trkpt lat="42.883404" lon="19.67131"><ele>1862.3</ele><time>2012-04-30T16:49:35.0000000+00:00</time></trkpt><trkpt lat="42.883385" lon="19.671293"><ele>1861.6</ele><time>2012-04-30T16:49:40.0000000+00:00</time></trkpt><trkpt lat="42.883381" lon="19.671274"><ele>1860.4</ele><time>2012-04-30T16:49:45.0000000+00:00</time></trkpt><trkpt lat="42.883369" lon="19.671257"><ele>1859.3</ele><time>2012-04-30T16:49:50.0000000+00:00</time></trkpt><trkpt lat="42.883343" lon="19.671238"><ele>1858.3</ele><time>2012-04-30T16:49:55.0000000+00:00</time></trkpt><trkpt lat="42.883312" lon="19.67124"><ele>1857.1</ele><time>2012-04-30T16:50:00.0000000+00:00</time></trkpt><trkpt lat="42.883278" lon="19.671236"><ele>1855.8</ele><time>2012-04-30T16:50:05.0000000+00:00</time></trkpt><trkpt lat="42.883251" lon="19.671295"><ele>1852.8</ele><time>2012-04-30T16:50:10.0000000+00:00</time></trkpt><trkpt lat="42.883263" lon="19.671324"><ele>1851.1</ele><time>2012-04-30T16:50:15.0000000+00:00</time></trkpt><trkpt lat="42.883259" lon="19.671366"><ele>1848.5</ele><time>2012-04-30T16:50:20.0000000+00:00</time></trkpt><trkpt lat="42.883251" lon="19.671413"><ele>1844.3</ele><time>2012-04-30T16:50:25.0000000+00:00</time></trkpt><trkpt lat="42.88324" lon="19.671448"><ele>1841.8</ele><time>2012-04-30T16:50:30.0000000+00:00</time></trkpt><trkpt lat="42.883236" lon="19.671457"><ele>1840.4</ele><time>2012-04-30T16:50:35.0000000+00:00</time></trkpt><trkpt lat="42.883228" lon="19.671478"><ele>1838.9</ele><time>2012-04-30T16:50:40.0000000+00:00</time></trkpt><trkpt lat="42.883209" lon="19.671539"><ele>1838.0</ele><time>2012-04-30T16:50:45.0000000+00:00</time></trkpt><trkpt lat="42.88319" lon="19.671579"><ele>1837.8</ele><time>2012-04-30T16:50:50.0000000+00:00</time></trkpt><trkpt lat="42.883167" lon="19.671694"><ele>1835.6</ele><time>2012-04-30T16:50:55.0000000+00:00</time></trkpt><trkpt lat="42.883167" lon="19.671768"><ele>1834.2</ele><time>2012-04-30T16:51:00.0000000+00:00</time></trkpt><trkpt lat="42.883163" lon="19.671791"><ele>1833.6</ele><time>2012-04-30T16:51:05.0000000+00:00</time></trkpt><trkpt lat="42.883163" lon="19.671886"><ele>1832.8</ele><time>2012-04-30T16:51:10.0000000+00:00</time></trkpt><trkpt lat="42.883171" lon="19.671974"><ele>1832.2</ele><time>2012-04-30T16:51:15.0000000+00:00</time></trkpt><trkpt lat="42.883148" lon="19.672068"><ele>1832.0</ele><time>2012-04-30T16:51:20.0000000+00:00</time></trkpt><trkpt lat="42.883118" lon="19.672108"><ele>1831.6</ele><time>2012-04-30T16:51:25.0000000+00:00</time></trkpt><trkpt lat="42.883114" lon="19.672125"><ele>1831.3</ele><time>2012-04-30T16:51:30.0000000+00:00</time></trkpt><trkpt lat="42.883118" lon="19.672144"><ele>1831.5</ele><time>2012-04-30T16:51:35.0000000+00:00</time></trkpt><trkpt lat="42.883121" lon="19.672146"><ele>1832.4</ele><time>2012-04-30T16:51:40.0000000+00:00</time></trkpt><trkpt lat="42.883118" lon="19.672144"><ele>1832.5</ele><time>2012-04-30T16:51:45.0000000+00:00</time></trkpt><trkpt lat="42.883118" lon="19.672144"><ele>1832.5</ele><time>2012-04-30T16:51:50.0000000+00:00</time></trkpt><trkpt lat="42.883118" lon="19.672144"><ele>1832.5</ele><time>2012-04-30T16:51:55.0000000+00:00</time></trkpt><trkpt lat="42.883114" lon="19.672146"><ele>1833.0</ele><time>2012-04-30T16:52:00.0000000+00:00</time></trkpt><trkpt lat="42.883106" lon="19.672165"><ele>1834.0</ele><time>2012-04-30T16:52:05.0000000+00:00</time></trkpt><trkpt lat="42.88311" lon="19.672171"><ele>1834.1</ele><time>2012-04-30T16:52:10.0000000+00:00</time></trkpt><trkpt lat="42.883125" lon="19.672203"><ele>1834.8</ele><time>2012-04-30T16:52:15.0000000+00:00</time></trkpt><trkpt lat="42.883133" lon="19.672226"><ele>1835.5</ele><time>2012-04-30T16:52:20.0000000+00:00</time></trkpt><trkpt lat="42.883133" lon="19.672253"><ele>1835.7</ele><time>2012-04-30T16:52:25.0000000+00:00</time></trkpt><trkpt lat="42.883125" lon="19.672274"><ele>1836.5</ele><time>2012-04-30T16:52:30.0000000+00:00</time></trkpt><trkpt lat="42.883129" lon="19.67231"><ele>1836.8</ele><time>2012-04-30T16:52:35.0000000+00:00</time></trkpt><trkpt lat="42.883137" lon="19.672373"><ele>1837.1</ele><time>2012-04-30T16:52:40.0000000+00:00</time></trkpt><trkpt lat="42.883125" lon="19.672468"><ele>1836.9</ele><time>2012-04-30T16:52:45.0000000+00:00</time></trkpt><trkpt lat="42.883144" lon="19.672573"><ele>1837.0</ele><time>2012-04-30T16:52:50.0000000+00:00</time></trkpt><trkpt lat="42.883144" lon="19.672661"><ele>1836.6</ele><time>2012-04-30T16:52:55.0000000+00:00</time></trkpt><trkpt lat="42.883171" lon="19.672726"><ele>1836.1</ele><time>2012-04-30T16:53:00.0000000+00:00</time></trkpt><trkpt lat="42.883194" lon="19.672773"><ele>1835.6</ele><time>2012-04-30T16:53:05.0000000+00:00</time></trkpt><trkpt lat="42.883209" lon="19.672798"><ele>1833.9</ele><time>2012-04-30T16:53:10.0000000+00:00</time></trkpt><trkpt lat="42.883263" lon="19.672987"><ele>1828.4</ele><time>2012-04-30T16:53:15.0000000+00:00</time></trkpt><trkpt lat="42.88335" lon="19.673223"><ele>1824.4</ele><time>2012-04-30T16:53:20.0000000+00:00</time></trkpt><trkpt lat="42.88345" lon="19.673496"><ele>1821.5</ele><time>2012-04-30T16:53:25.0000000+00:00</time></trkpt><trkpt lat="42.883541" lon="19.673845"><ele>1818.5</ele><time>2012-04-30T16:53:30.0000000+00:00</time></trkpt><trkpt lat="42.883556" lon="19.674078"><ele>1816.3</ele><time>2012-04-30T16:53:35.0000000+00:00</time></trkpt><trkpt lat="42.883533" lon="19.674269"><ele>1813.9</ele><time>2012-04-30T16:53:40.0000000+00:00</time></trkpt><trkpt lat="42.883533" lon="19.674379"><ele>1811.6</ele><time>2012-04-30T16:53:45.0000000+00:00</time></trkpt><trkpt lat="42.883518" lon="19.674467"><ele>1809.2</ele><time>2012-04-30T16:53:50.0000000+00:00</time></trkpt><trkpt lat="42.883488" lon="19.674473"><ele>1808.5</ele><time>2012-04-30T16:53:55.0000000+00:00</time></trkpt><trkpt lat="42.883465" lon="19.674511"><ele>1808.1</ele><time>2012-04-30T16:54:00.0000000+00:00</time></trkpt><trkpt lat="42.883465" lon="19.674515"><ele>1808.0</ele><time>2012-04-30T16:54:05.0000000+00:00</time></trkpt><trkpt lat="42.883457" lon="19.674526"><ele>1807.7</ele><time>2012-04-30T16:54:10.0000000+00:00</time></trkpt><trkpt lat="42.88345" lon="19.674538"><ele>1807.5</ele><time>2012-04-30T16:54:15.0000000+00:00</time></trkpt><trkpt lat="42.883438" lon="19.674541"><ele>1807.5</ele><time>2012-04-30T16:54:20.0000000+00:00</time></trkpt><trkpt lat="42.883423" lon="19.674555"><ele>1806.9</ele><time>2012-04-30T16:54:25.0000000+00:00</time></trkpt><trkpt lat="42.883434" lon="19.674618"><ele>1806.1</ele><time>2012-04-30T16:54:30.0000000+00:00</time></trkpt><trkpt lat="42.883446" lon="19.67461"><ele>1805.5</ele><time>2012-04-30T16:54:35.0000000+00:00</time></trkpt><trkpt lat="42.883446" lon="19.67461"><ele>1805.5</ele><time>2012-04-30T16:54:40.0000000+00:00</time></trkpt><trkpt lat="42.883446" lon="19.67461"><ele>1805.5</ele><time>2012-04-30T16:54:45.0000000+00:00</time></trkpt><trkpt lat="42.883446" lon="19.67461"><ele>1805.5</ele><time>2012-04-30T16:54:50.0000000+00:00</time></trkpt><trkpt lat="42.883453" lon="19.674606"><ele>1804.7</ele><time>2012-04-30T16:54:55.0000000+00:00</time></trkpt><trkpt lat="42.883453" lon="19.674606"><ele>1804.6</ele><time>2012-04-30T16:55:00.0000000+00:00</time></trkpt><trkpt lat="42.883457" lon="19.674606"><ele>1804.6</ele><time>2012-04-30T16:55:05.0000000+00:00</time></trkpt><trkpt lat="42.883457" lon="19.674606"><ele>1804.6</ele><time>2012-04-30T16:55:10.0000000+00:00</time></trkpt><trkpt lat="42.883457" lon="19.674606"><ele>1804.6</ele><time>2012-04-30T16:55:15.0000000+00:00</time></trkpt><trkpt lat="42.883457" lon="19.674606"><ele>1804.5</ele><time>2012-04-30T16:55:20.0000000+00:00</time></trkpt><trkpt lat="42.883457" lon="19.674606"><ele>1804.5</ele><time>2012-04-30T16:55:25.0000000+00:00</time></trkpt><trkpt lat="42.883457" lon="19.674606"><ele>1804.5</ele><time>2012-04-30T16:55:30.0000000+00:00</time></trkpt><trkpt lat="42.883457" lon="19.674606"><ele>1804.5</ele><time>2012-04-30T16:55:35.0000000+00:00</time></trkpt><trkpt lat="42.883476" lon="19.674622"><ele>1803.6</ele><time>2012-04-30T16:55:40.0000000+00:00</time></trkpt><trkpt lat="42.883495" lon="19.674629"><ele>1803.2</ele><time>2012-04-30T16:55:45.0000000+00:00</time></trkpt><trkpt lat="42.883537" lon="19.67465"><ele>1802.6</ele><time>2012-04-30T16:55:50.0000000+00:00</time></trkpt><trkpt lat="42.883591" lon="19.674675"><ele>1801.6</ele><time>2012-04-30T16:55:55.0000000+00:00</time></trkpt><trkpt lat="42.883644" lon="19.674685"><ele>1800.2</ele><time>2012-04-30T16:56:00.0000000+00:00</time></trkpt><trkpt lat="42.883694" lon="19.674702"><ele>1798.6</ele><time>2012-04-30T16:56:05.0000000+00:00</time></trkpt><trkpt lat="42.883728" lon="19.674723"><ele>1798.5</ele><time>2012-04-30T16:56:10.0000000+00:00</time></trkpt><trkpt lat="42.883747" lon="19.674717"><ele>1797.8</ele><time>2012-04-30T16:56:15.0000000+00:00</time></trkpt><trkpt lat="42.883774" lon="19.674715"><ele>1796.5</ele><time>2012-04-30T16:56:20.0000000+00:00</time></trkpt><trkpt lat="42.883797" lon="19.674713"><ele>1795.6</ele><time>2012-04-30T16:56:25.0000000+00:00</time></trkpt><trkpt lat="42.883842" lon="19.674679"><ele>1793.9</ele><time>2012-04-30T16:56:30.0000000+00:00</time></trkpt><trkpt lat="42.883862" lon="19.674669"><ele>1793.5</ele><time>2012-04-30T16:56:35.0000000+00:00</time></trkpt><trkpt lat="42.88393" lon="19.674681"><ele>1791.6</ele><time>2012-04-30T16:56:40.0000000+00:00</time></trkpt><trkpt lat="42.884071" lon="19.674807"><ele>1789.4</ele><time>2012-04-30T16:56:45.0000000+00:00</time></trkpt><trkpt lat="42.884262" lon="19.674931"><ele>1786.9</ele><time>2012-04-30T16:56:50.0000000+00:00</time></trkpt><trkpt lat="42.884342" lon="19.675043"><ele>1784.7</ele><time>2012-04-30T16:56:55.0000000+00:00</time></trkpt><trkpt lat="42.884373" lon="19.675051"><ele>1783.5</ele><time>2012-04-30T16:57:00.0000000+00:00</time></trkpt><trkpt lat="42.884411" lon="19.67507"><ele>1781.7</ele><time>2012-04-30T16:57:05.0000000+00:00</time></trkpt><trkpt lat="42.884392" lon="19.675091"><ele>1781.7</ele><time>2012-04-30T16:57:10.0000000+00:00</time></trkpt><trkpt lat="42.884388" lon="19.675093"><ele>1781.6</ele><time>2012-04-30T16:57:15.0000000+00:00</time></trkpt><trkpt lat="42.884388" lon="19.675097"><ele>1781.5</ele><time>2012-04-30T16:57:20.0000000+00:00</time></trkpt><trkpt lat="42.884392" lon="19.675087"><ele>1781.5</ele><time>2012-04-30T16:57:25.0000000+00:00</time></trkpt><trkpt lat="42.884396" lon="19.675087"><ele>1781.4</ele><time>2012-04-30T16:57:30.0000000+00:00</time></trkpt><trkpt lat="42.884399" lon="19.675087"><ele>1781.4</ele><time>2012-04-30T16:57:35.0000000+00:00</time></trkpt><trkpt lat="42.884399" lon="19.675079"><ele>1781.3</ele><time>2012-04-30T16:57:40.0000000+00:00</time></trkpt><trkpt lat="42.884399" lon="19.67507"><ele>1781.3</ele><time>2012-04-30T16:57:45.0000000+00:00</time></trkpt><trkpt lat="42.884407" lon="19.675062"><ele>1781.2</ele><time>2012-04-30T16:57:50.0000000+00:00</time></trkpt><trkpt lat="42.884449" lon="19.675104"><ele>1780.7</ele><time>2012-04-30T16:57:55.0000000+00:00</time></trkpt><trkpt lat="42.88456" lon="19.675232"><ele>1779.7</ele><time>2012-04-30T16:58:00.0000000+00:00</time></trkpt><trkpt lat="42.884655" lon="19.675472"><ele>1777.9</ele><time>2012-04-30T16:58:05.0000000+00:00</time></trkpt><trkpt lat="42.884655" lon="19.67581"><ele>1776.1</ele><time>2012-04-30T16:58:10.0000000+00:00</time></trkpt><trkpt lat="42.884666" lon="19.676132"><ele>1774.5</ele><time>2012-04-30T16:58:15.0000000+00:00</time></trkpt><trkpt lat="42.884701" lon="19.676319"><ele>1772.0</ele><time>2012-04-30T16:58:20.0000000+00:00</time></trkpt><trkpt lat="42.884705" lon="19.676407"><ele>1772.5</ele><time>2012-04-30T16:58:25.0000000+00:00</time></trkpt><trkpt lat="42.884735" lon="19.676464"><ele>1771.4</ele><time>2012-04-30T16:58:30.0000000+00:00</time></trkpt><trkpt lat="42.884758" lon="19.676476"><ele>1770.4</ele><time>2012-04-30T16:58:35.0000000+00:00</time></trkpt><trkpt lat="42.884777" lon="19.676504"><ele>1769.4</ele><time>2012-04-30T16:58:40.0000000+00:00</time></trkpt><trkpt lat="42.8848" lon="19.676523"><ele>1768.4</ele><time>2012-04-30T16:58:45.0000000+00:00</time></trkpt><trkpt lat="42.884823" lon="19.676554"><ele>1767.4</ele><time>2012-04-30T16:58:50.0000000+00:00</time></trkpt><trkpt lat="42.884899" lon="19.67667"><ele>1766.7</ele><time>2012-04-30T16:58:55.0000000+00:00</time></trkpt><trkpt lat="42.884949" lon="19.676704"><ele>1765.1</ele><time>2012-04-30T16:59:00.0000000+00:00</time></trkpt><trkpt lat="42.885006" lon="19.676727"><ele>1763.8</ele><time>2012-04-30T16:59:05.0000000+00:00</time></trkpt><trkpt lat="42.885056" lon="19.676754"><ele>1763.0</ele><time>2012-04-30T16:59:10.0000000+00:00</time></trkpt><trkpt lat="42.885094" lon="19.676775"><ele>1761.9</ele><time>2012-04-30T16:59:15.0000000+00:00</time></trkpt><trkpt lat="42.885105" lon="19.676773"><ele>1760.9</ele><time>2012-04-30T16:59:20.0000000+00:00</time></trkpt><trkpt lat="42.885139" lon="19.676794"><ele>1760.6</ele><time>2012-04-30T16:59:25.0000000+00:00</time></trkpt><trkpt lat="42.885189" lon="19.676811"><ele>1760.5</ele><time>2012-04-30T16:59:30.0000000+00:00</time></trkpt><trkpt lat="42.885242" lon="19.676783"><ele>1760.1</ele><time>2012-04-30T16:59:35.0000000+00:00</time></trkpt><trkpt lat="42.885303" lon="19.67683"><ele>1759.4</ele><time>2012-04-30T16:59:40.0000000+00:00</time></trkpt><trkpt lat="42.885319" lon="19.67697"><ele>1760.0</ele><time>2012-04-30T16:59:45.0000000+00:00</time></trkpt><trkpt lat="42.885395" lon="19.677122"><ele>1758.6</ele><time>2012-04-30T16:59:50.0000000+00:00</time></trkpt><trkpt lat="42.885426" lon="19.67738"><ele>1757.9</ele><time>2012-04-30T16:59:55.0000000+00:00</time></trkpt><trkpt lat="42.885468" lon="19.67767"><ele>1755.7</ele><time>2012-04-30T17:00:00.0000000+00:00</time></trkpt><trkpt lat="42.885513" lon="19.677935"><ele>1754.3</ele><time>2012-04-30T17:00:05.0000000+00:00</time></trkpt><trkpt lat="42.88559" lon="19.67816"><ele>1752.6</ele><time>2012-04-30T17:00:10.0000000+00:00</time></trkpt><trkpt lat="42.885635" lon="19.678165"><ele>1750.6</ele><time>2012-04-30T17:00:15.0000000+00:00</time></trkpt><trkpt lat="42.885674" lon="19.678246"><ele>1750.0</ele><time>2012-04-30T17:00:20.0000000+00:00</time></trkpt><trkpt lat="42.885735" lon="19.678288"><ele>1748.1</ele><time>2012-04-30T17:00:25.0000000+00:00</time></trkpt><trkpt lat="42.885761" lon="19.678347"><ele>1747.0</ele><time>2012-04-30T17:00:30.0000000+00:00</time></trkpt><trkpt lat="42.885849" lon="19.678541"><ele>1743.5</ele><time>2012-04-30T17:00:35.0000000+00:00</time></trkpt><trkpt lat="42.885918" lon="19.678692"><ele>1741.6</ele><time>2012-04-30T17:00:40.0000000+00:00</time></trkpt><trkpt lat="42.885933" lon="19.678791"><ele>1741.1</ele><time>2012-04-30T17:00:45.0000000+00:00</time></trkpt><trkpt lat="42.885967" lon="19.678877"><ele>1739.8</ele><time>2012-04-30T17:00:50.0000000+00:00</time></trkpt><trkpt lat="42.886005" lon="19.67906"><ele>1738.5</ele><time>2012-04-30T17:00:55.0000000+00:00</time></trkpt><trkpt lat="42.886028" lon="19.679224"><ele>1737.3</ele><time>2012-04-30T17:01:00.0000000+00:00</time></trkpt><trkpt lat="42.886108" lon="19.679358"><ele>1735.9</ele><time>2012-04-30T17:01:05.0000000+00:00</time></trkpt><trkpt lat="42.886211" lon="19.679415"><ele>1733.8</ele><time>2012-04-30T17:01:10.0000000+00:00</time></trkpt><trkpt lat="42.886284" lon="19.679466"><ele>1732.0</ele><time>2012-04-30T17:01:15.0000000+00:00</time></trkpt><trkpt lat="42.886276" lon="19.679468"><ele>1731.7</ele><time>2012-04-30T17:01:20.0000000+00:00</time></trkpt><trkpt lat="42.886272" lon="19.679468"><ele>1731.5</ele><time>2012-04-30T17:01:25.0000000+00:00</time></trkpt><trkpt lat="42.886272" lon="19.679466"><ele>1731.5</ele><time>2012-04-30T17:01:30.0000000+00:00</time></trkpt><trkpt lat="42.886276" lon="19.679468"><ele>1731.6</ele><time>2012-04-30T17:01:35.0000000+00:00</time></trkpt><trkpt lat="42.886295" lon="19.679502"><ele>1731.6</ele><time>2012-04-30T17:01:40.0000000+00:00</time></trkpt><trkpt lat="42.886372" lon="19.679649"><ele>1732.0</ele><time>2012-04-30T17:01:45.0000000+00:00</time></trkpt><trkpt lat="42.886387" lon="19.679697"><ele>1731.4</ele><time>2012-04-30T17:01:50.0000000+00:00</time></trkpt><trkpt lat="42.886333" lon="19.679798"><ele>1730.3</ele><time>2012-04-30T17:01:55.0000000+00:00</time></trkpt><trkpt lat="42.886391" lon="19.679895"><ele>1729.2</ele><time>2012-04-30T17:02:00.0000000+00:00</time></trkpt><trkpt lat="42.886471" lon="19.67997"><ele>1727.5</ele><time>2012-04-30T17:02:05.0000000+00:00</time></trkpt><trkpt lat="42.886547" lon="19.680075"><ele>1726.0</ele><time>2012-04-30T17:02:10.0000000+00:00</time></trkpt><trkpt lat="42.886627" lon="19.680145"><ele>1723.3</ele><time>2012-04-30T17:02:15.0000000+00:00</time></trkpt><trkpt lat="42.886707" lon="19.680254"><ele>1722.0</ele><time>2012-04-30T17:02:20.0000000+00:00</time></trkpt><trkpt lat="42.886787" lon="19.680376"><ele>1720.5</ele><time>2012-04-30T17:02:25.0000000+00:00</time></trkpt><trkpt lat="42.886833" lon="19.680433"><ele>1717.0</ele><time>2012-04-30T17:02:30.0000000+00:00</time></trkpt><trkpt lat="42.886841" lon="19.680441"><ele>1717.1</ele><time>2012-04-30T17:02:35.0000000+00:00</time></trkpt><trkpt lat="42.886845" lon="19.680557"><ele>1717.5</ele><time>2012-04-30T17:02:40.0000000+00:00</time></trkpt><trkpt lat="42.886963" lon="19.680656"><ele>1715.9</ele><time>2012-04-30T17:02:45.0000000+00:00</time></trkpt><trkpt lat="42.887138" lon="19.680773"><ele>1709.5</ele><time>2012-04-30T17:02:50.0000000+00:00</time></trkpt><trkpt lat="42.887283" lon="19.680803"><ele>1706.1</ele><time>2012-04-30T17:02:55.0000000+00:00</time></trkpt><trkpt lat="42.887455" lon="19.680849"><ele>1703.2</ele><time>2012-04-30T17:03:00.0000000+00:00</time></trkpt><trkpt lat="42.887516" lon="19.680975"><ele>1699.8</ele><time>2012-04-30T17:03:05.0000000+00:00</time></trkpt><trkpt lat="42.88752" lon="19.681053"><ele>1696.4</ele><time>2012-04-30T17:03:10.0000000+00:00</time></trkpt><trkpt lat="42.8876" lon="19.681105"><ele>1692.7</ele><time>2012-04-30T17:03:15.0000000+00:00</time></trkpt><trkpt lat="42.887646" lon="19.681152"><ele>1689.7</ele><time>2012-04-30T17:03:20.0000000+00:00</time></trkpt><trkpt lat="42.887703" lon="19.681185"><ele>1687.0</ele><time>2012-04-30T17:03:25.0000000+00:00</time></trkpt><trkpt lat="42.887711" lon="19.681194"><ele>1684.8</ele><time>2012-04-30T17:03:30.0000000+00:00</time></trkpt><trkpt lat="42.887726" lon="19.681211"><ele>1683.2</ele><time>2012-04-30T17:03:35.0000000+00:00</time></trkpt><trkpt lat="42.887749" lon="19.681223"><ele>1681.7</ele><time>2012-04-30T17:03:40.0000000+00:00</time></trkpt><trkpt lat="42.887802" lon="19.681238"><ele>1681.0</ele><time>2012-04-30T17:03:45.0000000+00:00</time></trkpt><trkpt lat="42.887852" lon="19.681215"><ele>1681.1</ele><time>2012-04-30T17:03:50.0000000+00:00</time></trkpt><trkpt lat="42.887905" lon="19.681181"><ele>1681.7</ele><time>2012-04-30T17:03:55.0000000+00:00</time></trkpt><trkpt lat="42.887928" lon="19.681139"><ele>1682.6</ele><time>2012-04-30T17:04:00.0000000+00:00</time></trkpt><trkpt lat="42.887947" lon="19.681116"><ele>1682.4</ele><time>2012-04-30T17:04:05.0000000+00:00</time></trkpt><trkpt lat="42.887959" lon="19.681114"><ele>1683.2</ele><time>2012-04-30T17:04:10.0000000+00:00</time></trkpt><trkpt lat="42.887962" lon="19.681116"><ele>1684.3</ele><time>2012-04-30T17:04:15.0000000+00:00</time></trkpt><trkpt lat="42.888" lon="19.681051"><ele>1685.1</ele><time>2012-04-30T17:04:20.0000000+00:00</time></trkpt><trkpt lat="42.888046" lon="19.681042"><ele>1685.3</ele><time>2012-04-30T17:04:25.0000000+00:00</time></trkpt><trkpt lat="42.888073" lon="19.681057"><ele>1685.1</ele><time>2012-04-30T17:04:30.0000000+00:00</time></trkpt><trkpt lat="42.888172" lon="19.68108"><ele>1685.0</ele><time>2012-04-30T17:04:35.0000000+00:00</time></trkpt><trkpt lat="42.888252" lon="19.681162"><ele>1685.7</ele><time>2012-04-30T17:04:40.0000000+00:00</time></trkpt><trkpt lat="42.888294" lon="19.681377"><ele>1686.7</ele><time>2012-04-30T17:04:45.0000000+00:00</time></trkpt><trkpt lat="42.888309" lon="19.681694"><ele>1687.6</ele><time>2012-04-30T17:04:50.0000000+00:00</time></trkpt><trkpt lat="42.888332" lon="19.682072"><ele>1689.0</ele><time>2012-04-30T17:04:55.0000000+00:00</time></trkpt><trkpt lat="42.888382" lon="19.682405"><ele>1689.6</ele><time>2012-04-30T17:05:00.0000000+00:00</time></trkpt><trkpt lat="42.888424" lon="19.682636"><ele>1690.6</ele><time>2012-04-30T17:05:05.0000000+00:00</time></trkpt><trkpt lat="42.888458" lon="19.68276"><ele>1691.0</ele><time>2012-04-30T17:05:10.0000000+00:00</time></trkpt><trkpt lat="42.888504" lon="19.682865"><ele>1690.9</ele><time>2012-04-30T17:05:15.0000000+00:00</time></trkpt><trkpt lat="42.888531" lon="19.682974"><ele>1689.6</ele><time>2012-04-30T17:05:20.0000000+00:00</time></trkpt><trkpt lat="42.888573" lon="19.683123"><ele>1689.1</ele><time>2012-04-30T17:05:25.0000000+00:00</time></trkpt><trkpt lat="42.888615" lon="19.683264"><ele>1686.6</ele><time>2012-04-30T17:05:30.0000000+00:00</time></trkpt><trkpt lat="42.88871" lon="19.683403"><ele>1684.2</ele><time>2012-04-30T17:05:35.0000000+00:00</time></trkpt><trkpt lat="42.888874" lon="19.683517"><ele>1682.0</ele><time>2012-04-30T17:05:40.0000000+00:00</time></trkpt><trkpt lat="42.888954" lon="19.683636"><ele>1680.5</ele><time>2012-04-30T17:05:45.0000000+00:00</time></trkpt><trkpt lat="42.889011" lon="19.683809"><ele>1678.9</ele><time>2012-04-30T17:05:50.0000000+00:00</time></trkpt><trkpt lat="42.889088" lon="19.683979"><ele>1680.4</ele><time>2012-04-30T17:05:55.0000000+00:00</time></trkpt><trkpt lat="42.889145" lon="19.684118"><ele>1681.4</ele><time>2012-04-30T17:06:00.0000000+00:00</time></trkpt><trkpt lat="42.889183" lon="19.684231"><ele>1680.6</ele><time>2012-04-30T17:06:05.0000000+00:00</time></trkpt><trkpt lat="42.889191" lon="19.68437"><ele>1679.3</ele><time>2012-04-30T17:06:10.0000000+00:00</time></trkpt><trkpt lat="42.889191" lon="19.684483"><ele>1678.1</ele><time>2012-04-30T17:06:15.0000000+00:00</time></trkpt><trkpt lat="42.88916" lon="19.684563"><ele>1677.5</ele><time>2012-04-30T17:06:20.0000000+00:00</time></trkpt><trkpt lat="42.889164" lon="19.684597"><ele>1675.5</ele><time>2012-04-30T17:06:25.0000000+00:00</time></trkpt><trkpt lat="42.889172" lon="19.684637"><ele>1675.4</ele><time>2012-04-30T17:06:30.0000000+00:00</time></trkpt><trkpt lat="42.889168" lon="19.684643"><ele>1677.0</ele><time>2012-04-30T17:06:35.0000000+00:00</time></trkpt><trkpt lat="42.889168" lon="19.684649"><ele>1677.0</ele><time>2012-04-30T17:06:40.0000000+00:00</time></trkpt><trkpt lat="42.889168" lon="19.684649"><ele>1677.0</ele><time>2012-04-30T17:06:45.0000000+00:00</time></trkpt><trkpt lat="42.889168" lon="19.684649"><ele>1677.0</ele><time>2012-04-30T17:06:50.0000000+00:00</time></trkpt><trkpt lat="42.889168" lon="19.684647"><ele>1677.1</ele><time>2012-04-30T17:06:55.0000000+00:00</time></trkpt><trkpt lat="42.889168" lon="19.684647"><ele>1677.1</ele><time>2012-04-30T17:07:00.0000000+00:00</time></trkpt><trkpt lat="42.889168" lon="19.684647"><ele>1677.0</ele><time>2012-04-30T17:07:05.0000000+00:00</time></trkpt><trkpt lat="42.889191" lon="19.684706"><ele>1677.1</ele><time>2012-04-30T17:07:10.0000000+00:00</time></trkpt><trkpt lat="42.889252" lon="19.684757"><ele>1675.8</ele><time>2012-04-30T17:07:15.0000000+00:00</time></trkpt><trkpt lat="42.889301" lon="19.684809"><ele>1675.3</ele><time>2012-04-30T17:07:20.0000000+00:00</time></trkpt><trkpt lat="42.889328" lon="19.684856"><ele>1676.5</ele><time>2012-04-30T17:07:25.0000000+00:00</time></trkpt><trkpt lat="42.889355" lon="19.684885"><ele>1677.7</ele><time>2012-04-30T17:07:30.0000000+00:00</time></trkpt><trkpt lat="42.8894" lon="19.684965"><ele>1675.3</ele><time>2012-04-30T17:07:35.0000000+00:00</time></trkpt><trkpt lat="42.8894" lon="19.685007"><ele>1674.8</ele><time>2012-04-30T17:07:40.0000000+00:00</time></trkpt><trkpt lat="42.889393" lon="19.685011"><ele>1674.9</ele><time>2012-04-30T17:07:45.0000000+00:00</time></trkpt><trkpt lat="42.8894" lon="19.685009"><ele>1674.7</ele><time>2012-04-30T17:07:50.0000000+00:00</time></trkpt><trkpt lat="42.889404" lon="19.685003"><ele>1674.6</ele><time>2012-04-30T17:07:55.0000000+00:00</time></trkpt><trkpt lat="42.889404" lon="19.685003"><ele>1674.5</ele><time>2012-04-30T17:08:00.0000000+00:00</time></trkpt><trkpt lat="42.889404" lon="19.685003"><ele>1674.5</ele><time>2012-04-30T17:08:05.0000000+00:00</time></trkpt><trkpt lat="42.889404" lon="19.685003"><ele>1674.5</ele><time>2012-04-30T17:08:10.0000000+00:00</time></trkpt><trkpt lat="42.889404" lon="19.685003"><ele>1674.5</ele><time>2012-04-30T17:08:15.0000000+00:00</time></trkpt><trkpt lat="42.889404" lon="19.685003"><ele>1674.5</ele><time>2012-04-30T17:08:20.0000000+00:00</time></trkpt><trkpt lat="42.889404" lon="19.685003"><ele>1674.5</ele><time>2012-04-30T17:08:25.0000000+00:00</time></trkpt><trkpt lat="42.889404" lon="19.685003"><ele>1674.5</ele><time>2012-04-30T17:08:30.0000000+00:00</time></trkpt><trkpt lat="42.889404" lon="19.685003"><ele>1674.5</ele><time>2012-04-30T17:08:35.0000000+00:00</time></trkpt><trkpt lat="42.889404" lon="19.685003"><ele>1674.6</ele><time>2012-04-30T17:08:40.0000000+00:00</time></trkpt><trkpt lat="42.889404" lon="19.685003"><ele>1674.6</ele><time>2012-04-30T17:08:45.0000000+00:00</time></trkpt><trkpt lat="42.889404" lon="19.685003"><ele>1674.6</ele><time>2012-04-30T17:08:50.0000000+00:00</time></trkpt><trkpt lat="42.889404" lon="19.685003"><ele>1674.6</ele><time>2012-04-30T17:08:55.0000000+00:00</time></trkpt><trkpt lat="42.889404" lon="19.685003"><ele>1674.6</ele><time>2012-04-30T17:09:00.0000000+00:00</time></trkpt><trkpt lat="42.889404" lon="19.685003"><ele>1674.6</ele><time>2012-04-30T17:09:05.0000000+00:00</time></trkpt><trkpt lat="42.889404" lon="19.685003"><ele>1674.7</ele><time>2012-04-30T17:09:10.0000000+00:00</time></trkpt><trkpt lat="42.889473" lon="19.685104"><ele>1673.5</ele><time>2012-04-30T17:09:15.0000000+00:00</time></trkpt><trkpt lat="42.889553" lon="19.685238"><ele>1671.2</ele><time>2012-04-30T17:09:20.0000000+00:00</time></trkpt><trkpt lat="42.889641" lon="19.685392"><ele>1669.0</ele><time>2012-04-30T17:09:25.0000000+00:00</time></trkpt><trkpt lat="42.889751" lon="19.685511"><ele>1667.9</ele><time>2012-04-30T17:09:30.0000000+00:00</time></trkpt><trkpt lat="42.889843" lon="19.685572"><ele>1666.8</ele><time>2012-04-30T17:09:35.0000000+00:00</time></trkpt><trkpt lat="42.889912" lon="19.685564"><ele>1667.2</ele><time>2012-04-30T17:09:40.0000000+00:00</time></trkpt><trkpt lat="42.890018" lon="19.685577"><ele>1666.6</ele><time>2012-04-30T17:09:45.0000000+00:00</time></trkpt><trkpt lat="42.890133" lon="19.685596"><ele>1665.5</ele><time>2012-04-30T17:09:50.0000000+00:00</time></trkpt><trkpt lat="42.890186" lon="19.685633"><ele>1666.3</ele><time>2012-04-30T17:09:55.0000000+00:00</time></trkpt><trkpt lat="42.890198" lon="19.68564"><ele>1667.0</ele><time>2012-04-30T17:10:00.0000000+00:00</time></trkpt><trkpt lat="42.890247" lon="19.685692"><ele>1668.4</ele><time>2012-04-30T17:10:05.0000000+00:00</time></trkpt><trkpt lat="42.890327" lon="19.685743"><ele>1667.3</ele><time>2012-04-30T17:10:10.0000000+00:00</time></trkpt><trkpt lat="42.890408" lon="19.685823"><ele>1665.8</ele><time>2012-04-30T17:10:15.0000000+00:00</time></trkpt><trkpt lat="42.890526" lon="19.685953"><ele>1667.4</ele><time>2012-04-30T17:10:20.0000000+00:00</time></trkpt><trkpt lat="42.890625" lon="19.686079"><ele>1668.1</ele><time>2012-04-30T17:10:25.0000000+00:00</time></trkpt><trkpt lat="42.89069" lon="19.686199"><ele>1666.8</ele><time>2012-04-30T17:10:30.0000000+00:00</time></trkpt><trkpt lat="42.890762" lon="19.686333"><ele>1666.5</ele><time>2012-04-30T17:10:35.0000000+00:00</time></trkpt><trkpt lat="42.890835" lon="19.686487"><ele>1666.5</ele><time>2012-04-30T17:10:40.0000000+00:00</time></trkpt><trkpt lat="42.890903" lon="19.68655"><ele>1666.0</ele><time>2012-04-30T17:10:45.0000000+00:00</time></trkpt><trkpt lat="42.890949" lon="19.686558"><ele>1666.3</ele><time>2012-04-30T17:10:50.0000000+00:00</time></trkpt><trkpt lat="42.891026" lon="19.686596"><ele>1667.5</ele><time>2012-04-30T17:10:55.0000000+00:00</time></trkpt><trkpt lat="42.891109" lon="19.686668"><ele>1668.1</ele><time>2012-04-30T17:11:00.0000000+00:00</time></trkpt><trkpt lat="42.891171" lon="19.686796"><ele>1667.8</ele><time>2012-04-30T17:11:05.0000000+00:00</time></trkpt><trkpt lat="42.891228" lon="19.686861"><ele>1668.7</ele><time>2012-04-30T17:11:10.0000000+00:00</time></trkpt><trkpt lat="42.891281" lon="19.686901"><ele>1669.8</ele><time>2012-04-30T17:11:15.0000000+00:00</time></trkpt><trkpt lat="42.891338" lon="19.686935"><ele>1669.8</ele><time>2012-04-30T17:11:20.0000000+00:00</time></trkpt><trkpt lat="42.891418" lon="19.687029"><ele>1670.8</ele><time>2012-04-30T17:11:25.0000000+00:00</time></trkpt><trkpt lat="42.891514" lon="19.68712"><ele>1669.7</ele><time>2012-04-30T17:11:30.0000000+00:00</time></trkpt><trkpt lat="42.891575" lon="19.68718"><ele>1670.2</ele><time>2012-04-30T17:11:35.0000000+00:00</time></trkpt><trkpt lat="42.891663" lon="19.687237"><ele>1669.9</ele><time>2012-04-30T17:11:40.0000000+00:00</time></trkpt><trkpt lat="42.891731" lon="19.687273"><ele>1669.8</ele><time>2012-04-30T17:11:45.0000000+00:00</time></trkpt><trkpt lat="42.89175" lon="19.687302"><ele>1670.8</ele><time>2012-04-30T17:11:50.0000000+00:00</time></trkpt><trkpt lat="42.89175" lon="19.687302"><ele>1670.5</ele><time>2012-04-30T17:11:55.0000000+00:00</time></trkpt><trkpt lat="42.89175" lon="19.687304"><ele>1670.5</ele><time>2012-04-30T17:12:00.0000000+00:00</time></trkpt><trkpt lat="42.89175" lon="19.687304"><ele>1670.5</ele><time>2012-04-30T17:12:05.0000000+00:00</time></trkpt><trkpt lat="42.89175" lon="19.687304"><ele>1670.5</ele><time>2012-04-30T17:12:10.0000000+00:00</time></trkpt><trkpt lat="42.89175" lon="19.687304"><ele>1670.6</ele><time>2012-04-30T17:12:15.0000000+00:00</time></trkpt><trkpt lat="42.89175" lon="19.687304"><ele>1670.6</ele><time>2012-04-30T17:12:20.0000000+00:00</time></trkpt><trkpt lat="42.89175" lon="19.687304"><ele>1670.7</ele><time>2012-04-30T17:12:25.0000000+00:00</time></trkpt><trkpt lat="42.89175" lon="19.687305"><ele>1670.7</ele><time>2012-04-30T17:12:30.0000000+00:00</time></trkpt><trkpt lat="42.89175" lon="19.687305"><ele>1670.8</ele><time>2012-04-30T17:12:35.0000000+00:00</time></trkpt><trkpt lat="42.891773" lon="19.687271"><ele>1670.6</ele><time>2012-04-30T17:12:40.0000000+00:00</time></trkpt><trkpt lat="42.891861" lon="19.68718"><ele>1670.7</ele><time>2012-04-30T17:12:45.0000000+00:00</time></trkpt><trkpt lat="42.891895" lon="19.687107"><ele>1672.3</ele><time>2012-04-30T17:12:50.0000000+00:00</time></trkpt><trkpt lat="42.891926" lon="19.687031"><ele>1673.5</ele><time>2012-04-30T17:12:55.0000000+00:00</time></trkpt><trkpt lat="42.891983" lon="19.686972"><ele>1673.6</ele><time>2012-04-30T17:13:00.0000000+00:00</time></trkpt><trkpt lat="42.891998" lon="19.686962"><ele>1675.7</ele><time>2012-04-30T17:13:05.0000000+00:00</time></trkpt><trkpt lat="42.892036" lon="19.68693"><ele>1675.8</ele><time>2012-04-30T17:13:10.0000000+00:00</time></trkpt><trkpt lat="42.892067" lon="19.686871"><ele>1676.6</ele><time>2012-04-30T17:13:15.0000000+00:00</time></trkpt><trkpt lat="42.892078" lon="19.686827"><ele>1677.3</ele><time>2012-04-30T17:13:20.0000000+00:00</time></trkpt><trkpt lat="42.892071" lon="19.686766"><ele>1678.2</ele><time>2012-04-30T17:13:25.0000000+00:00</time></trkpt><trkpt lat="42.892082" lon="19.686741"><ele>1679.1</ele><time>2012-04-30T17:13:30.0000000+00:00</time></trkpt><trkpt lat="42.892109" lon="19.686689"><ele>1679.6</ele><time>2012-04-30T17:13:35.0000000+00:00</time></trkpt><trkpt lat="42.892155" lon="19.686726"><ele>1680.0</ele><time>2012-04-30T17:13:40.0000000+00:00</time></trkpt><trkpt lat="42.892223" lon="19.686686"><ele>1680.7</ele><time>2012-04-30T17:13:45.0000000+00:00</time></trkpt><trkpt lat="42.89225" lon="19.686615"><ele>1681.2</ele><time>2012-04-30T17:13:50.0000000+00:00</time></trkpt><trkpt lat="42.892292" lon="19.686611"><ele>1681.8</ele><time>2012-04-30T17:13:55.0000000+00:00</time></trkpt><trkpt lat="42.892326" lon="19.686611"><ele>1682.4</ele><time>2012-04-30T17:14:00.0000000+00:00</time></trkpt><trkpt lat="42.89233" lon="19.686621"><ele>1681.6</ele><time>2012-04-30T17:14:05.0000000+00:00</time></trkpt><trkpt lat="42.892372" lon="19.68663"><ele>1681.8</ele><time>2012-04-30T17:14:10.0000000+00:00</time></trkpt><trkpt lat="42.892433" lon="19.686621"><ele>1681.8</ele><time>2012-04-30T17:14:15.0000000+00:00</time></trkpt><trkpt lat="42.892494" lon="19.686592"><ele>1679.1</ele><time>2012-04-30T17:14:20.0000000+00:00</time></trkpt><trkpt lat="42.892513" lon="19.68655"><ele>1677.8</ele><time>2012-04-30T17:14:25.0000000+00:00</time></trkpt><trkpt lat="42.892548" lon="19.686512"><ele>1675.2</ele><time>2012-04-30T17:14:30.0000000+00:00</time></trkpt><trkpt lat="42.892593" lon="19.686522"><ele>1672.6</ele><time>2012-04-30T17:14:35.0000000+00:00</time></trkpt><trkpt lat="42.892597" lon="19.686506"><ele>1670.5</ele><time>2012-04-30T17:14:40.0000000+00:00</time></trkpt><trkpt lat="42.892658" lon="19.686501"><ele>1670.0</ele><time>2012-04-30T17:14:45.0000000+00:00</time></trkpt><trkpt lat="42.892754" lon="19.686443"><ele>1667.6</ele><time>2012-04-30T17:14:50.0000000+00:00</time></trkpt><trkpt lat="42.892845" lon="19.686378"><ele>1667.5</ele><time>2012-04-30T17:14:55.0000000+00:00</time></trkpt><trkpt lat="42.892994" lon="19.686352"><ele>1665.9</ele><time>2012-04-30T17:15:00.0000000+00:00</time></trkpt><trkpt lat="42.893265" lon="19.686432"><ele>1662.0</ele><time>2012-04-30T17:15:05.0000000+00:00</time></trkpt><trkpt lat="42.893345" lon="19.686495"><ele>1661.2</ele><time>2012-04-30T17:15:10.0000000+00:00</time></trkpt><trkpt lat="42.893345" lon="19.686506"><ele>1660.8</ele><time>2012-04-30T17:15:15.0000000+00:00</time></trkpt><trkpt lat="42.893383" lon="19.68655"><ele>1660.2</ele><time>2012-04-30T17:15:20.0000000+00:00</time></trkpt><trkpt lat="42.893421" lon="19.686604"><ele>1660.0</ele><time>2012-04-30T17:15:25.0000000+00:00</time></trkpt><trkpt lat="42.893459" lon="19.686638"><ele>1659.8</ele><time>2012-04-30T17:15:30.0000000+00:00</time></trkpt><trkpt lat="42.89349" lon="19.686686"><ele>1659.9</ele><time>2012-04-30T17:15:35.0000000+00:00</time></trkpt><trkpt lat="42.893532" lon="19.686729"><ele>1660.0</ele><time>2012-04-30T17:15:40.0000000+00:00</time></trkpt><trkpt lat="42.893585" lon="19.686769"><ele>1659.8</ele><time>2012-04-30T17:15:45.0000000+00:00</time></trkpt><trkpt lat="42.893631" lon="19.686798"><ele>1659.6</ele><time>2012-04-30T17:15:50.0000000+00:00</time></trkpt><trkpt lat="42.893684" lon="19.68681"><ele>1660.5</ele><time>2012-04-30T17:15:55.0000000+00:00</time></trkpt><trkpt lat="42.893711" lon="19.686806"><ele>1661.9</ele><time>2012-04-30T17:16:00.0000000+00:00</time></trkpt><trkpt lat="42.893749" lon="19.686779"><ele>1662.9</ele><time>2012-04-30T17:16:05.0000000+00:00</time></trkpt><trkpt lat="42.893791" lon="19.686737"><ele>1664.1</ele><time>2012-04-30T17:16:10.0000000+00:00</time></trkpt><trkpt lat="42.893837" lon="19.686697"><ele>1664.8</ele><time>2012-04-30T17:16:15.0000000+00:00</time></trkpt><trkpt lat="42.893864" lon="19.686655"><ele>1665.5</ele><time>2012-04-30T17:16:20.0000000+00:00</time></trkpt><trkpt lat="42.893902" lon="19.686594"><ele>1666.1</ele><time>2012-04-30T17:16:25.0000000+00:00</time></trkpt><trkpt lat="42.893936" lon="19.686539"><ele>1666.4</ele><time>2012-04-30T17:16:30.0000000+00:00</time></trkpt><trkpt lat="42.893978" lon="19.686487"><ele>1666.8</ele><time>2012-04-30T17:16:35.0000000+00:00</time></trkpt><trkpt lat="42.893997" lon="19.686474"><ele>1667.1</ele><time>2012-04-30T17:16:40.0000000+00:00</time></trkpt><trkpt lat="42.893997" lon="19.686474"><ele>1667.5</ele><time>2012-04-30T17:16:45.0000000+00:00</time></trkpt><trkpt lat="42.893997" lon="19.686478"><ele>1667.6</ele><time>2012-04-30T17:16:50.0000000+00:00</time></trkpt><trkpt lat="42.893997" lon="19.68648"><ele>1667.6</ele><time>2012-04-30T17:16:55.0000000+00:00</time></trkpt><trkpt lat="42.893997" lon="19.686478"><ele>1667.7</ele><time>2012-04-30T17:17:00.0000000+00:00</time></trkpt><trkpt lat="42.89399" lon="19.686478"><ele>1667.7</ele><time>2012-04-30T17:17:05.0000000+00:00</time></trkpt><trkpt lat="42.89399" lon="19.686481"><ele>1667.8</ele><time>2012-04-30T17:17:10.0000000+00:00</time></trkpt><trkpt lat="42.89399" lon="19.686481"><ele>1667.8</ele><time>2012-04-30T17:17:15.0000000+00:00</time></trkpt><trkpt lat="42.89399" lon="19.68648"><ele>1667.8</ele><time>2012-04-30T17:17:20.0000000+00:00</time></trkpt><trkpt lat="42.893986" lon="19.686481"><ele>1667.8</ele><time>2012-04-30T17:17:25.0000000+00:00</time></trkpt><trkpt lat="42.893986" lon="19.686485"><ele>1667.8</ele><time>2012-04-30T17:17:30.0000000+00:00</time></trkpt><trkpt lat="42.893978" lon="19.686485"><ele>1667.8</ele><time>2012-04-30T17:17:35.0000000+00:00</time></trkpt><trkpt lat="42.893974" lon="19.686489"><ele>1667.8</ele><time>2012-04-30T17:17:40.0000000+00:00</time></trkpt><trkpt lat="42.893978" lon="19.686472"><ele>1667.8</ele><time>2012-04-30T17:17:45.0000000+00:00</time></trkpt><trkpt lat="42.89399" lon="19.686468"><ele>1667.9</ele><time>2012-04-30T17:17:50.0000000+00:00</time></trkpt><trkpt lat="42.893986" lon="19.686466"><ele>1667.9</ele><time>2012-04-30T17:17:55.0000000+00:00</time></trkpt><trkpt lat="42.893982" lon="19.686468"><ele>1667.9</ele><time>2012-04-30T17:18:00.0000000+00:00</time></trkpt><trkpt lat="42.893986" lon="19.686468"><ele>1667.9</ele><time>2012-04-30T17:18:05.0000000+00:00</time></trkpt><trkpt lat="42.893974" lon="19.686474"><ele>1667.7</ele><time>2012-04-30T17:18:10.0000000+00:00</time></trkpt><trkpt lat="42.893951" lon="19.686491"><ele>1667.6</ele><time>2012-04-30T17:18:15.0000000+00:00</time></trkpt><trkpt lat="42.893932" lon="19.686508"><ele>1667.5</ele><time>2012-04-30T17:18:20.0000000+00:00</time></trkpt><trkpt lat="42.893917" lon="19.686504"><ele>1667.5</ele><time>2012-04-30T17:18:25.0000000+00:00</time></trkpt><trkpt lat="42.893917" lon="19.686514"><ele>1667.3</ele><time>2012-04-30T17:18:30.0000000+00:00</time></trkpt><trkpt lat="42.893921" lon="19.686516"><ele>1667.3</ele><time>2012-04-30T17:18:35.0000000+00:00</time></trkpt><trkpt lat="42.893932" lon="19.686512"><ele>1667.2</ele><time>2012-04-30T17:18:40.0000000+00:00</time></trkpt><trkpt lat="42.893974" lon="19.686459"><ele>1666.5</ele><time>2012-04-30T17:18:45.0000000+00:00</time></trkpt><trkpt lat="42.89399" lon="19.686409"><ele>1666.3</ele><time>2012-04-30T17:18:50.0000000+00:00</time></trkpt><trkpt lat="42.894039" lon="19.686308"><ele>1666.2</ele><time>2012-04-30T17:18:55.0000000+00:00</time></trkpt><trkpt lat="42.894115" lon="19.686249"><ele>1664.9</ele><time>2012-04-30T17:19:00.0000000+00:00</time></trkpt><trkpt lat="42.894196" lon="19.686125"><ele>1665.0</ele><time>2012-04-30T17:19:05.0000000+00:00</time></trkpt><trkpt lat="42.894222" lon="19.685961"><ele>1668.7</ele><time>2012-04-30T17:19:10.0000000+00:00</time></trkpt><trkpt lat="42.894249" lon="19.685785"><ele>1669.5</ele><time>2012-04-30T17:19:15.0000000+00:00</time></trkpt><trkpt lat="42.894192" lon="19.685591"><ele>1669.1</ele><time>2012-04-30T17:19:20.0000000+00:00</time></trkpt><trkpt lat="42.894176" lon="19.685396"><ele>1669.9</ele><time>2012-04-30T17:19:25.0000000+00:00</time></trkpt><trkpt lat="42.894161" lon="19.68528"><ele>1669.7</ele><time>2012-04-30T17:19:30.0000000+00:00</time></trkpt><trkpt lat="42.894176" lon="19.685144"><ele>1669.3</ele><time>2012-04-30T17:19:35.0000000+00:00</time></trkpt><trkpt lat="42.89418" lon="19.685009"><ele>1669.3</ele><time>2012-04-30T17:19:40.0000000+00:00</time></trkpt><trkpt lat="42.894218" lon="19.684872"><ele>1670.0</ele><time>2012-04-30T17:19:45.0000000+00:00</time></trkpt><trkpt lat="42.894295" lon="19.684786"><ele>1670.6</ele><time>2012-04-30T17:19:50.0000000+00:00</time></trkpt><trkpt lat="42.894333" lon="19.684649"><ele>1671.1</ele><time>2012-04-30T17:19:55.0000000+00:00</time></trkpt><trkpt lat="42.894367" lon="19.684551"><ele>1671.5</ele><time>2012-04-30T17:20:00.0000000+00:00</time></trkpt><trkpt lat="42.894409" lon="19.684465"><ele>1673.4</ele><time>2012-04-30T17:20:05.0000000+00:00</time></trkpt><trkpt lat="42.89444" lon="19.684368"><ele>1673.2</ele><time>2012-04-30T17:20:10.0000000+00:00</time></trkpt><trkpt lat="42.894482" lon="19.684244"><ele>1671.5</ele><time>2012-04-30T17:20:15.0000000+00:00</time></trkpt><trkpt lat="42.89455" lon="19.684189"><ele>1673.6</ele><time>2012-04-30T17:20:20.0000000+00:00</time></trkpt><trkpt lat="42.894604" lon="19.684128"><ele>1675.0</ele><time>2012-04-30T17:20:25.0000000+00:00</time></trkpt><trkpt lat="42.89463" lon="19.684055"><ele>1675.8</ele><time>2012-04-30T17:20:30.0000000+00:00</time></trkpt><trkpt lat="42.894634" lon="19.683954"><ele>1676.7</ele><time>2012-04-30T17:20:35.0000000+00:00</time></trkpt><trkpt lat="42.894646" lon="19.683867"><ele>1677.5</ele><time>2012-04-30T17:20:40.0000000+00:00</time></trkpt><trkpt lat="42.894665" lon="19.683779"><ele>1677.6</ele><time>2012-04-30T17:20:45.0000000+00:00</time></trkpt><trkpt lat="42.894718" lon="19.683718"><ele>1677.6</ele><time>2012-04-30T17:20:50.0000000+00:00</time></trkpt><trkpt lat="42.894714" lon="19.683683"><ele>1676.5</ele><time>2012-04-30T17:20:55.0000000+00:00</time></trkpt><trkpt lat="42.894737" lon="19.683649"><ele>1676.7</ele><time>2012-04-30T17:21:00.0000000+00:00</time></trkpt><trkpt lat="42.894791" lon="19.683615"><ele>1677.9</ele><time>2012-04-30T17:21:05.0000000+00:00</time></trkpt><trkpt lat="42.894833" lon="19.683561"><ele>1678.8</ele><time>2012-04-30T17:21:10.0000000+00:00</time></trkpt><trkpt lat="42.894848" lon="19.683498"><ele>1680.2</ele><time>2012-04-30T17:21:15.0000000+00:00</time></trkpt><trkpt lat="42.894875" lon="19.683464"><ele>1681.5</ele><time>2012-04-30T17:21:20.0000000+00:00</time></trkpt><trkpt lat="42.894932" lon="19.68342"><ele>1683.4</ele><time>2012-04-30T17:21:25.0000000+00:00</time></trkpt><trkpt lat="42.894924" lon="19.683371"><ele>1684.1</ele><time>2012-04-30T17:21:30.0000000+00:00</time></trkpt><trkpt lat="42.894924" lon="19.683315"><ele>1684.8</ele><time>2012-04-30T17:21:35.0000000+00:00</time></trkpt><trkpt lat="42.894917" lon="19.683247"><ele>1685.3</ele><time>2012-04-30T17:21:40.0000000+00:00</time></trkpt><trkpt lat="42.894928" lon="19.683189"><ele>1686.0</ele><time>2012-04-30T17:21:45.0000000+00:00</time></trkpt><trkpt lat="42.894928" lon="19.683132"><ele>1686.3</ele><time>2012-04-30T17:21:50.0000000+00:00</time></trkpt><trkpt lat="42.894909" lon="19.683062"><ele>1687.1</ele><time>2012-04-30T17:21:55.0000000+00:00</time></trkpt><trkpt lat="42.894886" lon="19.68298"><ele>1687.6</ele><time>2012-04-30T17:22:00.0000000+00:00</time></trkpt><trkpt lat="42.894897" lon="19.682892"><ele>1687.9</ele><time>2012-04-30T17:22:05.0000000+00:00</time></trkpt><trkpt lat="42.894901" lon="19.682833"><ele>1688.0</ele><time>2012-04-30T17:22:10.0000000+00:00</time></trkpt><trkpt lat="42.894913" lon="19.682768"><ele>1688.7</ele><time>2012-04-30T17:22:15.0000000+00:00</time></trkpt><trkpt lat="42.894928" lon="19.682693"><ele>1689.0</ele><time>2012-04-30T17:22:20.0000000+00:00</time></trkpt><trkpt lat="42.894936" lon="19.682671"><ele>1689.1</ele><time>2012-04-30T17:22:25.0000000+00:00</time></trkpt><trkpt lat="42.894939" lon="19.682674"><ele>1689.1</ele><time>2012-04-30T17:22:30.0000000+00:00</time></trkpt><trkpt lat="42.894955" lon="19.682653"><ele>1689.1</ele><time>2012-04-30T17:22:35.0000000+00:00</time></trkpt><trkpt lat="42.894985" lon="19.68259"><ele>1689.2</ele><time>2012-04-30T17:22:40.0000000+00:00</time></trkpt><trkpt lat="42.895008" lon="19.682482"><ele>1689.0</ele><time>2012-04-30T17:22:45.0000000+00:00</time></trkpt><trkpt lat="42.895069" lon="19.682367"><ele>1688.5</ele><time>2012-04-30T17:22:50.0000000+00:00</time></trkpt><trkpt lat="42.89513" lon="19.682245"><ele>1687.9</ele><time>2012-04-30T17:22:55.0000000+00:00</time></trkpt><trkpt lat="42.895203" lon="19.682104"><ele>1687.1</ele><time>2012-04-30T17:23:00.0000000+00:00</time></trkpt><trkpt lat="42.895267" lon="19.682016"><ele>1686.7</ele><time>2012-04-30T17:23:05.0000000+00:00</time></trkpt><trkpt lat="42.895271" lon="19.68182"><ele>1685.9</ele><time>2012-04-30T17:23:10.0000000+00:00</time></trkpt><trkpt lat="42.895344" lon="19.681684"><ele>1685.2</ele><time>2012-04-30T17:23:15.0000000+00:00</time></trkpt><trkpt lat="42.895409" lon="19.681528"><ele>1685.9</ele><time>2012-04-30T17:23:20.0000000+00:00</time></trkpt><trkpt lat="42.89547" lon="19.681414"><ele>1685.4</ele><time>2012-04-30T17:23:25.0000000+00:00</time></trkpt><trkpt lat="42.895481" lon="19.681261"><ele>1684.5</ele><time>2012-04-30T17:23:30.0000000+00:00</time></trkpt><trkpt lat="42.895527" lon="19.681128"><ele>1683.0</ele><time>2012-04-30T17:23:35.0000000+00:00</time></trkpt><trkpt lat="42.895584" lon="19.680994"><ele>1682.2</ele><time>2012-04-30T17:23:40.0000000+00:00</time></trkpt><trkpt lat="42.895596" lon="19.680815"><ele>1683.3</ele><time>2012-04-30T17:23:45.0000000+00:00</time></trkpt><trkpt lat="42.895615" lon="19.680637"><ele>1684.0</ele><time>2012-04-30T17:23:50.0000000+00:00</time></trkpt><trkpt lat="42.895653" lon="19.680502"><ele>1683.9</ele><time>2012-04-30T17:23:55.0000000+00:00</time></trkpt><trkpt lat="42.895714" lon="19.680361"><ele>1682.1</ele><time>2012-04-30T17:24:00.0000000+00:00</time></trkpt><trkpt lat="42.895775" lon="19.680246"><ele>1683.2</ele><time>2012-04-30T17:24:05.0000000+00:00</time></trkpt><trkpt lat="42.895805" lon="19.680105"><ele>1683.7</ele><time>2012-04-30T17:24:10.0000000+00:00</time></trkpt><trkpt lat="42.895851" lon="19.679939"><ele>1683.7</ele><time>2012-04-30T17:24:15.0000000+00:00</time></trkpt><trkpt lat="42.89587" lon="19.679813"><ele>1683.3</ele><time>2012-04-30T17:24:20.0000000+00:00</time></trkpt><trkpt lat="42.895889" lon="19.679661"><ele>1682.8</ele><time>2012-04-30T17:24:25.0000000+00:00</time></trkpt><trkpt lat="42.895947" lon="19.679529"><ele>1683.7</ele><time>2012-04-30T17:24:30.0000000+00:00</time></trkpt><trkpt lat="42.896015" lon="19.679398"><ele>1683.4</ele><time>2012-04-30T17:24:35.0000000+00:00</time></trkpt><trkpt lat="42.896023" lon="19.679279"><ele>1684.1</ele><time>2012-04-30T17:24:40.0000000+00:00</time></trkpt><trkpt lat="42.896011" lon="19.679256"><ele>1683.4</ele><time>2012-04-30T17:24:45.0000000+00:00</time></trkpt><trkpt lat="42.896023" lon="19.679213"><ele>1683.7</ele><time>2012-04-30T17:24:50.0000000+00:00</time></trkpt><trkpt lat="42.896072" lon="19.679201"><ele>1682.1</ele><time>2012-04-30T17:24:55.0000000+00:00</time></trkpt><trkpt lat="42.896122" lon="19.679167"><ele>1681.9</ele><time>2012-04-30T17:25:00.0000000+00:00</time></trkpt><trkpt lat="42.896145" lon="19.679085"><ele>1683.0</ele><time>2012-04-30T17:25:05.0000000+00:00</time></trkpt><trkpt lat="42.896221" lon="19.679039"><ele>1682.2</ele><time>2012-04-30T17:25:10.0000000+00:00</time></trkpt><trkpt lat="42.896294" lon="19.679007"><ele>1681.5</ele><time>2012-04-30T17:25:15.0000000+00:00</time></trkpt><trkpt lat="42.896355" lon="19.67894"><ele>1681.5</ele><time>2012-04-30T17:25:20.0000000+00:00</time></trkpt><trkpt lat="42.896412" lon="19.678881"><ele>1681.4</ele><time>2012-04-30T17:25:25.0000000+00:00</time></trkpt><trkpt lat="42.896439" lon="19.678778"><ele>1682.5</ele><time>2012-04-30T17:25:30.0000000+00:00</time></trkpt><trkpt lat="42.896488" lon="19.678694"><ele>1682.9</ele><time>2012-04-30T17:25:35.0000000+00:00</time></trkpt><trkpt lat="42.896519" lon="19.678675"><ele>1682.6</ele><time>2012-04-30T17:25:40.0000000+00:00</time></trkpt><trkpt lat="42.896503" lon="19.678608"><ele>1682.4</ele><time>2012-04-30T17:25:45.0000000+00:00</time></trkpt><trkpt lat="42.896538" lon="19.678572"><ele>1682.4</ele><time>2012-04-30T17:25:50.0000000+00:00</time></trkpt><trkpt lat="42.896576" lon="19.678545"><ele>1683.6</ele><time>2012-04-30T17:25:55.0000000+00:00</time></trkpt><trkpt lat="42.896584" lon="19.67849"><ele>1684.4</ele><time>2012-04-30T17:26:00.0000000+00:00</time></trkpt><trkpt lat="42.896603" lon="19.67841"><ele>1684.6</ele><time>2012-04-30T17:26:05.0000000+00:00</time></trkpt><trkpt lat="42.896641" lon="19.678284"><ele>1685.0</ele><time>2012-04-30T17:26:10.0000000+00:00</time></trkpt><trkpt lat="42.896645" lon="19.678179"><ele>1686.1</ele><time>2012-04-30T17:26:15.0000000+00:00</time></trkpt><trkpt lat="42.896648" lon="19.678146"><ele>1685.8</ele><time>2012-04-30T17:26:20.0000000+00:00</time></trkpt><trkpt lat="42.896629" lon="19.67811"><ele>1686.9</ele><time>2012-04-30T17:26:25.0000000+00:00</time></trkpt><trkpt lat="42.896626" lon="19.678074"><ele>1687.4</ele><time>2012-04-30T17:26:30.0000000+00:00</time></trkpt><trkpt lat="42.896637" lon="19.678011"><ele>1687.6</ele><time>2012-04-30T17:26:35.0000000+00:00</time></trkpt><trkpt lat="42.896656" lon="19.677948"><ele>1687.0</ele><time>2012-04-30T17:26:40.0000000+00:00</time></trkpt><trkpt lat="42.896652" lon="19.677893"><ele>1686.8</ele><time>2012-04-30T17:26:45.0000000+00:00</time></trkpt><trkpt lat="42.89669" lon="19.67783"><ele>1687.1</ele><time>2012-04-30T17:26:50.0000000+00:00</time></trkpt><trkpt lat="42.896683" lon="19.677748"><ele>1687.4</ele><time>2012-04-30T17:26:55.0000000+00:00</time></trkpt><trkpt lat="42.89666" lon="19.677668"><ele>1687.8</ele><time>2012-04-30T17:27:00.0000000+00:00</time></trkpt><trkpt lat="42.896698" lon="19.677608"><ele>1688.5</ele><time>2012-04-30T17:27:05.0000000+00:00</time></trkpt><trkpt lat="42.89674" lon="19.677547"><ele>1688.5</ele><time>2012-04-30T17:27:10.0000000+00:00</time></trkpt><trkpt lat="42.896767" lon="19.677481"><ele>1688.4</ele><time>2012-04-30T17:27:15.0000000+00:00</time></trkpt><trkpt lat="42.896797" lon="19.677431"><ele>1688.5</ele><time>2012-04-30T17:27:20.0000000+00:00</time></trkpt><trkpt lat="42.896809" lon="19.677372"><ele>1690.1</ele><time>2012-04-30T17:27:25.0000000+00:00</time></trkpt><trkpt lat="42.896843" lon="19.677311"><ele>1689.9</ele><time>2012-04-30T17:27:30.0000000+00:00</time></trkpt><trkpt lat="42.896835" lon="19.677301"><ele>1690.3</ele><time>2012-04-30T17:27:35.0000000+00:00</time></trkpt><trkpt lat="42.896839" lon="19.677303"><ele>1690.5</ele><time>2012-04-30T17:27:40.0000000+00:00</time></trkpt><trkpt lat="42.896839" lon="19.677307"><ele>1690.8</ele><time>2012-04-30T17:27:45.0000000+00:00</time></trkpt><trkpt lat="42.896835" lon="19.677311"><ele>1691.2</ele><time>2012-04-30T17:27:50.0000000+00:00</time></trkpt><trkpt lat="42.896828" lon="19.677263"><ele>1691.3</ele><time>2012-04-30T17:27:55.0000000+00:00</time></trkpt><trkpt lat="42.896843" lon="19.677155"><ele>1691.1</ele><time>2012-04-30T17:28:00.0000000+00:00</time></trkpt><trkpt lat="42.896847" lon="19.67705"><ele>1690.5</ele><time>2012-04-30T17:28:05.0000000+00:00</time></trkpt><trkpt lat="42.896877" lon="19.676891"><ele>1690.6</ele><time>2012-04-30T17:28:10.0000000+00:00</time></trkpt><trkpt lat="42.896919" lon="19.676708"><ele>1689.6</ele><time>2012-04-30T17:28:15.0000000+00:00</time></trkpt><trkpt lat="42.896965" lon="19.67654"><ele>1690.7</ele><time>2012-04-30T17:28:20.0000000+00:00</time></trkpt><trkpt lat="42.897007" lon="19.676411"><ele>1692.7</ele><time>2012-04-30T17:28:25.0000000+00:00</time></trkpt><trkpt lat="42.897049" lon="19.676277"><ele>1693.3</ele><time>2012-04-30T17:28:30.0000000+00:00</time></trkpt><trkpt lat="42.897068" lon="19.676151"><ele>1694.8</ele><time>2012-04-30T17:28:35.0000000+00:00</time></trkpt><trkpt lat="42.897083" lon="19.676073"><ele>1694.9</ele><time>2012-04-30T17:28:40.0000000+00:00</time></trkpt><trkpt lat="42.897102" lon="19.675976"><ele>1695.7</ele><time>2012-04-30T17:28:45.0000000+00:00</time></trkpt><trkpt lat="42.897152" lon="19.675903"><ele>1694.3</ele><time>2012-04-30T17:28:50.0000000+00:00</time></trkpt><trkpt lat="42.89719" lon="19.67584"><ele>1694.4</ele><time>2012-04-30T17:28:55.0000000+00:00</time></trkpt><trkpt lat="42.897194" lon="19.675831"><ele>1693.9</ele><time>2012-04-30T17:29:00.0000000+00:00</time></trkpt><trkpt lat="42.897198" lon="19.675829"><ele>1693.9</ele><time>2012-04-30T17:29:05.0000000+00:00</time></trkpt><trkpt lat="42.897198" lon="19.675829"><ele>1693.9</ele><time>2012-04-30T17:29:10.0000000+00:00</time></trkpt><trkpt lat="42.897198" lon="19.675829"><ele>1693.9</ele><time>2012-04-30T17:29:15.0000000+00:00</time></trkpt><trkpt lat="42.897198" lon="19.675825"><ele>1693.9</ele><time>2012-04-30T17:29:20.0000000+00:00</time></trkpt><trkpt lat="42.897202" lon="19.675825"><ele>1693.9</ele><time>2012-04-30T17:29:25.0000000+00:00</time></trkpt><trkpt lat="42.897202" lon="19.675823"><ele>1693.9</ele><time>2012-04-30T17:29:30.0000000+00:00</time></trkpt><trkpt lat="42.897202" lon="19.675823"><ele>1693.9</ele><time>2012-04-30T17:29:35.0000000+00:00</time></trkpt><trkpt lat="42.897202" lon="19.675823"><ele>1693.9</ele><time>2012-04-30T17:29:40.0000000+00:00</time></trkpt><trkpt lat="42.897202" lon="19.675823"><ele>1693.9</ele><time>2012-04-30T17:29:45.0000000+00:00</time></trkpt><trkpt lat="42.897202" lon="19.675821"><ele>1693.9</ele><time>2012-04-30T17:29:50.0000000+00:00</time></trkpt><trkpt lat="42.897205" lon="19.675713"><ele>1693.4</ele><time>2012-04-30T17:29:55.0000000+00:00</time></trkpt><trkpt lat="42.89716" lon="19.67548"><ele>1692.1</ele><time>2012-04-30T17:30:00.0000000+00:00</time></trkpt><trkpt lat="42.897224" lon="19.675318"><ele>1690.8</ele><time>2012-04-30T17:30:05.0000000+00:00</time></trkpt><trkpt lat="42.897324" lon="19.675152"><ele>1689.3</ele><time>2012-04-30T17:30:10.0000000+00:00</time></trkpt><trkpt lat="42.897434" lon="19.67495"><ele>1687.9</ele><time>2012-04-30T17:30:15.0000000+00:00</time></trkpt><trkpt lat="42.897465" lon="19.674728"><ele>1686.4</ele><time>2012-04-30T17:30:20.0000000+00:00</time></trkpt><trkpt lat="42.897511" lon="19.674501"><ele>1684.3</ele><time>2012-04-30T17:30:25.0000000+00:00</time></trkpt><trkpt lat="42.897556" lon="19.674364"><ele>1684.2</ele><time>2012-04-30T17:30:30.0000000+00:00</time></trkpt><trkpt lat="42.897591" lon="19.674255"><ele>1681.6</ele><time>2012-04-30T17:30:35.0000000+00:00</time></trkpt><trkpt lat="42.89761" lon="19.674158"><ele>1679.1</ele><time>2012-04-30T17:30:40.0000000+00:00</time></trkpt><trkpt lat="42.897678" lon="19.67404"><ele>1677.6</ele><time>2012-04-30T17:30:45.0000000+00:00</time></trkpt><trkpt lat="42.897755" lon="19.673931"><ele>1675.2</ele><time>2012-04-30T17:30:50.0000000+00:00</time></trkpt><trkpt lat="42.897785" lon="19.673916"><ele>1673.2</ele><time>2012-04-30T17:30:55.0000000+00:00</time></trkpt><trkpt lat="42.8978" lon="19.673918"><ele>1672.2</ele><time>2012-04-30T17:31:00.0000000+00:00</time></trkpt><trkpt lat="42.897804" lon="19.67392"><ele>1671.7</ele><time>2012-04-30T17:31:05.0000000+00:00</time></trkpt><trkpt lat="42.897808" lon="19.673922"><ele>1671.5</ele><time>2012-04-30T17:31:10.0000000+00:00</time></trkpt><trkpt lat="42.897804" lon="19.673922"><ele>1671.5</ele><time>2012-04-30T17:31:15.0000000+00:00</time></trkpt><trkpt lat="42.897808" lon="19.673922"><ele>1671.4</ele><time>2012-04-30T17:31:20.0000000+00:00</time></trkpt><trkpt lat="42.897816" lon="19.673929"><ele>1671.5</ele><time>2012-04-30T17:31:25.0000000+00:00</time></trkpt><trkpt lat="42.897827" lon="19.673941"><ele>1671.5</ele><time>2012-04-30T17:31:30.0000000+00:00</time></trkpt><trkpt lat="42.897846" lon="19.673954"><ele>1671.6</ele><time>2012-04-30T17:31:35.0000000+00:00</time></trkpt><trkpt lat="42.89785" lon="19.673956"><ele>1671.6</ele><time>2012-04-30T17:31:40.0000000+00:00</time></trkpt><trkpt lat="42.897884" lon="19.673817"><ele>1673.0</ele><time>2012-04-30T17:31:45.0000000+00:00</time></trkpt><trkpt lat="42.897942" lon="19.673689"><ele>1672.2</ele><time>2012-04-30T17:31:50.0000000+00:00</time></trkpt><trkpt lat="42.898014" lon="19.67359"><ele>1673.8</ele><time>2012-04-30T17:31:55.0000000+00:00</time></trkpt><trkpt lat="42.89809" lon="19.673487"><ele>1673.1</ele><time>2012-04-30T17:32:00.0000000+00:00</time></trkpt><trkpt lat="42.89817" lon="19.673378"><ele>1672.4</ele><time>2012-04-30T17:32:05.0000000+00:00</time></trkpt><trkpt lat="42.898228" lon="19.673243"><ele>1672.4</ele><time>2012-04-30T17:32:10.0000000+00:00</time></trkpt><trkpt lat="42.898273" lon="19.673138"><ele>1673.3</ele><time>2012-04-30T17:32:15.0000000+00:00</time></trkpt><trkpt lat="42.8983" lon="19.673018"><ele>1673.1</ele><time>2012-04-30T17:32:20.0000000+00:00</time></trkpt><trkpt lat="42.898338" lon="19.672897"><ele>1673.4</ele><time>2012-04-30T17:32:25.0000000+00:00</time></trkpt><trkpt lat="42.898369" lon="19.672808"><ele>1675.0</ele><time>2012-04-30T17:32:30.0000000+00:00</time></trkpt><trkpt lat="42.898396" lon="19.672728"><ele>1677.5</ele><time>2012-04-30T17:32:35.0000000+00:00</time></trkpt><trkpt lat="42.898438" lon="19.672602"><ele>1677.7</ele><time>2012-04-30T17:32:40.0000000+00:00</time></trkpt><trkpt lat="42.898502" lon="19.672487"><ele>1675.2</ele><time>2012-04-30T17:32:45.0000000+00:00</time></trkpt><trkpt lat="42.898533" lon="19.672365"><ele>1677.1</ele><time>2012-04-30T17:32:50.0000000+00:00</time></trkpt><trkpt lat="42.898575" lon="19.672258"><ele>1679.8</ele><time>2012-04-30T17:32:55.0000000+00:00</time></trkpt><trkpt lat="42.898609" lon="19.672117"><ele>1680.5</ele><time>2012-04-30T17:33:00.0000000+00:00</time></trkpt><trkpt lat="42.898636" lon="19.671961"><ele>1682.0</ele><time>2012-04-30T17:33:05.0000000+00:00</time></trkpt><trkpt lat="42.898663" lon="19.671793"><ele>1680.3</ele><time>2012-04-30T17:33:10.0000000+00:00</time></trkpt><trkpt lat="42.898697" lon="19.671658"><ele>1681.0</ele><time>2012-04-30T17:33:15.0000000+00:00</time></trkpt><trkpt lat="42.898754" lon="19.671541"><ele>1681.2</ele><time>2012-04-30T17:33:20.0000000+00:00</time></trkpt><trkpt lat="42.898796" lon="19.671432"><ele>1682.3</ele><time>2012-04-30T17:33:25.0000000+00:00</time></trkpt><trkpt lat="42.898804" lon="19.671358"><ele>1684.6</ele><time>2012-04-30T17:33:30.0000000+00:00</time></trkpt><trkpt lat="42.898815" lon="19.671299"><ele>1685.9</ele><time>2012-04-30T17:33:35.0000000+00:00</time></trkpt><trkpt lat="42.898815" lon="19.671289"><ele>1685.5</ele><time>2012-04-30T17:33:40.0000000+00:00</time></trkpt><trkpt lat="42.898811" lon="19.671299"><ele>1685.1</ele><time>2012-04-30T17:33:45.0000000+00:00</time></trkpt><trkpt lat="42.898849" lon="19.671259"><ele>1685.5</ele><time>2012-04-30T17:33:50.0000000+00:00</time></trkpt><trkpt lat="42.898888" lon="19.6712"><ele>1686.5</ele><time>2012-04-30T17:33:55.0000000+00:00</time></trkpt><trkpt lat="42.898911" lon="19.671129"><ele>1686.1</ele><time>2012-04-30T17:34:00.0000000+00:00</time></trkpt><trkpt lat="42.898914" lon="19.671072"><ele>1685.9</ele><time>2012-04-30T17:34:05.0000000+00:00</time></trkpt><trkpt lat="42.898914" lon="19.670967"><ele>1686.3</ele><time>2012-04-30T17:34:10.0000000+00:00</time></trkpt><trkpt lat="42.89893" lon="19.670916"><ele>1686.6</ele><time>2012-04-30T17:34:15.0000000+00:00</time></trkpt><trkpt lat="42.898937" lon="19.670916"><ele>1684.9</ele><time>2012-04-30T17:34:20.0000000+00:00</time></trkpt><trkpt lat="42.898937" lon="19.670919"><ele>1684.9</ele><time>2012-04-30T17:34:25.0000000+00:00</time></trkpt><trkpt lat="42.898952" lon="19.670881"><ele>1684.8</ele><time>2012-04-30T17:34:30.0000000+00:00</time></trkpt><trkpt lat="42.898972" lon="19.670816"><ele>1685.0</ele><time>2012-04-30T17:34:35.0000000+00:00</time></trkpt><trkpt lat="42.898983" lon="19.670746"><ele>1685.6</ele><time>2012-04-30T17:34:40.0000000+00:00</time></trkpt><trkpt lat="42.898991" lon="19.670666"><ele>1684.9</ele><time>2012-04-30T17:34:45.0000000+00:00</time></trkpt><trkpt lat="42.898994" lon="19.670612"><ele>1685.4</ele><time>2012-04-30T17:34:50.0000000+00:00</time></trkpt><trkpt lat="42.899029" lon="19.67057"><ele>1684.2</ele><time>2012-04-30T17:34:55.0000000+00:00</time></trkpt><trkpt lat="42.899025" lon="19.670496"><ele>1684.9</ele><time>2012-04-30T17:35:00.0000000+00:00</time></trkpt><trkpt lat="42.899021" lon="19.670446"><ele>1685.5</ele><time>2012-04-30T17:35:05.0000000+00:00</time></trkpt><trkpt lat="42.899036" lon="19.670399"><ele>1686.0</ele><time>2012-04-30T17:35:10.0000000+00:00</time></trkpt><trkpt lat="42.899048" lon="19.670336"><ele>1686.7</ele><time>2012-04-30T17:35:15.0000000+00:00</time></trkpt><trkpt lat="42.899082" lon="19.670246"><ele>1687.6</ele><time>2012-04-30T17:35:20.0000000+00:00</time></trkpt><trkpt lat="42.899101" lon="19.670195"><ele>1688.4</ele><time>2012-04-30T17:35:25.0000000+00:00</time></trkpt><trkpt lat="42.899124" lon="19.670126"><ele>1689.2</ele><time>2012-04-30T17:35:30.0000000+00:00</time></trkpt><trkpt lat="42.899151" lon="19.670059"><ele>1690.4</ele><time>2012-04-30T17:35:35.0000000+00:00</time></trkpt><trkpt lat="42.899181" lon="19.669977"><ele>1690.9</ele><time>2012-04-30T17:35:40.0000000+00:00</time></trkpt><trkpt lat="42.899193" lon="19.669935"><ele>1691.7</ele><time>2012-04-30T17:35:45.0000000+00:00</time></trkpt><trkpt lat="42.899178" lon="19.669939"><ele>1692.4</ele><time>2012-04-30T17:35:50.0000000+00:00</time></trkpt><trkpt lat="42.899178" lon="19.669928"><ele>1692.7</ele><time>2012-04-30T17:35:55.0000000+00:00</time></trkpt><trkpt lat="42.899174" lon="19.66992"><ele>1693.3</ele><time>2012-04-30T17:36:00.0000000+00:00</time></trkpt><trkpt lat="42.89917" lon="19.669912"><ele>1693.8</ele><time>2012-04-30T17:36:05.0000000+00:00</time></trkpt><trkpt lat="42.899166" lon="19.669907"><ele>1694.4</ele><time>2012-04-30T17:36:10.0000000+00:00</time></trkpt><trkpt lat="42.899162" lon="19.669909"><ele>1695.0</ele><time>2012-04-30T17:36:15.0000000+00:00</time></trkpt><trkpt lat="42.899166" lon="19.669914"><ele>1695.5</ele><time>2012-04-30T17:36:20.0000000+00:00</time></trkpt><trkpt lat="42.89917" lon="19.669924"><ele>1696.0</ele><time>2012-04-30T17:36:25.0000000+00:00</time></trkpt><trkpt lat="42.899178" lon="19.669922"><ele>1696.5</ele><time>2012-04-30T17:36:30.0000000+00:00</time></trkpt><trkpt lat="42.899185" lon="19.669912"><ele>1696.9</ele><time>2012-04-30T17:36:35.0000000+00:00</time></trkpt><trkpt lat="42.899227" lon="19.669872"><ele>1697.8</ele><time>2012-04-30T17:36:40.0000000+00:00</time></trkpt><trkpt lat="42.899265" lon="19.669817"><ele>1697.8</ele><time>2012-04-30T17:36:45.0000000+00:00</time></trkpt><trkpt lat="42.899296" lon="19.669754"><ele>1698.0</ele><time>2012-04-30T17:36:50.0000000+00:00</time></trkpt><trkpt lat="42.899284" lon="19.669693"><ele>1698.6</ele><time>2012-04-30T17:36:55.0000000+00:00</time></trkpt><trkpt lat="42.899269" lon="19.669647"><ele>1698.7</ele><time>2012-04-30T17:37:00.0000000+00:00</time></trkpt><trkpt lat="42.899269" lon="19.669607"><ele>1699.3</ele><time>2012-04-30T17:37:05.0000000+00:00</time></trkpt><trkpt lat="42.899273" lon="19.669579"><ele>1700.0</ele><time>2012-04-30T17:37:10.0000000+00:00</time></trkpt><trkpt lat="42.899277" lon="19.669521"><ele>1700.4</ele><time>2012-04-30T17:37:15.0000000+00:00</time></trkpt><trkpt lat="42.899273" lon="19.66947"><ele>1701.5</ele><time>2012-04-30T17:37:20.0000000+00:00</time></trkpt><trkpt lat="42.899273" lon="19.669434"><ele>1702.0</ele><time>2012-04-30T17:37:25.0000000+00:00</time></trkpt><trkpt lat="42.899265" lon="19.669424"><ele>1701.9</ele><time>2012-04-30T17:37:30.0000000+00:00</time></trkpt><trkpt lat="42.899254" lon="19.669394"><ele>1701.8</ele><time>2012-04-30T17:37:35.0000000+00:00</time></trkpt><trkpt lat="42.899265" lon="19.669346"><ele>1702.0</ele><time>2012-04-30T17:37:40.0000000+00:00</time></trkpt><trkpt lat="42.899265" lon="19.669323"><ele>1702.0</ele><time>2012-04-30T17:37:45.0000000+00:00</time></trkpt><trkpt lat="42.899261" lon="19.669317"><ele>1702.0</ele><time>2012-04-30T17:37:50.0000000+00:00</time></trkpt><trkpt lat="42.899258" lon="19.66931"><ele>1702.1</ele><time>2012-04-30T17:37:55.0000000+00:00</time></trkpt><trkpt lat="42.89925" lon="19.669302"><ele>1702.0</ele><time>2012-04-30T17:38:00.0000000+00:00</time></trkpt><trkpt lat="42.899288" lon="19.669289"><ele>1702.1</ele><time>2012-04-30T17:38:05.0000000+00:00</time></trkpt><trkpt lat="42.8993" lon="19.669292"><ele>1702.5</ele><time>2012-04-30T17:38:10.0000000+00:00</time></trkpt><trkpt lat="42.899311" lon="19.669249"><ele>1702.9</ele><time>2012-04-30T17:38:15.0000000+00:00</time></trkpt><trkpt lat="42.899323" lon="19.66921"><ele>1703.7</ele><time>2012-04-30T17:38:20.0000000+00:00</time></trkpt><trkpt lat="42.899323" lon="19.669191"><ele>1704.0</ele><time>2012-04-30T17:38:25.0000000+00:00</time></trkpt><trkpt lat="42.899326" lon="19.669147"><ele>1704.3</ele><time>2012-04-30T17:38:30.0000000+00:00</time></trkpt><trkpt lat="42.899342" lon="19.669107"><ele>1704.3</ele><time>2012-04-30T17:38:35.0000000+00:00</time></trkpt><trkpt lat="42.899376" lon="19.669054"><ele>1704.7</ele><time>2012-04-30T17:38:40.0000000+00:00</time></trkpt><trkpt lat="42.89938" lon="19.669037"><ele>1705.0</ele><time>2012-04-30T17:38:45.0000000+00:00</time></trkpt><trkpt lat="42.899406" lon="19.668993"><ele>1705.8</ele><time>2012-04-30T17:38:50.0000000+00:00</time></trkpt><trkpt lat="42.899406" lon="19.668962"><ele>1706.4</ele><time>2012-04-30T17:38:55.0000000+00:00</time></trkpt><trkpt lat="42.899426" lon="19.668926"><ele>1707.1</ele><time>2012-04-30T17:39:00.0000000+00:00</time></trkpt><trkpt lat="42.899456" lon="19.668894"><ele>1707.0</ele><time>2012-04-30T17:39:05.0000000+00:00</time></trkpt><trkpt lat="42.899487" lon="19.66888"><ele>1707.8</ele><time>2012-04-30T17:39:10.0000000+00:00</time></trkpt><trkpt lat="42.899517" lon="19.66884"><ele>1708.3</ele><time>2012-04-30T17:39:15.0000000+00:00</time></trkpt><trkpt lat="42.89954" lon="19.668797"><ele>1708.9</ele><time>2012-04-30T17:39:20.0000000+00:00</time></trkpt><trkpt lat="42.899567" lon="19.668774"><ele>1709.4</ele><time>2012-04-30T17:39:25.0000000+00:00</time></trkpt><trkpt lat="42.89959" lon="19.668753"><ele>1710.0</ele><time>2012-04-30T17:39:30.0000000+00:00</time></trkpt><trkpt lat="42.899597" lon="19.668749"><ele>1710.8</ele><time>2012-04-30T17:39:35.0000000+00:00</time></trkpt><trkpt lat="42.89962" lon="19.668753"><ele>1711.6</ele><time>2012-04-30T17:39:40.0000000+00:00</time></trkpt><trkpt lat="42.899632" lon="19.668756"><ele>1712.2</ele><time>2012-04-30T17:39:45.0000000+00:00</time></trkpt><trkpt lat="42.899632" lon="19.668756"><ele>1712.6</ele><time>2012-04-30T17:39:50.0000000+00:00</time></trkpt><trkpt lat="42.899635" lon="19.668756"><ele>1712.9</ele><time>2012-04-30T17:39:55.0000000+00:00</time></trkpt><trkpt lat="42.899639" lon="19.668774"><ele>1712.9</ele><time>2012-04-30T17:40:00.0000000+00:00</time></trkpt><trkpt lat="42.899677" lon="19.66884"><ele>1713.8</ele><time>2012-04-30T17:40:05.0000000+00:00</time></trkpt><trkpt lat="42.899723" lon="19.668861"><ele>1714.3</ele><time>2012-04-30T17:40:10.0000000+00:00</time></trkpt><trkpt lat="42.899773" lon="19.668879"><ele>1715.0</ele><time>2012-04-30T17:40:15.0000000+00:00</time></trkpt><trkpt lat="42.899796" lon="19.668871"><ele>1714.5</ele><time>2012-04-30T17:40:20.0000000+00:00</time></trkpt><trkpt lat="42.899807" lon="19.668848"><ele>1714.5</ele><time>2012-04-30T17:40:25.0000000+00:00</time></trkpt><trkpt lat="42.899845" lon="19.668789"><ele>1715.5</ele><time>2012-04-30T17:40:30.0000000+00:00</time></trkpt><trkpt lat="42.899921" lon="19.668655"><ele>1714.9</ele><time>2012-04-30T17:40:35.0000000+00:00</time></trkpt><trkpt lat="42.899982" lon="19.668478"><ele>1714.2</ele><time>2012-04-30T17:40:40.0000000+00:00</time></trkpt><trkpt lat="42.900013" lon="19.668396"><ele>1713.4</ele><time>2012-04-30T17:40:45.0000000+00:00</time></trkpt><trkpt lat="42.900105" lon="19.668243"><ele>1712.4</ele><time>2012-04-30T17:40:50.0000000+00:00</time></trkpt><trkpt lat="42.900204" lon="19.668055"><ele>1711.5</ele><time>2012-04-30T17:40:55.0000000+00:00</time></trkpt><trkpt lat="42.900261" lon="19.667973"><ele>1710.7</ele><time>2012-04-30T17:41:00.0000000+00:00</time></trkpt><trkpt lat="42.900314" lon="19.667927"><ele>1709.4</ele><time>2012-04-30T17:41:05.0000000+00:00</time></trkpt><trkpt lat="42.900379" lon="19.667913"><ele>1708.9</ele><time>2012-04-30T17:41:10.0000000+00:00</time></trkpt><trkpt lat="42.900417" lon="19.667858"><ele>1708.4</ele><time>2012-04-30T17:41:15.0000000+00:00</time></trkpt><trkpt lat="42.900467" lon="19.667849"><ele>1707.5</ele><time>2012-04-30T17:41:20.0000000+00:00</time></trkpt><trkpt lat="42.900444" lon="19.66781"><ele>1706.6</ele><time>2012-04-30T17:41:25.0000000+00:00</time></trkpt><trkpt lat="42.900463" lon="19.66778"><ele>1705.8</ele><time>2012-04-30T17:41:30.0000000+00:00</time></trkpt><trkpt lat="42.900478" lon="19.667747"><ele>1705.0</ele><time>2012-04-30T17:41:35.0000000+00:00</time></trkpt><trkpt lat="42.900497" lon="19.667725"><ele>1704.2</ele><time>2012-04-30T17:41:40.0000000+00:00</time></trkpt><trkpt lat="42.90052" lon="19.667694"><ele>1703.4</ele><time>2012-04-30T17:41:45.0000000+00:00</time></trkpt><trkpt lat="42.900536" lon="19.667641"><ele>1702.6</ele><time>2012-04-30T17:41:50.0000000+00:00</time></trkpt><trkpt lat="42.900536" lon="19.667603"><ele>1701.9</ele><time>2012-04-30T17:41:55.0000000+00:00</time></trkpt><trkpt lat="42.900574" lon="19.667559"><ele>1701.3</ele><time>2012-04-30T17:42:00.0000000+00:00</time></trkpt><trkpt lat="42.900608" lon="19.667524"><ele>1700.6</ele><time>2012-04-30T17:42:05.0000000+00:00</time></trkpt><trkpt lat="42.900616" lon="19.667519"><ele>1700.2</ele><time>2012-04-30T17:42:10.0000000+00:00</time></trkpt><trkpt lat="42.900589" lon="19.667467"><ele>1699.7</ele><time>2012-04-30T17:42:15.0000000+00:00</time></trkpt><trkpt lat="42.900593" lon="19.667381"><ele>1699.5</ele><time>2012-04-30T17:42:20.0000000+00:00</time></trkpt><trkpt lat="42.900646" lon="19.667326"><ele>1699.3</ele><time>2012-04-30T17:42:25.0000000+00:00</time></trkpt><trkpt lat="42.900665" lon="19.667294"><ele>1699.1</ele><time>2012-04-30T17:42:30.0000000+00:00</time></trkpt><trkpt lat="42.900681" lon="19.667246"><ele>1698.9</ele><time>2012-04-30T17:42:35.0000000+00:00</time></trkpt><trkpt lat="42.900761" lon="19.667118"><ele>1698.4</ele><time>2012-04-30T17:42:40.0000000+00:00</time></trkpt><trkpt lat="42.900772" lon="19.667046"><ele>1697.9</ele><time>2012-04-30T17:42:45.0000000+00:00</time></trkpt><trkpt lat="42.900784" lon="19.666996"><ele>1697.8</ele><time>2012-04-30T17:42:50.0000000+00:00</time></trkpt><trkpt lat="42.900818" lon="19.666918"><ele>1697.4</ele><time>2012-04-30T17:42:55.0000000+00:00</time></trkpt><trkpt lat="42.900848" lon="19.666882"><ele>1697.2</ele><time>2012-04-30T17:43:00.0000000+00:00</time></trkpt><trkpt lat="42.900864" lon="19.666847"><ele>1696.5</ele><time>2012-04-30T17:43:05.0000000+00:00</time></trkpt><trkpt lat="42.900883" lon="19.666813"><ele>1696.1</ele><time>2012-04-30T17:43:10.0000000+00:00</time></trkpt><trkpt lat="42.900894" lon="19.666761"><ele>1695.7</ele><time>2012-04-30T17:43:15.0000000+00:00</time></trkpt><trkpt lat="42.90089" lon="19.666718"><ele>1695.5</ele><time>2012-04-30T17:43:20.0000000+00:00</time></trkpt><trkpt lat="42.900883" lon="19.666702"><ele>1695.4</ele><time>2012-04-30T17:43:25.0000000+00:00</time></trkpt><trkpt lat="42.900902" lon="19.666662"><ele>1695.3</ele><time>2012-04-30T17:43:30.0000000+00:00</time></trkpt><trkpt lat="42.900928" lon="19.666605"><ele>1695.0</ele><time>2012-04-30T17:43:35.0000000+00:00</time></trkpt><trkpt lat="42.900944" lon="19.666573"><ele>1694.8</ele><time>2012-04-30T17:43:40.0000000+00:00</time></trkpt><trkpt lat="42.900959" lon="19.666527"><ele>1694.4</ele><time>2012-04-30T17:43:45.0000000+00:00</time></trkpt><trkpt lat="42.900978" lon="19.666418"><ele>1694.2</ele><time>2012-04-30T17:43:50.0000000+00:00</time></trkpt><trkpt lat="42.901024" lon="19.666348"><ele>1693.5</ele><time>2012-04-30T17:43:55.0000000+00:00</time></trkpt><trkpt lat="42.901066" lon="19.66622"><ele>1691.8</ele><time>2012-04-30T17:44:00.0000000+00:00</time></trkpt><trkpt lat="42.901119" lon="19.6661"><ele>1691.1</ele><time>2012-04-30T17:44:05.0000000+00:00</time></trkpt><trkpt lat="42.901123" lon="19.666012"><ele>1690.0</ele><time>2012-04-30T17:44:10.0000000+00:00</time></trkpt><trkpt lat="42.901115" lon="19.66593"><ele>1689.4</ele><time>2012-04-30T17:44:15.0000000+00:00</time></trkpt><trkpt lat="42.901112" lon="19.665867"><ele>1688.8</ele><time>2012-04-30T17:44:20.0000000+00:00</time></trkpt><trkpt lat="42.901104" lon="19.665821"><ele>1688.2</ele><time>2012-04-30T17:44:25.0000000+00:00</time></trkpt><trkpt lat="42.901104" lon="19.665792"><ele>1687.6</ele><time>2012-04-30T17:44:30.0000000+00:00</time></trkpt><trkpt lat="42.901108" lon="19.665785"><ele>1687.4</ele><time>2012-04-30T17:44:35.0000000+00:00</time></trkpt><trkpt lat="42.901146" lon="19.66568"><ele>1687.2</ele><time>2012-04-30T17:44:40.0000000+00:00</time></trkpt><trkpt lat="42.901241" lon="19.665649"><ele>1687.2</ele><time>2012-04-30T17:44:45.0000000+00:00</time></trkpt><trkpt lat="42.901253" lon="19.665632"><ele>1687.3</ele><time>2012-04-30T17:44:50.0000000+00:00</time></trkpt><trkpt lat="42.901245" lon="19.66568"><ele>1687.5</ele><time>2012-04-30T17:44:55.0000000+00:00</time></trkpt><trkpt lat="42.901249" lon="19.665695"><ele>1687.7</ele><time>2012-04-30T17:45:00.0000000+00:00</time></trkpt><trkpt lat="42.90123" lon="19.665697"><ele>1687.8</ele><time>2012-04-30T17:45:05.0000000+00:00</time></trkpt><trkpt lat="42.90123" lon="19.665735"><ele>1688.0</ele><time>2012-04-30T17:45:10.0000000+00:00</time></trkpt><trkpt lat="42.901249" lon="19.665728"><ele>1688.2</ele><time>2012-04-30T17:45:15.0000000+00:00</time></trkpt><trkpt lat="42.901295" lon="19.665716"><ele>1688.5</ele><time>2012-04-30T17:45:20.0000000+00:00</time></trkpt><trkpt lat="42.901333" lon="19.66571"><ele>1688.9</ele><time>2012-04-30T17:45:25.0000000+00:00</time></trkpt><trkpt lat="42.901356" lon="19.665697"><ele>1689.7</ele><time>2012-04-30T17:45:30.0000000+00:00</time></trkpt><trkpt lat="42.901348" lon="19.665623"><ele>1690.0</ele><time>2012-04-30T17:45:35.0000000+00:00</time></trkpt><trkpt lat="42.901314" lon="19.665545"><ele>1691.0</ele><time>2012-04-30T17:45:40.0000000+00:00</time></trkpt><trkpt lat="42.901337" lon="19.665491"><ele>1692.3</ele><time>2012-04-30T17:45:45.0000000+00:00</time></trkpt><trkpt lat="42.901371" lon="19.66548"><ele>1693.5</ele><time>2012-04-30T17:45:50.0000000+00:00</time></trkpt><trkpt lat="42.901417" lon="19.665438"><ele>1694.4</ele><time>2012-04-30T17:45:55.0000000+00:00</time></trkpt><trkpt lat="42.901409" lon="19.665407"><ele>1695.0</ele><time>2012-04-30T17:46:00.0000000+00:00</time></trkpt><trkpt lat="42.901417" lon="19.665386"><ele>1695.3</ele><time>2012-04-30T17:46:05.0000000+00:00</time></trkpt><trkpt lat="42.90147" lon="19.665243"><ele>1695.6</ele><time>2012-04-30T17:46:10.0000000+00:00</time></trkpt><trkpt lat="42.901455" lon="19.665186"><ele>1696.5</ele><time>2012-04-30T17:46:15.0000000+00:00</time></trkpt><trkpt lat="42.90144" lon="19.66518"><ele>1697.6</ele><time>2012-04-30T17:46:20.0000000+00:00</time></trkpt><trkpt lat="42.901405" lon="19.665127"><ele>1698.0</ele><time>2012-04-30T17:46:25.0000000+00:00</time></trkpt><trkpt lat="42.90139" lon="19.665106"><ele>1697.5</ele><time>2012-04-30T17:46:30.0000000+00:00</time></trkpt><trkpt lat="42.901417" lon="19.665106"><ele>1696.4</ele><time>2012-04-30T17:46:35.0000000+00:00</time></trkpt><trkpt lat="42.901421" lon="19.665106"><ele>1696.4</ele><time>2012-04-30T17:46:40.0000000+00:00</time></trkpt><trkpt lat="42.901455" lon="19.665129"><ele>1696.5</ele><time>2012-04-30T17:46:45.0000000+00:00</time></trkpt><trkpt lat="42.901497" lon="19.665146"><ele>1696.8</ele><time>2012-04-30T17:46:50.0000000+00:00</time></trkpt><trkpt lat="42.901497" lon="19.665154"><ele>1696.7</ele><time>2012-04-30T17:46:55.0000000+00:00</time></trkpt><trkpt lat="42.901493" lon="19.665157"><ele>1696.7</ele><time>2012-04-30T17:47:00.0000000+00:00</time></trkpt><trkpt lat="42.901493" lon="19.665163"><ele>1696.7</ele><time>2012-04-30T17:47:05.0000000+00:00</time></trkpt><trkpt lat="42.901493" lon="19.665161"><ele>1696.7</ele><time>2012-04-30T17:47:10.0000000+00:00</time></trkpt><trkpt lat="42.901493" lon="19.665159"><ele>1696.7</ele><time>2012-04-30T17:47:15.0000000+00:00</time></trkpt><trkpt lat="42.90152" lon="19.665215"><ele>1696.2</ele><time>2012-04-30T17:47:20.0000000+00:00</time></trkpt><trkpt lat="42.901512" lon="19.665213"><ele>1696.4</ele><time>2012-04-30T17:47:25.0000000+00:00</time></trkpt><trkpt lat="42.901489" lon="19.665205"><ele>1696.8</ele><time>2012-04-30T17:47:30.0000000+00:00</time></trkpt><trkpt lat="42.901463" lon="19.665173"><ele>1696.8</ele><time>2012-04-30T17:47:35.0000000+00:00</time></trkpt><trkpt lat="42.901447" lon="19.665144"><ele>1696.7</ele><time>2012-04-30T17:47:40.0000000+00:00</time></trkpt><trkpt lat="42.90144" lon="19.665136"><ele>1696.7</ele><time>2012-04-30T17:47:45.0000000+00:00</time></trkpt><trkpt lat="42.901436" lon="19.665133"><ele>1696.7</ele><time>2012-04-30T17:47:50.0000000+00:00</time></trkpt><trkpt lat="42.901443" lon="19.665144"><ele>1696.6</ele><time>2012-04-30T17:47:55.0000000+00:00</time></trkpt><trkpt lat="42.901459" lon="19.665197"><ele>1696.0</ele><time>2012-04-30T17:48:00.0000000+00:00</time></trkpt><trkpt lat="42.901508" lon="19.665192"><ele>1696.5</ele><time>2012-04-30T17:48:05.0000000+00:00</time></trkpt><trkpt lat="42.901524" lon="19.665173"><ele>1695.3</ele><time>2012-04-30T17:48:10.0000000+00:00</time></trkpt><trkpt lat="42.901489" lon="19.665113"><ele>1695.7</ele><time>2012-04-30T17:48:15.0000000+00:00</time></trkpt><trkpt lat="42.901459" lon="19.665054"><ele>1694.8</ele><time>2012-04-30T17:48:20.0000000+00:00</time></trkpt><trkpt lat="42.901424" lon="19.664968"><ele>1692.0</ele><time>2012-04-30T17:48:25.0000000+00:00</time></trkpt><trkpt lat="42.901421" lon="19.664946"><ele>1690.4</ele><time>2012-04-30T17:48:30.0000000+00:00</time></trkpt><trkpt lat="42.901424" lon="19.664951"><ele>1689.9</ele><time>2012-04-30T17:48:35.0000000+00:00</time></trkpt><trkpt lat="42.901424" lon="19.664948"><ele>1689.8</ele><time>2012-04-30T17:48:40.0000000+00:00</time></trkpt><trkpt lat="42.901421" lon="19.664909"><ele>1689.9</ele><time>2012-04-30T17:48:45.0000000+00:00</time></trkpt><trkpt lat="42.901421" lon="19.664867"><ele>1690.2</ele><time>2012-04-30T17:48:50.0000000+00:00</time></trkpt><trkpt lat="42.901402" lon="19.664875"><ele>1689.7</ele><time>2012-04-30T17:48:55.0000000+00:00</time></trkpt><trkpt lat="42.901428" lon="19.664848"><ele>1689.5</ele><time>2012-04-30T17:49:00.0000000+00:00</time></trkpt><trkpt lat="42.901459" lon="19.664841"><ele>1689.5</ele><time>2012-04-30T17:49:05.0000000+00:00</time></trkpt><trkpt lat="42.901459" lon="19.664839"><ele>1689.4</ele><time>2012-04-30T17:49:10.0000000+00:00</time></trkpt><trkpt lat="42.901497" lon="19.664814"><ele>1687.2</ele><time>2012-04-30T17:49:15.0000000+00:00</time></trkpt><trkpt lat="42.901501" lon="19.664799"><ele>1686.5</ele><time>2012-04-30T17:49:20.0000000+00:00</time></trkpt><trkpt lat="42.90147" lon="19.664764"><ele>1686.3</ele><time>2012-04-30T17:49:25.0000000+00:00</time></trkpt><trkpt lat="42.901447" lon="19.6647"><ele>1685.9</ele><time>2012-04-30T17:49:30.0000000+00:00</time></trkpt><trkpt lat="42.901432" lon="19.664652"><ele>1685.9</ele><time>2012-04-30T17:49:35.0000000+00:00</time></trkpt><trkpt lat="42.901413" lon="19.664627"><ele>1685.9</ele><time>2012-04-30T17:49:40.0000000+00:00</time></trkpt><trkpt lat="42.901417" lon="19.664585"><ele>1685.9</ele><time>2012-04-30T17:49:45.0000000+00:00</time></trkpt><trkpt lat="42.901421" lon="19.664547"><ele>1685.8</ele><time>2012-04-30T17:49:50.0000000+00:00</time></trkpt><trkpt lat="42.901463" lon="19.66452"><ele>1685.7</ele><time>2012-04-30T17:49:55.0000000+00:00</time></trkpt><trkpt lat="42.901489" lon="19.664471"><ele>1685.5</ele><time>2012-04-30T17:50:00.0000000+00:00</time></trkpt><trkpt lat="42.901508" lon="19.664444"><ele>1685.3</ele><time>2012-04-30T17:50:05.0000000+00:00</time></trkpt><trkpt lat="42.901524" lon="19.664417"><ele>1685.3</ele><time>2012-04-30T17:50:10.0000000+00:00</time></trkpt><trkpt lat="42.901512" lon="19.664394"><ele>1685.2</ele><time>2012-04-30T17:50:15.0000000+00:00</time></trkpt><trkpt lat="42.901466" lon="19.664394"><ele>1685.2</ele><time>2012-04-30T17:50:20.0000000+00:00</time></trkpt><trkpt lat="42.901482" lon="19.664391"><ele>1685.2</ele><time>2012-04-30T17:50:25.0000000+00:00</time></trkpt><trkpt lat="42.901493" lon="19.664356"><ele>1684.9</ele><time>2012-04-30T17:50:30.0000000+00:00</time></trkpt><trkpt lat="42.901535" lon="19.664341"><ele>1684.6</ele><time>2012-04-30T17:50:35.0000000+00:00</time></trkpt><trkpt lat="42.901512" lon="19.664248"><ele>1684.3</ele><time>2012-04-30T17:50:40.0000000+00:00</time></trkpt><trkpt lat="42.901497" lon="19.664186"><ele>1684.2</ele><time>2012-04-30T17:50:45.0000000+00:00</time></trkpt><trkpt lat="42.901485" lon="19.664129"><ele>1683.7</ele><time>2012-04-30T17:50:50.0000000+00:00</time></trkpt><trkpt lat="42.901451" lon="19.664082"><ele>1683.5</ele><time>2012-04-30T17:50:55.0000000+00:00</time></trkpt><trkpt lat="42.901451" lon="19.664019"><ele>1683.3</ele><time>2012-04-30T17:51:00.0000000+00:00</time></trkpt><trkpt lat="42.901497" lon="19.663946"><ele>1682.6</ele><time>2012-04-30T17:51:05.0000000+00:00</time></trkpt><trkpt lat="42.901482" lon="19.663921"><ele>1682.4</ele><time>2012-04-30T17:51:10.0000000+00:00</time></trkpt><trkpt lat="42.901516" lon="19.663891"><ele>1681.9</ele><time>2012-04-30T17:51:15.0000000+00:00</time></trkpt><trkpt lat="42.901505" lon="19.66383"><ele>1680.9</ele><time>2012-04-30T17:51:20.0000000+00:00</time></trkpt><trkpt lat="42.901516" lon="19.663786"><ele>1680.1</ele><time>2012-04-30T17:51:25.0000000+00:00</time></trkpt><trkpt lat="42.901508" lon="19.663717"><ele>1679.2</ele><time>2012-04-30T17:51:30.0000000+00:00</time></trkpt><trkpt lat="42.901539" lon="19.663677"><ele>1678.3</ele><time>2012-04-30T17:51:35.0000000+00:00</time></trkpt><trkpt lat="42.901546" lon="19.66367"><ele>1677.1</ele><time>2012-04-30T17:51:40.0000000+00:00</time></trkpt><trkpt lat="42.901558" lon="19.663643"><ele>1676.3</ele><time>2012-04-30T17:51:45.0000000+00:00</time></trkpt><trkpt lat="42.901577" lon="19.663578"><ele>1675.5</ele><time>2012-04-30T17:51:50.0000000+00:00</time></trkpt><trkpt lat="42.901577" lon="19.663521"><ele>1675.1</ele><time>2012-04-30T17:51:55.0000000+00:00</time></trkpt><trkpt lat="42.90155" lon="19.663525"><ele>1674.9</ele><time>2012-04-30T17:52:00.0000000+00:00</time></trkpt><trkpt lat="42.901543" lon="19.663527"><ele>1674.7</ele><time>2012-04-30T17:52:05.0000000+00:00</time></trkpt><trkpt lat="42.901546" lon="19.663536"><ele>1674.7</ele><time>2012-04-30T17:52:10.0000000+00:00</time></trkpt><trkpt lat="42.901569" lon="19.663538"><ele>1674.4</ele><time>2012-04-30T17:52:15.0000000+00:00</time></trkpt><trkpt lat="42.90155" lon="19.663498"><ele>1673.9</ele><time>2012-04-30T17:52:20.0000000+00:00</time></trkpt><trkpt lat="42.901535" lon="19.66346"><ele>1673.8</ele><time>2012-04-30T17:52:25.0000000+00:00</time></trkpt><trkpt lat="42.901527" lon="19.663395"><ele>1673.3</ele><time>2012-04-30T17:52:30.0000000+00:00</time></trkpt><trkpt lat="42.90155" lon="19.663322"><ele>1672.8</ele><time>2012-04-30T17:52:35.0000000+00:00</time></trkpt><trkpt lat="42.901596" lon="19.663324"><ele>1671.4</ele><time>2012-04-30T17:52:40.0000000+00:00</time></trkpt><trkpt lat="42.901604" lon="19.663277"><ele>1669.6</ele><time>2012-04-30T17:52:45.0000000+00:00</time></trkpt><trkpt lat="42.901577" lon="19.663239"><ele>1668.2</ele><time>2012-04-30T17:52:50.0000000+00:00</time></trkpt><trkpt lat="42.901539" lon="19.663235"><ele>1666.7</ele><time>2012-04-30T17:52:55.0000000+00:00</time></trkpt><trkpt lat="42.901459" lon="19.66316"><ele>1666.0</ele><time>2012-04-30T17:53:00.0000000+00:00</time></trkpt><trkpt lat="42.901409" lon="19.663128"><ele>1665.5</ele><time>2012-04-30T17:53:05.0000000+00:00</time></trkpt><trkpt lat="42.901398" lon="19.663061"><ele>1664.6</ele><time>2012-04-30T17:53:10.0000000+00:00</time></trkpt><trkpt lat="42.901413" lon="19.663031"><ele>1664.4</ele><time>2012-04-30T17:53:15.0000000+00:00</time></trkpt><trkpt lat="42.901413" lon="19.663034"><ele>1664.4</ele><time>2012-04-30T17:53:20.0000000+00:00</time></trkpt><trkpt lat="42.901413" lon="19.663034"><ele>1664.3</ele><time>2012-04-30T17:53:25.0000000+00:00</time></trkpt><trkpt lat="42.901474" lon="19.662991"><ele>1663.9</ele><time>2012-04-30T17:53:30.0000000+00:00</time></trkpt><trkpt lat="42.90155" lon="19.662884"><ele>1662.3</ele><time>2012-04-30T17:53:35.0000000+00:00</time></trkpt><trkpt lat="42.901638" lon="19.662743"><ele>1660.0</ele><time>2012-04-30T17:53:40.0000000+00:00</time></trkpt><trkpt lat="42.901695" lon="19.662653"><ele>1658.5</ele><time>2012-04-30T17:53:45.0000000+00:00</time></trkpt><trkpt lat="42.901756" lon="19.662575"><ele>1656.6</ele><time>2012-04-30T17:53:50.0000000+00:00</time></trkpt><trkpt lat="42.901829" lon="19.662508"><ele>1654.0</ele><time>2012-04-30T17:53:55.0000000+00:00</time></trkpt><trkpt lat="42.901882" lon="19.662416"><ele>1652.0</ele><time>2012-04-30T17:54:00.0000000+00:00</time></trkpt><trkpt lat="42.90192" lon="19.662291"><ele>1648.8</ele><time>2012-04-30T17:54:05.0000000+00:00</time></trkpt><trkpt lat="42.901958" lon="19.662174"><ele>1644.1</ele><time>2012-04-30T17:54:10.0000000+00:00</time></trkpt><trkpt lat="42.901955" lon="19.662092"><ele>1641.2</ele><time>2012-04-30T17:54:15.0000000+00:00</time></trkpt><trkpt lat="42.90197" lon="19.662075"><ele>1640.7</ele><time>2012-04-30T17:54:20.0000000+00:00</time></trkpt><trkpt lat="42.901955" lon="19.66202"><ele>1639.8</ele><time>2012-04-30T17:54:25.0000000+00:00</time></trkpt><trkpt lat="42.901958" lon="19.661978"><ele>1639.6</ele><time>2012-04-30T17:54:30.0000000+00:00</time></trkpt><trkpt lat="42.90197" lon="19.661913"><ele>1638.7</ele><time>2012-04-30T17:54:35.0000000+00:00</time></trkpt><trkpt lat="42.901974" lon="19.661892"><ele>1638.1</ele><time>2012-04-30T17:54:40.0000000+00:00</time></trkpt><trkpt lat="42.90197" lon="19.66189"><ele>1637.5</ele><time>2012-04-30T17:54:45.0000000+00:00</time></trkpt><trkpt lat="42.901985" lon="19.661785"><ele>1636.9</ele><time>2012-04-30T17:54:50.0000000+00:00</time></trkpt><trkpt lat="42.902008" lon="19.66176"><ele>1636.7</ele><time>2012-04-30T17:54:55.0000000+00:00</time></trkpt><trkpt lat="42.902012" lon="19.661751"><ele>1636.5</ele><time>2012-04-30T17:55:00.0000000+00:00</time></trkpt><trkpt lat="42.902016" lon="19.661737"><ele>1636.1</ele><time>2012-04-30T17:55:05.0000000+00:00</time></trkpt><trkpt lat="42.902039" lon="19.661514"><ele>1634.6</ele><time>2012-04-30T17:55:10.0000000+00:00</time></trkpt><trkpt lat="42.902054" lon="19.661327"><ele>1632.2</ele><time>2012-04-30T17:55:15.0000000+00:00</time></trkpt><trkpt lat="42.902042" lon="19.661287"><ele>1631.1</ele><time>2012-04-30T17:55:20.0000000+00:00</time></trkpt><trkpt lat="42.902035" lon="19.661274"><ele>1629.7</ele><time>2012-04-30T17:55:25.0000000+00:00</time></trkpt><trkpt lat="42.902035" lon="19.661263"><ele>1629.9</ele><time>2012-04-30T17:55:30.0000000+00:00</time></trkpt><trkpt lat="42.902054" lon="19.661253"><ele>1630.6</ele><time>2012-04-30T17:55:35.0000000+00:00</time></trkpt><trkpt lat="42.902065" lon="19.66124"><ele>1630.8</ele><time>2012-04-30T17:55:40.0000000+00:00</time></trkpt><trkpt lat="42.902073" lon="19.661221"><ele>1631.1</ele><time>2012-04-30T17:55:45.0000000+00:00</time></trkpt><trkpt lat="42.902061" lon="19.661226"><ele>1631.1</ele><time>2012-04-30T17:55:50.0000000+00:00</time></trkpt><trkpt lat="42.902054" lon="19.661201"><ele>1631.0</ele><time>2012-04-30T17:55:55.0000000+00:00</time></trkpt><trkpt lat="42.902046" lon="19.661119"><ele>1631.2</ele><time>2012-04-30T17:56:00.0000000+00:00</time></trkpt><trkpt lat="42.902031" lon="19.661055"><ele>1631.4</ele><time>2012-04-30T17:56:05.0000000+00:00</time></trkpt><trkpt lat="42.902016" lon="19.661001"><ele>1631.5</ele><time>2012-04-30T17:56:10.0000000+00:00</time></trkpt><trkpt lat="42.902008" lon="19.66098"><ele>1631.6</ele><time>2012-04-30T17:56:15.0000000+00:00</time></trkpt><trkpt lat="42.902016" lon="19.660984"><ele>1631.8</ele><time>2012-04-30T17:56:20.0000000+00:00</time></trkpt><trkpt lat="42.902016" lon="19.660982"><ele>1632.0</ele><time>2012-04-30T17:56:25.0000000+00:00</time></trkpt><trkpt lat="42.902023" lon="19.660963"><ele>1632.2</ele><time>2012-04-30T17:56:30.0000000+00:00</time></trkpt><trkpt lat="42.902077" lon="19.660942"><ele>1632.2</ele><time>2012-04-30T17:56:35.0000000+00:00</time></trkpt><trkpt lat="42.902126" lon="19.660913"><ele>1632.2</ele><time>2012-04-30T17:56:40.0000000+00:00</time></trkpt><trkpt lat="42.902203" lon="19.660854"><ele>1632.2</ele><time>2012-04-30T17:56:45.0000000+00:00</time></trkpt><trkpt lat="42.902252" lon="19.660763"><ele>1632.3</ele><time>2012-04-30T17:56:50.0000000+00:00</time></trkpt><trkpt lat="42.902283" lon="19.660667"><ele>1632.3</ele><time>2012-04-30T17:56:55.0000000+00:00</time></trkpt><trkpt lat="42.90234" lon="19.660572"><ele>1632.4</ele><time>2012-04-30T17:57:00.0000000+00:00</time></trkpt><trkpt lat="42.902363" lon="19.660484"><ele>1632.4</ele><time>2012-04-30T17:57:05.0000000+00:00</time></trkpt><trkpt lat="42.90247" lon="19.660389"><ele>1632.6</ele><time>2012-04-30T17:57:10.0000000+00:00</time></trkpt><trkpt lat="42.902573" lon="19.660294"><ele>1633.3</ele><time>2012-04-30T17:57:15.0000000+00:00</time></trkpt><trkpt lat="42.902676" lon="19.660181"><ele>1633.7</ele><time>2012-04-30T17:57:20.0000000+00:00</time></trkpt><trkpt lat="42.902752" lon="19.660093"><ele>1634.4</ele><time>2012-04-30T17:57:25.0000000+00:00</time></trkpt><trkpt lat="42.902756" lon="19.660007"><ele>1634.9</ele><time>2012-04-30T17:57:30.0000000+00:00</time></trkpt><trkpt lat="42.90274" lon="19.659994"><ele>1635.6</ele><time>2012-04-30T17:57:35.0000000+00:00</time></trkpt><trkpt lat="42.90274" lon="19.660004"><ele>1636.6</ele><time>2012-04-30T17:57:40.0000000+00:00</time></trkpt><trkpt lat="42.902786" lon="19.660004"><ele>1637.5</ele><time>2012-04-30T17:57:45.0000000+00:00</time></trkpt><trkpt lat="42.902805" lon="19.660007"><ele>1638.5</ele><time>2012-04-30T17:57:50.0000000+00:00</time></trkpt><trkpt lat="42.902821" lon="19.659985"><ele>1639.1</ele><time>2012-04-30T17:57:55.0000000+00:00</time></trkpt><trkpt lat="42.902863" lon="19.659868"><ele>1639.5</ele><time>2012-04-30T17:58:00.0000000+00:00</time></trkpt><trkpt lat="42.902912" lon="19.659754"><ele>1640.0</ele><time>2012-04-30T17:58:05.0000000+00:00</time></trkpt><trkpt lat="42.902901" lon="19.65971"><ele>1640.1</ele><time>2012-04-30T17:58:10.0000000+00:00</time></trkpt><trkpt lat="42.902943" lon="19.659615"><ele>1640.3</ele><time>2012-04-30T17:58:15.0000000+00:00</time></trkpt><trkpt lat="42.902996" lon="19.659494"><ele>1640.4</ele><time>2012-04-30T17:58:20.0000000+00:00</time></trkpt><trkpt lat="42.903027" lon="19.659418"><ele>1640.6</ele><time>2012-04-30T17:58:25.0000000+00:00</time></trkpt><trkpt lat="42.903053" lon="19.659348"><ele>1641.0</ele><time>2012-04-30T17:58:30.0000000+00:00</time></trkpt><trkpt lat="42.903057" lon="19.659264"><ele>1641.2</ele><time>2012-04-30T17:58:35.0000000+00:00</time></trkpt><trkpt lat="42.90313" lon="19.659163"><ele>1641.3</ele><time>2012-04-30T17:58:40.0000000+00:00</time></trkpt><trkpt lat="42.903179" lon="19.659065"><ele>1641.3</ele><time>2012-04-30T17:58:45.0000000+00:00</time></trkpt><trkpt lat="42.903214" lon="19.658981"><ele>1641.2</ele><time>2012-04-30T17:58:50.0000000+00:00</time></trkpt><trkpt lat="42.903259" lon="19.658911"><ele>1641.0</ele><time>2012-04-30T17:58:55.0000000+00:00</time></trkpt><trkpt lat="42.903313" lon="19.658861"><ele>1641.0</ele><time>2012-04-30T17:59:00.0000000+00:00</time></trkpt><trkpt lat="42.903316" lon="19.658817"><ele>1641.0</ele><time>2012-04-30T17:59:05.0000000+00:00</time></trkpt><trkpt lat="42.903316" lon="19.6588"><ele>1640.7</ele><time>2012-04-30T17:59:10.0000000+00:00</time></trkpt><trkpt lat="42.903339" lon="19.658758"><ele>1640.6</ele><time>2012-04-30T17:59:15.0000000+00:00</time></trkpt><trkpt lat="42.903351" lon="19.658768"><ele>1640.2</ele><time>2012-04-30T17:59:20.0000000+00:00</time></trkpt><trkpt lat="42.903408" lon="19.658768"><ele>1639.8</ele><time>2012-04-30T17:59:25.0000000+00:00</time></trkpt><trkpt lat="42.903431" lon="19.658739"><ele>1639.7</ele><time>2012-04-30T17:59:30.0000000+00:00</time></trkpt><trkpt lat="42.903461" lon="19.658718"><ele>1639.5</ele><time>2012-04-30T17:59:35.0000000+00:00</time></trkpt><trkpt lat="42.903519" lon="19.658707"><ele>1639.4</ele><time>2012-04-30T17:59:40.0000000+00:00</time></trkpt><trkpt lat="42.90358" lon="19.65868"><ele>1639.2</ele><time>2012-04-30T17:59:45.0000000+00:00</time></trkpt><trkpt lat="42.903637" lon="19.658665"><ele>1639.0</ele><time>2012-04-30T17:59:50.0000000+00:00</time></trkpt><trkpt lat="42.903664" lon="19.658649"><ele>1639.2</ele><time>2012-04-30T17:59:55.0000000+00:00</time></trkpt><trkpt lat="42.90369" lon="19.658653"><ele>1639.5</ele><time>2012-04-30T18:00:00.0000000+00:00</time></trkpt><trkpt lat="42.903713" lon="19.658653"><ele>1639.7</ele><time>2012-04-30T18:00:05.0000000+00:00</time></trkpt><trkpt lat="42.903744" lon="19.658627"><ele>1639.6</ele><time>2012-04-30T18:00:10.0000000+00:00</time></trkpt><trkpt lat="42.90377" lon="19.658577"><ele>1639.6</ele><time>2012-04-30T18:00:15.0000000+00:00</time></trkpt><trkpt lat="42.903786" lon="19.658558"><ele>1639.8</ele><time>2012-04-30T18:00:20.0000000+00:00</time></trkpt><trkpt lat="42.903816" lon="19.658562"><ele>1639.9</ele><time>2012-04-30T18:00:25.0000000+00:00</time></trkpt><trkpt lat="42.903835" lon="19.658569"><ele>1639.7</ele><time>2012-04-30T18:00:30.0000000+00:00</time></trkpt><trkpt lat="42.903862" lon="19.658571"><ele>1639.5</ele><time>2012-04-30T18:00:35.0000000+00:00</time></trkpt><trkpt lat="42.903919" lon="19.658548"><ele>1639.4</ele><time>2012-04-30T18:00:40.0000000+00:00</time></trkpt><trkpt lat="42.90398" lon="19.658516"><ele>1638.9</ele><time>2012-04-30T18:00:45.0000000+00:00</time></trkpt><trkpt lat="42.904053" lon="19.658493"><ele>1637.9</ele><time>2012-04-30T18:00:50.0000000+00:00</time></trkpt><trkpt lat="42.904114" lon="19.658442"><ele>1637.0</ele><time>2012-04-30T18:00:55.0000000+00:00</time></trkpt><trkpt lat="42.904121" lon="19.658407"><ele>1635.4</ele><time>2012-04-30T18:01:00.0000000+00:00</time></trkpt><trkpt lat="42.904148" lon="19.65835"><ele>1633.5</ele><time>2012-04-30T18:01:05.0000000+00:00</time></trkpt><trkpt lat="42.904148" lon="19.658337"><ele>1632.6</ele><time>2012-04-30T18:01:10.0000000+00:00</time></trkpt><trkpt lat="42.90414" lon="19.658323"><ele>1631.3</ele><time>2012-04-30T18:01:15.0000000+00:00</time></trkpt><trkpt lat="42.90416" lon="19.658312"><ele>1631.0</ele><time>2012-04-30T18:01:20.0000000+00:00</time></trkpt><trkpt lat="42.904171" lon="19.658295"><ele>1631.2</ele><time>2012-04-30T18:01:25.0000000+00:00</time></trkpt><trkpt lat="42.904209" lon="19.658279"><ele>1630.9</ele><time>2012-04-30T18:01:30.0000000+00:00</time></trkpt><trkpt lat="42.904232" lon="19.658264"><ele>1629.8</ele><time>2012-04-30T18:01:35.0000000+00:00</time></trkpt><trkpt lat="42.904255" lon="19.658241"><ele>1629.2</ele><time>2012-04-30T18:01:40.0000000+00:00</time></trkpt><trkpt lat="42.904285" lon="19.658222"><ele>1629.0</ele><time>2012-04-30T18:01:45.0000000+00:00</time></trkpt><trkpt lat="42.904346" lon="19.65815"><ele>1627.9</ele><time>2012-04-30T18:01:50.0000000+00:00</time></trkpt><trkpt lat="42.904366" lon="19.65814"><ele>1627.4</ele><time>2012-04-30T18:01:55.0000000+00:00</time></trkpt><trkpt lat="42.904392" lon="19.658134"><ele>1627.5</ele><time>2012-04-30T18:02:00.0000000+00:00</time></trkpt><trkpt lat="42.904419" lon="19.658033"><ele>1626.6</ele><time>2012-04-30T18:02:05.0000000+00:00</time></trkpt><trkpt lat="42.904453" lon="19.658024"><ele>1625.9</ele><time>2012-04-30T18:02:10.0000000+00:00</time></trkpt><trkpt lat="42.904472" lon="19.657959"><ele>1624.2</ele><time>2012-04-30T18:02:15.0000000+00:00</time></trkpt><trkpt lat="42.90448" lon="19.657932"><ele>1622.7</ele><time>2012-04-30T18:02:20.0000000+00:00</time></trkpt><trkpt lat="42.904488" lon="19.657915"><ele>1622.3</ele><time>2012-04-30T18:02:25.0000000+00:00</time></trkpt><trkpt lat="42.90453" lon="19.657913"><ele>1621.6</ele><time>2012-04-30T18:02:30.0000000+00:00</time></trkpt><trkpt lat="42.904514" lon="19.657913"><ele>1620.9</ele><time>2012-04-30T18:02:35.0000000+00:00</time></trkpt><trkpt lat="42.904514" lon="19.657948"><ele>1620.2</ele><time>2012-04-30T18:02:40.0000000+00:00</time></trkpt><trkpt lat="42.904514" lon="19.657942"><ele>1620.0</ele><time>2012-04-30T18:02:45.0000000+00:00</time></trkpt><trkpt lat="42.904541" lon="19.657972"><ele>1619.5</ele><time>2012-04-30T18:02:50.0000000+00:00</time></trkpt><trkpt lat="42.904545" lon="19.657963"><ele>1619.2</ele><time>2012-04-30T18:02:55.0000000+00:00</time></trkpt><trkpt lat="42.904598" lon="19.657967"><ele>1617.1</ele><time>2012-04-30T18:03:00.0000000+00:00</time></trkpt><trkpt lat="42.904655" lon="19.657974"><ele>1615.6</ele><time>2012-04-30T18:03:05.0000000+00:00</time></trkpt><trkpt lat="42.904652" lon="19.657969"><ele>1614.8</ele><time>2012-04-30T18:03:10.0000000+00:00</time></trkpt><trkpt lat="42.904671" lon="19.657946"><ele>1614.0</ele><time>2012-04-30T18:03:15.0000000+00:00</time></trkpt><trkpt lat="42.904678" lon="19.657892"><ele>1613.2</ele><time>2012-04-30T18:03:20.0000000+00:00</time></trkpt><trkpt lat="42.904716" lon="19.657921"><ele>1613.4</ele><time>2012-04-30T18:03:25.0000000+00:00</time></trkpt><trkpt lat="42.904732" lon="19.657907"><ele>1613.0</ele><time>2012-04-30T18:03:30.0000000+00:00</time></trkpt><trkpt lat="42.904751" lon="19.657873"><ele>1612.4</ele><time>2012-04-30T18:03:35.0000000+00:00</time></trkpt><trkpt lat="42.904751" lon="19.657858"><ele>1612.2</ele><time>2012-04-30T18:03:40.0000000+00:00</time></trkpt><trkpt lat="42.904781" lon="19.657866"><ele>1612.2</ele><time>2012-04-30T18:03:45.0000000+00:00</time></trkpt><trkpt lat="42.904812" lon="19.657837"><ele>1612.0</ele><time>2012-04-30T18:03:50.0000000+00:00</time></trkpt><trkpt lat="42.90485" lon="19.657856"><ele>1612.0</ele><time>2012-04-30T18:03:55.0000000+00:00</time></trkpt><trkpt lat="42.904869" lon="19.657856"><ele>1612.2</ele><time>2012-04-30T18:04:00.0000000+00:00</time></trkpt><trkpt lat="42.904884" lon="19.65785"><ele>1612.5</ele><time>2012-04-30T18:04:05.0000000+00:00</time></trkpt><trkpt lat="42.904892" lon="19.657846"><ele>1612.9</ele><time>2012-04-30T18:04:10.0000000+00:00</time></trkpt><trkpt lat="42.904888" lon="19.657839"><ele>1612.9</ele><time>2012-04-30T18:04:15.0000000+00:00</time></trkpt><trkpt lat="42.904896" lon="19.657839"><ele>1613.0</ele><time>2012-04-30T18:04:20.0000000+00:00</time></trkpt><trkpt lat="42.904896" lon="19.657835"><ele>1613.0</ele><time>2012-04-30T18:04:25.0000000+00:00</time></trkpt><trkpt lat="42.904892" lon="19.657829"><ele>1613.0</ele><time>2012-04-30T18:04:30.0000000+00:00</time></trkpt><trkpt lat="42.904896" lon="19.657822"><ele>1613.0</ele><time>2012-04-30T18:04:35.0000000+00:00</time></trkpt><trkpt lat="42.9049" lon="19.657797"><ele>1612.8</ele><time>2012-04-30T18:04:40.0000000+00:00</time></trkpt><trkpt lat="42.9049" lon="19.657782"><ele>1612.6</ele><time>2012-04-30T18:04:45.0000000+00:00</time></trkpt><trkpt lat="42.904907" lon="19.657776"><ele>1612.5</ele><time>2012-04-30T18:04:50.0000000+00:00</time></trkpt><trkpt lat="42.904922" lon="19.657747"><ele>1612.4</ele><time>2012-04-30T18:04:55.0000000+00:00</time></trkpt><trkpt lat="42.904934" lon="19.657734"><ele>1612.3</ele><time>2012-04-30T18:05:00.0000000+00:00</time></trkpt><trkpt lat="42.904945" lon="19.65773"><ele>1612.2</ele><time>2012-04-30T18:05:05.0000000+00:00</time></trkpt><trkpt lat="42.904961" lon="19.657698"><ele>1612.1</ele><time>2012-04-30T18:05:10.0000000+00:00</time></trkpt><trkpt lat="42.904984" lon="19.657658"><ele>1612.1</ele><time>2012-04-30T18:05:15.0000000+00:00</time></trkpt><trkpt lat="42.904976" lon="19.657642"><ele>1612.0</ele><time>2012-04-30T18:05:20.0000000+00:00</time></trkpt><trkpt lat="42.90498" lon="19.65764"><ele>1611.9</ele><time>2012-04-30T18:05:25.0000000+00:00</time></trkpt><trkpt lat="42.90498" lon="19.657637"><ele>1611.7</ele><time>2012-04-30T18:05:30.0000000+00:00</time></trkpt><trkpt lat="42.90498" lon="19.657637"><ele>1611.6</ele><time>2012-04-30T18:05:35.0000000+00:00</time></trkpt><trkpt lat="42.904991" lon="19.657633"><ele>1611.5</ele><time>2012-04-30T18:05:40.0000000+00:00</time></trkpt><trkpt lat="42.905003" lon="19.657629"><ele>1611.4</ele><time>2012-04-30T18:05:45.0000000+00:00</time></trkpt><trkpt lat="42.90501" lon="19.657627"><ele>1611.3</ele><time>2012-04-30T18:05:50.0000000+00:00</time></trkpt><trkpt lat="42.905022" lon="19.657604"><ele>1611.0</ele><time>2012-04-30T18:05:55.0000000+00:00</time></trkpt><trkpt lat="42.905064" lon="19.657574"><ele>1610.6</ele><time>2012-04-30T18:06:00.0000000+00:00</time></trkpt><trkpt lat="42.905117" lon="19.657526"><ele>1610.3</ele><time>2012-04-30T18:06:05.0000000+00:00</time></trkpt><trkpt lat="42.90517" lon="19.657436"><ele>1610.0</ele><time>2012-04-30T18:06:10.0000000+00:00</time></trkpt><trkpt lat="42.905239" lon="19.657402"><ele>1609.7</ele><time>2012-04-30T18:06:15.0000000+00:00</time></trkpt><trkpt lat="42.905254" lon="19.657263"><ele>1609.0</ele><time>2012-04-30T18:06:20.0000000+00:00</time></trkpt><trkpt lat="42.905254" lon="19.657248"><ele>1608.7</ele><time>2012-04-30T18:06:25.0000000+00:00</time></trkpt><trkpt lat="42.9053" lon="19.657253"><ele>1608.3</ele><time>2012-04-30T18:06:30.0000000+00:00</time></trkpt><trkpt lat="42.90535" lon="19.657251"><ele>1607.6</ele><time>2012-04-30T18:06:35.0000000+00:00</time></trkpt><trkpt lat="42.905396" lon="19.657259"><ele>1607.0</ele><time>2012-04-30T18:06:40.0000000+00:00</time></trkpt><trkpt lat="42.90546" lon="19.657269"><ele>1606.5</ele><time>2012-04-30T18:06:45.0000000+00:00</time></trkpt><trkpt lat="42.905499" lon="19.657267"><ele>1605.8</ele><time>2012-04-30T18:06:50.0000000+00:00</time></trkpt><trkpt lat="42.905483" lon="19.657246"><ele>1605.0</ele><time>2012-04-30T18:06:55.0000000+00:00</time></trkpt><trkpt lat="42.905479" lon="19.657236"><ele>1604.9</ele><time>2012-04-30T18:07:00.0000000+00:00</time></trkpt><trkpt lat="42.905487" lon="19.657217"><ele>1604.3</ele><time>2012-04-30T18:07:05.0000000+00:00</time></trkpt><trkpt lat="42.905506" lon="19.657213"><ele>1604.2</ele><time>2012-04-30T18:07:10.0000000+00:00</time></trkpt><trkpt lat="42.90551" lon="19.657209"><ele>1604.4</ele><time>2012-04-30T18:07:15.0000000+00:00</time></trkpt><trkpt lat="42.905514" lon="19.6572"><ele>1604.5</ele><time>2012-04-30T18:07:20.0000000+00:00</time></trkpt><trkpt lat="42.905495" lon="19.6572"><ele>1603.4</ele><time>2012-04-30T18:07:25.0000000+00:00</time></trkpt><trkpt lat="42.905495" lon="19.657202"><ele>1603.3</ele><time>2012-04-30T18:07:30.0000000+00:00</time></trkpt><trkpt lat="42.905491" lon="19.6572"><ele>1603.5</ele><time>2012-04-30T18:07:35.0000000+00:00</time></trkpt><trkpt lat="42.905491" lon="19.6572"><ele>1603.5</ele><time>2012-04-30T18:07:40.0000000+00:00</time></trkpt><trkpt lat="42.905491" lon="19.6572"><ele>1603.5</ele><time>2012-04-30T18:07:45.0000000+00:00</time></trkpt><trkpt lat="42.905491" lon="19.6572"><ele>1603.5</ele><time>2012-04-30T18:07:50.0000000+00:00</time></trkpt><trkpt lat="42.905502" lon="19.657192"><ele>1602.4</ele><time>2012-04-30T18:07:55.0000000+00:00</time></trkpt><trkpt lat="42.905491" lon="19.657192"><ele>1600.1</ele><time>2012-04-30T18:08:00.0000000+00:00</time></trkpt><trkpt lat="42.905487" lon="19.657194"><ele>1599.7</ele><time>2012-04-30T18:08:05.0000000+00:00</time></trkpt><trkpt lat="42.905483" lon="19.657188"><ele>1599.2</ele><time>2012-04-30T18:08:10.0000000+00:00</time></trkpt><trkpt lat="42.905518" lon="19.657183"><ele>1597.8</ele><time>2012-04-30T18:08:15.0000000+00:00</time></trkpt><trkpt lat="42.905552" lon="19.657175"><ele>1596.0</ele><time>2012-04-30T18:08:20.0000000+00:00</time></trkpt><trkpt lat="42.905575" lon="19.657158"><ele>1594.5</ele><time>2012-04-30T18:08:25.0000000+00:00</time></trkpt><trkpt lat="42.905579" lon="19.657146"><ele>1593.3</ele><time>2012-04-30T18:08:30.0000000+00:00</time></trkpt><trkpt lat="42.905617" lon="19.657179"><ele>1591.0</ele><time>2012-04-30T18:08:35.0000000+00:00</time></trkpt><trkpt lat="42.905663" lon="19.657164"><ele>1589.3</ele><time>2012-04-30T18:08:40.0000000+00:00</time></trkpt><trkpt lat="42.905693" lon="19.657131"><ele>1586.5</ele><time>2012-04-30T18:08:45.0000000+00:00</time></trkpt><trkpt lat="42.90572" lon="19.657127"><ele>1583.3</ele><time>2012-04-30T18:08:50.0000000+00:00</time></trkpt><trkpt lat="42.905796" lon="19.657112"><ele>1581.0</ele><time>2012-04-30T18:08:55.0000000+00:00</time></trkpt><trkpt lat="42.905838" lon="19.65711"><ele>1577.7</ele><time>2012-04-30T18:09:00.0000000+00:00</time></trkpt><trkpt lat="42.905861" lon="19.657122"><ele>1575.9</ele><time>2012-04-30T18:09:05.0000000+00:00</time></trkpt><trkpt lat="42.905952" lon="19.657091"><ele>1573.6</ele><time>2012-04-30T18:09:10.0000000+00:00</time></trkpt><trkpt lat="42.906025" lon="19.657021"><ele>1571.2</ele><time>2012-04-30T18:09:15.0000000+00:00</time></trkpt><trkpt lat="42.906082" lon="19.657021"><ele>1565.4</ele><time>2012-04-30T18:09:20.0000000+00:00</time></trkpt><trkpt lat="42.906143" lon="19.656982"><ele>1560.0</ele><time>2012-04-30T18:09:25.0000000+00:00</time></trkpt><trkpt lat="42.906193" lon="19.656979"><ele>1557.0</ele><time>2012-04-30T18:09:30.0000000+00:00</time></trkpt><trkpt lat="42.906269" lon="19.656967"><ele>1553.3</ele><time>2012-04-30T18:09:35.0000000+00:00</time></trkpt><trkpt lat="42.906342" lon="19.65694"><ele>1548.7</ele><time>2012-04-30T18:09:40.0000000+00:00</time></trkpt><trkpt lat="42.906361" lon="19.656824"><ele>1547.2</ele><time>2012-04-30T18:09:45.0000000+00:00</time></trkpt><trkpt lat="42.906387" lon="19.656801"><ele>1545.6</ele><time>2012-04-30T18:09:50.0000000+00:00</time></trkpt><trkpt lat="42.906425" lon="19.65679"><ele>1541.9</ele><time>2012-04-30T18:09:55.0000000+00:00</time></trkpt><trkpt lat="42.906471" lon="19.656746"><ele>1539.7</ele><time>2012-04-30T18:10:00.0000000+00:00</time></trkpt><trkpt lat="42.90649" lon="19.656706"><ele>1536.5</ele><time>2012-04-30T18:10:05.0000000+00:00</time></trkpt><trkpt lat="42.906494" lon="19.65666"><ele>1531.4</ele><time>2012-04-30T18:10:10.0000000+00:00</time></trkpt><trkpt lat="42.906498" lon="19.656651"><ele>1530.1</ele><time>2012-04-30T18:10:15.0000000+00:00</time></trkpt><trkpt lat="42.906498" lon="19.656654"><ele>1529.8</ele><time>2012-04-30T18:10:20.0000000+00:00</time></trkpt><trkpt lat="42.906494" lon="19.656652"><ele>1529.6</ele><time>2012-04-30T18:10:25.0000000+00:00</time></trkpt><trkpt lat="42.906494" lon="19.656652"><ele>1529.5</ele><time>2012-04-30T18:10:30.0000000+00:00</time></trkpt><trkpt lat="42.90649" lon="19.656649"><ele>1529.5</ele><time>2012-04-30T18:10:35.0000000+00:00</time></trkpt><trkpt lat="42.90649" lon="19.656649"><ele>1529.3</ele><time>2012-04-30T18:10:40.0000000+00:00</time></trkpt><trkpt lat="42.90649" lon="19.656649"><ele>1529.3</ele><time>2012-04-30T18:10:45.0000000+00:00</time></trkpt><trkpt lat="42.90649" lon="19.656649"><ele>1529.3</ele><time>2012-04-30T18:10:50.0000000+00:00</time></trkpt><trkpt lat="42.90649" lon="19.656649"><ele>1529.3</ele><time>2012-04-30T18:10:55.0000000+00:00</time></trkpt><trkpt lat="42.90649" lon="19.656649"><ele>1529.3</ele><time>2012-04-30T18:11:00.0000000+00:00</time></trkpt><trkpt lat="42.906494" lon="19.656639"><ele>1527.8</ele><time>2012-04-30T18:11:05.0000000+00:00</time></trkpt><trkpt lat="42.906559" lon="19.656609"><ele>1526.5</ele><time>2012-04-30T18:11:10.0000000+00:00</time></trkpt><trkpt lat="42.906673" lon="19.656563"><ele>1524.9</ele><time>2012-04-30T18:11:15.0000000+00:00</time></trkpt><trkpt lat="42.906773" lon="19.656517"><ele>1523.3</ele><time>2012-04-30T18:11:20.0000000+00:00</time></trkpt><trkpt lat="42.906853" lon="19.656462"><ele>1521.4</ele><time>2012-04-30T18:11:25.0000000+00:00</time></trkpt><trkpt lat="42.906937" lon="19.656351"><ele>1519.0</ele><time>2012-04-30T18:11:30.0000000+00:00</time></trkpt><trkpt lat="42.906998" lon="19.656296"><ele>1518.6</ele><time>2012-04-30T18:11:35.0000000+00:00</time></trkpt><trkpt lat="42.907078" lon="19.656252"><ele>1517.1</ele><time>2012-04-30T18:11:40.0000000+00:00</time></trkpt><trkpt lat="42.907131" lon="19.656229"><ele>1515.0</ele><time>2012-04-30T18:11:45.0000000+00:00</time></trkpt><trkpt lat="42.907127" lon="19.656227"><ele>1514.2</ele><time>2012-04-30T18:11:50.0000000+00:00</time></trkpt><trkpt lat="42.907127" lon="19.656225"><ele>1514.0</ele><time>2012-04-30T18:11:55.0000000+00:00</time></trkpt><trkpt lat="42.907127" lon="19.656225"><ele>1513.9</ele><time>2012-04-30T18:12:00.0000000+00:00</time></trkpt><trkpt lat="42.907127" lon="19.656225"><ele>1513.9</ele><time>2012-04-30T18:12:05.0000000+00:00</time></trkpt><trkpt lat="42.907246" lon="19.656202"><ele>1512.5</ele><time>2012-04-30T18:12:10.0000000+00:00</time></trkpt><trkpt lat="42.907421" lon="19.65616"><ele>1510.6</ele><time>2012-04-30T18:12:15.0000000+00:00</time></trkpt><trkpt lat="42.907593" lon="19.656126"><ele>1506.7</ele><time>2012-04-30T18:12:20.0000000+00:00</time></trkpt><trkpt lat="42.907745" lon="19.656096"><ele>1507.0</ele><time>2012-04-30T18:12:25.0000000+00:00</time></trkpt><trkpt lat="42.907864" lon="19.656048"><ele>1503.2</ele><time>2012-04-30T18:12:30.0000000+00:00</time></trkpt><trkpt lat="42.907963" lon="19.65604"><ele>1501.5</ele><time>2012-04-30T18:12:35.0000000+00:00</time></trkpt><trkpt lat="42.907982" lon="19.656027"><ele>1500.1</ele><time>2012-04-30T18:12:40.0000000+00:00</time></trkpt><trkpt lat="42.908043" lon="19.656008"><ele>1499.6</ele><time>2012-04-30T18:12:45.0000000+00:00</time></trkpt><trkpt lat="42.908127" lon="19.656019"><ele>1499.1</ele><time>2012-04-30T18:12:50.0000000+00:00</time></trkpt><trkpt lat="42.908195" lon="19.656075"><ele>1498.1</ele><time>2012-04-30T18:12:55.0000000+00:00</time></trkpt><trkpt lat="42.908211" lon="19.656141"><ele>1496.2</ele><time>2012-04-30T18:13:00.0000000+00:00</time></trkpt><trkpt lat="42.908207" lon="19.656179"><ele>1495.0</ele><time>2012-04-30T18:13:05.0000000+00:00</time></trkpt><trkpt lat="42.908215" lon="19.6562"><ele>1493.9</ele><time>2012-04-30T18:13:10.0000000+00:00</time></trkpt><trkpt lat="42.908218" lon="19.656202"><ele>1493.3</ele><time>2012-04-30T18:13:15.0000000+00:00</time></trkpt><trkpt lat="42.908218" lon="19.656202"><ele>1493.4</ele><time>2012-04-30T18:13:20.0000000+00:00</time></trkpt><trkpt lat="42.908218" lon="19.6562"><ele>1493.4</ele><time>2012-04-30T18:13:25.0000000+00:00</time></trkpt><trkpt lat="42.908218" lon="19.6562"><ele>1493.4</ele><time>2012-04-30T18:13:30.0000000+00:00</time></trkpt><trkpt lat="42.908218" lon="19.656214"><ele>1493.5</ele><time>2012-04-30T18:13:35.0000000+00:00</time></trkpt><trkpt lat="42.908211" lon="19.656269"><ele>1494.4</ele><time>2012-04-30T18:13:40.0000000+00:00</time></trkpt><trkpt lat="42.908192" lon="19.656319"><ele>1492.0</ele><time>2012-04-30T18:13:45.0000000+00:00</time></trkpt><trkpt lat="42.908173" lon="19.656401"><ele>1488.0</ele><time>2012-04-30T18:13:50.0000000+00:00</time></trkpt><trkpt lat="42.908207" lon="19.656437"><ele>1486.3</ele><time>2012-04-30T18:13:55.0000000+00:00</time></trkpt><trkpt lat="42.908222" lon="19.656445"><ele>1485.2</ele><time>2012-04-30T18:14:00.0000000+00:00</time></trkpt><trkpt lat="42.908184" lon="19.656511"><ele>1482.6</ele><time>2012-04-30T18:14:05.0000000+00:00</time></trkpt><trkpt lat="42.908207" lon="19.656622"><ele>1482.5</ele><time>2012-04-30T18:14:10.0000000+00:00</time></trkpt><trkpt lat="42.908241" lon="19.656761"><ele>1483.5</ele><time>2012-04-30T18:14:15.0000000+00:00</time></trkpt><trkpt lat="42.908295" lon="19.656879"><ele>1482.0</ele><time>2012-04-30T18:14:20.0000000+00:00</time></trkpt><trkpt lat="42.90831" lon="19.656919"><ele>1482.9</ele><time>2012-04-30T18:14:25.0000000+00:00</time></trkpt><trkpt lat="42.908348" lon="19.656967"><ele>1483.5</ele><time>2012-04-30T18:14:30.0000000+00:00</time></trkpt><trkpt lat="42.908375" lon="19.657017"><ele>1485.5</ele><time>2012-04-30T18:14:35.0000000+00:00</time></trkpt><trkpt lat="42.908424" lon="19.657089"><ele>1488.6</ele><time>2012-04-30T18:14:40.0000000+00:00</time></trkpt><trkpt lat="42.908447" lon="19.657143"><ele>1492.7</ele><time>2012-04-30T18:14:45.0000000+00:00</time></trkpt><trkpt lat="42.908482" lon="19.65723"><ele>1496.0</ele><time>2012-04-30T18:14:50.0000000+00:00</time></trkpt><trkpt lat="42.90847" lon="19.657307"><ele>1500.6</ele><time>2012-04-30T18:14:55.0000000+00:00</time></trkpt><trkpt lat="42.908466" lon="19.657381"><ele>1503.7</ele><time>2012-04-30T18:15:00.0000000+00:00</time></trkpt><trkpt lat="42.908482" lon="19.657434"><ele>1506.6</ele><time>2012-04-30T18:15:05.0000000+00:00</time></trkpt><trkpt lat="42.908463" lon="19.657515"><ele>1508.1</ele><time>2012-04-30T18:15:10.0000000+00:00</time></trkpt><trkpt lat="42.908455" lon="19.657597"><ele>1510.1</ele><time>2012-04-30T18:15:15.0000000+00:00</time></trkpt><trkpt lat="42.908443" lon="19.65761"><ele>1511.2</ele><time>2012-04-30T18:15:20.0000000+00:00</time></trkpt><trkpt lat="42.908432" lon="19.657608"><ele>1512.5</ele><time>2012-04-30T18:15:25.0000000+00:00</time></trkpt><trkpt lat="42.908474" lon="19.657749"><ele>1514.1</ele><time>2012-04-30T18:15:30.0000000+00:00</time></trkpt><trkpt lat="42.908516" lon="19.657898"><ele>1516.8</ele><time>2012-04-30T18:15:35.0000000+00:00</time></trkpt><trkpt lat="42.908607" lon="19.657967"><ele>1519.7</ele><time>2012-04-30T18:15:40.0000000+00:00</time></trkpt><trkpt lat="42.908676" lon="19.657967"><ele>1522.6</ele><time>2012-04-30T18:15:45.0000000+00:00</time></trkpt><trkpt lat="42.908722" lon="19.657932"><ele>1526.1</ele><time>2012-04-30T18:15:50.0000000+00:00</time></trkpt><trkpt lat="42.908806" lon="19.657913"><ele>1530.5</ele><time>2012-04-30T18:15:55.0000000+00:00</time></trkpt><trkpt lat="42.90884" lon="19.657869"><ele>1535.9</ele><time>2012-04-30T18:16:00.0000000+00:00</time></trkpt><trkpt lat="42.908802" lon="19.657856"><ele>1536.2</ele><time>2012-04-30T18:16:05.0000000+00:00</time></trkpt><trkpt lat="42.908829" lon="19.657879"><ele>1536.8</ele><time>2012-04-30T18:16:10.0000000+00:00</time></trkpt><trkpt lat="42.908852" lon="19.657864"><ele>1537.4</ele><time>2012-04-30T18:16:15.0000000+00:00</time></trkpt><trkpt lat="42.908916" lon="19.657841"><ele>1538.5</ele><time>2012-04-30T18:16:20.0000000+00:00</time></trkpt><trkpt lat="42.908939" lon="19.657833"><ele>1539.5</ele><time>2012-04-30T18:16:25.0000000+00:00</time></trkpt><trkpt lat="42.908978" lon="19.657824"><ele>1540.5</ele><time>2012-04-30T18:16:30.0000000+00:00</time></trkpt><trkpt lat="42.909031" lon="19.657824"><ele>1541.1</ele><time>2012-04-30T18:16:35.0000000+00:00</time></trkpt><trkpt lat="42.909084" lon="19.657818"><ele>1542.0</ele><time>2012-04-30T18:16:40.0000000+00:00</time></trkpt><trkpt lat="42.909122" lon="19.657837"><ele>1542.4</ele><time>2012-04-30T18:16:45.0000000+00:00</time></trkpt><trkpt lat="42.909153" lon="19.657822"><ele>1542.0</ele><time>2012-04-30T18:16:50.0000000+00:00</time></trkpt><trkpt lat="42.909164" lon="19.657829"><ele>1542.2</ele><time>2012-04-30T18:16:55.0000000+00:00</time></trkpt><trkpt lat="42.909199" lon="19.657843"><ele>1542.3</ele><time>2012-04-30T18:17:00.0000000+00:00</time></trkpt><trkpt lat="42.909237" lon="19.657831"><ele>1541.9</ele><time>2012-04-30T18:17:05.0000000+00:00</time></trkpt><trkpt lat="42.909264" lon="19.657839"><ele>1542.3</ele><time>2012-04-30T18:17:10.0000000+00:00</time></trkpt><trkpt lat="42.909275" lon="19.657873"><ele>1541.5</ele><time>2012-04-30T18:17:15.0000000+00:00</time></trkpt><trkpt lat="42.909306" lon="19.657885"><ele>1540.1</ele><time>2012-04-30T18:17:20.0000000+00:00</time></trkpt><trkpt lat="42.909355" lon="19.657928"><ele>1538.7</ele><time>2012-04-30T18:17:25.0000000+00:00</time></trkpt><trkpt lat="42.909412" lon="19.657921"><ele>1536.8</ele><time>2012-04-30T18:17:30.0000000+00:00</time></trkpt><trkpt lat="42.909462" lon="19.657896"><ele>1534.4</ele><time>2012-04-30T18:17:35.0000000+00:00</time></trkpt><trkpt lat="42.909515" lon="19.657902"><ele>1531.4</ele><time>2012-04-30T18:17:40.0000000+00:00</time></trkpt><trkpt lat="42.90958" lon="19.657925"><ele>1528.5</ele><time>2012-04-30T18:17:45.0000000+00:00</time></trkpt><trkpt lat="42.909641" lon="19.657949"><ele>1526.8</ele><time>2012-04-30T18:17:50.0000000+00:00</time></trkpt><trkpt lat="42.909698" lon="19.657946"><ele>1527.2</ele><time>2012-04-30T18:17:55.0000000+00:00</time></trkpt><trkpt lat="42.909737" lon="19.657919"><ele>1527.0</ele><time>2012-04-30T18:18:00.0000000+00:00</time></trkpt><trkpt lat="42.909782" lon="19.65789"><ele>1528.3</ele><time>2012-04-30T18:18:05.0000000+00:00</time></trkpt><trkpt lat="42.909832" lon="19.657866"><ele>1530.1</ele><time>2012-04-30T18:18:10.0000000+00:00</time></trkpt><trkpt lat="42.909882" lon="19.657848"><ele>1530.5</ele><time>2012-04-30T18:18:15.0000000+00:00</time></trkpt><trkpt lat="42.90992" lon="19.657824"><ele>1531.2</ele><time>2012-04-30T18:18:20.0000000+00:00</time></trkpt><trkpt lat="42.909954" lon="19.657803"><ele>1531.9</ele><time>2012-04-30T18:18:25.0000000+00:00</time></trkpt><trkpt lat="42.909985" lon="19.657778"><ele>1533.0</ele><time>2012-04-30T18:18:30.0000000+00:00</time></trkpt><trkpt lat="42.910007" lon="19.657747"><ele>1534.4</ele><time>2012-04-30T18:18:35.0000000+00:00</time></trkpt><trkpt lat="42.910038" lon="19.657726"><ele>1535.7</ele><time>2012-04-30T18:18:40.0000000+00:00</time></trkpt><trkpt lat="42.910076" lon="19.657724"><ele>1537.1</ele><time>2012-04-30T18:18:45.0000000+00:00</time></trkpt><trkpt lat="42.910103" lon="19.657734"><ele>1538.6</ele><time>2012-04-30T18:18:50.0000000+00:00</time></trkpt><trkpt lat="42.910122" lon="19.657726"><ele>1539.5</ele><time>2012-04-30T18:18:55.0000000+00:00</time></trkpt><trkpt lat="42.910149" lon="19.657713"><ele>1540.0</ele><time>2012-04-30T18:19:00.0000000+00:00</time></trkpt><trkpt lat="42.910168" lon="19.657686"><ele>1540.5</ele><time>2012-04-30T18:19:05.0000000+00:00</time></trkpt><trkpt lat="42.910187" lon="19.657692"><ele>1541.1</ele><time>2012-04-30T18:19:10.0000000+00:00</time></trkpt><trkpt lat="42.910225" lon="19.657705"><ele>1541.7</ele><time>2012-04-30T18:19:15.0000000+00:00</time></trkpt><trkpt lat="42.91024" lon="19.657724"><ele>1542.3</ele><time>2012-04-30T18:19:20.0000000+00:00</time></trkpt><trkpt lat="42.910278" lon="19.657766"><ele>1542.9</ele><time>2012-04-30T18:19:25.0000000+00:00</time></trkpt><trkpt lat="42.910316" lon="19.657806"><ele>1543.5</ele><time>2012-04-30T18:19:30.0000000+00:00</time></trkpt><trkpt lat="42.910362" lon="19.657822"><ele>1544.0</ele><time>2012-04-30T18:19:35.0000000+00:00</time></trkpt><trkpt lat="42.910404" lon="19.657833"><ele>1544.5</ele><time>2012-04-30T18:19:40.0000000+00:00</time></trkpt><trkpt lat="42.910427" lon="19.657841"><ele>1545.0</ele><time>2012-04-30T18:19:45.0000000+00:00</time></trkpt><trkpt lat="42.910442" lon="19.657825"><ele>1545.5</ele><time>2012-04-30T18:19:50.0000000+00:00</time></trkpt><trkpt lat="42.91045" lon="19.657806"><ele>1545.9</ele><time>2012-04-30T18:19:55.0000000+00:00</time></trkpt><trkpt lat="42.910446" lon="19.657801"><ele>1546.4</ele><time>2012-04-30T18:20:00.0000000+00:00</time></trkpt><trkpt lat="42.910446" lon="19.657808"><ele>1546.8</ele><time>2012-04-30T18:20:05.0000000+00:00</time></trkpt><trkpt lat="42.910446" lon="19.657818"><ele>1547.3</ele><time>2012-04-30T18:20:10.0000000+00:00</time></trkpt><trkpt lat="42.910442" lon="19.657825"><ele>1547.7</ele><time>2012-04-30T18:20:15.0000000+00:00</time></trkpt><trkpt lat="42.910439" lon="19.657822"><ele>1548.1</ele><time>2012-04-30T18:20:20.0000000+00:00</time></trkpt><trkpt lat="42.910439" lon="19.657808"><ele>1548.5</ele><time>2012-04-30T18:20:25.0000000+00:00</time></trkpt><trkpt lat="42.910397" lon="19.657724"><ele>1548.7</ele><time>2012-04-30T18:20:30.0000000+00:00</time></trkpt><trkpt lat="42.910397" lon="19.657722"><ele>1548.8</ele><time>2012-04-30T18:20:35.0000000+00:00</time></trkpt><trkpt lat="42.910393" lon="19.657709"><ele>1549.1</ele><time>2012-04-30T18:20:40.0000000+00:00</time></trkpt><trkpt lat="42.910393" lon="19.6577"><ele>1549.5</ele><time>2012-04-30T18:20:45.0000000+00:00</time></trkpt><trkpt lat="42.910397" lon="19.657696"><ele>1549.8</ele><time>2012-04-30T18:20:50.0000000+00:00</time></trkpt><trkpt lat="42.910431" lon="19.657726"><ele>1550.1</ele><time>2012-04-30T18:20:55.0000000+00:00</time></trkpt><trkpt lat="42.910461" lon="19.657778"><ele>1550.4</ele><time>2012-04-30T18:21:00.0000000+00:00</time></trkpt><trkpt lat="42.91048" lon="19.657793"><ele>1551.0</ele><time>2012-04-30T18:21:05.0000000+00:00</time></trkpt><trkpt lat="42.910519" lon="19.657833"><ele>1551.2</ele><time>2012-04-30T18:21:10.0000000+00:00</time></trkpt><trkpt lat="42.910553" lon="19.657856"><ele>1551.8</ele><time>2012-04-30T18:21:15.0000000+00:00</time></trkpt><trkpt lat="42.91058" lon="19.657875"><ele>1551.6</ele><time>2012-04-30T18:21:20.0000000+00:00</time></trkpt><trkpt lat="42.910564" lon="19.657879"><ele>1551.3</ele><time>2012-04-30T18:21:25.0000000+00:00</time></trkpt><trkpt lat="42.91058" lon="19.657892"><ele>1550.7</ele><time>2012-04-30T18:21:30.0000000+00:00</time></trkpt><trkpt lat="42.910583" lon="19.657894"><ele>1550.8</ele><time>2012-04-30T18:21:35.0000000+00:00</time></trkpt><trkpt lat="42.910583" lon="19.657894"><ele>1550.7</ele><time>2012-04-30T18:21:40.0000000+00:00</time></trkpt><trkpt lat="42.910591" lon="19.657896"><ele>1550.6</ele><time>2012-04-30T18:21:45.0000000+00:00</time></trkpt><trkpt lat="42.910603" lon="19.657898"><ele>1550.4</ele><time>2012-04-30T18:21:50.0000000+00:00</time></trkpt><trkpt lat="42.910614" lon="19.657894"><ele>1550.2</ele><time>2012-04-30T18:21:55.0000000+00:00</time></trkpt><trkpt lat="42.910625" lon="19.65789"><ele>1550.0</ele><time>2012-04-30T18:22:00.0000000+00:00</time></trkpt><trkpt lat="42.910629" lon="19.657885"><ele>1549.7</ele><time>2012-04-30T18:22:05.0000000+00:00</time></trkpt><trkpt lat="42.910637" lon="19.657881"><ele>1549.4</ele><time>2012-04-30T18:22:10.0000000+00:00</time></trkpt><trkpt lat="42.910637" lon="19.657877"><ele>1549.1</ele><time>2012-04-30T18:22:15.0000000+00:00</time></trkpt><trkpt lat="42.910633" lon="19.657869"><ele>1548.8</ele><time>2012-04-30T18:22:20.0000000+00:00</time></trkpt><trkpt lat="42.910625" lon="19.657866"><ele>1548.3</ele><time>2012-04-30T18:22:25.0000000+00:00</time></trkpt><trkpt lat="42.910622" lon="19.657875"><ele>1544.2</ele><time>2012-04-30T18:22:30.0000000+00:00</time></trkpt><trkpt lat="42.910618" lon="19.657869"><ele>1542.5</ele><time>2012-04-30T18:22:35.0000000+00:00</time></trkpt><trkpt lat="42.910618" lon="19.657871"><ele>1541.4</ele><time>2012-04-30T18:22:40.0000000+00:00</time></trkpt><trkpt lat="42.910618" lon="19.657864"><ele>1540.0</ele><time>2012-04-30T18:22:45.0000000+00:00</time></trkpt><trkpt lat="42.910606" lon="19.657852"><ele>1537.5</ele><time>2012-04-30T18:22:50.0000000+00:00</time></trkpt><trkpt lat="42.910576" lon="19.657793"><ele>1533.3</ele><time>2012-04-30T18:22:55.0000000+00:00</time></trkpt><trkpt lat="42.910538" lon="19.657766"><ele>1531.4</ele><time>2012-04-30T18:23:00.0000000+00:00</time></trkpt><trkpt lat="42.910503" lon="19.65773"><ele>1529.0</ele><time>2012-04-30T18:23:05.0000000+00:00</time></trkpt><trkpt lat="42.910458" lon="19.657742"><ele>1526.8</ele><time>2012-04-30T18:23:10.0000000+00:00</time></trkpt><trkpt lat="42.910416" lon="19.657713"><ele>1524.9</ele><time>2012-04-30T18:23:15.0000000+00:00</time></trkpt><trkpt lat="42.910339" lon="19.657652"><ele>1523.6</ele><time>2012-04-30T18:23:20.0000000+00:00</time></trkpt><trkpt lat="42.910301" lon="19.657612"><ele>1522.4</ele><time>2012-04-30T18:23:25.0000000+00:00</time></trkpt><trkpt lat="42.910259" lon="19.657555"><ele>1520.6</ele><time>2012-04-30T18:23:30.0000000+00:00</time></trkpt><trkpt lat="42.910225" lon="19.657516"><ele>1519.4</ele><time>2012-04-30T18:23:35.0000000+00:00</time></trkpt><trkpt lat="42.910164" lon="19.657499"><ele>1518.4</ele><time>2012-04-30T18:23:40.0000000+00:00</time></trkpt><trkpt lat="42.910095" lon="19.657551"><ele>1516.9</ele><time>2012-04-30T18:23:45.0000000+00:00</time></trkpt><trkpt lat="42.910011" lon="19.6576"><ele>1512.9</ele><time>2012-04-30T18:23:50.0000000+00:00</time></trkpt><trkpt lat="42.909966" lon="19.657654"><ele>1509.7</ele><time>2012-04-30T18:23:55.0000000+00:00</time></trkpt><trkpt lat="42.909935" lon="19.657679"><ele>1506.5</ele><time>2012-04-30T18:24:00.0000000+00:00</time></trkpt><trkpt lat="42.909893" lon="19.6577"><ele>1503.1</ele><time>2012-04-30T18:24:05.0000000+00:00</time></trkpt><trkpt lat="42.909828" lon="19.657707"><ele>1501.9</ele><time>2012-04-30T18:24:10.0000000+00:00</time></trkpt><trkpt lat="42.909786" lon="19.657757"><ele>1500.2</ele><time>2012-04-30T18:24:15.0000000+00:00</time></trkpt><trkpt lat="42.909767" lon="19.657812"><ele>1499.0</ele><time>2012-04-30T18:24:20.0000000+00:00</time></trkpt><trkpt lat="42.909733" lon="19.657856"><ele>1496.7</ele><time>2012-04-30T18:24:25.0000000+00:00</time></trkpt><trkpt lat="42.909698" lon="19.657875"><ele>1493.4</ele><time>2012-04-30T18:24:30.0000000+00:00</time></trkpt><trkpt lat="42.909718" lon="19.657898"><ele>1492.3</ele><time>2012-04-30T18:24:35.0000000+00:00</time></trkpt><trkpt lat="42.909718" lon="19.657907"><ele>1490.9</ele><time>2012-04-30T18:24:40.0000000+00:00</time></trkpt><trkpt lat="42.90971" lon="19.657917"><ele>1489.5</ele><time>2012-04-30T18:24:45.0000000+00:00</time></trkpt><trkpt lat="42.909702" lon="19.657915"><ele>1488.1</ele><time>2012-04-30T18:24:50.0000000+00:00</time></trkpt><trkpt lat="42.909698" lon="19.657885"><ele>1486.2</ele><time>2012-04-30T18:24:55.0000000+00:00</time></trkpt><trkpt lat="42.909683" lon="19.657825"><ele>1484.6</ele><time>2012-04-30T18:25:00.0000000+00:00</time></trkpt><trkpt lat="42.909698" lon="19.657764"><ele>1483.0</ele><time>2012-04-30T18:25:05.0000000+00:00</time></trkpt><trkpt lat="42.909718" lon="19.657703"><ele>1480.8</ele><time>2012-04-30T18:25:10.0000000+00:00</time></trkpt><trkpt lat="42.909725" lon="19.657633"><ele>1479.4</ele><time>2012-04-30T18:25:15.0000000+00:00</time></trkpt><trkpt lat="42.90974" lon="19.65757"><ele>1478.2</ele><time>2012-04-30T18:25:20.0000000+00:00</time></trkpt><trkpt lat="42.909775" lon="19.657532"><ele>1476.9</ele><time>2012-04-30T18:25:25.0000000+00:00</time></trkpt><trkpt lat="42.90979" lon="19.657475"><ele>1476.0</ele><time>2012-04-30T18:25:30.0000000+00:00</time></trkpt><trkpt lat="42.909817" lon="19.657413"><ele>1474.8</ele><time>2012-04-30T18:25:35.0000000+00:00</time></trkpt><trkpt lat="42.909859" lon="19.657377"><ele>1473.8</ele><time>2012-04-30T18:25:40.0000000+00:00</time></trkpt><trkpt lat="42.909901" lon="19.657333"><ele>1473.2</ele><time>2012-04-30T18:25:45.0000000+00:00</time></trkpt><trkpt lat="42.909943" lon="19.65731"><ele>1472.5</ele><time>2012-04-30T18:25:50.0000000+00:00</time></trkpt><trkpt lat="42.910011" lon="19.657207"><ele>1472.2</ele><time>2012-04-30T18:25:55.0000000+00:00</time></trkpt><trkpt lat="42.910099" lon="19.657116"><ele>1472.7</ele><time>2012-04-30T18:26:00.0000000+00:00</time></trkpt><trkpt lat="42.910179" lon="19.65703"><ele>1472.6</ele><time>2012-04-30T18:26:05.0000000+00:00</time></trkpt><trkpt lat="42.910316" lon="19.656988"><ele>1475.0</ele><time>2012-04-30T18:26:10.0000000+00:00</time></trkpt><trkpt lat="42.910408" lon="19.656902"><ele>1476.7</ele><time>2012-04-30T18:26:15.0000000+00:00</time></trkpt><trkpt lat="42.910519" lon="19.656818"><ele>1479.6</ele><time>2012-04-30T18:26:20.0000000+00:00</time></trkpt><trkpt lat="42.910652" lon="19.656708"><ele>1482.0</ele><time>2012-04-30T18:26:25.0000000+00:00</time></trkpt><trkpt lat="42.910736" lon="19.65661"><ele>1485.8</ele><time>2012-04-30T18:26:30.0000000+00:00</time></trkpt><trkpt lat="42.910786" lon="19.656551"><ele>1488.9</ele><time>2012-04-30T18:26:35.0000000+00:00</time></trkpt><trkpt lat="42.910831" lon="19.65649"><ele>1490.4</ele><time>2012-04-30T18:26:40.0000000+00:00</time></trkpt><trkpt lat="42.910862" lon="19.656397"><ele>1491.5</ele><time>2012-04-30T18:26:45.0000000+00:00</time></trkpt><trkpt lat="42.910889" lon="19.656403"><ele>1493.5</ele><time>2012-04-30T18:26:50.0000000+00:00</time></trkpt><trkpt lat="42.910892" lon="19.656406"><ele>1494.7</ele><time>2012-04-30T18:26:55.0000000+00:00</time></trkpt><trkpt lat="42.910896" lon="19.656404"><ele>1496.0</ele><time>2012-04-30T18:27:00.0000000+00:00</time></trkpt><trkpt lat="42.910892" lon="19.656385"><ele>1497.0</ele><time>2012-04-30T18:27:05.0000000+00:00</time></trkpt><trkpt lat="42.910892" lon="19.656359"><ele>1496.8</ele><time>2012-04-30T18:27:10.0000000+00:00</time></trkpt><trkpt lat="42.910969" lon="19.65637"><ele>1493.4</ele><time>2012-04-30T18:27:15.0000000+00:00</time></trkpt><trkpt lat="42.911003" lon="19.656349"><ele>1493.9</ele><time>2012-04-30T18:27:20.0000000+00:00</time></trkpt><trkpt lat="42.911041" lon="19.656343"><ele>1493.0</ele><time>2012-04-30T18:27:25.0000000+00:00</time></trkpt><trkpt lat="42.911098" lon="19.656292"><ele>1491.8</ele><time>2012-04-30T18:27:30.0000000+00:00</time></trkpt><trkpt lat="42.911125" lon="19.656267"><ele>1492.0</ele><time>2012-04-30T18:27:35.0000000+00:00</time></trkpt><trkpt lat="42.911152" lon="19.656239"><ele>1492.0</ele><time>2012-04-30T18:27:40.0000000+00:00</time></trkpt><trkpt lat="42.911171" lon="19.656193"><ele>1492.0</ele><time>2012-04-30T18:27:45.0000000+00:00</time></trkpt><trkpt lat="42.911194" lon="19.656141"><ele>1492.0</ele><time>2012-04-30T18:27:50.0000000+00:00</time></trkpt><trkpt lat="42.91124" lon="19.656115"><ele>1492.1</ele><time>2012-04-30T18:27:55.0000000+00:00</time></trkpt><trkpt lat="42.911278" lon="19.65609"><ele>1492.1</ele><time>2012-04-30T18:28:00.0000000+00:00</time></trkpt><trkpt lat="42.911312" lon="19.656048"><ele>1490.6</ele><time>2012-04-30T18:28:05.0000000+00:00</time></trkpt><trkpt lat="42.91135" lon="19.656"><ele>1490.8</ele><time>2012-04-30T18:28:10.0000000+00:00</time></trkpt><trkpt lat="42.911427" lon="19.655973"><ele>1490.1</ele><time>2012-04-30T18:28:15.0000000+00:00</time></trkpt><trkpt lat="42.911465" lon="19.65592"><ele>1489.4</ele><time>2012-04-30T18:28:20.0000000+00:00</time></trkpt><trkpt lat="42.911507" lon="19.655905"><ele>1488.7</ele><time>2012-04-30T18:28:25.0000000+00:00</time></trkpt><trkpt lat="42.911537" lon="19.655859"><ele>1488.0</ele><time>2012-04-30T18:28:30.0000000+00:00</time></trkpt><trkpt lat="42.911583" lon="19.65583"><ele>1487.5</ele><time>2012-04-30T18:28:35.0000000+00:00</time></trkpt><trkpt lat="42.911617" lon="19.655815"><ele>1487.1</ele><time>2012-04-30T18:28:40.0000000+00:00</time></trkpt><trkpt lat="42.911633" lon="19.655754"><ele>1485.0</ele><time>2012-04-30T18:28:45.0000000+00:00</time></trkpt><trkpt lat="42.911636" lon="19.655741"><ele>1484.6</ele><time>2012-04-30T18:28:50.0000000+00:00</time></trkpt><trkpt lat="42.911644" lon="19.655733"><ele>1484.5</ele><time>2012-04-30T18:28:55.0000000+00:00</time></trkpt><trkpt lat="42.911644" lon="19.655729"><ele>1484.5</ele><time>2012-04-30T18:29:00.0000000+00:00</time></trkpt><trkpt lat="42.911652" lon="19.655716"><ele>1483.1</ele><time>2012-04-30T18:29:05.0000000+00:00</time></trkpt><trkpt lat="42.911701" lon="19.65568"><ele>1481.9</ele><time>2012-04-30T18:29:10.0000000+00:00</time></trkpt><trkpt lat="42.911751" lon="19.655634"><ele>1480.4</ele><time>2012-04-30T18:29:15.0000000+00:00</time></trkpt><trkpt lat="42.911774" lon="19.655579"><ele>1478.5</ele><time>2012-04-30T18:29:20.0000000+00:00</time></trkpt><trkpt lat="42.911827" lon="19.655544"><ele>1476.8</ele><time>2012-04-30T18:29:25.0000000+00:00</time></trkpt><trkpt lat="42.911877" lon="19.655499"><ele>1475.6</ele><time>2012-04-30T18:29:30.0000000+00:00</time></trkpt><trkpt lat="42.911938" lon="19.655462"><ele>1471.7</ele><time>2012-04-30T18:29:35.0000000+00:00</time></trkpt><trkpt lat="42.911976" lon="19.655436"><ele>1470.8</ele><time>2012-04-30T18:29:40.0000000+00:00</time></trkpt><trkpt lat="42.911995" lon="19.655399"><ele>1469.6</ele><time>2012-04-30T18:29:45.0000000+00:00</time></trkpt><trkpt lat="42.912033" lon="19.655361"><ele>1467.3</ele><time>2012-04-30T18:29:50.0000000+00:00</time></trkpt><trkpt lat="42.91209" lon="19.655342"><ele>1462.9</ele><time>2012-04-30T18:29:55.0000000+00:00</time></trkpt><trkpt lat="42.912121" lon="19.655319"><ele>1461.4</ele><time>2012-04-30T18:30:00.0000000+00:00</time></trkpt><trkpt lat="42.912121" lon="19.6553"><ele>1459.7</ele><time>2012-04-30T18:30:05.0000000+00:00</time></trkpt><trkpt lat="42.912125" lon="19.655294"><ele>1458.3</ele><time>2012-04-30T18:30:10.0000000+00:00</time></trkpt><trkpt lat="42.912136" lon="19.655289"><ele>1456.7</ele><time>2012-04-30T18:30:15.0000000+00:00</time></trkpt><trkpt lat="42.912174" lon="19.655256"><ele>1455.5</ele><time>2012-04-30T18:30:20.0000000+00:00</time></trkpt><trkpt lat="42.912193" lon="19.655212"><ele>1454.1</ele><time>2012-04-30T18:30:25.0000000+00:00</time></trkpt><trkpt lat="42.912216" lon="19.655188"><ele>1452.8</ele><time>2012-04-30T18:30:30.0000000+00:00</time></trkpt><trkpt lat="42.912266" lon="19.655167"><ele>1451.1</ele><time>2012-04-30T18:30:35.0000000+00:00</time></trkpt><trkpt lat="42.912323" lon="19.655136"><ele>1449.6</ele><time>2012-04-30T18:30:40.0000000+00:00</time></trkpt><trkpt lat="42.912369" lon="19.655128"><ele>1447.5</ele><time>2012-04-30T18:30:45.0000000+00:00</time></trkpt><trkpt lat="42.912388" lon="19.655083"><ele>1446.7</ele><time>2012-04-30T18:30:50.0000000+00:00</time></trkpt><trkpt lat="42.912403" lon="19.655033"><ele>1444.8</ele><time>2012-04-30T18:30:55.0000000+00:00</time></trkpt><trkpt lat="42.912418" lon="19.65501"><ele>1443.3</ele><time>2012-04-30T18:31:00.0000000+00:00</time></trkpt><trkpt lat="42.912415" lon="19.654959"><ele>1442.4</ele><time>2012-04-30T18:31:05.0000000+00:00</time></trkpt><trkpt lat="42.912449" lon="19.654942"><ele>1441.0</ele><time>2012-04-30T18:31:10.0000000+00:00</time></trkpt><trkpt lat="42.912483" lon="19.654919"><ele>1439.9</ele><time>2012-04-30T18:31:15.0000000+00:00</time></trkpt><trkpt lat="42.912518" lon="19.654888"><ele>1438.9</ele><time>2012-04-30T18:31:20.0000000+00:00</time></trkpt><trkpt lat="42.912571" lon="19.654884"><ele>1438.0</ele><time>2012-04-30T18:31:25.0000000+00:00</time></trkpt><trkpt lat="42.912617" lon="19.65489"><ele>1437.1</ele><time>2012-04-30T18:31:30.0000000+00:00</time></trkpt><trkpt lat="42.91267" lon="19.654905"><ele>1436.6</ele><time>2012-04-30T18:31:35.0000000+00:00</time></trkpt><trkpt lat="42.912731" lon="19.654911"><ele>1435.9</ele><time>2012-04-30T18:31:40.0000000+00:00</time></trkpt><trkpt lat="42.912769" lon="19.65493"><ele>1435.3</ele><time>2012-04-30T18:31:45.0000000+00:00</time></trkpt><trkpt lat="42.912792" lon="19.654945"><ele>1434.6</ele><time>2012-04-30T18:31:50.0000000+00:00</time></trkpt><trkpt lat="42.912807" lon="19.654966"><ele>1434.0</ele><time>2012-04-30T18:31:55.0000000+00:00</time></trkpt><trkpt lat="42.912827" lon="19.654993"><ele>1433.3</ele><time>2012-04-30T18:32:00.0000000+00:00</time></trkpt><trkpt lat="42.912819" lon="19.654997"><ele>1432.7</ele><time>2012-04-30T18:32:05.0000000+00:00</time></trkpt><trkpt lat="42.912811" lon="19.654987"><ele>1432.1</ele><time>2012-04-30T18:32:10.0000000+00:00</time></trkpt><trkpt lat="42.912823" lon="19.655006"><ele>1431.5</ele><time>2012-04-30T18:32:15.0000000+00:00</time></trkpt><trkpt lat="42.912842" lon="19.65505"><ele>1430.9</ele><time>2012-04-30T18:32:20.0000000+00:00</time></trkpt><trkpt lat="42.912853" lon="19.655073"><ele>1430.4</ele><time>2012-04-30T18:32:25.0000000+00:00</time></trkpt><trkpt lat="42.912853" lon="19.655094"><ele>1429.9</ele><time>2012-04-30T18:32:30.0000000+00:00</time></trkpt><trkpt lat="42.912857" lon="19.655138"><ele>1429.7</ele><time>2012-04-30T18:32:35.0000000+00:00</time></trkpt><trkpt lat="42.913025" lon="19.655334"><ele>1429.3</ele><time>2012-04-30T18:32:40.0000000+00:00</time></trkpt><trkpt lat="42.91309" lon="19.655365"><ele>1428.2</ele><time>2012-04-30T18:32:45.0000000+00:00</time></trkpt><trkpt lat="42.913216" lon="19.655369"><ele>1426.5</ele><time>2012-04-30T18:32:50.0000000+00:00</time></trkpt><trkpt lat="42.913265" lon="19.655352"><ele>1424.9</ele><time>2012-04-30T18:32:55.0000000+00:00</time></trkpt><trkpt lat="42.913326" lon="19.655239"><ele>1423.7</ele><time>2012-04-30T18:33:00.0000000+00:00</time></trkpt><trkpt lat="42.913387" lon="19.655193"><ele>1422.5</ele><time>2012-04-30T18:33:05.0000000+00:00</time></trkpt><trkpt lat="42.913448" lon="19.655128"><ele>1421.5</ele><time>2012-04-30T18:33:10.0000000+00:00</time></trkpt><trkpt lat="42.913506" lon="19.655088"><ele>1420.5</ele><time>2012-04-30T18:33:15.0000000+00:00</time></trkpt><trkpt lat="42.913578" lon="19.655033"><ele>1419.5</ele><time>2012-04-30T18:33:20.0000000+00:00</time></trkpt><trkpt lat="42.91367" lon="19.654943"><ele>1418.8</ele><time>2012-04-30T18:33:25.0000000+00:00</time></trkpt><trkpt lat="42.913673" lon="19.654932"><ele>1419.3</ele><time>2012-04-30T18:33:30.0000000+00:00</time></trkpt><trkpt lat="42.913673" lon="19.654934"><ele>1419.3</ele><time>2012-04-30T18:33:35.0000000+00:00</time></trkpt><trkpt lat="42.913673" lon="19.654932"><ele>1419.2</ele><time>2012-04-30T18:33:40.0000000+00:00</time></trkpt><trkpt lat="42.91367" lon="19.654934"><ele>1419.2</ele><time>2012-04-30T18:33:45.0000000+00:00</time></trkpt><trkpt lat="42.91367" lon="19.654928"><ele>1419.2</ele><time>2012-04-30T18:33:50.0000000+00:00</time></trkpt><trkpt lat="42.913662" lon="19.654922"><ele>1419.2</ele><time>2012-04-30T18:33:55.0000000+00:00</time></trkpt><trkpt lat="42.913658" lon="19.654924"><ele>1419.2</ele><time>2012-04-30T18:34:00.0000000+00:00</time></trkpt><trkpt lat="42.913658" lon="19.654932"><ele>1419.3</ele><time>2012-04-30T18:34:05.0000000+00:00</time></trkpt><trkpt lat="42.913658" lon="19.65494"><ele>1419.3</ele><time>2012-04-30T18:34:10.0000000+00:00</time></trkpt><trkpt lat="42.913658" lon="19.654945"><ele>1419.5</ele><time>2012-04-30T18:34:15.0000000+00:00</time></trkpt><trkpt lat="42.913662" lon="19.654943"><ele>1419.5</ele><time>2012-04-30T18:34:20.0000000+00:00</time></trkpt><trkpt lat="42.913662" lon="19.654938"><ele>1419.6</ele><time>2012-04-30T18:34:25.0000000+00:00</time></trkpt><trkpt lat="42.913662" lon="19.654926"><ele>1419.6</ele><time>2012-04-30T18:34:30.0000000+00:00</time></trkpt><trkpt lat="42.913662" lon="19.654921"><ele>1419.6</ele><time>2012-04-30T18:34:35.0000000+00:00</time></trkpt><trkpt lat="42.913666" lon="19.654917"><ele>1419.6</ele><time>2012-04-30T18:34:40.0000000+00:00</time></trkpt><trkpt lat="42.913666" lon="19.654917"><ele>1419.5</ele><time>2012-04-30T18:34:45.0000000+00:00</time></trkpt><trkpt lat="42.913651" lon="19.654877"><ele>1419.8</ele><time>2012-04-30T18:34:50.0000000+00:00</time></trkpt><trkpt lat="42.913647" lon="19.654879"><ele>1419.8</ele><time>2012-04-30T18:34:55.0000000+00:00</time></trkpt><trkpt lat="42.913647" lon="19.654879"><ele>1419.9</ele><time>2012-04-30T18:35:00.0000000+00:00</time></trkpt><trkpt lat="42.913643" lon="19.654875"><ele>1419.9</ele><time>2012-04-30T18:35:05.0000000+00:00</time></trkpt><trkpt lat="42.913643" lon="19.654873"><ele>1419.9</ele><time>2012-04-30T18:35:10.0000000+00:00</time></trkpt><trkpt lat="42.913643" lon="19.654867"><ele>1419.8</ele><time>2012-04-30T18:35:15.0000000+00:00</time></trkpt><trkpt lat="42.913643" lon="19.654863"><ele>1419.8</ele><time>2012-04-30T18:35:20.0000000+00:00</time></trkpt><trkpt lat="42.913643" lon="19.654863"><ele>1419.8</ele><time>2012-04-30T18:35:25.0000000+00:00</time></trkpt><trkpt lat="42.913639" lon="19.654861"><ele>1419.7</ele><time>2012-04-30T18:35:30.0000000+00:00</time></trkpt><trkpt lat="42.913635" lon="19.65486"><ele>1419.4</ele><time>2012-04-30T18:35:35.0000000+00:00</time></trkpt><trkpt lat="42.913631" lon="19.65486"><ele>1419.1</ele><time>2012-04-30T18:35:40.0000000+00:00</time></trkpt><trkpt lat="42.913631" lon="19.654858"><ele>1418.7</ele><time>2012-04-30T18:35:45.0000000+00:00</time></trkpt><trkpt lat="42.913631" lon="19.654856"><ele>1418.3</ele><time>2012-04-30T18:35:50.0000000+00:00</time></trkpt><trkpt lat="42.913628" lon="19.654856"><ele>1418.0</ele><time>2012-04-30T18:35:55.0000000+00:00</time></trkpt><trkpt lat="42.913631" lon="19.654856"><ele>1418.0</ele><time>2012-04-30T18:36:00.0000000+00:00</time></trkpt><trkpt lat="42.913631" lon="19.654856"><ele>1417.9</ele><time>2012-04-30T18:36:05.0000000+00:00</time></trkpt><trkpt lat="42.913631" lon="19.654856"><ele>1417.9</ele><time>2012-04-30T18:36:10.0000000+00:00</time></trkpt><trkpt lat="42.913631" lon="19.654856"><ele>1417.9</ele><time>2012-04-30T18:36:15.0000000+00:00</time></trkpt><trkpt lat="42.913631" lon="19.654854"><ele>1417.9</ele><time>2012-04-30T18:36:20.0000000+00:00</time></trkpt><trkpt lat="42.913631" lon="19.654854"><ele>1417.9</ele><time>2012-04-30T18:36:25.0000000+00:00</time></trkpt><trkpt lat="42.913631" lon="19.654854"><ele>1417.9</ele><time>2012-04-30T18:36:30.0000000+00:00</time></trkpt><trkpt lat="42.913631" lon="19.654854"><ele>1417.8</ele><time>2012-04-30T18:36:35.0000000+00:00</time></trkpt><trkpt lat="42.913631" lon="19.654854"><ele>1417.9</ele><time>2012-04-30T18:36:40.0000000+00:00</time></trkpt><trkpt lat="42.913631" lon="19.654854"><ele>1417.9</ele><time>2012-04-30T18:36:45.0000000+00:00</time></trkpt><trkpt lat="42.913631" lon="19.654854"><ele>1417.9</ele><time>2012-04-30T18:36:50.0000000+00:00</time></trkpt><trkpt lat="42.913631" lon="19.654854"><ele>1418.0</ele><time>2012-04-30T18:36:55.0000000+00:00</time></trkpt><trkpt lat="42.913635" lon="19.654854"><ele>1418.0</ele><time>2012-04-30T18:37:00.0000000+00:00</time></trkpt><trkpt lat="42.913666" lon="19.654835"><ele>1419.0</ele><time>2012-04-30T18:37:05.0000000+00:00</time></trkpt><trkpt lat="42.913738" lon="19.6548"><ele>1417.4</ele><time>2012-04-30T18:37:10.0000000+00:00</time></trkpt><trkpt lat="42.913803" lon="19.654751"><ele>1416.5</ele><time>2012-04-30T18:37:15.0000000+00:00</time></trkpt><trkpt lat="42.913841" lon="19.65472"><ele>1416.4</ele><time>2012-04-30T18:37:20.0000000+00:00</time></trkpt><trkpt lat="42.913853" lon="19.654684"><ele>1416.0</ele><time>2012-04-30T18:37:25.0000000+00:00</time></trkpt><trkpt lat="42.913857" lon="19.654671"><ele>1415.9</ele><time>2012-04-30T18:37:30.0000000+00:00</time></trkpt><trkpt lat="42.913872" lon="19.654636"><ele>1416.0</ele><time>2012-04-30T18:37:35.0000000+00:00</time></trkpt><trkpt lat="42.913914" lon="19.654598"><ele>1416.2</ele><time>2012-04-30T18:37:40.0000000+00:00</time></trkpt><trkpt lat="42.913937" lon="19.654543"><ele>1415.8</ele><time>2012-04-30T18:37:45.0000000+00:00</time></trkpt><trkpt lat="42.913933" lon="19.654535"><ele>1416.0</ele><time>2012-04-30T18:37:50.0000000+00:00</time></trkpt><trkpt lat="42.913933" lon="19.654533"><ele>1416.2</ele><time>2012-04-30T18:37:55.0000000+00:00</time></trkpt><trkpt lat="42.913933" lon="19.654503"><ele>1416.3</ele><time>2012-04-30T18:38:00.0000000+00:00</time></trkpt><trkpt lat="42.913933" lon="19.654472"><ele>1416.2</ele><time>2012-04-30T18:38:05.0000000+00:00</time></trkpt><trkpt lat="42.91394" lon="19.654459"><ele>1416.2</ele><time>2012-04-30T18:38:10.0000000+00:00</time></trkpt><trkpt lat="42.91394" lon="19.654459"><ele>1416.2</ele><time>2012-04-30T18:38:15.0000000+00:00</time></trkpt><trkpt lat="42.913921" lon="19.654461"><ele>1415.6</ele><time>2012-04-30T18:38:20.0000000+00:00</time></trkpt><trkpt lat="42.913933" lon="19.654463"><ele>1415.6</ele><time>2012-04-30T18:38:25.0000000+00:00</time></trkpt><trkpt lat="42.913956" lon="19.654442"><ele>1415.8</ele><time>2012-04-30T18:38:30.0000000+00:00</time></trkpt><trkpt lat="42.91399" lon="19.654442"><ele>1415.4</ele><time>2012-04-30T18:38:35.0000000+00:00</time></trkpt><trkpt lat="42.914009" lon="19.654413"><ele>1413.5</ele><time>2012-04-30T18:38:40.0000000+00:00</time></trkpt><trkpt lat="42.914021" lon="19.654385"><ele>1413.4</ele><time>2012-04-30T18:38:45.0000000+00:00</time></trkpt><trkpt lat="42.914021" lon="19.654352"><ele>1413.2</ele><time>2012-04-30T18:38:50.0000000+00:00</time></trkpt><trkpt lat="42.914036" lon="19.654331"><ele>1413.1</ele><time>2012-04-30T18:38:55.0000000+00:00</time></trkpt><trkpt lat="42.914047" lon="19.654339"><ele>1412.8</ele><time>2012-04-30T18:39:00.0000000+00:00</time></trkpt><trkpt lat="42.914051" lon="19.654337"><ele>1412.7</ele><time>2012-04-30T18:39:05.0000000+00:00</time></trkpt><trkpt lat="42.914059" lon="19.654333"><ele>1412.5</ele><time>2012-04-30T18:39:10.0000000+00:00</time></trkpt><trkpt lat="42.914066" lon="19.654329"><ele>1412.5</ele><time>2012-04-30T18:39:15.0000000+00:00</time></trkpt><trkpt lat="42.914143" lon="19.654381"><ele>1411.7</ele><time>2012-04-30T18:39:20.0000000+00:00</time></trkpt><trkpt lat="42.914188" lon="19.654375"><ele>1410.8</ele><time>2012-04-30T18:39:25.0000000+00:00</time></trkpt><trkpt lat="42.91415" lon="19.654354"><ele>1411.0</ele><time>2012-04-30T18:39:30.0000000+00:00</time></trkpt><trkpt lat="42.914154" lon="19.654316"><ele>1411.1</ele><time>2012-04-30T18:39:35.0000000+00:00</time></trkpt><trkpt lat="42.914192" lon="19.654295"><ele>1411.2</ele><time>2012-04-30T18:39:40.0000000+00:00</time></trkpt><trkpt lat="42.914219" lon="19.654179"><ele>1409.8</ele><time>2012-04-30T18:39:45.0000000+00:00</time></trkpt><trkpt lat="42.914253" lon="19.654089"><ele>1409.0</ele><time>2012-04-30T18:39:50.0000000+00:00</time></trkpt><trkpt lat="42.914303" lon="19.654022"><ele>1409.4</ele><time>2012-04-30T18:39:55.0000000+00:00</time></trkpt><trkpt lat="42.914356" lon="19.6539"><ele>1409.6</ele><time>2012-04-30T18:40:00.0000000+00:00</time></trkpt><trkpt lat="42.914433" lon="19.653891"><ele>1410.3</ele><time>2012-04-30T18:40:05.0000000+00:00</time></trkpt><trkpt lat="42.914494" lon="19.653788"><ele>1412.6</ele><time>2012-04-30T18:40:10.0000000+00:00</time></trkpt><trkpt lat="42.914551" lon="19.6537"><ele>1412.9</ele><time>2012-04-30T18:40:15.0000000+00:00</time></trkpt><trkpt lat="42.914608" lon="19.653599"><ele>1413.5</ele><time>2012-04-30T18:40:20.0000000+00:00</time></trkpt><trkpt lat="42.914658" lon="19.65349"><ele>1413.2</ele><time>2012-04-30T18:40:25.0000000+00:00</time></trkpt><trkpt lat="42.914707" lon="19.653353"><ele>1412.3</ele><time>2012-04-30T18:40:30.0000000+00:00</time></trkpt><trkpt lat="42.914803" lon="19.653221"><ele>1409.9</ele><time>2012-04-30T18:40:35.0000000+00:00</time></trkpt><trkpt lat="42.91489" lon="19.653105"><ele>1407.8</ele><time>2012-04-30T18:40:40.0000000+00:00</time></trkpt><trkpt lat="42.914944" lon="19.65295"><ele>1405.6</ele><time>2012-04-30T18:40:45.0000000+00:00</time></trkpt><trkpt lat="42.915031" lon="19.652855"><ele>1403.9</ele><time>2012-04-30T18:40:50.0000000+00:00</time></trkpt><trkpt lat="42.915127" lon="19.652763"><ele>1400.7</ele><time>2012-04-30T18:40:55.0000000+00:00</time></trkpt><trkpt lat="42.915207" lon="19.652725"><ele>1397.9</ele><time>2012-04-30T18:41:00.0000000+00:00</time></trkpt><trkpt lat="42.915257" lon="19.652702"><ele>1396.0</ele><time>2012-04-30T18:41:05.0000000+00:00</time></trkpt><trkpt lat="42.915306" lon="19.652674"><ele>1392.2</ele><time>2012-04-30T18:41:10.0000000+00:00</time></trkpt><trkpt lat="42.915356" lon="19.652555"><ele>1387.2</ele><time>2012-04-30T18:41:15.0000000+00:00</time></trkpt><trkpt lat="42.915382" lon="19.652414"><ele>1384.7</ele><time>2012-04-30T18:41:20.0000000+00:00</time></trkpt><trkpt lat="42.91544" lon="19.652233"><ele>1379.1</ele><time>2012-04-30T18:41:25.0000000+00:00</time></trkpt><trkpt lat="42.915493" lon="19.652117"><ele>1377.3</ele><time>2012-04-30T18:41:30.0000000+00:00</time></trkpt><trkpt lat="42.915562" lon="19.652"><ele>1370.3</ele><time>2012-04-30T18:41:35.0000000+00:00</time></trkpt><trkpt lat="42.915573" lon="19.651958"><ele>1368.1</ele><time>2012-04-30T18:41:40.0000000+00:00</time></trkpt><trkpt lat="42.915577" lon="19.651962"><ele>1367.7</ele><time>2012-04-30T18:41:45.0000000+00:00</time></trkpt><trkpt lat="42.915573" lon="19.65196"><ele>1367.5</ele><time>2012-04-30T18:41:50.0000000+00:00</time></trkpt><trkpt lat="42.915573" lon="19.65196"><ele>1367.5</ele><time>2012-04-30T18:41:55.0000000+00:00</time></trkpt><trkpt lat="42.915573" lon="19.65196"><ele>1367.5</ele><time>2012-04-30T18:42:00.0000000+00:00</time></trkpt><trkpt lat="42.915573" lon="19.65196"><ele>1367.5</ele><time>2012-04-30T18:42:05.0000000+00:00</time></trkpt><trkpt lat="42.915569" lon="19.65196"><ele>1367.5</ele><time>2012-04-30T18:42:10.0000000+00:00</time></trkpt><trkpt lat="42.915573" lon="19.651962"><ele>1367.6</ele><time>2012-04-30T18:42:15.0000000+00:00</time></trkpt><trkpt lat="42.915573" lon="19.651962"><ele>1367.6</ele><time>2012-04-30T18:42:20.0000000+00:00</time></trkpt><trkpt lat="42.915573" lon="19.651964"><ele>1367.6</ele><time>2012-04-30T18:42:25.0000000+00:00</time></trkpt><trkpt lat="42.915573" lon="19.651964"><ele>1367.6</ele><time>2012-04-30T18:42:30.0000000+00:00</time></trkpt><trkpt lat="42.915573" lon="19.651964"><ele>1367.6</ele><time>2012-04-30T18:42:35.0000000+00:00</time></trkpt><trkpt lat="42.915573" lon="19.651964"><ele>1367.5</ele><time>2012-04-30T18:42:40.0000000+00:00</time></trkpt><trkpt lat="42.915573" lon="19.651964"><ele>1367.5</ele><time>2012-04-30T18:42:45.0000000+00:00</time></trkpt><trkpt lat="42.915573" lon="19.651964"><ele>1367.5</ele><time>2012-04-30T18:42:50.0000000+00:00</time></trkpt><trkpt lat="42.915611" lon="19.651917"><ele>1366.7</ele><time>2012-04-30T18:42:55.0000000+00:00</time></trkpt><trkpt lat="42.915665" lon="19.651794"><ele>1363.6</ele><time>2012-04-30T18:43:00.0000000+00:00</time></trkpt><trkpt lat="42.91571" lon="19.651701"><ele>1359.6</ele><time>2012-04-30T18:43:05.0000000+00:00</time></trkpt><trkpt lat="42.91573" lon="19.651598"><ele>1356.0</ele><time>2012-04-30T18:43:10.0000000+00:00</time></trkpt><trkpt lat="42.915726" lon="19.651443"><ele>1353.2</ele><time>2012-04-30T18:43:15.0000000+00:00</time></trkpt><trkpt lat="42.915775" lon="19.65135"><ele>1350.1</ele><time>2012-04-30T18:43:20.0000000+00:00</time></trkpt><trkpt lat="42.91584" lon="19.651272"><ele>1347.6</ele><time>2012-04-30T18:43:25.0000000+00:00</time></trkpt><trkpt lat="42.915909" lon="19.651171"><ele>1347.4</ele><time>2012-04-30T18:43:30.0000000+00:00</time></trkpt><trkpt lat="42.915958" lon="19.651062"><ele>1345.2</ele><time>2012-04-30T18:43:35.0000000+00:00</time></trkpt><trkpt lat="42.916019" lon="19.650988"><ele>1343.7</ele><time>2012-04-30T18:43:40.0000000+00:00</time></trkpt><trkpt lat="42.9161" lon="19.650881"><ele>1345.3</ele><time>2012-04-30T18:43:45.0000000+00:00</time></trkpt><trkpt lat="42.916161" lon="19.650778"><ele>1345.0</ele><time>2012-04-30T18:43:50.0000000+00:00</time></trkpt><trkpt lat="42.916241" lon="19.650692"><ele>1343.3</ele><time>2012-04-30T18:43:55.0000000+00:00</time></trkpt><trkpt lat="42.916309" lon="19.650536"><ele>1340.0</ele><time>2012-04-30T18:44:00.0000000+00:00</time></trkpt><trkpt lat="42.916374" lon="19.650421"><ele>1337.6</ele><time>2012-04-30T18:44:05.0000000+00:00</time></trkpt><trkpt lat="42.916348" lon="19.650408"><ele>1337.5</ele><time>2012-04-30T18:44:10.0000000+00:00</time></trkpt><trkpt lat="42.916328" lon="19.650375"><ele>1338.3</ele><time>2012-04-30T18:44:15.0000000+00:00</time></trkpt><trkpt lat="42.916309" lon="19.650347"><ele>1338.9</ele><time>2012-04-30T18:44:20.0000000+00:00</time></trkpt><trkpt lat="42.91629" lon="19.650297"><ele>1339.2</ele><time>2012-04-30T18:44:25.0000000+00:00</time></trkpt><trkpt lat="42.916279" lon="19.650291"><ele>1340.9</ele><time>2012-04-30T18:44:30.0000000+00:00</time></trkpt><trkpt lat="42.916279" lon="19.650291"><ele>1342.1</ele><time>2012-04-30T18:44:35.0000000+00:00</time></trkpt><trkpt lat="42.916279" lon="19.650291"><ele>1342.5</ele><time>2012-04-30T18:44:40.0000000+00:00</time></trkpt><trkpt lat="42.916298" lon="19.650303"><ele>1341.9</ele><time>2012-04-30T18:44:45.0000000+00:00</time></trkpt><trkpt lat="42.916328" lon="19.650274"><ele>1341.4</ele><time>2012-04-30T18:44:50.0000000+00:00</time></trkpt><trkpt lat="42.916409" lon="19.650274"><ele>1338.7</ele><time>2012-04-30T18:44:55.0000000+00:00</time></trkpt><trkpt lat="42.916443" lon="19.650183"><ele>1338.6</ele><time>2012-04-30T18:45:00.0000000+00:00</time></trkpt><trkpt lat="42.91647" lon="19.650099"><ele>1337.8</ele><time>2012-04-30T18:45:05.0000000+00:00</time></trkpt><trkpt lat="42.916489" lon="19.649988"><ele>1337.5</ele><time>2012-04-30T18:45:10.0000000+00:00</time></trkpt><trkpt lat="42.916473" lon="19.649923"><ele>1338.3</ele><time>2012-04-30T18:45:15.0000000+00:00</time></trkpt><trkpt lat="42.916504" lon="19.649815"><ele>1337.5</ele><time>2012-04-30T18:45:20.0000000+00:00</time></trkpt><trkpt lat="42.916553" lon="19.649775"><ele>1337.6</ele><time>2012-04-30T18:45:25.0000000+00:00</time></trkpt><trkpt lat="42.91663" lon="19.649715"><ele>1337.9</ele><time>2012-04-30T18:45:30.0000000+00:00</time></trkpt><trkpt lat="42.916626" lon="19.649683"><ele>1338.5</ele><time>2012-04-30T18:45:35.0000000+00:00</time></trkpt><trkpt lat="42.916637" lon="19.649672"><ele>1339.4</ele><time>2012-04-30T18:45:40.0000000+00:00</time></trkpt><trkpt lat="42.916679" lon="19.649624"><ele>1340.0</ele><time>2012-04-30T18:45:45.0000000+00:00</time></trkpt><trkpt lat="42.916691" lon="19.649509"><ele>1340.7</ele><time>2012-04-30T18:45:50.0000000+00:00</time></trkpt><trkpt lat="42.916729" lon="19.649437"><ele>1341.3</ele><time>2012-04-30T18:45:55.0000000+00:00</time></trkpt><trkpt lat="42.916763" lon="19.649406"><ele>1342.0</ele><time>2012-04-30T18:46:00.0000000+00:00</time></trkpt><trkpt lat="42.916763" lon="19.649368"><ele>1342.9</ele><time>2012-04-30T18:46:05.0000000+00:00</time></trkpt><trkpt lat="42.91679" lon="19.649305"><ele>1343.8</ele><time>2012-04-30T18:46:10.0000000+00:00</time></trkpt><trkpt lat="42.916862" lon="19.649275"><ele>1344.8</ele><time>2012-04-30T18:46:15.0000000+00:00</time></trkpt><trkpt lat="42.916924" lon="19.649256"><ele>1345.9</ele><time>2012-04-30T18:46:20.0000000+00:00</time></trkpt><trkpt lat="42.917007" lon="19.649204"><ele>1346.5</ele><time>2012-04-30T18:46:25.0000000+00:00</time></trkpt><trkpt lat="42.91703" lon="19.649019"><ele>1347.4</ele><time>2012-04-30T18:46:30.0000000+00:00</time></trkpt><trkpt lat="42.917088" lon="19.648949"><ele>1348.6</ele><time>2012-04-30T18:46:35.0000000+00:00</time></trkpt><trkpt lat="42.917152" lon="19.648886"><ele>1349.6</ele><time>2012-04-30T18:46:40.0000000+00:00</time></trkpt><trkpt lat="42.917221" lon="19.648855"><ele>1350.1</ele><time>2012-04-30T18:46:45.0000000+00:00</time></trkpt><trkpt lat="42.917259" lon="19.648771"><ele>1350.3</ele><time>2012-04-30T18:46:50.0000000+00:00</time></trkpt><trkpt lat="42.917301" lon="19.648722"><ele>1350.2</ele><time>2012-04-30T18:46:55.0000000+00:00</time></trkpt><trkpt lat="42.917408" lon="19.648663"><ele>1348.0</ele><time>2012-04-30T18:47:00.0000000+00:00</time></trkpt><trkpt lat="42.917492" lon="19.648561"><ele>1343.4</ele><time>2012-04-30T18:47:05.0000000+00:00</time></trkpt><trkpt lat="42.917568" lon="19.648495"><ele>1341.5</ele><time>2012-04-30T18:47:10.0000000+00:00</time></trkpt><trkpt lat="42.917645" lon="19.648491"><ele>1340.9</ele><time>2012-04-30T18:47:15.0000000+00:00</time></trkpt><trkpt lat="42.917664" lon="19.648493"><ele>1341.2</ele><time>2012-04-30T18:47:20.0000000+00:00</time></trkpt><trkpt lat="42.917656" lon="19.648497"><ele>1341.8</ele><time>2012-04-30T18:47:25.0000000+00:00</time></trkpt><trkpt lat="42.917656" lon="19.648497"><ele>1341.9</ele><time>2012-04-30T18:47:30.0000000+00:00</time></trkpt><trkpt lat="42.917656" lon="19.648499"><ele>1341.9</ele><time>2012-04-30T18:47:35.0000000+00:00</time></trkpt><trkpt lat="42.91766" lon="19.648514"><ele>1342.4</ele><time>2012-04-30T18:47:40.0000000+00:00</time></trkpt><trkpt lat="42.917667" lon="19.648523"><ele>1342.3</ele><time>2012-04-30T18:47:45.0000000+00:00</time></trkpt><trkpt lat="42.917667" lon="19.648523"><ele>1342.4</ele><time>2012-04-30T18:47:50.0000000+00:00</time></trkpt><trkpt lat="42.917671" lon="19.648527"><ele>1342.0</ele><time>2012-04-30T18:47:55.0000000+00:00</time></trkpt><trkpt lat="42.917713" lon="19.64852"><ele>1341.7</ele><time>2012-04-30T18:48:00.0000000+00:00</time></trkpt><trkpt lat="42.917824" lon="19.648472"><ele>1341.6</ele><time>2012-04-30T18:48:05.0000000+00:00</time></trkpt><trkpt lat="42.917915" lon="19.648384"><ele>1340.7</ele><time>2012-04-30T18:48:10.0000000+00:00</time></trkpt><trkpt lat="42.917961" lon="19.648266"><ele>1340.1</ele><time>2012-04-30T18:48:15.0000000+00:00</time></trkpt><trkpt lat="42.918106" lon="19.648197"><ele>1337.7</ele><time>2012-04-30T18:48:20.0000000+00:00</time></trkpt><trkpt lat="42.918217" lon="19.648182"><ele>1336.2</ele><time>2012-04-30T18:48:25.0000000+00:00</time></trkpt><trkpt lat="42.918289" lon="19.648159"><ele>1333.5</ele><time>2012-04-30T18:48:30.0000000+00:00</time></trkpt><trkpt lat="42.918354" lon="19.648119"><ele>1328.8</ele><time>2012-04-30T18:48:35.0000000+00:00</time></trkpt><trkpt lat="42.918442" lon="19.648073"><ele>1323.2</ele><time>2012-04-30T18:48:40.0000000+00:00</time></trkpt><trkpt lat="42.91848" lon="19.647936"><ele>1320.9</ele><time>2012-04-30T18:48:45.0000000+00:00</time></trkpt><trkpt lat="42.918514" lon="19.647917"><ele>1319.8</ele><time>2012-04-30T18:48:50.0000000+00:00</time></trkpt><trkpt lat="42.91856" lon="19.6479"><ele>1318.6</ele><time>2012-04-30T18:48:55.0000000+00:00</time></trkpt><trkpt lat="42.918621" lon="19.647863"><ele>1317.4</ele><time>2012-04-30T18:49:00.0000000+00:00</time></trkpt><trkpt lat="42.918671" lon="19.64785"><ele>1316.0</ele><time>2012-04-30T18:49:05.0000000+00:00</time></trkpt><trkpt lat="42.918705" lon="19.647856"><ele>1317.3</ele><time>2012-04-30T18:49:10.0000000+00:00</time></trkpt><trkpt lat="42.918747" lon="19.647858"><ele>1320.2</ele><time>2012-04-30T18:49:15.0000000+00:00</time></trkpt><trkpt lat="42.918777" lon="19.64782"><ele>1322.4</ele><time>2012-04-30T18:49:20.0000000+00:00</time></trkpt><trkpt lat="42.918812" lon="19.647793"><ele>1324.1</ele><time>2012-04-30T18:49:25.0000000+00:00</time></trkpt><trkpt lat="42.918854" lon="19.647772"><ele>1325.8</ele><time>2012-04-30T18:49:30.0000000+00:00</time></trkpt><trkpt lat="42.918903" lon="19.647758"><ele>1326.7</ele><time>2012-04-30T18:49:35.0000000+00:00</time></trkpt><trkpt lat="42.918922" lon="19.647741"><ele>1326.9</ele><time>2012-04-30T18:49:40.0000000+00:00</time></trkpt><trkpt lat="42.918961" lon="19.647732"><ele>1326.3</ele><time>2012-04-30T18:49:45.0000000+00:00</time></trkpt><trkpt lat="42.919018" lon="19.647732"><ele>1326.2</ele><time>2012-04-30T18:49:50.0000000+00:00</time></trkpt><trkpt lat="42.919083" lon="19.647734"><ele>1326.2</ele><time>2012-04-30T18:49:55.0000000+00:00</time></trkpt><trkpt lat="42.91914" lon="19.647747"><ele>1325.9</ele><time>2012-04-30T18:50:00.0000000+00:00</time></trkpt><trkpt lat="42.919186" lon="19.647713"><ele>1325.7</ele><time>2012-04-30T18:50:05.0000000+00:00</time></trkpt><trkpt lat="42.919197" lon="19.647614"><ele>1325.6</ele><time>2012-04-30T18:50:10.0000000+00:00</time></trkpt><trkpt lat="42.919235" lon="19.647602"><ele>1326.0</ele><time>2012-04-30T18:50:15.0000000+00:00</time></trkpt><trkpt lat="42.919258" lon="19.647594"><ele>1326.0</ele><time>2012-04-30T18:50:20.0000000+00:00</time></trkpt><trkpt lat="42.919281" lon="19.647587"><ele>1325.5</ele><time>2012-04-30T18:50:25.0000000+00:00</time></trkpt><trkpt lat="42.919357" lon="19.647606"><ele>1325.4</ele><time>2012-04-30T18:50:30.0000000+00:00</time></trkpt><trkpt lat="42.919426" lon="19.647619"><ele>1325.7</ele><time>2012-04-30T18:50:35.0000000+00:00</time></trkpt><trkpt lat="42.919483" lon="19.647589"><ele>1326.0</ele><time>2012-04-30T18:50:40.0000000+00:00</time></trkpt><trkpt lat="42.919525" lon="19.647554"><ele>1327.0</ele><time>2012-04-30T18:50:45.0000000+00:00</time></trkpt><trkpt lat="42.919563" lon="19.64747"><ele>1327.5</ele><time>2012-04-30T18:50:50.0000000+00:00</time></trkpt><trkpt lat="42.919617" lon="19.647438"><ele>1327.7</ele><time>2012-04-30T18:50:55.0000000+00:00</time></trkpt><trkpt lat="42.919651" lon="19.647373"><ele>1328.5</ele><time>2012-04-30T18:51:00.0000000+00:00</time></trkpt><trkpt lat="42.919708" lon="19.647356"><ele>1328.9</ele><time>2012-04-30T18:51:05.0000000+00:00</time></trkpt><trkpt lat="42.91975" lon="19.64736"><ele>1328.9</ele><time>2012-04-30T18:51:10.0000000+00:00</time></trkpt><trkpt lat="42.919777" lon="19.647329"><ele>1331.4</ele><time>2012-04-30T18:51:15.0000000+00:00</time></trkpt><trkpt lat="42.919796" lon="19.647287"><ele>1333.0</ele><time>2012-04-30T18:51:20.0000000+00:00</time></trkpt><trkpt lat="42.919815" lon="19.647263"><ele>1334.2</ele><time>2012-04-30T18:51:25.0000000+00:00</time></trkpt><trkpt lat="42.919846" lon="19.647236"><ele>1334.6</ele><time>2012-04-30T18:51:30.0000000+00:00</time></trkpt><trkpt lat="42.919857" lon="19.647238"><ele>1334.2</ele><time>2012-04-30T18:51:35.0000000+00:00</time></trkpt><trkpt lat="42.919849" lon="19.647297"><ele>1333.1</ele><time>2012-04-30T18:51:40.0000000+00:00</time></trkpt><trkpt lat="42.919857" lon="19.647348"><ele>1331.9</ele><time>2012-04-30T18:51:45.0000000+00:00</time></trkpt><trkpt lat="42.919872" lon="19.647423"><ele>1332.6</ele><time>2012-04-30T18:51:50.0000000+00:00</time></trkpt><trkpt lat="42.91988" lon="19.647488"><ele>1333.1</ele><time>2012-04-30T18:51:55.0000000+00:00</time></trkpt><trkpt lat="42.919903" lon="19.647539"><ele>1334.6</ele><time>2012-04-30T18:52:00.0000000+00:00</time></trkpt><trkpt lat="42.919884" lon="19.647629"><ele>1337.2</ele><time>2012-04-30T18:52:05.0000000+00:00</time></trkpt><trkpt lat="42.919907" lon="19.647617"><ele>1338.6</ele><time>2012-04-30T18:52:10.0000000+00:00</time></trkpt><trkpt lat="42.919968" lon="19.647591"><ele>1339.5</ele><time>2012-04-30T18:52:15.0000000+00:00</time></trkpt><trkpt lat="42.920021" lon="19.647552"><ele>1341.4</ele><time>2012-04-30T18:52:20.0000000+00:00</time></trkpt><trkpt lat="42.92001" lon="19.647554"><ele>1341.7</ele><time>2012-04-30T18:52:25.0000000+00:00</time></trkpt><trkpt lat="42.920052" lon="19.647518"><ele>1342.0</ele><time>2012-04-30T18:52:30.0000000+00:00</time></trkpt><trkpt lat="42.920124" lon="19.647455"><ele>1342.2</ele><time>2012-04-30T18:52:35.0000000+00:00</time></trkpt><trkpt lat="42.920174" lon="19.647408"><ele>1342.7</ele><time>2012-04-30T18:52:40.0000000+00:00</time></trkpt><trkpt lat="42.920231" lon="19.647329"><ele>1341.8</ele><time>2012-04-30T18:52:45.0000000+00:00</time></trkpt><trkpt lat="42.920284" lon="19.647272"><ele>1340.7</ele><time>2012-04-30T18:52:50.0000000+00:00</time></trkpt><trkpt lat="42.920361" lon="19.64723"><ele>1340.2</ele><time>2012-04-30T18:52:55.0000000+00:00</time></trkpt><trkpt lat="42.920425" lon="19.647171"><ele>1339.8</ele><time>2012-04-30T18:53:00.0000000+00:00</time></trkpt><trkpt lat="42.920483" lon="19.647057"><ele>1338.5</ele><time>2012-04-30T18:53:05.0000000+00:00</time></trkpt><trkpt lat="42.920532" lon="19.646973"><ele>1337.2</ele><time>2012-04-30T18:53:10.0000000+00:00</time></trkpt><trkpt lat="42.92062" lon="19.646931"><ele>1335.5</ele><time>2012-04-30T18:53:15.0000000+00:00</time></trkpt><trkpt lat="42.9207" lon="19.646868"><ele>1335.8</ele><time>2012-04-30T18:53:20.0000000+00:00</time></trkpt><trkpt lat="42.92075" lon="19.646807"><ele>1335.3</ele><time>2012-04-30T18:53:25.0000000+00:00</time></trkpt><trkpt lat="42.920784" lon="19.646767"><ele>1337.2</ele><time>2012-04-30T18:53:30.0000000+00:00</time></trkpt><trkpt lat="42.920818" lon="19.646729"><ele>1337.3</ele><time>2012-04-30T18:53:35.0000000+00:00</time></trkpt><trkpt lat="42.920853" lon="19.646702"><ele>1337.8</ele><time>2012-04-30T18:53:40.0000000+00:00</time></trkpt><trkpt lat="42.920898" lon="19.646704"><ele>1337.6</ele><time>2012-04-30T18:53:45.0000000+00:00</time></trkpt><trkpt lat="42.920952" lon="19.646671"><ele>1338.5</ele><time>2012-04-30T18:53:50.0000000+00:00</time></trkpt><trkpt lat="42.920998" lon="19.646633"><ele>1340.8</ele><time>2012-04-30T18:53:55.0000000+00:00</time></trkpt><trkpt lat="42.921047" lon="19.646597"><ele>1343.8</ele><time>2012-04-30T18:54:00.0000000+00:00</time></trkpt><trkpt lat="42.921074" lon="19.646585"><ele>1348.2</ele><time>2012-04-30T18:54:05.0000000+00:00</time></trkpt><trkpt lat="42.92112" lon="19.646612"><ele>1352.5</ele><time>2012-04-30T18:54:10.0000000+00:00</time></trkpt><trkpt lat="42.921146" lon="19.646557"><ele>1353.9</ele><time>2012-04-30T18:54:15.0000000+00:00</time></trkpt><trkpt lat="42.921188" lon="19.646509"><ele>1353.5</ele><time>2012-04-30T18:54:20.0000000+00:00</time></trkpt><trkpt lat="42.921223" lon="19.646471"><ele>1352.8</ele><time>2012-04-30T18:54:25.0000000+00:00</time></trkpt><trkpt lat="42.921261" lon="19.646433"><ele>1352.8</ele><time>2012-04-30T18:54:30.0000000+00:00</time></trkpt><trkpt lat="42.921322" lon="19.6464"><ele>1353.2</ele><time>2012-04-30T18:54:35.0000000+00:00</time></trkpt><trkpt lat="42.921345" lon="19.646345"><ele>1355.0</ele><time>2012-04-30T18:54:40.0000000+00:00</time></trkpt><trkpt lat="42.921371" lon="19.646286"><ele>1355.8</ele><time>2012-04-30T18:54:45.0000000+00:00</time></trkpt><trkpt lat="42.921398" lon="19.646265"><ele>1357.3</ele><time>2012-04-30T18:54:50.0000000+00:00</time></trkpt><trkpt lat="42.921459" lon="19.646273"><ele>1357.5</ele><time>2012-04-30T18:54:55.0000000+00:00</time></trkpt><trkpt lat="42.921524" lon="19.646229"><ele>1360.2</ele><time>2012-04-30T18:55:00.0000000+00:00</time></trkpt><trkpt lat="42.921589" lon="19.646198"><ele>1360.7</ele><time>2012-04-30T18:55:05.0000000+00:00</time></trkpt><trkpt lat="42.921627" lon="19.646103"><ele>1359.8</ele><time>2012-04-30T18:55:10.0000000+00:00</time></trkpt><trkpt lat="42.921673" lon="19.646051"><ele>1360.1</ele><time>2012-04-30T18:55:15.0000000+00:00</time></trkpt><trkpt lat="42.921688" lon="19.64604"><ele>1361.2</ele><time>2012-04-30T18:55:20.0000000+00:00</time></trkpt><trkpt lat="42.921738" lon="19.646015"><ele>1360.7</ele><time>2012-04-30T18:55:25.0000000+00:00</time></trkpt><trkpt lat="42.921761" lon="19.64595"><ele>1361.5</ele><time>2012-04-30T18:55:30.0000000+00:00</time></trkpt><trkpt lat="42.921776" lon="19.645905"><ele>1361.6</ele><time>2012-04-30T18:55:35.0000000+00:00</time></trkpt><trkpt lat="42.921814" lon="19.645866"><ele>1361.6</ele><time>2012-04-30T18:55:40.0000000+00:00</time></trkpt><trkpt lat="42.921852" lon="19.645779"><ele>1361.7</ele><time>2012-04-30T18:55:45.0000000+00:00</time></trkpt><trkpt lat="42.921894" lon="19.645725"><ele>1362.6</ele><time>2012-04-30T18:55:50.0000000+00:00</time></trkpt><trkpt lat="42.921963" lon="19.645699"><ele>1362.0</ele><time>2012-04-30T18:55:55.0000000+00:00</time></trkpt><trkpt lat="42.922031" lon="19.645702"><ele>1360.8</ele><time>2012-04-30T18:56:00.0000000+00:00</time></trkpt><trkpt lat="42.922134" lon="19.645689"><ele>1359.6</ele><time>2012-04-30T18:56:05.0000000+00:00</time></trkpt><trkpt lat="42.922215" lon="19.645615"><ele>1357.4</ele><time>2012-04-30T18:56:10.0000000+00:00</time></trkpt><trkpt lat="42.922241" lon="19.645502"><ele>1355.7</ele><time>2012-04-30T18:56:15.0000000+00:00</time></trkpt><trkpt lat="42.922314" lon="19.645412"><ele>1354.0</ele><time>2012-04-30T18:56:20.0000000+00:00</time></trkpt><trkpt lat="42.922371" lon="19.645302"><ele>1353.3</ele><time>2012-04-30T18:56:25.0000000+00:00</time></trkpt><trkpt lat="42.922432" lon="19.645243"><ele>1353.5</ele><time>2012-04-30T18:56:30.0000000+00:00</time></trkpt><trkpt lat="42.922493" lon="19.645176"><ele>1352.9</ele><time>2012-04-30T18:56:35.0000000+00:00</time></trkpt><trkpt lat="42.922577" lon="19.645126"><ele>1352.8</ele><time>2012-04-30T18:56:40.0000000+00:00</time></trkpt><trkpt lat="42.922649" lon="19.645073"><ele>1353.6</ele><time>2012-04-30T18:56:45.0000000+00:00</time></trkpt><trkpt lat="42.922703" lon="19.645042"><ele>1355.0</ele><time>2012-04-30T18:56:50.0000000+00:00</time></trkpt><trkpt lat="42.922729" lon="19.645018"><ele>1355.7</ele><time>2012-04-30T18:56:55.0000000+00:00</time></trkpt><trkpt lat="42.922779" lon="19.64497"><ele>1356.2</ele><time>2012-04-30T18:57:00.0000000+00:00</time></trkpt><trkpt lat="42.922794" lon="19.644962"><ele>1357.2</ele><time>2012-04-30T18:57:05.0000000+00:00</time></trkpt><trkpt lat="42.922836" lon="19.644958"><ele>1357.5</ele><time>2012-04-30T18:57:10.0000000+00:00</time></trkpt><trkpt lat="42.922871" lon="19.644968"><ele>1359.0</ele><time>2012-04-30T18:57:15.0000000+00:00</time></trkpt><trkpt lat="42.922886" lon="19.644968"><ele>1360.0</ele><time>2012-04-30T18:57:20.0000000+00:00</time></trkpt><trkpt lat="42.922882" lon="19.644981"><ele>1360.2</ele><time>2012-04-30T18:57:25.0000000+00:00</time></trkpt><trkpt lat="42.92289" lon="19.644987"><ele>1360.1</ele><time>2012-04-30T18:57:30.0000000+00:00</time></trkpt><trkpt lat="42.922882" lon="19.644976"><ele>1360.3</ele><time>2012-04-30T18:57:35.0000000+00:00</time></trkpt><trkpt lat="42.922882" lon="19.64497"><ele>1360.1</ele><time>2012-04-30T18:57:40.0000000+00:00</time></trkpt><trkpt lat="42.922882" lon="19.64497"><ele>1360.1</ele><time>2012-04-30T18:57:45.0000000+00:00</time></trkpt><trkpt lat="42.922882" lon="19.64497"><ele>1360.0</ele><time>2012-04-30T18:57:50.0000000+00:00</time></trkpt><trkpt lat="42.922882" lon="19.64497"><ele>1360.1</ele><time>2012-04-30T18:57:55.0000000+00:00</time></trkpt><trkpt lat="42.922882" lon="19.64497"><ele>1360.1</ele><time>2012-04-30T18:58:00.0000000+00:00</time></trkpt><trkpt lat="42.922882" lon="19.644968"><ele>1360.1</ele><time>2012-04-30T18:58:05.0000000+00:00</time></trkpt><trkpt lat="42.922882" lon="19.644968"><ele>1360.1</ele><time>2012-04-30T18:58:10.0000000+00:00</time></trkpt><trkpt lat="42.922882" lon="19.644968"><ele>1360.1</ele><time>2012-04-30T18:58:15.0000000+00:00</time></trkpt><trkpt lat="42.922882" lon="19.644968"><ele>1360.1</ele><time>2012-04-30T18:58:20.0000000+00:00</time></trkpt><trkpt lat="42.922878" lon="19.644968"><ele>1360.1</ele><time>2012-04-30T18:58:25.0000000+00:00</time></trkpt><trkpt lat="42.922878" lon="19.644968"><ele>1360.1</ele><time>2012-04-30T18:58:30.0000000+00:00</time></trkpt><trkpt lat="42.922878" lon="19.644968"><ele>1360.1</ele><time>2012-04-30T18:58:35.0000000+00:00</time></trkpt><trkpt lat="42.922878" lon="19.644968"><ele>1360.1</ele><time>2012-04-30T18:58:40.0000000+00:00</time></trkpt><trkpt lat="42.922878" lon="19.644968"><ele>1360.2</ele><time>2012-04-30T18:58:45.0000000+00:00</time></trkpt><trkpt lat="42.922878" lon="19.644968"><ele>1360.2</ele><time>2012-04-30T18:58:50.0000000+00:00</time></trkpt><trkpt lat="42.922882" lon="19.644966"><ele>1360.2</ele><time>2012-04-30T18:58:55.0000000+00:00</time></trkpt><trkpt lat="42.922882" lon="19.644966"><ele>1360.2</ele><time>2012-04-30T18:59:00.0000000+00:00</time></trkpt><trkpt lat="42.922882" lon="19.644966"><ele>1360.2</ele><time>2012-04-30T18:59:05.0000000+00:00</time></trkpt><trkpt lat="42.922882" lon="19.644966"><ele>1360.2</ele><time>2012-04-30T18:59:10.0000000+00:00</time></trkpt><trkpt lat="42.922882" lon="19.644964"><ele>1360.2</ele><time>2012-04-30T18:59:15.0000000+00:00</time></trkpt><trkpt lat="42.922882" lon="19.644964"><ele>1360.1</ele><time>2012-04-30T18:59:20.0000000+00:00</time></trkpt><trkpt lat="42.922882" lon="19.644964"><ele>1360.1</ele><time>2012-04-30T18:59:25.0000000+00:00</time></trkpt><trkpt lat="42.922882" lon="19.644964"><ele>1360.1</ele><time>2012-04-30T18:59:30.0000000+00:00</time></trkpt><trkpt lat="42.922882" lon="19.644964"><ele>1360.1</ele><time>2012-04-30T18:59:35.0000000+00:00</time></trkpt><trkpt lat="42.922882" lon="19.644964"><ele>1360.2</ele><time>2012-04-30T18:59:40.0000000+00:00</time></trkpt><trkpt lat="42.922882" lon="19.644964"><ele>1360.2</ele><time>2012-04-30T18:59:45.0000000+00:00</time></trkpt><trkpt lat="42.922878" lon="19.644964"><ele>1360.2</ele><time>2012-04-30T18:59:50.0000000+00:00</time></trkpt><trkpt lat="42.922878" lon="19.644962"><ele>1360.2</ele><time>2012-04-30T18:59:55.0000000+00:00</time></trkpt><trkpt lat="42.922878" lon="19.644962"><ele>1360.2</ele><time>2012-04-30T19:00:00.0000000+00:00</time></trkpt><trkpt lat="42.922878" lon="19.644962"><ele>1360.2</ele><time>2012-04-30T19:00:05.0000000+00:00</time></trkpt><trkpt lat="42.922878" lon="19.644962"><ele>1360.2</ele><time>2012-04-30T19:00:10.0000000+00:00</time></trkpt><trkpt lat="42.922878" lon="19.644962"><ele>1360.1</ele><time>2012-04-30T19:00:15.0000000+00:00</time></trkpt><trkpt lat="42.922878" lon="19.644962"><ele>1360.1</ele><time>2012-04-30T19:00:20.0000000+00:00</time></trkpt><trkpt lat="42.922878" lon="19.644962"><ele>1360.1</ele><time>2012-04-30T19:00:25.0000000+00:00</time></trkpt><trkpt lat="42.922878" lon="19.644962"><ele>1360.1</ele><time>2012-04-30T19:00:30.0000000+00:00</time></trkpt><trkpt lat="42.922878" lon="19.644962"><ele>1360.0</ele><time>2012-04-30T19:00:35.0000000+00:00</time></trkpt><trkpt lat="42.922878" lon="19.644962"><ele>1360.0</ele><time>2012-04-30T19:00:40.0000000+00:00</time></trkpt><trkpt lat="42.922878" lon="19.64496"><ele>1360.0</ele><time>2012-04-30T19:00:45.0000000+00:00</time></trkpt><trkpt lat="42.92289" lon="19.644968"><ele>1360.1</ele><time>2012-04-30T19:00:50.0000000+00:00</time></trkpt><trkpt lat="42.922939" lon="19.644976"><ele>1360.4</ele><time>2012-04-30T19:00:55.0000000+00:00</time></trkpt><trkpt lat="42.922989" lon="19.644972"><ele>1362.4</ele><time>2012-04-30T19:01:00.0000000+00:00</time></trkpt><trkpt lat="42.923031" lon="19.644951"><ele>1364.9</ele><time>2012-04-30T19:01:05.0000000+00:00</time></trkpt><trkpt lat="42.923103" lon="19.644861"><ele>1366.2</ele><time>2012-04-30T19:01:10.0000000+00:00</time></trkpt><trkpt lat="42.923164" lon="19.644819"><ele>1367.2</ele><time>2012-04-30T19:01:15.0000000+00:00</time></trkpt><trkpt lat="42.923206" lon="19.644781"><ele>1369.1</ele><time>2012-04-30T19:01:20.0000000+00:00</time></trkpt><trkpt lat="42.923275" lon="19.644737"><ele>1370.5</ele><time>2012-04-30T19:01:25.0000000+00:00</time></trkpt><trkpt lat="42.923367" lon="19.644657"><ele>1371.0</ele><time>2012-04-30T19:01:30.0000000+00:00</time></trkpt><trkpt lat="42.923424" lon="19.644579"><ele>1370.7</ele><time>2012-04-30T19:01:35.0000000+00:00</time></trkpt><trkpt lat="42.923447" lon="19.644545"><ele>1373.4</ele><time>2012-04-30T19:01:40.0000000+00:00</time></trkpt><trkpt lat="42.923462" lon="19.644512"><ele>1373.3</ele><time>2012-04-30T19:01:45.0000000+00:00</time></trkpt><trkpt lat="42.923485" lon="19.644459"><ele>1373.0</ele><time>2012-04-30T19:01:50.0000000+00:00</time></trkpt><trkpt lat="42.923527" lon="19.644373"><ele>1371.1</ele><time>2012-04-30T19:01:55.0000000+00:00</time></trkpt><trkpt lat="42.923569" lon="19.644299"><ele>1369.9</ele><time>2012-04-30T19:02:00.0000000+00:00</time></trkpt><trkpt lat="42.923599" lon="19.644203"><ele>1369.9</ele><time>2012-04-30T19:02:05.0000000+00:00</time></trkpt><trkpt lat="42.923641" lon="19.644106"><ele>1372.1</ele><time>2012-04-30T19:02:10.0000000+00:00</time></trkpt><trkpt lat="42.923683" lon="19.644014"><ele>1373.7</ele><time>2012-04-30T19:02:15.0000000+00:00</time></trkpt><trkpt lat="42.923725" lon="19.643948"><ele>1374.5</ele><time>2012-04-30T19:02:20.0000000+00:00</time></trkpt><trkpt lat="42.923763" lon="19.643892"><ele>1374.4</ele><time>2012-04-30T19:02:25.0000000+00:00</time></trkpt><trkpt lat="42.923813" lon="19.643822"><ele>1374.7</ele><time>2012-04-30T19:02:30.0000000+00:00</time></trkpt><trkpt lat="42.923878" lon="19.643755"><ele>1374.5</ele><time>2012-04-30T19:02:35.0000000+00:00</time></trkpt><trkpt lat="42.92387" lon="19.643745"><ele>1374.1</ele><time>2012-04-30T19:02:40.0000000+00:00</time></trkpt><trkpt lat="42.923874" lon="19.643744"><ele>1373.9</ele><time>2012-04-30T19:02:45.0000000+00:00</time></trkpt><trkpt lat="42.923908" lon="19.643711"><ele>1373.9</ele><time>2012-04-30T19:02:50.0000000+00:00</time></trkpt><trkpt lat="42.923962" lon="19.643658"><ele>1374.0</ele><time>2012-04-30T19:02:55.0000000+00:00</time></trkpt><trkpt lat="42.924015" lon="19.643595"><ele>1374.0</ele><time>2012-04-30T19:03:00.0000000+00:00</time></trkpt><trkpt lat="42.924068" lon="19.643576"><ele>1374.2</ele><time>2012-04-30T19:03:05.0000000+00:00</time></trkpt><trkpt lat="42.924118" lon="19.643585"><ele>1374.7</ele><time>2012-04-30T19:03:10.0000000+00:00</time></trkpt><trkpt lat="42.924149" lon="19.643597"><ele>1374.3</ele><time>2012-04-30T19:03:15.0000000+00:00</time></trkpt><trkpt lat="42.924221" lon="19.643606"><ele>1373.1</ele><time>2012-04-30T19:03:20.0000000+00:00</time></trkpt><trkpt lat="42.924286" lon="19.643583"><ele>1375.0</ele><time>2012-04-30T19:03:25.0000000+00:00</time></trkpt><trkpt lat="42.924355" lon="19.643543"><ele>1377.2</ele><time>2012-04-30T19:03:30.0000000+00:00</time></trkpt><trkpt lat="42.924412" lon="19.643496"><ele>1379.1</ele><time>2012-04-30T19:03:35.0000000+00:00</time></trkpt><trkpt lat="42.924488" lon="19.64348"><ele>1379.9</ele><time>2012-04-30T19:03:40.0000000+00:00</time></trkpt><trkpt lat="42.924549" lon="19.643467"><ele>1378.6</ele><time>2012-04-30T19:03:45.0000000+00:00</time></trkpt><trkpt lat="42.924614" lon="19.643429"><ele>1378.5</ele><time>2012-04-30T19:03:50.0000000+00:00</time></trkpt><trkpt lat="42.924702" lon="19.643366"><ele>1377.5</ele><time>2012-04-30T19:03:55.0000000+00:00</time></trkpt><trkpt lat="42.924755" lon="19.643324"><ele>1376.7</ele><time>2012-04-30T19:04:00.0000000+00:00</time></trkpt><trkpt lat="42.924835" lon="19.643324"><ele>1376.7</ele><time>2012-04-30T19:04:05.0000000+00:00</time></trkpt><trkpt lat="42.9249" lon="19.643312"><ele>1376.2</ele><time>2012-04-30T19:04:10.0000000+00:00</time></trkpt><trkpt lat="42.924953" lon="19.643291"><ele>1375.7</ele><time>2012-04-30T19:04:15.0000000+00:00</time></trkpt><trkpt lat="42.924988" lon="19.643253"><ele>1377.5</ele><time>2012-04-30T19:04:20.0000000+00:00</time></trkpt><trkpt lat="42.925064" lon="19.64323"><ele>1376.7</ele><time>2012-04-30T19:04:25.0000000+00:00</time></trkpt><trkpt lat="42.925121" lon="19.64323"><ele>1377.2</ele><time>2012-04-30T19:04:30.0000000+00:00</time></trkpt><trkpt lat="42.925198" lon="19.643211"><ele>1376.4</ele><time>2012-04-30T19:04:35.0000000+00:00</time></trkpt><trkpt lat="42.925262" lon="19.643183"><ele>1375.0</ele><time>2012-04-30T19:04:40.0000000+00:00</time></trkpt><trkpt lat="42.92532" lon="19.643164"><ele>1373.6</ele><time>2012-04-30T19:04:45.0000000+00:00</time></trkpt><trkpt lat="42.925369" lon="19.643158"><ele>1373.5</ele><time>2012-04-30T19:04:50.0000000+00:00</time></trkpt><trkpt lat="42.925426" lon="19.643137"><ele>1373.5</ele><time>2012-04-30T19:04:55.0000000+00:00</time></trkpt><trkpt lat="42.925465" lon="19.643126"><ele>1377.8</ele><time>2012-04-30T19:05:00.0000000+00:00</time></trkpt><trkpt lat="42.925503" lon="19.643108"><ele>1379.4</ele><time>2012-04-30T19:05:05.0000000+00:00</time></trkpt><trkpt lat="42.925579" lon="19.643084"><ele>1381.0</ele><time>2012-04-30T19:05:10.0000000+00:00</time></trkpt><trkpt lat="42.925674" lon="19.643061"><ele>1382.8</ele><time>2012-04-30T19:05:15.0000000+00:00</time></trkpt><trkpt lat="42.925705" lon="19.643063"><ele>1382.6</ele><time>2012-04-30T19:05:20.0000000+00:00</time></trkpt><trkpt lat="42.925705" lon="19.643057"><ele>1382.7</ele><time>2012-04-30T19:05:25.0000000+00:00</time></trkpt><trkpt lat="42.925705" lon="19.643055"><ele>1382.7</ele><time>2012-04-30T19:05:30.0000000+00:00</time></trkpt><trkpt lat="42.925709" lon="19.643057"><ele>1383.0</ele><time>2012-04-30T19:05:35.0000000+00:00</time></trkpt><trkpt lat="42.925709" lon="19.643057"><ele>1383.0</ele><time>2012-04-30T19:05:40.0000000+00:00</time></trkpt><trkpt lat="42.925709" lon="19.643057"><ele>1383.0</ele><time>2012-04-30T19:05:45.0000000+00:00</time></trkpt><trkpt lat="42.925724" lon="19.643047"><ele>1383.4</ele><time>2012-04-30T19:05:50.0000000+00:00</time></trkpt><trkpt lat="42.925758" lon="19.642994"><ele>1383.3</ele><time>2012-04-30T19:05:55.0000000+00:00</time></trkpt><trkpt lat="42.925827" lon="19.642962"><ele>1382.8</ele><time>2012-04-30T19:06:00.0000000+00:00</time></trkpt><trkpt lat="42.925896" lon="19.642981"><ele>1382.4</ele><time>2012-04-30T19:06:05.0000000+00:00</time></trkpt><trkpt lat="42.925957" lon="19.643028"><ele>1380.9</ele><time>2012-04-30T19:06:10.0000000+00:00</time></trkpt><trkpt lat="42.926022" lon="19.643019"><ele>1377.7</ele><time>2012-04-30T19:06:15.0000000+00:00</time></trkpt><trkpt lat="42.926105" lon="19.642908"><ele>1378.6</ele><time>2012-04-30T19:06:20.0000000+00:00</time></trkpt><trkpt lat="42.926193" lon="19.642876"><ele>1376.7</ele><time>2012-04-30T19:06:25.0000000+00:00</time></trkpt><trkpt lat="42.926281" lon="19.642832"><ele>1374.4</ele><time>2012-04-30T19:06:30.0000000+00:00</time></trkpt><trkpt lat="42.926357" lon="19.64279"><ele>1375.0</ele><time>2012-04-30T19:06:35.0000000+00:00</time></trkpt><trkpt lat="42.926414" lon="19.642782"><ele>1378.2</ele><time>2012-04-30T19:06:40.0000000+00:00</time></trkpt><trkpt lat="42.926487" lon="19.64274"><ele>1379.3</ele><time>2012-04-30T19:06:45.0000000+00:00</time></trkpt><trkpt lat="42.926537" lon="19.642694"><ele>1381.2</ele><time>2012-04-30T19:06:50.0000000+00:00</time></trkpt><trkpt lat="42.926601" lon="19.642643"><ele>1382.0</ele><time>2012-04-30T19:06:55.0000000+00:00</time></trkpt><trkpt lat="42.926666" lon="19.642607"><ele>1383.5</ele><time>2012-04-30T19:07:00.0000000+00:00</time></trkpt><trkpt lat="42.926723" lon="19.642555"><ele>1384.8</ele><time>2012-04-30T19:07:05.0000000+00:00</time></trkpt><trkpt lat="42.926762" lon="19.642515"><ele>1384.9</ele><time>2012-04-30T19:07:10.0000000+00:00</time></trkpt><trkpt lat="42.926826" lon="19.642483"><ele>1385.8</ele><time>2012-04-30T19:07:15.0000000+00:00</time></trkpt><trkpt lat="42.926884" lon="19.642414"><ele>1387.0</ele><time>2012-04-30T19:07:20.0000000+00:00</time></trkpt><trkpt lat="42.92696" lon="19.642347"><ele>1388.0</ele><time>2012-04-30T19:07:25.0000000+00:00</time></trkpt><trkpt lat="42.927059" lon="19.642271"><ele>1388.6</ele><time>2012-04-30T19:07:30.0000000+00:00</time></trkpt><trkpt lat="42.927177" lon="19.642233"><ele>1386.4</ele><time>2012-04-30T19:07:35.0000000+00:00</time></trkpt><trkpt lat="42.927277" lon="19.64216"><ele>1384.6</ele><time>2012-04-30T19:07:40.0000000+00:00</time></trkpt><trkpt lat="42.927383" lon="19.642063"><ele>1384.9</ele><time>2012-04-30T19:07:45.0000000+00:00</time></trkpt><trkpt lat="42.927486" lon="19.641916"><ele>1385.6</ele><time>2012-04-30T19:07:50.0000000+00:00</time></trkpt><trkpt lat="42.927559" lon="19.641834"><ele>1386.3</ele><time>2012-04-30T19:07:55.0000000+00:00</time></trkpt><trkpt lat="42.927662" lon="19.641756"><ele>1386.7</ele><time>2012-04-30T19:08:00.0000000+00:00</time></trkpt><trkpt lat="42.927769" lon="19.641693"><ele>1386.9</ele><time>2012-04-30T19:08:05.0000000+00:00</time></trkpt><trkpt lat="42.927879" lon="19.64163"><ele>1386.8</ele><time>2012-04-30T19:08:10.0000000+00:00</time></trkpt><trkpt lat="42.927975" lon="19.641586"><ele>1388.2</ele><time>2012-04-30T19:08:15.0000000+00:00</time></trkpt><trkpt lat="42.92807" lon="19.641562"><ele>1388.5</ele><time>2012-04-30T19:08:20.0000000+00:00</time></trkpt><trkpt lat="42.928177" lon="19.641497"><ele>1385.2</ele><time>2012-04-30T19:08:25.0000000+00:00</time></trkpt><trkpt lat="42.928318" lon="19.641449"><ele>1382.9</ele><time>2012-04-30T19:08:30.0000000+00:00</time></trkpt><trkpt lat="42.928444" lon="19.641329"><ele>1380.1</ele><time>2012-04-30T19:08:35.0000000+00:00</time></trkpt><trkpt lat="42.928642" lon="19.641233"><ele>1377.9</ele><time>2012-04-30T19:08:40.0000000+00:00</time></trkpt><trkpt lat="42.928787" lon="19.641113"><ele>1378.2</ele><time>2012-04-30T19:08:45.0000000+00:00</time></trkpt><trkpt lat="42.928944" lon="19.640957"><ele>1378.0</ele><time>2012-04-30T19:08:50.0000000+00:00</time></trkpt><trkpt lat="42.929092" lon="19.640804"><ele>1376.4</ele><time>2012-04-30T19:08:55.0000000+00:00</time></trkpt><trkpt lat="42.929226" lon="19.640701"><ele>1376.5</ele><time>2012-04-30T19:09:00.0000000+00:00</time></trkpt><trkpt lat="42.929333" lon="19.640608"><ele>1375.6</ele><time>2012-04-30T19:09:05.0000000+00:00</time></trkpt><trkpt lat="42.929436" lon="19.640469"><ele>1376.6</ele><time>2012-04-30T19:09:10.0000000+00:00</time></trkpt><trkpt lat="42.92955" lon="19.640352"><ele>1377.2</ele><time>2012-04-30T19:09:15.0000000+00:00</time></trkpt><trkpt lat="42.92968" lon="19.640261"><ele>1376.0</ele><time>2012-04-30T19:09:20.0000000+00:00</time></trkpt><trkpt lat="42.929756" lon="19.640182"><ele>1375.2</ele><time>2012-04-30T19:09:25.0000000+00:00</time></trkpt><trkpt lat="42.92976" lon="19.64015"><ele>1378.0</ele><time>2012-04-30T19:09:30.0000000+00:00</time></trkpt><trkpt lat="42.92976" lon="19.64015"><ele>1378.0</ele><time>2012-04-30T19:09:35.0000000+00:00</time></trkpt><trkpt lat="42.929764" lon="19.640142"><ele>1377.6</ele><time>2012-04-30T19:09:40.0000000+00:00</time></trkpt><trkpt lat="42.929764" lon="19.640142"><ele>1377.6</ele><time>2012-04-30T19:09:45.0000000+00:00</time></trkpt><trkpt lat="42.929764" lon="19.640142"><ele>1377.6</ele><time>2012-04-30T19:09:50.0000000+00:00</time></trkpt><trkpt lat="42.929764" lon="19.640144"><ele>1377.6</ele><time>2012-04-30T19:09:55.0000000+00:00</time></trkpt><trkpt lat="42.929764" lon="19.640144"><ele>1377.6</ele><time>2012-04-30T19:10:00.0000000+00:00</time></trkpt><trkpt lat="42.929764" lon="19.640146"><ele>1377.6</ele><time>2012-04-30T19:10:05.0000000+00:00</time></trkpt><trkpt lat="42.929764" lon="19.640146"><ele>1377.6</ele><time>2012-04-30T19:10:10.0000000+00:00</time></trkpt><trkpt lat="42.929764" lon="19.640146"><ele>1377.6</ele><time>2012-04-30T19:10:15.0000000+00:00</time></trkpt><trkpt lat="42.929764" lon="19.640148"><ele>1377.6</ele><time>2012-04-30T19:10:20.0000000+00:00</time></trkpt><trkpt lat="42.929764" lon="19.640148"><ele>1377.5</ele><time>2012-04-30T19:10:25.0000000+00:00</time></trkpt><trkpt lat="42.92976" lon="19.64015"><ele>1377.4</ele><time>2012-04-30T19:10:30.0000000+00:00</time></trkpt><trkpt lat="42.929855" lon="19.64012"><ele>1377.7</ele><time>2012-04-30T19:10:35.0000000+00:00</time></trkpt><trkpt lat="42.929893" lon="19.64012"><ele>1378.7</ele><time>2012-04-30T19:10:40.0000000+00:00</time></trkpt><trkpt lat="42.929897" lon="19.640121"><ele>1378.9</ele><time>2012-04-30T19:10:45.0000000+00:00</time></trkpt><trkpt lat="42.929897" lon="19.64012"><ele>1379.0</ele><time>2012-04-30T19:10:50.0000000+00:00</time></trkpt><trkpt lat="42.929893" lon="19.640116"><ele>1379.1</ele><time>2012-04-30T19:10:55.0000000+00:00</time></trkpt><trkpt lat="42.929893" lon="19.640118"><ele>1379.2</ele><time>2012-04-30T19:11:00.0000000+00:00</time></trkpt><trkpt lat="42.929893" lon="19.640118"><ele>1379.2</ele><time>2012-04-30T19:11:05.0000000+00:00</time></trkpt><trkpt lat="42.929893" lon="19.640116"><ele>1379.2</ele><time>2012-04-30T19:11:10.0000000+00:00</time></trkpt><trkpt lat="42.930016" lon="19.640131"><ele>1379.7</ele><time>2012-04-30T19:11:15.0000000+00:00</time></trkpt><trkpt lat="42.930206" lon="19.640173"><ele>1380.0</ele><time>2012-04-30T19:11:20.0000000+00:00</time></trkpt><trkpt lat="42.930359" lon="19.640223"><ele>1380.2</ele><time>2012-04-30T19:11:25.0000000+00:00</time></trkpt><trkpt lat="42.930508" lon="19.640293"><ele>1378.4</ele><time>2012-04-30T19:11:30.0000000+00:00</time></trkpt><trkpt lat="42.930679" lon="19.640312"><ele>1378.0</ele><time>2012-04-30T19:11:35.0000000+00:00</time></trkpt><trkpt lat="42.930843" lon="19.640253"><ele>1377.9</ele><time>2012-04-30T19:11:40.0000000+00:00</time></trkpt><trkpt lat="42.931019" lon="19.640173"><ele>1378.4</ele><time>2012-04-30T19:11:45.0000000+00:00</time></trkpt><trkpt lat="42.931107" lon="19.640169"><ele>1378.5</ele><time>2012-04-30T19:11:50.0000000+00:00</time></trkpt><trkpt lat="42.931175" lon="19.640171"><ele>1378.3</ele><time>2012-04-30T19:11:55.0000000+00:00</time></trkpt><trkpt lat="42.93124" lon="19.640135"><ele>1379.6</ele><time>2012-04-30T19:12:00.0000000+00:00</time></trkpt><trkpt lat="42.931301" lon="19.640093"><ele>1380.9</ele><time>2012-04-30T19:12:05.0000000+00:00</time></trkpt><trkpt lat="42.931366" lon="19.640049"><ele>1382.5</ele><time>2012-04-30T19:12:10.0000000+00:00</time></trkpt><trkpt lat="42.931435" lon="19.640007"><ele>1383.5</ele><time>2012-04-30T19:12:15.0000000+00:00</time></trkpt><trkpt lat="42.931526" lon="19.640001"><ele>1384.6</ele><time>2012-04-30T19:12:20.0000000+00:00</time></trkpt><trkpt lat="42.93161" lon="19.640047"><ele>1385.9</ele><time>2012-04-30T19:12:25.0000000+00:00</time></trkpt><trkpt lat="42.931747" lon="19.640087"><ele>1386.8</ele><time>2012-04-30T19:12:30.0000000+00:00</time></trkpt><trkpt lat="42.931843" lon="19.640062"><ele>1387.3</ele><time>2012-04-30T19:12:35.0000000+00:00</time></trkpt><trkpt lat="42.931969" lon="19.640074"><ele>1388.4</ele><time>2012-04-30T19:12:40.0000000+00:00</time></trkpt><trkpt lat="42.932037" lon="19.640091"><ele>1388.6</ele><time>2012-04-30T19:12:45.0000000+00:00</time></trkpt><trkpt lat="42.932148" lon="19.64011"><ele>1388.0</ele><time>2012-04-30T19:12:50.0000000+00:00</time></trkpt><trkpt lat="42.93222" lon="19.640093"><ele>1387.0</ele><time>2012-04-30T19:12:55.0000000+00:00</time></trkpt><trkpt lat="42.932281" lon="19.640064"><ele>1386.4</ele><time>2012-04-30T19:13:00.0000000+00:00</time></trkpt><trkpt lat="42.932377" lon="19.640024"><ele>1385.6</ele><time>2012-04-30T19:13:05.0000000+00:00</time></trkpt><trkpt lat="42.932491" lon="19.639963"><ele>1384.2</ele><time>2012-04-30T19:13:10.0000000+00:00</time></trkpt><trkpt lat="42.932579" lon="19.639931"><ele>1383.0</ele><time>2012-04-30T19:13:15.0000000+00:00</time></trkpt><trkpt lat="42.932693" lon="19.639902"><ele>1382.0</ele><time>2012-04-30T19:13:20.0000000+00:00</time></trkpt><trkpt lat="42.932823" lon="19.639872"><ele>1381.0</ele><time>2012-04-30T19:13:25.0000000+00:00</time></trkpt><trkpt lat="42.933022" lon="19.63979"><ele>1381.0</ele><time>2012-04-30T19:13:30.0000000+00:00</time></trkpt><trkpt lat="42.933159" lon="19.639755"><ele>1381.2</ele><time>2012-04-30T19:13:35.0000000+00:00</time></trkpt><trkpt lat="42.933319" lon="19.639715"><ele>1379.9</ele><time>2012-04-30T19:13:40.0000000+00:00</time></trkpt><trkpt lat="42.933475" lon="19.639694"><ele>1378.8</ele><time>2012-04-30T19:13:45.0000000+00:00</time></trkpt><trkpt lat="42.933594" lon="19.639656"><ele>1377.5</ele><time>2012-04-30T19:13:50.0000000+00:00</time></trkpt><trkpt lat="42.933704" lon="19.639639"><ele>1376.5</ele><time>2012-04-30T19:13:55.0000000+00:00</time></trkpt><trkpt lat="42.933819" lon="19.639637"><ele>1375.5</ele><time>2012-04-30T19:14:00.0000000+00:00</time></trkpt><trkpt lat="42.933922" lon="19.639668"><ele>1375.0</ele><time>2012-04-30T19:14:05.0000000+00:00</time></trkpt><trkpt lat="42.934113" lon="19.639629"><ele>1374.5</ele><time>2012-04-30T19:14:10.0000000+00:00</time></trkpt><trkpt lat="42.934319" lon="19.639647"><ele>1373.2</ele><time>2012-04-30T19:14:15.0000000+00:00</time></trkpt><trkpt lat="42.934406" lon="19.639679"><ele>1371.9</ele><time>2012-04-30T19:14:20.0000000+00:00</time></trkpt><trkpt lat="42.934452" lon="19.639671"><ele>1370.6</ele><time>2012-04-30T19:14:25.0000000+00:00</time></trkpt><trkpt lat="42.934597" lon="19.63966"><ele>1368.9</ele><time>2012-04-30T19:14:30.0000000+00:00</time></trkpt><trkpt lat="42.934704" lon="19.639685"><ele>1367.7</ele><time>2012-04-30T19:14:35.0000000+00:00</time></trkpt><trkpt lat="42.934834" lon="19.639669"><ele>1366.4</ele><time>2012-04-30T19:14:40.0000000+00:00</time></trkpt><trkpt lat="42.934895" lon="19.639683"><ele>1366.0</ele><time>2012-04-30T19:14:45.0000000+00:00</time></trkpt><trkpt lat="42.935104" lon="19.639549"><ele>1364.3</ele><time>2012-04-30T19:14:50.0000000+00:00</time></trkpt><trkpt lat="42.935223" lon="19.639462"><ele>1362.8</ele><time>2012-04-30T19:14:55.0000000+00:00</time></trkpt><trkpt lat="42.93536" lon="19.639368"><ele>1362.8</ele><time>2012-04-30T19:15:00.0000000+00:00</time></trkpt><trkpt lat="42.935432" lon="19.639256"><ele>1364.6</ele><time>2012-04-30T19:15:05.0000000+00:00</time></trkpt><trkpt lat="42.935509" lon="19.639137"><ele>1363.6</ele><time>2012-04-30T19:15:10.0000000+00:00</time></trkpt><trkpt lat="42.935596" lon="19.639013"><ele>1362.2</ele><time>2012-04-30T19:15:15.0000000+00:00</time></trkpt><trkpt lat="42.935661" lon="19.638872"><ele>1360.9</ele><time>2012-04-30T19:15:20.0000000+00:00</time></trkpt><trkpt lat="42.935722" lon="19.63883"><ele>1359.1</ele><time>2012-04-30T19:15:25.0000000+00:00</time></trkpt><trkpt lat="42.935722" lon="19.638798"><ele>1357.9</ele><time>2012-04-30T19:15:30.0000000+00:00</time></trkpt><trkpt lat="42.935745" lon="19.638727"><ele>1357.3</ele><time>2012-04-30T19:15:35.0000000+00:00</time></trkpt><trkpt lat="42.935841" lon="19.638641"><ele>1356.7</ele><time>2012-04-30T19:15:40.0000000+00:00</time></trkpt><trkpt lat="42.93594" lon="19.638523"><ele>1356.5</ele><time>2012-04-30T19:15:45.0000000+00:00</time></trkpt><trkpt lat="42.936028" lon="19.638428"><ele>1357.7</ele><time>2012-04-30T19:15:50.0000000+00:00</time></trkpt><trkpt lat="42.936104" lon="19.638367"><ele>1359.4</ele><time>2012-04-30T19:15:55.0000000+00:00</time></trkpt><trkpt lat="42.936161" lon="19.638348"><ele>1360.0</ele><time>2012-04-30T19:16:00.0000000+00:00</time></trkpt><trkpt lat="42.936218" lon="19.638338"><ele>1360.2</ele><time>2012-04-30T19:16:05.0000000+00:00</time></trkpt><trkpt lat="42.936253" lon="19.638323"><ele>1361.1</ele><time>2012-04-30T19:16:10.0000000+00:00</time></trkpt><trkpt lat="42.936306" lon="19.638237"><ele>1361.5</ele><time>2012-04-30T19:16:15.0000000+00:00</time></trkpt><trkpt lat="42.936401" lon="19.638176"><ele>1361.0</ele><time>2012-04-30T19:16:20.0000000+00:00</time></trkpt><trkpt lat="42.936466" lon="19.6381"><ele>1360.9</ele><time>2012-04-30T19:16:25.0000000+00:00</time></trkpt><trkpt lat="42.936493" lon="19.638044"><ele>1360.3</ele><time>2012-04-30T19:16:30.0000000+00:00</time></trkpt><trkpt lat="42.936501" lon="19.638039"><ele>1359.4</ele><time>2012-04-30T19:16:35.0000000+00:00</time></trkpt><trkpt lat="42.936501" lon="19.638039"><ele>1359.0</ele><time>2012-04-30T19:16:40.0000000+00:00</time></trkpt><trkpt lat="42.936501" lon="19.638039"><ele>1358.9</ele><time>2012-04-30T19:16:45.0000000+00:00</time></trkpt><trkpt lat="42.936501" lon="19.638039"><ele>1358.8</ele><time>2012-04-30T19:16:50.0000000+00:00</time></trkpt><trkpt lat="42.936501" lon="19.638039"><ele>1358.8</ele><time>2012-04-30T19:16:55.0000000+00:00</time></trkpt><trkpt lat="42.93655" lon="19.637993"><ele>1358.1</ele><time>2012-04-30T19:17:00.0000000+00:00</time></trkpt><trkpt lat="42.936649" lon="19.637901"><ele>1356.8</ele><time>2012-04-30T19:17:05.0000000+00:00</time></trkpt><trkpt lat="42.936733" lon="19.637825"><ele>1356.1</ele><time>2012-04-30T19:17:10.0000000+00:00</time></trkpt><trkpt lat="42.93681" lon="19.637745"><ele>1355.4</ele><time>2012-04-30T19:17:15.0000000+00:00</time></trkpt><trkpt lat="42.93689" lon="19.637693"><ele>1354.4</ele><time>2012-04-30T19:17:20.0000000+00:00</time></trkpt><trkpt lat="42.936974" lon="19.637602"><ele>1354.6</ele><time>2012-04-30T19:17:25.0000000+00:00</time></trkpt><trkpt lat="42.937054" lon="19.637514"><ele>1355.3</ele><time>2012-04-30T19:17:30.0000000+00:00</time></trkpt><trkpt lat="42.93713" lon="19.637432"><ele>1358.2</ele><time>2012-04-30T19:17:35.0000000+00:00</time></trkpt><trkpt lat="42.937202" lon="19.637403"><ele>1359.8</ele><time>2012-04-30T19:17:40.0000000+00:00</time></trkpt><trkpt lat="42.937271" lon="19.637358"><ele>1360.4</ele><time>2012-04-30T19:17:45.0000000+00:00</time></trkpt><trkpt lat="42.937317" lon="19.637304"><ele>1361.7</ele><time>2012-04-30T19:17:50.0000000+00:00</time></trkpt><trkpt lat="42.937321" lon="19.63728"><ele>1365.0</ele><time>2012-04-30T19:17:55.0000000+00:00</time></trkpt><trkpt lat="42.937363" lon="19.63722"><ele>1366.1</ele><time>2012-04-30T19:18:00.0000000+00:00</time></trkpt><trkpt lat="42.937439" lon="19.63711"><ele>1367.0</ele><time>2012-04-30T19:18:05.0000000+00:00</time></trkpt><trkpt lat="42.937508" lon="19.636986"><ele>1368.6</ele><time>2012-04-30T19:18:10.0000000+00:00</time></trkpt><trkpt lat="42.937595" lon="19.636841"><ele>1368.1</ele><time>2012-04-30T19:18:15.0000000+00:00</time></trkpt><trkpt lat="42.937702" lon="19.636683"><ele>1369.1</ele><time>2012-04-30T19:18:20.0000000+00:00</time></trkpt><trkpt lat="42.937794" lon="19.636518"><ele>1370.3</ele><time>2012-04-30T19:18:25.0000000+00:00</time></trkpt><trkpt lat="42.937866" lon="19.636351"><ele>1376.6</ele><time>2012-04-30T19:18:30.0000000+00:00</time></trkpt><trkpt lat="42.937996" lon="19.636244"><ele>1379.5</ele><time>2012-04-30T19:18:35.0000000+00:00</time></trkpt><trkpt lat="42.938133" lon="19.636204"><ele>1384.0</ele><time>2012-04-30T19:18:40.0000000+00:00</time></trkpt><trkpt lat="42.938282" lon="19.636168"><ele>1385.9</ele><time>2012-04-30T19:18:45.0000000+00:00</time></trkpt><trkpt lat="42.938404" lon="19.636147"><ele>1385.4</ele><time>2012-04-30T19:18:50.0000000+00:00</time></trkpt><trkpt lat="42.938545" lon="19.636118"><ele>1384.3</ele><time>2012-04-30T19:18:55.0000000+00:00</time></trkpt><trkpt lat="42.938694" lon="19.63615"><ele>1387.1</ele><time>2012-04-30T19:19:00.0000000+00:00</time></trkpt><trkpt lat="42.938824" lon="19.636194"><ele>1388.3</ele><time>2012-04-30T19:19:05.0000000+00:00</time></trkpt><trkpt lat="42.938931" lon="19.636246"><ele>1390.4</ele><time>2012-04-30T19:19:10.0000000+00:00</time></trkpt><trkpt lat="42.939049" lon="19.636345"><ele>1392.3</ele><time>2012-04-30T19:19:15.0000000+00:00</time></trkpt><trkpt lat="42.939186" lon="19.636408"><ele>1393.7</ele><time>2012-04-30T19:19:20.0000000+00:00</time></trkpt><trkpt lat="42.939262" lon="19.636421"><ele>1394.7</ele><time>2012-04-30T19:19:25.0000000+00:00</time></trkpt><trkpt lat="42.939369" lon="19.636436"><ele>1396.3</ele><time>2012-04-30T19:19:30.0000000+00:00</time></trkpt><trkpt lat="42.939545" lon="19.636351"><ele>1396.4</ele><time>2012-04-30T19:19:35.0000000+00:00</time></trkpt><trkpt lat="42.939693" lon="19.636221"><ele>1396.3</ele><time>2012-04-30T19:19:40.0000000+00:00</time></trkpt><trkpt lat="42.939857" lon="19.636097"><ele>1395.9</ele><time>2012-04-30T19:19:45.0000000+00:00</time></trkpt><trkpt lat="42.94001" lon="19.635965"><ele>1394.7</ele><time>2012-04-30T19:19:50.0000000+00:00</time></trkpt><trkpt lat="42.940113" lon="19.635868"><ele>1394.0</ele><time>2012-04-30T19:19:55.0000000+00:00</time></trkpt><trkpt lat="42.940182" lon="19.63579"><ele>1391.6</ele><time>2012-04-30T19:20:00.0000000+00:00</time></trkpt><trkpt lat="42.940228" lon="19.635712"><ele>1390.0</ele><time>2012-04-30T19:20:05.0000000+00:00</time></trkpt><trkpt lat="42.940369" lon="19.63563"><ele>1387.7</ele><time>2012-04-30T19:20:10.0000000+00:00</time></trkpt><trkpt lat="42.940475" lon="19.63555"><ele>1386.0</ele><time>2012-04-30T19:20:15.0000000+00:00</time></trkpt><trkpt lat="42.940559" lon="19.63553"><ele>1383.5</ele><time>2012-04-30T19:20:20.0000000+00:00</time></trkpt><trkpt lat="42.940636" lon="19.635487"><ele>1381.9</ele><time>2012-04-30T19:20:25.0000000+00:00</time></trkpt><trkpt lat="42.940742" lon="19.635447"><ele>1379.6</ele><time>2012-04-30T19:20:30.0000000+00:00</time></trkpt><trkpt lat="42.940865" lon="19.635378"><ele>1377.6</ele><time>2012-04-30T19:20:35.0000000+00:00</time></trkpt><trkpt lat="42.940922" lon="19.635351"><ele>1376.0</ele><time>2012-04-30T19:20:40.0000000+00:00</time></trkpt><trkpt lat="42.941032" lon="19.635294"><ele>1372.5</ele><time>2012-04-30T19:20:45.0000000+00:00</time></trkpt><trkpt lat="42.941143" lon="19.635241"><ele>1368.7</ele><time>2012-04-30T19:20:50.0000000+00:00</time></trkpt><trkpt lat="42.941269" lon="19.635187"><ele>1365.4</ele><time>2012-04-30T19:20:55.0000000+00:00</time></trkpt><trkpt lat="42.941395" lon="19.63512"><ele>1362.6</ele><time>2012-04-30T19:21:00.0000000+00:00</time></trkpt><trkpt lat="42.941494" lon="19.635046"><ele>1358.5</ele><time>2012-04-30T19:21:05.0000000+00:00</time></trkpt><trkpt lat="42.94157" lon="19.634954"><ele>1355.5</ele><time>2012-04-30T19:21:10.0000000+00:00</time></trkpt><trkpt lat="42.94162" lon="19.634876"><ele>1353.3</ele><time>2012-04-30T19:21:15.0000000+00:00</time></trkpt><trkpt lat="42.941677" lon="19.634815"><ele>1353.0</ele><time>2012-04-30T19:21:20.0000000+00:00</time></trkpt><trkpt lat="42.941719" lon="19.634735"><ele>1352.3</ele><time>2012-04-30T19:21:25.0000000+00:00</time></trkpt><trkpt lat="42.941772" lon="19.634747"><ele>1352.1</ele><time>2012-04-30T19:21:30.0000000+00:00</time></trkpt><trkpt lat="42.941772" lon="19.634727"><ele>1351.4</ele><time>2012-04-30T19:21:35.0000000+00:00</time></trkpt><trkpt lat="42.941772" lon="19.634729"><ele>1351.2</ele><time>2012-04-30T19:21:40.0000000+00:00</time></trkpt><trkpt lat="42.941772" lon="19.634735"><ele>1351.1</ele><time>2012-04-30T19:21:45.0000000+00:00</time></trkpt><trkpt lat="42.941811" lon="19.634672"><ele>1351.9</ele><time>2012-04-30T19:21:50.0000000+00:00</time></trkpt><trkpt lat="42.941906" lon="19.634571"><ele>1352.5</ele><time>2012-04-30T19:21:55.0000000+00:00</time></trkpt><trkpt lat="42.941971" lon="19.634466"><ele>1352.3</ele><time>2012-04-30T19:22:00.0000000+00:00</time></trkpt><trkpt lat="42.942055" lon="19.634384"><ele>1352.1</ele><time>2012-04-30T19:22:05.0000000+00:00</time></trkpt><trkpt lat="42.942093" lon="19.634367"><ele>1353.8</ele><time>2012-04-30T19:22:10.0000000+00:00</time></trkpt><trkpt lat="42.942123" lon="19.634308"><ele>1353.6</ele><time>2012-04-30T19:22:15.0000000+00:00</time></trkpt><trkpt lat="42.942158" lon="19.634253"><ele>1352.9</ele><time>2012-04-30T19:22:20.0000000+00:00</time></trkpt><trkpt lat="42.94223" lon="19.634184"><ele>1352.3</ele><time>2012-04-30T19:22:25.0000000+00:00</time></trkpt><trkpt lat="42.942326" lon="19.634068"><ele>1352.2</ele><time>2012-04-30T19:22:30.0000000+00:00</time></trkpt><trkpt lat="42.94244" lon="19.633942"><ele>1351.6</ele><time>2012-04-30T19:22:35.0000000+00:00</time></trkpt><trkpt lat="42.942509" lon="19.633833"><ele>1352.1</ele><time>2012-04-30T19:22:40.0000000+00:00</time></trkpt><trkpt lat="42.942562" lon="19.633688"><ele>1350.8</ele><time>2012-04-30T19:22:45.0000000+00:00</time></trkpt><trkpt lat="42.942665" lon="19.633558"><ele>1348.3</ele><time>2012-04-30T19:22:50.0000000+00:00</time></trkpt><trkpt lat="42.942749" lon="19.633417"><ele>1345.8</ele><time>2012-04-30T19:22:55.0000000+00:00</time></trkpt><trkpt lat="42.942837" lon="19.63332"><ele>1345.9</ele><time>2012-04-30T19:23:00.0000000+00:00</time></trkpt><trkpt lat="42.942902" lon="19.633196"><ele>1346.6</ele><time>2012-04-30T19:23:05.0000000+00:00</time></trkpt><trkpt lat="42.942986" lon="19.633059"><ele>1343.0</ele><time>2012-04-30T19:23:10.0000000+00:00</time></trkpt><trkpt lat="42.943104" lon="19.63291"><ele>1339.2</ele><time>2012-04-30T19:23:15.0000000+00:00</time></trkpt><trkpt lat="42.943214" lon="19.632719"><ele>1340.5</ele><time>2012-04-30T19:23:20.0000000+00:00</time></trkpt><trkpt lat="42.943321" lon="19.632542"><ele>1338.2</ele><time>2012-04-30T19:23:25.0000000+00:00</time></trkpt><trkpt lat="42.943405" lon="19.632401"><ele>1340.8</ele><time>2012-04-30T19:23:30.0000000+00:00</time></trkpt><trkpt lat="42.943512" lon="19.632271"><ele>1339.5</ele><time>2012-04-30T19:23:35.0000000+00:00</time></trkpt><trkpt lat="42.943623" lon="19.632154"><ele>1338.4</ele><time>2012-04-30T19:23:40.0000000+00:00</time></trkpt><trkpt lat="42.943691" lon="19.632078"><ele>1337.2</ele><time>2012-04-30T19:23:45.0000000+00:00</time></trkpt><trkpt lat="42.943775" lon="19.63201"><ele>1337.4</ele><time>2012-04-30T19:23:50.0000000+00:00</time></trkpt><trkpt lat="42.943813" lon="19.63199"><ele>1338.0</ele><time>2012-04-30T19:23:55.0000000+00:00</time></trkpt><trkpt lat="42.943886" lon="19.631931"><ele>1337.2</ele><time>2012-04-30T19:24:00.0000000+00:00</time></trkpt><trkpt lat="42.944004" lon="19.631823"><ele>1334.9</ele><time>2012-04-30T19:24:05.0000000+00:00</time></trkpt><trkpt lat="42.944118" lon="19.631697"><ele>1334.6</ele><time>2012-04-30T19:24:10.0000000+00:00</time></trkpt><trkpt lat="42.944237" lon="19.631586"><ele>1333.0</ele><time>2012-04-30T19:24:15.0000000+00:00</time></trkpt><trkpt lat="42.944347" lon="19.631443"><ele>1330.8</ele><time>2012-04-30T19:24:20.0000000+00:00</time></trkpt><trkpt lat="42.944427" lon="19.631317"><ele>1327.2</ele><time>2012-04-30T19:24:25.0000000+00:00</time></trkpt><trkpt lat="42.944492" lon="19.631222"><ele>1324.9</ele><time>2012-04-30T19:24:30.0000000+00:00</time></trkpt><trkpt lat="42.944553" lon="19.631136"><ele>1323.5</ele><time>2012-04-30T19:24:35.0000000+00:00</time></trkpt><trkpt lat="42.944633" lon="19.631058"><ele>1320.4</ele><time>2012-04-30T19:24:40.0000000+00:00</time></trkpt><trkpt lat="42.944668" lon="19.630997"><ele>1317.7</ele><time>2012-04-30T19:24:45.0000000+00:00</time></trkpt><trkpt lat="42.944706" lon="19.630913"><ele>1316.2</ele><time>2012-04-30T19:24:50.0000000+00:00</time></trkpt><trkpt lat="42.94471" lon="19.630789"><ele>1313.9</ele><time>2012-04-30T19:24:55.0000000+00:00</time></trkpt><trkpt lat="42.944687" lon="19.630598"><ele>1312.3</ele><time>2012-04-30T19:25:00.0000000+00:00</time></trkpt><trkpt lat="42.944645" lon="19.630398"><ele>1310.9</ele><time>2012-04-30T19:25:05.0000000+00:00</time></trkpt><trkpt lat="42.944649" lon="19.630239"><ele>1312.8</ele><time>2012-04-30T19:25:10.0000000+00:00</time></trkpt><trkpt lat="42.944641" lon="19.630072"><ele>1311.5</ele><time>2012-04-30T19:25:15.0000000+00:00</time></trkpt><trkpt lat="42.944618" lon="19.62986"><ele>1310.6</ele><time>2012-04-30T19:25:20.0000000+00:00</time></trkpt><trkpt lat="42.944588" lon="19.629772"><ele>1312.0</ele><time>2012-04-30T19:25:25.0000000+00:00</time></trkpt><trkpt lat="42.944588" lon="19.62977"><ele>1312.1</ele><time>2012-04-30T19:25:30.0000000+00:00</time></trkpt><trkpt lat="42.944592" lon="19.629772"><ele>1312.2</ele><time>2012-04-30T19:25:35.0000000+00:00</time></trkpt><trkpt lat="42.944595" lon="19.629774"><ele>1312.2</ele><time>2012-04-30T19:25:40.0000000+00:00</time></trkpt><trkpt lat="42.944595" lon="19.629776"><ele>1312.2</ele><time>2012-04-30T19:25:45.0000000+00:00</time></trkpt><trkpt lat="42.944592" lon="19.629776"><ele>1312.1</ele><time>2012-04-30T19:25:50.0000000+00:00</time></trkpt><trkpt lat="42.944592" lon="19.629776"><ele>1312.0</ele><time>2012-04-30T19:25:55.0000000+00:00</time></trkpt><trkpt lat="42.944592" lon="19.629776"><ele>1312.0</ele><time>2012-04-30T19:26:00.0000000+00:00</time></trkpt><trkpt lat="42.944592" lon="19.629776"><ele>1312.0</ele><time>2012-04-30T19:26:05.0000000+00:00</time></trkpt><trkpt lat="42.944592" lon="19.629776"><ele>1312.0</ele><time>2012-04-30T19:26:10.0000000+00:00</time></trkpt><trkpt lat="42.944592" lon="19.629776"><ele>1311.9</ele><time>2012-04-30T19:26:15.0000000+00:00</time></trkpt><trkpt lat="42.944592" lon="19.629776"><ele>1311.9</ele><time>2012-04-30T19:26:20.0000000+00:00</time></trkpt><trkpt lat="42.944592" lon="19.629778"><ele>1311.9</ele><time>2012-04-30T19:26:25.0000000+00:00</time></trkpt><trkpt lat="42.944592" lon="19.629778"><ele>1311.9</ele><time>2012-04-30T19:26:30.0000000+00:00</time></trkpt><trkpt lat="42.944592" lon="19.629778"><ele>1311.9</ele><time>2012-04-30T19:26:35.0000000+00:00</time></trkpt><trkpt lat="42.944592" lon="19.629778"><ele>1311.9</ele><time>2012-04-30T19:26:40.0000000+00:00</time></trkpt><trkpt lat="42.944592" lon="19.629778"><ele>1311.9</ele><time>2012-04-30T19:26:45.0000000+00:00</time></trkpt><trkpt lat="42.944592" lon="19.629778"><ele>1311.9</ele><time>2012-04-30T19:26:50.0000000+00:00</time></trkpt><trkpt lat="42.944592" lon="19.629778"><ele>1312.0</ele><time>2012-04-30T19:26:55.0000000+00:00</time></trkpt><trkpt lat="42.944592" lon="19.62978"><ele>1312.0</ele><time>2012-04-30T19:27:00.0000000+00:00</time></trkpt><trkpt lat="42.944588" lon="19.629745"><ele>1311.9</ele><time>2012-04-30T19:27:05.0000000+00:00</time></trkpt><trkpt lat="42.94455" lon="19.629539"><ele>1309.7</ele><time>2012-04-30T19:27:10.0000000+00:00</time></trkpt><trkpt lat="42.944538" lon="19.629335"><ele>1307.5</ele><time>2012-04-30T19:27:15.0000000+00:00</time></trkpt><trkpt lat="42.944519" lon="19.629076"><ele>1304.9</ele><time>2012-04-30T19:27:20.0000000+00:00</time></trkpt><trkpt lat="42.944557" lon="19.628826"><ele>1299.7</ele><time>2012-04-30T19:27:25.0000000+00:00</time></trkpt><trkpt lat="42.944668" lon="19.628595"><ele>1296.6</ele><time>2012-04-30T19:27:30.0000000+00:00</time></trkpt><trkpt lat="42.944767" lon="19.628428"><ele>1297.3</ele><time>2012-04-30T19:27:35.0000000+00:00</time></trkpt><trkpt lat="42.944851" lon="19.628235"><ele>1296.5</ele><time>2012-04-30T19:27:40.0000000+00:00</time></trkpt><trkpt lat="42.944782" lon="19.628063"><ele>1295.9</ele><time>2012-04-30T19:27:45.0000000+00:00</time></trkpt><trkpt lat="42.944687" lon="19.628071"><ele>1294.4</ele><time>2012-04-30T19:27:50.0000000+00:00</time></trkpt><trkpt lat="42.944675" lon="19.628056"><ele>1295.2</ele><time>2012-04-30T19:27:55.0000000+00:00</time></trkpt><trkpt lat="42.944675" lon="19.628057"><ele>1295.1</ele><time>2012-04-30T19:28:00.0000000+00:00</time></trkpt><trkpt lat="42.944675" lon="19.628057"><ele>1295.0</ele><time>2012-04-30T19:28:05.0000000+00:00</time></trkpt><trkpt lat="42.944675" lon="19.628057"><ele>1295.0</ele><time>2012-04-30T19:28:10.0000000+00:00</time></trkpt><trkpt lat="42.944675" lon="19.628057"><ele>1295.0</ele><time>2012-04-30T19:28:15.0000000+00:00</time></trkpt><trkpt lat="42.944675" lon="19.628059"><ele>1294.8</ele><time>2012-04-30T19:28:20.0000000+00:00</time></trkpt><trkpt lat="42.944656" lon="19.628054"><ele>1294.7</ele><time>2012-04-30T19:28:25.0000000+00:00</time></trkpt><trkpt lat="42.944565" lon="19.628059"><ele>1295.2</ele><time>2012-04-30T19:28:30.0000000+00:00</time></trkpt><trkpt lat="42.944466" lon="19.628136"><ele>1293.8</ele><time>2012-04-30T19:28:35.0000000+00:00</time></trkpt><trkpt lat="42.944332" lon="19.628256"><ele>1290.8</ele><time>2012-04-30T19:28:40.0000000+00:00</time></trkpt><trkpt lat="42.944202" lon="19.628416"><ele>1287.6</ele><time>2012-04-30T19:28:45.0000000+00:00</time></trkpt><trkpt lat="42.944061" lon="19.62859"><ele>1284.9</ele><time>2012-04-30T19:28:50.0000000+00:00</time></trkpt><trkpt lat="42.943958" lon="19.62875"><ele>1282.0</ele><time>2012-04-30T19:28:55.0000000+00:00</time></trkpt><trkpt lat="42.943878" lon="19.62887"><ele>1279.9</ele><time>2012-04-30T19:29:00.0000000+00:00</time></trkpt><trkpt lat="42.943794" lon="19.629049"><ele>1277.5</ele><time>2012-04-30T19:29:05.0000000+00:00</time></trkpt><trkpt lat="42.943703" lon="19.629293"><ele>1275.9</ele><time>2012-04-30T19:29:10.0000000+00:00</time></trkpt><trkpt lat="42.943626" lon="19.62953"><ele>1274.0</ele><time>2012-04-30T19:29:15.0000000+00:00</time></trkpt><trkpt lat="42.943508" lon="19.629734"><ele>1271.8</ele><time>2012-04-30T19:29:20.0000000+00:00</time></trkpt><trkpt lat="42.943348" lon="19.629911"><ele>1270.5</ele><time>2012-04-30T19:29:25.0000000+00:00</time></trkpt><trkpt lat="42.94318" lon="19.630056"><ele>1268.8</ele><time>2012-04-30T19:29:30.0000000+00:00</time></trkpt><trkpt lat="42.943161" lon="19.630114"><ele>1269.2</ele><time>2012-04-30T19:29:35.0000000+00:00</time></trkpt><trkpt lat="42.943157" lon="19.630129"><ele>1268.8</ele><time>2012-04-30T19:29:40.0000000+00:00</time></trkpt><trkpt lat="42.943161" lon="19.630131"><ele>1268.8</ele><time>2012-04-30T19:29:45.0000000+00:00</time></trkpt><trkpt lat="42.943161" lon="19.630133"><ele>1268.7</ele><time>2012-04-30T19:29:50.0000000+00:00</time></trkpt><trkpt lat="42.943161" lon="19.630133"><ele>1268.8</ele><time>2012-04-30T19:29:55.0000000+00:00</time></trkpt><trkpt lat="42.943161" lon="19.630133"><ele>1268.8</ele><time>2012-04-30T19:30:00.0000000+00:00</time></trkpt><trkpt lat="42.943157" lon="19.630133"><ele>1268.8</ele><time>2012-04-30T19:30:05.0000000+00:00</time></trkpt><trkpt lat="42.943157" lon="19.630133"><ele>1268.8</ele><time>2012-04-30T19:30:10.0000000+00:00</time></trkpt><trkpt lat="42.943157" lon="19.630133"><ele>1268.8</ele><time>2012-04-30T19:30:15.0000000+00:00</time></trkpt><trkpt lat="42.943157" lon="19.630133"><ele>1268.8</ele><time>2012-04-30T19:30:20.0000000+00:00</time></trkpt><trkpt lat="42.943157" lon="19.630135"><ele>1268.9</ele><time>2012-04-30T19:30:25.0000000+00:00</time></trkpt><trkpt lat="42.943157" lon="19.630135"><ele>1268.9</ele><time>2012-04-30T19:30:30.0000000+00:00</time></trkpt><trkpt lat="42.943157" lon="19.630135"><ele>1268.9</ele><time>2012-04-30T19:30:35.0000000+00:00</time></trkpt><trkpt lat="42.943157" lon="19.630135"><ele>1269.0</ele><time>2012-04-30T19:30:40.0000000+00:00</time></trkpt><trkpt lat="42.943157" lon="19.630135"><ele>1268.9</ele><time>2012-04-30T19:30:45.0000000+00:00</time></trkpt><trkpt lat="42.943123" lon="19.630194"><ele>1269.6</ele><time>2012-04-30T19:30:50.0000000+00:00</time></trkpt><trkpt lat="42.942982" lon="19.630289"><ele>1271.6</ele><time>2012-04-30T19:30:55.0000000+00:00</time></trkpt><trkpt lat="42.942822" lon="19.630337"><ele>1272.9</ele><time>2012-04-30T19:31:00.0000000+00:00</time></trkpt><trkpt lat="42.942631" lon="19.630335"><ele>1273.5</ele><time>2012-04-30T19:31:05.0000000+00:00</time></trkpt><trkpt lat="42.942455" lon="19.630354"><ele>1272.4</ele><time>2012-04-30T19:31:10.0000000+00:00</time></trkpt><trkpt lat="42.942249" lon="19.630383"><ele>1271.0</ele><time>2012-04-30T19:31:15.0000000+00:00</time></trkpt><trkpt lat="42.942142" lon="19.630411"><ele>1265.8</ele><time>2012-04-30T19:31:20.0000000+00:00</time></trkpt><trkpt lat="42.942181" lon="19.630312"><ele>1262.3</ele><time>2012-04-30T19:31:25.0000000+00:00</time></trkpt><trkpt lat="42.94223" lon="19.630106"><ele>1260.5</ele><time>2012-04-30T19:31:30.0000000+00:00</time></trkpt><trkpt lat="42.942284" lon="19.629948"><ele>1259.4</ele><time>2012-04-30T19:31:35.0000000+00:00</time></trkpt><trkpt lat="42.942337" lon="19.62978"><ele>1255.2</ele><time>2012-04-30T19:31:40.0000000+00:00</time></trkpt><trkpt lat="42.942482" lon="19.62961"><ele>1251.8</ele><time>2012-04-30T19:31:45.0000000+00:00</time></trkpt><trkpt lat="42.942654" lon="19.629442"><ele>1249.6</ele><time>2012-04-30T19:31:50.0000000+00:00</time></trkpt><trkpt lat="42.94276" lon="19.629139"><ele>1248.1</ele><time>2012-04-30T19:31:55.0000000+00:00</time></trkpt><trkpt lat="42.942829" lon="19.628893"><ele>1247.0</ele><time>2012-04-30T19:32:00.0000000+00:00</time></trkpt><trkpt lat="42.942989" lon="19.628696"><ele>1245.0</ele><time>2012-04-30T19:32:05.0000000+00:00</time></trkpt><trkpt lat="42.94313" lon="19.628538"><ele>1242.8</ele><time>2012-04-30T19:32:10.0000000+00:00</time></trkpt><trkpt lat="42.94326" lon="19.628325"><ele>1240.2</ele><time>2012-04-30T19:32:15.0000000+00:00</time></trkpt><trkpt lat="42.943363" lon="19.628113"><ele>1237.8</ele><time>2012-04-30T19:32:20.0000000+00:00</time></trkpt><trkpt lat="42.943447" lon="19.627947"><ele>1234.8</ele><time>2012-04-30T19:32:25.0000000+00:00</time></trkpt><trkpt lat="42.943409" lon="19.627613"><ele>1232.4</ele><time>2012-04-30T19:32:30.0000000+00:00</time></trkpt><trkpt lat="42.943451" lon="19.627333"><ele>1230.7</ele><time>2012-04-30T19:32:35.0000000+00:00</time></trkpt><trkpt lat="42.9436" lon="19.627159"><ele>1227.7</ele><time>2012-04-30T19:32:40.0000000+00:00</time></trkpt><trkpt lat="42.943741" lon="19.626959"><ele>1226.5</ele><time>2012-04-30T19:32:45.0000000+00:00</time></trkpt><trkpt lat="42.943855" lon="19.626717"><ele>1225.9</ele><time>2012-04-30T19:32:50.0000000+00:00</time></trkpt><trkpt lat="42.943958" lon="19.626474"><ele>1224.3</ele><time>2012-04-30T19:32:55.0000000+00:00</time></trkpt><trkpt lat="42.944057" lon="19.626236"><ele>1222.5</ele><time>2012-04-30T19:33:00.0000000+00:00</time></trkpt><trkpt lat="42.944122" lon="19.62602"><ele>1220.6</ele><time>2012-04-30T19:33:05.0000000+00:00</time></trkpt><trkpt lat="42.944218" lon="19.625799"><ele>1219.3</ele><time>2012-04-30T19:33:10.0000000+00:00</time></trkpt><trkpt lat="42.944324" lon="19.625576"><ele>1216.5</ele><time>2012-04-30T19:33:15.0000000+00:00</time></trkpt><trkpt lat="42.944408" lon="19.625385"><ele>1214.3</ele><time>2012-04-30T19:33:20.0000000+00:00</time></trkpt><trkpt lat="42.944527" lon="19.625237"><ele>1212.3</ele><time>2012-04-30T19:33:25.0000000+00:00</time></trkpt><trkpt lat="42.944633" lon="19.625126"><ele>1211.6</ele><time>2012-04-30T19:33:30.0000000+00:00</time></trkpt><trkpt lat="42.94474" lon="19.625074"><ele>1209.5</ele><time>2012-04-30T19:33:35.0000000+00:00</time></trkpt><trkpt lat="42.944881" lon="19.625029"><ele>1207.4</ele><time>2012-04-30T19:33:40.0000000+00:00</time></trkpt><trkpt lat="42.944958" lon="19.625019"><ele>1206.4</ele><time>2012-04-30T19:33:45.0000000+00:00</time></trkpt><trkpt lat="42.94508" lon="19.625071"><ele>1205.5</ele><time>2012-04-30T19:33:50.0000000+00:00</time></trkpt><trkpt lat="42.945206" lon="19.625099"><ele>1204.9</ele><time>2012-04-30T19:33:55.0000000+00:00</time></trkpt><trkpt lat="42.94532" lon="19.625038"><ele>1203.8</ele><time>2012-04-30T19:34:00.0000000+00:00</time></trkpt><trkpt lat="42.945606" lon="19.624897"><ele>1198.2</ele><time>2012-04-30T19:34:05.0000000+00:00</time></trkpt><trkpt lat="42.945835" lon="19.624662"><ele>1194.0</ele><time>2012-04-30T19:34:10.0000000+00:00</time></trkpt><trkpt lat="42.945896" lon="19.624628"><ele>1192.0</ele><time>2012-04-30T19:34:15.0000000+00:00</time></trkpt><trkpt lat="42.945889" lon="19.624628"><ele>1191.6</ele><time>2012-04-30T19:34:20.0000000+00:00</time></trkpt><trkpt lat="42.945896" lon="19.624632"><ele>1191.4</ele><time>2012-04-30T19:34:25.0000000+00:00</time></trkpt><trkpt lat="42.945923" lon="19.624638"><ele>1191.4</ele><time>2012-04-30T19:34:30.0000000+00:00</time></trkpt><trkpt lat="42.945953" lon="19.624655"><ele>1191.4</ele><time>2012-04-30T19:34:35.0000000+00:00</time></trkpt><trkpt lat="42.945961" lon="19.62466"><ele>1191.5</ele><time>2012-04-30T19:34:40.0000000+00:00</time></trkpt><trkpt lat="42.945972" lon="19.624668"><ele>1191.5</ele><time>2012-04-30T19:34:45.0000000+00:00</time></trkpt><trkpt lat="42.945984" lon="19.624674"><ele>1191.5</ele><time>2012-04-30T19:34:50.0000000+00:00</time></trkpt><trkpt lat="42.945995" lon="19.624681"><ele>1191.5</ele><time>2012-04-30T19:34:55.0000000+00:00</time></trkpt><trkpt lat="42.946018" lon="19.624695"><ele>1191.5</ele><time>2012-04-30T19:35:00.0000000+00:00</time></trkpt><trkpt lat="42.946026" lon="19.624699"><ele>1191.4</ele><time>2012-04-30T19:35:05.0000000+00:00</time></trkpt><trkpt lat="42.946033" lon="19.624702"><ele>1191.3</ele><time>2012-04-30T19:35:10.0000000+00:00</time></trkpt><trkpt lat="42.946041" lon="19.624704"><ele>1191.3</ele><time>2012-04-30T19:35:15.0000000+00:00</time></trkpt><trkpt lat="42.946091" lon="19.624722"><ele>1190.0</ele><time>2012-04-30T19:35:20.0000000+00:00</time></trkpt><trkpt lat="42.946133" lon="19.624758"><ele>1188.2</ele><time>2012-04-30T19:35:25.0000000+00:00</time></trkpt><trkpt lat="42.946178" lon="19.624846"><ele>1186.1</ele><time>2012-04-30T19:35:30.0000000+00:00</time></trkpt><trkpt lat="42.946289" lon="19.624863"><ele>1186.8</ele><time>2012-04-30T19:35:35.0000000+00:00</time></trkpt><trkpt lat="42.946369" lon="19.624868"><ele>1189.3</ele><time>2012-04-30T19:35:40.0000000+00:00</time></trkpt><trkpt lat="42.946453" lon="19.624884"><ele>1190.8</ele><time>2012-04-30T19:35:45.0000000+00:00</time></trkpt><trkpt lat="42.946564" lon="19.624889"><ele>1190.9</ele><time>2012-04-30T19:35:50.0000000+00:00</time></trkpt><trkpt lat="42.946743" lon="19.624973"><ele>1192.4</ele><time>2012-04-30T19:35:55.0000000+00:00</time></trkpt><trkpt lat="42.946812" lon="19.625071"><ele>1191.7</ele><time>2012-04-30T19:36:00.0000000+00:00</time></trkpt><trkpt lat="42.946873" lon="19.625116"><ele>1194.6</ele><time>2012-04-30T19:36:05.0000000+00:00</time></trkpt><trkpt lat="42.946949" lon="19.625076"><ele>1195.8</ele><time>2012-04-30T19:36:10.0000000+00:00</time></trkpt><trkpt lat="42.947041" lon="19.625031"><ele>1195.3</ele><time>2012-04-30T19:36:15.0000000+00:00</time></trkpt><trkpt lat="42.947144" lon="19.624966"><ele>1195.1</ele><time>2012-04-30T19:36:20.0000000+00:00</time></trkpt><trkpt lat="42.947308" lon="19.624952"><ele>1194.5</ele><time>2012-04-30T19:36:25.0000000+00:00</time></trkpt><trkpt lat="42.947498" lon="19.624912"><ele>1197.0</ele><time>2012-04-30T19:36:30.0000000+00:00</time></trkpt><trkpt lat="42.947632" lon="19.624775"><ele>1196.5</ele><time>2012-04-30T19:36:35.0000000+00:00</time></trkpt><trkpt lat="42.947735" lon="19.624516"><ele>1195.5</ele><time>2012-04-30T19:36:40.0000000+00:00</time></trkpt><trkpt lat="42.947826" lon="19.624252"><ele>1196.3</ele><time>2012-04-30T19:36:45.0000000+00:00</time></trkpt><trkpt lat="42.947861" lon="19.624069"><ele>1197.3</ele><time>2012-04-30T19:36:50.0000000+00:00</time></trkpt><trkpt lat="42.94796" lon="19.623875"><ele>1197.4</ele><time>2012-04-30T19:36:55.0000000+00:00</time></trkpt><trkpt lat="42.948025" lon="19.623671"><ele>1197.6</ele><time>2012-04-30T19:37:00.0000000+00:00</time></trkpt><trkpt lat="42.94809" lon="19.623457"><ele>1195.5</ele><time>2012-04-30T19:37:05.0000000+00:00</time></trkpt><trkpt lat="42.948242" lon="19.623285"><ele>1194.5</ele><time>2012-04-30T19:37:10.0000000+00:00</time></trkpt><trkpt lat="42.94841" lon="19.623142"><ele>1192.6</ele><time>2012-04-30T19:37:15.0000000+00:00</time></trkpt><trkpt lat="42.948528" lon="19.622978"><ele>1190.4</ele><time>2012-04-30T19:37:20.0000000+00:00</time></trkpt><trkpt lat="42.948662" lon="19.622755"><ele>1188.2</ele><time>2012-04-30T19:37:25.0000000+00:00</time></trkpt><trkpt lat="42.94875" lon="19.622417"><ele>1185.6</ele><time>2012-04-30T19:37:30.0000000+00:00</time></trkpt><trkpt lat="42.948784" lon="19.621983"><ele>1182.1</ele><time>2012-04-30T19:37:35.0000000+00:00</time></trkpt><trkpt lat="42.948837" lon="19.621696"><ele>1179.3</ele><time>2012-04-30T19:37:40.0000000+00:00</time></trkpt><trkpt lat="42.948841" lon="19.621435"><ele>1176.5</ele><time>2012-04-30T19:37:45.0000000+00:00</time></trkpt><trkpt lat="42.948856" lon="19.621172"><ele>1173.3</ele><time>2012-04-30T19:37:50.0000000+00:00</time></trkpt><trkpt lat="42.948868" lon="19.620909"><ele>1170.7</ele><time>2012-04-30T19:37:55.0000000+00:00</time></trkpt><trkpt lat="42.948875" lon="19.620783"><ele>1168.5</ele><time>2012-04-30T19:38:00.0000000+00:00</time></trkpt><trkpt lat="42.948879" lon="19.620783"><ele>1168.3</ele><time>2012-04-30T19:38:05.0000000+00:00</time></trkpt><trkpt lat="42.948887" lon="19.620789"><ele>1168.2</ele><time>2012-04-30T19:38:10.0000000+00:00</time></trkpt><trkpt lat="42.948822" lon="19.620672"><ele>1168.1</ele><time>2012-04-30T19:38:15.0000000+00:00</time></trkpt><trkpt lat="42.94878" lon="19.620451"><ele>1167.5</ele><time>2012-04-30T19:38:20.0000000+00:00</time></trkpt><trkpt lat="42.948788" lon="19.620247"><ele>1166.1</ele><time>2012-04-30T19:38:25.0000000+00:00</time></trkpt><trkpt lat="42.948715" lon="19.620104"><ele>1164.3</ele><time>2012-04-30T19:38:30.0000000+00:00</time></trkpt><trkpt lat="42.948547" lon="19.619978"><ele>1162.4</ele><time>2012-04-30T19:38:35.0000000+00:00</time></trkpt><trkpt lat="42.948387" lon="19.619823"><ele>1160.5</ele><time>2012-04-30T19:38:40.0000000+00:00</time></trkpt><trkpt lat="42.948257" lon="19.619621"><ele>1158.1</ele><time>2012-04-30T19:38:45.0000000+00:00</time></trkpt><trkpt lat="42.948116" lon="19.619459"><ele>1155.9</ele><time>2012-04-30T19:38:50.0000000+00:00</time></trkpt><trkpt lat="42.947971" lon="19.619326"><ele>1152.8</ele><time>2012-04-30T19:38:55.0000000+00:00</time></trkpt><trkpt lat="42.947834" lon="19.619207"><ele>1150.4</ele><time>2012-04-30T19:39:00.0000000+00:00</time></trkpt><trkpt lat="42.947693" lon="19.619175"><ele>1147.8</ele><time>2012-04-30T19:39:05.0000000+00:00</time></trkpt><trkpt lat="42.947582" lon="19.619116"><ele>1144.5</ele><time>2012-04-30T19:39:10.0000000+00:00</time></trkpt><trkpt lat="42.947586" lon="19.619062"><ele>1144.6</ele><time>2012-04-30T19:39:15.0000000+00:00</time></trkpt><trkpt lat="42.94759" lon="19.619068"><ele>1144.7</ele><time>2012-04-30T19:39:20.0000000+00:00</time></trkpt><trkpt lat="42.947586" lon="19.619068"><ele>1144.6</ele><time>2012-04-30T19:39:25.0000000+00:00</time></trkpt><trkpt lat="42.947586" lon="19.61907"><ele>1144.7</ele><time>2012-04-30T19:39:30.0000000+00:00</time></trkpt><trkpt lat="42.947582" lon="19.619068"><ele>1144.6</ele><time>2012-04-30T19:39:35.0000000+00:00</time></trkpt><trkpt lat="42.947582" lon="19.619068"><ele>1144.6</ele><time>2012-04-30T19:39:40.0000000+00:00</time></trkpt><trkpt lat="42.947582" lon="19.619066"><ele>1144.7</ele><time>2012-04-30T19:39:45.0000000+00:00</time></trkpt><trkpt lat="42.947586" lon="19.619066"><ele>1144.7</ele><time>2012-04-30T19:39:50.0000000+00:00</time></trkpt><trkpt lat="42.947586" lon="19.619066"><ele>1144.7</ele><time>2012-04-30T19:39:55.0000000+00:00</time></trkpt><trkpt lat="42.947582" lon="19.619066"><ele>1144.7</ele><time>2012-04-30T19:40:00.0000000+00:00</time></trkpt><trkpt lat="42.947582" lon="19.619066"><ele>1144.7</ele><time>2012-04-30T19:40:05.0000000+00:00</time></trkpt><trkpt lat="42.947586" lon="19.619068"><ele>1144.7</ele><time>2012-04-30T19:40:10.0000000+00:00</time></trkpt><trkpt lat="42.947586" lon="19.619068"><ele>1144.7</ele><time>2012-04-30T19:40:15.0000000+00:00</time></trkpt><trkpt lat="42.947586" lon="19.619068"><ele>1144.7</ele><time>2012-04-30T19:40:20.0000000+00:00</time></trkpt><trkpt lat="42.947586" lon="19.619068"><ele>1144.8</ele><time>2012-04-30T19:40:25.0000000+00:00</time></trkpt><trkpt lat="42.947586" lon="19.619062"><ele>1144.8</ele><time>2012-04-30T19:40:30.0000000+00:00</time></trkpt><trkpt lat="42.947647" lon="19.618975"><ele>1143.6</ele><time>2012-04-30T19:40:35.0000000+00:00</time></trkpt><trkpt lat="42.947781" lon="19.618923"><ele>1141.9</ele><time>2012-04-30T19:40:40.0000000+00:00</time></trkpt><trkpt lat="42.947868" lon="19.618963"><ele>1141.4</ele><time>2012-04-30T19:40:45.0000000+00:00</time></trkpt><trkpt lat="42.947979" lon="19.618895"><ele>1138.4</ele><time>2012-04-30T19:40:50.0000000+00:00</time></trkpt><trkpt lat="42.947971" lon="19.618784"><ele>1136.2</ele><time>2012-04-30T19:40:55.0000000+00:00</time></trkpt><trkpt lat="42.947884" lon="19.618643"><ele>1134.3</ele><time>2012-04-30T19:41:00.0000000+00:00</time></trkpt><trkpt lat="42.947754" lon="19.618507"><ele>1131.6</ele><time>2012-04-30T19:41:05.0000000+00:00</time></trkpt><trkpt lat="42.947628" lon="19.618418"><ele>1128.6</ele><time>2012-04-30T19:41:10.0000000+00:00</time></trkpt><trkpt lat="42.947514" lon="19.618317"><ele>1128.1</ele><time>2012-04-30T19:41:15.0000000+00:00</time></trkpt><trkpt lat="42.947361" lon="19.618231"><ele>1126.1</ele><time>2012-04-30T19:41:20.0000000+00:00</time></trkpt><trkpt lat="42.947216" lon="19.618156"><ele>1124.2</ele><time>2012-04-30T19:41:25.0000000+00:00</time></trkpt><trkpt lat="42.947132" lon="19.618032"><ele>1123.4</ele><time>2012-04-30T19:41:30.0000000+00:00</time></trkpt><trkpt lat="42.947186" lon="19.617918"><ele>1121.5</ele><time>2012-04-30T19:41:35.0000000+00:00</time></trkpt><trkpt lat="42.947289" lon="19.617846"><ele>1119.9</ele><time>2012-04-30T19:41:40.0000000+00:00</time></trkpt><trkpt lat="42.947308" lon="19.617678"><ele>1116.7</ele><time>2012-04-30T19:41:45.0000000+00:00</time></trkpt><trkpt lat="42.94725" lon="19.617493"><ele>1113.6</ele><time>2012-04-30T19:41:50.0000000+00:00</time></trkpt><trkpt lat="42.947243" lon="19.617285"><ele>1113.2</ele><time>2012-04-30T19:41:55.0000000+00:00</time></trkpt><trkpt lat="42.947243" lon="19.617096"><ele>1111.7</ele><time>2012-04-30T19:42:00.0000000+00:00</time></trkpt><trkpt lat="42.947227" lon="19.616898"><ele>1110.8</ele><time>2012-04-30T19:42:05.0000000+00:00</time></trkpt><trkpt lat="42.94717" lon="19.616728"><ele>1109.5</ele><time>2012-04-30T19:42:10.0000000+00:00</time></trkpt><trkpt lat="42.947094" lon="19.616552"><ele>1107.4</ele><time>2012-04-30T19:42:15.0000000+00:00</time></trkpt><trkpt lat="42.94701" lon="19.616385"><ele>1104.7</ele><time>2012-04-30T19:42:20.0000000+00:00</time></trkpt><trkpt lat="42.946953" lon="19.616196"><ele>1102.4</ele><time>2012-04-30T19:42:25.0000000+00:00</time></trkpt><trkpt lat="42.946899" lon="19.616016"><ele>1100.3</ele><time>2012-04-30T19:42:30.0000000+00:00</time></trkpt><trkpt lat="42.946877" lon="19.615805"><ele>1097.1</ele><time>2012-04-30T19:42:35.0000000+00:00</time></trkpt><trkpt lat="42.946884" lon="19.615602"><ele>1095.3</ele><time>2012-04-30T19:42:40.0000000+00:00</time></trkpt><trkpt lat="42.946918" lon="19.615417"><ele>1093.8</ele><time>2012-04-30T19:42:45.0000000+00:00</time></trkpt><trkpt lat="42.946873" lon="19.615152"><ele>1093.4</ele><time>2012-04-30T19:42:50.0000000+00:00</time></trkpt><trkpt lat="42.9468" lon="19.614866"><ele>1093.4</ele><time>2012-04-30T19:42:55.0000000+00:00</time></trkpt><trkpt lat="42.946701" lon="19.614616"><ele>1093.2</ele><time>2012-04-30T19:43:00.0000000+00:00</time></trkpt><trkpt lat="42.94664" lon="19.614407"><ele>1093.0</ele><time>2012-04-30T19:43:05.0000000+00:00</time></trkpt><trkpt lat="42.94656" lon="19.614193"><ele>1092.2</ele><time>2012-04-30T19:43:10.0000000+00:00</time></trkpt><trkpt lat="42.94651" lon="19.613943"><ele>1091.0</ele><time>2012-04-30T19:43:15.0000000+00:00</time></trkpt><trkpt lat="42.946522" lon="19.613689"><ele>1092.3</ele><time>2012-04-30T19:43:20.0000000+00:00</time></trkpt><trkpt lat="42.946537" lon="19.613531"><ele>1094.4</ele><time>2012-04-30T19:43:25.0000000+00:00</time></trkpt><trkpt lat="42.946548" lon="19.613396"><ele>1096.5</ele><time>2012-04-30T19:43:30.0000000+00:00</time></trkpt><trkpt lat="42.94656" lon="19.6133"><ele>1098.5</ele><time>2012-04-30T19:43:35.0000000+00:00</time></trkpt><trkpt lat="42.946579" lon="19.613232"><ele>1100.0</ele><time>2012-04-30T19:43:40.0000000+00:00</time></trkpt><trkpt lat="42.946602" lon="19.613167"><ele>1100.2</ele><time>2012-04-30T19:43:45.0000000+00:00</time></trkpt><trkpt lat="42.946602" lon="19.613115"><ele>1100.6</ele><time>2012-04-30T19:43:50.0000000+00:00</time></trkpt><trkpt lat="42.946625" lon="19.613037"><ele>1101.9</ele><time>2012-04-30T19:43:55.0000000+00:00</time></trkpt><trkpt lat="42.946671" lon="19.612953"><ele>1102.9</ele><time>2012-04-30T19:44:00.0000000+00:00</time></trkpt><trkpt lat="42.946716" lon="19.61286"><ele>1102.6</ele><time>2012-04-30T19:44:05.0000000+00:00</time></trkpt><trkpt lat="42.946766" lon="19.612791"><ele>1104.2</ele><time>2012-04-30T19:44:10.0000000+00:00</time></trkpt><trkpt lat="42.946827" lon="19.61272"><ele>1105.0</ele><time>2012-04-30T19:44:15.0000000+00:00</time></trkpt><trkpt lat="42.946899" lon="19.612637"><ele>1105.9</ele><time>2012-04-30T19:44:20.0000000+00:00</time></trkpt><trkpt lat="42.946976" lon="19.61256"><ele>1106.5</ele><time>2012-04-30T19:44:25.0000000+00:00</time></trkpt><trkpt lat="42.947052" lon="19.612488"><ele>1107.7</ele><time>2012-04-30T19:44:30.0000000+00:00</time></trkpt><trkpt lat="42.947113" lon="19.61241"><ele>1107.5</ele><time>2012-04-30T19:44:35.0000000+00:00</time></trkpt><trkpt lat="42.947109" lon="19.612392"><ele>1106.5</ele><time>2012-04-30T19:44:40.0000000+00:00</time></trkpt><trkpt lat="42.947109" lon="19.612391"><ele>1106.5</ele><time>2012-04-30T19:44:45.0000000+00:00</time></trkpt><trkpt lat="42.947113" lon="19.612389"><ele>1106.3</ele><time>2012-04-30T19:44:50.0000000+00:00</time></trkpt><trkpt lat="42.947155" lon="19.612349"><ele>1106.1</ele><time>2012-04-30T19:44:55.0000000+00:00</time></trkpt><trkpt lat="42.947231" lon="19.61224"><ele>1105.9</ele><time>2012-04-30T19:45:00.0000000+00:00</time></trkpt><trkpt lat="42.947315" lon="19.612104"><ele>1105.3</ele><time>2012-04-30T19:45:05.0000000+00:00</time></trkpt><trkpt lat="42.947414" lon="19.611996"><ele>1105.1</ele><time>2012-04-30T19:45:10.0000000+00:00</time></trkpt><trkpt lat="42.947529" lon="19.611887"><ele>1104.7</ele><time>2012-04-30T19:45:15.0000000+00:00</time></trkpt><trkpt lat="42.947639" lon="19.611755"><ele>1103.9</ele><time>2012-04-30T19:45:20.0000000+00:00</time></trkpt><trkpt lat="42.947746" lon="19.61161"><ele>1102.8</ele><time>2012-04-30T19:45:25.0000000+00:00</time></trkpt><trkpt lat="42.94783" lon="19.611439"><ele>1102.1</ele><time>2012-04-30T19:45:30.0000000+00:00</time></trkpt><trkpt lat="42.947937" lon="19.611246"><ele>1101.6</ele><time>2012-04-30T19:45:35.0000000+00:00</time></trkpt><trkpt lat="42.948097" lon="19.61117"><ele>1100.6</ele><time>2012-04-30T19:45:40.0000000+00:00</time></trkpt><trkpt lat="42.948277" lon="19.61108"><ele>1100.3</ele><time>2012-04-30T19:45:45.0000000+00:00</time></trkpt><trkpt lat="42.948402" lon="19.610937"><ele>1101.5</ele><time>2012-04-30T19:45:50.0000000+00:00</time></trkpt><trkpt lat="42.948505" lon="19.610826"><ele>1102.7</ele><time>2012-04-30T19:45:55.0000000+00:00</time></trkpt><trkpt lat="42.948601" lon="19.610722"><ele>1103.8</ele><time>2012-04-30T19:46:00.0000000+00:00</time></trkpt><trkpt lat="42.948681" lon="19.610615"><ele>1105.0</ele><time>2012-04-30T19:46:05.0000000+00:00</time></trkpt><trkpt lat="42.948727" lon="19.610474"><ele>1105.4</ele><time>2012-04-30T19:46:10.0000000+00:00</time></trkpt><trkpt lat="42.948727" lon="19.610329"><ele>1107.2</ele><time>2012-04-30T19:46:15.0000000+00:00</time></trkpt><trkpt lat="42.948673" lon="19.610195"><ele>1108.8</ele><time>2012-04-30T19:46:20.0000000+00:00</time></trkpt><trkpt lat="42.948593" lon="19.610052"><ele>1110.0</ele><time>2012-04-30T19:46:25.0000000+00:00</time></trkpt><trkpt lat="42.948601" lon="19.609875"><ele>1111.5</ele><time>2012-04-30T19:46:30.0000000+00:00</time></trkpt><trkpt lat="42.948631" lon="19.609663"><ele>1112.6</ele><time>2012-04-30T19:46:35.0000000+00:00</time></trkpt><trkpt lat="42.948689" lon="19.609442"><ele>1115.9</ele><time>2012-04-30T19:46:40.0000000+00:00</time></trkpt><trkpt lat="42.948685" lon="19.609228"><ele>1119.2</ele><time>2012-04-30T19:46:45.0000000+00:00</time></trkpt><trkpt lat="42.948685" lon="19.609018"><ele>1122.2</ele><time>2012-04-30T19:46:50.0000000+00:00</time></trkpt><trkpt lat="42.948711" lon="19.608818"><ele>1123.9</ele><time>2012-04-30T19:46:55.0000000+00:00</time></trkpt><trkpt lat="42.948719" lon="19.608675"><ele>1125.8</ele><time>2012-04-30T19:47:00.0000000+00:00</time></trkpt><trkpt lat="42.948738" lon="19.608513"><ele>1127.3</ele><time>2012-04-30T19:47:05.0000000+00:00</time></trkpt><trkpt lat="42.948742" lon="19.608376"><ele>1128.9</ele><time>2012-04-30T19:47:10.0000000+00:00</time></trkpt><trkpt lat="42.948765" lon="19.608213"><ele>1130.2</ele><time>2012-04-30T19:47:15.0000000+00:00</time></trkpt><trkpt lat="42.948772" lon="19.608034"><ele>1131.4</ele><time>2012-04-30T19:47:20.0000000+00:00</time></trkpt><trkpt lat="42.948788" lon="19.607924"><ele>1130.5</ele><time>2012-04-30T19:47:25.0000000+00:00</time></trkpt><trkpt lat="42.948879" lon="19.607817"><ele>1132.3</ele><time>2012-04-30T19:47:30.0000000+00:00</time></trkpt><trkpt lat="42.948994" lon="19.607544"><ele>1134.2</ele><time>2012-04-30T19:47:35.0000000+00:00</time></trkpt><trkpt lat="42.94907" lon="19.607159"><ele>1136.1</ele><time>2012-04-30T19:47:40.0000000+00:00</time></trkpt><trkpt lat="42.949177" lon="19.607012"><ele>1136.4</ele><time>2012-04-30T19:47:45.0000000+00:00</time></trkpt><trkpt lat="42.949326" lon="19.606863"><ele>1136.7</ele><time>2012-04-30T19:47:50.0000000+00:00</time></trkpt><trkpt lat="42.949402" lon="19.606655"><ele>1135.7</ele><time>2012-04-30T19:47:55.0000000+00:00</time></trkpt><trkpt lat="42.949432" lon="19.606491"><ele>1137.4</ele><time>2012-04-30T19:48:00.0000000+00:00</time></trkpt><trkpt lat="42.949383" lon="19.606329"><ele>1133.7</ele><time>2012-04-30T19:48:05.0000000+00:00</time></trkpt><trkpt lat="42.949295" lon="19.606207"><ele>1133.2</ele><time>2012-04-30T19:48:10.0000000+00:00</time></trkpt><trkpt lat="42.949245" lon="19.606094"><ele>1131.6</ele><time>2012-04-30T19:48:15.0000000+00:00</time></trkpt><trkpt lat="42.949169" lon="19.605997"><ele>1133.0</ele><time>2012-04-30T19:48:20.0000000+00:00</time></trkpt><trkpt lat="42.949074" lon="19.605925"><ele>1133.0</ele><time>2012-04-30T19:48:25.0000000+00:00</time></trkpt><trkpt lat="42.948986" lon="19.605837"><ele>1132.9</ele><time>2012-04-30T19:48:30.0000000+00:00</time></trkpt><trkpt lat="42.948917" lon="19.605757"><ele>1133.0</ele><time>2012-04-30T19:48:35.0000000+00:00</time></trkpt><trkpt lat="42.948914" lon="19.605713"><ele>1134.0</ele><time>2012-04-30T19:48:40.0000000+00:00</time></trkpt><trkpt lat="42.948925" lon="19.605711"><ele>1134.2</ele><time>2012-04-30T19:48:45.0000000+00:00</time></trkpt><trkpt lat="42.948921" lon="19.605709"><ele>1134.1</ele><time>2012-04-30T19:48:50.0000000+00:00</time></trkpt><trkpt lat="42.948917" lon="19.605705"><ele>1134.0</ele><time>2012-04-30T19:48:55.0000000+00:00</time></trkpt><trkpt lat="42.94891" lon="19.605703"><ele>1133.9</ele><time>2012-04-30T19:49:00.0000000+00:00</time></trkpt><trkpt lat="42.94891" lon="19.605701"><ele>1133.9</ele><time>2012-04-30T19:49:05.0000000+00:00</time></trkpt><trkpt lat="42.94891" lon="19.605703"><ele>1133.9</ele><time>2012-04-30T19:49:10.0000000+00:00</time></trkpt><trkpt lat="42.948914" lon="19.605703"><ele>1133.9</ele><time>2012-04-30T19:49:15.0000000+00:00</time></trkpt><trkpt lat="42.948914" lon="19.605703"><ele>1133.9</ele><time>2012-04-30T19:49:20.0000000+00:00</time></trkpt><trkpt lat="42.948914" lon="19.605703"><ele>1133.9</ele><time>2012-04-30T19:49:25.0000000+00:00</time></trkpt><trkpt lat="42.948914" lon="19.605703"><ele>1133.9</ele><time>2012-04-30T19:49:30.0000000+00:00</time></trkpt><trkpt lat="42.948914" lon="19.605703"><ele>1133.8</ele><time>2012-04-30T19:49:35.0000000+00:00</time></trkpt><trkpt lat="42.948914" lon="19.605703"><ele>1133.8</ele><time>2012-04-30T19:49:40.0000000+00:00</time></trkpt><trkpt lat="42.948914" lon="19.605701"><ele>1133.8</ele><time>2012-04-30T19:49:45.0000000+00:00</time></trkpt><trkpt lat="42.948914" lon="19.605701"><ele>1133.7</ele><time>2012-04-30T19:49:50.0000000+00:00</time></trkpt><trkpt lat="42.948914" lon="19.605701"><ele>1133.8</ele><time>2012-04-30T19:49:55.0000000+00:00</time></trkpt><trkpt lat="42.948914" lon="19.605701"><ele>1133.7</ele><time>2012-04-30T19:50:00.0000000+00:00</time></trkpt><trkpt lat="42.948914" lon="19.605701"><ele>1133.7</ele><time>2012-04-30T19:50:05.0000000+00:00</time></trkpt><trkpt lat="42.948914" lon="19.605701"><ele>1133.7</ele><time>2012-04-30T19:50:10.0000000+00:00</time></trkpt><trkpt lat="42.948914" lon="19.605701"><ele>1133.7</ele><time>2012-04-30T19:50:15.0000000+00:00</time></trkpt><trkpt lat="42.94891" lon="19.605701"><ele>1133.7</ele><time>2012-04-30T19:50:20.0000000+00:00</time></trkpt><trkpt lat="42.948914" lon="19.605701"><ele>1133.7</ele><time>2012-04-30T19:50:25.0000000+00:00</time></trkpt><trkpt lat="42.948914" lon="19.605701"><ele>1133.7</ele><time>2012-04-30T19:50:30.0000000+00:00</time></trkpt><trkpt lat="42.948914" lon="19.605701"><ele>1133.7</ele><time>2012-04-30T19:50:35.0000000+00:00</time></trkpt><trkpt lat="42.94891" lon="19.605701"><ele>1133.8</ele><time>2012-04-30T19:50:40.0000000+00:00</time></trkpt><trkpt lat="42.948914" lon="19.605703"><ele>1133.8</ele><time>2012-04-30T19:50:45.0000000+00:00</time></trkpt><trkpt lat="42.948914" lon="19.605703"><ele>1133.8</ele><time>2012-04-30T19:50:50.0000000+00:00</time></trkpt><trkpt lat="42.948914" lon="19.605703"><ele>1133.8</ele><time>2012-04-30T19:50:55.0000000+00:00</time></trkpt><trkpt lat="42.948914" lon="19.605703"><ele>1133.8</ele><time>2012-04-30T19:51:00.0000000+00:00</time></trkpt><trkpt lat="42.948914" lon="19.605703"><ele>1133.8</ele><time>2012-04-30T19:51:05.0000000+00:00</time></trkpt><trkpt lat="42.948902" lon="19.605677"><ele>1133.5</ele><time>2012-04-30T19:51:10.0000000+00:00</time></trkpt><trkpt lat="42.948807" lon="19.605574"><ele>1131.5</ele><time>2012-04-30T19:51:15.0000000+00:00</time></trkpt><trkpt lat="42.948708" lon="19.605442"><ele>1129.2</ele><time>2012-04-30T19:51:20.0000000+00:00</time></trkpt><trkpt lat="42.948574" lon="19.605284"><ele>1127.5</ele><time>2012-04-30T19:51:25.0000000+00:00</time></trkpt><trkpt lat="42.94846" lon="19.605051"><ele>1126.9</ele><time>2012-04-30T19:51:30.0000000+00:00</time></trkpt><trkpt lat="42.948318" lon="19.604847"><ele>1126.2</ele><time>2012-04-30T19:51:35.0000000+00:00</time></trkpt><trkpt lat="42.948128" lon="19.604649"><ele>1124.9</ele><time>2012-04-30T19:51:40.0000000+00:00</time></trkpt><trkpt lat="42.947964" lon="19.604425"><ele>1123.5</ele><time>2012-04-30T19:51:45.0000000+00:00</time></trkpt><trkpt lat="42.947826" lon="19.604227"><ele>1124.5</ele><time>2012-04-30T19:51:50.0000000+00:00</time></trkpt><trkpt lat="42.947723" lon="19.604065"><ele>1124.6</ele><time>2012-04-30T19:51:55.0000000+00:00</time></trkpt><trkpt lat="42.947628" lon="19.603903"><ele>1126.3</ele><time>2012-04-30T19:52:00.0000000+00:00</time></trkpt><trkpt lat="42.947525" lon="19.603714"><ele>1128.6</ele><time>2012-04-30T19:52:05.0000000+00:00</time></trkpt><trkpt lat="42.947392" lon="19.603464"><ele>1129.6</ele><time>2012-04-30T19:52:10.0000000+00:00</time></trkpt><trkpt lat="42.947258" lon="19.603176"><ele>1130.0</ele><time>2012-04-30T19:52:15.0000000+00:00</time></trkpt><trkpt lat="42.947128" lon="19.602915"><ele>1128.2</ele><time>2012-04-30T19:52:20.0000000+00:00</time></trkpt><trkpt lat="42.946968" lon="19.602646"><ele>1126.4</ele><time>2012-04-30T19:52:25.0000000+00:00</time></trkpt><trkpt lat="42.946808" lon="19.602407"><ele>1123.7</ele><time>2012-04-30T19:52:30.0000000+00:00</time></trkpt><trkpt lat="42.946671" lon="19.602158"><ele>1121.7</ele><time>2012-04-30T19:52:35.0000000+00:00</time></trkpt><trkpt lat="42.946548" lon="19.601969"><ele>1119.8</ele><time>2012-04-30T19:52:40.0000000+00:00</time></trkpt><trkpt lat="42.946419" lon="19.601871"><ele>1117.7</ele><time>2012-04-30T19:52:45.0000000+00:00</time></trkpt><trkpt lat="42.946301" lon="19.601755"><ele>1114.0</ele><time>2012-04-30T19:52:50.0000000+00:00</time></trkpt><trkpt lat="42.946362" lon="19.601624"><ele>1111.8</ele><time>2012-04-30T19:52:55.0000000+00:00</time></trkpt><trkpt lat="42.946529" lon="19.601614"><ele>1109.9</ele><time>2012-04-30T19:53:00.0000000+00:00</time></trkpt><trkpt lat="42.946766" lon="19.601665"><ele>1108.7</ele><time>2012-04-30T19:53:05.0000000+00:00</time></trkpt><trkpt lat="42.946995" lon="19.601717"><ele>1107.0</ele><time>2012-04-30T19:53:10.0000000+00:00</time></trkpt><trkpt lat="42.947208" lon="19.601816"><ele>1103.7</ele><time>2012-04-30T19:53:15.0000000+00:00</time></trkpt><trkpt lat="42.947433" lon="19.601963"><ele>1101.5</ele><time>2012-04-30T19:53:20.0000000+00:00</time></trkpt><trkpt lat="42.947647" lon="19.602123"><ele>1098.3</ele><time>2012-04-30T19:53:25.0000000+00:00</time></trkpt><trkpt lat="42.947823" lon="19.602272"><ele>1096.2</ele><time>2012-04-30T19:53:30.0000000+00:00</time></trkpt><trkpt lat="42.947971" lon="19.602497"><ele>1093.9</ele><time>2012-04-30T19:53:34.0000000+00:00</time></trkpt><trkpt lat="42.94804" lon="19.602779"><ele>1092.3</ele><time>2012-04-30T19:53:40.0000000+00:00</time></trkpt><trkpt lat="42.948166" lon="19.603006"><ele>1091.0</ele><time>2012-04-30T19:53:45.0000000+00:00</time></trkpt><trkpt lat="42.948318" lon="19.60313"><ele>1091.9</ele><time>2012-04-30T19:53:50.0000000+00:00</time></trkpt><trkpt lat="42.948475" lon="19.603245"><ele>1091.2</ele><time>2012-04-30T19:53:55.0000000+00:00</time></trkpt><trkpt lat="42.948612" lon="19.603394"><ele>1090.0</ele><time>2012-04-30T19:54:00.0000000+00:00</time></trkpt><trkpt lat="42.948769" lon="19.603542"><ele>1088.0</ele><time>2012-04-30T19:54:05.0000000+00:00</time></trkpt><trkpt lat="42.948933" lon="19.603676"><ele>1086.3</ele><time>2012-04-30T19:54:10.0000000+00:00</time></trkpt><trkpt lat="42.949059" lon="19.60379"><ele>1085.3</ele><time>2012-04-30T19:54:15.0000000+00:00</time></trkpt><trkpt lat="42.949196" lon="19.603928"><ele>1084.3</ele><time>2012-04-30T19:54:20.0000000+00:00</time></trkpt><trkpt lat="42.949375" lon="19.604042"><ele>1082.7</ele><time>2012-04-30T19:54:25.0000000+00:00</time></trkpt><trkpt lat="42.949528" lon="19.604147"><ele>1081.1</ele><time>2012-04-30T19:54:30.0000000+00:00</time></trkpt><trkpt lat="42.949703" lon="19.604277"><ele>1078.7</ele><time>2012-04-30T19:54:35.0000000+00:00</time></trkpt><trkpt lat="42.949883" lon="19.604395"><ele>1076.6</ele><time>2012-04-30T19:54:40.0000000+00:00</time></trkpt><trkpt lat="42.950108" lon="19.60441"><ele>1074.7</ele><time>2012-04-30T19:54:45.0000000+00:00</time></trkpt><trkpt lat="42.950367" lon="19.604507"><ele>1071.7</ele><time>2012-04-30T19:54:50.0000000+00:00</time></trkpt><trkpt lat="42.950615" lon="19.604546"><ele>1069.5</ele><time>2012-04-30T19:54:55.0000000+00:00</time></trkpt><trkpt lat="42.950848" lon="19.60457"><ele>1067.5</ele><time>2012-04-30T19:55:00.0000000+00:00</time></trkpt><trkpt lat="42.951122" lon="19.60463"><ele>1064.3</ele><time>2012-04-30T19:55:05.0000000+00:00</time></trkpt><trkpt lat="42.951336" lon="19.604652"><ele>1062.7</ele><time>2012-04-30T19:55:10.0000000+00:00</time></trkpt><trkpt lat="42.951534" lon="19.604721"><ele>1061.2</ele><time>2012-04-30T19:55:15.0000000+00:00</time></trkpt><trkpt lat="42.951668" lon="19.604959"><ele>1060.7</ele><time>2012-04-30T19:55:20.0000000+00:00</time></trkpt><trkpt lat="42.951717" lon="19.605274"><ele>1060.3</ele><time>2012-04-30T19:55:25.0000000+00:00</time></trkpt><trkpt lat="42.951756" lon="19.605558"><ele>1060.0</ele><time>2012-04-30T19:55:30.0000000+00:00</time></trkpt><trkpt lat="42.951797" lon="19.605816"><ele>1059.4</ele><time>2012-04-30T19:55:35.0000000+00:00</time></trkpt><trkpt lat="42.951832" lon="19.606022"><ele>1058.1</ele><time>2012-04-30T19:55:40.0000000+00:00</time></trkpt><trkpt lat="42.951931" lon="19.606052"><ele>1055.9</ele><time>2012-04-30T19:55:45.0000000+00:00</time></trkpt><trkpt lat="42.951939" lon="19.605806"><ele>1056.9</ele><time>2012-04-30T19:55:50.0000000+00:00</time></trkpt><trkpt lat="42.95195" lon="19.605515"><ele>1057.0</ele><time>2012-04-30T19:55:55.0000000+00:00</time></trkpt><trkpt lat="42.951984" lon="19.605206"><ele>1056.1</ele><time>2012-04-30T19:56:00.0000000+00:00</time></trkpt><trkpt lat="42.952038" lon="19.604897"><ele>1056.0</ele><time>2012-04-30T19:56:05.0000000+00:00</time></trkpt><trkpt lat="42.952129" lon="19.604637"><ele>1054.7</ele><time>2012-04-30T19:56:10.0000000+00:00</time></trkpt><trkpt lat="42.952202" lon="19.604345"><ele>1053.5</ele><time>2012-04-30T19:56:15.0000000+00:00</time></trkpt><trkpt lat="42.952236" lon="19.60405"><ele>1052.3</ele><time>2012-04-30T19:56:20.0000000+00:00</time></trkpt><trkpt lat="42.952263" lon="19.603792"><ele>1050.6</ele><time>2012-04-30T19:56:25.0000000+00:00</time></trkpt><trkpt lat="42.952225" lon="19.603638"><ele>1049.1</ele><time>2012-04-30T19:56:30.0000000+00:00</time></trkpt><trkpt lat="42.95219" lon="19.603523"><ele>1048.6</ele><time>2012-04-30T19:56:35.0000000+00:00</time></trkpt><trkpt lat="42.952175" lon="19.603329"><ele>1046.9</ele><time>2012-04-30T19:56:40.0000000+00:00</time></trkpt><trkpt lat="42.952267" lon="19.603123"><ele>1045.5</ele><time>2012-04-30T19:56:45.0000000+00:00</time></trkpt><trkpt lat="42.95237" lon="19.602879"><ele>1043.9</ele><time>2012-04-30T19:56:50.0000000+00:00</time></trkpt><trkpt lat="42.952457" lon="19.602621"><ele>1041.5</ele><time>2012-04-30T19:56:55.0000000+00:00</time></trkpt><trkpt lat="42.952579" lon="19.602413"><ele>1040.0</ele><time>2012-04-30T19:57:00.0000000+00:00</time></trkpt><trkpt lat="42.95274" lon="19.602243"><ele>1039.0</ele><time>2012-04-30T19:57:05.0000000+00:00</time></trkpt><trkpt lat="42.952908" lon="19.602053"><ele>1038.0</ele><time>2012-04-30T19:57:10.0000000+00:00</time></trkpt><trkpt lat="42.953064" lon="19.601988"><ele>1036.3</ele><time>2012-04-30T19:57:15.0000000+00:00</time></trkpt><trkpt lat="42.953224" lon="19.602144"><ele>1029.4</ele><time>2012-04-30T19:57:20.0000000+00:00</time></trkpt><trkpt lat="42.953323" lon="19.602051"><ele>1027.0</ele><time>2012-04-30T19:57:25.0000000+00:00</time></trkpt><trkpt lat="42.953316" lon="19.601824"><ele>1025.6</ele><time>2012-04-30T19:57:30.0000000+00:00</time></trkpt><trkpt lat="42.953274" lon="19.601574"><ele>1024.6</ele><time>2012-04-30T19:57:35.0000000+00:00</time></trkpt><trkpt lat="42.953327" lon="19.601381"><ele>1022.6</ele><time>2012-04-30T19:57:40.0000000+00:00</time></trkpt><trkpt lat="42.953472" lon="19.601206"><ele>1020.8</ele><time>2012-04-30T19:57:45.0000000+00:00</time></trkpt><trkpt lat="42.953613" lon="19.601009"><ele>1019.4</ele><time>2012-04-30T19:57:50.0000000+00:00</time></trkpt><trkpt lat="42.953701" lon="19.600643"><ele>1017.0</ele><time>2012-04-30T19:57:55.0000000+00:00</time></trkpt><trkpt lat="42.953724" lon="19.600277"><ele>1014.1</ele><time>2012-04-30T19:58:00.0000000+00:00</time></trkpt><trkpt lat="42.9538" lon="19.600088"><ele>1011.9</ele><time>2012-04-30T19:58:05.0000000+00:00</time></trkpt><trkpt lat="42.953918" lon="19.599913"><ele>1008.7</ele><time>2012-04-30T19:58:10.0000000+00:00</time></trkpt><trkpt lat="42.953995" lon="19.599676"><ele>1006.3</ele><time>2012-04-30T19:58:15.0000000+00:00</time></trkpt><trkpt lat="42.954079" lon="19.59944"><ele>1003.3</ele><time>2012-04-30T19:58:20.0000000+00:00</time></trkpt><trkpt lat="42.95417" lon="19.599215"><ele>1001.8</ele><time>2012-04-30T19:58:25.0000000+00:00</time></trkpt><trkpt lat="42.954266" lon="19.598978"><ele>999.2</ele><time>2012-04-30T19:58:30.0000000+00:00</time></trkpt><trkpt lat="42.95438" lon="19.598728"><ele>997.5</ele><time>2012-04-30T19:58:35.0000000+00:00</time></trkpt><trkpt lat="42.954472" lon="19.598526"><ele>996.0</ele><time>2012-04-30T19:58:40.0000000+00:00</time></trkpt><trkpt lat="42.95459" lon="19.598289"><ele>993.9</ele><time>2012-04-30T19:58:45.0000000+00:00</time></trkpt><trkpt lat="42.954697" lon="19.598112"><ele>991.5</ele><time>2012-04-30T19:58:50.0000000+00:00</time></trkpt><trkpt lat="42.954796" lon="19.597893"><ele>989.7</ele><time>2012-04-30T19:58:55.0000000+00:00</time></trkpt><trkpt lat="42.954903" lon="19.597626"><ele>987.7</ele><time>2012-04-30T19:59:00.0000000+00:00</time></trkpt><trkpt lat="42.954971" lon="19.59738"><ele>984.9</ele><time>2012-04-30T19:59:05.0000000+00:00</time></trkpt><trkpt lat="42.955059" lon="19.597166"><ele>982.1</ele><time>2012-04-30T19:59:10.0000000+00:00</time></trkpt><trkpt lat="42.955154" lon="19.596979"><ele>980.3</ele><time>2012-04-30T19:59:15.0000000+00:00</time></trkpt><trkpt lat="42.955204" lon="19.596861"><ele>980.0</ele><time>2012-04-30T19:59:20.0000000+00:00</time></trkpt><trkpt lat="42.95528" lon="19.596691"><ele>979.0</ele><time>2012-04-30T19:59:25.0000000+00:00</time></trkpt><trkpt lat="42.955391" lon="19.596479"><ele>977.5</ele><time>2012-04-30T19:59:30.0000000+00:00</time></trkpt><trkpt lat="42.955524" lon="19.596289"><ele>974.5</ele><time>2012-04-30T19:59:35.0000000+00:00</time></trkpt><trkpt lat="42.955639" lon="19.596069"><ele>970.6</ele><time>2012-04-30T19:59:40.0000000+00:00</time></trkpt><trkpt lat="42.955799" lon="19.595875"><ele>966.8</ele><time>2012-04-30T19:59:45.0000000+00:00</time></trkpt><trkpt lat="42.955933" lon="19.595663"><ele>964.0</ele><time>2012-04-30T19:59:50.0000000+00:00</time></trkpt><trkpt lat="42.95602" lon="19.595459"><ele>960.6</ele><time>2012-04-30T19:59:55.0000000+00:00</time></trkpt><trkpt lat="42.95607" lon="19.595404"><ele>959.6</ele><time>2012-04-30T20:00:00.0000000+00:00</time></trkpt><trkpt lat="42.956078" lon="19.595404"><ele>959.2</ele><time>2012-04-30T20:00:05.0000000+00:00</time></trkpt><trkpt lat="42.956078" lon="19.595404"><ele>959.1</ele><time>2012-04-30T20:00:10.0000000+00:00</time></trkpt><trkpt lat="42.956078" lon="19.595404"><ele>959.1</ele><time>2012-04-30T20:00:15.0000000+00:00</time></trkpt><trkpt lat="42.956085" lon="19.595392"><ele>959.1</ele><time>2012-04-30T20:00:20.0000000+00:00</time></trkpt><trkpt lat="42.956184" lon="19.59531"><ele>960.6</ele><time>2012-04-30T20:00:25.0000000+00:00</time></trkpt><trkpt lat="42.956291" lon="19.595173"><ele>962.4</ele><time>2012-04-30T20:00:30.0000000+00:00</time></trkpt><trkpt lat="42.956421" lon="19.595015"><ele>965.1</ele><time>2012-04-30T20:00:35.0000000+00:00</time></trkpt><trkpt lat="42.956562" lon="19.594868"><ele>966.7</ele><time>2012-04-30T20:00:40.0000000+00:00</time></trkpt><trkpt lat="42.956753" lon="19.594847"><ele>965.2</ele><time>2012-04-30T20:00:45.0000000+00:00</time></trkpt><trkpt lat="42.956944" lon="19.594898"><ele>961.8</ele><time>2012-04-30T20:00:50.0000000+00:00</time></trkpt><trkpt lat="42.957123" lon="19.594725"><ele>955.9</ele><time>2012-04-30T20:00:55.0000000+00:00</time></trkpt><trkpt lat="42.957088" lon="19.594524"><ele>945.4</ele><time>2012-04-30T20:01:00.0000000+00:00</time></trkpt><trkpt lat="42.956886" lon="19.594488"><ele>939.1</ele><time>2012-04-30T20:01:05.0000000+00:00</time></trkpt><trkpt lat="42.956608" lon="19.594446"><ele>935.6</ele><time>2012-04-30T20:01:10.0000000+00:00</time></trkpt><trkpt lat="42.956352" lon="19.594442"><ele>931.7</ele><time>2012-04-30T20:01:15.0000000+00:00</time></trkpt><trkpt lat="42.956085" lon="19.594475"><ele>928.9</ele><time>2012-04-30T20:01:20.0000000+00:00</time></trkpt><trkpt lat="42.955891" lon="19.594383"><ele>925.4</ele><time>2012-04-30T20:01:25.0000000+00:00</time></trkpt><trkpt lat="42.955872" lon="19.594164"><ele>924.1</ele><time>2012-04-30T20:01:30.0000000+00:00</time></trkpt><trkpt lat="42.95591" lon="19.593967"><ele>920.7</ele><time>2012-04-30T20:01:35.0000000+00:00</time></trkpt><trkpt lat="42.955944" lon="19.59379"><ele>916.7</ele><time>2012-04-30T20:01:40.0000000+00:00</time></trkpt><trkpt lat="42.955963" lon="19.593493"><ele>913.1</ele><time>2012-04-30T20:01:45.0000000+00:00</time></trkpt><trkpt lat="42.956059" lon="19.59317"><ele>908.3</ele><time>2012-04-30T20:01:50.0000000+00:00</time></trkpt><trkpt lat="42.956188" lon="19.592821"><ele>903.8</ele><time>2012-04-30T20:01:55.0000000+00:00</time></trkpt><trkpt lat="42.956249" lon="19.592524"><ele>900.7</ele><time>2012-04-30T20:02:00.0000000+00:00</time></trkpt><trkpt lat="42.956257" lon="19.592257"><ele>897.4</ele><time>2012-04-30T20:02:05.0000000+00:00</time></trkpt><trkpt lat="42.956287" lon="19.591969"><ele>894.5</ele><time>2012-04-30T20:02:10.0000000+00:00</time></trkpt><trkpt lat="42.956356" lon="19.591726"><ele>891.2</ele><time>2012-04-30T20:02:15.0000000+00:00</time></trkpt><trkpt lat="42.956417" lon="19.59149"><ele>888.7</ele><time>2012-04-30T20:02:20.0000000+00:00</time></trkpt><trkpt lat="42.956486" lon="19.591284"><ele>886.8</ele><time>2012-04-30T20:02:25.0000000+00:00</time></trkpt><trkpt lat="42.956627" lon="19.591135"><ele>884.9</ele><time>2012-04-30T20:02:30.0000000+00:00</time></trkpt><trkpt lat="42.956745" lon="19.590961"><ele>882.3</ele><time>2012-04-30T20:02:35.0000000+00:00</time></trkpt><trkpt lat="42.956963" lon="19.590839"><ele>879.2</ele><time>2012-04-30T20:02:40.0000000+00:00</time></trkpt><trkpt lat="42.957165" lon="19.590721"><ele>876.1</ele><time>2012-04-30T20:02:45.0000000+00:00</time></trkpt><trkpt lat="42.957344" lon="19.590611"><ele>873.4</ele><time>2012-04-30T20:02:50.0000000+00:00</time></trkpt><trkpt lat="42.957588" lon="19.590498"><ele>868.3</ele><time>2012-04-30T20:02:55.0000000+00:00</time></trkpt><trkpt lat="42.957806" lon="19.59045"><ele>866.8</ele><time>2012-04-30T20:03:00.0000000+00:00</time></trkpt><trkpt lat="42.957905" lon="19.590303"><ele>865.8</ele><time>2012-04-30T20:03:05.0000000+00:00</time></trkpt><trkpt lat="42.958015" lon="19.59017"><ele>863.5</ele><time>2012-04-30T20:03:10.0000000+00:00</time></trkpt><trkpt lat="42.958126" lon="19.590088"><ele>862.0</ele><time>2012-04-30T20:03:15.0000000+00:00</time></trkpt><trkpt lat="42.958149" lon="19.590092"><ele>861.9</ele><time>2012-04-30T20:03:20.0000000+00:00</time></trkpt><trkpt lat="42.958149" lon="19.590092"><ele>862.0</ele><time>2012-04-30T20:03:25.0000000+00:00</time></trkpt><trkpt lat="42.958149" lon="19.590092"><ele>862.0</ele><time>2012-04-30T20:03:30.0000000+00:00</time></trkpt><trkpt lat="42.958153" lon="19.59009"><ele>862.0</ele><time>2012-04-30T20:03:35.0000000+00:00</time></trkpt><trkpt lat="42.958248" lon="19.59008"><ele>860.0</ele><time>2012-04-30T20:03:40.0000000+00:00</time></trkpt><trkpt lat="42.95842" lon="19.590078"><ele>859.1</ele><time>2012-04-30T20:03:45.0000000+00:00</time></trkpt><trkpt lat="42.958572" lon="19.590166"><ele>859.1</ele><time>2012-04-30T20:03:50.0000000+00:00</time></trkpt><trkpt lat="42.958687" lon="19.590281"><ele>859.2</ele><time>2012-04-30T20:03:55.0000000+00:00</time></trkpt><trkpt lat="42.958817" lon="19.590399"><ele>859.0</ele><time>2012-04-30T20:04:00.0000000+00:00</time></trkpt><trkpt lat="42.958965" lon="19.590553"><ele>859.7</ele><time>2012-04-30T20:04:05.0000000+00:00</time></trkpt><trkpt lat="42.959095" lon="19.590731"><ele>860.2</ele><time>2012-04-30T20:04:10.0000000+00:00</time></trkpt><trkpt lat="42.95919" lon="19.5909"><ele>859.8</ele><time>2012-04-30T20:04:15.0000000+00:00</time></trkpt><trkpt lat="42.959267" lon="19.591133"><ele>859.9</ele><time>2012-04-30T20:04:20.0000000+00:00</time></trkpt><trkpt lat="42.95932" lon="19.591375"><ele>861.8</ele><time>2012-04-30T20:04:25.0000000+00:00</time></trkpt><trkpt lat="42.959381" lon="19.591656"><ele>863.1</ele><time>2012-04-30T20:04:30.0000000+00:00</time></trkpt><trkpt lat="42.959404" lon="19.591949"><ele>865.3</ele><time>2012-04-30T20:04:35.0000000+00:00</time></trkpt><trkpt lat="42.959435" lon="19.592226"><ele>864.8</ele><time>2012-04-30T20:04:40.0000000+00:00</time></trkpt><trkpt lat="42.959427" lon="19.592447"><ele>864.9</ele><time>2012-04-30T20:04:45.0000000+00:00</time></trkpt><trkpt lat="42.959373" lon="19.59273"><ele>865.6</ele><time>2012-04-30T20:04:50.0000000+00:00</time></trkpt><trkpt lat="42.959293" lon="19.593077"><ele>865.8</ele><time>2012-04-30T20:04:55.0000000+00:00</time></trkpt><trkpt lat="42.95924" lon="19.593445"><ele>864.9</ele><time>2012-04-30T20:05:00.0000000+00:00</time></trkpt><trkpt lat="42.959248" lon="19.593765"><ele>865.1</ele><time>2012-04-30T20:05:05.0000000+00:00</time></trkpt><trkpt lat="42.95929" lon="19.594023"><ele>865.4</ele><time>2012-04-30T20:05:10.0000000+00:00</time></trkpt><trkpt lat="42.959351" lon="19.594276"><ele>865.2</ele><time>2012-04-30T20:05:15.0000000+00:00</time></trkpt><trkpt lat="42.959358" lon="19.59466"><ele>862.1</ele><time>2012-04-30T20:05:20.0000000+00:00</time></trkpt><trkpt lat="42.959305" lon="19.595127"><ele>859.2</ele><time>2012-04-30T20:05:25.0000000+00:00</time></trkpt><trkpt lat="42.959278" lon="19.595612"><ele>855.9</ele><time>2012-04-30T20:05:30.0000000+00:00</time></trkpt><trkpt lat="42.95916" lon="19.596039"><ele>852.7</ele><time>2012-04-30T20:05:35.0000000+00:00</time></trkpt><trkpt lat="42.958992" lon="19.596405"><ele>850.8</ele><time>2012-04-30T20:05:40.0000000+00:00</time></trkpt><trkpt lat="42.9589" lon="19.596922"><ele>848.6</ele><time>2012-04-30T20:05:45.0000000+00:00</time></trkpt><trkpt lat="42.958794" lon="19.597466"><ele>844.4</ele><time>2012-04-30T20:05:50.0000000+00:00</time></trkpt><trkpt lat="42.958736" lon="19.597982"><ele>841.8</ele><time>2012-04-30T20:05:55.0000000+00:00</time></trkpt><trkpt lat="42.958839" lon="19.598366"><ele>841.9</ele><time>2012-04-30T20:06:00.0000000+00:00</time></trkpt><trkpt lat="42.959034" lon="19.598463"><ele>841.6</ele><time>2012-04-30T20:06:05.0000000+00:00</time></trkpt><trkpt lat="42.959148" lon="19.598324"><ele>842.2</ele><time>2012-04-30T20:06:10.0000000+00:00</time></trkpt><trkpt lat="42.959232" lon="19.598143"><ele>842.2</ele><time>2012-04-30T20:06:15.0000000+00:00</time></trkpt><trkpt lat="42.959301" lon="19.598024"><ele>843.1</ele><time>2012-04-30T20:06:20.0000000+00:00</time></trkpt><trkpt lat="42.959396" lon="19.597851"><ele>843.2</ele><time>2012-04-30T20:06:25.0000000+00:00</time></trkpt><trkpt lat="42.959526" lon="19.597572"><ele>843.1</ele><time>2012-04-30T20:06:30.0000000+00:00</time></trkpt><trkpt lat="42.959656" lon="19.597216"><ele>842.3</ele><time>2012-04-30T20:06:35.0000000+00:00</time></trkpt><trkpt lat="42.959785" lon="19.596825"><ele>841.5</ele><time>2012-04-30T20:06:40.0000000+00:00</time></trkpt><trkpt lat="42.959911" lon="19.596399"><ele>841.2</ele><time>2012-04-30T20:06:45.0000000+00:00</time></trkpt><trkpt lat="42.960049" lon="19.595959"><ele>840.3</ele><time>2012-04-30T20:06:50.0000000+00:00</time></trkpt><trkpt lat="42.96019" lon="19.595499"><ele>839.5</ele><time>2012-04-30T20:06:55.0000000+00:00</time></trkpt><trkpt lat="42.960304" lon="19.595026"><ele>838.4</ele><time>2012-04-30T20:07:00.0000000+00:00</time></trkpt><trkpt lat="42.960396" lon="19.594553"><ele>837.0</ele><time>2012-04-30T20:07:05.0000000+00:00</time></trkpt><trkpt lat="42.960537" lon="19.594107"><ele>835.4</ele><time>2012-04-30T20:07:10.0000000+00:00</time></trkpt><trkpt lat="42.960632" lon="19.593723"><ele>835.8</ele><time>2012-04-30T20:07:15.0000000+00:00</time></trkpt><trkpt lat="42.960686" lon="19.593374"><ele>836.8</ele><time>2012-04-30T20:07:20.0000000+00:00</time></trkpt><trkpt lat="42.960754" lon="19.593067"><ele>838.5</ele><time>2012-04-30T20:07:25.0000000+00:00</time></trkpt><trkpt lat="42.960728" lon="19.592703"><ele>840.5</ele><time>2012-04-30T20:07:30.0000000+00:00</time></trkpt><trkpt lat="42.9608" lon="19.592394"><ele>838.4</ele><time>2012-04-30T20:07:35.0000000+00:00</time></trkpt><trkpt lat="42.960808" lon="19.592108"><ele>835.8</ele><time>2012-04-30T20:07:40.0000000+00:00</time></trkpt><trkpt lat="42.96077" lon="19.591873"><ele>832.3</ele><time>2012-04-30T20:07:45.0000000+00:00</time></trkpt><trkpt lat="42.960667" lon="19.591555"><ele>829.6</ele><time>2012-04-30T20:07:50.0000000+00:00</time></trkpt><trkpt lat="42.960636" lon="19.591213"><ele>827.5</ele><time>2012-04-30T20:07:55.0000000+00:00</time></trkpt><trkpt lat="42.96064" lon="19.590986"><ele>825.6</ele><time>2012-04-30T20:08:00.0000000+00:00</time></trkpt><trkpt lat="42.960556" lon="19.590693"><ele>824.6</ele><time>2012-04-30T20:08:05.0000000+00:00</time></trkpt><trkpt lat="42.96048" lon="19.590403"><ele>824.3</ele><time>2012-04-30T20:08:10.0000000+00:00</time></trkpt><trkpt lat="42.960381" lon="19.590084"><ele>822.7</ele><time>2012-04-30T20:08:15.0000000+00:00</time></trkpt><trkpt lat="42.960316" lon="19.58976"><ele>821.7</ele><time>2012-04-30T20:08:20.0000000+00:00</time></trkpt><trkpt lat="42.960281" lon="19.589413"><ele>820.9</ele><time>2012-04-30T20:08:25.0000000+00:00</time></trkpt><trkpt lat="42.960255" lon="19.589054"><ele>820.5</ele><time>2012-04-30T20:08:30.0000000+00:00</time></trkpt><trkpt lat="42.960236" lon="19.588688"><ele>819.7</ele><time>2012-04-30T20:08:35.0000000+00:00</time></trkpt><trkpt lat="42.960217" lon="19.588329"><ele>819.3</ele><time>2012-04-30T20:08:40.0000000+00:00</time></trkpt><trkpt lat="42.96019" lon="19.587986"><ele>819.3</ele><time>2012-04-30T20:08:45.0000000+00:00</time></trkpt><trkpt lat="42.960091" lon="19.58766"><ele>818.3</ele><time>2012-04-30T20:08:50.0000000+00:00</time></trkpt><trkpt lat="42.959965" lon="19.587336"><ele>816.7</ele><time>2012-04-30T20:08:55.0000000+00:00</time></trkpt><trkpt lat="42.959846" lon="19.587082"><ele>816.3</ele><time>2012-04-30T20:09:00.0000000+00:00</time></trkpt><trkpt lat="42.959721" lon="19.586843"><ele>817.1</ele><time>2012-04-30T20:09:05.0000000+00:00</time></trkpt><trkpt lat="42.959599" lon="19.586597"><ele>816.6</ele><time>2012-04-30T20:09:10.0000000+00:00</time></trkpt><trkpt lat="42.95953" lon="19.586378"><ele>816.6</ele><time>2012-04-30T20:09:15.0000000+00:00</time></trkpt><trkpt lat="42.959538" lon="19.586321"><ele>816.9</ele><time>2012-04-30T20:09:20.0000000+00:00</time></trkpt><trkpt lat="42.959538" lon="19.586319"><ele>816.7</ele><time>2012-04-30T20:09:25.0000000+00:00</time></trkpt><trkpt lat="42.959538" lon="19.586317"><ele>816.7</ele><time>2012-04-30T20:09:30.0000000+00:00</time></trkpt><trkpt lat="42.959538" lon="19.586317"><ele>816.7</ele><time>2012-04-30T20:09:35.0000000+00:00</time></trkpt><trkpt lat="42.959538" lon="19.586317"><ele>816.7</ele><time>2012-04-30T20:09:40.0000000+00:00</time></trkpt><trkpt lat="42.959538" lon="19.586317"><ele>816.7</ele><time>2012-04-30T20:09:45.0000000+00:00</time></trkpt><trkpt lat="42.959538" lon="19.586317"><ele>816.7</ele><time>2012-04-30T20:09:50.0000000+00:00</time></trkpt><trkpt lat="42.959538" lon="19.586317"><ele>816.7</ele><time>2012-04-30T20:09:55.0000000+00:00</time></trkpt><trkpt lat="42.959538" lon="19.586317"><ele>816.7</ele><time>2012-04-30T20:10:00.0000000+00:00</time></trkpt><trkpt lat="42.959538" lon="19.586317"><ele>816.7</ele><time>2012-04-30T20:10:05.0000000+00:00</time></trkpt><trkpt lat="42.959518" lon="19.586323"><ele>816.7</ele><time>2012-04-30T20:10:10.0000000+00:00</time></trkpt><trkpt lat="42.959518" lon="19.586329"><ele>817.0</ele><time>2012-04-30T20:10:15.0000000+00:00</time></trkpt><trkpt lat="42.959511" lon="19.586336"><ele>817.2</ele><time>2012-04-30T20:10:20.0000000+00:00</time></trkpt><trkpt lat="42.959511" lon="19.586336"><ele>817.1</ele><time>2012-04-30T20:10:25.0000000+00:00</time></trkpt><trkpt lat="42.959507" lon="19.586334"><ele>817.1</ele><time>2012-04-30T20:10:30.0000000+00:00</time></trkpt><trkpt lat="42.959499" lon="19.586329"><ele>817.4</ele><time>2012-04-30T20:10:35.0000000+00:00</time></trkpt><trkpt lat="42.959499" lon="19.586329"><ele>817.4</ele><time>2012-04-30T20:10:40.0000000+00:00</time></trkpt><trkpt lat="42.959499" lon="19.586329"><ele>817.4</ele><time>2012-04-30T20:10:45.0000000+00:00</time></trkpt><trkpt lat="42.959499" lon="19.586329"><ele>817.4</ele><time>2012-04-30T20:10:50.0000000+00:00</time></trkpt><trkpt lat="42.959534" lon="19.586287"><ele>817.8</ele><time>2012-04-30T20:10:55.0000000+00:00</time></trkpt><trkpt lat="42.959633" lon="19.586132"><ele>818.1</ele><time>2012-04-30T20:11:00.0000000+00:00</time></trkpt><trkpt lat="42.959702" lon="19.58596"><ele>818.5</ele><time>2012-04-30T20:11:05.0000000+00:00</time></trkpt><trkpt lat="42.95977" lon="19.585829"><ele>818.8</ele><time>2012-04-30T20:11:10.0000000+00:00</time></trkpt><trkpt lat="42.959812" lon="19.585699"><ele>819.3</ele><time>2012-04-30T20:11:15.0000000+00:00</time></trkpt><trkpt lat="42.959854" lon="19.585552"><ele>819.5</ele><time>2012-04-30T20:11:20.0000000+00:00</time></trkpt><trkpt lat="42.959911" lon="19.585386"><ele>819.6</ele><time>2012-04-30T20:11:25.0000000+00:00</time></trkpt><trkpt lat="42.959991" lon="19.585232"><ele>819.1</ele><time>2012-04-30T20:11:30.0000000+00:00</time></trkpt><trkpt lat="42.960052" lon="19.585005"><ele>819.4</ele><time>2012-04-30T20:11:35.0000000+00:00</time></trkpt><trkpt lat="42.960125" lon="19.584705"><ele>819.5</ele><time>2012-04-30T20:11:40.0000000+00:00</time></trkpt><trkpt lat="42.960167" lon="19.584379"><ele>819.8</ele><time>2012-04-30T20:11:45.0000000+00:00</time></trkpt><trkpt lat="42.960178" lon="19.584024"><ele>819.5</ele><time>2012-04-30T20:11:50.0000000+00:00</time></trkpt><trkpt lat="42.960129" lon="19.583647"><ele>819.1</ele><time>2012-04-30T20:11:55.0000000+00:00</time></trkpt><trkpt lat="42.960182" lon="19.583254"><ele>820.0</ele><time>2012-04-30T20:12:00.0000000+00:00</time></trkpt><trkpt lat="42.960224" lon="19.582838"><ele>820.2</ele><time>2012-04-30T20:12:05.0000000+00:00</time></trkpt><trkpt lat="42.96027" lon="19.582424"><ele>819.6</ele><time>2012-04-30T20:12:10.0000000+00:00</time></trkpt><trkpt lat="42.960308" lon="19.582041"><ele>820.2</ele><time>2012-04-30T20:12:15.0000000+00:00</time></trkpt><trkpt lat="42.960358" lon="19.581726"><ele>821.0</ele><time>2012-04-30T20:12:20.0000000+00:00</time></trkpt><trkpt lat="42.960358" lon="19.581425"><ele>820.6</ele><time>2012-04-30T20:12:25.0000000+00:00</time></trkpt><trkpt lat="42.960304" lon="19.581131"><ele>819.3</ele><time>2012-04-30T20:12:30.0000000+00:00</time></trkpt><trkpt lat="42.960232" lon="19.580868"><ele>817.9</ele><time>2012-04-30T20:12:35.0000000+00:00</time></trkpt><trkpt lat="42.960068" lon="19.580572"><ele>817.5</ele><time>2012-04-30T20:12:40.0000000+00:00</time></trkpt><trkpt lat="42.959888" lon="19.580269"><ele>815.0</ele><time>2012-04-30T20:12:45.0000000+00:00</time></trkpt><trkpt lat="42.959732" lon="19.579918"><ele>813.1</ele><time>2012-04-30T20:12:50.0000000+00:00</time></trkpt><trkpt lat="42.959644" lon="19.579548"><ele>813.1</ele><time>2012-04-30T20:12:55.0000000+00:00</time></trkpt><trkpt lat="42.959682" lon="19.57918"><ele>814.0</ele><time>2012-04-30T20:13:00.0000000+00:00</time></trkpt><trkpt lat="42.959724" lon="19.578848"><ele>815.2</ele><time>2012-04-30T20:13:05.0000000+00:00</time></trkpt><trkpt lat="42.959751" lon="19.578518"><ele>814.6</ele><time>2012-04-30T20:13:10.0000000+00:00</time></trkpt><trkpt lat="42.959766" lon="19.578264"><ele>815.2</ele><time>2012-04-30T20:13:15.0000000+00:00</time></trkpt><trkpt lat="42.959694" lon="19.578163"><ele>814.8</ele><time>2012-04-30T20:13:20.0000000+00:00</time></trkpt><trkpt lat="42.95961" lon="19.578133"><ele>815.5</ele><time>2012-04-30T20:13:25.0000000+00:00</time></trkpt><trkpt lat="42.95948" lon="19.578102"><ele>815.6</ele><time>2012-04-30T20:13:30.0000000+00:00</time></trkpt><trkpt lat="42.959312" lon="19.578062"><ele>816.1</ele><time>2012-04-30T20:13:35.0000000+00:00</time></trkpt><trkpt lat="42.959148" lon="19.578028"><ele>816.7</ele><time>2012-04-30T20:13:40.0000000+00:00</time></trkpt><trkpt lat="42.959068" lon="19.577999"><ele>816.8</ele><time>2012-04-30T20:13:45.0000000+00:00</time></trkpt><trkpt lat="42.958927" lon="19.577984"><ele>816.8</ele><time>2012-04-30T20:13:50.0000000+00:00</time></trkpt><trkpt lat="42.95874" lon="19.57795"><ele>817.5</ele><time>2012-04-30T20:13:55.0000000+00:00</time></trkpt><trkpt lat="42.958588" lon="19.577944"><ele>818.2</ele><time>2012-04-30T20:14:00.0000000+00:00</time></trkpt><trkpt lat="42.958481" lon="19.578043"><ele>817.9</ele><time>2012-04-30T20:14:05.0000000+00:00</time></trkpt><trkpt lat="42.958447" lon="19.578199"><ele>816.1</ele><time>2012-04-30T20:14:10.0000000+00:00</time></trkpt><trkpt lat="42.958393" lon="19.578259"><ele>815.4</ele><time>2012-04-30T20:14:15.0000000+00:00</time></trkpt><trkpt lat="42.958408" lon="19.578253"><ele>815.2</ele><time>2012-04-30T20:14:20.0000000+00:00</time></trkpt><trkpt lat="42.958408" lon="19.578253"><ele>815.0</ele><time>2012-04-30T20:14:25.0000000+00:00</time></trkpt><trkpt lat="42.958408" lon="19.578253"><ele>815.0</ele><time>2012-04-30T20:14:30.0000000+00:00</time></trkpt><trkpt lat="42.958408" lon="19.578253"><ele>815.2</ele><time>2012-04-30T20:14:35.0000000+00:00</time></trkpt><trkpt lat="42.958408" lon="19.578253"><ele>815.2</ele><time>2012-04-30T20:14:40.0000000+00:00</time></trkpt><trkpt lat="42.958408" lon="19.578253"><ele>815.1</ele><time>2012-04-30T20:14:45.0000000+00:00</time></trkpt><trkpt lat="42.958408" lon="19.578253"><ele>815.1</ele><time>2012-04-30T20:14:50.0000000+00:00</time></trkpt><trkpt lat="42.958408" lon="19.578253"><ele>815.1</ele><time>2012-04-30T20:14:55.0000000+00:00</time></trkpt><trkpt lat="42.958408" lon="19.578253"><ele>815.1</ele><time>2012-04-30T20:15:00.0000000+00:00</time></trkpt><trkpt lat="42.958408" lon="19.578253"><ele>815.0</ele><time>2012-04-30T20:15:05.0000000+00:00</time></trkpt><trkpt lat="42.958408" lon="19.578253"><ele>815.0</ele><time>2012-04-30T20:15:10.0000000+00:00</time></trkpt><trkpt lat="42.958408" lon="19.578253"><ele>815.0</ele><time>2012-04-30T20:15:15.0000000+00:00</time></trkpt><trkpt lat="42.958408" lon="19.578253"><ele>815.0</ele><time>2012-04-30T20:15:20.0000000+00:00</time></trkpt><trkpt lat="42.958408" lon="19.578253"><ele>815.0</ele><time>2012-04-30T20:15:25.0000000+00:00</time></trkpt><trkpt lat="42.958408" lon="19.578253"><ele>815.0</ele><time>2012-04-30T20:15:30.0000000+00:00</time></trkpt><trkpt lat="42.958408" lon="19.578255"><ele>815.0</ele><time>2012-04-30T20:15:35.0000000+00:00</time></trkpt><trkpt lat="42.958408" lon="19.578255"><ele>815.0</ele><time>2012-04-30T20:15:40.0000000+00:00</time></trkpt><trkpt lat="42.958408" lon="19.578255"><ele>815.0</ele><time>2012-04-30T20:15:45.0000000+00:00</time></trkpt></trkseg><trkseg><trkpt lat="43.158604" lon="19.301077"><ele>113.5</ele><time>2012-05-01T09:09:07.0000000+00:00</time></trkpt><trkpt lat="43.15863" lon="19.301088"><ele>113.6</ele><time>2012-05-01T09:09:12.0000000+00:00</time></trkpt><trkpt lat="43.158665" lon="19.301252"><ele>113.7</ele><time>2012-05-01T09:09:17.0000000+00:00</time></trkpt><trkpt lat="43.158966" lon="19.293825"><ele>847.9</ele><time>2012-05-01T09:09:24.0000000+00:00</time></trkpt><trkpt lat="43.158958" lon="19.293974"><ele>820.2</ele><time>2012-05-01T09:09:29.0000000+00:00</time></trkpt><trkpt lat="43.158966" lon="19.294035"><ele>826.0</ele><time>2012-05-01T09:09:34.0000000+00:00</time></trkpt><trkpt lat="43.15889" lon="19.293991"><ele>830.2</ele><time>2012-05-01T09:09:39.0000000+00:00</time></trkpt><trkpt lat="43.158669" lon="19.29393"><ele>829.1</ele><time>2012-05-01T09:09:44.0000000+00:00</time></trkpt><trkpt lat="43.158409" lon="19.294033"><ele>828.3</ele><time>2012-05-01T09:09:49.0000000+00:00</time></trkpt><trkpt lat="43.158127" lon="19.294188"><ele>830.3</ele><time>2012-05-01T09:09:54.0000000+00:00</time></trkpt><trkpt lat="43.157894" lon="19.294466"><ele>830.2</ele><time>2012-05-01T09:09:59.0000000+00:00</time></trkpt><trkpt lat="43.15773" lon="19.294771"><ele>828.5</ele><time>2012-05-01T09:10:04.0000000+00:00</time></trkpt><trkpt lat="43.157627" lon="19.295126"><ele>826.8</ele><time>2012-05-01T09:10:09.0000000+00:00</time></trkpt><trkpt lat="43.15752" lon="19.295528"><ele>824.5</ele><time>2012-05-01T09:10:14.0000000+00:00</time></trkpt><trkpt lat="43.157337" lon="19.29594"><ele>823.5</ele><time>2012-05-01T09:10:19.0000000+00:00</time></trkpt><trkpt lat="43.157021" lon="19.296276"><ele>821.1</ele><time>2012-05-01T09:10:24.0000000+00:00</time></trkpt><trkpt lat="43.156593" lon="19.296412"><ele>817.2</ele><time>2012-05-01T09:10:29.0000000+00:00</time></trkpt><trkpt lat="43.1562" lon="19.296425"><ele>814.0</ele><time>2012-05-01T09:10:34.0000000+00:00</time></trkpt><trkpt lat="43.155781" lon="19.296343"><ele>810.7</ele><time>2012-05-01T09:10:39.0000000+00:00</time></trkpt><trkpt lat="43.155331" lon="19.296154"><ele>806.9</ele><time>2012-05-01T09:10:44.0000000+00:00</time></trkpt><trkpt lat="43.154892" lon="19.295845"><ele>803.1</ele><time>2012-05-01T09:10:49.0000000+00:00</time></trkpt><trkpt lat="43.154499" lon="19.295584"><ele>799.9</ele><time>2012-05-01T09:10:54.0000000+00:00</time></trkpt><trkpt lat="43.154083" lon="19.295462"><ele>797.2</ele><time>2012-05-01T09:10:59.0000000+00:00</time></trkpt><trkpt lat="43.153706" lon="19.295586"><ele>794.3</ele><time>2012-05-01T09:11:04.0000000+00:00</time></trkpt><trkpt lat="43.153378" lon="19.295868"><ele>791.5</ele><time>2012-05-01T09:11:09.0000000+00:00</time></trkpt><trkpt lat="43.153015" lon="19.29612"><ele>787.2</ele><time>2012-05-01T09:11:14.0000000+00:00</time></trkpt><trkpt lat="43.152573" lon="19.296198"><ele>782.9</ele><time>2012-05-01T09:11:19.0000000+00:00</time></trkpt><trkpt lat="43.152111" lon="19.296072"><ele>780.1</ele><time>2012-05-01T09:11:24.0000000+00:00</time></trkpt><trkpt lat="43.151634" lon="19.296032"><ele>776.0</ele><time>2012-05-01T09:11:29.0000000+00:00</time></trkpt><trkpt lat="43.151184" lon="19.295967"><ele>772.9</ele><time>2012-05-01T09:11:34.0000000+00:00</time></trkpt><trkpt lat="43.150806" lon="19.29575"><ele>770.1</ele><time>2012-05-01T09:11:39.0000000+00:00</time></trkpt><trkpt lat="43.150543" lon="19.295454"><ele>770.4</ele><time>2012-05-01T09:11:44.0000000+00:00</time></trkpt><trkpt lat="43.150314" lon="19.295183"><ele>772.8</ele><time>2012-05-01T09:11:49.0000000+00:00</time></trkpt><trkpt lat="43.150093" lon="19.294933"><ele>772.4</ele><time>2012-05-01T09:11:54.0000000+00:00</time></trkpt><trkpt lat="43.149837" lon="19.294641"><ele>771.7</ele><time>2012-05-01T09:11:59.0000000+00:00</time></trkpt><trkpt lat="43.149647" lon="19.294384"><ele>772.4</ele><time>2012-05-01T09:12:04.0000000+00:00</time></trkpt><trkpt lat="43.149483" lon="19.294128"><ele>773.7</ele><time>2012-05-01T09:12:09.0000000+00:00</time></trkpt><trkpt lat="43.149345" lon="19.293913"><ele>775.2</ele><time>2012-05-01T09:12:14.0000000+00:00</time></trkpt><trkpt lat="43.149204" lon="19.293674"><ele>774.9</ele><time>2012-05-01T09:12:19.0000000+00:00</time></trkpt><trkpt lat="43.149055" lon="19.293406"><ele>774.1</ele><time>2012-05-01T09:12:24.0000000+00:00</time></trkpt><trkpt lat="43.148926" lon="19.293131"><ele>773.7</ele><time>2012-05-01T09:12:29.0000000+00:00</time></trkpt><trkpt lat="43.148827" lon="19.292892"><ele>773.8</ele><time>2012-05-01T09:12:34.0000000+00:00</time></trkpt><trkpt lat="43.148754" lon="19.292688"><ele>775.1</ele><time>2012-05-01T09:12:39.0000000+00:00</time></trkpt><trkpt lat="43.148682" lon="19.292471"><ele>777.5</ele><time>2012-05-01T09:12:44.0000000+00:00</time></trkpt><trkpt lat="43.148624" lon="19.292257"><ele>779.4</ele><time>2012-05-01T09:12:49.0000000+00:00</time></trkpt><trkpt lat="43.14864" lon="19.292084"><ele>782.6</ele><time>2012-05-01T09:12:54.0000000+00:00</time></trkpt><trkpt lat="43.148628" lon="19.291943"><ele>783.7</ele><time>2012-05-01T09:12:59.0000000+00:00</time></trkpt><trkpt lat="43.148651" lon="19.291733"><ele>785.1</ele><time>2012-05-01T09:13:04.0000000+00:00</time></trkpt><trkpt lat="43.148685" lon="19.291531"><ele>787.1</ele><time>2012-05-01T09:13:09.0000000+00:00</time></trkpt><trkpt lat="43.148724" lon="19.29134"><ele>789.2</ele><time>2012-05-01T09:13:14.0000000+00:00</time></trkpt><trkpt lat="43.14875" lon="19.291155"><ele>791.0</ele><time>2012-05-01T09:13:19.0000000+00:00</time></trkpt><trkpt lat="43.148773" lon="19.29097"><ele>792.9</ele><time>2012-05-01T09:13:24.0000000+00:00</time></trkpt><trkpt lat="43.148811" lon="19.290787"><ele>796.8</ele><time>2012-05-01T09:13:29.0000000+00:00</time></trkpt><trkpt lat="43.148849" lon="19.290602"><ele>801.3</ele><time>2012-05-01T09:13:34.0000000+00:00</time></trkpt><trkpt lat="43.14888" lon="19.290422"><ele>802.9</ele><time>2012-05-01T09:13:39.0000000+00:00</time></trkpt><trkpt lat="43.148911" lon="19.290237"><ele>801.8</ele><time>2012-05-01T09:13:44.0000000+00:00</time></trkpt><trkpt lat="43.148941" lon="19.290054"><ele>799.9</ele><time>2012-05-01T09:13:49.0000000+00:00</time></trkpt><trkpt lat="43.148918" lon="19.289915"><ele>801.4</ele><time>2012-05-01T09:13:54.0000000+00:00</time></trkpt><trkpt lat="43.148842" lon="19.289789"><ele>801.3</ele><time>2012-05-01T09:13:59.0000000+00:00</time></trkpt><trkpt lat="43.148781" lon="19.289701"><ele>801.3</ele><time>2012-05-01T09:14:04.0000000+00:00</time></trkpt><trkpt lat="43.148697" lon="19.289598"><ele>802.4</ele><time>2012-05-01T09:14:09.0000000+00:00</time></trkpt><trkpt lat="43.148609" lon="19.289518"><ele>802.2</ele><time>2012-05-01T09:14:14.0000000+00:00</time></trkpt><trkpt lat="43.148525" lon="19.289488"><ele>804.3</ele><time>2012-05-01T09:14:19.0000000+00:00</time></trkpt><trkpt lat="43.148422" lon="19.289581"><ele>805.0</ele><time>2012-05-01T09:14:24.0000000+00:00</time></trkpt><trkpt lat="43.148392" lon="19.289732"><ele>806.1</ele><time>2012-05-01T09:14:29.0000000+00:00</time></trkpt><trkpt lat="43.148415" lon="19.28986"><ele>807.2</ele><time>2012-05-01T09:14:34.0000000+00:00</time></trkpt><trkpt lat="43.148438" lon="19.289997"><ele>808.5</ele><time>2012-05-01T09:14:39.0000000+00:00</time></trkpt><trkpt lat="43.148441" lon="19.290133"><ele>809.7</ele><time>2012-05-01T09:14:44.0000000+00:00</time></trkpt><trkpt lat="43.148426" lon="19.290287"><ele>809.9</ele><time>2012-05-01T09:14:49.0000000+00:00</time></trkpt><trkpt lat="43.148418" lon="19.290445"><ele>809.3</ele><time>2012-05-01T09:14:54.0000000+00:00</time></trkpt><trkpt lat="43.148338" lon="19.290575"><ele>810.1</ele><time>2012-05-01T09:14:59.0000000+00:00</time></trkpt><trkpt lat="43.148228" lon="19.290668"><ele>811.6</ele><time>2012-05-01T09:15:04.0000000+00:00</time></trkpt><trkpt lat="43.14819" lon="19.290707"><ele>811.7</ele><time>2012-05-01T09:15:09.0000000+00:00</time></trkpt><trkpt lat="43.14819" lon="19.290707"><ele>811.5</ele><time>2012-05-01T09:15:14.0000000+00:00</time></trkpt><trkpt lat="43.14819" lon="19.290707"><ele>811.4</ele><time>2012-05-01T09:15:19.0000000+00:00</time></trkpt><trkpt lat="43.14819" lon="19.290707"><ele>811.4</ele><time>2012-05-01T09:15:24.0000000+00:00</time></trkpt><trkpt lat="43.14819" lon="19.290707"><ele>811.3</ele><time>2012-05-01T09:15:29.0000000+00:00</time></trkpt><trkpt lat="43.14819" lon="19.290705"><ele>811.3</ele><time>2012-05-01T09:15:34.0000000+00:00</time></trkpt><trkpt lat="43.14819" lon="19.290705"><ele>811.1</ele><time>2012-05-01T09:15:39.0000000+00:00</time></trkpt><trkpt lat="43.148163" lon="19.290716"><ele>811.2</ele><time>2012-05-01T09:15:44.0000000+00:00</time></trkpt><trkpt lat="43.148163" lon="19.290716"><ele>811.2</ele><time>2012-05-01T09:15:49.0000000+00:00</time></trkpt><trkpt lat="43.148159" lon="19.290718"><ele>811.3</ele><time>2012-05-01T09:15:54.0000000+00:00</time></trkpt><trkpt lat="43.148159" lon="19.290718"><ele>811.3</ele><time>2012-05-01T09:15:59.0000000+00:00</time></trkpt><trkpt lat="43.148163" lon="19.290716"><ele>811.3</ele><time>2012-05-01T09:16:04.0000000+00:00</time></trkpt><trkpt lat="43.148163" lon="19.290714"><ele>811.2</ele><time>2012-05-01T09:16:09.0000000+00:00</time></trkpt><trkpt lat="43.148163" lon="19.290714"><ele>811.2</ele><time>2012-05-01T09:16:14.0000000+00:00</time></trkpt><trkpt lat="43.148163" lon="19.290714"><ele>811.2</ele><time>2012-05-01T09:16:19.0000000+00:00</time></trkpt><trkpt lat="43.148163" lon="19.290714"><ele>811.2</ele><time>2012-05-01T09:16:24.0000000+00:00</time></trkpt><trkpt lat="43.148163" lon="19.290714"><ele>811.2</ele><time>2012-05-01T09:16:29.0000000+00:00</time></trkpt><trkpt lat="43.148163" lon="19.290714"><ele>811.2</ele><time>2012-05-01T09:16:34.0000000+00:00</time></trkpt><trkpt lat="43.148163" lon="19.290712"><ele>811.2</ele><time>2012-05-01T09:16:39.0000000+00:00</time></trkpt><trkpt lat="43.148163" lon="19.290712"><ele>811.2</ele><time>2012-05-01T09:16:44.0000000+00:00</time></trkpt><trkpt lat="43.148163" lon="19.290712"><ele>811.2</ele><time>2012-05-01T09:16:49.0000000+00:00</time></trkpt><trkpt lat="43.148163" lon="19.290712"><ele>811.1</ele><time>2012-05-01T09:16:54.0000000+00:00</time></trkpt><trkpt lat="43.148205" lon="19.290688"><ele>810.0</ele><time>2012-05-01T09:16:59.0000000+00:00</time></trkpt><trkpt lat="43.148254" lon="19.290628"><ele>809.7</ele><time>2012-05-01T09:17:04.0000000+00:00</time></trkpt><trkpt lat="43.148376" lon="19.290503"><ele>808.9</ele><time>2012-05-01T09:17:09.0000000+00:00</time></trkpt><trkpt lat="43.148422" lon="19.290274"><ele>806.6</ele><time>2012-05-01T09:17:14.0000000+00:00</time></trkpt><trkpt lat="43.148445" lon="19.29003"><ele>806.0</ele><time>2012-05-01T09:17:19.0000000+00:00</time></trkpt><trkpt lat="43.148411" lon="19.289751"><ele>804.0</ele><time>2012-05-01T09:17:24.0000000+00:00</time></trkpt><trkpt lat="43.148449" lon="19.289471"><ele>802.9</ele><time>2012-05-01T09:17:29.0000000+00:00</time></trkpt><trkpt lat="43.148636" lon="19.289505"><ele>802.3</ele><time>2012-05-01T09:17:34.0000000+00:00</time></trkpt><trkpt lat="43.148796" lon="19.289734"><ele>799.9</ele><time>2012-05-01T09:17:39.0000000+00:00</time></trkpt><trkpt lat="43.148918" lon="19.289873"><ele>798.3</ele><time>2012-05-01T09:17:44.0000000+00:00</time></trkpt><trkpt lat="43.149055" lon="19.289743"><ele>800.6</ele><time>2012-05-01T09:17:49.0000000+00:00</time></trkpt><trkpt lat="43.149227" lon="19.28956"><ele>803.0</ele><time>2012-05-01T09:17:54.0000000+00:00</time></trkpt><trkpt lat="43.149406" lon="19.28948"><ele>804.0</ele><time>2012-05-01T09:17:59.0000000+00:00</time></trkpt><trkpt lat="43.149521" lon="19.289465"><ele>804.5</ele><time>2012-05-01T09:18:04.0000000+00:00</time></trkpt><trkpt lat="43.14962" lon="19.289478"><ele>804.7</ele><time>2012-05-01T09:18:09.0000000+00:00</time></trkpt><trkpt lat="43.149731" lon="19.289513"><ele>804.8</ele><time>2012-05-01T09:18:14.0000000+00:00</time></trkpt><trkpt lat="43.14986" lon="19.28956"><ele>805.4</ele><time>2012-05-01T09:18:19.0000000+00:00</time></trkpt><trkpt lat="43.150013" lon="19.289598"><ele>806.6</ele><time>2012-05-01T09:18:24.0000000+00:00</time></trkpt><trkpt lat="43.15015" lon="19.289637"><ele>806.8</ele><time>2012-05-01T09:18:29.0000000+00:00</time></trkpt><trkpt lat="43.150295" lon="19.289669"><ele>807.7</ele><time>2012-05-01T09:18:34.0000000+00:00</time></trkpt><trkpt lat="43.150463" lon="19.289701"><ele>808.0</ele><time>2012-05-01T09:18:39.0000000+00:00</time></trkpt><trkpt lat="43.150597" lon="19.289707"><ele>808.6</ele><time>2012-05-01T09:18:44.0000000+00:00</time></trkpt><trkpt lat="43.150711" lon="19.289696"><ele>809.0</ele><time>2012-05-01T09:18:49.0000000+00:00</time></trkpt><trkpt lat="43.150826" lon="19.289673"><ele>810.0</ele><time>2012-05-01T09:18:54.0000000+00:00</time></trkpt><trkpt lat="43.150948" lon="19.289623"><ele>810.1</ele><time>2012-05-01T09:18:59.0000000+00:00</time></trkpt><trkpt lat="43.151073" lon="19.289543"><ele>810.9</ele><time>2012-05-01T09:19:04.0000000+00:00</time></trkpt><trkpt lat="43.15118" lon="19.289442"><ele>812.0</ele><time>2012-05-01T09:19:09.0000000+00:00</time></trkpt><trkpt lat="43.151276" lon="19.289337"><ele>812.0</ele><time>2012-05-01T09:19:14.0000000+00:00</time></trkpt><trkpt lat="43.151348" lon="19.289206"><ele>813.4</ele><time>2012-05-01T09:19:19.0000000+00:00</time></trkpt><trkpt lat="43.151421" lon="19.289074"><ele>814.5</ele><time>2012-05-01T09:19:24.0000000+00:00</time></trkpt><trkpt lat="43.151497" lon="19.288952"><ele>815.1</ele><time>2012-05-01T09:19:29.0000000+00:00</time></trkpt><trkpt lat="43.151558" lon="19.288813"><ele>816.7</ele><time>2012-05-01T09:19:34.0000000+00:00</time></trkpt><trkpt lat="43.151638" lon="19.288692"><ele>817.4</ele><time>2012-05-01T09:19:39.0000000+00:00</time></trkpt><trkpt lat="43.151714" lon="19.288574"><ele>817.9</ele><time>2012-05-01T09:19:44.0000000+00:00</time></trkpt><trkpt lat="43.151791" lon="19.288446"><ele>819.2</ele><time>2012-05-01T09:19:49.0000000+00:00</time></trkpt><trkpt lat="43.151852" lon="19.288322"><ele>821.1</ele><time>2012-05-01T09:19:54.0000000+00:00</time></trkpt><trkpt lat="43.15192" lon="19.288187"><ele>822.3</ele><time>2012-05-01T09:19:59.0000000+00:00</time></trkpt><trkpt lat="43.151978" lon="19.288055"><ele>823.4</ele><time>2012-05-01T09:20:04.0000000+00:00</time></trkpt><trkpt lat="43.152023" lon="19.287905"><ele>824.4</ele><time>2012-05-01T09:20:09.0000000+00:00</time></trkpt><trkpt lat="43.152042" lon="19.287746"><ele>825.3</ele><time>2012-05-01T09:20:14.0000000+00:00</time></trkpt><trkpt lat="43.152031" lon="19.287573"><ele>826.4</ele><time>2012-05-01T09:20:19.0000000+00:00</time></trkpt><trkpt lat="43.152004" lon="19.287409"><ele>826.4</ele><time>2012-05-01T09:20:24.0000000+00:00</time></trkpt><trkpt lat="43.151978" lon="19.287266"><ele>826.8</ele><time>2012-05-01T09:20:29.0000000+00:00</time></trkpt><trkpt lat="43.151924" lon="19.287125"><ele>827.3</ele><time>2012-05-01T09:20:34.0000000+00:00</time></trkpt><trkpt lat="43.151859" lon="19.286985"><ele>828.1</ele><time>2012-05-01T09:20:39.0000000+00:00</time></trkpt><trkpt lat="43.151802" lon="19.286863"><ele>828.6</ele><time>2012-05-01T09:20:44.0000000+00:00</time></trkpt><trkpt lat="43.151737" lon="19.286722"><ele>829.5</ele><time>2012-05-01T09:20:49.0000000+00:00</time></trkpt><trkpt lat="43.151688" lon="19.286581"><ele>829.7</ele><time>2012-05-01T09:20:54.0000000+00:00</time></trkpt><trkpt lat="43.151634" lon="19.286434"><ele>830.3</ele><time>2012-05-01T09:20:59.0000000+00:00</time></trkpt><trkpt lat="43.151604" lon="19.286287"><ele>830.8</ele><time>2012-05-01T09:21:04.0000000+00:00</time></trkpt><trkpt lat="43.151566" lon="19.286125"><ele>831.1</ele><time>2012-05-01T09:21:09.0000000+00:00</time></trkpt><trkpt lat="43.151539" lon="19.285973"><ele>831.4</ele><time>2012-05-01T09:21:14.0000000+00:00</time></trkpt><trkpt lat="43.151516" lon="19.28582"><ele>832.1</ele><time>2012-05-01T09:21:19.0000000+00:00</time></trkpt><trkpt lat="43.151493" lon="19.285656"><ele>832.5</ele><time>2012-05-01T09:21:24.0000000+00:00</time></trkpt><trkpt lat="43.151474" lon="19.28549"><ele>833.0</ele><time>2012-05-01T09:21:29.0000000+00:00</time></trkpt><trkpt lat="43.151478" lon="19.285324"><ele>833.5</ele><time>2012-05-01T09:21:34.0000000+00:00</time></trkpt><trkpt lat="43.151485" lon="19.285162"><ele>834.3</ele><time>2012-05-01T09:21:39.0000000+00:00</time></trkpt><trkpt lat="43.151524" lon="19.285015"><ele>835.1</ele><time>2012-05-01T09:21:44.0000000+00:00</time></trkpt><trkpt lat="43.151566" lon="19.28488"><ele>837.2</ele><time>2012-05-01T09:21:49.0000000+00:00</time></trkpt><trkpt lat="43.151615" lon="19.284727"><ele>837.9</ele><time>2012-05-01T09:21:54.0000000+00:00</time></trkpt><trkpt lat="43.151657" lon="19.28459"><ele>839.4</ele><time>2012-05-01T09:21:59.0000000+00:00</time></trkpt><trkpt lat="43.151684" lon="19.284435"><ele>841.6</ele><time>2012-05-01T09:22:04.0000000+00:00</time></trkpt><trkpt lat="43.151699" lon="19.284269"><ele>842.2</ele><time>2012-05-01T09:22:09.0000000+00:00</time></trkpt><trkpt lat="43.151691" lon="19.284105"><ele>844.6</ele><time>2012-05-01T09:22:14.0000000+00:00</time></trkpt><trkpt lat="43.151695" lon="19.28392"><ele>844.7</ele><time>2012-05-01T09:22:19.0000000+00:00</time></trkpt><trkpt lat="43.151684" lon="19.283735"><ele>844.8</ele><time>2012-05-01T09:22:24.0000000+00:00</time></trkpt><trkpt lat="43.151657" lon="19.283569"><ele>846.4</ele><time>2012-05-01T09:22:29.0000000+00:00</time></trkpt><trkpt lat="43.151661" lon="19.283405"><ele>846.9</ele><time>2012-05-01T09:22:34.0000000+00:00</time></trkpt><trkpt lat="43.15168" lon="19.283253"><ele>847.5</ele><time>2012-05-01T09:22:39.0000000+00:00</time></trkpt><trkpt lat="43.151722" lon="19.28311"><ele>847.9</ele><time>2012-05-01T09:22:44.0000000+00:00</time></trkpt><trkpt lat="43.151764" lon="19.282967"><ele>849.0</ele><time>2012-05-01T09:22:49.0000000+00:00</time></trkpt><trkpt lat="43.151794" lon="19.282843"><ele>851.1</ele><time>2012-05-01T09:22:54.0000000+00:00</time></trkpt><trkpt lat="43.151829" lon="19.282694"><ele>853.6</ele><time>2012-05-01T09:22:59.0000000+00:00</time></trkpt><trkpt lat="43.15184" lon="19.282547"><ele>855.2</ele><time>2012-05-01T09:23:04.0000000+00:00</time></trkpt><trkpt lat="43.15184" lon="19.282326"><ele>852.6</ele><time>2012-05-01T09:23:09.0000000+00:00</time></trkpt><trkpt lat="43.151814" lon="19.282124"><ele>852.2</ele><time>2012-05-01T09:23:14.0000000+00:00</time></trkpt><trkpt lat="43.151783" lon="19.2819"><ele>851.1</ele><time>2012-05-01T09:23:19.0000000+00:00</time></trkpt><trkpt lat="43.151726" lon="19.281696"><ele>850.9</ele><time>2012-05-01T09:23:24.0000000+00:00</time></trkpt><trkpt lat="43.151676" lon="19.281471"><ele>850.9</ele><time>2012-05-01T09:23:29.0000000+00:00</time></trkpt><trkpt lat="43.151615" lon="19.281244"><ele>850.9</ele><time>2012-05-01T09:23:34.0000000+00:00</time></trkpt><trkpt lat="43.151546" lon="19.280991"><ele>850.6</ele><time>2012-05-01T09:23:39.0000000+00:00</time></trkpt><trkpt lat="43.151531" lon="19.280724"><ele>851.0</ele><time>2012-05-01T09:23:44.0000000+00:00</time></trkpt><trkpt lat="43.151543" lon="19.280466"><ele>851.5</ele><time>2012-05-01T09:23:49.0000000+00:00</time></trkpt><trkpt lat="43.151566" lon="19.28021"><ele>852.2</ele><time>2012-05-01T09:23:54.0000000+00:00</time></trkpt><trkpt lat="43.151581" lon="19.279959"><ele>853.9</ele><time>2012-05-01T09:23:59.0000000+00:00</time></trkpt><trkpt lat="43.151588" lon="19.279711"><ele>851.8</ele><time>2012-05-01T09:24:04.0000000+00:00</time></trkpt><trkpt lat="43.151585" lon="19.279467"><ele>849.4</ele><time>2012-05-01T09:24:09.0000000+00:00</time></trkpt><trkpt lat="43.151577" lon="19.279221"><ele>847.4</ele><time>2012-05-01T09:24:14.0000000+00:00</time></trkpt><trkpt lat="43.151581" lon="19.278973"><ele>848.5</ele><time>2012-05-01T09:24:19.0000000+00:00</time></trkpt><trkpt lat="43.151596" lon="19.278728"><ele>849.6</ele><time>2012-05-01T09:24:24.0000000+00:00</time></trkpt><trkpt lat="43.151608" lon="19.278484"><ele>850.1</ele><time>2012-05-01T09:24:29.0000000+00:00</time></trkpt><trkpt lat="43.151642" lon="19.278246"><ele>850.2</ele><time>2012-05-01T09:24:34.0000000+00:00</time></trkpt><trkpt lat="43.151699" lon="19.278025"><ele>850.8</ele><time>2012-05-01T09:24:39.0000000+00:00</time></trkpt><trkpt lat="43.151794" lon="19.277828"><ele>851.3</ele><time>2012-05-01T09:24:44.0000000+00:00</time></trkpt><trkpt lat="43.15192" lon="19.277683"><ele>852.6</ele><time>2012-05-01T09:24:49.0000000+00:00</time></trkpt><trkpt lat="43.152061" lon="19.277565"><ele>853.2</ele><time>2012-05-01T09:24:54.0000000+00:00</time></trkpt><trkpt lat="43.152164" lon="19.277422"><ele>853.2</ele><time>2012-05-01T09:24:59.0000000+00:00</time></trkpt><trkpt lat="43.152145" lon="19.277229"><ele>853.5</ele><time>2012-05-01T09:25:04.0000000+00:00</time></trkpt><trkpt lat="43.152012" lon="19.277157"><ele>853.7</ele><time>2012-05-01T09:25:09.0000000+00:00</time></trkpt><trkpt lat="43.151901" lon="19.277256"><ele>854.1</ele><time>2012-05-01T09:25:14.0000000+00:00</time></trkpt><trkpt lat="43.151806" lon="19.277401"><ele>854.8</ele><time>2012-05-01T09:25:19.0000000+00:00</time></trkpt><trkpt lat="43.151711" lon="19.277531"><ele>855.1</ele><time>2012-05-01T09:25:24.0000000+00:00</time></trkpt><trkpt lat="43.15163" lon="19.277639"><ele>855.2</ele><time>2012-05-01T09:25:29.0000000+00:00</time></trkpt><trkpt lat="43.151573" lon="19.277754"><ele>856.8</ele><time>2012-05-01T09:25:34.0000000+00:00</time></trkpt><trkpt lat="43.15152" lon="19.277874"><ele>858.0</ele><time>2012-05-01T09:25:39.0000000+00:00</time></trkpt><trkpt lat="43.151485" lon="19.277998"><ele>859.4</ele><time>2012-05-01T09:25:44.0000000+00:00</time></trkpt><trkpt lat="43.151463" lon="19.278145"><ele>859.8</ele><time>2012-05-01T09:25:49.0000000+00:00</time></trkpt><trkpt lat="43.151443" lon="19.278318"><ele>860.0</ele><time>2012-05-01T09:25:54.0000000+00:00</time></trkpt><trkpt lat="43.151424" lon="19.278482"><ele>859.7</ele><time>2012-05-01T09:25:59.0000000+00:00</time></trkpt><trkpt lat="43.151405" lon="19.278625"><ele>859.6</ele><time>2012-05-01T09:26:04.0000000+00:00</time></trkpt><trkpt lat="43.151367" lon="19.27878"><ele>859.4</ele><time>2012-05-01T09:26:09.0000000+00:00</time></trkpt><trkpt lat="43.151337" lon="19.278912"><ele>860.4</ele><time>2012-05-01T09:26:14.0000000+00:00</time></trkpt><trkpt lat="43.151306" lon="19.279022"><ele>861.5</ele><time>2012-05-01T09:26:19.0000000+00:00</time></trkpt><trkpt lat="43.151283" lon="19.279142"><ele>863.3</ele><time>2012-05-01T09:26:24.0000000+00:00</time></trkpt><trkpt lat="43.151249" lon="19.279291"><ele>862.4</ele><time>2012-05-01T09:26:29.0000000+00:00</time></trkpt><trkpt lat="43.151234" lon="19.279442"><ele>863.3</ele><time>2012-05-01T09:26:34.0000000+00:00</time></trkpt><trkpt lat="43.151211" lon="19.279579"><ele>863.4</ele><time>2012-05-01T09:26:39.0000000+00:00</time></trkpt><trkpt lat="43.151188" lon="19.279711"><ele>863.7</ele><time>2012-05-01T09:26:44.0000000+00:00</time></trkpt><trkpt lat="43.151169" lon="19.279839"><ele>863.6</ele><time>2012-05-01T09:26:49.0000000+00:00</time></trkpt><trkpt lat="43.15115" lon="19.279947"><ele>864.3</ele><time>2012-05-01T09:26:54.0000000+00:00</time></trkpt><trkpt lat="43.151131" lon="19.280066"><ele>865.9</ele><time>2012-05-01T09:26:59.0000000+00:00</time></trkpt><trkpt lat="43.151104" lon="19.280167"><ele>867.3</ele><time>2012-05-01T09:27:04.0000000+00:00</time></trkpt><trkpt lat="43.151119" lon="19.28034"><ele>868.9</ele><time>2012-05-01T09:27:09.0000000+00:00</time></trkpt><trkpt lat="43.151108" lon="19.280476"><ele>870.1</ele><time>2012-05-01T09:27:14.0000000+00:00</time></trkpt><trkpt lat="43.151093" lon="19.280605"><ele>871.4</ele><time>2012-05-01T09:27:19.0000000+00:00</time></trkpt><trkpt lat="43.151085" lon="19.28071"><ele>870.6</ele><time>2012-05-01T09:27:24.0000000+00:00</time></trkpt><trkpt lat="43.151073" lon="19.280884"><ele>870.8</ele><time>2012-05-01T09:27:29.0000000+00:00</time></trkpt><trkpt lat="43.151073" lon="19.281027"><ele>871.8</ele><time>2012-05-01T09:27:34.0000000+00:00</time></trkpt><trkpt lat="43.151096" lon="19.281151"><ele>873.5</ele><time>2012-05-01T09:27:39.0000000+00:00</time></trkpt><trkpt lat="43.151112" lon="19.281282"><ele>873.8</ele><time>2012-05-01T09:27:44.0000000+00:00</time></trkpt><trkpt lat="43.151104" lon="19.281408"><ele>872.1</ele><time>2012-05-01T09:27:49.0000000+00:00</time></trkpt><trkpt lat="43.151112" lon="19.281549"><ele>872.3</ele><time>2012-05-01T09:27:54.0000000+00:00</time></trkpt><trkpt lat="43.151131" lon="19.281694"><ele>873.4</ele><time>2012-05-01T09:27:59.0000000+00:00</time></trkpt><trkpt lat="43.151131" lon="19.281849"><ele>873.6</ele><time>2012-05-01T09:28:04.0000000+00:00</time></trkpt><trkpt lat="43.151134" lon="19.281992"><ele>874.0</ele><time>2012-05-01T09:28:09.0000000+00:00</time></trkpt><trkpt lat="43.15115" lon="19.282171"><ele>872.1</ele><time>2012-05-01T09:28:14.0000000+00:00</time></trkpt><trkpt lat="43.151146" lon="19.282318"><ele>872.0</ele><time>2012-05-01T09:28:19.0000000+00:00</time></trkpt><trkpt lat="43.151119" lon="19.282454"><ele>872.4</ele><time>2012-05-01T09:28:24.0000000+00:00</time></trkpt><trkpt lat="43.151081" lon="19.282581"><ele>872.9</ele><time>2012-05-01T09:28:29.0000000+00:00</time></trkpt><trkpt lat="43.151035" lon="19.282692"><ele>873.2</ele><time>2012-05-01T09:28:34.0000000+00:00</time></trkpt><trkpt lat="43.150974" lon="19.282793"><ele>873.5</ele><time>2012-05-01T09:28:39.0000000+00:00</time></trkpt><trkpt lat="43.150913" lon="19.282898"><ele>874.2</ele><time>2012-05-01T09:28:44.0000000+00:00</time></trkpt><trkpt lat="43.150848" lon="19.283016"><ele>875.0</ele><time>2012-05-01T09:28:49.0000000+00:00</time></trkpt><trkpt lat="43.150784" lon="19.283129"><ele>875.9</ele><time>2012-05-01T09:28:54.0000000+00:00</time></trkpt><trkpt lat="43.150726" lon="19.283237"><ele>876.8</ele><time>2012-05-01T09:28:59.0000000+00:00</time></trkpt><trkpt lat="43.150681" lon="19.283363"><ele>877.5</ele><time>2012-05-01T09:29:04.0000000+00:00</time></trkpt><trkpt lat="43.15062" lon="19.283463"><ele>878.4</ele><time>2012-05-01T09:29:09.0000000+00:00</time></trkpt><trkpt lat="43.150566" lon="19.283571"><ele>879.2</ele><time>2012-05-01T09:29:14.0000000+00:00</time></trkpt><trkpt lat="43.150539" lon="19.283714"><ele>879.5</ele><time>2012-05-01T09:29:19.0000000+00:00</time></trkpt><trkpt lat="43.15052" lon="19.283869"><ele>879.6</ele><time>2012-05-01T09:29:24.0000000+00:00</time></trkpt><trkpt lat="43.150501" lon="19.284006"><ele>880.1</ele><time>2012-05-01T09:29:29.0000000+00:00</time></trkpt><trkpt lat="43.150467" lon="19.284124"><ele>880.5</ele><time>2012-05-01T09:29:34.0000000+00:00</time></trkpt><trkpt lat="43.15044" lon="19.284239"><ele>882.2</ele><time>2012-05-01T09:29:39.0000000+00:00</time></trkpt><trkpt lat="43.150425" lon="19.284361"><ele>883.1</ele><time>2012-05-01T09:29:44.0000000+00:00</time></trkpt><trkpt lat="43.150398" lon="19.284475"><ele>884.3</ele><time>2012-05-01T09:29:49.0000000+00:00</time></trkpt><trkpt lat="43.150383" lon="19.284609"><ele>885.5</ele><time>2012-05-01T09:29:54.0000000+00:00</time></trkpt><trkpt lat="43.150372" lon="19.284737"><ele>886.6</ele><time>2012-05-01T09:29:59.0000000+00:00</time></trkpt><trkpt lat="43.15036" lon="19.284901"><ele>886.9</ele><time>2012-05-01T09:30:04.0000000+00:00</time></trkpt><trkpt lat="43.150352" lon="19.285042"><ele>887.4</ele><time>2012-05-01T09:30:09.0000000+00:00</time></trkpt><trkpt lat="43.150364" lon="19.285227"><ele>887.5</ele><time>2012-05-01T09:30:14.0000000+00:00</time></trkpt><trkpt lat="43.150364" lon="19.285372"><ele>887.9</ele><time>2012-05-01T09:30:19.0000000+00:00</time></trkpt><trkpt lat="43.150364" lon="19.285519"><ele>888.5</ele><time>2012-05-01T09:30:24.0000000+00:00</time></trkpt><trkpt lat="43.150364" lon="19.28565"><ele>889.5</ele><time>2012-05-01T09:30:29.0000000+00:00</time></trkpt><trkpt lat="43.150372" lon="19.285803"><ele>889.7</ele><time>2012-05-01T09:30:34.0000000+00:00</time></trkpt><trkpt lat="43.150375" lon="19.285944"><ele>890.0</ele><time>2012-05-01T09:30:39.0000000+00:00</time></trkpt><trkpt lat="43.150387" lon="19.286089"><ele>890.9</ele><time>2012-05-01T09:30:44.0000000+00:00</time></trkpt><trkpt lat="43.150398" lon="19.286236"><ele>890.8</ele><time>2012-05-01T09:30:49.0000000+00:00</time></trkpt><trkpt lat="43.150436" lon="19.286398"><ele>891.7</ele><time>2012-05-01T09:30:54.0000000+00:00</time></trkpt><trkpt lat="43.150471" lon="19.286537"><ele>893.4</ele><time>2012-05-01T09:30:59.0000000+00:00</time></trkpt><trkpt lat="43.15049" lon="19.286648"><ele>895.3</ele><time>2012-05-01T09:31:04.0000000+00:00</time></trkpt><trkpt lat="43.150517" lon="19.286768"><ele>896.9</ele><time>2012-05-01T09:31:09.0000000+00:00</time></trkpt><trkpt lat="43.150566" lon="19.286896"><ele>898.9</ele><time>2012-05-01T09:31:14.0000000+00:00</time></trkpt><trkpt lat="43.150631" lon="19.287024"><ele>900.0</ele><time>2012-05-01T09:31:19.0000000+00:00</time></trkpt><trkpt lat="43.150688" lon="19.287153"><ele>902.4</ele><time>2012-05-01T09:31:24.0000000+00:00</time></trkpt><trkpt lat="43.150719" lon="19.287298"><ele>904.0</ele><time>2012-05-01T09:31:29.0000000+00:00</time></trkpt><trkpt lat="43.15065" lon="19.287401"><ele>903.7</ele><time>2012-05-01T09:31:34.0000000+00:00</time></trkpt><trkpt lat="43.150566" lon="19.287346"><ele>904.0</ele><time>2012-05-01T09:31:39.0000000+00:00</time></trkpt><trkpt lat="43.150539" lon="19.287228"><ele>904.8</ele><time>2012-05-01T09:31:44.0000000+00:00</time></trkpt><trkpt lat="43.150505" lon="19.287024"><ele>906.4</ele><time>2012-05-01T09:31:49.0000000+00:00</time></trkpt><trkpt lat="43.150475" lon="19.286837"><ele>907.3</ele><time>2012-05-01T09:31:54.0000000+00:00</time></trkpt><trkpt lat="43.150433" lon="19.286678"><ele>908.1</ele><time>2012-05-01T09:31:59.0000000+00:00</time></trkpt><trkpt lat="43.150398" lon="19.286505"><ele>908.6</ele><time>2012-05-01T09:32:04.0000000+00:00</time></trkpt><trkpt lat="43.150352" lon="19.286348"><ele>908.9</ele><time>2012-05-01T09:32:09.0000000+00:00</time></trkpt><trkpt lat="43.150318" lon="19.28619"><ele>908.6</ele><time>2012-05-01T09:32:14.0000000+00:00</time></trkpt><trkpt lat="43.150284" lon="19.286015"><ele>907.9</ele><time>2012-05-01T09:32:19.0000000+00:00</time></trkpt><trkpt lat="43.150257" lon="19.285841"><ele>908.0</ele><time>2012-05-01T09:32:24.0000000+00:00</time></trkpt><trkpt lat="43.150242" lon="19.285671"><ele>908.9</ele><time>2012-05-01T09:32:29.0000000+00:00</time></trkpt><trkpt lat="43.15023" lon="19.285505"><ele>909.4</ele><time>2012-05-01T09:32:34.0000000+00:00</time></trkpt><trkpt lat="43.150234" lon="19.285353"><ele>910.2</ele><time>2012-05-01T09:32:39.0000000+00:00</time></trkpt><trkpt lat="43.150223" lon="19.285187"><ele>911.3</ele><time>2012-05-01T09:32:44.0000000+00:00</time></trkpt><trkpt lat="43.150208" lon="19.285011"><ele>912.6</ele><time>2012-05-01T09:32:49.0000000+00:00</time></trkpt><trkpt lat="43.150185" lon="19.284843"><ele>913.9</ele><time>2012-05-01T09:32:54.0000000+00:00</time></trkpt><trkpt lat="43.150158" lon="19.284664"><ele>914.8</ele><time>2012-05-01T09:32:59.0000000+00:00</time></trkpt><trkpt lat="43.15012" lon="19.284489"><ele>915.4</ele><time>2012-05-01T09:33:04.0000000+00:00</time></trkpt><trkpt lat="43.150101" lon="19.284317"><ele>915.8</ele><time>2012-05-01T09:33:09.0000000+00:00</time></trkpt><trkpt lat="43.150112" lon="19.284147"><ele>916.8</ele><time>2012-05-01T09:33:14.0000000+00:00</time></trkpt><trkpt lat="43.150112" lon="19.283968"><ele>916.1</ele><time>2012-05-01T09:33:19.0000000+00:00</time></trkpt><trkpt lat="43.150139" lon="19.283802"><ele>917.5</ele><time>2012-05-01T09:33:24.0000000+00:00</time></trkpt><trkpt lat="43.150166" lon="19.283621"><ele>917.3</ele><time>2012-05-01T09:33:29.0000000+00:00</time></trkpt><trkpt lat="43.150196" lon="19.283438"><ele>918.4</ele><time>2012-05-01T09:33:34.0000000+00:00</time></trkpt><trkpt lat="43.150234" lon="19.283239"><ele>918.8</ele><time>2012-05-01T09:33:39.0000000+00:00</time></trkpt><trkpt lat="43.150276" lon="19.283039"><ele>919.1</ele><time>2012-05-01T09:33:44.0000000+00:00</time></trkpt><trkpt lat="43.150311" lon="19.282858"><ele>919.9</ele><time>2012-05-01T09:33:49.0000000+00:00</time></trkpt><trkpt lat="43.150349" lon="19.282675"><ele>920.8</ele><time>2012-05-01T09:33:54.0000000+00:00</time></trkpt><trkpt lat="43.150387" lon="19.282488"><ele>923.5</ele><time>2012-05-01T09:33:59.0000000+00:00</time></trkpt><trkpt lat="43.150406" lon="19.282303"><ele>924.6</ele><time>2012-05-01T09:34:04.0000000+00:00</time></trkpt><trkpt lat="43.150417" lon="19.282116"><ele>926.7</ele><time>2012-05-01T09:34:09.0000000+00:00</time></trkpt><trkpt lat="43.150421" lon="19.281914"><ele>928.9</ele><time>2012-05-01T09:34:14.0000000+00:00</time></trkpt><trkpt lat="43.150425" lon="19.281717"><ele>930.4</ele><time>2012-05-01T09:34:19.0000000+00:00</time></trkpt><trkpt lat="43.150421" lon="19.281521"><ele>931.9</ele><time>2012-05-01T09:34:24.0000000+00:00</time></trkpt><trkpt lat="43.150406" lon="19.281349"><ele>932.2</ele><time>2012-05-01T09:34:29.0000000+00:00</time></trkpt><trkpt lat="43.150379" lon="19.281174"><ele>933.3</ele><time>2012-05-01T09:34:34.0000000+00:00</time></trkpt><trkpt lat="43.150345" lon="19.280998"><ele>933.4</ele><time>2012-05-01T09:34:39.0000000+00:00</time></trkpt><trkpt lat="43.150311" lon="19.280876"><ele>933.6</ele><time>2012-05-01T09:34:44.0000000+00:00</time></trkpt><trkpt lat="43.150272" lon="19.280729"><ele>934.8</ele><time>2012-05-01T09:34:49.0000000+00:00</time></trkpt><trkpt lat="43.150242" lon="19.280575"><ele>935.4</ele><time>2012-05-01T09:34:54.0000000+00:00</time></trkpt><trkpt lat="43.150204" lon="19.280424"><ele>936.8</ele><time>2012-05-01T09:34:59.0000000+00:00</time></trkpt><trkpt lat="43.150166" lon="19.280268"><ele>937.8</ele><time>2012-05-01T09:35:04.0000000+00:00</time></trkpt><trkpt lat="43.150127" lon="19.280106"><ele>938.4</ele><time>2012-05-01T09:35:09.0000000+00:00</time></trkpt><trkpt lat="43.150093" lon="19.279917"><ele>940.2</ele><time>2012-05-01T09:35:14.0000000+00:00</time></trkpt><trkpt lat="43.15007" lon="19.279745"><ele>943.0</ele><time>2012-05-01T09:35:19.0000000+00:00</time></trkpt><trkpt lat="43.150078" lon="19.279581"><ele>947.2</ele><time>2012-05-01T09:35:24.0000000+00:00</time></trkpt><trkpt lat="43.150082" lon="19.279411"><ele>947.4</ele><time>2012-05-01T09:35:29.0000000+00:00</time></trkpt><trkpt lat="43.150101" lon="19.279245"><ele>949.6</ele><time>2012-05-01T09:35:34.0000000+00:00</time></trkpt><trkpt lat="43.150116" lon="19.27906"><ele>950.6</ele><time>2012-05-01T09:35:39.0000000+00:00</time></trkpt><trkpt lat="43.150105" lon="19.278868"><ele>950.8</ele><time>2012-05-01T09:35:44.0000000+00:00</time></trkpt><trkpt lat="43.150093" lon="19.27869"><ele>951.9</ele><time>2012-05-01T09:35:49.0000000+00:00</time></trkpt><trkpt lat="43.150089" lon="19.278595"><ele>953.3</ele><time>2012-05-01T09:35:54.0000000+00:00</time></trkpt><trkpt lat="43.150078" lon="19.278522"><ele>953.4</ele><time>2012-05-01T09:35:59.0000000+00:00</time></trkpt><trkpt lat="43.150032" lon="19.278524"><ele>952.6</ele><time>2012-05-01T09:36:04.0000000+00:00</time></trkpt><trkpt lat="43.150032" lon="19.278524"><ele>951.9</ele><time>2012-05-01T09:36:09.0000000+00:00</time></trkpt><trkpt lat="43.150021" lon="19.278521"><ele>952.0</ele><time>2012-05-01T09:36:14.0000000+00:00</time></trkpt><trkpt lat="43.150009" lon="19.278509"><ele>952.4</ele><time>2012-05-01T09:36:19.0000000+00:00</time></trkpt><trkpt lat="43.150005" lon="19.278522"><ele>952.4</ele><time>2012-05-01T09:36:24.0000000+00:00</time></trkpt><trkpt lat="43.150005" lon="19.278519"><ele>952.1</ele><time>2012-05-01T09:36:29.0000000+00:00</time></trkpt><trkpt lat="43.150005" lon="19.278519"><ele>952.1</ele><time>2012-05-01T09:36:34.0000000+00:00</time></trkpt><trkpt lat="43.150013" lon="19.278522"><ele>952.1</ele><time>2012-05-01T09:36:39.0000000+00:00</time></trkpt><trkpt lat="43.150013" lon="19.278524"><ele>952.1</ele><time>2012-05-01T09:36:44.0000000+00:00</time></trkpt><trkpt lat="43.150013" lon="19.278524"><ele>952.1</ele><time>2012-05-01T09:36:49.0000000+00:00</time></trkpt><trkpt lat="43.150013" lon="19.278526"><ele>952.0</ele><time>2012-05-01T09:36:54.0000000+00:00</time></trkpt><trkpt lat="43.150013" lon="19.278526"><ele>952.0</ele><time>2012-05-01T09:36:59.0000000+00:00</time></trkpt><trkpt lat="43.150013" lon="19.278524"><ele>951.8</ele><time>2012-05-01T09:37:04.0000000+00:00</time></trkpt><trkpt lat="43.150013" lon="19.278524"><ele>951.8</ele><time>2012-05-01T09:37:09.0000000+00:00</time></trkpt><trkpt lat="43.150013" lon="19.278524"><ele>951.7</ele><time>2012-05-01T09:37:14.0000000+00:00</time></trkpt><trkpt lat="43.150013" lon="19.278524"><ele>951.7</ele><time>2012-05-01T09:37:19.0000000+00:00</time></trkpt><trkpt lat="43.150013" lon="19.278526"><ele>951.7</ele><time>2012-05-01T09:37:24.0000000+00:00</time></trkpt><trkpt lat="43.150013" lon="19.278526"><ele>951.7</ele><time>2012-05-01T09:37:29.0000000+00:00</time></trkpt><trkpt lat="43.150013" lon="19.278526"><ele>951.7</ele><time>2012-05-01T09:37:34.0000000+00:00</time></trkpt><trkpt lat="43.150013" lon="19.278526"><ele>951.8</ele><time>2012-05-01T09:37:39.0000000+00:00</time></trkpt><trkpt lat="43.150013" lon="19.278528"><ele>951.8</ele><time>2012-05-01T09:37:44.0000000+00:00</time></trkpt><trkpt lat="43.150013" lon="19.278528"><ele>951.9</ele><time>2012-05-01T09:37:49.0000000+00:00</time></trkpt><trkpt lat="43.150013" lon="19.278528"><ele>951.9</ele><time>2012-05-01T09:37:54.0000000+00:00</time></trkpt><trkpt lat="43.150013" lon="19.27853"><ele>951.9</ele><time>2012-05-01T09:37:59.0000000+00:00</time></trkpt><trkpt lat="43.150013" lon="19.27853"><ele>951.9</ele><time>2012-05-01T09:38:04.0000000+00:00</time></trkpt><trkpt lat="43.150013" lon="19.27853"><ele>952.0</ele><time>2012-05-01T09:38:09.0000000+00:00</time></trkpt><trkpt lat="43.150013" lon="19.27853"><ele>952.0</ele><time>2012-05-01T09:38:14.0000000+00:00</time></trkpt><trkpt lat="43.150013" lon="19.278532"><ele>952.0</ele><time>2012-05-01T09:38:19.0000000+00:00</time></trkpt><trkpt lat="43.150013" lon="19.278532"><ele>952.0</ele><time>2012-05-01T09:38:24.0000000+00:00</time></trkpt><trkpt lat="43.150013" lon="19.278532"><ele>952.0</ele><time>2012-05-01T09:38:29.0000000+00:00</time></trkpt><trkpt lat="43.150013" lon="19.278532"><ele>952.0</ele><time>2012-05-01T09:38:34.0000000+00:00</time></trkpt><trkpt lat="43.150013" lon="19.278532"><ele>952.0</ele><time>2012-05-01T09:38:39.0000000+00:00</time></trkpt><trkpt lat="43.150013" lon="19.278532"><ele>952.0</ele><time>2012-05-01T09:38:44.0000000+00:00</time></trkpt><trkpt lat="43.150013" lon="19.278532"><ele>952.1</ele><time>2012-05-01T09:38:49.0000000+00:00</time></trkpt><trkpt lat="43.150013" lon="19.278534"><ele>952.1</ele><time>2012-05-01T09:38:54.0000000+00:00</time></trkpt><trkpt lat="43.150013" lon="19.278534"><ele>952.1</ele><time>2012-05-01T09:38:59.0000000+00:00</time></trkpt><trkpt lat="43.150013" lon="19.278534"><ele>952.1</ele><time>2012-05-01T09:39:04.0000000+00:00</time></trkpt><trkpt lat="43.150013" lon="19.278534"><ele>952.1</ele><time>2012-05-01T09:39:09.0000000+00:00</time></trkpt><trkpt lat="43.150013" lon="19.278534"><ele>952.2</ele><time>2012-05-01T09:39:14.0000000+00:00</time></trkpt><trkpt lat="43.150013" lon="19.278534"><ele>952.2</ele><time>2012-05-01T09:39:19.0000000+00:00</time></trkpt><trkpt lat="43.150013" lon="19.278534"><ele>952.2</ele><time>2012-05-01T09:39:24.0000000+00:00</time></trkpt><trkpt lat="43.150017" lon="19.278542"><ele>952.2</ele><time>2012-05-01T09:39:29.0000000+00:00</time></trkpt><trkpt lat="43.150021" lon="19.278542"><ele>952.3</ele><time>2012-05-01T09:39:34.0000000+00:00</time></trkpt><trkpt lat="43.150021" lon="19.278542"><ele>952.3</ele><time>2012-05-01T09:39:39.0000000+00:00</time></trkpt><trkpt lat="43.150021" lon="19.27853"><ele>952.4</ele><time>2012-05-01T09:39:44.0000000+00:00</time></trkpt><trkpt lat="43.149982" lon="19.278463"><ele>953.5</ele><time>2012-05-01T09:39:49.0000000+00:00</time></trkpt><trkpt lat="43.149948" lon="19.2784"><ele>953.6</ele><time>2012-05-01T09:39:54.0000000+00:00</time></trkpt><trkpt lat="43.149921" lon="19.27833"><ele>954.4</ele><time>2012-05-01T09:39:59.0000000+00:00</time></trkpt><trkpt lat="43.149914" lon="19.278265"><ele>955.3</ele><time>2012-05-01T09:40:04.0000000+00:00</time></trkpt><trkpt lat="43.149906" lon="19.2782"><ele>955.6</ele><time>2012-05-01T09:40:09.0000000+00:00</time></trkpt><trkpt lat="43.14991" lon="19.278173"><ele>955.8</ele><time>2012-05-01T09:40:14.0000000+00:00</time></trkpt><trkpt lat="43.149914" lon="19.278116"><ele>957.1</ele><time>2012-05-01T09:40:19.0000000+00:00</time></trkpt><trkpt lat="43.149921" lon="19.278053"><ele>958.4</ele><time>2012-05-01T09:40:24.0000000+00:00</time></trkpt><trkpt lat="43.149918" lon="19.278034"><ele>958.7</ele><time>2012-05-01T09:40:29.0000000+00:00</time></trkpt><trkpt lat="43.149918" lon="19.278019"><ele>959.3</ele><time>2012-05-01T09:40:34.0000000+00:00</time></trkpt><trkpt lat="43.149918" lon="19.277946"><ele>960.4</ele><time>2012-05-01T09:40:39.0000000+00:00</time></trkpt><trkpt lat="43.149918" lon="19.277874"><ele>961.5</ele><time>2012-05-01T09:40:44.0000000+00:00</time></trkpt><trkpt lat="43.149914" lon="19.2778"><ele>961.9</ele><time>2012-05-01T09:40:49.0000000+00:00</time></trkpt><trkpt lat="43.149902" lon="19.277731"><ele>962.7</ele><time>2012-05-01T09:40:54.0000000+00:00</time></trkpt><trkpt lat="43.149895" lon="19.277704"><ele>961.8</ele><time>2012-05-01T09:40:59.0000000+00:00</time></trkpt><trkpt lat="43.149891" lon="19.277683"><ele>961.9</ele><time>2012-05-01T09:41:04.0000000+00:00</time></trkpt><trkpt lat="43.149887" lon="19.27762"><ele>962.7</ele><time>2012-05-01T09:41:09.0000000+00:00</time></trkpt><trkpt lat="43.149883" lon="19.277559"><ele>963.6</ele><time>2012-05-01T09:41:14.0000000+00:00</time></trkpt><trkpt lat="43.149891" lon="19.277494"><ele>964.2</ele><time>2012-05-01T09:41:19.0000000+00:00</time></trkpt><trkpt lat="43.149891" lon="19.277458"><ele>964.2</ele><time>2012-05-01T09:41:24.0000000+00:00</time></trkpt><trkpt lat="43.149891" lon="19.277451"><ele>964.1</ele><time>2012-05-01T09:41:29.0000000+00:00</time></trkpt><trkpt lat="43.149891" lon="19.277422"><ele>964.6</ele><time>2012-05-01T09:41:34.0000000+00:00</time></trkpt><trkpt lat="43.149891" lon="19.277357"><ele>965.3</ele><time>2012-05-01T09:41:39.0000000+00:00</time></trkpt><trkpt lat="43.149895" lon="19.277288"><ele>966.5</ele><time>2012-05-01T09:41:44.0000000+00:00</time></trkpt><trkpt lat="43.149899" lon="19.277229"><ele>967.7</ele><time>2012-05-01T09:41:49.0000000+00:00</time></trkpt><trkpt lat="43.149899" lon="19.277168"><ele>969.0</ele><time>2012-05-01T09:41:54.0000000+00:00</time></trkpt><trkpt lat="43.149906" lon="19.277109"><ele>970.0</ele><time>2012-05-01T09:41:59.0000000+00:00</time></trkpt><trkpt lat="43.149899" lon="19.277063"><ele>970.8</ele><time>2012-05-01T09:42:04.0000000+00:00</time></trkpt><trkpt lat="43.149899" lon="19.277016"><ele>971.7</ele><time>2012-05-01T09:42:09.0000000+00:00</time></trkpt><trkpt lat="43.149891" lon="19.276957"><ele>972.6</ele><time>2012-05-01T09:42:14.0000000+00:00</time></trkpt><trkpt lat="43.149876" lon="19.276913"><ele>972.6</ele><time>2012-05-01T09:42:19.0000000+00:00</time></trkpt><trkpt lat="43.149864" lon="19.276867"><ele>973.4</ele><time>2012-05-01T09:42:24.0000000+00:00</time></trkpt><trkpt lat="43.149845" lon="19.276817"><ele>974.9</ele><time>2012-05-01T09:42:29.0000000+00:00</time></trkpt><trkpt lat="43.149815" lon="19.276781"><ele>976.0</ele><time>2012-05-01T09:42:34.0000000+00:00</time></trkpt><trkpt lat="43.149788" lon="19.276747"><ele>977.2</ele><time>2012-05-01T09:42:39.0000000+00:00</time></trkpt><trkpt lat="43.149757" lon="19.276699"><ele>977.9</ele><time>2012-05-01T09:42:44.0000000+00:00</time></trkpt><trkpt lat="43.149742" lon="19.276678"><ele>978.2</ele><time>2012-05-01T09:42:49.0000000+00:00</time></trkpt><trkpt lat="43.149742" lon="19.276676"><ele>978.2</ele><time>2012-05-01T09:42:54.0000000+00:00</time></trkpt><trkpt lat="43.149742" lon="19.276678"><ele>978.1</ele><time>2012-05-01T09:42:59.0000000+00:00</time></trkpt><trkpt lat="43.149727" lon="19.276657"><ele>977.9</ele><time>2012-05-01T09:43:04.0000000+00:00</time></trkpt><trkpt lat="43.149715" lon="19.276611"><ele>977.2</ele><time>2012-05-01T09:43:09.0000000+00:00</time></trkpt><trkpt lat="43.149719" lon="19.276562"><ele>977.8</ele><time>2012-05-01T09:43:14.0000000+00:00</time></trkpt><trkpt lat="43.149731" lon="19.276516"><ele>978.6</ele><time>2012-05-01T09:43:19.0000000+00:00</time></trkpt><trkpt lat="43.149754" lon="19.276472"><ele>979.8</ele><time>2012-05-01T09:43:24.0000000+00:00</time></trkpt><trkpt lat="43.149776" lon="19.276423"><ele>981.0</ele><time>2012-05-01T09:43:29.0000000+00:00</time></trkpt><trkpt lat="43.149796" lon="19.276369"><ele>981.8</ele><time>2012-05-01T09:43:34.0000000+00:00</time></trkpt><trkpt lat="43.149818" lon="19.276329"><ele>982.8</ele><time>2012-05-01T09:43:39.0000000+00:00</time></trkpt><trkpt lat="43.149841" lon="19.276291"><ele>983.8</ele><time>2012-05-01T09:43:44.0000000+00:00</time></trkpt><trkpt lat="43.149876" lon="19.276245"><ele>984.4</ele><time>2012-05-01T09:43:49.0000000+00:00</time></trkpt><trkpt lat="43.149906" lon="19.276196"><ele>985.0</ele><time>2012-05-01T09:43:54.0000000+00:00</time></trkpt><trkpt lat="43.149937" lon="19.276146"><ele>985.2</ele><time>2012-05-01T09:43:59.0000000+00:00</time></trkpt><trkpt lat="43.149967" lon="19.276104"><ele>986.0</ele><time>2012-05-01T09:44:04.0000000+00:00</time></trkpt><trkpt lat="43.14999" lon="19.276045"><ele>987.3</ele><time>2012-05-01T09:44:09.0000000+00:00</time></trkpt><trkpt lat="43.150013" lon="19.275976"><ele>988.0</ele><time>2012-05-01T09:44:14.0000000+00:00</time></trkpt><trkpt lat="43.150028" lon="19.275909"><ele>988.4</ele><time>2012-05-01T09:44:19.0000000+00:00</time></trkpt><trkpt lat="43.150043" lon="19.275852"><ele>989.4</ele><time>2012-05-01T09:44:24.0000000+00:00</time></trkpt><trkpt lat="43.150051" lon="19.275787"><ele>990.2</ele><time>2012-05-01T09:44:29.0000000+00:00</time></trkpt><trkpt lat="43.150043" lon="19.275724"><ele>990.8</ele><time>2012-05-01T09:44:34.0000000+00:00</time></trkpt><trkpt lat="43.150017" lon="19.275669"><ele>991.5</ele><time>2012-05-01T09:44:39.0000000+00:00</time></trkpt><trkpt lat="43.149994" lon="19.275616"><ele>992.7</ele><time>2012-05-01T09:44:44.0000000+00:00</time></trkpt><trkpt lat="43.149975" lon="19.275566"><ele>993.7</ele><time>2012-05-01T09:44:49.0000000+00:00</time></trkpt><trkpt lat="43.149967" lon="19.275522"><ele>994.6</ele><time>2012-05-01T09:44:54.0000000+00:00</time></trkpt><trkpt lat="43.149967" lon="19.275496"><ele>995.4</ele><time>2012-05-01T09:44:59.0000000+00:00</time></trkpt><trkpt lat="43.149956" lon="19.275448"><ele>996.9</ele><time>2012-05-01T09:45:04.0000000+00:00</time></trkpt><trkpt lat="43.149956" lon="19.275436"><ele>997.7</ele><time>2012-05-01T09:45:09.0000000+00:00</time></trkpt><trkpt lat="43.14994" lon="19.2754"><ele>998.9</ele><time>2012-05-01T09:45:14.0000000+00:00</time></trkpt><trkpt lat="43.14991" lon="19.275372"><ele>1000.1</ele><time>2012-05-01T09:45:19.0000000+00:00</time></trkpt><trkpt lat="43.149876" lon="19.275358"><ele>1001.3</ele><time>2012-05-01T09:45:24.0000000+00:00</time></trkpt><trkpt lat="43.149837" lon="19.275352"><ele>1002.6</ele><time>2012-05-01T09:45:29.0000000+00:00</time></trkpt><trkpt lat="43.149807" lon="19.275352"><ele>1003.3</ele><time>2012-05-01T09:45:34.0000000+00:00</time></trkpt><trkpt lat="43.149769" lon="19.275354"><ele>1004.5</ele><time>2012-05-01T09:45:39.0000000+00:00</time></trkpt><trkpt lat="43.149731" lon="19.275358"><ele>1005.2</ele><time>2012-05-01T09:45:44.0000000+00:00</time></trkpt><trkpt lat="43.149681" lon="19.275335"><ele>1005.8</ele><time>2012-05-01T09:45:49.0000000+00:00</time></trkpt><trkpt lat="43.149654" lon="19.275326"><ele>1006.0</ele><time>2012-05-01T09:45:54.0000000+00:00</time></trkpt><trkpt lat="43.149658" lon="19.275328"><ele>1005.7</ele><time>2012-05-01T09:45:59.0000000+00:00</time></trkpt><trkpt lat="43.149658" lon="19.275328"><ele>1005.7</ele><time>2012-05-01T09:46:04.0000000+00:00</time></trkpt><trkpt lat="43.149658" lon="19.275328"><ele>1005.7</ele><time>2012-05-01T09:46:09.0000000+00:00</time></trkpt><trkpt lat="43.149658" lon="19.275328"><ele>1005.7</ele><time>2012-05-01T09:46:14.0000000+00:00</time></trkpt><trkpt lat="43.149658" lon="19.275328"><ele>1005.8</ele><time>2012-05-01T09:46:19.0000000+00:00</time></trkpt><trkpt lat="43.149632" lon="19.275311"><ele>1006.1</ele><time>2012-05-01T09:46:24.0000000+00:00</time></trkpt><trkpt lat="43.149628" lon="19.275301"><ele>1006.1</ele><time>2012-05-01T09:46:29.0000000+00:00</time></trkpt><trkpt lat="43.149628" lon="19.275301"><ele>1006.1</ele><time>2012-05-01T09:46:34.0000000+00:00</time></trkpt><trkpt lat="43.149628" lon="19.275301"><ele>1006.1</ele><time>2012-05-01T09:46:39.0000000+00:00</time></trkpt><trkpt lat="43.149628" lon="19.275301"><ele>1006.1</ele><time>2012-05-01T09:46:44.0000000+00:00</time></trkpt><trkpt lat="43.149624" lon="19.275299"><ele>1006.0</ele><time>2012-05-01T09:46:49.0000000+00:00</time></trkpt><trkpt lat="43.149628" lon="19.275295"><ele>1005.9</ele><time>2012-05-01T09:46:54.0000000+00:00</time></trkpt><trkpt lat="43.149628" lon="19.275297"><ele>1005.9</ele><time>2012-05-01T09:46:59.0000000+00:00</time></trkpt><trkpt lat="43.149628" lon="19.275297"><ele>1005.9</ele><time>2012-05-01T09:47:04.0000000+00:00</time></trkpt><trkpt lat="43.149628" lon="19.275297"><ele>1005.9</ele><time>2012-05-01T09:47:09.0000000+00:00</time></trkpt><trkpt lat="43.149605" lon="19.275297"><ele>1005.8</ele><time>2012-05-01T09:47:14.0000000+00:00</time></trkpt><trkpt lat="43.149582" lon="19.275293"><ele>1005.4</ele><time>2012-05-01T09:47:19.0000000+00:00</time></trkpt><trkpt lat="43.149506" lon="19.275288"><ele>1006.6</ele><time>2012-05-01T09:47:24.0000000+00:00</time></trkpt><trkpt lat="43.149422" lon="19.275276"><ele>1007.6</ele><time>2012-05-01T09:47:29.0000000+00:00</time></trkpt><trkpt lat="43.149349" lon="19.275318"><ele>1007.8</ele><time>2012-05-01T09:47:34.0000000+00:00</time></trkpt><trkpt lat="43.149246" lon="19.275393"><ele>1008.2</ele><time>2012-05-01T09:47:39.0000000+00:00</time></trkpt><trkpt lat="43.149158" lon="19.275425"><ele>1009.4</ele><time>2012-05-01T09:47:44.0000000+00:00</time></trkpt><trkpt lat="43.149086" lon="19.275469"><ele>1009.5</ele><time>2012-05-01T09:47:49.0000000+00:00</time></trkpt><trkpt lat="43.148949" lon="19.275629"><ele>1008.4</ele><time>2012-05-01T09:47:54.0000000+00:00</time></trkpt><trkpt lat="43.148754" lon="19.275753"><ele>1008.4</ele><time>2012-05-01T09:47:59.0000000+00:00</time></trkpt><trkpt lat="43.148628" lon="19.275782"><ele>1010.2</ele><time>2012-05-01T09:48:04.0000000+00:00</time></trkpt><trkpt lat="43.148544" lon="19.275866"><ele>1011.1</ele><time>2012-05-01T09:48:09.0000000+00:00</time></trkpt><trkpt lat="43.148487" lon="19.276035"><ele>1012.1</ele><time>2012-05-01T09:48:14.0000000+00:00</time></trkpt><trkpt lat="43.148449" lon="19.276192"><ele>1013.1</ele><time>2012-05-01T09:48:19.0000000+00:00</time></trkpt><trkpt lat="43.148415" lon="19.276318"><ele>1014.3</ele><time>2012-05-01T09:48:24.0000000+00:00</time></trkpt><trkpt lat="43.148422" lon="19.276423"><ele>1016.0</ele><time>2012-05-01T09:48:29.0000000+00:00</time></trkpt><trkpt lat="43.148441" lon="19.276508"><ele>1017.5</ele><time>2012-05-01T09:48:34.0000000+00:00</time></trkpt><trkpt lat="43.148468" lon="19.27659"><ele>1019.2</ele><time>2012-05-01T09:48:39.0000000+00:00</time></trkpt><trkpt lat="43.148487" lon="19.276665"><ele>1021.0</ele><time>2012-05-01T09:48:44.0000000+00:00</time></trkpt><trkpt lat="43.148499" lon="19.276762"><ele>1022.6</ele><time>2012-05-01T09:48:49.0000000+00:00</time></trkpt><trkpt lat="43.148491" lon="19.276852"><ele>1023.8</ele><time>2012-05-01T09:48:54.0000000+00:00</time></trkpt><trkpt lat="43.148479" lon="19.276924"><ele>1024.5</ele><time>2012-05-01T09:48:59.0000000+00:00</time></trkpt><trkpt lat="43.148468" lon="19.276981"><ele>1024.9</ele><time>2012-05-01T09:49:04.0000000+00:00</time></trkpt><trkpt lat="43.148472" lon="19.276979"><ele>1024.9</ele><time>2012-05-01T09:49:09.0000000+00:00</time></trkpt><trkpt lat="43.148464" lon="19.276991"><ele>1024.9</ele><time>2012-05-01T09:49:14.0000000+00:00</time></trkpt><trkpt lat="43.148441" lon="19.277027"><ele>1025.5</ele><time>2012-05-01T09:49:19.0000000+00:00</time></trkpt><trkpt lat="43.148403" lon="19.277081"><ele>1026.6</ele><time>2012-05-01T09:49:24.0000000+00:00</time></trkpt><trkpt lat="43.148373" lon="19.277128"><ele>1027.4</ele><time>2012-05-01T09:49:29.0000000+00:00</time></trkpt><trkpt lat="43.148338" lon="19.277128"><ele>1028.3</ele><time>2012-05-01T09:49:34.0000000+00:00</time></trkpt><trkpt lat="43.148312" lon="19.277105"><ele>1028.5</ele><time>2012-05-01T09:49:39.0000000+00:00</time></trkpt><trkpt lat="43.148293" lon="19.277031"><ele>1029.1</ele><time>2012-05-01T09:49:44.0000000+00:00</time></trkpt><trkpt lat="43.14827" lon="19.276943"><ele>1029.7</ele><time>2012-05-01T09:49:49.0000000+00:00</time></trkpt><trkpt lat="43.148212" lon="19.276865"><ele>1030.3</ele><time>2012-05-01T09:49:54.0000000+00:00</time></trkpt><trkpt lat="43.148148" lon="19.276819"><ele>1031.2</ele><time>2012-05-01T09:49:59.0000000+00:00</time></trkpt><trkpt lat="43.148067" lon="19.276817"><ele>1032.8</ele><time>2012-05-01T09:50:04.0000000+00:00</time></trkpt><trkpt lat="43.147995" lon="19.276846"><ele>1034.2</ele><time>2012-05-01T09:50:09.0000000+00:00</time></trkpt><trkpt lat="43.147911" lon="19.276869"><ele>1035.9</ele><time>2012-05-01T09:50:14.0000000+00:00</time></trkpt><trkpt lat="43.14785" lon="19.276848"><ele>1037.6</ele><time>2012-05-01T09:50:19.0000000+00:00</time></trkpt><trkpt lat="43.147804" lon="19.276781"><ele>1038.0</ele><time>2012-05-01T09:50:24.0000000+00:00</time></trkpt><trkpt lat="43.147778" lon="19.276714"><ele>1039.1</ele><time>2012-05-01T09:50:29.0000000+00:00</time></trkpt><trkpt lat="43.147732" lon="19.276632"><ele>1040.0</ele><time>2012-05-01T09:50:34.0000000+00:00</time></trkpt><trkpt lat="43.147701" lon="19.276588"><ele>1040.4</ele><time>2012-05-01T09:50:39.0000000+00:00</time></trkpt><trkpt lat="43.147682" lon="19.276558"><ele>1040.5</ele><time>2012-05-01T09:50:44.0000000+00:00</time></trkpt><trkpt lat="43.147663" lon="19.276516"><ele>1041.0</ele><time>2012-05-01T09:50:49.0000000+00:00</time></trkpt><trkpt lat="43.147648" lon="19.276464"><ele>1041.6</ele><time>2012-05-01T09:50:54.0000000+00:00</time></trkpt><trkpt lat="43.147633" lon="19.276423"><ele>1042.7</ele><time>2012-05-01T09:50:59.0000000+00:00</time></trkpt><trkpt lat="43.147629" lon="19.276361"><ele>1044.4</ele><time>2012-05-01T09:51:04.0000000+00:00</time></trkpt><trkpt lat="43.147633" lon="19.276308"><ele>1044.2</ele><time>2012-05-01T09:51:09.0000000+00:00</time></trkpt><trkpt lat="43.147644" lon="19.276239"><ele>1044.9</ele><time>2012-05-01T09:51:14.0000000+00:00</time></trkpt><trkpt lat="43.147648" lon="19.276205"><ele>1044.3</ele><time>2012-05-01T09:51:19.0000000+00:00</time></trkpt><trkpt lat="43.147633" lon="19.27614"><ele>1043.1</ele><time>2012-05-01T09:51:24.0000000+00:00</time></trkpt><trkpt lat="43.147629" lon="19.276033"><ele>1042.6</ele><time>2012-05-01T09:51:29.0000000+00:00</time></trkpt><trkpt lat="43.147652" lon="19.275915"><ele>1043.7</ele><time>2012-05-01T09:51:34.0000000+00:00</time></trkpt><trkpt lat="43.147682" lon="19.275801"><ele>1044.3</ele><time>2012-05-01T09:51:39.0000000+00:00</time></trkpt><trkpt lat="43.147713" lon="19.2757"><ele>1044.5</ele><time>2012-05-01T09:51:44.0000000+00:00</time></trkpt><trkpt lat="43.147789" lon="19.275545"><ele>1043.2</ele><time>2012-05-01T09:51:49.0000000+00:00</time></trkpt><trkpt lat="43.147942" lon="19.275272"><ele>1041.4</ele><time>2012-05-01T09:51:54.0000000+00:00</time></trkpt><trkpt lat="43.148067" lon="19.275023"><ele>1042.5</ele><time>2012-05-01T09:51:59.0000000+00:00</time></trkpt><trkpt lat="43.148109" lon="19.274837"><ele>1043.1</ele><time>2012-05-01T09:52:04.0000000+00:00</time></trkpt><trkpt lat="43.148129" lon="19.274649"><ele>1043.6</ele><time>2012-05-01T09:52:09.0000000+00:00</time></trkpt><trkpt lat="43.14814" lon="19.274467"><ele>1044.1</ele><time>2012-05-01T09:52:14.0000000+00:00</time></trkpt><trkpt lat="43.148174" lon="19.274313"><ele>1044.8</ele><time>2012-05-01T09:52:19.0000000+00:00</time></trkpt><trkpt lat="43.148277" lon="19.274212"><ele>1048.0</ele><time>2012-05-01T09:52:24.0000000+00:00</time></trkpt><trkpt lat="43.148369" lon="19.274107"><ele>1049.1</ele><time>2012-05-01T09:52:29.0000000+00:00</time></trkpt><trkpt lat="43.148457" lon="19.273979"><ele>1050.0</ele><time>2012-05-01T09:52:34.0000000+00:00</time></trkpt><trkpt lat="43.148544" lon="19.273846"><ele>1049.3</ele><time>2012-05-01T09:52:39.0000000+00:00</time></trkpt><trkpt lat="43.148617" lon="19.273729"><ele>1048.8</ele><time>2012-05-01T09:52:44.0000000+00:00</time></trkpt><trkpt lat="43.148712" lon="19.27363"><ele>1050.0</ele><time>2012-05-01T09:52:49.0000000+00:00</time></trkpt><trkpt lat="43.148808" lon="19.273552"><ele>1050.1</ele><time>2012-05-01T09:52:54.0000000+00:00</time></trkpt><trkpt lat="43.148914" lon="19.273449"><ele>1052.3</ele><time>2012-05-01T09:52:59.0000000+00:00</time></trkpt><trkpt lat="43.148983" lon="19.273344"><ele>1055.2</ele><time>2012-05-01T09:53:04.0000000+00:00</time></trkpt><trkpt lat="43.149063" lon="19.27326"><ele>1057.4</ele><time>2012-05-01T09:53:09.0000000+00:00</time></trkpt><trkpt lat="43.149143" lon="19.273201"><ele>1058.8</ele><time>2012-05-01T09:53:14.0000000+00:00</time></trkpt><trkpt lat="43.149216" lon="19.273155"><ele>1059.4</ele><time>2012-05-01T09:53:19.0000000+00:00</time></trkpt><trkpt lat="43.149281" lon="19.273102"><ele>1060.8</ele><time>2012-05-01T09:53:24.0000000+00:00</time></trkpt><trkpt lat="43.149353" lon="19.273027"><ele>1062.7</ele><time>2012-05-01T09:53:29.0000000+00:00</time></trkpt><trkpt lat="43.149429" lon="19.272955"><ele>1064.7</ele><time>2012-05-01T09:53:34.0000000+00:00</time></trkpt><trkpt lat="43.149483" lon="19.272917"><ele>1065.3</ele><time>2012-05-01T09:53:39.0000000+00:00</time></trkpt><trkpt lat="43.149521" lon="19.272856"><ele>1065.6</ele><time>2012-05-01T09:53:44.0000000+00:00</time></trkpt><trkpt lat="43.149544" lon="19.272839"><ele>1065.5</ele><time>2012-05-01T09:53:49.0000000+00:00</time></trkpt><trkpt lat="43.149563" lon="19.272829"><ele>1065.8</ele><time>2012-05-01T09:53:54.0000000+00:00</time></trkpt><trkpt lat="43.149605" lon="19.272808"><ele>1066.3</ele><time>2012-05-01T09:53:59.0000000+00:00</time></trkpt><trkpt lat="43.149651" lon="19.272785"><ele>1066.8</ele><time>2012-05-01T09:54:04.0000000+00:00</time></trkpt><trkpt lat="43.149696" lon="19.272757"><ele>1067.0</ele><time>2012-05-01T09:54:09.0000000+00:00</time></trkpt><trkpt lat="43.149734" lon="19.272755"><ele>1067.7</ele><time>2012-05-01T09:54:14.0000000+00:00</time></trkpt><trkpt lat="43.149769" lon="19.272745"><ele>1068.5</ele><time>2012-05-01T09:54:19.0000000+00:00</time></trkpt><trkpt lat="43.149811" lon="19.272732"><ele>1069.4</ele><time>2012-05-01T09:54:24.0000000+00:00</time></trkpt><trkpt lat="43.149853" lon="19.272717"><ele>1069.6</ele><time>2012-05-01T09:54:29.0000000+00:00</time></trkpt><trkpt lat="43.149899" lon="19.272709"><ele>1070.8</ele><time>2012-05-01T09:54:34.0000000+00:00</time></trkpt><trkpt lat="43.149933" lon="19.272692"><ele>1071.5</ele><time>2012-05-01T09:54:39.0000000+00:00</time></trkpt><trkpt lat="43.149982" lon="19.272675"><ele>1072.5</ele><time>2012-05-01T09:54:44.0000000+00:00</time></trkpt><trkpt lat="43.150024" lon="19.272675"><ele>1072.9</ele><time>2012-05-01T09:54:49.0000000+00:00</time></trkpt><trkpt lat="43.150066" lon="19.272678"><ele>1073.3</ele><time>2012-05-01T09:54:54.0000000+00:00</time></trkpt><trkpt lat="43.150066" lon="19.272678"><ele>1073.5</ele><time>2012-05-01T09:54:59.0000000+00:00</time></trkpt><trkpt lat="43.15007" lon="19.272678"><ele>1073.6</ele><time>2012-05-01T09:55:04.0000000+00:00</time></trkpt><trkpt lat="43.150085" lon="19.272673"><ele>1073.8</ele><time>2012-05-01T09:55:09.0000000+00:00</time></trkpt><trkpt lat="43.150097" lon="19.272673"><ele>1073.6</ele><time>2012-05-01T09:55:14.0000000+00:00</time></trkpt><trkpt lat="43.150143" lon="19.272665"><ele>1074.3</ele><time>2012-05-01T09:55:19.0000000+00:00</time></trkpt><trkpt lat="43.150192" lon="19.272667"><ele>1075.0</ele><time>2012-05-01T09:55:24.0000000+00:00</time></trkpt><trkpt lat="43.15023" lon="19.272654"><ele>1075.8</ele><time>2012-05-01T09:55:29.0000000+00:00</time></trkpt><trkpt lat="43.150257" lon="19.272646"><ele>1076.0</ele><time>2012-05-01T09:55:34.0000000+00:00</time></trkpt><trkpt lat="43.150303" lon="19.272623"><ele>1076.8</ele><time>2012-05-01T09:55:39.0000000+00:00</time></trkpt><trkpt lat="43.150341" lon="19.272593"><ele>1077.4</ele><time>2012-05-01T09:55:44.0000000+00:00</time></trkpt><trkpt lat="43.150368" lon="19.272556"><ele>1078.2</ele><time>2012-05-01T09:55:49.0000000+00:00</time></trkpt><trkpt lat="43.150383" lon="19.272514"><ele>1079.3</ele><time>2012-05-01T09:55:54.0000000+00:00</time></trkpt><trkpt lat="43.150383" lon="19.272457"><ele>1080.6</ele><time>2012-05-01T09:55:59.0000000+00:00</time></trkpt><trkpt lat="43.150364" lon="19.272385"><ele>1081.4</ele><time>2012-05-01T09:56:04.0000000+00:00</time></trkpt><trkpt lat="43.150345" lon="19.272312"><ele>1082.0</ele><time>2012-05-01T09:56:09.0000000+00:00</time></trkpt><trkpt lat="43.150322" lon="19.27224"><ele>1082.8</ele><time>2012-05-01T09:56:14.0000000+00:00</time></trkpt><trkpt lat="43.150311" lon="19.272173"><ele>1083.3</ele><time>2012-05-01T09:56:19.0000000+00:00</time></trkpt><trkpt lat="43.150299" lon="19.272112"><ele>1083.5</ele><time>2012-05-01T09:56:24.0000000+00:00</time></trkpt><trkpt lat="43.15028" lon="19.272055"><ele>1084.4</ele><time>2012-05-01T09:56:29.0000000+00:00</time></trkpt><trkpt lat="43.150269" lon="19.271994"><ele>1085.0</ele><time>2012-05-01T09:56:34.0000000+00:00</time></trkpt><trkpt lat="43.150257" lon="19.271933"><ele>1085.7</ele><time>2012-05-01T09:56:39.0000000+00:00</time></trkpt><trkpt lat="43.150249" lon="19.271875"><ele>1086.2</ele><time>2012-05-01T09:56:44.0000000+00:00</time></trkpt><trkpt lat="43.150253" lon="19.271816"><ele>1086.8</ele><time>2012-05-01T09:56:49.0000000+00:00</time></trkpt><trkpt lat="43.150253" lon="19.271759"><ele>1087.0</ele><time>2012-05-01T09:56:54.0000000+00:00</time></trkpt><trkpt lat="43.150249" lon="19.27169"><ele>1087.3</ele><time>2012-05-01T09:56:59.0000000+00:00</time></trkpt><trkpt lat="43.150249" lon="19.271606"><ele>1088.0</ele><time>2012-05-01T09:57:04.0000000+00:00</time></trkpt><trkpt lat="43.150242" lon="19.271551"><ele>1089.1</ele><time>2012-05-01T09:57:09.0000000+00:00</time></trkpt><trkpt lat="43.15023" lon="19.271502"><ele>1089.9</ele><time>2012-05-01T09:57:14.0000000+00:00</time></trkpt><trkpt lat="43.150219" lon="19.271458"><ele>1090.5</ele><time>2012-05-01T09:57:19.0000000+00:00</time></trkpt><trkpt lat="43.150204" lon="19.271404"><ele>1090.9</ele><time>2012-05-01T09:57:24.0000000+00:00</time></trkpt><trkpt lat="43.150196" lon="19.271383"><ele>1090.6</ele><time>2012-05-01T09:57:29.0000000+00:00</time></trkpt><trkpt lat="43.150181" lon="19.271328"><ele>1091.2</ele><time>2012-05-01T09:57:34.0000000+00:00</time></trkpt><trkpt lat="43.150177" lon="19.271336"><ele>1091.4</ele><time>2012-05-01T09:57:39.0000000+00:00</time></trkpt><trkpt lat="43.150166" lon="19.271288"><ele>1092.3</ele><time>2012-05-01T09:57:44.0000000+00:00</time></trkpt><trkpt lat="43.15015" lon="19.271219"><ele>1093.4</ele><time>2012-05-01T09:57:49.0000000+00:00</time></trkpt><trkpt lat="43.150135" lon="19.271164"><ele>1094.5</ele><time>2012-05-01T09:57:54.0000000+00:00</time></trkpt><trkpt lat="43.15012" lon="19.271107"><ele>1095.4</ele><time>2012-05-01T09:57:59.0000000+00:00</time></trkpt><trkpt lat="43.150097" lon="19.271059"><ele>1096.2</ele><time>2012-05-01T09:58:04.0000000+00:00</time></trkpt><trkpt lat="43.150078" lon="19.271009"><ele>1096.7</ele><time>2012-05-01T09:58:09.0000000+00:00</time></trkpt><trkpt lat="43.150063" lon="19.270958"><ele>1097.5</ele><time>2012-05-01T09:58:14.0000000+00:00</time></trkpt><trkpt lat="43.150047" lon="19.270922"><ele>1097.7</ele><time>2012-05-01T09:58:19.0000000+00:00</time></trkpt><trkpt lat="43.150051" lon="19.270924"><ele>1097.6</ele><time>2012-05-01T09:58:24.0000000+00:00</time></trkpt><trkpt lat="43.150051" lon="19.270924"><ele>1097.5</ele><time>2012-05-01T09:58:29.0000000+00:00</time></trkpt><trkpt lat="43.150032" lon="19.270889"><ele>1097.9</ele><time>2012-05-01T09:58:34.0000000+00:00</time></trkpt><trkpt lat="43.150028" lon="19.270885"><ele>1097.8</ele><time>2012-05-01T09:58:39.0000000+00:00</time></trkpt><trkpt lat="43.150028" lon="19.270885"><ele>1097.8</ele><time>2012-05-01T09:58:44.0000000+00:00</time></trkpt><trkpt lat="43.150028" lon="19.270885"><ele>1097.8</ele><time>2012-05-01T09:58:49.0000000+00:00</time></trkpt><trkpt lat="43.150028" lon="19.270885"><ele>1097.8</ele><time>2012-05-01T09:58:54.0000000+00:00</time></trkpt><trkpt lat="43.150028" lon="19.270887"><ele>1097.8</ele><time>2012-05-01T09:58:59.0000000+00:00</time></trkpt><trkpt lat="43.150028" lon="19.270887"><ele>1097.8</ele><time>2012-05-01T09:59:04.0000000+00:00</time></trkpt><trkpt lat="43.150028" lon="19.270887"><ele>1097.8</ele><time>2012-05-01T09:59:09.0000000+00:00</time></trkpt><trkpt lat="43.150028" lon="19.270887"><ele>1097.8</ele><time>2012-05-01T09:59:14.0000000+00:00</time></trkpt><trkpt lat="43.150028" lon="19.270887"><ele>1097.8</ele><time>2012-05-01T09:59:19.0000000+00:00</time></trkpt><trkpt lat="43.150028" lon="19.270887"><ele>1097.8</ele><time>2012-05-01T09:59:24.0000000+00:00</time></trkpt><trkpt lat="43.150028" lon="19.270887"><ele>1097.9</ele><time>2012-05-01T09:59:29.0000000+00:00</time></trkpt><trkpt lat="43.150028" lon="19.270887"><ele>1097.9</ele><time>2012-05-01T09:59:34.0000000+00:00</time></trkpt><trkpt lat="43.150028" lon="19.270887"><ele>1097.9</ele><time>2012-05-01T09:59:39.0000000+00:00</time></trkpt><trkpt lat="43.150028" lon="19.270887"><ele>1097.9</ele><time>2012-05-01T09:59:44.0000000+00:00</time></trkpt><trkpt lat="43.150028" lon="19.270887"><ele>1097.9</ele><time>2012-05-01T09:59:49.0000000+00:00</time></trkpt><trkpt lat="43.150028" lon="19.270887"><ele>1097.9</ele><time>2012-05-01T09:59:54.0000000+00:00</time></trkpt><trkpt lat="43.150028" lon="19.270887"><ele>1097.9</ele><time>2012-05-01T09:59:59.0000000+00:00</time></trkpt><trkpt lat="43.150028" lon="19.270887"><ele>1097.9</ele><time>2012-05-01T10:00:04.0000000+00:00</time></trkpt><trkpt lat="43.150028" lon="19.270887"><ele>1097.9</ele><time>2012-05-01T10:00:09.0000000+00:00</time></trkpt><trkpt lat="43.150028" lon="19.270887"><ele>1097.9</ele><time>2012-05-01T10:00:14.0000000+00:00</time></trkpt><trkpt lat="43.150028" lon="19.270887"><ele>1097.9</ele><time>2012-05-01T10:00:19.0000000+00:00</time></trkpt><trkpt lat="43.150028" lon="19.270887"><ele>1097.9</ele><time>2012-05-01T10:00:24.0000000+00:00</time></trkpt><trkpt lat="43.150028" lon="19.270887"><ele>1097.9</ele><time>2012-05-01T10:00:29.0000000+00:00</time></trkpt><trkpt lat="43.150028" lon="19.270887"><ele>1097.9</ele><time>2012-05-01T10:00:34.0000000+00:00</time></trkpt><trkpt lat="43.150028" lon="19.270887"><ele>1097.9</ele><time>2012-05-01T10:00:39.0000000+00:00</time></trkpt><trkpt lat="43.150028" lon="19.270887"><ele>1098.0</ele><time>2012-05-01T10:00:44.0000000+00:00</time></trkpt><trkpt lat="43.150028" lon="19.270887"><ele>1098.0</ele><time>2012-05-01T10:00:49.0000000+00:00</time></trkpt><trkpt lat="43.150028" lon="19.270887"><ele>1098.0</ele><time>2012-05-01T10:00:54.0000000+00:00</time></trkpt><trkpt lat="43.150028" lon="19.270887"><ele>1098.0</ele><time>2012-05-01T10:00:59.0000000+00:00</time></trkpt><trkpt lat="43.150028" lon="19.270887"><ele>1098.0</ele><time>2012-05-01T10:01:04.0000000+00:00</time></trkpt><trkpt lat="43.150028" lon="19.270887"><ele>1098.0</ele><time>2012-05-01T10:01:09.0000000+00:00</time></trkpt><trkpt lat="43.150028" lon="19.270887"><ele>1098.0</ele><time>2012-05-01T10:01:14.0000000+00:00</time></trkpt><trkpt lat="43.150028" lon="19.270887"><ele>1098.0</ele><time>2012-05-01T10:01:19.0000000+00:00</time></trkpt><trkpt lat="43.150028" lon="19.270887"><ele>1098.0</ele><time>2012-05-01T10:01:24.0000000+00:00</time></trkpt><trkpt lat="43.150028" lon="19.270887"><ele>1098.0</ele><time>2012-05-01T10:01:29.0000000+00:00</time></trkpt><trkpt lat="43.150028" lon="19.270887"><ele>1098.0</ele><time>2012-05-01T10:01:34.0000000+00:00</time></trkpt><trkpt lat="43.150028" lon="19.270887"><ele>1098.0</ele><time>2012-05-01T10:01:39.0000000+00:00</time></trkpt><trkpt lat="43.150028" lon="19.270887"><ele>1098.0</ele><time>2012-05-01T10:01:44.0000000+00:00</time></trkpt><trkpt lat="43.150028" lon="19.270887"><ele>1098.0</ele><time>2012-05-01T10:01:49.0000000+00:00</time></trkpt><trkpt lat="43.150028" lon="19.270887"><ele>1098.0</ele><time>2012-05-01T10:01:54.0000000+00:00</time></trkpt><trkpt lat="43.150028" lon="19.270887"><ele>1098.0</ele><time>2012-05-01T10:01:59.0000000+00:00</time></trkpt><trkpt lat="43.150028" lon="19.270887"><ele>1098.0</ele><time>2012-05-01T10:02:04.0000000+00:00</time></trkpt><trkpt lat="43.150028" lon="19.270887"><ele>1098.0</ele><time>2012-05-01T10:02:09.0000000+00:00</time></trkpt><trkpt lat="43.150028" lon="19.270887"><ele>1098.0</ele><time>2012-05-01T10:02:14.0000000+00:00</time></trkpt><trkpt lat="43.150028" lon="19.270887"><ele>1098.0</ele><time>2012-05-01T10:02:19.0000000+00:00</time></trkpt><trkpt lat="43.150028" lon="19.270887"><ele>1098.0</ele><time>2012-05-01T10:02:24.0000000+00:00</time></trkpt><trkpt lat="43.150028" lon="19.270887"><ele>1098.0</ele><time>2012-05-01T10:02:29.0000000+00:00</time></trkpt><trkpt lat="43.150028" lon="19.270887"><ele>1098.0</ele><time>2012-05-01T10:02:34.0000000+00:00</time></trkpt><trkpt lat="43.150028" lon="19.270887"><ele>1098.0</ele><time>2012-05-01T10:02:39.0000000+00:00</time></trkpt><trkpt lat="43.150028" lon="19.270887"><ele>1098.0</ele><time>2012-05-01T10:02:44.0000000+00:00</time></trkpt><trkpt lat="43.150009" lon="19.270826"><ele>1098.8</ele><time>2012-05-01T10:02:49.0000000+00:00</time></trkpt><trkpt lat="43.149986" lon="19.270746"><ele>1099.8</ele><time>2012-05-01T10:02:54.0000000+00:00</time></trkpt><trkpt lat="43.14996" lon="19.270687"><ele>1100.5</ele><time>2012-05-01T10:02:59.0000000+00:00</time></trkpt><trkpt lat="43.149933" lon="19.270628"><ele>1101.1</ele><time>2012-05-01T10:03:04.0000000+00:00</time></trkpt><trkpt lat="43.149899" lon="19.270578"><ele>1101.9</ele><time>2012-05-01T10:03:09.0000000+00:00</time></trkpt><trkpt lat="43.149864" lon="19.270529"><ele>1102.8</ele><time>2012-05-01T10:03:14.0000000+00:00</time></trkpt><trkpt lat="43.14983" lon="19.270487"><ele>1103.9</ele><time>2012-05-01T10:03:19.0000000+00:00</time></trkpt><trkpt lat="43.149799" lon="19.270451"><ele>1105.0</ele><time>2012-05-01T10:03:24.0000000+00:00</time></trkpt><trkpt lat="43.149773" lon="19.270412"><ele>1105.6</ele><time>2012-05-01T10:03:29.0000000+00:00</time></trkpt><trkpt lat="43.149746" lon="19.270382"><ele>1106.0</ele><time>2012-05-01T10:03:34.0000000+00:00</time></trkpt><trkpt lat="43.149746" lon="19.270374"><ele>1106.3</ele><time>2012-05-01T10:03:39.0000000+00:00</time></trkpt><trkpt lat="43.149746" lon="19.270325"><ele>1107.0</ele><time>2012-05-01T10:03:44.0000000+00:00</time></trkpt><trkpt lat="43.149773" lon="19.270283"><ele>1107.5</ele><time>2012-05-01T10:03:49.0000000+00:00</time></trkpt><trkpt lat="43.149799" lon="19.270267"><ele>1107.8</ele><time>2012-05-01T10:03:54.0000000+00:00</time></trkpt><trkpt lat="43.149841" lon="19.27026"><ele>1108.8</ele><time>2012-05-01T10:03:59.0000000+00:00</time></trkpt><trkpt lat="43.149868" lon="19.270239"><ele>1109.4</ele><time>2012-05-01T10:04:04.0000000+00:00</time></trkpt><trkpt lat="43.149895" lon="19.270229"><ele>1110.4</ele><time>2012-05-01T10:04:09.0000000+00:00</time></trkpt><trkpt lat="43.149937" lon="19.270197"><ele>1110.5</ele><time>2012-05-01T10:04:14.0000000+00:00</time></trkpt><trkpt lat="43.149967" lon="19.270155"><ele>1111.6</ele><time>2012-05-01T10:04:19.0000000+00:00</time></trkpt><trkpt lat="43.149994" lon="19.270103"><ele>1112.6</ele><time>2012-05-01T10:04:24.0000000+00:00</time></trkpt><trkpt lat="43.150013" lon="19.270039"><ele>1113.3</ele><time>2012-05-01T10:04:29.0000000+00:00</time></trkpt><trkpt lat="43.150028" lon="19.269983"><ele>1113.9</ele><time>2012-05-01T10:04:34.0000000+00:00</time></trkpt><trkpt lat="43.150047" lon="19.269926"><ele>1115.2</ele><time>2012-05-01T10:04:39.0000000+00:00</time></trkpt><trkpt lat="43.150059" lon="19.269888"><ele>1116.5</ele><time>2012-05-01T10:04:44.0000000+00:00</time></trkpt><trkpt lat="43.150085" lon="19.269859"><ele>1117.6</ele><time>2012-05-01T10:04:49.0000000+00:00</time></trkpt><trkpt lat="43.15012" lon="19.269829"><ele>1118.0</ele><time>2012-05-01T10:04:54.0000000+00:00</time></trkpt><trkpt lat="43.15012" lon="19.269842"><ele>1122.2</ele><time>2012-05-01T10:04:59.0000000+00:00</time></trkpt><trkpt lat="43.150158" lon="19.269815"><ele>1122.7</ele><time>2012-05-01T10:05:04.0000000+00:00</time></trkpt><trkpt lat="43.1502" lon="19.269785"><ele>1123.6</ele><time>2012-05-01T10:05:09.0000000+00:00</time></trkpt><trkpt lat="43.150238" lon="19.269743"><ele>1124.2</ele><time>2012-05-01T10:05:14.0000000+00:00</time></trkpt><trkpt lat="43.150265" lon="19.269697"><ele>1124.6</ele><time>2012-05-01T10:05:19.0000000+00:00</time></trkpt><trkpt lat="43.150291" lon="19.269646"><ele>1125.0</ele><time>2012-05-01T10:05:24.0000000+00:00</time></trkpt><trkpt lat="43.150307" lon="19.269598"><ele>1125.6</ele><time>2012-05-01T10:05:29.0000000+00:00</time></trkpt><trkpt lat="43.15033" lon="19.269522"><ele>1125.0</ele><time>2012-05-01T10:05:34.0000000+00:00</time></trkpt><trkpt lat="43.150345" lon="19.26947"><ele>1125.1</ele><time>2012-05-01T10:05:39.0000000+00:00</time></trkpt><trkpt lat="43.150349" lon="19.269417"><ele>1125.6</ele><time>2012-05-01T10:05:44.0000000+00:00</time></trkpt><trkpt lat="43.150352" lon="19.269363"><ele>1126.1</ele><time>2012-05-01T10:05:49.0000000+00:00</time></trkpt><trkpt lat="43.150352" lon="19.269316"><ele>1125.9</ele><time>2012-05-01T10:05:54.0000000+00:00</time></trkpt><trkpt lat="43.150349" lon="19.269299"><ele>1126.0</ele><time>2012-05-01T10:05:59.0000000+00:00</time></trkpt><trkpt lat="43.150349" lon="19.269299"><ele>1126.2</ele><time>2012-05-01T10:06:04.0000000+00:00</time></trkpt><trkpt lat="43.150345" lon="19.269314"><ele>1126.4</ele><time>2012-05-01T10:06:09.0000000+00:00</time></trkpt><trkpt lat="43.150345" lon="19.269314"><ele>1126.4</ele><time>2012-05-01T10:06:14.0000000+00:00</time></trkpt><trkpt lat="43.150345" lon="19.26931"><ele>1126.4</ele><time>2012-05-01T10:06:19.0000000+00:00</time></trkpt><trkpt lat="43.150345" lon="19.26931"><ele>1126.5</ele><time>2012-05-01T10:06:24.0000000+00:00</time></trkpt><trkpt lat="43.150341" lon="19.269283"><ele>1126.5</ele><time>2012-05-01T10:06:29.0000000+00:00</time></trkpt><trkpt lat="43.150337" lon="19.269213"><ele>1126.7</ele><time>2012-05-01T10:06:34.0000000+00:00</time></trkpt><trkpt lat="43.150337" lon="19.269112"><ele>1127.7</ele><time>2012-05-01T10:06:39.0000000+00:00</time></trkpt><trkpt lat="43.150349" lon="19.269026"><ele>1127.8</ele><time>2012-05-01T10:06:44.0000000+00:00</time></trkpt><trkpt lat="43.15036" lon="19.268957"><ele>1128.6</ele><time>2012-05-01T10:06:49.0000000+00:00</time></trkpt><trkpt lat="43.150375" lon="19.268892"><ele>1129.4</ele><time>2012-05-01T10:06:54.0000000+00:00</time></trkpt><trkpt lat="43.150383" lon="19.26882"><ele>1130.3</ele><time>2012-05-01T10:06:59.0000000+00:00</time></trkpt><trkpt lat="43.150394" lon="19.268755"><ele>1131.7</ele><time>2012-05-01T10:07:04.0000000+00:00</time></trkpt><trkpt lat="43.15041" lon="19.268688"><ele>1132.9</ele><time>2012-05-01T10:07:09.0000000+00:00</time></trkpt><trkpt lat="43.150417" lon="19.268612"><ele>1132.9</ele><time>2012-05-01T10:07:14.0000000+00:00</time></trkpt><trkpt lat="43.150425" lon="19.268547"><ele>1133.7</ele><time>2012-05-01T10:07:19.0000000+00:00</time></trkpt><trkpt lat="43.150421" lon="19.268496"><ele>1135.8</ele><time>2012-05-01T10:07:24.0000000+00:00</time></trkpt><trkpt lat="43.150417" lon="19.268454"><ele>1136.6</ele><time>2012-05-01T10:07:29.0000000+00:00</time></trkpt><trkpt lat="43.15041" lon="19.268415"><ele>1137.8</ele><time>2012-05-01T10:07:34.0000000+00:00</time></trkpt><trkpt lat="43.150417" lon="19.26836"><ele>1138.4</ele><time>2012-05-01T10:07:39.0000000+00:00</time></trkpt><trkpt lat="43.150436" lon="19.268312"><ele>1139.4</ele><time>2012-05-01T10:07:44.0000000+00:00</time></trkpt><trkpt lat="43.150444" lon="19.268259"><ele>1140.3</ele><time>2012-05-01T10:07:49.0000000+00:00</time></trkpt><trkpt lat="43.150459" lon="19.268204"><ele>1141.3</ele><time>2012-05-01T10:07:54.0000000+00:00</time></trkpt><trkpt lat="43.150455" lon="19.268164"><ele>1142.2</ele><time>2012-05-01T10:07:59.0000000+00:00</time></trkpt><trkpt lat="43.150455" lon="19.268122"><ele>1142.7</ele><time>2012-05-01T10:08:04.0000000+00:00</time></trkpt><trkpt lat="43.150471" lon="19.268063"><ele>1143.3</ele><time>2012-05-01T10:08:09.0000000+00:00</time></trkpt><trkpt lat="43.150482" lon="19.268021"><ele>1144.4</ele><time>2012-05-01T10:08:14.0000000+00:00</time></trkpt><trkpt lat="43.150471" lon="19.267977"><ele>1145.4</ele><time>2012-05-01T10:08:19.0000000+00:00</time></trkpt><trkpt lat="43.150471" lon="19.267923"><ele>1146.8</ele><time>2012-05-01T10:08:24.0000000+00:00</time></trkpt><trkpt lat="43.150467" lon="19.267879"><ele>1147.8</ele><time>2012-05-01T10:08:29.0000000+00:00</time></trkpt><trkpt lat="43.150475" lon="19.267824"><ele>1148.7</ele><time>2012-05-01T10:08:34.0000000+00:00</time></trkpt><trkpt lat="43.150482" lon="19.267756"><ele>1149.3</ele><time>2012-05-01T10:08:39.0000000+00:00</time></trkpt><trkpt lat="43.150482" lon="19.2677"><ele>1149.8</ele><time>2012-05-01T10:08:44.0000000+00:00</time></trkpt><trkpt lat="43.150467" lon="19.267643"><ele>1149.7</ele><time>2012-05-01T10:08:49.0000000+00:00</time></trkpt><trkpt lat="43.150444" lon="19.267635"><ele>1150.1</ele><time>2012-05-01T10:08:54.0000000+00:00</time></trkpt><trkpt lat="43.150391" lon="19.267714"><ele>1151.5</ele><time>2012-05-01T10:08:59.0000000+00:00</time></trkpt><trkpt lat="43.150349" lon="19.267828"><ele>1153.6</ele><time>2012-05-01T10:09:04.0000000+00:00</time></trkpt><trkpt lat="43.150291" lon="19.267965"><ele>1156.1</ele><time>2012-05-01T10:09:09.0000000+00:00</time></trkpt><trkpt lat="43.150234" lon="19.268106"><ele>1156.7</ele><time>2012-05-01T10:09:14.0000000+00:00</time></trkpt><trkpt lat="43.150166" lon="19.268229"><ele>1159.3</ele><time>2012-05-01T10:09:19.0000000+00:00</time></trkpt><trkpt lat="43.150097" lon="19.268358"><ele>1162.0</ele><time>2012-05-01T10:09:24.0000000+00:00</time></trkpt><trkpt lat="43.150021" lon="19.26849"><ele>1162.9</ele><time>2012-05-01T10:09:29.0000000+00:00</time></trkpt><trkpt lat="43.149937" lon="19.2686"><ele>1163.1</ele><time>2012-05-01T10:09:34.0000000+00:00</time></trkpt><trkpt lat="43.149853" lon="19.268719"><ele>1164.0</ele><time>2012-05-01T10:09:39.0000000+00:00</time></trkpt><trkpt lat="43.14975" lon="19.268829"><ele>1165.2</ele><time>2012-05-01T10:09:44.0000000+00:00</time></trkpt><trkpt lat="43.149612" lon="19.268972"><ele>1166.0</ele><time>2012-05-01T10:09:49.0000000+00:00</time></trkpt><trkpt lat="43.14949" lon="19.269056"><ele>1167.6</ele><time>2012-05-01T10:09:54.0000000+00:00</time></trkpt><trkpt lat="43.149372" lon="19.269133"><ele>1167.4</ele><time>2012-05-01T10:09:59.0000000+00:00</time></trkpt><trkpt lat="43.149239" lon="19.269188"><ele>1167.1</ele><time>2012-05-01T10:10:04.0000000+00:00</time></trkpt><trkpt lat="43.14909" lon="19.269257"><ele>1166.5</ele><time>2012-05-01T10:10:09.0000000+00:00</time></trkpt><trkpt lat="43.148926" lon="19.269285"><ele>1167.6</ele><time>2012-05-01T10:10:14.0000000+00:00</time></trkpt><trkpt lat="43.148739" lon="19.269258"><ele>1168.7</ele><time>2012-05-01T10:10:19.0000000+00:00</time></trkpt><trkpt lat="43.148571" lon="19.269169"><ele>1169.2</ele><time>2012-05-01T10:10:24.0000000+00:00</time></trkpt><trkpt lat="43.148464" lon="19.269062"><ele>1169.8</ele><time>2012-05-01T10:10:29.0000000+00:00</time></trkpt><trkpt lat="43.148365" lon="19.268934"><ele>1169.8</ele><time>2012-05-01T10:10:34.0000000+00:00</time></trkpt><trkpt lat="43.148277" lon="19.268812"><ele>1169.8</ele><time>2012-05-01T10:10:39.0000000+00:00</time></trkpt><trkpt lat="43.14817" lon="19.268648"><ele>1167.7</ele><time>2012-05-01T10:10:44.0000000+00:00</time></trkpt><trkpt lat="43.148087" lon="19.268505"><ele>1167.5</ele><time>2012-05-01T10:10:49.0000000+00:00</time></trkpt><trkpt lat="43.147991" lon="19.268366"><ele>1167.0</ele><time>2012-05-01T10:10:54.0000000+00:00</time></trkpt><trkpt lat="43.1479" lon="19.268223"><ele>1166.8</ele><time>2012-05-01T10:10:59.0000000+00:00</time></trkpt><trkpt lat="43.14785" lon="19.268072"><ele>1167.3</ele><time>2012-05-01T10:11:04.0000000+00:00</time></trkpt><trkpt lat="43.147884" lon="19.26799"><ele>1167.4</ele><time>2012-05-01T10:11:09.0000000+00:00</time></trkpt><trkpt lat="43.147976" lon="19.267971"><ele>1168.0</ele><time>2012-05-01T10:11:14.0000000+00:00</time></trkpt><trkpt lat="43.148071" lon="19.268097"><ele>1168.1</ele><time>2012-05-01T10:11:19.0000000+00:00</time></trkpt><trkpt lat="43.148148" lon="19.268253"><ele>1168.4</ele><time>2012-05-01T10:11:24.0000000+00:00</time></trkpt><trkpt lat="43.148224" lon="19.268414"><ele>1168.0</ele><time>2012-05-01T10:11:29.0000000+00:00</time></trkpt><trkpt lat="43.148308" lon="19.268562"><ele>1168.1</ele><time>2012-05-01T10:11:34.0000000+00:00</time></trkpt><trkpt lat="43.148415" lon="19.268677"><ele>1168.7</ele><time>2012-05-01T10:11:39.0000000+00:00</time></trkpt><trkpt lat="43.148533" lon="19.268764"><ele>1169.0</ele><time>2012-05-01T10:11:44.0000000+00:00</time></trkpt><trkpt lat="43.148651" lon="19.268801"><ele>1169.5</ele><time>2012-05-01T10:11:49.0000000+00:00</time></trkpt><trkpt lat="43.148781" lon="19.268797"><ele>1170.1</ele><time>2012-05-01T10:11:54.0000000+00:00</time></trkpt><trkpt lat="43.148888" lon="19.268753"><ele>1170.7</ele><time>2012-05-01T10:11:59.0000000+00:00</time></trkpt><trkpt lat="43.148975" lon="19.268696"><ele>1171.7</ele><time>2012-05-01T10:12:04.0000000+00:00</time></trkpt><trkpt lat="43.149059" lon="19.268612"><ele>1173.2</ele><time>2012-05-01T10:12:09.0000000+00:00</time></trkpt><trkpt lat="43.149139" lon="19.268511"><ele>1174.5</ele><time>2012-05-01T10:12:14.0000000+00:00</time></trkpt><trkpt lat="43.1492" lon="19.26845"><ele>1178.5</ele><time>2012-05-01T10:12:19.0000000+00:00</time></trkpt><trkpt lat="43.1493" lon="19.268339"><ele>1179.5</ele><time>2012-05-01T10:12:24.0000000+00:00</time></trkpt><trkpt lat="43.149395" lon="19.268234"><ele>1179.7</ele><time>2012-05-01T10:12:29.0000000+00:00</time></trkpt><trkpt lat="43.149475" lon="19.268143"><ele>1181.0</ele><time>2012-05-01T10:12:34.0000000+00:00</time></trkpt><trkpt lat="43.149544" lon="19.268045"><ele>1182.6</ele><time>2012-05-01T10:12:39.0000000+00:00</time></trkpt><trkpt lat="43.149616" lon="19.267937"><ele>1182.7</ele><time>2012-05-01T10:12:44.0000000+00:00</time></trkpt><trkpt lat="43.149696" lon="19.267813"><ele>1182.7</ele><time>2012-05-01T10:12:49.0000000+00:00</time></trkpt><trkpt lat="43.149773" lon="19.267685"><ele>1183.3</ele><time>2012-05-01T10:12:54.0000000+00:00</time></trkpt><trkpt lat="43.149841" lon="19.267529"><ele>1183.5</ele><time>2012-05-01T10:12:59.0000000+00:00</time></trkpt><trkpt lat="43.149868" lon="19.267391"><ele>1186.6</ele><time>2012-05-01T10:13:04.0000000+00:00</time></trkpt><trkpt lat="43.149906" lon="19.267246"><ele>1188.8</ele><time>2012-05-01T10:13:09.0000000+00:00</time></trkpt><trkpt lat="43.149925" lon="19.267105"><ele>1192.8</ele><time>2012-05-01T10:13:14.0000000+00:00</time></trkpt><trkpt lat="43.14994" lon="19.266968"><ele>1193.8</ele><time>2012-05-01T10:13:19.0000000+00:00</time></trkpt><trkpt lat="43.149963" lon="19.266806"><ele>1194.5</ele><time>2012-05-01T10:13:24.0000000+00:00</time></trkpt><trkpt lat="43.149982" lon="19.266665"><ele>1195.4</ele><time>2012-05-01T10:13:29.0000000+00:00</time></trkpt><trkpt lat="43.150013" lon="19.266499"><ele>1195.5</ele><time>2012-05-01T10:13:34.0000000+00:00</time></trkpt><trkpt lat="43.15004" lon="19.266329"><ele>1198.0</ele><time>2012-05-01T10:13:39.0000000+00:00</time></trkpt><trkpt lat="43.150085" lon="19.266136"><ele>1199.8</ele><time>2012-05-01T10:13:44.0000000+00:00</time></trkpt><trkpt lat="43.150108" lon="19.265974"><ele>1201.0</ele><time>2012-05-01T10:13:49.0000000+00:00</time></trkpt><trkpt lat="43.15015" lon="19.265827"><ele>1201.1</ele><time>2012-05-01T10:13:54.0000000+00:00</time></trkpt><trkpt lat="43.150177" lon="19.265676"><ele>1201.6</ele><time>2012-05-01T10:13:59.0000000+00:00</time></trkpt><trkpt lat="43.150234" lon="19.265522"><ele>1202.7</ele><time>2012-05-01T10:14:04.0000000+00:00</time></trkpt><trkpt lat="43.150284" lon="19.265375"><ele>1202.9</ele><time>2012-05-01T10:14:09.0000000+00:00</time></trkpt><trkpt lat="43.150341" lon="19.265213"><ele>1202.4</ele><time>2012-05-01T10:14:14.0000000+00:00</time></trkpt><trkpt lat="43.150387" lon="19.265083"><ele>1203.6</ele><time>2012-05-01T10:14:19.0000000+00:00</time></trkpt><trkpt lat="43.150448" lon="19.264929"><ele>1203.9</ele><time>2012-05-01T10:14:24.0000000+00:00</time></trkpt><trkpt lat="43.150505" lon="19.264744"><ele>1202.7</ele><time>2012-05-01T10:14:29.0000000+00:00</time></trkpt><trkpt lat="43.150547" lon="19.264587"><ele>1201.7</ele><time>2012-05-01T10:14:34.0000000+00:00</time></trkpt><trkpt lat="43.150574" lon="19.264454"><ele>1201.8</ele><time>2012-05-01T10:14:39.0000000+00:00</time></trkpt><trkpt lat="43.15062" lon="19.264277"><ele>1201.5</ele><time>2012-05-01T10:14:44.0000000+00:00</time></trkpt><trkpt lat="43.15065" lon="19.264111"><ele>1201.6</ele><time>2012-05-01T10:14:49.0000000+00:00</time></trkpt><trkpt lat="43.150677" lon="19.263926"><ele>1202.1</ele><time>2012-05-01T10:14:54.0000000+00:00</time></trkpt><trkpt lat="43.150688" lon="19.263739"><ele>1202.6</ele><time>2012-05-01T10:14:59.0000000+00:00</time></trkpt><trkpt lat="43.150684" lon="19.263542"><ele>1203.4</ele><time>2012-05-01T10:15:04.0000000+00:00</time></trkpt><trkpt lat="43.150677" lon="19.263351"><ele>1204.2</ele><time>2012-05-01T10:15:09.0000000+00:00</time></trkpt><trkpt lat="43.150642" lon="19.263206"><ele>1204.9</ele><time>2012-05-01T10:15:14.0000000+00:00</time></trkpt><trkpt lat="43.150604" lon="19.263048"><ele>1205.5</ele><time>2012-05-01T10:15:19.0000000+00:00</time></trkpt><trkpt lat="43.150574" lon="19.262947"><ele>1206.1</ele><time>2012-05-01T10:15:24.0000000+00:00</time></trkpt><trkpt lat="43.150528" lon="19.262798"><ele>1206.8</ele><time>2012-05-01T10:15:29.0000000+00:00</time></trkpt><trkpt lat="43.150482" lon="19.262672"><ele>1207.4</ele><time>2012-05-01T10:15:34.0000000+00:00</time></trkpt><trkpt lat="43.15044" lon="19.262514"><ele>1207.8</ele><time>2012-05-01T10:15:39.0000000+00:00</time></trkpt><trkpt lat="43.150398" lon="19.262346"><ele>1209.0</ele><time>2012-05-01T10:15:44.0000000+00:00</time></trkpt><trkpt lat="43.150387" lon="19.262173"><ele>1210.4</ele><time>2012-05-01T10:15:49.0000000+00:00</time></trkpt><trkpt lat="43.150391" lon="19.262075"><ele>1211.5</ele><time>2012-05-01T10:15:54.0000000+00:00</time></trkpt><trkpt lat="43.150414" lon="19.261948"><ele>1213.3</ele><time>2012-05-01T10:15:59.0000000+00:00</time></trkpt><trkpt lat="43.150459" lon="19.26181"><ele>1215.1</ele><time>2012-05-01T10:16:04.0000000+00:00</time></trkpt><trkpt lat="43.15052" lon="19.261679"><ele>1215.6</ele><time>2012-05-01T10:16:09.0000000+00:00</time></trkpt><trkpt lat="43.1506" lon="19.26157"><ele>1216.0</ele><time>2012-05-01T10:16:14.0000000+00:00</time></trkpt><trkpt lat="43.150692" lon="19.261484"><ele>1216.5</ele><time>2012-05-01T10:16:19.0000000+00:00</time></trkpt><trkpt lat="43.150826" lon="19.261427"><ele>1217.2</ele><time>2012-05-01T10:16:24.0000000+00:00</time></trkpt><trkpt lat="43.150948" lon="19.261417"><ele>1217.9</ele><time>2012-05-01T10:16:29.0000000+00:00</time></trkpt><trkpt lat="43.151066" lon="19.261429"><ele>1217.3</ele><time>2012-05-01T10:16:34.0000000+00:00</time></trkpt><trkpt lat="43.151173" lon="19.261463"><ele>1216.8</ele><time>2012-05-01T10:16:39.0000000+00:00</time></trkpt><trkpt lat="43.151291" lon="19.261524"><ele>1216.7</ele><time>2012-05-01T10:16:44.0000000+00:00</time></trkpt><trkpt lat="43.151428" lon="19.261581"><ele>1217.4</ele><time>2012-05-01T10:16:49.0000000+00:00</time></trkpt><trkpt lat="43.151569" lon="19.261654"><ele>1217.0</ele><time>2012-05-01T10:16:54.0000000+00:00</time></trkpt><trkpt lat="43.151672" lon="19.261703"><ele>1218.0</ele><time>2012-05-01T10:16:59.0000000+00:00</time></trkpt><trkpt lat="43.151791" lon="19.261808"><ele>1217.7</ele><time>2012-05-01T10:17:04.0000000+00:00</time></trkpt><trkpt lat="43.151867" lon="19.261894"><ele>1218.7</ele><time>2012-05-01T10:17:09.0000000+00:00</time></trkpt><trkpt lat="43.151932" lon="19.26198"><ele>1218.9</ele><time>2012-05-01T10:17:14.0000000+00:00</time></trkpt><trkpt lat="43.151989" lon="19.262094"><ele>1219.5</ele><time>2012-05-01T10:17:19.0000000+00:00</time></trkpt><trkpt lat="43.15205" lon="19.262211"><ele>1220.3</ele><time>2012-05-01T10:17:24.0000000+00:00</time></trkpt><trkpt lat="43.152119" lon="19.262339"><ele>1220.2</ele><time>2012-05-01T10:17:29.0000000+00:00</time></trkpt><trkpt lat="43.152184" lon="19.262463"><ele>1221.3</ele><time>2012-05-01T10:17:34.0000000+00:00</time></trkpt><trkpt lat="43.152256" lon="19.262564"><ele>1222.4</ele><time>2012-05-01T10:17:39.0000000+00:00</time></trkpt><trkpt lat="43.15234" lon="19.262671"><ele>1223.5</ele><time>2012-05-01T10:17:44.0000000+00:00</time></trkpt><trkpt lat="43.152431" lon="19.262766"><ele>1224.0</ele><time>2012-05-01T10:17:49.0000000+00:00</time></trkpt><trkpt lat="43.152531" lon="19.262825"><ele>1224.8</ele><time>2012-05-01T10:17:54.0000000+00:00</time></trkpt><trkpt lat="43.152641" lon="19.262886"><ele>1225.5</ele><time>2012-05-01T10:17:59.0000000+00:00</time></trkpt><trkpt lat="43.15276" lon="19.262918"><ele>1226.7</ele><time>2012-05-01T10:18:04.0000000+00:00</time></trkpt><trkpt lat="43.152893" lon="19.262913"><ele>1229.8</ele><time>2012-05-01T10:18:09.0000000+00:00</time></trkpt><trkpt lat="43.153023" lon="19.262894"><ele>1233.3</ele><time>2012-05-01T10:18:14.0000000+00:00</time></trkpt><trkpt lat="43.153122" lon="19.262886"><ele>1236.5</ele><time>2012-05-01T10:18:19.0000000+00:00</time></trkpt><trkpt lat="43.153233" lon="19.262848"><ele>1240.1</ele><time>2012-05-01T10:18:24.0000000+00:00</time></trkpt><trkpt lat="43.153316" lon="19.262852"><ele>1240.3</ele><time>2012-05-01T10:18:29.0000000+00:00</time></trkpt><trkpt lat="43.153412" lon="19.26277"><ele>1243.1</ele><time>2012-05-01T10:18:34.0000000+00:00</time></trkpt><trkpt lat="43.153492" lon="19.262669"><ele>1243.9</ele><time>2012-05-01T10:18:39.0000000+00:00</time></trkpt><trkpt lat="43.153526" lon="19.262585"><ele>1246.0</ele><time>2012-05-01T10:18:44.0000000+00:00</time></trkpt><trkpt lat="43.153553" lon="19.26247"><ele>1251.1</ele><time>2012-05-01T10:18:49.0000000+00:00</time></trkpt><trkpt lat="43.153618" lon="19.262293"><ele>1250.0</ele><time>2012-05-01T10:18:54.0000000+00:00</time></trkpt><trkpt lat="43.153625" lon="19.262157"><ele>1249.0</ele><time>2012-05-01T10:18:59.0000000+00:00</time></trkpt><trkpt lat="43.153625" lon="19.262012"><ele>1249.4</ele><time>2012-05-01T10:19:04.0000000+00:00</time></trkpt><trkpt lat="43.153564" lon="19.261883"><ele>1251.5</ele><time>2012-05-01T10:19:09.0000000+00:00</time></trkpt><trkpt lat="43.15353" lon="19.261763"><ele>1252.4</ele><time>2012-05-01T10:19:14.0000000+00:00</time></trkpt><trkpt lat="43.153446" lon="19.261667"><ele>1254.5</ele><time>2012-05-01T10:19:19.0000000+00:00</time></trkpt><trkpt lat="43.15332" lon="19.261581"><ele>1253.9</ele><time>2012-05-01T10:19:24.0000000+00:00</time></trkpt><trkpt lat="43.153191" lon="19.261492"><ele>1253.3</ele><time>2012-05-01T10:19:29.0000000+00:00</time></trkpt><trkpt lat="43.153076" lon="19.261395"><ele>1251.6</ele><time>2012-05-01T10:19:34.0000000+00:00</time></trkpt><trkpt lat="43.152973" lon="19.261299"><ele>1251.3</ele><time>2012-05-01T10:19:39.0000000+00:00</time></trkpt><trkpt lat="43.152885" lon="19.261229"><ele>1251.5</ele><time>2012-05-01T10:19:44.0000000+00:00</time></trkpt><trkpt lat="43.152817" lon="19.26116"><ele>1251.9</ele><time>2012-05-01T10:19:49.0000000+00:00</time></trkpt><trkpt lat="43.152756" lon="19.261089"><ele>1253.0</ele><time>2012-05-01T10:19:54.0000000+00:00</time></trkpt><trkpt lat="43.152683" lon="19.261011"><ele>1254.4</ele><time>2012-05-01T10:19:59.0000000+00:00</time></trkpt><trkpt lat="43.152592" lon="19.260927"><ele>1254.5</ele><time>2012-05-01T10:20:04.0000000+00:00</time></trkpt><trkpt lat="43.1525" lon="19.260845"><ele>1255.7</ele><time>2012-05-01T10:20:09.0000000+00:00</time></trkpt><trkpt lat="43.152409" lon="19.260777"><ele>1254.5</ele><time>2012-05-01T10:20:14.0000000+00:00</time></trkpt><trkpt lat="43.152306" lon="19.260704"><ele>1254.6</ele><time>2012-05-01T10:20:19.0000000+00:00</time></trkpt><trkpt lat="43.152206" lon="19.260624"><ele>1254.8</ele><time>2012-05-01T10:20:24.0000000+00:00</time></trkpt><trkpt lat="43.152119" lon="19.260538"><ele>1255.7</ele><time>2012-05-01T10:20:29.0000000+00:00</time></trkpt><trkpt lat="43.152035" lon="19.260477"><ele>1256.5</ele><time>2012-05-01T10:20:34.0000000+00:00</time></trkpt><trkpt lat="43.151962" lon="19.260386"><ele>1257.5</ele><time>2012-05-01T10:20:39.0000000+00:00</time></trkpt><trkpt lat="43.151867" lon="19.260277"><ele>1260.8</ele><time>2012-05-01T10:20:44.0000000+00:00</time></trkpt><trkpt lat="43.151814" lon="19.260208"><ele>1261.0</ele><time>2012-05-01T10:20:49.0000000+00:00</time></trkpt><trkpt lat="43.15181" lon="19.26021"><ele>1261.0</ele><time>2012-05-01T10:20:54.0000000+00:00</time></trkpt><trkpt lat="43.151806" lon="19.260214"><ele>1261.2</ele><time>2012-05-01T10:20:59.0000000+00:00</time></trkpt><trkpt lat="43.151787" lon="19.260187"><ele>1261.5</ele><time>2012-05-01T10:21:04.0000000+00:00</time></trkpt><trkpt lat="43.15173" lon="19.260065"><ele>1261.6</ele><time>2012-05-01T10:21:09.0000000+00:00</time></trkpt><trkpt lat="43.15168" lon="19.259926"><ele>1262.9</ele><time>2012-05-01T10:21:14.0000000+00:00</time></trkpt><trkpt lat="43.15163" lon="19.259785"><ele>1262.4</ele><time>2012-05-01T10:21:19.0000000+00:00</time></trkpt><trkpt lat="43.151585" lon="19.259645"><ele>1264.7</ele><time>2012-05-01T10:21:24.0000000+00:00</time></trkpt><trkpt lat="43.151512" lon="19.259506"><ele>1268.1</ele><time>2012-05-01T10:21:29.0000000+00:00</time></trkpt><trkpt lat="43.151478" lon="19.25934"><ele>1267.3</ele><time>2012-05-01T10:21:34.0000000+00:00</time></trkpt><trkpt lat="43.151432" lon="19.259176"><ele>1267.5</ele><time>2012-05-01T10:21:39.0000000+00:00</time></trkpt><trkpt lat="43.151363" lon="19.259033"><ele>1271.5</ele><time>2012-05-01T10:21:44.0000000+00:00</time></trkpt><trkpt lat="43.151279" lon="19.258892"><ele>1274.3</ele><time>2012-05-01T10:21:49.0000000+00:00</time></trkpt><trkpt lat="43.151234" lon="19.258736"><ele>1273.3</ele><time>2012-05-01T10:21:54.0000000+00:00</time></trkpt><trkpt lat="43.151188" lon="19.258564"><ele>1269.9</ele><time>2012-05-01T10:21:59.0000000+00:00</time></trkpt><trkpt lat="43.151104" lon="19.258417"><ele>1269.7</ele><time>2012-05-01T10:22:04.0000000+00:00</time></trkpt><trkpt lat="43.151028" lon="19.25828"><ele>1269.3</ele><time>2012-05-01T10:22:09.0000000+00:00</time></trkpt><trkpt lat="43.150948" lon="19.258146"><ele>1270.0</ele><time>2012-05-01T10:22:14.0000000+00:00</time></trkpt><trkpt lat="43.15086" lon="19.258013"><ele>1270.5</ele><time>2012-05-01T10:22:19.0000000+00:00</time></trkpt><trkpt lat="43.150772" lon="19.257875"><ele>1271.4</ele><time>2012-05-01T10:22:24.0000000+00:00</time></trkpt><trkpt lat="43.150696" lon="19.257748"><ele>1271.6</ele><time>2012-05-01T10:22:29.0000000+00:00</time></trkpt><trkpt lat="43.150608" lon="19.257633"><ele>1272.3</ele><time>2012-05-01T10:22:34.0000000+00:00</time></trkpt><trkpt lat="43.150536" lon="19.257505"><ele>1271.0</ele><time>2012-05-01T10:22:39.0000000+00:00</time></trkpt><trkpt lat="43.150452" lon="19.257387"><ele>1270.1</ele><time>2012-05-01T10:22:44.0000000+00:00</time></trkpt><trkpt lat="43.150375" lon="19.257322"><ele>1270.6</ele><time>2012-05-01T10:22:49.0000000+00:00</time></trkpt><trkpt lat="43.15028" lon="19.257233"><ele>1272.8</ele><time>2012-05-01T10:22:54.0000000+00:00</time></trkpt><trkpt lat="43.150204" lon="19.257111"><ele>1272.1</ele><time>2012-05-01T10:22:59.0000000+00:00</time></trkpt><trkpt lat="43.150097" lon="19.256975"><ele>1270.5</ele><time>2012-05-01T10:23:04.0000000+00:00</time></trkpt><trkpt lat="43.149998" lon="19.256838"><ele>1268.4</ele><time>2012-05-01T10:23:09.0000000+00:00</time></trkpt><trkpt lat="43.149963" lon="19.256697"><ele>1270.6</ele><time>2012-05-01T10:23:14.0000000+00:00</time></trkpt><trkpt lat="43.150066" lon="19.256643"><ele>1272.2</ele><time>2012-05-01T10:23:19.0000000+00:00</time></trkpt><trkpt lat="43.150173" lon="19.256721"><ele>1272.0</ele><time>2012-05-01T10:23:24.0000000+00:00</time></trkpt><trkpt lat="43.150257" lon="19.256783"><ele>1272.1</ele><time>2012-05-01T10:23:29.0000000+00:00</time></trkpt><trkpt lat="43.150333" lon="19.256857"><ele>1273.4</ele><time>2012-05-01T10:23:34.0000000+00:00</time></trkpt><trkpt lat="43.150394" lon="19.256895"><ele>1275.2</ele><time>2012-05-01T10:23:39.0000000+00:00</time></trkpt><trkpt lat="43.150459" lon="19.256971"><ele>1276.4</ele><time>2012-05-01T10:23:44.0000000+00:00</time></trkpt><trkpt lat="43.150539" lon="19.257019"><ele>1279.1</ele><time>2012-05-01T10:23:49.0000000+00:00</time></trkpt><trkpt lat="43.1506" lon="19.257124"><ele>1278.3</ele><time>2012-05-01T10:23:54.0000000+00:00</time></trkpt><trkpt lat="43.150673" lon="19.257219"><ele>1278.4</ele><time>2012-05-01T10:23:59.0000000+00:00</time></trkpt><trkpt lat="43.150738" lon="19.257307"><ele>1278.8</ele><time>2012-05-01T10:24:04.0000000+00:00</time></trkpt><trkpt lat="43.150803" lon="19.257347"><ele>1279.3</ele><time>2012-05-01T10:24:09.0000000+00:00</time></trkpt><trkpt lat="43.150871" lon="19.25741"><ele>1279.8</ele><time>2012-05-01T10:24:14.0000000+00:00</time></trkpt><trkpt lat="43.150951" lon="19.257463"><ele>1280.3</ele><time>2012-05-01T10:24:19.0000000+00:00</time></trkpt><trkpt lat="43.151035" lon="19.257521"><ele>1281.1</ele><time>2012-05-01T10:24:24.0000000+00:00</time></trkpt><trkpt lat="43.151123" lon="19.25757"><ele>1281.7</ele><time>2012-05-01T10:24:29.0000000+00:00</time></trkpt><trkpt lat="43.151211" lon="19.257624"><ele>1282.5</ele><time>2012-05-01T10:24:34.0000000+00:00</time></trkpt><trkpt lat="43.151291" lon="19.257685"><ele>1283.0</ele><time>2012-05-01T10:24:39.0000000+00:00</time></trkpt><trkpt lat="43.151382" lon="19.257742"><ele>1283.6</ele><time>2012-05-01T10:24:44.0000000+00:00</time></trkpt><trkpt lat="43.15147" lon="19.257784"><ele>1284.8</ele><time>2012-05-01T10:24:49.0000000+00:00</time></trkpt><trkpt lat="43.151539" lon="19.257841"><ele>1284.6</ele><time>2012-05-01T10:24:54.0000000+00:00</time></trkpt><trkpt lat="43.151596" lon="19.25791"><ele>1284.9</ele><time>2012-05-01T10:24:59.0000000+00:00</time></trkpt><trkpt lat="43.151649" lon="19.257992"><ele>1285.0</ele><time>2012-05-01T10:25:04.0000000+00:00</time></trkpt><trkpt lat="43.15173" lon="19.258055"><ele>1285.1</ele><time>2012-05-01T10:25:09.0000000+00:00</time></trkpt><trkpt lat="43.151787" lon="19.25816"><ele>1285.9</ele><time>2012-05-01T10:25:14.0000000+00:00</time></trkpt><trkpt lat="43.151859" lon="19.258265"><ele>1287.0</ele><time>2012-05-01T10:25:19.0000000+00:00</time></trkpt><trkpt lat="43.151924" lon="19.258366"><ele>1288.5</ele><time>2012-05-01T10:25:24.0000000+00:00</time></trkpt><trkpt lat="43.151997" lon="19.258457"><ele>1289.5</ele><time>2012-05-01T10:25:29.0000000+00:00</time></trkpt><trkpt lat="43.152054" lon="19.258532"><ele>1291.7</ele><time>2012-05-01T10:25:34.0000000+00:00</time></trkpt><trkpt lat="43.15213" lon="19.25864"><ele>1292.5</ele><time>2012-05-01T10:25:39.0000000+00:00</time></trkpt><trkpt lat="43.152222" lon="19.258722"><ele>1293.1</ele><time>2012-05-01T10:25:44.0000000+00:00</time></trkpt><trkpt lat="43.152321" lon="19.258783"><ele>1293.5</ele><time>2012-05-01T10:25:49.0000000+00:00</time></trkpt><trkpt lat="43.152424" lon="19.258844"><ele>1293.5</ele><time>2012-05-01T10:25:54.0000000+00:00</time></trkpt><trkpt lat="43.152504" lon="19.258869"><ele>1294.3</ele><time>2012-05-01T10:25:59.0000000+00:00</time></trkpt><trkpt lat="43.152599" lon="19.258896"><ele>1294.9</ele><time>2012-05-01T10:26:04.0000000+00:00</time></trkpt><trkpt lat="43.152706" lon="19.258936"><ele>1295.6</ele><time>2012-05-01T10:26:09.0000000+00:00</time></trkpt><trkpt lat="43.152802" lon="19.258924"><ele>1297.8</ele><time>2012-05-01T10:26:14.0000000+00:00</time></trkpt><trkpt lat="43.152882" lon="19.258835"><ele>1298.2</ele><time>2012-05-01T10:26:19.0000000+00:00</time></trkpt><trkpt lat="43.152901" lon="19.258791"><ele>1298.3</ele><time>2012-05-01T10:26:24.0000000+00:00</time></trkpt><trkpt lat="43.152901" lon="19.258793"><ele>1298.4</ele><time>2012-05-01T10:26:29.0000000+00:00</time></trkpt><trkpt lat="43.152901" lon="19.25878"><ele>1298.4</ele><time>2012-05-01T10:26:34.0000000+00:00</time></trkpt><trkpt lat="43.152901" lon="19.258778"><ele>1298.4</ele><time>2012-05-01T10:26:39.0000000+00:00</time></trkpt><trkpt lat="43.152901" lon="19.258778"><ele>1298.5</ele><time>2012-05-01T10:26:44.0000000+00:00</time></trkpt><trkpt lat="43.152901" lon="19.258772"><ele>1298.4</ele><time>2012-05-01T10:26:49.0000000+00:00</time></trkpt><trkpt lat="43.152908" lon="19.258781"><ele>1298.4</ele><time>2012-05-01T10:26:54.0000000+00:00</time></trkpt><trkpt lat="43.152901" lon="19.258797"><ele>1299.2</ele><time>2012-05-01T10:26:59.0000000+00:00</time></trkpt><trkpt lat="43.152901" lon="19.258801"><ele>1299.5</ele><time>2012-05-01T10:27:04.0000000+00:00</time></trkpt><trkpt lat="43.152897" lon="19.258802"><ele>1299.7</ele><time>2012-05-01T10:27:09.0000000+00:00</time></trkpt><trkpt lat="43.152893" lon="19.258804"><ele>1299.9</ele><time>2012-05-01T10:27:14.0000000+00:00</time></trkpt><trkpt lat="43.152893" lon="19.258804"><ele>1300.0</ele><time>2012-05-01T10:27:19.0000000+00:00</time></trkpt><trkpt lat="43.152893" lon="19.258804"><ele>1300.0</ele><time>2012-05-01T10:27:24.0000000+00:00</time></trkpt><trkpt lat="43.152893" lon="19.258804"><ele>1300.0</ele><time>2012-05-01T10:27:29.0000000+00:00</time></trkpt><trkpt lat="43.152893" lon="19.258806"><ele>1300.0</ele><time>2012-05-01T10:27:34.0000000+00:00</time></trkpt><trkpt lat="43.152893" lon="19.258804"><ele>1300.0</ele><time>2012-05-01T10:27:39.0000000+00:00</time></trkpt><trkpt lat="43.152893" lon="19.258804"><ele>1300.0</ele><time>2012-05-01T10:27:44.0000000+00:00</time></trkpt><trkpt lat="43.152893" lon="19.258804"><ele>1300.1</ele><time>2012-05-01T10:27:49.0000000+00:00</time></trkpt><trkpt lat="43.152897" lon="19.258804"><ele>1300.1</ele><time>2012-05-01T10:27:54.0000000+00:00</time></trkpt><trkpt lat="43.152897" lon="19.258804"><ele>1300.1</ele><time>2012-05-01T10:27:59.0000000+00:00</time></trkpt><trkpt lat="43.152897" lon="19.258804"><ele>1300.1</ele><time>2012-05-01T10:28:04.0000000+00:00</time></trkpt><trkpt lat="43.152893" lon="19.258718"><ele>1300.6</ele><time>2012-05-01T10:28:09.0000000+00:00</time></trkpt><trkpt lat="43.152863" lon="19.258608"><ele>1300.7</ele><time>2012-05-01T10:28:14.0000000+00:00</time></trkpt><trkpt lat="43.152817" lon="19.25852"><ele>1301.3</ele><time>2012-05-01T10:28:19.0000000+00:00</time></trkpt><trkpt lat="43.152718" lon="19.258461"><ele>1303.9</ele><time>2012-05-01T10:28:24.0000000+00:00</time></trkpt><trkpt lat="43.152592" lon="19.258392"><ele>1305.5</ele><time>2012-05-01T10:28:29.0000000+00:00</time></trkpt><trkpt lat="43.152508" lon="19.258327"><ele>1306.7</ele><time>2012-05-01T10:28:34.0000000+00:00</time></trkpt><trkpt lat="43.1525" lon="19.25832"><ele>1306.9</ele><time>2012-05-01T10:28:39.0000000+00:00</time></trkpt><trkpt lat="43.1525" lon="19.25832"><ele>1306.9</ele><time>2012-05-01T10:28:44.0000000+00:00</time></trkpt><trkpt lat="43.1525" lon="19.25832"><ele>1306.9</ele><time>2012-05-01T10:28:49.0000000+00:00</time></trkpt><trkpt lat="43.1525" lon="19.25832"><ele>1306.9</ele><time>2012-05-01T10:28:54.0000000+00:00</time></trkpt><trkpt lat="43.1525" lon="19.25832"><ele>1306.9</ele><time>2012-05-01T10:28:59.0000000+00:00</time></trkpt><trkpt lat="43.1525" lon="19.25832"><ele>1306.9</ele><time>2012-05-01T10:29:04.0000000+00:00</time></trkpt><trkpt lat="43.152466" lon="19.258268"><ele>1307.2</ele><time>2012-05-01T10:29:09.0000000+00:00</time></trkpt><trkpt lat="43.152382" lon="19.258194"><ele>1307.9</ele><time>2012-05-01T10:29:14.0000000+00:00</time></trkpt><trkpt lat="43.152302" lon="19.25807"><ele>1308.1</ele><time>2012-05-01T10:29:19.0000000+00:00</time></trkpt><trkpt lat="43.152256" lon="19.257923"><ele>1309.0</ele><time>2012-05-01T10:29:24.0000000+00:00</time></trkpt><trkpt lat="43.152218" lon="19.257778"><ele>1309.7</ele><time>2012-05-01T10:29:29.0000000+00:00</time></trkpt><trkpt lat="43.152176" lon="19.257629"><ele>1310.5</ele><time>2012-05-01T10:29:34.0000000+00:00</time></trkpt><trkpt lat="43.152138" lon="19.25749"><ele>1312.0</ele><time>2012-05-01T10:29:39.0000000+00:00</time></trkpt><trkpt lat="43.1521" lon="19.25736"><ele>1313.1</ele><time>2012-05-01T10:29:44.0000000+00:00</time></trkpt><trkpt lat="43.152088" lon="19.257271"><ele>1313.1</ele><time>2012-05-01T10:29:49.0000000+00:00</time></trkpt><trkpt lat="43.15205" lon="19.257195"><ele>1313.6</ele><time>2012-05-01T10:29:54.0000000+00:00</time></trkpt><trkpt lat="43.152" lon="19.25709"><ele>1314.4</ele><time>2012-05-01T10:29:59.0000000+00:00</time></trkpt><trkpt lat="43.151962" lon="19.256977"><ele>1314.0</ele><time>2012-05-01T10:30:04.0000000+00:00</time></trkpt><trkpt lat="43.151928" lon="19.256861"><ele>1313.1</ele><time>2012-05-01T10:30:09.0000000+00:00</time></trkpt><trkpt lat="43.151867" lon="19.256746"><ele>1312.2</ele><time>2012-05-01T10:30:14.0000000+00:00</time></trkpt><trkpt lat="43.151814" lon="19.256662"><ele>1311.7</ele><time>2012-05-01T10:30:19.0000000+00:00</time></trkpt><trkpt lat="43.151749" lon="19.256577"><ele>1311.3</ele><time>2012-05-01T10:30:24.0000000+00:00</time></trkpt><trkpt lat="43.151676" lon="19.256502"><ele>1312.0</ele><time>2012-05-01T10:30:29.0000000+00:00</time></trkpt><trkpt lat="43.151615" lon="19.256454"><ele>1313.6</ele><time>2012-05-01T10:30:34.0000000+00:00</time></trkpt><trkpt lat="43.151562" lon="19.256397"><ele>1315.3</ele><time>2012-05-01T10:30:39.0000000+00:00</time></trkpt><trkpt lat="43.15147" lon="19.256334"><ele>1318.3</ele><time>2012-05-01T10:30:44.0000000+00:00</time></trkpt><trkpt lat="43.151371" lon="19.256256"><ele>1318.2</ele><time>2012-05-01T10:30:49.0000000+00:00</time></trkpt><trkpt lat="43.151272" lon="19.256208"><ele>1319.5</ele><time>2012-05-01T10:30:54.0000000+00:00</time></trkpt><trkpt lat="43.15118" lon="19.256128"><ele>1318.4</ele><time>2012-05-01T10:30:59.0000000+00:00</time></trkpt><trkpt lat="43.151093" lon="19.256044"><ele>1319.1</ele><time>2012-05-01T10:31:04.0000000+00:00</time></trkpt><trkpt lat="43.151035" lon="19.255945"><ele>1320.6</ele><time>2012-05-01T10:31:09.0000000+00:00</time></trkpt><trkpt lat="43.150993" lon="19.2558"><ele>1321.1</ele><time>2012-05-01T10:31:14.0000000+00:00</time></trkpt><trkpt lat="43.15097" lon="19.255661"><ele>1320.9</ele><time>2012-05-01T10:31:19.0000000+00:00</time></trkpt><trkpt lat="43.150982" lon="19.255548"><ele>1319.3</ele><time>2012-05-01T10:31:24.0000000+00:00</time></trkpt><trkpt lat="43.15094" lon="19.255413"><ele>1321.8</ele><time>2012-05-01T10:31:29.0000000+00:00</time></trkpt><trkpt lat="43.150928" lon="19.255276"><ele>1323.3</ele><time>2012-05-01T10:31:34.0000000+00:00</time></trkpt><trkpt lat="43.150909" lon="19.255184"><ele>1325.6</ele><time>2012-05-01T10:31:39.0000000+00:00</time></trkpt><trkpt lat="43.150925" lon="19.255075"><ele>1325.9</ele><time>2012-05-01T10:31:44.0000000+00:00</time></trkpt><trkpt lat="43.150932" lon="19.254969"><ele>1326.8</ele><time>2012-05-01T10:31:49.0000000+00:00</time></trkpt><trkpt lat="43.150917" lon="19.254869"><ele>1329.5</ele><time>2012-05-01T10:31:54.0000000+00:00</time></trkpt><trkpt lat="43.150913" lon="19.25478"><ele>1330.9</ele><time>2012-05-01T10:31:59.0000000+00:00</time></trkpt><trkpt lat="43.150917" lon="19.254667"><ele>1332.2</ele><time>2012-05-01T10:32:04.0000000+00:00</time></trkpt><trkpt lat="43.150925" lon="19.25453"><ele>1332.4</ele><time>2012-05-01T10:32:09.0000000+00:00</time></trkpt><trkpt lat="43.150928" lon="19.254465"><ele>1332.0</ele><time>2012-05-01T10:32:14.0000000+00:00</time></trkpt><trkpt lat="43.150936" lon="19.254354"><ele>1331.7</ele><time>2012-05-01T10:32:19.0000000+00:00</time></trkpt><trkpt lat="43.150936" lon="19.25423"><ele>1331.3</ele><time>2012-05-01T10:32:24.0000000+00:00</time></trkpt><trkpt lat="43.150932" lon="19.254118"><ele>1330.6</ele><time>2012-05-01T10:32:29.0000000+00:00</time></trkpt><trkpt lat="43.150894" lon="19.254007"><ele>1330.9</ele><time>2012-05-01T10:32:34.0000000+00:00</time></trkpt><trkpt lat="43.150864" lon="19.253893"><ele>1330.7</ele><time>2012-05-01T10:32:39.0000000+00:00</time></trkpt><trkpt lat="43.150829" lon="19.253799"><ele>1330.9</ele><time>2012-05-01T10:32:44.0000000+00:00</time></trkpt><trkpt lat="43.150764" lon="19.253719"><ele>1335.2</ele><time>2012-05-01T10:32:49.0000000+00:00</time></trkpt><trkpt lat="43.150669" lon="19.253645"><ele>1338.5</ele><time>2012-05-01T10:32:54.0000000+00:00</time></trkpt><trkpt lat="43.150574" lon="19.253563"><ele>1341.5</ele><time>2012-05-01T10:32:59.0000000+00:00</time></trkpt><trkpt lat="43.150501" lon="19.253418"><ele>1340.6</ele><time>2012-05-01T10:33:04.0000000+00:00</time></trkpt><trkpt lat="43.150429" lon="19.253271"><ele>1338.5</ele><time>2012-05-01T10:33:09.0000000+00:00</time></trkpt><trkpt lat="43.150383" lon="19.253176"><ele>1338.1</ele><time>2012-05-01T10:33:14.0000000+00:00</time></trkpt><trkpt lat="43.150345" lon="19.253094"><ele>1338.7</ele><time>2012-05-01T10:33:19.0000000+00:00</time></trkpt><trkpt lat="43.150307" lon="19.252941"><ele>1338.8</ele><time>2012-05-01T10:33:24.0000000+00:00</time></trkpt><trkpt lat="43.150284" lon="19.252832"><ele>1338.6</ele><time>2012-05-01T10:33:29.0000000+00:00</time></trkpt><trkpt lat="43.150284" lon="19.252682"><ele>1337.6</ele><time>2012-05-01T10:33:34.0000000+00:00</time></trkpt><trkpt lat="43.150265" lon="19.252535"><ele>1338.5</ele><time>2012-05-01T10:33:39.0000000+00:00</time></trkpt><trkpt lat="43.150253" lon="19.252386"><ele>1340.1</ele><time>2012-05-01T10:33:44.0000000+00:00</time></trkpt><trkpt lat="43.150257" lon="19.252226"><ele>1340.6</ele><time>2012-05-01T10:33:49.0000000+00:00</time></trkpt><trkpt lat="43.150276" lon="19.252117"><ele>1340.9</ele><time>2012-05-01T10:33:54.0000000+00:00</time></trkpt><trkpt lat="43.150311" lon="19.252024"><ele>1340.6</ele><time>2012-05-01T10:33:59.0000000+00:00</time></trkpt><trkpt lat="43.150322" lon="19.251949"><ele>1340.3</ele><time>2012-05-01T10:34:04.0000000+00:00</time></trkpt><trkpt lat="43.150333" lon="19.251945"><ele>1340.3</ele><time>2012-05-01T10:34:09.0000000+00:00</time></trkpt><trkpt lat="43.150333" lon="19.251945"><ele>1340.3</ele><time>2012-05-01T10:34:14.0000000+00:00</time></trkpt><trkpt lat="43.150333" lon="19.251945"><ele>1340.2</ele><time>2012-05-01T10:34:19.0000000+00:00</time></trkpt><trkpt lat="43.150333" lon="19.251947"><ele>1340.3</ele><time>2012-05-01T10:34:24.0000000+00:00</time></trkpt><trkpt lat="43.150333" lon="19.251947"><ele>1340.3</ele><time>2012-05-01T10:34:29.0000000+00:00</time></trkpt><trkpt lat="43.150333" lon="19.251947"><ele>1340.3</ele><time>2012-05-01T10:34:34.0000000+00:00</time></trkpt><trkpt lat="43.150333" lon="19.251947"><ele>1340.3</ele><time>2012-05-01T10:34:39.0000000+00:00</time></trkpt><trkpt lat="43.150333" lon="19.251944"><ele>1340.3</ele><time>2012-05-01T10:34:44.0000000+00:00</time></trkpt><trkpt lat="43.150352" lon="19.25194"><ele>1341.6</ele><time>2012-05-01T10:34:49.0000000+00:00</time></trkpt><trkpt lat="43.15036" lon="19.251947"><ele>1342.4</ele><time>2012-05-01T10:34:54.0000000+00:00</time></trkpt><trkpt lat="43.15036" lon="19.251947"><ele>1342.5</ele><time>2012-05-01T10:34:59.0000000+00:00</time></trkpt><trkpt lat="43.15036" lon="19.251947"><ele>1342.5</ele><time>2012-05-01T10:35:04.0000000+00:00</time></trkpt><trkpt lat="43.15036" lon="19.251947"><ele>1342.5</ele><time>2012-05-01T10:35:09.0000000+00:00</time></trkpt><trkpt lat="43.150356" lon="19.251947"><ele>1342.5</ele><time>2012-05-01T10:35:14.0000000+00:00</time></trkpt><trkpt lat="43.150356" lon="19.251947"><ele>1342.5</ele><time>2012-05-01T10:35:19.0000000+00:00</time></trkpt><trkpt lat="43.150356" lon="19.251947"><ele>1342.5</ele><time>2012-05-01T10:35:24.0000000+00:00</time></trkpt><trkpt lat="43.150356" lon="19.251947"><ele>1342.4</ele><time>2012-05-01T10:35:29.0000000+00:00</time></trkpt><trkpt lat="43.150356" lon="19.251947"><ele>1342.4</ele><time>2012-05-01T10:35:34.0000000+00:00</time></trkpt><trkpt lat="43.150356" lon="19.251947"><ele>1342.4</ele><time>2012-05-01T10:35:39.0000000+00:00</time></trkpt><trkpt lat="43.150356" lon="19.251947"><ele>1342.5</ele><time>2012-05-01T10:35:44.0000000+00:00</time></trkpt><trkpt lat="43.150356" lon="19.251947"><ele>1342.5</ele><time>2012-05-01T10:35:49.0000000+00:00</time></trkpt><trkpt lat="43.150356" lon="19.251947"><ele>1342.5</ele><time>2012-05-01T10:35:54.0000000+00:00</time></trkpt><trkpt lat="43.150356" lon="19.251947"><ele>1342.5</ele><time>2012-05-01T10:35:59.0000000+00:00</time></trkpt><trkpt lat="43.150356" lon="19.251947"><ele>1342.5</ele><time>2012-05-01T10:36:04.0000000+00:00</time></trkpt><trkpt lat="43.150356" lon="19.251947"><ele>1342.5</ele><time>2012-05-01T10:36:09.0000000+00:00</time></trkpt><trkpt lat="43.150356" lon="19.251947"><ele>1342.5</ele><time>2012-05-01T10:36:14.0000000+00:00</time></trkpt><trkpt lat="43.150356" lon="19.251947"><ele>1342.5</ele><time>2012-05-01T10:36:19.0000000+00:00</time></trkpt><trkpt lat="43.150356" lon="19.251947"><ele>1342.5</ele><time>2012-05-01T10:36:24.0000000+00:00</time></trkpt><trkpt lat="43.150356" lon="19.251947"><ele>1342.5</ele><time>2012-05-01T10:36:29.0000000+00:00</time></trkpt><trkpt lat="43.150356" lon="19.251947"><ele>1342.5</ele><time>2012-05-01T10:36:34.0000000+00:00</time></trkpt><trkpt lat="43.150356" lon="19.251947"><ele>1342.5</ele><time>2012-05-01T10:36:39.0000000+00:00</time></trkpt><trkpt lat="43.150356" lon="19.251949"><ele>1342.5</ele><time>2012-05-01T10:36:44.0000000+00:00</time></trkpt><trkpt lat="43.150356" lon="19.251949"><ele>1342.5</ele><time>2012-05-01T10:36:49.0000000+00:00</time></trkpt><trkpt lat="43.150356" lon="19.251949"><ele>1342.5</ele><time>2012-05-01T10:36:54.0000000+00:00</time></trkpt><trkpt lat="43.150352" lon="19.251949"><ele>1342.5</ele><time>2012-05-01T10:36:59.0000000+00:00</time></trkpt><trkpt lat="43.150352" lon="19.251949"><ele>1342.6</ele><time>2012-05-01T10:37:04.0000000+00:00</time></trkpt><trkpt lat="43.150352" lon="19.251949"><ele>1342.6</ele><time>2012-05-01T10:37:09.0000000+00:00</time></trkpt><trkpt lat="43.150352" lon="19.251949"><ele>1342.6</ele><time>2012-05-01T10:37:14.0000000+00:00</time></trkpt><trkpt lat="43.150352" lon="19.251949"><ele>1342.6</ele><time>2012-05-01T10:37:19.0000000+00:00</time></trkpt><trkpt lat="43.150352" lon="19.251951"><ele>1342.6</ele><time>2012-05-01T10:37:24.0000000+00:00</time></trkpt><trkpt lat="43.150352" lon="19.251951"><ele>1342.6</ele><time>2012-05-01T10:37:29.0000000+00:00</time></trkpt><trkpt lat="43.150352" lon="19.251951"><ele>1342.7</ele><time>2012-05-01T10:37:34.0000000+00:00</time></trkpt><trkpt lat="43.150352" lon="19.251951"><ele>1342.7</ele><time>2012-05-01T10:37:39.0000000+00:00</time></trkpt><trkpt lat="43.150352" lon="19.251951"><ele>1342.7</ele><time>2012-05-01T10:37:44.0000000+00:00</time></trkpt><trkpt lat="43.150352" lon="19.251951"><ele>1342.7</ele><time>2012-05-01T10:37:49.0000000+00:00</time></trkpt><trkpt lat="43.150352" lon="19.251951"><ele>1342.7</ele><time>2012-05-01T10:37:54.0000000+00:00</time></trkpt><trkpt lat="43.150352" lon="19.251951"><ele>1342.8</ele><time>2012-05-01T10:37:59.0000000+00:00</time></trkpt><trkpt lat="43.150352" lon="19.251951"><ele>1342.8</ele><time>2012-05-01T10:38:04.0000000+00:00</time></trkpt><trkpt lat="43.150352" lon="19.251951"><ele>1342.8</ele><time>2012-05-01T10:38:09.0000000+00:00</time></trkpt><trkpt lat="43.150352" lon="19.251951"><ele>1342.8</ele><time>2012-05-01T10:38:14.0000000+00:00</time></trkpt><trkpt lat="43.150352" lon="19.251951"><ele>1342.9</ele><time>2012-05-01T10:38:19.0000000+00:00</time></trkpt><trkpt lat="43.150352" lon="19.251951"><ele>1342.9</ele><time>2012-05-01T10:38:24.0000000+00:00</time></trkpt><trkpt lat="43.150352" lon="19.251951"><ele>1342.9</ele><time>2012-05-01T10:38:29.0000000+00:00</time></trkpt><trkpt lat="43.150349" lon="19.251951"><ele>1342.9</ele><time>2012-05-01T10:38:34.0000000+00:00</time></trkpt><trkpt lat="43.150349" lon="19.251951"><ele>1342.9</ele><time>2012-05-01T10:38:39.0000000+00:00</time></trkpt><trkpt lat="43.150349" lon="19.251951"><ele>1343.0</ele><time>2012-05-01T10:38:44.0000000+00:00</time></trkpt><trkpt lat="43.150349" lon="19.251951"><ele>1343.0</ele><time>2012-05-01T10:38:49.0000000+00:00</time></trkpt><trkpt lat="43.150349" lon="19.251953"><ele>1343.0</ele><time>2012-05-01T10:38:54.0000000+00:00</time></trkpt><trkpt lat="43.150349" lon="19.251953"><ele>1343.1</ele><time>2012-05-01T10:38:59.0000000+00:00</time></trkpt><trkpt lat="43.150349" lon="19.251953"><ele>1343.1</ele><time>2012-05-01T10:39:04.0000000+00:00</time></trkpt><trkpt lat="43.150349" lon="19.251953"><ele>1343.1</ele><time>2012-05-01T10:39:09.0000000+00:00</time></trkpt><trkpt lat="43.150349" lon="19.251953"><ele>1343.1</ele><time>2012-05-01T10:39:14.0000000+00:00</time></trkpt><trkpt lat="43.150349" lon="19.251953"><ele>1343.1</ele><time>2012-05-01T10:39:19.0000000+00:00</time></trkpt><trkpt lat="43.150349" lon="19.251953"><ele>1343.2</ele><time>2012-05-01T10:39:24.0000000+00:00</time></trkpt><trkpt lat="43.150349" lon="19.251953"><ele>1343.2</ele><time>2012-05-01T10:39:29.0000000+00:00</time></trkpt><trkpt lat="43.150349" lon="19.251953"><ele>1343.2</ele><time>2012-05-01T10:39:34.0000000+00:00</time></trkpt><trkpt lat="43.150345" lon="19.251953"><ele>1343.2</ele><time>2012-05-01T10:39:39.0000000+00:00</time></trkpt><trkpt lat="43.150345" lon="19.251953"><ele>1343.2</ele><time>2012-05-01T10:39:44.0000000+00:00</time></trkpt><trkpt lat="43.150345" lon="19.251953"><ele>1343.2</ele><time>2012-05-01T10:39:49.0000000+00:00</time></trkpt><trkpt lat="43.150345" lon="19.251955"><ele>1343.2</ele><time>2012-05-01T10:39:54.0000000+00:00</time></trkpt><trkpt lat="43.150345" lon="19.251955"><ele>1343.3</ele><time>2012-05-01T10:39:59.0000000+00:00</time></trkpt><trkpt lat="43.150345" lon="19.251955"><ele>1343.3</ele><time>2012-05-01T10:40:04.0000000+00:00</time></trkpt><trkpt lat="43.150341" lon="19.251955"><ele>1343.3</ele><time>2012-05-01T10:40:09.0000000+00:00</time></trkpt><trkpt lat="43.150341" lon="19.251955"><ele>1343.3</ele><time>2012-05-01T10:40:14.0000000+00:00</time></trkpt><trkpt lat="43.150341" lon="19.251957"><ele>1343.4</ele><time>2012-05-01T10:40:19.0000000+00:00</time></trkpt><trkpt lat="43.150341" lon="19.251957"><ele>1343.4</ele><time>2012-05-01T10:40:24.0000000+00:00</time></trkpt><trkpt lat="43.150341" lon="19.251957"><ele>1343.4</ele><time>2012-05-01T10:40:29.0000000+00:00</time></trkpt><trkpt lat="43.150341" lon="19.251957"><ele>1343.4</ele><time>2012-05-01T10:40:34.0000000+00:00</time></trkpt><trkpt lat="43.150341" lon="19.251957"><ele>1343.4</ele><time>2012-05-01T10:40:39.0000000+00:00</time></trkpt><trkpt lat="43.150341" lon="19.251957"><ele>1343.5</ele><time>2012-05-01T10:40:44.0000000+00:00</time></trkpt><trkpt lat="43.150337" lon="19.251957"><ele>1343.5</ele><time>2012-05-01T10:40:49.0000000+00:00</time></trkpt><trkpt lat="43.150337" lon="19.251957"><ele>1343.5</ele><time>2012-05-01T10:40:54.0000000+00:00</time></trkpt><trkpt lat="43.150337" lon="19.251957"><ele>1343.5</ele><time>2012-05-01T10:40:59.0000000+00:00</time></trkpt><trkpt lat="43.150337" lon="19.251957"><ele>1343.5</ele><time>2012-05-01T10:41:04.0000000+00:00</time></trkpt><trkpt lat="43.150337" lon="19.251957"><ele>1343.5</ele><time>2012-05-01T10:41:09.0000000+00:00</time></trkpt><trkpt lat="43.150337" lon="19.251959"><ele>1343.5</ele><time>2012-05-01T10:41:14.0000000+00:00</time></trkpt><trkpt lat="43.150337" lon="19.251959"><ele>1343.5</ele><time>2012-05-01T10:41:19.0000000+00:00</time></trkpt><trkpt lat="43.150337" lon="19.251959"><ele>1343.5</ele><time>2012-05-01T10:41:24.0000000+00:00</time></trkpt><trkpt lat="43.150337" lon="19.251959"><ele>1343.5</ele><time>2012-05-01T10:41:29.0000000+00:00</time></trkpt><trkpt lat="43.150337" lon="19.251959"><ele>1343.6</ele><time>2012-05-01T10:41:34.0000000+00:00</time></trkpt><trkpt lat="43.150337" lon="19.251959"><ele>1343.6</ele><time>2012-05-01T10:41:39.0000000+00:00</time></trkpt><trkpt lat="43.150337" lon="19.251959"><ele>1343.6</ele><time>2012-05-01T10:41:44.0000000+00:00</time></trkpt><trkpt lat="43.150337" lon="19.251959"><ele>1343.6</ele><time>2012-05-01T10:41:49.0000000+00:00</time></trkpt><trkpt lat="43.150337" lon="19.251959"><ele>1343.6</ele><time>2012-05-01T10:41:54.0000000+00:00</time></trkpt><trkpt lat="43.150337" lon="19.251959"><ele>1343.6</ele><time>2012-05-01T10:41:59.0000000+00:00</time></trkpt><trkpt lat="43.150333" lon="19.251959"><ele>1343.6</ele><time>2012-05-01T10:42:04.0000000+00:00</time></trkpt><trkpt lat="43.150333" lon="19.251961"><ele>1343.6</ele><time>2012-05-01T10:42:09.0000000+00:00</time></trkpt><trkpt lat="43.150333" lon="19.251961"><ele>1343.6</ele><time>2012-05-01T10:42:14.0000000+00:00</time></trkpt><trkpt lat="43.150333" lon="19.251961"><ele>1343.6</ele><time>2012-05-01T10:42:19.0000000+00:00</time></trkpt><trkpt lat="43.150333" lon="19.251961"><ele>1343.7</ele><time>2012-05-01T10:42:24.0000000+00:00</time></trkpt><trkpt lat="43.150333" lon="19.251961"><ele>1343.7</ele><time>2012-05-01T10:42:29.0000000+00:00</time></trkpt><trkpt lat="43.150333" lon="19.251963"><ele>1343.7</ele><time>2012-05-01T10:42:34.0000000+00:00</time></trkpt><trkpt lat="43.15033" lon="19.251963"><ele>1343.8</ele><time>2012-05-01T10:42:39.0000000+00:00</time></trkpt><trkpt lat="43.15033" lon="19.251963"><ele>1343.8</ele><time>2012-05-01T10:42:44.0000000+00:00</time></trkpt><trkpt lat="43.15033" lon="19.251963"><ele>1343.8</ele><time>2012-05-01T10:42:49.0000000+00:00</time></trkpt><trkpt lat="43.15033" lon="19.251963"><ele>1343.8</ele><time>2012-05-01T10:42:54.0000000+00:00</time></trkpt><trkpt lat="43.15033" lon="19.251963"><ele>1343.8</ele><time>2012-05-01T10:42:59.0000000+00:00</time></trkpt><trkpt lat="43.15033" lon="19.251963"><ele>1343.8</ele><time>2012-05-01T10:43:04.0000000+00:00</time></trkpt><trkpt lat="43.15033" lon="19.251963"><ele>1343.8</ele><time>2012-05-01T10:43:09.0000000+00:00</time></trkpt><trkpt lat="43.15033" lon="19.251963"><ele>1343.8</ele><time>2012-05-01T10:43:14.0000000+00:00</time></trkpt><trkpt lat="43.15033" lon="19.251965"><ele>1343.8</ele><time>2012-05-01T10:43:19.0000000+00:00</time></trkpt><trkpt lat="43.15033" lon="19.251965"><ele>1343.8</ele><time>2012-05-01T10:43:24.0000000+00:00</time></trkpt><trkpt lat="43.15033" lon="19.251965"><ele>1343.9</ele><time>2012-05-01T10:43:29.0000000+00:00</time></trkpt><trkpt lat="43.15033" lon="19.251965"><ele>1343.9</ele><time>2012-05-01T10:43:34.0000000+00:00</time></trkpt><trkpt lat="43.15033" lon="19.251965"><ele>1343.9</ele><time>2012-05-01T10:43:39.0000000+00:00</time></trkpt><trkpt lat="43.150326" lon="19.251966"><ele>1343.7</ele><time>2012-05-01T10:43:44.0000000+00:00</time></trkpt><trkpt lat="43.150326" lon="19.251966"><ele>1343.7</ele><time>2012-05-01T10:43:49.0000000+00:00</time></trkpt><trkpt lat="43.150326" lon="19.251968"><ele>1343.8</ele><time>2012-05-01T10:43:54.0000000+00:00</time></trkpt><trkpt lat="43.150326" lon="19.251968"><ele>1343.8</ele><time>2012-05-01T10:43:59.0000000+00:00</time></trkpt><trkpt lat="43.150326" lon="19.251968"><ele>1343.8</ele><time>2012-05-01T10:44:04.0000000+00:00</time></trkpt><trkpt lat="43.150326" lon="19.251968"><ele>1343.8</ele><time>2012-05-01T10:44:09.0000000+00:00</time></trkpt><trkpt lat="43.150322" lon="19.25197"><ele>1343.8</ele><time>2012-05-01T10:44:14.0000000+00:00</time></trkpt><trkpt lat="43.150322" lon="19.25197"><ele>1343.7</ele><time>2012-05-01T10:44:19.0000000+00:00</time></trkpt><trkpt lat="43.150322" lon="19.25197"><ele>1343.7</ele><time>2012-05-01T10:44:24.0000000+00:00</time></trkpt><trkpt lat="43.150322" lon="19.25197"><ele>1343.7</ele><time>2012-05-01T10:44:29.0000000+00:00</time></trkpt><trkpt lat="43.150322" lon="19.25197"><ele>1343.8</ele><time>2012-05-01T10:44:34.0000000+00:00</time></trkpt><trkpt lat="43.150322" lon="19.251972"><ele>1343.8</ele><time>2012-05-01T10:44:39.0000000+00:00</time></trkpt><trkpt lat="43.150322" lon="19.251972"><ele>1343.8</ele><time>2012-05-01T10:44:44.0000000+00:00</time></trkpt><trkpt lat="43.150322" lon="19.251972"><ele>1343.8</ele><time>2012-05-01T10:44:49.0000000+00:00</time></trkpt><trkpt lat="43.150322" lon="19.251972"><ele>1343.8</ele><time>2012-05-01T10:44:54.0000000+00:00</time></trkpt><trkpt lat="43.150322" lon="19.251972"><ele>1343.8</ele><time>2012-05-01T10:44:59.0000000+00:00</time></trkpt><trkpt lat="43.150322" lon="19.251972"><ele>1343.8</ele><time>2012-05-01T10:45:04.0000000+00:00</time></trkpt><trkpt lat="43.150318" lon="19.251972"><ele>1343.8</ele><time>2012-05-01T10:45:09.0000000+00:00</time></trkpt><trkpt lat="43.150318" lon="19.251972"><ele>1343.8</ele><time>2012-05-01T10:45:14.0000000+00:00</time></trkpt><trkpt lat="43.150318" lon="19.251972"><ele>1343.8</ele><time>2012-05-01T10:45:19.0000000+00:00</time></trkpt><trkpt lat="43.150318" lon="19.25197"><ele>1343.7</ele><time>2012-05-01T10:45:24.0000000+00:00</time></trkpt><trkpt lat="43.150318" lon="19.25197"><ele>1343.7</ele><time>2012-05-01T10:45:29.0000000+00:00</time></trkpt><trkpt lat="43.150318" lon="19.25197"><ele>1343.7</ele><time>2012-05-01T10:45:34.0000000+00:00</time></trkpt><trkpt lat="43.150318" lon="19.25197"><ele>1343.7</ele><time>2012-05-01T10:45:39.0000000+00:00</time></trkpt><trkpt lat="43.150318" lon="19.25197"><ele>1343.7</ele><time>2012-05-01T10:45:44.0000000+00:00</time></trkpt><trkpt lat="43.150318" lon="19.25197"><ele>1343.7</ele><time>2012-05-01T10:45:49.0000000+00:00</time></trkpt><trkpt lat="43.150318" lon="19.25197"><ele>1343.7</ele><time>2012-05-01T10:45:54.0000000+00:00</time></trkpt><trkpt lat="43.150318" lon="19.25197"><ele>1343.7</ele><time>2012-05-01T10:45:59.0000000+00:00</time></trkpt><trkpt lat="43.150318" lon="19.25197"><ele>1343.7</ele><time>2012-05-01T10:46:04.0000000+00:00</time></trkpt><trkpt lat="43.150318" lon="19.25197"><ele>1343.7</ele><time>2012-05-01T10:46:09.0000000+00:00</time></trkpt><trkpt lat="43.150318" lon="19.25197"><ele>1343.7</ele><time>2012-05-01T10:46:14.0000000+00:00</time></trkpt><trkpt lat="43.150318" lon="19.25197"><ele>1343.6</ele><time>2012-05-01T10:46:19.0000000+00:00</time></trkpt><trkpt lat="43.150318" lon="19.25197"><ele>1343.6</ele><time>2012-05-01T10:46:24.0000000+00:00</time></trkpt><trkpt lat="43.150318" lon="19.25197"><ele>1343.6</ele><time>2012-05-01T10:46:29.0000000+00:00</time></trkpt><trkpt lat="43.150318" lon="19.25197"><ele>1343.6</ele><time>2012-05-01T10:46:34.0000000+00:00</time></trkpt><trkpt lat="43.150318" lon="19.25197"><ele>1343.6</ele><time>2012-05-01T10:46:39.0000000+00:00</time></trkpt><trkpt lat="43.150318" lon="19.25197"><ele>1343.6</ele><time>2012-05-01T10:46:44.0000000+00:00</time></trkpt><trkpt lat="43.150318" lon="19.251968"><ele>1343.6</ele><time>2012-05-01T10:46:49.0000000+00:00</time></trkpt><trkpt lat="43.150314" lon="19.251966"><ele>1343.3</ele><time>2012-05-01T10:46:54.0000000+00:00</time></trkpt><trkpt lat="43.150314" lon="19.251966"><ele>1343.3</ele><time>2012-05-01T10:46:59.0000000+00:00</time></trkpt><trkpt lat="43.150314" lon="19.251966"><ele>1343.3</ele><time>2012-05-01T10:47:04.0000000+00:00</time></trkpt><trkpt lat="43.150314" lon="19.251966"><ele>1343.2</ele><time>2012-05-01T10:47:09.0000000+00:00</time></trkpt><trkpt lat="43.150314" lon="19.251966"><ele>1343.2</ele><time>2012-05-01T10:47:14.0000000+00:00</time></trkpt><trkpt lat="43.150314" lon="19.251966"><ele>1343.2</ele><time>2012-05-01T10:47:19.0000000+00:00</time></trkpt><trkpt lat="43.150311" lon="19.251966"><ele>1343.2</ele><time>2012-05-01T10:47:24.0000000+00:00</time></trkpt><trkpt lat="43.150311" lon="19.251966"><ele>1343.2</ele><time>2012-05-01T10:47:29.0000000+00:00</time></trkpt><trkpt lat="43.150311" lon="19.251966"><ele>1343.2</ele><time>2012-05-01T10:47:34.0000000+00:00</time></trkpt><trkpt lat="43.150311" lon="19.251966"><ele>1343.2</ele><time>2012-05-01T10:47:39.0000000+00:00</time></trkpt><trkpt lat="43.150311" lon="19.251966"><ele>1343.2</ele><time>2012-05-01T10:47:44.0000000+00:00</time></trkpt><trkpt lat="43.150314" lon="19.251965"><ele>1343.1</ele><time>2012-05-01T10:47:49.0000000+00:00</time></trkpt><trkpt lat="43.15033" lon="19.251797"><ele>1342.3</ele><time>2012-05-01T10:47:54.0000000+00:00</time></trkpt><trkpt lat="43.150379" lon="19.251553"><ele>1341.8</ele><time>2012-05-01T10:47:59.0000000+00:00</time></trkpt><trkpt lat="43.15041" lon="19.251312"><ele>1341.7</ele><time>2012-05-01T10:48:04.0000000+00:00</time></trkpt><trkpt lat="43.150429" lon="19.251055"><ele>1341.5</ele><time>2012-05-01T10:48:09.0000000+00:00</time></trkpt><trkpt lat="43.150414" lon="19.250834"><ele>1341.8</ele><time>2012-05-01T10:48:14.0000000+00:00</time></trkpt><trkpt lat="43.150387" lon="19.250612"><ele>1341.7</ele><time>2012-05-01T10:48:19.0000000+00:00</time></trkpt><trkpt lat="43.15033" lon="19.250406"><ele>1342.1</ele><time>2012-05-01T10:48:24.0000000+00:00</time></trkpt><trkpt lat="43.150257" lon="19.2502"><ele>1342.8</ele><time>2012-05-01T10:48:29.0000000+00:00</time></trkpt><trkpt lat="43.150181" lon="19.250011"><ele>1342.7</ele><time>2012-05-01T10:48:34.0000000+00:00</time></trkpt><trkpt lat="43.150085" lon="19.249834"><ele>1342.8</ele><time>2012-05-01T10:48:39.0000000+00:00</time></trkpt><trkpt lat="43.149952" lon="19.24964"><ele>1342.9</ele><time>2012-05-01T10:48:44.0000000+00:00</time></trkpt><trkpt lat="43.149784" lon="19.249466"><ele>1342.8</ele><time>2012-05-01T10:48:49.0000000+00:00</time></trkpt><trkpt lat="43.149563" lon="19.249292"><ele>1342.8</ele><time>2012-05-01T10:48:54.0000000+00:00</time></trkpt><trkpt lat="43.149296" lon="19.249104"><ele>1342.9</ele><time>2012-05-01T10:48:59.0000000+00:00</time></trkpt><trkpt lat="43.148979" lon="19.248898"><ele>1342.9</ele><time>2012-05-01T10:49:04.0000000+00:00</time></trkpt><trkpt lat="43.148632" lon="19.248648"><ele>1343.0</ele><time>2012-05-01T10:49:09.0000000+00:00</time></trkpt><trkpt lat="43.148277" lon="19.248302"><ele>1342.8</ele><time>2012-05-01T10:49:14.0000000+00:00</time></trkpt><trkpt lat="43.147968" lon="19.247862"><ele>1343.3</ele><time>2012-05-01T10:49:19.0000000+00:00</time></trkpt><trkpt lat="43.147747" lon="19.247349"><ele>1343.5</ele><time>2012-05-01T10:49:24.0000000+00:00</time></trkpt><trkpt lat="43.147644" lon="19.246834"><ele>1342.2</ele><time>2012-05-01T10:49:29.0000000+00:00</time></trkpt><trkpt lat="43.147614" lon="19.246273"><ele>1341.3</ele><time>2012-05-01T10:49:34.0000000+00:00</time></trkpt><trkpt lat="43.147655" lon="19.245699"><ele>1340.0</ele><time>2012-05-01T10:49:39.0000000+00:00</time></trkpt><trkpt lat="43.147789" lon="19.245176"><ele>1338.7</ele><time>2012-05-01T10:49:44.0000000+00:00</time></trkpt><trkpt lat="43.14798" lon="19.244673"><ele>1337.2</ele><time>2012-05-01T10:49:49.0000000+00:00</time></trkpt><trkpt lat="43.148186" lon="19.244221"><ele>1335.6</ele><time>2012-05-01T10:49:54.0000000+00:00</time></trkpt><trkpt lat="43.148342" lon="19.243841"><ele>1334.2</ele><time>2012-05-01T10:49:59.0000000+00:00</time></trkpt><trkpt lat="43.14843" lon="19.243494"><ele>1332.9</ele><time>2012-05-01T10:50:04.0000000+00:00</time></trkpt><trkpt lat="43.148499" lon="19.243097"><ele>1332.1</ele><time>2012-05-01T10:50:09.0000000+00:00</time></trkpt><trkpt lat="43.148499" lon="19.242678"><ele>1331.9</ele><time>2012-05-01T10:50:14.0000000+00:00</time></trkpt><trkpt lat="43.148491" lon="19.242233"><ele>1331.8</ele><time>2012-05-01T10:50:19.0000000+00:00</time></trkpt><trkpt lat="43.148479" lon="19.241827"><ele>1331.9</ele><time>2012-05-01T10:50:24.0000000+00:00</time></trkpt><trkpt lat="43.148479" lon="19.241402"><ele>1332.0</ele><time>2012-05-01T10:50:29.0000000+00:00</time></trkpt><trkpt lat="43.148434" lon="19.241007"><ele>1332.5</ele><time>2012-05-01T10:50:34.0000000+00:00</time></trkpt><trkpt lat="43.148335" lon="19.240591"><ele>1332.6</ele><time>2012-05-01T10:50:39.0000000+00:00</time></trkpt><trkpt lat="43.14822" lon="19.240181"><ele>1332.4</ele><time>2012-05-01T10:50:44.0000000+00:00</time></trkpt><trkpt lat="43.148144" lon="19.239748"><ele>1333.0</ele><time>2012-05-01T10:50:49.0000000+00:00</time></trkpt><trkpt lat="43.14809" lon="19.239275"><ele>1335.6</ele><time>2012-05-01T10:50:54.0000000+00:00</time></trkpt><trkpt lat="43.148125" lon="19.238802"><ele>1337.8</ele><time>2012-05-01T10:50:59.0000000+00:00</time></trkpt><trkpt lat="43.148232" lon="19.238369"><ele>1337.3</ele><time>2012-05-01T10:51:04.0000000+00:00</time></trkpt><trkpt lat="43.148342" lon="19.237894"><ele>1337.5</ele><time>2012-05-01T10:51:09.0000000+00:00</time></trkpt><trkpt lat="43.148434" lon="19.237387"><ele>1338.2</ele><time>2012-05-01T10:51:14.0000000+00:00</time></trkpt><trkpt lat="43.148457" lon="19.236893"><ele>1338.2</ele><time>2012-05-01T10:51:19.0000000+00:00</time></trkpt><trkpt lat="43.148376" lon="19.236403"><ele>1338.0</ele><time>2012-05-01T10:51:24.0000000+00:00</time></trkpt><trkpt lat="43.148178" lon="19.235954"><ele>1337.3</ele><time>2012-05-01T10:51:29.0000000+00:00</time></trkpt><trkpt lat="43.147873" lon="19.23554"><ele>1335.8</ele><time>2012-05-01T10:51:34.0000000+00:00</time></trkpt><trkpt lat="43.147442" lon="19.23522"><ele>1333.8</ele><time>2012-05-01T10:51:39.0000000+00:00</time></trkpt><trkpt lat="43.146946" lon="19.234922"><ele>1331.2</ele><time>2012-05-01T10:51:44.0000000+00:00</time></trkpt><trkpt lat="43.146389" lon="19.234608"><ele>1327.7</ele><time>2012-05-01T10:51:49.0000000+00:00</time></trkpt><trkpt lat="43.145771" lon="19.234318"><ele>1323.5</ele><time>2012-05-01T10:51:54.0000000+00:00</time></trkpt><trkpt lat="43.14521" lon="19.233963"><ele>1319.6</ele><time>2012-05-01T10:51:59.0000000+00:00</time></trkpt><trkpt lat="43.144867" lon="19.233625"><ele>1317.2</ele><time>2012-05-01T10:52:04.0000000+00:00</time></trkpt><trkpt lat="43.144672" lon="19.233589"><ele>1316.2</ele><time>2012-05-01T10:52:09.0000000+00:00</time></trkpt><trkpt lat="43.144661" lon="19.233601"><ele>1316.2</ele><time>2012-05-01T10:52:14.0000000+00:00</time></trkpt><trkpt lat="43.144665" lon="19.233606"><ele>1316.2</ele><time>2012-05-01T10:52:19.0000000+00:00</time></trkpt><trkpt lat="43.144661" lon="19.233606"><ele>1316.1</ele><time>2012-05-01T10:52:24.0000000+00:00</time></trkpt><trkpt lat="43.144661" lon="19.233606"><ele>1316.1</ele><time>2012-05-01T10:52:29.0000000+00:00</time></trkpt><trkpt lat="43.144661" lon="19.233606"><ele>1316.1</ele><time>2012-05-01T10:52:34.0000000+00:00</time></trkpt><trkpt lat="43.144661" lon="19.233606"><ele>1316.1</ele><time>2012-05-01T10:52:39.0000000+00:00</time></trkpt><trkpt lat="43.144661" lon="19.233606"><ele>1316.1</ele><time>2012-05-01T10:52:44.0000000+00:00</time></trkpt><trkpt lat="43.144661" lon="19.233606"><ele>1316.1</ele><time>2012-05-01T10:52:49.0000000+00:00</time></trkpt><trkpt lat="43.144657" lon="19.23361"><ele>1316.1</ele><time>2012-05-01T10:52:54.0000000+00:00</time></trkpt><trkpt lat="43.144657" lon="19.23361"><ele>1316.1</ele><time>2012-05-01T10:52:59.0000000+00:00</time></trkpt><trkpt lat="43.144657" lon="19.23361"><ele>1316.1</ele><time>2012-05-01T10:53:04.0000000+00:00</time></trkpt><trkpt lat="43.144657" lon="19.23361"><ele>1316.1</ele><time>2012-05-01T10:53:09.0000000+00:00</time></trkpt><trkpt lat="43.144657" lon="19.23361"><ele>1316.1</ele><time>2012-05-01T10:53:14.0000000+00:00</time></trkpt><trkpt lat="43.144653" lon="19.23361"><ele>1316.1</ele><time>2012-05-01T10:53:19.0000000+00:00</time></trkpt><trkpt lat="43.14465" lon="19.233614"><ele>1316.5</ele><time>2012-05-01T10:53:24.0000000+00:00</time></trkpt><trkpt lat="43.144646" lon="19.233616"><ele>1316.5</ele><time>2012-05-01T10:53:29.0000000+00:00</time></trkpt><trkpt lat="43.14465" lon="19.233616"><ele>1316.5</ele><time>2012-05-01T10:53:34.0000000+00:00</time></trkpt><trkpt lat="43.14465" lon="19.233614"><ele>1316.6</ele><time>2012-05-01T10:53:39.0000000+00:00</time></trkpt><trkpt lat="43.14465" lon="19.233614"><ele>1316.6</ele><time>2012-05-01T10:53:44.0000000+00:00</time></trkpt><trkpt lat="43.14465" lon="19.233614"><ele>1316.6</ele><time>2012-05-01T10:53:49.0000000+00:00</time></trkpt><trkpt lat="43.14465" lon="19.233614"><ele>1316.6</ele><time>2012-05-01T10:53:54.0000000+00:00</time></trkpt><trkpt lat="43.14465" lon="19.233614"><ele>1316.6</ele><time>2012-05-01T10:53:59.0000000+00:00</time></trkpt><trkpt lat="43.14465" lon="19.233614"><ele>1316.6</ele><time>2012-05-01T10:54:04.0000000+00:00</time></trkpt><trkpt lat="43.14465" lon="19.233614"><ele>1316.6</ele><time>2012-05-01T10:54:09.0000000+00:00</time></trkpt><trkpt lat="43.14465" lon="19.233616"><ele>1316.6</ele><time>2012-05-01T10:54:14.0000000+00:00</time></trkpt><trkpt lat="43.144588" lon="19.233673"><ele>1316.4</ele><time>2012-05-01T10:54:19.0000000+00:00</time></trkpt><trkpt lat="43.144463" lon="19.233805"><ele>1316.0</ele><time>2012-05-01T10:54:24.0000000+00:00</time></trkpt><trkpt lat="43.144264" lon="19.233965"><ele>1315.6</ele><time>2012-05-01T10:54:29.0000000+00:00</time></trkpt><trkpt lat="43.144032" lon="19.234138"><ele>1315.5</ele><time>2012-05-01T10:54:34.0000000+00:00</time></trkpt><trkpt lat="43.143787" lon="19.234283"><ele>1315.5</ele><time>2012-05-01T10:54:39.0000000+00:00</time></trkpt><trkpt lat="43.143509" lon="19.234329"><ele>1315.5</ele><time>2012-05-01T10:54:44.0000000+00:00</time></trkpt><trkpt lat="43.143318" lon="19.234289"><ele>1315.2</ele><time>2012-05-01T10:54:49.0000000+00:00</time></trkpt><trkpt lat="43.143131" lon="19.234215"><ele>1315.1</ele><time>2012-05-01T10:54:54.0000000+00:00</time></trkpt><trkpt lat="43.142887" lon="19.234123"><ele>1315.5</ele><time>2012-05-01T10:54:59.0000000+00:00</time></trkpt><trkpt lat="43.142643" lon="19.234108"><ele>1315.6</ele><time>2012-05-01T10:55:04.0000000+00:00</time></trkpt><trkpt lat="43.142365" lon="19.2342"><ele>1315.0</ele><time>2012-05-01T10:55:09.0000000+00:00</time></trkpt><trkpt lat="43.14209" lon="19.234343"><ele>1313.9</ele><time>2012-05-01T10:55:14.0000000+00:00</time></trkpt><trkpt lat="43.141781" lon="19.234491"><ele>1312.7</ele><time>2012-05-01T10:55:19.0000000+00:00</time></trkpt><trkpt lat="43.141441" lon="19.234455"><ele>1312.6</ele><time>2012-05-01T10:55:24.0000000+00:00</time></trkpt><trkpt lat="43.141136" lon="19.234339"><ele>1313.0</ele><time>2012-05-01T10:55:29.0000000+00:00</time></trkpt><trkpt lat="43.140846" lon="19.234243"><ele>1312.6</ele><time>2012-05-01T10:55:34.0000000+00:00</time></trkpt><trkpt lat="43.140549" lon="19.234138"><ele>1312.5</ele><time>2012-05-01T10:55:39.0000000+00:00</time></trkpt><trkpt lat="43.140255" lon="19.234053"><ele>1312.2</ele><time>2012-05-01T10:55:44.0000000+00:00</time></trkpt><trkpt lat="43.139984" lon="19.233961"><ele>1312.1</ele><time>2012-05-01T10:55:49.0000000+00:00</time></trkpt><trkpt lat="43.139725" lon="19.233871"><ele>1312.3</ele><time>2012-05-01T10:55:54.0000000+00:00</time></trkpt><trkpt lat="43.139446" lon="19.233774"><ele>1312.5</ele><time>2012-05-01T10:55:59.0000000+00:00</time></trkpt><trkpt lat="43.139168" lon="19.233673"><ele>1313.0</ele><time>2012-05-01T10:56:04.0000000+00:00</time></trkpt><trkpt lat="43.138908" lon="19.233582"><ele>1314.0</ele><time>2012-05-01T10:56:09.0000000+00:00</time></trkpt><trkpt lat="43.138622" lon="19.233482"><ele>1315.6</ele><time>2012-05-01T10:56:14.0000000+00:00</time></trkpt><trkpt lat="43.138332" lon="19.233379"><ele>1316.5</ele><time>2012-05-01T10:56:19.0000000+00:00</time></trkpt><trkpt lat="43.138073" lon="19.233305"><ele>1316.7</ele><time>2012-05-01T10:56:24.0000000+00:00</time></trkpt><trkpt lat="43.137852" lon="19.233232"><ele>1316.9</ele><time>2012-05-01T10:56:29.0000000+00:00</time></trkpt><trkpt lat="43.137661" lon="19.233185"><ele>1317.0</ele><time>2012-05-01T10:56:34.0000000+00:00</time></trkpt><trkpt lat="43.137417" lon="19.233095"><ele>1317.4</ele><time>2012-05-01T10:56:39.0000000+00:00</time></trkpt><trkpt lat="43.137177" lon="19.233013"><ele>1318.5</ele><time>2012-05-01T10:56:44.0000000+00:00</time></trkpt><trkpt lat="43.136959" lon="19.232933"><ele>1319.1</ele><time>2012-05-01T10:56:49.0000000+00:00</time></trkpt><trkpt lat="43.136703" lon="19.232843"><ele>1319.5</ele><time>2012-05-01T10:56:54.0000000+00:00</time></trkpt><trkpt lat="43.136463" lon="19.232761"><ele>1319.3</ele><time>2012-05-01T10:56:59.0000000+00:00</time></trkpt><trkpt lat="43.136204" lon="19.232677"><ele>1318.8</ele><time>2012-05-01T10:57:04.0000000+00:00</time></trkpt><trkpt lat="43.135948" lon="19.232594"><ele>1319.0</ele><time>2012-05-01T10:57:09.0000000+00:00</time></trkpt><trkpt lat="43.135719" lon="19.232513"><ele>1319.6</ele><time>2012-05-01T10:57:14.0000000+00:00</time></trkpt><trkpt lat="43.135498" lon="19.232441"><ele>1320.0</ele><time>2012-05-01T10:57:19.0000000+00:00</time></trkpt><trkpt lat="43.135281" lon="19.232376"><ele>1320.2</ele><time>2012-05-01T10:57:24.0000000+00:00</time></trkpt><trkpt lat="43.135082" lon="19.232306"><ele>1320.8</ele><time>2012-05-01T10:57:29.0000000+00:00</time></trkpt><trkpt lat="43.134884" lon="19.232229"><ele>1321.1</ele><time>2012-05-01T10:57:34.0000000+00:00</time></trkpt><trkpt lat="43.134705" lon="19.232143"><ele>1321.4</ele><time>2012-05-01T10:57:39.0000000+00:00</time></trkpt><trkpt lat="43.134525" lon="19.232075"><ele>1321.7</ele><time>2012-05-01T10:57:44.0000000+00:00</time></trkpt><trkpt lat="43.13435" lon="19.232004"><ele>1322.1</ele><time>2012-05-01T10:57:49.0000000+00:00</time></trkpt><trkpt lat="43.134178" lon="19.23193"><ele>1322.8</ele><time>2012-05-01T10:57:54.0000000+00:00</time></trkpt><trkpt lat="43.133987" lon="19.231863"><ele>1322.8</ele><time>2012-05-01T10:57:59.0000000+00:00</time></trkpt><trkpt lat="43.133835" lon="19.231792"><ele>1322.9</ele><time>2012-05-01T10:58:04.0000000+00:00</time></trkpt><trkpt lat="43.133675" lon="19.231731"><ele>1322.7</ele><time>2012-05-01T10:58:09.0000000+00:00</time></trkpt><trkpt lat="43.133522" lon="19.231647"><ele>1323.0</ele><time>2012-05-01T10:58:14.0000000+00:00</time></trkpt><trkpt lat="43.133331" lon="19.231577"><ele>1323.4</ele><time>2012-05-01T10:58:19.0000000+00:00</time></trkpt><trkpt lat="43.133118" lon="19.231501"><ele>1323.4</ele><time>2012-05-01T10:58:24.0000000+00:00</time></trkpt><trkpt lat="43.132942" lon="19.23143"><ele>1323.1</ele><time>2012-05-01T10:58:29.0000000+00:00</time></trkpt><trkpt lat="43.132782" lon="19.231365"><ele>1323.5</ele><time>2012-05-01T10:58:34.0000000+00:00</time></trkpt><trkpt lat="43.132633" lon="19.231281"><ele>1323.7</ele><time>2012-05-01T10:58:39.0000000+00:00</time></trkpt><trkpt lat="43.132504" lon="19.231129"><ele>1323.7</ele><time>2012-05-01T10:58:44.0000000+00:00</time></trkpt><trkpt lat="43.132324" lon="19.230967"><ele>1322.7</ele><time>2012-05-01T10:58:49.0000000+00:00</time></trkpt><trkpt lat="43.132095" lon="19.230745"><ele>1322.2</ele><time>2012-05-01T10:58:54.0000000+00:00</time></trkpt><trkpt lat="43.131828" lon="19.230518"><ele>1321.9</ele><time>2012-05-01T10:58:59.0000000+00:00</time></trkpt><trkpt lat="43.131489" lon="19.230347"><ele>1321.0</ele><time>2012-05-01T10:59:04.0000000+00:00</time></trkpt><trkpt lat="43.13113" lon="19.230278"><ele>1319.8</ele><time>2012-05-01T10:59:09.0000000+00:00</time></trkpt><trkpt lat="43.130768" lon="19.230196"><ele>1318.5</ele><time>2012-05-01T10:59:14.0000000+00:00</time></trkpt><trkpt lat="43.130421" lon="19.22991"><ele>1317.9</ele><time>2012-05-01T10:59:19.0000000+00:00</time></trkpt><trkpt lat="43.130096" lon="19.229622"><ele>1318.0</ele><time>2012-05-01T10:59:24.0000000+00:00</time></trkpt><trkpt lat="43.129795" lon="19.229361"><ele>1318.1</ele><time>2012-05-01T10:59:29.0000000+00:00</time></trkpt><trkpt lat="43.12949" lon="19.229095"><ele>1318.2</ele><time>2012-05-01T10:59:34.0000000+00:00</time></trkpt><trkpt lat="43.129189" lon="19.228821"><ele>1318.5</ele><time>2012-05-01T10:59:39.0000000+00:00</time></trkpt><trkpt lat="43.128906" lon="19.22859"><ele>1319.0</ele><time>2012-05-01T10:59:44.0000000+00:00</time></trkpt><trkpt lat="43.128647" lon="19.228401"><ele>1319.4</ele><time>2012-05-01T10:59:49.0000000+00:00</time></trkpt><trkpt lat="43.128437" lon="19.228241"><ele>1319.7</ele><time>2012-05-01T10:59:54.0000000+00:00</time></trkpt><trkpt lat="43.128227" lon="19.228107"><ele>1320.2</ele><time>2012-05-01T10:59:59.0000000+00:00</time></trkpt><trkpt lat="43.128006" lon="19.22797"><ele>1320.6</ele><time>2012-05-01T11:00:04.0000000+00:00</time></trkpt><trkpt lat="43.127827" lon="19.227823"><ele>1321.4</ele><time>2012-05-01T11:00:09.0000000+00:00</time></trkpt><trkpt lat="43.12772" lon="19.227728"><ele>1321.8</ele><time>2012-05-01T11:00:14.0000000+00:00</time></trkpt><trkpt lat="43.127724" lon="19.227642"><ele>1321.1</ele><time>2012-05-01T11:00:19.0000000+00:00</time></trkpt><trkpt lat="43.127773" lon="19.2276"><ele>1320.2</ele><time>2012-05-01T11:00:24.0000000+00:00</time></trkpt><trkpt lat="43.127815" lon="19.227627"><ele>1319.1</ele><time>2012-05-01T11:00:29.0000000+00:00</time></trkpt><trkpt lat="43.127739" lon="19.227686"><ele>1319.1</ele><time>2012-05-01T11:00:34.0000000+00:00</time></trkpt><trkpt lat="43.127575" lon="19.227606"><ele>1319.5</ele><time>2012-05-01T11:00:39.0000000+00:00</time></trkpt><trkpt lat="43.127399" lon="19.227499"><ele>1319.7</ele><time>2012-05-01T11:00:44.0000000+00:00</time></trkpt><trkpt lat="43.127243" lon="19.227398"><ele>1320.1</ele><time>2012-05-01T11:00:49.0000000+00:00</time></trkpt><trkpt lat="43.127052" lon="19.227236"><ele>1320.6</ele><time>2012-05-01T11:00:54.0000000+00:00</time></trkpt><trkpt lat="43.126816" lon="19.227074"><ele>1321.0</ele><time>2012-05-01T11:00:59.0000000+00:00</time></trkpt><trkpt lat="43.126587" lon="19.226889"><ele>1321.7</ele><time>2012-05-01T11:01:04.0000000+00:00</time></trkpt><trkpt lat="43.126362" lon="19.226723"><ele>1322.7</ele><time>2012-05-01T11:01:09.0000000+00:00</time></trkpt><trkpt lat="43.126144" lon="19.226559"><ele>1323.5</ele><time>2012-05-01T11:01:14.0000000+00:00</time></trkpt><trkpt lat="43.125919" lon="19.226389"><ele>1323.6</ele><time>2012-05-01T11:01:19.0000000+00:00</time></trkpt><trkpt lat="43.125694" lon="19.226219"><ele>1323.7</ele><time>2012-05-01T11:01:24.0000000+00:00</time></trkpt><trkpt lat="43.125496" lon="19.226059"><ele>1323.5</ele><time>2012-05-01T11:01:29.0000000+00:00</time></trkpt><trkpt lat="43.125271" lon="19.225908"><ele>1323.7</ele><time>2012-05-01T11:01:34.0000000+00:00</time></trkpt><trkpt lat="43.125069" lon="19.22578"><ele>1324.2</ele><time>2012-05-01T11:01:39.0000000+00:00</time></trkpt><trkpt lat="43.124874" lon="19.225658"><ele>1324.6</ele><time>2012-05-01T11:01:44.0000000+00:00</time></trkpt><trkpt lat="43.124672" lon="19.225521"><ele>1325.2</ele><time>2012-05-01T11:01:49.0000000+00:00</time></trkpt><trkpt lat="43.124485" lon="19.225389"><ele>1325.6</ele><time>2012-05-01T11:01:54.0000000+00:00</time></trkpt><trkpt lat="43.124294" lon="19.22526"><ele>1326.0</ele><time>2012-05-01T11:01:59.0000000+00:00</time></trkpt><trkpt lat="43.124119" lon="19.225124"><ele>1326.2</ele><time>2012-05-01T11:02:04.0000000+00:00</time></trkpt><trkpt lat="43.123943" lon="19.225"><ele>1326.2</ele><time>2012-05-01T11:02:09.0000000+00:00</time></trkpt><trkpt lat="43.123787" lon="19.224859"><ele>1325.6</ele><time>2012-05-01T11:02:14.0000000+00:00</time></trkpt><trkpt lat="43.123631" lon="19.22473"><ele>1324.8</ele><time>2012-05-01T11:02:19.0000000+00:00</time></trkpt><trkpt lat="43.123444" lon="19.224583"><ele>1326.7</ele><time>2012-05-01T11:02:24.0000000+00:00</time></trkpt><trkpt lat="43.12328" lon="19.224415"><ele>1327.5</ele><time>2012-05-01T11:02:29.0000000+00:00</time></trkpt><trkpt lat="43.12315" lon="19.224239"><ele>1326.6</ele><time>2012-05-01T11:02:34.0000000+00:00</time></trkpt><trkpt lat="43.1231" lon="19.224173"><ele>1326.9</ele><time>2012-05-01T11:02:39.0000000+00:00</time></trkpt><trkpt lat="43.123077" lon="19.22414"><ele>1326.5</ele><time>2012-05-01T11:02:44.0000000+00:00</time></trkpt><trkpt lat="43.123074" lon="19.224154"><ele>1326.6</ele><time>2012-05-01T11:02:49.0000000+00:00</time></trkpt><trkpt lat="43.123119" lon="19.224195"><ele>1325.7</ele><time>2012-05-01T11:02:54.0000000+00:00</time></trkpt><trkpt lat="43.12318" lon="19.224213"><ele>1323.4</ele><time>2012-05-01T11:02:59.0000000+00:00</time></trkpt><trkpt lat="43.12318" lon="19.224215"><ele>1322.8</ele><time>2012-05-01T11:03:04.0000000+00:00</time></trkpt><trkpt lat="43.123196" lon="19.224247"><ele>1322.6</ele><time>2012-05-01T11:03:09.0000000+00:00</time></trkpt><trkpt lat="43.12318" lon="19.22426"><ele>1323.6</ele><time>2012-05-01T11:03:14.0000000+00:00</time></trkpt><trkpt lat="43.123184" lon="19.224222"><ele>1324.2</ele><time>2012-05-01T11:03:19.0000000+00:00</time></trkpt><trkpt lat="43.12318" lon="19.224224"><ele>1324.9</ele><time>2012-05-01T11:03:24.0000000+00:00</time></trkpt><trkpt lat="43.12318" lon="19.224224"><ele>1325.5</ele><time>2012-05-01T11:03:29.0000000+00:00</time></trkpt><trkpt lat="43.12318" lon="19.224224"><ele>1325.6</ele><time>2012-05-01T11:03:34.0000000+00:00</time></trkpt><trkpt lat="43.12318" lon="19.224224"><ele>1325.7</ele><time>2012-05-01T11:03:39.0000000+00:00</time></trkpt><trkpt lat="43.12318" lon="19.224224"><ele>1325.7</ele><time>2012-05-01T11:03:44.0000000+00:00</time></trkpt><trkpt lat="43.12318" lon="19.224224"><ele>1325.7</ele><time>2012-05-01T11:03:49.0000000+00:00</time></trkpt><trkpt lat="43.12318" lon="19.224224"><ele>1325.7</ele><time>2012-05-01T11:03:54.0000000+00:00</time></trkpt><trkpt lat="43.12318" lon="19.224224"><ele>1325.7</ele><time>2012-05-01T11:03:59.0000000+00:00</time></trkpt><trkpt lat="43.12318" lon="19.224224"><ele>1325.8</ele><time>2012-05-01T11:04:04.0000000+00:00</time></trkpt><trkpt lat="43.12318" lon="19.224224"><ele>1325.8</ele><time>2012-05-01T11:04:09.0000000+00:00</time></trkpt><trkpt lat="43.12318" lon="19.224224"><ele>1325.8</ele><time>2012-05-01T11:04:14.0000000+00:00</time></trkpt><trkpt lat="43.12318" lon="19.224224"><ele>1325.8</ele><time>2012-05-01T11:04:19.0000000+00:00</time></trkpt><trkpt lat="43.12318" lon="19.224224"><ele>1325.8</ele><time>2012-05-01T11:04:24.0000000+00:00</time></trkpt><trkpt lat="43.12318" lon="19.224224"><ele>1325.8</ele><time>2012-05-01T11:04:29.0000000+00:00</time></trkpt><trkpt lat="43.12318" lon="19.224224"><ele>1325.7</ele><time>2012-05-01T11:04:34.0000000+00:00</time></trkpt><trkpt lat="43.12318" lon="19.224224"><ele>1325.7</ele><time>2012-05-01T11:04:39.0000000+00:00</time></trkpt><trkpt lat="43.12318" lon="19.224224"><ele>1325.7</ele><time>2012-05-01T11:04:44.0000000+00:00</time></trkpt><trkpt lat="43.12318" lon="19.224224"><ele>1325.7</ele><time>2012-05-01T11:04:49.0000000+00:00</time></trkpt><trkpt lat="43.123096" lon="19.224142"><ele>1326.7</ele><time>2012-05-01T11:04:54.0000000+00:00</time></trkpt><trkpt lat="43.122948" lon="19.223984"><ele>1327.6</ele><time>2012-05-01T11:04:59.0000000+00:00</time></trkpt><trkpt lat="43.122799" lon="19.223799"><ele>1327.9</ele><time>2012-05-01T11:05:04.0000000+00:00</time></trkpt><trkpt lat="43.122665" lon="19.223642"><ele>1328.5</ele><time>2012-05-01T11:05:09.0000000+00:00</time></trkpt><trkpt lat="43.122524" lon="19.22344"><ele>1326.8</ele><time>2012-05-01T11:05:14.0000000+00:00</time></trkpt><trkpt lat="43.122375" lon="19.223234"><ele>1325.8</ele><time>2012-05-01T11:05:19.0000000+00:00</time></trkpt><trkpt lat="43.122211" lon="19.223051"><ele>1327.0</ele><time>2012-05-01T11:05:24.0000000+00:00</time></trkpt><trkpt lat="43.122066" lon="19.222853"><ele>1326.9</ele><time>2012-05-01T11:05:29.0000000+00:00</time></trkpt><trkpt lat="43.121948" lon="19.222702"><ele>1327.5</ele><time>2012-05-01T11:05:34.0000000+00:00</time></trkpt><trkpt lat="43.121845" lon="19.222555"><ele>1327.4</ele><time>2012-05-01T11:05:39.0000000+00:00</time></trkpt><trkpt lat="43.121727" lon="19.222393"><ele>1327.7</ele><time>2012-05-01T11:05:44.0000000+00:00</time></trkpt><trkpt lat="43.121628" lon="19.222237"><ele>1328.0</ele><time>2012-05-01T11:05:49.0000000+00:00</time></trkpt><trkpt lat="43.12149" lon="19.222057"><ele>1327.0</ele><time>2012-05-01T11:05:54.0000000+00:00</time></trkpt><trkpt lat="43.121311" lon="19.221853"><ele>1327.7</ele><time>2012-05-01T11:05:59.0000000+00:00</time></trkpt><trkpt lat="43.121185" lon="19.221682"><ele>1327.9</ele><time>2012-05-01T11:06:04.0000000+00:00</time></trkpt><trkpt lat="43.121052" lon="19.221535"><ele>1328.7</ele><time>2012-05-01T11:06:09.0000000+00:00</time></trkpt><trkpt lat="43.120911" lon="19.221361"><ele>1329.6</ele><time>2012-05-01T11:06:14.0000000+00:00</time></trkpt><trkpt lat="43.12077" lon="19.221186"><ele>1329.3</ele><time>2012-05-01T11:06:19.0000000+00:00</time></trkpt><trkpt lat="43.120625" lon="19.221012"><ele>1329.7</ele><time>2012-05-01T11:06:24.0000000+00:00</time></trkpt><trkpt lat="43.120499" lon="19.220835"><ele>1329.8</ele><time>2012-05-01T11:06:29.0000000+00:00</time></trkpt><trkpt lat="43.120358" lon="19.220671"><ele>1330.6</ele><time>2012-05-01T11:06:34.0000000+00:00</time></trkpt><trkpt lat="43.120201" lon="19.220465"><ele>1331.6</ele><time>2012-05-01T11:06:39.0000000+00:00</time></trkpt><trkpt lat="43.120029" lon="19.220228"><ele>1330.6</ele><time>2012-05-01T11:06:44.0000000+00:00</time></trkpt><trkpt lat="43.119846" lon="19.220013"><ele>1331.8</ele><time>2012-05-01T11:06:49.0000000+00:00</time></trkpt><trkpt lat="43.11969" lon="19.21982"><ele>1333.1</ele><time>2012-05-01T11:06:54.0000000+00:00</time></trkpt><trkpt lat="43.119518" lon="19.219608"><ele>1334.2</ele><time>2012-05-01T11:06:59.0000000+00:00</time></trkpt><trkpt lat="43.119347" lon="19.219393"><ele>1335.4</ele><time>2012-05-01T11:07:04.0000000+00:00</time></trkpt><trkpt lat="43.119171" lon="19.219172"><ele>1336.2</ele><time>2012-05-01T11:07:09.0000000+00:00</time></trkpt><trkpt lat="43.118988" lon="19.218939"><ele>1336.6</ele><time>2012-05-01T11:07:14.0000000+00:00</time></trkpt><trkpt lat="43.118801" lon="19.218725"><ele>1339.6</ele><time>2012-05-01T11:07:19.0000000+00:00</time></trkpt><trkpt lat="43.118629" lon="19.218494"><ele>1339.3</ele><time>2012-05-01T11:07:24.0000000+00:00</time></trkpt><trkpt lat="43.118473" lon="19.218281"><ele>1338.4</ele><time>2012-05-01T11:07:29.0000000+00:00</time></trkpt><trkpt lat="43.118298" lon="19.218102"><ele>1340.1</ele><time>2012-05-01T11:07:34.0000000+00:00</time></trkpt><trkpt lat="43.118145" lon="19.217909"><ele>1341.2</ele><time>2012-05-01T11:07:39.0000000+00:00</time></trkpt><trkpt lat="43.118004" lon="19.217691"><ele>1339.9</ele><time>2012-05-01T11:07:44.0000000+00:00</time></trkpt><trkpt lat="43.117847" lon="19.217491"><ele>1340.8</ele><time>2012-05-01T11:07:49.0000000+00:00</time></trkpt><trkpt lat="43.117699" lon="19.217312"><ele>1342.5</ele><time>2012-05-01T11:07:54.0000000+00:00</time></trkpt><trkpt lat="43.117565" lon="19.217117"><ele>1343.7</ele><time>2012-05-01T11:07:59.0000000+00:00</time></trkpt><trkpt lat="43.117432" lon="19.216913"><ele>1347.4</ele><time>2012-05-01T11:08:04.0000000+00:00</time></trkpt><trkpt lat="43.117313" lon="19.21666"><ele>1350.0</ele><time>2012-05-01T11:08:09.0000000+00:00</time></trkpt><trkpt lat="43.117191" lon="19.216452"><ele>1351.6</ele><time>2012-05-01T11:08:14.0000000+00:00</time></trkpt><trkpt lat="43.117092" lon="19.216251"><ele>1353.6</ele><time>2012-05-01T11:08:19.0000000+00:00</time></trkpt><trkpt lat="43.116993" lon="19.216095"><ele>1357.6</ele><time>2012-05-01T11:08:24.0000000+00:00</time></trkpt><trkpt lat="43.116913" lon="19.215935"><ele>1361.1</ele><time>2012-05-01T11:08:29.0000000+00:00</time></trkpt><trkpt lat="43.116844" lon="19.215809"><ele>1363.0</ele><time>2012-05-01T11:08:34.0000000+00:00</time></trkpt><trkpt lat="43.116821" lon="19.215754"><ele>1359.0</ele><time>2012-05-01T11:08:39.0000000+00:00</time></trkpt><trkpt lat="43.116825" lon="19.21575"><ele>1359.0</ele><time>2012-05-01T11:08:44.0000000+00:00</time></trkpt><trkpt lat="43.116825" lon="19.215752"><ele>1359.1</ele><time>2012-05-01T11:08:49.0000000+00:00</time></trkpt><trkpt lat="43.116825" lon="19.215754"><ele>1359.1</ele><time>2012-05-01T11:08:54.0000000+00:00</time></trkpt><trkpt lat="43.116821" lon="19.215744"><ele>1359.0</ele><time>2012-05-01T11:08:59.0000000+00:00</time></trkpt><trkpt lat="43.11681" lon="19.215738"><ele>1359.0</ele><time>2012-05-01T11:09:04.0000000+00:00</time></trkpt><trkpt lat="43.116806" lon="19.215742"><ele>1358.9</ele><time>2012-05-01T11:09:09.0000000+00:00</time></trkpt><trkpt lat="43.116806" lon="19.215742"><ele>1359.0</ele><time>2012-05-01T11:09:14.0000000+00:00</time></trkpt><trkpt lat="43.116814" lon="19.215746"><ele>1359.0</ele><time>2012-05-01T11:09:19.0000000+00:00</time></trkpt><trkpt lat="43.116814" lon="19.215748"><ele>1359.0</ele><time>2012-05-01T11:09:24.0000000+00:00</time></trkpt><trkpt lat="43.116817" lon="19.21575"><ele>1359.0</ele><time>2012-05-01T11:09:29.0000000+00:00</time></trkpt><trkpt lat="43.116817" lon="19.215748"><ele>1359.0</ele><time>2012-05-01T11:09:34.0000000+00:00</time></trkpt><trkpt lat="43.116817" lon="19.215748"><ele>1359.0</ele><time>2012-05-01T11:09:39.0000000+00:00</time></trkpt><trkpt lat="43.116817" lon="19.215748"><ele>1358.9</ele><time>2012-05-01T11:09:44.0000000+00:00</time></trkpt><trkpt lat="43.116817" lon="19.215748"><ele>1358.8</ele><time>2012-05-01T11:09:49.0000000+00:00</time></trkpt><trkpt lat="43.116817" lon="19.215748"><ele>1358.7</ele><time>2012-05-01T11:09:54.0000000+00:00</time></trkpt><trkpt lat="43.116817" lon="19.215748"><ele>1358.7</ele><time>2012-05-01T11:09:59.0000000+00:00</time></trkpt><trkpt lat="43.116817" lon="19.215748"><ele>1358.6</ele><time>2012-05-01T11:10:04.0000000+00:00</time></trkpt><trkpt lat="43.116821" lon="19.215746"><ele>1358.6</ele><time>2012-05-01T11:10:09.0000000+00:00</time></trkpt><trkpt lat="43.116821" lon="19.215746"><ele>1358.6</ele><time>2012-05-01T11:10:14.0000000+00:00</time></trkpt><trkpt lat="43.116821" lon="19.215746"><ele>1358.6</ele><time>2012-05-01T11:10:19.0000000+00:00</time></trkpt><trkpt lat="43.116821" lon="19.215746"><ele>1358.5</ele><time>2012-05-01T11:10:24.0000000+00:00</time></trkpt><trkpt lat="43.116821" lon="19.215746"><ele>1358.5</ele><time>2012-05-01T11:10:29.0000000+00:00</time></trkpt><trkpt lat="43.116821" lon="19.215746"><ele>1358.5</ele><time>2012-05-01T11:10:34.0000000+00:00</time></trkpt><trkpt lat="43.116821" lon="19.215746"><ele>1358.4</ele><time>2012-05-01T11:10:39.0000000+00:00</time></trkpt><trkpt lat="43.116821" lon="19.215746"><ele>1358.4</ele><time>2012-05-01T11:10:44.0000000+00:00</time></trkpt><trkpt lat="43.116821" lon="19.215746"><ele>1358.4</ele><time>2012-05-01T11:10:49.0000000+00:00</time></trkpt><trkpt lat="43.116821" lon="19.215746"><ele>1358.3</ele><time>2012-05-01T11:10:54.0000000+00:00</time></trkpt><trkpt lat="43.116821" lon="19.215746"><ele>1358.4</ele><time>2012-05-01T11:10:59.0000000+00:00</time></trkpt><trkpt lat="43.116821" lon="19.215746"><ele>1358.3</ele><time>2012-05-01T11:11:04.0000000+00:00</time></trkpt><trkpt lat="43.116821" lon="19.215746"><ele>1358.3</ele><time>2012-05-01T11:11:09.0000000+00:00</time></trkpt><trkpt lat="43.116821" lon="19.215746"><ele>1358.4</ele><time>2012-05-01T11:11:14.0000000+00:00</time></trkpt><trkpt lat="43.116787" lon="19.215668"><ele>1357.3</ele><time>2012-05-01T11:11:19.0000000+00:00</time></trkpt><trkpt lat="43.116745" lon="19.215513"><ele>1354.7</ele><time>2012-05-01T11:11:24.0000000+00:00</time></trkpt><trkpt lat="43.116684" lon="19.215355"><ele>1352.3</ele><time>2012-05-01T11:11:29.0000000+00:00</time></trkpt><trkpt lat="43.116592" lon="19.215136"><ele>1352.2</ele><time>2012-05-01T11:11:34.0000000+00:00</time></trkpt><trkpt lat="43.116486" lon="19.214983"><ele>1351.3</ele><time>2012-05-01T11:11:39.0000000+00:00</time></trkpt><trkpt lat="43.116344" lon="19.214823"><ele>1352.5</ele><time>2012-05-01T11:11:44.0000000+00:00</time></trkpt><trkpt lat="43.116249" lon="19.214556"><ele>1354.0</ele><time>2012-05-01T11:11:49.0000000+00:00</time></trkpt><trkpt lat="43.11618" lon="19.214333"><ele>1356.1</ele><time>2012-05-01T11:11:54.0000000+00:00</time></trkpt><trkpt lat="43.116146" lon="19.214104"><ele>1354.1</ele><time>2012-05-01T11:11:59.0000000+00:00</time></trkpt><trkpt lat="43.116154" lon="19.213989"><ele>1354.0</ele><time>2012-05-01T11:12:04.0000000+00:00</time></trkpt><trkpt lat="43.116177" lon="19.213892"><ele>1354.9</ele><time>2012-05-01T11:12:09.0000000+00:00</time></trkpt><trkpt lat="43.116196" lon="19.213722"><ele>1356.3</ele><time>2012-05-01T11:12:14.0000000+00:00</time></trkpt><trkpt lat="43.116173" lon="19.213554"><ele>1357.2</ele><time>2012-05-01T11:12:19.0000000+00:00</time></trkpt><trkpt lat="43.116169" lon="19.213366"><ele>1356.6</ele><time>2012-05-01T11:12:24.0000000+00:00</time></trkpt><trkpt lat="43.116119" lon="19.213243"><ele>1359.0</ele><time>2012-05-01T11:12:29.0000000+00:00</time></trkpt><trkpt lat="43.116131" lon="19.213171"><ele>1360.8</ele><time>2012-05-01T11:12:34.0000000+00:00</time></trkpt><trkpt lat="43.116142" lon="19.213024"><ele>1362.9</ele><time>2012-05-01T11:12:39.0000000+00:00</time></trkpt><trkpt lat="43.116062" lon="19.212929"><ele>1366.0</ele><time>2012-05-01T11:12:44.0000000+00:00</time></trkpt><trkpt lat="43.115936" lon="19.212839"><ele>1370.3</ele><time>2012-05-01T11:12:49.0000000+00:00</time></trkpt><trkpt lat="43.115856" lon="19.212765"><ele>1372.5</ele><time>2012-05-01T11:12:54.0000000+00:00</time></trkpt><trkpt lat="43.115784" lon="19.212704"><ele>1372.6</ele><time>2012-05-01T11:12:59.0000000+00:00</time></trkpt><trkpt lat="43.115696" lon="19.212641"><ele>1374.3</ele><time>2012-05-01T11:13:04.0000000+00:00</time></trkpt><trkpt lat="43.115631" lon="19.212584"><ele>1376.0</ele><time>2012-05-01T11:13:09.0000000+00:00</time></trkpt><trkpt lat="43.115562" lon="19.212517"><ele>1375.1</ele><time>2012-05-01T11:13:14.0000000+00:00</time></trkpt><trkpt lat="43.115524" lon="19.212406"><ele>1372.8</ele><time>2012-05-01T11:13:19.0000000+00:00</time></trkpt><trkpt lat="43.115444" lon="19.212343"><ele>1373.1</ele><time>2012-05-01T11:13:24.0000000+00:00</time></trkpt><trkpt lat="43.115387" lon="19.212198"><ele>1370.0</ele><time>2012-05-01T11:13:29.0000000+00:00</time></trkpt><trkpt lat="43.115345" lon="19.212059"><ele>1371.1</ele><time>2012-05-01T11:13:34.0000000+00:00</time></trkpt><trkpt lat="43.115368" lon="19.211958"><ele>1370.4</ele><time>2012-05-01T11:13:39.0000000+00:00</time></trkpt><trkpt lat="43.115372" lon="19.211836"><ele>1370.3</ele><time>2012-05-01T11:13:44.0000000+00:00</time></trkpt><trkpt lat="43.11536" lon="19.211723"><ele>1370.7</ele><time>2012-05-01T11:13:49.0000000+00:00</time></trkpt><trkpt lat="43.115356" lon="19.211596"><ele>1372.5</ele><time>2012-05-01T11:13:54.0000000+00:00</time></trkpt><trkpt lat="43.115356" lon="19.211472"><ele>1375.1</ele><time>2012-05-01T11:13:59.0000000+00:00</time></trkpt><trkpt lat="43.115368" lon="19.211355"><ele>1379.1</ele><time>2012-05-01T11:14:04.0000000+00:00</time></trkpt><trkpt lat="43.115391" lon="19.211233"><ele>1383.9</ele><time>2012-05-01T11:14:09.0000000+00:00</time></trkpt><trkpt lat="43.11544" lon="19.2111"><ele>1386.5</ele><time>2012-05-01T11:14:14.0000000+00:00</time></trkpt><trkpt lat="43.115421" lon="19.210926"><ele>1390.8</ele><time>2012-05-01T11:14:19.0000000+00:00</time></trkpt><trkpt lat="43.115341" lon="19.210766"><ele>1391.8</ele><time>2012-05-01T11:14:24.0000000+00:00</time></trkpt><trkpt lat="43.115295" lon="19.210638"><ele>1392.4</ele><time>2012-05-01T11:14:29.0000000+00:00</time></trkpt><trkpt lat="43.115231" lon="19.210606"><ele>1393.1</ele><time>2012-05-01T11:14:34.0000000+00:00</time></trkpt><trkpt lat="43.115139" lon="19.210569"><ele>1393.7</ele><time>2012-05-01T11:14:39.0000000+00:00</time></trkpt><trkpt lat="43.115044" lon="19.210512"><ele>1394.4</ele><time>2012-05-01T11:14:44.0000000+00:00</time></trkpt><trkpt lat="43.114914" lon="19.210575"><ele>1394.4</ele><time>2012-05-01T11:14:49.0000000+00:00</time></trkpt><trkpt lat="43.114796" lon="19.210434"><ele>1395.4</ele><time>2012-05-01T11:14:54.0000000+00:00</time></trkpt><trkpt lat="43.11478" lon="19.210234"><ele>1394.1</ele><time>2012-05-01T11:14:59.0000000+00:00</time></trkpt><trkpt lat="43.114769" lon="19.210165"><ele>1394.0</ele><time>2012-05-01T11:15:04.0000000+00:00</time></trkpt><trkpt lat="43.114777" lon="19.210072"><ele>1393.3</ele><time>2012-05-01T11:15:09.0000000+00:00</time></trkpt><trkpt lat="43.114792" lon="19.209887"><ele>1393.7</ele><time>2012-05-01T11:15:14.0000000+00:00</time></trkpt><trkpt lat="43.114811" lon="19.209742"><ele>1393.4</ele><time>2012-05-01T11:15:19.0000000+00:00</time></trkpt><trkpt lat="43.114811" lon="19.209549"><ele>1393.4</ele><time>2012-05-01T11:15:24.0000000+00:00</time></trkpt><trkpt lat="43.114773" lon="19.209351"><ele>1394.0</ele><time>2012-05-01T11:15:29.0000000+00:00</time></trkpt><trkpt lat="43.114746" lon="19.209091"><ele>1393.3</ele><time>2012-05-01T11:15:34.0000000+00:00</time></trkpt><trkpt lat="43.114765" lon="19.208897"><ele>1392.1</ele><time>2012-05-01T11:15:39.0000000+00:00</time></trkpt><trkpt lat="43.114803" lon="19.208693"><ele>1392.0</ele><time>2012-05-01T11:15:44.0000000+00:00</time></trkpt><trkpt lat="43.114834" lon="19.208433"><ele>1393.3</ele><time>2012-05-01T11:15:49.0000000+00:00</time></trkpt><trkpt lat="43.114868" lon="19.208197"><ele>1391.2</ele><time>2012-05-01T11:15:54.0000000+00:00</time></trkpt><trkpt lat="43.114902" lon="19.20796"><ele>1389.5</ele><time>2012-05-01T11:15:59.0000000+00:00</time></trkpt><trkpt lat="43.114952" lon="19.207712"><ele>1387.9</ele><time>2012-05-01T11:16:04.0000000+00:00</time></trkpt><trkpt lat="43.11499" lon="19.207493"><ele>1387.1</ele><time>2012-05-01T11:16:09.0000000+00:00</time></trkpt><trkpt lat="43.115021" lon="19.207266"><ele>1386.5</ele><time>2012-05-01T11:16:14.0000000+00:00</time></trkpt><trkpt lat="43.115032" lon="19.20702"><ele>1386.0</ele><time>2012-05-01T11:16:19.0000000+00:00</time></trkpt><trkpt lat="43.115013" lon="19.206799"><ele>1385.9</ele><time>2012-05-01T11:16:24.0000000+00:00</time></trkpt><trkpt lat="43.114975" lon="19.206596"><ele>1387.1</ele><time>2012-05-01T11:16:29.0000000+00:00</time></trkpt><trkpt lat="43.114895" lon="19.206402"><ele>1388.4</ele><time>2012-05-01T11:16:34.0000000+00:00</time></trkpt><trkpt lat="43.114799" lon="19.206215"><ele>1389.0</ele><time>2012-05-01T11:16:39.0000000+00:00</time></trkpt><trkpt lat="43.1147" lon="19.20603"><ele>1389.8</ele><time>2012-05-01T11:16:44.0000000+00:00</time></trkpt><trkpt lat="43.11459" lon="19.205832"><ele>1391.0</ele><time>2012-05-01T11:16:49.0000000+00:00</time></trkpt><trkpt lat="43.114517" lon="19.20562"><ele>1392.4</ele><time>2012-05-01T11:16:54.0000000+00:00</time></trkpt><trkpt lat="43.114555" lon="19.205383"><ele>1393.3</ele><time>2012-05-01T11:16:59.0000000+00:00</time></trkpt><trkpt lat="43.11459" lon="19.205154"><ele>1394.7</ele><time>2012-05-01T11:17:04.0000000+00:00</time></trkpt><trkpt lat="43.11462" lon="19.20491"><ele>1394.9</ele><time>2012-05-01T11:17:09.0000000+00:00</time></trkpt><trkpt lat="43.114658" lon="19.20466"><ele>1394.5</ele><time>2012-05-01T11:17:14.0000000+00:00</time></trkpt><trkpt lat="43.114689" lon="19.204416"><ele>1395.5</ele><time>2012-05-01T11:17:19.0000000+00:00</time></trkpt><trkpt lat="43.114731" lon="19.204195"><ele>1395.2</ele><time>2012-05-01T11:17:24.0000000+00:00</time></trkpt><trkpt lat="43.114758" lon="19.203976"><ele>1395.5</ele><time>2012-05-01T11:17:29.0000000+00:00</time></trkpt><trkpt lat="43.114796" lon="19.203739"><ele>1395.2</ele><time>2012-05-01T11:17:34.0000000+00:00</time></trkpt><trkpt lat="43.114853" lon="19.203512"><ele>1395.8</ele><time>2012-05-01T11:17:39.0000000+00:00</time></trkpt><trkpt lat="43.114933" lon="19.2033"><ele>1396.5</ele><time>2012-05-01T11:17:44.0000000+00:00</time></trkpt><trkpt lat="43.115013" lon="19.203131"><ele>1396.9</ele><time>2012-05-01T11:17:49.0000000+00:00</time></trkpt><trkpt lat="43.115082" lon="19.202948"><ele>1397.1</ele><time>2012-05-01T11:17:54.0000000+00:00</time></trkpt><trkpt lat="43.115108" lon="19.202745"><ele>1395.4</ele><time>2012-05-01T11:17:59.0000000+00:00</time></trkpt><trkpt lat="43.11512" lon="19.202545"><ele>1394.2</ele><time>2012-05-01T11:18:04.0000000+00:00</time></trkpt><trkpt lat="43.115154" lon="19.202326"><ele>1392.2</ele><time>2012-05-01T11:18:09.0000000+00:00</time></trkpt><trkpt lat="43.115261" lon="19.20216"><ele>1392.9</ele><time>2012-05-01T11:18:14.0000000+00:00</time></trkpt><trkpt lat="43.115391" lon="19.20204"><ele>1393.6</ele><time>2012-05-01T11:18:19.0000000+00:00</time></trkpt><trkpt lat="43.115509" lon="19.201912"><ele>1394.6</ele><time>2012-05-01T11:18:24.0000000+00:00</time></trkpt><trkpt lat="43.115528" lon="19.201717"><ele>1395.8</ele><time>2012-05-01T11:18:29.0000000+00:00</time></trkpt><trkpt lat="43.115513" lon="19.201517"><ele>1396.7</ele><time>2012-05-01T11:18:34.0000000+00:00</time></trkpt><trkpt lat="43.115494" lon="19.201336"><ele>1397.1</ele><time>2012-05-01T11:18:39.0000000+00:00</time></trkpt><trkpt lat="43.115467" lon="19.201134"><ele>1397.5</ele><time>2012-05-01T11:18:44.0000000+00:00</time></trkpt><trkpt lat="43.115429" lon="19.200939"><ele>1397.9</ele><time>2012-05-01T11:18:49.0000000+00:00</time></trkpt><trkpt lat="43.115341" lon="19.200747"><ele>1398.1</ele><time>2012-05-01T11:18:54.0000000+00:00</time></trkpt><trkpt lat="43.115238" lon="19.200575"><ele>1398.0</ele><time>2012-05-01T11:18:59.0000000+00:00</time></trkpt><trkpt lat="43.115139" lon="19.200371"><ele>1398.4</ele><time>2012-05-01T11:19:04.0000000+00:00</time></trkpt><trkpt lat="43.115147" lon="19.200144"><ele>1399.4</ele><time>2012-05-01T11:19:09.0000000+00:00</time></trkpt><trkpt lat="43.115173" lon="19.199966"><ele>1401.6</ele><time>2012-05-01T11:19:14.0000000+00:00</time></trkpt><trkpt lat="43.11517" lon="19.199799"><ele>1401.8</ele><time>2012-05-01T11:19:19.0000000+00:00</time></trkpt><trkpt lat="43.115097" lon="19.199661"><ele>1402.7</ele><time>2012-05-01T11:19:24.0000000+00:00</time></trkpt><trkpt lat="43.114994" lon="19.199591"><ele>1403.5</ele><time>2012-05-01T11:19:29.0000000+00:00</time></trkpt><trkpt lat="43.114849" lon="19.199577"><ele>1404.0</ele><time>2012-05-01T11:19:34.0000000+00:00</time></trkpt><trkpt lat="43.114719" lon="19.199644"><ele>1406.4</ele><time>2012-05-01T11:19:39.0000000+00:00</time></trkpt><trkpt lat="43.114613" lon="19.199739"><ele>1407.0</ele><time>2012-05-01T11:19:44.0000000+00:00</time></trkpt><trkpt lat="43.114483" lon="19.199795"><ele>1407.3</ele><time>2012-05-01T11:19:49.0000000+00:00</time></trkpt><trkpt lat="43.114372" lon="19.1999"><ele>1406.8</ele><time>2012-05-01T11:19:54.0000000+00:00</time></trkpt><trkpt lat="43.114258" lon="19.199968"><ele>1407.1</ele><time>2012-05-01T11:19:59.0000000+00:00</time></trkpt><trkpt lat="43.114178" lon="19.199974"><ele>1407.0</ele><time>2012-05-01T11:20:04.0000000+00:00</time></trkpt><trkpt lat="43.114094" lon="19.19994"><ele>1407.2</ele><time>2012-05-01T11:20:09.0000000+00:00</time></trkpt><trkpt lat="43.114002" lon="19.199892"><ele>1407.2</ele><time>2012-05-01T11:20:14.0000000+00:00</time></trkpt><trkpt lat="43.113895" lon="19.199862"><ele>1406.8</ele><time>2012-05-01T11:20:19.0000000+00:00</time></trkpt><trkpt lat="43.113804" lon="19.199814"><ele>1404.7</ele><time>2012-05-01T11:20:24.0000000+00:00</time></trkpt><trkpt lat="43.113693" lon="19.199793"><ele>1403.0</ele><time>2012-05-01T11:20:29.0000000+00:00</time></trkpt><trkpt lat="43.113571" lon="19.199738"><ele>1401.1</ele><time>2012-05-01T11:20:34.0000000+00:00</time></trkpt><trkpt lat="43.113445" lon="19.19968"><ele>1398.9</ele><time>2012-05-01T11:20:39.0000000+00:00</time></trkpt><trkpt lat="43.113312" lon="19.199631"><ele>1398.4</ele><time>2012-05-01T11:20:44.0000000+00:00</time></trkpt><trkpt lat="43.113182" lon="19.19957"><ele>1397.9</ele><time>2012-05-01T11:20:49.0000000+00:00</time></trkpt><trkpt lat="43.113071" lon="19.199524"><ele>1402.0</ele><time>2012-05-01T11:20:54.0000000+00:00</time></trkpt><trkpt lat="43.113003" lon="19.199427"><ele>1405.8</ele><time>2012-05-01T11:20:59.0000000+00:00</time></trkpt><trkpt lat="43.11293" lon="19.199291"><ele>1408.4</ele><time>2012-05-01T11:21:04.0000000+00:00</time></trkpt><trkpt lat="43.112843" lon="19.199148"><ele>1409.2</ele><time>2012-05-01T11:21:09.0000000+00:00</time></trkpt><trkpt lat="43.112751" lon="19.19906"><ele>1410.1</ele><time>2012-05-01T11:21:14.0000000+00:00</time></trkpt><trkpt lat="43.112644" lon="19.199051"><ele>1410.8</ele><time>2012-05-01T11:21:19.0000000+00:00</time></trkpt><trkpt lat="43.112541" lon="19.199064"><ele>1412.0</ele><time>2012-05-01T11:21:24.0000000+00:00</time></trkpt><trkpt lat="43.11245" lon="19.19907"><ele>1412.6</ele><time>2012-05-01T11:21:29.0000000+00:00</time></trkpt><trkpt lat="43.11235" lon="19.199018"><ele>1412.2</ele><time>2012-05-01T11:21:34.0000000+00:00</time></trkpt><trkpt lat="43.112228" lon="19.198896"><ele>1412.5</ele><time>2012-05-01T11:21:39.0000000+00:00</time></trkpt><trkpt lat="43.112091" lon="19.198767"><ele>1413.6</ele><time>2012-05-01T11:21:44.0000000+00:00</time></trkpt><trkpt lat="43.111988" lon="19.19865"><ele>1415.7</ele><time>2012-05-01T11:21:49.0000000+00:00</time></trkpt><trkpt lat="43.111908" lon="19.198566"><ele>1416.9</ele><time>2012-05-01T11:21:54.0000000+00:00</time></trkpt><trkpt lat="43.111813" lon="19.198463"><ele>1417.4</ele><time>2012-05-01T11:21:59.0000000+00:00</time></trkpt><trkpt lat="43.111713" lon="19.198355"><ele>1416.5</ele><time>2012-05-01T11:22:04.0000000+00:00</time></trkpt><trkpt lat="43.111584" lon="19.198322"><ele>1416.6</ele><time>2012-05-01T11:22:09.0000000+00:00</time></trkpt><trkpt lat="43.111427" lon="19.198395"><ele>1418.1</ele><time>2012-05-01T11:22:14.0000000+00:00</time></trkpt><trkpt lat="43.111317" lon="19.19842"><ele>1419.5</ele><time>2012-05-01T11:22:19.0000000+00:00</time></trkpt><trkpt lat="43.111198" lon="19.198349"><ele>1419.7</ele><time>2012-05-01T11:22:24.0000000+00:00</time></trkpt><trkpt lat="43.111111" lon="19.198244"><ele>1419.8</ele><time>2012-05-01T11:22:29.0000000+00:00</time></trkpt><trkpt lat="43.111015" lon="19.198128"><ele>1420.5</ele><time>2012-05-01T11:22:34.0000000+00:00</time></trkpt><trkpt lat="43.110912" lon="19.198011"><ele>1421.7</ele><time>2012-05-01T11:22:39.0000000+00:00</time></trkpt><trkpt lat="43.110821" lon="19.197887"><ele>1421.6</ele><time>2012-05-01T11:22:44.0000000+00:00</time></trkpt><trkpt lat="43.110722" lon="19.19776"><ele>1420.0</ele><time>2012-05-01T11:22:49.0000000+00:00</time></trkpt><trkpt lat="43.110619" lon="19.197639"><ele>1418.1</ele><time>2012-05-01T11:22:54.0000000+00:00</time></trkpt><trkpt lat="43.110489" lon="19.197634"><ele>1416.7</ele><time>2012-05-01T11:22:59.0000000+00:00</time></trkpt><trkpt lat="43.110329" lon="19.197636"><ele>1418.0</ele><time>2012-05-01T11:23:04.0000000+00:00</time></trkpt><trkpt lat="43.110222" lon="19.197535"><ele>1419.1</ele><time>2012-05-01T11:23:09.0000000+00:00</time></trkpt><trkpt lat="43.110123" lon="19.197409"><ele>1419.8</ele><time>2012-05-01T11:23:14.0000000+00:00</time></trkpt><trkpt lat="43.110031" lon="19.197285"><ele>1421.4</ele><time>2012-05-01T11:23:19.0000000+00:00</time></trkpt><trkpt lat="43.109951" lon="19.197203"><ele>1422.6</ele><time>2012-05-01T11:23:24.0000000+00:00</time></trkpt><trkpt lat="43.109856" lon="19.197088"><ele>1423.4</ele><time>2012-05-01T11:23:29.0000000+00:00</time></trkpt><trkpt lat="43.109726" lon="19.196955"><ele>1424.1</ele><time>2012-05-01T11:23:34.0000000+00:00</time></trkpt><trkpt lat="43.10957" lon="19.196877"><ele>1424.9</ele><time>2012-05-01T11:23:39.0000000+00:00</time></trkpt><trkpt lat="43.109413" lon="19.196789"><ele>1425.8</ele><time>2012-05-01T11:23:44.0000000+00:00</time></trkpt><trkpt lat="43.109299" lon="19.196726"><ele>1427.5</ele><time>2012-05-01T11:23:49.0000000+00:00</time></trkpt><trkpt lat="43.109203" lon="19.196674"><ele>1427.7</ele><time>2012-05-01T11:23:54.0000000+00:00</time></trkpt><trkpt lat="43.109077" lon="19.196602"><ele>1427.9</ele><time>2012-05-01T11:23:59.0000000+00:00</time></trkpt><trkpt lat="43.108917" lon="19.196476"><ele>1429.0</ele><time>2012-05-01T11:24:04.0000000+00:00</time></trkpt><trkpt lat="43.108791" lon="19.196295"><ele>1428.4</ele><time>2012-05-01T11:24:09.0000000+00:00</time></trkpt><trkpt lat="43.10878" lon="19.196304"><ele>1429.1</ele><time>2012-05-01T11:24:14.0000000+00:00</time></trkpt><trkpt lat="43.108776" lon="19.196304"><ele>1429.1</ele><time>2012-05-01T11:24:19.0000000+00:00</time></trkpt><trkpt lat="43.108776" lon="19.196304"><ele>1429.1</ele><time>2012-05-01T11:24:24.0000000+00:00</time></trkpt><trkpt lat="43.108776" lon="19.196306"><ele>1429.1</ele><time>2012-05-01T11:24:29.0000000+00:00</time></trkpt><trkpt lat="43.108776" lon="19.196306"><ele>1429.1</ele><time>2012-05-01T11:24:34.0000000+00:00</time></trkpt><trkpt lat="43.10878" lon="19.196306"><ele>1429.2</ele><time>2012-05-01T11:24:39.0000000+00:00</time></trkpt><trkpt lat="43.10878" lon="19.196306"><ele>1429.2</ele><time>2012-05-01T11:24:44.0000000+00:00</time></trkpt><trkpt lat="43.10878" lon="19.196306"><ele>1429.2</ele><time>2012-05-01T11:24:49.0000000+00:00</time></trkpt><trkpt lat="43.10878" lon="19.196306"><ele>1429.2</ele><time>2012-05-01T11:24:54.0000000+00:00</time></trkpt><trkpt lat="43.10878" lon="19.196306"><ele>1429.2</ele><time>2012-05-01T11:24:59.0000000+00:00</time></trkpt><trkpt lat="43.10878" lon="19.196306"><ele>1429.2</ele><time>2012-05-01T11:25:04.0000000+00:00</time></trkpt><trkpt lat="43.10878" lon="19.196306"><ele>1429.2</ele><time>2012-05-01T11:25:09.0000000+00:00</time></trkpt><trkpt lat="43.10878" lon="19.196306"><ele>1429.2</ele><time>2012-05-01T11:25:14.0000000+00:00</time></trkpt><trkpt lat="43.10878" lon="19.196308"><ele>1429.2</ele><time>2012-05-01T11:25:19.0000000+00:00</time></trkpt><trkpt lat="43.10878" lon="19.196308"><ele>1429.2</ele><time>2012-05-01T11:25:24.0000000+00:00</time></trkpt><trkpt lat="43.10878" lon="19.196308"><ele>1429.2</ele><time>2012-05-01T11:25:29.0000000+00:00</time></trkpt><trkpt lat="43.10878" lon="19.196308"><ele>1429.2</ele><time>2012-05-01T11:25:34.0000000+00:00</time></trkpt><trkpt lat="43.10878" lon="19.196308"><ele>1429.2</ele><time>2012-05-01T11:25:39.0000000+00:00</time></trkpt><trkpt lat="43.10878" lon="19.196308"><ele>1429.1</ele><time>2012-05-01T11:25:44.0000000+00:00</time></trkpt><trkpt lat="43.10878" lon="19.196308"><ele>1429.1</ele><time>2012-05-01T11:25:49.0000000+00:00</time></trkpt><trkpt lat="43.10878" lon="19.196308"><ele>1429.0</ele><time>2012-05-01T11:25:54.0000000+00:00</time></trkpt><trkpt lat="43.10878" lon="19.196308"><ele>1429.0</ele><time>2012-05-01T11:25:59.0000000+00:00</time></trkpt><trkpt lat="43.10878" lon="19.196308"><ele>1429.0</ele><time>2012-05-01T11:26:04.0000000+00:00</time></trkpt><trkpt lat="43.10878" lon="19.196308"><ele>1429.0</ele><time>2012-05-01T11:26:09.0000000+00:00</time></trkpt><trkpt lat="43.10878" lon="19.196308"><ele>1429.0</ele><time>2012-05-01T11:26:14.0000000+00:00</time></trkpt><trkpt lat="43.10878" lon="19.196308"><ele>1429.0</ele><time>2012-05-01T11:26:19.0000000+00:00</time></trkpt><trkpt lat="43.10878" lon="19.196308"><ele>1429.0</ele><time>2012-05-01T11:26:24.0000000+00:00</time></trkpt><trkpt lat="43.10878" lon="19.19631"><ele>1429.0</ele><time>2012-05-01T11:26:29.0000000+00:00</time></trkpt><trkpt lat="43.10878" lon="19.196308"><ele>1429.0</ele><time>2012-05-01T11:26:34.0000000+00:00</time></trkpt><trkpt lat="43.10878" lon="19.196308"><ele>1429.0</ele><time>2012-05-01T11:26:39.0000000+00:00</time></trkpt><trkpt lat="43.10878" lon="19.19631"><ele>1429.0</ele><time>2012-05-01T11:26:44.0000000+00:00</time></trkpt><trkpt lat="43.10878" lon="19.19631"><ele>1429.0</ele><time>2012-05-01T11:26:49.0000000+00:00</time></trkpt><trkpt lat="43.10878" lon="19.19631"><ele>1429.0</ele><time>2012-05-01T11:26:54.0000000+00:00</time></trkpt><trkpt lat="43.10878" lon="19.19631"><ele>1428.9</ele><time>2012-05-01T11:26:59.0000000+00:00</time></trkpt><trkpt lat="43.10878" lon="19.19631"><ele>1428.9</ele><time>2012-05-01T11:27:04.0000000+00:00</time></trkpt><trkpt lat="43.10878" lon="19.19631"><ele>1428.9</ele><time>2012-05-01T11:27:09.0000000+00:00</time></trkpt><trkpt lat="43.10878" lon="19.19631"><ele>1428.8</ele><time>2012-05-01T11:27:14.0000000+00:00</time></trkpt><trkpt lat="43.10878" lon="19.19631"><ele>1428.8</ele><time>2012-05-01T11:27:19.0000000+00:00</time></trkpt><trkpt lat="43.10878" lon="19.19631"><ele>1428.8</ele><time>2012-05-01T11:27:24.0000000+00:00</time></trkpt><trkpt lat="43.10878" lon="19.196308"><ele>1428.8</ele><time>2012-05-01T11:27:29.0000000+00:00</time></trkpt><trkpt lat="43.10878" lon="19.196308"><ele>1428.8</ele><time>2012-05-01T11:27:34.0000000+00:00</time></trkpt><trkpt lat="43.10878" lon="19.196308"><ele>1428.8</ele><time>2012-05-01T11:27:39.0000000+00:00</time></trkpt><trkpt lat="43.108772" lon="19.196211"><ele>1428.3</ele><time>2012-05-01T11:27:44.0000000+00:00</time></trkpt><trkpt lat="43.1087" lon="19.195995"><ele>1427.6</ele><time>2012-05-01T11:27:49.0000000+00:00</time></trkpt><trkpt lat="43.108616" lon="19.195744"><ele>1426.7</ele><time>2012-05-01T11:27:54.0000000+00:00</time></trkpt><trkpt lat="43.108536" lon="19.195505"><ele>1425.3</ele><time>2012-05-01T11:27:59.0000000+00:00</time></trkpt><trkpt lat="43.108463" lon="19.195375"><ele>1424.2</ele><time>2012-05-01T11:28:04.0000000+00:00</time></trkpt><trkpt lat="43.108463" lon="19.19537"><ele>1424.2</ele><time>2012-05-01T11:28:09.0000000+00:00</time></trkpt><trkpt lat="43.108467" lon="19.195368"><ele>1424.1</ele><time>2012-05-01T11:28:14.0000000+00:00</time></trkpt><trkpt lat="43.108467" lon="19.195368"><ele>1424.1</ele><time>2012-05-01T11:28:19.0000000+00:00</time></trkpt><trkpt lat="43.108467" lon="19.195368"><ele>1424.1</ele><time>2012-05-01T11:28:24.0000000+00:00</time></trkpt><trkpt lat="43.108467" lon="19.195368"><ele>1424.0</ele><time>2012-05-01T11:28:29.0000000+00:00</time></trkpt><trkpt lat="43.108463" lon="19.195318"><ele>1424.1</ele><time>2012-05-01T11:28:34.0000000+00:00</time></trkpt><trkpt lat="43.108452" lon="19.195305"><ele>1423.9</ele><time>2012-05-01T11:28:39.0000000+00:00</time></trkpt><trkpt lat="43.108452" lon="19.195305"><ele>1423.9</ele><time>2012-05-01T11:28:44.0000000+00:00</time></trkpt><trkpt lat="43.108452" lon="19.195305"><ele>1423.8</ele><time>2012-05-01T11:28:49.0000000+00:00</time></trkpt><trkpt lat="43.108452" lon="19.195305"><ele>1423.8</ele><time>2012-05-01T11:28:54.0000000+00:00</time></trkpt><trkpt lat="43.108452" lon="19.195305"><ele>1423.8</ele><time>2012-05-01T11:28:59.0000000+00:00</time></trkpt><trkpt lat="43.108452" lon="19.195305"><ele>1423.8</ele><time>2012-05-01T11:29:04.0000000+00:00</time></trkpt><trkpt lat="43.108452" lon="19.195305"><ele>1423.8</ele><time>2012-05-01T11:29:09.0000000+00:00</time></trkpt><trkpt lat="43.108452" lon="19.195305"><ele>1423.8</ele><time>2012-05-01T11:29:14.0000000+00:00</time></trkpt><trkpt lat="43.108452" lon="19.195303"><ele>1423.7</ele><time>2012-05-01T11:29:19.0000000+00:00</time></trkpt><trkpt lat="43.10844" lon="19.195242"><ele>1423.5</ele><time>2012-05-01T11:29:24.0000000+00:00</time></trkpt><trkpt lat="43.108418" lon="19.195038"><ele>1422.4</ele><time>2012-05-01T11:29:29.0000000+00:00</time></trkpt><trkpt lat="43.108418" lon="19.194916"><ele>1421.6</ele><time>2012-05-01T11:29:34.0000000+00:00</time></trkpt><trkpt lat="43.108433" lon="19.194714"><ele>1421.1</ele><time>2012-05-01T11:29:39.0000000+00:00</time></trkpt><trkpt lat="43.108433" lon="19.194429"><ele>1420.2</ele><time>2012-05-01T11:29:44.0000000+00:00</time></trkpt><trkpt lat="43.108376" lon="19.19409"><ele>1419.0</ele><time>2012-05-01T11:29:49.0000000+00:00</time></trkpt><trkpt lat="43.108307" lon="19.193661"><ele>1417.1</ele><time>2012-05-01T11:29:54.0000000+00:00</time></trkpt><trkpt lat="43.108364" lon="19.193155"><ele>1414.7</ele><time>2012-05-01T11:29:59.0000000+00:00</time></trkpt><trkpt lat="43.10844" lon="19.192528"><ele>1413.1</ele><time>2012-05-01T11:30:04.0000000+00:00</time></trkpt><trkpt lat="43.108532" lon="19.191856"><ele>1410.7</ele><time>2012-05-01T11:30:09.0000000+00:00</time></trkpt><trkpt lat="43.108654" lon="19.191103"><ele>1408.6</ele><time>2012-05-01T11:30:14.0000000+00:00</time></trkpt><trkpt lat="43.108799" lon="19.190315"><ele>1406.3</ele><time>2012-05-01T11:30:19.0000000+00:00</time></trkpt><trkpt lat="43.109001" lon="19.189537"><ele>1404.0</ele><time>2012-05-01T11:30:24.0000000+00:00</time></trkpt><trkpt lat="43.1092" lon="19.188726"><ele>1402.5</ele><time>2012-05-01T11:30:29.0000000+00:00</time></trkpt><trkpt lat="43.109249" lon="19.187824"><ele>1399.7</ele><time>2012-05-01T11:30:34.0000000+00:00</time></trkpt><trkpt lat="43.109264" lon="19.186928"><ele>1397.8</ele><time>2012-05-01T11:30:39.0000000+00:00</time></trkpt><trkpt lat="43.109161" lon="19.186073"><ele>1395.7</ele><time>2012-05-01T11:30:44.0000000+00:00</time></trkpt><trkpt lat="43.10902" lon="19.185286"><ele>1395.3</ele><time>2012-05-01T11:30:49.0000000+00:00</time></trkpt><trkpt lat="43.108814" lon="19.184645"><ele>1396.1</ele><time>2012-05-01T11:30:54.0000000+00:00</time></trkpt><trkpt lat="43.108498" lon="19.184149"><ele>1396.1</ele><time>2012-05-01T11:30:59.0000000+00:00</time></trkpt><trkpt lat="43.108261" lon="19.183741"><ele>1398.2</ele><time>2012-05-01T11:31:04.0000000+00:00</time></trkpt><trkpt lat="43.108181" lon="19.183361"><ele>1399.0</ele><time>2012-05-01T11:31:09.0000000+00:00</time></trkpt><trkpt lat="43.1082" lon="19.183067"><ele>1400.0</ele><time>2012-05-01T11:31:14.0000000+00:00</time></trkpt><trkpt lat="43.10825" lon="19.182852"><ele>1400.9</ele><time>2012-05-01T11:31:19.0000000+00:00</time></trkpt><trkpt lat="43.108284" lon="19.18268"><ele>1401.3</ele><time>2012-05-01T11:31:24.0000000+00:00</time></trkpt><trkpt lat="43.108276" lon="19.182495"><ele>1403.8</ele><time>2012-05-01T11:31:29.0000000+00:00</time></trkpt><trkpt lat="43.108208" lon="19.182285"><ele>1403.9</ele><time>2012-05-01T11:31:34.0000000+00:00</time></trkpt><trkpt lat="43.108097" lon="19.182062"><ele>1403.5</ele><time>2012-05-01T11:31:39.0000000+00:00</time></trkpt><trkpt lat="43.107979" lon="19.181797"><ele>1403.5</ele><time>2012-05-01T11:31:44.0000000+00:00</time></trkpt><trkpt lat="43.107948" lon="19.181513"><ele>1403.4</ele><time>2012-05-01T11:31:49.0000000+00:00</time></trkpt><trkpt lat="43.108013" lon="19.181234"><ele>1403.1</ele><time>2012-05-01T11:31:54.0000000+00:00</time></trkpt><trkpt lat="43.108109" lon="19.180931"><ele>1403.0</ele><time>2012-05-01T11:31:59.0000000+00:00</time></trkpt><trkpt lat="43.108212" lon="19.180574"><ele>1402.5</ele><time>2012-05-01T11:32:04.0000000+00:00</time></trkpt><trkpt lat="43.108334" lon="19.180168"><ele>1402.3</ele><time>2012-05-01T11:32:09.0000000+00:00</time></trkpt><trkpt lat="43.108486" lon="19.179705"><ele>1401.6</ele><time>2012-05-01T11:32:14.0000000+00:00</time></trkpt><trkpt lat="43.108658" lon="19.179195"><ele>1401.4</ele><time>2012-05-01T11:32:19.0000000+00:00</time></trkpt><trkpt lat="43.108837" lon="19.178665"><ele>1401.3</ele><time>2012-05-01T11:32:24.0000000+00:00</time></trkpt><trkpt lat="43.109047" lon="19.178083"><ele>1400.0</ele><time>2012-05-01T11:32:29.0000000+00:00</time></trkpt><trkpt lat="43.109261" lon="19.177505"><ele>1400.7</ele><time>2012-05-01T11:32:34.0000000+00:00</time></trkpt><trkpt lat="43.109463" lon="19.176971"><ele>1402.5</ele><time>2012-05-01T11:32:39.0000000+00:00</time></trkpt><trkpt lat="43.109581" lon="19.176455"><ele>1402.7</ele><time>2012-05-01T11:32:44.0000000+00:00</time></trkpt><trkpt lat="43.10952" lon="19.175983"><ele>1402.3</ele><time>2012-05-01T11:32:49.0000000+00:00</time></trkpt><trkpt lat="43.109341" lon="19.17561"><ele>1401.6</ele><time>2012-05-01T11:32:54.0000000+00:00</time></trkpt><trkpt lat="43.10918" lon="19.175287"><ele>1401.5</ele><time>2012-05-01T11:32:59.0000000+00:00</time></trkpt><trkpt lat="43.109089" lon="19.175093"><ele>1401.5</ele><time>2012-05-01T11:33:04.0000000+00:00</time></trkpt><trkpt lat="43.109077" lon="19.175077"><ele>1402.2</ele><time>2012-05-01T11:33:09.0000000+00:00</time></trkpt><trkpt lat="43.109077" lon="19.175077"><ele>1402.3</ele><time>2012-05-01T11:33:14.0000000+00:00</time></trkpt><trkpt lat="43.109074" lon="19.175077"><ele>1402.3</ele><time>2012-05-01T11:33:19.0000000+00:00</time></trkpt><trkpt lat="43.109074" lon="19.175077"><ele>1402.4</ele><time>2012-05-01T11:33:24.0000000+00:00</time></trkpt><trkpt lat="43.109074" lon="19.175077"><ele>1402.4</ele><time>2012-05-01T11:33:29.0000000+00:00</time></trkpt><trkpt lat="43.109074" lon="19.175076"><ele>1402.4</ele><time>2012-05-01T11:33:34.0000000+00:00</time></trkpt><trkpt lat="43.109058" lon="19.175035"><ele>1402.5</ele><time>2012-05-01T11:33:39.0000000+00:00</time></trkpt><trkpt lat="43.109001" lon="19.174908"><ele>1402.0</ele><time>2012-05-01T11:33:44.0000000+00:00</time></trkpt><trkpt lat="43.108932" lon="19.174726"><ele>1401.3</ele><time>2012-05-01T11:33:49.0000000+00:00</time></trkpt><trkpt lat="43.108871" lon="19.174437"><ele>1400.7</ele><time>2012-05-01T11:33:54.0000000+00:00</time></trkpt><trkpt lat="43.108822" lon="19.174112"><ele>1399.9</ele><time>2012-05-01T11:33:59.0000000+00:00</time></trkpt><trkpt lat="43.108768" lon="19.173775"><ele>1399.0</ele><time>2012-05-01T11:34:04.0000000+00:00</time></trkpt><trkpt lat="43.108707" lon="19.173399"><ele>1398.1</ele><time>2012-05-01T11:34:09.0000000+00:00</time></trkpt><trkpt lat="43.108643" lon="19.173052"><ele>1397.0</ele><time>2012-05-01T11:34:14.0000000+00:00</time></trkpt><trkpt lat="43.108582" lon="19.172703"><ele>1396.1</ele><time>2012-05-01T11:34:19.0000000+00:00</time></trkpt><trkpt lat="43.108521" lon="19.172348"><ele>1395.8</ele><time>2012-05-01T11:34:24.0000000+00:00</time></trkpt><trkpt lat="43.108463" lon="19.172039"><ele>1395.5</ele><time>2012-05-01T11:34:29.0000000+00:00</time></trkpt><trkpt lat="43.108395" lon="19.171793"><ele>1396.7</ele><time>2012-05-01T11:34:34.0000000+00:00</time></trkpt><trkpt lat="43.108337" lon="19.171589"><ele>1397.3</ele><time>2012-05-01T11:34:39.0000000+00:00</time></trkpt><trkpt lat="43.108284" lon="19.171417"><ele>1397.6</ele><time>2012-05-01T11:34:44.0000000+00:00</time></trkpt><trkpt lat="43.108227" lon="19.171251"><ele>1398.4</ele><time>2012-05-01T11:34:49.0000000+00:00</time></trkpt><trkpt lat="43.108166" lon="19.171062"><ele>1399.1</ele><time>2012-05-01T11:34:54.0000000+00:00</time></trkpt><trkpt lat="43.108124" lon="19.17087"><ele>1399.6</ele><time>2012-05-01T11:34:59.0000000+00:00</time></trkpt><trkpt lat="43.108101" lon="19.170677"><ele>1400.3</ele><time>2012-05-01T11:35:04.0000000+00:00</time></trkpt><trkpt lat="43.108089" lon="19.170469"><ele>1401.0</ele><time>2012-05-01T11:35:09.0000000+00:00</time></trkpt><trkpt lat="43.108105" lon="19.17025"><ele>1401.9</ele><time>2012-05-01T11:35:14.0000000+00:00</time></trkpt><trkpt lat="43.108124" lon="19.170057"><ele>1403.4</ele><time>2012-05-01T11:35:19.0000000+00:00</time></trkpt><trkpt lat="43.108158" lon="19.169859"><ele>1404.4</ele><time>2012-05-01T11:35:24.0000000+00:00</time></trkpt><trkpt lat="43.108185" lon="19.169752"><ele>1404.7</ele><time>2012-05-01T11:35:29.0000000+00:00</time></trkpt><trkpt lat="43.108189" lon="19.169659"><ele>1405.4</ele><time>2012-05-01T11:35:34.0000000+00:00</time></trkpt><trkpt lat="43.108204" lon="19.169498"><ele>1406.1</ele><time>2012-05-01T11:35:39.0000000+00:00</time></trkpt><trkpt lat="43.108192" lon="19.169329"><ele>1407.2</ele><time>2012-05-01T11:35:44.0000000+00:00</time></trkpt><trkpt lat="43.10815" lon="19.169233"><ele>1408.1</ele><time>2012-05-01T11:35:49.0000000+00:00</time></trkpt><trkpt lat="43.108067" lon="19.169153"><ele>1409.3</ele><time>2012-05-01T11:35:54.0000000+00:00</time></trkpt><trkpt lat="43.107952" lon="19.169088"><ele>1409.7</ele><time>2012-05-01T11:35:59.0000000+00:00</time></trkpt><trkpt lat="43.107834" lon="19.169037"><ele>1410.1</ele><time>2012-05-01T11:36:04.0000000+00:00</time></trkpt><trkpt lat="43.107716" lon="19.168978"><ele>1410.1</ele><time>2012-05-01T11:36:09.0000000+00:00</time></trkpt><trkpt lat="43.107601" lon="19.168917"><ele>1410.4</ele><time>2012-05-01T11:36:14.0000000+00:00</time></trkpt><trkpt lat="43.107552" lon="19.168901"><ele>1410.5</ele><time>2012-05-01T11:36:19.0000000+00:00</time></trkpt><trkpt lat="43.107479" lon="19.16888"><ele>1410.6</ele><time>2012-05-01T11:36:24.0000000+00:00</time></trkpt><trkpt lat="43.107384" lon="19.168839"><ele>1411.8</ele><time>2012-05-01T11:36:29.0000000+00:00</time></trkpt><trkpt lat="43.107307" lon="19.168751"><ele>1412.3</ele><time>2012-05-01T11:36:34.0000000+00:00</time></trkpt><trkpt lat="43.107231" lon="19.168655"><ele>1412.8</ele><time>2012-05-01T11:36:39.0000000+00:00</time></trkpt><trkpt lat="43.107193" lon="19.168509"><ele>1413.1</ele><time>2012-05-01T11:36:44.0000000+00:00</time></trkpt><trkpt lat="43.107174" lon="19.168367"><ele>1413.9</ele><time>2012-05-01T11:36:49.0000000+00:00</time></trkpt><trkpt lat="43.10717" lon="19.168207"><ele>1414.2</ele><time>2012-05-01T11:36:54.0000000+00:00</time></trkpt><trkpt lat="43.107162" lon="19.168041"><ele>1414.6</ele><time>2012-05-01T11:36:59.0000000+00:00</time></trkpt><trkpt lat="43.107147" lon="19.167885"><ele>1414.9</ele><time>2012-05-01T11:37:04.0000000+00:00</time></trkpt><trkpt lat="43.107132" lon="19.16773"><ele>1415.2</ele><time>2012-05-01T11:37:09.0000000+00:00</time></trkpt><trkpt lat="43.107109" lon="19.167568"><ele>1415.4</ele><time>2012-05-01T11:37:14.0000000+00:00</time></trkpt><trkpt lat="43.10709" lon="19.167387"><ele>1415.9</ele><time>2012-05-01T11:37:19.0000000+00:00</time></trkpt><trkpt lat="43.107071" lon="19.167215"><ele>1416.6</ele><time>2012-05-01T11:37:24.0000000+00:00</time></trkpt><trkpt lat="43.107048" lon="19.167053"><ele>1417.0</ele><time>2012-05-01T11:37:29.0000000+00:00</time></trkpt><trkpt lat="43.107002" lon="19.166933"><ele>1418.0</ele><time>2012-05-01T11:37:34.0000000+00:00</time></trkpt><trkpt lat="43.10696" lon="19.166866"><ele>1419.2</ele><time>2012-05-01T11:37:39.0000000+00:00</time></trkpt><trkpt lat="43.106915" lon="19.166813"><ele>1420.4</ele><time>2012-05-01T11:37:44.0000000+00:00</time></trkpt><trkpt lat="43.106873" lon="19.166788"><ele>1420.3</ele><time>2012-05-01T11:37:49.0000000+00:00</time></trkpt><trkpt lat="43.106873" lon="19.16679"><ele>1419.8</ele><time>2012-05-01T11:37:54.0000000+00:00</time></trkpt><trkpt lat="43.106873" lon="19.16679"><ele>1419.8</ele><time>2012-05-01T11:37:59.0000000+00:00</time></trkpt><trkpt lat="43.106873" lon="19.16679"><ele>1419.8</ele><time>2012-05-01T11:38:04.0000000+00:00</time></trkpt><trkpt lat="43.106873" lon="19.16679"><ele>1419.8</ele><time>2012-05-01T11:38:09.0000000+00:00</time></trkpt><trkpt lat="43.106876" lon="19.166794"><ele>1420.0</ele><time>2012-05-01T11:38:14.0000000+00:00</time></trkpt><trkpt lat="43.10688" lon="19.166811"><ele>1420.0</ele><time>2012-05-01T11:38:19.0000000+00:00</time></trkpt><trkpt lat="43.10688" lon="19.166809"><ele>1420.0</ele><time>2012-05-01T11:38:24.0000000+00:00</time></trkpt><trkpt lat="43.10688" lon="19.166809"><ele>1420.0</ele><time>2012-05-01T11:38:29.0000000+00:00</time></trkpt><trkpt lat="43.106884" lon="19.166811"><ele>1420.0</ele><time>2012-05-01T11:38:34.0000000+00:00</time></trkpt><trkpt lat="43.106884" lon="19.166811"><ele>1420.1</ele><time>2012-05-01T11:38:39.0000000+00:00</time></trkpt><trkpt lat="43.106884" lon="19.166811"><ele>1420.1</ele><time>2012-05-01T11:38:44.0000000+00:00</time></trkpt><trkpt lat="43.106884" lon="19.166811"><ele>1420.1</ele><time>2012-05-01T11:38:49.0000000+00:00</time></trkpt><trkpt lat="43.106884" lon="19.166811"><ele>1420.1</ele><time>2012-05-01T11:38:54.0000000+00:00</time></trkpt><trkpt lat="43.106884" lon="19.166811"><ele>1420.1</ele><time>2012-05-01T11:38:59.0000000+00:00</time></trkpt><trkpt lat="43.106884" lon="19.166811"><ele>1420.1</ele><time>2012-05-01T11:39:04.0000000+00:00</time></trkpt><trkpt lat="43.106884" lon="19.166811"><ele>1420.1</ele><time>2012-05-01T11:39:09.0000000+00:00</time></trkpt><trkpt lat="43.106884" lon="19.166811"><ele>1420.1</ele><time>2012-05-01T11:39:14.0000000+00:00</time></trkpt><trkpt lat="43.106884" lon="19.166811"><ele>1420.1</ele><time>2012-05-01T11:39:19.0000000+00:00</time></trkpt><trkpt lat="43.106884" lon="19.166811"><ele>1420.1</ele><time>2012-05-01T11:39:24.0000000+00:00</time></trkpt><trkpt lat="43.106884" lon="19.166811"><ele>1420.1</ele><time>2012-05-01T11:39:29.0000000+00:00</time></trkpt><trkpt lat="43.106884" lon="19.166811"><ele>1420.1</ele><time>2012-05-01T11:39:34.0000000+00:00</time></trkpt><trkpt lat="43.106884" lon="19.166811"><ele>1420.1</ele><time>2012-05-01T11:39:39.0000000+00:00</time></trkpt><trkpt lat="43.106884" lon="19.166811"><ele>1420.2</ele><time>2012-05-01T11:39:44.0000000+00:00</time></trkpt><trkpt lat="43.10688" lon="19.166815"><ele>1420.0</ele><time>2012-05-01T11:39:49.0000000+00:00</time></trkpt><trkpt lat="43.106892" lon="19.166813"><ele>1419.2</ele><time>2012-05-01T11:39:54.0000000+00:00</time></trkpt><trkpt lat="43.106892" lon="19.166813"><ele>1419.2</ele><time>2012-05-01T11:39:59.0000000+00:00</time></trkpt><trkpt lat="43.106892" lon="19.166813"><ele>1419.2</ele><time>2012-05-01T11:40:04.0000000+00:00</time></trkpt><trkpt lat="43.106892" lon="19.166813"><ele>1419.2</ele><time>2012-05-01T11:40:09.0000000+00:00</time></trkpt><trkpt lat="43.106892" lon="19.166813"><ele>1419.2</ele><time>2012-05-01T11:40:14.0000000+00:00</time></trkpt><trkpt lat="43.106892" lon="19.166813"><ele>1419.2</ele><time>2012-05-01T11:40:19.0000000+00:00</time></trkpt><trkpt lat="43.106892" lon="19.166813"><ele>1419.2</ele><time>2012-05-01T11:40:24.0000000+00:00</time></trkpt><trkpt lat="43.106892" lon="19.166813"><ele>1419.2</ele><time>2012-05-01T11:40:29.0000000+00:00</time></trkpt><trkpt lat="43.106892" lon="19.166813"><ele>1419.1</ele><time>2012-05-01T11:40:34.0000000+00:00</time></trkpt><trkpt lat="43.106892" lon="19.166813"><ele>1419.1</ele><time>2012-05-01T11:40:39.0000000+00:00</time></trkpt><trkpt lat="43.106892" lon="19.166813"><ele>1419.1</ele><time>2012-05-01T11:40:44.0000000+00:00</time></trkpt><trkpt lat="43.106892" lon="19.166813"><ele>1419.1</ele><time>2012-05-01T11:40:49.0000000+00:00</time></trkpt><trkpt lat="43.106892" lon="19.166813"><ele>1419.1</ele><time>2012-05-01T11:40:54.0000000+00:00</time></trkpt><trkpt lat="43.106892" lon="19.166813"><ele>1419.1</ele><time>2012-05-01T11:40:59.0000000+00:00</time></trkpt><trkpt lat="43.106892" lon="19.166805"><ele>1419.3</ele><time>2012-05-01T11:41:04.0000000+00:00</time></trkpt><trkpt lat="43.106911" lon="19.1668"><ele>1419.6</ele><time>2012-05-01T11:41:09.0000000+00:00</time></trkpt><trkpt lat="43.106842" lon="19.166759"><ele>1419.8</ele><time>2012-05-01T11:41:14.0000000+00:00</time></trkpt><trkpt lat="43.106674" lon="19.166655"><ele>1418.7</ele><time>2012-05-01T11:41:19.0000000+00:00</time></trkpt><trkpt lat="43.106426" lon="19.166504"><ele>1417.0</ele><time>2012-05-01T11:41:24.0000000+00:00</time></trkpt><trkpt lat="43.106159" lon="19.166218"><ele>1413.8</ele><time>2012-05-01T11:41:29.0000000+00:00</time></trkpt><trkpt lat="43.106094" lon="19.165716"><ele>1413.3</ele><time>2012-05-01T11:41:34.0000000+00:00</time></trkpt><trkpt lat="43.106022" lon="19.165224"><ele>1412.2</ele><time>2012-05-01T11:41:39.0000000+00:00</time></trkpt><trkpt lat="43.105877" lon="19.164762"><ele>1411.5</ele><time>2012-05-01T11:41:44.0000000+00:00</time></trkpt><trkpt lat="43.105698" lon="19.164305"><ele>1410.7</ele><time>2012-05-01T11:41:49.0000000+00:00</time></trkpt><trkpt lat="43.105526" lon="19.163841"><ele>1410.2</ele><time>2012-05-01T11:41:54.0000000+00:00</time></trkpt><trkpt lat="43.105366" lon="19.163359"><ele>1409.6</ele><time>2012-05-01T11:41:59.0000000+00:00</time></trkpt><trkpt lat="43.105179" lon="19.162886"><ele>1409.2</ele><time>2012-05-01T11:42:04.0000000+00:00</time></trkpt><trkpt lat="43.105034" lon="19.162395"><ele>1408.5</ele><time>2012-05-01T11:42:09.0000000+00:00</time></trkpt><trkpt lat="43.104942" lon="19.16189"><ele>1407.9</ele><time>2012-05-01T11:42:14.0000000+00:00</time></trkpt><trkpt lat="43.104679" lon="19.161537"><ele>1407.6</ele><time>2012-05-01T11:42:19.0000000+00:00</time></trkpt><trkpt lat="43.104435" lon="19.161173"><ele>1407.6</ele><time>2012-05-01T11:42:24.0000000+00:00</time></trkpt><trkpt lat="43.104233" lon="19.160851"><ele>1407.6</ele><time>2012-05-01T11:42:29.0000000+00:00</time></trkpt><trkpt lat="43.104061" lon="19.160551"><ele>1407.5</ele><time>2012-05-01T11:42:34.0000000+00:00</time></trkpt><trkpt lat="43.103867" lon="19.160215"><ele>1406.9</ele><time>2012-05-01T11:42:39.0000000+00:00</time></trkpt><trkpt lat="43.103668" lon="19.159893"><ele>1406.5</ele><time>2012-05-01T11:42:44.0000000+00:00</time></trkpt><trkpt lat="43.103512" lon="19.159613"><ele>1406.5</ele><time>2012-05-01T11:42:49.0000000+00:00</time></trkpt><trkpt lat="43.103333" lon="19.159458"><ele>1406.7</ele><time>2012-05-01T11:42:54.0000000+00:00</time></trkpt><trkpt lat="43.1031" lon="19.159464"><ele>1407.1</ele><time>2012-05-01T11:42:59.0000000+00:00</time></trkpt><trkpt lat="43.102875" lon="19.159431"><ele>1407.4</ele><time>2012-05-01T11:43:04.0000000+00:00</time></trkpt><trkpt lat="43.102661" lon="19.159313"><ele>1407.4</ele><time>2012-05-01T11:43:09.0000000+00:00</time></trkpt><trkpt lat="43.102459" lon="19.15914"><ele>1407.4</ele><time>2012-05-01T11:43:14.0000000+00:00</time></trkpt><trkpt lat="43.102264" lon="19.158983"><ele>1407.4</ele><time>2012-05-01T11:43:19.0000000+00:00</time></trkpt><trkpt lat="43.102058" lon="19.158865"><ele>1407.6</ele><time>2012-05-01T11:43:24.0000000+00:00</time></trkpt><trkpt lat="43.101845" lon="19.1588"><ele>1408.0</ele><time>2012-05-01T11:43:29.0000000+00:00</time></trkpt><trkpt lat="43.101616" lon="19.15867"><ele>1408.2</ele><time>2012-05-01T11:43:34.0000000+00:00</time></trkpt><trkpt lat="43.101517" lon="19.158384"><ele>1408.5</ele><time>2012-05-01T11:43:39.0000000+00:00</time></trkpt><trkpt lat="43.101467" lon="19.15806"><ele>1408.2</ele><time>2012-05-01T11:43:44.0000000+00:00</time></trkpt><trkpt lat="43.101494" lon="19.157795"><ele>1408.0</ele><time>2012-05-01T11:43:49.0000000+00:00</time></trkpt><trkpt lat="43.101574" lon="19.157589"><ele>1408.0</ele><time>2012-05-01T11:43:54.0000000+00:00</time></trkpt><trkpt lat="43.101692" lon="19.157339"><ele>1407.5</ele><time>2012-05-01T11:43:59.0000000+00:00</time></trkpt><trkpt lat="43.101742" lon="19.157028"><ele>1407.8</ele><time>2012-05-01T11:44:04.0000000+00:00</time></trkpt><trkpt lat="43.101677" lon="19.15675"><ele>1407.7</ele><time>2012-05-01T11:44:09.0000000+00:00</time></trkpt><trkpt lat="43.101551" lon="19.156517"><ele>1407.7</ele><time>2012-05-01T11:44:14.0000000+00:00</time></trkpt><trkpt lat="43.10141" lon="19.156298"><ele>1407.5</ele><time>2012-05-01T11:44:19.0000000+00:00</time></trkpt><trkpt lat="43.101276" lon="19.156096"><ele>1407.0</ele><time>2012-05-01T11:44:24.0000000+00:00</time></trkpt><trkpt lat="43.101135" lon="19.155878"><ele>1406.9</ele><time>2012-05-01T11:44:29.0000000+00:00</time></trkpt><trkpt lat="43.100994" lon="19.155653"><ele>1407.1</ele><time>2012-05-01T11:44:34.0000000+00:00</time></trkpt><trkpt lat="43.100807" lon="19.155411"><ele>1407.2</ele><time>2012-05-01T11:44:39.0000000+00:00</time></trkpt><trkpt lat="43.100571" lon="19.155207"><ele>1406.4</ele><time>2012-05-01T11:44:44.0000000+00:00</time></trkpt><trkpt lat="43.100288" lon="19.154989"><ele>1405.7</ele><time>2012-05-01T11:44:49.0000000+00:00</time></trkpt><trkpt lat="43.100014" lon="19.154778"><ele>1405.6</ele><time>2012-05-01T11:44:54.0000000+00:00</time></trkpt><trkpt lat="43.099777" lon="19.154591"><ele>1405.5</ele><time>2012-05-01T11:44:59.0000000+00:00</time></trkpt><trkpt lat="43.099529" lon="19.154438"><ele>1405.7</ele><time>2012-05-01T11:45:04.0000000+00:00</time></trkpt><trkpt lat="43.099266" lon="19.154314"><ele>1405.2</ele><time>2012-05-01T11:45:09.0000000+00:00</time></trkpt><trkpt lat="43.098995" lon="19.154179"><ele>1404.8</ele><time>2012-05-01T11:45:14.0000000+00:00</time></trkpt><trkpt lat="43.098763" lon="19.154057"><ele>1404.7</ele><time>2012-05-01T11:45:19.0000000+00:00</time></trkpt><trkpt lat="43.098545" lon="19.153919"><ele>1405.1</ele><time>2012-05-01T11:45:24.0000000+00:00</time></trkpt><trkpt lat="43.098328" lon="19.153721"><ele>1405.9</ele><time>2012-05-01T11:45:29.0000000+00:00</time></trkpt><trkpt lat="43.098122" lon="19.153555"><ele>1406.1</ele><time>2012-05-01T11:45:34.0000000+00:00</time></trkpt><trkpt lat="43.097954" lon="19.153412"><ele>1405.6</ele><time>2012-05-01T11:45:39.0000000+00:00</time></trkpt><trkpt lat="43.097797" lon="19.153271"><ele>1404.8</ele><time>2012-05-01T11:45:44.0000000+00:00</time></trkpt><trkpt lat="43.097595" lon="19.153105"><ele>1404.7</ele><time>2012-05-01T11:45:49.0000000+00:00</time></trkpt><trkpt lat="43.097385" lon="19.152887"><ele>1404.3</ele><time>2012-05-01T11:45:54.0000000+00:00</time></trkpt><trkpt lat="43.097141" lon="19.152676"><ele>1404.0</ele><time>2012-05-01T11:45:59.0000000+00:00</time></trkpt><trkpt lat="43.09692" lon="19.152502"><ele>1404.1</ele><time>2012-05-01T11:46:04.0000000+00:00</time></trkpt><trkpt lat="43.096729" lon="19.15237"><ele>1404.6</ele><time>2012-05-01T11:46:09.0000000+00:00</time></trkpt><trkpt lat="43.0965" lon="19.152203"><ele>1404.9</ele><time>2012-05-01T11:46:14.0000000+00:00</time></trkpt><trkpt lat="43.096279" lon="19.152046"><ele>1405.3</ele><time>2012-05-01T11:46:19.0000000+00:00</time></trkpt><trkpt lat="43.096081" lon="19.151907"><ele>1406.2</ele><time>2012-05-01T11:46:24.0000000+00:00</time></trkpt><trkpt lat="43.095863" lon="19.151777"><ele>1408.3</ele><time>2012-05-01T11:46:29.0000000+00:00</time></trkpt><trkpt lat="43.095692" lon="19.151642"><ele>1409.1</ele><time>2012-05-01T11:46:34.0000000+00:00</time></trkpt><trkpt lat="43.095474" lon="19.151703"><ele>1411.1</ele><time>2012-05-01T11:46:39.0000000+00:00</time></trkpt><trkpt lat="43.095242" lon="19.151777"><ele>1411.7</ele><time>2012-05-01T11:46:44.0000000+00:00</time></trkpt><trkpt lat="43.095039" lon="19.151756"><ele>1413.9</ele><time>2012-05-01T11:46:49.0000000+00:00</time></trkpt><trkpt lat="43.094833" lon="19.151743"><ele>1415.6</ele><time>2012-05-01T11:46:54.0000000+00:00</time></trkpt><trkpt lat="43.094627" lon="19.151733"><ele>1417.2</ele><time>2012-05-01T11:46:59.0000000+00:00</time></trkpt><trkpt lat="43.094418" lon="19.151724"><ele>1417.5</ele><time>2012-05-01T11:47:04.0000000+00:00</time></trkpt><trkpt lat="43.094212" lon="19.151756"><ele>1418.7</ele><time>2012-05-01T11:47:09.0000000+00:00</time></trkpt><trkpt lat="43.094021" lon="19.151745"><ele>1419.5</ele><time>2012-05-01T11:47:14.0000000+00:00</time></trkpt><trkpt lat="43.093868" lon="19.15159"><ele>1417.4</ele><time>2012-05-01T11:47:19.0000000+00:00</time></trkpt><trkpt lat="43.093822" lon="19.15131"><ele>1416.4</ele><time>2012-05-01T11:47:24.0000000+00:00</time></trkpt><trkpt lat="43.093788" lon="19.151041"><ele>1415.8</ele><time>2012-05-01T11:47:29.0000000+00:00</time></trkpt><trkpt lat="43.093761" lon="19.150839"><ele>1415.3</ele><time>2012-05-01T11:47:34.0000000+00:00</time></trkpt><trkpt lat="43.093739" lon="19.150585"><ele>1415.0</ele><time>2012-05-01T11:47:39.0000000+00:00</time></trkpt><trkpt lat="43.093704" lon="19.150312"><ele>1415.4</ele><time>2012-05-01T11:47:44.0000000+00:00</time></trkpt><trkpt lat="43.093674" lon="19.150091"><ele>1415.1</ele><time>2012-05-01T11:47:49.0000000+00:00</time></trkpt><trkpt lat="43.093639" lon="19.149811"><ele>1415.1</ele><time>2012-05-01T11:47:54.0000000+00:00</time></trkpt><trkpt lat="43.093605" lon="19.149517"><ele>1415.3</ele><time>2012-05-01T11:47:59.0000000+00:00</time></trkpt><trkpt lat="43.093533" lon="19.149271"><ele>1415.7</ele><time>2012-05-01T11:48:04.0000000+00:00</time></trkpt><trkpt lat="43.093403" lon="19.149096"><ele>1416.8</ele><time>2012-05-01T11:48:09.0000000+00:00</time></trkpt><trkpt lat="43.093212" lon="19.148981"><ele>1416.6</ele><time>2012-05-01T11:48:14.0000000+00:00</time></trkpt><trkpt lat="43.093006" lon="19.148895"><ele>1416.2</ele><time>2012-05-01T11:48:19.0000000+00:00</time></trkpt><trkpt lat="43.0928" lon="19.148806"><ele>1415.6</ele><time>2012-05-01T11:48:24.0000000+00:00</time></trkpt><trkpt lat="43.092587" lon="19.148708"><ele>1415.7</ele><time>2012-05-01T11:48:29.0000000+00:00</time></trkpt><trkpt lat="43.092407" lon="19.148693"><ele>1415.5</ele><time>2012-05-01T11:48:34.0000000+00:00</time></trkpt><trkpt lat="43.092255" lon="19.148729"><ele>1415.5</ele><time>2012-05-01T11:48:39.0000000+00:00</time></trkpt><trkpt lat="43.092144" lon="19.148769"><ele>1415.0</ele><time>2012-05-01T11:48:44.0000000+00:00</time></trkpt><trkpt lat="43.092049" lon="19.148794"><ele>1414.4</ele><time>2012-05-01T11:48:49.0000000+00:00</time></trkpt><trkpt lat="43.091877" lon="19.148729"><ele>1414.3</ele><time>2012-05-01T11:48:54.0000000+00:00</time></trkpt><trkpt lat="43.091759" lon="19.148434"><ele>1414.5</ele><time>2012-05-01T11:48:59.0000000+00:00</time></trkpt><trkpt lat="43.091656" lon="19.148161"><ele>1414.9</ele><time>2012-05-01T11:49:04.0000000+00:00</time></trkpt><trkpt lat="43.091476" lon="19.14797"><ele>1415.1</ele><time>2012-05-01T11:49:09.0000000+00:00</time></trkpt><trkpt lat="43.091179" lon="19.147875"><ele>1415.9</ele><time>2012-05-01T11:49:14.0000000+00:00</time></trkpt><trkpt lat="43.090984" lon="19.147835"><ele>1416.8</ele><time>2012-05-01T11:49:19.0000000+00:00</time></trkpt><trkpt lat="43.090832" lon="19.147781"><ele>1416.6</ele><time>2012-05-01T11:49:24.0000000+00:00</time></trkpt><trkpt lat="43.090683" lon="19.147675"><ele>1416.6</ele><time>2012-05-01T11:49:29.0000000+00:00</time></trkpt><trkpt lat="43.090469" lon="19.147509"><ele>1416.9</ele><time>2012-05-01T11:49:34.0000000+00:00</time></trkpt><trkpt lat="43.090282" lon="19.147314"><ele>1417.7</ele><time>2012-05-01T11:49:39.0000000+00:00</time></trkpt><trkpt lat="43.090118" lon="19.147144"><ele>1417.6</ele><time>2012-05-01T11:49:44.0000000+00:00</time></trkpt><trkpt lat="43.089947" lon="19.146944"><ele>1417.5</ele><time>2012-05-01T11:49:49.0000000+00:00</time></trkpt><trkpt lat="43.089798" lon="19.14679"><ele>1417.1</ele><time>2012-05-01T11:49:54.0000000+00:00</time></trkpt><trkpt lat="43.089638" lon="19.146641"><ele>1417.0</ele><time>2012-05-01T11:49:59.0000000+00:00</time></trkpt><trkpt lat="43.089401" lon="19.146534"><ele>1415.7</ele><time>2012-05-01T11:50:04.0000000+00:00</time></trkpt><trkpt lat="43.08913" lon="19.146437"><ele>1415.0</ele><time>2012-05-01T11:50:09.0000000+00:00</time></trkpt><trkpt lat="43.088833" lon="19.146326"><ele>1414.4</ele><time>2012-05-01T11:50:14.0000000+00:00</time></trkpt><trkpt lat="43.088516" lon="19.146202"><ele>1413.5</ele><time>2012-05-01T11:50:19.0000000+00:00</time></trkpt><trkpt lat="43.088211" lon="19.14609"><ele>1413.4</ele><time>2012-05-01T11:50:24.0000000+00:00</time></trkpt><trkpt lat="43.087914" lon="19.145977"><ele>1413.3</ele><time>2012-05-01T11:50:29.0000000+00:00</time></trkpt><trkpt lat="43.087669" lon="19.145788"><ele>1412.6</ele><time>2012-05-01T11:50:34.0000000+00:00</time></trkpt><trkpt lat="43.087528" lon="19.145451"><ele>1411.4</ele><time>2012-05-01T11:50:39.0000000+00:00</time></trkpt><trkpt lat="43.087341" lon="19.145176"><ele>1410.8</ele><time>2012-05-01T11:50:44.0000000+00:00</time></trkpt><trkpt lat="43.087074" lon="19.14502"><ele>1410.3</ele><time>2012-05-01T11:50:49.0000000+00:00</time></trkpt><trkpt lat="43.086796" lon="19.144854"><ele>1410.5</ele><time>2012-05-01T11:50:54.0000000+00:00</time></trkpt><trkpt lat="43.086529" lon="19.144707"><ele>1410.7</ele><time>2012-05-01T11:50:59.0000000+00:00</time></trkpt><trkpt lat="43.086311" lon="19.144606"><ele>1411.0</ele><time>2012-05-01T11:51:04.0000000+00:00</time></trkpt><trkpt lat="43.086159" lon="19.144524"><ele>1411.9</ele><time>2012-05-01T11:51:09.0000000+00:00</time></trkpt><trkpt lat="43.085999" lon="19.144464"><ele>1412.1</ele><time>2012-05-01T11:51:14.0000000+00:00</time></trkpt><trkpt lat="43.085819" lon="19.144396"><ele>1412.8</ele><time>2012-05-01T11:51:19.0000000+00:00</time></trkpt><trkpt lat="43.085682" lon="19.14435"><ele>1413.6</ele><time>2012-05-01T11:51:24.0000000+00:00</time></trkpt><trkpt lat="43.085533" lon="19.1443"><ele>1413.8</ele><time>2012-05-01T11:51:29.0000000+00:00</time></trkpt><trkpt lat="43.085384" lon="19.144247"><ele>1414.3</ele><time>2012-05-01T11:51:34.0000000+00:00</time></trkpt><trkpt lat="43.085217" lon="19.144196"><ele>1415.4</ele><time>2012-05-01T11:51:39.0000000+00:00</time></trkpt><trkpt lat="43.085041" lon="19.144136"><ele>1415.1</ele><time>2012-05-01T11:51:44.0000000+00:00</time></trkpt><trkpt lat="43.084904" lon="19.144094"><ele>1415.6</ele><time>2012-05-01T11:51:49.0000000+00:00</time></trkpt><trkpt lat="43.084789" lon="19.144043"><ele>1416.2</ele><time>2012-05-01T11:51:54.0000000+00:00</time></trkpt><trkpt lat="43.084667" lon="19.143976"><ele>1417.0</ele><time>2012-05-01T11:51:59.0000000+00:00</time></trkpt><trkpt lat="43.084572" lon="19.14393"><ele>1417.8</ele><time>2012-05-01T11:52:04.0000000+00:00</time></trkpt><trkpt lat="43.084473" lon="19.143871"><ele>1418.1</ele><time>2012-05-01T11:52:09.0000000+00:00</time></trkpt><trkpt lat="43.084332" lon="19.143806"><ele>1419.3</ele><time>2012-05-01T11:52:14.0000000+00:00</time></trkpt><trkpt lat="43.084179" lon="19.143713"><ele>1419.7</ele><time>2012-05-01T11:52:19.0000000+00:00</time></trkpt><trkpt lat="43.084072" lon="19.143663"><ele>1420.3</ele><time>2012-05-01T11:52:24.0000000+00:00</time></trkpt><trkpt lat="43.083958" lon="19.1436"><ele>1420.9</ele><time>2012-05-01T11:52:29.0000000+00:00</time></trkpt><trkpt lat="43.083824" lon="19.143511"><ele>1421.0</ele><time>2012-05-01T11:52:34.0000000+00:00</time></trkpt><trkpt lat="43.083729" lon="19.143442"><ele>1421.0</ele><time>2012-05-01T11:52:39.0000000+00:00</time></trkpt><trkpt lat="43.08358" lon="19.143379"><ele>1421.7</ele><time>2012-05-01T11:52:44.0000000+00:00</time></trkpt><trkpt lat="43.083389" lon="19.143278"><ele>1421.7</ele><time>2012-05-01T11:52:49.0000000+00:00</time></trkpt><trkpt lat="43.083256" lon="19.143204"><ele>1422.2</ele><time>2012-05-01T11:52:54.0000000+00:00</time></trkpt><trkpt lat="43.083115" lon="19.143135"><ele>1422.8</ele><time>2012-05-01T11:52:59.0000000+00:00</time></trkpt><trkpt lat="43.082924" lon="19.143038"><ele>1422.6</ele><time>2012-05-01T11:53:04.0000000+00:00</time></trkpt><trkpt lat="43.08279" lon="19.14295"><ele>1423.7</ele><time>2012-05-01T11:53:09.0000000+00:00</time></trkpt><trkpt lat="43.08268" lon="19.142891"><ele>1424.1</ele><time>2012-05-01T11:53:14.0000000+00:00</time></trkpt><trkpt lat="43.082531" lon="19.142822"><ele>1423.9</ele><time>2012-05-01T11:53:19.0000000+00:00</time></trkpt><trkpt lat="43.082367" lon="19.142733"><ele>1424.7</ele><time>2012-05-01T11:53:24.0000000+00:00</time></trkpt><trkpt lat="43.082233" lon="19.142641"><ele>1424.5</ele><time>2012-05-01T11:53:29.0000000+00:00</time></trkpt><trkpt lat="43.082081" lon="19.142559"><ele>1424.6</ele><time>2012-05-01T11:53:34.0000000+00:00</time></trkpt><trkpt lat="43.081875" lon="19.142448"><ele>1424.6</ele><time>2012-05-01T11:53:39.0000000+00:00</time></trkpt><trkpt lat="43.081646" lon="19.142326"><ele>1425.1</ele><time>2012-05-01T11:53:44.0000000+00:00</time></trkpt><trkpt lat="43.081444" lon="19.142212"><ele>1426.5</ele><time>2012-05-01T11:53:49.0000000+00:00</time></trkpt><trkpt lat="43.081219" lon="19.142082"><ele>1426.5</ele><time>2012-05-01T11:53:54.0000000+00:00</time></trkpt><trkpt lat="43.081009" lon="19.141987"><ele>1426.9</ele><time>2012-05-01T11:53:59.0000000+00:00</time></trkpt><trkpt lat="43.080837" lon="19.14187"><ele>1427.2</ele><time>2012-05-01T11:54:04.0000000+00:00</time></trkpt><trkpt lat="43.080662" lon="19.141769"><ele>1427.2</ele><time>2012-05-01T11:54:09.0000000+00:00</time></trkpt><trkpt lat="43.080521" lon="19.141687"><ele>1427.0</ele><time>2012-05-01T11:54:14.0000000+00:00</time></trkpt><trkpt lat="43.080437" lon="19.14159"><ele>1427.1</ele><time>2012-05-01T11:54:19.0000000+00:00</time></trkpt><trkpt lat="43.080402" lon="19.141481"><ele>1427.4</ele><time>2012-05-01T11:54:24.0000000+00:00</time></trkpt><trkpt lat="43.080402" lon="19.141476"><ele>1428.1</ele><time>2012-05-01T11:54:29.0000000+00:00</time></trkpt><trkpt lat="43.080402" lon="19.141476"><ele>1428.1</ele><time>2012-05-01T11:54:34.0000000+00:00</time></trkpt><trkpt lat="43.080402" lon="19.141476"><ele>1428.1</ele><time>2012-05-01T11:54:39.0000000+00:00</time></trkpt><trkpt lat="43.080402" lon="19.141476"><ele>1428.1</ele><time>2012-05-01T11:54:44.0000000+00:00</time></trkpt><trkpt lat="43.080402" lon="19.141476"><ele>1428.1</ele><time>2012-05-01T11:54:49.0000000+00:00</time></trkpt><trkpt lat="43.080402" lon="19.141476"><ele>1428.1</ele><time>2012-05-01T11:54:54.0000000+00:00</time></trkpt><trkpt lat="43.080402" lon="19.141476"><ele>1428.1</ele><time>2012-05-01T11:54:59.0000000+00:00</time></trkpt><trkpt lat="43.080402" lon="19.141476"><ele>1428.1</ele><time>2012-05-01T11:55:04.0000000+00:00</time></trkpt><trkpt lat="43.080402" lon="19.141476"><ele>1428.1</ele><time>2012-05-01T11:55:09.0000000+00:00</time></trkpt><trkpt lat="43.080402" lon="19.141476"><ele>1428.1</ele><time>2012-05-01T11:55:14.0000000+00:00</time></trkpt><trkpt lat="43.080402" lon="19.141476"><ele>1428.1</ele><time>2012-05-01T11:55:19.0000000+00:00</time></trkpt><trkpt lat="43.080402" lon="19.141476"><ele>1428.0</ele><time>2012-05-01T11:55:24.0000000+00:00</time></trkpt><trkpt lat="43.080402" lon="19.141476"><ele>1428.1</ele><time>2012-05-01T11:55:29.0000000+00:00</time></trkpt><trkpt lat="43.080402" lon="19.141476"><ele>1428.1</ele><time>2012-05-01T11:55:34.0000000+00:00</time></trkpt><trkpt lat="43.080402" lon="19.141476"><ele>1428.1</ele><time>2012-05-01T11:55:39.0000000+00:00</time></trkpt><trkpt lat="43.080402" lon="19.141476"><ele>1428.1</ele><time>2012-05-01T11:55:44.0000000+00:00</time></trkpt><trkpt lat="43.080402" lon="19.141476"><ele>1428.2</ele><time>2012-05-01T11:55:49.0000000+00:00</time></trkpt><trkpt lat="43.080402" lon="19.141476"><ele>1428.2</ele><time>2012-05-01T11:55:54.0000000+00:00</time></trkpt><trkpt lat="43.080402" lon="19.141476"><ele>1428.2</ele><time>2012-05-01T11:55:59.0000000+00:00</time></trkpt><trkpt lat="43.080402" lon="19.141476"><ele>1428.2</ele><time>2012-05-01T11:56:04.0000000+00:00</time></trkpt><trkpt lat="43.080399" lon="19.141449"><ele>1428.3</ele><time>2012-05-01T11:56:09.0000000+00:00</time></trkpt><trkpt lat="43.080391" lon="19.141367"><ele>1429.1</ele><time>2012-05-01T11:56:14.0000000+00:00</time></trkpt><trkpt lat="43.080433" lon="19.141273"><ele>1431.5</ele><time>2012-05-01T11:56:19.0000000+00:00</time></trkpt><trkpt lat="43.080555" lon="19.141144"><ele>1432.0</ele><time>2012-05-01T11:56:24.0000000+00:00</time></trkpt><trkpt lat="43.08073" lon="19.140966"><ele>1433.4</ele><time>2012-05-01T11:56:29.0000000+00:00</time></trkpt><trkpt lat="43.080906" lon="19.140804"><ele>1434.3</ele><time>2012-05-01T11:56:34.0000000+00:00</time></trkpt><trkpt lat="43.081085" lon="19.140654"><ele>1435.6</ele><time>2012-05-01T11:56:39.0000000+00:00</time></trkpt><trkpt lat="43.081284" lon="19.140451"><ele>1434.9</ele><time>2012-05-01T11:56:44.0000000+00:00</time></trkpt><trkpt lat="43.081509" lon="19.14023"><ele>1433.9</ele><time>2012-05-01T11:56:49.0000000+00:00</time></trkpt><trkpt lat="43.081791" lon="19.139956"><ele>1433.2</ele><time>2012-05-01T11:56:54.0000000+00:00</time></trkpt><trkpt lat="43.082127" lon="19.139612"><ele>1431.4</ele><time>2012-05-01T11:56:59.0000000+00:00</time></trkpt><trkpt lat="43.08247" lon="19.139278"><ele>1431.6</ele><time>2012-05-01T11:57:04.0000000+00:00</time></trkpt><trkpt lat="43.082787" lon="19.138964"><ele>1432.6</ele><time>2012-05-01T11:57:09.0000000+00:00</time></trkpt><trkpt lat="43.083107" lon="19.138622"><ele>1430.8</ele><time>2012-05-01T11:57:14.0000000+00:00</time></trkpt><trkpt lat="43.083473" lon="19.138245"><ele>1431.6</ele><time>2012-05-01T11:57:19.0000000+00:00</time></trkpt><trkpt lat="43.083847" lon="19.137859"><ele>1430.6</ele><time>2012-05-01T11:57:24.0000000+00:00</time></trkpt><trkpt lat="43.084267" lon="19.137503"><ele>1430.1</ele><time>2012-05-01T11:57:29.0000000+00:00</time></trkpt><trkpt lat="43.084717" lon="19.137266"><ele>1430.4</ele><time>2012-05-01T11:57:34.0000000+00:00</time></trkpt><trkpt lat="43.085125" lon="19.137112"><ele>1432.1</ele><time>2012-05-01T11:57:39.0000000+00:00</time></trkpt><trkpt lat="43.085468" lon="19.136957"><ele>1434.5</ele><time>2012-05-01T11:57:44.0000000+00:00</time></trkpt><trkpt lat="43.085739" lon="19.136824"><ele>1435.4</ele><time>2012-05-01T11:57:49.0000000+00:00</time></trkpt><trkpt lat="43.085945" lon="19.136749"><ele>1437.3</ele><time>2012-05-01T11:57:54.0000000+00:00</time></trkpt><trkpt lat="43.086128" lon="19.136658"><ele>1437.8</ele><time>2012-05-01T11:57:59.0000000+00:00</time></trkpt><trkpt lat="43.08625" lon="19.136578"><ele>1437.8</ele><time>2012-05-01T11:58:04.0000000+00:00</time></trkpt><trkpt lat="43.086262" lon="19.136581"><ele>1439.2</ele><time>2012-05-01T11:58:09.0000000+00:00</time></trkpt><trkpt lat="43.086262" lon="19.136581"><ele>1439.2</ele><time>2012-05-01T11:58:14.0000000+00:00</time></trkpt><trkpt lat="43.086327" lon="19.136541"><ele>1438.2</ele><time>2012-05-01T11:58:19.0000000+00:00</time></trkpt><trkpt lat="43.086514" lon="19.136391"><ele>1437.5</ele><time>2012-05-01T11:58:24.0000000+00:00</time></trkpt><trkpt lat="43.086773" lon="19.136166"><ele>1438.0</ele><time>2012-05-01T11:58:29.0000000+00:00</time></trkpt><trkpt lat="43.08704" lon="19.135944"><ele>1438.9</ele><time>2012-05-01T11:58:34.0000000+00:00</time></trkpt><trkpt lat="43.087257" lon="19.135771"><ele>1438.1</ele><time>2012-05-01T11:58:39.0000000+00:00</time></trkpt><trkpt lat="43.087471" lon="19.135599"><ele>1437.2</ele><time>2012-05-01T11:58:44.0000000+00:00</time></trkpt><trkpt lat="43.0877" lon="19.135418"><ele>1436.7</ele><time>2012-05-01T11:58:49.0000000+00:00</time></trkpt><trkpt lat="43.08794" lon="19.135227"><ele>1437.8</ele><time>2012-05-01T11:58:54.0000000+00:00</time></trkpt><trkpt lat="43.088196" lon="19.135023"><ele>1438.8</ele><time>2012-05-01T11:58:59.0000000+00:00</time></trkpt><trkpt lat="43.088455" lon="19.134821"><ele>1440.1</ele><time>2012-05-01T11:59:04.0000000+00:00</time></trkpt><trkpt lat="43.088688" lon="19.134621"><ele>1441.5</ele><time>2012-05-01T11:59:09.0000000+00:00</time></trkpt><trkpt lat="43.088943" lon="19.134434"><ele>1442.9</ele><time>2012-05-01T11:59:14.0000000+00:00</time></trkpt><trkpt lat="43.089195" lon="19.134243"><ele>1443.8</ele><time>2012-05-01T11:59:19.0000000+00:00</time></trkpt><trkpt lat="43.089428" lon="19.134039"><ele>1445.1</ele><time>2012-05-01T11:59:24.0000000+00:00</time></trkpt><trkpt lat="43.089668" lon="19.133844"><ele>1445.1</ele><time>2012-05-01T11:59:29.0000000+00:00</time></trkpt><trkpt lat="43.089951" lon="19.133621"><ele>1445.9</ele><time>2012-05-01T11:59:34.0000000+00:00</time></trkpt><trkpt lat="43.090229" lon="19.133404"><ele>1446.7</ele><time>2012-05-01T11:59:39.0000000+00:00</time></trkpt><trkpt lat="43.090485" lon="19.133204"><ele>1447.3</ele><time>2012-05-01T11:59:44.0000000+00:00</time></trkpt><trkpt lat="43.090748" lon="19.132996"><ele>1447.0</ele><time>2012-05-01T11:59:49.0000000+00:00</time></trkpt><trkpt lat="43.091007" lon="19.132795"><ele>1446.4</ele><time>2012-05-01T11:59:54.0000000+00:00</time></trkpt><trkpt lat="43.091232" lon="19.132608"><ele>1445.8</ele><time>2012-05-01T11:59:59.0000000+00:00</time></trkpt><trkpt lat="43.091454" lon="19.132448"><ele>1446.2</ele><time>2012-05-01T12:00:04.0000000+00:00</time></trkpt><trkpt lat="43.091675" lon="19.132257"><ele>1448.4</ele><time>2012-05-01T12:00:09.0000000+00:00</time></trkpt><trkpt lat="43.091881" lon="19.132086"><ele>1449.9</ele><time>2012-05-01T12:00:14.0000000+00:00</time></trkpt><trkpt lat="43.092075" lon="19.131943"><ele>1449.6</ele><time>2012-05-01T12:00:19.0000000+00:00</time></trkpt><trkpt lat="43.09227" lon="19.131786"><ele>1450.5</ele><time>2012-05-01T12:00:24.0000000+00:00</time></trkpt><trkpt lat="43.092472" lon="19.131643"><ele>1452.2</ele><time>2012-05-01T12:00:29.0000000+00:00</time></trkpt><trkpt lat="43.092667" lon="19.131479"><ele>1452.6</ele><time>2012-05-01T12:00:34.0000000+00:00</time></trkpt><trkpt lat="43.092819" lon="19.131283"><ele>1453.7</ele><time>2012-05-01T12:00:39.0000000+00:00</time></trkpt><trkpt lat="43.092926" lon="19.131052"><ele>1454.4</ele><time>2012-05-01T12:00:44.0000000+00:00</time></trkpt><trkpt lat="43.093063" lon="19.130772"><ele>1452.4</ele><time>2012-05-01T12:00:49.0000000+00:00</time></trkpt><trkpt lat="43.093243" lon="19.130363"><ele>1450.8</ele><time>2012-05-01T12:00:54.0000000+00:00</time></trkpt><trkpt lat="43.093586" lon="19.130087"><ele>1449.4</ele><time>2012-05-01T12:00:59.0000000+00:00</time></trkpt><trkpt lat="43.094036" lon="19.129984"><ele>1450.2</ele><time>2012-05-01T12:01:04.0000000+00:00</time></trkpt><trkpt lat="43.094452" lon="19.129908"><ele>1451.1</ele><time>2012-05-01T12:01:09.0000000+00:00</time></trkpt><trkpt lat="43.09481" lon="19.129848"><ele>1452.1</ele><time>2012-05-01T12:01:14.0000000+00:00</time></trkpt><trkpt lat="43.095154" lon="19.129898"><ele>1451.1</ele><time>2012-05-01T12:01:19.0000000+00:00</time></trkpt><trkpt lat="43.095474" lon="19.130011"><ele>1450.6</ele><time>2012-05-01T12:01:24.0000000+00:00</time></trkpt><trkpt lat="43.095837" lon="19.13014"><ele>1448.2</ele><time>2012-05-01T12:01:29.0000000+00:00</time></trkpt><trkpt lat="43.096256" lon="19.130337"><ele>1445.4</ele><time>2012-05-01T12:01:34.0000000+00:00</time></trkpt><trkpt lat="43.096699" lon="19.130722"><ele>1443.9</ele><time>2012-05-01T12:01:39.0000000+00:00</time></trkpt><trkpt lat="43.097221" lon="19.130871"><ele>1443.3</ele><time>2012-05-01T12:01:44.0000000+00:00</time></trkpt><trkpt lat="43.097694" lon="19.130911"><ele>1444.3</ele><time>2012-05-01T12:01:49.0000000+00:00</time></trkpt><trkpt lat="43.098114" lon="19.130959"><ele>1444.5</ele><time>2012-05-01T12:01:54.0000000+00:00</time></trkpt><trkpt lat="43.098499" lon="19.131002"><ele>1445.5</ele><time>2012-05-01T12:01:59.0000000+00:00</time></trkpt><trkpt lat="43.09882" lon="19.130962"><ele>1446.0</ele><time>2012-05-01T12:02:04.0000000+00:00</time></trkpt><trkpt lat="43.099125" lon="19.130819"><ele>1445.7</ele><time>2012-05-01T12:02:09.0000000+00:00</time></trkpt><trkpt lat="43.099438" lon="19.130653"><ele>1444.4</ele><time>2012-05-01T12:02:14.0000000+00:00</time></trkpt><trkpt lat="43.0998" lon="19.130512"><ele>1442.1</ele><time>2012-05-01T12:02:19.0000000+00:00</time></trkpt><trkpt lat="43.100277" lon="19.130491"><ele>1439.6</ele><time>2012-05-01T12:02:24.0000000+00:00</time></trkpt><trkpt lat="43.100807" lon="19.130499"><ele>1436.7</ele><time>2012-05-01T12:02:29.0000000+00:00</time></trkpt><trkpt lat="43.101376" lon="19.130476"><ele>1434.8</ele><time>2012-05-01T12:02:34.0000000+00:00</time></trkpt><trkpt lat="43.101864" lon="19.130238"><ele>1434.1</ele><time>2012-05-01T12:02:39.0000000+00:00</time></trkpt><trkpt lat="43.102276" lon="19.129948"><ele>1433.4</ele><time>2012-05-01T12:02:44.0000000+00:00</time></trkpt><trkpt lat="43.102627" lon="19.129686"><ele>1433.1</ele><time>2012-05-01T12:02:49.0000000+00:00</time></trkpt><trkpt lat="43.102913" lon="19.129395"><ele>1432.5</ele><time>2012-05-01T12:02:54.0000000+00:00</time></trkpt><trkpt lat="43.103157" lon="19.128984"><ele>1431.8</ele><time>2012-05-01T12:02:59.0000000+00:00</time></trkpt><trkpt lat="43.103394" lon="19.128555"><ele>1431.1</ele><time>2012-05-01T12:03:04.0000000+00:00</time></trkpt><trkpt lat="43.103622" lon="19.128096"><ele>1432.2</ele><time>2012-05-01T12:03:09.0000000+00:00</time></trkpt><trkpt lat="43.103786" lon="19.127699"><ele>1432.9</ele><time>2012-05-01T12:03:14.0000000+00:00</time></trkpt><trkpt lat="43.103878" lon="19.127415"><ele>1433.7</ele><time>2012-05-01T12:03:19.0000000+00:00</time></trkpt><trkpt lat="43.103939" lon="19.127151"><ele>1434.0</ele><time>2012-05-01T12:03:24.0000000+00:00</time></trkpt><trkpt lat="43.103989" lon="19.126965"><ele>1434.8</ele><time>2012-05-01T12:03:29.0000000+00:00</time></trkpt><trkpt lat="43.104031" lon="19.126801"><ele>1436.2</ele><time>2012-05-01T12:03:34.0000000+00:00</time></trkpt><trkpt lat="43.104076" lon="19.126684"><ele>1436.9</ele><time>2012-05-01T12:03:39.0000000+00:00</time></trkpt><trkpt lat="43.104107" lon="19.126522"><ele>1437.4</ele><time>2012-05-01T12:03:44.0000000+00:00</time></trkpt><trkpt lat="43.104134" lon="19.12641"><ele>1438.2</ele><time>2012-05-01T12:03:49.0000000+00:00</time></trkpt><trkpt lat="43.104176" lon="19.126274"><ele>1439.3</ele><time>2012-05-01T12:03:54.0000000+00:00</time></trkpt><trkpt lat="43.104229" lon="19.126091"><ele>1440.0</ele><time>2012-05-01T12:03:59.0000000+00:00</time></trkpt><trkpt lat="43.104279" lon="19.125963"><ele>1440.9</ele><time>2012-05-01T12:04:04.0000000+00:00</time></trkpt><trkpt lat="43.104347" lon="19.125818"><ele>1441.5</ele><time>2012-05-01T12:04:09.0000000+00:00</time></trkpt><trkpt lat="43.104439" lon="19.125622"><ele>1442.5</ele><time>2012-05-01T12:04:14.0000000+00:00</time></trkpt><trkpt lat="43.104576" lon="19.125511"><ele>1443.2</ele><time>2012-05-01T12:04:19.0000000+00:00</time></trkpt><trkpt lat="43.104683" lon="19.125473"><ele>1443.7</ele><time>2012-05-01T12:04:24.0000000+00:00</time></trkpt><trkpt lat="43.104805" lon="19.125429"><ele>1445.0</ele><time>2012-05-01T12:04:29.0000000+00:00</time></trkpt><trkpt lat="43.104942" lon="19.125395"><ele>1445.8</ele><time>2012-05-01T12:04:34.0000000+00:00</time></trkpt><trkpt lat="43.105049" lon="19.12536"><ele>1447.0</ele><time>2012-05-01T12:04:39.0000000+00:00</time></trkpt><trkpt lat="43.105164" lon="19.12533"><ele>1447.2</ele><time>2012-05-01T12:04:44.0000000+00:00</time></trkpt><trkpt lat="43.105289" lon="19.125296"><ele>1447.8</ele><time>2012-05-01T12:04:49.0000000+00:00</time></trkpt><trkpt lat="43.105404" lon="19.125271"><ele>1448.0</ele><time>2012-05-01T12:04:54.0000000+00:00</time></trkpt><trkpt lat="43.105515" lon="19.12521"><ele>1449.1</ele><time>2012-05-01T12:04:59.0000000+00:00</time></trkpt><trkpt lat="43.105614" lon="19.125086"><ele>1450.2</ele><time>2012-05-01T12:05:04.0000000+00:00</time></trkpt><trkpt lat="43.105675" lon="19.124868"><ele>1449.1</ele><time>2012-05-01T12:05:09.0000000+00:00</time></trkpt><trkpt lat="43.105709" lon="19.124687"><ele>1450.0</ele><time>2012-05-01T12:05:14.0000000+00:00</time></trkpt><trkpt lat="43.105743" lon="19.124504"><ele>1451.2</ele><time>2012-05-01T12:05:19.0000000+00:00</time></trkpt><trkpt lat="43.105762" lon="19.124342"><ele>1452.5</ele><time>2012-05-01T12:05:24.0000000+00:00</time></trkpt><trkpt lat="43.105808" lon="19.124203"><ele>1453.0</ele><time>2012-05-01T12:05:29.0000000+00:00</time></trkpt><trkpt lat="43.105904" lon="19.124109"><ele>1454.1</ele><time>2012-05-01T12:05:34.0000000+00:00</time></trkpt><trkpt lat="43.106033" lon="19.124136"><ele>1454.7</ele><time>2012-05-01T12:05:39.0000000+00:00</time></trkpt><trkpt lat="43.106159" lon="19.124203"><ele>1455.9</ele><time>2012-05-01T12:05:44.0000000+00:00</time></trkpt><trkpt lat="43.106304" lon="19.124249"><ele>1456.3</ele><time>2012-05-01T12:05:49.0000000+00:00</time></trkpt><trkpt lat="43.106468" lon="19.124268"><ele>1457.4</ele><time>2012-05-01T12:05:54.0000000+00:00</time></trkpt><trkpt lat="43.106659" lon="19.124279"><ele>1458.2</ele><time>2012-05-01T12:05:59.0000000+00:00</time></trkpt><trkpt lat="43.106899" lon="19.124279"><ele>1457.4</ele><time>2012-05-01T12:06:04.0000000+00:00</time></trkpt><trkpt lat="43.107185" lon="19.124346"><ele>1456.4</ele><time>2012-05-01T12:06:09.0000000+00:00</time></trkpt><trkpt lat="43.107525" lon="19.124435"><ele>1454.5</ele><time>2012-05-01T12:06:14.0000000+00:00</time></trkpt><trkpt lat="43.107868" lon="19.124514"><ele>1452.4</ele><time>2012-05-01T12:06:19.0000000+00:00</time></trkpt><trkpt lat="43.10817" lon="19.124588"><ele>1452.5</ele><time>2012-05-01T12:06:24.0000000+00:00</time></trkpt><trkpt lat="43.108437" lon="19.124672"><ele>1452.4</ele><time>2012-05-01T12:06:29.0000000+00:00</time></trkpt><trkpt lat="43.108643" lon="19.124746"><ele>1452.3</ele><time>2012-05-01T12:06:34.0000000+00:00</time></trkpt><trkpt lat="43.108738" lon="19.124786"><ele>1452.6</ele><time>2012-05-01T12:06:39.0000000+00:00</time></trkpt><trkpt lat="43.108742" lon="19.124796"><ele>1452.1</ele><time>2012-05-01T12:06:44.0000000+00:00</time></trkpt><trkpt lat="43.108742" lon="19.124796"><ele>1452.0</ele><time>2012-05-01T12:06:49.0000000+00:00</time></trkpt><trkpt lat="43.108742" lon="19.124798"><ele>1451.6</ele><time>2012-05-01T12:06:54.0000000+00:00</time></trkpt><trkpt lat="43.108742" lon="19.124798"><ele>1451.5</ele><time>2012-05-01T12:06:59.0000000+00:00</time></trkpt><trkpt lat="43.108742" lon="19.124796"><ele>1451.5</ele><time>2012-05-01T12:07:04.0000000+00:00</time></trkpt><trkpt lat="43.108742" lon="19.124796"><ele>1451.4</ele><time>2012-05-01T12:07:09.0000000+00:00</time></trkpt><trkpt lat="43.108742" lon="19.124796"><ele>1451.4</ele><time>2012-05-01T12:07:14.0000000+00:00</time></trkpt><trkpt lat="43.108742" lon="19.124796"><ele>1451.4</ele><time>2012-05-01T12:07:19.0000000+00:00</time></trkpt><trkpt lat="43.108742" lon="19.124796"><ele>1451.4</ele><time>2012-05-01T12:07:24.0000000+00:00</time></trkpt><trkpt lat="43.108742" lon="19.124796"><ele>1451.4</ele><time>2012-05-01T12:07:29.0000000+00:00</time></trkpt><trkpt lat="43.108742" lon="19.124796"><ele>1451.4</ele><time>2012-05-01T12:07:34.0000000+00:00</time></trkpt><trkpt lat="43.108742" lon="19.124794"><ele>1451.4</ele><time>2012-05-01T12:07:39.0000000+00:00</time></trkpt><trkpt lat="43.108738" lon="19.124794"><ele>1451.4</ele><time>2012-05-01T12:07:44.0000000+00:00</time></trkpt><trkpt lat="43.108738" lon="19.124794"><ele>1451.4</ele><time>2012-05-01T12:07:49.0000000+00:00</time></trkpt><trkpt lat="43.108738" lon="19.124794"><ele>1451.5</ele><time>2012-05-01T12:07:54.0000000+00:00</time></trkpt><trkpt lat="43.108738" lon="19.124794"><ele>1451.5</ele><time>2012-05-01T12:07:59.0000000+00:00</time></trkpt><trkpt lat="43.108738" lon="19.124794"><ele>1451.5</ele><time>2012-05-01T12:08:04.0000000+00:00</time></trkpt><trkpt lat="43.108738" lon="19.124794"><ele>1451.5</ele><time>2012-05-01T12:08:09.0000000+00:00</time></trkpt><trkpt lat="43.108738" lon="19.124794"><ele>1451.5</ele><time>2012-05-01T12:08:14.0000000+00:00</time></trkpt><trkpt lat="43.108738" lon="19.124794"><ele>1451.5</ele><time>2012-05-01T12:08:19.0000000+00:00</time></trkpt><trkpt lat="43.108738" lon="19.124792"><ele>1451.5</ele><time>2012-05-01T12:08:24.0000000+00:00</time></trkpt><trkpt lat="43.108738" lon="19.124792"><ele>1451.5</ele><time>2012-05-01T12:08:29.0000000+00:00</time></trkpt><trkpt lat="43.108738" lon="19.124792"><ele>1451.5</ele><time>2012-05-01T12:08:34.0000000+00:00</time></trkpt><trkpt lat="43.108738" lon="19.124792"><ele>1451.6</ele><time>2012-05-01T12:08:39.0000000+00:00</time></trkpt><trkpt lat="43.108738" lon="19.124792"><ele>1451.6</ele><time>2012-05-01T12:08:44.0000000+00:00</time></trkpt><trkpt lat="43.108738" lon="19.124792"><ele>1451.6</ele><time>2012-05-01T12:08:49.0000000+00:00</time></trkpt><trkpt lat="43.108734" lon="19.124792"><ele>1451.6</ele><time>2012-05-01T12:08:54.0000000+00:00</time></trkpt><trkpt lat="43.108734" lon="19.124792"><ele>1451.6</ele><time>2012-05-01T12:08:59.0000000+00:00</time></trkpt><trkpt lat="43.108734" lon="19.124792"><ele>1451.7</ele><time>2012-05-01T12:09:04.0000000+00:00</time></trkpt><trkpt lat="43.108734" lon="19.124792"><ele>1451.7</ele><time>2012-05-01T12:09:09.0000000+00:00</time></trkpt><trkpt lat="43.108734" lon="19.124792"><ele>1451.7</ele><time>2012-05-01T12:09:14.0000000+00:00</time></trkpt><trkpt lat="43.108734" lon="19.124792"><ele>1451.8</ele><time>2012-05-01T12:09:19.0000000+00:00</time></trkpt><trkpt lat="43.108734" lon="19.124792"><ele>1451.9</ele><time>2012-05-01T12:09:24.0000000+00:00</time></trkpt><trkpt lat="43.108734" lon="19.12479"><ele>1452.0</ele><time>2012-05-01T12:09:29.0000000+00:00</time></trkpt><trkpt lat="43.108734" lon="19.12479"><ele>1452.0</ele><time>2012-05-01T12:09:34.0000000+00:00</time></trkpt><trkpt lat="43.108734" lon="19.12479"><ele>1452.0</ele><time>2012-05-01T12:09:39.0000000+00:00</time></trkpt><trkpt lat="43.108734" lon="19.12479"><ele>1452.0</ele><time>2012-05-01T12:09:44.0000000+00:00</time></trkpt><trkpt lat="43.108734" lon="19.12479"><ele>1452.1</ele><time>2012-05-01T12:09:49.0000000+00:00</time></trkpt><trkpt lat="43.108734" lon="19.12479"><ele>1452.1</ele><time>2012-05-01T12:09:54.0000000+00:00</time></trkpt><trkpt lat="43.108734" lon="19.12479"><ele>1452.1</ele><time>2012-05-01T12:09:59.0000000+00:00</time></trkpt><trkpt lat="43.108734" lon="19.12479"><ele>1452.1</ele><time>2012-05-01T12:10:04.0000000+00:00</time></trkpt><trkpt lat="43.108734" lon="19.124788"><ele>1452.1</ele><time>2012-05-01T12:10:09.0000000+00:00</time></trkpt><trkpt lat="43.108734" lon="19.124788"><ele>1452.1</ele><time>2012-05-01T12:10:14.0000000+00:00</time></trkpt><trkpt lat="43.108734" lon="19.124788"><ele>1452.1</ele><time>2012-05-01T12:10:19.0000000+00:00</time></trkpt><trkpt lat="43.108734" lon="19.124788"><ele>1452.1</ele><time>2012-05-01T12:10:24.0000000+00:00</time></trkpt><trkpt lat="43.108734" lon="19.124788"><ele>1452.1</ele><time>2012-05-01T12:10:29.0000000+00:00</time></trkpt><trkpt lat="43.108734" lon="19.124788"><ele>1452.2</ele><time>2012-05-01T12:10:34.0000000+00:00</time></trkpt><trkpt lat="43.108734" lon="19.124788"><ele>1452.2</ele><time>2012-05-01T12:10:39.0000000+00:00</time></trkpt><trkpt lat="43.108734" lon="19.124788"><ele>1452.3</ele><time>2012-05-01T12:10:44.0000000+00:00</time></trkpt><trkpt lat="43.108734" lon="19.124788"><ele>1452.3</ele><time>2012-05-01T12:10:49.0000000+00:00</time></trkpt><trkpt lat="43.108734" lon="19.124788"><ele>1452.3</ele><time>2012-05-01T12:10:54.0000000+00:00</time></trkpt><trkpt lat="43.108734" lon="19.124788"><ele>1452.3</ele><time>2012-05-01T12:10:59.0000000+00:00</time></trkpt><trkpt lat="43.10873" lon="19.124788"><ele>1452.3</ele><time>2012-05-01T12:11:04.0000000+00:00</time></trkpt><trkpt lat="43.10873" lon="19.124788"><ele>1452.3</ele><time>2012-05-01T12:11:09.0000000+00:00</time></trkpt><trkpt lat="43.10873" lon="19.124788"><ele>1452.3</ele><time>2012-05-01T12:11:14.0000000+00:00</time></trkpt><trkpt lat="43.10873" lon="19.124788"><ele>1452.3</ele><time>2012-05-01T12:11:19.0000000+00:00</time></trkpt><trkpt lat="43.10873" lon="19.124788"><ele>1452.3</ele><time>2012-05-01T12:11:24.0000000+00:00</time></trkpt><trkpt lat="43.108734" lon="19.124788"><ele>1452.3</ele><time>2012-05-01T12:11:29.0000000+00:00</time></trkpt><trkpt lat="43.108734" lon="19.124792"><ele>1452.2</ele><time>2012-05-01T12:11:34.0000000+00:00</time></trkpt><trkpt lat="43.108734" lon="19.124794"><ele>1452.1</ele><time>2012-05-01T12:11:39.0000000+00:00</time></trkpt><trkpt lat="43.108734" lon="19.124794"><ele>1452.1</ele><time>2012-05-01T12:11:44.0000000+00:00</time></trkpt><trkpt lat="43.108734" lon="19.124794"><ele>1452.1</ele><time>2012-05-01T12:11:49.0000000+00:00</time></trkpt><trkpt lat="43.108734" lon="19.124794"><ele>1452.1</ele><time>2012-05-01T12:11:54.0000000+00:00</time></trkpt><trkpt lat="43.108734" lon="19.124794"><ele>1452.1</ele><time>2012-05-01T12:11:59.0000000+00:00</time></trkpt><trkpt lat="43.108734" lon="19.124794"><ele>1452.1</ele><time>2012-05-01T12:12:04.0000000+00:00</time></trkpt><trkpt lat="43.108734" lon="19.124794"><ele>1452.1</ele><time>2012-05-01T12:12:09.0000000+00:00</time></trkpt><trkpt lat="43.108734" lon="19.124794"><ele>1452.1</ele><time>2012-05-01T12:12:14.0000000+00:00</time></trkpt><trkpt lat="43.108734" lon="19.124794"><ele>1452.0</ele><time>2012-05-01T12:12:19.0000000+00:00</time></trkpt><trkpt lat="43.108734" lon="19.124794"><ele>1452.0</ele><time>2012-05-01T12:12:24.0000000+00:00</time></trkpt><trkpt lat="43.108734" lon="19.124794"><ele>1452.0</ele><time>2012-05-01T12:12:29.0000000+00:00</time></trkpt><trkpt lat="43.108738" lon="19.124727"><ele>1452.3</ele><time>2012-05-01T12:12:34.0000000+00:00</time></trkpt><trkpt lat="43.108749" lon="19.124565"><ele>1452.5</ele><time>2012-05-01T12:12:39.0000000+00:00</time></trkpt><trkpt lat="43.108875" lon="19.124483"><ele>1453.3</ele><time>2012-05-01T12:12:44.0000000+00:00</time></trkpt><trkpt lat="43.108994" lon="19.124447"><ele>1454.5</ele><time>2012-05-01T12:12:49.0000000+00:00</time></trkpt><trkpt lat="43.109089" lon="19.124393"><ele>1455.1</ele><time>2012-05-01T12:12:54.0000000+00:00</time></trkpt><trkpt lat="43.109211" lon="19.124308"><ele>1455.6</ele><time>2012-05-01T12:12:59.0000000+00:00</time></trkpt><trkpt lat="43.109325" lon="19.124254"><ele>1455.9</ele><time>2012-05-01T12:13:04.0000000+00:00</time></trkpt><trkpt lat="43.10944" lon="19.124182"><ele>1457.1</ele><time>2012-05-01T12:13:09.0000000+00:00</time></trkpt><trkpt lat="43.109535" lon="19.124105"><ele>1457.4</ele><time>2012-05-01T12:13:14.0000000+00:00</time></trkpt><trkpt lat="43.109642" lon="19.12401"><ele>1458.0</ele><time>2012-05-01T12:13:19.0000000+00:00</time></trkpt><trkpt lat="43.109745" lon="19.123915"><ele>1458.5</ele><time>2012-05-01T12:13:24.0000000+00:00</time></trkpt><trkpt lat="43.10984" lon="19.123833"><ele>1459.2</ele><time>2012-05-01T12:13:29.0000000+00:00</time></trkpt><trkpt lat="43.109924" lon="19.123789"><ele>1459.7</ele><time>2012-05-01T12:13:34.0000000+00:00</time></trkpt><trkpt lat="43.110008" lon="19.123741"><ele>1462.0</ele><time>2012-05-01T12:13:39.0000000+00:00</time></trkpt><trkpt lat="43.110085" lon="19.123709"><ele>1463.4</ele><time>2012-05-01T12:13:44.0000000+00:00</time></trkpt><trkpt lat="43.110165" lon="19.123674"><ele>1467.0</ele><time>2012-05-01T12:13:49.0000000+00:00</time></trkpt><trkpt lat="43.110233" lon="19.123653"><ele>1470.4</ele><time>2012-05-01T12:13:54.0000000+00:00</time></trkpt><trkpt lat="43.110306" lon="19.123642"><ele>1473.1</ele><time>2012-05-01T12:13:59.0000000+00:00</time></trkpt><trkpt lat="43.110348" lon="19.123627"><ele>1477.1</ele><time>2012-05-01T12:14:04.0000000+00:00</time></trkpt><trkpt lat="43.110397" lon="19.123623"><ele>1478.8</ele><time>2012-05-01T12:14:09.0000000+00:00</time></trkpt><trkpt lat="43.110447" lon="19.12356"><ele>1479.3</ele><time>2012-05-01T12:14:14.0000000+00:00</time></trkpt><trkpt lat="43.1105" lon="19.123522"><ele>1480.4</ele><time>2012-05-01T12:14:19.0000000+00:00</time></trkpt><trkpt lat="43.110542" lon="19.123461"><ele>1482.6</ele><time>2012-05-01T12:14:24.0000000+00:00</time></trkpt><trkpt lat="43.110607" lon="19.12339"><ele>1484.2</ele><time>2012-05-01T12:14:29.0000000+00:00</time></trkpt><trkpt lat="43.110668" lon="19.123308"><ele>1483.2</ele><time>2012-05-01T12:14:34.0000000+00:00</time></trkpt><trkpt lat="43.110748" lon="19.123209"><ele>1481.7</ele><time>2012-05-01T12:14:39.0000000+00:00</time></trkpt><trkpt lat="43.110828" lon="19.123114"><ele>1480.5</ele><time>2012-05-01T12:14:44.0000000+00:00</time></trkpt><trkpt lat="43.110912" lon="19.123003"><ele>1480.4</ele><time>2012-05-01T12:14:49.0000000+00:00</time></trkpt><trkpt lat="43.110981" lon="19.122908"><ele>1480.2</ele><time>2012-05-01T12:14:54.0000000+00:00</time></trkpt><trkpt lat="43.111061" lon="19.122826"><ele>1480.8</ele><time>2012-05-01T12:14:59.0000000+00:00</time></trkpt><trkpt lat="43.111145" lon="19.122768"><ele>1481.5</ele><time>2012-05-01T12:15:04.0000000+00:00</time></trkpt><trkpt lat="43.111221" lon="19.122692"><ele>1482.3</ele><time>2012-05-01T12:15:09.0000000+00:00</time></trkpt><trkpt lat="43.111301" lon="19.122623"><ele>1483.1</ele><time>2012-05-01T12:15:14.0000000+00:00</time></trkpt><trkpt lat="43.111382" lon="19.122568"><ele>1484.6</ele><time>2012-05-01T12:15:19.0000000+00:00</time></trkpt><trkpt lat="43.111454" lon="19.122496"><ele>1485.3</ele><time>2012-05-01T12:15:24.0000000+00:00</time></trkpt><trkpt lat="43.111526" lon="19.122446"><ele>1485.9</ele><time>2012-05-01T12:15:29.0000000+00:00</time></trkpt><trkpt lat="43.111607" lon="19.122402"><ele>1485.8</ele><time>2012-05-01T12:15:34.0000000+00:00</time></trkpt><trkpt lat="43.111671" lon="19.122343"><ele>1485.7</ele><time>2012-05-01T12:15:39.0000000+00:00</time></trkpt><trkpt lat="43.11171" lon="19.122292"><ele>1485.7</ele><time>2012-05-01T12:15:44.0000000+00:00</time></trkpt><trkpt lat="43.111736" lon="19.122267"><ele>1484.9</ele><time>2012-05-01T12:15:49.0000000+00:00</time></trkpt><trkpt lat="43.111763" lon="19.122253"><ele>1484.3</ele><time>2012-05-01T12:15:54.0000000+00:00</time></trkpt><trkpt lat="43.111786" lon="19.122231"><ele>1483.2</ele><time>2012-05-01T12:15:59.0000000+00:00</time></trkpt><trkpt lat="43.111835" lon="19.122154"><ele>1482.8</ele><time>2012-05-01T12:16:04.0000000+00:00</time></trkpt><trkpt lat="43.111961" lon="19.12199"><ele>1481.5</ele><time>2012-05-01T12:16:09.0000000+00:00</time></trkpt><trkpt lat="43.112061" lon="19.121847"><ele>1484.8</ele><time>2012-05-01T12:16:14.0000000+00:00</time></trkpt><trkpt lat="43.112156" lon="19.121759"><ele>1485.1</ele><time>2012-05-01T12:16:19.0000000+00:00</time></trkpt><trkpt lat="43.112259" lon="19.121664"><ele>1483.9</ele><time>2012-05-01T12:16:24.0000000+00:00</time></trkpt><trkpt lat="43.112328" lon="19.121548"><ele>1483.2</ele><time>2012-05-01T12:16:29.0000000+00:00</time></trkpt><trkpt lat="43.112385" lon="19.121464"><ele>1485.8</ele><time>2012-05-01T12:16:34.0000000+00:00</time></trkpt><trkpt lat="43.112446" lon="19.121401"><ele>1487.8</ele><time>2012-05-01T12:16:39.0000000+00:00</time></trkpt><trkpt lat="43.112495" lon="19.121338"><ele>1488.9</ele><time>2012-05-01T12:16:44.0000000+00:00</time></trkpt><trkpt lat="43.11253" lon="19.121304"><ele>1490.5</ele><time>2012-05-01T12:16:49.0000000+00:00</time></trkpt><trkpt lat="43.112541" lon="19.121283"><ele>1489.4</ele><time>2012-05-01T12:16:54.0000000+00:00</time></trkpt><trkpt lat="43.112553" lon="19.121239"><ele>1489.0</ele><time>2012-05-01T12:16:59.0000000+00:00</time></trkpt><trkpt lat="43.112583" lon="19.121187"><ele>1487.8</ele><time>2012-05-01T12:17:04.0000000+00:00</time></trkpt><trkpt lat="43.11264" lon="19.121174"><ele>1486.9</ele><time>2012-05-01T12:17:09.0000000+00:00</time></trkpt><trkpt lat="43.11274" lon="19.12112"><ele>1487.2</ele><time>2012-05-01T12:17:14.0000000+00:00</time></trkpt><trkpt lat="43.112835" lon="19.121033"><ele>1486.4</ele><time>2012-05-01T12:17:19.0000000+00:00</time></trkpt><trkpt lat="43.112919" lon="19.120949"><ele>1486.3</ele><time>2012-05-01T12:17:24.0000000+00:00</time></trkpt><trkpt lat="43.112976" lon="19.12084"><ele>1488.7</ele><time>2012-05-01T12:17:29.0000000+00:00</time></trkpt><trkpt lat="43.113064" lon="19.120729"><ele>1488.7</ele><time>2012-05-01T12:17:34.0000000+00:00</time></trkpt><trkpt lat="43.113113" lon="19.120644"><ele>1488.3</ele><time>2012-05-01T12:17:39.0000000+00:00</time></trkpt><trkpt lat="43.113152" lon="19.120529"><ele>1487.9</ele><time>2012-05-01T12:17:44.0000000+00:00</time></trkpt><trkpt lat="43.113174" lon="19.120337"><ele>1488.0</ele><time>2012-05-01T12:17:49.0000000+00:00</time></trkpt><trkpt lat="43.113194" lon="19.120132"><ele>1487.7</ele><time>2012-05-01T12:17:54.0000000+00:00</time></trkpt><trkpt lat="43.113201" lon="19.119919"><ele>1486.8</ele><time>2012-05-01T12:17:59.0000000+00:00</time></trkpt><trkpt lat="43.11322" lon="19.119707"><ele>1486.0</ele><time>2012-05-01T12:18:04.0000000+00:00</time></trkpt><trkpt lat="43.113251" lon="19.119457"><ele>1485.9</ele><time>2012-05-01T12:18:09.0000000+00:00</time></trkpt><trkpt lat="43.113297" lon="19.119219"><ele>1485.3</ele><time>2012-05-01T12:18:14.0000000+00:00</time></trkpt><trkpt lat="43.113419" lon="19.119057"><ele>1486.5</ele><time>2012-05-01T12:18:19.0000000+00:00</time></trkpt><trkpt lat="43.113548" lon="19.118891"><ele>1488.1</ele><time>2012-05-01T12:18:24.0000000+00:00</time></trkpt><trkpt lat="43.113647" lon="19.118685"><ele>1488.1</ele><time>2012-05-01T12:18:29.0000000+00:00</time></trkpt><trkpt lat="43.113701" lon="19.118576"><ele>1488.0</ele><time>2012-05-01T12:18:34.0000000+00:00</time></trkpt><trkpt lat="43.11375" lon="19.118504"><ele>1486.9</ele><time>2012-05-01T12:18:39.0000000+00:00</time></trkpt><trkpt lat="43.113789" lon="19.118456"><ele>1486.4</ele><time>2012-05-01T12:18:44.0000000+00:00</time></trkpt><trkpt lat="43.113796" lon="19.118404"><ele>1487.1</ele><time>2012-05-01T12:18:49.0000000+00:00</time></trkpt><trkpt lat="43.1138" lon="19.118391"><ele>1487.3</ele><time>2012-05-01T12:18:54.0000000+00:00</time></trkpt><trkpt lat="43.113796" lon="19.118391"><ele>1487.4</ele><time>2012-05-01T12:18:59.0000000+00:00</time></trkpt><trkpt lat="43.113796" lon="19.118391"><ele>1487.5</ele><time>2012-05-01T12:19:04.0000000+00:00</time></trkpt><trkpt lat="43.1138" lon="19.11838"><ele>1487.5</ele><time>2012-05-01T12:19:09.0000000+00:00</time></trkpt><trkpt lat="43.113804" lon="19.118357"><ele>1487.5</ele><time>2012-05-01T12:19:14.0000000+00:00</time></trkpt><trkpt lat="43.113804" lon="19.118351"><ele>1487.6</ele><time>2012-05-01T12:19:19.0000000+00:00</time></trkpt><trkpt lat="43.113804" lon="19.118351"><ele>1487.7</ele><time>2012-05-01T12:19:24.0000000+00:00</time></trkpt><trkpt lat="43.113804" lon="19.118353"><ele>1487.9</ele><time>2012-05-01T12:19:29.0000000+00:00</time></trkpt><trkpt lat="43.1138" lon="19.118353"><ele>1488.0</ele><time>2012-05-01T12:19:34.0000000+00:00</time></trkpt><trkpt lat="43.1138" lon="19.118353"><ele>1488.0</ele><time>2012-05-01T12:19:39.0000000+00:00</time></trkpt><trkpt lat="43.1138" lon="19.118353"><ele>1488.0</ele><time>2012-05-01T12:19:44.0000000+00:00</time></trkpt><trkpt lat="43.1138" lon="19.118353"><ele>1488.0</ele><time>2012-05-01T12:19:49.0000000+00:00</time></trkpt><trkpt lat="43.1138" lon="19.118353"><ele>1488.0</ele><time>2012-05-01T12:19:54.0000000+00:00</time></trkpt><trkpt lat="43.1138" lon="19.118353"><ele>1488.0</ele><time>2012-05-01T12:19:59.0000000+00:00</time></trkpt><trkpt lat="43.1138" lon="19.118353"><ele>1488.0</ele><time>2012-05-01T12:20:04.0000000+00:00</time></trkpt><trkpt lat="43.1138" lon="19.118353"><ele>1488.1</ele><time>2012-05-01T12:20:09.0000000+00:00</time></trkpt><trkpt lat="43.1138" lon="19.118353"><ele>1488.1</ele><time>2012-05-01T12:20:14.0000000+00:00</time></trkpt><trkpt lat="43.1138" lon="19.118353"><ele>1488.1</ele><time>2012-05-01T12:20:19.0000000+00:00</time></trkpt><trkpt lat="43.1138" lon="19.118353"><ele>1488.2</ele><time>2012-05-01T12:20:24.0000000+00:00</time></trkpt><trkpt lat="43.1138" lon="19.118353"><ele>1488.2</ele><time>2012-05-01T12:20:29.0000000+00:00</time></trkpt><trkpt lat="43.1138" lon="19.118353"><ele>1488.3</ele><time>2012-05-01T12:20:34.0000000+00:00</time></trkpt><trkpt lat="43.11385" lon="19.118322"><ele>1488.9</ele><time>2012-05-01T12:20:39.0000000+00:00</time></trkpt><trkpt lat="43.11401" lon="19.1182"><ele>1488.4</ele><time>2012-05-01T12:20:44.0000000+00:00</time></trkpt><trkpt lat="43.114277" lon="19.118061"><ele>1487.4</ele><time>2012-05-01T12:20:49.0000000+00:00</time></trkpt><trkpt lat="43.114563" lon="19.117783"><ele>1483.2</ele><time>2012-05-01T12:20:54.0000000+00:00</time></trkpt><trkpt lat="43.114788" lon="19.117546"><ele>1483.4</ele><time>2012-05-01T12:20:59.0000000+00:00</time></trkpt><trkpt lat="43.114986" lon="19.117392"><ele>1485.0</ele><time>2012-05-01T12:21:04.0000000+00:00</time></trkpt><trkpt lat="43.115147" lon="19.117279"><ele>1486.4</ele><time>2012-05-01T12:21:09.0000000+00:00</time></trkpt><trkpt lat="43.115299" lon="19.117134"><ele>1487.4</ele><time>2012-05-01T12:21:14.0000000+00:00</time></trkpt><trkpt lat="43.115421" lon="19.116999"><ele>1488.4</ele><time>2012-05-01T12:21:19.0000000+00:00</time></trkpt><trkpt lat="43.115513" lon="19.116879"><ele>1490.0</ele><time>2012-05-01T12:21:24.0000000+00:00</time></trkpt><trkpt lat="43.115601" lon="19.116747"><ele>1491.1</ele><time>2012-05-01T12:21:29.0000000+00:00</time></trkpt><trkpt lat="43.115685" lon="19.116627"><ele>1492.2</ele><time>2012-05-01T12:21:34.0000000+00:00</time></trkpt><trkpt lat="43.115772" lon="19.116512"><ele>1493.5</ele><time>2012-05-01T12:21:39.0000000+00:00</time></trkpt><trkpt lat="43.115829" lon="19.116386"><ele>1495.4</ele><time>2012-05-01T12:21:44.0000000+00:00</time></trkpt><trkpt lat="43.115879" lon="19.116272"><ele>1496.2</ele><time>2012-05-01T12:21:49.0000000+00:00</time></trkpt><trkpt lat="43.115917" lon="19.116154"><ele>1497.0</ele><time>2012-05-01T12:21:54.0000000+00:00</time></trkpt><trkpt lat="43.115948" lon="19.116064"><ele>1496.8</ele><time>2012-05-01T12:21:59.0000000+00:00</time></trkpt><trkpt lat="43.115993" lon="19.115936"><ele>1495.0</ele><time>2012-05-01T12:22:04.0000000+00:00</time></trkpt><trkpt lat="43.116039" lon="19.1157"><ele>1493.0</ele><time>2012-05-01T12:22:09.0000000+00:00</time></trkpt><trkpt lat="43.116074" lon="19.115248"><ele>1489.2</ele><time>2012-05-01T12:22:14.0000000+00:00</time></trkpt><trkpt lat="43.116119" lon="19.114635"><ele>1486.5</ele><time>2012-05-01T12:22:19.0000000+00:00</time></trkpt><trkpt lat="43.116337" lon="19.1141"><ele>1484.4</ele><time>2012-05-01T12:22:24.0000000+00:00</time></trkpt><trkpt lat="43.116703" lon="19.113756"><ele>1483.7</ele><time>2012-05-01T12:22:29.0000000+00:00</time></trkpt><trkpt lat="43.117043" lon="19.113573"><ele>1483.6</ele><time>2012-05-01T12:22:34.0000000+00:00</time></trkpt><trkpt lat="43.117237" lon="19.113403"><ele>1486.5</ele><time>2012-05-01T12:22:39.0000000+00:00</time></trkpt><trkpt lat="43.117363" lon="19.113245"><ele>1486.8</ele><time>2012-05-01T12:22:44.0000000+00:00</time></trkpt><trkpt lat="43.117455" lon="19.113142"><ele>1485.9</ele><time>2012-05-01T12:22:49.0000000+00:00</time></trkpt><trkpt lat="43.117531" lon="19.113077"><ele>1485.6</ele><time>2012-05-01T12:22:54.0000000+00:00</time></trkpt><trkpt lat="43.117599" lon="19.11301"><ele>1485.9</ele><time>2012-05-01T12:22:59.0000000+00:00</time></trkpt><trkpt lat="43.117672" lon="19.112911"><ele>1488.0</ele><time>2012-05-01T12:23:04.0000000+00:00</time></trkpt><trkpt lat="43.117725" lon="19.112818"><ele>1489.1</ele><time>2012-05-01T12:23:09.0000000+00:00</time></trkpt><trkpt lat="43.117775" lon="19.112719"><ele>1491.4</ele><time>2012-05-01T12:23:14.0000000+00:00</time></trkpt><trkpt lat="43.117825" lon="19.112583"><ele>1492.9</ele><time>2012-05-01T12:23:19.0000000+00:00</time></trkpt><trkpt lat="43.117874" lon="19.112465"><ele>1495.8</ele><time>2012-05-01T12:23:24.0000000+00:00</time></trkpt><trkpt lat="43.117981" lon="19.112347"><ele>1496.1</ele><time>2012-05-01T12:23:29.0000000+00:00</time></trkpt><trkpt lat="43.118111" lon="19.112242"><ele>1498.3</ele><time>2012-05-01T12:23:34.0000000+00:00</time></trkpt><trkpt lat="43.11821" lon="19.112141"><ele>1501.9</ele><time>2012-05-01T12:23:39.0000000+00:00</time></trkpt><trkpt lat="43.118324" lon="19.112024"><ele>1501.0</ele><time>2012-05-01T12:23:44.0000000+00:00</time></trkpt><trkpt lat="43.118423" lon="19.11191"><ele>1501.2</ele><time>2012-05-01T12:23:49.0000000+00:00</time></trkpt><trkpt lat="43.118523" lon="19.11179"><ele>1497.9</ele><time>2012-05-01T12:23:54.0000000+00:00</time></trkpt><trkpt lat="43.118656" lon="19.111654"><ele>1497.8</ele><time>2012-05-01T12:23:59.0000000+00:00</time></trkpt><trkpt lat="43.118778" lon="19.111509"><ele>1497.4</ele><time>2012-05-01T12:24:04.0000000+00:00</time></trkpt><trkpt lat="43.11887" lon="19.111355"><ele>1498.1</ele><time>2012-05-01T12:24:09.0000000+00:00</time></trkpt><trkpt lat="43.118938" lon="19.111221"><ele>1499.0</ele><time>2012-05-01T12:24:14.0000000+00:00</time></trkpt><trkpt lat="43.119034" lon="19.111055"><ele>1498.7</ele><time>2012-05-01T12:24:19.0000000+00:00</time></trkpt><trkpt lat="43.119118" lon="19.11092"><ele>1498.6</ele><time>2012-05-01T12:24:24.0000000+00:00</time></trkpt><trkpt lat="43.119205" lon="19.110786"><ele>1497.8</ele><time>2012-05-01T12:24:29.0000000+00:00</time></trkpt><trkpt lat="43.119267" lon="19.110645"><ele>1497.9</ele><time>2012-05-01T12:24:34.0000000+00:00</time></trkpt><trkpt lat="43.119324" lon="19.110525"><ele>1498.2</ele><time>2012-05-01T12:24:39.0000000+00:00</time></trkpt><trkpt lat="43.119377" lon="19.11043"><ele>1497.8</ele><time>2012-05-01T12:24:44.0000000+00:00</time></trkpt><trkpt lat="43.119442" lon="19.110321"><ele>1498.2</ele><time>2012-05-01T12:24:49.0000000+00:00</time></trkpt><trkpt lat="43.119514" lon="19.110228"><ele>1497.9</ele><time>2012-05-01T12:24:54.0000000+00:00</time></trkpt><trkpt lat="43.119595" lon="19.110085"><ele>1497.9</ele><time>2012-05-01T12:24:59.0000000+00:00</time></trkpt><trkpt lat="43.119663" lon="19.109953"><ele>1497.0</ele><time>2012-05-01T12:25:04.0000000+00:00</time></trkpt><trkpt lat="43.119713" lon="19.109903"><ele>1498.8</ele><time>2012-05-01T12:25:09.0000000+00:00</time></trkpt><trkpt lat="43.119781" lon="19.109818"><ele>1499.5</ele><time>2012-05-01T12:25:14.0000000+00:00</time></trkpt><trkpt lat="43.119858" lon="19.10977"><ele>1500.6</ele><time>2012-05-01T12:25:19.0000000+00:00</time></trkpt><trkpt lat="43.11993" lon="19.109747"><ele>1502.0</ele><time>2012-05-01T12:25:24.0000000+00:00</time></trkpt><trkpt lat="43.119991" lon="19.109713"><ele>1502.9</ele><time>2012-05-01T12:25:29.0000000+00:00</time></trkpt><trkpt lat="43.120075" lon="19.109697"><ele>1504.2</ele><time>2012-05-01T12:25:34.0000000+00:00</time></trkpt><trkpt lat="43.120152" lon="19.109636"><ele>1505.1</ele><time>2012-05-01T12:25:39.0000000+00:00</time></trkpt><trkpt lat="43.120228" lon="19.109606"><ele>1507.0</ele><time>2012-05-01T12:25:44.0000000+00:00</time></trkpt><trkpt lat="43.1203" lon="19.109571"><ele>1508.5</ele><time>2012-05-01T12:25:49.0000000+00:00</time></trkpt><trkpt lat="43.120365" lon="19.109571"><ele>1510.6</ele><time>2012-05-01T12:25:54.0000000+00:00</time></trkpt><trkpt lat="43.120434" lon="19.109552"><ele>1511.6</ele><time>2012-05-01T12:25:59.0000000+00:00</time></trkpt><trkpt lat="43.12051" lon="19.109522"><ele>1512.4</ele><time>2012-05-01T12:26:04.0000000+00:00</time></trkpt><trkpt lat="43.12059" lon="19.109491"><ele>1512.8</ele><time>2012-05-01T12:26:09.0000000+00:00</time></trkpt><trkpt lat="43.120678" lon="19.109455"><ele>1512.9</ele><time>2012-05-01T12:26:14.0000000+00:00</time></trkpt><trkpt lat="43.120762" lon="19.109411"><ele>1513.5</ele><time>2012-05-01T12:26:19.0000000+00:00</time></trkpt><trkpt lat="43.120842" lon="19.109386"><ele>1515.1</ele><time>2012-05-01T12:26:24.0000000+00:00</time></trkpt><trkpt lat="43.120903" lon="19.109377"><ele>1515.9</ele><time>2012-05-01T12:26:29.0000000+00:00</time></trkpt><trkpt lat="43.120991" lon="19.109331"><ele>1515.2</ele><time>2012-05-01T12:26:34.0000000+00:00</time></trkpt><trkpt lat="43.121071" lon="19.109304"><ele>1515.6</ele><time>2012-05-01T12:26:39.0000000+00:00</time></trkpt><trkpt lat="43.121128" lon="19.109331"><ele>1519.4</ele><time>2012-05-01T12:26:44.0000000+00:00</time></trkpt><trkpt lat="43.121212" lon="19.109306"><ele>1520.5</ele><time>2012-05-01T12:26:49.0000000+00:00</time></trkpt><trkpt lat="43.121292" lon="19.109295"><ele>1521.2</ele><time>2012-05-01T12:26:54.0000000+00:00</time></trkpt><trkpt lat="43.121368" lon="19.109266"><ele>1521.6</ele><time>2012-05-01T12:26:59.0000000+00:00</time></trkpt><trkpt lat="43.121441" lon="19.109249"><ele>1522.3</ele><time>2012-05-01T12:27:04.0000000+00:00</time></trkpt><trkpt lat="43.12149" lon="19.109243"><ele>1522.2</ele><time>2012-05-01T12:27:09.0000000+00:00</time></trkpt><trkpt lat="43.12149" lon="19.10924"><ele>1521.9</ele><time>2012-05-01T12:27:14.0000000+00:00</time></trkpt><trkpt lat="43.12149" lon="19.109241"><ele>1522.0</ele><time>2012-05-01T12:27:19.0000000+00:00</time></trkpt><trkpt lat="43.12149" lon="19.109241"><ele>1522.0</ele><time>2012-05-01T12:27:24.0000000+00:00</time></trkpt><trkpt lat="43.121487" lon="19.109243"><ele>1522.0</ele><time>2012-05-01T12:27:29.0000000+00:00</time></trkpt><trkpt lat="43.12149" lon="19.109243"><ele>1522.0</ele><time>2012-05-01T12:27:34.0000000+00:00</time></trkpt><trkpt lat="43.12149" lon="19.109243"><ele>1521.9</ele><time>2012-05-01T12:27:39.0000000+00:00</time></trkpt><trkpt lat="43.12149" lon="19.109243"><ele>1521.9</ele><time>2012-05-01T12:27:44.0000000+00:00</time></trkpt><trkpt lat="43.12149" lon="19.109243"><ele>1521.9</ele><time>2012-05-01T12:27:49.0000000+00:00</time></trkpt><trkpt lat="43.12149" lon="19.109243"><ele>1521.9</ele><time>2012-05-01T12:27:54.0000000+00:00</time></trkpt><trkpt lat="43.12149" lon="19.109243"><ele>1522.0</ele><time>2012-05-01T12:27:59.0000000+00:00</time></trkpt><trkpt lat="43.12149" lon="19.109243"><ele>1522.0</ele><time>2012-05-01T12:28:04.0000000+00:00</time></trkpt><trkpt lat="43.12149" lon="19.109243"><ele>1522.0</ele><time>2012-05-01T12:28:09.0000000+00:00</time></trkpt><trkpt lat="43.12149" lon="19.109243"><ele>1522.0</ele><time>2012-05-01T12:28:14.0000000+00:00</time></trkpt><trkpt lat="43.12149" lon="19.109243"><ele>1522.0</ele><time>2012-05-01T12:28:19.0000000+00:00</time></trkpt><trkpt lat="43.12149" lon="19.109243"><ele>1521.9</ele><time>2012-05-01T12:28:24.0000000+00:00</time></trkpt><trkpt lat="43.12149" lon="19.109243"><ele>1522.0</ele><time>2012-05-01T12:28:29.0000000+00:00</time></trkpt><trkpt lat="43.12149" lon="19.109243"><ele>1521.9</ele><time>2012-05-01T12:28:34.0000000+00:00</time></trkpt><trkpt lat="43.12149" lon="19.109243"><ele>1521.9</ele><time>2012-05-01T12:28:39.0000000+00:00</time></trkpt><trkpt lat="43.121502" lon="19.10924"><ele>1521.9</ele><time>2012-05-01T12:28:44.0000000+00:00</time></trkpt><trkpt lat="43.121555" lon="19.109148"><ele>1522.2</ele><time>2012-05-01T12:28:49.0000000+00:00</time></trkpt><trkpt lat="43.121529" lon="19.109058"><ele>1521.5</ele><time>2012-05-01T12:28:54.0000000+00:00</time></trkpt><trkpt lat="43.121521" lon="19.108997"><ele>1521.3</ele><time>2012-05-01T12:28:59.0000000+00:00</time></trkpt><trkpt lat="43.121521" lon="19.108995"><ele>1520.5</ele><time>2012-05-01T12:29:04.0000000+00:00</time></trkpt><trkpt lat="43.121517" lon="19.108997"><ele>1520.5</ele><time>2012-05-01T12:29:09.0000000+00:00</time></trkpt><trkpt lat="43.121517" lon="19.108992"><ele>1520.4</ele><time>2012-05-01T12:29:14.0000000+00:00</time></trkpt><trkpt lat="43.121475" lon="19.108946"><ele>1520.7</ele><time>2012-05-01T12:29:19.0000000+00:00</time></trkpt><trkpt lat="43.121468" lon="19.108934"><ele>1520.7</ele><time>2012-05-01T12:29:24.0000000+00:00</time></trkpt><trkpt lat="43.121468" lon="19.108934"><ele>1520.5</ele><time>2012-05-01T12:29:29.0000000+00:00</time></trkpt><trkpt lat="43.121468" lon="19.108932"><ele>1520.4</ele><time>2012-05-01T12:29:34.0000000+00:00</time></trkpt><trkpt lat="43.121468" lon="19.108931"><ele>1520.2</ele><time>2012-05-01T12:29:39.0000000+00:00</time></trkpt><trkpt lat="43.121468" lon="19.108931"><ele>1520.2</ele><time>2012-05-01T12:29:44.0000000+00:00</time></trkpt><trkpt lat="43.121468" lon="19.108931"><ele>1520.1</ele><time>2012-05-01T12:29:49.0000000+00:00</time></trkpt><trkpt lat="43.121468" lon="19.108931"><ele>1520.1</ele><time>2012-05-01T12:29:54.0000000+00:00</time></trkpt><trkpt lat="43.121468" lon="19.108931"><ele>1520.1</ele><time>2012-05-01T12:29:59.0000000+00:00</time></trkpt><trkpt lat="43.121468" lon="19.108931"><ele>1520.1</ele><time>2012-05-01T12:30:04.0000000+00:00</time></trkpt><trkpt lat="43.121468" lon="19.108931"><ele>1520.1</ele><time>2012-05-01T12:30:09.0000000+00:00</time></trkpt><trkpt lat="43.121456" lon="19.108925"><ele>1520.0</ele><time>2012-05-01T12:30:14.0000000+00:00</time></trkpt><trkpt lat="43.121334" lon="19.108879"><ele>1518.2</ele><time>2012-05-01T12:30:19.0000000+00:00</time></trkpt><trkpt lat="43.121208" lon="19.108828"><ele>1518.5</ele><time>2012-05-01T12:30:24.0000000+00:00</time></trkpt><trkpt lat="43.121075" lon="19.108753"><ele>1519.1</ele><time>2012-05-01T12:30:29.0000000+00:00</time></trkpt><trkpt lat="43.120937" lon="19.108702"><ele>1520.5</ele><time>2012-05-01T12:30:34.0000000+00:00</time></trkpt><trkpt lat="43.120804" lon="19.10865"><ele>1521.8</ele><time>2012-05-01T12:30:39.0000000+00:00</time></trkpt><trkpt lat="43.120693" lon="19.108538"><ele>1523.2</ele><time>2012-05-01T12:30:44.0000000+00:00</time></trkpt><trkpt lat="43.120686" lon="19.10833"><ele>1524.6</ele><time>2012-05-01T12:30:49.0000000+00:00</time></trkpt><trkpt lat="43.120705" lon="19.108149"><ele>1525.4</ele><time>2012-05-01T12:30:54.0000000+00:00</time></trkpt><trkpt lat="43.120705" lon="19.107975"><ele>1525.7</ele><time>2012-05-01T12:30:59.0000000+00:00</time></trkpt><trkpt lat="43.120724" lon="19.107729"><ele>1525.1</ele><time>2012-05-01T12:31:04.0000000+00:00</time></trkpt><trkpt lat="43.120861" lon="19.107473"><ele>1524.1</ele><time>2012-05-01T12:31:09.0000000+00:00</time></trkpt><trkpt lat="43.121124" lon="19.107279"><ele>1522.8</ele><time>2012-05-01T12:31:14.0000000+00:00</time></trkpt><trkpt lat="43.121376" lon="19.107136"><ele>1522.4</ele><time>2012-05-01T12:31:19.0000000+00:00</time></trkpt><trkpt lat="43.121605" lon="19.107092"><ele>1522.0</ele><time>2012-05-01T12:31:24.0000000+00:00</time></trkpt><trkpt lat="43.121811" lon="19.106974"><ele>1521.0</ele><time>2012-05-01T12:31:29.0000000+00:00</time></trkpt><trkpt lat="43.121986" lon="19.1066"><ele>1519.8</ele><time>2012-05-01T12:31:34.0000000+00:00</time></trkpt><trkpt lat="43.122192" lon="19.106234"><ele>1518.0</ele><time>2012-05-01T12:31:39.0000000+00:00</time></trkpt><trkpt lat="43.122421" lon="19.105804"><ele>1516.1</ele><time>2012-05-01T12:31:44.0000000+00:00</time></trkpt><trkpt lat="43.122604" lon="19.105448"><ele>1516.9</ele><time>2012-05-01T12:31:49.0000000+00:00</time></trkpt><trkpt lat="43.122696" lon="19.104958"><ele>1514.3</ele><time>2012-05-01T12:31:54.0000000+00:00</time></trkpt><trkpt lat="43.122818" lon="19.104507"><ele>1514.7</ele><time>2012-05-01T12:31:59.0000000+00:00</time></trkpt><trkpt lat="43.122887" lon="19.104172"><ele>1514.8</ele><time>2012-05-01T12:32:04.0000000+00:00</time></trkpt><trkpt lat="43.12294" lon="19.103924"><ele>1514.8</ele><time>2012-05-01T12:32:09.0000000+00:00</time></trkpt><trkpt lat="43.123035" lon="19.103746"><ele>1514.5</ele><time>2012-05-01T12:32:14.0000000+00:00</time></trkpt><trkpt lat="43.123161" lon="19.103598"><ele>1515.1</ele><time>2012-05-01T12:32:19.0000000+00:00</time></trkpt><trkpt lat="43.123241" lon="19.103464"><ele>1515.4</ele><time>2012-05-01T12:32:24.0000000+00:00</time></trkpt><trkpt lat="43.123287" lon="19.103394"><ele>1515.1</ele><time>2012-05-01T12:32:29.0000000+00:00</time></trkpt><trkpt lat="43.12331" lon="19.103359"><ele>1516.1</ele><time>2012-05-01T12:32:34.0000000+00:00</time></trkpt><trkpt lat="43.123375" lon="19.103302"><ele>1517.1</ele><time>2012-05-01T12:32:39.0000000+00:00</time></trkpt><trkpt lat="43.123436" lon="19.103193"><ele>1517.8</ele><time>2012-05-01T12:32:44.0000000+00:00</time></trkpt><trkpt lat="43.123478" lon="19.103092"><ele>1519.5</ele><time>2012-05-01T12:32:49.0000000+00:00</time></trkpt><trkpt lat="43.123539" lon="19.102961"><ele>1521.0</ele><time>2012-05-01T12:32:54.0000000+00:00</time></trkpt><trkpt lat="43.123589" lon="19.102819"><ele>1521.8</ele><time>2012-05-01T12:32:59.0000000+00:00</time></trkpt><trkpt lat="43.123604" lon="19.102724"><ele>1523.3</ele><time>2012-05-01T12:33:04.0000000+00:00</time></trkpt><trkpt lat="43.123608" lon="19.102615"><ele>1525.1</ele><time>2012-05-01T12:33:09.0000000+00:00</time></trkpt><trkpt lat="43.123615" lon="19.10252"><ele>1527.0</ele><time>2012-05-01T12:33:14.0000000+00:00</time></trkpt><trkpt lat="43.123631" lon="19.102449"><ele>1528.2</ele><time>2012-05-01T12:33:19.0000000+00:00</time></trkpt><trkpt lat="43.123657" lon="19.102388"><ele>1531.6</ele><time>2012-05-01T12:33:24.0000000+00:00</time></trkpt><trkpt lat="43.123676" lon="19.102282"><ele>1533.4</ele><time>2012-05-01T12:33:29.0000000+00:00</time></trkpt><trkpt lat="43.123726" lon="19.102201"><ele>1533.8</ele><time>2012-05-01T12:33:34.0000000+00:00</time></trkpt><trkpt lat="43.123775" lon="19.102123"><ele>1535.3</ele><time>2012-05-01T12:33:39.0000000+00:00</time></trkpt><trkpt lat="43.12381" lon="19.102043"><ele>1535.1</ele><time>2012-05-01T12:33:44.0000000+00:00</time></trkpt><trkpt lat="43.123821" lon="19.101952"><ele>1535.4</ele><time>2012-05-01T12:33:49.0000000+00:00</time></trkpt><trkpt lat="43.123837" lon="19.101868"><ele>1537.4</ele><time>2012-05-01T12:33:54.0000000+00:00</time></trkpt><trkpt lat="43.123837" lon="19.101852"><ele>1537.3</ele><time>2012-05-01T12:33:59.0000000+00:00</time></trkpt><trkpt lat="43.12384" lon="19.101849"><ele>1537.5</ele><time>2012-05-01T12:34:04.0000000+00:00</time></trkpt><trkpt lat="43.123859" lon="19.101814"><ele>1537.5</ele><time>2012-05-01T12:34:09.0000000+00:00</time></trkpt><trkpt lat="43.123878" lon="19.101772"><ele>1539.3</ele><time>2012-05-01T12:34:14.0000000+00:00</time></trkpt><trkpt lat="43.123875" lon="19.101772"><ele>1547.1</ele><time>2012-05-01T12:34:19.0000000+00:00</time></trkpt><trkpt lat="43.12389" lon="19.10174"><ele>1550.4</ele><time>2012-05-01T12:34:24.0000000+00:00</time></trkpt><trkpt lat="43.123913" lon="19.101707"><ele>1551.9</ele><time>2012-05-01T12:34:29.0000000+00:00</time></trkpt><trkpt lat="43.123962" lon="19.101681"><ele>1552.0</ele><time>2012-05-01T12:34:34.0000000+00:00</time></trkpt><trkpt lat="43.123989" lon="19.101664"><ele>1551.5</ele><time>2012-05-01T12:34:39.0000000+00:00</time></trkpt><trkpt lat="43.12402" lon="19.101645"><ele>1552.5</ele><time>2012-05-01T12:34:44.0000000+00:00</time></trkpt><trkpt lat="43.124046" lon="19.101622"><ele>1554.3</ele><time>2012-05-01T12:34:49.0000000+00:00</time></trkpt><trkpt lat="43.124084" lon="19.10158"><ele>1553.5</ele><time>2012-05-01T12:34:54.0000000+00:00</time></trkpt><trkpt lat="43.124111" lon="19.101543"><ele>1555.0</ele><time>2012-05-01T12:34:59.0000000+00:00</time></trkpt><trkpt lat="43.124142" lon="19.101509"><ele>1556.4</ele><time>2012-05-01T12:35:04.0000000+00:00</time></trkpt><trkpt lat="43.124176" lon="19.101477"><ele>1556.0</ele><time>2012-05-01T12:35:09.0000000+00:00</time></trkpt><trkpt lat="43.12421" lon="19.101429"><ele>1556.2</ele><time>2012-05-01T12:35:14.0000000+00:00</time></trkpt><trkpt lat="43.124241" lon="19.101387"><ele>1557.0</ele><time>2012-05-01T12:35:19.0000000+00:00</time></trkpt><trkpt lat="43.124268" lon="19.101332"><ele>1557.3</ele><time>2012-05-01T12:35:24.0000000+00:00</time></trkpt><trkpt lat="43.124294" lon="19.101313"><ele>1558.2</ele><time>2012-05-01T12:35:29.0000000+00:00</time></trkpt><trkpt lat="43.124329" lon="19.101273"><ele>1558.9</ele><time>2012-05-01T12:35:34.0000000+00:00</time></trkpt><trkpt lat="43.124336" lon="19.1012"><ele>1558.7</ele><time>2012-05-01T12:35:39.0000000+00:00</time></trkpt><trkpt lat="43.124336" lon="19.10117"><ele>1557.8</ele><time>2012-05-01T12:35:44.0000000+00:00</time></trkpt><trkpt lat="43.124367" lon="19.101126"><ele>1557.2</ele><time>2012-05-01T12:35:49.0000000+00:00</time></trkpt><trkpt lat="43.12439" lon="19.101061"><ele>1556.9</ele><time>2012-05-01T12:35:54.0000000+00:00</time></trkpt><trkpt lat="43.124424" lon="19.101009"><ele>1556.8</ele><time>2012-05-01T12:35:59.0000000+00:00</time></trkpt><trkpt lat="43.124443" lon="19.100967"><ele>1557.2</ele><time>2012-05-01T12:36:04.0000000+00:00</time></trkpt><trkpt lat="43.124458" lon="19.10091"><ele>1558.1</ele><time>2012-05-01T12:36:09.0000000+00:00</time></trkpt><trkpt lat="43.12447" lon="19.100832"><ele>1557.9</ele><time>2012-05-01T12:36:14.0000000+00:00</time></trkpt><trkpt lat="43.12447" lon="19.100765"><ele>1557.7</ele><time>2012-05-01T12:36:19.0000000+00:00</time></trkpt><trkpt lat="43.124489" lon="19.100706"><ele>1557.3</ele><time>2012-05-01T12:36:24.0000000+00:00</time></trkpt><trkpt lat="43.124504" lon="19.100628"><ele>1556.1</ele><time>2012-05-01T12:36:29.0000000+00:00</time></trkpt><trkpt lat="43.124508" lon="19.100569"><ele>1554.1</ele><time>2012-05-01T12:36:34.0000000+00:00</time></trkpt><trkpt lat="43.124519" lon="19.10047"><ele>1552.6</ele><time>2012-05-01T12:36:39.0000000+00:00</time></trkpt><trkpt lat="43.124531" lon="19.100353"><ele>1550.4</ele><time>2012-05-01T12:36:44.0000000+00:00</time></trkpt><trkpt lat="43.124535" lon="19.10034"><ele>1548.3</ele><time>2012-05-01T12:36:49.0000000+00:00</time></trkpt><trkpt lat="43.124535" lon="19.10034"><ele>1548.2</ele><time>2012-05-01T12:36:54.0000000+00:00</time></trkpt><trkpt lat="43.124565" lon="19.100275"><ele>1547.6</ele><time>2012-05-01T12:36:59.0000000+00:00</time></trkpt><trkpt lat="43.124622" lon="19.100222"><ele>1546.0</ele><time>2012-05-01T12:37:04.0000000+00:00</time></trkpt><trkpt lat="43.124664" lon="19.100155"><ele>1545.0</ele><time>2012-05-01T12:37:09.0000000+00:00</time></trkpt><trkpt lat="43.124718" lon="19.100084"><ele>1543.6</ele><time>2012-05-01T12:37:14.0000000+00:00</time></trkpt><trkpt lat="43.124752" lon="19.099993"><ele>1542.6</ele><time>2012-05-01T12:37:19.0000000+00:00</time></trkpt><trkpt lat="43.124794" lon="19.099922"><ele>1542.2</ele><time>2012-05-01T12:37:24.0000000+00:00</time></trkpt><trkpt lat="43.124817" lon="19.099867"><ele>1541.8</ele><time>2012-05-01T12:37:29.0000000+00:00</time></trkpt><trkpt lat="43.124855" lon="19.099812"><ele>1540.7</ele><time>2012-05-01T12:37:34.0000000+00:00</time></trkpt><trkpt lat="43.124855" lon="19.099802"><ele>1540.6</ele><time>2012-05-01T12:37:39.0000000+00:00</time></trkpt><trkpt lat="43.124866" lon="19.099792"><ele>1540.3</ele><time>2012-05-01T12:37:44.0000000+00:00</time></trkpt><trkpt lat="43.124878" lon="19.099777"><ele>1541.4</ele><time>2012-05-01T12:37:49.0000000+00:00</time></trkpt><trkpt lat="43.124886" lon="19.099741"><ele>1542.6</ele><time>2012-05-01T12:37:54.0000000+00:00</time></trkpt><trkpt lat="43.124901" lon="19.099705"><ele>1543.5</ele><time>2012-05-01T12:37:59.0000000+00:00</time></trkpt><trkpt lat="43.124912" lon="19.099682"><ele>1546.4</ele><time>2012-05-01T12:38:04.0000000+00:00</time></trkpt><trkpt lat="43.124943" lon="19.099672"><ele>1547.1</ele><time>2012-05-01T12:38:09.0000000+00:00</time></trkpt><trkpt lat="43.124981" lon="19.099571"><ele>1545.5</ele><time>2012-05-01T12:38:14.0000000+00:00</time></trkpt><trkpt lat="43.125008" lon="19.099546"><ele>1544.0</ele><time>2012-05-01T12:38:19.0000000+00:00</time></trkpt><trkpt lat="43.125008" lon="19.099537"><ele>1543.4</ele><time>2012-05-01T12:38:24.0000000+00:00</time></trkpt><trkpt lat="43.125031" lon="19.099487"><ele>1543.2</ele><time>2012-05-01T12:38:29.0000000+00:00</time></trkpt><trkpt lat="43.125042" lon="19.099457"><ele>1544.4</ele><time>2012-05-01T12:38:34.0000000+00:00</time></trkpt><trkpt lat="43.125088" lon="19.099421"><ele>1544.2</ele><time>2012-05-01T12:38:39.0000000+00:00</time></trkpt><trkpt lat="43.125103" lon="19.099398"><ele>1545.6</ele><time>2012-05-01T12:38:44.0000000+00:00</time></trkpt><trkpt lat="43.125126" lon="19.099375"><ele>1546.1</ele><time>2012-05-01T12:38:49.0000000+00:00</time></trkpt><trkpt lat="43.125122" lon="19.099382"><ele>1546.1</ele><time>2012-05-01T12:38:54.0000000+00:00</time></trkpt><trkpt lat="43.125137" lon="19.09935"><ele>1547.2</ele><time>2012-05-01T12:38:59.0000000+00:00</time></trkpt><trkpt lat="43.125179" lon="19.09931"><ele>1547.6</ele><time>2012-05-01T12:39:04.0000000+00:00</time></trkpt><trkpt lat="43.12521" lon="19.099255"><ele>1546.8</ele><time>2012-05-01T12:39:09.0000000+00:00</time></trkpt><trkpt lat="43.125244" lon="19.099207"><ele>1547.9</ele><time>2012-05-01T12:39:14.0000000+00:00</time></trkpt><trkpt lat="43.125267" lon="19.099167"><ele>1549.5</ele><time>2012-05-01T12:39:19.0000000+00:00</time></trkpt><trkpt lat="43.12529" lon="19.099108"><ele>1549.8</ele><time>2012-05-01T12:39:24.0000000+00:00</time></trkpt><trkpt lat="43.125298" lon="19.099052"><ele>1549.8</ele><time>2012-05-01T12:39:29.0000000+00:00</time></trkpt><trkpt lat="43.125309" lon="19.099014"><ele>1550.5</ele><time>2012-05-01T12:39:34.0000000+00:00</time></trkpt><trkpt lat="43.125305" lon="19.098982"><ele>1550.8</ele><time>2012-05-01T12:39:39.0000000+00:00</time></trkpt><trkpt lat="43.125309" lon="19.098965"><ele>1551.5</ele><time>2012-05-01T12:39:44.0000000+00:00</time></trkpt><trkpt lat="43.125332" lon="19.098925"><ele>1552.0</ele><time>2012-05-01T12:39:49.0000000+00:00</time></trkpt><trkpt lat="43.125351" lon="19.098873"><ele>1552.6</ele><time>2012-05-01T12:39:54.0000000+00:00</time></trkpt><trkpt lat="43.125378" lon="19.098869"><ele>1552.4</ele><time>2012-05-01T12:39:59.0000000+00:00</time></trkpt><trkpt lat="43.125389" lon="19.098854"><ele>1552.2</ele><time>2012-05-01T12:40:04.0000000+00:00</time></trkpt><trkpt lat="43.125401" lon="19.09882"><ele>1552.4</ele><time>2012-05-01T12:40:09.0000000+00:00</time></trkpt><trkpt lat="43.12542" lon="19.098803"><ele>1552.5</ele><time>2012-05-01T12:40:14.0000000+00:00</time></trkpt><trkpt lat="43.125439" lon="19.098785"><ele>1552.2</ele><time>2012-05-01T12:40:19.0000000+00:00</time></trkpt><trkpt lat="43.125484" lon="19.098768"><ele>1552.3</ele><time>2012-05-01T12:40:24.0000000+00:00</time></trkpt><trkpt lat="43.125511" lon="19.09874"><ele>1552.7</ele><time>2012-05-01T12:40:29.0000000+00:00</time></trkpt><trkpt lat="43.12553" lon="19.09869"><ele>1552.8</ele><time>2012-05-01T12:40:34.0000000+00:00</time></trkpt><trkpt lat="43.125561" lon="19.098677"><ele>1553.2</ele><time>2012-05-01T12:40:39.0000000+00:00</time></trkpt><trkpt lat="43.125584" lon="19.098648"><ele>1554.0</ele><time>2012-05-01T12:40:44.0000000+00:00</time></trkpt><trkpt lat="43.125614" lon="19.098619"><ele>1555.0</ele><time>2012-05-01T12:40:49.0000000+00:00</time></trkpt><trkpt lat="43.125637" lon="19.098595"><ele>1555.3</ele><time>2012-05-01T12:40:54.0000000+00:00</time></trkpt><trkpt lat="43.125656" lon="19.098543"><ele>1555.5</ele><time>2012-05-01T12:40:59.0000000+00:00</time></trkpt><trkpt lat="43.125671" lon="19.098503"><ele>1555.9</ele><time>2012-05-01T12:41:04.0000000+00:00</time></trkpt><trkpt lat="43.12566" lon="19.098505"><ele>1559.9</ele><time>2012-05-01T12:41:09.0000000+00:00</time></trkpt><trkpt lat="43.125648" lon="19.09844"><ele>1560.2</ele><time>2012-05-01T12:41:14.0000000+00:00</time></trkpt><trkpt lat="43.125664" lon="19.09836"><ele>1560.4</ele><time>2012-05-01T12:41:19.0000000+00:00</time></trkpt><trkpt lat="43.125698" lon="19.098328"><ele>1560.5</ele><time>2012-05-01T12:41:24.0000000+00:00</time></trkpt><trkpt lat="43.125713" lon="19.098318"><ele>1560.5</ele><time>2012-05-01T12:41:29.0000000+00:00</time></trkpt><trkpt lat="43.125713" lon="19.098322"><ele>1560.8</ele><time>2012-05-01T12:41:34.0000000+00:00</time></trkpt><trkpt lat="43.125717" lon="19.098318"><ele>1560.8</ele><time>2012-05-01T12:41:39.0000000+00:00</time></trkpt><trkpt lat="43.125744" lon="19.098301"><ele>1562.4</ele><time>2012-05-01T12:41:44.0000000+00:00</time></trkpt><trkpt lat="43.125771" lon="19.09831"><ele>1563.2</ele><time>2012-05-01T12:41:49.0000000+00:00</time></trkpt><trkpt lat="43.125805" lon="19.098324"><ele>1565.4</ele><time>2012-05-01T12:41:54.0000000+00:00</time></trkpt><trkpt lat="43.125839" lon="19.098347"><ele>1566.8</ele><time>2012-05-01T12:41:59.0000000+00:00</time></trkpt><trkpt lat="43.125881" lon="19.098337"><ele>1568.5</ele><time>2012-05-01T12:42:04.0000000+00:00</time></trkpt><trkpt lat="43.125923" lon="19.098326"><ele>1567.7</ele><time>2012-05-01T12:42:09.0000000+00:00</time></trkpt><trkpt lat="43.125973" lon="19.098318"><ele>1569.1</ele><time>2012-05-01T12:42:14.0000000+00:00</time></trkpt><trkpt lat="43.126003" lon="19.098289"><ele>1571.7</ele><time>2012-05-01T12:42:19.0000000+00:00</time></trkpt><trkpt lat="43.126034" lon="19.098278"><ele>1573.3</ele><time>2012-05-01T12:42:24.0000000+00:00</time></trkpt><trkpt lat="43.126076" lon="19.098288"><ele>1574.7</ele><time>2012-05-01T12:42:29.0000000+00:00</time></trkpt><trkpt lat="43.126114" lon="19.098282"><ele>1576.4</ele><time>2012-05-01T12:42:34.0000000+00:00</time></trkpt><trkpt lat="43.126167" lon="19.098242"><ele>1577.4</ele><time>2012-05-01T12:42:39.0000000+00:00</time></trkpt><trkpt lat="43.126198" lon="19.098202"><ele>1576.8</ele><time>2012-05-01T12:42:44.0000000+00:00</time></trkpt><trkpt lat="43.126228" lon="19.098166"><ele>1576.3</ele><time>2012-05-01T12:42:49.0000000+00:00</time></trkpt><trkpt lat="43.126278" lon="19.098124"><ele>1575.3</ele><time>2012-05-01T12:42:54.0000000+00:00</time></trkpt><trkpt lat="43.126331" lon="19.098097"><ele>1576.7</ele><time>2012-05-01T12:42:59.0000000+00:00</time></trkpt><trkpt lat="43.126369" lon="19.09807"><ele>1576.7</ele><time>2012-05-01T12:43:04.0000000+00:00</time></trkpt><trkpt lat="43.126385" lon="19.098083"><ele>1573.4</ele><time>2012-05-01T12:43:09.0000000+00:00</time></trkpt><trkpt lat="43.126385" lon="19.098083"><ele>1573.5</ele><time>2012-05-01T12:43:14.0000000+00:00</time></trkpt><trkpt lat="43.126385" lon="19.098082"><ele>1573.6</ele><time>2012-05-01T12:43:19.0000000+00:00</time></trkpt><trkpt lat="43.126385" lon="19.098082"><ele>1573.7</ele><time>2012-05-01T12:43:24.0000000+00:00</time></trkpt><trkpt lat="43.126385" lon="19.098082"><ele>1573.7</ele><time>2012-05-01T12:43:29.0000000+00:00</time></trkpt><trkpt lat="43.126385" lon="19.098082"><ele>1573.6</ele><time>2012-05-01T12:43:34.0000000+00:00</time></trkpt><trkpt lat="43.126385" lon="19.098082"><ele>1573.6</ele><time>2012-05-01T12:43:39.0000000+00:00</time></trkpt><trkpt lat="43.126385" lon="19.098082"><ele>1573.7</ele><time>2012-05-01T12:43:44.0000000+00:00</time></trkpt><trkpt lat="43.126385" lon="19.098082"><ele>1573.7</ele><time>2012-05-01T12:43:49.0000000+00:00</time></trkpt><trkpt lat="43.126385" lon="19.09808"><ele>1573.7</ele><time>2012-05-01T12:43:54.0000000+00:00</time></trkpt><trkpt lat="43.126385" lon="19.09808"><ele>1573.7</ele><time>2012-05-01T12:43:59.0000000+00:00</time></trkpt><trkpt lat="43.126385" lon="19.098082"><ele>1573.7</ele><time>2012-05-01T12:44:04.0000000+00:00</time></trkpt><trkpt lat="43.126385" lon="19.098082"><ele>1573.7</ele><time>2012-05-01T12:44:09.0000000+00:00</time></trkpt><trkpt lat="43.126385" lon="19.098082"><ele>1573.6</ele><time>2012-05-01T12:44:14.0000000+00:00</time></trkpt><trkpt lat="43.126385" lon="19.098082"><ele>1573.6</ele><time>2012-05-01T12:44:19.0000000+00:00</time></trkpt><trkpt lat="43.126385" lon="19.098082"><ele>1573.6</ele><time>2012-05-01T12:44:24.0000000+00:00</time></trkpt><trkpt lat="43.126389" lon="19.098082"><ele>1573.5</ele><time>2012-05-01T12:44:29.0000000+00:00</time></trkpt><trkpt lat="43.126431" lon="19.098066"><ele>1573.7</ele><time>2012-05-01T12:44:34.0000000+00:00</time></trkpt><trkpt lat="43.12648" lon="19.098032"><ele>1574.3</ele><time>2012-05-01T12:44:39.0000000+00:00</time></trkpt><trkpt lat="43.126514" lon="19.098011"><ele>1576.3</ele><time>2012-05-01T12:44:44.0000000+00:00</time></trkpt><trkpt lat="43.126575" lon="19.09798"><ele>1575.1</ele><time>2012-05-01T12:44:49.0000000+00:00</time></trkpt><trkpt lat="43.126648" lon="19.097954"><ele>1572.6</ele><time>2012-05-01T12:44:54.0000000+00:00</time></trkpt><trkpt lat="43.126717" lon="19.097906"><ele>1571.6</ele><time>2012-05-01T12:44:59.0000000+00:00</time></trkpt><trkpt lat="43.126755" lon="19.097887"><ele>1572.5</ele><time>2012-05-01T12:45:04.0000000+00:00</time></trkpt><trkpt lat="43.126808" lon="19.097891"><ele>1573.2</ele><time>2012-05-01T12:45:09.0000000+00:00</time></trkpt><trkpt lat="43.12682" lon="19.09791"><ele>1576.8</ele><time>2012-05-01T12:45:14.0000000+00:00</time></trkpt><trkpt lat="43.126888" lon="19.097866"><ele>1574.8</ele><time>2012-05-01T12:45:19.0000000+00:00</time></trkpt><trkpt lat="43.126911" lon="19.097839"><ele>1574.6</ele><time>2012-05-01T12:45:24.0000000+00:00</time></trkpt><trkpt lat="43.126945" lon="19.097864"><ele>1576.7</ele><time>2012-05-01T12:45:29.0000000+00:00</time></trkpt><trkpt lat="43.126976" lon="19.097866"><ele>1577.4</ele><time>2012-05-01T12:45:34.0000000+00:00</time></trkpt><trkpt lat="43.126984" lon="19.097874"><ele>1578.4</ele><time>2012-05-01T12:45:39.0000000+00:00</time></trkpt><trkpt lat="43.12701" lon="19.097881"><ele>1579.8</ele><time>2012-05-01T12:45:44.0000000+00:00</time></trkpt><trkpt lat="43.127056" lon="19.097876"><ele>1581.0</ele><time>2012-05-01T12:45:49.0000000+00:00</time></trkpt><trkpt lat="43.127136" lon="19.09783"><ele>1576.5</ele><time>2012-05-01T12:45:54.0000000+00:00</time></trkpt><trkpt lat="43.127182" lon="19.097822"><ele>1576.2</ele><time>2012-05-01T12:45:59.0000000+00:00</time></trkpt><trkpt lat="43.127228" lon="19.097832"><ele>1577.8</ele><time>2012-05-01T12:46:04.0000000+00:00</time></trkpt><trkpt lat="43.127262" lon="19.097843"><ele>1578.0</ele><time>2012-05-01T12:46:09.0000000+00:00</time></trkpt><trkpt lat="43.127296" lon="19.097841"><ele>1578.5</ele><time>2012-05-01T12:46:14.0000000+00:00</time></trkpt><trkpt lat="43.127327" lon="19.09782"><ele>1578.8</ele><time>2012-05-01T12:46:19.0000000+00:00</time></trkpt><trkpt lat="43.127365" lon="19.097818"><ele>1580.0</ele><time>2012-05-01T12:46:24.0000000+00:00</time></trkpt><trkpt lat="43.127407" lon="19.097773"><ele>1580.2</ele><time>2012-05-01T12:46:29.0000000+00:00</time></trkpt><trkpt lat="43.127445" lon="19.097786"><ele>1580.8</ele><time>2012-05-01T12:46:34.0000000+00:00</time></trkpt><trkpt lat="43.127483" lon="19.097773"><ele>1582.2</ele><time>2012-05-01T12:46:39.0000000+00:00</time></trkpt><trkpt lat="43.127514" lon="19.097742"><ele>1583.4</ele><time>2012-05-01T12:46:44.0000000+00:00</time></trkpt><trkpt lat="43.127537" lon="19.097748"><ele>1584.0</ele><time>2012-05-01T12:46:49.0000000+00:00</time></trkpt><trkpt lat="43.127556" lon="19.097744"><ele>1584.9</ele><time>2012-05-01T12:46:54.0000000+00:00</time></trkpt><trkpt lat="43.127575" lon="19.097731"><ele>1586.1</ele><time>2012-05-01T12:46:59.0000000+00:00</time></trkpt><trkpt lat="43.127583" lon="19.097727"><ele>1587.0</ele><time>2012-05-01T12:47:04.0000000+00:00</time></trkpt><trkpt lat="43.127594" lon="19.097738"><ele>1587.8</ele><time>2012-05-01T12:47:09.0000000+00:00</time></trkpt><trkpt lat="43.127625" lon="19.097736"><ele>1588.1</ele><time>2012-05-01T12:47:14.0000000+00:00</time></trkpt><trkpt lat="43.127644" lon="19.097721"><ele>1588.7</ele><time>2012-05-01T12:47:19.0000000+00:00</time></trkpt><trkpt lat="43.127659" lon="19.097719"><ele>1589.4</ele><time>2012-05-01T12:47:24.0000000+00:00</time></trkpt><trkpt lat="43.127686" lon="19.097746"><ele>1589.6</ele><time>2012-05-01T12:47:29.0000000+00:00</time></trkpt><trkpt lat="43.12775" lon="19.097752"><ele>1589.0</ele><time>2012-05-01T12:47:34.0000000+00:00</time></trkpt><trkpt lat="43.127773" lon="19.097742"><ele>1589.6</ele><time>2012-05-01T12:47:39.0000000+00:00</time></trkpt><trkpt lat="43.127815" lon="19.097715"><ele>1589.6</ele><time>2012-05-01T12:47:44.0000000+00:00</time></trkpt><trkpt lat="43.127831" lon="19.097668"><ele>1589.4</ele><time>2012-05-01T12:47:49.0000000+00:00</time></trkpt><trkpt lat="43.127838" lon="19.097662"><ele>1589.7</ele><time>2012-05-01T12:47:54.0000000+00:00</time></trkpt><trkpt lat="43.127869" lon="19.097668"><ele>1589.4</ele><time>2012-05-01T12:47:59.0000000+00:00</time></trkpt><trkpt lat="43.127892" lon="19.097662"><ele>1589.9</ele><time>2012-05-01T12:48:04.0000000+00:00</time></trkpt><trkpt lat="43.127903" lon="19.097673"><ele>1590.3</ele><time>2012-05-01T12:48:09.0000000+00:00</time></trkpt><trkpt lat="43.127907" lon="19.097681"><ele>1591.2</ele><time>2012-05-01T12:48:14.0000000+00:00</time></trkpt><trkpt lat="43.127918" lon="19.097683"><ele>1592.0</ele><time>2012-05-01T12:48:19.0000000+00:00</time></trkpt><trkpt lat="43.12793" lon="19.097689"><ele>1592.5</ele><time>2012-05-01T12:48:24.0000000+00:00</time></trkpt><trkpt lat="43.127949" lon="19.097698"><ele>1593.2</ele><time>2012-05-01T12:48:29.0000000+00:00</time></trkpt><trkpt lat="43.127983" lon="19.0977"><ele>1593.2</ele><time>2012-05-01T12:48:34.0000000+00:00</time></trkpt><trkpt lat="43.128025" lon="19.097696"><ele>1592.2</ele><time>2012-05-01T12:48:39.0000000+00:00</time></trkpt><trkpt lat="43.128078" lon="19.097698"><ele>1591.0</ele><time>2012-05-01T12:48:44.0000000+00:00</time></trkpt><trkpt lat="43.128117" lon="19.097672"><ele>1591.6</ele><time>2012-05-01T12:48:49.0000000+00:00</time></trkpt><trkpt lat="43.128147" lon="19.097666"><ele>1592.4</ele><time>2012-05-01T12:48:54.0000000+00:00</time></trkpt><trkpt lat="43.12817" lon="19.09766"><ele>1593.4</ele><time>2012-05-01T12:48:59.0000000+00:00</time></trkpt><trkpt lat="43.128204" lon="19.097647"><ele>1593.9</ele><time>2012-05-01T12:49:04.0000000+00:00</time></trkpt><trkpt lat="43.128239" lon="19.09763"><ele>1594.3</ele><time>2012-05-01T12:49:09.0000000+00:00</time></trkpt><trkpt lat="43.128273" lon="19.097605"><ele>1595.3</ele><time>2012-05-01T12:49:14.0000000+00:00</time></trkpt><trkpt lat="43.1283" lon="19.09758"><ele>1595.8</ele><time>2012-05-01T12:49:19.0000000+00:00</time></trkpt><trkpt lat="43.128349" lon="19.097576"><ele>1596.5</ele><time>2012-05-01T12:49:24.0000000+00:00</time></trkpt><trkpt lat="43.128403" lon="19.09753"><ele>1595.2</ele><time>2012-05-01T12:49:29.0000000+00:00</time></trkpt><trkpt lat="43.128429" lon="19.097523"><ele>1595.7</ele><time>2012-05-01T12:49:34.0000000+00:00</time></trkpt><trkpt lat="43.12846" lon="19.097519"><ele>1596.5</ele><time>2012-05-01T12:49:39.0000000+00:00</time></trkpt><trkpt lat="43.12849" lon="19.097527"><ele>1597.0</ele><time>2012-05-01T12:49:44.0000000+00:00</time></trkpt><trkpt lat="43.12854" lon="19.097542"><ele>1597.7</ele><time>2012-05-01T12:49:49.0000000+00:00</time></trkpt><trkpt lat="43.128582" lon="19.097551"><ele>1598.1</ele><time>2012-05-01T12:49:54.0000000+00:00</time></trkpt><trkpt lat="43.128605" lon="19.097561"><ele>1598.7</ele><time>2012-05-01T12:49:59.0000000+00:00</time></trkpt><trkpt lat="43.128647" lon="19.097553"><ele>1600.0</ele><time>2012-05-01T12:50:04.0000000+00:00</time></trkpt><trkpt lat="43.128666" lon="19.097559"><ele>1601.5</ele><time>2012-05-01T12:50:09.0000000+00:00</time></trkpt><trkpt lat="43.128693" lon="19.09757"><ele>1603.0</ele><time>2012-05-01T12:50:14.0000000+00:00</time></trkpt><trkpt lat="43.128723" lon="19.09757"><ele>1603.2</ele><time>2012-05-01T12:50:19.0000000+00:00</time></trkpt><trkpt lat="43.128765" lon="19.097572"><ele>1604.1</ele><time>2012-05-01T12:50:24.0000000+00:00</time></trkpt><trkpt lat="43.128815" lon="19.097572"><ele>1604.1</ele><time>2012-05-01T12:50:29.0000000+00:00</time></trkpt><trkpt lat="43.12886" lon="19.097553"><ele>1603.2</ele><time>2012-05-01T12:50:34.0000000+00:00</time></trkpt><trkpt lat="43.128899" lon="19.097519"><ele>1602.5</ele><time>2012-05-01T12:50:39.0000000+00:00</time></trkpt><trkpt lat="43.128929" lon="19.097521"><ele>1602.4</ele><time>2012-05-01T12:50:44.0000000+00:00</time></trkpt><trkpt lat="43.128948" lon="19.097551"><ele>1602.5</ele><time>2012-05-01T12:50:49.0000000+00:00</time></trkpt><trkpt lat="43.128971" lon="19.097567"><ele>1601.1</ele><time>2012-05-01T12:50:54.0000000+00:00</time></trkpt><trkpt lat="43.128975" lon="19.097563"><ele>1599.9</ele><time>2012-05-01T12:50:59.0000000+00:00</time></trkpt><trkpt lat="43.128975" lon="19.097563"><ele>1599.9</ele><time>2012-05-01T12:51:04.0000000+00:00</time></trkpt><trkpt lat="43.129005" lon="19.097593"><ele>1599.8</ele><time>2012-05-01T12:51:09.0000000+00:00</time></trkpt><trkpt lat="43.129044" lon="19.097609"><ele>1600.0</ele><time>2012-05-01T12:51:14.0000000+00:00</time></trkpt><trkpt lat="43.129082" lon="19.097641"><ele>1600.0</ele><time>2012-05-01T12:51:19.0000000+00:00</time></trkpt><trkpt lat="43.129116" lon="19.097677"><ele>1599.4</ele><time>2012-05-01T12:51:24.0000000+00:00</time></trkpt><trkpt lat="43.129147" lon="19.097706"><ele>1598.9</ele><time>2012-05-01T12:51:29.0000000+00:00</time></trkpt><trkpt lat="43.129181" lon="19.097738"><ele>1598.8</ele><time>2012-05-01T12:51:34.0000000+00:00</time></trkpt><trkpt lat="43.129211" lon="19.097775"><ele>1598.5</ele><time>2012-05-01T12:51:39.0000000+00:00</time></trkpt><trkpt lat="43.12925" lon="19.097813"><ele>1598.4</ele><time>2012-05-01T12:51:44.0000000+00:00</time></trkpt><trkpt lat="43.129299" lon="19.097824"><ele>1599.0</ele><time>2012-05-01T12:51:49.0000000+00:00</time></trkpt><trkpt lat="43.129333" lon="19.09786"><ele>1599.6</ele><time>2012-05-01T12:51:54.0000000+00:00</time></trkpt><trkpt lat="43.129353" lon="19.097872"><ele>1599.8</ele><time>2012-05-01T12:51:59.0000000+00:00</time></trkpt><trkpt lat="43.129368" lon="19.097878"><ele>1600.5</ele><time>2012-05-01T12:52:04.0000000+00:00</time></trkpt><trkpt lat="43.129391" lon="19.097879"><ele>1600.6</ele><time>2012-05-01T12:52:09.0000000+00:00</time></trkpt><trkpt lat="43.129425" lon="19.097916"><ele>1601.0</ele><time>2012-05-01T12:52:14.0000000+00:00</time></trkpt><trkpt lat="43.129463" lon="19.097965"><ele>1600.5</ele><time>2012-05-01T12:52:19.0000000+00:00</time></trkpt><trkpt lat="43.129486" lon="19.098009"><ele>1600.2</ele><time>2012-05-01T12:52:24.0000000+00:00</time></trkpt><trkpt lat="43.129524" lon="19.098021"><ele>1600.4</ele><time>2012-05-01T12:52:29.0000000+00:00</time></trkpt><trkpt lat="43.129528" lon="19.098045"><ele>1600.1</ele><time>2012-05-01T12:52:34.0000000+00:00</time></trkpt><trkpt lat="43.129547" lon="19.098097"><ele>1600.9</ele><time>2012-05-01T12:52:39.0000000+00:00</time></trkpt><trkpt lat="43.129574" lon="19.098145"><ele>1602.4</ele><time>2012-05-01T12:52:44.0000000+00:00</time></trkpt><trkpt lat="43.129612" lon="19.098183"><ele>1602.9</ele><time>2012-05-01T12:52:49.0000000+00:00</time></trkpt><trkpt lat="43.129642" lon="19.098204"><ele>1602.9</ele><time>2012-05-01T12:52:54.0000000+00:00</time></trkpt><trkpt lat="43.129673" lon="19.098221"><ele>1604.0</ele><time>2012-05-01T12:52:59.0000000+00:00</time></trkpt><trkpt lat="43.129707" lon="19.098251"><ele>1604.2</ele><time>2012-05-01T12:53:04.0000000+00:00</time></trkpt><trkpt lat="43.129772" lon="19.098267"><ele>1603.4</ele><time>2012-05-01T12:53:09.0000000+00:00</time></trkpt><trkpt lat="43.129795" lon="19.098309"><ele>1601.3</ele><time>2012-05-01T12:53:14.0000000+00:00</time></trkpt><trkpt lat="43.12981" lon="19.098356"><ele>1600.8</ele><time>2012-05-01T12:53:19.0000000+00:00</time></trkpt><trkpt lat="43.129868" lon="19.098379"><ele>1600.7</ele><time>2012-05-01T12:53:24.0000000+00:00</time></trkpt><trkpt lat="43.129902" lon="19.098402"><ele>1600.4</ele><time>2012-05-01T12:53:29.0000000+00:00</time></trkpt><trkpt lat="43.129944" lon="19.098412"><ele>1599.6</ele><time>2012-05-01T12:53:34.0000000+00:00</time></trkpt><trkpt lat="43.129986" lon="19.098427"><ele>1599.6</ele><time>2012-05-01T12:53:39.0000000+00:00</time></trkpt><trkpt lat="43.130028" lon="19.098459"><ele>1596.9</ele><time>2012-05-01T12:53:44.0000000+00:00</time></trkpt><trkpt lat="43.130058" lon="19.098486"><ele>1595.8</ele><time>2012-05-01T12:53:49.0000000+00:00</time></trkpt><trkpt lat="43.130093" lon="19.098526"><ele>1593.9</ele><time>2012-05-01T12:53:54.0000000+00:00</time></trkpt><trkpt lat="43.130161" lon="19.098524"><ele>1590.1</ele><time>2012-05-01T12:53:59.0000000+00:00</time></trkpt><trkpt lat="43.130192" lon="19.098537"><ele>1587.7</ele><time>2012-05-01T12:54:04.0000000+00:00</time></trkpt><trkpt lat="43.130234" lon="19.098541"><ele>1586.4</ele><time>2012-05-01T12:54:09.0000000+00:00</time></trkpt><trkpt lat="43.130287" lon="19.098551"><ele>1585.3</ele><time>2012-05-01T12:54:14.0000000+00:00</time></trkpt><trkpt lat="43.13031" lon="19.098568"><ele>1585.6</ele><time>2012-05-01T12:54:19.0000000+00:00</time></trkpt><trkpt lat="43.130337" lon="19.098568"><ele>1585.7</ele><time>2012-05-01T12:54:24.0000000+00:00</time></trkpt><trkpt lat="43.130344" lon="19.098558"><ele>1585.1</ele><time>2012-05-01T12:54:29.0000000+00:00</time></trkpt><trkpt lat="43.130402" lon="19.098574"><ele>1585.8</ele><time>2012-05-01T12:54:34.0000000+00:00</time></trkpt><trkpt lat="43.130451" lon="19.098604"><ele>1586.0</ele><time>2012-05-01T12:54:39.0000000+00:00</time></trkpt><trkpt lat="43.130505" lon="19.098639"><ele>1586.5</ele><time>2012-05-01T12:54:44.0000000+00:00</time></trkpt><trkpt lat="43.130543" lon="19.09866"><ele>1587.1</ele><time>2012-05-01T12:54:49.0000000+00:00</time></trkpt><trkpt lat="43.130562" lon="19.09869"><ele>1587.7</ele><time>2012-05-01T12:54:54.0000000+00:00</time></trkpt><trkpt lat="43.130592" lon="19.098726"><ele>1588.0</ele><time>2012-05-01T12:54:59.0000000+00:00</time></trkpt><trkpt lat="43.1306" lon="19.098761"><ele>1587.8</ele><time>2012-05-01T12:55:04.0000000+00:00</time></trkpt><trkpt lat="43.130619" lon="19.098783"><ele>1588.5</ele><time>2012-05-01T12:55:09.0000000+00:00</time></trkpt><trkpt lat="43.130661" lon="19.098816"><ele>1588.0</ele><time>2012-05-01T12:55:14.0000000+00:00</time></trkpt><trkpt lat="43.130699" lon="19.098856"><ele>1587.8</ele><time>2012-05-01T12:55:19.0000000+00:00</time></trkpt><trkpt lat="43.130733" lon="19.098888"><ele>1587.1</ele><time>2012-05-01T12:55:24.0000000+00:00</time></trkpt><trkpt lat="43.13076" lon="19.098919"><ele>1587.2</ele><time>2012-05-01T12:55:29.0000000+00:00</time></trkpt><trkpt lat="43.130795" lon="19.098949"><ele>1588.1</ele><time>2012-05-01T12:55:34.0000000+00:00</time></trkpt><trkpt lat="43.130844" lon="19.098948"><ele>1588.3</ele><time>2012-05-01T12:55:39.0000000+00:00</time></trkpt><trkpt lat="43.130901" lon="19.098942"><ele>1586.9</ele><time>2012-05-01T12:55:44.0000000+00:00</time></trkpt><trkpt lat="43.130947" lon="19.098951"><ele>1587.0</ele><time>2012-05-01T12:55:49.0000000+00:00</time></trkpt><trkpt lat="43.130993" lon="19.098967"><ele>1586.9</ele><time>2012-05-01T12:55:54.0000000+00:00</time></trkpt><trkpt lat="43.131039" lon="19.098976"><ele>1586.6</ele><time>2012-05-01T12:55:59.0000000+00:00</time></trkpt><trkpt lat="43.131092" lon="19.09898"><ele>1587.1</ele><time>2012-05-01T12:56:04.0000000+00:00</time></trkpt><trkpt lat="43.131119" lon="19.098989"><ele>1586.7</ele><time>2012-05-01T12:56:09.0000000+00:00</time></trkpt><trkpt lat="43.131165" lon="19.099003"><ele>1588.2</ele><time>2012-05-01T12:56:14.0000000+00:00</time></trkpt><trkpt lat="43.131207" lon="19.099024"><ele>1587.9</ele><time>2012-05-01T12:56:19.0000000+00:00</time></trkpt><trkpt lat="43.131222" lon="19.099054"><ele>1587.7</ele><time>2012-05-01T12:56:24.0000000+00:00</time></trkpt><trkpt lat="43.131245" lon="19.099083"><ele>1587.8</ele><time>2012-05-01T12:56:29.0000000+00:00</time></trkpt><trkpt lat="43.131279" lon="19.099123"><ele>1587.6</ele><time>2012-05-01T12:56:34.0000000+00:00</time></trkpt><trkpt lat="43.131313" lon="19.099161"><ele>1588.0</ele><time>2012-05-01T12:56:39.0000000+00:00</time></trkpt><trkpt lat="43.131344" lon="19.099199"><ele>1588.0</ele><time>2012-05-01T12:56:44.0000000+00:00</time></trkpt><trkpt lat="43.131371" lon="19.099234"><ele>1588.4</ele><time>2012-05-01T12:56:49.0000000+00:00</time></trkpt><trkpt lat="43.131409" lon="19.099264"><ele>1588.5</ele><time>2012-05-01T12:56:54.0000000+00:00</time></trkpt><trkpt lat="43.131454" lon="19.099287"><ele>1587.5</ele><time>2012-05-01T12:56:59.0000000+00:00</time></trkpt><trkpt lat="43.131489" lon="19.099304"><ele>1587.9</ele><time>2012-05-01T12:57:04.0000000+00:00</time></trkpt><trkpt lat="43.131527" lon="19.099327"><ele>1588.6</ele><time>2012-05-01T12:57:09.0000000+00:00</time></trkpt><trkpt lat="43.131577" lon="19.099354"><ele>1586.2</ele><time>2012-05-01T12:57:14.0000000+00:00</time></trkpt><trkpt lat="43.131626" lon="19.099358"><ele>1585.9</ele><time>2012-05-01T12:57:19.0000000+00:00</time></trkpt><trkpt lat="43.131641" lon="19.09939"><ele>1586.3</ele><time>2012-05-01T12:57:24.0000000+00:00</time></trkpt><trkpt lat="43.131683" lon="19.099403"><ele>1586.0</ele><time>2012-05-01T12:57:29.0000000+00:00</time></trkpt><trkpt lat="43.13171" lon="19.09944"><ele>1585.8</ele><time>2012-05-01T12:57:34.0000000+00:00</time></trkpt><trkpt lat="43.131741" lon="19.09947"><ele>1587.1</ele><time>2012-05-01T12:57:39.0000000+00:00</time></trkpt><trkpt lat="43.131767" lon="19.099512"><ele>1588.6</ele><time>2012-05-01T12:57:44.0000000+00:00</time></trkpt><trkpt lat="43.131802" lon="19.09955"><ele>1588.7</ele><time>2012-05-01T12:57:49.0000000+00:00</time></trkpt><trkpt lat="43.131832" lon="19.09959"><ele>1589.4</ele><time>2012-05-01T12:57:54.0000000+00:00</time></trkpt><trkpt lat="43.131859" lon="19.099644"><ele>1589.8</ele><time>2012-05-01T12:57:59.0000000+00:00</time></trkpt><trkpt lat="43.131905" lon="19.099684"><ele>1589.9</ele><time>2012-05-01T12:58:04.0000000+00:00</time></trkpt><trkpt lat="43.131943" lon="19.099714"><ele>1588.7</ele><time>2012-05-01T12:58:09.0000000+00:00</time></trkpt><trkpt lat="43.131977" lon="19.099741"><ele>1587.9</ele><time>2012-05-01T12:58:14.0000000+00:00</time></trkpt><trkpt lat="43.132019" lon="19.09977"><ele>1587.8</ele><time>2012-05-01T12:58:19.0000000+00:00</time></trkpt><trkpt lat="43.13208" lon="19.099777"><ele>1587.1</ele><time>2012-05-01T12:58:24.0000000+00:00</time></trkpt><trkpt lat="43.13213" lon="19.099794"><ele>1585.5</ele><time>2012-05-01T12:58:29.0000000+00:00</time></trkpt><trkpt lat="43.13216" lon="19.099819"><ele>1585.2</ele><time>2012-05-01T12:58:34.0000000+00:00</time></trkpt><trkpt lat="43.132191" lon="19.099838"><ele>1585.1</ele><time>2012-05-01T12:58:39.0000000+00:00</time></trkpt><trkpt lat="43.132206" lon="19.099876"><ele>1584.9</ele><time>2012-05-01T12:58:44.0000000+00:00</time></trkpt><trkpt lat="43.132229" lon="19.099884"><ele>1585.5</ele><time>2012-05-01T12:58:49.0000000+00:00</time></trkpt><trkpt lat="43.132256" lon="19.099907"><ele>1586.2</ele><time>2012-05-01T12:58:54.0000000+00:00</time></trkpt><trkpt lat="43.132294" lon="19.099924"><ele>1585.2</ele><time>2012-05-01T12:58:59.0000000+00:00</time></trkpt><trkpt lat="43.132332" lon="19.099958"><ele>1586.2</ele><time>2012-05-01T12:59:04.0000000+00:00</time></trkpt><trkpt lat="43.132355" lon="19.099995"><ele>1586.5</ele><time>2012-05-01T12:59:09.0000000+00:00</time></trkpt><trkpt lat="43.132381" lon="19.100019"><ele>1586.3</ele><time>2012-05-01T12:59:14.0000000+00:00</time></trkpt><trkpt lat="43.132431" lon="19.100042"><ele>1585.3</ele><time>2012-05-01T12:59:19.0000000+00:00</time></trkpt><trkpt lat="43.132484" lon="19.100054"><ele>1585.1</ele><time>2012-05-01T12:59:24.0000000+00:00</time></trkpt><trkpt lat="43.132523" lon="19.100092"><ele>1583.9</ele><time>2012-05-01T12:59:29.0000000+00:00</time></trkpt><trkpt lat="43.132557" lon="19.100138"><ele>1584.2</ele><time>2012-05-01T12:59:34.0000000+00:00</time></trkpt><trkpt lat="43.132603" lon="19.100166"><ele>1582.9</ele><time>2012-05-01T12:59:39.0000000+00:00</time></trkpt><trkpt lat="43.132648" lon="19.100193"><ele>1580.8</ele><time>2012-05-01T12:59:44.0000000+00:00</time></trkpt><trkpt lat="43.132683" lon="19.10022"><ele>1580.2</ele><time>2012-05-01T12:59:49.0000000+00:00</time></trkpt><trkpt lat="43.132732" lon="19.100239"><ele>1579.7</ele><time>2012-05-01T12:59:54.0000000+00:00</time></trkpt><trkpt lat="43.13279" lon="19.100229"><ele>1579.7</ele><time>2012-05-01T12:59:59.0000000+00:00</time></trkpt><trkpt lat="43.132847" lon="19.100218"><ele>1580.8</ele><time>2012-05-01T13:00:04.0000000+00:00</time></trkpt><trkpt lat="43.132881" lon="19.100239"><ele>1580.9</ele><time>2012-05-01T13:00:09.0000000+00:00</time></trkpt><trkpt lat="43.132919" lon="19.100262"><ele>1581.1</ele><time>2012-05-01T13:00:14.0000000+00:00</time></trkpt><trkpt lat="43.132977" lon="19.100286"><ele>1581.7</ele><time>2012-05-01T13:00:19.0000000+00:00</time></trkpt><trkpt lat="43.133003" lon="19.100311"><ele>1582.2</ele><time>2012-05-01T13:00:24.0000000+00:00</time></trkpt><trkpt lat="43.133049" lon="19.100317"><ele>1583.2</ele><time>2012-05-01T13:00:29.0000000+00:00</time></trkpt><trkpt lat="43.133076" lon="19.100321"><ele>1584.4</ele><time>2012-05-01T13:00:34.0000000+00:00</time></trkpt><trkpt lat="43.133114" lon="19.100332"><ele>1585.8</ele><time>2012-05-01T13:00:39.0000000+00:00</time></trkpt><trkpt lat="43.133171" lon="19.100365"><ele>1585.6</ele><time>2012-05-01T13:00:44.0000000+00:00</time></trkpt><trkpt lat="43.133213" lon="19.100372"><ele>1586.0</ele><time>2012-05-01T13:00:49.0000000+00:00</time></trkpt><trkpt lat="43.133251" lon="19.100388"><ele>1585.9</ele><time>2012-05-01T13:00:54.0000000+00:00</time></trkpt><trkpt lat="43.133286" lon="19.100401"><ele>1585.9</ele><time>2012-05-01T13:00:59.0000000+00:00</time></trkpt><trkpt lat="43.133335" lon="19.10042"><ele>1586.7</ele><time>2012-05-01T13:01:04.0000000+00:00</time></trkpt><trkpt lat="43.133389" lon="19.100443"><ele>1586.5</ele><time>2012-05-01T13:01:09.0000000+00:00</time></trkpt><trkpt lat="43.133427" lon="19.100464"><ele>1585.4</ele><time>2012-05-01T13:01:14.0000000+00:00</time></trkpt><trkpt lat="43.133472" lon="19.100491"><ele>1585.1</ele><time>2012-05-01T13:01:19.0000000+00:00</time></trkpt><trkpt lat="43.133533" lon="19.100502"><ele>1583.7</ele><time>2012-05-01T13:01:24.0000000+00:00</time></trkpt><trkpt lat="43.133598" lon="19.100494"><ele>1582.5</ele><time>2012-05-01T13:01:29.0000000+00:00</time></trkpt><trkpt lat="43.133659" lon="19.100479"><ele>1581.3</ele><time>2012-05-01T13:01:34.0000000+00:00</time></trkpt><trkpt lat="43.13372" lon="19.100481"><ele>1581.4</ele><time>2012-05-01T13:01:39.0000000+00:00</time></trkpt><trkpt lat="43.133781" lon="19.100519"><ele>1579.1</ele><time>2012-05-01T13:01:44.0000000+00:00</time></trkpt><trkpt lat="43.133793" lon="19.100536"><ele>1579.7</ele><time>2012-05-01T13:01:49.0000000+00:00</time></trkpt><trkpt lat="43.133797" lon="19.100536"><ele>1579.8</ele><time>2012-05-01T13:01:54.0000000+00:00</time></trkpt><trkpt lat="43.133816" lon="19.100584"><ele>1580.3</ele><time>2012-05-01T13:01:59.0000000+00:00</time></trkpt><trkpt lat="43.133873" lon="19.100594"><ele>1580.4</ele><time>2012-05-01T13:02:04.0000000+00:00</time></trkpt><trkpt lat="43.133911" lon="19.100574"><ele>1580.3</ele><time>2012-05-01T13:02:09.0000000+00:00</time></trkpt><trkpt lat="43.133942" lon="19.10055"><ele>1580.0</ele><time>2012-05-01T13:02:14.0000000+00:00</time></trkpt><trkpt lat="43.133968" lon="19.100529"><ele>1580.8</ele><time>2012-05-01T13:02:19.0000000+00:00</time></trkpt><trkpt lat="43.13401" lon="19.100529"><ele>1580.6</ele><time>2012-05-01T13:02:24.0000000+00:00</time></trkpt><trkpt lat="43.134071" lon="19.100554"><ele>1579.6</ele><time>2012-05-01T13:02:29.0000000+00:00</time></trkpt><trkpt lat="43.134121" lon="19.10058"><ele>1578.7</ele><time>2012-05-01T13:02:34.0000000+00:00</time></trkpt><trkpt lat="43.134174" lon="19.100599"><ele>1577.5</ele><time>2012-05-01T13:02:39.0000000+00:00</time></trkpt><trkpt lat="43.134224" lon="19.100615"><ele>1577.0</ele><time>2012-05-01T13:02:44.0000000+00:00</time></trkpt><trkpt lat="43.134274" lon="19.100632"><ele>1577.0</ele><time>2012-05-01T13:02:49.0000000+00:00</time></trkpt><trkpt lat="43.134312" lon="19.100647"><ele>1578.0</ele><time>2012-05-01T13:02:54.0000000+00:00</time></trkpt><trkpt lat="43.134315" lon="19.100653"><ele>1578.0</ele><time>2012-05-01T13:02:59.0000000+00:00</time></trkpt><trkpt lat="43.134312" lon="19.100655"><ele>1577.6</ele><time>2012-05-01T13:03:04.0000000+00:00</time></trkpt><trkpt lat="43.134312" lon="19.100655"><ele>1577.6</ele><time>2012-05-01T13:03:09.0000000+00:00</time></trkpt><trkpt lat="43.134312" lon="19.100655"><ele>1577.7</ele><time>2012-05-01T13:03:14.0000000+00:00</time></trkpt><trkpt lat="43.134312" lon="19.100655"><ele>1577.7</ele><time>2012-05-01T13:03:19.0000000+00:00</time></trkpt><trkpt lat="43.134312" lon="19.100655"><ele>1577.7</ele><time>2012-05-01T13:03:24.0000000+00:00</time></trkpt><trkpt lat="43.134312" lon="19.100655"><ele>1577.8</ele><time>2012-05-01T13:03:29.0000000+00:00</time></trkpt><trkpt lat="43.134312" lon="19.100655"><ele>1577.8</ele><time>2012-05-01T13:03:34.0000000+00:00</time></trkpt><trkpt lat="43.134312" lon="19.100655"><ele>1577.8</ele><time>2012-05-01T13:03:39.0000000+00:00</time></trkpt><trkpt lat="43.134312" lon="19.100655"><ele>1577.8</ele><time>2012-05-01T13:03:44.0000000+00:00</time></trkpt><trkpt lat="43.134312" lon="19.100655"><ele>1577.8</ele><time>2012-05-01T13:03:49.0000000+00:00</time></trkpt><trkpt lat="43.134312" lon="19.100655"><ele>1577.9</ele><time>2012-05-01T13:03:54.0000000+00:00</time></trkpt><trkpt lat="43.134312" lon="19.100653"><ele>1577.9</ele><time>2012-05-01T13:03:59.0000000+00:00</time></trkpt><trkpt lat="43.134312" lon="19.100653"><ele>1577.9</ele><time>2012-05-01T13:04:04.0000000+00:00</time></trkpt><trkpt lat="43.134312" lon="19.100653"><ele>1577.9</ele><time>2012-05-01T13:04:09.0000000+00:00</time></trkpt><trkpt lat="43.134312" lon="19.100653"><ele>1577.9</ele><time>2012-05-01T13:04:14.0000000+00:00</time></trkpt><trkpt lat="43.134312" lon="19.100655"><ele>1577.9</ele><time>2012-05-01T13:04:19.0000000+00:00</time></trkpt><trkpt lat="43.134327" lon="19.100643"><ele>1577.7</ele><time>2012-05-01T13:04:24.0000000+00:00</time></trkpt><trkpt lat="43.134384" lon="19.100595"><ele>1576.6</ele><time>2012-05-01T13:04:29.0000000+00:00</time></trkpt><trkpt lat="43.134411" lon="19.100559"><ele>1576.5</ele><time>2012-05-01T13:04:34.0000000+00:00</time></trkpt><trkpt lat="43.134445" lon="19.100517"><ele>1576.7</ele><time>2012-05-01T13:04:39.0000000+00:00</time></trkpt><trkpt lat="43.134468" lon="19.100445"><ele>1576.1</ele><time>2012-05-01T13:04:44.0000000+00:00</time></trkpt><trkpt lat="43.134487" lon="19.100374"><ele>1576.0</ele><time>2012-05-01T13:04:49.0000000+00:00</time></trkpt><trkpt lat="43.134506" lon="19.100315"><ele>1575.9</ele><time>2012-05-01T13:04:54.0000000+00:00</time></trkpt><trkpt lat="43.134521" lon="19.100266"><ele>1575.5</ele><time>2012-05-01T13:04:59.0000000+00:00</time></trkpt><trkpt lat="43.134537" lon="19.100233"><ele>1575.8</ele><time>2012-05-01T13:05:04.0000000+00:00</time></trkpt><trkpt lat="43.134571" lon="19.100225"><ele>1576.1</ele><time>2012-05-01T13:05:09.0000000+00:00</time></trkpt><trkpt lat="43.134598" lon="19.100199"><ele>1576.3</ele><time>2012-05-01T13:05:14.0000000+00:00</time></trkpt><trkpt lat="43.134632" lon="19.100185"><ele>1576.5</ele><time>2012-05-01T13:05:19.0000000+00:00</time></trkpt><trkpt lat="43.134659" lon="19.100164"><ele>1576.6</ele><time>2012-05-01T13:05:24.0000000+00:00</time></trkpt><trkpt lat="43.134701" lon="19.100153"><ele>1576.8</ele><time>2012-05-01T13:05:29.0000000+00:00</time></trkpt><trkpt lat="43.13472" lon="19.100113"><ele>1577.3</ele><time>2012-05-01T13:05:34.0000000+00:00</time></trkpt><trkpt lat="43.134754" lon="19.100096"><ele>1578.0</ele><time>2012-05-01T13:05:39.0000000+00:00</time></trkpt><trkpt lat="43.134758" lon="19.10005"><ele>1578.5</ele><time>2012-05-01T13:05:44.0000000+00:00</time></trkpt><trkpt lat="43.134777" lon="19.100018"><ele>1579.4</ele><time>2012-05-01T13:05:49.0000000+00:00</time></trkpt><trkpt lat="43.134785" lon="19.099998"><ele>1580.0</ele><time>2012-05-01T13:05:54.0000000+00:00</time></trkpt><trkpt lat="43.134842" lon="19.099989"><ele>1580.6</ele><time>2012-05-01T13:05:59.0000000+00:00</time></trkpt><trkpt lat="43.134876" lon="19.099958"><ele>1581.2</ele><time>2012-05-01T13:06:04.0000000+00:00</time></trkpt><trkpt lat="43.134926" lon="19.099934"><ele>1581.3</ele><time>2012-05-01T13:06:09.0000000+00:00</time></trkpt><trkpt lat="43.134983" lon="19.099928"><ele>1581.7</ele><time>2012-05-01T13:06:14.0000000+00:00</time></trkpt><trkpt lat="43.135056" lon="19.099874"><ele>1581.5</ele><time>2012-05-01T13:06:19.0000000+00:00</time></trkpt><trkpt lat="43.135109" lon="19.099842"><ele>1581.7</ele><time>2012-05-01T13:06:24.0000000+00:00</time></trkpt><trkpt lat="43.135159" lon="19.099737"><ele>1581.2</ele><time>2012-05-01T13:06:29.0000000+00:00</time></trkpt><trkpt lat="43.135189" lon="19.09971"><ele>1581.5</ele><time>2012-05-01T13:06:34.0000000+00:00</time></trkpt><trkpt lat="43.135227" lon="19.099661"><ele>1581.9</ele><time>2012-05-01T13:06:39.0000000+00:00</time></trkpt><trkpt lat="43.135273" lon="19.099598"><ele>1581.9</ele><time>2012-05-01T13:06:44.0000000+00:00</time></trkpt><trkpt lat="43.135262" lon="19.099541"><ele>1581.2</ele><time>2012-05-01T13:06:49.0000000+00:00</time></trkpt><trkpt lat="43.135284" lon="19.099468"><ele>1581.3</ele><time>2012-05-01T13:06:54.0000000+00:00</time></trkpt><trkpt lat="43.135307" lon="19.099442"><ele>1582.0</ele><time>2012-05-01T13:06:59.0000000+00:00</time></trkpt><trkpt lat="43.13533" lon="19.099438"><ele>1583.2</ele><time>2012-05-01T13:07:04.0000000+00:00</time></trkpt><trkpt lat="43.135357" lon="19.099426"><ele>1584.1</ele><time>2012-05-01T13:07:09.0000000+00:00</time></trkpt><trkpt lat="43.135399" lon="19.099407"><ele>1585.3</ele><time>2012-05-01T13:07:14.0000000+00:00</time></trkpt><trkpt lat="43.135445" lon="19.099386"><ele>1586.5</ele><time>2012-05-01T13:07:19.0000000+00:00</time></trkpt><trkpt lat="43.135498" lon="19.099386"><ele>1587.8</ele><time>2012-05-01T13:07:24.0000000+00:00</time></trkpt><trkpt lat="43.135551" lon="19.099337"><ele>1588.6</ele><time>2012-05-01T13:07:29.0000000+00:00</time></trkpt><trkpt lat="43.135571" lon="19.099216"><ele>1588.7</ele><time>2012-05-01T13:07:34.0000000+00:00</time></trkpt><trkpt lat="43.135612" lon="19.099148"><ele>1588.4</ele><time>2012-05-01T13:07:39.0000000+00:00</time></trkpt><trkpt lat="43.135674" lon="19.0991"><ele>1588.5</ele><time>2012-05-01T13:07:44.0000000+00:00</time></trkpt><trkpt lat="43.135674" lon="19.099085"><ele>1586.6</ele><time>2012-05-01T13:07:49.0000000+00:00</time></trkpt><trkpt lat="43.1357" lon="19.099041"><ele>1586.0</ele><time>2012-05-01T13:07:54.0000000+00:00</time></trkpt><trkpt lat="43.135738" lon="19.099072"><ele>1585.7</ele><time>2012-05-01T13:07:59.0000000+00:00</time></trkpt><trkpt lat="43.135735" lon="19.099033"><ele>1585.3</ele><time>2012-05-01T13:08:04.0000000+00:00</time></trkpt><trkpt lat="43.135738" lon="19.09897"><ele>1584.6</ele><time>2012-05-01T13:08:09.0000000+00:00</time></trkpt><trkpt lat="43.135731" lon="19.098938"><ele>1584.6</ele><time>2012-05-01T13:08:14.0000000+00:00</time></trkpt><trkpt lat="43.135742" lon="19.098944"><ele>1584.5</ele><time>2012-05-01T13:08:19.0000000+00:00</time></trkpt><trkpt lat="43.135738" lon="19.09894"><ele>1584.6</ele><time>2012-05-01T13:08:24.0000000+00:00</time></trkpt><trkpt lat="43.135738" lon="19.098921"><ele>1584.7</ele><time>2012-05-01T13:08:29.0000000+00:00</time></trkpt><trkpt lat="43.135738" lon="19.098904"><ele>1584.1</ele><time>2012-05-01T13:08:34.0000000+00:00</time></trkpt><trkpt lat="43.135719" lon="19.098862"><ele>1583.9</ele><time>2012-05-01T13:08:39.0000000+00:00</time></trkpt><trkpt lat="43.135715" lon="19.098858"><ele>1583.8</ele><time>2012-05-01T13:08:44.0000000+00:00</time></trkpt><trkpt lat="43.135696" lon="19.098896"><ele>1584.2</ele><time>2012-05-01T13:08:49.0000000+00:00</time></trkpt><trkpt lat="43.135738" lon="19.098873"><ele>1583.4</ele><time>2012-05-01T13:08:54.0000000+00:00</time></trkpt><trkpt lat="43.135769" lon="19.098814"><ele>1583.0</ele><time>2012-05-01T13:08:59.0000000+00:00</time></trkpt><trkpt lat="43.135815" lon="19.098804"><ele>1583.2</ele><time>2012-05-01T13:09:04.0000000+00:00</time></trkpt><trkpt lat="43.135872" lon="19.098713"><ele>1582.6</ele><time>2012-05-01T13:09:09.0000000+00:00</time></trkpt><trkpt lat="43.135948" lon="19.098644"><ele>1581.4</ele><time>2012-05-01T13:09:14.0000000+00:00</time></trkpt><trkpt lat="43.136013" lon="19.09857"><ele>1579.5</ele><time>2012-05-01T13:09:19.0000000+00:00</time></trkpt><trkpt lat="43.136032" lon="19.098513"><ele>1579.0</ele><time>2012-05-01T13:09:24.0000000+00:00</time></trkpt><trkpt lat="43.136074" lon="19.098501"><ele>1578.0</ele><time>2012-05-01T13:09:29.0000000+00:00</time></trkpt><trkpt lat="43.136116" lon="19.098476"><ele>1575.8</ele><time>2012-05-01T13:09:34.0000000+00:00</time></trkpt><trkpt lat="43.136158" lon="19.098452"><ele>1575.2</ele><time>2012-05-01T13:09:39.0000000+00:00</time></trkpt><trkpt lat="43.1362" lon="19.098446"><ele>1575.1</ele><time>2012-05-01T13:09:44.0000000+00:00</time></trkpt><trkpt lat="43.136219" lon="19.098427"><ele>1575.2</ele><time>2012-05-01T13:09:49.0000000+00:00</time></trkpt><trkpt lat="43.136227" lon="19.098429"><ele>1576.7</ele><time>2012-05-01T13:09:54.0000000+00:00</time></trkpt><trkpt lat="43.136219" lon="19.098392"><ele>1577.3</ele><time>2012-05-01T13:09:59.0000000+00:00</time></trkpt><trkpt lat="43.136242" lon="19.098341"><ele>1577.0</ele><time>2012-05-01T13:10:04.0000000+00:00</time></trkpt><trkpt lat="43.136272" lon="19.098324"><ele>1577.0</ele><time>2012-05-01T13:10:09.0000000+00:00</time></trkpt><trkpt lat="43.136333" lon="19.098289"><ele>1577.1</ele><time>2012-05-01T13:10:14.0000000+00:00</time></trkpt><trkpt lat="43.136375" lon="19.098276"><ele>1577.4</ele><time>2012-05-01T13:10:19.0000000+00:00</time></trkpt><trkpt lat="43.136421" lon="19.09827"><ele>1578.0</ele><time>2012-05-01T13:10:24.0000000+00:00</time></trkpt><trkpt lat="43.136456" lon="19.09827"><ele>1578.8</ele><time>2012-05-01T13:10:29.0000000+00:00</time></trkpt><trkpt lat="43.136505" lon="19.09828"><ele>1579.3</ele><time>2012-05-01T13:10:34.0000000+00:00</time></trkpt><trkpt lat="43.136547" lon="19.098297"><ele>1579.9</ele><time>2012-05-01T13:10:39.0000000+00:00</time></trkpt><trkpt lat="43.136589" lon="19.098324"><ele>1580.3</ele><time>2012-05-01T13:10:44.0000000+00:00</time></trkpt><trkpt lat="43.136623" lon="19.098318"><ele>1581.0</ele><time>2012-05-01T13:10:49.0000000+00:00</time></trkpt><trkpt lat="43.136669" lon="19.09828"><ele>1581.5</ele><time>2012-05-01T13:10:54.0000000+00:00</time></trkpt><trkpt lat="43.136723" lon="19.098251"><ele>1581.5</ele><time>2012-05-01T13:10:59.0000000+00:00</time></trkpt><trkpt lat="43.136768" lon="19.098209"><ele>1581.9</ele><time>2012-05-01T13:11:04.0000000+00:00</time></trkpt><trkpt lat="43.136818" lon="19.098217"><ele>1582.2</ele><time>2012-05-01T13:11:09.0000000+00:00</time></trkpt><trkpt lat="43.136871" lon="19.098207"><ele>1582.8</ele><time>2012-05-01T13:11:14.0000000+00:00</time></trkpt><trkpt lat="43.136951" lon="19.098166"><ele>1583.2</ele><time>2012-05-01T13:11:19.0000000+00:00</time></trkpt><trkpt lat="43.13699" lon="19.098167"><ele>1583.5</ele><time>2012-05-01T13:11:24.0000000+00:00</time></trkpt><trkpt lat="43.137016" lon="19.098183"><ele>1582.8</ele><time>2012-05-01T13:11:29.0000000+00:00</time></trkpt><trkpt lat="43.137108" lon="19.098198"><ele>1581.2</ele><time>2012-05-01T13:11:34.0000000+00:00</time></trkpt><trkpt lat="43.137173" lon="19.098173"><ele>1580.2</ele><time>2012-05-01T13:11:39.0000000+00:00</time></trkpt><trkpt lat="43.137268" lon="19.098143"><ele>1578.9</ele><time>2012-05-01T13:11:44.0000000+00:00</time></trkpt><trkpt lat="43.137352" lon="19.098135"><ele>1577.6</ele><time>2012-05-01T13:11:49.0000000+00:00</time></trkpt><trkpt lat="43.137417" lon="19.098141"><ele>1574.3</ele><time>2012-05-01T13:11:54.0000000+00:00</time></trkpt><trkpt lat="43.137459" lon="19.098158"><ele>1573.0</ele><time>2012-05-01T13:11:59.0000000+00:00</time></trkpt><trkpt lat="43.137482" lon="19.098148"><ele>1570.2</ele><time>2012-05-01T13:12:04.0000000+00:00</time></trkpt><trkpt lat="43.137482" lon="19.098148"><ele>1570.1</ele><time>2012-05-01T13:12:09.0000000+00:00</time></trkpt><trkpt lat="43.137486" lon="19.098148"><ele>1570.0</ele><time>2012-05-01T13:12:14.0000000+00:00</time></trkpt><trkpt lat="43.137486" lon="19.09815"><ele>1570.0</ele><time>2012-05-01T13:12:19.0000000+00:00</time></trkpt><trkpt lat="43.137516" lon="19.098141"><ele>1569.1</ele><time>2012-05-01T13:12:24.0000000+00:00</time></trkpt><trkpt lat="43.137543" lon="19.098137"><ele>1568.5</ele><time>2012-05-01T13:12:29.0000000+00:00</time></trkpt><trkpt lat="43.13755" lon="19.098139"><ele>1568.3</ele><time>2012-05-01T13:12:34.0000000+00:00</time></trkpt><trkpt lat="43.137566" lon="19.098133"><ele>1568.1</ele><time>2012-05-01T13:12:39.0000000+00:00</time></trkpt><trkpt lat="43.137577" lon="19.098125"><ele>1568.0</ele><time>2012-05-01T13:12:44.0000000+00:00</time></trkpt><trkpt lat="43.137562" lon="19.09815"><ele>1567.9</ele><time>2012-05-01T13:12:49.0000000+00:00</time></trkpt><trkpt lat="43.137569" lon="19.098158"><ele>1567.9</ele><time>2012-05-01T13:12:54.0000000+00:00</time></trkpt><trkpt lat="43.137577" lon="19.098158"><ele>1567.8</ele><time>2012-05-01T13:12:59.0000000+00:00</time></trkpt><trkpt lat="43.137581" lon="19.09815"><ele>1567.7</ele><time>2012-05-01T13:13:04.0000000+00:00</time></trkpt><trkpt lat="43.137554" lon="19.098114"><ele>1567.5</ele><time>2012-05-01T13:13:09.0000000+00:00</time></trkpt><trkpt lat="43.137539" lon="19.09804"><ele>1567.4</ele><time>2012-05-01T13:13:14.0000000+00:00</time></trkpt><trkpt lat="43.137516" lon="19.097994"><ele>1567.2</ele><time>2012-05-01T13:13:19.0000000+00:00</time></trkpt><trkpt lat="43.137493" lon="19.098003"><ele>1567.0</ele><time>2012-05-01T13:13:24.0000000+00:00</time></trkpt><trkpt lat="43.137486" lon="19.097994"><ele>1566.9</ele><time>2012-05-01T13:13:29.0000000+00:00</time></trkpt><trkpt lat="43.137478" lon="19.098"><ele>1566.8</ele><time>2012-05-01T13:13:34.0000000+00:00</time></trkpt><trkpt lat="43.137482" lon="19.098009"><ele>1566.7</ele><time>2012-05-01T13:13:39.0000000+00:00</time></trkpt><trkpt lat="43.137486" lon="19.098021"><ele>1566.6</ele><time>2012-05-01T13:13:44.0000000+00:00</time></trkpt><trkpt lat="43.137508" lon="19.09804"><ele>1566.9</ele><time>2012-05-01T13:13:49.0000000+00:00</time></trkpt><trkpt lat="43.137524" lon="19.098043"><ele>1566.8</ele><time>2012-05-01T13:13:54.0000000+00:00</time></trkpt><trkpt lat="43.137516" lon="19.098064"><ele>1566.6</ele><time>2012-05-01T13:13:59.0000000+00:00</time></trkpt><trkpt lat="43.137516" lon="19.098076"><ele>1566.6</ele><time>2012-05-01T13:14:04.0000000+00:00</time></trkpt><trkpt lat="43.137512" lon="19.098083"><ele>1566.5</ele><time>2012-05-01T13:14:09.0000000+00:00</time></trkpt><trkpt lat="43.137508" lon="19.098085"><ele>1566.5</ele><time>2012-05-01T13:14:14.0000000+00:00</time></trkpt><trkpt lat="43.137501" lon="19.098085"><ele>1566.5</ele><time>2012-05-01T13:14:19.0000000+00:00</time></trkpt><trkpt lat="43.137497" lon="19.098091"><ele>1566.5</ele><time>2012-05-01T13:14:24.0000000+00:00</time></trkpt><trkpt lat="43.137493" lon="19.098095"><ele>1566.5</ele><time>2012-05-01T13:14:29.0000000+00:00</time></trkpt><trkpt lat="43.137489" lon="19.098093"><ele>1566.7</ele><time>2012-05-01T13:14:34.0000000+00:00</time></trkpt><trkpt lat="43.137482" lon="19.098087"><ele>1567.0</ele><time>2012-05-01T13:14:39.0000000+00:00</time></trkpt><trkpt lat="43.137482" lon="19.098087"><ele>1567.3</ele><time>2012-05-01T13:14:44.0000000+00:00</time></trkpt><trkpt lat="43.137493" lon="19.098089"><ele>1567.5</ele><time>2012-05-01T13:14:49.0000000+00:00</time></trkpt><trkpt lat="43.13752" lon="19.098125"><ele>1567.6</ele><time>2012-05-01T13:14:54.0000000+00:00</time></trkpt><trkpt lat="43.137547" lon="19.098137"><ele>1567.9</ele><time>2012-05-01T13:14:59.0000000+00:00</time></trkpt><trkpt lat="43.137573" lon="19.098167"><ele>1568.2</ele><time>2012-05-01T13:15:04.0000000+00:00</time></trkpt><trkpt lat="43.137615" lon="19.098223"><ele>1568.5</ele><time>2012-05-01T13:15:09.0000000+00:00</time></trkpt><trkpt lat="43.137661" lon="19.098228"><ele>1568.7</ele><time>2012-05-01T13:15:14.0000000+00:00</time></trkpt><trkpt lat="43.137726" lon="19.098236"><ele>1568.8</ele><time>2012-05-01T13:15:19.0000000+00:00</time></trkpt><trkpt lat="43.137814" lon="19.098171"><ele>1568.9</ele><time>2012-05-01T13:15:24.0000000+00:00</time></trkpt><trkpt lat="43.13792" lon="19.098099"><ele>1569.0</ele><time>2012-05-01T13:15:29.0000000+00:00</time></trkpt><trkpt lat="43.137966" lon="19.098072"><ele>1569.5</ele><time>2012-05-01T13:15:34.0000000+00:00</time></trkpt><trkpt lat="43.138016" lon="19.098045"><ele>1570.5</ele><time>2012-05-01T13:15:39.0000000+00:00</time></trkpt><trkpt lat="43.138081" lon="19.098036"><ele>1571.5</ele><time>2012-05-01T13:15:44.0000000+00:00</time></trkpt><trkpt lat="43.138176" lon="19.098032"><ele>1572.5</ele><time>2012-05-01T13:15:49.0000000+00:00</time></trkpt><trkpt lat="43.138245" lon="19.097996"><ele>1573.7</ele><time>2012-05-01T13:15:54.0000000+00:00</time></trkpt><trkpt lat="43.138283" lon="19.097992"><ele>1575.1</ele><time>2012-05-01T13:15:59.0000000+00:00</time></trkpt><trkpt lat="43.138409" lon="19.097893"><ele>1575.4</ele><time>2012-05-01T13:16:04.0000000+00:00</time></trkpt><trkpt lat="43.138428" lon="19.097843"><ele>1576.7</ele><time>2012-05-01T13:16:09.0000000+00:00</time></trkpt><trkpt lat="43.138443" lon="19.097826"><ele>1577.6</ele><time>2012-05-01T13:16:14.0000000+00:00</time></trkpt><trkpt lat="43.138466" lon="19.097799"><ele>1577.9</ele><time>2012-05-01T13:16:19.0000000+00:00</time></trkpt><trkpt lat="43.138515" lon="19.097761"><ele>1578.2</ele><time>2012-05-01T13:16:24.0000000+00:00</time></trkpt><trkpt lat="43.138645" lon="19.09782"><ele>1577.5</ele><time>2012-05-01T13:16:29.0000000+00:00</time></trkpt><trkpt lat="43.138676" lon="19.097788"><ele>1578.0</ele><time>2012-05-01T13:16:34.0000000+00:00</time></trkpt><trkpt lat="43.138676" lon="19.097733"><ele>1578.2</ele><time>2012-05-01T13:16:39.0000000+00:00</time></trkpt><trkpt lat="43.138737" lon="19.097633"><ele>1578.2</ele><time>2012-05-01T13:16:44.0000000+00:00</time></trkpt><trkpt lat="43.138741" lon="19.097603"><ele>1578.5</ele><time>2012-05-01T13:16:49.0000000+00:00</time></trkpt><trkpt lat="43.138752" lon="19.097603"><ele>1578.9</ele><time>2012-05-01T13:16:54.0000000+00:00</time></trkpt><trkpt lat="43.138763" lon="19.097584"><ele>1578.8</ele><time>2012-05-01T13:16:59.0000000+00:00</time></trkpt><trkpt lat="43.138798" lon="19.097549"><ele>1578.6</ele><time>2012-05-01T13:17:04.0000000+00:00</time></trkpt><trkpt lat="43.138859" lon="19.09757"><ele>1578.4</ele><time>2012-05-01T13:17:09.0000000+00:00</time></trkpt><trkpt lat="43.138927" lon="19.097538"><ele>1577.5</ele><time>2012-05-01T13:17:14.0000000+00:00</time></trkpt><trkpt lat="43.138985" lon="19.097469"><ele>1576.0</ele><time>2012-05-01T13:17:19.0000000+00:00</time></trkpt><trkpt lat="43.139015" lon="19.097443"><ele>1576.0</ele><time>2012-05-01T13:17:24.0000000+00:00</time></trkpt><trkpt lat="43.139114" lon="19.097372"><ele>1574.9</ele><time>2012-05-01T13:17:29.0000000+00:00</time></trkpt><trkpt lat="43.139214" lon="19.097282"><ele>1574.1</ele><time>2012-05-01T13:17:34.0000000+00:00</time></trkpt><trkpt lat="43.13929" lon="19.097229"><ele>1573.4</ele><time>2012-05-01T13:17:39.0000000+00:00</time></trkpt><trkpt lat="43.139336" lon="19.097185"><ele>1573.3</ele><time>2012-05-01T13:17:44.0000000+00:00</time></trkpt><trkpt lat="43.139332" lon="19.097193"><ele>1573.8</ele><time>2012-05-01T13:17:49.0000000+00:00</time></trkpt><trkpt lat="43.139313" lon="19.097195"><ele>1574.3</ele><time>2012-05-01T13:17:54.0000000+00:00</time></trkpt><trkpt lat="43.139313" lon="19.09721"><ele>1575.0</ele><time>2012-05-01T13:17:59.0000000+00:00</time></trkpt><trkpt lat="43.139324" lon="19.097223"><ele>1576.4</ele><time>2012-05-01T13:18:04.0000000+00:00</time></trkpt><trkpt lat="43.139343" lon="19.097227"><ele>1577.8</ele><time>2012-05-01T13:18:09.0000000+00:00</time></trkpt><trkpt lat="43.139359" lon="19.097242"><ele>1579.2</ele><time>2012-05-01T13:18:14.0000000+00:00</time></trkpt><trkpt lat="43.139393" lon="19.097258"><ele>1580.8</ele><time>2012-05-01T13:18:19.0000000+00:00</time></trkpt><trkpt lat="43.139439" lon="19.097235"><ele>1580.2</ele><time>2012-05-01T13:18:24.0000000+00:00</time></trkpt><trkpt lat="43.139492" lon="19.097225"><ele>1580.8</ele><time>2012-05-01T13:18:29.0000000+00:00</time></trkpt><trkpt lat="43.139526" lon="19.09721"><ele>1581.5</ele><time>2012-05-01T13:18:34.0000000+00:00</time></trkpt><trkpt lat="43.139584" lon="19.097185"><ele>1582.3</ele><time>2012-05-01T13:18:39.0000000+00:00</time></trkpt><trkpt lat="43.139618" lon="19.097136"><ele>1583.3</ele><time>2012-05-01T13:18:44.0000000+00:00</time></trkpt><trkpt lat="43.139652" lon="19.097082"><ele>1584.1</ele><time>2012-05-01T13:18:49.0000000+00:00</time></trkpt><trkpt lat="43.139679" lon="19.097103"><ele>1585.0</ele><time>2012-05-01T13:18:54.0000000+00:00</time></trkpt><trkpt lat="43.139706" lon="19.097082"><ele>1585.9</ele><time>2012-05-01T13:18:59.0000000+00:00</time></trkpt><trkpt lat="43.139729" lon="19.09705"><ele>1586.6</ele><time>2012-05-01T13:19:04.0000000+00:00</time></trkpt><trkpt lat="43.139782" lon="19.097002"><ele>1587.2</ele><time>2012-05-01T13:19:09.0000000+00:00</time></trkpt><trkpt lat="43.139816" lon="19.096968"><ele>1587.9</ele><time>2012-05-01T13:19:14.0000000+00:00</time></trkpt><trkpt lat="43.139843" lon="19.096943"><ele>1588.6</ele><time>2012-05-01T13:19:19.0000000+00:00</time></trkpt><trkpt lat="43.139885" lon="19.096926"><ele>1588.7</ele><time>2012-05-01T13:19:24.0000000+00:00</time></trkpt><trkpt lat="43.139935" lon="19.096891"><ele>1589.0</ele><time>2012-05-01T13:19:29.0000000+00:00</time></trkpt><trkpt lat="43.139973" lon="19.096872"><ele>1589.3</ele><time>2012-05-01T13:19:34.0000000+00:00</time></trkpt><trkpt lat="43.140011" lon="19.096853"><ele>1589.6</ele><time>2012-05-01T13:19:39.0000000+00:00</time></trkpt><trkpt lat="43.140064" lon="19.096804"><ele>1589.5</ele><time>2012-05-01T13:19:44.0000000+00:00</time></trkpt><trkpt lat="43.140129" lon="19.096735"><ele>1589.8</ele><time>2012-05-01T13:19:49.0000000+00:00</time></trkpt><trkpt lat="43.140179" lon="19.096691"><ele>1589.8</ele><time>2012-05-01T13:19:54.0000000+00:00</time></trkpt><trkpt lat="43.140236" lon="19.096672"><ele>1589.9</ele><time>2012-05-01T13:19:59.0000000+00:00</time></trkpt><trkpt lat="43.14027" lon="19.09663"><ele>1590.1</ele><time>2012-05-01T13:20:04.0000000+00:00</time></trkpt><trkpt lat="43.140308" lon="19.096642"><ele>1589.1</ele><time>2012-05-01T13:20:09.0000000+00:00</time></trkpt><trkpt lat="43.140347" lon="19.096613"><ele>1588.8</ele><time>2012-05-01T13:20:14.0000000+00:00</time></trkpt><trkpt lat="43.140377" lon="19.096596"><ele>1588.3</ele><time>2012-05-01T13:20:19.0000000+00:00</time></trkpt><trkpt lat="43.140442" lon="19.096552"><ele>1587.6</ele><time>2012-05-01T13:20:24.0000000+00:00</time></trkpt><trkpt lat="43.140461" lon="19.096525"><ele>1587.3</ele><time>2012-05-01T13:20:29.0000000+00:00</time></trkpt><trkpt lat="43.14048" lon="19.096491"><ele>1586.3</ele><time>2012-05-01T13:20:34.0000000+00:00</time></trkpt><trkpt lat="43.140507" lon="19.09646"><ele>1584.5</ele><time>2012-05-01T13:20:39.0000000+00:00</time></trkpt><trkpt lat="43.140514" lon="19.096432"><ele>1583.6</ele><time>2012-05-01T13:20:44.0000000+00:00</time></trkpt><trkpt lat="43.140572" lon="19.096434"><ele>1582.1</ele><time>2012-05-01T13:20:49.0000000+00:00</time></trkpt><trkpt lat="43.140633" lon="19.096397"><ele>1581.1</ele><time>2012-05-01T13:20:54.0000000+00:00</time></trkpt><trkpt lat="43.14072" lon="19.096338"><ele>1578.2</ele><time>2012-05-01T13:20:59.0000000+00:00</time></trkpt><trkpt lat="43.140797" lon="19.096304"><ele>1576.4</ele><time>2012-05-01T13:21:04.0000000+00:00</time></trkpt><trkpt lat="43.140839" lon="19.096294"><ele>1574.2</ele><time>2012-05-01T13:21:09.0000000+00:00</time></trkpt><trkpt lat="43.140873" lon="19.096289"><ele>1573.3</ele><time>2012-05-01T13:21:14.0000000+00:00</time></trkpt><trkpt lat="43.140923" lon="19.096272"><ele>1571.6</ele><time>2012-05-01T13:21:19.0000000+00:00</time></trkpt><trkpt lat="43.140968" lon="19.096272"><ele>1570.5</ele><time>2012-05-01T13:21:24.0000000+00:00</time></trkpt><trkpt lat="43.141125" lon="19.096518"><ele>1562.5</ele><time>2012-05-01T13:21:29.0000000+00:00</time></trkpt><trkpt lat="43.14122" lon="19.096539"><ele>1558.9</ele><time>2012-05-01T13:21:34.0000000+00:00</time></trkpt><trkpt lat="43.141277" lon="19.096518"><ele>1555.7</ele><time>2012-05-01T13:21:39.0000000+00:00</time></trkpt><trkpt lat="43.141357" lon="19.096556"><ele>1551.5</ele><time>2012-05-01T13:21:44.0000000+00:00</time></trkpt><trkpt lat="43.14138" lon="19.096594"><ele>1549.7</ele><time>2012-05-01T13:21:49.0000000+00:00</time></trkpt><trkpt lat="43.141411" lon="19.096594"><ele>1547.0</ele><time>2012-05-01T13:21:54.0000000+00:00</time></trkpt><trkpt lat="43.141434" lon="19.096613"><ele>1544.5</ele><time>2012-05-01T13:21:59.0000000+00:00</time></trkpt><trkpt lat="43.141483" lon="19.096653"><ele>1542.4</ele><time>2012-05-01T13:22:04.0000000+00:00</time></trkpt><trkpt lat="43.141529" lon="19.09667"><ele>1539.9</ele><time>2012-05-01T13:22:09.0000000+00:00</time></trkpt><trkpt lat="43.141598" lon="19.096661"><ele>1538.8</ele><time>2012-05-01T13:22:14.0000000+00:00</time></trkpt><trkpt lat="43.14164" lon="19.096605"><ele>1536.7</ele><time>2012-05-01T13:22:19.0000000+00:00</time></trkpt><trkpt lat="43.141685" lon="19.096613"><ele>1535.5</ele><time>2012-05-01T13:22:24.0000000+00:00</time></trkpt><trkpt lat="43.141754" lon="19.096678"><ele>1528.9</ele><time>2012-05-01T13:22:29.0000000+00:00</time></trkpt><trkpt lat="43.141731" lon="19.096676"><ele>1525.8</ele><time>2012-05-01T13:22:34.0000000+00:00</time></trkpt><trkpt lat="43.141727" lon="19.096678"><ele>1525.0</ele><time>2012-05-01T13:22:39.0000000+00:00</time></trkpt><trkpt lat="43.141724" lon="19.096684"><ele>1524.3</ele><time>2012-05-01T13:22:44.0000000+00:00</time></trkpt><trkpt lat="43.141724" lon="19.096687"><ele>1523.5</ele><time>2012-05-01T13:22:49.0000000+00:00</time></trkpt><trkpt lat="43.141735" lon="19.096684"><ele>1522.7</ele><time>2012-05-01T13:22:54.0000000+00:00</time></trkpt><trkpt lat="43.141743" lon="19.09668"><ele>1521.9</ele><time>2012-05-01T13:22:59.0000000+00:00</time></trkpt><trkpt lat="43.141769" lon="19.096674"><ele>1520.6</ele><time>2012-05-01T13:23:04.0000000+00:00</time></trkpt><trkpt lat="43.141819" lon="19.096697"><ele>1517.1</ele><time>2012-05-01T13:23:09.0000000+00:00</time></trkpt><trkpt lat="43.141834" lon="19.096712"><ele>1514.7</ele><time>2012-05-01T13:23:14.0000000+00:00</time></trkpt><trkpt lat="43.141838" lon="19.096724"><ele>1513.0</ele><time>2012-05-01T13:23:19.0000000+00:00</time></trkpt><trkpt lat="43.141865" lon="19.096748"><ele>1510.9</ele><time>2012-05-01T13:23:24.0000000+00:00</time></trkpt><trkpt lat="43.141884" lon="19.096706"><ele>1510.5</ele><time>2012-05-01T13:23:29.0000000+00:00</time></trkpt><trkpt lat="43.141895" lon="19.096706"><ele>1509.9</ele><time>2012-05-01T13:23:34.0000000+00:00</time></trkpt><trkpt lat="43.141907" lon="19.096718"><ele>1508.8</ele><time>2012-05-01T13:23:39.0000000+00:00</time></trkpt><trkpt lat="43.141891" lon="19.096716"><ele>1507.9</ele><time>2012-05-01T13:23:44.0000000+00:00</time></trkpt><trkpt lat="43.141914" lon="19.096703"><ele>1507.1</ele><time>2012-05-01T13:23:49.0000000+00:00</time></trkpt><trkpt lat="43.141945" lon="19.096693"><ele>1506.1</ele><time>2012-05-01T13:23:54.0000000+00:00</time></trkpt><trkpt lat="43.142017" lon="19.096672"><ele>1505.5</ele><time>2012-05-01T13:23:59.0000000+00:00</time></trkpt><trkpt lat="43.142067" lon="19.096621"><ele>1504.8</ele><time>2012-05-01T13:24:04.0000000+00:00</time></trkpt><trkpt lat="43.142101" lon="19.096657"><ele>1504.1</ele><time>2012-05-01T13:24:09.0000000+00:00</time></trkpt><trkpt lat="43.14212" lon="19.096674"><ele>1503.2</ele><time>2012-05-01T13:24:14.0000000+00:00</time></trkpt><trkpt lat="43.14212" lon="19.09668"><ele>1502.7</ele><time>2012-05-01T13:24:19.0000000+00:00</time></trkpt><trkpt lat="43.142128" lon="19.096687"><ele>1502.1</ele><time>2012-05-01T13:24:24.0000000+00:00</time></trkpt><trkpt lat="43.142159" lon="19.096649"><ele>1501.6</ele><time>2012-05-01T13:24:29.0000000+00:00</time></trkpt><trkpt lat="43.142132" lon="19.096628"><ele>1501.3</ele><time>2012-05-01T13:24:34.0000000+00:00</time></trkpt><trkpt lat="43.142124" lon="19.09659"><ele>1500.6</ele><time>2012-05-01T13:24:39.0000000+00:00</time></trkpt><trkpt lat="43.142128" lon="19.096584"><ele>1500.5</ele><time>2012-05-01T13:24:44.0000000+00:00</time></trkpt><trkpt lat="43.142136" lon="19.096575"><ele>1500.0</ele><time>2012-05-01T13:24:49.0000000+00:00</time></trkpt><trkpt lat="43.142143" lon="19.096569"><ele>1499.7</ele><time>2012-05-01T13:24:54.0000000+00:00</time></trkpt><trkpt lat="43.142155" lon="19.096586"><ele>1499.3</ele><time>2012-05-01T13:24:59.0000000+00:00</time></trkpt><trkpt lat="43.142212" lon="19.096632"><ele>1498.4</ele><time>2012-05-01T13:25:04.0000000+00:00</time></trkpt><trkpt lat="43.142242" lon="19.096661"><ele>1497.7</ele><time>2012-05-01T13:25:09.0000000+00:00</time></trkpt><trkpt lat="43.142262" lon="19.096691"><ele>1496.9</ele><time>2012-05-01T13:25:14.0000000+00:00</time></trkpt><trkpt lat="43.1423" lon="19.096674"><ele>1496.4</ele><time>2012-05-01T13:25:19.0000000+00:00</time></trkpt><trkpt lat="43.142365" lon="19.096645"><ele>1496.0</ele><time>2012-05-01T13:25:24.0000000+00:00</time></trkpt><trkpt lat="43.142498" lon="19.096518"><ele>1495.4</ele><time>2012-05-01T13:25:29.0000000+00:00</time></trkpt><trkpt lat="43.14254" lon="19.096479"><ele>1495.1</ele><time>2012-05-01T13:25:34.0000000+00:00</time></trkpt><trkpt lat="43.142609" lon="19.096478"><ele>1495.0</ele><time>2012-05-01T13:25:39.0000000+00:00</time></trkpt><trkpt lat="43.142632" lon="19.096478"><ele>1495.1</ele><time>2012-05-01T13:25:44.0000000+00:00</time></trkpt><trkpt lat="43.142612" lon="19.096472"><ele>1495.4</ele><time>2012-05-01T13:25:49.0000000+00:00</time></trkpt><trkpt lat="43.142651" lon="19.096455"><ele>1495.8</ele><time>2012-05-01T13:25:54.0000000+00:00</time></trkpt><trkpt lat="43.142704" lon="19.096426"><ele>1496.3</ele><time>2012-05-01T13:25:59.0000000+00:00</time></trkpt><trkpt lat="43.142738" lon="19.096403"><ele>1496.7</ele><time>2012-05-01T13:26:04.0000000+00:00</time></trkpt><trkpt lat="43.142769" lon="19.096394"><ele>1497.1</ele><time>2012-05-01T13:26:09.0000000+00:00</time></trkpt><trkpt lat="43.142796" lon="19.096413"><ele>1497.5</ele><time>2012-05-01T13:26:14.0000000+00:00</time></trkpt><trkpt lat="43.142776" lon="19.096409"><ele>1497.9</ele><time>2012-05-01T13:26:19.0000000+00:00</time></trkpt><trkpt lat="43.142757" lon="19.096411"><ele>1498.3</ele><time>2012-05-01T13:26:24.0000000+00:00</time></trkpt><trkpt lat="43.142731" lon="19.096415"><ele>1498.7</ele><time>2012-05-01T13:26:29.0000000+00:00</time></trkpt><trkpt lat="43.142727" lon="19.096439"><ele>1499.2</ele><time>2012-05-01T13:26:34.0000000+00:00</time></trkpt><trkpt lat="43.142727" lon="19.096436"><ele>1499.6</ele><time>2012-05-01T13:26:39.0000000+00:00</time></trkpt><trkpt lat="43.142727" lon="19.096428"><ele>1500.1</ele><time>2012-05-01T13:26:44.0000000+00:00</time></trkpt><trkpt lat="43.142723" lon="19.09642"><ele>1500.6</ele><time>2012-05-01T13:26:49.0000000+00:00</time></trkpt><trkpt lat="43.142719" lon="19.096413"><ele>1501.2</ele><time>2012-05-01T13:26:54.0000000+00:00</time></trkpt><trkpt lat="43.142723" lon="19.096411"><ele>1501.7</ele><time>2012-05-01T13:26:59.0000000+00:00</time></trkpt><trkpt lat="43.142723" lon="19.096407"><ele>1502.3</ele><time>2012-05-01T13:27:04.0000000+00:00</time></trkpt><trkpt lat="43.142723" lon="19.096401"><ele>1502.8</ele><time>2012-05-01T13:27:09.0000000+00:00</time></trkpt><trkpt lat="43.142723" lon="19.096395"><ele>1503.4</ele><time>2012-05-01T13:27:14.0000000+00:00</time></trkpt><trkpt lat="43.142727" lon="19.096386"><ele>1504.0</ele><time>2012-05-01T13:27:19.0000000+00:00</time></trkpt><trkpt lat="43.142727" lon="19.096275"><ele>1504.6</ele><time>2012-05-01T13:27:24.0000000+00:00</time></trkpt><trkpt lat="43.142731" lon="19.096216"><ele>1505.2</ele><time>2012-05-01T13:27:29.0000000+00:00</time></trkpt><trkpt lat="43.142746" lon="19.096203"><ele>1505.9</ele><time>2012-05-01T13:27:34.0000000+00:00</time></trkpt><trkpt lat="43.142799" lon="19.096149"><ele>1506.5</ele><time>2012-05-01T13:27:39.0000000+00:00</time></trkpt><trkpt lat="43.142822" lon="19.096132"><ele>1507.0</ele><time>2012-05-01T13:27:44.0000000+00:00</time></trkpt><trkpt lat="43.142818" lon="19.096119"><ele>1507.6</ele><time>2012-05-01T13:27:49.0000000+00:00</time></trkpt><trkpt lat="43.142876" lon="19.096052"><ele>1508.3</ele><time>2012-05-01T13:27:54.0000000+00:00</time></trkpt><trkpt lat="43.142925" lon="19.096031"><ele>1508.8</ele><time>2012-05-01T13:27:59.0000000+00:00</time></trkpt><trkpt lat="43.14296" lon="19.096041"><ele>1509.2</ele><time>2012-05-01T13:28:04.0000000+00:00</time></trkpt><trkpt lat="43.143009" lon="19.09605"><ele>1509.8</ele><time>2012-05-01T13:28:09.0000000+00:00</time></trkpt><trkpt lat="43.143066" lon="19.096098"><ele>1510.4</ele><time>2012-05-01T13:28:14.0000000+00:00</time></trkpt><trkpt lat="43.143097" lon="19.096088"><ele>1511.1</ele><time>2012-05-01T13:28:19.0000000+00:00</time></trkpt><trkpt lat="43.143124" lon="19.096088"><ele>1511.7</ele><time>2012-05-01T13:28:24.0000000+00:00</time></trkpt><trkpt lat="43.143154" lon="19.096098"><ele>1512.4</ele><time>2012-05-01T13:28:29.0000000+00:00</time></trkpt><trkpt lat="43.143185" lon="19.096088"><ele>1513.0</ele><time>2012-05-01T13:28:34.0000000+00:00</time></trkpt><trkpt lat="43.143204" lon="19.096035"><ele>1513.7</ele><time>2012-05-01T13:28:39.0000000+00:00</time></trkpt><trkpt lat="43.143242" lon="19.095922"><ele>1514.3</ele><time>2012-05-01T13:28:44.0000000+00:00</time></trkpt><trkpt lat="43.143333" lon="19.095886"><ele>1515.4</ele><time>2012-05-01T13:28:49.0000000+00:00</time></trkpt><trkpt lat="43.143402" lon="19.0959"><ele>1516.3</ele><time>2012-05-01T13:28:54.0000000+00:00</time></trkpt><trkpt lat="43.143463" lon="19.095871"><ele>1516.9</ele><time>2012-05-01T13:28:59.0000000+00:00</time></trkpt><trkpt lat="43.143547" lon="19.0959"><ele>1517.3</ele><time>2012-05-01T13:29:04.0000000+00:00</time></trkpt><trkpt lat="43.143585" lon="19.09585"><ele>1517.6</ele><time>2012-05-01T13:29:09.0000000+00:00</time></trkpt><trkpt lat="43.143555" lon="19.095751"><ele>1517.5</ele><time>2012-05-01T13:29:14.0000000+00:00</time></trkpt><trkpt lat="43.143551" lon="19.095745"><ele>1517.8</ele><time>2012-05-01T13:29:19.0000000+00:00</time></trkpt><trkpt lat="43.143539" lon="19.095701"><ele>1517.5</ele><time>2012-05-01T13:29:24.0000000+00:00</time></trkpt><trkpt lat="43.143524" lon="19.09569"><ele>1516.3</ele><time>2012-05-01T13:29:29.0000000+00:00</time></trkpt><trkpt lat="43.143559" lon="19.095699"><ele>1515.5</ele><time>2012-05-01T13:29:34.0000000+00:00</time></trkpt><trkpt lat="43.143661" lon="19.095795"><ele>1513.1</ele><time>2012-05-01T13:29:39.0000000+00:00</time></trkpt><trkpt lat="43.143684" lon="19.095774"><ele>1511.7</ele><time>2012-05-01T13:29:44.0000000+00:00</time></trkpt><trkpt lat="43.143982" lon="19.095882"><ele>1505.8</ele><time>2012-05-01T13:29:49.0000000+00:00</time></trkpt><trkpt lat="43.144131" lon="19.095757"><ele>1503.0</ele><time>2012-05-01T13:29:54.0000000+00:00</time></trkpt><trkpt lat="43.144257" lon="19.095629"><ele>1501.0</ele><time>2012-05-01T13:29:59.0000000+00:00</time></trkpt><trkpt lat="43.144268" lon="19.09547"><ele>1497.5</ele><time>2012-05-01T13:30:04.0000000+00:00</time></trkpt><trkpt lat="43.144176" lon="19.095369"><ele>1490.0</ele><time>2012-05-01T13:30:09.0000000+00:00</time></trkpt><trkpt lat="43.144135" lon="19.095295"><ele>1484.2</ele><time>2012-05-01T13:30:14.0000000+00:00</time></trkpt><trkpt lat="43.144104" lon="19.095272"><ele>1481.0</ele><time>2012-05-01T13:30:19.0000000+00:00</time></trkpt><trkpt lat="43.1441" lon="19.095198"><ele>1478.4</ele><time>2012-05-01T13:30:24.0000000+00:00</time></trkpt><trkpt lat="43.144104" lon="19.095129"><ele>1476.2</ele><time>2012-05-01T13:30:29.0000000+00:00</time></trkpt><trkpt lat="43.144112" lon="19.09507"><ele>1473.6</ele><time>2012-05-01T13:30:34.0000000+00:00</time></trkpt><trkpt lat="43.144104" lon="19.095009"><ele>1471.0</ele><time>2012-05-01T13:30:39.0000000+00:00</time></trkpt><trkpt lat="43.144081" lon="19.094942"><ele>1468.0</ele><time>2012-05-01T13:30:44.0000000+00:00</time></trkpt><trkpt lat="43.1441" lon="19.094877"><ele>1464.6</ele><time>2012-05-01T13:30:49.0000000+00:00</time></trkpt><trkpt lat="43.144135" lon="19.094816"><ele>1460.5</ele><time>2012-05-01T13:30:54.0000000+00:00</time></trkpt><trkpt lat="43.144157" lon="19.094746"><ele>1457.9</ele><time>2012-05-01T13:30:59.0000000+00:00</time></trkpt><trkpt lat="43.14418" lon="19.094696"><ele>1456.1</ele><time>2012-05-01T13:31:04.0000000+00:00</time></trkpt><trkpt lat="43.144199" lon="19.094639"><ele>1454.9</ele><time>2012-05-01T13:31:09.0000000+00:00</time></trkpt><trkpt lat="43.144222" lon="19.094591"><ele>1455.0</ele><time>2012-05-01T13:31:14.0000000+00:00</time></trkpt><trkpt lat="43.144245" lon="19.094528"><ele>1453.8</ele><time>2012-05-01T13:31:19.0000000+00:00</time></trkpt><trkpt lat="43.144234" lon="19.094482"><ele>1451.7</ele><time>2012-05-01T13:31:24.0000000+00:00</time></trkpt><trkpt lat="43.14423" lon="19.094479"><ele>1451.1</ele><time>2012-05-01T13:31:29.0000000+00:00</time></trkpt><trkpt lat="43.14423" lon="19.094477"><ele>1451.1</ele><time>2012-05-01T13:31:34.0000000+00:00</time></trkpt><trkpt lat="43.144222" lon="19.094479"><ele>1450.9</ele><time>2012-05-01T13:31:39.0000000+00:00</time></trkpt><trkpt lat="43.144218" lon="19.094479"><ele>1450.9</ele><time>2012-05-01T13:31:44.0000000+00:00</time></trkpt><trkpt lat="43.144218" lon="19.094479"><ele>1450.8</ele><time>2012-05-01T13:31:49.0000000+00:00</time></trkpt><trkpt lat="43.144218" lon="19.094479"><ele>1450.8</ele><time>2012-05-01T13:31:54.0000000+00:00</time></trkpt><trkpt lat="43.144215" lon="19.094479"><ele>1450.7</ele><time>2012-05-01T13:31:59.0000000+00:00</time></trkpt><trkpt lat="43.144215" lon="19.094479"><ele>1450.7</ele><time>2012-05-01T13:32:04.0000000+00:00</time></trkpt><trkpt lat="43.144215" lon="19.094481"><ele>1450.7</ele><time>2012-05-01T13:32:09.0000000+00:00</time></trkpt><trkpt lat="43.144215" lon="19.094481"><ele>1450.6</ele><time>2012-05-01T13:32:14.0000000+00:00</time></trkpt><trkpt lat="43.144215" lon="19.094481"><ele>1450.6</ele><time>2012-05-01T13:32:19.0000000+00:00</time></trkpt><trkpt lat="43.144215" lon="19.094481"><ele>1450.6</ele><time>2012-05-01T13:32:24.0000000+00:00</time></trkpt><trkpt lat="43.144211" lon="19.094481"><ele>1450.5</ele><time>2012-05-01T13:32:29.0000000+00:00</time></trkpt><trkpt lat="43.144211" lon="19.094481"><ele>1450.5</ele><time>2012-05-01T13:32:34.0000000+00:00</time></trkpt><trkpt lat="43.144211" lon="19.094481"><ele>1450.5</ele><time>2012-05-01T13:32:39.0000000+00:00</time></trkpt><trkpt lat="43.144211" lon="19.094481"><ele>1450.5</ele><time>2012-05-01T13:32:44.0000000+00:00</time></trkpt><trkpt lat="43.144211" lon="19.094481"><ele>1450.5</ele><time>2012-05-01T13:32:49.0000000+00:00</time></trkpt><trkpt lat="43.144211" lon="19.094481"><ele>1450.5</ele><time>2012-05-01T13:32:54.0000000+00:00</time></trkpt><trkpt lat="43.144211" lon="19.094481"><ele>1450.5</ele><time>2012-05-01T13:32:59.0000000+00:00</time></trkpt><trkpt lat="43.144207" lon="19.094481"><ele>1450.5</ele><time>2012-05-01T13:33:04.0000000+00:00</time></trkpt><trkpt lat="43.144207" lon="19.094481"><ele>1450.4</ele><time>2012-05-01T13:33:09.0000000+00:00</time></trkpt><trkpt lat="43.144207" lon="19.094481"><ele>1450.4</ele><time>2012-05-01T13:33:14.0000000+00:00</time></trkpt><trkpt lat="43.144207" lon="19.094482"><ele>1450.4</ele><time>2012-05-01T13:33:19.0000000+00:00</time></trkpt><trkpt lat="43.144207" lon="19.094482"><ele>1450.4</ele><time>2012-05-01T13:33:24.0000000+00:00</time></trkpt><trkpt lat="43.144207" lon="19.094482"><ele>1450.4</ele><time>2012-05-01T13:33:29.0000000+00:00</time></trkpt><trkpt lat="43.144207" lon="19.094482"><ele>1450.3</ele><time>2012-05-01T13:33:34.0000000+00:00</time></trkpt><trkpt lat="43.144207" lon="19.094482"><ele>1450.3</ele><time>2012-05-01T13:33:39.0000000+00:00</time></trkpt><trkpt lat="43.144207" lon="19.094482"><ele>1450.3</ele><time>2012-05-01T13:33:44.0000000+00:00</time></trkpt><trkpt lat="43.144203" lon="19.094482"><ele>1450.3</ele><time>2012-05-01T13:33:49.0000000+00:00</time></trkpt><trkpt lat="43.144203" lon="19.094482"><ele>1450.3</ele><time>2012-05-01T13:33:54.0000000+00:00</time></trkpt><trkpt lat="43.144203" lon="19.094482"><ele>1450.2</ele><time>2012-05-01T13:33:59.0000000+00:00</time></trkpt><trkpt lat="43.144203" lon="19.094482"><ele>1450.2</ele><time>2012-05-01T13:34:04.0000000+00:00</time></trkpt><trkpt lat="43.144203" lon="19.094482"><ele>1450.2</ele><time>2012-05-01T13:34:09.0000000+00:00</time></trkpt><trkpt lat="43.144203" lon="19.094484"><ele>1450.1</ele><time>2012-05-01T13:34:14.0000000+00:00</time></trkpt><trkpt lat="43.144203" lon="19.094484"><ele>1450.1</ele><time>2012-05-01T13:34:19.0000000+00:00</time></trkpt><trkpt lat="43.144203" lon="19.094484"><ele>1450.1</ele><time>2012-05-01T13:34:24.0000000+00:00</time></trkpt><trkpt lat="43.144203" lon="19.094484"><ele>1450.1</ele><time>2012-05-01T13:34:29.0000000+00:00</time></trkpt><trkpt lat="43.144203" lon="19.094484"><ele>1450.1</ele><time>2012-05-01T13:34:34.0000000+00:00</time></trkpt><trkpt lat="43.144203" lon="19.094484"><ele>1450.0</ele><time>2012-05-01T13:34:39.0000000+00:00</time></trkpt><trkpt lat="43.144203" lon="19.094486"><ele>1450.0</ele><time>2012-05-01T13:34:44.0000000+00:00</time></trkpt><trkpt lat="43.144199" lon="19.094486"><ele>1450.0</ele><time>2012-05-01T13:34:49.0000000+00:00</time></trkpt><trkpt lat="43.144199" lon="19.094486"><ele>1450.0</ele><time>2012-05-01T13:34:54.0000000+00:00</time></trkpt><trkpt lat="43.144199" lon="19.094486"><ele>1450.0</ele><time>2012-05-01T13:34:59.0000000+00:00</time></trkpt><trkpt lat="43.144199" lon="19.094486"><ele>1450.0</ele><time>2012-05-01T13:35:04.0000000+00:00</time></trkpt><trkpt lat="43.144199" lon="19.094486"><ele>1450.0</ele><time>2012-05-01T13:35:09.0000000+00:00</time></trkpt><trkpt lat="43.144199" lon="19.094486"><ele>1449.9</ele><time>2012-05-01T13:35:14.0000000+00:00</time></trkpt><trkpt lat="43.144199" lon="19.094488"><ele>1449.9</ele><time>2012-05-01T13:35:19.0000000+00:00</time></trkpt><trkpt lat="43.144199" lon="19.094488"><ele>1449.9</ele><time>2012-05-01T13:35:24.0000000+00:00</time></trkpt><trkpt lat="43.144199" lon="19.094488"><ele>1449.8</ele><time>2012-05-01T13:35:29.0000000+00:00</time></trkpt><trkpt lat="43.144199" lon="19.094488"><ele>1449.8</ele><time>2012-05-01T13:35:34.0000000+00:00</time></trkpt><trkpt lat="43.144199" lon="19.094488"><ele>1449.8</ele><time>2012-05-01T13:35:39.0000000+00:00</time></trkpt><trkpt lat="43.144199" lon="19.094488"><ele>1449.8</ele><time>2012-05-01T13:35:44.0000000+00:00</time></trkpt><trkpt lat="43.144196" lon="19.094488"><ele>1449.7</ele><time>2012-05-01T13:35:49.0000000+00:00</time></trkpt><trkpt lat="43.144196" lon="19.094488"><ele>1449.7</ele><time>2012-05-01T13:35:54.0000000+00:00</time></trkpt><trkpt lat="43.144196" lon="19.094488"><ele>1449.7</ele><time>2012-05-01T13:35:59.0000000+00:00</time></trkpt><trkpt lat="43.144196" lon="19.094488"><ele>1449.7</ele><time>2012-05-01T13:36:04.0000000+00:00</time></trkpt><trkpt lat="43.144196" lon="19.094488"><ele>1449.7</ele><time>2012-05-01T13:36:09.0000000+00:00</time></trkpt><trkpt lat="43.144196" lon="19.09449"><ele>1449.6</ele><time>2012-05-01T13:36:14.0000000+00:00</time></trkpt><trkpt lat="43.144196" lon="19.09449"><ele>1449.6</ele><time>2012-05-01T13:36:19.0000000+00:00</time></trkpt><trkpt lat="43.144196" lon="19.09449"><ele>1449.6</ele><time>2012-05-01T13:36:24.0000000+00:00</time></trkpt><trkpt lat="43.144196" lon="19.09449"><ele>1449.5</ele><time>2012-05-01T13:36:29.0000000+00:00</time></trkpt><trkpt lat="43.144196" lon="19.09449"><ele>1449.5</ele><time>2012-05-01T13:36:34.0000000+00:00</time></trkpt><trkpt lat="43.144196" lon="19.09449"><ele>1449.5</ele><time>2012-05-01T13:36:39.0000000+00:00</time></trkpt><trkpt lat="43.144196" lon="19.09449"><ele>1449.5</ele><time>2012-05-01T13:36:44.0000000+00:00</time></trkpt><trkpt lat="43.144192" lon="19.09449"><ele>1449.5</ele><time>2012-05-01T13:36:49.0000000+00:00</time></trkpt><trkpt lat="43.144192" lon="19.094492"><ele>1449.4</ele><time>2012-05-01T13:36:54.0000000+00:00</time></trkpt><trkpt lat="43.144192" lon="19.094492"><ele>1449.4</ele><time>2012-05-01T13:36:59.0000000+00:00</time></trkpt><trkpt lat="43.144192" lon="19.094492"><ele>1449.4</ele><time>2012-05-01T13:37:04.0000000+00:00</time></trkpt><trkpt lat="43.144192" lon="19.094492"><ele>1449.4</ele><time>2012-05-01T13:37:09.0000000+00:00</time></trkpt><trkpt lat="43.144192" lon="19.094492"><ele>1449.3</ele><time>2012-05-01T13:37:14.0000000+00:00</time></trkpt><trkpt lat="43.144192" lon="19.094492"><ele>1449.3</ele><time>2012-05-01T13:37:19.0000000+00:00</time></trkpt><trkpt lat="43.144192" lon="19.094492"><ele>1449.3</ele><time>2012-05-01T13:37:24.0000000+00:00</time></trkpt><trkpt lat="43.144192" lon="19.094492"><ele>1449.3</ele><time>2012-05-01T13:37:29.0000000+00:00</time></trkpt><trkpt lat="43.144192" lon="19.094494"><ele>1449.3</ele><time>2012-05-01T13:37:34.0000000+00:00</time></trkpt><trkpt lat="43.144192" lon="19.094494"><ele>1449.2</ele><time>2012-05-01T13:37:39.0000000+00:00</time></trkpt><trkpt lat="43.144188" lon="19.094494"><ele>1449.2</ele><time>2012-05-01T13:37:44.0000000+00:00</time></trkpt><trkpt lat="43.144188" lon="19.094494"><ele>1449.2</ele><time>2012-05-01T13:37:49.0000000+00:00</time></trkpt><trkpt lat="43.144188" lon="19.094494"><ele>1449.2</ele><time>2012-05-01T13:37:54.0000000+00:00</time></trkpt><trkpt lat="43.144188" lon="19.094494"><ele>1449.2</ele><time>2012-05-01T13:37:59.0000000+00:00</time></trkpt><trkpt lat="43.144188" lon="19.094496"><ele>1449.1</ele><time>2012-05-01T13:38:04.0000000+00:00</time></trkpt><trkpt lat="43.144188" lon="19.094496"><ele>1449.1</ele><time>2012-05-01T13:38:09.0000000+00:00</time></trkpt><trkpt lat="43.144188" lon="19.094496"><ele>1449.1</ele><time>2012-05-01T13:38:14.0000000+00:00</time></trkpt><trkpt lat="43.144188" lon="19.094496"><ele>1449.1</ele><time>2012-05-01T13:38:19.0000000+00:00</time></trkpt><trkpt lat="43.144188" lon="19.094496"><ele>1449.1</ele><time>2012-05-01T13:38:24.0000000+00:00</time></trkpt><trkpt lat="43.144188" lon="19.094498"><ele>1449.0</ele><time>2012-05-01T13:38:29.0000000+00:00</time></trkpt><trkpt lat="43.144188" lon="19.094498"><ele>1449.0</ele><time>2012-05-01T13:38:34.0000000+00:00</time></trkpt><trkpt lat="43.144188" lon="19.094498"><ele>1449.0</ele><time>2012-05-01T13:38:39.0000000+00:00</time></trkpt><trkpt lat="43.144188" lon="19.094498"><ele>1449.0</ele><time>2012-05-01T13:38:44.0000000+00:00</time></trkpt><trkpt lat="43.144184" lon="19.094498"><ele>1449.0</ele><time>2012-05-01T13:38:49.0000000+00:00</time></trkpt><trkpt lat="43.144184" lon="19.094498"><ele>1449.0</ele><time>2012-05-01T13:38:54.0000000+00:00</time></trkpt><trkpt lat="43.144184" lon="19.094498"><ele>1449.0</ele><time>2012-05-01T13:38:59.0000000+00:00</time></trkpt><trkpt lat="43.144184" lon="19.0945"><ele>1449.0</ele><time>2012-05-01T13:39:04.0000000+00:00</time></trkpt><trkpt lat="43.144184" lon="19.0945"><ele>1448.9</ele><time>2012-05-01T13:39:09.0000000+00:00</time></trkpt><trkpt lat="43.144184" lon="19.0945"><ele>1448.9</ele><time>2012-05-01T13:39:14.0000000+00:00</time></trkpt><trkpt lat="43.144184" lon="19.0945"><ele>1448.9</ele><time>2012-05-01T13:39:19.0000000+00:00</time></trkpt><trkpt lat="43.144184" lon="19.0945"><ele>1448.9</ele><time>2012-05-01T13:39:24.0000000+00:00</time></trkpt><trkpt lat="43.144184" lon="19.0945"><ele>1448.9</ele><time>2012-05-01T13:39:29.0000000+00:00</time></trkpt><trkpt lat="43.144184" lon="19.094501"><ele>1448.8</ele><time>2012-05-01T13:39:34.0000000+00:00</time></trkpt><trkpt lat="43.144184" lon="19.094501"><ele>1448.8</ele><time>2012-05-01T13:39:39.0000000+00:00</time></trkpt><trkpt lat="43.144184" lon="19.094501"><ele>1448.8</ele><time>2012-05-01T13:39:44.0000000+00:00</time></trkpt><trkpt lat="43.144184" lon="19.094501"><ele>1448.8</ele><time>2012-05-01T13:39:49.0000000+00:00</time></trkpt><trkpt lat="43.144184" lon="19.094501"><ele>1448.7</ele><time>2012-05-01T13:39:54.0000000+00:00</time></trkpt><trkpt lat="43.144184" lon="19.094501"><ele>1448.7</ele><time>2012-05-01T13:39:59.0000000+00:00</time></trkpt><trkpt lat="43.144184" lon="19.094501"><ele>1448.7</ele><time>2012-05-01T13:40:04.0000000+00:00</time></trkpt><trkpt lat="43.144184" lon="19.094501"><ele>1448.7</ele><time>2012-05-01T13:40:09.0000000+00:00</time></trkpt><trkpt lat="43.144184" lon="19.094503"><ele>1448.6</ele><time>2012-05-01T13:40:14.0000000+00:00</time></trkpt><trkpt lat="43.14418" lon="19.094503"><ele>1448.6</ele><time>2012-05-01T13:40:19.0000000+00:00</time></trkpt><trkpt lat="43.14418" lon="19.094503"><ele>1448.6</ele><time>2012-05-01T13:40:24.0000000+00:00</time></trkpt><trkpt lat="43.14418" lon="19.094503"><ele>1448.6</ele><time>2012-05-01T13:40:29.0000000+00:00</time></trkpt><trkpt lat="43.14418" lon="19.094503"><ele>1448.6</ele><time>2012-05-01T13:40:34.0000000+00:00</time></trkpt><trkpt lat="43.14418" lon="19.094505"><ele>1448.5</ele><time>2012-05-01T13:40:39.0000000+00:00</time></trkpt><trkpt lat="43.14418" lon="19.094505"><ele>1448.5</ele><time>2012-05-01T13:40:44.0000000+00:00</time></trkpt><trkpt lat="43.14418" lon="19.094505"><ele>1448.5</ele><time>2012-05-01T13:40:49.0000000+00:00</time></trkpt><trkpt lat="43.14418" lon="19.094505"><ele>1448.5</ele><time>2012-05-01T13:40:54.0000000+00:00</time></trkpt><trkpt lat="43.14418" lon="19.094505"><ele>1448.4</ele><time>2012-05-01T13:40:59.0000000+00:00</time></trkpt><trkpt lat="43.14418" lon="19.094505"><ele>1448.4</ele><time>2012-05-01T13:41:04.0000000+00:00</time></trkpt><trkpt lat="43.14418" lon="19.094505"><ele>1448.4</ele><time>2012-05-01T13:41:09.0000000+00:00</time></trkpt><trkpt lat="43.14418" lon="19.094505"><ele>1448.4</ele><time>2012-05-01T13:41:14.0000000+00:00</time></trkpt><trkpt lat="43.14418" lon="19.094505"><ele>1448.3</ele><time>2012-05-01T13:41:19.0000000+00:00</time></trkpt><trkpt lat="43.14418" lon="19.094505"><ele>1448.3</ele><time>2012-05-01T13:41:24.0000000+00:00</time></trkpt><trkpt lat="43.144176" lon="19.094507"><ele>1448.3</ele><time>2012-05-01T13:41:29.0000000+00:00</time></trkpt><trkpt lat="43.144176" lon="19.094507"><ele>1448.3</ele><time>2012-05-01T13:41:34.0000000+00:00</time></trkpt><trkpt lat="43.144176" lon="19.094507"><ele>1448.2</ele><time>2012-05-01T13:41:39.0000000+00:00</time></trkpt><trkpt lat="43.144176" lon="19.094507"><ele>1448.2</ele><time>2012-05-01T13:41:44.0000000+00:00</time></trkpt><trkpt lat="43.144176" lon="19.094507"><ele>1448.2</ele><time>2012-05-01T13:41:49.0000000+00:00</time></trkpt><trkpt lat="43.144176" lon="19.094507"><ele>1448.2</ele><time>2012-05-01T13:41:54.0000000+00:00</time></trkpt><trkpt lat="43.144176" lon="19.094507"><ele>1448.1</ele><time>2012-05-01T13:41:59.0000000+00:00</time></trkpt><trkpt lat="43.144176" lon="19.094507"><ele>1448.1</ele><time>2012-05-01T13:42:04.0000000+00:00</time></trkpt><trkpt lat="43.144176" lon="19.094509"><ele>1448.1</ele><time>2012-05-01T13:42:09.0000000+00:00</time></trkpt><trkpt lat="43.144176" lon="19.094509"><ele>1448.1</ele><time>2012-05-01T13:42:14.0000000+00:00</time></trkpt><trkpt lat="43.144176" lon="19.094509"><ele>1448.1</ele><time>2012-05-01T13:42:19.0000000+00:00</time></trkpt><trkpt lat="43.144176" lon="19.094509"><ele>1448.1</ele><time>2012-05-01T13:42:24.0000000+00:00</time></trkpt><trkpt lat="43.144176" lon="19.094509"><ele>1448.0</ele><time>2012-05-01T13:42:29.0000000+00:00</time></trkpt><trkpt lat="43.144176" lon="19.094509"><ele>1448.0</ele><time>2012-05-01T13:42:34.0000000+00:00</time></trkpt><trkpt lat="43.144173" lon="19.094509"><ele>1448.0</ele><time>2012-05-01T13:42:39.0000000+00:00</time></trkpt><trkpt lat="43.144173" lon="19.094509"><ele>1448.0</ele><time>2012-05-01T13:42:44.0000000+00:00</time></trkpt><trkpt lat="43.144173" lon="19.094509"><ele>1448.0</ele><time>2012-05-01T13:42:49.0000000+00:00</time></trkpt><trkpt lat="43.144173" lon="19.094511"><ele>1447.9</ele><time>2012-05-01T13:42:54.0000000+00:00</time></trkpt><trkpt lat="43.144173" lon="19.094511"><ele>1447.9</ele><time>2012-05-01T13:42:59.0000000+00:00</time></trkpt><trkpt lat="43.144173" lon="19.094511"><ele>1447.9</ele><time>2012-05-01T13:43:04.0000000+00:00</time></trkpt><trkpt lat="43.144173" lon="19.094511"><ele>1447.9</ele><time>2012-05-01T13:43:09.0000000+00:00</time></trkpt><trkpt lat="43.144173" lon="19.094511"><ele>1447.8</ele><time>2012-05-01T13:43:14.0000000+00:00</time></trkpt><trkpt lat="43.144173" lon="19.094511"><ele>1447.8</ele><time>2012-05-01T13:43:19.0000000+00:00</time></trkpt><trkpt lat="43.144173" lon="19.094511"><ele>1447.8</ele><time>2012-05-01T13:43:24.0000000+00:00</time></trkpt><trkpt lat="43.144173" lon="19.094513"><ele>1447.8</ele><time>2012-05-01T13:43:29.0000000+00:00</time></trkpt><trkpt lat="43.144173" lon="19.094513"><ele>1447.8</ele><time>2012-05-01T13:43:34.0000000+00:00</time></trkpt><trkpt lat="43.144173" lon="19.094513"><ele>1447.7</ele><time>2012-05-01T13:43:39.0000000+00:00</time></trkpt><trkpt lat="43.144173" lon="19.094513"><ele>1447.7</ele><time>2012-05-01T13:43:44.0000000+00:00</time></trkpt><trkpt lat="43.144173" lon="19.094513"><ele>1447.7</ele><time>2012-05-01T13:43:49.0000000+00:00</time></trkpt><trkpt lat="43.144173" lon="19.094515"><ele>1447.7</ele><time>2012-05-01T13:43:54.0000000+00:00</time></trkpt><trkpt lat="43.144173" lon="19.094515"><ele>1447.7</ele><time>2012-05-01T13:43:59.0000000+00:00</time></trkpt><trkpt lat="43.144169" lon="19.094515"><ele>1447.6</ele><time>2012-05-01T13:44:04.0000000+00:00</time></trkpt><trkpt lat="43.144169" lon="19.094515"><ele>1447.6</ele><time>2012-05-01T13:44:09.0000000+00:00</time></trkpt><trkpt lat="43.144169" lon="19.094515"><ele>1447.6</ele><time>2012-05-01T13:44:14.0000000+00:00</time></trkpt><trkpt lat="43.144169" lon="19.094515"><ele>1447.5</ele><time>2012-05-01T13:44:19.0000000+00:00</time></trkpt><trkpt lat="43.144169" lon="19.094515"><ele>1447.5</ele><time>2012-05-01T13:44:24.0000000+00:00</time></trkpt><trkpt lat="43.144169" lon="19.094515"><ele>1447.5</ele><time>2012-05-01T13:44:29.0000000+00:00</time></trkpt><trkpt lat="43.144169" lon="19.094515"><ele>1447.5</ele><time>2012-05-01T13:44:34.0000000+00:00</time></trkpt><trkpt lat="43.144169" lon="19.094515"><ele>1447.5</ele><time>2012-05-01T13:44:39.0000000+00:00</time></trkpt><trkpt lat="43.144169" lon="19.094517"><ele>1447.4</ele><time>2012-05-01T13:44:44.0000000+00:00</time></trkpt><trkpt lat="43.144169" lon="19.094517"><ele>1447.4</ele><time>2012-05-01T13:44:49.0000000+00:00</time></trkpt><trkpt lat="43.144169" lon="19.094517"><ele>1447.4</ele><time>2012-05-01T13:44:54.0000000+00:00</time></trkpt><trkpt lat="43.144169" lon="19.094517"><ele>1447.4</ele><time>2012-05-01T13:44:59.0000000+00:00</time></trkpt><trkpt lat="43.144169" lon="19.094517"><ele>1447.3</ele><time>2012-05-01T13:45:04.0000000+00:00</time></trkpt><trkpt lat="43.144169" lon="19.094517"><ele>1447.3</ele><time>2012-05-01T13:45:09.0000000+00:00</time></trkpt><trkpt lat="43.144169" lon="19.094517"><ele>1447.3</ele><time>2012-05-01T13:45:14.0000000+00:00</time></trkpt><trkpt lat="43.144169" lon="19.094519"><ele>1447.3</ele><time>2012-05-01T13:45:19.0000000+00:00</time></trkpt><trkpt lat="43.144169" lon="19.094519"><ele>1447.3</ele><time>2012-05-01T13:45:24.0000000+00:00</time></trkpt><trkpt lat="43.144169" lon="19.094519"><ele>1447.2</ele><time>2012-05-01T13:45:29.0000000+00:00</time></trkpt><trkpt lat="43.144169" lon="19.094519"><ele>1447.2</ele><time>2012-05-01T13:45:34.0000000+00:00</time></trkpt><trkpt lat="43.144169" lon="19.094519"><ele>1447.2</ele><time>2012-05-01T13:45:39.0000000+00:00</time></trkpt><trkpt lat="43.144169" lon="19.094519"><ele>1447.2</ele><time>2012-05-01T13:45:44.0000000+00:00</time></trkpt><trkpt lat="43.144165" lon="19.094519"><ele>1447.2</ele><time>2012-05-01T13:45:49.0000000+00:00</time></trkpt><trkpt lat="43.144165" lon="19.094519"><ele>1447.2</ele><time>2012-05-01T13:45:54.0000000+00:00</time></trkpt><trkpt lat="43.144165" lon="19.094519"><ele>1447.1</ele><time>2012-05-01T13:45:59.0000000+00:00</time></trkpt><trkpt lat="43.144165" lon="19.094519"><ele>1447.1</ele><time>2012-05-01T13:46:04.0000000+00:00</time></trkpt><trkpt lat="43.144165" lon="19.094521"><ele>1447.1</ele><time>2012-05-01T13:46:09.0000000+00:00</time></trkpt><trkpt lat="43.144165" lon="19.094521"><ele>1447.1</ele><time>2012-05-01T13:46:14.0000000+00:00</time></trkpt><trkpt lat="43.144165" lon="19.094521"><ele>1447.1</ele><time>2012-05-01T13:46:19.0000000+00:00</time></trkpt><trkpt lat="43.144165" lon="19.094521"><ele>1447.1</ele><time>2012-05-01T13:46:24.0000000+00:00</time></trkpt><trkpt lat="43.144161" lon="19.094521"><ele>1447.1</ele><time>2012-05-01T13:46:29.0000000+00:00</time></trkpt><trkpt lat="43.144161" lon="19.094521"><ele>1447.1</ele><time>2012-05-01T13:46:34.0000000+00:00</time></trkpt><trkpt lat="43.144161" lon="19.094521"><ele>1447.0</ele><time>2012-05-01T13:46:39.0000000+00:00</time></trkpt><trkpt lat="43.144161" lon="19.094521"><ele>1447.0</ele><time>2012-05-01T13:46:44.0000000+00:00</time></trkpt><trkpt lat="43.144161" lon="19.094521"><ele>1447.0</ele><time>2012-05-01T13:46:49.0000000+00:00</time></trkpt><trkpt lat="43.144161" lon="19.094521"><ele>1447.0</ele><time>2012-05-01T13:46:54.0000000+00:00</time></trkpt><trkpt lat="43.144161" lon="19.094521"><ele>1447.0</ele><time>2012-05-01T13:46:59.0000000+00:00</time></trkpt><trkpt lat="43.144161" lon="19.094522"><ele>1447.0</ele><time>2012-05-01T13:47:04.0000000+00:00</time></trkpt><trkpt lat="43.144161" lon="19.094522"><ele>1446.9</ele><time>2012-05-01T13:47:09.0000000+00:00</time></trkpt><trkpt lat="43.144161" lon="19.094522"><ele>1446.9</ele><time>2012-05-01T13:47:14.0000000+00:00</time></trkpt><trkpt lat="43.144161" lon="19.094522"><ele>1446.9</ele><time>2012-05-01T13:47:19.0000000+00:00</time></trkpt><trkpt lat="43.144161" lon="19.094522"><ele>1446.9</ele><time>2012-05-01T13:47:24.0000000+00:00</time></trkpt><trkpt lat="43.144161" lon="19.094522"><ele>1446.8</ele><time>2012-05-01T13:47:29.0000000+00:00</time></trkpt><trkpt lat="43.144161" lon="19.094522"><ele>1446.8</ele><time>2012-05-01T13:47:34.0000000+00:00</time></trkpt><trkpt lat="43.144161" lon="19.094522"><ele>1446.8</ele><time>2012-05-01T13:47:39.0000000+00:00</time></trkpt><trkpt lat="43.144161" lon="19.094524"><ele>1446.8</ele><time>2012-05-01T13:47:44.0000000+00:00</time></trkpt><trkpt lat="43.144161" lon="19.094524"><ele>1446.7</ele><time>2012-05-01T13:47:49.0000000+00:00</time></trkpt><trkpt lat="43.144157" lon="19.094524"><ele>1446.7</ele><time>2012-05-01T13:47:54.0000000+00:00</time></trkpt><trkpt lat="43.144157" lon="19.094524"><ele>1446.7</ele><time>2012-05-01T13:47:59.0000000+00:00</time></trkpt><trkpt lat="43.144157" lon="19.094524"><ele>1446.7</ele><time>2012-05-01T13:48:04.0000000+00:00</time></trkpt><trkpt lat="43.144157" lon="19.094524"><ele>1446.7</ele><time>2012-05-01T13:48:09.0000000+00:00</time></trkpt><trkpt lat="43.144157" lon="19.094524"><ele>1446.7</ele><time>2012-05-01T13:48:14.0000000+00:00</time></trkpt><trkpt lat="43.144157" lon="19.094526"><ele>1446.7</ele><time>2012-05-01T13:48:19.0000000+00:00</time></trkpt><trkpt lat="43.144157" lon="19.094526"><ele>1446.7</ele><time>2012-05-01T13:48:24.0000000+00:00</time></trkpt><trkpt lat="43.144157" lon="19.094526"><ele>1446.7</ele><time>2012-05-01T13:48:29.0000000+00:00</time></trkpt><trkpt lat="43.144157" lon="19.094526"><ele>1446.7</ele><time>2012-05-01T13:48:34.0000000+00:00</time></trkpt><trkpt lat="43.144157" lon="19.094526"><ele>1446.6</ele><time>2012-05-01T13:48:39.0000000+00:00</time></trkpt><trkpt lat="43.144157" lon="19.094528"><ele>1446.6</ele><time>2012-05-01T13:48:44.0000000+00:00</time></trkpt><trkpt lat="43.144157" lon="19.094528"><ele>1446.6</ele><time>2012-05-01T13:48:49.0000000+00:00</time></trkpt><trkpt lat="43.144157" lon="19.094528"><ele>1446.6</ele><time>2012-05-01T13:48:54.0000000+00:00</time></trkpt><trkpt lat="43.144157" lon="19.094528"><ele>1446.6</ele><time>2012-05-01T13:48:59.0000000+00:00</time></trkpt><trkpt lat="43.144157" lon="19.094528"><ele>1446.6</ele><time>2012-05-01T13:49:04.0000000+00:00</time></trkpt><trkpt lat="43.144154" lon="19.094524"><ele>1446.5</ele><time>2012-05-01T13:49:09.0000000+00:00</time></trkpt><trkpt lat="43.144138" lon="19.094517"><ele>1446.2</ele><time>2012-05-01T13:49:14.0000000+00:00</time></trkpt><trkpt lat="43.144112" lon="19.094616"><ele>1445.7</ele><time>2012-05-01T13:49:19.0000000+00:00</time></trkpt><trkpt lat="43.144024" lon="19.094797"><ele>1442.4</ele><time>2012-05-01T13:49:24.0000000+00:00</time></trkpt><trkpt lat="43.143925" lon="19.095001"><ele>1439.8</ele><time>2012-05-01T13:49:29.0000000+00:00</time></trkpt><trkpt lat="43.143867" lon="19.09514"><ele>1437.6</ele><time>2012-05-01T13:49:34.0000000+00:00</time></trkpt><trkpt lat="43.143864" lon="19.095276"><ele>1436.5</ele><time>2012-05-01T13:49:39.0000000+00:00</time></trkpt><trkpt lat="43.143841" lon="19.095377"><ele>1435.4</ele><time>2012-05-01T13:49:44.0000000+00:00</time></trkpt><trkpt lat="43.143822" lon="19.095512"><ele>1435.0</ele><time>2012-05-01T13:49:49.0000000+00:00</time></trkpt><trkpt lat="43.143795" lon="19.095638"><ele>1434.3</ele><time>2012-05-01T13:49:54.0000000+00:00</time></trkpt><trkpt lat="43.143818" lon="19.095751"><ele>1436.5</ele><time>2012-05-01T13:49:59.0000000+00:00</time></trkpt><trkpt lat="43.143871" lon="19.095896"><ele>1436.2</ele><time>2012-05-01T13:50:04.0000000+00:00</time></trkpt><trkpt lat="43.143875" lon="19.096003"><ele>1436.1</ele><time>2012-05-01T13:50:09.0000000+00:00</time></trkpt><trkpt lat="43.143875" lon="19.096077"><ele>1436.3</ele><time>2012-05-01T13:50:14.0000000+00:00</time></trkpt><trkpt lat="43.143887" lon="19.096121"><ele>1436.8</ele><time>2012-05-01T13:50:19.0000000+00:00</time></trkpt><trkpt lat="43.143879" lon="19.096188"><ele>1437.2</ele><time>2012-05-01T13:50:24.0000000+00:00</time></trkpt><trkpt lat="43.143902" lon="19.096214"><ele>1436.1</ele><time>2012-05-01T13:50:29.0000000+00:00</time></trkpt><trkpt lat="43.143894" lon="19.096285"><ele>1436.2</ele><time>2012-05-01T13:50:34.0000000+00:00</time></trkpt><trkpt lat="43.143898" lon="19.096386"><ele>1437.1</ele><time>2012-05-01T13:50:39.0000000+00:00</time></trkpt><trkpt lat="43.14394" lon="19.096476"><ele>1438.2</ele><time>2012-05-01T13:50:44.0000000+00:00</time></trkpt><trkpt lat="43.143978" lon="19.096537"><ele>1439.6</ele><time>2012-05-01T13:50:49.0000000+00:00</time></trkpt><trkpt lat="43.144005" lon="19.096601"><ele>1441.0</ele><time>2012-05-01T13:50:54.0000000+00:00</time></trkpt><trkpt lat="43.144043" lon="19.096622"><ele>1442.2</ele><time>2012-05-01T13:50:59.0000000+00:00</time></trkpt><trkpt lat="43.144058" lon="19.096624"><ele>1444.2</ele><time>2012-05-01T13:51:04.0000000+00:00</time></trkpt><trkpt lat="43.144173" lon="19.096689"><ele>1445.4</ele><time>2012-05-01T13:51:09.0000000+00:00</time></trkpt><trkpt lat="43.144203" lon="19.096703"><ele>1447.1</ele><time>2012-05-01T13:51:14.0000000+00:00</time></trkpt><trkpt lat="43.144218" lon="19.09672"><ele>1448.5</ele><time>2012-05-01T13:51:19.0000000+00:00</time></trkpt><trkpt lat="43.144295" lon="19.096737"><ele>1448.4</ele><time>2012-05-01T13:51:24.0000000+00:00</time></trkpt><trkpt lat="43.144352" lon="19.096746"><ele>1449.3</ele><time>2012-05-01T13:51:29.0000000+00:00</time></trkpt><trkpt lat="43.144405" lon="19.096815"><ele>1450.7</ele><time>2012-05-01T13:51:34.0000000+00:00</time></trkpt><trkpt lat="43.144451" lon="19.096849"><ele>1452.4</ele><time>2012-05-01T13:51:39.0000000+00:00</time></trkpt><trkpt lat="43.144512" lon="19.096888"><ele>1453.6</ele><time>2012-05-01T13:51:44.0000000+00:00</time></trkpt><trkpt lat="43.144615" lon="19.096979"><ele>1455.8</ele><time>2012-05-01T13:51:49.0000000+00:00</time></trkpt><trkpt lat="43.144684" lon="19.097034"><ele>1458.1</ele><time>2012-05-01T13:51:54.0000000+00:00</time></trkpt><trkpt lat="43.144741" lon="19.097082"><ele>1458.6</ele><time>2012-05-01T13:51:59.0000000+00:00</time></trkpt><trkpt lat="43.144814" lon="19.097116"><ele>1459.0</ele><time>2012-05-01T13:52:04.0000000+00:00</time></trkpt><trkpt lat="43.144943" lon="19.097172"><ele>1456.9</ele><time>2012-05-01T13:52:09.0000000+00:00</time></trkpt><trkpt lat="43.145016" lon="19.097273"><ele>1457.5</ele><time>2012-05-01T13:52:14.0000000+00:00</time></trkpt><trkpt lat="43.145119" lon="19.097319"><ele>1455.5</ele><time>2012-05-01T13:52:19.0000000+00:00</time></trkpt><trkpt lat="43.145248" lon="19.097324"><ele>1453.1</ele><time>2012-05-01T13:52:24.0000000+00:00</time></trkpt><trkpt lat="43.14537" lon="19.097376"><ele>1449.3</ele><time>2012-05-01T13:52:29.0000000+00:00</time></trkpt><trkpt lat="43.145481" lon="19.097425"><ele>1448.0</ele><time>2012-05-01T13:52:34.0000000+00:00</time></trkpt><trkpt lat="43.145596" lon="19.097441"><ele>1447.2</ele><time>2012-05-01T13:52:39.0000000+00:00</time></trkpt><trkpt lat="43.145725" lon="19.097441"><ele>1445.5</ele><time>2012-05-01T13:52:44.0000000+00:00</time></trkpt><trkpt lat="43.145836" lon="19.097429"><ele>1447.4</ele><time>2012-05-01T13:52:49.0000000+00:00</time></trkpt><trkpt lat="43.145916" lon="19.097437"><ele>1448.6</ele><time>2012-05-01T13:52:54.0000000+00:00</time></trkpt><trkpt lat="43.146" lon="19.097445"><ele>1449.7</ele><time>2012-05-01T13:52:59.0000000+00:00</time></trkpt><trkpt lat="43.146072" lon="19.097252"><ele>1451.6</ele><time>2012-05-01T13:53:04.0000000+00:00</time></trkpt><trkpt lat="43.146164" lon="19.097107"><ele>1452.7</ele><time>2012-05-01T13:53:09.0000000+00:00</time></trkpt><trkpt lat="43.146248" lon="19.09709"><ele>1453.1</ele><time>2012-05-01T13:53:14.0000000+00:00</time></trkpt><trkpt lat="43.146271" lon="19.097067"><ele>1452.4</ele><time>2012-05-01T13:53:19.0000000+00:00</time></trkpt><trkpt lat="43.146275" lon="19.097061"><ele>1452.5</ele><time>2012-05-01T13:53:24.0000000+00:00</time></trkpt><trkpt lat="43.146324" lon="19.097027"><ele>1449.0</ele><time>2012-05-01T13:53:29.0000000+00:00</time></trkpt><trkpt lat="43.146339" lon="19.097021"><ele>1447.7</ele><time>2012-05-01T13:53:34.0000000+00:00</time></trkpt><trkpt lat="43.146343" lon="19.097019"><ele>1447.6</ele><time>2012-05-01T13:53:39.0000000+00:00</time></trkpt><trkpt lat="43.146347" lon="19.097017"><ele>1447.6</ele><time>2012-05-01T13:53:44.0000000+00:00</time></trkpt><trkpt lat="43.146351" lon="19.097019"><ele>1447.6</ele><time>2012-05-01T13:53:49.0000000+00:00</time></trkpt><trkpt lat="43.146351" lon="19.097019"><ele>1447.7</ele><time>2012-05-01T13:53:54.0000000+00:00</time></trkpt><trkpt lat="43.146355" lon="19.097017"><ele>1447.8</ele><time>2012-05-01T13:53:59.0000000+00:00</time></trkpt><trkpt lat="43.146381" lon="19.096998"><ele>1447.9</ele><time>2012-05-01T13:54:04.0000000+00:00</time></trkpt><trkpt lat="43.146385" lon="19.096939"><ele>1447.9</ele><time>2012-05-01T13:54:09.0000000+00:00</time></trkpt><trkpt lat="43.146336" lon="19.096912"><ele>1448.3</ele><time>2012-05-01T13:54:14.0000000+00:00</time></trkpt><trkpt lat="43.146328" lon="19.096905"><ele>1448.3</ele><time>2012-05-01T13:54:19.0000000+00:00</time></trkpt><trkpt lat="43.146313" lon="19.096905"><ele>1447.5</ele><time>2012-05-01T13:54:24.0000000+00:00</time></trkpt><trkpt lat="43.14637" lon="19.096914"><ele>1447.8</ele><time>2012-05-01T13:54:29.0000000+00:00</time></trkpt><trkpt lat="43.146465" lon="19.096956"><ele>1447.8</ele><time>2012-05-01T13:54:34.0000000+00:00</time></trkpt><trkpt lat="43.146526" lon="19.097006"><ele>1447.7</ele><time>2012-05-01T13:54:39.0000000+00:00</time></trkpt><trkpt lat="43.146538" lon="19.097128"><ele>1447.5</ele><time>2012-05-01T13:54:44.0000000+00:00</time></trkpt><trkpt lat="43.146595" lon="19.097309"><ele>1446.4</ele><time>2012-05-01T13:54:49.0000000+00:00</time></trkpt><trkpt lat="43.146717" lon="19.097399"><ele>1446.1</ele><time>2012-05-01T13:54:54.0000000+00:00</time></trkpt><trkpt lat="43.146721" lon="19.097414"><ele>1443.6</ele><time>2012-05-01T13:54:59.0000000+00:00</time></trkpt><trkpt lat="43.146721" lon="19.097418"><ele>1443.5</ele><time>2012-05-01T13:55:04.0000000+00:00</time></trkpt><trkpt lat="43.146744" lon="19.097403"><ele>1442.9</ele><time>2012-05-01T13:55:09.0000000+00:00</time></trkpt><trkpt lat="43.146797" lon="19.097395"><ele>1442.0</ele><time>2012-05-01T13:55:14.0000000+00:00</time></trkpt><trkpt lat="43.146893" lon="19.097439"><ele>1440.5</ele><time>2012-05-01T13:55:19.0000000+00:00</time></trkpt><trkpt lat="43.146935" lon="19.097462"><ele>1438.6</ele><time>2012-05-01T13:55:24.0000000+00:00</time></trkpt><trkpt lat="43.146961" lon="19.097488"><ele>1437.0</ele><time>2012-05-01T13:55:29.0000000+00:00</time></trkpt><trkpt lat="43.146992" lon="19.097502"><ele>1437.7</ele><time>2012-05-01T13:55:34.0000000+00:00</time></trkpt><trkpt lat="43.147015" lon="19.097513"><ele>1438.1</ele><time>2012-05-01T13:55:39.0000000+00:00</time></trkpt><trkpt lat="43.147026" lon="19.097479"><ele>1437.9</ele><time>2012-05-01T13:55:44.0000000+00:00</time></trkpt><trkpt lat="43.147209" lon="19.097527"><ele>1438.9</ele><time>2012-05-01T13:55:49.0000000+00:00</time></trkpt><trkpt lat="43.147411" lon="19.097477"><ele>1438.8</ele><time>2012-05-01T13:55:54.0000000+00:00</time></trkpt><trkpt lat="43.147514" lon="19.097469"><ele>1441.2</ele><time>2012-05-01T13:55:59.0000000+00:00</time></trkpt><trkpt lat="43.147675" lon="19.097433"><ele>1444.7</ele><time>2012-05-01T13:56:04.0000000+00:00</time></trkpt><trkpt lat="43.14782" lon="19.097401"><ele>1447.0</ele><time>2012-05-01T13:56:09.0000000+00:00</time></trkpt><trkpt lat="43.147854" lon="19.097355"><ele>1449.3</ele><time>2012-05-01T13:56:14.0000000+00:00</time></trkpt><trkpt lat="43.147854" lon="19.097351"><ele>1451.8</ele><time>2012-05-01T13:56:19.0000000+00:00</time></trkpt><trkpt lat="43.147846" lon="19.09734"><ele>1453.8</ele><time>2012-05-01T13:56:24.0000000+00:00</time></trkpt><trkpt lat="43.147839" lon="19.097334"><ele>1454.6</ele><time>2012-05-01T13:56:29.0000000+00:00</time></trkpt><trkpt lat="43.147839" lon="19.097326"><ele>1454.9</ele><time>2012-05-01T13:56:34.0000000+00:00</time></trkpt><trkpt lat="43.147835" lon="19.097319"><ele>1455.1</ele><time>2012-05-01T13:56:39.0000000+00:00</time></trkpt><trkpt lat="43.147835" lon="19.097317"><ele>1455.2</ele><time>2012-05-01T13:56:44.0000000+00:00</time></trkpt><trkpt lat="43.147823" lon="19.097303"><ele>1455.3</ele><time>2012-05-01T13:56:49.0000000+00:00</time></trkpt><trkpt lat="43.147827" lon="19.09729"><ele>1455.3</ele><time>2012-05-01T13:56:54.0000000+00:00</time></trkpt><trkpt lat="43.147831" lon="19.097292"><ele>1455.2</ele><time>2012-05-01T13:56:59.0000000+00:00</time></trkpt><trkpt lat="43.147831" lon="19.097286"><ele>1455.3</ele><time>2012-05-01T13:57:04.0000000+00:00</time></trkpt><trkpt lat="43.147846" lon="19.097294"><ele>1455.4</ele><time>2012-05-01T13:57:09.0000000+00:00</time></trkpt><trkpt lat="43.147854" lon="19.097296"><ele>1455.5</ele><time>2012-05-01T13:57:14.0000000+00:00</time></trkpt><trkpt lat="43.14785" lon="19.097294"><ele>1455.5</ele><time>2012-05-01T13:57:19.0000000+00:00</time></trkpt><trkpt lat="43.147854" lon="19.097281"><ele>1455.5</ele><time>2012-05-01T13:57:24.0000000+00:00</time></trkpt><trkpt lat="43.147846" lon="19.097271"><ele>1455.6</ele><time>2012-05-01T13:57:29.0000000+00:00</time></trkpt><trkpt lat="43.147846" lon="19.097269"><ele>1455.6</ele><time>2012-05-01T13:57:34.0000000+00:00</time></trkpt><trkpt lat="43.14793" lon="19.097294"><ele>1455.5</ele><time>2012-05-01T13:57:39.0000000+00:00</time></trkpt><trkpt lat="43.148006" lon="19.09733"><ele>1453.8</ele><time>2012-05-01T13:57:44.0000000+00:00</time></trkpt><trkpt lat="43.148045" lon="19.097483"><ele>1452.8</ele><time>2012-05-01T13:57:49.0000000+00:00</time></trkpt><trkpt lat="43.148117" lon="19.097622"><ele>1452.4</ele><time>2012-05-01T13:57:54.0000000+00:00</time></trkpt><trkpt lat="43.148205" lon="19.097771"><ele>1452.2</ele><time>2012-05-01T13:57:59.0000000+00:00</time></trkpt><trkpt lat="43.148167" lon="19.097778"><ele>1451.8</ele><time>2012-05-01T13:58:04.0000000+00:00</time></trkpt><trkpt lat="43.14817" lon="19.097815"><ele>1451.7</ele><time>2012-05-01T13:58:09.0000000+00:00</time></trkpt><trkpt lat="43.148247" lon="19.097969"><ele>1451.9</ele><time>2012-05-01T13:58:14.0000000+00:00</time></trkpt><trkpt lat="43.148319" lon="19.098183"><ele>1452.5</ele><time>2012-05-01T13:58:19.0000000+00:00</time></trkpt><trkpt lat="43.148384" lon="19.098419"><ele>1452.9</ele><time>2012-05-01T13:58:24.0000000+00:00</time></trkpt><trkpt lat="43.148563" lon="19.098749"><ele>1453.1</ele><time>2012-05-01T13:58:29.0000000+00:00</time></trkpt><trkpt lat="43.148773" lon="19.099072"><ele>1453.6</ele><time>2012-05-01T13:58:34.0000000+00:00</time></trkpt><trkpt lat="43.149044" lon="19.099421"><ele>1454.6</ele><time>2012-05-01T13:58:39.0000000+00:00</time></trkpt><trkpt lat="43.149353" lon="19.099773"><ele>1457.7</ele><time>2012-05-01T13:58:44.0000000+00:00</time></trkpt><trkpt lat="43.149609" lon="19.100048"><ele>1458.9</ele><time>2012-05-01T13:58:49.0000000+00:00</time></trkpt><trkpt lat="43.149891" lon="19.100279"><ele>1457.6</ele><time>2012-05-01T13:58:54.0000000+00:00</time></trkpt><trkpt lat="43.149998" lon="19.100368"><ele>1457.7</ele><time>2012-05-01T13:58:59.0000000+00:00</time></trkpt><trkpt lat="43.150108" lon="19.100519"><ele>1453.5</ele><time>2012-05-01T13:59:04.0000000+00:00</time></trkpt><trkpt lat="43.150265" lon="19.100704"><ele>1452.1</ele><time>2012-05-01T13:59:09.0000000+00:00</time></trkpt><trkpt lat="43.150364" lon="19.100922"><ele>1452.2</ele><time>2012-05-01T13:59:14.0000000+00:00</time></trkpt><trkpt lat="43.150589" lon="19.101192"><ele>1453.7</ele><time>2012-05-01T13:59:19.0000000+00:00</time></trkpt><trkpt lat="43.150932" lon="19.101509"><ele>1450.7</ele><time>2012-05-01T13:59:24.0000000+00:00</time></trkpt><trkpt lat="43.151226" lon="19.10174"><ele>1448.7</ele><time>2012-05-01T13:59:29.0000000+00:00</time></trkpt><trkpt lat="43.151577" lon="19.101698"><ele>1447.4</ele><time>2012-05-01T13:59:34.0000000+00:00</time></trkpt><trkpt lat="43.151825" lon="19.10132"><ele>1446.0</ele><time>2012-05-01T13:59:39.0000000+00:00</time></trkpt><trkpt lat="43.152103" lon="19.101076"><ele>1445.8</ele><time>2012-05-01T13:59:44.0000000+00:00</time></trkpt><trkpt lat="43.152382" lon="19.101"><ele>1446.0</ele><time>2012-05-01T13:59:49.0000000+00:00</time></trkpt><trkpt lat="43.152714" lon="19.100916"><ele>1448.0</ele><time>2012-05-01T13:59:54.0000000+00:00</time></trkpt><trkpt lat="43.152992" lon="19.10088"><ele>1448.3</ele><time>2012-05-01T13:59:59.0000000+00:00</time></trkpt><trkpt lat="43.153275" lon="19.100878"><ele>1450.2</ele><time>2012-05-01T14:00:04.0000000+00:00</time></trkpt><trkpt lat="43.153534" lon="19.10104"><ele>1450.6</ele><time>2012-05-01T14:00:09.0000000+00:00</time></trkpt><trkpt lat="43.153728" lon="19.101156"><ele>1449.5</ele><time>2012-05-01T14:00:14.0000000+00:00</time></trkpt><trkpt lat="43.153854" lon="19.101286"><ele>1450.1</ele><time>2012-05-01T14:00:19.0000000+00:00</time></trkpt><trkpt lat="43.154053" lon="19.101536"><ele>1451.0</ele><time>2012-05-01T14:00:24.0000000+00:00</time></trkpt><trkpt lat="43.154236" lon="19.10178"><ele>1451.1</ele><time>2012-05-01T14:00:29.0000000+00:00</time></trkpt><trkpt lat="43.15435" lon="19.102083"><ele>1451.8</ele><time>2012-05-01T14:00:34.0000000+00:00</time></trkpt><trkpt lat="43.154415" lon="19.102409"><ele>1451.6</ele><time>2012-05-01T14:00:39.0000000+00:00</time></trkpt><trkpt lat="43.154446" lon="19.102751"><ele>1452.3</ele><time>2012-05-01T14:00:44.0000000+00:00</time></trkpt><trkpt lat="43.154472" lon="19.103088"><ele>1453.4</ele><time>2012-05-01T14:00:49.0000000+00:00</time></trkpt><trkpt lat="43.154636" lon="19.103397"><ele>1451.9</ele><time>2012-05-01T14:00:54.0000000+00:00</time></trkpt><trkpt lat="43.154797" lon="19.103758"><ele>1448.5</ele><time>2012-05-01T14:00:59.0000000+00:00</time></trkpt><trkpt lat="43.154873" lon="19.104078"><ele>1447.2</ele><time>2012-05-01T14:01:04.0000000+00:00</time></trkpt><trkpt lat="43.154884" lon="19.104431"><ele>1445.8</ele><time>2012-05-01T14:01:09.0000000+00:00</time></trkpt><trkpt lat="43.154812" lon="19.104755"><ele>1443.6</ele><time>2012-05-01T14:01:14.0000000+00:00</time></trkpt><trkpt lat="43.154713" lon="19.105043"><ele>1441.9</ele><time>2012-05-01T14:01:19.0000000+00:00</time></trkpt><trkpt lat="43.154629" lon="19.105337"><ele>1439.3</ele><time>2012-05-01T14:01:24.0000000+00:00</time></trkpt><trkpt lat="43.154533" lon="19.105612"><ele>1438.2</ele><time>2012-05-01T14:01:29.0000000+00:00</time></trkpt><trkpt lat="43.154427" lon="19.105909"><ele>1435.7</ele><time>2012-05-01T14:01:34.0000000+00:00</time></trkpt><trkpt lat="43.154255" lon="19.106207"><ele>1434.6</ele><time>2012-05-01T14:01:39.0000000+00:00</time></trkpt><trkpt lat="43.154087" lon="19.106392"><ele>1433.0</ele><time>2012-05-01T14:01:44.0000000+00:00</time></trkpt><trkpt lat="43.153969" lon="19.106524"><ele>1430.6</ele><time>2012-05-01T14:01:49.0000000+00:00</time></trkpt><trkpt lat="43.15382" lon="19.106602"><ele>1429.2</ele><time>2012-05-01T14:01:54.0000000+00:00</time></trkpt><trkpt lat="43.153652" lon="19.106663"><ele>1428.4</ele><time>2012-05-01T14:01:59.0000000+00:00</time></trkpt><trkpt lat="43.153446" lon="19.106741"><ele>1430.3</ele><time>2012-05-01T14:02:04.0000000+00:00</time></trkpt><trkpt lat="43.153255" lon="19.106878"><ele>1432.3</ele><time>2012-05-01T14:02:09.0000000+00:00</time></trkpt><trkpt lat="43.153126" lon="19.107222"><ele>1433.3</ele><time>2012-05-01T14:02:14.0000000+00:00</time></trkpt><trkpt lat="43.153141" lon="19.107584"><ele>1431.2</ele><time>2012-05-01T14:02:19.0000000+00:00</time></trkpt><trkpt lat="43.153198" lon="19.107925"><ele>1429.8</ele><time>2012-05-01T14:02:24.0000000+00:00</time></trkpt><trkpt lat="43.153221" lon="19.108238"><ele>1428.9</ele><time>2012-05-01T14:02:29.0000000+00:00</time></trkpt><trkpt lat="43.153149" lon="19.108555"><ele>1428.3</ele><time>2012-05-01T14:02:34.0000000+00:00</time></trkpt><trkpt lat="43.15303" lon="19.108839"><ele>1430.2</ele><time>2012-05-01T14:02:39.0000000+00:00</time></trkpt><trkpt lat="43.152973" lon="19.109093"><ele>1430.6</ele><time>2012-05-01T14:02:44.0000000+00:00</time></trkpt><trkpt lat="43.152992" lon="19.109335"><ele>1431.8</ele><time>2012-05-01T14:02:49.0000000+00:00</time></trkpt><trkpt lat="43.153015" lon="19.109499"><ele>1431.9</ele><time>2012-05-01T14:02:54.0000000+00:00</time></trkpt><trkpt lat="43.153042" lon="19.109688"><ele>1432.2</ele><time>2012-05-01T14:02:59.0000000+00:00</time></trkpt><trkpt lat="43.15303" lon="19.109844"><ele>1433.2</ele><time>2012-05-01T14:03:04.0000000+00:00</time></trkpt><trkpt lat="43.152985" lon="19.109997"><ele>1435.0</ele><time>2012-05-01T14:03:09.0000000+00:00</time></trkpt><trkpt lat="43.152977" lon="19.110226"><ele>1438.4</ele><time>2012-05-01T14:03:14.0000000+00:00</time></trkpt><trkpt lat="43.152931" lon="19.110403"><ele>1440.6</ele><time>2012-05-01T14:03:19.0000000+00:00</time></trkpt><trkpt lat="43.152912" lon="19.110624"><ele>1442.0</ele><time>2012-05-01T14:03:24.0000000+00:00</time></trkpt><trkpt lat="43.152973" lon="19.110878"><ele>1442.6</ele><time>2012-05-01T14:03:29.0000000+00:00</time></trkpt><trkpt lat="43.153019" lon="19.111048"><ele>1444.4</ele><time>2012-05-01T14:03:34.0000000+00:00</time></trkpt><trkpt lat="43.153069" lon="19.111259"><ele>1445.4</ele><time>2012-05-01T14:03:39.0000000+00:00</time></trkpt><trkpt lat="43.153118" lon="19.111502"><ele>1444.8</ele><time>2012-05-01T14:03:44.0000000+00:00</time></trkpt><trkpt lat="43.153191" lon="19.111742"><ele>1441.9</ele><time>2012-05-01T14:03:49.0000000+00:00</time></trkpt><trkpt lat="43.153225" lon="19.11195"><ele>1438.4</ele><time>2012-05-01T14:03:54.0000000+00:00</time></trkpt><trkpt lat="43.153236" lon="19.112144"><ele>1436.2</ele><time>2012-05-01T14:03:59.0000000+00:00</time></trkpt><trkpt lat="43.153301" lon="19.11237"><ele>1433.4</ele><time>2012-05-01T14:04:04.0000000+00:00</time></trkpt><trkpt lat="43.153397" lon="19.112593"><ele>1433.7</ele><time>2012-05-01T14:04:09.0000000+00:00</time></trkpt><trkpt lat="43.153454" lon="19.112856"><ele>1433.1</ele><time>2012-05-01T14:04:14.0000000+00:00</time></trkpt><trkpt lat="43.153488" lon="19.113096"><ele>1434.0</ele><time>2012-05-01T14:04:19.0000000+00:00</time></trkpt><trkpt lat="43.153637" lon="19.113413"><ele>1435.0</ele><time>2012-05-01T14:04:24.0000000+00:00</time></trkpt><trkpt lat="43.153759" lon="19.113708"><ele>1435.7</ele><time>2012-05-01T14:04:29.0000000+00:00</time></trkpt><trkpt lat="43.153851" lon="19.114"><ele>1436.7</ele><time>2012-05-01T14:04:34.0000000+00:00</time></trkpt><trkpt lat="43.153919" lon="19.114279"><ele>1436.7</ele><time>2012-05-01T14:04:39.0000000+00:00</time></trkpt><trkpt lat="43.153992" lon="19.114506"><ele>1436.0</ele><time>2012-05-01T14:04:44.0000000+00:00</time></trkpt><trkpt lat="43.154037" lon="19.11475"><ele>1434.0</ele><time>2012-05-01T14:04:49.0000000+00:00</time></trkpt><trkpt lat="43.154106" lon="19.115034"><ele>1432.2</ele><time>2012-05-01T14:04:54.0000000+00:00</time></trkpt><trkpt lat="43.15414" lon="19.115257"><ele>1430.6</ele><time>2012-05-01T14:04:59.0000000+00:00</time></trkpt><trkpt lat="43.154186" lon="19.115561"><ele>1429.5</ele><time>2012-05-01T14:05:04.0000000+00:00</time></trkpt><trkpt lat="43.154243" lon="19.115917"><ele>1429.2</ele><time>2012-05-01T14:05:09.0000000+00:00</time></trkpt><trkpt lat="43.154282" lon="19.116211"><ele>1428.0</ele><time>2012-05-01T14:05:14.0000000+00:00</time></trkpt><trkpt lat="43.154305" lon="19.116514"><ele>1428.5</ele><time>2012-05-01T14:05:19.0000000+00:00</time></trkpt><trkpt lat="43.15435" lon="19.116713"><ele>1428.9</ele><time>2012-05-01T14:05:24.0000000+00:00</time></trkpt><trkpt lat="43.15435" lon="19.11677"><ele>1430.3</ele><time>2012-05-01T14:05:29.0000000+00:00</time></trkpt><trkpt lat="43.154369" lon="19.116957"><ele>1431.5</ele><time>2012-05-01T14:05:34.0000000+00:00</time></trkpt><trkpt lat="43.154442" lon="19.117207"><ele>1432.8</ele><time>2012-05-01T14:05:39.0000000+00:00</time></trkpt><trkpt lat="43.154545" lon="19.117502"><ele>1433.7</ele><time>2012-05-01T14:05:44.0000000+00:00</time></trkpt><trkpt lat="43.154629" lon="19.117804"><ele>1435.1</ele><time>2012-05-01T14:05:49.0000000+00:00</time></trkpt><trkpt lat="43.154724" lon="19.118107"><ele>1436.5</ele><time>2012-05-01T14:05:54.0000000+00:00</time></trkpt><trkpt lat="43.154816" lon="19.118393"><ele>1437.4</ele><time>2012-05-01T14:05:59.0000000+00:00</time></trkpt><trkpt lat="43.154896" lon="19.118675"><ele>1439.6</ele><time>2012-05-01T14:06:04.0000000+00:00</time></trkpt><trkpt lat="43.155018" lon="19.118988"><ele>1441.1</ele><time>2012-05-01T14:06:09.0000000+00:00</time></trkpt><trkpt lat="43.155094" lon="19.119293"><ele>1442.2</ele><time>2012-05-01T14:06:14.0000000+00:00</time></trkpt><trkpt lat="43.155148" lon="19.119669"><ele>1441.8</ele><time>2012-05-01T14:06:19.0000000+00:00</time></trkpt><trkpt lat="43.155128" lon="19.12006"><ele>1443.0</ele><time>2012-05-01T14:06:24.0000000+00:00</time></trkpt><trkpt lat="43.155106" lon="19.120424"><ele>1444.0</ele><time>2012-05-01T14:06:29.0000000+00:00</time></trkpt><trkpt lat="43.155098" lon="19.120623"><ele>1444.8</ele><time>2012-05-01T14:06:34.0000000+00:00</time></trkpt><trkpt lat="43.155064" lon="19.120714"><ele>1446.8</ele><time>2012-05-01T14:06:39.0000000+00:00</time></trkpt><trkpt lat="43.155018" lon="19.120834"><ele>1447.6</ele><time>2012-05-01T14:06:44.0000000+00:00</time></trkpt><trkpt lat="43.154949" lon="19.120871"><ele>1449.8</ele><time>2012-05-01T14:06:49.0000000+00:00</time></trkpt><trkpt lat="43.15493" lon="19.120897"><ele>1450.3</ele><time>2012-05-01T14:06:54.0000000+00:00</time></trkpt><trkpt lat="43.15493" lon="19.120899"><ele>1450.3</ele><time>2012-05-01T14:06:59.0000000+00:00</time></trkpt><trkpt lat="43.15493" lon="19.120899"><ele>1450.3</ele><time>2012-05-01T14:07:04.0000000+00:00</time></trkpt><trkpt lat="43.15493" lon="19.120897"><ele>1450.2</ele><time>2012-05-01T14:07:09.0000000+00:00</time></trkpt><trkpt lat="43.15493" lon="19.120907"><ele>1450.1</ele><time>2012-05-01T14:07:14.0000000+00:00</time></trkpt><trkpt lat="43.15498" lon="19.120934"><ele>1449.4</ele><time>2012-05-01T14:07:19.0000000+00:00</time></trkpt><trkpt lat="43.155102" lon="19.120947"><ele>1450.0</ele><time>2012-05-01T14:07:24.0000000+00:00</time></trkpt><trkpt lat="43.155224" lon="19.12096"><ele>1450.6</ele><time>2012-05-01T14:07:29.0000000+00:00</time></trkpt><trkpt lat="43.155323" lon="19.120989"><ele>1448.5</ele><time>2012-05-01T14:07:34.0000000+00:00</time></trkpt><trkpt lat="43.155392" lon="19.120983"><ele>1447.4</ele><time>2012-05-01T14:07:39.0000000+00:00</time></trkpt><trkpt lat="43.155392" lon="19.120991"><ele>1446.6</ele><time>2012-05-01T14:07:44.0000000+00:00</time></trkpt><trkpt lat="43.155392" lon="19.120993"><ele>1446.6</ele><time>2012-05-01T14:07:49.0000000+00:00</time></trkpt><trkpt lat="43.155392" lon="19.120993"><ele>1446.5</ele><time>2012-05-01T14:07:54.0000000+00:00</time></trkpt><trkpt lat="43.155392" lon="19.120995"><ele>1446.5</ele><time>2012-05-01T14:07:59.0000000+00:00</time></trkpt><trkpt lat="43.155392" lon="19.120995"><ele>1446.5</ele><time>2012-05-01T14:08:04.0000000+00:00</time></trkpt><trkpt lat="43.155392" lon="19.120995"><ele>1446.5</ele><time>2012-05-01T14:08:09.0000000+00:00</time></trkpt><trkpt lat="43.15551" lon="19.121017"><ele>1445.8</ele><time>2012-05-01T14:08:14.0000000+00:00</time></trkpt><trkpt lat="43.155613" lon="19.120981"><ele>1442.8</ele><time>2012-05-01T14:08:19.0000000+00:00</time></trkpt><trkpt lat="43.155815" lon="19.121037"><ele>1443.0</ele><time>2012-05-01T14:08:24.0000000+00:00</time></trkpt><trkpt lat="43.156048" lon="19.121136"><ele>1442.7</ele><time>2012-05-01T14:08:29.0000000+00:00</time></trkpt><trkpt lat="43.156315" lon="19.121239"><ele>1442.0</ele><time>2012-05-01T14:08:34.0000000+00:00</time></trkpt><trkpt lat="43.15657" lon="19.121367"><ele>1444.7</ele><time>2012-05-01T14:08:39.0000000+00:00</time></trkpt><trkpt lat="43.156834" lon="19.121456"><ele>1443.2</ele><time>2012-05-01T14:08:44.0000000+00:00</time></trkpt><trkpt lat="43.157021" lon="19.121511"><ele>1443.2</ele><time>2012-05-01T14:08:49.0000000+00:00</time></trkpt><trkpt lat="43.157059" lon="19.121496"><ele>1442.5</ele><time>2012-05-01T14:08:54.0000000+00:00</time></trkpt><trkpt lat="43.157055" lon="19.121494"><ele>1442.9</ele><time>2012-05-01T14:08:59.0000000+00:00</time></trkpt><trkpt lat="43.157059" lon="19.121485"><ele>1443.0</ele><time>2012-05-01T14:09:04.0000000+00:00</time></trkpt><trkpt lat="43.156963" lon="19.121435"><ele>1442.1</ele><time>2012-05-01T14:09:09.0000000+00:00</time></trkpt><trkpt lat="43.156792" lon="19.121355"><ele>1445.1</ele><time>2012-05-01T14:09:14.0000000+00:00</time></trkpt><trkpt lat="43.156677" lon="19.121296"><ele>1445.5</ele><time>2012-05-01T14:09:19.0000000+00:00</time></trkpt><trkpt lat="43.15649" lon="19.121229"><ele>1448.9</ele><time>2012-05-01T14:09:24.0000000+00:00</time></trkpt><trkpt lat="43.156342" lon="19.121176"><ele>1450.9</ele><time>2012-05-01T14:09:29.0000000+00:00</time></trkpt><trkpt lat="43.156265" lon="19.121155"><ele>1453.4</ele><time>2012-05-01T14:09:34.0000000+00:00</time></trkpt><trkpt lat="43.156193" lon="19.121119"><ele>1453.7</ele><time>2012-05-01T14:09:39.0000000+00:00</time></trkpt><trkpt lat="43.156071" lon="19.121086"><ele>1453.2</ele><time>2012-05-01T14:09:44.0000000+00:00</time></trkpt><trkpt lat="43.155922" lon="19.121031"><ele>1455.7</ele><time>2012-05-01T14:09:49.0000000+00:00</time></trkpt><trkpt lat="43.155804" lon="19.120987"><ele>1454.7</ele><time>2012-05-01T14:09:54.0000000+00:00</time></trkpt><trkpt lat="43.155739" lon="19.120968"><ele>1452.9</ele><time>2012-05-01T14:09:59.0000000+00:00</time></trkpt><trkpt lat="43.155651" lon="19.120949"><ele>1452.4</ele><time>2012-05-01T14:10:04.0000000+00:00</time></trkpt><trkpt lat="43.155495" lon="19.120924"><ele>1451.5</ele><time>2012-05-01T14:10:09.0000000+00:00</time></trkpt><trkpt lat="43.155315" lon="19.120913"><ele>1451.5</ele><time>2012-05-01T14:10:14.0000000+00:00</time></trkpt><trkpt lat="43.155216" lon="19.120878"><ele>1452.0</ele><time>2012-05-01T14:10:19.0000000+00:00</time></trkpt><trkpt lat="43.155128" lon="19.120905"><ele>1453.0</ele><time>2012-05-01T14:10:24.0000000+00:00</time></trkpt><trkpt lat="43.15501" lon="19.121113"><ele>1454.0</ele><time>2012-05-01T14:10:29.0000000+00:00</time></trkpt><trkpt lat="43.15493" lon="19.12134"><ele>1455.0</ele><time>2012-05-01T14:10:34.0000000+00:00</time></trkpt><trkpt lat="43.154877" lon="19.121553"><ele>1456.0</ele><time>2012-05-01T14:10:39.0000000+00:00</time></trkpt><trkpt lat="43.154842" lon="19.121803"><ele>1455.8</ele><time>2012-05-01T14:10:44.0000000+00:00</time></trkpt><trkpt lat="43.154823" lon="19.122013"><ele>1455.6</ele><time>2012-05-01T14:10:49.0000000+00:00</time></trkpt><trkpt lat="43.154797" lon="19.122229"><ele>1455.1</ele><time>2012-05-01T14:10:54.0000000+00:00</time></trkpt><trkpt lat="43.15472" lon="19.122318"><ele>1457.2</ele><time>2012-05-01T14:10:59.0000000+00:00</time></trkpt><trkpt lat="43.154606" lon="19.122299"><ele>1457.4</ele><time>2012-05-01T14:11:04.0000000+00:00</time></trkpt><trkpt lat="43.154491" lon="19.122295"><ele>1457.8</ele><time>2012-05-01T14:11:09.0000000+00:00</time></trkpt><trkpt lat="43.154411" lon="19.122385"><ele>1459.0</ele><time>2012-05-01T14:11:14.0000000+00:00</time></trkpt><trkpt lat="43.154366" lon="19.12245"><ele>1457.2</ele><time>2012-05-01T14:11:19.0000000+00:00</time></trkpt><trkpt lat="43.154358" lon="19.122459"><ele>1457.1</ele><time>2012-05-01T14:11:24.0000000+00:00</time></trkpt><trkpt lat="43.154358" lon="19.122459"><ele>1457.1</ele><time>2012-05-01T14:11:29.0000000+00:00</time></trkpt><trkpt lat="43.154358" lon="19.122458"><ele>1457.1</ele><time>2012-05-01T14:11:34.0000000+00:00</time></trkpt><trkpt lat="43.154354" lon="19.122471"><ele>1457.0</ele><time>2012-05-01T14:11:39.0000000+00:00</time></trkpt><trkpt lat="43.154343" lon="19.122501"><ele>1457.0</ele><time>2012-05-01T14:11:44.0000000+00:00</time></trkpt><trkpt lat="43.15435" lon="19.122499"><ele>1456.9</ele><time>2012-05-01T14:11:49.0000000+00:00</time></trkpt><trkpt lat="43.154354" lon="19.122499"><ele>1456.9</ele><time>2012-05-01T14:11:54.0000000+00:00</time></trkpt><trkpt lat="43.154358" lon="19.122499"><ele>1457.1</ele><time>2012-05-01T14:11:59.0000000+00:00</time></trkpt><trkpt lat="43.154366" lon="19.122498"><ele>1457.5</ele><time>2012-05-01T14:12:04.0000000+00:00</time></trkpt><trkpt lat="43.154369" lon="19.122496"><ele>1458.1</ele><time>2012-05-01T14:12:09.0000000+00:00</time></trkpt><trkpt lat="43.154366" lon="19.122494"><ele>1458.5</ele><time>2012-05-01T14:12:14.0000000+00:00</time></trkpt><trkpt lat="43.154362" lon="19.122488"><ele>1458.7</ele><time>2012-05-01T14:12:19.0000000+00:00</time></trkpt><trkpt lat="43.154366" lon="19.122486"><ele>1458.7</ele><time>2012-05-01T14:12:24.0000000+00:00</time></trkpt><trkpt lat="43.154366" lon="19.122484"><ele>1458.7</ele><time>2012-05-01T14:12:29.0000000+00:00</time></trkpt><trkpt lat="43.154377" lon="19.122471"><ele>1458.6</ele><time>2012-05-01T14:12:34.0000000+00:00</time></trkpt><trkpt lat="43.154388" lon="19.122486"><ele>1458.6</ele><time>2012-05-01T14:12:39.0000000+00:00</time></trkpt><trkpt lat="43.154392" lon="19.122467"><ele>1458.7</ele><time>2012-05-01T14:12:44.0000000+00:00</time></trkpt><trkpt lat="43.154411" lon="19.122421"><ele>1458.8</ele><time>2012-05-01T14:12:49.0000000+00:00</time></trkpt><trkpt lat="43.154404" lon="19.122364"><ele>1458.3</ele><time>2012-05-01T14:12:54.0000000+00:00</time></trkpt><trkpt lat="43.154396" lon="19.122355"><ele>1458.4</ele><time>2012-05-01T14:12:59.0000000+00:00</time></trkpt><trkpt lat="43.1544" lon="19.122362"><ele>1458.5</ele><time>2012-05-01T14:13:04.0000000+00:00</time></trkpt><trkpt lat="43.1544" lon="19.122362"><ele>1458.5</ele><time>2012-05-01T14:13:09.0000000+00:00</time></trkpt><trkpt lat="43.154396" lon="19.122362"><ele>1458.5</ele><time>2012-05-01T14:13:14.0000000+00:00</time></trkpt><trkpt lat="43.1544" lon="19.122362"><ele>1458.6</ele><time>2012-05-01T14:13:19.0000000+00:00</time></trkpt><trkpt lat="43.1544" lon="19.122362"><ele>1458.6</ele><time>2012-05-01T14:13:24.0000000+00:00</time></trkpt><trkpt lat="43.1544" lon="19.122362"><ele>1458.6</ele><time>2012-05-01T14:13:29.0000000+00:00</time></trkpt><trkpt lat="43.1544" lon="19.122362"><ele>1458.7</ele><time>2012-05-01T14:13:34.0000000+00:00</time></trkpt><trkpt lat="43.1544" lon="19.122362"><ele>1458.7</ele><time>2012-05-01T14:13:39.0000000+00:00</time></trkpt><trkpt lat="43.1544" lon="19.12236"><ele>1458.7</ele><time>2012-05-01T14:13:44.0000000+00:00</time></trkpt><trkpt lat="43.1544" lon="19.12236"><ele>1458.7</ele><time>2012-05-01T14:13:49.0000000+00:00</time></trkpt><trkpt lat="43.1544" lon="19.12236"><ele>1458.7</ele><time>2012-05-01T14:13:54.0000000+00:00</time></trkpt><trkpt lat="43.1544" lon="19.122358"><ele>1458.8</ele><time>2012-05-01T14:13:59.0000000+00:00</time></trkpt><trkpt lat="43.1544" lon="19.122356"><ele>1458.8</ele><time>2012-05-01T14:14:04.0000000+00:00</time></trkpt><trkpt lat="43.154404" lon="19.122356"><ele>1458.8</ele><time>2012-05-01T14:14:09.0000000+00:00</time></trkpt><trkpt lat="43.154404" lon="19.122355"><ele>1458.8</ele><time>2012-05-01T14:14:14.0000000+00:00</time></trkpt><trkpt lat="43.154404" lon="19.122355"><ele>1458.9</ele><time>2012-05-01T14:14:19.0000000+00:00</time></trkpt><trkpt lat="43.154404" lon="19.122355"><ele>1458.9</ele><time>2012-05-01T14:14:24.0000000+00:00</time></trkpt><trkpt lat="43.154404" lon="19.122355"><ele>1458.9</ele><time>2012-05-01T14:14:29.0000000+00:00</time></trkpt><trkpt lat="43.154404" lon="19.122355"><ele>1458.9</ele><time>2012-05-01T14:14:34.0000000+00:00</time></trkpt><trkpt lat="43.154404" lon="19.122355"><ele>1458.9</ele><time>2012-05-01T14:14:39.0000000+00:00</time></trkpt><trkpt lat="43.154404" lon="19.122355"><ele>1458.9</ele><time>2012-05-01T14:14:44.0000000+00:00</time></trkpt><trkpt lat="43.154404" lon="19.122355"><ele>1458.9</ele><time>2012-05-01T14:14:49.0000000+00:00</time></trkpt><trkpt lat="43.154404" lon="19.122355"><ele>1458.9</ele><time>2012-05-01T14:14:54.0000000+00:00</time></trkpt><trkpt lat="43.154404" lon="19.122355"><ele>1458.9</ele><time>2012-05-01T14:14:59.0000000+00:00</time></trkpt><trkpt lat="43.154404" lon="19.122355"><ele>1458.9</ele><time>2012-05-01T14:15:04.0000000+00:00</time></trkpt><trkpt lat="43.154408" lon="19.122355"><ele>1458.9</ele><time>2012-05-01T14:15:09.0000000+00:00</time></trkpt><trkpt lat="43.154408" lon="19.122355"><ele>1458.9</ele><time>2012-05-01T14:15:14.0000000+00:00</time></trkpt><trkpt lat="43.154408" lon="19.122355"><ele>1458.8</ele><time>2012-05-01T14:15:19.0000000+00:00</time></trkpt><trkpt lat="43.154408" lon="19.122355"><ele>1458.9</ele><time>2012-05-01T14:15:24.0000000+00:00</time></trkpt><trkpt lat="43.154408" lon="19.122355"><ele>1458.9</ele><time>2012-05-01T14:15:29.0000000+00:00</time></trkpt><trkpt lat="43.154408" lon="19.122355"><ele>1458.9</ele><time>2012-05-01T14:15:34.0000000+00:00</time></trkpt><trkpt lat="43.154408" lon="19.122355"><ele>1459.0</ele><time>2012-05-01T14:15:39.0000000+00:00</time></trkpt><trkpt lat="43.154408" lon="19.122355"><ele>1459.0</ele><time>2012-05-01T14:15:44.0000000+00:00</time></trkpt><trkpt lat="43.154408" lon="19.122355"><ele>1459.0</ele><time>2012-05-01T14:15:49.0000000+00:00</time></trkpt><trkpt lat="43.154408" lon="19.122353"><ele>1459.0</ele><time>2012-05-01T14:15:54.0000000+00:00</time></trkpt><trkpt lat="43.154408" lon="19.122353"><ele>1459.1</ele><time>2012-05-01T14:15:59.0000000+00:00</time></trkpt><trkpt lat="43.154408" lon="19.122351"><ele>1459.1</ele><time>2012-05-01T14:16:04.0000000+00:00</time></trkpt><trkpt lat="43.154408" lon="19.122351"><ele>1459.1</ele><time>2012-05-01T14:16:09.0000000+00:00</time></trkpt><trkpt lat="43.154408" lon="19.122351"><ele>1459.0</ele><time>2012-05-01T14:16:14.0000000+00:00</time></trkpt><trkpt lat="43.154408" lon="19.122351"><ele>1459.0</ele><time>2012-05-01T14:16:19.0000000+00:00</time></trkpt><trkpt lat="43.154408" lon="19.122351"><ele>1459.0</ele><time>2012-05-01T14:16:24.0000000+00:00</time></trkpt><trkpt lat="43.154408" lon="19.122351"><ele>1459.0</ele><time>2012-05-01T14:16:29.0000000+00:00</time></trkpt><trkpt lat="43.154408" lon="19.122351"><ele>1459.0</ele><time>2012-05-01T14:16:34.0000000+00:00</time></trkpt><trkpt lat="43.154408" lon="19.122351"><ele>1458.9</ele><time>2012-05-01T14:16:39.0000000+00:00</time></trkpt><trkpt lat="43.154408" lon="19.122351"><ele>1458.9</ele><time>2012-05-01T14:16:44.0000000+00:00</time></trkpt><trkpt lat="43.154408" lon="19.122351"><ele>1458.9</ele><time>2012-05-01T14:16:49.0000000+00:00</time></trkpt><trkpt lat="43.154408" lon="19.122351"><ele>1458.8</ele><time>2012-05-01T14:16:54.0000000+00:00</time></trkpt><trkpt lat="43.154408" lon="19.122351"><ele>1458.8</ele><time>2012-05-01T14:16:59.0000000+00:00</time></trkpt><trkpt lat="43.154408" lon="19.122349"><ele>1458.8</ele><time>2012-05-01T14:17:04.0000000+00:00</time></trkpt><trkpt lat="43.154408" lon="19.122349"><ele>1458.8</ele><time>2012-05-01T14:17:09.0000000+00:00</time></trkpt><trkpt lat="43.154408" lon="19.122349"><ele>1458.7</ele><time>2012-05-01T14:17:14.0000000+00:00</time></trkpt><trkpt lat="43.154408" lon="19.122349"><ele>1458.7</ele><time>2012-05-01T14:17:19.0000000+00:00</time></trkpt><trkpt lat="43.154408" lon="19.122349"><ele>1458.6</ele><time>2012-05-01T14:17:24.0000000+00:00</time></trkpt><trkpt lat="43.154408" lon="19.122349"><ele>1458.6</ele><time>2012-05-01T14:17:29.0000000+00:00</time></trkpt><trkpt lat="43.154408" lon="19.122349"><ele>1458.6</ele><time>2012-05-01T14:17:34.0000000+00:00</time></trkpt><trkpt lat="43.154408" lon="19.122349"><ele>1458.5</ele><time>2012-05-01T14:17:39.0000000+00:00</time></trkpt><trkpt lat="43.154408" lon="19.122349"><ele>1458.5</ele><time>2012-05-01T14:17:44.0000000+00:00</time></trkpt><trkpt lat="43.154408" lon="19.122351"><ele>1458.5</ele><time>2012-05-01T14:17:49.0000000+00:00</time></trkpt><trkpt lat="43.154411" lon="19.122351"><ele>1458.5</ele><time>2012-05-01T14:17:54.0000000+00:00</time></trkpt><trkpt lat="43.154411" lon="19.122351"><ele>1458.5</ele><time>2012-05-01T14:17:59.0000000+00:00</time></trkpt><trkpt lat="43.154411" lon="19.122351"><ele>1458.4</ele><time>2012-05-01T14:18:04.0000000+00:00</time></trkpt><trkpt lat="43.154411" lon="19.122351"><ele>1458.4</ele><time>2012-05-01T14:18:09.0000000+00:00</time></trkpt><trkpt lat="43.154411" lon="19.122351"><ele>1458.3</ele><time>2012-05-01T14:18:14.0000000+00:00</time></trkpt><trkpt lat="43.154411" lon="19.122351"><ele>1458.3</ele><time>2012-05-01T14:18:19.0000000+00:00</time></trkpt><trkpt lat="43.154411" lon="19.122349"><ele>1458.2</ele><time>2012-05-01T14:18:24.0000000+00:00</time></trkpt><trkpt lat="43.154411" lon="19.122347"><ele>1458.2</ele><time>2012-05-01T14:18:29.0000000+00:00</time></trkpt><trkpt lat="43.154411" lon="19.122345"><ele>1458.2</ele><time>2012-05-01T14:18:34.0000000+00:00</time></trkpt><trkpt lat="43.154411" lon="19.122345"><ele>1458.2</ele><time>2012-05-01T14:18:39.0000000+00:00</time></trkpt><trkpt lat="43.154411" lon="19.122343"><ele>1458.2</ele><time>2012-05-01T14:18:44.0000000+00:00</time></trkpt><trkpt lat="43.154411" lon="19.122343"><ele>1458.2</ele><time>2012-05-01T14:18:49.0000000+00:00</time></trkpt><trkpt lat="43.154411" lon="19.122343"><ele>1458.3</ele><time>2012-05-01T14:18:54.0000000+00:00</time></trkpt><trkpt lat="43.154411" lon="19.122343"><ele>1458.3</ele><time>2012-05-01T14:18:59.0000000+00:00</time></trkpt><trkpt lat="43.154411" lon="19.122341"><ele>1458.3</ele><time>2012-05-01T14:19:04.0000000+00:00</time></trkpt><trkpt lat="43.154411" lon="19.122341"><ele>1458.3</ele><time>2012-05-01T14:19:09.0000000+00:00</time></trkpt><trkpt lat="43.154411" lon="19.122341"><ele>1458.3</ele><time>2012-05-01T14:19:14.0000000+00:00</time></trkpt><trkpt lat="43.154411" lon="19.122341"><ele>1458.2</ele><time>2012-05-01T14:19:19.0000000+00:00</time></trkpt><trkpt lat="43.154411" lon="19.122341"><ele>1458.2</ele><time>2012-05-01T14:19:24.0000000+00:00</time></trkpt><trkpt lat="43.154408" lon="19.122341"><ele>1458.2</ele><time>2012-05-01T14:19:29.0000000+00:00</time></trkpt><trkpt lat="43.154411" lon="19.122339"><ele>1458.2</ele><time>2012-05-01T14:19:34.0000000+00:00</time></trkpt><trkpt lat="43.154411" lon="19.122339"><ele>1458.1</ele><time>2012-05-01T14:19:39.0000000+00:00</time></trkpt><trkpt lat="43.154411" lon="19.122339"><ele>1458.1</ele><time>2012-05-01T14:19:44.0000000+00:00</time></trkpt><trkpt lat="43.154411" lon="19.122337"><ele>1458.1</ele><time>2012-05-01T14:19:49.0000000+00:00</time></trkpt><trkpt lat="43.154408" lon="19.122337"><ele>1458.1</ele><time>2012-05-01T14:19:54.0000000+00:00</time></trkpt><trkpt lat="43.154408" lon="19.122335"><ele>1458.1</ele><time>2012-05-01T14:19:59.0000000+00:00</time></trkpt><trkpt lat="43.154408" lon="19.122335"><ele>1458.1</ele><time>2012-05-01T14:20:04.0000000+00:00</time></trkpt><trkpt lat="43.154408" lon="19.122335"><ele>1458.0</ele><time>2012-05-01T14:20:09.0000000+00:00</time></trkpt><trkpt lat="43.154408" lon="19.122335"><ele>1458.0</ele><time>2012-05-01T14:20:14.0000000+00:00</time></trkpt><trkpt lat="43.154408" lon="19.122335"><ele>1458.0</ele><time>2012-05-01T14:20:19.0000000+00:00</time></trkpt><trkpt lat="43.154408" lon="19.122335"><ele>1458.0</ele><time>2012-05-01T14:20:24.0000000+00:00</time></trkpt><trkpt lat="43.154408" lon="19.122335"><ele>1458.0</ele><time>2012-05-01T14:20:29.0000000+00:00</time></trkpt><trkpt lat="43.154408" lon="19.122335"><ele>1458.0</ele><time>2012-05-01T14:20:34.0000000+00:00</time></trkpt><trkpt lat="43.154408" lon="19.122335"><ele>1458.0</ele><time>2012-05-01T14:20:39.0000000+00:00</time></trkpt><trkpt lat="43.154408" lon="19.122335"><ele>1457.9</ele><time>2012-05-01T14:20:44.0000000+00:00</time></trkpt><trkpt lat="43.154408" lon="19.122335"><ele>1457.9</ele><time>2012-05-01T14:20:49.0000000+00:00</time></trkpt><trkpt lat="43.154408" lon="19.122335"><ele>1457.9</ele><time>2012-05-01T14:20:54.0000000+00:00</time></trkpt><trkpt lat="43.154408" lon="19.122335"><ele>1457.8</ele><time>2012-05-01T14:20:59.0000000+00:00</time></trkpt><trkpt lat="43.154408" lon="19.122334"><ele>1457.8</ele><time>2012-05-01T14:21:04.0000000+00:00</time></trkpt><trkpt lat="43.154408" lon="19.122332"><ele>1457.8</ele><time>2012-05-01T14:21:09.0000000+00:00</time></trkpt><trkpt lat="43.154404" lon="19.122332"><ele>1457.8</ele><time>2012-05-01T14:21:14.0000000+00:00</time></trkpt><trkpt lat="43.154404" lon="19.122332"><ele>1457.8</ele><time>2012-05-01T14:21:19.0000000+00:00</time></trkpt><trkpt lat="43.154404" lon="19.122332"><ele>1457.8</ele><time>2012-05-01T14:21:24.0000000+00:00</time></trkpt><trkpt lat="43.154408" lon="19.122332"><ele>1457.8</ele><time>2012-05-01T14:21:29.0000000+00:00</time></trkpt><trkpt lat="43.154408" lon="19.122332"><ele>1457.8</ele><time>2012-05-01T14:21:34.0000000+00:00</time></trkpt><trkpt lat="43.154408" lon="19.122332"><ele>1457.8</ele><time>2012-05-01T14:21:39.0000000+00:00</time></trkpt><trkpt lat="43.154408" lon="19.122332"><ele>1457.8</ele><time>2012-05-01T14:21:44.0000000+00:00</time></trkpt><trkpt lat="43.154408" lon="19.12233"><ele>1457.9</ele><time>2012-05-01T14:21:49.0000000+00:00</time></trkpt><trkpt lat="43.154408" lon="19.122328"><ele>1457.9</ele><time>2012-05-01T14:21:54.0000000+00:00</time></trkpt><trkpt lat="43.154408" lon="19.122328"><ele>1457.9</ele><time>2012-05-01T14:21:59.0000000+00:00</time></trkpt><trkpt lat="43.154408" lon="19.122328"><ele>1458.0</ele><time>2012-05-01T14:22:04.0000000+00:00</time></trkpt><trkpt lat="43.154408" lon="19.122326"><ele>1458.0</ele><time>2012-05-01T14:22:09.0000000+00:00</time></trkpt><trkpt lat="43.154408" lon="19.122326"><ele>1458.0</ele><time>2012-05-01T14:22:14.0000000+00:00</time></trkpt><trkpt lat="43.154408" lon="19.122324"><ele>1458.0</ele><time>2012-05-01T14:22:19.0000000+00:00</time></trkpt><trkpt lat="43.154408" lon="19.122324"><ele>1458.0</ele><time>2012-05-01T14:22:24.0000000+00:00</time></trkpt><trkpt lat="43.154408" lon="19.122326"><ele>1457.9</ele><time>2012-05-01T14:22:29.0000000+00:00</time></trkpt><trkpt lat="43.154408" lon="19.122324"><ele>1457.9</ele><time>2012-05-01T14:22:34.0000000+00:00</time></trkpt><trkpt lat="43.154408" lon="19.122324"><ele>1458.0</ele><time>2012-05-01T14:22:39.0000000+00:00</time></trkpt><trkpt lat="43.154408" lon="19.122322"><ele>1458.0</ele><time>2012-05-01T14:22:44.0000000+00:00</time></trkpt><trkpt lat="43.154408" lon="19.122322"><ele>1458.0</ele><time>2012-05-01T14:22:49.0000000+00:00</time></trkpt><trkpt lat="43.154408" lon="19.122322"><ele>1458.0</ele><time>2012-05-01T14:22:54.0000000+00:00</time></trkpt><trkpt lat="43.154408" lon="19.12232"><ele>1458.0</ele><time>2012-05-01T14:22:59.0000000+00:00</time></trkpt><trkpt lat="43.154408" lon="19.12232"><ele>1457.9</ele><time>2012-05-01T14:23:04.0000000+00:00</time></trkpt><trkpt lat="43.154408" lon="19.12232"><ele>1457.9</ele><time>2012-05-01T14:23:09.0000000+00:00</time></trkpt><trkpt lat="43.154408" lon="19.12232"><ele>1457.9</ele><time>2012-05-01T14:23:14.0000000+00:00</time></trkpt><trkpt lat="43.154408" lon="19.12232"><ele>1457.9</ele><time>2012-05-01T14:23:19.0000000+00:00</time></trkpt><trkpt lat="43.154408" lon="19.12232"><ele>1458.0</ele><time>2012-05-01T14:23:24.0000000+00:00</time></trkpt><trkpt lat="43.154408" lon="19.122318"><ele>1457.9</ele><time>2012-05-01T14:23:29.0000000+00:00</time></trkpt><trkpt lat="43.154408" lon="19.122318"><ele>1458.0</ele><time>2012-05-01T14:23:34.0000000+00:00</time></trkpt><trkpt lat="43.154408" lon="19.122316"><ele>1458.0</ele><time>2012-05-01T14:23:39.0000000+00:00</time></trkpt><trkpt lat="43.154408" lon="19.122316"><ele>1458.0</ele><time>2012-05-01T14:23:44.0000000+00:00</time></trkpt><trkpt lat="43.154408" lon="19.122314"><ele>1458.0</ele><time>2012-05-01T14:23:49.0000000+00:00</time></trkpt><trkpt lat="43.154408" lon="19.122314"><ele>1458.0</ele><time>2012-05-01T14:23:54.0000000+00:00</time></trkpt><trkpt lat="43.154408" lon="19.122314"><ele>1458.0</ele><time>2012-05-01T14:23:59.0000000+00:00</time></trkpt><trkpt lat="43.154408" lon="19.122314"><ele>1458.0</ele><time>2012-05-01T14:24:04.0000000+00:00</time></trkpt><trkpt lat="43.154408" lon="19.122314"><ele>1458.0</ele><time>2012-05-01T14:24:09.0000000+00:00</time></trkpt><trkpt lat="43.154408" lon="19.122314"><ele>1457.9</ele><time>2012-05-01T14:24:14.0000000+00:00</time></trkpt><trkpt lat="43.154408" lon="19.122313"><ele>1457.9</ele><time>2012-05-01T14:24:19.0000000+00:00</time></trkpt><trkpt lat="43.154408" lon="19.122313"><ele>1458.0</ele><time>2012-05-01T14:24:24.0000000+00:00</time></trkpt><trkpt lat="43.154408" lon="19.122311"><ele>1458.0</ele><time>2012-05-01T14:24:29.0000000+00:00</time></trkpt><trkpt lat="43.154408" lon="19.122311"><ele>1458.0</ele><time>2012-05-01T14:24:34.0000000+00:00</time></trkpt><trkpt lat="43.154408" lon="19.122311"><ele>1458.0</ele><time>2012-05-01T14:24:39.0000000+00:00</time></trkpt><trkpt lat="43.154408" lon="19.122309"><ele>1458.0</ele><time>2012-05-01T14:24:44.0000000+00:00</time></trkpt><trkpt lat="43.154408" lon="19.122309"><ele>1458.0</ele><time>2012-05-01T14:24:49.0000000+00:00</time></trkpt><trkpt lat="43.154408" lon="19.122309"><ele>1458.0</ele><time>2012-05-01T14:24:54.0000000+00:00</time></trkpt><trkpt lat="43.154408" lon="19.122309"><ele>1458.0</ele><time>2012-05-01T14:24:59.0000000+00:00</time></trkpt><trkpt lat="43.154408" lon="19.122309"><ele>1458.0</ele><time>2012-05-01T14:25:04.0000000+00:00</time></trkpt><trkpt lat="43.154404" lon="19.122309"><ele>1458.0</ele><time>2012-05-01T14:25:09.0000000+00:00</time></trkpt><trkpt lat="43.154404" lon="19.122307"><ele>1458.0</ele><time>2012-05-01T14:25:14.0000000+00:00</time></trkpt><trkpt lat="43.154404" lon="19.122307"><ele>1458.1</ele><time>2012-05-01T14:25:19.0000000+00:00</time></trkpt><trkpt lat="43.154404" lon="19.122307"><ele>1458.1</ele><time>2012-05-01T14:25:24.0000000+00:00</time></trkpt><trkpt lat="43.154404" lon="19.122305"><ele>1458.1</ele><time>2012-05-01T14:25:29.0000000+00:00</time></trkpt><trkpt lat="43.154404" lon="19.122305"><ele>1458.0</ele><time>2012-05-01T14:25:34.0000000+00:00</time></trkpt><trkpt lat="43.154404" lon="19.122303"><ele>1458.0</ele><time>2012-05-01T14:25:39.0000000+00:00</time></trkpt><trkpt lat="43.154404" lon="19.122303"><ele>1458.0</ele><time>2012-05-01T14:25:44.0000000+00:00</time></trkpt><trkpt lat="43.154404" lon="19.122303"><ele>1458.0</ele><time>2012-05-01T14:25:49.0000000+00:00</time></trkpt><trkpt lat="43.154404" lon="19.122303"><ele>1458.0</ele><time>2012-05-01T14:25:54.0000000+00:00</time></trkpt><trkpt lat="43.154404" lon="19.122301"><ele>1458.0</ele><time>2012-05-01T14:25:59.0000000+00:00</time></trkpt><trkpt lat="43.1544" lon="19.122301"><ele>1457.9</ele><time>2012-05-01T14:26:04.0000000+00:00</time></trkpt><trkpt lat="43.1544" lon="19.122301"><ele>1457.8</ele><time>2012-05-01T14:26:09.0000000+00:00</time></trkpt><trkpt lat="43.1544" lon="19.122301"><ele>1457.8</ele><time>2012-05-01T14:26:14.0000000+00:00</time></trkpt><trkpt lat="43.1544" lon="19.122301"><ele>1457.8</ele><time>2012-05-01T14:26:19.0000000+00:00</time></trkpt><trkpt lat="43.1544" lon="19.122301"><ele>1457.8</ele><time>2012-05-01T14:26:24.0000000+00:00</time></trkpt><trkpt lat="43.1544" lon="19.122301"><ele>1457.7</ele><time>2012-05-01T14:26:29.0000000+00:00</time></trkpt><trkpt lat="43.1544" lon="19.122301"><ele>1457.7</ele><time>2012-05-01T14:26:34.0000000+00:00</time></trkpt><trkpt lat="43.1544" lon="19.122301"><ele>1457.7</ele><time>2012-05-01T14:26:39.0000000+00:00</time></trkpt><trkpt lat="43.1544" lon="19.122301"><ele>1457.7</ele><time>2012-05-01T14:26:44.0000000+00:00</time></trkpt><trkpt lat="43.1544" lon="19.122299"><ele>1457.7</ele><time>2012-05-01T14:26:49.0000000+00:00</time></trkpt><trkpt lat="43.1544" lon="19.122299"><ele>1457.7</ele><time>2012-05-01T14:26:54.0000000+00:00</time></trkpt><trkpt lat="43.1544" lon="19.122299"><ele>1457.7</ele><time>2012-05-01T14:26:59.0000000+00:00</time></trkpt><trkpt lat="43.1544" lon="19.122299"><ele>1457.6</ele><time>2012-05-01T14:27:04.0000000+00:00</time></trkpt><trkpt lat="43.154396" lon="19.122299"><ele>1457.5</ele><time>2012-05-01T14:27:09.0000000+00:00</time></trkpt><trkpt lat="43.154396" lon="19.122299"><ele>1457.5</ele><time>2012-05-01T14:27:14.0000000+00:00</time></trkpt><trkpt lat="43.154396" lon="19.122299"><ele>1457.5</ele><time>2012-05-01T14:27:19.0000000+00:00</time></trkpt><trkpt lat="43.154396" lon="19.122299"><ele>1457.5</ele><time>2012-05-01T14:27:24.0000000+00:00</time></trkpt><trkpt lat="43.154396" lon="19.122299"><ele>1457.5</ele><time>2012-05-01T14:27:29.0000000+00:00</time></trkpt><trkpt lat="43.154396" lon="19.122299"><ele>1457.5</ele><time>2012-05-01T14:27:34.0000000+00:00</time></trkpt><trkpt lat="43.154396" lon="19.122299"><ele>1457.5</ele><time>2012-05-01T14:27:39.0000000+00:00</time></trkpt><trkpt lat="43.154396" lon="19.122297"><ele>1457.6</ele><time>2012-05-01T14:27:44.0000000+00:00</time></trkpt><trkpt lat="43.154396" lon="19.122297"><ele>1457.6</ele><time>2012-05-01T14:27:49.0000000+00:00</time></trkpt><trkpt lat="43.154396" lon="19.122297"><ele>1457.6</ele><time>2012-05-01T14:27:54.0000000+00:00</time></trkpt><trkpt lat="43.154396" lon="19.122297"><ele>1457.5</ele><time>2012-05-01T14:27:59.0000000+00:00</time></trkpt><trkpt lat="43.154396" lon="19.122297"><ele>1457.5</ele><time>2012-05-01T14:28:04.0000000+00:00</time></trkpt><trkpt lat="43.154396" lon="19.122297"><ele>1457.4</ele><time>2012-05-01T14:28:09.0000000+00:00</time></trkpt><trkpt lat="43.154396" lon="19.122297"><ele>1457.3</ele><time>2012-05-01T14:28:14.0000000+00:00</time></trkpt><trkpt lat="43.154396" lon="19.122297"><ele>1457.3</ele><time>2012-05-01T14:28:19.0000000+00:00</time></trkpt><trkpt lat="43.154396" lon="19.122297"><ele>1457.3</ele><time>2012-05-01T14:28:24.0000000+00:00</time></trkpt><trkpt lat="43.154396" lon="19.122297"><ele>1457.4</ele><time>2012-05-01T14:28:29.0000000+00:00</time></trkpt><trkpt lat="43.154396" lon="19.122297"><ele>1457.4</ele><time>2012-05-01T14:28:34.0000000+00:00</time></trkpt><trkpt lat="43.154396" lon="19.122297"><ele>1457.4</ele><time>2012-05-01T14:28:39.0000000+00:00</time></trkpt><trkpt lat="43.154396" lon="19.122297"><ele>1457.4</ele><time>2012-05-01T14:28:44.0000000+00:00</time></trkpt><trkpt lat="43.154396" lon="19.122297"><ele>1457.3</ele><time>2012-05-01T14:28:49.0000000+00:00</time></trkpt><trkpt lat="43.154396" lon="19.122297"><ele>1457.2</ele><time>2012-05-01T14:28:54.0000000+00:00</time></trkpt><trkpt lat="43.154396" lon="19.122297"><ele>1457.2</ele><time>2012-05-01T14:28:59.0000000+00:00</time></trkpt><trkpt lat="43.154396" lon="19.122297"><ele>1457.1</ele><time>2012-05-01T14:29:04.0000000+00:00</time></trkpt><trkpt lat="43.154396" lon="19.122297"><ele>1457.1</ele><time>2012-05-01T14:29:09.0000000+00:00</time></trkpt><trkpt lat="43.154396" lon="19.122297"><ele>1457.1</ele><time>2012-05-01T14:29:14.0000000+00:00</time></trkpt><trkpt lat="43.154396" lon="19.122297"><ele>1457.1</ele><time>2012-05-01T14:29:19.0000000+00:00</time></trkpt><trkpt lat="43.154396" lon="19.122297"><ele>1457.1</ele><time>2012-05-01T14:29:24.0000000+00:00</time></trkpt><trkpt lat="43.154396" lon="19.122297"><ele>1457.1</ele><time>2012-05-01T14:29:29.0000000+00:00</time></trkpt><trkpt lat="43.154396" lon="19.122297"><ele>1457.0</ele><time>2012-05-01T14:29:34.0000000+00:00</time></trkpt><trkpt lat="43.154396" lon="19.122297"><ele>1457.0</ele><time>2012-05-01T14:29:39.0000000+00:00</time></trkpt><trkpt lat="43.154396" lon="19.122297"><ele>1456.9</ele><time>2012-05-01T14:29:44.0000000+00:00</time></trkpt><trkpt lat="43.154396" lon="19.122297"><ele>1456.8</ele><time>2012-05-01T14:29:49.0000000+00:00</time></trkpt><trkpt lat="43.154396" lon="19.122297"><ele>1456.7</ele><time>2012-05-01T14:29:54.0000000+00:00</time></trkpt><trkpt lat="43.154396" lon="19.122297"><ele>1456.7</ele><time>2012-05-01T14:29:59.0000000+00:00</time></trkpt><trkpt lat="43.154396" lon="19.122297"><ele>1456.7</ele><time>2012-05-01T14:30:04.0000000+00:00</time></trkpt><trkpt lat="43.154396" lon="19.122297"><ele>1456.7</ele><time>2012-05-01T14:30:09.0000000+00:00</time></trkpt><trkpt lat="43.154396" lon="19.122297"><ele>1456.8</ele><time>2012-05-01T14:30:14.0000000+00:00</time></trkpt><trkpt lat="43.154396" lon="19.122297"><ele>1456.8</ele><time>2012-05-01T14:30:19.0000000+00:00</time></trkpt><trkpt lat="43.154396" lon="19.122297"><ele>1456.8</ele><time>2012-05-01T14:30:24.0000000+00:00</time></trkpt><trkpt lat="43.154396" lon="19.122297"><ele>1456.8</ele><time>2012-05-01T14:30:29.0000000+00:00</time></trkpt><trkpt lat="43.154396" lon="19.122297"><ele>1456.7</ele><time>2012-05-01T14:30:34.0000000+00:00</time></trkpt><trkpt lat="43.154396" lon="19.122297"><ele>1456.6</ele><time>2012-05-01T14:30:39.0000000+00:00</time></trkpt><trkpt lat="43.154396" lon="19.122297"><ele>1456.5</ele><time>2012-05-01T14:30:44.0000000+00:00</time></trkpt><trkpt lat="43.154396" lon="19.122297"><ele>1456.5</ele><time>2012-05-01T14:30:49.0000000+00:00</time></trkpt><trkpt lat="43.154396" lon="19.122297"><ele>1456.5</ele><time>2012-05-01T14:30:54.0000000+00:00</time></trkpt><trkpt lat="43.154396" lon="19.122297"><ele>1456.6</ele><time>2012-05-01T14:30:59.0000000+00:00</time></trkpt><trkpt lat="43.154396" lon="19.122297"><ele>1456.6</ele><time>2012-05-01T14:31:04.0000000+00:00</time></trkpt><trkpt lat="43.154396" lon="19.122297"><ele>1456.6</ele><time>2012-05-01T14:31:09.0000000+00:00</time></trkpt><trkpt lat="43.154396" lon="19.122297"><ele>1456.6</ele><time>2012-05-01T14:31:14.0000000+00:00</time></trkpt><trkpt lat="43.154396" lon="19.122297"><ele>1456.6</ele><time>2012-05-01T14:31:19.0000000+00:00</time></trkpt><trkpt lat="43.154396" lon="19.122297"><ele>1456.5</ele><time>2012-05-01T14:31:24.0000000+00:00</time></trkpt><trkpt lat="43.154396" lon="19.122295"><ele>1456.5</ele><time>2012-05-01T14:31:29.0000000+00:00</time></trkpt><trkpt lat="43.154396" lon="19.122295"><ele>1456.5</ele><time>2012-05-01T14:31:34.0000000+00:00</time></trkpt><trkpt lat="43.154396" lon="19.122295"><ele>1456.4</ele><time>2012-05-01T14:31:39.0000000+00:00</time></trkpt><trkpt lat="43.154396" lon="19.122295"><ele>1456.4</ele><time>2012-05-01T14:31:44.0000000+00:00</time></trkpt><trkpt lat="43.154396" lon="19.122295"><ele>1456.4</ele><time>2012-05-01T14:31:49.0000000+00:00</time></trkpt><trkpt lat="43.154396" lon="19.122295"><ele>1456.5</ele><time>2012-05-01T14:31:54.0000000+00:00</time></trkpt><trkpt lat="43.154396" lon="19.122295"><ele>1456.5</ele><time>2012-05-01T14:31:59.0000000+00:00</time></trkpt><trkpt lat="43.154396" lon="19.122295"><ele>1456.5</ele><time>2012-05-01T14:32:04.0000000+00:00</time></trkpt><trkpt lat="43.154396" lon="19.122295"><ele>1456.5</ele><time>2012-05-01T14:32:09.0000000+00:00</time></trkpt><trkpt lat="43.154396" lon="19.122295"><ele>1456.4</ele><time>2012-05-01T14:32:14.0000000+00:00</time></trkpt><trkpt lat="43.154396" lon="19.122295"><ele>1456.4</ele><time>2012-05-01T14:32:19.0000000+00:00</time></trkpt><trkpt lat="43.154396" lon="19.122295"><ele>1456.3</ele><time>2012-05-01T14:32:24.0000000+00:00</time></trkpt><trkpt lat="43.154396" lon="19.122295"><ele>1456.3</ele><time>2012-05-01T14:32:29.0000000+00:00</time></trkpt><trkpt lat="43.154396" lon="19.122295"><ele>1456.4</ele><time>2012-05-01T14:32:34.0000000+00:00</time></trkpt><trkpt lat="43.154396" lon="19.122295"><ele>1456.4</ele><time>2012-05-01T14:32:39.0000000+00:00</time></trkpt><trkpt lat="43.154396" lon="19.122295"><ele>1456.4</ele><time>2012-05-01T14:32:44.0000000+00:00</time></trkpt><trkpt lat="43.154396" lon="19.122293"><ele>1456.5</ele><time>2012-05-01T14:32:49.0000000+00:00</time></trkpt><trkpt lat="43.154396" lon="19.122293"><ele>1456.5</ele><time>2012-05-01T14:32:54.0000000+00:00</time></trkpt><trkpt lat="43.154396" lon="19.122293"><ele>1456.5</ele><time>2012-05-01T14:32:59.0000000+00:00</time></trkpt><trkpt lat="43.154396" lon="19.122293"><ele>1456.5</ele><time>2012-05-01T14:33:04.0000000+00:00</time></trkpt><trkpt lat="43.154396" lon="19.122293"><ele>1456.5</ele><time>2012-05-01T14:33:09.0000000+00:00</time></trkpt><trkpt lat="43.154396" lon="19.122293"><ele>1456.5</ele><time>2012-05-01T14:33:14.0000000+00:00</time></trkpt><trkpt lat="43.154392" lon="19.122292"><ele>1456.5</ele><time>2012-05-01T14:33:19.0000000+00:00</time></trkpt><trkpt lat="43.154396" lon="19.122292"><ele>1456.5</ele><time>2012-05-01T14:33:24.0000000+00:00</time></trkpt><trkpt lat="43.154396" lon="19.122292"><ele>1456.5</ele><time>2012-05-01T14:33:29.0000000+00:00</time></trkpt><trkpt lat="43.154396" lon="19.122292"><ele>1456.5</ele><time>2012-05-01T14:33:34.0000000+00:00</time></trkpt><trkpt lat="43.154396" lon="19.122292"><ele>1456.5</ele><time>2012-05-01T14:33:39.0000000+00:00</time></trkpt><trkpt lat="43.154396" lon="19.12229"><ele>1456.5</ele><time>2012-05-01T14:33:44.0000000+00:00</time></trkpt><trkpt lat="43.154396" lon="19.12229"><ele>1456.5</ele><time>2012-05-01T14:33:49.0000000+00:00</time></trkpt><trkpt lat="43.154396" lon="19.12229"><ele>1456.4</ele><time>2012-05-01T14:33:54.0000000+00:00</time></trkpt><trkpt lat="43.154396" lon="19.12229"><ele>1456.4</ele><time>2012-05-01T14:33:59.0000000+00:00</time></trkpt><trkpt lat="43.154396" lon="19.122288"><ele>1456.5</ele><time>2012-05-01T14:34:04.0000000+00:00</time></trkpt><trkpt lat="43.154396" lon="19.122286"><ele>1456.6</ele><time>2012-05-01T14:34:09.0000000+00:00</time></trkpt><trkpt lat="43.154396" lon="19.122286"><ele>1456.6</ele><time>2012-05-01T14:34:14.0000000+00:00</time></trkpt><trkpt lat="43.154396" lon="19.122286"><ele>1456.7</ele><time>2012-05-01T14:34:19.0000000+00:00</time></trkpt><trkpt lat="43.154396" lon="19.122286"><ele>1456.7</ele><time>2012-05-01T14:34:24.0000000+00:00</time></trkpt><trkpt lat="43.154392" lon="19.122284"><ele>1456.8</ele><time>2012-05-01T14:34:29.0000000+00:00</time></trkpt><trkpt lat="43.154392" lon="19.122284"><ele>1456.8</ele><time>2012-05-01T14:34:34.0000000+00:00</time></trkpt><trkpt lat="43.154392" lon="19.122284"><ele>1456.8</ele><time>2012-05-01T14:34:39.0000000+00:00</time></trkpt><trkpt lat="43.154392" lon="19.122284"><ele>1456.7</ele><time>2012-05-01T14:34:44.0000000+00:00</time></trkpt><trkpt lat="43.154392" lon="19.122284"><ele>1456.7</ele><time>2012-05-01T14:34:49.0000000+00:00</time></trkpt><trkpt lat="43.154392" lon="19.122284"><ele>1456.7</ele><time>2012-05-01T14:34:54.0000000+00:00</time></trkpt><trkpt lat="43.154392" lon="19.122284"><ele>1456.7</ele><time>2012-05-01T14:34:59.0000000+00:00</time></trkpt><trkpt lat="43.154392" lon="19.122282"><ele>1456.7</ele><time>2012-05-01T14:35:04.0000000+00:00</time></trkpt><trkpt lat="43.154392" lon="19.122282"><ele>1456.8</ele><time>2012-05-01T14:35:09.0000000+00:00</time></trkpt><trkpt lat="43.154392" lon="19.122282"><ele>1456.9</ele><time>2012-05-01T14:35:14.0000000+00:00</time></trkpt><trkpt lat="43.154392" lon="19.122282"><ele>1456.9</ele><time>2012-05-01T14:35:19.0000000+00:00</time></trkpt><trkpt lat="43.154392" lon="19.122282"><ele>1456.9</ele><time>2012-05-01T14:35:24.0000000+00:00</time></trkpt><trkpt lat="43.154392" lon="19.122282"><ele>1456.9</ele><time>2012-05-01T14:35:29.0000000+00:00</time></trkpt><trkpt lat="43.154392" lon="19.122282"><ele>1456.9</ele><time>2012-05-01T14:35:34.0000000+00:00</time></trkpt><trkpt lat="43.154392" lon="19.12228"><ele>1456.9</ele><time>2012-05-01T14:35:39.0000000+00:00</time></trkpt><trkpt lat="43.154392" lon="19.12228"><ele>1456.8</ele><time>2012-05-01T14:35:44.0000000+00:00</time></trkpt><trkpt lat="43.154392" lon="19.12228"><ele>1456.9</ele><time>2012-05-01T14:35:49.0000000+00:00</time></trkpt><trkpt lat="43.154392" lon="19.12228"><ele>1456.9</ele><time>2012-05-01T14:35:54.0000000+00:00</time></trkpt><trkpt lat="43.154392" lon="19.12228"><ele>1456.9</ele><time>2012-05-01T14:35:59.0000000+00:00</time></trkpt><trkpt lat="43.154392" lon="19.122278"><ele>1456.9</ele><time>2012-05-01T14:36:04.0000000+00:00</time></trkpt><trkpt lat="43.154392" lon="19.122278"><ele>1456.8</ele><time>2012-05-01T14:36:09.0000000+00:00</time></trkpt><trkpt lat="43.154392" lon="19.122278"><ele>1456.8</ele><time>2012-05-01T14:36:14.0000000+00:00</time></trkpt><trkpt lat="43.154392" lon="19.122278"><ele>1456.9</ele><time>2012-05-01T14:36:19.0000000+00:00</time></trkpt><trkpt lat="43.154392" lon="19.122278"><ele>1456.9</ele><time>2012-05-01T14:36:24.0000000+00:00</time></trkpt><trkpt lat="43.154392" lon="19.122276"><ele>1456.9</ele><time>2012-05-01T14:36:29.0000000+00:00</time></trkpt><trkpt lat="43.154392" lon="19.122276"><ele>1457.0</ele><time>2012-05-01T14:36:34.0000000+00:00</time></trkpt><trkpt lat="43.154392" lon="19.122269"><ele>1457.1</ele><time>2012-05-01T14:36:39.0000000+00:00</time></trkpt><trkpt lat="43.154392" lon="19.122261"><ele>1457.1</ele><time>2012-05-01T14:36:44.0000000+00:00</time></trkpt><trkpt lat="43.154392" lon="19.122261"><ele>1457.2</ele><time>2012-05-01T14:36:49.0000000+00:00</time></trkpt><trkpt lat="43.154392" lon="19.122259"><ele>1457.2</ele><time>2012-05-01T14:36:54.0000000+00:00</time></trkpt><trkpt lat="43.154392" lon="19.122259"><ele>1457.2</ele><time>2012-05-01T14:36:59.0000000+00:00</time></trkpt><trkpt lat="43.154392" lon="19.122259"><ele>1457.2</ele><time>2012-05-01T14:37:04.0000000+00:00</time></trkpt><trkpt lat="43.154392" lon="19.122257"><ele>1457.3</ele><time>2012-05-01T14:37:09.0000000+00:00</time></trkpt><trkpt lat="43.154392" lon="19.122257"><ele>1457.3</ele><time>2012-05-01T14:37:14.0000000+00:00</time></trkpt><trkpt lat="43.154392" lon="19.122257"><ele>1457.2</ele><time>2012-05-01T14:37:19.0000000+00:00</time></trkpt><trkpt lat="43.154392" lon="19.122257"><ele>1457.2</ele><time>2012-05-01T14:37:24.0000000+00:00</time></trkpt><trkpt lat="43.154392" lon="19.122257"><ele>1457.3</ele><time>2012-05-01T14:37:29.0000000+00:00</time></trkpt><trkpt lat="43.154392" lon="19.122257"><ele>1457.2</ele><time>2012-05-01T14:37:34.0000000+00:00</time></trkpt><trkpt lat="43.154392" lon="19.122257"><ele>1457.2</ele><time>2012-05-01T14:37:39.0000000+00:00</time></trkpt><trkpt lat="43.154392" lon="19.122255"><ele>1457.2</ele><time>2012-05-01T14:37:44.0000000+00:00</time></trkpt><trkpt lat="43.154392" lon="19.122255"><ele>1457.3</ele><time>2012-05-01T14:37:49.0000000+00:00</time></trkpt><trkpt lat="43.154392" lon="19.122255"><ele>1457.3</ele><time>2012-05-01T14:37:54.0000000+00:00</time></trkpt><trkpt lat="43.154392" lon="19.122255"><ele>1457.3</ele><time>2012-05-01T14:37:59.0000000+00:00</time></trkpt><trkpt lat="43.154392" lon="19.122255"><ele>1457.3</ele><time>2012-05-01T14:38:04.0000000+00:00</time></trkpt><trkpt lat="43.154392" lon="19.122255"><ele>1457.3</ele><time>2012-05-01T14:38:09.0000000+00:00</time></trkpt><trkpt lat="43.154392" lon="19.122255"><ele>1457.4</ele><time>2012-05-01T14:38:14.0000000+00:00</time></trkpt><trkpt lat="43.154392" lon="19.122255"><ele>1457.3</ele><time>2012-05-01T14:38:19.0000000+00:00</time></trkpt><trkpt lat="43.154392" lon="19.122255"><ele>1457.3</ele><time>2012-05-01T14:38:24.0000000+00:00</time></trkpt><trkpt lat="43.154392" lon="19.122255"><ele>1457.2</ele><time>2012-05-01T14:38:29.0000000+00:00</time></trkpt><trkpt lat="43.154392" lon="19.122255"><ele>1457.3</ele><time>2012-05-01T14:38:34.0000000+00:00</time></trkpt><trkpt lat="43.154392" lon="19.122257"><ele>1457.3</ele><time>2012-05-01T14:38:39.0000000+00:00</time></trkpt><trkpt lat="43.154392" lon="19.122257"><ele>1457.3</ele><time>2012-05-01T14:38:44.0000000+00:00</time></trkpt><trkpt lat="43.154392" lon="19.122257"><ele>1457.2</ele><time>2012-05-01T14:38:49.0000000+00:00</time></trkpt><trkpt lat="43.154392" lon="19.122257"><ele>1457.2</ele><time>2012-05-01T14:38:54.0000000+00:00</time></trkpt><trkpt lat="43.154396" lon="19.122257"><ele>1457.3</ele><time>2012-05-01T14:38:59.0000000+00:00</time></trkpt><trkpt lat="43.154392" lon="19.122257"><ele>1457.3</ele><time>2012-05-01T14:39:04.0000000+00:00</time></trkpt><trkpt lat="43.154392" lon="19.122257"><ele>1457.2</ele><time>2012-05-01T14:39:09.0000000+00:00</time></trkpt><trkpt lat="43.154396" lon="19.122257"><ele>1457.2</ele><time>2012-05-01T14:39:14.0000000+00:00</time></trkpt><trkpt lat="43.154396" lon="19.122257"><ele>1457.2</ele><time>2012-05-01T14:39:19.0000000+00:00</time></trkpt><trkpt lat="43.154396" lon="19.122259"><ele>1457.2</ele><time>2012-05-01T14:39:24.0000000+00:00</time></trkpt><trkpt lat="43.154396" lon="19.122257"><ele>1457.2</ele><time>2012-05-01T14:39:29.0000000+00:00</time></trkpt><trkpt lat="43.154396" lon="19.122257"><ele>1457.2</ele><time>2012-05-01T14:39:34.0000000+00:00</time></trkpt><trkpt lat="43.154396" lon="19.122257"><ele>1457.2</ele><time>2012-05-01T14:39:39.0000000+00:00</time></trkpt><trkpt lat="43.154396" lon="19.122257"><ele>1457.3</ele><time>2012-05-01T14:39:44.0000000+00:00</time></trkpt><trkpt lat="43.154392" lon="19.122257"><ele>1457.3</ele><time>2012-05-01T14:39:49.0000000+00:00</time></trkpt><trkpt lat="43.154396" lon="19.122257"><ele>1457.2</ele><time>2012-05-01T14:39:54.0000000+00:00</time></trkpt><trkpt lat="43.154396" lon="19.122257"><ele>1457.2</ele><time>2012-05-01T14:39:59.0000000+00:00</time></trkpt><trkpt lat="43.154396" lon="19.122255"><ele>1457.2</ele><time>2012-05-01T14:40:04.0000000+00:00</time></trkpt><trkpt lat="43.154396" lon="19.122255"><ele>1457.3</ele><time>2012-05-01T14:40:09.0000000+00:00</time></trkpt><trkpt lat="43.154396" lon="19.122255"><ele>1457.3</ele><time>2012-05-01T14:40:14.0000000+00:00</time></trkpt><trkpt lat="43.154396" lon="19.122255"><ele>1457.3</ele><time>2012-05-01T14:40:19.0000000+00:00</time></trkpt><trkpt lat="43.154396" lon="19.122255"><ele>1457.2</ele><time>2012-05-01T14:40:24.0000000+00:00</time></trkpt><trkpt lat="43.154396" lon="19.122255"><ele>1457.3</ele><time>2012-05-01T14:40:29.0000000+00:00</time></trkpt><trkpt lat="43.154396" lon="19.122255"><ele>1457.3</ele><time>2012-05-01T14:40:34.0000000+00:00</time></trkpt><trkpt lat="43.154396" lon="19.122255"><ele>1457.2</ele><time>2012-05-01T14:40:39.0000000+00:00</time></trkpt><trkpt lat="43.154396" lon="19.122255"><ele>1457.2</ele><time>2012-05-01T14:40:44.0000000+00:00</time></trkpt><trkpt lat="43.154396" lon="19.122255"><ele>1457.3</ele><time>2012-05-01T14:40:49.0000000+00:00</time></trkpt><trkpt lat="43.154396" lon="19.122255"><ele>1457.4</ele><time>2012-05-01T14:40:54.0000000+00:00</time></trkpt><trkpt lat="43.154396" lon="19.122255"><ele>1457.4</ele><time>2012-05-01T14:40:59.0000000+00:00</time></trkpt><trkpt lat="43.154396" lon="19.122255"><ele>1457.4</ele><time>2012-05-01T14:41:04.0000000+00:00</time></trkpt><trkpt lat="43.154396" lon="19.122255"><ele>1457.4</ele><time>2012-05-01T14:41:09.0000000+00:00</time></trkpt><trkpt lat="43.154396" lon="19.122255"><ele>1457.4</ele><time>2012-05-01T14:41:14.0000000+00:00</time></trkpt><trkpt lat="43.154396" lon="19.122255"><ele>1457.4</ele><time>2012-05-01T14:41:19.0000000+00:00</time></trkpt><trkpt lat="43.154396" lon="19.122255"><ele>1457.4</ele><time>2012-05-01T14:41:24.0000000+00:00</time></trkpt><trkpt lat="43.154396" lon="19.122255"><ele>1457.4</ele><time>2012-05-01T14:41:29.0000000+00:00</time></trkpt><trkpt lat="43.154396" lon="19.122255"><ele>1457.4</ele><time>2012-05-01T14:41:34.0000000+00:00</time></trkpt><trkpt lat="43.154411" lon="19.12224"><ele>1457.3</ele><time>2012-05-01T14:41:39.0000000+00:00</time></trkpt><trkpt lat="43.154552" lon="19.122297"><ele>1456.0</ele><time>2012-05-01T14:41:44.0000000+00:00</time></trkpt><trkpt lat="43.154686" lon="19.12232"><ele>1456.0</ele><time>2012-05-01T14:41:49.0000000+00:00</time></trkpt><trkpt lat="43.154812" lon="19.122166"><ele>1458.1</ele><time>2012-05-01T14:41:54.0000000+00:00</time></trkpt><trkpt lat="43.15485" lon="19.121889"><ele>1458.1</ele><time>2012-05-01T14:41:59.0000000+00:00</time></trkpt><trkpt lat="43.154888" lon="19.121578"><ele>1457.0</ele><time>2012-05-01T14:42:04.0000000+00:00</time></trkpt><trkpt lat="43.154934" lon="19.121313"><ele>1457.7</ele><time>2012-05-01T14:42:09.0000000+00:00</time></trkpt><trkpt lat="43.154953" lon="19.121271"><ele>1457.5</ele><time>2012-05-01T14:42:14.0000000+00:00</time></trkpt><trkpt lat="43.154968" lon="19.121275"><ele>1457.5</ele><time>2012-05-01T14:42:19.0000000+00:00</time></trkpt><trkpt lat="43.154972" lon="19.121284"><ele>1457.3</ele><time>2012-05-01T14:42:24.0000000+00:00</time></trkpt><trkpt lat="43.154972" lon="19.121288"><ele>1457.2</ele><time>2012-05-01T14:42:29.0000000+00:00</time></trkpt><trkpt lat="43.154976" lon="19.121286"><ele>1457.1</ele><time>2012-05-01T14:42:34.0000000+00:00</time></trkpt><trkpt lat="43.154976" lon="19.121281"><ele>1457.1</ele><time>2012-05-01T14:42:39.0000000+00:00</time></trkpt><trkpt lat="43.154984" lon="19.121239"><ele>1457.3</ele><time>2012-05-01T14:42:44.0000000+00:00</time></trkpt><trkpt lat="43.155003" lon="19.121243"><ele>1459.1</ele><time>2012-05-01T14:42:49.0000000+00:00</time></trkpt><trkpt lat="43.155003" lon="19.121166"><ele>1462.7</ele><time>2012-05-01T14:42:54.0000000+00:00</time></trkpt><trkpt lat="43.155041" lon="19.121086"><ele>1466.4</ele><time>2012-05-01T14:42:59.0000000+00:00</time></trkpt><trkpt lat="43.15519" lon="19.121082"><ele>1464.1</ele><time>2012-05-01T14:43:04.0000000+00:00</time></trkpt><trkpt lat="43.155315" lon="19.121119"><ele>1461.5</ele><time>2012-05-01T14:43:09.0000000+00:00</time></trkpt><trkpt lat="43.155346" lon="19.121046"><ele>1457.8</ele><time>2012-05-01T14:43:14.0000000+00:00</time></trkpt><trkpt lat="43.155273" lon="19.120977"><ele>1453.9</ele><time>2012-05-01T14:43:19.0000000+00:00</time></trkpt><trkpt lat="43.15522" lon="19.120905"><ele>1452.8</ele><time>2012-05-01T14:43:24.0000000+00:00</time></trkpt><trkpt lat="43.155224" lon="19.120867"><ele>1453.3</ele><time>2012-05-01T14:43:29.0000000+00:00</time></trkpt><trkpt lat="43.155178" lon="19.120792"><ele>1453.7</ele><time>2012-05-01T14:43:34.0000000+00:00</time></trkpt><trkpt lat="43.155079" lon="19.120707"><ele>1453.7</ele><time>2012-05-01T14:43:39.0000000+00:00</time></trkpt><trkpt lat="43.155064" lon="19.120567"><ele>1452.8</ele><time>2012-05-01T14:43:44.0000000+00:00</time></trkpt><trkpt lat="43.155071" lon="19.120403"><ele>1453.8</ele><time>2012-05-01T14:43:49.0000000+00:00</time></trkpt><trkpt lat="43.155136" lon="19.120186"><ele>1456.2</ele><time>2012-05-01T14:43:54.0000000+00:00</time></trkpt><trkpt lat="43.155193" lon="19.11994"><ele>1458.6</ele><time>2012-05-01T14:43:59.0000000+00:00</time></trkpt><trkpt lat="43.15522" lon="19.119724"><ele>1463.0</ele><time>2012-05-01T14:44:04.0000000+00:00</time></trkpt><trkpt lat="43.15522" lon="19.119448"><ele>1464.7</ele><time>2012-05-01T14:44:09.0000000+00:00</time></trkpt><trkpt lat="43.155178" lon="19.119267"><ele>1459.5</ele><time>2012-05-01T14:44:14.0000000+00:00</time></trkpt><trkpt lat="43.155128" lon="19.119127"><ele>1456.9</ele><time>2012-05-01T14:44:19.0000000+00:00</time></trkpt><trkpt lat="43.155037" lon="19.119001"><ele>1454.2</ele><time>2012-05-01T14:44:24.0000000+00:00</time></trkpt><trkpt lat="43.154976" lon="19.118803"><ele>1452.5</ele><time>2012-05-01T14:44:29.0000000+00:00</time></trkpt><trkpt lat="43.154911" lon="19.118574"><ele>1451.8</ele><time>2012-05-01T14:44:34.0000000+00:00</time></trkpt><trkpt lat="43.154854" lon="19.118313"><ele>1452.0</ele><time>2012-05-01T14:44:39.0000000+00:00</time></trkpt><trkpt lat="43.154755" lon="19.118067"><ele>1451.7</ele><time>2012-05-01T14:44:44.0000000+00:00</time></trkpt><trkpt lat="43.154663" lon="19.11779"><ele>1452.5</ele><time>2012-05-01T14:44:49.0000000+00:00</time></trkpt><trkpt lat="43.154568" lon="19.1175"><ele>1451.7</ele><time>2012-05-01T14:44:54.0000000+00:00</time></trkpt><trkpt lat="43.154495" lon="19.117226"><ele>1452.0</ele><time>2012-05-01T14:44:59.0000000+00:00</time></trkpt><trkpt lat="43.154449" lon="19.116938"><ele>1451.6</ele><time>2012-05-01T14:45:04.0000000+00:00</time></trkpt><trkpt lat="43.154408" lon="19.116684"><ele>1453.9</ele><time>2012-05-01T14:45:09.0000000+00:00</time></trkpt><trkpt lat="43.154404" lon="19.116589"><ele>1452.7</ele><time>2012-05-01T14:45:14.0000000+00:00</time></trkpt><trkpt lat="43.15443" lon="19.116566"><ele>1452.0</ele><time>2012-05-01T14:45:19.0000000+00:00</time></trkpt><trkpt lat="43.154438" lon="19.116568"><ele>1451.3</ele><time>2012-05-01T14:45:24.0000000+00:00</time></trkpt><trkpt lat="43.154438" lon="19.116566"><ele>1450.9</ele><time>2012-05-01T14:45:29.0000000+00:00</time></trkpt><trkpt lat="43.154427" lon="19.116566"><ele>1450.9</ele><time>2012-05-01T14:45:34.0000000+00:00</time></trkpt><trkpt lat="43.154415" lon="19.116566"><ele>1450.9</ele><time>2012-05-01T14:45:39.0000000+00:00</time></trkpt><trkpt lat="43.154408" lon="19.116564"><ele>1450.9</ele><time>2012-05-01T14:45:44.0000000+00:00</time></trkpt><trkpt lat="43.1544" lon="19.116568"><ele>1451.0</ele><time>2012-05-01T14:45:49.0000000+00:00</time></trkpt><trkpt lat="43.154392" lon="19.11657"><ele>1451.0</ele><time>2012-05-01T14:45:54.0000000+00:00</time></trkpt><trkpt lat="43.154388" lon="19.116573"><ele>1451.0</ele><time>2012-05-01T14:45:59.0000000+00:00</time></trkpt><trkpt lat="43.154388" lon="19.116573"><ele>1451.1</ele><time>2012-05-01T14:46:04.0000000+00:00</time></trkpt><trkpt lat="43.154381" lon="19.116573"><ele>1451.2</ele><time>2012-05-01T14:46:09.0000000+00:00</time></trkpt><trkpt lat="43.154369" lon="19.116575"><ele>1451.2</ele><time>2012-05-01T14:46:14.0000000+00:00</time></trkpt><trkpt lat="43.154358" lon="19.116579"><ele>1451.2</ele><time>2012-05-01T14:46:19.0000000+00:00</time></trkpt><trkpt lat="43.154343" lon="19.116583"><ele>1451.3</ele><time>2012-05-01T14:46:24.0000000+00:00</time></trkpt><trkpt lat="43.154324" lon="19.11659"><ele>1451.4</ele><time>2012-05-01T14:46:29.0000000+00:00</time></trkpt><trkpt lat="43.154308" lon="19.116592"><ele>1451.5</ele><time>2012-05-01T14:46:34.0000000+00:00</time></trkpt><trkpt lat="43.154293" lon="19.116594"><ele>1451.5</ele><time>2012-05-01T14:46:39.0000000+00:00</time></trkpt><trkpt lat="43.154289" lon="19.116596"><ele>1451.5</ele><time>2012-05-01T14:46:44.0000000+00:00</time></trkpt><trkpt lat="43.154285" lon="19.116596"><ele>1451.5</ele><time>2012-05-01T14:46:49.0000000+00:00</time></trkpt><trkpt lat="43.154293" lon="19.116604"><ele>1451.5</ele><time>2012-05-01T14:46:54.0000000+00:00</time></trkpt><trkpt lat="43.154301" lon="19.11661"><ele>1451.5</ele><time>2012-05-01T14:46:59.0000000+00:00</time></trkpt><trkpt lat="43.154312" lon="19.116615"><ele>1451.6</ele><time>2012-05-01T14:47:04.0000000+00:00</time></trkpt><trkpt lat="43.154316" lon="19.116627"><ele>1451.6</ele><time>2012-05-01T14:47:09.0000000+00:00</time></trkpt><trkpt lat="43.15432" lon="19.116632"><ele>1451.6</ele><time>2012-05-01T14:47:14.0000000+00:00</time></trkpt><trkpt lat="43.154327" lon="19.116632"><ele>1451.6</ele><time>2012-05-01T14:47:19.0000000+00:00</time></trkpt><trkpt lat="43.154339" lon="19.116634"><ele>1451.6</ele><time>2012-05-01T14:47:24.0000000+00:00</time></trkpt><trkpt lat="43.15435" lon="19.116638"><ele>1451.6</ele><time>2012-05-01T14:47:29.0000000+00:00</time></trkpt><trkpt lat="43.154366" lon="19.116642"><ele>1451.7</ele><time>2012-05-01T14:47:34.0000000+00:00</time></trkpt><trkpt lat="43.154385" lon="19.116648"><ele>1451.8</ele><time>2012-05-01T14:47:39.0000000+00:00</time></trkpt><trkpt lat="43.154408" lon="19.116657"><ele>1452.0</ele><time>2012-05-01T14:47:44.0000000+00:00</time></trkpt><trkpt lat="43.154434" lon="19.116663"><ele>1452.2</ele><time>2012-05-01T14:47:49.0000000+00:00</time></trkpt><trkpt lat="43.154449" lon="19.116667"><ele>1452.4</ele><time>2012-05-01T14:47:54.0000000+00:00</time></trkpt><trkpt lat="43.154465" lon="19.116665"><ele>1452.5</ele><time>2012-05-01T14:47:59.0000000+00:00</time></trkpt><trkpt lat="43.154472" lon="19.116663"><ele>1452.6</ele><time>2012-05-01T14:48:04.0000000+00:00</time></trkpt><trkpt lat="43.154476" lon="19.116665"><ele>1452.6</ele><time>2012-05-01T14:48:09.0000000+00:00</time></trkpt><trkpt lat="43.154476" lon="19.116659"><ele>1452.6</ele><time>2012-05-01T14:48:14.0000000+00:00</time></trkpt><trkpt lat="43.154484" lon="19.11665"><ele>1452.7</ele><time>2012-05-01T14:48:19.0000000+00:00</time></trkpt><trkpt lat="43.154491" lon="19.11664"><ele>1452.7</ele><time>2012-05-01T14:48:24.0000000+00:00</time></trkpt><trkpt lat="43.154495" lon="19.116627"><ele>1452.7</ele><time>2012-05-01T14:48:29.0000000+00:00</time></trkpt><trkpt lat="43.154484" lon="19.116615"><ele>1452.7</ele><time>2012-05-01T14:48:34.0000000+00:00</time></trkpt><trkpt lat="43.154472" lon="19.116608"><ele>1452.7</ele><time>2012-05-01T14:48:39.0000000+00:00</time></trkpt><trkpt lat="43.154461" lon="19.116608"><ele>1452.8</ele><time>2012-05-01T14:48:44.0000000+00:00</time></trkpt><trkpt lat="43.154457" lon="19.116615"><ele>1452.8</ele><time>2012-05-01T14:48:49.0000000+00:00</time></trkpt><trkpt lat="43.154465" lon="19.116627"><ele>1452.8</ele><time>2012-05-01T14:48:54.0000000+00:00</time></trkpt><trkpt lat="43.154469" lon="19.116644"><ele>1452.8</ele><time>2012-05-01T14:48:59.0000000+00:00</time></trkpt><trkpt lat="43.154465" lon="19.116669"><ele>1452.9</ele><time>2012-05-01T14:49:04.0000000+00:00</time></trkpt><trkpt lat="43.154461" lon="19.116688"><ele>1453.0</ele><time>2012-05-01T14:49:09.0000000+00:00</time></trkpt><trkpt lat="43.154453" lon="19.116699"><ele>1453.0</ele><time>2012-05-01T14:49:14.0000000+00:00</time></trkpt><trkpt lat="43.154446" lon="19.116705"><ele>1453.0</ele><time>2012-05-01T14:49:19.0000000+00:00</time></trkpt><trkpt lat="43.154438" lon="19.116707"><ele>1453.0</ele><time>2012-05-01T14:49:24.0000000+00:00</time></trkpt><trkpt lat="43.15443" lon="19.116709"><ele>1453.0</ele><time>2012-05-01T14:49:29.0000000+00:00</time></trkpt><trkpt lat="43.154377" lon="19.11673"><ele>1453.3</ele><time>2012-05-01T14:49:34.0000000+00:00</time></trkpt><trkpt lat="43.154335" lon="19.116764"><ele>1453.6</ele><time>2012-05-01T14:49:39.0000000+00:00</time></trkpt><trkpt lat="43.154293" lon="19.116783"><ele>1453.6</ele><time>2012-05-01T14:49:44.0000000+00:00</time></trkpt><trkpt lat="43.154224" lon="19.1168"><ele>1453.9</ele><time>2012-05-01T14:49:49.0000000+00:00</time></trkpt><trkpt lat="43.154198" lon="19.116793"><ele>1454.1</ele><time>2012-05-01T14:49:54.0000000+00:00</time></trkpt><trkpt lat="43.154221" lon="19.116755"><ele>1454.2</ele><time>2012-05-01T14:49:59.0000000+00:00</time></trkpt><trkpt lat="43.154236" lon="19.116745"><ele>1454.2</ele><time>2012-05-01T14:50:04.0000000+00:00</time></trkpt><trkpt lat="43.15424" lon="19.116735"><ele>1454.2</ele><time>2012-05-01T14:50:09.0000000+00:00</time></trkpt><trkpt lat="43.154247" lon="19.11673"><ele>1454.2</ele><time>2012-05-01T14:50:14.0000000+00:00</time></trkpt><trkpt lat="43.154243" lon="19.116699"><ele>1454.1</ele><time>2012-05-01T14:50:19.0000000+00:00</time></trkpt><trkpt lat="43.154255" lon="19.116697"><ele>1454.2</ele><time>2012-05-01T14:50:24.0000000+00:00</time></trkpt><trkpt lat="43.154259" lon="19.116695"><ele>1454.1</ele><time>2012-05-01T14:50:29.0000000+00:00</time></trkpt><trkpt lat="43.154263" lon="19.116695"><ele>1454.1</ele><time>2012-05-01T14:50:34.0000000+00:00</time></trkpt><trkpt lat="43.154289" lon="19.116688"><ele>1453.9</ele><time>2012-05-01T14:50:39.0000000+00:00</time></trkpt><trkpt lat="43.154324" lon="19.116678"><ele>1453.6</ele><time>2012-05-01T14:50:44.0000000+00:00</time></trkpt><trkpt lat="43.154331" lon="19.116653"><ele>1453.6</ele><time>2012-05-01T14:50:49.0000000+00:00</time></trkpt><trkpt lat="43.154362" lon="19.116625"><ele>1453.8</ele><time>2012-05-01T14:50:54.0000000+00:00</time></trkpt><trkpt lat="43.154358" lon="19.116623"><ele>1453.7</ele><time>2012-05-01T14:50:59.0000000+00:00</time></trkpt><trkpt lat="43.154366" lon="19.116657"><ele>1453.0</ele><time>2012-05-01T14:51:04.0000000+00:00</time></trkpt><trkpt lat="43.154381" lon="19.11677"><ele>1452.9</ele><time>2012-05-01T14:51:09.0000000+00:00</time></trkpt><trkpt lat="43.154434" lon="19.116917"><ele>1452.6</ele><time>2012-05-01T14:51:14.0000000+00:00</time></trkpt><trkpt lat="43.154491" lon="19.1171"><ele>1452.5</ele><time>2012-05-01T14:51:19.0000000+00:00</time></trkpt><trkpt lat="43.154495" lon="19.117268"><ele>1452.7</ele><time>2012-05-01T14:51:24.0000000+00:00</time></trkpt><trkpt lat="43.154533" lon="19.11734"><ele>1452.7</ele><time>2012-05-01T14:51:29.0000000+00:00</time></trkpt><trkpt lat="43.154572" lon="19.117405"><ele>1452.9</ele><time>2012-05-01T14:51:34.0000000+00:00</time></trkpt><trkpt lat="43.154663" lon="19.117603"><ele>1452.8</ele><time>2012-05-01T14:51:39.0000000+00:00</time></trkpt><trkpt lat="43.154716" lon="19.117805"><ele>1452.8</ele><time>2012-05-01T14:51:44.0000000+00:00</time></trkpt><trkpt lat="43.154766" lon="19.118031"><ele>1451.0</ele><time>2012-05-01T14:51:49.0000000+00:00</time></trkpt><trkpt lat="43.154865" lon="19.11832"><ele>1450.5</ele><time>2012-05-01T14:51:54.0000000+00:00</time></trkpt><trkpt lat="43.154968" lon="19.11858"><ele>1448.7</ele><time>2012-05-01T14:51:59.0000000+00:00</time></trkpt><trkpt lat="43.155048" lon="19.11883"><ele>1448.7</ele><time>2012-05-01T14:52:04.0000000+00:00</time></trkpt><trkpt lat="43.155109" lon="19.119137"><ele>1449.0</ele><time>2012-05-01T14:52:09.0000000+00:00</time></trkpt><trkpt lat="43.155159" lon="19.119436"><ele>1449.1</ele><time>2012-05-01T14:52:14.0000000+00:00</time></trkpt><trkpt lat="43.15514" lon="19.11977"><ele>1449.0</ele><time>2012-05-01T14:52:19.0000000+00:00</time></trkpt><trkpt lat="43.155079" lon="19.120129"><ele>1449.4</ele><time>2012-05-01T14:52:24.0000000+00:00</time></trkpt><trkpt lat="43.154999" lon="19.120451"><ele>1446.8</ele><time>2012-05-01T14:52:29.0000000+00:00</time></trkpt><trkpt lat="43.154976" lon="19.120592"><ele>1447.0</ele><time>2012-05-01T14:52:34.0000000+00:00</time></trkpt><trkpt lat="43.154964" lon="19.120596"><ele>1448.2</ele><time>2012-05-01T14:52:39.0000000+00:00</time></trkpt><trkpt lat="43.154926" lon="19.120823"><ele>1449.1</ele><time>2012-05-01T14:52:44.0000000+00:00</time></trkpt><trkpt lat="43.154865" lon="19.121161"><ele>1448.9</ele><time>2012-05-01T14:52:49.0000000+00:00</time></trkpt><trkpt lat="43.154812" lon="19.121502"><ele>1449.1</ele><time>2012-05-01T14:52:54.0000000+00:00</time></trkpt><trkpt lat="43.154766" lon="19.121857"><ele>1447.1</ele><time>2012-05-01T14:52:59.0000000+00:00</time></trkpt><trkpt lat="43.154728" lon="19.122192"><ele>1447.0</ele><time>2012-05-01T14:53:04.0000000+00:00</time></trkpt><trkpt lat="43.15461" lon="19.122318"><ele>1448.8</ele><time>2012-05-01T14:53:09.0000000+00:00</time></trkpt><trkpt lat="43.154453" lon="19.122288"><ele>1452.1</ele><time>2012-05-01T14:53:14.0000000+00:00</time></trkpt><trkpt lat="43.154381" lon="19.122314"><ele>1453.1</ele><time>2012-05-01T14:53:19.0000000+00:00</time></trkpt><trkpt lat="43.154366" lon="19.12232"><ele>1453.4</ele><time>2012-05-01T14:53:24.0000000+00:00</time></trkpt><trkpt lat="43.154362" lon="19.12232"><ele>1454.3</ele><time>2012-05-01T14:53:29.0000000+00:00</time></trkpt><trkpt lat="43.154362" lon="19.12232"><ele>1454.4</ele><time>2012-05-01T14:53:34.0000000+00:00</time></trkpt><trkpt lat="43.154362" lon="19.12232"><ele>1454.3</ele><time>2012-05-01T14:53:39.0000000+00:00</time></trkpt><trkpt lat="43.154362" lon="19.12232"><ele>1454.3</ele><time>2012-05-01T14:53:44.0000000+00:00</time></trkpt><trkpt lat="43.154366" lon="19.12232"><ele>1454.2</ele><time>2012-05-01T14:53:49.0000000+00:00</time></trkpt><trkpt lat="43.154369" lon="19.122322"><ele>1454.0</ele><time>2012-05-01T14:53:54.0000000+00:00</time></trkpt><trkpt lat="43.154369" lon="19.12232"><ele>1453.9</ele><time>2012-05-01T14:53:59.0000000+00:00</time></trkpt><trkpt lat="43.154369" lon="19.12232"><ele>1453.8</ele><time>2012-05-01T14:54:04.0000000+00:00</time></trkpt><trkpt lat="43.154369" lon="19.12232"><ele>1453.8</ele><time>2012-05-01T14:54:09.0000000+00:00</time></trkpt><trkpt lat="43.154369" lon="19.12232"><ele>1453.8</ele><time>2012-05-01T14:54:14.0000000+00:00</time></trkpt><trkpt lat="43.154369" lon="19.12232"><ele>1453.8</ele><time>2012-05-01T14:54:19.0000000+00:00</time></trkpt><trkpt lat="43.154369" lon="19.12232"><ele>1453.8</ele><time>2012-05-01T14:54:24.0000000+00:00</time></trkpt><trkpt lat="43.154369" lon="19.12232"><ele>1453.8</ele><time>2012-05-01T14:54:29.0000000+00:00</time></trkpt><trkpt lat="43.154369" lon="19.12232"><ele>1453.8</ele><time>2012-05-01T14:54:34.0000000+00:00</time></trkpt><trkpt lat="43.154369" lon="19.12232"><ele>1453.8</ele><time>2012-05-01T14:54:39.0000000+00:00</time></trkpt><trkpt lat="43.154369" lon="19.122318"><ele>1453.8</ele><time>2012-05-01T14:54:44.0000000+00:00</time></trkpt><trkpt lat="43.154369" lon="19.122318"><ele>1453.8</ele><time>2012-05-01T14:54:49.0000000+00:00</time></trkpt><trkpt lat="43.154369" lon="19.122318"><ele>1453.8</ele><time>2012-05-01T14:54:54.0000000+00:00</time></trkpt><trkpt lat="43.154369" lon="19.122318"><ele>1453.8</ele><time>2012-05-01T14:54:59.0000000+00:00</time></trkpt><trkpt lat="43.154369" lon="19.12232"><ele>1453.8</ele><time>2012-05-01T14:55:04.0000000+00:00</time></trkpt><trkpt lat="43.154369" lon="19.12232"><ele>1453.9</ele><time>2012-05-01T14:55:09.0000000+00:00</time></trkpt><trkpt lat="43.154369" lon="19.12232"><ele>1453.9</ele><time>2012-05-01T14:55:14.0000000+00:00</time></trkpt><trkpt lat="43.154369" lon="19.122318"><ele>1453.9</ele><time>2012-05-01T14:55:19.0000000+00:00</time></trkpt><trkpt lat="43.154369" lon="19.12232"><ele>1453.9</ele><time>2012-05-01T14:55:24.0000000+00:00</time></trkpt><trkpt lat="43.154369" lon="19.12232"><ele>1453.9</ele><time>2012-05-01T14:55:29.0000000+00:00</time></trkpt><trkpt lat="43.154369" lon="19.12232"><ele>1453.9</ele><time>2012-05-01T14:55:34.0000000+00:00</time></trkpt><trkpt lat="43.154369" lon="19.12232"><ele>1453.9</ele><time>2012-05-01T14:55:39.0000000+00:00</time></trkpt><trkpt lat="43.154369" lon="19.12232"><ele>1453.9</ele><time>2012-05-01T14:55:44.0000000+00:00</time></trkpt><trkpt lat="43.154369" lon="19.12232"><ele>1453.9</ele><time>2012-05-01T14:55:49.0000000+00:00</time></trkpt><trkpt lat="43.154369" lon="19.12232"><ele>1453.9</ele><time>2012-05-01T14:55:54.0000000+00:00</time></trkpt><trkpt lat="43.154369" lon="19.122322"><ele>1453.9</ele><time>2012-05-01T14:55:59.0000000+00:00</time></trkpt><trkpt lat="43.154369" lon="19.122322"><ele>1453.9</ele><time>2012-05-01T14:56:04.0000000+00:00</time></trkpt><trkpt lat="43.154369" lon="19.122322"><ele>1453.9</ele><time>2012-05-01T14:56:09.0000000+00:00</time></trkpt><trkpt lat="43.154369" lon="19.122322"><ele>1453.9</ele><time>2012-05-01T14:56:14.0000000+00:00</time></trkpt><trkpt lat="43.154366" lon="19.122322"><ele>1453.9</ele><time>2012-05-01T14:56:19.0000000+00:00</time></trkpt><trkpt lat="43.154366" lon="19.122322"><ele>1453.9</ele><time>2012-05-01T14:56:24.0000000+00:00</time></trkpt><trkpt lat="43.154366" lon="19.122322"><ele>1453.9</ele><time>2012-05-01T14:56:29.0000000+00:00</time></trkpt><trkpt lat="43.154366" lon="19.122322"><ele>1453.9</ele><time>2012-05-01T14:56:34.0000000+00:00</time></trkpt><trkpt lat="43.154366" lon="19.122322"><ele>1453.9</ele><time>2012-05-01T14:56:39.0000000+00:00</time></trkpt><trkpt lat="43.154366" lon="19.122322"><ele>1453.9</ele><time>2012-05-01T14:56:44.0000000+00:00</time></trkpt><trkpt lat="43.154366" lon="19.122322"><ele>1453.9</ele><time>2012-05-01T14:56:49.0000000+00:00</time></trkpt><trkpt lat="43.154366" lon="19.122322"><ele>1453.9</ele><time>2012-05-01T14:56:54.0000000+00:00</time></trkpt><trkpt lat="43.154366" lon="19.122322"><ele>1453.9</ele><time>2012-05-01T14:56:59.0000000+00:00</time></trkpt><trkpt lat="43.154366" lon="19.122322"><ele>1453.9</ele><time>2012-05-01T14:57:04.0000000+00:00</time></trkpt><trkpt lat="43.154366" lon="19.122322"><ele>1453.9</ele><time>2012-05-01T14:57:09.0000000+00:00</time></trkpt><trkpt lat="43.154366" lon="19.122324"><ele>1453.9</ele><time>2012-05-01T14:57:14.0000000+00:00</time></trkpt><trkpt lat="43.154366" lon="19.122324"><ele>1453.9</ele><time>2012-05-01T14:57:19.0000000+00:00</time></trkpt><trkpt lat="43.154366" lon="19.122324"><ele>1453.9</ele><time>2012-05-01T14:57:24.0000000+00:00</time></trkpt><trkpt lat="43.154366" lon="19.122324"><ele>1453.9</ele><time>2012-05-01T14:57:29.0000000+00:00</time></trkpt><trkpt lat="43.154366" lon="19.122324"><ele>1453.9</ele><time>2012-05-01T14:57:34.0000000+00:00</time></trkpt><trkpt lat="43.154366" lon="19.122324"><ele>1453.9</ele><time>2012-05-01T14:57:39.0000000+00:00</time></trkpt><trkpt lat="43.154366" lon="19.122324"><ele>1453.9</ele><time>2012-05-01T14:57:44.0000000+00:00</time></trkpt><trkpt lat="43.154366" lon="19.122324"><ele>1453.9</ele><time>2012-05-01T14:57:49.0000000+00:00</time></trkpt><trkpt lat="43.154366" lon="19.122322"><ele>1453.9</ele><time>2012-05-01T14:57:54.0000000+00:00</time></trkpt><trkpt lat="43.154366" lon="19.122322"><ele>1453.9</ele><time>2012-05-01T14:57:59.0000000+00:00</time></trkpt><trkpt lat="43.154366" lon="19.122324"><ele>1453.9</ele><time>2012-05-01T14:58:04.0000000+00:00</time></trkpt><trkpt lat="43.154366" lon="19.122324"><ele>1453.9</ele><time>2012-05-01T14:58:09.0000000+00:00</time></trkpt><trkpt lat="43.154366" lon="19.122324"><ele>1453.9</ele><time>2012-05-01T14:58:14.0000000+00:00</time></trkpt><trkpt lat="43.154366" lon="19.122324"><ele>1453.9</ele><time>2012-05-01T14:58:19.0000000+00:00</time></trkpt><trkpt lat="43.154366" lon="19.122324"><ele>1453.9</ele><time>2012-05-01T14:58:24.0000000+00:00</time></trkpt><trkpt lat="43.154366" lon="19.122324"><ele>1453.9</ele><time>2012-05-01T14:58:29.0000000+00:00</time></trkpt><trkpt lat="43.154366" lon="19.122324"><ele>1453.9</ele><time>2012-05-01T14:58:34.0000000+00:00</time></trkpt><trkpt lat="43.154366" lon="19.122324"><ele>1453.9</ele><time>2012-05-01T14:58:39.0000000+00:00</time></trkpt><trkpt lat="43.154366" lon="19.122324"><ele>1453.9</ele><time>2012-05-01T14:58:44.0000000+00:00</time></trkpt><trkpt lat="43.154366" lon="19.122324"><ele>1453.8</ele><time>2012-05-01T14:58:49.0000000+00:00</time></trkpt><trkpt lat="43.154366" lon="19.122324"><ele>1453.8</ele><time>2012-05-01T14:58:54.0000000+00:00</time></trkpt><trkpt lat="43.154366" lon="19.122324"><ele>1453.8</ele><time>2012-05-01T14:58:59.0000000+00:00</time></trkpt><trkpt lat="43.154366" lon="19.122324"><ele>1453.8</ele><time>2012-05-01T14:59:04.0000000+00:00</time></trkpt><trkpt lat="43.154366" lon="19.122324"><ele>1453.8</ele><time>2012-05-01T14:59:09.0000000+00:00</time></trkpt><trkpt lat="43.154366" lon="19.122324"><ele>1453.8</ele><time>2012-05-01T14:59:14.0000000+00:00</time></trkpt><trkpt lat="43.154366" lon="19.122324"><ele>1453.8</ele><time>2012-05-01T14:59:19.0000000+00:00</time></trkpt><trkpt lat="43.154366" lon="19.122324"><ele>1453.7</ele><time>2012-05-01T14:59:24.0000000+00:00</time></trkpt><trkpt lat="43.154366" lon="19.122328"><ele>1453.6</ele><time>2012-05-01T14:59:29.0000000+00:00</time></trkpt><trkpt lat="43.154369" lon="19.12233"><ele>1453.5</ele><time>2012-05-01T14:59:34.0000000+00:00</time></trkpt><trkpt lat="43.154369" lon="19.12233"><ele>1453.5</ele><time>2012-05-01T14:59:39.0000000+00:00</time></trkpt><trkpt lat="43.154369" lon="19.12233"><ele>1453.5</ele><time>2012-05-01T14:59:44.0000000+00:00</time></trkpt><trkpt lat="43.154369" lon="19.122332"><ele>1453.4</ele><time>2012-05-01T14:59:49.0000000+00:00</time></trkpt><trkpt lat="43.154369" lon="19.122332"><ele>1453.3</ele><time>2012-05-01T14:59:54.0000000+00:00</time></trkpt><trkpt lat="43.154369" lon="19.122332"><ele>1453.3</ele><time>2012-05-01T14:59:59.0000000+00:00</time></trkpt><trkpt lat="43.154369" lon="19.122332"><ele>1453.3</ele><time>2012-05-01T15:00:04.0000000+00:00</time></trkpt><trkpt lat="43.154369" lon="19.122332"><ele>1453.3</ele><time>2012-05-01T15:00:09.0000000+00:00</time></trkpt><trkpt lat="43.154369" lon="19.122332"><ele>1453.2</ele><time>2012-05-01T15:00:14.0000000+00:00</time></trkpt><trkpt lat="43.154369" lon="19.122332"><ele>1453.1</ele><time>2012-05-01T15:00:19.0000000+00:00</time></trkpt><trkpt lat="43.154369" lon="19.122334"><ele>1453.0</ele><time>2012-05-01T15:00:24.0000000+00:00</time></trkpt><trkpt lat="43.154369" lon="19.122334"><ele>1453.1</ele><time>2012-05-01T15:00:29.0000000+00:00</time></trkpt><trkpt lat="43.154369" lon="19.122334"><ele>1453.0</ele><time>2012-05-01T15:00:34.0000000+00:00</time></trkpt><trkpt lat="43.154366" lon="19.122334"><ele>1453.0</ele><time>2012-05-01T15:00:39.0000000+00:00</time></trkpt><trkpt lat="43.154366" lon="19.122335"><ele>1452.9</ele><time>2012-05-01T15:00:44.0000000+00:00</time></trkpt><trkpt lat="43.154366" lon="19.122335"><ele>1452.9</ele><time>2012-05-01T15:00:49.0000000+00:00</time></trkpt><trkpt lat="43.154366" lon="19.122335"><ele>1453.0</ele><time>2012-05-01T15:00:54.0000000+00:00</time></trkpt><trkpt lat="43.154366" lon="19.122335"><ele>1453.0</ele><time>2012-05-01T15:00:59.0000000+00:00</time></trkpt><trkpt lat="43.154366" lon="19.122335"><ele>1453.0</ele><time>2012-05-01T15:01:04.0000000+00:00</time></trkpt><trkpt lat="43.154366" lon="19.122335"><ele>1453.0</ele><time>2012-05-01T15:01:09.0000000+00:00</time></trkpt><trkpt lat="43.154366" lon="19.122337"><ele>1453.0</ele><time>2012-05-01T15:01:14.0000000+00:00</time></trkpt><trkpt lat="43.154366" lon="19.122337"><ele>1453.0</ele><time>2012-05-01T15:01:19.0000000+00:00</time></trkpt><trkpt lat="43.154366" lon="19.122337"><ele>1453.0</ele><time>2012-05-01T15:01:24.0000000+00:00</time></trkpt><trkpt lat="43.154366" lon="19.122337"><ele>1453.0</ele><time>2012-05-01T15:01:29.0000000+00:00</time></trkpt><trkpt lat="43.154366" lon="19.122337"><ele>1453.0</ele><time>2012-05-01T15:01:34.0000000+00:00</time></trkpt><trkpt lat="43.154366" lon="19.122337"><ele>1453.0</ele><time>2012-05-01T15:01:39.0000000+00:00</time></trkpt><trkpt lat="43.154366" lon="19.122337"><ele>1453.0</ele><time>2012-05-01T15:01:44.0000000+00:00</time></trkpt><trkpt lat="43.154366" lon="19.122337"><ele>1452.9</ele><time>2012-05-01T15:01:49.0000000+00:00</time></trkpt><trkpt lat="43.154366" lon="19.122337"><ele>1452.9</ele><time>2012-05-01T15:01:54.0000000+00:00</time></trkpt><trkpt lat="43.154366" lon="19.122339"><ele>1452.9</ele><time>2012-05-01T15:01:59.0000000+00:00</time></trkpt><trkpt lat="43.154366" lon="19.122339"><ele>1453.0</ele><time>2012-05-01T15:02:04.0000000+00:00</time></trkpt><trkpt lat="43.154366" lon="19.122339"><ele>1453.0</ele><time>2012-05-01T15:02:09.0000000+00:00</time></trkpt><trkpt lat="43.154362" lon="19.122339"><ele>1453.0</ele><time>2012-05-01T15:02:14.0000000+00:00</time></trkpt><trkpt lat="43.154362" lon="19.122339"><ele>1453.0</ele><time>2012-05-01T15:02:19.0000000+00:00</time></trkpt><trkpt lat="43.154362" lon="19.122341"><ele>1453.0</ele><time>2012-05-01T15:02:24.0000000+00:00</time></trkpt><trkpt lat="43.154362" lon="19.122341"><ele>1453.0</ele><time>2012-05-01T15:02:29.0000000+00:00</time></trkpt><trkpt lat="43.154362" lon="19.122341"><ele>1453.0</ele><time>2012-05-01T15:02:34.0000000+00:00</time></trkpt><trkpt lat="43.154362" lon="19.122341"><ele>1453.0</ele><time>2012-05-01T15:02:39.0000000+00:00</time></trkpt><trkpt lat="43.154362" lon="19.122341"><ele>1453.0</ele><time>2012-05-01T15:02:44.0000000+00:00</time></trkpt><trkpt lat="43.154362" lon="19.122343"><ele>1452.9</ele><time>2012-05-01T15:02:49.0000000+00:00</time></trkpt><trkpt lat="43.154362" lon="19.122343"><ele>1452.8</ele><time>2012-05-01T15:02:54.0000000+00:00</time></trkpt><trkpt lat="43.154362" lon="19.122343"><ele>1452.8</ele><time>2012-05-01T15:02:59.0000000+00:00</time></trkpt><trkpt lat="43.154362" lon="19.122343"><ele>1452.8</ele><time>2012-05-01T15:03:04.0000000+00:00</time></trkpt><trkpt lat="43.154362" lon="19.122343"><ele>1452.8</ele><time>2012-05-01T15:03:09.0000000+00:00</time></trkpt><trkpt lat="43.154362" lon="19.122343"><ele>1452.8</ele><time>2012-05-01T15:03:14.0000000+00:00</time></trkpt><trkpt lat="43.154362" lon="19.122343"><ele>1452.8</ele><time>2012-05-01T15:03:19.0000000+00:00</time></trkpt><trkpt lat="43.154362" lon="19.122345"><ele>1452.8</ele><time>2012-05-01T15:03:24.0000000+00:00</time></trkpt><trkpt lat="43.154362" lon="19.122345"><ele>1452.9</ele><time>2012-05-01T15:03:29.0000000+00:00</time></trkpt><trkpt lat="43.154362" lon="19.122345"><ele>1452.9</ele><time>2012-05-01T15:03:34.0000000+00:00</time></trkpt><trkpt lat="43.154362" lon="19.122345"><ele>1452.9</ele><time>2012-05-01T15:03:39.0000000+00:00</time></trkpt><trkpt lat="43.154362" lon="19.122345"><ele>1452.8</ele><time>2012-05-01T15:03:44.0000000+00:00</time></trkpt><trkpt lat="43.154362" lon="19.122345"><ele>1452.8</ele><time>2012-05-01T15:03:49.0000000+00:00</time></trkpt><trkpt lat="43.154362" lon="19.122345"><ele>1452.8</ele><time>2012-05-01T15:03:54.0000000+00:00</time></trkpt><trkpt lat="43.154362" lon="19.122345"><ele>1452.8</ele><time>2012-05-01T15:03:59.0000000+00:00</time></trkpt><trkpt lat="43.154362" lon="19.122345"><ele>1452.8</ele><time>2012-05-01T15:04:04.0000000+00:00</time></trkpt><trkpt lat="43.154362" lon="19.122345"><ele>1452.8</ele><time>2012-05-01T15:04:09.0000000+00:00</time></trkpt><trkpt lat="43.154362" lon="19.122345"><ele>1452.8</ele><time>2012-05-01T15:04:14.0000000+00:00</time></trkpt><trkpt lat="43.154362" lon="19.122345"><ele>1452.8</ele><time>2012-05-01T15:04:19.0000000+00:00</time></trkpt><trkpt lat="43.154362" lon="19.122345"><ele>1452.8</ele><time>2012-05-01T15:04:24.0000000+00:00</time></trkpt><trkpt lat="43.154362" lon="19.122345"><ele>1452.8</ele><time>2012-05-01T15:04:29.0000000+00:00</time></trkpt><trkpt lat="43.154362" lon="19.122343"><ele>1452.8</ele><time>2012-05-01T15:04:34.0000000+00:00</time></trkpt><trkpt lat="43.154362" lon="19.122343"><ele>1452.8</ele><time>2012-05-01T15:04:39.0000000+00:00</time></trkpt><trkpt lat="43.154362" lon="19.122343"><ele>1452.8</ele><time>2012-05-01T15:04:44.0000000+00:00</time></trkpt><trkpt lat="43.154362" lon="19.122343"><ele>1452.8</ele><time>2012-05-01T15:04:49.0000000+00:00</time></trkpt><trkpt lat="43.154362" lon="19.122341"><ele>1452.8</ele><time>2012-05-01T15:04:54.0000000+00:00</time></trkpt><trkpt lat="43.154362" lon="19.122341"><ele>1452.8</ele><time>2012-05-01T15:04:59.0000000+00:00</time></trkpt><trkpt lat="43.154362" lon="19.122343"><ele>1452.8</ele><time>2012-05-01T15:05:04.0000000+00:00</time></trkpt><trkpt lat="43.154362" lon="19.122343"><ele>1452.8</ele><time>2012-05-01T15:05:09.0000000+00:00</time></trkpt><trkpt lat="43.154362" lon="19.122343"><ele>1452.8</ele><time>2012-05-01T15:05:14.0000000+00:00</time></trkpt><trkpt lat="43.154362" lon="19.122343"><ele>1452.7</ele><time>2012-05-01T15:05:19.0000000+00:00</time></trkpt><trkpt lat="43.154362" lon="19.122343"><ele>1452.7</ele><time>2012-05-01T15:05:24.0000000+00:00</time></trkpt><trkpt lat="43.154362" lon="19.122343"><ele>1452.7</ele><time>2012-05-01T15:05:29.0000000+00:00</time></trkpt><trkpt lat="43.154362" lon="19.122343"><ele>1452.6</ele><time>2012-05-01T15:05:34.0000000+00:00</time></trkpt><trkpt lat="43.154362" lon="19.122343"><ele>1452.6</ele><time>2012-05-01T15:05:39.0000000+00:00</time></trkpt><trkpt lat="43.154362" lon="19.122343"><ele>1452.6</ele><time>2012-05-01T15:05:44.0000000+00:00</time></trkpt><trkpt lat="43.154362" lon="19.122343"><ele>1452.6</ele><time>2012-05-01T15:05:49.0000000+00:00</time></trkpt><trkpt lat="43.154362" lon="19.122343"><ele>1452.6</ele><time>2012-05-01T15:05:54.0000000+00:00</time></trkpt><trkpt lat="43.154362" lon="19.122343"><ele>1452.6</ele><time>2012-05-01T15:05:59.0000000+00:00</time></trkpt><trkpt lat="43.154362" lon="19.122343"><ele>1452.7</ele><time>2012-05-01T15:06:04.0000000+00:00</time></trkpt><trkpt lat="43.154362" lon="19.122343"><ele>1452.7</ele><time>2012-05-01T15:06:09.0000000+00:00</time></trkpt><trkpt lat="43.154362" lon="19.122343"><ele>1452.7</ele><time>2012-05-01T15:06:14.0000000+00:00</time></trkpt><trkpt lat="43.154362" lon="19.122343"><ele>1452.7</ele><time>2012-05-01T15:06:19.0000000+00:00</time></trkpt><trkpt lat="43.154362" lon="19.122343"><ele>1452.8</ele><time>2012-05-01T15:06:24.0000000+00:00</time></trkpt><trkpt lat="43.154362" lon="19.122343"><ele>1452.8</ele><time>2012-05-01T15:06:29.0000000+00:00</time></trkpt><trkpt lat="43.154362" lon="19.122343"><ele>1452.8</ele><time>2012-05-01T15:06:34.0000000+00:00</time></trkpt><trkpt lat="43.154362" lon="19.122343"><ele>1452.8</ele><time>2012-05-01T15:06:39.0000000+00:00</time></trkpt><trkpt lat="43.154362" lon="19.122345"><ele>1452.8</ele><time>2012-05-01T15:06:44.0000000+00:00</time></trkpt><trkpt lat="43.154362" lon="19.122345"><ele>1452.8</ele><time>2012-05-01T15:06:49.0000000+00:00</time></trkpt><trkpt lat="43.154362" lon="19.122345"><ele>1452.8</ele><time>2012-05-01T15:06:54.0000000+00:00</time></trkpt><trkpt lat="43.154362" lon="19.122345"><ele>1452.8</ele><time>2012-05-01T15:06:59.0000000+00:00</time></trkpt><trkpt lat="43.154362" lon="19.122345"><ele>1452.8</ele><time>2012-05-01T15:07:04.0000000+00:00</time></trkpt><trkpt lat="43.154362" lon="19.122345"><ele>1452.8</ele><time>2012-05-01T15:07:09.0000000+00:00</time></trkpt><trkpt lat="43.154362" lon="19.122345"><ele>1452.9</ele><time>2012-05-01T15:07:14.0000000+00:00</time></trkpt><trkpt lat="43.154362" lon="19.122345"><ele>1452.9</ele><time>2012-05-01T15:07:19.0000000+00:00</time></trkpt><trkpt lat="43.154362" lon="19.122345"><ele>1452.9</ele><time>2012-05-01T15:07:24.0000000+00:00</time></trkpt><trkpt lat="43.154362" lon="19.122345"><ele>1452.9</ele><time>2012-05-01T15:07:29.0000000+00:00</time></trkpt><trkpt lat="43.154362" lon="19.122345"><ele>1452.9</ele><time>2012-05-01T15:07:34.0000000+00:00</time></trkpt><trkpt lat="43.154362" lon="19.122345"><ele>1452.9</ele><time>2012-05-01T15:07:39.0000000+00:00</time></trkpt><trkpt lat="43.154362" lon="19.122345"><ele>1452.9</ele><time>2012-05-01T15:07:44.0000000+00:00</time></trkpt><trkpt lat="43.154362" lon="19.122345"><ele>1452.9</ele><time>2012-05-01T15:07:49.0000000+00:00</time></trkpt><trkpt lat="43.154362" lon="19.122345"><ele>1452.8</ele><time>2012-05-01T15:07:54.0000000+00:00</time></trkpt><trkpt lat="43.154362" lon="19.122345"><ele>1452.8</ele><time>2012-05-01T15:07:59.0000000+00:00</time></trkpt><trkpt lat="43.154362" lon="19.122345"><ele>1452.8</ele><time>2012-05-01T15:08:04.0000000+00:00</time></trkpt><trkpt lat="43.154362" lon="19.122345"><ele>1452.8</ele><time>2012-05-01T15:08:09.0000000+00:00</time></trkpt><trkpt lat="43.154358" lon="19.122345"><ele>1452.8</ele><time>2012-05-01T15:08:14.0000000+00:00</time></trkpt><trkpt lat="43.154358" lon="19.122345"><ele>1452.8</ele><time>2012-05-01T15:08:19.0000000+00:00</time></trkpt><trkpt lat="43.154362" lon="19.122345"><ele>1452.8</ele><time>2012-05-01T15:08:24.0000000+00:00</time></trkpt><trkpt lat="43.154362" lon="19.122345"><ele>1452.9</ele><time>2012-05-01T15:08:29.0000000+00:00</time></trkpt><trkpt lat="43.154358" lon="19.122345"><ele>1452.9</ele><time>2012-05-01T15:08:34.0000000+00:00</time></trkpt><trkpt lat="43.154358" lon="19.122345"><ele>1452.8</ele><time>2012-05-01T15:08:39.0000000+00:00</time></trkpt><trkpt lat="43.154358" lon="19.122345"><ele>1452.7</ele><time>2012-05-01T15:08:44.0000000+00:00</time></trkpt><trkpt lat="43.154358" lon="19.122345"><ele>1452.7</ele><time>2012-05-01T15:08:49.0000000+00:00</time></trkpt><trkpt lat="43.154358" lon="19.122345"><ele>1452.6</ele><time>2012-05-01T15:08:54.0000000+00:00</time></trkpt><trkpt lat="43.154358" lon="19.122345"><ele>1452.6</ele><time>2012-05-01T15:08:59.0000000+00:00</time></trkpt><trkpt lat="43.154358" lon="19.122345"><ele>1452.6</ele><time>2012-05-01T15:09:04.0000000+00:00</time></trkpt><trkpt lat="43.154358" lon="19.122345"><ele>1452.6</ele><time>2012-05-01T15:09:09.0000000+00:00</time></trkpt><trkpt lat="43.154358" lon="19.122345"><ele>1452.7</ele><time>2012-05-01T15:09:14.0000000+00:00</time></trkpt><trkpt lat="43.154358" lon="19.122345"><ele>1452.7</ele><time>2012-05-01T15:09:19.0000000+00:00</time></trkpt><trkpt lat="43.154358" lon="19.122347"><ele>1452.7</ele><time>2012-05-01T15:09:24.0000000+00:00</time></trkpt><trkpt lat="43.154358" lon="19.122347"><ele>1452.7</ele><time>2012-05-01T15:09:29.0000000+00:00</time></trkpt><trkpt lat="43.154358" lon="19.122347"><ele>1452.7</ele><time>2012-05-01T15:09:34.0000000+00:00</time></trkpt><trkpt lat="43.154358" lon="19.122347"><ele>1452.7</ele><time>2012-05-01T15:09:39.0000000+00:00</time></trkpt><trkpt lat="43.154358" lon="19.122347"><ele>1452.7</ele><time>2012-05-01T15:09:44.0000000+00:00</time></trkpt><trkpt lat="43.154358" lon="19.122349"><ele>1452.6</ele><time>2012-05-01T15:09:49.0000000+00:00</time></trkpt><trkpt lat="43.154358" lon="19.122349"><ele>1452.6</ele><time>2012-05-01T15:09:54.0000000+00:00</time></trkpt><trkpt lat="43.154358" lon="19.122349"><ele>1452.7</ele><time>2012-05-01T15:09:59.0000000+00:00</time></trkpt><trkpt lat="43.154358" lon="19.122349"><ele>1452.7</ele><time>2012-05-01T15:10:04.0000000+00:00</time></trkpt><trkpt lat="43.154358" lon="19.122349"><ele>1452.7</ele><time>2012-05-01T15:10:09.0000000+00:00</time></trkpt><trkpt lat="43.154358" lon="19.122349"><ele>1452.7</ele><time>2012-05-01T15:10:14.0000000+00:00</time></trkpt><trkpt lat="43.154358" lon="19.122349"><ele>1452.8</ele><time>2012-05-01T15:10:19.0000000+00:00</time></trkpt><trkpt lat="43.154358" lon="19.122349"><ele>1452.8</ele><time>2012-05-01T15:10:24.0000000+00:00</time></trkpt><trkpt lat="43.154358" lon="19.122349"><ele>1452.8</ele><time>2012-05-01T15:10:29.0000000+00:00</time></trkpt><trkpt lat="43.154358" lon="19.122349"><ele>1452.7</ele><time>2012-05-01T15:10:34.0000000+00:00</time></trkpt><trkpt lat="43.154358" lon="19.122351"><ele>1452.7</ele><time>2012-05-01T15:10:39.0000000+00:00</time></trkpt><trkpt lat="43.154358" lon="19.122351"><ele>1452.7</ele><time>2012-05-01T15:10:44.0000000+00:00</time></trkpt><trkpt lat="43.154358" lon="19.122351"><ele>1452.7</ele><time>2012-05-01T15:10:49.0000000+00:00</time></trkpt><trkpt lat="43.154358" lon="19.122351"><ele>1452.6</ele><time>2012-05-01T15:10:54.0000000+00:00</time></trkpt><trkpt lat="43.154358" lon="19.122353"><ele>1452.6</ele><time>2012-05-01T15:10:59.0000000+00:00</time></trkpt><trkpt lat="43.154358" lon="19.122351"><ele>1452.6</ele><time>2012-05-01T15:11:04.0000000+00:00</time></trkpt><trkpt lat="43.154358" lon="19.122353"><ele>1452.5</ele><time>2012-05-01T15:11:09.0000000+00:00</time></trkpt><trkpt lat="43.154358" lon="19.122353"><ele>1452.5</ele><time>2012-05-01T15:11:14.0000000+00:00</time></trkpt><trkpt lat="43.154358" lon="19.122353"><ele>1452.5</ele><time>2012-05-01T15:11:19.0000000+00:00</time></trkpt><trkpt lat="43.154362" lon="19.122353"><ele>1452.5</ele><time>2012-05-01T15:11:24.0000000+00:00</time></trkpt><trkpt lat="43.154362" lon="19.122353"><ele>1452.5</ele><time>2012-05-01T15:11:29.0000000+00:00</time></trkpt><trkpt lat="43.154362" lon="19.122353"><ele>1452.5</ele><time>2012-05-01T15:11:34.0000000+00:00</time></trkpt><trkpt lat="43.154362" lon="19.122353"><ele>1452.5</ele><time>2012-05-01T15:11:39.0000000+00:00</time></trkpt><trkpt lat="43.154362" lon="19.122353"><ele>1452.4</ele><time>2012-05-01T15:11:44.0000000+00:00</time></trkpt><trkpt lat="43.154362" lon="19.122353"><ele>1452.3</ele><time>2012-05-01T15:11:49.0000000+00:00</time></trkpt><trkpt lat="43.154362" lon="19.122353"><ele>1452.3</ele><time>2012-05-01T15:11:54.0000000+00:00</time></trkpt><trkpt lat="43.154362" lon="19.122353"><ele>1452.2</ele><time>2012-05-01T15:11:59.0000000+00:00</time></trkpt><trkpt lat="43.154362" lon="19.122355"><ele>1452.2</ele><time>2012-05-01T15:12:04.0000000+00:00</time></trkpt><trkpt lat="43.154362" lon="19.122355"><ele>1452.2</ele><time>2012-05-01T15:12:09.0000000+00:00</time></trkpt><trkpt lat="43.154362" lon="19.122355"><ele>1452.2</ele><time>2012-05-01T15:12:14.0000000+00:00</time></trkpt><trkpt lat="43.154362" lon="19.122355"><ele>1452.2</ele><time>2012-05-01T15:12:19.0000000+00:00</time></trkpt><trkpt lat="43.154362" lon="19.122355"><ele>1452.2</ele><time>2012-05-01T15:12:24.0000000+00:00</time></trkpt><trkpt lat="43.154362" lon="19.122355"><ele>1452.3</ele><time>2012-05-01T15:12:29.0000000+00:00</time></trkpt><trkpt lat="43.154362" lon="19.122355"><ele>1452.3</ele><time>2012-05-01T15:12:34.0000000+00:00</time></trkpt><trkpt lat="43.154362" lon="19.122355"><ele>1452.2</ele><time>2012-05-01T15:12:39.0000000+00:00</time></trkpt><trkpt lat="43.154362" lon="19.122355"><ele>1452.2</ele><time>2012-05-01T15:12:44.0000000+00:00</time></trkpt><trkpt lat="43.154358" lon="19.122355"><ele>1452.2</ele><time>2012-05-01T15:12:49.0000000+00:00</time></trkpt><trkpt lat="43.154358" lon="19.122356"><ele>1452.1</ele><time>2012-05-01T15:12:54.0000000+00:00</time></trkpt><trkpt lat="43.154362" lon="19.122356"><ele>1452.1</ele><time>2012-05-01T15:12:59.0000000+00:00</time></trkpt><trkpt lat="43.154362" lon="19.122356"><ele>1452.0</ele><time>2012-05-01T15:13:04.0000000+00:00</time></trkpt><trkpt lat="43.154362" lon="19.122356"><ele>1452.0</ele><time>2012-05-01T15:13:09.0000000+00:00</time></trkpt><trkpt lat="43.154362" lon="19.122356"><ele>1452.0</ele><time>2012-05-01T15:13:14.0000000+00:00</time></trkpt><trkpt lat="43.154362" lon="19.122356"><ele>1452.0</ele><time>2012-05-01T15:13:19.0000000+00:00</time></trkpt><trkpt lat="43.154362" lon="19.122356"><ele>1451.9</ele><time>2012-05-01T15:13:24.0000000+00:00</time></trkpt><trkpt lat="43.154362" lon="19.122358"><ele>1451.9</ele><time>2012-05-01T15:13:29.0000000+00:00</time></trkpt><trkpt lat="43.154358" lon="19.122358"><ele>1451.9</ele><time>2012-05-01T15:13:34.0000000+00:00</time></trkpt><trkpt lat="43.154358" lon="19.122358"><ele>1451.9</ele><time>2012-05-01T15:13:39.0000000+00:00</time></trkpt><trkpt lat="43.154358" lon="19.122358"><ele>1451.9</ele><time>2012-05-01T15:13:44.0000000+00:00</time></trkpt><trkpt lat="43.154358" lon="19.122358"><ele>1451.9</ele><time>2012-05-01T15:13:49.0000000+00:00</time></trkpt><trkpt lat="43.154358" lon="19.122358"><ele>1451.9</ele><time>2012-05-01T15:13:54.0000000+00:00</time></trkpt><trkpt lat="43.154358" lon="19.122358"><ele>1451.9</ele><time>2012-05-01T15:13:59.0000000+00:00</time></trkpt><trkpt lat="43.154358" lon="19.122356"><ele>1451.8</ele><time>2012-05-01T15:14:04.0000000+00:00</time></trkpt><trkpt lat="43.154358" lon="19.122356"><ele>1451.8</ele><time>2012-05-01T15:14:09.0000000+00:00</time></trkpt><trkpt lat="43.154358" lon="19.122356"><ele>1451.7</ele><time>2012-05-01T15:14:14.0000000+00:00</time></trkpt><trkpt lat="43.154358" lon="19.122356"><ele>1451.6</ele><time>2012-05-01T15:14:19.0000000+00:00</time></trkpt><trkpt lat="43.154358" lon="19.122356"><ele>1451.6</ele><time>2012-05-01T15:14:24.0000000+00:00</time></trkpt><trkpt lat="43.154358" lon="19.122356"><ele>1451.6</ele><time>2012-05-01T15:14:29.0000000+00:00</time></trkpt><trkpt lat="43.154358" lon="19.122356"><ele>1451.7</ele><time>2012-05-01T15:14:34.0000000+00:00</time></trkpt><trkpt lat="43.154358" lon="19.122356"><ele>1451.7</ele><time>2012-05-01T15:14:39.0000000+00:00</time></trkpt><trkpt lat="43.154358" lon="19.122356"><ele>1451.8</ele><time>2012-05-01T15:14:44.0000000+00:00</time></trkpt><trkpt lat="43.154358" lon="19.122356"><ele>1451.7</ele><time>2012-05-01T15:14:49.0000000+00:00</time></trkpt><trkpt lat="43.154358" lon="19.122356"><ele>1451.7</ele><time>2012-05-01T15:14:54.0000000+00:00</time></trkpt><trkpt lat="43.154358" lon="19.122356"><ele>1451.7</ele><time>2012-05-01T15:14:59.0000000+00:00</time></trkpt><trkpt lat="43.154358" lon="19.122356"><ele>1451.7</ele><time>2012-05-01T15:15:04.0000000+00:00</time></trkpt><trkpt lat="43.154358" lon="19.122356"><ele>1451.7</ele><time>2012-05-01T15:15:09.0000000+00:00</time></trkpt><trkpt lat="43.154358" lon="19.122356"><ele>1451.7</ele><time>2012-05-01T15:15:14.0000000+00:00</time></trkpt><trkpt lat="43.154358" lon="19.122356"><ele>1451.7</ele><time>2012-05-01T15:15:19.0000000+00:00</time></trkpt><trkpt lat="43.154358" lon="19.122356"><ele>1451.7</ele><time>2012-05-01T15:15:24.0000000+00:00</time></trkpt><trkpt lat="43.154358" lon="19.122356"><ele>1451.7</ele><time>2012-05-01T15:15:29.0000000+00:00</time></trkpt><trkpt lat="43.154358" lon="19.122356"><ele>1451.8</ele><time>2012-05-01T15:15:34.0000000+00:00</time></trkpt><trkpt lat="43.154358" lon="19.122356"><ele>1451.8</ele><time>2012-05-01T15:15:39.0000000+00:00</time></trkpt><trkpt lat="43.154358" lon="19.122356"><ele>1451.8</ele><time>2012-05-01T15:15:44.0000000+00:00</time></trkpt><trkpt lat="43.154358" lon="19.122356"><ele>1451.9</ele><time>2012-05-01T15:15:49.0000000+00:00</time></trkpt><trkpt lat="43.154354" lon="19.122355"><ele>1451.9</ele><time>2012-05-01T15:15:54.0000000+00:00</time></trkpt><trkpt lat="43.154354" lon="19.122355"><ele>1452.0</ele><time>2012-05-01T15:15:59.0000000+00:00</time></trkpt><trkpt lat="43.154354" lon="19.122355"><ele>1452.0</ele><time>2012-05-01T15:16:04.0000000+00:00</time></trkpt><trkpt lat="43.154354" lon="19.122355"><ele>1452.0</ele><time>2012-05-01T15:16:09.0000000+00:00</time></trkpt><trkpt lat="43.154354" lon="19.122353"><ele>1452.0</ele><time>2012-05-01T15:16:14.0000000+00:00</time></trkpt><trkpt lat="43.154354" lon="19.122353"><ele>1452.1</ele><time>2012-05-01T15:16:19.0000000+00:00</time></trkpt><trkpt lat="43.154354" lon="19.122353"><ele>1452.1</ele><time>2012-05-01T15:16:24.0000000+00:00</time></trkpt><trkpt lat="43.154354" lon="19.122353"><ele>1452.1</ele><time>2012-05-01T15:16:29.0000000+00:00</time></trkpt><trkpt lat="43.154354" lon="19.122353"><ele>1452.1</ele><time>2012-05-01T15:16:34.0000000+00:00</time></trkpt><trkpt lat="43.154354" lon="19.122353"><ele>1452.1</ele><time>2012-05-01T15:16:39.0000000+00:00</time></trkpt><trkpt lat="43.154354" lon="19.122353"><ele>1452.1</ele><time>2012-05-01T15:16:44.0000000+00:00</time></trkpt><trkpt lat="43.154354" lon="19.122353"><ele>1452.2</ele><time>2012-05-01T15:16:49.0000000+00:00</time></trkpt><trkpt lat="43.15435" lon="19.122353"><ele>1452.2</ele><time>2012-05-01T15:16:54.0000000+00:00</time></trkpt><trkpt lat="43.15435" lon="19.122353"><ele>1452.1</ele><time>2012-05-01T15:16:59.0000000+00:00</time></trkpt><trkpt lat="43.15435" lon="19.122353"><ele>1452.1</ele><time>2012-05-01T15:17:04.0000000+00:00</time></trkpt><trkpt lat="43.15435" lon="19.122353"><ele>1452.1</ele><time>2012-05-01T15:17:09.0000000+00:00</time></trkpt><trkpt lat="43.15435" lon="19.122353"><ele>1452.1</ele><time>2012-05-01T15:17:14.0000000+00:00</time></trkpt><trkpt lat="43.15435" lon="19.122353"><ele>1452.2</ele><time>2012-05-01T15:17:19.0000000+00:00</time></trkpt><trkpt lat="43.15435" lon="19.122353"><ele>1452.2</ele><time>2012-05-01T15:17:24.0000000+00:00</time></trkpt><trkpt lat="43.15435" lon="19.122351"><ele>1452.3</ele><time>2012-05-01T15:17:29.0000000+00:00</time></trkpt><trkpt lat="43.15435" lon="19.122351"><ele>1452.3</ele><time>2012-05-01T15:17:34.0000000+00:00</time></trkpt><trkpt lat="43.15435" lon="19.122351"><ele>1452.3</ele><time>2012-05-01T15:17:39.0000000+00:00</time></trkpt><trkpt lat="43.15435" lon="19.122351"><ele>1452.3</ele><time>2012-05-01T15:17:44.0000000+00:00</time></trkpt><trkpt lat="43.15435" lon="19.122351"><ele>1452.3</ele><time>2012-05-01T15:17:49.0000000+00:00</time></trkpt><trkpt lat="43.15435" lon="19.122349"><ele>1452.3</ele><time>2012-05-01T15:17:54.0000000+00:00</time></trkpt><trkpt lat="43.154346" lon="19.122349"><ele>1452.3</ele><time>2012-05-01T15:17:59.0000000+00:00</time></trkpt><trkpt lat="43.154346" lon="19.122349"><ele>1452.4</ele><time>2012-05-01T15:18:04.0000000+00:00</time></trkpt><trkpt lat="43.154346" lon="19.122349"><ele>1452.4</ele><time>2012-05-01T15:18:09.0000000+00:00</time></trkpt><trkpt lat="43.154346" lon="19.122349"><ele>1452.3</ele><time>2012-05-01T15:18:14.0000000+00:00</time></trkpt><trkpt lat="43.154346" lon="19.122349"><ele>1452.3</ele><time>2012-05-01T15:18:19.0000000+00:00</time></trkpt><trkpt lat="43.154346" lon="19.122349"><ele>1452.3</ele><time>2012-05-01T15:18:24.0000000+00:00</time></trkpt><trkpt lat="43.154346" lon="19.122349"><ele>1452.4</ele><time>2012-05-01T15:18:29.0000000+00:00</time></trkpt><trkpt lat="43.154346" lon="19.122347"><ele>1452.4</ele><time>2012-05-01T15:18:34.0000000+00:00</time></trkpt><trkpt lat="43.154346" lon="19.122347"><ele>1452.5</ele><time>2012-05-01T15:18:39.0000000+00:00</time></trkpt><trkpt lat="43.154346" lon="19.122347"><ele>1452.5</ele><time>2012-05-01T15:18:44.0000000+00:00</time></trkpt><trkpt lat="43.154346" lon="19.122347"><ele>1452.6</ele><time>2012-05-01T15:18:49.0000000+00:00</time></trkpt><trkpt lat="43.154346" lon="19.122345"><ele>1452.6</ele><time>2012-05-01T15:18:54.0000000+00:00</time></trkpt><trkpt lat="43.154346" lon="19.122345"><ele>1452.6</ele><time>2012-05-01T15:18:59.0000000+00:00</time></trkpt><trkpt lat="43.154346" lon="19.122343"><ele>1452.7</ele><time>2012-05-01T15:19:04.0000000+00:00</time></trkpt><trkpt lat="43.154346" lon="19.122343"><ele>1452.7</ele><time>2012-05-01T15:19:09.0000000+00:00</time></trkpt><trkpt lat="43.154346" lon="19.122343"><ele>1452.8</ele><time>2012-05-01T15:19:14.0000000+00:00</time></trkpt><trkpt lat="43.154346" lon="19.122343"><ele>1452.8</ele><time>2012-05-01T15:19:19.0000000+00:00</time></trkpt><trkpt lat="43.154346" lon="19.122343"><ele>1452.8</ele><time>2012-05-01T15:19:24.0000000+00:00</time></trkpt><trkpt lat="43.154346" lon="19.122343"><ele>1452.9</ele><time>2012-05-01T15:19:29.0000000+00:00</time></trkpt><trkpt lat="43.154343" lon="19.122341"><ele>1453.0</ele><time>2012-05-01T15:19:34.0000000+00:00</time></trkpt><trkpt lat="43.154343" lon="19.122341"><ele>1453.0</ele><time>2012-05-01T15:19:39.0000000+00:00</time></trkpt><trkpt lat="43.154343" lon="19.122341"><ele>1453.1</ele><time>2012-05-01T15:19:44.0000000+00:00</time></trkpt><trkpt lat="43.154343" lon="19.122339"><ele>1453.1</ele><time>2012-05-01T15:19:49.0000000+00:00</time></trkpt><trkpt lat="43.154343" lon="19.122339"><ele>1453.1</ele><time>2012-05-01T15:19:54.0000000+00:00</time></trkpt><trkpt lat="43.154343" lon="19.122339"><ele>1453.1</ele><time>2012-05-01T15:19:59.0000000+00:00</time></trkpt><trkpt lat="43.154343" lon="19.122341"><ele>1453.1</ele><time>2012-05-01T15:20:04.0000000+00:00</time></trkpt><trkpt lat="43.154343" lon="19.122339"><ele>1453.2</ele><time>2012-05-01T15:20:09.0000000+00:00</time></trkpt><trkpt lat="43.154343" lon="19.122339"><ele>1453.2</ele><time>2012-05-01T15:20:14.0000000+00:00</time></trkpt><trkpt lat="43.154343" lon="19.122339"><ele>1453.2</ele><time>2012-05-01T15:20:19.0000000+00:00</time></trkpt><trkpt lat="43.154343" lon="19.122339"><ele>1453.2</ele><time>2012-05-01T15:20:24.0000000+00:00</time></trkpt><trkpt lat="43.154343" lon="19.122339"><ele>1453.2</ele><time>2012-05-01T15:20:29.0000000+00:00</time></trkpt><trkpt lat="43.154343" lon="19.122339"><ele>1453.2</ele><time>2012-05-01T15:20:34.0000000+00:00</time></trkpt><trkpt lat="43.154343" lon="19.122337"><ele>1453.2</ele><time>2012-05-01T15:20:39.0000000+00:00</time></trkpt><trkpt lat="43.154343" lon="19.122337"><ele>1453.2</ele><time>2012-05-01T15:20:44.0000000+00:00</time></trkpt><trkpt lat="43.154343" lon="19.122335"><ele>1453.3</ele><time>2012-05-01T15:20:49.0000000+00:00</time></trkpt><trkpt lat="43.154343" lon="19.122335"><ele>1453.3</ele><time>2012-05-01T15:20:54.0000000+00:00</time></trkpt><trkpt lat="43.154343" lon="19.122335"><ele>1453.4</ele><time>2012-05-01T15:20:59.0000000+00:00</time></trkpt><trkpt lat="43.154343" lon="19.122334"><ele>1453.5</ele><time>2012-05-01T15:21:04.0000000+00:00</time></trkpt><trkpt lat="43.154343" lon="19.122334"><ele>1453.5</ele><time>2012-05-01T15:21:09.0000000+00:00</time></trkpt><trkpt lat="43.154343" lon="19.122334"><ele>1453.5</ele><time>2012-05-01T15:21:14.0000000+00:00</time></trkpt><trkpt lat="43.154343" lon="19.122334"><ele>1453.6</ele><time>2012-05-01T15:21:19.0000000+00:00</time></trkpt><trkpt lat="43.154339" lon="19.122332"><ele>1453.6</ele><time>2012-05-01T15:21:24.0000000+00:00</time></trkpt><trkpt lat="43.154339" lon="19.122332"><ele>1453.6</ele><time>2012-05-01T15:21:29.0000000+00:00</time></trkpt><trkpt lat="43.154339" lon="19.122332"><ele>1453.6</ele><time>2012-05-01T15:21:34.0000000+00:00</time></trkpt><trkpt lat="43.154339" lon="19.122332"><ele>1453.7</ele><time>2012-05-01T15:21:39.0000000+00:00</time></trkpt><trkpt lat="43.154339" lon="19.122332"><ele>1453.7</ele><time>2012-05-01T15:21:44.0000000+00:00</time></trkpt><trkpt lat="43.154339" lon="19.122332"><ele>1453.7</ele><time>2012-05-01T15:21:49.0000000+00:00</time></trkpt><trkpt lat="43.154339" lon="19.122332"><ele>1453.7</ele><time>2012-05-01T15:21:54.0000000+00:00</time></trkpt><trkpt lat="43.154339" lon="19.12233"><ele>1453.7</ele><time>2012-05-01T15:21:59.0000000+00:00</time></trkpt><trkpt lat="43.154339" lon="19.12233"><ele>1453.8</ele><time>2012-05-01T15:22:04.0000000+00:00</time></trkpt><trkpt lat="43.154339" lon="19.122328"><ele>1453.9</ele><time>2012-05-01T15:22:09.0000000+00:00</time></trkpt><trkpt lat="43.154339" lon="19.122328"><ele>1453.9</ele><time>2012-05-01T15:22:14.0000000+00:00</time></trkpt><trkpt lat="43.154339" lon="19.122328"><ele>1453.9</ele><time>2012-05-01T15:22:19.0000000+00:00</time></trkpt><trkpt lat="43.154339" lon="19.122326"><ele>1453.9</ele><time>2012-05-01T15:22:24.0000000+00:00</time></trkpt><trkpt lat="43.154339" lon="19.122326"><ele>1453.9</ele><time>2012-05-01T15:22:29.0000000+00:00</time></trkpt><trkpt lat="43.154339" lon="19.122324"><ele>1453.9</ele><time>2012-05-01T15:22:34.0000000+00:00</time></trkpt><trkpt lat="43.154339" lon="19.122324"><ele>1453.9</ele><time>2012-05-01T15:22:39.0000000+00:00</time></trkpt><trkpt lat="43.154339" lon="19.122324"><ele>1453.9</ele><time>2012-05-01T15:22:44.0000000+00:00</time></trkpt><trkpt lat="43.154339" lon="19.122324"><ele>1453.8</ele><time>2012-05-01T15:22:49.0000000+00:00</time></trkpt><trkpt lat="43.154339" lon="19.122322"><ele>1453.8</ele><time>2012-05-01T15:22:54.0000000+00:00</time></trkpt><trkpt lat="43.154339" lon="19.122322"><ele>1453.8</ele><time>2012-05-01T15:22:59.0000000+00:00</time></trkpt><trkpt lat="43.154339" lon="19.12232"><ele>1453.8</ele><time>2012-05-01T15:23:04.0000000+00:00</time></trkpt><trkpt lat="43.154339" lon="19.12232"><ele>1453.7</ele><time>2012-05-01T15:23:09.0000000+00:00</time></trkpt><trkpt lat="43.154339" lon="19.12232"><ele>1453.7</ele><time>2012-05-01T15:23:14.0000000+00:00</time></trkpt><trkpt lat="43.154339" lon="19.122318"><ele>1453.7</ele><time>2012-05-01T15:23:19.0000000+00:00</time></trkpt><trkpt lat="43.154339" lon="19.122318"><ele>1453.7</ele><time>2012-05-01T15:23:24.0000000+00:00</time></trkpt><trkpt lat="43.154339" lon="19.122316"><ele>1453.6</ele><time>2012-05-01T15:23:29.0000000+00:00</time></trkpt><trkpt lat="43.154339" lon="19.122316"><ele>1453.5</ele><time>2012-05-01T15:23:34.0000000+00:00</time></trkpt><trkpt lat="43.154339" lon="19.122314"><ele>1453.5</ele><time>2012-05-01T15:23:39.0000000+00:00</time></trkpt><trkpt lat="43.154339" lon="19.122314"><ele>1453.5</ele><time>2012-05-01T15:23:44.0000000+00:00</time></trkpt><trkpt lat="43.154339" lon="19.122314"><ele>1453.4</ele><time>2012-05-01T15:23:49.0000000+00:00</time></trkpt><trkpt lat="43.154339" lon="19.122314"><ele>1453.4</ele><time>2012-05-01T15:23:54.0000000+00:00</time></trkpt><trkpt lat="43.154339" lon="19.122313"><ele>1453.4</ele><time>2012-05-01T15:23:59.0000000+00:00</time></trkpt><trkpt lat="43.154339" lon="19.122313"><ele>1453.3</ele><time>2012-05-01T15:24:04.0000000+00:00</time></trkpt><trkpt lat="43.154339" lon="19.122313"><ele>1453.2</ele><time>2012-05-01T15:24:09.0000000+00:00</time></trkpt><trkpt lat="43.154339" lon="19.122313"><ele>1453.2</ele><time>2012-05-01T15:24:14.0000000+00:00</time></trkpt><trkpt lat="43.154339" lon="19.122313"><ele>1453.3</ele><time>2012-05-01T15:24:19.0000000+00:00</time></trkpt><trkpt lat="43.154339" lon="19.122314"><ele>1453.3</ele><time>2012-05-01T15:24:24.0000000+00:00</time></trkpt><trkpt lat="43.154335" lon="19.122314"><ele>1453.2</ele><time>2012-05-01T15:24:29.0000000+00:00</time></trkpt><trkpt lat="43.154335" lon="19.122313"><ele>1453.2</ele><time>2012-05-01T15:24:34.0000000+00:00</time></trkpt><trkpt lat="43.154335" lon="19.122313"><ele>1453.1</ele><time>2012-05-01T15:24:39.0000000+00:00</time></trkpt><trkpt lat="43.154335" lon="19.122314"><ele>1453.1</ele><time>2012-05-01T15:24:44.0000000+00:00</time></trkpt><trkpt lat="43.154335" lon="19.122314"><ele>1453.0</ele><time>2012-05-01T15:24:49.0000000+00:00</time></trkpt><trkpt lat="43.154335" lon="19.122316"><ele>1453.0</ele><time>2012-05-01T15:24:54.0000000+00:00</time></trkpt><trkpt lat="43.154335" lon="19.122316"><ele>1453.0</ele><time>2012-05-01T15:24:59.0000000+00:00</time></trkpt><trkpt lat="43.154335" lon="19.122316"><ele>1453.0</ele><time>2012-05-01T15:25:04.0000000+00:00</time></trkpt><trkpt lat="43.154335" lon="19.122316"><ele>1452.9</ele><time>2012-05-01T15:25:09.0000000+00:00</time></trkpt><trkpt lat="43.154335" lon="19.122316"><ele>1452.8</ele><time>2012-05-01T15:25:14.0000000+00:00</time></trkpt><trkpt lat="43.154335" lon="19.122316"><ele>1452.8</ele><time>2012-05-01T15:25:19.0000000+00:00</time></trkpt><trkpt lat="43.154335" lon="19.122316"><ele>1452.8</ele><time>2012-05-01T15:25:24.0000000+00:00</time></trkpt><trkpt lat="43.154335" lon="19.122316"><ele>1452.8</ele><time>2012-05-01T15:25:29.0000000+00:00</time></trkpt><trkpt lat="43.154335" lon="19.122316"><ele>1452.7</ele><time>2012-05-01T15:25:34.0000000+00:00</time></trkpt><trkpt lat="43.154335" lon="19.122314"><ele>1452.6</ele><time>2012-05-01T15:25:39.0000000+00:00</time></trkpt><trkpt lat="43.154335" lon="19.122314"><ele>1452.5</ele><time>2012-05-01T15:25:44.0000000+00:00</time></trkpt><trkpt lat="43.154335" lon="19.122314"><ele>1452.4</ele><time>2012-05-01T15:25:49.0000000+00:00</time></trkpt><trkpt lat="43.154335" lon="19.122314"><ele>1452.4</ele><time>2012-05-01T15:25:54.0000000+00:00</time></trkpt><trkpt lat="43.154339" lon="19.122314"><ele>1452.4</ele><time>2012-05-01T15:25:59.0000000+00:00</time></trkpt><trkpt lat="43.154339" lon="19.122314"><ele>1452.4</ele><time>2012-05-01T15:26:04.0000000+00:00</time></trkpt><trkpt lat="43.154335" lon="19.122314"><ele>1452.3</ele><time>2012-05-01T15:26:09.0000000+00:00</time></trkpt><trkpt lat="43.154335" lon="19.122316"><ele>1452.2</ele><time>2012-05-01T15:26:14.0000000+00:00</time></trkpt><trkpt lat="43.154335" lon="19.122318"><ele>1452.2</ele><time>2012-05-01T15:26:19.0000000+00:00</time></trkpt><trkpt lat="43.154331" lon="19.122318"><ele>1452.2</ele><time>2012-05-01T15:26:24.0000000+00:00</time></trkpt><trkpt lat="43.154331" lon="19.12232"><ele>1452.3</ele><time>2012-05-01T15:26:29.0000000+00:00</time></trkpt><trkpt lat="43.154331" lon="19.12232"><ele>1452.3</ele><time>2012-05-01T15:26:34.0000000+00:00</time></trkpt><trkpt lat="43.154331" lon="19.12232"><ele>1452.3</ele><time>2012-05-01T15:26:39.0000000+00:00</time></trkpt><trkpt lat="43.154331" lon="19.12232"><ele>1452.3</ele><time>2012-05-01T15:26:44.0000000+00:00</time></trkpt><trkpt lat="43.154331" lon="19.12232"><ele>1452.2</ele><time>2012-05-01T15:26:49.0000000+00:00</time></trkpt><trkpt lat="43.154331" lon="19.12232"><ele>1452.2</ele><time>2012-05-01T15:26:54.0000000+00:00</time></trkpt><trkpt lat="43.154335" lon="19.12232"><ele>1452.2</ele><time>2012-05-01T15:26:59.0000000+00:00</time></trkpt><trkpt lat="43.154335" lon="19.12232"><ele>1452.2</ele><time>2012-05-01T15:27:04.0000000+00:00</time></trkpt><trkpt lat="43.154335" lon="19.12232"><ele>1452.2</ele><time>2012-05-01T15:27:09.0000000+00:00</time></trkpt><trkpt lat="43.154335" lon="19.12232"><ele>1452.1</ele><time>2012-05-01T15:27:14.0000000+00:00</time></trkpt><trkpt lat="43.154335" lon="19.12232"><ele>1452.1</ele><time>2012-05-01T15:27:19.0000000+00:00</time></trkpt><trkpt lat="43.154335" lon="19.12232"><ele>1452.1</ele><time>2012-05-01T15:27:24.0000000+00:00</time></trkpt><trkpt lat="43.154335" lon="19.12232"><ele>1452.1</ele><time>2012-05-01T15:27:29.0000000+00:00</time></trkpt><trkpt lat="43.154335" lon="19.12232"><ele>1452.1</ele><time>2012-05-01T15:27:34.0000000+00:00</time></trkpt><trkpt lat="43.154335" lon="19.12232"><ele>1452.1</ele><time>2012-05-01T15:27:39.0000000+00:00</time></trkpt><trkpt lat="43.154331" lon="19.12232"><ele>1452.2</ele><time>2012-05-01T15:27:44.0000000+00:00</time></trkpt><trkpt lat="43.154331" lon="19.12232"><ele>1452.2</ele><time>2012-05-01T15:27:49.0000000+00:00</time></trkpt><trkpt lat="43.154331" lon="19.122318"><ele>1452.2</ele><time>2012-05-01T15:27:54.0000000+00:00</time></trkpt><trkpt lat="43.154331" lon="19.12232"><ele>1452.2</ele><time>2012-05-01T15:27:59.0000000+00:00</time></trkpt><trkpt lat="43.154331" lon="19.12232"><ele>1452.3</ele><time>2012-05-01T15:28:04.0000000+00:00</time></trkpt><trkpt lat="43.154331" lon="19.12232"><ele>1452.3</ele><time>2012-05-01T15:28:09.0000000+00:00</time></trkpt><trkpt lat="43.154331" lon="19.12232"><ele>1452.2</ele><time>2012-05-01T15:28:14.0000000+00:00</time></trkpt><trkpt lat="43.154331" lon="19.12232"><ele>1452.1</ele><time>2012-05-01T15:28:19.0000000+00:00</time></trkpt><trkpt lat="43.154331" lon="19.12232"><ele>1452.1</ele><time>2012-05-01T15:28:24.0000000+00:00</time></trkpt><trkpt lat="43.154331" lon="19.122322"><ele>1452.1</ele><time>2012-05-01T15:28:29.0000000+00:00</time></trkpt><trkpt lat="43.154331" lon="19.122322"><ele>1452.1</ele><time>2012-05-01T15:28:34.0000000+00:00</time></trkpt><trkpt lat="43.154331" lon="19.122322"><ele>1452.1</ele><time>2012-05-01T15:28:39.0000000+00:00</time></trkpt><trkpt lat="43.154331" lon="19.122324"><ele>1452.0</ele><time>2012-05-01T15:28:44.0000000+00:00</time></trkpt><trkpt lat="43.154331" lon="19.122324"><ele>1452.0</ele><time>2012-05-01T15:28:49.0000000+00:00</time></trkpt><trkpt lat="43.154331" lon="19.122324"><ele>1451.9</ele><time>2012-05-01T15:28:54.0000000+00:00</time></trkpt><trkpt lat="43.154331" lon="19.122324"><ele>1451.9</ele><time>2012-05-01T15:28:59.0000000+00:00</time></trkpt><trkpt lat="43.154335" lon="19.122324"><ele>1451.8</ele><time>2012-05-01T15:29:04.0000000+00:00</time></trkpt><trkpt lat="43.154335" lon="19.122322"><ele>1451.8</ele><time>2012-05-01T15:29:09.0000000+00:00</time></trkpt><trkpt lat="43.154335" lon="19.122322"><ele>1451.8</ele><time>2012-05-01T15:29:14.0000000+00:00</time></trkpt><trkpt lat="43.154335" lon="19.122322"><ele>1451.8</ele><time>2012-05-01T15:29:19.0000000+00:00</time></trkpt><trkpt lat="43.154335" lon="19.122324"><ele>1451.7</ele><time>2012-05-01T15:29:24.0000000+00:00</time></trkpt><trkpt lat="43.154335" lon="19.122324"><ele>1451.6</ele><time>2012-05-01T15:29:29.0000000+00:00</time></trkpt><trkpt lat="43.154331" lon="19.122326"><ele>1451.6</ele><time>2012-05-01T15:29:34.0000000+00:00</time></trkpt><trkpt lat="43.154331" lon="19.122326"><ele>1451.7</ele><time>2012-05-01T15:29:39.0000000+00:00</time></trkpt><trkpt lat="43.154331" lon="19.122326"><ele>1451.7</ele><time>2012-05-01T15:29:44.0000000+00:00</time></trkpt><trkpt lat="43.154327" lon="19.122328"><ele>1451.7</ele><time>2012-05-01T15:29:49.0000000+00:00</time></trkpt><trkpt lat="43.154327" lon="19.12233"><ele>1451.5</ele><time>2012-05-01T15:29:54.0000000+00:00</time></trkpt><trkpt lat="43.154327" lon="19.12233"><ele>1451.5</ele><time>2012-05-01T15:29:59.0000000+00:00</time></trkpt><trkpt lat="43.154327" lon="19.12233"><ele>1451.5</ele><time>2012-05-01T15:30:04.0000000+00:00</time></trkpt><trkpt lat="43.154327" lon="19.122332"><ele>1451.5</ele><time>2012-05-01T15:30:09.0000000+00:00</time></trkpt><trkpt lat="43.154324" lon="19.122332"><ele>1451.5</ele><time>2012-05-01T15:30:14.0000000+00:00</time></trkpt><trkpt lat="43.154324" lon="19.122332"><ele>1451.4</ele><time>2012-05-01T15:30:19.0000000+00:00</time></trkpt><trkpt lat="43.154324" lon="19.122334"><ele>1451.3</ele><time>2012-05-01T15:30:24.0000000+00:00</time></trkpt><trkpt lat="43.154324" lon="19.122334"><ele>1451.2</ele><time>2012-05-01T15:30:29.0000000+00:00</time></trkpt><trkpt lat="43.154324" lon="19.122334"><ele>1451.2</ele><time>2012-05-01T15:30:34.0000000+00:00</time></trkpt><trkpt lat="43.154324" lon="19.122334"><ele>1451.2</ele><time>2012-05-01T15:30:39.0000000+00:00</time></trkpt><trkpt lat="43.154324" lon="19.122334"><ele>1451.2</ele><time>2012-05-01T15:30:44.0000000+00:00</time></trkpt><trkpt lat="43.154327" lon="19.122334"><ele>1451.2</ele><time>2012-05-01T15:30:49.0000000+00:00</time></trkpt><trkpt lat="43.154324" lon="19.122334"><ele>1451.1</ele><time>2012-05-01T15:30:54.0000000+00:00</time></trkpt><trkpt lat="43.154324" lon="19.122334"><ele>1451.0</ele><time>2012-05-01T15:30:59.0000000+00:00</time></trkpt><trkpt lat="43.154324" lon="19.122335"><ele>1450.9</ele><time>2012-05-01T15:31:04.0000000+00:00</time></trkpt><trkpt lat="43.154324" lon="19.122335"><ele>1451.0</ele><time>2012-05-01T15:31:09.0000000+00:00</time></trkpt><trkpt lat="43.154324" lon="19.122335"><ele>1451.0</ele><time>2012-05-01T15:31:14.0000000+00:00</time></trkpt><trkpt lat="43.154324" lon="19.122337"><ele>1451.0</ele><time>2012-05-01T15:31:19.0000000+00:00</time></trkpt><trkpt lat="43.154324" lon="19.122337"><ele>1451.0</ele><time>2012-05-01T15:31:24.0000000+00:00</time></trkpt><trkpt lat="43.154324" lon="19.122337"><ele>1450.9</ele><time>2012-05-01T15:31:29.0000000+00:00</time></trkpt><trkpt lat="43.154324" lon="19.122337"><ele>1450.9</ele><time>2012-05-01T15:31:34.0000000+00:00</time></trkpt><trkpt lat="43.154324" lon="19.122337"><ele>1450.7</ele><time>2012-05-01T15:31:39.0000000+00:00</time></trkpt><trkpt lat="43.154324" lon="19.122337"><ele>1450.7</ele><time>2012-05-01T15:31:44.0000000+00:00</time></trkpt><trkpt lat="43.154324" lon="19.122337"><ele>1450.8</ele><time>2012-05-01T15:31:49.0000000+00:00</time></trkpt><trkpt lat="43.154324" lon="19.122337"><ele>1450.8</ele><time>2012-05-01T15:31:54.0000000+00:00</time></trkpt><trkpt lat="43.154324" lon="19.122337"><ele>1450.8</ele><time>2012-05-01T15:31:59.0000000+00:00</time></trkpt><trkpt lat="43.154324" lon="19.122337"><ele>1450.8</ele><time>2012-05-01T15:32:04.0000000+00:00</time></trkpt><trkpt lat="43.154324" lon="19.122337"><ele>1450.6</ele><time>2012-05-01T15:32:09.0000000+00:00</time></trkpt><trkpt lat="43.154327" lon="19.122339"><ele>1450.5</ele><time>2012-05-01T15:32:14.0000000+00:00</time></trkpt><trkpt lat="43.154327" lon="19.122339"><ele>1450.4</ele><time>2012-05-01T15:32:19.0000000+00:00</time></trkpt><trkpt lat="43.154327" lon="19.122339"><ele>1450.4</ele><time>2012-05-01T15:32:24.0000000+00:00</time></trkpt><trkpt lat="43.154327" lon="19.122339"><ele>1450.4</ele><time>2012-05-01T15:32:29.0000000+00:00</time></trkpt><trkpt lat="43.154327" lon="19.122339"><ele>1450.5</ele><time>2012-05-01T15:32:34.0000000+00:00</time></trkpt><trkpt lat="43.154327" lon="19.122339"><ele>1450.5</ele><time>2012-05-01T15:32:39.0000000+00:00</time></trkpt><trkpt lat="43.154327" lon="19.122339"><ele>1450.4</ele><time>2012-05-01T15:32:44.0000000+00:00</time></trkpt><trkpt lat="43.154327" lon="19.122339"><ele>1450.3</ele><time>2012-05-01T15:32:49.0000000+00:00</time></trkpt><trkpt lat="43.154327" lon="19.122339"><ele>1450.3</ele><time>2012-05-01T15:32:54.0000000+00:00</time></trkpt><trkpt lat="43.154327" lon="19.122339"><ele>1450.4</ele><time>2012-05-01T15:32:59.0000000+00:00</time></trkpt><trkpt lat="43.154327" lon="19.122339"><ele>1450.4</ele><time>2012-05-01T15:33:04.0000000+00:00</time></trkpt><trkpt lat="43.154331" lon="19.122341"><ele>1450.4</ele><time>2012-05-01T15:33:09.0000000+00:00</time></trkpt><trkpt lat="43.154331" lon="19.122341"><ele>1450.4</ele><time>2012-05-01T15:33:14.0000000+00:00</time></trkpt><trkpt lat="43.154331" lon="19.122341"><ele>1450.4</ele><time>2012-05-01T15:33:19.0000000+00:00</time></trkpt><trkpt lat="43.154331" lon="19.122341"><ele>1450.4</ele><time>2012-05-01T15:33:24.0000000+00:00</time></trkpt><trkpt lat="43.154331" lon="19.122341"><ele>1450.4</ele><time>2012-05-01T15:33:29.0000000+00:00</time></trkpt><trkpt lat="43.154331" lon="19.122341"><ele>1450.5</ele><time>2012-05-01T15:33:34.0000000+00:00</time></trkpt><trkpt lat="43.154331" lon="19.122341"><ele>1450.5</ele><time>2012-05-01T15:33:39.0000000+00:00</time></trkpt><trkpt lat="43.154331" lon="19.122341"><ele>1450.4</ele><time>2012-05-01T15:33:44.0000000+00:00</time></trkpt><trkpt lat="43.154331" lon="19.122341"><ele>1450.4</ele><time>2012-05-01T15:33:49.0000000+00:00</time></trkpt><trkpt lat="43.154331" lon="19.122343"><ele>1450.4</ele><time>2012-05-01T15:33:54.0000000+00:00</time></trkpt><trkpt lat="43.154331" lon="19.122343"><ele>1450.4</ele><time>2012-05-01T15:33:59.0000000+00:00</time></trkpt><trkpt lat="43.154331" lon="19.122343"><ele>1450.4</ele><time>2012-05-01T15:34:04.0000000+00:00</time></trkpt><trkpt lat="43.154331" lon="19.122343"><ele>1450.5</ele><time>2012-05-01T15:34:09.0000000+00:00</time></trkpt><trkpt lat="43.154331" lon="19.122345"><ele>1450.5</ele><time>2012-05-01T15:34:14.0000000+00:00</time></trkpt><trkpt lat="43.154331" lon="19.122345"><ele>1450.6</ele><time>2012-05-01T15:34:19.0000000+00:00</time></trkpt><trkpt lat="43.154331" lon="19.122345"><ele>1450.6</ele><time>2012-05-01T15:34:24.0000000+00:00</time></trkpt><trkpt lat="43.154331" lon="19.122345"><ele>1450.6</ele><time>2012-05-01T15:34:29.0000000+00:00</time></trkpt><trkpt lat="43.154331" lon="19.122347"><ele>1450.5</ele><time>2012-05-01T15:34:34.0000000+00:00</time></trkpt><trkpt lat="43.154331" lon="19.122347"><ele>1450.5</ele><time>2012-05-01T15:34:39.0000000+00:00</time></trkpt><trkpt lat="43.154331" lon="19.122347"><ele>1450.6</ele><time>2012-05-01T15:34:44.0000000+00:00</time></trkpt><trkpt lat="43.154331" lon="19.122347"><ele>1450.6</ele><time>2012-05-01T15:34:49.0000000+00:00</time></trkpt><trkpt lat="43.154331" lon="19.122349"><ele>1450.6</ele><time>2012-05-01T15:34:54.0000000+00:00</time></trkpt><trkpt lat="43.154331" lon="19.122349"><ele>1450.6</ele><time>2012-05-01T15:34:59.0000000+00:00</time></trkpt><trkpt lat="43.154331" lon="19.122349"><ele>1450.5</ele><time>2012-05-01T15:35:04.0000000+00:00</time></trkpt><trkpt lat="43.154331" lon="19.122349"><ele>1450.5</ele><time>2012-05-01T15:35:09.0000000+00:00</time></trkpt><trkpt lat="43.154331" lon="19.122349"><ele>1450.6</ele><time>2012-05-01T15:35:14.0000000+00:00</time></trkpt><trkpt lat="43.154331" lon="19.122349"><ele>1450.6</ele><time>2012-05-01T15:35:19.0000000+00:00</time></trkpt><trkpt lat="43.154331" lon="19.122349"><ele>1450.7</ele><time>2012-05-01T15:35:24.0000000+00:00</time></trkpt><trkpt lat="43.154331" lon="19.122351"><ele>1450.8</ele><time>2012-05-01T15:35:29.0000000+00:00</time></trkpt><trkpt lat="43.154331" lon="19.122353"><ele>1450.8</ele><time>2012-05-01T15:35:34.0000000+00:00</time></trkpt><trkpt lat="43.154331" lon="19.122353"><ele>1450.8</ele><time>2012-05-01T15:35:39.0000000+00:00</time></trkpt><trkpt lat="43.154331" lon="19.122353"><ele>1450.9</ele><time>2012-05-01T15:35:44.0000000+00:00</time></trkpt><trkpt lat="43.154331" lon="19.122353"><ele>1450.9</ele><time>2012-05-01T15:35:49.0000000+00:00</time></trkpt><trkpt lat="43.154331" lon="19.122353"><ele>1450.9</ele><time>2012-05-01T15:35:54.0000000+00:00</time></trkpt><trkpt lat="43.154331" lon="19.122353"><ele>1451.0</ele><time>2012-05-01T15:35:59.0000000+00:00</time></trkpt><trkpt lat="43.154331" lon="19.122353"><ele>1451.0</ele><time>2012-05-01T15:36:04.0000000+00:00</time></trkpt><trkpt lat="43.154331" lon="19.122353"><ele>1451.1</ele><time>2012-05-01T15:36:09.0000000+00:00</time></trkpt><trkpt lat="43.154331" lon="19.122353"><ele>1451.2</ele><time>2012-05-01T15:36:14.0000000+00:00</time></trkpt><trkpt lat="43.154335" lon="19.122353"><ele>1451.3</ele><time>2012-05-01T15:36:19.0000000+00:00</time></trkpt><trkpt lat="43.154335" lon="19.122355"><ele>1451.4</ele><time>2012-05-01T15:36:24.0000000+00:00</time></trkpt><trkpt lat="43.154335" lon="19.122355"><ele>1451.5</ele><time>2012-05-01T15:36:29.0000000+00:00</time></trkpt><trkpt lat="43.154335" lon="19.122355"><ele>1451.5</ele><time>2012-05-01T15:36:34.0000000+00:00</time></trkpt><trkpt lat="43.154335" lon="19.122355"><ele>1451.6</ele><time>2012-05-01T15:36:39.0000000+00:00</time></trkpt><trkpt lat="43.154335" lon="19.122355"><ele>1451.6</ele><time>2012-05-01T15:36:44.0000000+00:00</time></trkpt><trkpt lat="43.154335" lon="19.122355"><ele>1451.6</ele><time>2012-05-01T15:36:49.0000000+00:00</time></trkpt><trkpt lat="43.154335" lon="19.122355"><ele>1451.6</ele><time>2012-05-01T15:36:54.0000000+00:00</time></trkpt><trkpt lat="43.154335" lon="19.122356"><ele>1451.7</ele><time>2012-05-01T15:36:59.0000000+00:00</time></trkpt><trkpt lat="43.154335" lon="19.122356"><ele>1451.7</ele><time>2012-05-01T15:37:04.0000000+00:00</time></trkpt><trkpt lat="43.154335" lon="19.122356"><ele>1451.7</ele><time>2012-05-01T15:37:09.0000000+00:00</time></trkpt><trkpt lat="43.154335" lon="19.122356"><ele>1451.8</ele><time>2012-05-01T15:37:14.0000000+00:00</time></trkpt><trkpt lat="43.154335" lon="19.122356"><ele>1451.8</ele><time>2012-05-01T15:37:19.0000000+00:00</time></trkpt><trkpt lat="43.154335" lon="19.122356"><ele>1451.8</ele><time>2012-05-01T15:37:24.0000000+00:00</time></trkpt><trkpt lat="43.154335" lon="19.122356"><ele>1451.8</ele><time>2012-05-01T15:37:29.0000000+00:00</time></trkpt><trkpt lat="43.154335" lon="19.122356"><ele>1451.8</ele><time>2012-05-01T15:37:34.0000000+00:00</time></trkpt><trkpt lat="43.154335" lon="19.122356"><ele>1451.8</ele><time>2012-05-01T15:37:39.0000000+00:00</time></trkpt><trkpt lat="43.154335" lon="19.122356"><ele>1451.9</ele><time>2012-05-01T15:37:44.0000000+00:00</time></trkpt><trkpt lat="43.154339" lon="19.122356"><ele>1451.9</ele><time>2012-05-01T15:37:49.0000000+00:00</time></trkpt><trkpt lat="43.154339" lon="19.122356"><ele>1451.9</ele><time>2012-05-01T15:37:54.0000000+00:00</time></trkpt><trkpt lat="43.154339" lon="19.122356"><ele>1451.9</ele><time>2012-05-01T15:37:59.0000000+00:00</time></trkpt><trkpt lat="43.154339" lon="19.122356"><ele>1451.9</ele><time>2012-05-01T15:38:04.0000000+00:00</time></trkpt><trkpt lat="43.154339" lon="19.122356"><ele>1451.9</ele><time>2012-05-01T15:38:09.0000000+00:00</time></trkpt><trkpt lat="43.154339" lon="19.122356"><ele>1452.0</ele><time>2012-05-01T15:38:14.0000000+00:00</time></trkpt><trkpt lat="43.154339" lon="19.122358"><ele>1452.0</ele><time>2012-05-01T15:38:19.0000000+00:00</time></trkpt><trkpt lat="43.154339" lon="19.122358"><ele>1452.1</ele><time>2012-05-01T15:38:24.0000000+00:00</time></trkpt><trkpt lat="43.154339" lon="19.122358"><ele>1452.1</ele><time>2012-05-01T15:38:29.0000000+00:00</time></trkpt><trkpt lat="43.154339" lon="19.122358"><ele>1452.1</ele><time>2012-05-01T15:38:34.0000000+00:00</time></trkpt><trkpt lat="43.154339" lon="19.122358"><ele>1452.1</ele><time>2012-05-01T15:38:39.0000000+00:00</time></trkpt><trkpt lat="43.154339" lon="19.122358"><ele>1452.1</ele><time>2012-05-01T15:38:44.0000000+00:00</time></trkpt><trkpt lat="43.154343" lon="19.122358"><ele>1452.1</ele><time>2012-05-01T15:38:49.0000000+00:00</time></trkpt><trkpt lat="43.154343" lon="19.12236"><ele>1452.2</ele><time>2012-05-01T15:38:54.0000000+00:00</time></trkpt><trkpt lat="43.154343" lon="19.12236"><ele>1452.2</ele><time>2012-05-01T15:38:59.0000000+00:00</time></trkpt><trkpt lat="43.154343" lon="19.12236"><ele>1452.2</ele><time>2012-05-01T15:39:04.0000000+00:00</time></trkpt><trkpt lat="43.154343" lon="19.12236"><ele>1452.2</ele><time>2012-05-01T15:39:09.0000000+00:00</time></trkpt><trkpt lat="43.154343" lon="19.122362"><ele>1452.2</ele><time>2012-05-01T15:39:14.0000000+00:00</time></trkpt><trkpt lat="43.154343" lon="19.122362"><ele>1452.2</ele><time>2012-05-01T15:39:19.0000000+00:00</time></trkpt><trkpt lat="43.154343" lon="19.122362"><ele>1452.3</ele><time>2012-05-01T15:39:24.0000000+00:00</time></trkpt><trkpt lat="43.154343" lon="19.122362"><ele>1452.5</ele><time>2012-05-01T15:39:29.0000000+00:00</time></trkpt><trkpt lat="43.154343" lon="19.122362"><ele>1452.5</ele><time>2012-05-01T15:39:34.0000000+00:00</time></trkpt><trkpt lat="43.154343" lon="19.122362"><ele>1452.6</ele><time>2012-05-01T15:39:39.0000000+00:00</time></trkpt><trkpt lat="43.154343" lon="19.122364"><ele>1452.7</ele><time>2012-05-01T15:39:44.0000000+00:00</time></trkpt><trkpt lat="43.154343" lon="19.122364"><ele>1452.8</ele><time>2012-05-01T15:39:49.0000000+00:00</time></trkpt><trkpt lat="43.154343" lon="19.122364"><ele>1452.9</ele><time>2012-05-01T15:39:54.0000000+00:00</time></trkpt><trkpt lat="43.154343" lon="19.122364"><ele>1453.0</ele><time>2012-05-01T15:39:59.0000000+00:00</time></trkpt><trkpt lat="43.154343" lon="19.122366"><ele>1453.1</ele><time>2012-05-01T15:40:04.0000000+00:00</time></trkpt><trkpt lat="43.154343" lon="19.122366"><ele>1453.2</ele><time>2012-05-01T15:40:09.0000000+00:00</time></trkpt><trkpt lat="43.154343" lon="19.122368"><ele>1453.2</ele><time>2012-05-01T15:40:14.0000000+00:00</time></trkpt><trkpt lat="43.154343" lon="19.12237"><ele>1453.2</ele><time>2012-05-01T15:40:19.0000000+00:00</time></trkpt><trkpt lat="43.154343" lon="19.12237"><ele>1453.3</ele><time>2012-05-01T15:40:24.0000000+00:00</time></trkpt><trkpt lat="43.154343" lon="19.122372"><ele>1453.3</ele><time>2012-05-01T15:40:29.0000000+00:00</time></trkpt><trkpt lat="43.154343" lon="19.122374"><ele>1453.3</ele><time>2012-05-01T15:40:34.0000000+00:00</time></trkpt><trkpt lat="43.154343" lon="19.122374"><ele>1453.4</ele><time>2012-05-01T15:40:39.0000000+00:00</time></trkpt><trkpt lat="43.154343" lon="19.122374"><ele>1453.4</ele><time>2012-05-01T15:40:44.0000000+00:00</time></trkpt><trkpt lat="43.154343" lon="19.122375"><ele>1453.5</ele><time>2012-05-01T15:40:49.0000000+00:00</time></trkpt><trkpt lat="43.154343" lon="19.122375"><ele>1453.5</ele><time>2012-05-01T15:40:54.0000000+00:00</time></trkpt><trkpt lat="43.154343" lon="19.122375"><ele>1453.6</ele><time>2012-05-01T15:40:59.0000000+00:00</time></trkpt><trkpt lat="43.154343" lon="19.122375"><ele>1453.6</ele><time>2012-05-01T15:41:04.0000000+00:00</time></trkpt><trkpt lat="43.154343" lon="19.122377"><ele>1453.6</ele><time>2012-05-01T15:41:09.0000000+00:00</time></trkpt><trkpt lat="43.154346" lon="19.122377"><ele>1453.7</ele><time>2012-05-01T15:41:14.0000000+00:00</time></trkpt><trkpt lat="43.154346" lon="19.122377"><ele>1453.7</ele><time>2012-05-01T15:41:19.0000000+00:00</time></trkpt><trkpt lat="43.154346" lon="19.122379"><ele>1453.7</ele><time>2012-05-01T15:41:24.0000000+00:00</time></trkpt><trkpt lat="43.154346" lon="19.122379"><ele>1453.8</ele><time>2012-05-01T15:41:29.0000000+00:00</time></trkpt><trkpt lat="43.154346" lon="19.122379"><ele>1453.8</ele><time>2012-05-01T15:41:34.0000000+00:00</time></trkpt><trkpt lat="43.154346" lon="19.122381"><ele>1453.9</ele><time>2012-05-01T15:41:39.0000000+00:00</time></trkpt><trkpt lat="43.154346" lon="19.122381"><ele>1454.0</ele><time>2012-05-01T15:41:44.0000000+00:00</time></trkpt><trkpt lat="43.154346" lon="19.122381"><ele>1454.0</ele><time>2012-05-01T15:41:49.0000000+00:00</time></trkpt><trkpt lat="43.154346" lon="19.122381"><ele>1454.1</ele><time>2012-05-01T15:41:54.0000000+00:00</time></trkpt><trkpt lat="43.154346" lon="19.122381"><ele>1454.2</ele><time>2012-05-01T15:41:59.0000000+00:00</time></trkpt><trkpt lat="43.154346" lon="19.122381"><ele>1454.3</ele><time>2012-05-01T15:42:04.0000000+00:00</time></trkpt><trkpt lat="43.154346" lon="19.122381"><ele>1454.3</ele><time>2012-05-01T15:42:09.0000000+00:00</time></trkpt><trkpt lat="43.154346" lon="19.122381"><ele>1454.3</ele><time>2012-05-01T15:42:14.0000000+00:00</time></trkpt><trkpt lat="43.154346" lon="19.122381"><ele>1454.3</ele><time>2012-05-01T15:42:19.0000000+00:00</time></trkpt><trkpt lat="43.154346" lon="19.122383"><ele>1454.4</ele><time>2012-05-01T15:42:24.0000000+00:00</time></trkpt><trkpt lat="43.154346" lon="19.122383"><ele>1454.4</ele><time>2012-05-01T15:42:29.0000000+00:00</time></trkpt><trkpt lat="43.154346" lon="19.122383"><ele>1454.5</ele><time>2012-05-01T15:42:34.0000000+00:00</time></trkpt><trkpt lat="43.154346" lon="19.122383"><ele>1454.6</ele><time>2012-05-01T15:42:39.0000000+00:00</time></trkpt><trkpt lat="43.154346" lon="19.122383"><ele>1454.6</ele><time>2012-05-01T15:42:44.0000000+00:00</time></trkpt><trkpt lat="43.154346" lon="19.122383"><ele>1454.7</ele><time>2012-05-01T15:42:49.0000000+00:00</time></trkpt><trkpt lat="43.154346" lon="19.122383"><ele>1454.7</ele><time>2012-05-01T15:42:54.0000000+00:00</time></trkpt><trkpt lat="43.154346" lon="19.122383"><ele>1454.8</ele><time>2012-05-01T15:42:59.0000000+00:00</time></trkpt><trkpt lat="43.154346" lon="19.122383"><ele>1454.9</ele><time>2012-05-01T15:43:04.0000000+00:00</time></trkpt><trkpt lat="43.154346" lon="19.122383"><ele>1454.9</ele><time>2012-05-01T15:43:09.0000000+00:00</time></trkpt><trkpt lat="43.154346" lon="19.122383"><ele>1454.9</ele><time>2012-05-01T15:43:14.0000000+00:00</time></trkpt><trkpt lat="43.154346" lon="19.122383"><ele>1454.9</ele><time>2012-05-01T15:43:19.0000000+00:00</time></trkpt><trkpt lat="43.154346" lon="19.122383"><ele>1454.8</ele><time>2012-05-01T15:43:24.0000000+00:00</time></trkpt><trkpt lat="43.154346" lon="19.122383"><ele>1454.8</ele><time>2012-05-01T15:43:29.0000000+00:00</time></trkpt><trkpt lat="43.154346" lon="19.122383"><ele>1454.9</ele><time>2012-05-01T15:43:34.0000000+00:00</time></trkpt><trkpt lat="43.154346" lon="19.122383"><ele>1454.9</ele><time>2012-05-01T15:43:39.0000000+00:00</time></trkpt><trkpt lat="43.154346" lon="19.122385"><ele>1454.9</ele><time>2012-05-01T15:43:44.0000000+00:00</time></trkpt><trkpt lat="43.154346" lon="19.122385"><ele>1454.9</ele><time>2012-05-01T15:43:49.0000000+00:00</time></trkpt><trkpt lat="43.154346" lon="19.122385"><ele>1454.8</ele><time>2012-05-01T15:43:54.0000000+00:00</time></trkpt><trkpt lat="43.154346" lon="19.122385"><ele>1454.8</ele><time>2012-05-01T15:43:59.0000000+00:00</time></trkpt><trkpt lat="43.154346" lon="19.122387"><ele>1454.8</ele><time>2012-05-01T15:44:04.0000000+00:00</time></trkpt><trkpt lat="43.154346" lon="19.122387"><ele>1454.8</ele><time>2012-05-01T15:44:09.0000000+00:00</time></trkpt><trkpt lat="43.154346" lon="19.122387"><ele>1454.8</ele><time>2012-05-01T15:44:14.0000000+00:00</time></trkpt><trkpt lat="43.154346" lon="19.122389"><ele>1454.8</ele><time>2012-05-01T15:44:19.0000000+00:00</time></trkpt><trkpt lat="43.154346" lon="19.122389"><ele>1454.8</ele><time>2012-05-01T15:44:24.0000000+00:00</time></trkpt><trkpt lat="43.15435" lon="19.122389"><ele>1454.7</ele><time>2012-05-01T15:44:29.0000000+00:00</time></trkpt><trkpt lat="43.15435" lon="19.122389"><ele>1454.7</ele><time>2012-05-01T15:44:34.0000000+00:00</time></trkpt><trkpt lat="43.15435" lon="19.122389"><ele>1454.8</ele><time>2012-05-01T15:44:39.0000000+00:00</time></trkpt><trkpt lat="43.15435" lon="19.122389"><ele>1454.8</ele><time>2012-05-01T15:44:44.0000000+00:00</time></trkpt><trkpt lat="43.15435" lon="19.122389"><ele>1454.9</ele><time>2012-05-01T15:44:49.0000000+00:00</time></trkpt><trkpt lat="43.15435" lon="19.122389"><ele>1454.9</ele><time>2012-05-01T15:44:54.0000000+00:00</time></trkpt><trkpt lat="43.15435" lon="19.122389"><ele>1454.9</ele><time>2012-05-01T15:44:59.0000000+00:00</time></trkpt><trkpt lat="43.15435" lon="19.122391"><ele>1454.9</ele><time>2012-05-01T15:45:04.0000000+00:00</time></trkpt><trkpt lat="43.15435" lon="19.122391"><ele>1454.9</ele><time>2012-05-01T15:45:09.0000000+00:00</time></trkpt><trkpt lat="43.15435" lon="19.122391"><ele>1454.9</ele><time>2012-05-01T15:45:14.0000000+00:00</time></trkpt><trkpt lat="43.15435" lon="19.122391"><ele>1455.0</ele><time>2012-05-01T15:45:19.0000000+00:00</time></trkpt><trkpt lat="43.15435" lon="19.122389"><ele>1455.0</ele><time>2012-05-01T15:45:24.0000000+00:00</time></trkpt><trkpt lat="43.15435" lon="19.122389"><ele>1455.1</ele><time>2012-05-01T15:45:29.0000000+00:00</time></trkpt><trkpt lat="43.15435" lon="19.122389"><ele>1455.1</ele><time>2012-05-01T15:45:34.0000000+00:00</time></trkpt><trkpt lat="43.15435" lon="19.122389"><ele>1455.1</ele><time>2012-05-01T15:45:39.0000000+00:00</time></trkpt><trkpt lat="43.15435" lon="19.122391"><ele>1455.1</ele><time>2012-05-01T15:45:44.0000000+00:00</time></trkpt><trkpt lat="43.15435" lon="19.122389"><ele>1455.1</ele><time>2012-05-01T15:45:49.0000000+00:00</time></trkpt><trkpt lat="43.15435" lon="19.122389"><ele>1455.2</ele><time>2012-05-01T15:45:54.0000000+00:00</time></trkpt><trkpt lat="43.15435" lon="19.122391"><ele>1455.2</ele><time>2012-05-01T15:45:59.0000000+00:00</time></trkpt><trkpt lat="43.15435" lon="19.122389"><ele>1455.2</ele><time>2012-05-01T15:46:04.0000000+00:00</time></trkpt><trkpt lat="43.15435" lon="19.122389"><ele>1455.3</ele><time>2012-05-01T15:46:09.0000000+00:00</time></trkpt><trkpt lat="43.15435" lon="19.122389"><ele>1455.2</ele><time>2012-05-01T15:46:14.0000000+00:00</time></trkpt><trkpt lat="43.15435" lon="19.122389"><ele>1455.2</ele><time>2012-05-01T15:46:19.0000000+00:00</time></trkpt><trkpt lat="43.15435" lon="19.122389"><ele>1455.2</ele><time>2012-05-01T15:46:24.0000000+00:00</time></trkpt><trkpt lat="43.15435" lon="19.122389"><ele>1455.3</ele><time>2012-05-01T15:46:29.0000000+00:00</time></trkpt><trkpt lat="43.15435" lon="19.122389"><ele>1455.3</ele><time>2012-05-01T15:46:34.0000000+00:00</time></trkpt><trkpt lat="43.15435" lon="19.122389"><ele>1455.4</ele><time>2012-05-01T15:46:39.0000000+00:00</time></trkpt><trkpt lat="43.15435" lon="19.122389"><ele>1455.5</ele><time>2012-05-01T15:46:44.0000000+00:00</time></trkpt><trkpt lat="43.15435" lon="19.122389"><ele>1455.5</ele><time>2012-05-01T15:46:49.0000000+00:00</time></trkpt><trkpt lat="43.15435" lon="19.122389"><ele>1455.6</ele><time>2012-05-01T15:46:54.0000000+00:00</time></trkpt><trkpt lat="43.15435" lon="19.122387"><ele>1455.7</ele><time>2012-05-01T15:46:59.0000000+00:00</time></trkpt><trkpt lat="43.154346" lon="19.122387"><ele>1455.7</ele><time>2012-05-01T15:47:04.0000000+00:00</time></trkpt><trkpt lat="43.154346" lon="19.122387"><ele>1455.8</ele><time>2012-05-01T15:47:09.0000000+00:00</time></trkpt><trkpt lat="43.154346" lon="19.122387"><ele>1455.9</ele><time>2012-05-01T15:47:14.0000000+00:00</time></trkpt><trkpt lat="43.154346" lon="19.122387"><ele>1456.0</ele><time>2012-05-01T15:47:19.0000000+00:00</time></trkpt><trkpt lat="43.154346" lon="19.122387"><ele>1456.0</ele><time>2012-05-01T15:47:24.0000000+00:00</time></trkpt><trkpt lat="43.154346" lon="19.122387"><ele>1456.0</ele><time>2012-05-01T15:47:29.0000000+00:00</time></trkpt><trkpt lat="43.154346" lon="19.122387"><ele>1456.0</ele><time>2012-05-01T15:47:34.0000000+00:00</time></trkpt><trkpt lat="43.154346" lon="19.122387"><ele>1456.0</ele><time>2012-05-01T15:47:39.0000000+00:00</time></trkpt><trkpt lat="43.154346" lon="19.122387"><ele>1456.1</ele><time>2012-05-01T15:47:44.0000000+00:00</time></trkpt><trkpt lat="43.154346" lon="19.122387"><ele>1456.1</ele><time>2012-05-01T15:47:49.0000000+00:00</time></trkpt><trkpt lat="43.154346" lon="19.122385"><ele>1456.2</ele><time>2012-05-01T15:47:54.0000000+00:00</time></trkpt><trkpt lat="43.154346" lon="19.122385"><ele>1456.2</ele><time>2012-05-01T15:47:59.0000000+00:00</time></trkpt><trkpt lat="43.154346" lon="19.122385"><ele>1456.2</ele><time>2012-05-01T15:48:04.0000000+00:00</time></trkpt><trkpt lat="43.154346" lon="19.122385"><ele>1456.3</ele><time>2012-05-01T15:48:09.0000000+00:00</time></trkpt><trkpt lat="43.154346" lon="19.122383"><ele>1456.4</ele><time>2012-05-01T15:48:14.0000000+00:00</time></trkpt><trkpt lat="43.15435" lon="19.122383"><ele>1456.5</ele><time>2012-05-01T15:48:19.0000000+00:00</time></trkpt><trkpt lat="43.15435" lon="19.122383"><ele>1456.4</ele><time>2012-05-01T15:48:24.0000000+00:00</time></trkpt><trkpt lat="43.15435" lon="19.122383"><ele>1456.3</ele><time>2012-05-01T15:48:29.0000000+00:00</time></trkpt><trkpt lat="43.15435" lon="19.122381"><ele>1456.3</ele><time>2012-05-01T15:48:34.0000000+00:00</time></trkpt><trkpt lat="43.15435" lon="19.122383"><ele>1456.3</ele><time>2012-05-01T15:48:39.0000000+00:00</time></trkpt><trkpt lat="43.15435" lon="19.122383"><ele>1456.4</ele><time>2012-05-01T15:48:44.0000000+00:00</time></trkpt><trkpt lat="43.15435" lon="19.122383"><ele>1456.4</ele><time>2012-05-01T15:48:49.0000000+00:00</time></trkpt><trkpt lat="43.15435" lon="19.122383"><ele>1456.5</ele><time>2012-05-01T15:48:54.0000000+00:00</time></trkpt><trkpt lat="43.15435" lon="19.122383"><ele>1456.5</ele><time>2012-05-01T15:48:59.0000000+00:00</time></trkpt><trkpt lat="43.15435" lon="19.122383"><ele>1456.5</ele><time>2012-05-01T15:49:04.0000000+00:00</time></trkpt><trkpt lat="43.15435" lon="19.122383"><ele>1456.5</ele><time>2012-05-01T15:49:09.0000000+00:00</time></trkpt><trkpt lat="43.15435" lon="19.122381"><ele>1456.5</ele><time>2012-05-01T15:49:14.0000000+00:00</time></trkpt><trkpt lat="43.15435" lon="19.122381"><ele>1456.6</ele><time>2012-05-01T15:49:19.0000000+00:00</time></trkpt><trkpt lat="43.15435" lon="19.122381"><ele>1456.7</ele><time>2012-05-01T15:49:24.0000000+00:00</time></trkpt><trkpt lat="43.15435" lon="19.122379"><ele>1456.8</ele><time>2012-05-01T15:49:29.0000000+00:00</time></trkpt><trkpt lat="43.15435" lon="19.122379"><ele>1456.8</ele><time>2012-05-01T15:49:34.0000000+00:00</time></trkpt><trkpt lat="43.15435" lon="19.122379"><ele>1456.9</ele><time>2012-05-01T15:49:39.0000000+00:00</time></trkpt><trkpt lat="43.15435" lon="19.122379"><ele>1457.0</ele><time>2012-05-01T15:49:44.0000000+00:00</time></trkpt><trkpt lat="43.154346" lon="19.122379"><ele>1457.0</ele><time>2012-05-01T15:49:49.0000000+00:00</time></trkpt><trkpt lat="43.154346" lon="19.122379"><ele>1457.0</ele><time>2012-05-01T15:49:54.0000000+00:00</time></trkpt><trkpt lat="43.154346" lon="19.122379"><ele>1457.0</ele><time>2012-05-01T15:49:59.0000000+00:00</time></trkpt><trkpt lat="43.15435" lon="19.122379"><ele>1457.0</ele><time>2012-05-01T15:50:04.0000000+00:00</time></trkpt><trkpt lat="43.15435" lon="19.122379"><ele>1457.1</ele><time>2012-05-01T15:50:09.0000000+00:00</time></trkpt><trkpt lat="43.15435" lon="19.122379"><ele>1457.1</ele><time>2012-05-01T15:50:14.0000000+00:00</time></trkpt><trkpt lat="43.15435" lon="19.122379"><ele>1457.2</ele><time>2012-05-01T15:50:19.0000000+00:00</time></trkpt><trkpt lat="43.15435" lon="19.122379"><ele>1457.2</ele><time>2012-05-01T15:50:24.0000000+00:00</time></trkpt><trkpt lat="43.15435" lon="19.122379"><ele>1457.3</ele><time>2012-05-01T15:50:29.0000000+00:00</time></trkpt><trkpt lat="43.15435" lon="19.122379"><ele>1457.3</ele><time>2012-05-01T15:50:34.0000000+00:00</time></trkpt><trkpt lat="43.15435" lon="19.122379"><ele>1457.3</ele><time>2012-05-01T15:50:39.0000000+00:00</time></trkpt><trkpt lat="43.15435" lon="19.122379"><ele>1457.3</ele><time>2012-05-01T15:50:44.0000000+00:00</time></trkpt><trkpt lat="43.15435" lon="19.122379"><ele>1457.3</ele><time>2012-05-01T15:50:49.0000000+00:00</time></trkpt><trkpt lat="43.15435" lon="19.122379"><ele>1457.4</ele><time>2012-05-01T15:50:54.0000000+00:00</time></trkpt><trkpt lat="43.15435" lon="19.122379"><ele>1457.4</ele><time>2012-05-01T15:50:59.0000000+00:00</time></trkpt><trkpt lat="43.15435" lon="19.122379"><ele>1457.5</ele><time>2012-05-01T15:51:04.0000000+00:00</time></trkpt><trkpt lat="43.15435" lon="19.122377"><ele>1457.5</ele><time>2012-05-01T15:51:09.0000000+00:00</time></trkpt><trkpt lat="43.15435" lon="19.122377"><ele>1457.6</ele><time>2012-05-01T15:51:14.0000000+00:00</time></trkpt><trkpt lat="43.15435" lon="19.122377"><ele>1457.7</ele><time>2012-05-01T15:51:19.0000000+00:00</time></trkpt><trkpt lat="43.15435" lon="19.122375"><ele>1457.8</ele><time>2012-05-01T15:51:24.0000000+00:00</time></trkpt><trkpt lat="43.15435" lon="19.122375"><ele>1457.8</ele><time>2012-05-01T15:51:29.0000000+00:00</time></trkpt><trkpt lat="43.15435" lon="19.122375"><ele>1457.9</ele><time>2012-05-01T15:51:34.0000000+00:00</time></trkpt><trkpt lat="43.15435" lon="19.122375"><ele>1457.9</ele><time>2012-05-01T15:51:39.0000000+00:00</time></trkpt><trkpt lat="43.15435" lon="19.122374"><ele>1457.9</ele><time>2012-05-01T15:51:44.0000000+00:00</time></trkpt><trkpt lat="43.15435" lon="19.122375"><ele>1458.0</ele><time>2012-05-01T15:51:49.0000000+00:00</time></trkpt><trkpt lat="43.154346" lon="19.122375"><ele>1458.0</ele><time>2012-05-01T15:51:54.0000000+00:00</time></trkpt><trkpt lat="43.154346" lon="19.122375"><ele>1458.0</ele><time>2012-05-01T15:51:59.0000000+00:00</time></trkpt><trkpt lat="43.154346" lon="19.122375"><ele>1458.1</ele><time>2012-05-01T15:52:04.0000000+00:00</time></trkpt><trkpt lat="43.154346" lon="19.122375"><ele>1458.1</ele><time>2012-05-01T15:52:09.0000000+00:00</time></trkpt><trkpt lat="43.154346" lon="19.122374"><ele>1458.2</ele><time>2012-05-01T15:52:14.0000000+00:00</time></trkpt><trkpt lat="43.154346" lon="19.122374"><ele>1458.1</ele><time>2012-05-01T15:52:19.0000000+00:00</time></trkpt><trkpt lat="43.154346" lon="19.122372"><ele>1458.1</ele><time>2012-05-01T15:52:24.0000000+00:00</time></trkpt><trkpt lat="43.154346" lon="19.122372"><ele>1458.1</ele><time>2012-05-01T15:52:29.0000000+00:00</time></trkpt><trkpt lat="43.154346" lon="19.12237"><ele>1458.1</ele><time>2012-05-01T15:52:34.0000000+00:00</time></trkpt><trkpt lat="43.154346" lon="19.12237"><ele>1458.2</ele><time>2012-05-01T15:52:39.0000000+00:00</time></trkpt><trkpt lat="43.154346" lon="19.122368"><ele>1458.2</ele><time>2012-05-01T15:52:44.0000000+00:00</time></trkpt><trkpt lat="43.154346" lon="19.122368"><ele>1458.2</ele><time>2012-05-01T15:52:49.0000000+00:00</time></trkpt><trkpt lat="43.154346" lon="19.122368"><ele>1458.2</ele><time>2012-05-01T15:52:54.0000000+00:00</time></trkpt><trkpt lat="43.154346" lon="19.122366"><ele>1458.2</ele><time>2012-05-01T15:52:59.0000000+00:00</time></trkpt><trkpt lat="43.154343" lon="19.122366"><ele>1458.3</ele><time>2012-05-01T15:53:04.0000000+00:00</time></trkpt><trkpt lat="43.154343" lon="19.122364"><ele>1458.3</ele><time>2012-05-01T15:53:09.0000000+00:00</time></trkpt><trkpt lat="43.154343" lon="19.122364"><ele>1458.3</ele><time>2012-05-01T15:53:14.0000000+00:00</time></trkpt><trkpt lat="43.154339" lon="19.122364"><ele>1458.3</ele><time>2012-05-01T15:53:19.0000000+00:00</time></trkpt><trkpt lat="43.154339" lon="19.122364"><ele>1458.3</ele><time>2012-05-01T15:53:24.0000000+00:00</time></trkpt><trkpt lat="43.154339" lon="19.122364"><ele>1458.4</ele><time>2012-05-01T15:53:29.0000000+00:00</time></trkpt><trkpt lat="43.154339" lon="19.122362"><ele>1458.3</ele><time>2012-05-01T15:53:34.0000000+00:00</time></trkpt><trkpt lat="43.154339" lon="19.12236"><ele>1458.4</ele><time>2012-05-01T15:53:39.0000000+00:00</time></trkpt><trkpt lat="43.154339" lon="19.12236"><ele>1458.5</ele><time>2012-05-01T15:53:44.0000000+00:00</time></trkpt><trkpt lat="43.154335" lon="19.122358"><ele>1458.4</ele><time>2012-05-01T15:53:49.0000000+00:00</time></trkpt><trkpt lat="43.154335" lon="19.122358"><ele>1458.4</ele><time>2012-05-01T15:53:54.0000000+00:00</time></trkpt><trkpt lat="43.154335" lon="19.122356"><ele>1458.5</ele><time>2012-05-01T15:53:59.0000000+00:00</time></trkpt><trkpt lat="43.154335" lon="19.122356"><ele>1458.5</ele><time>2012-05-01T15:54:04.0000000+00:00</time></trkpt><trkpt lat="43.154335" lon="19.122355"><ele>1458.5</ele><time>2012-05-01T15:54:09.0000000+00:00</time></trkpt><trkpt lat="43.154335" lon="19.122355"><ele>1458.5</ele><time>2012-05-01T15:54:14.0000000+00:00</time></trkpt><trkpt lat="43.154335" lon="19.122355"><ele>1458.5</ele><time>2012-05-01T15:54:19.0000000+00:00</time></trkpt><trkpt lat="43.154335" lon="19.122353"><ele>1458.5</ele><time>2012-05-01T15:54:24.0000000+00:00</time></trkpt><trkpt lat="43.154335" lon="19.122353"><ele>1458.5</ele><time>2012-05-01T15:54:29.0000000+00:00</time></trkpt><trkpt lat="43.154335" lon="19.122353"><ele>1458.5</ele><time>2012-05-01T15:54:34.0000000+00:00</time></trkpt><trkpt lat="43.154335" lon="19.122353"><ele>1458.5</ele><time>2012-05-01T15:54:39.0000000+00:00</time></trkpt><trkpt lat="43.154335" lon="19.122353"><ele>1458.6</ele><time>2012-05-01T15:54:44.0000000+00:00</time></trkpt><trkpt lat="43.154335" lon="19.122353"><ele>1458.7</ele><time>2012-05-01T15:54:49.0000000+00:00</time></trkpt><trkpt lat="43.154335" lon="19.122353"><ele>1458.7</ele><time>2012-05-01T15:54:54.0000000+00:00</time></trkpt><trkpt lat="43.154335" lon="19.122353"><ele>1458.7</ele><time>2012-05-01T15:54:59.0000000+00:00</time></trkpt><trkpt lat="43.154335" lon="19.122353"><ele>1458.6</ele><time>2012-05-01T15:55:04.0000000+00:00</time></trkpt><trkpt lat="43.154335" lon="19.122353"><ele>1458.6</ele><time>2012-05-01T15:55:09.0000000+00:00</time></trkpt><trkpt lat="43.154335" lon="19.122353"><ele>1458.6</ele><time>2012-05-01T15:55:14.0000000+00:00</time></trkpt><trkpt lat="43.154335" lon="19.122353"><ele>1458.6</ele><time>2012-05-01T15:55:19.0000000+00:00</time></trkpt><trkpt lat="43.154335" lon="19.122353"><ele>1458.5</ele><time>2012-05-01T15:55:24.0000000+00:00</time></trkpt><trkpt lat="43.154335" lon="19.122353"><ele>1458.5</ele><time>2012-05-01T15:55:29.0000000+00:00</time></trkpt><trkpt lat="43.154335" lon="19.122353"><ele>1458.5</ele><time>2012-05-01T15:55:34.0000000+00:00</time></trkpt><trkpt lat="43.154335" lon="19.122353"><ele>1458.5</ele><time>2012-05-01T15:55:39.0000000+00:00</time></trkpt><trkpt lat="43.154335" lon="19.122353"><ele>1458.5</ele><time>2012-05-01T15:55:44.0000000+00:00</time></trkpt><trkpt lat="43.154335" lon="19.122353"><ele>1458.5</ele><time>2012-05-01T15:55:49.0000000+00:00</time></trkpt><trkpt lat="43.154335" lon="19.122353"><ele>1458.6</ele><time>2012-05-01T15:55:54.0000000+00:00</time></trkpt><trkpt lat="43.154335" lon="19.122353"><ele>1458.6</ele><time>2012-05-01T15:55:59.0000000+00:00</time></trkpt><trkpt lat="43.154335" lon="19.122353"><ele>1458.6</ele><time>2012-05-01T15:56:04.0000000+00:00</time></trkpt><trkpt lat="43.154335" lon="19.122353"><ele>1458.6</ele><time>2012-05-01T15:56:09.0000000+00:00</time></trkpt><trkpt lat="43.154335" lon="19.122353"><ele>1458.7</ele><time>2012-05-01T15:56:14.0000000+00:00</time></trkpt><trkpt lat="43.154335" lon="19.122353"><ele>1458.7</ele><time>2012-05-01T15:56:19.0000000+00:00</time></trkpt><trkpt lat="43.154331" lon="19.122353"><ele>1458.7</ele><time>2012-05-01T15:56:24.0000000+00:00</time></trkpt><trkpt lat="43.154331" lon="19.122355"><ele>1458.7</ele><time>2012-05-01T15:56:29.0000000+00:00</time></trkpt><trkpt lat="43.154331" lon="19.122355"><ele>1458.7</ele><time>2012-05-01T15:56:34.0000000+00:00</time></trkpt><trkpt lat="43.154331" lon="19.122355"><ele>1458.7</ele><time>2012-05-01T15:56:39.0000000+00:00</time></trkpt><trkpt lat="43.154331" lon="19.122355"><ele>1458.6</ele><time>2012-05-01T15:56:44.0000000+00:00</time></trkpt><trkpt lat="43.154331" lon="19.122355"><ele>1458.6</ele><time>2012-05-01T15:56:49.0000000+00:00</time></trkpt><trkpt lat="43.154331" lon="19.122355"><ele>1458.6</ele><time>2012-05-01T15:56:54.0000000+00:00</time></trkpt><trkpt lat="43.154331" lon="19.122355"><ele>1458.6</ele><time>2012-05-01T15:56:59.0000000+00:00</time></trkpt><trkpt lat="43.154327" lon="19.122355"><ele>1458.6</ele><time>2012-05-01T15:57:04.0000000+00:00</time></trkpt><trkpt lat="43.154327" lon="19.122355"><ele>1458.6</ele><time>2012-05-01T15:57:09.0000000+00:00</time></trkpt><trkpt lat="43.154327" lon="19.122355"><ele>1458.7</ele><time>2012-05-01T15:57:14.0000000+00:00</time></trkpt><trkpt lat="43.154327" lon="19.122356"><ele>1458.7</ele><time>2012-05-01T15:57:19.0000000+00:00</time></trkpt><trkpt lat="43.154327" lon="19.122356"><ele>1458.8</ele><time>2012-05-01T15:57:24.0000000+00:00</time></trkpt><trkpt lat="43.154327" lon="19.122355"><ele>1458.8</ele><time>2012-05-01T15:57:29.0000000+00:00</time></trkpt><trkpt lat="43.154331" lon="19.122355"><ele>1458.8</ele><time>2012-05-01T15:57:34.0000000+00:00</time></trkpt><trkpt lat="43.154331" lon="19.122355"><ele>1458.8</ele><time>2012-05-01T15:57:39.0000000+00:00</time></trkpt><trkpt lat="43.154327" lon="19.122355"><ele>1458.9</ele><time>2012-05-01T15:57:44.0000000+00:00</time></trkpt><trkpt lat="43.154327" lon="19.122355"><ele>1459.0</ele><time>2012-05-01T15:57:49.0000000+00:00</time></trkpt><trkpt lat="43.154327" lon="19.122355"><ele>1459.0</ele><time>2012-05-01T15:57:54.0000000+00:00</time></trkpt><trkpt lat="43.154331" lon="19.122355"><ele>1459.0</ele><time>2012-05-01T15:57:59.0000000+00:00</time></trkpt><trkpt lat="43.154331" lon="19.122355"><ele>1459.1</ele><time>2012-05-01T15:58:04.0000000+00:00</time></trkpt><trkpt lat="43.154331" lon="19.122355"><ele>1459.2</ele><time>2012-05-01T15:58:09.0000000+00:00</time></trkpt><trkpt lat="43.154331" lon="19.122353"><ele>1459.2</ele><time>2012-05-01T15:58:14.0000000+00:00</time></trkpt><trkpt lat="43.154331" lon="19.122353"><ele>1459.3</ele><time>2012-05-01T15:58:19.0000000+00:00</time></trkpt><trkpt lat="43.154331" lon="19.122355"><ele>1459.3</ele><time>2012-05-01T15:58:24.0000000+00:00</time></trkpt><trkpt lat="43.154331" lon="19.122355"><ele>1459.3</ele><time>2012-05-01T15:58:29.0000000+00:00</time></trkpt><trkpt lat="43.154331" lon="19.122355"><ele>1459.4</ele><time>2012-05-01T15:58:34.0000000+00:00</time></trkpt><trkpt lat="43.154327" lon="19.122353"><ele>1459.4</ele><time>2012-05-01T15:58:39.0000000+00:00</time></trkpt><trkpt lat="43.154327" lon="19.122353"><ele>1459.4</ele><time>2012-05-01T15:58:44.0000000+00:00</time></trkpt><trkpt lat="43.154327" lon="19.122351"><ele>1459.4</ele><time>2012-05-01T15:58:49.0000000+00:00</time></trkpt><trkpt lat="43.154327" lon="19.122353"><ele>1459.5</ele><time>2012-05-01T15:58:54.0000000+00:00</time></trkpt><trkpt lat="43.154327" lon="19.122353"><ele>1459.5</ele><time>2012-05-01T15:58:59.0000000+00:00</time></trkpt><trkpt lat="43.154327" lon="19.122353"><ele>1459.5</ele><time>2012-05-01T15:59:04.0000000+00:00</time></trkpt><trkpt lat="43.154327" lon="19.122353"><ele>1459.5</ele><time>2012-05-01T15:59:09.0000000+00:00</time></trkpt><trkpt lat="43.154327" lon="19.122351"><ele>1459.6</ele><time>2012-05-01T15:59:14.0000000+00:00</time></trkpt><trkpt lat="43.154327" lon="19.122351"><ele>1459.7</ele><time>2012-05-01T15:59:19.0000000+00:00</time></trkpt><trkpt lat="43.154324" lon="19.122351"><ele>1459.7</ele><time>2012-05-01T15:59:24.0000000+00:00</time></trkpt><trkpt lat="43.154324" lon="19.122351"><ele>1459.7</ele><time>2012-05-01T15:59:29.0000000+00:00</time></trkpt><trkpt lat="43.154324" lon="19.122351"><ele>1459.8</ele><time>2012-05-01T15:59:34.0000000+00:00</time></trkpt><trkpt lat="43.15432" lon="19.122349"><ele>1459.9</ele><time>2012-05-01T15:59:39.0000000+00:00</time></trkpt><trkpt lat="43.15432" lon="19.122349"><ele>1459.9</ele><time>2012-05-01T15:59:44.0000000+00:00</time></trkpt><trkpt lat="43.15432" lon="19.122349"><ele>1460.0</ele><time>2012-05-01T15:59:49.0000000+00:00</time></trkpt><trkpt lat="43.15432" lon="19.122347"><ele>1460.0</ele><time>2012-05-01T15:59:54.0000000+00:00</time></trkpt><trkpt lat="43.15432" lon="19.122347"><ele>1460.1</ele><time>2012-05-01T15:59:59.0000000+00:00</time></trkpt><trkpt lat="43.15432" lon="19.122347"><ele>1460.1</ele><time>2012-05-01T16:00:04.0000000+00:00</time></trkpt><trkpt lat="43.15432" lon="19.122347"><ele>1460.1</ele><time>2012-05-01T16:00:09.0000000+00:00</time></trkpt><trkpt lat="43.15432" lon="19.122345"><ele>1460.1</ele><time>2012-05-01T16:00:14.0000000+00:00</time></trkpt><trkpt lat="43.15432" lon="19.122345"><ele>1460.1</ele><time>2012-05-01T16:00:19.0000000+00:00</time></trkpt><trkpt lat="43.15432" lon="19.122343"><ele>1460.1</ele><time>2012-05-01T16:00:24.0000000+00:00</time></trkpt><trkpt lat="43.15432" lon="19.122343"><ele>1460.1</ele><time>2012-05-01T16:00:29.0000000+00:00</time></trkpt><trkpt lat="43.15432" lon="19.122341"><ele>1460.1</ele><time>2012-05-01T16:00:34.0000000+00:00</time></trkpt><trkpt lat="43.15432" lon="19.122339"><ele>1460.2</ele><time>2012-05-01T16:00:39.0000000+00:00</time></trkpt><trkpt lat="43.15432" lon="19.122339"><ele>1460.2</ele><time>2012-05-01T16:00:44.0000000+00:00</time></trkpt><trkpt lat="43.15432" lon="19.122339"><ele>1460.2</ele><time>2012-05-01T16:00:49.0000000+00:00</time></trkpt><trkpt lat="43.15432" lon="19.122337"><ele>1460.2</ele><time>2012-05-01T16:00:54.0000000+00:00</time></trkpt><trkpt lat="43.15432" lon="19.122337"><ele>1460.3</ele><time>2012-05-01T16:00:59.0000000+00:00</time></trkpt><trkpt lat="43.15432" lon="19.122335"><ele>1460.3</ele><time>2012-05-01T16:01:04.0000000+00:00</time></trkpt><trkpt lat="43.15432" lon="19.122335"><ele>1460.3</ele><time>2012-05-01T16:01:09.0000000+00:00</time></trkpt><trkpt lat="43.15432" lon="19.122334"><ele>1460.4</ele><time>2012-05-01T16:01:14.0000000+00:00</time></trkpt><trkpt lat="43.154316" lon="19.122334"><ele>1460.5</ele><time>2012-05-01T16:01:19.0000000+00:00</time></trkpt><trkpt lat="43.154316" lon="19.122334"><ele>1460.5</ele><time>2012-05-01T16:01:24.0000000+00:00</time></trkpt><trkpt lat="43.154316" lon="19.122334"><ele>1460.5</ele><time>2012-05-01T16:01:29.0000000+00:00</time></trkpt><trkpt lat="43.154316" lon="19.122332"><ele>1460.5</ele><time>2012-05-01T16:01:34.0000000+00:00</time></trkpt><trkpt lat="43.154316" lon="19.122332"><ele>1460.5</ele><time>2012-05-01T16:01:39.0000000+00:00</time></trkpt><trkpt lat="43.154312" lon="19.122332"><ele>1460.5</ele><time>2012-05-01T16:01:44.0000000+00:00</time></trkpt><trkpt lat="43.154312" lon="19.122332"><ele>1460.5</ele><time>2012-05-01T16:01:49.0000000+00:00</time></trkpt><trkpt lat="43.154312" lon="19.122332"><ele>1460.4</ele><time>2012-05-01T16:01:54.0000000+00:00</time></trkpt><trkpt lat="43.154312" lon="19.122332"><ele>1460.4</ele><time>2012-05-01T16:01:59.0000000+00:00</time></trkpt><trkpt lat="43.154312" lon="19.122332"><ele>1460.4</ele><time>2012-05-01T16:02:04.0000000+00:00</time></trkpt><trkpt lat="43.154312" lon="19.12233"><ele>1460.5</ele><time>2012-05-01T16:02:09.0000000+00:00</time></trkpt><trkpt lat="43.154308" lon="19.12233"><ele>1460.4</ele><time>2012-05-01T16:02:14.0000000+00:00</time></trkpt><trkpt lat="43.154308" lon="19.12233"><ele>1460.4</ele><time>2012-05-01T16:02:19.0000000+00:00</time></trkpt><trkpt lat="43.154308" lon="19.12233"><ele>1460.3</ele><time>2012-05-01T16:02:24.0000000+00:00</time></trkpt><trkpt lat="43.154308" lon="19.12233"><ele>1460.2</ele><time>2012-05-01T16:02:29.0000000+00:00</time></trkpt><trkpt lat="43.154308" lon="19.12233"><ele>1460.2</ele><time>2012-05-01T16:02:34.0000000+00:00</time></trkpt><trkpt lat="43.154308" lon="19.12233"><ele>1460.3</ele><time>2012-05-01T16:02:39.0000000+00:00</time></trkpt><trkpt lat="43.154396" lon="19.122339"><ele>1461.0</ele><time>2012-05-01T16:02:44.0000000+00:00</time></trkpt><trkpt lat="43.154549" lon="19.122362"><ele>1463.5</ele><time>2012-05-01T16:02:49.0000000+00:00</time></trkpt><trkpt lat="43.154678" lon="19.122231"><ele>1471.0</ele><time>2012-05-01T16:02:54.0000000+00:00</time></trkpt><trkpt lat="43.154739" lon="19.122057"><ele>1476.2</ele><time>2012-05-01T16:02:59.0000000+00:00</time></trkpt><trkpt lat="43.154789" lon="19.121864"><ele>1481.8</ele><time>2012-05-01T16:03:04.0000000+00:00</time></trkpt><trkpt lat="43.154861" lon="19.121643"><ele>1489.1</ele><time>2012-05-01T16:03:09.0000000+00:00</time></trkpt><trkpt lat="43.154976" lon="19.121475"><ele>1494.4</ele><time>2012-05-01T16:03:14.0000000+00:00</time></trkpt><trkpt lat="43.155228" lon="19.121498"><ele>1496.7</ele><time>2012-05-01T16:03:19.0000000+00:00</time></trkpt><trkpt lat="43.155365" lon="19.121569"><ele>1504.5</ele><time>2012-05-01T16:03:24.0000000+00:00</time></trkpt><trkpt lat="43.155598" lon="19.121658"><ele>1510.8</ele><time>2012-05-01T16:03:29.0000000+00:00</time></trkpt><trkpt lat="43.155884" lon="19.121773"><ele>1514.3</ele><time>2012-05-01T16:03:34.0000000+00:00</time></trkpt><trkpt lat="43.156204" lon="19.121876"><ele>1517.3</ele><time>2012-05-01T16:03:39.0000000+00:00</time></trkpt><trkpt lat="43.156521" lon="19.121984"><ele>1520.0</ele><time>2012-05-01T16:03:44.0000000+00:00</time></trkpt><trkpt lat="43.15683" lon="19.122154"><ele>1523.4</ele><time>2012-05-01T16:03:49.0000000+00:00</time></trkpt><trkpt lat="43.157131" lon="19.122437"><ele>1527.5</ele><time>2012-05-01T16:03:54.0000000+00:00</time></trkpt><trkpt lat="43.157314" lon="19.122849"><ele>1529.0</ele><time>2012-05-01T16:03:59.0000000+00:00</time></trkpt><trkpt lat="43.157475" lon="19.123249"><ele>1528.4</ele><time>2012-05-01T16:04:04.0000000+00:00</time></trkpt><trkpt lat="43.157696" lon="19.123581"><ele>1525.8</ele><time>2012-05-01T16:04:09.0000000+00:00</time></trkpt><trkpt lat="43.157921" lon="19.123831"><ele>1522.0</ele><time>2012-05-01T16:04:14.0000000+00:00</time></trkpt><trkpt lat="43.158054" lon="19.124105"><ele>1521.1</ele><time>2012-05-01T16:04:19.0000000+00:00</time></trkpt><trkpt lat="43.158173" lon="19.124418"><ele>1521.0</ele><time>2012-05-01T16:04:24.0000000+00:00</time></trkpt><trkpt lat="43.158268" lon="19.124615"><ele>1521.2</ele><time>2012-05-01T16:04:29.0000000+00:00</time></trkpt><trkpt lat="43.158302" lon="19.124641"><ele>1521.9</ele><time>2012-05-01T16:04:34.0000000+00:00</time></trkpt><trkpt lat="43.158314" lon="19.124683"><ele>1522.6</ele><time>2012-05-01T16:04:39.0000000+00:00</time></trkpt><trkpt lat="43.158306" lon="19.124699"><ele>1523.3</ele><time>2012-05-01T16:04:44.0000000+00:00</time></trkpt><trkpt lat="43.158298" lon="19.124691"><ele>1523.7</ele><time>2012-05-01T16:04:49.0000000+00:00</time></trkpt><trkpt lat="43.158298" lon="19.124691"><ele>1523.9</ele><time>2012-05-01T16:04:54.0000000+00:00</time></trkpt><trkpt lat="43.158298" lon="19.124691"><ele>1524.0</ele><time>2012-05-01T16:04:59.0000000+00:00</time></trkpt><trkpt lat="43.158287" lon="19.12468"><ele>1523.8</ele><time>2012-05-01T16:05:04.0000000+00:00</time></trkpt><trkpt lat="43.158283" lon="19.124672"><ele>1523.7</ele><time>2012-05-01T16:05:09.0000000+00:00</time></trkpt><trkpt lat="43.158287" lon="19.124668"><ele>1523.7</ele><time>2012-05-01T16:05:14.0000000+00:00</time></trkpt><trkpt lat="43.158287" lon="19.124662"><ele>1523.7</ele><time>2012-05-01T16:05:19.0000000+00:00</time></trkpt><trkpt lat="43.158287" lon="19.124664"><ele>1523.7</ele><time>2012-05-01T16:05:24.0000000+00:00</time></trkpt><trkpt lat="43.158287" lon="19.124664"><ele>1523.7</ele><time>2012-05-01T16:05:29.0000000+00:00</time></trkpt><trkpt lat="43.158287" lon="19.124664"><ele>1523.7</ele><time>2012-05-01T16:05:34.0000000+00:00</time></trkpt><trkpt lat="43.158287" lon="19.124664"><ele>1523.7</ele><time>2012-05-01T16:05:39.0000000+00:00</time></trkpt><trkpt lat="43.158287" lon="19.124664"><ele>1523.7</ele><time>2012-05-01T16:05:44.0000000+00:00</time></trkpt><trkpt lat="43.158287" lon="19.124662"><ele>1523.7</ele><time>2012-05-01T16:05:49.0000000+00:00</time></trkpt><trkpt lat="43.158295" lon="19.124699"><ele>1523.6</ele><time>2012-05-01T16:05:54.0000000+00:00</time></trkpt><trkpt lat="43.158333" lon="19.124866"><ele>1523.5</ele><time>2012-05-01T16:05:59.0000000+00:00</time></trkpt><trkpt lat="43.158367" lon="19.125116"><ele>1524.7</ele><time>2012-05-01T16:06:04.0000000+00:00</time></trkpt><trkpt lat="43.158264" lon="19.12554"><ele>1525.4</ele><time>2012-05-01T16:06:09.0000000+00:00</time></trkpt><trkpt lat="43.158188" lon="19.126053"><ele>1526.1</ele><time>2012-05-01T16:06:14.0000000+00:00</time></trkpt><trkpt lat="43.158287" lon="19.12656"><ele>1526.6</ele><time>2012-05-01T16:06:19.0000000+00:00</time></trkpt><trkpt lat="43.158443" lon="19.126991"><ele>1528.7</ele><time>2012-05-01T16:06:24.0000000+00:00</time></trkpt><trkpt lat="43.158527" lon="19.127077"><ele>1530.7</ele><time>2012-05-01T16:06:29.0000000+00:00</time></trkpt><trkpt lat="43.158554" lon="19.127077"><ele>1531.8</ele><time>2012-05-01T16:06:34.0000000+00:00</time></trkpt><trkpt lat="43.158554" lon="19.12705"><ele>1534.2</ele><time>2012-05-01T16:06:39.0000000+00:00</time></trkpt><trkpt lat="43.158558" lon="19.127026"><ele>1535.9</ele><time>2012-05-01T16:06:44.0000000+00:00</time></trkpt><trkpt lat="43.158569" lon="19.127007"><ele>1536.9</ele><time>2012-05-01T16:06:49.0000000+00:00</time></trkpt><trkpt lat="43.158588" lon="19.127012"><ele>1537.8</ele><time>2012-05-01T16:06:54.0000000+00:00</time></trkpt><trkpt lat="43.158798" lon="19.12714"><ele>1537.5</ele><time>2012-05-01T16:06:59.0000000+00:00</time></trkpt><trkpt lat="43.158932" lon="19.127344"><ele>1536.7</ele><time>2012-05-01T16:07:04.0000000+00:00</time></trkpt><trkpt lat="43.15913" lon="19.127684"><ele>1535.3</ele><time>2012-05-01T16:07:09.0000000+00:00</time></trkpt><trkpt lat="43.159374" lon="19.128124"><ele>1533.1</ele><time>2012-05-01T16:07:14.0000000+00:00</time></trkpt><trkpt lat="43.1595" lon="19.128702"><ele>1530.7</ele><time>2012-05-01T16:07:19.0000000+00:00</time></trkpt><trkpt lat="43.159409" lon="19.129522"><ele>1522.6</ele><time>2012-05-01T16:07:24.0000000+00:00</time></trkpt><trkpt lat="43.159271" lon="19.130388"><ele>1518.0</ele><time>2012-05-01T16:07:29.0000000+00:00</time></trkpt><trkpt lat="43.159275" lon="19.131289"><ele>1516.6</ele><time>2012-05-01T16:07:34.0000000+00:00</time></trkpt><trkpt lat="43.159462" lon="19.132082"><ele>1514.6</ele><time>2012-05-01T16:07:39.0000000+00:00</time></trkpt><trkpt lat="43.159725" lon="19.132723"><ele>1509.0</ele><time>2012-05-01T16:07:44.0000000+00:00</time></trkpt><trkpt lat="43.16" lon="19.133352"><ele>1505.2</ele><time>2012-05-01T16:07:49.0000000+00:00</time></trkpt><trkpt lat="43.160263" lon="19.13401"><ele>1501.0</ele><time>2012-05-01T16:07:54.0000000+00:00</time></trkpt><trkpt lat="43.160477" lon="19.134628"><ele>1500.0</ele><time>2012-05-01T16:07:59.0000000+00:00</time></trkpt><trkpt lat="43.160717" lon="19.135246"><ele>1497.7</ele><time>2012-05-01T16:08:04.0000000+00:00</time></trkpt><trkpt lat="43.160995" lon="19.135759"><ele>1495.4</ele><time>2012-05-01T16:08:09.0000000+00:00</time></trkpt><trkpt lat="43.161278" lon="19.136137"><ele>1495.2</ele><time>2012-05-01T16:08:14.0000000+00:00</time></trkpt><trkpt lat="43.16156" lon="19.136448"><ele>1495.0</ele><time>2012-05-01T16:08:19.0000000+00:00</time></trkpt><trkpt lat="43.161709" lon="19.137922"><ele>1494.5</ele><time>2012-05-01T16:08:24.0000000+00:00</time></trkpt><trkpt lat="43.161953" lon="19.138327"><ele>1493.1</ele><time>2012-05-01T16:08:29.0000000+00:00</time></trkpt><trkpt lat="43.162182" lon="19.138729"><ele>1489.6</ele><time>2012-05-01T16:08:34.0000000+00:00</time></trkpt><trkpt lat="43.16243" lon="19.139135"><ele>1488.7</ele><time>2012-05-01T16:08:39.0000000+00:00</time></trkpt><trkpt lat="43.162609" lon="19.139465"><ele>1489.0</ele><time>2012-05-01T16:08:44.0000000+00:00</time></trkpt><trkpt lat="43.162781" lon="19.139715"><ele>1488.5</ele><time>2012-05-01T16:08:49.0000000+00:00</time></trkpt><trkpt lat="43.162888" lon="19.140091"><ele>1487.4</ele><time>2012-05-01T16:08:54.0000000+00:00</time></trkpt><trkpt lat="43.162975" lon="19.140646"><ele>1484.8</ele><time>2012-05-01T16:08:59.0000000+00:00</time></trkpt><trkpt lat="43.162952" lon="19.141369"><ele>1475.3</ele><time>2012-05-01T16:09:04.0000000+00:00</time></trkpt><trkpt lat="43.162933" lon="19.142143"><ele>1469.9</ele><time>2012-05-01T16:09:09.0000000+00:00</time></trkpt><trkpt lat="43.16291" lon="19.143038"><ele>1463.1</ele><time>2012-05-01T16:09:14.0000000+00:00</time></trkpt><trkpt lat="43.162975" lon="19.14403"><ele>1453.6</ele><time>2012-05-01T16:09:19.0000000+00:00</time></trkpt><trkpt lat="43.163101" lon="19.145069"><ele>1446.0</ele><time>2012-05-01T16:09:24.0000000+00:00</time></trkpt><trkpt lat="43.163261" lon="19.146065"><ele>1439.0</ele><time>2012-05-01T16:09:29.0000000+00:00</time></trkpt><trkpt lat="43.163406" lon="19.14699"><ele>1430.9</ele><time>2012-05-01T16:09:34.0000000+00:00</time></trkpt><trkpt lat="43.163551" lon="19.147848"><ele>1422.3</ele><time>2012-05-01T16:09:39.0000000+00:00</time></trkpt><trkpt lat="43.163712" lon="19.148661"><ele>1414.2</ele><time>2012-05-01T16:09:44.0000000+00:00</time></trkpt><trkpt lat="43.163818" lon="19.149454"><ele>1407.3</ele><time>2012-05-01T16:09:49.0000000+00:00</time></trkpt><trkpt lat="43.163876" lon="19.150175"><ele>1398.6</ele><time>2012-05-01T16:09:54.0000000+00:00</time></trkpt><trkpt lat="43.163906" lon="19.150805"><ele>1392.1</ele><time>2012-05-01T16:09:59.0000000+00:00</time></trkpt><trkpt lat="43.163914" lon="19.151394"><ele>1379.7</ele><time>2012-05-01T16:10:04.0000000+00:00</time></trkpt><trkpt lat="43.163876" lon="19.15209"><ele>1372.5</ele><time>2012-05-01T16:10:09.0000000+00:00</time></trkpt><trkpt lat="43.163837" lon="19.152817"><ele>1367.6</ele><time>2012-05-01T16:10:14.0000000+00:00</time></trkpt><trkpt lat="43.163811" lon="19.153521"><ele>1362.8</ele><time>2012-05-01T16:10:19.0000000+00:00</time></trkpt><trkpt lat="43.163788" lon="19.154236"><ele>1359.5</ele><time>2012-05-01T16:10:24.0000000+00:00</time></trkpt><trkpt lat="43.163765" lon="19.154949"><ele>1357.8</ele><time>2012-05-01T16:10:29.0000000+00:00</time></trkpt><trkpt lat="43.16378" lon="19.155655"><ele>1355.7</ele><time>2012-05-01T16:10:34.0000000+00:00</time></trkpt><trkpt lat="43.163929" lon="19.156401"><ele>1352.0</ele><time>2012-05-01T16:10:39.0000000+00:00</time></trkpt><trkpt lat="43.164066" lon="19.157185"><ele>1350.1</ele><time>2012-05-01T16:10:44.0000000+00:00</time></trkpt><trkpt lat="43.164223" lon="19.15798"><ele>1346.7</ele><time>2012-05-01T16:10:49.0000000+00:00</time></trkpt><trkpt lat="43.164356" lon="19.158712"><ele>1345.0</ele><time>2012-05-01T16:10:54.0000000+00:00</time></trkpt><trkpt lat="43.164463" lon="19.159407"><ele>1345.9</ele><time>2012-05-01T16:10:59.0000000+00:00</time></trkpt><trkpt lat="43.164509" lon="19.160097"><ele>1346.0</ele><time>2012-05-01T16:11:04.0000000+00:00</time></trkpt><trkpt lat="43.164566" lon="19.160795"><ele>1345.4</ele><time>2012-05-01T16:11:09.0000000+00:00</time></trkpt><trkpt lat="43.164604" lon="19.161459"><ele>1344.7</ele><time>2012-05-01T16:11:14.0000000+00:00</time></trkpt><trkpt lat="43.164646" lon="19.162096"><ele>1344.0</ele><time>2012-05-01T16:11:19.0000000+00:00</time></trkpt><trkpt lat="43.164684" lon="19.162735"><ele>1342.9</ele><time>2012-05-01T16:11:24.0000000+00:00</time></trkpt><trkpt lat="43.164715" lon="19.163372"><ele>1342.1</ele><time>2012-05-01T16:11:29.0000000+00:00</time></trkpt><trkpt lat="43.164772" lon="19.163994"><ele>1340.8</ele><time>2012-05-01T16:11:34.0000000+00:00</time></trkpt><trkpt lat="43.164845" lon="19.164637"><ele>1339.4</ele><time>2012-05-01T16:11:39.0000000+00:00</time></trkpt><trkpt lat="43.16494" lon="19.16526"><ele>1340.2</ele><time>2012-05-01T16:11:44.0000000+00:00</time></trkpt><trkpt lat="43.165012" lon="19.165838"><ele>1336.6</ele><time>2012-05-01T16:11:49.0000000+00:00</time></trkpt><trkpt lat="43.165085" lon="19.166384"><ele>1334.9</ele><time>2012-05-01T16:11:54.0000000+00:00</time></trkpt><trkpt lat="43.165154" lon="19.16691"><ele>1336.0</ele><time>2012-05-01T16:11:59.0000000+00:00</time></trkpt><trkpt lat="43.165188" lon="19.167456"><ele>1337.9</ele><time>2012-05-01T16:12:04.0000000+00:00</time></trkpt><trkpt lat="43.165173" lon="19.168037"><ele>1336.4</ele><time>2012-05-01T16:12:09.0000000+00:00</time></trkpt><trkpt lat="43.165134" lon="19.168678"><ele>1333.2</ele><time>2012-05-01T16:12:14.0000000+00:00</time></trkpt><trkpt lat="43.165081" lon="19.169363"><ele>1332.2</ele><time>2012-05-01T16:12:19.0000000+00:00</time></trkpt><trkpt lat="43.165047" lon="19.169992"><ele>1334.8</ele><time>2012-05-01T16:12:24.0000000+00:00</time></trkpt><trkpt lat="43.165009" lon="19.170557"><ele>1334.5</ele><time>2012-05-01T16:12:29.0000000+00:00</time></trkpt><trkpt lat="43.164955" lon="19.171118"><ele>1333.0</ele><time>2012-05-01T16:12:34.0000000+00:00</time></trkpt><trkpt lat="43.16489" lon="19.171722"><ele>1331.6</ele><time>2012-05-01T16:12:39.0000000+00:00</time></trkpt><trkpt lat="43.164841" lon="19.172356"><ele>1328.6</ele><time>2012-05-01T16:12:44.0000000+00:00</time></trkpt><trkpt lat="43.164772" lon="19.173016"><ele>1325.2</ele><time>2012-05-01T16:12:49.0000000+00:00</time></trkpt><trkpt lat="43.164703" lon="19.173683"><ele>1322.1</ele><time>2012-05-01T16:12:54.0000000+00:00</time></trkpt><trkpt lat="43.164661" lon="19.174309"><ele>1321.5</ele><time>2012-05-01T16:12:59.0000000+00:00</time></trkpt><trkpt lat="43.164661" lon="19.174837"><ele>1321.8</ele><time>2012-05-01T16:13:04.0000000+00:00</time></trkpt><trkpt lat="43.164677" lon="19.175337"><ele>1323.1</ele><time>2012-05-01T16:13:09.0000000+00:00</time></trkpt><trkpt lat="43.1647" lon="19.175863"><ele>1322.3</ele><time>2012-05-01T16:13:14.0000000+00:00</time></trkpt><trkpt lat="43.164749" lon="19.176437"><ele>1320.9</ele><time>2012-05-01T16:13:19.0000000+00:00</time></trkpt><trkpt lat="43.164841" lon="19.177034"><ele>1323.7</ele><time>2012-05-01T16:13:24.0000000+00:00</time></trkpt><trkpt lat="43.164932" lon="19.177639"><ele>1323.6</ele><time>2012-05-01T16:13:29.0000000+00:00</time></trkpt><trkpt lat="43.164993" lon="19.178282"><ele>1321.1</ele><time>2012-05-01T16:13:34.0000000+00:00</time></trkpt><trkpt lat="43.165058" lon="19.178959"><ele>1318.5</ele><time>2012-05-01T16:13:39.0000000+00:00</time></trkpt><trkpt lat="43.165138" lon="19.179634"><ele>1315.8</ele><time>2012-05-01T16:13:44.0000000+00:00</time></trkpt><trkpt lat="43.165176" lon="19.180279"><ele>1310.5</ele><time>2012-05-01T16:13:49.0000000+00:00</time></trkpt><trkpt lat="43.165302" lon="19.180882"><ele>1312.0</ele><time>2012-05-01T16:13:54.0000000+00:00</time></trkpt><trkpt lat="43.165447" lon="19.181484"><ele>1315.6</ele><time>2012-05-01T16:13:59.0000000+00:00</time></trkpt><trkpt lat="43.165585" lon="19.182083"><ele>1318.3</ele><time>2012-05-01T16:14:04.0000000+00:00</time></trkpt><trkpt lat="43.165642" lon="19.182732"><ele>1318.9</ele><time>2012-05-01T16:14:09.0000000+00:00</time></trkpt><trkpt lat="43.165524" lon="19.183361"><ele>1318.6</ele><time>2012-05-01T16:14:14.0000000+00:00</time></trkpt><trkpt lat="43.165291" lon="19.183889"><ele>1318.4</ele><time>2012-05-01T16:14:19.0000000+00:00</time></trkpt><trkpt lat="43.165134" lon="19.184381"><ele>1318.5</ele><time>2012-05-01T16:14:24.0000000+00:00</time></trkpt><trkpt lat="43.165031" lon="19.184826"><ele>1317.3</ele><time>2012-05-01T16:14:29.0000000+00:00</time></trkpt><trkpt lat="43.164944" lon="19.185221"><ele>1315.4</ele><time>2012-05-01T16:14:34.0000000+00:00</time></trkpt><trkpt lat="43.164864" lon="19.185671"><ele>1314.5</ele><time>2012-05-01T16:14:39.0000000+00:00</time></trkpt><trkpt lat="43.164787" lon="19.186073"><ele>1312.5</ele><time>2012-05-01T16:14:44.0000000+00:00</time></trkpt><trkpt lat="43.164696" lon="19.186522"><ele>1313.6</ele><time>2012-05-01T16:14:49.0000000+00:00</time></trkpt><trkpt lat="43.164608" lon="19.186905"><ele>1312.0</ele><time>2012-05-01T16:14:54.0000000+00:00</time></trkpt><trkpt lat="43.164516" lon="19.187246"><ele>1310.7</ele><time>2012-05-01T16:14:59.0000000+00:00</time></trkpt><trkpt lat="43.164352" lon="19.187569"><ele>1309.9</ele><time>2012-05-01T16:15:04.0000000+00:00</time></trkpt><trkpt lat="43.164227" lon="19.187862"><ele>1308.0</ele><time>2012-05-01T16:15:09.0000000+00:00</time></trkpt><trkpt lat="43.164135" lon="19.188208"><ele>1305.9</ele><time>2012-05-01T16:15:14.0000000+00:00</time></trkpt><trkpt lat="43.164112" lon="19.18856"><ele>1302.6</ele><time>2012-05-01T16:15:19.0000000+00:00</time></trkpt><trkpt lat="43.164093" lon="19.188745"><ele>1298.3</ele><time>2012-05-01T16:15:24.0000000+00:00</time></trkpt><trkpt lat="43.164078" lon="19.188757"><ele>1297.6</ele><time>2012-05-01T16:15:29.0000000+00:00</time></trkpt><trkpt lat="43.164066" lon="19.188765"><ele>1296.3</ele><time>2012-05-01T16:15:34.0000000+00:00</time></trkpt><trkpt lat="43.164059" lon="19.188774"><ele>1295.7</ele><time>2012-05-01T16:15:39.0000000+00:00</time></trkpt><trkpt lat="43.164047" lon="19.188774"><ele>1295.2</ele><time>2012-05-01T16:15:44.0000000+00:00</time></trkpt><trkpt lat="43.16404" lon="19.188774"><ele>1294.7</ele><time>2012-05-01T16:15:49.0000000+00:00</time></trkpt><trkpt lat="43.164032" lon="19.188772"><ele>1294.2</ele><time>2012-05-01T16:15:54.0000000+00:00</time></trkpt><trkpt lat="43.164021" lon="19.188778"><ele>1293.7</ele><time>2012-05-01T16:15:59.0000000+00:00</time></trkpt><trkpt lat="43.164013" lon="19.188778"><ele>1293.4</ele><time>2012-05-01T16:16:04.0000000+00:00</time></trkpt><trkpt lat="43.164009" lon="19.188774"><ele>1293.1</ele><time>2012-05-01T16:16:09.0000000+00:00</time></trkpt><trkpt lat="43.164005" lon="19.188774"><ele>1292.8</ele><time>2012-05-01T16:16:14.0000000+00:00</time></trkpt><trkpt lat="43.164005" lon="19.188776"><ele>1292.5</ele><time>2012-05-01T16:16:19.0000000+00:00</time></trkpt><trkpt lat="43.164001" lon="19.188782"><ele>1292.4</ele><time>2012-05-01T16:16:24.0000000+00:00</time></trkpt><trkpt lat="43.164001" lon="19.188787"><ele>1292.2</ele><time>2012-05-01T16:16:29.0000000+00:00</time></trkpt><trkpt lat="43.164005" lon="19.188791"><ele>1292.1</ele><time>2012-05-01T16:16:34.0000000+00:00</time></trkpt><trkpt lat="43.164013" lon="19.188789"><ele>1292.1</ele><time>2012-05-01T16:16:39.0000000+00:00</time></trkpt><trkpt lat="43.164021" lon="19.188784"><ele>1292.2</ele><time>2012-05-01T16:16:44.0000000+00:00</time></trkpt><trkpt lat="43.164028" lon="19.188776"><ele>1292.5</ele><time>2012-05-01T16:16:49.0000000+00:00</time></trkpt><trkpt lat="43.164036" lon="19.188765"><ele>1292.9</ele><time>2012-05-01T16:16:54.0000000+00:00</time></trkpt><trkpt lat="43.164036" lon="19.188751"><ele>1293.5</ele><time>2012-05-01T16:16:59.0000000+00:00</time></trkpt><trkpt lat="43.164043" lon="19.188745"><ele>1294.0</ele><time>2012-05-01T16:17:04.0000000+00:00</time></trkpt><trkpt lat="43.164051" lon="19.188747"><ele>1294.6</ele><time>2012-05-01T16:17:09.0000000+00:00</time></trkpt><trkpt lat="43.164063" lon="19.188749"><ele>1295.2</ele><time>2012-05-01T16:17:14.0000000+00:00</time></trkpt><trkpt lat="43.164074" lon="19.188749"><ele>1295.7</ele><time>2012-05-01T16:17:19.0000000+00:00</time></trkpt><trkpt lat="43.164082" lon="19.188744"><ele>1296.2</ele><time>2012-05-01T16:17:24.0000000+00:00</time></trkpt><trkpt lat="43.164085" lon="19.188744"><ele>1296.7</ele><time>2012-05-01T16:17:29.0000000+00:00</time></trkpt><trkpt lat="43.164078" lon="19.188753"><ele>1297.1</ele><time>2012-05-01T16:17:34.0000000+00:00</time></trkpt><trkpt lat="43.164066" lon="19.188782"><ele>1297.5</ele><time>2012-05-01T16:17:39.0000000+00:00</time></trkpt><trkpt lat="43.164066" lon="19.188795"><ele>1298.0</ele><time>2012-05-01T16:17:44.0000000+00:00</time></trkpt><trkpt lat="43.164066" lon="19.188791"><ele>1298.6</ele><time>2012-05-01T16:17:49.0000000+00:00</time></trkpt><trkpt lat="43.16407" lon="19.188782"><ele>1299.3</ele><time>2012-05-01T16:17:54.0000000+00:00</time></trkpt><trkpt lat="43.16407" lon="19.188778"><ele>1300.1</ele><time>2012-05-01T16:17:59.0000000+00:00</time></trkpt><trkpt lat="43.164066" lon="19.188774"><ele>1300.8</ele><time>2012-05-01T16:18:04.0000000+00:00</time></trkpt><trkpt lat="43.164066" lon="19.188776"><ele>1301.4</ele><time>2012-05-01T16:18:09.0000000+00:00</time></trkpt><trkpt lat="43.164066" lon="19.18878"><ele>1301.9</ele><time>2012-05-01T16:18:14.0000000+00:00</time></trkpt><trkpt lat="43.164066" lon="19.188782"><ele>1302.2</ele><time>2012-05-01T16:18:19.0000000+00:00</time></trkpt><trkpt lat="43.164066" lon="19.18878"><ele>1302.7</ele><time>2012-05-01T16:18:24.0000000+00:00</time></trkpt><trkpt lat="43.164063" lon="19.188774"><ele>1303.4</ele><time>2012-05-01T16:18:29.0000000+00:00</time></trkpt><trkpt lat="43.164063" lon="19.18877"><ele>1304.3</ele><time>2012-05-01T16:18:34.0000000+00:00</time></trkpt><trkpt lat="43.164066" lon="19.188814"><ele>1305.2</ele><time>2012-05-01T16:18:39.0000000+00:00</time></trkpt><trkpt lat="43.164066" lon="19.18899"><ele>1306.9</ele><time>2012-05-01T16:18:44.0000000+00:00</time></trkpt><trkpt lat="43.164063" lon="19.189253"><ele>1306.6</ele><time>2012-05-01T16:18:49.0000000+00:00</time></trkpt><trkpt lat="43.164024" lon="19.189608"><ele>1306.3</ele><time>2012-05-01T16:18:54.0000000+00:00</time></trkpt><trkpt lat="43.163952" lon="19.189955"><ele>1306.0</ele><time>2012-05-01T16:18:59.0000000+00:00</time></trkpt><trkpt lat="43.163849" lon="19.190203"><ele>1305.6</ele><time>2012-05-01T16:19:04.0000000+00:00</time></trkpt><trkpt lat="43.163826" lon="19.19038"><ele>1306.8</ele><time>2012-05-01T16:19:09.0000000+00:00</time></trkpt><trkpt lat="43.163795" lon="19.190622"><ele>1305.4</ele><time>2012-05-01T16:19:14.0000000+00:00</time></trkpt><trkpt lat="43.163692" lon="19.19099"><ele>1303.4</ele><time>2012-05-01T16:19:19.0000000+00:00</time></trkpt><trkpt lat="43.163639" lon="19.191429"><ele>1301.0</ele><time>2012-05-01T16:19:24.0000000+00:00</time></trkpt><trkpt lat="43.163548" lon="19.192068"><ele>1298.1</ele><time>2012-05-01T16:19:29.0000000+00:00</time></trkpt><trkpt lat="43.163437" lon="19.19269"><ele>1295.6</ele><time>2012-05-01T16:19:34.0000000+00:00</time></trkpt><trkpt lat="43.163319" lon="19.193388"><ele>1292.3</ele><time>2012-05-01T16:19:39.0000000+00:00</time></trkpt><trkpt lat="43.16325" lon="19.19418"><ele>1289.5</ele><time>2012-05-01T16:19:44.0000000+00:00</time></trkpt><trkpt lat="43.16312" lon="19.194929"><ele>1286.7</ele><time>2012-05-01T16:19:49.0000000+00:00</time></trkpt><trkpt lat="43.162991" lon="19.195683"><ele>1284.1</ele><time>2012-05-01T16:19:54.0000000+00:00</time></trkpt><trkpt lat="43.162907" lon="19.196381"><ele>1282.7</ele><time>2012-05-01T16:19:59.0000000+00:00</time></trkpt><trkpt lat="43.162827" lon="19.196983"><ele>1281.6</ele><time>2012-05-01T16:20:04.0000000+00:00</time></trkpt><trkpt lat="43.162735" lon="19.197527"><ele>1280.3</ele><time>2012-05-01T16:20:09.0000000+00:00</time></trkpt><trkpt lat="43.16264" lon="19.198027"><ele>1278.0</ele><time>2012-05-01T16:20:14.0000000+00:00</time></trkpt><trkpt lat="43.162533" lon="19.198492"><ele>1276.0</ele><time>2012-05-01T16:20:19.0000000+00:00</time></trkpt><trkpt lat="43.162491" lon="19.198936"><ele>1274.1</ele><time>2012-05-01T16:20:24.0000000+00:00</time></trkpt><trkpt lat="43.162388" lon="19.199337"><ele>1272.0</ele><time>2012-05-01T16:20:29.0000000+00:00</time></trkpt><trkpt lat="43.16227" lon="19.199734"><ele>1269.1</ele><time>2012-05-01T16:20:34.0000000+00:00</time></trkpt><trkpt lat="43.162136" lon="19.200222"><ele>1268.0</ele><time>2012-05-01T16:20:39.0000000+00:00</time></trkpt><trkpt lat="43.161999" lon="19.200724"><ele>1273.1</ele><time>2012-05-01T16:20:44.0000000+00:00</time></trkpt><trkpt lat="43.161869" lon="19.201267"><ele>1278.6</ele><time>2012-05-01T16:20:49.0000000+00:00</time></trkpt><trkpt lat="43.161739" lon="19.201828"><ele>1281.2</ele><time>2012-05-01T16:20:54.0000000+00:00</time></trkpt><trkpt lat="43.16161" lon="19.202356"><ele>1284.5</ele><time>2012-05-01T16:20:59.0000000+00:00</time></trkpt><trkpt lat="43.161453" lon="19.202839"><ele>1284.5</ele><time>2012-05-01T16:21:04.0000000+00:00</time></trkpt><trkpt lat="43.161255" lon="19.2033"><ele>1285.6</ele><time>2012-05-01T16:21:09.0000000+00:00</time></trkpt><trkpt lat="43.161026" lon="19.203726"><ele>1288.0</ele><time>2012-05-01T16:21:14.0000000+00:00</time></trkpt><trkpt lat="43.160877" lon="19.204142"><ele>1288.2</ele><time>2012-05-01T16:21:19.0000000+00:00</time></trkpt><trkpt lat="43.160706" lon="19.204561"><ele>1287.6</ele><time>2012-05-01T16:21:24.0000000+00:00</time></trkpt><trkpt lat="43.160526" lon="19.204966"><ele>1287.2</ele><time>2012-05-01T16:21:29.0000000+00:00</time></trkpt><trkpt lat="43.160381" lon="19.205364"><ele>1286.2</ele><time>2012-05-01T16:21:34.0000000+00:00</time></trkpt><trkpt lat="43.160244" lon="19.20578"><ele>1285.1</ele><time>2012-05-01T16:21:39.0000000+00:00</time></trkpt><trkpt lat="43.16011" lon="19.206232"><ele>1283.6</ele><time>2012-05-01T16:21:44.0000000+00:00</time></trkpt><trkpt lat="43.159908" lon="19.206705"><ele>1281.4</ele><time>2012-05-01T16:21:49.0000000+00:00</time></trkpt><trkpt lat="43.159611" lon="19.207121"><ele>1279.7</ele><time>2012-05-01T16:21:54.0000000+00:00</time></trkpt><trkpt lat="43.15934" lon="19.207529"><ele>1279.1</ele><time>2012-05-01T16:21:59.0000000+00:00</time></trkpt><trkpt lat="43.159214" lon="19.20792"><ele>1276.4</ele><time>2012-05-01T16:22:04.0000000+00:00</time></trkpt><trkpt lat="43.159096" lon="19.208385"><ele>1273.0</ele><time>2012-05-01T16:22:09.0000000+00:00</time></trkpt><trkpt lat="43.158993" lon="19.208897"><ele>1271.1</ele><time>2012-05-01T16:22:14.0000000+00:00</time></trkpt><trkpt lat="43.158878" lon="19.209373"><ele>1270.6</ele><time>2012-05-01T16:22:19.0000000+00:00</time></trkpt><trkpt lat="43.15873" lon="19.20981"><ele>1270.2</ele><time>2012-05-01T16:22:24.0000000+00:00</time></trkpt><trkpt lat="43.158474" lon="19.210236"><ele>1268.0</ele><time>2012-05-01T16:22:29.0000000+00:00</time></trkpt><trkpt lat="43.158218" lon="19.210735"><ele>1266.2</ele><time>2012-05-01T16:22:34.0000000+00:00</time></trkpt><trkpt lat="43.157944" lon="19.211164"><ele>1264.0</ele><time>2012-05-01T16:22:39.0000000+00:00</time></trkpt><trkpt lat="43.157639" lon="19.211494"><ele>1261.2</ele><time>2012-05-01T16:22:44.0000000+00:00</time></trkpt><trkpt lat="43.157284" lon="19.211706"><ele>1259.0</ele><time>2012-05-01T16:22:49.0000000+00:00</time></trkpt><trkpt lat="43.157009" lon="19.211752"><ele>1257.0</ele><time>2012-05-01T16:22:54.0000000+00:00</time></trkpt><trkpt lat="43.156796" lon="19.211786"><ele>1255.6</ele><time>2012-05-01T16:22:59.0000000+00:00</time></trkpt><trkpt lat="43.156643" lon="19.211691"><ele>1255.0</ele><time>2012-05-01T16:23:04.0000000+00:00</time></trkpt><trkpt lat="43.156521" lon="19.21174"><ele>1254.7</ele><time>2012-05-01T16:23:09.0000000+00:00</time></trkpt><trkpt lat="43.156448" lon="19.211792"><ele>1254.6</ele><time>2012-05-01T16:23:14.0000000+00:00</time></trkpt><trkpt lat="43.15638" lon="19.211857"><ele>1254.7</ele><time>2012-05-01T16:23:19.0000000+00:00</time></trkpt><trkpt lat="43.156319" lon="19.21191"><ele>1257.8</ele><time>2012-05-01T16:23:24.0000000+00:00</time></trkpt><trkpt lat="43.156235" lon="19.212004"><ele>1262.0</ele><time>2012-05-01T16:23:29.0000000+00:00</time></trkpt><trkpt lat="43.156216" lon="19.212044"><ele>1266.4</ele><time>2012-05-01T16:23:34.0000000+00:00</time></trkpt><trkpt lat="43.156052" lon="19.212034"><ele>1270.8</ele><time>2012-05-01T16:23:39.0000000+00:00</time></trkpt><trkpt lat="43.155888" lon="19.211992"><ele>1275.6</ele><time>2012-05-01T16:23:44.0000000+00:00</time></trkpt><trkpt lat="43.15575" lon="19.211983"><ele>1281.1</ele><time>2012-05-01T16:23:49.0000000+00:00</time></trkpt><trkpt lat="43.155628" lon="19.212017"><ele>1286.9</ele><time>2012-05-01T16:23:54.0000000+00:00</time></trkpt><trkpt lat="43.155483" lon="19.212082"><ele>1293.3</ele><time>2012-05-01T16:23:59.0000000+00:00</time></trkpt><trkpt lat="43.155338" lon="19.212111"><ele>1299.4</ele><time>2012-05-01T16:24:04.0000000+00:00</time></trkpt><trkpt lat="43.155216" lon="19.212175"><ele>1305.7</ele><time>2012-05-01T16:24:09.0000000+00:00</time></trkpt><trkpt lat="43.155109" lon="19.2122"><ele>1311.5</ele><time>2012-05-01T16:24:14.0000000+00:00</time></trkpt><trkpt lat="43.154869" lon="19.212273"><ele>1316.0</ele><time>2012-05-01T16:24:19.0000000+00:00</time></trkpt><trkpt lat="43.154633" lon="19.212303"><ele>1319.6</ele><time>2012-05-01T16:24:24.0000000+00:00</time></trkpt><trkpt lat="43.154465" lon="19.212332"><ele>1324.2</ele><time>2012-05-01T16:24:29.0000000+00:00</time></trkpt><trkpt lat="43.154297" lon="19.212385"><ele>1327.6</ele><time>2012-05-01T16:24:34.0000000+00:00</time></trkpt><trkpt lat="43.154152" lon="19.21246"><ele>1331.5</ele><time>2012-05-01T16:24:39.0000000+00:00</time></trkpt><trkpt lat="43.154011" lon="19.212585"><ele>1335.3</ele><time>2012-05-01T16:24:44.0000000+00:00</time></trkpt><trkpt lat="43.153881" lon="19.212839"><ele>1340.1</ele><time>2012-05-01T16:24:49.0000000+00:00</time></trkpt><trkpt lat="43.153767" lon="19.213112"><ele>1346.4</ele><time>2012-05-01T16:24:54.0000000+00:00</time></trkpt><trkpt lat="43.153648" lon="19.213461"><ele>1354.1</ele><time>2012-05-01T16:24:59.0000000+00:00</time></trkpt><trkpt lat="43.153492" lon="19.213877"><ele>1359.1</ele><time>2012-05-01T16:25:04.0000000+00:00</time></trkpt><trkpt lat="43.15329" lon="19.214342"><ele>1362.6</ele><time>2012-05-01T16:25:09.0000000+00:00</time></trkpt><trkpt lat="43.153027" lon="19.21475"><ele>1365.0</ele><time>2012-05-01T16:25:14.0000000+00:00</time></trkpt><trkpt lat="43.152699" lon="19.215126"><ele>1366.5</ele><time>2012-05-01T16:25:19.0000000+00:00</time></trkpt><trkpt lat="43.15234" lon="19.215414"><ele>1367.2</ele><time>2012-05-01T16:25:24.0000000+00:00</time></trkpt><trkpt lat="43.151978" lon="19.215677"><ele>1365.9</ele><time>2012-05-01T16:25:29.0000000+00:00</time></trkpt><trkpt lat="43.151649" lon="19.215931"><ele>1366.7</ele><time>2012-05-01T16:25:34.0000000+00:00</time></trkpt><trkpt lat="43.151314" lon="19.216169"><ele>1366.8</ele><time>2012-05-01T16:25:39.0000000+00:00</time></trkpt><trkpt lat="43.15094" lon="19.216461"><ele>1367.3</ele><time>2012-05-01T16:25:44.0000000+00:00</time></trkpt><trkpt lat="43.150597" lon="19.216873"><ele>1366.7</ele><time>2012-05-01T16:25:49.0000000+00:00</time></trkpt><trkpt lat="43.150269" lon="19.217445"><ele>1366.1</ele><time>2012-05-01T16:25:54.0000000+00:00</time></trkpt><trkpt lat="43.149933" lon="19.218126"><ele>1364.3</ele><time>2012-05-01T16:25:59.0000000+00:00</time></trkpt><trkpt lat="43.149654" lon="19.218693"><ele>1362.4</ele><time>2012-05-01T16:26:04.0000000+00:00</time></trkpt><trkpt lat="43.149345" lon="19.219166"><ele>1357.9</ele><time>2012-05-01T16:26:09.0000000+00:00</time></trkpt><trkpt lat="43.148975" lon="19.219543"><ele>1354.3</ele><time>2012-05-01T16:26:14.0000000+00:00</time></trkpt><trkpt lat="43.148643" lon="19.219769"><ele>1349.5</ele><time>2012-05-01T16:26:19.0000000+00:00</time></trkpt><trkpt lat="43.148354" lon="19.219929"><ele>1345.8</ele><time>2012-05-01T16:26:24.0000000+00:00</time></trkpt><trkpt lat="43.148056" lon="19.22011"><ele>1342.0</ele><time>2012-05-01T16:26:29.0000000+00:00</time></trkpt><trkpt lat="43.147827" lon="19.220264"><ele>1339.8</ele><time>2012-05-01T16:26:34.0000000+00:00</time></trkpt><trkpt lat="43.14761" lon="19.220467"><ele>1338.7</ele><time>2012-05-01T16:26:39.0000000+00:00</time></trkpt><trkpt lat="43.147434" lon="19.220722"><ele>1338.2</ele><time>2012-05-01T16:26:44.0000000+00:00</time></trkpt><trkpt lat="43.147297" lon="19.221081"><ele>1337.2</ele><time>2012-05-01T16:26:49.0000000+00:00</time></trkpt><trkpt lat="43.14711" lon="19.22164"><ele>1334.4</ele><time>2012-05-01T16:26:54.0000000+00:00</time></trkpt><trkpt lat="43.146942" lon="19.222122"><ele>1330.1</ele><time>2012-05-01T16:26:59.0000000+00:00</time></trkpt><trkpt lat="43.146751" lon="19.222433"><ele>1326.0</ele><time>2012-05-01T16:27:04.0000000+00:00</time></trkpt><trkpt lat="43.146557" lon="19.222597"><ele>1322.7</ele><time>2012-05-01T16:27:09.0000000+00:00</time></trkpt><trkpt lat="43.146385" lon="19.222692"><ele>1324.1</ele><time>2012-05-01T16:27:14.0000000+00:00</time></trkpt><trkpt lat="43.146179" lon="19.222795"><ele>1323.1</ele><time>2012-05-01T16:27:19.0000000+00:00</time></trkpt><trkpt lat="43.146011" lon="19.222864"><ele>1324.6</ele><time>2012-05-01T16:27:24.0000000+00:00</time></trkpt><trkpt lat="43.145851" lon="19.222973"><ele>1326.6</ele><time>2012-05-01T16:27:29.0000000+00:00</time></trkpt><trkpt lat="43.145679" lon="19.223068"><ele>1329.3</ele><time>2012-05-01T16:27:34.0000000+00:00</time></trkpt><trkpt lat="43.145508" lon="19.223225"><ele>1334.9</ele><time>2012-05-01T16:27:39.0000000+00:00</time></trkpt><trkpt lat="43.145344" lon="19.223438"><ele>1336.5</ele><time>2012-05-01T16:27:44.0000000+00:00</time></trkpt><trkpt lat="43.145168" lon="19.223713"><ele>1329.0</ele><time>2012-05-01T16:27:49.0000000+00:00</time></trkpt><trkpt lat="43.144955" lon="19.224014"><ele>1325.8</ele><time>2012-05-01T16:27:54.0000000+00:00</time></trkpt><trkpt lat="43.144733" lon="19.22436"><ele>1324.6</ele><time>2012-05-01T16:27:59.0000000+00:00</time></trkpt><trkpt lat="43.144489" lon="19.224707"><ele>1324.4</ele><time>2012-05-01T16:28:04.0000000+00:00</time></trkpt><trkpt lat="43.144222" lon="19.225044"><ele>1321.9</ele><time>2012-05-01T16:28:09.0000000+00:00</time></trkpt><trkpt lat="43.143948" lon="19.225386"><ele>1316.8</ele><time>2012-05-01T16:28:14.0000000+00:00</time></trkpt><trkpt lat="43.143703" lon="19.225779"><ele>1313.8</ele><time>2012-05-01T16:28:19.0000000+00:00</time></trkpt><trkpt lat="43.14352" lon="19.226192"><ele>1312.6</ele><time>2012-05-01T16:28:24.0000000+00:00</time></trkpt><trkpt lat="43.143379" lon="19.226679"><ele>1313.6</ele><time>2012-05-01T16:28:29.0000000+00:00</time></trkpt><trkpt lat="43.143288" lon="19.227247"><ele>1314.5</ele><time>2012-05-01T16:28:34.0000000+00:00</time></trkpt><trkpt lat="43.143257" lon="19.227793"><ele>1315.0</ele><time>2012-05-01T16:28:39.0000000+00:00</time></trkpt><trkpt lat="43.143284" lon="19.228266"><ele>1315.5</ele><time>2012-05-01T16:28:44.0000000+00:00</time></trkpt><trkpt lat="43.143337" lon="19.228704"><ele>1316.8</ele><time>2012-05-01T16:28:49.0000000+00:00</time></trkpt><trkpt lat="43.143448" lon="19.229193"><ele>1315.5</ele><time>2012-05-01T16:28:54.0000000+00:00</time></trkpt><trkpt lat="43.14357" lon="19.229681"><ele>1316.7</ele><time>2012-05-01T16:28:59.0000000+00:00</time></trkpt><trkpt lat="43.143684" lon="19.230106"><ele>1315.7</ele><time>2012-05-01T16:29:04.0000000+00:00</time></trkpt><trkpt lat="43.143776" lon="19.23053"><ele>1314.7</ele><time>2012-05-01T16:29:09.0000000+00:00</time></trkpt><trkpt lat="43.143898" lon="19.230953"><ele>1313.3</ele><time>2012-05-01T16:29:14.0000000+00:00</time></trkpt><trkpt lat="43.144024" lon="19.231321"><ele>1312.5</ele><time>2012-05-01T16:29:19.0000000+00:00</time></trkpt><trkpt lat="43.144108" lon="19.231674"><ele>1311.3</ele><time>2012-05-01T16:29:24.0000000+00:00</time></trkpt><trkpt lat="43.144188" lon="19.232018"><ele>1310.3</ele><time>2012-05-01T16:29:29.0000000+00:00</time></trkpt><trkpt lat="43.144268" lon="19.232353"><ele>1309.4</ele><time>2012-05-01T16:29:34.0000000+00:00</time></trkpt><trkpt lat="43.144341" lon="19.23266"><ele>1309.0</ele><time>2012-05-01T16:29:39.0000000+00:00</time></trkpt><trkpt lat="43.144466" lon="19.232981"><ele>1310.1</ele><time>2012-05-01T16:29:44.0000000+00:00</time></trkpt><trkpt lat="43.144608" lon="19.233307"><ele>1310.5</ele><time>2012-05-01T16:29:49.0000000+00:00</time></trkpt><trkpt lat="43.144726" lon="19.233524"><ele>1311.5</ele><time>2012-05-01T16:29:54.0000000+00:00</time></trkpt><trkpt lat="43.144829" lon="19.233665"><ele>1313.0</ele><time>2012-05-01T16:29:59.0000000+00:00</time></trkpt><trkpt lat="43.144924" lon="19.233776"><ele>1313.3</ele><time>2012-05-01T16:30:04.0000000+00:00</time></trkpt><trkpt lat="43.145027" lon="19.233894"><ele>1313.5</ele><time>2012-05-01T16:30:09.0000000+00:00</time></trkpt><trkpt lat="43.145199" lon="19.234093"><ele>1315.9</ele><time>2012-05-01T16:30:14.0000000+00:00</time></trkpt><trkpt lat="43.145348" lon="19.234213"><ele>1319.5</ele><time>2012-05-01T16:30:19.0000000+00:00</time></trkpt><trkpt lat="43.145512" lon="19.234301"><ele>1319.6</ele><time>2012-05-01T16:30:24.0000000+00:00</time></trkpt><trkpt lat="43.145679" lon="19.2344"><ele>1322.3</ele><time>2012-05-01T16:30:29.0000000+00:00</time></trkpt><trkpt lat="43.145817" lon="19.234476"><ele>1323.2</ele><time>2012-05-01T16:30:34.0000000+00:00</time></trkpt><trkpt lat="43.145939" lon="19.234529"><ele>1324.8</ele><time>2012-05-01T16:30:39.0000000+00:00</time></trkpt><trkpt lat="43.146049" lon="19.234583"><ele>1324.7</ele><time>2012-05-01T16:30:44.0000000+00:00</time></trkpt><trkpt lat="43.146149" lon="19.23461"><ele>1323.8</ele><time>2012-05-01T16:30:49.0000000+00:00</time></trkpt><trkpt lat="43.146221" lon="19.234653"><ele>1324.9</ele><time>2012-05-01T16:30:54.0000000+00:00</time></trkpt><trkpt lat="43.146297" lon="19.234705"><ele>1327.2</ele><time>2012-05-01T16:30:59.0000000+00:00</time></trkpt><trkpt lat="43.146378" lon="19.234756"><ele>1328.0</ele><time>2012-05-01T16:31:04.0000000+00:00</time></trkpt><trkpt lat="43.146465" lon="19.234816"><ele>1329.5</ele><time>2012-05-01T16:31:09.0000000+00:00</time></trkpt><trkpt lat="43.146561" lon="19.234861"><ele>1329.0</ele><time>2012-05-01T16:31:14.0000000+00:00</time></trkpt><trkpt lat="43.146648" lon="19.234911"><ele>1330.5</ele><time>2012-05-01T16:31:19.0000000+00:00</time></trkpt><trkpt lat="43.146744" lon="19.234974"><ele>1331.4</ele><time>2012-05-01T16:31:24.0000000+00:00</time></trkpt><trkpt lat="43.146828" lon="19.235035"><ele>1332.4</ele><time>2012-05-01T16:31:29.0000000+00:00</time></trkpt><trkpt lat="43.146923" lon="19.235073"><ele>1332.2</ele><time>2012-05-01T16:31:34.0000000+00:00</time></trkpt><trkpt lat="43.147049" lon="19.235142"><ele>1335.6</ele><time>2012-05-01T16:31:39.0000000+00:00</time></trkpt><trkpt lat="43.147152" lon="19.235167"><ele>1334.9</ele><time>2012-05-01T16:31:44.0000000+00:00</time></trkpt><trkpt lat="43.147263" lon="19.235243"><ele>1335.5</ele><time>2012-05-01T16:31:49.0000000+00:00</time></trkpt><trkpt lat="43.147385" lon="19.235292"><ele>1335.0</ele><time>2012-05-01T16:31:54.0000000+00:00</time></trkpt><trkpt lat="43.147499" lon="19.235365"><ele>1335.5</ele><time>2012-05-01T16:31:59.0000000+00:00</time></trkpt><trkpt lat="43.147602" lon="19.235445"><ele>1338.5</ele><time>2012-05-01T16:32:04.0000000+00:00</time></trkpt><trkpt lat="43.147717" lon="19.235527"><ele>1339.8</ele><time>2012-05-01T16:32:09.0000000+00:00</time></trkpt><trkpt lat="43.147827" lon="19.235624"><ele>1340.5</ele><time>2012-05-01T16:32:14.0000000+00:00</time></trkpt><trkpt lat="43.147926" lon="19.235733"><ele>1341.0</ele><time>2012-05-01T16:32:19.0000000+00:00</time></trkpt><trkpt lat="43.148022" lon="19.235859"><ele>1340.1</ele><time>2012-05-01T16:32:24.0000000+00:00</time></trkpt><trkpt lat="43.148109" lon="19.236013"><ele>1340.7</ele><time>2012-05-01T16:32:29.0000000+00:00</time></trkpt><trkpt lat="43.148205" lon="19.236193"><ele>1339.9</ele><time>2012-05-01T16:32:34.0000000+00:00</time></trkpt><trkpt lat="43.148273" lon="19.23638"><ele>1340.1</ele><time>2012-05-01T16:32:39.0000000+00:00</time></trkpt><trkpt lat="43.148323" lon="19.236597"><ele>1340.6</ele><time>2012-05-01T16:32:44.0000000+00:00</time></trkpt><trkpt lat="43.148357" lon="19.236849"><ele>1340.9</ele><time>2012-05-01T16:32:49.0000000+00:00</time></trkpt><trkpt lat="43.14838" lon="19.237152"><ele>1340.5</ele><time>2012-05-01T16:32:54.0000000+00:00</time></trkpt><trkpt lat="43.148354" lon="19.237497"><ele>1340.8</ele><time>2012-05-01T16:32:59.0000000+00:00</time></trkpt><trkpt lat="43.148308" lon="19.237803"><ele>1340.8</ele><time>2012-05-01T16:33:04.0000000+00:00</time></trkpt><trkpt lat="43.148235" lon="19.238131"><ele>1341.3</ele><time>2012-05-01T16:33:09.0000000+00:00</time></trkpt><trkpt lat="43.148129" lon="19.238462"><ele>1341.2</ele><time>2012-05-01T16:33:14.0000000+00:00</time></trkpt><trkpt lat="43.148029" lon="19.238785"><ele>1341.1</ele><time>2012-05-01T16:33:19.0000000+00:00</time></trkpt><trkpt lat="43.147942" lon="19.239109"><ele>1341.1</ele><time>2012-05-01T16:33:24.0000000+00:00</time></trkpt><trkpt lat="43.14793" lon="19.239384"><ele>1341.3</ele><time>2012-05-01T16:33:29.0000000+00:00</time></trkpt><trkpt lat="43.147915" lon="19.239632"><ele>1342.6</ele><time>2012-05-01T16:33:34.0000000+00:00</time></trkpt><trkpt lat="43.147972" lon="19.239815"><ele>1345.7</ele><time>2012-05-01T16:33:39.0000000+00:00</time></trkpt><trkpt lat="43.148037" lon="19.240061"><ele>1348.7</ele><time>2012-05-01T16:33:44.0000000+00:00</time></trkpt><trkpt lat="43.148026" lon="19.240387"><ele>1351.1</ele><time>2012-05-01T16:33:49.0000000+00:00</time></trkpt><trkpt lat="43.148071" lon="19.240702"><ele>1352.9</ele><time>2012-05-01T16:33:54.0000000+00:00</time></trkpt><trkpt lat="43.148132" lon="19.240974"><ele>1355.0</ele><time>2012-05-01T16:33:59.0000000+00:00</time></trkpt><trkpt lat="43.148239" lon="19.241194"><ele>1358.0</ele><time>2012-05-01T16:34:04.0000000+00:00</time></trkpt><trkpt lat="43.148357" lon="19.241335"><ele>1361.4</ele><time>2012-05-01T16:34:09.0000000+00:00</time></trkpt><trkpt lat="43.148445" lon="19.241467"><ele>1366.0</ele><time>2012-05-01T16:34:14.0000000+00:00</time></trkpt><trkpt lat="43.148487" lon="19.241613"><ele>1370.6</ele><time>2012-05-01T16:34:19.0000000+00:00</time></trkpt><trkpt lat="43.148552" lon="19.241781"><ele>1375.8</ele><time>2012-05-01T16:34:24.0000000+00:00</time></trkpt><trkpt lat="43.148628" lon="19.242079"><ele>1379.8</ele><time>2012-05-01T16:34:29.0000000+00:00</time></trkpt><trkpt lat="43.148502" lon="19.242359"><ele>1383.7</ele><time>2012-05-01T16:34:34.0000000+00:00</time></trkpt><trkpt lat="43.148426" lon="19.242716"><ele>1387.8</ele><time>2012-05-01T16:34:39.0000000+00:00</time></trkpt><trkpt lat="43.148388" lon="19.243029"><ele>1392.2</ele><time>2012-05-01T16:34:44.0000000+00:00</time></trkpt><trkpt lat="43.148273" lon="19.243517"><ele>1396.7</ele><time>2012-05-01T16:34:49.0000000+00:00</time></trkpt><trkpt lat="43.148209" lon="19.243805"><ele>1401.7</ele><time>2012-05-01T16:34:54.0000000+00:00</time></trkpt><trkpt lat="43.148209" lon="19.244051"><ele>1407.6</ele><time>2012-05-01T16:34:59.0000000+00:00</time></trkpt><trkpt lat="43.148201" lon="19.244421"><ele>1412.5</ele><time>2012-05-01T16:35:04.0000000+00:00</time></trkpt><trkpt lat="43.148201" lon="19.244873"><ele>1417.2</ele><time>2012-05-01T16:35:09.0000000+00:00</time></trkpt><trkpt lat="43.148254" lon="19.245371"><ele>1421.5</ele><time>2012-05-01T16:35:14.0000000+00:00</time></trkpt><trkpt lat="43.148239" lon="19.245874"><ele>1425.3</ele><time>2012-05-01T16:35:19.0000000+00:00</time></trkpt><trkpt lat="43.148342" lon="19.246202"><ele>1429.1</ele><time>2012-05-01T16:35:24.0000000+00:00</time></trkpt><trkpt lat="43.148438" lon="19.246468"><ele>1432.6</ele><time>2012-05-01T16:35:29.0000000+00:00</time></trkpt><trkpt lat="43.148582" lon="19.246748"><ele>1436.7</ele><time>2012-05-01T16:35:34.0000000+00:00</time></trkpt><trkpt lat="43.148792" lon="19.247154"><ele>1440.2</ele><time>2012-05-01T16:35:39.0000000+00:00</time></trkpt><trkpt lat="43.148972" lon="19.247522"><ele>1443.3</ele><time>2012-05-01T16:35:44.0000000+00:00</time></trkpt><trkpt lat="43.149143" lon="19.247791"><ele>1447.3</ele><time>2012-05-01T16:35:49.0000000+00:00</time></trkpt><trkpt lat="43.148628" lon="19.249487"><ele>1474.8</ele><time>2012-05-01T16:35:54.0000000+00:00</time></trkpt><trkpt lat="43.148891" lon="19.249662"><ele>1470.4</ele><time>2012-05-01T16:35:59.0000000+00:00</time></trkpt><trkpt lat="43.149166" lon="19.249796"><ele>1469.0</ele><time>2012-05-01T16:36:04.0000000+00:00</time></trkpt><trkpt lat="43.149422" lon="19.24999"><ele>1467.6</ele><time>2012-05-01T16:36:09.0000000+00:00</time></trkpt><trkpt lat="43.149635" lon="19.250172"><ele>1456.4</ele><time>2012-05-01T16:36:14.0000000+00:00</time></trkpt><trkpt lat="43.149811" lon="19.250319"><ele>1444.3</ele><time>2012-05-01T16:36:19.0000000+00:00</time></trkpt><trkpt lat="43.149925" lon="19.250532"><ele>1441.3</ele><time>2012-05-01T16:36:24.0000000+00:00</time></trkpt><trkpt lat="43.150013" lon="19.250834"><ele>1437.8</ele><time>2012-05-01T16:36:29.0000000+00:00</time></trkpt><trkpt lat="43.150078" lon="19.251245"><ele>1432.0</ele><time>2012-05-01T16:36:34.0000000+00:00</time></trkpt><trkpt lat="43.150093" lon="19.251619"><ele>1425.0</ele><time>2012-05-01T16:36:39.0000000+00:00</time></trkpt><trkpt lat="43.15007" lon="19.251917"><ele>1419.6</ele><time>2012-05-01T16:36:44.0000000+00:00</time></trkpt><trkpt lat="43.150024" lon="19.25218"><ele>1414.9</ele><time>2012-05-01T16:36:49.0000000+00:00</time></trkpt><trkpt lat="43.14996" lon="19.252476"><ele>1412.4</ele><time>2012-05-01T16:36:54.0000000+00:00</time></trkpt><trkpt lat="43.150005" lon="19.252802"><ele>1403.1</ele><time>2012-05-01T16:36:59.0000000+00:00</time></trkpt><trkpt lat="43.150063" lon="19.252857"><ele>1399.4</ele><time>2012-05-01T16:37:04.0000000+00:00</time></trkpt><trkpt lat="43.150143" lon="19.252817"><ele>1391.9</ele><time>2012-05-01T16:37:09.0000000+00:00</time></trkpt><trkpt lat="43.150173" lon="19.25284"><ele>1388.9</ele><time>2012-05-01T16:37:14.0000000+00:00</time></trkpt><trkpt lat="43.150169" lon="19.252829"><ele>1388.7</ele><time>2012-05-01T16:37:19.0000000+00:00</time></trkpt><trkpt lat="43.150146" lon="19.252941"><ele>1386.6</ele><time>2012-05-01T16:37:24.0000000+00:00</time></trkpt><trkpt lat="43.150131" lon="19.253067"><ele>1382.4</ele><time>2012-05-01T16:37:29.0000000+00:00</time></trkpt><trkpt lat="43.150112" lon="19.25313"><ele>1377.5</ele><time>2012-05-01T16:37:34.0000000+00:00</time></trkpt><trkpt lat="43.15007" lon="19.253115"><ele>1371.7</ele><time>2012-05-01T16:37:39.0000000+00:00</time></trkpt><trkpt lat="43.15004" lon="19.253107"><ele>1365.9</ele><time>2012-05-01T16:37:44.0000000+00:00</time></trkpt><trkpt lat="43.150032" lon="19.253103"><ele>1365.6</ele><time>2012-05-01T16:37:49.0000000+00:00</time></trkpt><trkpt lat="43.150021" lon="19.253099"><ele>1365.4</ele><time>2012-05-01T16:37:54.0000000+00:00</time></trkpt><trkpt lat="43.150017" lon="19.253099"><ele>1365.3</ele><time>2012-05-01T16:37:59.0000000+00:00</time></trkpt><trkpt lat="43.150013" lon="19.253107"><ele>1365.2</ele><time>2012-05-01T16:38:04.0000000+00:00</time></trkpt><trkpt lat="43.150013" lon="19.253115"><ele>1365.1</ele><time>2012-05-01T16:38:09.0000000+00:00</time></trkpt><trkpt lat="43.150009" lon="19.253119"><ele>1365.0</ele><time>2012-05-01T16:38:14.0000000+00:00</time></trkpt><trkpt lat="43.150013" lon="19.25312"><ele>1364.9</ele><time>2012-05-01T16:38:19.0000000+00:00</time></trkpt><trkpt lat="43.150059" lon="19.253254"><ele>1362.5</ele><time>2012-05-01T16:38:24.0000000+00:00</time></trkpt><trkpt lat="43.15012" lon="19.253447"><ele>1360.0</ele><time>2012-05-01T16:38:29.0000000+00:00</time></trkpt><trkpt lat="43.150238" lon="19.253572"><ele>1357.0</ele><time>2012-05-01T16:38:34.0000000+00:00</time></trkpt><trkpt lat="43.150375" lon="19.253742"><ele>1353.3</ele><time>2012-05-01T16:38:39.0000000+00:00</time></trkpt><trkpt lat="43.150524" lon="19.253931"><ele>1349.7</ele><time>2012-05-01T16:38:44.0000000+00:00</time></trkpt><trkpt lat="43.150627" lon="19.254194"><ele>1347.4</ele><time>2012-05-01T16:38:49.0000000+00:00</time></trkpt><trkpt lat="43.15073" lon="19.254587"><ele>1342.5</ele><time>2012-05-01T16:38:54.0000000+00:00</time></trkpt><trkpt lat="43.150745" lon="19.255087"><ele>1338.0</ele><time>2012-05-01T16:38:59.0000000+00:00</time></trkpt><trkpt lat="43.150764" lon="19.255718"><ele>1334.7</ele><time>2012-05-01T16:39:04.0000000+00:00</time></trkpt><trkpt lat="43.151051" lon="19.256346"><ele>1331.5</ele><time>2012-05-01T16:39:09.0000000+00:00</time></trkpt><trkpt lat="43.15155" lon="19.256771"><ele>1329.0</ele><time>2012-05-01T16:39:14.0000000+00:00</time></trkpt><trkpt lat="43.151985" lon="19.257456"><ele>1325.9</ele><time>2012-05-01T16:39:19.0000000+00:00</time></trkpt><trkpt lat="43.152248" lon="19.258173"><ele>1321.8</ele><time>2012-05-01T16:39:24.0000000+00:00</time></trkpt><trkpt lat="43.152645" lon="19.258547"><ele>1317.5</ele><time>2012-05-01T16:39:29.0000000+00:00</time></trkpt><trkpt lat="43.152798" lon="19.258837"><ele>1313.4</ele><time>2012-05-01T16:39:34.0000000+00:00</time></trkpt><trkpt lat="43.152588" lon="19.258837"><ele>1309.4</ele><time>2012-05-01T16:39:39.0000000+00:00</time></trkpt><trkpt lat="43.152309" lon="19.258736"><ele>1305.8</ele><time>2012-05-01T16:39:44.0000000+00:00</time></trkpt><trkpt lat="43.152027" lon="19.258369"><ele>1302.3</ele><time>2012-05-01T16:39:49.0000000+00:00</time></trkpt><trkpt lat="43.151726" lon="19.257896"><ele>1298.7</ele><time>2012-05-01T16:39:54.0000000+00:00</time></trkpt><trkpt lat="43.151299" lon="19.257418"><ele>1295.1</ele><time>2012-05-01T16:39:59.0000000+00:00</time></trkpt><trkpt lat="43.150822" lon="19.256968"><ele>1291.6</ele><time>2012-05-01T16:40:04.0000000+00:00</time></trkpt><trkpt lat="43.150455" lon="19.256437"><ele>1288.3</ele><time>2012-05-01T16:40:09.0000000+00:00</time></trkpt><trkpt lat="43.15028" lon="19.25638"><ele>1285.2</ele><time>2012-05-01T16:40:14.0000000+00:00</time></trkpt><trkpt lat="43.150219" lon="19.25654"><ele>1282.8</ele><time>2012-05-01T16:40:19.0000000+00:00</time></trkpt><trkpt lat="43.150337" lon="19.256792"><ele>1280.3</ele><time>2012-05-01T16:40:24.0000000+00:00</time></trkpt><trkpt lat="43.150372" lon="19.25709"><ele>1278.2</ele><time>2012-05-01T16:40:29.0000000+00:00</time></trkpt><trkpt lat="43.150547" lon="19.257463"><ele>1276.2</ele><time>2012-05-01T16:40:34.0000000+00:00</time></trkpt><trkpt lat="43.150803" lon="19.257912"><ele>1274.4</ele><time>2012-05-01T16:40:39.0000000+00:00</time></trkpt><trkpt lat="43.151108" lon="19.258459"><ele>1272.4</ele><time>2012-05-01T16:40:44.0000000+00:00</time></trkpt><trkpt lat="43.151299" lon="19.259245"><ele>1269.8</ele><time>2012-05-01T16:40:49.0000000+00:00</time></trkpt><trkpt lat="43.151539" lon="19.259924"><ele>1266.1</ele><time>2012-05-01T16:40:54.0000000+00:00</time></trkpt><trkpt lat="43.151886" lon="19.260565"><ele>1263.0</ele><time>2012-05-01T16:40:59.0000000+00:00</time></trkpt><trkpt lat="43.152409" lon="19.261179"><ele>1260.1</ele><time>2012-05-01T16:41:04.0000000+00:00</time></trkpt><trkpt lat="43.152924" lon="19.261587"><ele>1258.1</ele><time>2012-05-01T16:41:09.0000000+00:00</time></trkpt><trkpt lat="43.153465" lon="19.261921"><ele>1256.5</ele><time>2012-05-01T16:41:14.0000000+00:00</time></trkpt><trkpt lat="43.153584" lon="19.262522"><ele>1254.8</ele><time>2012-05-01T16:41:19.0000000+00:00</time></trkpt><trkpt lat="43.153412" lon="19.263111"><ele>1254.0</ele><time>2012-05-01T16:41:24.0000000+00:00</time></trkpt><trkpt lat="43.152977" lon="19.263046"><ele>1254.0</ele><time>2012-05-01T16:41:29.0000000+00:00</time></trkpt><trkpt lat="43.152576" lon="19.263199"><ele>1253.6</ele><time>2012-05-01T16:41:34.0000000+00:00</time></trkpt><trkpt lat="43.152119" lon="19.263435"><ele>1254.1</ele><time>2012-05-01T16:41:39.0000000+00:00</time></trkpt><trkpt lat="43.151421" lon="19.263702"><ele>1256.0</ele><time>2012-05-01T16:41:44.0000000+00:00</time></trkpt><trkpt lat="43.150204" lon="19.264114"><ele>1261.5</ele><time>2012-05-01T16:41:49.0000000+00:00</time></trkpt><trkpt lat="43.149536" lon="19.264277"><ele>1262.2</ele><time>2012-05-01T16:41:54.0000000+00:00</time></trkpt><trkpt lat="43.149708" lon="19.265074"><ele>1282.4</ele><time>2012-05-01T16:41:59.0000000+00:00</time></trkpt><trkpt lat="43.149605" lon="19.265898"><ele>1286.0</ele><time>2012-05-01T16:42:04.0000000+00:00</time></trkpt><trkpt lat="43.149403" lon="19.266741"><ele>1283.9</ele><time>2012-05-01T16:42:09.0000000+00:00</time></trkpt><trkpt lat="43.149269" lon="19.267714"><ele>1279.5</ele><time>2012-05-01T16:42:14.0000000+00:00</time></trkpt><trkpt lat="43.149075" lon="19.268538"><ele>1278.8</ele><time>2012-05-01T16:42:19.0000000+00:00</time></trkpt><trkpt lat="43.148621" lon="19.269087"><ele>1276.5</ele><time>2012-05-01T16:42:24.0000000+00:00</time></trkpt><trkpt lat="43.14806" lon="19.26915"><ele>1260.3</ele><time>2012-05-01T16:42:29.0000000+00:00</time></trkpt><trkpt lat="43.147758" lon="19.268492"><ele>1250.6</ele><time>2012-05-01T16:42:34.0000000+00:00</time></trkpt><trkpt lat="43.147579" lon="19.268269"><ele>1245.3</ele><time>2012-05-01T16:42:39.0000000+00:00</time></trkpt><trkpt lat="43.147648" lon="19.268654"><ele>1226.8</ele><time>2012-05-01T16:42:44.0000000+00:00</time></trkpt><trkpt lat="43.147945" lon="19.269032"><ele>1217.4</ele><time>2012-05-01T16:42:49.0000000+00:00</time></trkpt><trkpt lat="43.148281" lon="19.269403"><ele>1207.0</ele><time>2012-05-01T16:42:54.0000000+00:00</time></trkpt><trkpt lat="43.148781" lon="19.269489"><ele>1194.4</ele><time>2012-05-01T16:42:59.0000000+00:00</time></trkpt><trkpt lat="43.1493" lon="19.269264"><ele>1188.2</ele><time>2012-05-01T16:43:04.0000000+00:00</time></trkpt><trkpt lat="43.149796" lon="19.268885"><ele>1182.5</ele><time>2012-05-01T16:43:09.0000000+00:00</time></trkpt><trkpt lat="43.150169" lon="19.268295"><ele>1167.1</ele><time>2012-05-01T16:43:14.0000000+00:00</time></trkpt><trkpt lat="43.150364" lon="19.267921"><ele>1156.9</ele><time>2012-05-01T16:43:19.0000000+00:00</time></trkpt><trkpt lat="43.150463" lon="19.26782"><ele>1151.9</ele><time>2012-05-01T16:43:24.0000000+00:00</time></trkpt><trkpt lat="43.150463" lon="19.267813"><ele>1152.2</ele><time>2012-05-01T16:43:29.0000000+00:00</time></trkpt><trkpt lat="43.150467" lon="19.267811"><ele>1152.0</ele><time>2012-05-01T16:43:34.0000000+00:00</time></trkpt><trkpt lat="43.150463" lon="19.267805"><ele>1151.9</ele><time>2012-05-01T16:43:39.0000000+00:00</time></trkpt><trkpt lat="43.150463" lon="19.267803"><ele>1151.9</ele><time>2012-05-01T16:43:44.0000000+00:00</time></trkpt><trkpt lat="43.150467" lon="19.267805"><ele>1151.9</ele><time>2012-05-01T16:43:49.0000000+00:00</time></trkpt><trkpt lat="43.150463" lon="19.267803"><ele>1151.9</ele><time>2012-05-01T16:43:54.0000000+00:00</time></trkpt><trkpt lat="43.150467" lon="19.267801"><ele>1151.9</ele><time>2012-05-01T16:43:59.0000000+00:00</time></trkpt><trkpt lat="43.150467" lon="19.267801"><ele>1151.9</ele><time>2012-05-01T16:44:04.0000000+00:00</time></trkpt><trkpt lat="43.150467" lon="19.267801"><ele>1151.9</ele><time>2012-05-01T16:44:09.0000000+00:00</time></trkpt><trkpt lat="43.150471" lon="19.267979"><ele>1153.6</ele><time>2012-05-01T16:44:14.0000000+00:00</time></trkpt><trkpt lat="43.150433" lon="19.268387"><ele>1150.3</ele><time>2012-05-01T16:44:19.0000000+00:00</time></trkpt><trkpt lat="43.15041" lon="19.268833"><ele>1147.4</ele><time>2012-05-01T16:44:24.0000000+00:00</time></trkpt><trkpt lat="43.150364" lon="19.269346"><ele>1142.1</ele><time>2012-05-01T16:44:29.0000000+00:00</time></trkpt><trkpt lat="43.150303" lon="19.269627"><ele>1136.6</ele><time>2012-05-01T16:44:34.0000000+00:00</time></trkpt><trkpt lat="43.150097" lon="19.269848"><ele>1132.0</ele><time>2012-05-01T16:44:39.0000000+00:00</time></trkpt><trkpt lat="43.149849" lon="19.270075"><ele>1126.6</ele><time>2012-05-01T16:44:44.0000000+00:00</time></trkpt><trkpt lat="43.149811" lon="19.270226"><ele>1123.2</ele><time>2012-05-01T16:44:49.0000000+00:00</time></trkpt><trkpt lat="43.149815" lon="19.270245"><ele>1122.9</ele><time>2012-05-01T16:44:54.0000000+00:00</time></trkpt><trkpt lat="43.149803" lon="19.270298"><ele>1122.0</ele><time>2012-05-01T16:44:59.0000000+00:00</time></trkpt><trkpt lat="43.149906" lon="19.27051"><ele>1119.5</ele><time>2012-05-01T16:45:04.0000000+00:00</time></trkpt><trkpt lat="43.150036" lon="19.270866"><ele>1117.8</ele><time>2012-05-01T16:45:09.0000000+00:00</time></trkpt><trkpt lat="43.150154" lon="19.27125"><ele>1110.6</ele><time>2012-05-01T16:45:14.0000000+00:00</time></trkpt><trkpt lat="43.150249" lon="19.271648"><ele>1102.0</ele><time>2012-05-01T16:45:19.0000000+00:00</time></trkpt><trkpt lat="43.150265" lon="19.27202"><ele>1095.2</ele><time>2012-05-01T16:45:24.0000000+00:00</time></trkpt><trkpt lat="43.150352" lon="19.272409"><ele>1088.5</ele><time>2012-05-01T16:45:29.0000000+00:00</time></trkpt><trkpt lat="43.150318" lon="19.272615"><ele>1084.8</ele><time>2012-05-01T16:45:34.0000000+00:00</time></trkpt><trkpt lat="43.150124" lon="19.272705"><ele>1081.4</ele><time>2012-05-01T16:45:39.0000000+00:00</time></trkpt><trkpt lat="43.149864" lon="19.272722"><ele>1076.4</ele><time>2012-05-01T16:45:44.0000000+00:00</time></trkpt><trkpt lat="43.149574" lon="19.272821"><ele>1066.0</ele><time>2012-05-01T16:45:49.0000000+00:00</time></trkpt><trkpt lat="43.149338" lon="19.273064"><ele>1060.6</ele><time>2012-05-01T16:45:54.0000000+00:00</time></trkpt><trkpt lat="43.14909" lon="19.273262"><ele>1057.0</ele><time>2012-05-01T16:45:59.0000000+00:00</time></trkpt><trkpt lat="43.148815" lon="19.273571"><ele>1052.8</ele><time>2012-05-01T16:46:04.0000000+00:00</time></trkpt><trkpt lat="43.148525" lon="19.273932"><ele>1052.5</ele><time>2012-05-01T16:46:09.0000000+00:00</time></trkpt><trkpt lat="43.148285" lon="19.27425"><ele>1051.6</ele><time>2012-05-01T16:46:14.0000000+00:00</time></trkpt><trkpt lat="43.148174" lon="19.27458"><ele>1050.9</ele><time>2012-05-01T16:46:19.0000000+00:00</time></trkpt><trkpt lat="43.148109" lon="19.275013"><ele>1049.1</ele><time>2012-05-01T16:46:24.0000000+00:00</time></trkpt><trkpt lat="43.147923" lon="19.275343"><ele>1048.3</ele><time>2012-05-01T16:46:29.0000000+00:00</time></trkpt><trkpt lat="43.147728" lon="19.275583"><ele>1048.7</ele><time>2012-05-01T16:46:34.0000000+00:00</time></trkpt><trkpt lat="43.147682" lon="19.275801"><ele>1050.3</ele><time>2012-05-01T16:46:39.0000000+00:00</time></trkpt><trkpt lat="43.14764" lon="19.276056"><ele>1050.5</ele><time>2012-05-01T16:46:44.0000000+00:00</time></trkpt><trkpt lat="43.147602" lon="19.276331"><ele>1048.8</ele><time>2012-05-01T16:46:49.0000000+00:00</time></trkpt><trkpt lat="43.147663" lon="19.276606"><ele>1045.8</ele><time>2012-05-01T16:46:54.0000000+00:00</time></trkpt><trkpt lat="43.147839" lon="19.276838"><ele>1043.5</ele><time>2012-05-01T16:46:59.0000000+00:00</time></trkpt><trkpt lat="43.148094" lon="19.27681"><ele>1037.4</ele><time>2012-05-01T16:47:04.0000000+00:00</time></trkpt><trkpt lat="43.148304" lon="19.277069"><ele>1030.9</ele><time>2012-05-01T16:47:09.0000000+00:00</time></trkpt><trkpt lat="43.148384" lon="19.277143"><ele>1028.5</ele><time>2012-05-01T16:47:14.0000000+00:00</time></trkpt><trkpt lat="43.148502" lon="19.276939"><ele>1024.5</ele><time>2012-05-01T16:47:19.0000000+00:00</time></trkpt><trkpt lat="43.148499" lon="19.276608"><ele>1020.2</ele><time>2012-05-01T16:47:24.0000000+00:00</time></trkpt><trkpt lat="43.148449" lon="19.276228"><ele>1015.3</ele><time>2012-05-01T16:47:29.0000000+00:00</time></trkpt><trkpt lat="43.148571" lon="19.275841"><ele>1012.5</ele><time>2012-05-01T16:47:34.0000000+00:00</time></trkpt><trkpt lat="43.148895" lon="19.275663"><ele>1010.7</ele><time>2012-05-01T16:47:39.0000000+00:00</time></trkpt><trkpt lat="43.149117" lon="19.275448"><ele>1012.2</ele><time>2012-05-01T16:47:44.0000000+00:00</time></trkpt><trkpt lat="43.149368" lon="19.275311"><ele>1010.6</ele><time>2012-05-01T16:47:49.0000000+00:00</time></trkpt><trkpt lat="43.149685" lon="19.27529"><ele>1010.2</ele><time>2012-05-01T16:47:54.0000000+00:00</time></trkpt><trkpt lat="43.149776" lon="19.275377"><ele>1009.2</ele><time>2012-05-01T16:47:59.0000000+00:00</time></trkpt><trkpt lat="43.149769" lon="19.275385"><ele>1008.5</ele><time>2012-05-01T16:48:04.0000000+00:00</time></trkpt><trkpt lat="43.149769" lon="19.275385"><ele>1008.5</ele><time>2012-05-01T16:48:09.0000000+00:00</time></trkpt><trkpt lat="43.149769" lon="19.275383"><ele>1008.4</ele><time>2012-05-01T16:48:14.0000000+00:00</time></trkpt><trkpt lat="43.149765" lon="19.275383"><ele>1008.3</ele><time>2012-05-01T16:48:19.0000000+00:00</time></trkpt><trkpt lat="43.149765" lon="19.275381"><ele>1008.3</ele><time>2012-05-01T16:48:24.0000000+00:00</time></trkpt><trkpt lat="43.149765" lon="19.275381"><ele>1008.2</ele><time>2012-05-01T16:48:29.0000000+00:00</time></trkpt><trkpt lat="43.149765" lon="19.275381"><ele>1008.1</ele><time>2012-05-01T16:48:34.0000000+00:00</time></trkpt><trkpt lat="43.149765" lon="19.275381"><ele>1008.1</ele><time>2012-05-01T16:48:39.0000000+00:00</time></trkpt><trkpt lat="43.149765" lon="19.275381"><ele>1008.1</ele><time>2012-05-01T16:48:44.0000000+00:00</time></trkpt><trkpt lat="43.149765" lon="19.275381"><ele>1008.1</ele><time>2012-05-01T16:48:49.0000000+00:00</time></trkpt><trkpt lat="43.149761" lon="19.275383"><ele>1008.1</ele><time>2012-05-01T16:48:54.0000000+00:00</time></trkpt><trkpt lat="43.149761" lon="19.275383"><ele>1008.1</ele><time>2012-05-01T16:48:59.0000000+00:00</time></trkpt><trkpt lat="43.149761" lon="19.275383"><ele>1008.1</ele><time>2012-05-01T16:49:04.0000000+00:00</time></trkpt><trkpt lat="43.149761" lon="19.275381"><ele>1008.1</ele><time>2012-05-01T16:49:09.0000000+00:00</time></trkpt><trkpt lat="43.14986" lon="19.27537"><ele>1007.3</ele><time>2012-05-01T16:49:14.0000000+00:00</time></trkpt><trkpt lat="43.149963" lon="19.275522"><ele>1005.1</ele><time>2012-05-01T16:49:19.0000000+00:00</time></trkpt><trkpt lat="43.150032" lon="19.275642"><ele>1007.1</ele><time>2012-05-01T16:49:24.0000000+00:00</time></trkpt><trkpt lat="43.150059" lon="19.275829"><ele>1005.7</ele><time>2012-05-01T16:49:29.0000000+00:00</time></trkpt><trkpt lat="43.149944" lon="19.276152"><ele>1002.9</ele><time>2012-05-01T16:49:34.0000000+00:00</time></trkpt><trkpt lat="43.149815" lon="19.276457"><ele>999.8</ele><time>2012-05-01T16:49:39.0000000+00:00</time></trkpt><trkpt lat="43.149837" lon="19.276697"><ele>996.4</ele><time>2012-05-01T16:49:44.0000000+00:00</time></trkpt><trkpt lat="43.14994" lon="19.276955"><ele>992.9</ele><time>2012-05-01T16:49:49.0000000+00:00</time></trkpt><trkpt lat="43.149933" lon="19.277372"><ele>987.9</ele><time>2012-05-01T16:49:54.0000000+00:00</time></trkpt><trkpt lat="43.14994" lon="19.277767"><ele>983.3</ele><time>2012-05-01T16:49:59.0000000+00:00</time></trkpt><trkpt lat="43.149967" lon="19.278095"><ele>979.5</ele><time>2012-05-01T16:50:04.0000000+00:00</time></trkpt><trkpt lat="43.150028" lon="19.278336"><ele>978.7</ele><time>2012-05-01T16:50:09.0000000+00:00</time></trkpt><trkpt lat="43.15012" lon="19.278507"><ele>980.3</ele><time>2012-05-01T16:50:14.0000000+00:00</time></trkpt><trkpt lat="43.150131" lon="19.278862"><ele>980.9</ele><time>2012-05-01T16:50:19.0000000+00:00</time></trkpt><trkpt lat="43.150131" lon="19.279364"><ele>977.1</ele><time>2012-05-01T16:50:24.0000000+00:00</time></trkpt><trkpt lat="43.150219" lon="19.279945"><ele>974.6</ele><time>2012-05-01T16:50:29.0000000+00:00</time></trkpt><trkpt lat="43.150372" lon="19.280582"><ele>972.0</ele><time>2012-05-01T16:50:34.0000000+00:00</time></trkpt><trkpt lat="43.150539" lon="19.281313"><ele>966.8</ele><time>2012-05-01T16:50:39.0000000+00:00</time></trkpt><trkpt lat="43.150558" lon="19.282143"><ele>963.1</ele><time>2012-05-01T16:50:44.0000000+00:00</time></trkpt><trkpt lat="43.150402" lon="19.283014"><ele>958.4</ele><time>2012-05-01T16:50:49.0000000+00:00</time></trkpt><trkpt lat="43.150265" lon="19.28397"><ele>952.6</ele><time>2012-05-01T16:50:54.0000000+00:00</time></trkpt><trkpt lat="43.150364" lon="19.284983"><ele>947.8</ele><time>2012-05-01T16:50:59.0000000+00:00</time></trkpt><trkpt lat="43.150436" lon="19.286003"><ele>942.8</ele><time>2012-05-01T16:51:04.0000000+00:00</time></trkpt><trkpt lat="43.150589" lon="19.286785"><ele>938.5</ele><time>2012-05-01T16:51:09.0000000+00:00</time></trkpt><trkpt lat="43.150723" lon="19.287344"><ele>936.6</ele><time>2012-05-01T16:51:14.0000000+00:00</time></trkpt><trkpt lat="43.150906" lon="19.287127"><ele>935.3</ele><time>2012-05-01T16:51:19.0000000+00:00</time></trkpt><trkpt lat="43.150726" lon="19.28668"><ele>930.8</ele><time>2012-05-01T16:51:24.0000000+00:00</time></trkpt><trkpt lat="43.15065" lon="19.286097"><ele>927.0</ele><time>2012-05-01T16:51:29.0000000+00:00</time></trkpt><trkpt lat="43.150623" lon="19.285425"><ele>922.5</ele><time>2012-05-01T16:51:34.0000000+00:00</time></trkpt><trkpt lat="43.150669" lon="19.284687"><ele>918.2</ele><time>2012-05-01T16:51:39.0000000+00:00</time></trkpt><trkpt lat="43.150787" lon="19.283901"><ele>912.9</ele><time>2012-05-01T16:51:44.0000000+00:00</time></trkpt><trkpt lat="43.15107" lon="19.283146"><ele>907.8</ele><time>2012-05-01T16:51:49.0000000+00:00</time></trkpt><trkpt lat="43.15136" lon="19.282475"><ele>904.5</ele><time>2012-05-01T16:51:54.0000000+00:00</time></trkpt><trkpt lat="43.15134" lon="19.281694"><ele>901.1</ele><time>2012-05-01T16:51:59.0000000+00:00</time></trkpt><trkpt lat="43.151283" lon="19.280859"><ele>896.1</ele><time>2012-05-01T16:52:04.0000000+00:00</time></trkpt><trkpt lat="43.151367" lon="19.280024"><ele>890.1</ele><time>2012-05-01T16:52:09.0000000+00:00</time></trkpt><trkpt lat="43.151466" lon="19.279179"><ele>883.5</ele><time>2012-05-01T16:52:14.0000000+00:00</time></trkpt><trkpt lat="43.1516" lon="19.27837"><ele>878.7</ele><time>2012-05-01T16:52:19.0000000+00:00</time></trkpt><trkpt lat="43.151821" lon="19.277668"><ele>876.5</ele><time>2012-05-01T16:52:24.0000000+00:00</time></trkpt><trkpt lat="43.152107" lon="19.277287"><ele>873.4</ele><time>2012-05-01T16:52:29.0000000+00:00</time></trkpt><trkpt lat="43.152222" lon="19.277466"><ele>871.3</ele><time>2012-05-01T16:52:34.0000000+00:00</time></trkpt><trkpt lat="43.151989" lon="19.277714"><ele>870.2</ele><time>2012-05-01T16:52:39.0000000+00:00</time></trkpt><trkpt lat="43.151814" lon="19.278074"><ele>869.8</ele><time>2012-05-01T16:52:44.0000000+00:00</time></trkpt><trkpt lat="43.151711" lon="19.278519"><ele>867.7</ele><time>2012-05-01T16:52:49.0000000+00:00</time></trkpt><trkpt lat="43.151653" lon="19.279051"><ele>864.5</ele><time>2012-05-01T16:52:54.0000000+00:00</time></trkpt><trkpt lat="43.151627" lon="19.279631"><ele>861.6</ele><time>2012-05-01T16:52:59.0000000+00:00</time></trkpt><trkpt lat="43.151577" lon="19.28021"><ele>859.9</ele><time>2012-05-01T16:53:04.0000000+00:00</time></trkpt><trkpt lat="43.151546" lon="19.280764"><ele>860.2</ele><time>2012-05-01T16:53:09.0000000+00:00</time></trkpt><trkpt lat="43.1516" lon="19.28129"><ele>862.3</ele><time>2012-05-01T16:53:14.0000000+00:00</time></trkpt><trkpt lat="43.151733" lon="19.281807"><ele>861.8</ele><time>2012-05-01T16:53:19.0000000+00:00</time></trkpt><trkpt lat="43.151852" lon="19.282373"><ele>859.1</ele><time>2012-05-01T16:53:24.0000000+00:00</time></trkpt><trkpt lat="43.15176" lon="19.282967"><ele>854.8</ele><time>2012-05-01T16:53:29.0000000+00:00</time></trkpt><trkpt lat="43.151623" lon="19.283503"><ele>852.9</ele><time>2012-05-01T16:53:34.0000000+00:00</time></trkpt><trkpt lat="43.151688" lon="19.284103"><ele>851.5</ele><time>2012-05-01T16:53:39.0000000+00:00</time></trkpt><trkpt lat="43.151604" lon="19.284765"><ele>847.7</ele><time>2012-05-01T16:53:44.0000000+00:00</time></trkpt><trkpt lat="43.15147" lon="19.285374"><ele>844.6</ele><time>2012-05-01T16:53:49.0000000+00:00</time></trkpt><trkpt lat="43.15155" lon="19.286013"><ele>842.8</ele><time>2012-05-01T16:53:54.0000000+00:00</time></trkpt><trkpt lat="43.151691" lon="19.286562"><ele>840.6</ele><time>2012-05-01T16:53:59.0000000+00:00</time></trkpt><trkpt lat="43.151947" lon="19.287106"><ele>836.5</ele><time>2012-05-01T16:54:04.0000000+00:00</time></trkpt><trkpt lat="43.152081" lon="19.287775"><ele>831.8</ele><time>2012-05-01T16:54:09.0000000+00:00</time></trkpt><trkpt lat="43.151844" lon="19.288363"><ele>827.8</ele><time>2012-05-01T16:54:14.0000000+00:00</time></trkpt><trkpt lat="43.151531" lon="19.288881"><ele>824.5</ele><time>2012-05-01T16:54:19.0000000+00:00</time></trkpt><trkpt lat="43.151237" lon="19.289375"><ele>821.1</ele><time>2012-05-01T16:54:24.0000000+00:00</time></trkpt><trkpt lat="43.15078" lon="19.28964"><ele>818.6</ele><time>2012-05-01T16:54:29.0000000+00:00</time></trkpt><trkpt lat="43.150272" lon="19.289604"><ele>814.1</ele><time>2012-05-01T16:54:34.0000000+00:00</time></trkpt><trkpt lat="43.149803" lon="19.289499"><ele>810.2</ele><time>2012-05-01T16:54:39.0000000+00:00</time></trkpt><trkpt lat="43.1493" lon="19.289495"><ele>805.8</ele><time>2012-05-01T16:54:44.0000000+00:00</time></trkpt><trkpt lat="43.148914" lon="19.289946"><ele>800.0</ele><time>2012-05-01T16:54:49.0000000+00:00</time></trkpt><trkpt lat="43.148777" lon="19.290545"><ele>796.4</ele><time>2012-05-01T16:54:54.0000000+00:00</time></trkpt><trkpt lat="43.148659" lon="19.291159"><ele>793.4</ele><time>2012-05-01T16:54:59.0000000+00:00</time></trkpt><trkpt lat="43.148563" lon="19.291664"><ele>790.8</ele><time>2012-05-01T16:55:04.0000000+00:00</time></trkpt><trkpt lat="43.148506" lon="19.292002"><ele>789.7</ele><time>2012-05-01T16:55:09.0000000+00:00</time></trkpt><trkpt lat="43.148357" lon="19.29217"><ele>787.2</ele><time>2012-05-01T16:55:14.0000000+00:00</time></trkpt><trkpt lat="43.14827" lon="19.292231"><ele>785.9</ele><time>2012-05-01T16:55:19.0000000+00:00</time></trkpt><trkpt lat="43.148273" lon="19.292181"><ele>785.4</ele><time>2012-05-01T16:55:24.0000000+00:00</time></trkpt><trkpt lat="43.148338" lon="19.292236"><ele>785.7</ele><time>2012-05-01T16:55:29.0000000+00:00</time></trkpt><trkpt lat="43.14838" lon="19.292234"><ele>785.6</ele><time>2012-05-01T16:55:34.0000000+00:00</time></trkpt><trkpt lat="43.14838" lon="19.29225"><ele>784.4</ele><time>2012-05-01T16:55:39.0000000+00:00</time></trkpt><trkpt lat="43.148338" lon="19.292234"><ele>784.9</ele><time>2012-05-01T16:55:44.0000000+00:00</time></trkpt><trkpt lat="43.148315" lon="19.292242"><ele>785.7</ele><time>2012-05-01T16:55:49.0000000+00:00</time></trkpt><trkpt lat="43.1483" lon="19.292231"><ele>786.0</ele><time>2012-05-01T16:55:54.0000000+00:00</time></trkpt><trkpt lat="43.148319" lon="19.292238"><ele>785.9</ele><time>2012-05-01T16:55:59.0000000+00:00</time></trkpt><trkpt lat="43.148312" lon="19.292248"><ele>785.4</ele><time>2012-05-01T16:56:04.0000000+00:00</time></trkpt><trkpt lat="43.148315" lon="19.292253"><ele>785.4</ele><time>2012-05-01T16:56:09.0000000+00:00</time></trkpt><trkpt lat="43.148319" lon="19.292261"><ele>785.5</ele><time>2012-05-01T16:56:14.0000000+00:00</time></trkpt><trkpt lat="43.148319" lon="19.292259"><ele>785.5</ele><time>2012-05-01T16:56:19.0000000+00:00</time></trkpt><trkpt lat="43.148319" lon="19.292257"><ele>785.6</ele><time>2012-05-01T16:56:24.0000000+00:00</time></trkpt><trkpt lat="43.148304" lon="19.292259"><ele>786.1</ele><time>2012-05-01T16:56:29.0000000+00:00</time></trkpt><trkpt lat="43.148277" lon="19.292248"><ele>786.1</ele><time>2012-05-01T16:56:34.0000000+00:00</time></trkpt><trkpt lat="43.148224" lon="19.292238"><ele>785.9</ele><time>2012-05-01T16:56:39.0000000+00:00</time></trkpt><trkpt lat="43.148205" lon="19.292238"><ele>785.5</ele><time>2012-05-01T16:56:44.0000000+00:00</time></trkpt><trkpt lat="43.148205" lon="19.292238"><ele>785.9</ele><time>2012-05-01T16:56:49.0000000+00:00</time></trkpt><trkpt lat="43.148193" lon="19.292194"><ele>785.1</ele><time>2012-05-01T16:56:54.0000000+00:00</time></trkpt><trkpt lat="43.148273" lon="19.292223"><ele>785.5</ele><time>2012-05-01T16:56:59.0000000+00:00</time></trkpt><trkpt lat="43.148296" lon="19.29224"><ele>785.5</ele><time>2012-05-01T16:57:04.0000000+00:00</time></trkpt><trkpt lat="43.148293" lon="19.29224"><ele>785.4</ele><time>2012-05-01T16:57:09.0000000+00:00</time></trkpt><trkpt lat="43.148293" lon="19.292242"><ele>785.4</ele><time>2012-05-01T16:57:14.0000000+00:00</time></trkpt><trkpt lat="43.1483" lon="19.292244"><ele>785.4</ele><time>2012-05-01T16:57:19.0000000+00:00</time></trkpt><trkpt lat="43.148304" lon="19.292252"><ele>785.8</ele><time>2012-05-01T16:57:24.0000000+00:00</time></trkpt><trkpt lat="43.148304" lon="19.292253"><ele>786.0</ele><time>2012-05-01T16:57:29.0000000+00:00</time></trkpt><trkpt lat="43.148304" lon="19.292253"><ele>786.0</ele><time>2012-05-01T16:57:34.0000000+00:00</time></trkpt><trkpt lat="43.148369" lon="19.292259"><ele>782.0</ele><time>2012-05-01T16:57:39.0000000+00:00</time></trkpt><trkpt lat="43.148426" lon="19.292238"><ele>782.8</ele><time>2012-05-01T16:57:44.0000000+00:00</time></trkpt><trkpt lat="43.148483" lon="19.29221"><ele>783.3</ele><time>2012-05-01T16:57:49.0000000+00:00</time></trkpt><trkpt lat="43.148533" lon="19.292196"><ele>784.1</ele><time>2012-05-01T16:57:54.0000000+00:00</time></trkpt><trkpt lat="43.14854" lon="19.292234"><ele>785.2</ele><time>2012-05-01T16:57:59.0000000+00:00</time></trkpt><trkpt lat="43.148537" lon="19.292231"><ele>785.9</ele><time>2012-05-01T16:58:04.0000000+00:00</time></trkpt><trkpt lat="43.148533" lon="19.292229"><ele>786.3</ele><time>2012-05-01T16:58:09.0000000+00:00</time></trkpt><trkpt lat="43.148533" lon="19.292225"><ele>786.8</ele><time>2012-05-01T16:58:14.0000000+00:00</time></trkpt><trkpt lat="43.148529" lon="19.292223"><ele>787.2</ele><time>2012-05-01T16:58:19.0000000+00:00</time></trkpt><trkpt lat="43.148529" lon="19.292219"><ele>787.6</ele><time>2012-05-01T16:58:24.0000000+00:00</time></trkpt><trkpt lat="43.148525" lon="19.292217"><ele>788.0</ele><time>2012-05-01T16:58:29.0000000+00:00</time></trkpt><trkpt lat="43.148525" lon="19.292217"><ele>788.3</ele><time>2012-05-01T16:58:34.0000000+00:00</time></trkpt><trkpt lat="43.148525" lon="19.292217"><ele>788.3</ele><time>2012-05-01T16:58:39.0000000+00:00</time></trkpt><trkpt lat="43.148525" lon="19.292217"><ele>788.3</ele><time>2012-05-01T16:58:44.0000000+00:00</time></trkpt><trkpt lat="43.148525" lon="19.292217"><ele>788.2</ele><time>2012-05-01T16:58:49.0000000+00:00</time></trkpt><trkpt lat="43.148525" lon="19.292217"><ele>788.2</ele><time>2012-05-01T16:58:54.0000000+00:00</time></trkpt><trkpt lat="43.148525" lon="19.292217"><ele>788.2</ele><time>2012-05-01T16:58:59.0000000+00:00</time></trkpt><trkpt lat="43.148525" lon="19.292217"><ele>788.2</ele><time>2012-05-01T16:59:04.0000000+00:00</time></trkpt><trkpt lat="43.148525" lon="19.292217"><ele>788.2</ele><time>2012-05-01T16:59:09.0000000+00:00</time></trkpt><trkpt lat="43.148525" lon="19.292217"><ele>788.2</ele><time>2012-05-01T16:59:14.0000000+00:00</time></trkpt><trkpt lat="43.148525" lon="19.292217"><ele>788.2</ele><time>2012-05-01T16:59:19.0000000+00:00</time></trkpt><trkpt lat="43.148537" lon="19.292225"><ele>788.1</ele><time>2012-05-01T16:59:24.0000000+00:00</time></trkpt><trkpt lat="43.148628" lon="19.292183"><ele>787.5</ele><time>2012-05-01T16:59:29.0000000+00:00</time></trkpt><trkpt lat="43.148655" lon="19.292171"><ele>788.5</ele><time>2012-05-01T16:59:34.0000000+00:00</time></trkpt><trkpt lat="43.148655" lon="19.292168"><ele>788.6</ele><time>2012-05-01T16:59:39.0000000+00:00</time></trkpt><trkpt lat="43.148655" lon="19.292168"><ele>788.6</ele><time>2012-05-01T16:59:44.0000000+00:00</time></trkpt><trkpt lat="43.148655" lon="19.292168"><ele>788.6</ele><time>2012-05-01T16:59:49.0000000+00:00</time></trkpt><trkpt lat="43.148655" lon="19.292168"><ele>788.6</ele><time>2012-05-01T16:59:54.0000000+00:00</time></trkpt><trkpt lat="43.148655" lon="19.29217"><ele>788.6</ele><time>2012-05-01T16:59:59.0000000+00:00</time></trkpt><trkpt lat="43.148655" lon="19.29217"><ele>788.6</ele><time>2012-05-01T17:00:04.0000000+00:00</time></trkpt><trkpt lat="43.148655" lon="19.29217"><ele>788.6</ele><time>2012-05-01T17:00:09.0000000+00:00</time></trkpt><trkpt lat="43.148655" lon="19.292168"><ele>788.6</ele><time>2012-05-01T17:00:14.0000000+00:00</time></trkpt><trkpt lat="43.148655" lon="19.292168"><ele>788.6</ele><time>2012-05-01T17:00:19.0000000+00:00</time></trkpt><trkpt lat="43.148655" lon="19.292168"><ele>788.5</ele><time>2012-05-01T17:00:24.0000000+00:00</time></trkpt><trkpt lat="43.148655" lon="19.29217"><ele>788.5</ele><time>2012-05-01T17:00:29.0000000+00:00</time></trkpt><trkpt lat="43.148655" lon="19.29217"><ele>788.5</ele><time>2012-05-01T17:00:34.0000000+00:00</time></trkpt><trkpt lat="43.148659" lon="19.292154"><ele>787.9</ele><time>2012-05-01T17:00:39.0000000+00:00</time></trkpt><trkpt lat="43.148739" lon="19.29208"><ele>787.8</ele><time>2012-05-01T17:00:44.0000000+00:00</time></trkpt><trkpt lat="43.148823" lon="19.292002"><ele>791.4</ele><time>2012-05-01T17:00:49.0000000+00:00</time></trkpt><trkpt lat="43.148937" lon="19.291952"><ele>791.6</ele><time>2012-05-01T17:00:54.0000000+00:00</time></trkpt><trkpt lat="43.149017" lon="19.291918"><ele>788.6</ele><time>2012-05-01T17:00:59.0000000+00:00</time></trkpt><trkpt lat="43.149071" lon="19.291903"><ele>787.5</ele><time>2012-05-01T17:01:04.0000000+00:00</time></trkpt><trkpt lat="43.149101" lon="19.291851"><ele>787.5</ele><time>2012-05-01T17:01:09.0000000+00:00</time></trkpt><trkpt lat="43.149033" lon="19.291912"><ele>788.1</ele><time>2012-05-01T17:01:14.0000000+00:00</time></trkpt><trkpt lat="43.148937" lon="19.291983"><ele>788.1</ele><time>2012-05-01T17:01:19.0000000+00:00</time></trkpt><trkpt lat="43.148777" lon="19.292057"><ele>787.5</ele><time>2012-05-01T17:01:24.0000000+00:00</time></trkpt><trkpt lat="43.148708" lon="19.29213"><ele>786.8</ele><time>2012-05-01T17:01:29.0000000+00:00</time></trkpt><trkpt lat="43.14867" lon="19.292191"><ele>786.6</ele><time>2012-05-01T17:01:34.0000000+00:00</time></trkpt><trkpt lat="43.148647" lon="19.292374"><ele>787.3</ele><time>2012-05-01T17:01:39.0000000+00:00</time></trkpt><trkpt lat="43.148769" lon="19.292744"><ele>785.8</ele><time>2012-05-01T17:01:44.0000000+00:00</time></trkpt><trkpt lat="43.148918" lon="19.293133"><ele>784.7</ele><time>2012-05-01T17:01:49.0000000+00:00</time></trkpt><trkpt lat="43.149082" lon="19.293516"><ele>783.5</ele><time>2012-05-01T17:01:54.0000000+00:00</time></trkpt><trkpt lat="43.149273" lon="19.293869"><ele>782.4</ele><time>2012-05-01T17:01:59.0000000+00:00</time></trkpt><trkpt lat="43.149464" lon="19.294188"><ele>781.4</ele><time>2012-05-01T17:02:04.0000000+00:00</time></trkpt><trkpt lat="43.149639" lon="19.294416"><ele>780.5</ele><time>2012-05-01T17:02:09.0000000+00:00</time></trkpt><trkpt lat="43.149784" lon="19.294619"><ele>780.0</ele><time>2012-05-01T17:02:14.0000000+00:00</time></trkpt><trkpt lat="43.149792" lon="19.294636"><ele>779.5</ele><time>2012-05-01T17:02:19.0000000+00:00</time></trkpt><trkpt lat="43.149799" lon="19.294641"><ele>779.5</ele><time>2012-05-01T17:02:24.0000000+00:00</time></trkpt><trkpt lat="43.149796" lon="19.294641"><ele>779.4</ele><time>2012-05-01T17:02:29.0000000+00:00</time></trkpt><trkpt lat="43.149792" lon="19.29464"><ele>779.6</ele><time>2012-05-01T17:02:34.0000000+00:00</time></trkpt><trkpt lat="43.149792" lon="19.294638"><ele>779.6</ele><time>2012-05-01T17:02:39.0000000+00:00</time></trkpt><trkpt lat="43.149792" lon="19.294638"><ele>779.6</ele><time>2012-05-01T17:02:44.0000000+00:00</time></trkpt><trkpt lat="43.149792" lon="19.294638"><ele>779.6</ele><time>2012-05-01T17:02:49.0000000+00:00</time></trkpt><trkpt lat="43.149792" lon="19.294638"><ele>779.6</ele><time>2012-05-01T17:02:54.0000000+00:00</time></trkpt><trkpt lat="43.149792" lon="19.294638"><ele>779.6</ele><time>2012-05-01T17:02:59.0000000+00:00</time></trkpt><trkpt lat="43.149792" lon="19.294638"><ele>779.6</ele><time>2012-05-01T17:03:04.0000000+00:00</time></trkpt><trkpt lat="43.149792" lon="19.294638"><ele>779.6</ele><time>2012-05-01T17:03:09.0000000+00:00</time></trkpt><trkpt lat="43.149792" lon="19.294638"><ele>779.6</ele><time>2012-05-01T17:03:14.0000000+00:00</time></trkpt><trkpt lat="43.149792" lon="19.294638"><ele>779.6</ele><time>2012-05-01T17:03:19.0000000+00:00</time></trkpt><trkpt lat="43.149792" lon="19.294638"><ele>779.6</ele><time>2012-05-01T17:03:24.0000000+00:00</time></trkpt><trkpt lat="43.149792" lon="19.294638"><ele>779.6</ele><time>2012-05-01T17:03:29.0000000+00:00</time></trkpt><trkpt lat="43.149792" lon="19.294638"><ele>779.6</ele><time>2012-05-01T17:03:34.0000000+00:00</time></trkpt><trkpt lat="43.149792" lon="19.294638"><ele>779.6</ele><time>2012-05-01T17:03:39.0000000+00:00</time></trkpt><trkpt lat="43.149792" lon="19.294638"><ele>779.6</ele><time>2012-05-01T17:03:44.0000000+00:00</time></trkpt><trkpt lat="43.149792" lon="19.294638"><ele>779.6</ele><time>2012-05-01T17:03:49.0000000+00:00</time></trkpt><trkpt lat="43.149792" lon="19.294638"><ele>779.6</ele><time>2012-05-01T17:03:54.0000000+00:00</time></trkpt><trkpt lat="43.149792" lon="19.294638"><ele>779.7</ele><time>2012-05-01T17:03:59.0000000+00:00</time></trkpt><trkpt lat="43.149792" lon="19.294638"><ele>779.7</ele><time>2012-05-01T17:04:04.0000000+00:00</time></trkpt><trkpt lat="43.149792" lon="19.294638"><ele>779.7</ele><time>2012-05-01T17:04:09.0000000+00:00</time></trkpt><trkpt lat="43.149792" lon="19.294638"><ele>779.7</ele><time>2012-05-01T17:04:14.0000000+00:00</time></trkpt><trkpt lat="43.149792" lon="19.294638"><ele>779.7</ele><time>2012-05-01T17:04:19.0000000+00:00</time></trkpt><trkpt lat="43.149792" lon="19.294638"><ele>779.7</ele><time>2012-05-01T17:04:24.0000000+00:00</time></trkpt><trkpt lat="43.149792" lon="19.294638"><ele>779.7</ele><time>2012-05-01T17:04:29.0000000+00:00</time></trkpt><trkpt lat="43.149792" lon="19.294638"><ele>779.7</ele><time>2012-05-01T17:04:34.0000000+00:00</time></trkpt><trkpt lat="43.149792" lon="19.294638"><ele>779.7</ele><time>2012-05-01T17:04:39.0000000+00:00</time></trkpt><trkpt lat="43.149792" lon="19.294638"><ele>779.7</ele><time>2012-05-01T17:04:44.0000000+00:00</time></trkpt><trkpt lat="43.149792" lon="19.294638"><ele>779.7</ele><time>2012-05-01T17:04:49.0000000+00:00</time></trkpt><trkpt lat="43.149792" lon="19.294638"><ele>779.7</ele><time>2012-05-01T17:04:54.0000000+00:00</time></trkpt><trkpt lat="43.149822" lon="19.294668"><ele>779.9</ele><time>2012-05-01T17:04:59.0000000+00:00</time></trkpt><trkpt lat="43.149837" lon="19.294693"><ele>779.0</ele><time>2012-05-01T17:05:04.0000000+00:00</time></trkpt><trkpt lat="43.149837" lon="19.294697"><ele>778.4</ele><time>2012-05-01T17:05:09.0000000+00:00</time></trkpt><trkpt lat="43.149837" lon="19.294699"><ele>778.0</ele><time>2012-05-01T17:05:14.0000000+00:00</time></trkpt><trkpt lat="43.149837" lon="19.294703"><ele>777.7</ele><time>2012-05-01T17:05:19.0000000+00:00</time></trkpt><trkpt lat="43.149837" lon="19.294704"><ele>777.4</ele><time>2012-05-01T17:05:24.0000000+00:00</time></trkpt><trkpt lat="43.149837" lon="19.294704"><ele>777.4</ele><time>2012-05-01T17:05:29.0000000+00:00</time></trkpt><trkpt lat="43.149837" lon="19.294704"><ele>777.4</ele><time>2012-05-01T17:05:34.0000000+00:00</time></trkpt><trkpt lat="43.149837" lon="19.294704"><ele>777.4</ele><time>2012-05-01T17:05:39.0000000+00:00</time></trkpt><trkpt lat="43.149837" lon="19.294704"><ele>777.4</ele><time>2012-05-01T17:05:44.0000000+00:00</time></trkpt><trkpt lat="43.149837" lon="19.294704"><ele>777.4</ele><time>2012-05-01T17:05:49.0000000+00:00</time></trkpt><trkpt lat="43.149837" lon="19.294704"><ele>777.4</ele><time>2012-05-01T17:05:54.0000000+00:00</time></trkpt><trkpt lat="43.149837" lon="19.294704"><ele>777.4</ele><time>2012-05-01T17:05:59.0000000+00:00</time></trkpt><trkpt lat="43.149837" lon="19.294704"><ele>777.4</ele><time>2012-05-01T17:06:04.0000000+00:00</time></trkpt><trkpt lat="43.149837" lon="19.294704"><ele>777.4</ele><time>2012-05-01T17:06:09.0000000+00:00</time></trkpt><trkpt lat="43.149837" lon="19.294704"><ele>777.4</ele><time>2012-05-01T17:06:14.0000000+00:00</time></trkpt><trkpt lat="43.149837" lon="19.294703"><ele>777.4</ele><time>2012-05-01T17:06:19.0000000+00:00</time></trkpt><trkpt lat="43.149837" lon="19.294703"><ele>777.4</ele><time>2012-05-01T17:06:24.0000000+00:00</time></trkpt><trkpt lat="43.149837" lon="19.294703"><ele>777.4</ele><time>2012-05-01T17:06:29.0000000+00:00</time></trkpt><trkpt lat="43.149837" lon="19.294703"><ele>777.4</ele><time>2012-05-01T17:06:34.0000000+00:00</time></trkpt><trkpt lat="43.149837" lon="19.294703"><ele>777.4</ele><time>2012-05-01T17:06:39.0000000+00:00</time></trkpt><trkpt lat="43.149837" lon="19.294703"><ele>777.4</ele><time>2012-05-01T17:06:44.0000000+00:00</time></trkpt><trkpt lat="43.149837" lon="19.294703"><ele>777.3</ele><time>2012-05-01T17:06:49.0000000+00:00</time></trkpt><trkpt lat="43.149837" lon="19.294703"><ele>777.3</ele><time>2012-05-01T17:06:54.0000000+00:00</time></trkpt><trkpt lat="43.149837" lon="19.294703"><ele>777.3</ele><time>2012-05-01T17:06:59.0000000+00:00</time></trkpt><trkpt lat="43.149837" lon="19.294703"><ele>777.3</ele><time>2012-05-01T17:07:04.0000000+00:00</time></trkpt><trkpt lat="43.149837" lon="19.294703"><ele>777.3</ele><time>2012-05-01T17:07:09.0000000+00:00</time></trkpt><trkpt lat="43.149837" lon="19.294703"><ele>777.3</ele><time>2012-05-01T17:07:14.0000000+00:00</time></trkpt><trkpt lat="43.149837" lon="19.294703"><ele>777.3</ele><time>2012-05-01T17:07:19.0000000+00:00</time></trkpt><trkpt lat="43.149837" lon="19.294703"><ele>777.3</ele><time>2012-05-01T17:07:24.0000000+00:00</time></trkpt><trkpt lat="43.149837" lon="19.294703"><ele>777.3</ele><time>2012-05-01T17:07:29.0000000+00:00</time></trkpt><trkpt lat="43.149837" lon="19.294703"><ele>777.3</ele><time>2012-05-01T17:07:34.0000000+00:00</time></trkpt><trkpt lat="43.149837" lon="19.294703"><ele>777.3</ele><time>2012-05-01T17:07:39.0000000+00:00</time></trkpt><trkpt lat="43.149837" lon="19.294703"><ele>777.3</ele><time>2012-05-01T17:07:44.0000000+00:00</time></trkpt><trkpt lat="43.149837" lon="19.294703"><ele>777.3</ele><time>2012-05-01T17:07:49.0000000+00:00</time></trkpt><trkpt lat="43.149837" lon="19.294703"><ele>777.3</ele><time>2012-05-01T17:07:54.0000000+00:00</time></trkpt><trkpt lat="43.149837" lon="19.294703"><ele>777.3</ele><time>2012-05-01T17:07:59.0000000+00:00</time></trkpt><trkpt lat="43.149837" lon="19.294704"><ele>777.2</ele><time>2012-05-01T17:08:04.0000000+00:00</time></trkpt><trkpt lat="43.149837" lon="19.294704"><ele>777.2</ele><time>2012-05-01T17:08:09.0000000+00:00</time></trkpt><trkpt lat="43.149837" lon="19.294704"><ele>777.2</ele><time>2012-05-01T17:08:14.0000000+00:00</time></trkpt><trkpt lat="43.149837" lon="19.294704"><ele>777.2</ele><time>2012-05-01T17:08:19.0000000+00:00</time></trkpt><trkpt lat="43.149837" lon="19.294704"><ele>777.2</ele><time>2012-05-01T17:08:24.0000000+00:00</time></trkpt><trkpt lat="43.149837" lon="19.294704"><ele>777.2</ele><time>2012-05-01T17:08:29.0000000+00:00</time></trkpt><trkpt lat="43.149837" lon="19.294704"><ele>777.2</ele><time>2012-05-01T17:08:34.0000000+00:00</time></trkpt><trkpt lat="43.149837" lon="19.294704"><ele>777.2</ele><time>2012-05-01T17:08:39.0000000+00:00</time></trkpt><trkpt lat="43.149837" lon="19.294704"><ele>777.2</ele><time>2012-05-01T17:08:44.0000000+00:00</time></trkpt><trkpt lat="43.149837" lon="19.294704"><ele>777.2</ele><time>2012-05-01T17:08:49.0000000+00:00</time></trkpt><trkpt lat="43.149837" lon="19.294704"><ele>777.2</ele><time>2012-05-01T17:08:54.0000000+00:00</time></trkpt><trkpt lat="43.149837" lon="19.294704"><ele>777.2</ele><time>2012-05-01T17:08:59.0000000+00:00</time></trkpt><trkpt lat="43.149837" lon="19.294704"><ele>777.2</ele><time>2012-05-01T17:09:04.0000000+00:00</time></trkpt><trkpt lat="43.149837" lon="19.294704"><ele>777.2</ele><time>2012-05-01T17:09:09.0000000+00:00</time></trkpt><trkpt lat="43.149837" lon="19.294704"><ele>777.2</ele><time>2012-05-01T17:09:14.0000000+00:00</time></trkpt><trkpt lat="43.149837" lon="19.294704"><ele>777.2</ele><time>2012-05-01T17:09:19.0000000+00:00</time></trkpt><trkpt lat="43.149837" lon="19.294704"><ele>777.2</ele><time>2012-05-01T17:09:24.0000000+00:00</time></trkpt><trkpt lat="43.149837" lon="19.294704"><ele>777.2</ele><time>2012-05-01T17:09:29.0000000+00:00</time></trkpt><trkpt lat="43.149837" lon="19.294704"><ele>777.2</ele><time>2012-05-01T17:09:34.0000000+00:00</time></trkpt><trkpt lat="43.149837" lon="19.294704"><ele>777.2</ele><time>2012-05-01T17:09:39.0000000+00:00</time></trkpt><trkpt lat="43.149837" lon="19.294704"><ele>777.1</ele><time>2012-05-01T17:09:44.0000000+00:00</time></trkpt><trkpt lat="43.149837" lon="19.294704"><ele>777.1</ele><time>2012-05-01T17:09:49.0000000+00:00</time></trkpt><trkpt lat="43.149837" lon="19.294704"><ele>777.1</ele><time>2012-05-01T17:09:54.0000000+00:00</time></trkpt><trkpt lat="43.149837" lon="19.294704"><ele>777.1</ele><time>2012-05-01T17:09:59.0000000+00:00</time></trkpt><trkpt lat="43.149837" lon="19.294704"><ele>777.1</ele><time>2012-05-01T17:10:04.0000000+00:00</time></trkpt><trkpt lat="43.149837" lon="19.294704"><ele>777.1</ele><time>2012-05-01T17:10:09.0000000+00:00</time></trkpt><trkpt lat="43.149837" lon="19.294704"><ele>777.1</ele><time>2012-05-01T17:10:14.0000000+00:00</time></trkpt><trkpt lat="43.149837" lon="19.294704"><ele>777.1</ele><time>2012-05-01T17:10:19.0000000+00:00</time></trkpt><trkpt lat="43.149837" lon="19.294704"><ele>777.1</ele><time>2012-05-01T17:10:24.0000000+00:00</time></trkpt><trkpt lat="43.149837" lon="19.294704"><ele>777.1</ele><time>2012-05-01T17:10:29.0000000+00:00</time></trkpt><trkpt lat="43.149837" lon="19.294704"><ele>777.1</ele><time>2012-05-01T17:10:34.0000000+00:00</time></trkpt><trkpt lat="43.149837" lon="19.294704"><ele>777.1</ele><time>2012-05-01T17:10:39.0000000+00:00</time></trkpt><trkpt lat="43.149849" lon="19.29471"><ele>777.0</ele><time>2012-05-01T17:10:44.0000000+00:00</time></trkpt><trkpt lat="43.149879" lon="19.294691"><ele>776.2</ele><time>2012-05-01T17:10:49.0000000+00:00</time></trkpt><trkpt lat="43.149879" lon="19.294693"><ele>775.8</ele><time>2012-05-01T17:10:54.0000000+00:00</time></trkpt><trkpt lat="43.149879" lon="19.294693"><ele>775.8</ele><time>2012-05-01T17:10:59.0000000+00:00</time></trkpt><trkpt lat="43.149879" lon="19.294695"><ele>775.8</ele><time>2012-05-01T17:11:04.0000000+00:00</time></trkpt><trkpt lat="43.149879" lon="19.294695"><ele>775.8</ele><time>2012-05-01T17:11:09.0000000+00:00</time></trkpt><trkpt lat="43.149879" lon="19.294695"><ele>775.8</ele><time>2012-05-01T17:11:14.0000000+00:00</time></trkpt><trkpt lat="43.149879" lon="19.294695"><ele>775.8</ele><time>2012-05-01T17:11:19.0000000+00:00</time></trkpt><trkpt lat="43.149879" lon="19.294695"><ele>775.8</ele><time>2012-05-01T17:11:24.0000000+00:00</time></trkpt><trkpt lat="43.149879" lon="19.294695"><ele>775.8</ele><time>2012-05-01T17:11:29.0000000+00:00</time></trkpt><trkpt lat="43.149879" lon="19.294695"><ele>775.8</ele><time>2012-05-01T17:11:34.0000000+00:00</time></trkpt><trkpt lat="43.149921" lon="19.294752"><ele>775.8</ele><time>2012-05-01T17:11:39.0000000+00:00</time></trkpt><trkpt lat="43.150009" lon="19.294895"><ele>775.7</ele><time>2012-05-01T17:11:44.0000000+00:00</time></trkpt><trkpt lat="43.150131" lon="19.295048"><ele>775.4</ele><time>2012-05-01T17:11:49.0000000+00:00</time></trkpt><trkpt lat="43.150242" lon="19.29516"><ele>775.3</ele><time>2012-05-01T17:11:54.0000000+00:00</time></trkpt><trkpt lat="43.150368" lon="19.295319"><ele>773.9</ele><time>2012-05-01T17:11:59.0000000+00:00</time></trkpt><trkpt lat="43.150509" lon="19.295486"><ele>773.1</ele><time>2012-05-01T17:12:04.0000000+00:00</time></trkpt><trkpt lat="43.150673" lon="19.295677"><ele>772.9</ele><time>2012-05-01T17:12:09.0000000+00:00</time></trkpt><trkpt lat="43.150791" lon="19.295803"><ele>774.2</ele><time>2012-05-01T17:12:14.0000000+00:00</time></trkpt><trkpt lat="43.150879" lon="19.295883"><ele>775.7</ele><time>2012-05-01T17:12:19.0000000+00:00</time></trkpt><trkpt lat="43.150948" lon="19.295927"><ele>776.9</ele><time>2012-05-01T17:12:24.0000000+00:00</time></trkpt><trkpt lat="43.151012" lon="19.295967"><ele>776.8</ele><time>2012-05-01T17:12:29.0000000+00:00</time></trkpt><trkpt lat="43.151115" lon="19.296009"><ele>777.3</ele><time>2012-05-01T17:12:34.0000000+00:00</time></trkpt><trkpt lat="43.151192" lon="19.296053"><ele>777.5</ele><time>2012-05-01T17:12:39.0000000+00:00</time></trkpt><trkpt lat="43.151287" lon="19.296076"><ele>777.8</ele><time>2012-05-01T17:12:44.0000000+00:00</time></trkpt><trkpt lat="43.151398" lon="19.296095"><ele>778.3</ele><time>2012-05-01T17:12:49.0000000+00:00</time></trkpt><trkpt lat="43.151501" lon="19.296101"><ele>778.3</ele><time>2012-05-01T17:12:54.0000000+00:00</time></trkpt><trkpt lat="43.151581" lon="19.296101"><ele>780.1</ele><time>2012-05-01T17:12:59.0000000+00:00</time></trkpt><trkpt lat="43.151642" lon="19.296099"><ele>781.8</ele><time>2012-05-01T17:13:04.0000000+00:00</time></trkpt><trkpt lat="43.151737" lon="19.296101"><ele>783.5</ele><time>2012-05-01T17:13:09.0000000+00:00</time></trkpt><trkpt lat="43.151859" lon="19.296127"><ele>781.3</ele><time>2012-05-01T17:13:14.0000000+00:00</time></trkpt><trkpt lat="43.151962" lon="19.296127"><ele>783.7</ele><time>2012-05-01T17:13:19.0000000+00:00</time></trkpt><trkpt lat="43.152069" lon="19.296137"><ele>786.4</ele><time>2012-05-01T17:13:24.0000000+00:00</time></trkpt><trkpt lat="43.152157" lon="19.296135"><ele>790.1</ele><time>2012-05-01T17:13:29.0000000+00:00</time></trkpt><trkpt lat="43.152229" lon="19.296148"><ele>792.3</ele><time>2012-05-01T17:13:34.0000000+00:00</time></trkpt><trkpt lat="43.152325" lon="19.296167"><ele>795.1</ele><time>2012-05-01T17:13:39.0000000+00:00</time></trkpt><trkpt lat="43.152435" lon="19.296221"><ele>790.9</ele><time>2012-05-01T17:13:44.0000000+00:00</time></trkpt><trkpt lat="43.152534" lon="19.296246"><ele>791.8</ele><time>2012-05-01T17:13:49.0000000+00:00</time></trkpt><trkpt lat="43.152618" lon="19.296249"><ele>793.5</ele><time>2012-05-01T17:13:54.0000000+00:00</time></trkpt><trkpt lat="43.152687" lon="19.296246"><ele>796.6</ele><time>2012-05-01T17:13:59.0000000+00:00</time></trkpt><trkpt lat="43.152756" lon="19.296217"><ele>799.9</ele><time>2012-05-01T17:14:04.0000000+00:00</time></trkpt><trkpt lat="43.152805" lon="19.296188"><ele>802.2</ele><time>2012-05-01T17:14:09.0000000+00:00</time></trkpt><trkpt lat="43.152897" lon="19.29616"><ele>803.0</ele><time>2012-05-01T17:14:14.0000000+00:00</time></trkpt><trkpt lat="43.153011" lon="19.296143"><ele>800.1</ele><time>2012-05-01T17:14:19.0000000+00:00</time></trkpt><trkpt lat="43.153114" lon="19.296125"><ele>795.5</ele><time>2012-05-01T17:14:24.0000000+00:00</time></trkpt><trkpt lat="43.153191" lon="19.296074"><ele>795.6</ele><time>2012-05-01T17:14:29.0000000+00:00</time></trkpt><trkpt lat="43.153267" lon="19.296013"><ele>795.7</ele><time>2012-05-01T17:14:34.0000000+00:00</time></trkpt><trkpt lat="43.153347" lon="19.295956"><ele>794.8</ele><time>2012-05-01T17:14:39.0000000+00:00</time></trkpt><trkpt lat="43.153427" lon="19.295887"><ele>795.0</ele><time>2012-05-01T17:14:44.0000000+00:00</time></trkpt><trkpt lat="43.153503" lon="19.295822"><ele>795.8</ele><time>2012-05-01T17:14:49.0000000+00:00</time></trkpt><trkpt lat="43.153584" lon="19.295748"><ele>795.6</ele><time>2012-05-01T17:14:54.0000000+00:00</time></trkpt><trkpt lat="43.153667" lon="19.295683"><ele>796.5</ele><time>2012-05-01T17:14:59.0000000+00:00</time></trkpt><trkpt lat="43.153744" lon="19.295622"><ele>799.4</ele><time>2012-05-01T17:15:04.0000000+00:00</time></trkpt><trkpt lat="43.153839" lon="19.295582"><ele>800.4</ele><time>2012-05-01T17:15:09.0000000+00:00</time></trkpt><trkpt lat="43.153931" lon="19.295547"><ele>800.5</ele><time>2012-05-01T17:15:14.0000000+00:00</time></trkpt><trkpt lat="43.154022" lon="19.29554"><ele>801.7</ele><time>2012-05-01T17:15:19.0000000+00:00</time></trkpt><trkpt lat="43.154087" lon="19.295532"><ele>804.1</ele><time>2012-05-01T17:15:24.0000000+00:00</time></trkpt><trkpt lat="43.154171" lon="19.295527"><ele>806.5</ele><time>2012-05-01T17:15:29.0000000+00:00</time></trkpt><trkpt lat="43.154255" lon="19.295542"><ele>808.8</ele><time>2012-05-01T17:15:34.0000000+00:00</time></trkpt><trkpt lat="43.154366" lon="19.295605"><ele>803.8</ele><time>2012-05-01T17:15:39.0000000+00:00</time></trkpt><trkpt lat="43.154465" lon="19.295643"><ele>805.0</ele><time>2012-05-01T17:15:44.0000000+00:00</time></trkpt><trkpt lat="43.154549" lon="19.295694"><ele>804.9</ele><time>2012-05-01T17:15:49.0000000+00:00</time></trkpt><trkpt lat="43.154629" lon="19.295738"><ele>805.6</ele><time>2012-05-01T17:15:54.0000000+00:00</time></trkpt><trkpt lat="43.154705" lon="19.295784"><ele>806.3</ele><time>2012-05-01T17:15:59.0000000+00:00</time></trkpt><trkpt lat="43.154785" lon="19.295839"><ele>806.0</ele><time>2012-05-01T17:16:04.0000000+00:00</time></trkpt><trkpt lat="43.154858" lon="19.295889"><ele>806.2</ele><time>2012-05-01T17:16:09.0000000+00:00</time></trkpt><trkpt lat="43.154934" lon="19.295942"><ele>807.1</ele><time>2012-05-01T17:16:14.0000000+00:00</time></trkpt><trkpt lat="43.155014" lon="19.295996"><ele>807.9</ele><time>2012-05-01T17:16:19.0000000+00:00</time></trkpt><trkpt lat="43.155083" lon="19.296055"><ele>809.9</ele><time>2012-05-01T17:16:24.0000000+00:00</time></trkpt><trkpt lat="43.155163" lon="19.296103"><ele>810.9</ele><time>2012-05-01T17:16:29.0000000+00:00</time></trkpt><trkpt lat="43.155247" lon="19.296165"><ele>811.0</ele><time>2012-05-01T17:16:34.0000000+00:00</time></trkpt><trkpt lat="43.155331" lon="19.296217"><ele>811.5</ele><time>2012-05-01T17:16:39.0000000+00:00</time></trkpt><trkpt lat="43.155411" lon="19.296267"><ele>812.3</ele><time>2012-05-01T17:16:44.0000000+00:00</time></trkpt><trkpt lat="43.155499" lon="19.296289"><ele>813.0</ele><time>2012-05-01T17:16:49.0000000+00:00</time></trkpt><trkpt lat="43.155579" lon="19.296331"><ele>813.9</ele><time>2012-05-01T17:16:54.0000000+00:00</time></trkpt><trkpt lat="43.155663" lon="19.296364"><ele>814.6</ele><time>2012-05-01T17:16:59.0000000+00:00</time></trkpt><trkpt lat="43.155754" lon="19.296394"><ele>815.5</ele><time>2012-05-01T17:17:04.0000000+00:00</time></trkpt><trkpt lat="43.155849" lon="19.296412"><ele>816.6</ele><time>2012-05-01T17:17:09.0000000+00:00</time></trkpt><trkpt lat="43.155945" lon="19.296432"><ele>817.7</ele><time>2012-05-01T17:17:14.0000000+00:00</time></trkpt><trkpt lat="43.15604" lon="19.29644"><ele>818.4</ele><time>2012-05-01T17:17:19.0000000+00:00</time></trkpt><trkpt lat="43.156139" lon="19.296453"><ele>819.6</ele><time>2012-05-01T17:17:24.0000000+00:00</time></trkpt><trkpt lat="43.156242" lon="19.296459"><ele>820.3</ele><time>2012-05-01T17:17:29.0000000+00:00</time></trkpt><trkpt lat="43.156345" lon="19.296463"><ele>820.9</ele><time>2012-05-01T17:17:34.0000000+00:00</time></trkpt><trkpt lat="43.156441" lon="19.296457"><ele>821.6</ele><time>2012-05-01T17:17:39.0000000+00:00</time></trkpt><trkpt lat="43.156544" lon="19.296446"><ele>821.2</ele><time>2012-05-01T17:17:44.0000000+00:00</time></trkpt><trkpt lat="43.156647" lon="19.296429"><ele>822.1</ele><time>2012-05-01T17:17:49.0000000+00:00</time></trkpt><trkpt lat="43.156754" lon="19.2964"><ele>822.7</ele><time>2012-05-01T17:17:54.0000000+00:00</time></trkpt><trkpt lat="43.156834" lon="19.29635"><ele>822.8</ele><time>2012-05-01T17:17:59.0000000+00:00</time></trkpt><trkpt lat="43.15691" lon="19.296326"><ele>823.6</ele><time>2012-05-01T17:18:04.0000000+00:00</time></trkpt><trkpt lat="43.157001" lon="19.296274"><ele>824.6</ele><time>2012-05-01T17:18:09.0000000+00:00</time></trkpt><trkpt lat="43.157078" lon="19.296207"><ele>825.8</ele><time>2012-05-01T17:18:14.0000000+00:00</time></trkpt><trkpt lat="43.157166" lon="19.296131"><ele>826.5</ele><time>2012-05-01T17:18:19.0000000+00:00</time></trkpt><trkpt lat="43.157223" lon="19.29607"><ele>827.3</ele><time>2012-05-01T17:18:24.0000000+00:00</time></trkpt><trkpt lat="43.157249" lon="19.296028"><ele>828.4</ele><time>2012-05-01T17:18:29.0000000+00:00</time></trkpt><trkpt lat="43.157299" lon="19.295954"><ele>828.5</ele><time>2012-05-01T17:18:34.0000000+00:00</time></trkpt><trkpt lat="43.15736" lon="19.295877"><ele>829.6</ele><time>2012-05-01T17:18:39.0000000+00:00</time></trkpt><trkpt lat="43.15741" lon="19.295773"><ele>830.0</ele><time>2012-05-01T17:18:44.0000000+00:00</time></trkpt><trkpt lat="43.157452" lon="19.295668"><ele>830.5</ele><time>2012-05-01T17:18:49.0000000+00:00</time></trkpt><trkpt lat="43.157486" lon="19.295555"><ele>830.7</ele><time>2012-05-01T17:18:54.0000000+00:00</time></trkpt><trkpt lat="43.157516" lon="19.295444"><ele>831.3</ele><time>2012-05-01T17:18:59.0000000+00:00</time></trkpt><trkpt lat="43.157547" lon="19.295322"><ele>831.5</ele><time>2012-05-01T17:19:04.0000000+00:00</time></trkpt><trkpt lat="43.157574" lon="19.2952"><ele>831.7</ele><time>2012-05-01T17:19:09.0000000+00:00</time></trkpt><trkpt lat="43.157604" lon="19.295078"><ele>832.5</ele><time>2012-05-01T17:19:14.0000000+00:00</time></trkpt><trkpt lat="43.157639" lon="19.294949"><ele>833.6</ele><time>2012-05-01T17:19:19.0000000+00:00</time></trkpt><trkpt lat="43.157677" lon="19.294813"><ele>833.2</ele><time>2012-05-01T17:19:24.0000000+00:00</time></trkpt><trkpt lat="43.157734" lon="19.294697"><ele>833.4</ele><time>2012-05-01T17:19:29.0000000+00:00</time></trkpt><trkpt lat="43.157803" lon="19.294573"><ele>832.9</ele><time>2012-05-01T17:19:34.0000000+00:00</time></trkpt><trkpt lat="43.157864" lon="19.294451"><ele>833.4</ele><time>2012-05-01T17:19:39.0000000+00:00</time></trkpt><trkpt lat="43.157948" lon="19.294336"><ele>834.9</ele><time>2012-05-01T17:19:44.0000000+00:00</time></trkpt><trkpt lat="43.158031" lon="19.294235"><ele>835.9</ele><time>2012-05-01T17:19:49.0000000+00:00</time></trkpt><trkpt lat="43.158104" lon="19.294176"><ele>837.0</ele><time>2012-05-01T17:19:54.0000000+00:00</time></trkpt><trkpt lat="43.158226" lon="19.294102"><ele>838.8</ele><time>2012-05-01T17:19:59.0000000+00:00</time></trkpt><trkpt lat="43.158367" lon="19.294031"><ele>840.1</ele><time>2012-05-01T17:20:04.0000000+00:00</time></trkpt><trkpt lat="43.158489" lon="19.293976"><ele>841.8</ele><time>2012-05-01T17:20:09.0000000+00:00</time></trkpt><trkpt lat="43.158607" lon="19.293953"><ele>843.9</ele><time>2012-05-01T17:20:14.0000000+00:00</time></trkpt><trkpt lat="43.158699" lon="19.293959"><ele>847.2</ele><time>2012-05-01T17:20:19.0000000+00:00</time></trkpt><trkpt lat="43.158829" lon="19.29397"><ele>846.5</ele><time>2012-05-01T17:20:24.0000000+00:00</time></trkpt><trkpt lat="43.158913" lon="19.293995"><ele>846.0</ele><time>2012-05-01T17:20:29.0000000+00:00</time></trkpt><trkpt lat="43.158932" lon="19.293924"><ele>846.2</ele><time>2012-05-01T17:20:34.0000000+00:00</time></trkpt><trkpt lat="43.158894" lon="19.293688"><ele>846.0</ele><time>2012-05-01T17:20:39.0000000+00:00</time></trkpt><trkpt lat="43.158901" lon="19.293352"><ele>840.7</ele><time>2012-05-01T17:20:44.0000000+00:00</time></trkpt><trkpt lat="43.158939" lon="19.292925"><ele>835.9</ele><time>2012-05-01T17:20:49.0000000+00:00</time></trkpt><trkpt lat="43.158978" lon="19.292685"><ele>835.5</ele><time>2012-05-01T17:20:54.0000000+00:00</time></trkpt><trkpt lat="43.158981" lon="19.292625"><ele>835.7</ele><time>2012-05-01T17:20:59.0000000+00:00</time></trkpt><trkpt lat="43.158974" lon="19.292624"><ele>835.3</ele><time>2012-05-01T17:21:04.0000000+00:00</time></trkpt><trkpt lat="43.158974" lon="19.292616"><ele>835.2</ele><time>2012-05-01T17:21:09.0000000+00:00</time></trkpt><trkpt lat="43.158978" lon="19.292616"><ele>835.2</ele><time>2012-05-01T17:21:14.0000000+00:00</time></trkpt><trkpt lat="43.158978" lon="19.292616"><ele>835.3</ele><time>2012-05-01T17:21:19.0000000+00:00</time></trkpt><trkpt lat="43.158978" lon="19.292614"><ele>835.5</ele><time>2012-05-01T17:21:24.0000000+00:00</time></trkpt><trkpt lat="43.158974" lon="19.292612"><ele>835.6</ele><time>2012-05-01T17:21:29.0000000+00:00</time></trkpt><trkpt lat="43.158978" lon="19.29261"><ele>835.8</ele><time>2012-05-01T17:21:34.0000000+00:00</time></trkpt><trkpt lat="43.158978" lon="19.29261"><ele>835.9</ele><time>2012-05-01T17:21:39.0000000+00:00</time></trkpt><trkpt lat="43.158978" lon="19.29261"><ele>835.9</ele><time>2012-05-01T17:21:44.0000000+00:00</time></trkpt><trkpt lat="43.158978" lon="19.29261"><ele>835.9</ele><time>2012-05-01T17:21:49.0000000+00:00</time></trkpt><trkpt lat="43.158978" lon="19.29261"><ele>835.9</ele><time>2012-05-01T17:21:54.0000000+00:00</time></trkpt><trkpt lat="43.158978" lon="19.29261"><ele>835.9</ele><time>2012-05-01T17:21:59.0000000+00:00</time></trkpt><trkpt lat="43.158978" lon="19.29261"><ele>835.9</ele><time>2012-05-01T17:22:04.0000000+00:00</time></trkpt></trkseg><trkseg><trkpt lat="43.158951" lon="19.29287"><ele>848.3</ele><time>2012-05-02T04:10:35.0000000+00:00</time></trkpt><trkpt lat="43.158958" lon="19.292862"><ele>846.2</ele><time>2012-05-02T04:10:40.0000000+00:00</time></trkpt><trkpt lat="43.15897" lon="19.292868"><ele>845.5</ele><time>2012-05-02T04:10:45.0000000+00:00</time></trkpt><trkpt lat="43.15897" lon="19.292858"><ele>843.4</ele><time>2012-05-02T04:10:50.0000000+00:00</time></trkpt><trkpt lat="43.158966" lon="19.29286"><ele>843.6</ele><time>2012-05-02T04:10:55.0000000+00:00</time></trkpt><trkpt lat="43.158966" lon="19.292852"><ele>843.0</ele><time>2012-05-02T04:11:00.0000000+00:00</time></trkpt><trkpt lat="43.158962" lon="19.292854"><ele>843.1</ele><time>2012-05-02T04:11:05.0000000+00:00</time></trkpt><trkpt lat="43.158966" lon="19.292856"><ele>843.3</ele><time>2012-05-02T04:11:10.0000000+00:00</time></trkpt><trkpt lat="43.158966" lon="19.292856"><ele>843.3</ele><time>2012-05-02T04:11:15.0000000+00:00</time></trkpt><trkpt lat="43.158966" lon="19.292856"><ele>843.3</ele><time>2012-05-02T04:11:20.0000000+00:00</time></trkpt><trkpt lat="43.158966" lon="19.292856"><ele>843.3</ele><time>2012-05-02T04:11:25.0000000+00:00</time></trkpt><trkpt lat="43.158966" lon="19.292856"><ele>843.3</ele><time>2012-05-02T04:11:30.0000000+00:00</time></trkpt><trkpt lat="43.158966" lon="19.292856"><ele>843.3</ele><time>2012-05-02T04:11:35.0000000+00:00</time></trkpt><trkpt lat="43.158966" lon="19.292856"><ele>843.3</ele><time>2012-05-02T04:11:40.0000000+00:00</time></trkpt><trkpt lat="43.158966" lon="19.292856"><ele>843.3</ele><time>2012-05-02T04:11:45.0000000+00:00</time></trkpt><trkpt lat="43.158966" lon="19.292856"><ele>843.3</ele><time>2012-05-02T04:11:50.0000000+00:00</time></trkpt><trkpt lat="43.158966" lon="19.292856"><ele>843.3</ele><time>2012-05-02T04:11:55.0000000+00:00</time></trkpt><trkpt lat="43.158966" lon="19.292856"><ele>843.4</ele><time>2012-05-02T04:12:00.0000000+00:00</time></trkpt><trkpt lat="43.158966" lon="19.292856"><ele>843.4</ele><time>2012-05-02T04:12:05.0000000+00:00</time></trkpt><trkpt lat="43.158962" lon="19.292873"><ele>843.3</ele><time>2012-05-02T04:12:10.0000000+00:00</time></trkpt><trkpt lat="43.158939" lon="19.293011"><ele>844.3</ele><time>2012-05-02T04:12:15.0000000+00:00</time></trkpt><trkpt lat="43.158913" lon="19.293215"><ele>845.5</ele><time>2012-05-02T04:12:20.0000000+00:00</time></trkpt><trkpt lat="43.15889" lon="19.293409"><ele>847.2</ele><time>2012-05-02T04:12:25.0000000+00:00</time></trkpt><trkpt lat="43.158882" lon="19.293594"><ele>849.6</ele><time>2012-05-02T04:12:30.0000000+00:00</time></trkpt><trkpt lat="43.158909" lon="19.293781"><ele>850.8</ele><time>2012-05-02T04:12:35.0000000+00:00</time></trkpt><trkpt lat="43.158951" lon="19.293932"><ele>852.4</ele><time>2012-05-02T04:12:40.0000000+00:00</time></trkpt><trkpt lat="43.158939" lon="19.294039"><ele>852.9</ele><time>2012-05-02T04:12:45.0000000+00:00</time></trkpt><trkpt lat="43.158775" lon="19.293964"><ele>851.1</ele><time>2012-05-02T04:12:50.0000000+00:00</time></trkpt><trkpt lat="43.15844" lon="19.293936"><ele>849.2</ele><time>2012-05-02T04:12:55.0000000+00:00</time></trkpt><trkpt lat="43.158085" lon="19.294132"><ele>846.5</ele><time>2012-05-02T04:13:00.0000000+00:00</time></trkpt><trkpt lat="43.157753" lon="19.294603"><ele>842.5</ele><time>2012-05-02T04:13:05.0000000+00:00</time></trkpt><trkpt lat="43.157551" lon="19.295221"><ele>838.8</ele><time>2012-05-02T04:13:10.0000000+00:00</time></trkpt><trkpt lat="43.15736" lon="19.295813"><ele>833.8</ele><time>2012-05-02T04:13:15.0000000+00:00</time></trkpt><trkpt lat="43.157001" lon="19.296246"><ele>829.5</ele><time>2012-05-02T04:13:20.0000000+00:00</time></trkpt><trkpt lat="43.156513" lon="19.296402"><ele>825.8</ele><time>2012-05-02T04:13:25.0000000+00:00</time></trkpt><trkpt lat="43.156006" lon="19.296387"><ele>822.2</ele><time>2012-05-02T04:13:30.0000000+00:00</time></trkpt><trkpt lat="43.155495" lon="19.296259"><ele>817.7</ele><time>2012-05-02T04:13:35.0000000+00:00</time></trkpt><trkpt lat="43.155003" lon="19.295965"><ele>812.4</ele><time>2012-05-02T04:13:40.0000000+00:00</time></trkpt><trkpt lat="43.154514" lon="19.29563"><ele>807.4</ele><time>2012-05-02T04:13:45.0000000+00:00</time></trkpt><trkpt lat="43.153965" lon="19.295488"><ele>802.8</ele><time>2012-05-02T04:13:50.0000000+00:00</time></trkpt><trkpt lat="43.153439" lon="19.295786"><ele>798.7</ele><time>2012-05-02T04:13:55.0000000+00:00</time></trkpt><trkpt lat="43.15292" lon="19.296154"><ele>794.3</ele><time>2012-05-02T04:14:00.0000000+00:00</time></trkpt><trkpt lat="43.152355" lon="19.29615"><ele>789.3</ele><time>2012-05-02T04:14:05.0000000+00:00</time></trkpt><trkpt lat="43.151768" lon="19.296026"><ele>785.4</ele><time>2012-05-02T04:14:10.0000000+00:00</time></trkpt><trkpt lat="43.151207" lon="19.295984"><ele>780.6</ele><time>2012-05-02T04:14:15.0000000+00:00</time></trkpt><trkpt lat="43.150715" lon="19.295712"><ele>777.4</ele><time>2012-05-02T04:14:20.0000000+00:00</time></trkpt><trkpt lat="43.150341" lon="19.295265"><ele>776.4</ele><time>2012-05-02T04:14:25.0000000+00:00</time></trkpt><trkpt lat="43.149975" lon="19.294809"><ele>776.3</ele><time>2012-05-02T04:14:30.0000000+00:00</time></trkpt><trkpt lat="43.149605" lon="19.294363"><ele>776.6</ele><time>2012-05-02T04:14:35.0000000+00:00</time></trkpt><trkpt lat="43.149269" lon="19.293869"><ele>777.1</ele><time>2012-05-02T04:14:40.0000000+00:00</time></trkpt><trkpt lat="43.148979" lon="19.293312"><ele>777.8</ele><time>2012-05-02T04:14:45.0000000+00:00</time></trkpt><trkpt lat="43.148735" lon="19.292723"><ele>778.5</ele><time>2012-05-02T04:14:50.0000000+00:00</time></trkpt><trkpt lat="43.148556" lon="19.292133"><ele>780.6</ele><time>2012-05-02T04:14:55.0000000+00:00</time></trkpt><trkpt lat="43.148586" lon="19.29143"><ele>785.0</ele><time>2012-05-02T04:15:00.0000000+00:00</time></trkpt><trkpt lat="43.148724" lon="19.290646"><ele>788.6</ele><time>2012-05-02T04:15:05.0000000+00:00</time></trkpt><trkpt lat="43.148872" lon="19.289888"><ele>793.1</ele><time>2012-05-02T04:15:10.0000000+00:00</time></trkpt><trkpt lat="43.149281" lon="19.289423"><ele>795.6</ele><time>2012-05-02T04:15:15.0000000+00:00</time></trkpt><trkpt lat="43.149876" lon="19.289522"><ele>798.1</ele><time>2012-05-02T04:15:20.0000000+00:00</time></trkpt><trkpt lat="43.15049" lon="19.289665"><ele>801.6</ele><time>2012-05-02T04:15:25.0000000+00:00</time></trkpt><trkpt lat="43.151131" lon="19.289375"><ele>805.6</ele><time>2012-05-02T04:15:30.0000000+00:00</time></trkpt><trkpt lat="43.151623" lon="19.28857"><ele>810.4</ele><time>2012-05-02T04:15:35.0000000+00:00</time></trkpt><trkpt lat="43.15202" lon="19.287804"><ele>814.3</ele><time>2012-05-02T04:15:40.0000000+00:00</time></trkpt><trkpt lat="43.151875" lon="19.286989"><ele>818.8</ele><time>2012-05-02T04:15:45.0000000+00:00</time></trkpt><trkpt lat="43.151543" lon="19.286137"><ele>822.9</ele><time>2012-05-02T04:15:50.0000000+00:00</time></trkpt><trkpt lat="43.151413" lon="19.285219"><ele>827.0</ele><time>2012-05-02T04:15:55.0000000+00:00</time></trkpt><trkpt lat="43.151596" lon="19.284498"><ele>831.7</ele><time>2012-05-02T04:16:00.0000000+00:00</time></trkpt><trkpt lat="43.151596" lon="19.283783"><ele>833.9</ele><time>2012-05-02T04:16:05.0000000+00:00</time></trkpt><trkpt lat="43.151619" lon="19.283054"><ele>837.0</ele><time>2012-05-02T04:16:10.0000000+00:00</time></trkpt><trkpt lat="43.151779" lon="19.282379"><ele>840.5</ele><time>2012-05-02T04:16:15.0000000+00:00</time></trkpt><trkpt lat="43.151623" lon="19.281616"><ele>840.9</ele><time>2012-05-02T04:16:20.0000000+00:00</time></trkpt><trkpt lat="43.151451" lon="19.280834"><ele>842.4</ele><time>2012-05-02T04:16:25.0000000+00:00</time></trkpt><trkpt lat="43.151474" lon="19.279974"><ele>843.6</ele><time>2012-05-02T04:16:30.0000000+00:00</time></trkpt><trkpt lat="43.151508" lon="19.279087"><ele>844.5</ele><time>2012-05-02T04:16:35.0000000+00:00</time></trkpt><trkpt lat="43.151596" lon="19.27821"><ele>846.7</ele><time>2012-05-02T04:16:40.0000000+00:00</time></trkpt><trkpt lat="43.15189" lon="19.277611"><ele>847.1</ele><time>2012-05-02T04:16:45.0000000+00:00</time></trkpt><trkpt lat="43.152138" lon="19.277256"><ele>848.4</ele><time>2012-05-02T04:16:50.0000000+00:00</time></trkpt><trkpt lat="43.151913" lon="19.277191"><ele>849.0</ele><time>2012-05-02T04:16:55.0000000+00:00</time></trkpt><trkpt lat="43.151657" lon="19.277569"><ele>851.6</ele><time>2012-05-02T04:17:00.0000000+00:00</time></trkpt><trkpt lat="43.151459" lon="19.278063"><ele>855.2</ele><time>2012-05-02T04:17:05.0000000+00:00</time></trkpt><trkpt lat="43.151367" lon="19.278721"><ele>856.6</ele><time>2012-05-02T04:17:10.0000000+00:00</time></trkpt><trkpt lat="43.151253" lon="19.279402"><ele>858.9</ele><time>2012-05-02T04:17:15.0000000+00:00</time></trkpt><trkpt lat="43.15115" lon="19.280106"><ele>861.9</ele><time>2012-05-02T04:17:20.0000000+00:00</time></trkpt><trkpt lat="43.15107" lon="19.280834"><ele>864.1</ele><time>2012-05-02T04:17:25.0000000+00:00</time></trkpt><trkpt lat="43.151108" lon="19.281555"><ele>867.0</ele><time>2012-05-02T04:17:30.0000000+00:00</time></trkpt><trkpt lat="43.151146" lon="19.282249"><ele>869.0</ele><time>2012-05-02T04:17:35.0000000+00:00</time></trkpt><trkpt lat="43.150982" lon="19.282913"><ele>871.7</ele><time>2012-05-02T04:17:40.0000000+00:00</time></trkpt><trkpt lat="43.150658" lon="19.283632"><ele>876.0</ele><time>2012-05-02T04:17:45.0000000+00:00</time></trkpt><trkpt lat="43.150467" lon="19.2845"><ele>878.6</ele><time>2012-05-02T04:17:50.0000000+00:00</time></trkpt><trkpt lat="43.150383" lon="19.285503"><ele>885.1</ele><time>2012-05-02T04:17:55.0000000+00:00</time></trkpt><trkpt lat="43.15041" lon="19.286467"><ele>889.6</ele><time>2012-05-02T04:18:00.0000000+00:00</time></trkpt><trkpt lat="43.150589" lon="19.287184"><ele>892.4</ele><time>2012-05-02T04:18:05.0000000+00:00</time></trkpt><trkpt lat="43.15062" lon="19.287449"><ele>898.2</ele><time>2012-05-02T04:18:10.0000000+00:00</time></trkpt><trkpt lat="43.150467" lon="19.287125"><ele>900.1</ele><time>2012-05-02T04:18:15.0000000+00:00</time></trkpt><trkpt lat="43.150349" lon="19.28656"><ele>902.8</ele><time>2012-05-02T04:18:20.0000000+00:00</time></trkpt><trkpt lat="43.150211" lon="19.285772"><ele>907.2</ele><time>2012-05-02T04:18:25.0000000+00:00</time></trkpt><trkpt lat="43.150154" lon="19.284901"><ele>911.8</ele><time>2012-05-02T04:18:30.0000000+00:00</time></trkpt><trkpt lat="43.150085" lon="19.284081"><ele>916.3</ele><time>2012-05-02T04:18:35.0000000+00:00</time></trkpt><trkpt lat="43.15023" lon="19.283236"><ele>920.7</ele><time>2012-05-02T04:18:40.0000000+00:00</time></trkpt><trkpt lat="43.150391" lon="19.282406"><ele>925.5</ele><time>2012-05-02T04:18:45.0000000+00:00</time></trkpt><trkpt lat="43.150394" lon="19.281473"><ele>930.2</ele><time>2012-05-02T04:18:50.0000000+00:00</time></trkpt><trkpt lat="43.150204" lon="19.28051"><ele>935.2</ele><time>2012-05-02T04:18:55.0000000+00:00</time></trkpt><trkpt lat="43.150021" lon="19.279631"><ele>939.5</ele><time>2012-05-02T04:19:00.0000000+00:00</time></trkpt><trkpt lat="43.150024" lon="19.278719"><ele>944.3</ele><time>2012-05-02T04:19:05.0000000+00:00</time></trkpt><trkpt lat="43.149937" lon="19.277805"><ele>949.0</ele><time>2012-05-02T04:19:10.0000000+00:00</time></trkpt><trkpt lat="43.150089" lon="19.276808"><ele>954.2</ele><time>2012-05-02T04:19:15.0000000+00:00</time></trkpt><trkpt lat="43.150372" lon="19.275867"><ele>960.1</ele><time>2012-05-02T04:19:20.0000000+00:00</time></trkpt><trkpt lat="43.150738" lon="19.275211"><ele>964.2</ele><time>2012-05-02T04:19:25.0000000+00:00</time></trkpt><trkpt lat="43.151134" lon="19.274691"><ele>968.5</ele><time>2012-05-02T04:19:30.0000000+00:00</time></trkpt><trkpt lat="43.151333" lon="19.27397"><ele>972.8</ele><time>2012-05-02T04:19:35.0000000+00:00</time></trkpt><trkpt lat="43.151718" lon="19.273285"><ele>976.9</ele><time>2012-05-02T04:19:40.0000000+00:00</time></trkpt><trkpt lat="43.152157" lon="19.272655"><ele>981.2</ele><time>2012-05-02T04:19:45.0000000+00:00</time></trkpt><trkpt lat="43.152637" lon="19.27232"><ele>984.7</ele><time>2012-05-02T04:19:50.0000000+00:00</time></trkpt><trkpt lat="43.153206" lon="19.272316"><ele>988.4</ele><time>2012-05-02T04:19:55.0000000+00:00</time></trkpt><trkpt lat="43.153786" lon="19.272167"><ele>992.1</ele><time>2012-05-02T04:20:00.0000000+00:00</time></trkpt><trkpt lat="43.154392" lon="19.271719"><ele>996.7</ele><time>2012-05-02T04:20:05.0000000+00:00</time></trkpt><trkpt lat="43.15501" lon="19.271215"><ele>1001.7</ele><time>2012-05-02T04:20:10.0000000+00:00</time></trkpt><trkpt lat="43.155605" lon="19.270519"><ele>1006.8</ele><time>2012-05-02T04:20:15.0000000+00:00</time></trkpt><trkpt lat="43.156254" lon="19.269789"><ele>1012.1</ele><time>2012-05-02T04:20:20.0000000+00:00</time></trkpt><trkpt lat="43.156929" lon="19.269054"><ele>1017.2</ele><time>2012-05-02T04:20:25.0000000+00:00</time></trkpt><trkpt lat="43.157478" lon="19.268486"><ele>1021.5</ele><time>2012-05-02T04:20:30.0000000+00:00</time></trkpt><trkpt lat="43.15786" lon="19.26804"><ele>1025.6</ele><time>2012-05-02T04:20:35.0000000+00:00</time></trkpt><trkpt lat="43.158073" lon="19.267387"><ele>1029.9</ele><time>2012-05-02T04:20:40.0000000+00:00</time></trkpt><trkpt lat="43.158333" lon="19.266779"><ele>1033.8</ele><time>2012-05-02T04:20:45.0000000+00:00</time></trkpt><trkpt lat="43.158478" lon="19.266037"><ele>1037.7</ele><time>2012-05-02T04:20:50.0000000+00:00</time></trkpt><trkpt lat="43.158443" lon="19.265341"><ele>1041.6</ele><time>2012-05-02T04:20:55.0000000+00:00</time></trkpt><trkpt lat="43.158314" lon="19.264639"><ele>1045.5</ele><time>2012-05-02T04:21:00.0000000+00:00</time></trkpt><trkpt lat="43.158623" lon="19.263964"><ele>1050.5</ele><time>2012-05-02T04:21:05.0000000+00:00</time></trkpt><trkpt lat="43.158958" lon="19.263191"><ele>1055.1</ele><time>2012-05-02T04:21:10.0000000+00:00</time></trkpt><trkpt lat="43.15947" lon="19.262625"><ele>1058.5</ele><time>2012-05-02T04:21:15.0000000+00:00</time></trkpt><trkpt lat="43.160099" lon="19.262201"><ele>1064.8</ele><time>2012-05-02T04:21:20.0000000+00:00</time></trkpt><trkpt lat="43.160553" lon="19.261885"><ele>1068.2</ele><time>2012-05-02T04:21:25.0000000+00:00</time></trkpt><trkpt lat="43.160572" lon="19.261587"><ele>1069.3</ele><time>2012-05-02T04:21:30.0000000+00:00</time></trkpt><trkpt lat="43.160267" lon="19.261778"><ele>1068.4</ele><time>2012-05-02T04:21:35.0000000+00:00</time></trkpt><trkpt lat="43.15984" lon="19.261969"><ele>1069.9</ele><time>2012-05-02T04:21:40.0000000+00:00</time></trkpt><trkpt lat="43.159233" lon="19.262005"><ele>1074.4</ele><time>2012-05-02T04:21:45.0000000+00:00</time></trkpt><trkpt lat="43.15863" lon="19.262096"><ele>1078.7</ele><time>2012-05-02T04:21:50.0000000+00:00</time></trkpt><trkpt lat="43.158031" lon="19.262472"><ele>1083.4</ele><time>2012-05-02T04:21:55.0000000+00:00</time></trkpt><trkpt lat="43.157478" lon="19.262974"><ele>1087.6</ele><time>2012-05-02T04:22:00.0000000+00:00</time></trkpt><trkpt lat="43.156887" lon="19.263304"><ele>1091.2</ele><time>2012-05-02T04:22:05.0000000+00:00</time></trkpt><trkpt lat="43.156487" lon="19.263931"><ele>1096.0</ele><time>2012-05-02T04:22:10.0000000+00:00</time></trkpt><trkpt lat="43.155865" lon="19.264315"><ele>1100.0</ele><time>2012-05-02T04:22:15.0000000+00:00</time></trkpt><trkpt lat="43.155281" lon="19.264954"><ele>1103.9</ele><time>2012-05-02T04:22:20.0000000+00:00</time></trkpt><trkpt lat="43.154697" lon="19.265474"><ele>1109.2</ele><time>2012-05-02T04:22:25.0000000+00:00</time></trkpt><trkpt lat="43.154087" lon="19.265841"><ele>1115.2</ele><time>2012-05-02T04:22:30.0000000+00:00</time></trkpt><trkpt lat="43.153522" lon="19.26623"><ele>1119.5</ele><time>2012-05-02T04:22:35.0000000+00:00</time></trkpt><trkpt lat="43.152847" lon="19.266323"><ele>1130.2</ele><time>2012-05-02T04:22:40.0000000+00:00</time></trkpt><trkpt lat="43.152119" lon="19.266146"><ele>1132.4</ele><time>2012-05-02T04:22:45.0000000+00:00</time></trkpt><trkpt lat="43.151485" lon="19.26618"><ele>1137.1</ele><time>2012-05-02T04:22:50.0000000+00:00</time></trkpt><trkpt lat="43.15094" lon="19.266649"><ele>1140.4</ele><time>2012-05-02T04:22:55.0000000+00:00</time></trkpt><trkpt lat="43.150467" lon="19.267393"><ele>1144.0</ele><time>2012-05-02T04:23:00.0000000+00:00</time></trkpt><trkpt lat="43.150124" lon="19.268194"><ele>1148.2</ele><time>2012-05-02T04:23:05.0000000+00:00</time></trkpt><trkpt lat="43.149624" lon="19.268892"><ele>1154.3</ele><time>2012-05-02T04:23:10.0000000+00:00</time></trkpt><trkpt lat="43.148933" lon="19.269247"><ele>1158.5</ele><time>2012-05-02T04:23:15.0000000+00:00</time></trkpt><trkpt lat="43.148338" lon="19.26897"><ele>1163.1</ele><time>2012-05-02T04:23:20.0000000+00:00</time></trkpt><trkpt lat="43.147915" lon="19.268379"><ele>1166.0</ele><time>2012-05-02T04:23:25.0000000+00:00</time></trkpt><trkpt lat="43.147808" lon="19.26799"><ele>1167.4</ele><time>2012-05-02T04:23:30.0000000+00:00</time></trkpt><trkpt lat="43.148067" lon="19.268141"><ele>1168.4</ele><time>2012-05-02T04:23:35.0000000+00:00</time></trkpt><trkpt lat="43.148319" lon="19.26862"><ele>1171.0</ele><time>2012-05-02T04:23:40.0000000+00:00</time></trkpt><trkpt lat="43.148769" lon="19.268793"><ele>1173.4</ele><time>2012-05-02T04:23:45.0000000+00:00</time></trkpt><trkpt lat="43.149239" lon="19.268393"><ele>1175.3</ele><time>2012-05-02T04:23:50.0000000+00:00</time></trkpt><trkpt lat="43.149654" lon="19.267868"><ele>1178.6</ele><time>2012-05-02T04:23:55.0000000+00:00</time></trkpt><trkpt lat="43.149937" lon="19.267183"><ele>1182.4</ele><time>2012-05-02T04:24:00.0000000+00:00</time></trkpt><trkpt lat="43.15007" lon="19.266268"><ele>1185.7</ele><time>2012-05-02T04:24:05.0000000+00:00</time></trkpt><trkpt lat="43.150257" lon="19.265316"><ele>1189.7</ele><time>2012-05-02T04:24:10.0000000+00:00</time></trkpt><trkpt lat="43.150532" lon="19.264492"><ele>1194.1</ele><time>2012-05-02T04:24:15.0000000+00:00</time></trkpt><trkpt lat="43.150673" lon="19.263699"><ele>1198.0</ele><time>2012-05-02T04:24:20.0000000+00:00</time></trkpt><trkpt lat="43.150566" lon="19.26284"><ele>1202.9</ele><time>2012-05-02T04:24:25.0000000+00:00</time></trkpt><trkpt lat="43.150368" lon="19.262081"><ele>1206.8</ele><time>2012-05-02T04:24:30.0000000+00:00</time></trkpt><trkpt lat="43.150585" lon="19.261473"><ele>1209.8</ele><time>2012-05-02T04:24:35.0000000+00:00</time></trkpt><trkpt lat="43.151119" lon="19.261408"><ele>1214.1</ele><time>2012-05-02T04:24:40.0000000+00:00</time></trkpt><trkpt lat="43.151676" lon="19.261728"><ele>1216.6</ele><time>2012-05-02T04:24:45.0000000+00:00</time></trkpt><trkpt lat="43.152092" lon="19.26236"><ele>1219.6</ele><time>2012-05-02T04:24:50.0000000+00:00</time></trkpt><trkpt lat="43.152584" lon="19.262913"><ele>1221.8</ele><time>2012-05-02T04:24:55.0000000+00:00</time></trkpt><trkpt lat="43.153206" lon="19.262901"><ele>1224.5</ele><time>2012-05-02T04:25:00.0000000+00:00</time></trkpt><trkpt lat="43.153587" lon="19.26228"><ele>1229.3</ele><time>2012-05-02T04:25:05.0000000+00:00</time></trkpt><trkpt lat="43.153393" lon="19.261646"><ele>1231.7</ele><time>2012-05-02T04:25:10.0000000+00:00</time></trkpt><trkpt lat="43.152855" lon="19.261265"><ele>1233.5</ele><time>2012-05-02T04:25:15.0000000+00:00</time></trkpt><trkpt lat="43.152283" lon="19.260704"><ele>1238.9</ele><time>2012-05-02T04:25:20.0000000+00:00</time></trkpt><trkpt lat="43.151787" lon="19.260105"><ele>1242.5</ele><time>2012-05-02T04:25:25.0000000+00:00</time></trkpt><trkpt lat="43.151459" lon="19.25922"><ele>1245.6</ele><time>2012-05-02T04:25:30.0000000+00:00</time></trkpt><trkpt lat="43.151112" lon="19.258345"><ele>1253.1</ele><time>2012-05-02T04:25:35.0000000+00:00</time></trkpt><trkpt lat="43.150627" lon="19.257593"><ele>1259.2</ele><time>2012-05-02T04:25:40.0000000+00:00</time></trkpt><trkpt lat="43.150154" lon="19.25703"><ele>1264.7</ele><time>2012-05-02T04:25:45.0000000+00:00</time></trkpt><trkpt lat="43.149872" lon="19.256714"><ele>1267.4</ele><time>2012-05-02T04:25:50.0000000+00:00</time></trkpt><trkpt lat="43.149998" lon="19.256556"><ele>1268.2</ele><time>2012-05-02T04:25:55.0000000+00:00</time></trkpt><trkpt lat="43.150291" lon="19.25684"><ele>1269.6</ele><time>2012-05-02T04:26:00.0000000+00:00</time></trkpt><trkpt lat="43.150631" lon="19.257191"><ele>1271.3</ele><time>2012-05-02T04:26:05.0000000+00:00</time></trkpt><trkpt lat="43.151058" lon="19.257507"><ele>1275.2</ele><time>2012-05-02T04:26:10.0000000+00:00</time></trkpt><trkpt lat="43.151524" lon="19.257853"><ele>1279.7</ele><time>2012-05-02T04:26:15.0000000+00:00</time></trkpt><trkpt lat="43.151897" lon="19.258352"><ele>1284.3</ele><time>2012-05-02T04:26:20.0000000+00:00</time></trkpt><trkpt lat="43.152271" lon="19.258787"><ele>1289.7</ele><time>2012-05-02T04:26:25.0000000+00:00</time></trkpt><trkpt lat="43.15271" lon="19.258955"><ele>1293.5</ele><time>2012-05-02T04:26:30.0000000+00:00</time></trkpt><trkpt lat="43.152859" lon="19.258665"><ele>1295.7</ele><time>2012-05-02T04:26:35.0000000+00:00</time></trkpt><trkpt lat="43.152573" lon="19.258396"><ele>1299.2</ele><time>2012-05-02T04:26:40.0000000+00:00</time></trkpt><trkpt lat="43.152222" lon="19.257963"><ele>1304.5</ele><time>2012-05-02T04:26:45.0000000+00:00</time></trkpt><trkpt lat="43.152012" lon="19.25724"><ele>1309.7</ele><time>2012-05-02T04:26:50.0000000+00:00</time></trkpt><trkpt lat="43.151634" lon="19.256618"><ele>1314.8</ele><time>2012-05-02T04:26:55.0000000+00:00</time></trkpt><trkpt lat="43.151115" lon="19.256218"><ele>1319.6</ele><time>2012-05-02T04:27:00.0000000+00:00</time></trkpt><trkpt lat="43.150803" lon="19.255589"><ele>1324.2</ele><time>2012-05-02T04:27:05.0000000+00:00</time></trkpt><trkpt lat="43.150822" lon="19.254778"><ele>1329.5</ele><time>2012-05-02T04:27:10.0000000+00:00</time></trkpt><trkpt lat="43.150742" lon="19.254009"><ele>1334.0</ele><time>2012-05-02T04:27:15.0000000+00:00</time></trkpt><trkpt lat="43.150341" lon="19.253384"><ele>1339.7</ele><time>2012-05-02T04:27:20.0000000+00:00</time></trkpt><trkpt lat="43.150105" lon="19.252657"><ele>1343.9</ele><time>2012-05-02T04:27:25.0000000+00:00</time></trkpt><trkpt lat="43.150185" lon="19.251961"><ele>1346.1</ele><time>2012-05-02T04:27:30.0000000+00:00</time></trkpt><trkpt lat="43.150311" lon="19.251308"><ele>1345.0</ele><time>2012-05-02T04:27:35.0000000+00:00</time></trkpt><trkpt lat="43.150299" lon="19.250553"><ele>1343.8</ele><time>2012-05-02T04:27:40.0000000+00:00</time></trkpt><trkpt lat="43.150036" lon="19.249813"><ele>1343.9</ele><time>2012-05-02T04:27:45.0000000+00:00</time></trkpt><trkpt lat="43.149574" lon="19.249306"><ele>1342.6</ele><time>2012-05-02T04:27:50.0000000+00:00</time></trkpt><trkpt lat="43.149117" lon="19.249014"><ele>1342.6</ele><time>2012-05-02T04:27:55.0000000+00:00</time></trkpt><trkpt lat="43.148682" lon="19.248718"><ele>1341.0</ele><time>2012-05-02T04:28:00.0000000+00:00</time></trkpt><trkpt lat="43.148266" lon="19.248323"><ele>1340.5</ele><time>2012-05-02T04:28:05.0000000+00:00</time></trkpt><trkpt lat="43.147907" lon="19.247774"><ele>1340.5</ele><time>2012-05-02T04:28:10.0000000+00:00</time></trkpt><trkpt lat="43.14764" lon="19.247028"><ele>1339.5</ele><time>2012-05-02T04:28:15.0000000+00:00</time></trkpt><trkpt lat="43.147564" lon="19.246124"><ele>1339.1</ele><time>2012-05-02T04:28:20.0000000+00:00</time></trkpt><trkpt lat="43.147705" lon="19.245218"><ele>1338.6</ele><time>2012-05-02T04:28:25.0000000+00:00</time></trkpt><trkpt lat="43.148022" lon="19.244392"><ele>1339.0</ele><time>2012-05-02T04:28:30.0000000+00:00</time></trkpt><trkpt lat="43.148273" lon="19.243614"><ele>1339.9</ele><time>2012-05-02T04:28:35.0000000+00:00</time></trkpt><trkpt lat="43.148308" lon="19.242764"><ele>1340.5</ele><time>2012-05-02T04:28:40.0000000+00:00</time></trkpt><trkpt lat="43.1483" lon="19.241886"><ele>1341.2</ele><time>2012-05-02T04:28:45.0000000+00:00</time></trkpt><trkpt lat="43.148254" lon="19.241016"><ele>1342.6</ele><time>2012-05-02T04:28:50.0000000+00:00</time></trkpt><trkpt lat="43.148037" lon="19.240232"><ele>1342.8</ele><time>2012-05-02T04:28:55.0000000+00:00</time></trkpt><trkpt lat="43.14793" lon="19.239372"><ele>1341.4</ele><time>2012-05-02T04:29:00.0000000+00:00</time></trkpt><trkpt lat="43.148121" lon="19.238451"><ele>1338.9</ele><time>2012-05-02T04:29:05.0000000+00:00</time></trkpt><trkpt lat="43.148338" lon="19.237564"><ele>1336.8</ele><time>2012-05-02T04:29:10.0000000+00:00</time></trkpt><trkpt lat="43.14838" lon="19.236666"><ele>1336.1</ele><time>2012-05-02T04:29:15.0000000+00:00</time></trkpt><trkpt lat="43.14809" lon="19.235846"><ele>1333.7</ele><time>2012-05-02T04:29:20.0000000+00:00</time></trkpt><trkpt lat="43.147537" lon="19.235275"><ele>1330.4</ele><time>2012-05-02T04:29:25.0000000+00:00</time></trkpt><trkpt lat="43.146832" lon="19.234911"><ele>1325.3</ele><time>2012-05-02T04:29:30.0000000+00:00</time></trkpt><trkpt lat="43.14608" lon="19.23452"><ele>1320.2</ele><time>2012-05-02T04:29:35.0000000+00:00</time></trkpt><trkpt lat="43.145367" lon="19.234137"><ele>1315.4</ele><time>2012-05-02T04:29:40.0000000+00:00</time></trkpt><trkpt lat="43.144783" lon="19.233561"><ele>1311.2</ele><time>2012-05-02T04:29:45.0000000+00:00</time></trkpt><trkpt lat="43.144367" lon="19.232637"><ele>1307.3</ele><time>2012-05-02T04:29:50.0000000+00:00</time></trkpt><trkpt lat="43.144073" lon="19.231522"><ele>1305.0</ele><time>2012-05-02T04:29:55.0000000+00:00</time></trkpt><trkpt lat="43.14381" lon="19.23045"><ele>1303.6</ele><time>2012-05-02T04:30:00.0000000+00:00</time></trkpt><trkpt lat="43.143585" lon="19.229563"><ele>1302.4</ele><time>2012-05-02T04:30:05.0000000+00:00</time></trkpt><trkpt lat="43.143375" lon="19.228743"><ele>1301.7</ele><time>2012-05-02T04:30:10.0000000+00:00</time></trkpt><trkpt lat="43.143227" lon="19.227955"><ele>1301.4</ele><time>2012-05-02T04:30:15.0000000+00:00</time></trkpt><trkpt lat="43.143211" lon="19.227095"><ele>1301.5</ele><time>2012-05-02T04:30:20.0000000+00:00</time></trkpt><trkpt lat="43.143406" lon="19.226183"><ele>1302.0</ele><time>2012-05-02T04:30:25.0000000+00:00</time></trkpt><trkpt lat="43.143791" lon="19.225426"><ele>1302.9</ele><time>2012-05-02T04:30:30.0000000+00:00</time></trkpt><trkpt lat="43.144348" lon="19.224739"><ele>1304.2</ele><time>2012-05-02T04:30:35.0000000+00:00</time></trkpt><trkpt lat="43.144947" lon="19.224047"><ele>1307.0</ele><time>2012-05-02T04:30:40.0000000+00:00</time></trkpt><trkpt lat="43.145565" lon="19.223419"><ele>1308.2</ele><time>2012-05-02T04:30:45.0000000+00:00</time></trkpt><trkpt lat="43.146252" lon="19.222904"><ele>1305.8</ele><time>2012-05-02T04:30:50.0000000+00:00</time></trkpt><trkpt lat="43.146854" lon="19.222246"><ele>1303.9</ele><time>2012-05-02T04:30:55.0000000+00:00</time></trkpt><trkpt lat="43.147194" lon="19.221369"><ele>1302.9</ele><time>2012-05-02T04:31:00.0000000+00:00</time></trkpt><trkpt lat="43.147556" lon="19.220589"><ele>1301.6</ele><time>2012-05-02T04:31:05.0000000+00:00</time></trkpt><trkpt lat="43.148125" lon="19.220072"><ele>1300.6</ele><time>2012-05-02T04:31:10.0000000+00:00</time></trkpt><trkpt lat="43.1488" lon="19.219683"><ele>1299.5</ele><time>2012-05-02T04:31:15.0000000+00:00</time></trkpt><trkpt lat="43.149406" lon="19.219086"><ele>1298.6</ele><time>2012-05-02T04:31:20.0000000+00:00</time></trkpt><trkpt lat="43.149883" lon="19.218246"><ele>1299.3</ele><time>2012-05-02T04:31:25.0000000+00:00</time></trkpt><trkpt lat="43.150326" lon="19.217428"><ele>1301.1</ele><time>2012-05-02T04:31:30.0000000+00:00</time></trkpt><trkpt lat="43.150867" lon="19.216747"><ele>1302.8</ele><time>2012-05-02T04:31:35.0000000+00:00</time></trkpt><trkpt lat="43.151562" lon="19.21628"><ele>1304.6</ele><time>2012-05-02T04:31:40.0000000+00:00</time></trkpt><trkpt lat="43.152233" lon="19.215841"><ele>1306.1</ele><time>2012-05-02T04:31:45.0000000+00:00</time></trkpt><trkpt lat="43.152813" lon="19.215334"><ele>1307.9</ele><time>2012-05-02T04:31:50.0000000+00:00</time></trkpt><trkpt lat="43.153275" lon="19.2146"><ele>1310.4</ele><time>2012-05-02T04:31:55.0000000+00:00</time></trkpt><trkpt lat="43.153667" lon="19.213825"><ele>1313.4</ele><time>2012-05-02T04:32:00.0000000+00:00</time></trkpt><trkpt lat="43.154072" lon="19.213184"><ele>1314.3</ele><time>2012-05-02T04:32:05.0000000+00:00</time></trkpt><trkpt lat="43.154606" lon="19.212894"><ele>1312.8</ele><time>2012-05-02T04:32:10.0000000+00:00</time></trkpt><trkpt lat="43.155239" lon="19.212753"><ele>1309.1</ele><time>2012-05-02T04:32:15.0000000+00:00</time></trkpt><trkpt lat="43.155903" lon="19.212429"><ele>1303.8</ele><time>2012-05-02T04:32:20.0000000+00:00</time></trkpt><trkpt lat="43.15659" lon="19.21196"><ele>1298.7</ele><time>2012-05-02T04:32:25.0000000+00:00</time></trkpt><trkpt lat="43.157364" lon="19.211765"><ele>1293.2</ele><time>2012-05-02T04:32:30.0000000+00:00</time></trkpt><trkpt lat="43.157944" lon="19.211309"><ele>1290.8</ele><time>2012-05-02T04:32:35.0000000+00:00</time></trkpt><trkpt lat="43.158409" lon="19.210602"><ele>1290.2</ele><time>2012-05-02T04:32:40.0000000+00:00</time></trkpt><trkpt lat="43.158859" lon="19.209915"><ele>1291.1</ele><time>2012-05-02T04:32:45.0000000+00:00</time></trkpt><trkpt lat="43.159172" lon="19.209099"><ele>1291.9</ele><time>2012-05-02T04:32:50.0000000+00:00</time></trkpt><trkpt lat="43.159344" lon="19.208141"><ele>1292.1</ele><time>2012-05-02T04:32:55.0000000+00:00</time></trkpt><trkpt lat="43.159676" lon="19.207253"><ele>1292.6</ele><time>2012-05-02T04:33:00.0000000+00:00</time></trkpt><trkpt lat="43.160095" lon="19.206429"><ele>1292.6</ele><time>2012-05-02T04:33:05.0000000+00:00</time></trkpt><trkpt lat="43.160427" lon="19.205568"><ele>1292.5</ele><time>2012-05-02T04:33:10.0000000+00:00</time></trkpt><trkpt lat="43.160725" lon="19.204657"><ele>1292.2</ele><time>2012-05-02T04:33:15.0000000+00:00</time></trkpt><trkpt lat="43.161087" lon="19.203735"><ele>1292.2</ele><time>2012-05-02T04:33:20.0000000+00:00</time></trkpt><trkpt lat="43.161476" lon="19.202862"><ele>1292.2</ele><time>2012-05-02T04:33:25.0000000+00:00</time></trkpt><trkpt lat="43.161766" lon="19.2019"><ele>1292.3</ele><time>2012-05-02T04:33:30.0000000+00:00</time></trkpt><trkpt lat="43.162025" lon="19.200928"><ele>1291.9</ele><time>2012-05-02T04:33:35.0000000+00:00</time></trkpt><trkpt lat="43.162277" lon="19.199947"><ele>1292.8</ele><time>2012-05-02T04:33:40.0000000+00:00</time></trkpt><trkpt lat="43.162514" lon="19.198965"><ele>1294.2</ele><time>2012-05-02T04:33:45.0000000+00:00</time></trkpt><trkpt lat="43.162701" lon="19.197947"><ele>1295.4</ele><time>2012-05-02T04:33:50.0000000+00:00</time></trkpt><trkpt lat="43.162861" lon="19.196932"><ele>1295.2</ele><time>2012-05-02T04:33:55.0000000+00:00</time></trkpt><trkpt lat="43.163029" lon="19.19582"><ele>1294.9</ele><time>2012-05-02T04:34:00.0000000+00:00</time></trkpt><trkpt lat="43.163216" lon="19.194618"><ele>1295.8</ele><time>2012-05-02T04:34:05.0000000+00:00</time></trkpt><trkpt lat="43.16341" lon="19.193398"><ele>1298.8</ele><time>2012-05-02T04:34:10.0000000+00:00</time></trkpt><trkpt lat="43.163589" lon="19.192242"><ele>1301.8</ele><time>2012-05-02T04:34:15.0000000+00:00</time></trkpt><trkpt lat="43.163754" lon="19.191181"><ele>1306.2</ele><time>2012-05-02T04:34:20.0000000+00:00</time></trkpt><trkpt lat="43.164005" lon="19.190277"><ele>1309.5</ele><time>2012-05-02T04:34:25.0000000+00:00</time></trkpt><trkpt lat="43.164185" lon="19.189358"><ele>1314.0</ele><time>2012-05-02T04:34:30.0000000+00:00</time></trkpt><trkpt lat="43.164165" lon="19.188465"><ele>1316.3</ele><time>2012-05-02T04:34:35.0000000+00:00</time></trkpt><trkpt lat="43.164318" lon="19.187656"><ele>1315.8</ele><time>2012-05-02T04:34:40.0000000+00:00</time></trkpt><trkpt lat="43.164642" lon="19.186844"><ele>1314.9</ele><time>2012-05-02T04:34:45.0000000+00:00</time></trkpt><trkpt lat="43.164822" lon="19.185892"><ele>1315.1</ele><time>2012-05-02T04:34:50.0000000+00:00</time></trkpt><trkpt lat="43.16497" lon="19.184942"><ele>1314.5</ele><time>2012-05-02T04:34:55.0000000+00:00</time></trkpt><trkpt lat="43.165157" lon="19.184076"><ele>1312.4</ele><time>2012-05-02T04:35:00.0000000+00:00</time></trkpt><trkpt lat="43.16547" lon="19.183306"><ele>1310.9</ele><time>2012-05-02T04:35:05.0000000+00:00</time></trkpt><trkpt lat="43.165638" lon="19.182472"><ele>1310.7</ele><time>2012-05-02T04:35:10.0000000+00:00</time></trkpt><trkpt lat="43.165531" lon="19.181608"><ele>1312.2</ele><time>2012-05-02T04:35:15.0000000+00:00</time></trkpt><trkpt lat="43.165394" lon="19.180683"><ele>1312.5</ele><time>2012-05-02T04:35:20.0000000+00:00</time></trkpt><trkpt lat="43.165257" lon="19.179708"><ele>1313.6</ele><time>2012-05-02T04:35:25.0000000+00:00</time></trkpt><trkpt lat="43.165104" lon="19.178738"><ele>1315.9</ele><time>2012-05-02T04:35:30.0000000+00:00</time></trkpt><trkpt lat="43.164967" lon="19.177759"><ele>1317.2</ele><time>2012-05-02T04:35:35.0000000+00:00</time></trkpt><trkpt lat="43.164825" lon="19.176804"><ele>1320.4</ele><time>2012-05-02T04:35:40.0000000+00:00</time></trkpt><trkpt lat="43.1647" lon="19.175869"><ele>1322.0</ele><time>2012-05-02T04:35:45.0000000+00:00</time></trkpt><trkpt lat="43.164631" lon="19.174986"><ele>1324.8</ele><time>2012-05-02T04:35:50.0000000+00:00</time></trkpt><trkpt lat="43.164661" lon="19.174042"><ele>1323.5</ele><time>2012-05-02T04:35:55.0000000+00:00</time></trkpt><trkpt lat="43.164764" lon="19.172987"><ele>1321.7</ele><time>2012-05-02T04:36:00.0000000+00:00</time></trkpt><trkpt lat="43.164871" lon="19.171934"><ele>1324.8</ele><time>2012-05-02T04:36:05.0000000+00:00</time></trkpt><trkpt lat="43.164967" lon="19.170969"><ele>1328.5</ele><time>2012-05-02T04:36:10.0000000+00:00</time></trkpt><trkpt lat="43.165035" lon="19.170057"><ele>1330.9</ele><time>2012-05-02T04:36:15.0000000+00:00</time></trkpt><trkpt lat="43.165096" lon="19.169088"><ele>1331.4</ele><time>2012-05-02T04:36:20.0000000+00:00</time></trkpt><trkpt lat="43.165165" lon="19.16806"><ele>1333.2</ele><time>2012-05-02T04:36:25.0000000+00:00</time></trkpt><trkpt lat="43.165169" lon="19.167007"><ele>1336.0</ele><time>2012-05-02T04:36:30.0000000+00:00</time></trkpt><trkpt lat="43.165043" lon="19.165962"><ele>1337.5</ele><time>2012-05-02T04:36:35.0000000+00:00</time></trkpt><trkpt lat="43.164898" lon="19.164934"><ele>1338.6</ele><time>2012-05-02T04:36:40.0000000+00:00</time></trkpt><trkpt lat="43.16478" lon="19.163931"><ele>1339.1</ele><time>2012-05-02T04:36:45.0000000+00:00</time></trkpt><trkpt lat="43.1647" lon="19.162971"><ele>1340.0</ele><time>2012-05-02T04:36:50.0000000+00:00</time></trkpt><trkpt lat="43.16465" lon="19.162027"><ele>1341.3</ele><time>2012-05-02T04:36:55.0000000+00:00</time></trkpt><trkpt lat="43.164593" lon="19.161098"><ele>1342.3</ele><time>2012-05-02T04:37:00.0000000+00:00</time></trkpt><trkpt lat="43.164528" lon="19.160196"><ele>1344.4</ele><time>2012-05-02T04:37:05.0000000+00:00</time></trkpt><trkpt lat="43.164444" lon="19.15929"><ele>1347.2</ele><time>2012-05-02T04:37:10.0000000+00:00</time></trkpt><trkpt lat="43.164295" lon="19.158373"><ele>1348.4</ele><time>2012-05-02T04:37:15.0000000+00:00</time></trkpt><trkpt lat="43.164124" lon="19.157438"><ele>1348.9</ele><time>2012-05-02T04:37:20.0000000+00:00</time></trkpt><trkpt lat="43.163937" lon="19.156467"><ele>1350.6</ele><time>2012-05-02T04:37:25.0000000+00:00</time></trkpt><trkpt lat="43.163776" lon="19.155487"><ele>1353.5</ele><time>2012-05-02T04:37:30.0000000+00:00</time></trkpt><trkpt lat="43.163784" lon="19.154503"><ele>1354.6</ele><time>2012-05-02T04:37:35.0000000+00:00</time></trkpt><trkpt lat="43.163849" lon="19.153503"><ele>1357.1</ele><time>2012-05-02T04:37:40.0000000+00:00</time></trkpt><trkpt lat="43.163906" lon="19.15251"><ele>1358.8</ele><time>2012-05-02T04:37:45.0000000+00:00</time></trkpt><trkpt lat="43.163956" lon="19.15159"><ele>1361.9</ele><time>2012-05-02T04:37:50.0000000+00:00</time></trkpt><trkpt lat="43.163998" lon="19.150721"><ele>1364.9</ele><time>2012-05-02T04:37:55.0000000+00:00</time></trkpt><trkpt lat="43.164009" lon="19.149963"><ele>1366.8</ele><time>2012-05-02T04:38:00.0000000+00:00</time></trkpt><trkpt lat="43.163952" lon="19.149269"><ele>1368.4</ele><time>2012-05-02T04:38:05.0000000+00:00</time></trkpt><trkpt lat="43.163876" lon="19.148499"><ele>1370.2</ele><time>2012-05-02T04:38:10.0000000+00:00</time></trkpt><trkpt lat="43.163757" lon="19.147717"><ele>1371.9</ele><time>2012-05-02T04:38:15.0000000+00:00</time></trkpt><trkpt lat="43.16362" lon="19.146923"><ele>1374.4</ele><time>2012-05-02T04:38:20.0000000+00:00</time></trkpt><trkpt lat="43.163479" lon="19.146109"><ele>1377.7</ele><time>2012-05-02T04:38:25.0000000+00:00</time></trkpt><trkpt lat="43.163342" lon="19.145277"><ele>1380.5</ele><time>2012-05-02T04:38:30.0000000+00:00</time></trkpt><trkpt lat="43.1632" lon="19.144426"><ele>1383.5</ele><time>2012-05-02T04:38:35.0000000+00:00</time></trkpt><trkpt lat="43.163097" lon="19.14357"><ele>1387.0</ele><time>2012-05-02T04:38:40.0000000+00:00</time></trkpt><trkpt lat="43.163055" lon="19.142723"><ele>1390.6</ele><time>2012-05-02T04:38:45.0000000+00:00</time></trkpt><trkpt lat="43.163059" lon="19.141903"><ele>1394.4</ele><time>2012-05-02T04:38:50.0000000+00:00</time></trkpt><trkpt lat="43.163097" lon="19.141102"><ele>1398.6</ele><time>2012-05-02T04:38:55.0000000+00:00</time></trkpt><trkpt lat="43.16309" lon="19.140324"><ele>1402.5</ele><time>2012-05-02T04:39:00.0000000+00:00</time></trkpt><trkpt lat="43.163006" lon="19.139591"><ele>1405.5</ele><time>2012-05-02T04:39:05.0000000+00:00</time></trkpt><trkpt lat="43.162804" lon="19.138838"><ele>1408.5</ele><time>2012-05-02T04:39:10.0000000+00:00</time></trkpt><trkpt lat="43.162483" lon="19.138144"><ele>1411.2</ele><time>2012-05-02T04:39:15.0000000+00:00</time></trkpt><trkpt lat="43.16209" lon="19.137535"><ele>1412.8</ele><time>2012-05-02T04:39:20.0000000+00:00</time></trkpt><trkpt lat="43.161659" lon="19.137077"><ele>1413.4</ele><time>2012-05-02T04:39:25.0000000+00:00</time></trkpt><trkpt lat="43.161259" lon="19.136663"><ele>1413.6</ele><time>2012-05-02T04:39:30.0000000+00:00</time></trkpt><trkpt lat="43.160954" lon="19.136164"><ele>1413.7</ele><time>2012-05-02T04:39:35.0000000+00:00</time></trkpt><trkpt lat="43.160706" lon="19.135664"><ele>1413.8</ele><time>2012-05-02T04:39:40.0000000+00:00</time></trkpt><trkpt lat="43.160294" lon="19.135605"><ele>1415.0</ele><time>2012-05-02T04:39:45.0000000+00:00</time></trkpt><trkpt lat="43.15979" lon="19.135527"><ele>1416.0</ele><time>2012-05-02T04:39:50.0000000+00:00</time></trkpt><trkpt lat="43.159237" lon="19.135202"><ele>1418.3</ele><time>2012-05-02T04:39:55.0000000+00:00</time></trkpt><trkpt lat="43.158672" lon="19.134861"><ele>1419.9</ele><time>2012-05-02T04:40:00.0000000+00:00</time></trkpt><trkpt lat="43.158142" lon="19.134514"><ele>1421.8</ele><time>2012-05-02T04:40:05.0000000+00:00</time></trkpt><trkpt lat="43.157642" lon="19.13402"><ele>1423.8</ele><time>2012-05-02T04:40:10.0000000+00:00</time></trkpt><trkpt lat="43.157169" lon="19.133453"><ele>1425.9</ele><time>2012-05-02T04:40:15.0000000+00:00</time></trkpt><trkpt lat="43.156693" lon="19.132912"><ele>1428.0</ele><time>2012-05-02T04:40:20.0000000+00:00</time></trkpt><trkpt lat="43.156239" lon="19.132353"><ele>1430.1</ele><time>2012-05-02T04:40:25.0000000+00:00</time></trkpt><trkpt lat="43.155773" lon="19.1318"><ele>1432.8</ele><time>2012-05-02T04:40:30.0000000+00:00</time></trkpt><trkpt lat="43.155277" lon="19.131342"><ele>1435.4</ele><time>2012-05-02T04:40:35.0000000+00:00</time></trkpt><trkpt lat="43.154675" lon="19.13118"><ele>1437.5</ele><time>2012-05-02T04:40:40.0000000+00:00</time></trkpt><trkpt lat="43.154072" lon="19.131176"><ele>1439.7</ele><time>2012-05-02T04:40:45.0000000+00:00</time></trkpt><trkpt lat="43.153534" lon="19.131151"><ele>1441.2</ele><time>2012-05-02T04:40:50.0000000+00:00</time></trkpt><trkpt lat="43.152977" lon="19.13096"><ele>1441.6</ele><time>2012-05-02T04:40:55.0000000+00:00</time></trkpt><trkpt lat="43.15247" lon="19.130543"><ele>1442.3</ele><time>2012-05-02T04:41:00.0000000+00:00</time></trkpt><trkpt lat="43.152061" lon="19.129919"><ele>1442.7</ele><time>2012-05-02T04:41:05.0000000+00:00</time></trkpt><trkpt lat="43.151745" lon="19.129194"><ele>1443.5</ele><time>2012-05-02T04:41:10.0000000+00:00</time></trkpt><trkpt lat="43.151451" lon="19.128532"><ele>1444.8</ele><time>2012-05-02T04:41:15.0000000+00:00</time></trkpt><trkpt lat="43.151165" lon="19.12789"><ele>1447.3</ele><time>2012-05-02T04:41:20.0000000+00:00</time></trkpt><trkpt lat="43.150909" lon="19.127321"><ele>1451.4</ele><time>2012-05-02T04:41:25.0000000+00:00</time></trkpt><trkpt lat="43.150715" lon="19.126896"><ele>1453.1</ele><time>2012-05-02T04:41:30.0000000+00:00</time></trkpt><trkpt lat="43.150475" lon="19.126455"><ele>1455.1</ele><time>2012-05-02T04:41:35.0000000+00:00</time></trkpt><trkpt lat="43.15012" lon="19.125963"><ele>1456.8</ele><time>2012-05-02T04:41:40.0000000+00:00</time></trkpt><trkpt lat="43.149647" lon="19.125364"><ele>1457.9</ele><time>2012-05-02T04:41:45.0000000+00:00</time></trkpt><trkpt lat="43.149063" lon="19.124851"><ele>1460.9</ele><time>2012-05-02T04:41:50.0000000+00:00</time></trkpt><trkpt lat="43.148533" lon="19.124269"><ele>1464.0</ele><time>2012-05-02T04:41:55.0000000+00:00</time></trkpt><trkpt lat="43.148037" lon="19.123732"><ele>1467.4</ele><time>2012-05-02T04:42:00.0000000+00:00</time></trkpt><trkpt lat="43.147602" lon="19.12327"><ele>1470.0</ele><time>2012-05-02T04:42:05.0000000+00:00</time></trkpt><trkpt lat="43.147114" lon="19.122786"><ele>1470.9</ele><time>2012-05-02T04:42:10.0000000+00:00</time></trkpt><trkpt lat="43.146503" lon="19.122368"><ele>1472.1</ele><time>2012-05-02T04:42:15.0000000+00:00</time></trkpt><trkpt lat="43.14571" lon="19.122137"><ele>1475.0</ele><time>2012-05-02T04:42:20.0000000+00:00</time></trkpt><trkpt lat="43.144852" lon="19.121868"><ele>1477.5</ele><time>2012-05-02T04:42:25.0000000+00:00</time></trkpt><trkpt lat="43.144016" lon="19.121605"><ele>1480.0</ele><time>2012-05-02T04:42:30.0000000+00:00</time></trkpt><trkpt lat="43.1432" lon="19.121347"><ele>1483.2</ele><time>2012-05-02T04:42:35.0000000+00:00</time></trkpt><trkpt lat="43.142391" lon="19.121164"><ele>1486.7</ele><time>2012-05-02T04:42:40.0000000+00:00</time></trkpt><trkpt lat="43.141655" lon="19.121115"><ele>1489.8</ele><time>2012-05-02T04:42:45.0000000+00:00</time></trkpt><trkpt lat="43.141022" lon="19.121162"><ele>1490.0</ele><time>2012-05-02T04:42:50.0000000+00:00</time></trkpt><trkpt lat="43.140305" lon="19.121294"><ele>1486.7</ele><time>2012-05-02T04:42:55.0000000+00:00</time></trkpt><trkpt lat="43.139408" lon="19.121452"><ele>1481.6</ele><time>2012-05-02T04:43:00.0000000+00:00</time></trkpt><trkpt lat="43.138451" lon="19.121655"><ele>1477.2</ele><time>2012-05-02T04:43:05.0000000+00:00</time></trkpt><trkpt lat="43.137447" lon="19.121914"><ele>1473.5</ele><time>2012-05-02T04:43:10.0000000+00:00</time></trkpt><trkpt lat="43.136414" lon="19.122292"><ele>1470.0</ele><time>2012-05-02T04:43:15.0000000+00:00</time></trkpt><trkpt lat="43.135326" lon="19.122688"><ele>1466.5</ele><time>2012-05-02T04:43:20.0000000+00:00</time></trkpt><trkpt lat="43.134235" lon="19.1231"><ele>1464.4</ele><time>2012-05-02T04:43:25.0000000+00:00</time></trkpt><trkpt lat="43.133179" lon="19.123499"><ele>1464.0</ele><time>2012-05-02T04:43:30.0000000+00:00</time></trkpt><trkpt lat="43.132141" lon="19.123884"><ele>1462.6</ele><time>2012-05-02T04:43:35.0000000+00:00</time></trkpt><trkpt lat="43.131134" lon="19.124336"><ele>1459.8</ele><time>2012-05-02T04:43:40.0000000+00:00</time></trkpt><trkpt lat="43.130207" lon="19.125034"><ele>1457.0</ele><time>2012-05-02T04:43:45.0000000+00:00</time></trkpt><trkpt lat="43.129288" lon="19.125647"><ele>1456.1</ele><time>2012-05-02T04:43:50.0000000+00:00</time></trkpt><trkpt lat="43.128307" lon="19.125828"><ele>1457.8</ele><time>2012-05-02T04:43:55.0000000+00:00</time></trkpt><trkpt lat="43.127338" lon="19.125549"><ele>1460.6</ele><time>2012-05-02T04:44:00.0000000+00:00</time></trkpt><trkpt lat="43.126366" lon="19.125105"><ele>1461.9</ele><time>2012-05-02T04:44:05.0000000+00:00</time></trkpt><trkpt lat="43.125385" lon="19.124674"><ele>1463.0</ele><time>2012-05-02T04:44:10.0000000+00:00</time></trkpt><trkpt lat="43.124409" lon="19.124491"><ele>1463.9</ele><time>2012-05-02T04:44:15.0000000+00:00</time></trkpt><trkpt lat="43.123413" lon="19.12463"><ele>1464.4</ele><time>2012-05-02T04:44:20.0000000+00:00</time></trkpt><trkpt lat="43.122486" lon="19.124781"><ele>1463.6</ele><time>2012-05-02T04:44:25.0000000+00:00</time></trkpt><trkpt lat="43.121613" lon="19.124807"><ele>1463.0</ele><time>2012-05-02T04:44:30.0000000+00:00</time></trkpt><trkpt lat="43.120773" lon="19.12447"><ele>1463.9</ele><time>2012-05-02T04:44:35.0000000+00:00</time></trkpt><trkpt lat="43.119995" lon="19.123732"><ele>1464.7</ele><time>2012-05-02T04:44:40.0000000+00:00</time></trkpt><trkpt lat="43.119217" lon="19.122898"><ele>1465.5</ele><time>2012-05-02T04:44:45.0000000+00:00</time></trkpt><trkpt lat="43.11834" lon="19.12232"><ele>1468.0</ele><time>2012-05-02T04:44:50.0000000+00:00</time></trkpt><trkpt lat="43.117367" lon="19.122076"><ele>1470.0</ele><time>2012-05-02T04:44:55.0000000+00:00</time></trkpt><trkpt lat="43.116329" lon="19.122084"><ele>1470.3</ele><time>2012-05-02T04:45:00.0000000+00:00</time></trkpt><trkpt lat="43.115253" lon="19.122114"><ele>1470.9</ele><time>2012-05-02T04:45:05.0000000+00:00</time></trkpt><trkpt lat="43.114204" lon="19.122133"><ele>1471.4</ele><time>2012-05-02T04:45:10.0000000+00:00</time></trkpt><trkpt lat="43.113205" lon="19.122156"><ele>1473.9</ele><time>2012-05-02T04:45:15.0000000+00:00</time></trkpt><trkpt lat="43.112286" lon="19.122164"><ele>1476.9</ele><time>2012-05-02T04:45:20.0000000+00:00</time></trkpt><trkpt lat="43.111458" lon="19.122093"><ele>1478.4</ele><time>2012-05-02T04:45:25.0000000+00:00</time></trkpt><trkpt lat="43.110641" lon="19.121855"><ele>1480.1</ele><time>2012-05-02T04:45:30.0000000+00:00</time></trkpt><trkpt lat="43.109795" lon="19.121418"><ele>1481.9</ele><time>2012-05-02T04:45:35.0000000+00:00</time></trkpt><trkpt lat="43.108898" lon="19.120853"><ele>1484.8</ele><time>2012-05-02T04:45:40.0000000+00:00</time></trkpt><trkpt lat="43.108002" lon="19.120293"><ele>1489.8</ele><time>2012-05-02T04:45:45.0000000+00:00</time></trkpt><trkpt lat="43.107136" lon="19.119745"><ele>1494.1</ele><time>2012-05-02T04:45:50.0000000+00:00</time></trkpt><trkpt lat="43.106297" lon="19.119223"><ele>1497.5</ele><time>2012-05-02T04:45:55.0000000+00:00</time></trkpt><trkpt lat="43.105385" lon="19.118656"><ele>1498.9</ele><time>2012-05-02T04:46:00.0000000+00:00</time></trkpt><trkpt lat="43.104408" lon="19.11805"><ele>1499.9</ele><time>2012-05-02T04:46:05.0000000+00:00</time></trkpt><trkpt lat="43.103439" lon="19.117382"><ele>1501.5</ele><time>2012-05-02T04:46:10.0000000+00:00</time></trkpt><trkpt lat="43.102627" lon="19.116438"><ele>1506.0</ele><time>2012-05-02T04:46:15.0000000+00:00</time></trkpt><trkpt lat="43.10199" lon="19.115318"><ele>1511.9</ele><time>2012-05-02T04:46:20.0000000+00:00</time></trkpt><trkpt lat="43.101391" lon="19.114204"><ele>1516.9</ele><time>2012-05-02T04:46:25.0000000+00:00</time></trkpt><trkpt lat="43.100803" lon="19.113098"><ele>1520.1</ele><time>2012-05-02T04:46:30.0000000+00:00</time></trkpt><trkpt lat="43.100235" lon="19.112036"><ele>1523.3</ele><time>2012-05-02T04:46:35.0000000+00:00</time></trkpt><trkpt lat="43.099663" lon="19.111145"><ele>1526.3</ele><time>2012-05-02T04:46:40.0000000+00:00</time></trkpt><trkpt lat="43.098949" lon="19.11055"><ele>1529.0</ele><time>2012-05-02T04:46:45.0000000+00:00</time></trkpt><trkpt lat="43.098148" lon="19.11035"><ele>1531.5</ele><time>2012-05-02T04:46:50.0000000+00:00</time></trkpt><trkpt lat="43.097363" lon="19.110287"><ele>1532.3</ele><time>2012-05-02T04:46:55.0000000+00:00</time></trkpt><trkpt lat="43.096584" lon="19.110237"><ele>1531.0</ele><time>2012-05-02T04:47:00.0000000+00:00</time></trkpt><trkpt lat="43.095787" lon="19.110163"><ele>1528.6</ele><time>2012-05-02T04:47:05.0000000+00:00</time></trkpt><trkpt lat="43.095009" lon="19.109957"><ele>1526.6</ele><time>2012-05-02T04:47:10.0000000+00:00</time></trkpt><trkpt lat="43.094307" lon="19.109497"><ele>1524.6</ele><time>2012-05-02T04:47:15.0000000+00:00</time></trkpt><trkpt lat="43.093704" lon="19.108757"><ele>1522.4</ele><time>2012-05-02T04:47:20.0000000+00:00</time></trkpt><trkpt lat="43.093193" lon="19.107733"><ele>1519.4</ele><time>2012-05-02T04:47:25.0000000+00:00</time></trkpt><trkpt lat="43.092705" lon="19.106621"><ele>1517.1</ele><time>2012-05-02T04:47:30.0000000+00:00</time></trkpt><trkpt lat="43.092056" lon="19.105652"><ele>1516.5</ele><time>2012-05-02T04:47:35.0000000+00:00</time></trkpt><trkpt lat="43.091198" lon="19.105066"><ele>1516.8</ele><time>2012-05-02T04:47:40.0000000+00:00</time></trkpt><trkpt lat="43.090279" lon="19.10494"><ele>1517.0</ele><time>2012-05-02T04:47:45.0000000+00:00</time></trkpt><trkpt lat="43.089333" lon="19.105061"><ele>1517.0</ele><time>2012-05-02T04:47:50.0000000+00:00</time></trkpt><trkpt lat="43.08839" lon="19.105125"><ele>1517.1</ele><time>2012-05-02T04:47:55.0000000+00:00</time></trkpt><trkpt lat="43.087566" lon="19.104687"><ele>1517.1</ele><time>2012-05-02T04:48:00.0000000+00:00</time></trkpt><trkpt lat="43.0868" lon="19.104113"><ele>1516.4</ele><time>2012-05-02T04:48:05.0000000+00:00</time></trkpt><trkpt lat="43.085941" lon="19.103918"><ele>1515.4</ele><time>2012-05-02T04:48:10.0000000+00:00</time></trkpt><trkpt lat="43.085075" lon="19.103872"><ele>1514.3</ele><time>2012-05-02T04:48:15.0000000+00:00</time></trkpt><trkpt lat="43.084248" lon="19.103653"><ele>1513.5</ele><time>2012-05-02T04:48:20.0000000+00:00</time></trkpt><trkpt lat="43.08342" lon="19.103155"><ele>1513.1</ele><time>2012-05-02T04:48:25.0000000+00:00</time></trkpt><trkpt lat="43.082558" lon="19.102915"><ele>1514.1</ele><time>2012-05-02T04:48:30.0000000+00:00</time></trkpt><trkpt lat="43.081699" lon="19.103127"><ele>1515.1</ele><time>2012-05-02T04:48:35.0000000+00:00</time></trkpt><trkpt lat="43.080898" lon="19.103764"><ele>1516.0</ele><time>2012-05-02T04:48:40.0000000+00:00</time></trkpt><trkpt lat="43.080143" lon="19.104551"><ele>1517.1</ele><time>2012-05-02T04:48:45.0000000+00:00</time></trkpt><trkpt lat="43.079308" lon="19.105009"><ele>1518.0</ele><time>2012-05-02T04:48:50.0000000+00:00</time></trkpt><trkpt lat="43.078476" lon="19.104801"><ele>1518.7</ele><time>2012-05-02T04:48:55.0000000+00:00</time></trkpt><trkpt lat="43.077866" lon="19.104103"><ele>1515.1</ele><time>2012-05-02T04:49:00.0000000+00:00</time></trkpt><trkpt lat="43.077461" lon="19.103085"><ele>1508.7</ele><time>2012-05-02T04:49:05.0000000+00:00</time></trkpt><trkpt lat="43.077068" lon="19.101974"><ele>1502.1</ele><time>2012-05-02T04:49:10.0000000+00:00</time></trkpt><trkpt lat="43.076633" lon="19.101009"><ele>1495.9</ele><time>2012-05-02T04:49:15.0000000+00:00</time></trkpt><trkpt lat="43.075977" lon="19.100431"><ele>1490.2</ele><time>2012-05-02T04:49:20.0000000+00:00</time></trkpt><trkpt lat="43.075157" lon="19.100361"><ele>1484.0</ele><time>2012-05-02T04:49:25.0000000+00:00</time></trkpt><trkpt lat="43.074375" lon="19.10087"><ele>1477.5</ele><time>2012-05-02T04:49:30.0000000+00:00</time></trkpt><trkpt lat="43.073635" lon="19.101606"><ele>1471.1</ele><time>2012-05-02T04:49:35.0000000+00:00</time></trkpt><trkpt lat="43.072857" lon="19.102262"><ele>1464.4</ele><time>2012-05-02T04:49:40.0000000+00:00</time></trkpt><trkpt lat="43.071968" lon="19.102711"><ele>1457.4</ele><time>2012-05-02T04:49:45.0000000+00:00</time></trkpt><trkpt lat="43.071053" lon="19.103167"><ele>1450.4</ele><time>2012-05-02T04:49:50.0000000+00:00</time></trkpt><trkpt lat="43.070122" lon="19.10364"><ele>1443.8</ele><time>2012-05-02T04:49:55.0000000+00:00</time></trkpt><trkpt lat="43.069332" lon="19.104286"><ele>1440.6</ele><time>2012-05-02T04:50:00.0000000+00:00</time></trkpt><trkpt lat="43.068771" lon="19.105192"><ele>1439.6</ele><time>2012-05-02T04:50:05.0000000+00:00</time></trkpt><trkpt lat="43.068279" lon="19.106009"><ele>1438.7</ele><time>2012-05-02T04:50:10.0000000+00:00</time></trkpt><trkpt lat="43.067688" lon="19.106522"><ele>1438.0</ele><time>2012-05-02T04:50:15.0000000+00:00</time></trkpt><trkpt lat="43.067017" lon="19.106913"><ele>1437.1</ele><time>2012-05-02T04:50:20.0000000+00:00</time></trkpt><trkpt lat="43.066315" lon="19.107327"><ele>1436.7</ele><time>2012-05-02T04:50:25.0000000+00:00</time></trkpt><trkpt lat="43.065601" lon="19.107752"><ele>1437.2</ele><time>2012-05-02T04:50:30.0000000+00:00</time></trkpt><trkpt lat="43.064861" lon="19.108168"><ele>1438.6</ele><time>2012-05-02T04:50:35.0000000+00:00</time></trkpt><trkpt lat="43.064079" lon="19.108246"><ele>1439.7</ele><time>2012-05-02T04:50:40.0000000+00:00</time></trkpt><trkpt lat="43.063267" lon="19.107878"><ele>1441.4</ele><time>2012-05-02T04:50:45.0000000+00:00</time></trkpt><trkpt lat="43.062462" lon="19.107435"><ele>1442.7</ele><time>2012-05-02T04:50:50.0000000+00:00</time></trkpt><trkpt lat="43.06163" lon="19.107248"><ele>1443.9</ele><time>2012-05-02T04:50:55.0000000+00:00</time></trkpt><trkpt lat="43.060776" lon="19.10714"><ele>1446.0</ele><time>2012-05-02T04:51:00.0000000+00:00</time></trkpt><trkpt lat="43.059978" lon="19.106762"><ele>1450.1</ele><time>2012-05-02T04:51:05.0000000+00:00</time></trkpt><trkpt lat="43.05933" lon="19.106024"><ele>1453.7</ele><time>2012-05-02T04:51:10.0000000+00:00</time></trkpt><trkpt lat="43.058868" lon="19.105049"><ele>1457.4</ele><time>2012-05-02T04:51:15.0000000+00:00</time></trkpt><trkpt lat="43.058418" lon="19.104107"><ele>1460.5</ele><time>2012-05-02T04:51:20.0000000+00:00</time></trkpt><trkpt lat="43.057735" lon="19.103512"><ele>1464.4</ele><time>2012-05-02T04:51:25.0000000+00:00</time></trkpt><trkpt lat="43.056976" lon="19.103132"><ele>1466.9</ele><time>2012-05-02T04:51:30.0000000+00:00</time></trkpt><trkpt lat="43.056286" lon="19.102634"><ele>1468.6</ele><time>2012-05-02T04:51:35.0000000+00:00</time></trkpt><trkpt lat="43.055683" lon="19.101892"><ele>1469.0</ele><time>2012-05-02T04:51:40.0000000+00:00</time></trkpt><trkpt lat="43.055229" lon="19.100935"><ele>1469.8</ele><time>2012-05-02T04:51:45.0000000+00:00</time></trkpt><trkpt lat="43.054958" lon="19.099913"><ele>1471.0</ele><time>2012-05-02T04:51:50.0000000+00:00</time></trkpt><trkpt lat="43.043365" lon="19.079168"><ele>1447.1</ele><time>2012-05-02T04:53:31.0000000+00:00</time></trkpt><trkpt lat="43.042496" lon="19.079185"><ele>1446.2</ele><time>2012-05-02T04:53:36.0000000+00:00</time></trkpt><trkpt lat="43.041664" lon="19.07933"><ele>1438.9</ele><time>2012-05-02T04:53:41.0000000+00:00</time></trkpt><trkpt lat="43.040825" lon="19.079739"><ele>1429.6</ele><time>2012-05-02T04:53:46.0000000+00:00</time></trkpt><trkpt lat="43.03994" lon="19.080202"><ele>1422.9</ele><time>2012-05-02T04:53:51.0000000+00:00</time></trkpt><trkpt lat="43.039005" lon="19.080643"><ele>1415.8</ele><time>2012-05-02T04:53:56.0000000+00:00</time></trkpt><trkpt lat="43.037991" lon="19.081009"><ele>1407.4</ele><time>2012-05-02T04:54:01.0000000+00:00</time></trkpt><trkpt lat="43.036926" lon="19.081398"><ele>1398.2</ele><time>2012-05-02T04:54:06.0000000+00:00</time></trkpt><trkpt lat="43.035831" lon="19.081867"><ele>1390.1</ele><time>2012-05-02T04:54:11.0000000+00:00</time></trkpt><trkpt lat="43.03484" lon="19.08252"><ele>1383.1</ele><time>2012-05-02T04:54:16.0000000+00:00</time></trkpt><trkpt lat="43.033932" lon="19.083305"><ele>1376.6</ele><time>2012-05-02T04:54:21.0000000+00:00</time></trkpt><trkpt lat="43.033054" lon="19.084177"><ele>1368.1</ele><time>2012-05-02T04:54:26.0000000+00:00</time></trkpt><trkpt lat="43.032181" lon="19.085068"><ele>1360.4</ele><time>2012-05-02T04:54:31.0000000+00:00</time></trkpt><trkpt lat="43.031441" lon="19.086098"><ele>1353.0</ele><time>2012-05-02T04:54:36.0000000+00:00</time></trkpt><trkpt lat="43.030807" lon="19.087267"><ele>1346.6</ele><time>2012-05-02T04:54:41.0000000+00:00</time></trkpt><trkpt lat="43.030167" lon="19.088449"><ele>1338.4</ele><time>2012-05-02T04:54:46.0000000+00:00</time></trkpt><trkpt lat="43.029392" lon="19.089392"><ele>1332.1</ele><time>2012-05-02T04:54:51.0000000+00:00</time></trkpt><trkpt lat="43.028473" lon="19.089931"><ele>1328.5</ele><time>2012-05-02T04:54:56.0000000+00:00</time></trkpt><trkpt lat="43.027489" lon="19.090075"><ele>1324.5</ele><time>2012-05-02T04:55:01.0000000+00:00</time></trkpt><trkpt lat="43.026512" lon="19.089832"><ele>1320.7</ele><time>2012-05-02T04:55:06.0000000+00:00</time></trkpt><trkpt lat="43.025558" lon="19.089319"><ele>1318.8</ele><time>2012-05-02T04:55:11.0000000+00:00</time></trkpt><trkpt lat="43.024605" lon="19.088755"><ele>1315.7</ele><time>2012-05-02T04:55:16.0000000+00:00</time></trkpt><trkpt lat="43.023613" lon="19.088173"><ele>1310.1</ele><time>2012-05-02T04:55:21.0000000+00:00</time></trkpt><trkpt lat="43.022579" lon="19.08757"><ele>1304.2</ele><time>2012-05-02T04:55:26.0000000+00:00</time></trkpt><trkpt lat="43.02153" lon="19.086966"><ele>1298.6</ele><time>2012-05-02T04:55:31.0000000+00:00</time></trkpt><trkpt lat="43.020489" lon="19.086361"><ele>1292.7</ele><time>2012-05-02T04:55:36.0000000+00:00</time></trkpt><trkpt lat="43.019485" lon="19.085789"><ele>1287.8</ele><time>2012-05-02T04:55:41.0000000+00:00</time></trkpt><trkpt lat="43.018707" lon="19.085344"><ele>1283.9</ele><time>2012-05-02T04:55:46.0000000+00:00</time></trkpt><trkpt lat="43.018059" lon="19.08485"><ele>1280.3</ele><time>2012-05-02T04:55:51.0000000+00:00</time></trkpt><trkpt lat="43.01746" lon="19.084259"><ele>1278.5</ele><time>2012-05-02T04:55:56.0000000+00:00</time></trkpt><trkpt lat="43.016697" lon="19.08371"><ele>1273.4</ele><time>2012-05-02T04:56:02.0000000+00:00</time></trkpt><trkpt lat="43.016041" lon="19.083405"><ele>1273.6</ele><time>2012-05-02T04:56:07.0000000+00:00</time></trkpt><trkpt lat="43.015289" lon="19.083418"><ele>1273.3</ele><time>2012-05-02T04:56:12.0000000+00:00</time></trkpt><trkpt lat="43.014561" lon="19.083452"><ele>1271.1</ele><time>2012-05-02T04:56:17.0000000+00:00</time></trkpt><trkpt lat="43.013893" lon="19.083147"><ele>1268.7</ele><time>2012-05-02T04:56:22.0000000+00:00</time></trkpt><trkpt lat="43.013428" lon="19.082415"><ele>1264.7</ele><time>2012-05-02T04:56:27.0000000+00:00</time></trkpt><trkpt lat="43.013294" lon="19.081438"><ele>1260.0</ele><time>2012-05-02T04:56:32.0000000+00:00</time></trkpt><trkpt lat="43.013256" lon="19.0804"><ele>1256.6</ele><time>2012-05-02T04:56:37.0000000+00:00</time></trkpt><trkpt lat="43.013199" lon="19.079336"><ele>1253.3</ele><time>2012-05-02T04:56:42.0000000+00:00</time></trkpt><trkpt lat="43.012974" lon="19.078316"><ele>1251.1</ele><time>2012-05-02T04:56:47.0000000+00:00</time></trkpt><trkpt lat="43.012691" lon="19.077341"><ele>1249.2</ele><time>2012-05-02T04:56:52.0000000+00:00</time></trkpt><trkpt lat="43.01228" lon="19.0765"><ele>1246.6</ele><time>2012-05-02T04:56:57.0000000+00:00</time></trkpt><trkpt lat="43.011627" lon="19.076065"><ele>1244.2</ele><time>2012-05-02T04:57:02.0000000+00:00</time></trkpt><trkpt lat="43.010906" lon="19.076155"><ele>1241.8</ele><time>2012-05-02T04:57:07.0000000+00:00</time></trkpt><trkpt lat="43.010262" lon="19.07671"><ele>1237.6</ele><time>2012-05-02T04:57:12.0000000+00:00</time></trkpt><trkpt lat="43.00959" lon="19.077351"><ele>1232.0</ele><time>2012-05-02T04:57:17.0000000+00:00</time></trkpt><trkpt lat="43.008755" lon="19.077709"><ele>1226.5</ele><time>2012-05-02T04:57:22.0000000+00:00</time></trkpt><trkpt lat="43.007793" lon="19.077833"><ele>1220.9</ele><time>2012-05-02T04:57:27.0000000+00:00</time></trkpt><trkpt lat="43.006805" lon="19.077961"><ele>1215.6</ele><time>2012-05-02T04:57:32.0000000+00:00</time></trkpt><trkpt lat="43.005806" lon="19.078085"><ele>1210.3</ele><time>2012-05-02T04:57:37.0000000+00:00</time></trkpt><trkpt lat="43.00478" lon="19.078125"><ele>1204.9</ele><time>2012-05-02T04:57:42.0000000+00:00</time></trkpt><trkpt lat="43.003761" lon="19.07789"><ele>1199.4</ele><time>2012-05-02T04:57:47.0000000+00:00</time></trkpt><trkpt lat="43.00275" lon="19.077477"><ele>1193.9</ele><time>2012-05-02T04:57:52.0000000+00:00</time></trkpt><trkpt lat="43.001724" lon="19.077059"><ele>1188.5</ele><time>2012-05-02T04:57:57.0000000+00:00</time></trkpt><trkpt lat="43.00069" lon="19.076653"><ele>1184.2</ele><time>2012-05-02T04:58:02.0000000+00:00</time></trkpt><trkpt lat="42.999641" lon="19.076427"><ele>1179.1</ele><time>2012-05-02T04:58:07.0000000+00:00</time></trkpt><trkpt lat="42.998608" lon="19.076332"><ele>1173.3</ele><time>2012-05-02T04:58:12.0000000+00:00</time></trkpt><trkpt lat="42.997581" lon="19.076155"><ele>1166.5</ele><time>2012-05-02T04:58:17.0000000+00:00</time></trkpt><trkpt lat="42.99659" lon="19.075703"><ele>1158.2</ele><time>2012-05-02T04:58:22.0000000+00:00</time></trkpt><trkpt lat="42.995621" lon="19.075314"><ele>1149.6</ele><time>2012-05-02T04:58:27.0000000+00:00</time></trkpt><trkpt lat="42.994637" lon="19.075066"><ele>1140.4</ele><time>2012-05-02T04:58:32.0000000+00:00</time></trkpt><trkpt lat="42.993767" lon="19.074551"><ele>1132.3</ele><time>2012-05-02T04:58:37.0000000+00:00</time></trkpt><trkpt lat="42.993027" lon="19.073912"><ele>1124.0</ele><time>2012-05-02T04:58:42.0000000+00:00</time></trkpt><trkpt lat="42.992176" lon="19.073702"><ele>1116.6</ele><time>2012-05-02T04:58:47.0000000+00:00</time></trkpt><trkpt lat="42.991245" lon="19.073746"><ele>1108.4</ele><time>2012-05-02T04:58:52.0000000+00:00</time></trkpt><trkpt lat="42.990326" lon="19.073788"><ele>1099.9</ele><time>2012-05-02T04:58:57.0000000+00:00</time></trkpt><trkpt lat="42.98954" lon="19.073565"><ele>1092.2</ele><time>2012-05-02T04:59:02.0000000+00:00</time></trkpt><trkpt lat="42.988945" lon="19.072762"><ele>1084.6</ele><time>2012-05-02T04:59:07.0000000+00:00</time></trkpt><trkpt lat="42.988403" lon="19.071873"><ele>1076.1</ele><time>2012-05-02T04:59:12.0000000+00:00</time></trkpt><trkpt lat="42.987625" lon="19.071283"><ele>1068.5</ele><time>2012-05-02T04:59:17.0000000+00:00</time></trkpt><trkpt lat="42.986805" lon="19.071037"><ele>1061.5</ele><time>2012-05-02T04:59:22.0000000+00:00</time></trkpt><trkpt lat="42.986126" lon="19.07139"><ele>1056.2</ele><time>2012-05-02T04:59:27.0000000+00:00</time></trkpt><trkpt lat="42.985569" lon="19.072126"><ele>1051.7</ele><time>2012-05-02T04:59:32.0000000+00:00</time></trkpt><trkpt lat="42.98497" lon="19.072781"><ele>1047.5</ele><time>2012-05-02T04:59:37.0000000+00:00</time></trkpt><trkpt lat="42.984245" lon="19.073195"><ele>1043.0</ele><time>2012-05-02T04:59:42.0000000+00:00</time></trkpt><trkpt lat="42.983505" lon="19.073586"><ele>1038.0</ele><time>2012-05-02T04:59:47.0000000+00:00</time></trkpt><trkpt lat="42.982773" lon="19.07408"><ele>1031.9</ele><time>2012-05-02T04:59:52.0000000+00:00</time></trkpt><trkpt lat="42.98201" lon="19.07461"><ele>1025.3</ele><time>2012-05-02T04:59:57.0000000+00:00</time></trkpt><trkpt lat="42.981228" lon="19.075165"><ele>1018.7</ele><time>2012-05-02T05:00:02.0000000+00:00</time></trkpt><trkpt lat="42.98048" lon="19.075811"><ele>1012.2</ele><time>2012-05-02T05:00:07.0000000+00:00</time></trkpt><trkpt lat="42.980007" lon="19.076813"><ele>1007.8</ele><time>2012-05-02T05:00:12.0000000+00:00</time></trkpt><trkpt lat="42.979897" lon="19.078007"><ele>1004.3</ele><time>2012-05-02T05:00:17.0000000+00:00</time></trkpt><trkpt lat="42.980049" lon="19.079145"><ele>999.9</ele><time>2012-05-02T05:00:22.0000000+00:00</time></trkpt><trkpt lat="42.980198" lon="19.080225"><ele>995.4</ele><time>2012-05-02T05:00:27.0000000+00:00</time></trkpt><trkpt lat="42.980148" lon="19.081291"><ele>990.5</ele><time>2012-05-02T05:00:32.0000000+00:00</time></trkpt><trkpt lat="42.979736" lon="19.082272"><ele>984.6</ele><time>2012-05-02T05:00:37.0000000+00:00</time></trkpt><trkpt lat="42.978992" lon="19.082918"><ele>978.6</ele><time>2012-05-02T05:00:42.0000000+00:00</time></trkpt><trkpt lat="42.978107" lon="19.083281"><ele>972.2</ele><time>2012-05-02T05:00:47.0000000+00:00</time></trkpt><trkpt lat="42.977291" lon="19.083611"><ele>966.0</ele><time>2012-05-02T05:00:52.0000000+00:00</time></trkpt><trkpt lat="42.976578" lon="19.083822"><ele>961.1</ele><time>2012-05-02T05:00:57.0000000+00:00</time></trkpt><trkpt lat="42.975826" lon="19.083803"><ele>956.1</ele><time>2012-05-02T05:01:02.0000000+00:00</time></trkpt><trkpt lat="42.975048" lon="19.083855"><ele>950.9</ele><time>2012-05-02T05:01:07.0000000+00:00</time></trkpt><trkpt lat="42.974285" lon="19.084209"><ele>945.8</ele><time>2012-05-02T05:01:12.0000000+00:00</time></trkpt><trkpt lat="42.973534" lon="19.084686"><ele>940.2</ele><time>2012-05-02T05:01:17.0000000+00:00</time></trkpt><trkpt lat="42.972797" lon="19.085299"><ele>934.2</ele><time>2012-05-02T05:01:22.0000000+00:00</time></trkpt><trkpt lat="42.971966" lon="19.085678"><ele>928.1</ele><time>2012-05-02T05:01:27.0000000+00:00</time></trkpt><trkpt lat="42.971111" lon="19.08592"><ele>922.4</ele><time>2012-05-02T05:01:32.0000000+00:00</time></trkpt><trkpt lat="42.970352" lon="19.086304"><ele>916.8</ele><time>2012-05-02T05:01:37.0000000+00:00</time></trkpt><trkpt lat="42.969685" lon="19.086987"><ele>911.2</ele><time>2012-05-02T05:01:42.0000000+00:00</time></trkpt><trkpt lat="42.969002" lon="19.087719"><ele>905.3</ele><time>2012-05-02T05:01:47.0000000+00:00</time></trkpt><trkpt lat="42.968307" lon="19.08848"><ele>899.2</ele><time>2012-05-02T05:01:52.0000000+00:00</time></trkpt><trkpt lat="42.967537" lon="19.089144"><ele>892.6</ele><time>2012-05-02T05:01:57.0000000+00:00</time></trkpt><trkpt lat="42.966644" lon="19.0895"><ele>886.4</ele><time>2012-05-02T05:02:02.0000000+00:00</time></trkpt><trkpt lat="42.965702" lon="19.089619"><ele>880.2</ele><time>2012-05-02T05:02:07.0000000+00:00</time></trkpt><trkpt lat="42.964897" lon="19.089993"><ele>874.7</ele><time>2012-05-02T05:02:12.0000000+00:00</time></trkpt><trkpt lat="42.964252" lon="19.090729"><ele>869.2</ele><time>2012-05-02T05:02:17.0000000+00:00</time></trkpt><trkpt lat="42.963509" lon="19.09129"><ele>863.6</ele><time>2012-05-02T05:02:22.0000000+00:00</time></trkpt><trkpt lat="42.962742" lon="19.091616"><ele>858.4</ele><time>2012-05-02T05:02:27.0000000+00:00</time></trkpt><trkpt lat="42.962147" lon="19.092316"><ele>853.4</ele><time>2012-05-02T05:02:32.0000000+00:00</time></trkpt><trkpt lat="42.961555" lon="19.093037"><ele>850.0</ele><time>2012-05-02T05:02:37.0000000+00:00</time></trkpt><trkpt lat="42.960812" lon="19.093277"><ele>847.8</ele><time>2012-05-02T05:02:42.0000000+00:00</time></trkpt><trkpt lat="42.960098" lon="19.093363"><ele>846.5</ele><time>2012-05-02T05:02:47.0000000+00:00</time></trkpt><trkpt lat="42.959499" lon="19.093685"><ele>845.1</ele><time>2012-05-02T05:02:52.0000000+00:00</time></trkpt><trkpt lat="42.958977" lon="19.09413"><ele>842.4</ele><time>2012-05-02T05:02:57.0000000+00:00</time></trkpt><trkpt lat="42.958511" lon="19.094507"><ele>840.5</ele><time>2012-05-02T05:03:02.0000000+00:00</time></trkpt><trkpt lat="42.958031" lon="19.094795"><ele>837.2</ele><time>2012-05-02T05:03:07.0000000+00:00</time></trkpt><trkpt lat="42.957691" lon="19.095051"><ele>836.0</ele><time>2012-05-02T05:03:12.0000000+00:00</time></trkpt><trkpt lat="42.957653" lon="19.095467"><ele>835.4</ele><time>2012-05-02T05:03:17.0000000+00:00</time></trkpt><trkpt lat="42.957676" lon="19.095961"><ele>834.0</ele><time>2012-05-02T05:03:22.0000000+00:00</time></trkpt><trkpt lat="42.957703" lon="19.096384"><ele>832.7</ele><time>2012-05-02T05:03:27.0000000+00:00</time></trkpt><trkpt lat="42.957588" lon="19.096539"><ele>832.4</ele><time>2012-05-02T05:03:32.0000000+00:00</time></trkpt><trkpt lat="42.957371" lon="19.096617"><ele>831.9</ele><time>2012-05-02T05:03:37.0000000+00:00</time></trkpt><trkpt lat="42.957233" lon="19.096354"><ele>831.4</ele><time>2012-05-02T05:03:42.0000000+00:00</time></trkpt><trkpt lat="42.957031" lon="19.096069"><ele>829.4</ele><time>2012-05-02T05:03:47.0000000+00:00</time></trkpt><trkpt lat="42.956684" lon="19.096045"><ele>828.2</ele><time>2012-05-02T05:03:52.0000000+00:00</time></trkpt><trkpt lat="42.956272" lon="19.096416"><ele>827.8</ele><time>2012-05-02T05:03:57.0000000+00:00</time></trkpt><trkpt lat="42.955761" lon="19.096941"><ele>828.5</ele><time>2012-05-02T05:04:02.0000000+00:00</time></trkpt><trkpt lat="42.955097" lon="19.097446"><ele>830.8</ele><time>2012-05-02T05:04:07.0000000+00:00</time></trkpt><trkpt lat="42.954468" lon="19.097836"><ele>833.5</ele><time>2012-05-02T05:04:12.0000000+00:00</time></trkpt><trkpt lat="42.953922" lon="19.098021"><ele>836.3</ele><time>2012-05-02T05:04:17.0000000+00:00</time></trkpt><trkpt lat="42.953487" lon="19.097916"><ele>839.4</ele><time>2012-05-02T05:04:22.0000000+00:00</time></trkpt><trkpt lat="42.953117" lon="19.098011"><ele>842.2</ele><time>2012-05-02T05:04:27.0000000+00:00</time></trkpt><trkpt lat="42.952774" lon="19.098272"><ele>844.8</ele><time>2012-05-02T05:04:32.0000000+00:00</time></trkpt><trkpt lat="42.952435" lon="19.098564"><ele>847.2</ele><time>2012-05-02T05:04:37.0000000+00:00</time></trkpt><trkpt lat="42.952164" lon="19.098888"><ele>847.8</ele><time>2012-05-02T05:04:42.0000000+00:00</time></trkpt><trkpt lat="42.951763" lon="19.099167"><ele>847.3</ele><time>2012-05-02T05:04:47.0000000+00:00</time></trkpt><trkpt lat="42.951271" lon="19.099417"><ele>846.2</ele><time>2012-05-02T05:04:52.0000000+00:00</time></trkpt><trkpt lat="42.950813" lon="19.099731"><ele>844.8</ele><time>2012-05-02T05:04:57.0000000+00:00</time></trkpt><trkpt lat="42.950405" lon="19.099962"><ele>843.6</ele><time>2012-05-02T05:05:02.0000000+00:00</time></trkpt><trkpt lat="42.950039" lon="19.099861"><ele>842.9</ele><time>2012-05-02T05:05:07.0000000+00:00</time></trkpt><trkpt lat="42.949825" lon="19.099543"><ele>842.8</ele><time>2012-05-02T05:05:12.0000000+00:00</time></trkpt><trkpt lat="42.950031" lon="19.099171"><ele>844.4</ele><time>2012-05-02T05:05:17.0000000+00:00</time></trkpt><trkpt lat="42.950466" lon="19.09911"><ele>846.6</ele><time>2012-05-02T05:05:22.0000000+00:00</time></trkpt><trkpt lat="42.950844" lon="19.098696"><ele>849.9</ele><time>2012-05-02T05:05:27.0000000+00:00</time></trkpt><trkpt lat="42.951225" lon="19.098284"><ele>852.8</ele><time>2012-05-02T05:05:32.0000000+00:00</time></trkpt><trkpt lat="42.951595" lon="19.097931"><ele>855.9</ele><time>2012-05-02T05:05:37.0000000+00:00</time></trkpt><trkpt lat="42.951698" lon="19.097281"><ele>859.3</ele><time>2012-05-02T05:05:42.0000000+00:00</time></trkpt><trkpt lat="42.95187" lon="19.096643"><ele>862.7</ele><time>2012-05-02T05:05:47.0000000+00:00</time></trkpt><trkpt lat="42.952187" lon="19.096109"><ele>865.8</ele><time>2012-05-02T05:05:52.0000000+00:00</time></trkpt><trkpt lat="42.952461" lon="19.095604"><ele>869.4</ele><time>2012-05-02T05:05:57.0000000+00:00</time></trkpt><trkpt lat="42.952381" lon="19.095079"><ele>871.5</ele><time>2012-05-02T05:06:02.0000000+00:00</time></trkpt><trkpt lat="42.952232" lon="19.094585"><ele>874.8</ele><time>2012-05-02T05:06:07.0000000+00:00</time></trkpt><trkpt lat="42.952171" lon="19.094213"><ele>877.3</ele><time>2012-05-02T05:06:12.0000000+00:00</time></trkpt><trkpt lat="42.951962" lon="19.09429"><ele>879.5</ele><time>2012-05-02T05:06:17.0000000+00:00</time></trkpt><trkpt lat="42.952023" lon="19.094807"><ele>881.3</ele><time>2012-05-02T05:06:22.0000000+00:00</time></trkpt><trkpt lat="42.951942" lon="19.095369"><ele>885.7</ele><time>2012-05-02T05:06:27.0000000+00:00</time></trkpt><trkpt lat="42.951576" lon="19.095793"><ele>888.6</ele><time>2012-05-02T05:06:32.0000000+00:00</time></trkpt><trkpt lat="42.951172" lon="19.095947"><ele>890.7</ele><time>2012-05-02T05:06:37.0000000+00:00</time></trkpt><trkpt lat="42.950916" lon="19.096312"><ele>892.4</ele><time>2012-05-02T05:06:42.0000000+00:00</time></trkpt><trkpt lat="42.950752" lon="19.096861"><ele>895.7</ele><time>2012-05-02T05:06:47.0000000+00:00</time></trkpt><trkpt lat="42.950302" lon="19.097036"><ele>898.1</ele><time>2012-05-02T05:06:52.0000000+00:00</time></trkpt><trkpt lat="42.949715" lon="19.097115"><ele>899.8</ele><time>2012-05-02T05:06:57.0000000+00:00</time></trkpt><trkpt lat="42.949123" lon="19.097088"><ele>901.6</ele><time>2012-05-02T05:07:02.0000000+00:00</time></trkpt><trkpt lat="42.948563" lon="19.097214"><ele>904.8</ele><time>2012-05-02T05:07:07.0000000+00:00</time></trkpt><trkpt lat="42.948235" lon="19.097666"><ele>907.4</ele><time>2012-05-02T05:07:12.0000000+00:00</time></trkpt><trkpt lat="42.948097" lon="19.098322"><ele>910.6</ele><time>2012-05-02T05:07:17.0000000+00:00</time></trkpt><trkpt lat="42.947742" lon="19.098766"><ele>914.6</ele><time>2012-05-02T05:07:22.0000000+00:00</time></trkpt><trkpt lat="42.947426" lon="19.099152"><ele>919.3</ele><time>2012-05-02T05:07:27.0000000+00:00</time></trkpt><trkpt lat="42.947342" lon="19.09959"><ele>921.9</ele><time>2012-05-02T05:07:32.0000000+00:00</time></trkpt><trkpt lat="42.947315" lon="19.099958"><ele>923.5</ele><time>2012-05-02T05:07:37.0000000+00:00</time></trkpt><trkpt lat="42.947208" lon="19.099886"><ele>924.3</ele><time>2012-05-02T05:07:42.0000000+00:00</time></trkpt><trkpt lat="42.947235" lon="19.099401"><ele>925.5</ele><time>2012-05-02T05:07:47.0000000+00:00</time></trkpt><trkpt lat="42.947262" lon="19.09874"><ele>928.8</ele><time>2012-05-02T05:07:52.0000000+00:00</time></trkpt><trkpt lat="42.94743" lon="19.098125"><ele>933.1</ele><time>2012-05-02T05:07:57.0000000+00:00</time></trkpt><trkpt lat="42.947483" lon="19.097469"><ele>936.1</ele><time>2012-05-02T05:08:02.0000000+00:00</time></trkpt><trkpt lat="42.947823" lon="19.096746"><ele>940.4</ele><time>2012-05-02T05:08:07.0000000+00:00</time></trkpt><trkpt lat="42.948185" lon="19.09594"><ele>944.7</ele><time>2012-05-02T05:08:12.0000000+00:00</time></trkpt><trkpt lat="42.948635" lon="19.095379"><ele>949.0</ele><time>2012-05-02T05:08:17.0000000+00:00</time></trkpt><trkpt lat="42.949074" lon="19.095324"><ele>951.9</ele><time>2012-05-02T05:08:22.0000000+00:00</time></trkpt><trkpt lat="42.949444" lon="19.095165"><ele>954.7</ele><time>2012-05-02T05:08:27.0000000+00:00</time></trkpt><trkpt lat="42.949505" lon="19.094902"><ele>956.6</ele><time>2012-05-02T05:08:32.0000000+00:00</time></trkpt><trkpt lat="42.949245" lon="19.094995"><ele>958.2</ele><time>2012-05-02T05:08:37.0000000+00:00</time></trkpt><trkpt lat="42.948929" lon="19.094931"><ele>960.1</ele><time>2012-05-02T05:08:42.0000000+00:00</time></trkpt><trkpt lat="42.948559" lon="19.094839"><ele>963.1</ele><time>2012-05-02T05:08:47.0000000+00:00</time></trkpt><trkpt lat="42.948109" lon="19.095078"><ele>966.2</ele><time>2012-05-02T05:08:52.0000000+00:00</time></trkpt><trkpt lat="42.947819" lon="19.095402"><ele>968.0</ele><time>2012-05-02T05:08:57.0000000+00:00</time></trkpt><trkpt lat="42.947647" lon="19.095522"><ele>969.0</ele><time>2012-05-02T05:09:02.0000000+00:00</time></trkpt><trkpt lat="42.947727" lon="19.095274"><ele>969.6</ele><time>2012-05-02T05:09:07.0000000+00:00</time></trkpt><trkpt lat="42.948025" lon="19.094942"><ele>971.2</ele><time>2012-05-02T05:09:12.0000000+00:00</time></trkpt><trkpt lat="42.948349" lon="19.094501"><ele>974.0</ele><time>2012-05-02T05:09:17.0000000+00:00</time></trkpt><trkpt lat="42.94873" lon="19.09417"><ele>977.5</ele><time>2012-05-02T05:09:22.0000000+00:00</time></trkpt><trkpt lat="42.949043" lon="19.093891"><ele>980.4</ele><time>2012-05-02T05:09:27.0000000+00:00</time></trkpt><trkpt lat="42.949135" lon="19.093386"><ele>982.3</ele><time>2012-05-02T05:09:32.0000000+00:00</time></trkpt><trkpt lat="42.949417" lon="19.093149"><ele>984.7</ele><time>2012-05-02T05:09:37.0000000+00:00</time></trkpt><trkpt lat="42.94949" lon="19.092873"><ele>986.3</ele><time>2012-05-02T05:09:42.0000000+00:00</time></trkpt><trkpt lat="42.949215" lon="19.09301"><ele>987.4</ele><time>2012-05-02T05:09:47.0000000+00:00</time></trkpt><trkpt lat="42.948792" lon="19.093407"><ele>990.3</ele><time>2012-05-02T05:09:52.0000000+00:00</time></trkpt><trkpt lat="42.948238" lon="19.093687"><ele>993.1</ele><time>2012-05-02T05:09:57.0000000+00:00</time></trkpt><trkpt lat="42.947716" lon="19.094141"><ele>996.7</ele><time>2012-05-02T05:10:02.0000000+00:00</time></trkpt><trkpt lat="42.947231" lon="19.094397"><ele>999.7</ele><time>2012-05-02T05:10:07.0000000+00:00</time></trkpt><trkpt lat="42.946938" lon="19.094673"><ele>1002.1</ele><time>2012-05-02T05:10:12.0000000+00:00</time></trkpt><trkpt lat="42.946785" lon="19.094805"><ele>1003.1</ele><time>2012-05-02T05:10:17.0000000+00:00</time></trkpt><trkpt lat="42.946846" lon="19.094511"><ele>1003.7</ele><time>2012-05-02T05:10:22.0000000+00:00</time></trkpt><trkpt lat="42.947094" lon="19.094097"><ele>1005.8</ele><time>2012-05-02T05:10:27.0000000+00:00</time></trkpt><trkpt lat="42.947445" lon="19.093632"><ele>1009.0</ele><time>2012-05-02T05:10:32.0000000+00:00</time></trkpt><trkpt lat="42.947922" lon="19.09318"><ele>1012.1</ele><time>2012-05-02T05:10:37.0000000+00:00</time></trkpt><trkpt lat="42.94828" lon="19.092432"><ele>1015.0</ele><time>2012-05-02T05:10:42.0000000+00:00</time></trkpt><trkpt lat="42.948597" lon="19.091816"><ele>1018.4</ele><time>2012-05-02T05:10:47.0000000+00:00</time></trkpt><trkpt lat="42.948853" lon="19.091675"><ele>1020.4</ele><time>2012-05-02T05:10:52.0000000+00:00</time></trkpt><trkpt lat="42.948681" lon="19.091516"><ele>1021.2</ele><time>2012-05-02T05:10:57.0000000+00:00</time></trkpt><trkpt lat="42.948322" lon="19.091751"><ele>1024.0</ele><time>2012-05-02T05:11:02.0000000+00:00</time></trkpt><trkpt lat="42.947933" lon="19.092209"><ele>1027.4</ele><time>2012-05-02T05:11:07.0000000+00:00</time></trkpt><trkpt lat="42.947563" lon="19.092579"><ele>1030.2</ele><time>2012-05-02T05:11:12.0000000+00:00</time></trkpt><trkpt lat="42.947048" lon="19.092762"><ele>1034.3</ele><time>2012-05-02T05:11:17.0000000+00:00</time></trkpt><trkpt lat="42.946541" lon="19.092821"><ele>1036.0</ele><time>2012-05-02T05:11:22.0000000+00:00</time></trkpt><trkpt lat="42.94614" lon="19.092863"><ele>1035.7</ele><time>2012-05-02T05:11:27.0000000+00:00</time></trkpt><trkpt lat="42.945919" lon="19.093245"><ele>1038.0</ele><time>2012-05-02T05:11:32.0000000+00:00</time></trkpt><trkpt lat="42.945827" lon="19.093121"><ele>1040.0</ele><time>2012-05-02T05:11:37.0000000+00:00</time></trkpt><trkpt lat="42.94598" lon="19.09273"><ele>1041.5</ele><time>2012-05-02T05:11:42.0000000+00:00</time></trkpt><trkpt lat="42.946228" lon="19.092405"><ele>1044.7</ele><time>2012-05-02T05:11:47.0000000+00:00</time></trkpt><trkpt lat="42.946655" lon="19.092319"><ele>1047.1</ele><time>2012-05-02T05:11:52.0000000+00:00</time></trkpt><trkpt lat="42.947044" lon="19.092003"><ele>1050.0</ele><time>2012-05-02T05:11:57.0000000+00:00</time></trkpt><trkpt lat="42.947384" lon="19.091555"><ele>1052.4</ele><time>2012-05-02T05:12:02.0000000+00:00</time></trkpt><trkpt lat="42.947628" lon="19.090965"><ele>1055.6</ele><time>2012-05-02T05:12:07.0000000+00:00</time></trkpt><trkpt lat="42.94796" lon="19.090502"><ele>1059.1</ele><time>2012-05-02T05:12:12.0000000+00:00</time></trkpt><trkpt lat="42.948399" lon="19.090235"><ele>1062.1</ele><time>2012-05-02T05:12:17.0000000+00:00</time></trkpt><trkpt lat="42.94875" lon="19.089947"><ele>1064.8</ele><time>2012-05-02T05:12:22.0000000+00:00</time></trkpt><trkpt lat="42.948898" lon="19.089401"><ele>1067.5</ele><time>2012-05-02T05:12:27.0000000+00:00</time></trkpt><trkpt lat="42.949322" lon="19.089317"><ele>1069.9</ele><time>2012-05-02T05:12:32.0000000+00:00</time></trkpt><trkpt lat="42.949905" lon="19.089388"><ele>1072.9</ele><time>2012-05-02T05:12:37.0000000+00:00</time></trkpt><trkpt lat="42.950401" lon="19.089361"><ele>1077.0</ele><time>2012-05-02T05:12:42.0000000+00:00</time></trkpt><trkpt lat="42.950634" lon="19.088907"><ele>1079.1</ele><time>2012-05-02T05:12:47.0000000+00:00</time></trkpt><trkpt lat="42.950504" lon="19.088327"><ele>1081.3</ele><time>2012-05-02T05:12:52.0000000+00:00</time></trkpt><trkpt lat="42.950317" lon="19.087706"><ele>1082.5</ele><time>2012-05-02T05:12:57.0000000+00:00</time></trkpt><trkpt lat="42.95015" lon="19.087118"><ele>1083.3</ele><time>2012-05-02T05:13:02.0000000+00:00</time></trkpt><trkpt lat="42.950035" lon="19.086506"><ele>1082.9</ele><time>2012-05-02T05:13:07.0000000+00:00</time></trkpt><trkpt lat="42.949837" lon="19.085999"><ele>1082.7</ele><time>2012-05-02T05:13:12.0000000+00:00</time></trkpt><trkpt lat="42.949467" lon="19.085802"><ele>1081.1</ele><time>2012-05-02T05:13:17.0000000+00:00</time></trkpt><trkpt lat="42.949368" lon="19.085302"><ele>1081.3</ele><time>2012-05-02T05:13:22.0000000+00:00</time></trkpt><trkpt lat="42.949329" lon="19.084599"><ele>1081.6</ele><time>2012-05-02T05:13:27.0000000+00:00</time></trkpt><trkpt lat="42.949196" lon="19.083843"><ele>1080.8</ele><time>2012-05-02T05:13:32.0000000+00:00</time></trkpt><trkpt lat="42.949123" lon="19.083117"><ele>1081.7</ele><time>2012-05-02T05:13:37.0000000+00:00</time></trkpt><trkpt lat="42.949139" lon="19.082409"><ele>1082.0</ele><time>2012-05-02T05:13:42.0000000+00:00</time></trkpt><trkpt lat="42.949055" lon="19.081892"><ele>1081.3</ele><time>2012-05-02T05:13:47.0000000+00:00</time></trkpt><trkpt lat="42.948742" lon="19.081551"><ele>1081.2</ele><time>2012-05-02T05:13:52.0000000+00:00</time></trkpt><trkpt lat="42.948387" lon="19.081142"><ele>1081.5</ele><time>2012-05-02T05:13:57.0000000+00:00</time></trkpt><trkpt lat="42.948093" lon="19.080618"><ele>1080.8</ele><time>2012-05-02T05:14:02.0000000+00:00</time></trkpt><trkpt lat="42.94783" lon="19.079981"><ele>1081.0</ele><time>2012-05-02T05:14:07.0000000+00:00</time></trkpt><trkpt lat="42.947521" lon="19.079403"><ele>1080.2</ele><time>2012-05-02T05:14:12.0000000+00:00</time></trkpt><trkpt lat="42.947388" lon="19.078842"><ele>1079.7</ele><time>2012-05-02T05:14:17.0000000+00:00</time></trkpt><trkpt lat="42.947056" lon="19.078623"><ele>1077.4</ele><time>2012-05-02T05:14:22.0000000+00:00</time></trkpt><trkpt lat="42.946671" lon="19.078342"><ele>1074.3</ele><time>2012-05-02T05:14:27.0000000+00:00</time></trkpt><trkpt lat="42.946613" lon="19.077742"><ele>1071.5</ele><time>2012-05-02T05:14:32.0000000+00:00</time></trkpt><trkpt lat="42.94648" lon="19.077185"><ele>1070.8</ele><time>2012-05-02T05:14:37.0000000+00:00</time></trkpt><trkpt lat="42.946121" lon="19.077019"><ele>1069.9</ele><time>2012-05-02T05:14:42.0000000+00:00</time></trkpt><trkpt lat="42.945751" lon="19.077139"><ele>1068.9</ele><time>2012-05-02T05:14:47.0000000+00:00</time></trkpt><trkpt lat="42.945492" lon="19.076748"><ele>1068.1</ele><time>2012-05-02T05:14:52.0000000+00:00</time></trkpt><trkpt lat="42.945515" lon="19.076128"><ele>1066.5</ele><time>2012-05-02T05:14:57.0000000+00:00</time></trkpt><trkpt lat="42.945675" lon="19.075497"><ele>1066.3</ele><time>2012-05-02T05:15:02.0000000+00:00</time></trkpt><trkpt lat="42.945805" lon="19.074856"><ele>1065.5</ele><time>2012-05-02T05:15:07.0000000+00:00</time></trkpt><trkpt lat="42.945797" lon="19.074144"><ele>1063.1</ele><time>2012-05-02T05:15:12.0000000+00:00</time></trkpt><trkpt lat="42.945484" lon="19.073532"><ele>1060.1</ele><time>2012-05-02T05:15:17.0000000+00:00</time></trkpt><trkpt lat="42.945" lon="19.073353"><ele>1057.4</ele><time>2012-05-02T05:15:22.0000000+00:00</time></trkpt><trkpt lat="42.944515" lon="19.073099"><ele>1053.7</ele><time>2012-05-02T05:15:27.0000000+00:00</time></trkpt><trkpt lat="42.944111" lon="19.073158"><ele>1050.8</ele><time>2012-05-02T05:15:32.0000000+00:00</time></trkpt><trkpt lat="42.943768" lon="19.073509"><ele>1048.6</ele><time>2012-05-02T05:15:37.0000000+00:00</time></trkpt><trkpt lat="42.943363" lon="19.073412"><ele>1046.1</ele><time>2012-05-02T05:15:42.0000000+00:00</time></trkpt><trkpt lat="42.943012" lon="19.072971"><ele>1044.1</ele><time>2012-05-02T05:15:47.0000000+00:00</time></trkpt><trkpt lat="42.942696" lon="19.072412"><ele>1041.8</ele><time>2012-05-02T05:15:52.0000000+00:00</time></trkpt><trkpt lat="42.942341" lon="19.071951"><ele>1039.0</ele><time>2012-05-02T05:15:57.0000000+00:00</time></trkpt><trkpt lat="42.941891" lon="19.071703"><ele>1037.1</ele><time>2012-05-02T05:16:02.0000000+00:00</time></trkpt><trkpt lat="42.941345" lon="19.071642"><ele>1035.5</ele><time>2012-05-02T05:16:07.0000000+00:00</time></trkpt><trkpt lat="42.940655" lon="19.071716"><ele>1034.7</ele><time>2012-05-02T05:16:12.0000000+00:00</time></trkpt><trkpt lat="42.939915" lon="19.071783"><ele>1034.4</ele><time>2012-05-02T05:16:17.0000000+00:00</time></trkpt><trkpt lat="42.939266" lon="19.071846"><ele>1036.4</ele><time>2012-05-02T05:16:22.0000000+00:00</time></trkpt><trkpt lat="42.938766" lon="19.071867"><ele>1038.4</ele><time>2012-05-02T05:16:27.0000000+00:00</time></trkpt><trkpt lat="42.938351" lon="19.071808"><ele>1037.7</ele><time>2012-05-02T05:16:32.0000000+00:00</time></trkpt><trkpt lat="42.937881" lon="19.07164"><ele>1034.0</ele><time>2012-05-02T05:16:37.0000000+00:00</time></trkpt><trkpt lat="42.937233" lon="19.071346"><ele>1031.6</ele><time>2012-05-02T05:16:42.0000000+00:00</time></trkpt><trkpt lat="42.936562" lon="19.071035"><ele>1031.2</ele><time>2012-05-02T05:16:47.0000000+00:00</time></trkpt><trkpt lat="42.935909" lon="19.07065"><ele>1032.4</ele><time>2012-05-02T05:16:52.0000000+00:00</time></trkpt><trkpt lat="42.935242" lon="19.070362"><ele>1033.7</ele><time>2012-05-02T05:16:57.0000000+00:00</time></trkpt><trkpt lat="42.934643" lon="19.069992"><ele>1035.6</ele><time>2012-05-02T05:17:02.0000000+00:00</time></trkpt><trkpt lat="42.93412" lon="19.069788"><ele>1037.9</ele><time>2012-05-02T05:17:07.0000000+00:00</time></trkpt><trkpt lat="42.933586" lon="19.070009"><ele>1040.0</ele><time>2012-05-02T05:17:12.0000000+00:00</time></trkpt><trkpt lat="42.933037" lon="19.070196"><ele>1042.2</ele><time>2012-05-02T05:17:17.0000000+00:00</time></trkpt><trkpt lat="42.932404" lon="19.070114"><ele>1044.3</ele><time>2012-05-02T05:17:22.0000000+00:00</time></trkpt><trkpt lat="42.931877" lon="19.070202"><ele>1047.2</ele><time>2012-05-02T05:17:27.0000000+00:00</time></trkpt><trkpt lat="42.931381" lon="19.070282"><ele>1050.8</ele><time>2012-05-02T05:17:32.0000000+00:00</time></trkpt><trkpt lat="42.930893" lon="19.070093"><ele>1053.7</ele><time>2012-05-02T05:17:37.0000000+00:00</time></trkpt><trkpt lat="42.930458" lon="19.069958"><ele>1056.9</ele><time>2012-05-02T05:17:42.0000000+00:00</time></trkpt><trkpt lat="42.930153" lon="19.06958"><ele>1059.9</ele><time>2012-05-02T05:17:47.0000000+00:00</time></trkpt><trkpt lat="42.929848" lon="19.069635"><ele>1062.0</ele><time>2012-05-02T05:17:52.0000000+00:00</time></trkpt><trkpt lat="42.92947" lon="19.069975"><ele>1064.3</ele><time>2012-05-02T05:17:57.0000000+00:00</time></trkpt><trkpt lat="42.928993" lon="19.070408"><ele>1067.7</ele><time>2012-05-02T05:18:02.0000000+00:00</time></trkpt><trkpt lat="42.928467" lon="19.070747"><ele>1071.3</ele><time>2012-05-02T05:18:07.0000000+00:00</time></trkpt><trkpt lat="42.927906" lon="19.070988"><ele>1074.8</ele><time>2012-05-02T05:18:12.0000000+00:00</time></trkpt><trkpt lat="42.927399" lon="19.071152"><ele>1077.4</ele><time>2012-05-02T05:18:17.0000000+00:00</time></trkpt><trkpt lat="42.926979" lon="19.071255"><ele>1079.4</ele><time>2012-05-02T05:18:22.0000000+00:00</time></trkpt><trkpt lat="42.926735" lon="19.071667"><ele>1080.9</ele><time>2012-05-02T05:18:27.0000000+00:00</time></trkpt><trkpt lat="42.926498" lon="19.07217"><ele>1083.5</ele><time>2012-05-02T05:18:32.0000000+00:00</time></trkpt><trkpt lat="42.92638" lon="19.072853"><ele>1086.3</ele><time>2012-05-02T05:18:37.0000000+00:00</time></trkpt><trkpt lat="42.925987" lon="19.073303"><ele>1088.6</ele><time>2012-05-02T05:18:42.0000000+00:00</time></trkpt><trkpt lat="42.925484" lon="19.073505"><ele>1090.6</ele><time>2012-05-02T05:18:47.0000000+00:00</time></trkpt><trkpt lat="42.925232" lon="19.074154"><ele>1093.3</ele><time>2012-05-02T05:18:52.0000000+00:00</time></trkpt><trkpt lat="42.925083" lon="19.07485"><ele>1096.9</ele><time>2012-05-02T05:18:57.0000000+00:00</time></trkpt><trkpt lat="42.924809" lon="19.075432"><ele>1099.4</ele><time>2012-05-02T05:19:02.0000000+00:00</time></trkpt><trkpt lat="42.924496" lon="19.076061"><ele>1102.3</ele><time>2012-05-02T05:19:07.0000000+00:00</time></trkpt><trkpt lat="42.924221" lon="19.0767"><ele>1105.0</ele><time>2012-05-02T05:19:12.0000000+00:00</time></trkpt><trkpt lat="42.924259" lon="19.077406"><ele>1109.3</ele><time>2012-05-02T05:19:17.0000000+00:00</time></trkpt><trkpt lat="42.924263" lon="19.078096"><ele>1113.5</ele><time>2012-05-02T05:19:22.0000000+00:00</time></trkpt><trkpt lat="42.924133" lon="19.07889"><ele>1117.0</ele><time>2012-05-02T05:19:27.0000000+00:00</time></trkpt><trkpt lat="42.923904" lon="19.079588"><ele>1120.0</ele><time>2012-05-02T05:19:32.0000000+00:00</time></trkpt><trkpt lat="42.923752" lon="19.080254"><ele>1123.0</ele><time>2012-05-02T05:19:37.0000000+00:00</time></trkpt><trkpt lat="42.923412" lon="19.080782"><ele>1125.9</ele><time>2012-05-02T05:19:42.0000000+00:00</time></trkpt><trkpt lat="42.922935" lon="19.081337"><ele>1128.7</ele><time>2012-05-02T05:19:47.0000000+00:00</time></trkpt><trkpt lat="42.922428" lon="19.081776"><ele>1132.1</ele><time>2012-05-02T05:19:52.0000000+00:00</time></trkpt><trkpt lat="42.921822" lon="19.081839"><ele>1135.7</ele><time>2012-05-02T05:19:57.0000000+00:00</time></trkpt><trkpt lat="42.921204" lon="19.082006"><ele>1138.8</ele><time>2012-05-02T05:20:02.0000000+00:00</time></trkpt><trkpt lat="42.920639" lon="19.082457"><ele>1140.6</ele><time>2012-05-02T05:20:07.0000000+00:00</time></trkpt><trkpt lat="42.920124" lon="19.082796"><ele>1144.1</ele><time>2012-05-02T05:20:12.0000000+00:00</time></trkpt><trkpt lat="42.919788" lon="19.083393"><ele>1145.9</ele><time>2012-05-02T05:20:17.0000000+00:00</time></trkpt><trkpt lat="42.919582" lon="19.084232"><ele>1150.4</ele><time>2012-05-02T05:20:22.0000000+00:00</time></trkpt><trkpt lat="42.919254" lon="19.08499"><ele>1153.2</ele><time>2012-05-02T05:20:27.0000000+00:00</time></trkpt><trkpt lat="42.91885" lon="19.085728"><ele>1157.5</ele><time>2012-05-02T05:20:32.0000000+00:00</time></trkpt><trkpt lat="42.918488" lon="19.086443"><ele>1162.3</ele><time>2012-05-02T05:20:37.0000000+00:00</time></trkpt><trkpt lat="42.918358" lon="19.087145"><ele>1165.7</ele><time>2012-05-02T05:20:42.0000000+00:00</time></trkpt><trkpt lat="42.91811" lon="19.087692"><ele>1168.5</ele><time>2012-05-02T05:20:47.0000000+00:00</time></trkpt><trkpt lat="42.917774" lon="19.088129"><ele>1170.5</ele><time>2012-05-02T05:20:52.0000000+00:00</time></trkpt><trkpt lat="42.917606" lon="19.088787"><ele>1173.9</ele><time>2012-05-02T05:20:57.0000000+00:00</time></trkpt><trkpt lat="42.91721" lon="19.089354"><ele>1175.7</ele><time>2012-05-02T05:21:02.0000000+00:00</time></trkpt><trkpt lat="42.916718" lon="19.089622"><ele>1178.5</ele><time>2012-05-02T05:21:07.0000000+00:00</time></trkpt><trkpt lat="42.916447" lon="19.090057"><ele>1181.3</ele><time>2012-05-02T05:21:12.0000000+00:00</time></trkpt><trkpt lat="42.916313" lon="19.090685"><ele>1185.3</ele><time>2012-05-02T05:21:17.0000000+00:00</time></trkpt><trkpt lat="42.915913" lon="19.090818"><ele>1187.5</ele><time>2012-05-02T05:21:22.0000000+00:00</time></trkpt><trkpt lat="42.915371" lon="19.090668"><ele>1190.2</ele><time>2012-05-02T05:21:27.0000000+00:00</time></trkpt><trkpt lat="42.914707" lon="19.090494"><ele>1193.5</ele><time>2012-05-02T05:21:32.0000000+00:00</time></trkpt><trkpt lat="42.914063" lon="19.090322"><ele>1195.9</ele><time>2012-05-02T05:21:37.0000000+00:00</time></trkpt><trkpt lat="42.913391" lon="19.09017"><ele>1198.0</ele><time>2012-05-02T05:21:42.0000000+00:00</time></trkpt><trkpt lat="42.912663" lon="19.09025"><ele>1200.4</ele><time>2012-05-02T05:21:47.0000000+00:00</time></trkpt><trkpt lat="42.911976" lon="19.090528"><ele>1203.8</ele><time>2012-05-02T05:21:52.0000000+00:00</time></trkpt><trkpt lat="42.911415" lon="19.090803"><ele>1206.1</ele><time>2012-05-02T05:21:57.0000000+00:00</time></trkpt><trkpt lat="42.911007" lon="19.090956"><ele>1208.6</ele><time>2012-05-02T05:22:02.0000000+00:00</time></trkpt><trkpt lat="42.910717" lon="19.090647"><ele>1211.2</ele><time>2012-05-02T05:22:07.0000000+00:00</time></trkpt><trkpt lat="42.910564" lon="19.090069"><ele>1215.0</ele><time>2012-05-02T05:22:12.0000000+00:00</time></trkpt><trkpt lat="42.910202" lon="19.09001"><ele>1218.3</ele><time>2012-05-02T05:22:17.0000000+00:00</time></trkpt><trkpt lat="42.909756" lon="19.090261"><ele>1221.2</ele><time>2012-05-02T05:22:22.0000000+00:00</time></trkpt><trkpt lat="42.909222" lon="19.090221"><ele>1224.1</ele><time>2012-05-02T05:22:27.0000000+00:00</time></trkpt><trkpt lat="42.908848" lon="19.089865"><ele>1227.3</ele><time>2012-05-02T05:22:32.0000000+00:00</time></trkpt><trkpt lat="42.908508" lon="19.089472"><ele>1230.1</ele><time>2012-05-02T05:22:37.0000000+00:00</time></trkpt><trkpt lat="42.908028" lon="19.089449"><ele>1233.3</ele><time>2012-05-02T05:22:42.0000000+00:00</time></trkpt><trkpt lat="42.907505" lon="19.089449"><ele>1237.8</ele><time>2012-05-02T05:22:47.0000000+00:00</time></trkpt><trkpt lat="42.907059" lon="19.089329"><ele>1240.3</ele><time>2012-05-02T05:22:52.0000000+00:00</time></trkpt><trkpt lat="42.90696" lon="19.088865"><ele>1243.3</ele><time>2012-05-02T05:22:57.0000000+00:00</time></trkpt><trkpt lat="42.907089" lon="19.088354"><ele>1246.2</ele><time>2012-05-02T05:23:02.0000000+00:00</time></trkpt><trkpt lat="42.906826" lon="19.087969"><ele>1247.7</ele><time>2012-05-02T05:23:07.0000000+00:00</time></trkpt><trkpt lat="42.906406" lon="19.088051"><ele>1250.2</ele><time>2012-05-02T05:23:12.0000000+00:00</time></trkpt><trkpt lat="42.906002" lon="19.088005"><ele>1252.4</ele><time>2012-05-02T05:23:17.0000000+00:00</time></trkpt><trkpt lat="42.905632" lon="19.08782"><ele>1254.2</ele><time>2012-05-02T05:23:22.0000000+00:00</time></trkpt><trkpt lat="42.90535" lon="19.088175"><ele>1256.7</ele><time>2012-05-02T05:23:27.0000000+00:00</time></trkpt><trkpt lat="42.905083" lon="19.088257"><ele>1257.2</ele><time>2012-05-02T05:23:32.0000000+00:00</time></trkpt><trkpt lat="42.905075" lon="19.088507"><ele>1258.6</ele><time>2012-05-02T05:23:37.0000000+00:00</time></trkpt><trkpt lat="42.905422" lon="19.088421"><ele>1260.7</ele><time>2012-05-02T05:23:42.0000000+00:00</time></trkpt><trkpt lat="42.905743" lon="19.088285"><ele>1263.1</ele><time>2012-05-02T05:23:47.0000000+00:00</time></trkpt><trkpt lat="42.906029" lon="19.088583"><ele>1266.6</ele><time>2012-05-02T05:23:52.0000000+00:00</time></trkpt><trkpt lat="42.906242" lon="19.088852"><ele>1271.6</ele><time>2012-05-02T05:23:57.0000000+00:00</time></trkpt><trkpt lat="42.906113" lon="19.089146"><ele>1273.2</ele><time>2012-05-02T05:24:02.0000000+00:00</time></trkpt><trkpt lat="42.905903" lon="19.089533"><ele>1275.0</ele><time>2012-05-02T05:24:07.0000000+00:00</time></trkpt><trkpt lat="42.905746" lon="19.090105"><ele>1278.6</ele><time>2012-05-02T05:24:12.0000000+00:00</time></trkpt><trkpt lat="42.905807" lon="19.090855"><ele>1281.0</ele><time>2012-05-02T05:24:17.0000000+00:00</time></trkpt><trkpt lat="42.906036" lon="19.091537"><ele>1285.0</ele><time>2012-05-02T05:24:22.0000000+00:00</time></trkpt><trkpt lat="42.906464" lon="19.09185"><ele>1289.5</ele><time>2012-05-02T05:24:27.0000000+00:00</time></trkpt><trkpt lat="42.906578" lon="19.092299"><ele>1291.9</ele><time>2012-05-02T05:24:32.0000000+00:00</time></trkpt><trkpt lat="42.906445" lon="19.092213"><ele>1291.8</ele><time>2012-05-02T05:24:37.0000000+00:00</time></trkpt><trkpt lat="42.906181" lon="19.091909"><ele>1292.2</ele><time>2012-05-02T05:24:42.0000000+00:00</time></trkpt><trkpt lat="42.905743" lon="19.091892"><ele>1293.5</ele><time>2012-05-02T05:24:47.0000000+00:00</time></trkpt><trkpt lat="42.905415" lon="19.091513"><ele>1293.5</ele><time>2012-05-02T05:24:52.0000000+00:00</time></trkpt><trkpt lat="42.90509" lon="19.090849"><ele>1296.9</ele><time>2012-05-02T05:24:57.0000000+00:00</time></trkpt><trkpt lat="42.904861" lon="19.090265"><ele>1302.0</ele><time>2012-05-02T05:25:02.0000000+00:00</time></trkpt><trkpt lat="42.904427" lon="19.089926"><ele>1302.7</ele><time>2012-05-02T05:25:07.0000000+00:00</time></trkpt><trkpt lat="42.903973" lon="19.08975"><ele>1306.0</ele><time>2012-05-02T05:25:12.0000000+00:00</time></trkpt><trkpt lat="42.903507" lon="19.090012"><ele>1308.4</ele><time>2012-05-02T05:25:17.0000000+00:00</time></trkpt><trkpt lat="42.903374" lon="19.090557"><ele>1310.4</ele><time>2012-05-02T05:25:22.0000000+00:00</time></trkpt><trkpt lat="42.903313" lon="19.091116"><ele>1313.7</ele><time>2012-05-02T05:25:27.0000000+00:00</time></trkpt><trkpt lat="42.90292" lon="19.091297"><ele>1315.5</ele><time>2012-05-02T05:25:32.0000000+00:00</time></trkpt><trkpt lat="42.902435" lon="19.091181"><ele>1317.8</ele><time>2012-05-02T05:25:37.0000000+00:00</time></trkpt><trkpt lat="42.902035" lon="19.091442"><ele>1321.4</ele><time>2012-05-02T05:25:42.0000000+00:00</time></trkpt><trkpt lat="42.901733" lon="19.091391"><ele>1320.6</ele><time>2012-05-02T05:25:47.0000000+00:00</time></trkpt><trkpt lat="42.901333" lon="19.091242"><ele>1322.1</ele><time>2012-05-02T05:25:52.0000000+00:00</time></trkpt><trkpt lat="42.900932" lon="19.091248"><ele>1325.9</ele><time>2012-05-02T05:25:57.0000000+00:00</time></trkpt><trkpt lat="42.900715" lon="19.090715"><ele>1327.2</ele><time>2012-05-02T05:26:02.0000000+00:00</time></trkpt><trkpt lat="42.90052" lon="19.090036"><ele>1328.3</ele><time>2012-05-02T05:26:07.0000000+00:00</time></trkpt><trkpt lat="42.900532" lon="19.089342"><ele>1331.1</ele><time>2012-05-02T05:26:12.0000000+00:00</time></trkpt><trkpt lat="42.900612" lon="19.088839"><ele>1333.7</ele><time>2012-05-02T05:26:17.0000000+00:00</time></trkpt><trkpt lat="42.90052" lon="19.088629"><ele>1337.3</ele><time>2012-05-02T05:26:22.0000000+00:00</time></trkpt><trkpt lat="42.900417" lon="19.088968"><ele>1339.0</ele><time>2012-05-02T05:26:27.0000000+00:00</time></trkpt><trkpt lat="42.900322" lon="19.08954"><ele>1342.0</ele><time>2012-05-02T05:26:32.0000000+00:00</time></trkpt><trkpt lat="42.90023" lon="19.090282"><ele>1345.8</ele><time>2012-05-02T05:26:37.0000000+00:00</time></trkpt><trkpt lat="42.900063" lon="19.09108"><ele>1349.4</ele><time>2012-05-02T05:26:42.0000000+00:00</time></trkpt><trkpt lat="42.899998" lon="19.091827"><ele>1352.9</ele><time>2012-05-02T05:26:47.0000000+00:00</time></trkpt><trkpt lat="42.900368" lon="19.092278"><ele>1357.6</ele><time>2012-05-02T05:26:52.0000000+00:00</time></trkpt><trkpt lat="42.900715" lon="19.092844"><ele>1364.2</ele><time>2012-05-02T05:26:57.0000000+00:00</time></trkpt><trkpt lat="42.900867" lon="19.093267"><ele>1368.0</ele><time>2012-05-02T05:27:02.0000000+00:00</time></trkpt><trkpt lat="42.900871" lon="19.093405"><ele>1369.1</ele><time>2012-05-02T05:27:07.0000000+00:00</time></trkpt><trkpt lat="42.900738" lon="19.093538"><ele>1370.0</ele><time>2012-05-02T05:27:12.0000000+00:00</time></trkpt><trkpt lat="42.900505" lon="19.093321"><ele>1371.8</ele><time>2012-05-02T05:27:17.0000000+00:00</time></trkpt><trkpt lat="42.900253" lon="19.092793"><ele>1372.0</ele><time>2012-05-02T05:27:22.0000000+00:00</time></trkpt><trkpt lat="42.899757" lon="19.092415"><ele>1374.0</ele><time>2012-05-02T05:27:27.0000000+00:00</time></trkpt><trkpt lat="42.899414" lon="19.091719"><ele>1375.9</ele><time>2012-05-02T05:27:32.0000000+00:00</time></trkpt><trkpt lat="42.899426" lon="19.090755"><ele>1382.0</ele><time>2012-05-02T05:27:37.0000000+00:00</time></trkpt><trkpt lat="42.899502" lon="19.089808"><ele>1388.7</ele><time>2012-05-02T05:27:42.0000000+00:00</time></trkpt><trkpt lat="42.899406" lon="19.088812"><ele>1395.7</ele><time>2012-05-02T05:27:47.0000000+00:00</time></trkpt><trkpt lat="42.899273" lon="19.087826"><ele>1403.5</ele><time>2012-05-02T05:27:52.0000000+00:00</time></trkpt><trkpt lat="42.899277" lon="19.086868"><ele>1409.4</ele><time>2012-05-02T05:27:57.0000000+00:00</time></trkpt><trkpt lat="42.899357" lon="19.08592"><ele>1415.7</ele><time>2012-05-02T05:28:02.0000000+00:00</time></trkpt><trkpt lat="42.899403" lon="19.084923"><ele>1422.0</ele><time>2012-05-02T05:28:07.0000000+00:00</time></trkpt><trkpt lat="42.899303" lon="19.083897"><ele>1428.5</ele><time>2012-05-02T05:28:12.0000000+00:00</time></trkpt><trkpt lat="42.899052" lon="19.082951"><ele>1434.3</ele><time>2012-05-02T05:28:17.0000000+00:00</time></trkpt><trkpt lat="42.898655" lon="19.082094"><ele>1439.9</ele><time>2012-05-02T05:28:22.0000000+00:00</time></trkpt><trkpt lat="42.898151" lon="19.081369"><ele>1444.7</ele><time>2012-05-02T05:28:27.0000000+00:00</time></trkpt><trkpt lat="42.897594" lon="19.08083"><ele>1448.2</ele><time>2012-05-02T05:28:32.0000000+00:00</time></trkpt><trkpt lat="42.897068" lon="19.080421"><ele>1451.2</ele><time>2012-05-02T05:28:37.0000000+00:00</time></trkpt><trkpt lat="42.895359" lon="19.079685"><ele>1459.5</ele><time>2012-05-02T05:28:52.0000000+00:00</time></trkpt><trkpt lat="42.894863" lon="19.079325"><ele>1451.4</ele><time>2012-05-02T05:28:57.0000000+00:00</time></trkpt><trkpt lat="42.894394" lon="19.078682"><ele>1454.4</ele><time>2012-05-02T05:29:02.0000000+00:00</time></trkpt><trkpt lat="42.894047" lon="19.077974"><ele>1455.5</ele><time>2012-05-02T05:29:07.0000000+00:00</time></trkpt><trkpt lat="42.893818" lon="19.077219"><ele>1456.5</ele><time>2012-05-02T05:29:12.0000000+00:00</time></trkpt><trkpt lat="42.893703" lon="19.076342"><ele>1454.8</ele><time>2012-05-02T05:29:17.0000000+00:00</time></trkpt><trkpt lat="42.893757" lon="19.075428"><ele>1448.7</ele><time>2012-05-02T05:29:22.0000000+00:00</time></trkpt><trkpt lat="42.893967" lon="19.07449"><ele>1443.7</ele><time>2012-05-02T05:29:27.0000000+00:00</time></trkpt><trkpt lat="42.894344" lon="19.073566"><ele>1440.4</ele><time>2012-05-02T05:29:32.0000000+00:00</time></trkpt><trkpt lat="42.894745" lon="19.072592"><ele>1436.7</ele><time>2012-05-02T05:29:37.0000000+00:00</time></trkpt><trkpt lat="42.895023" lon="19.071451"><ele>1432.3</ele><time>2012-05-02T05:29:42.0000000+00:00</time></trkpt><trkpt lat="42.895058" lon="19.070148"><ele>1431.2</ele><time>2012-05-02T05:29:47.0000000+00:00</time></trkpt><trkpt lat="42.89497" lon="19.068897"><ele>1430.5</ele><time>2012-05-02T05:29:52.0000000+00:00</time></trkpt><trkpt lat="42.894909" lon="19.067802"><ele>1430.6</ele><time>2012-05-02T05:29:57.0000000+00:00</time></trkpt><trkpt lat="42.895023" lon="19.066891"><ele>1430.2</ele><time>2012-05-02T05:30:02.0000000+00:00</time></trkpt><trkpt lat="42.89537" lon="19.066078"><ele>1429.3</ele><time>2012-05-02T05:30:07.0000000+00:00</time></trkpt><trkpt lat="42.895943" lon="19.065428"><ele>1429.1</ele><time>2012-05-02T05:30:12.0000000+00:00</time></trkpt><trkpt lat="42.896503" lon="19.064888"><ele>1426.5</ele><time>2012-05-02T05:30:17.0000000+00:00</time></trkpt><trkpt lat="42.896938" lon="19.064262"><ele>1423.6</ele><time>2012-05-02T05:30:22.0000000+00:00</time></trkpt><trkpt lat="42.897461" lon="19.063814"><ele>1421.7</ele><time>2012-05-02T05:30:27.0000000+00:00</time></trkpt><trkpt lat="42.898109" lon="19.063692"><ele>1419.4</ele><time>2012-05-02T05:30:32.0000000+00:00</time></trkpt><trkpt lat="42.898808" lon="19.063892"><ele>1417.9</ele><time>2012-05-02T05:30:37.0000000+00:00</time></trkpt><trkpt lat="42.899498" lon="19.063871"><ele>1417.5</ele><time>2012-05-02T05:30:42.0000000+00:00</time></trkpt><trkpt lat="42.900169" lon="19.063486"><ele>1416.6</ele><time>2012-05-02T05:30:47.0000000+00:00</time></trkpt><trkpt lat="42.900806" lon="19.062948"><ele>1416.1</ele><time>2012-05-02T05:30:52.0000000+00:00</time></trkpt><trkpt lat="42.901348" lon="19.062275"><ele>1415.0</ele><time>2012-05-02T05:30:57.0000000+00:00</time></trkpt><trkpt lat="42.901676" lon="19.061392"><ele>1414.0</ele><time>2012-05-02T05:31:02.0000000+00:00</time></trkpt><trkpt lat="42.90176" lon="19.060354"><ele>1412.5</ele><time>2012-05-02T05:31:07.0000000+00:00</time></trkpt><trkpt lat="42.901802" lon="19.059238"><ele>1410.9</ele><time>2012-05-02T05:31:12.0000000+00:00</time></trkpt><trkpt lat="42.90184" lon="19.057991"><ele>1407.4</ele><time>2012-05-02T05:31:17.0000000+00:00</time></trkpt><trkpt lat="42.901882" lon="19.056721"><ele>1403.5</ele><time>2012-05-02T05:31:22.0000000+00:00</time></trkpt><trkpt lat="42.901924" lon="19.05546"><ele>1399.2</ele><time>2012-05-02T05:31:27.0000000+00:00</time></trkpt><trkpt lat="42.901863" lon="19.054207"><ele>1395.5</ele><time>2012-05-02T05:31:32.0000000+00:00</time></trkpt><trkpt lat="42.901543" lon="19.053019"><ele>1391.5</ele><time>2012-05-02T05:31:37.0000000+00:00</time></trkpt><trkpt lat="42.901207" lon="19.051817"><ele>1387.7</ele><time>2012-05-02T05:31:42.0000000+00:00</time></trkpt><trkpt lat="42.901104" lon="19.050545"><ele>1384.0</ele><time>2012-05-02T05:31:47.0000000+00:00</time></trkpt><trkpt lat="42.901043" lon="19.049276"><ele>1380.2</ele><time>2012-05-02T05:31:52.0000000+00:00</time></trkpt><trkpt lat="42.900726" lon="19.04809"><ele>1376.7</ele><time>2012-05-02T05:31:57.0000000+00:00</time></trkpt><trkpt lat="42.900177" lon="19.047045"><ele>1373.5</ele><time>2012-05-02T05:32:02.0000000+00:00</time></trkpt><trkpt lat="42.899727" lon="19.045923"><ele>1370.8</ele><time>2012-05-02T05:32:07.0000000+00:00</time></trkpt><trkpt lat="42.899399" lon="19.04472"><ele>1368.4</ele><time>2012-05-02T05:32:12.0000000+00:00</time></trkpt><trkpt lat="42.898945" lon="19.043615"><ele>1367.0</ele><time>2012-05-02T05:32:17.0000000+00:00</time></trkpt><trkpt lat="42.8983" lon="19.042768"><ele>1363.4</ele><time>2012-05-02T05:32:22.0000000+00:00</time></trkpt><trkpt lat="42.897545" lon="19.04211"><ele>1358.9</ele><time>2012-05-02T05:32:27.0000000+00:00</time></trkpt><trkpt lat="42.896858" lon="19.041437"><ele>1354.2</ele><time>2012-05-02T05:32:32.0000000+00:00</time></trkpt><trkpt lat="42.896378" lon="19.040499"><ele>1349.6</ele><time>2012-05-02T05:32:37.0000000+00:00</time></trkpt><trkpt lat="42.896198" lon="19.03936"><ele>1344.7</ele><time>2012-05-02T05:32:42.0000000+00:00</time></trkpt><trkpt lat="42.896366" lon="19.038202"><ele>1338.7</ele><time>2012-05-02T05:32:47.0000000+00:00</time></trkpt><trkpt lat="42.896835" lon="19.037193"><ele>1334.4</ele><time>2012-05-02T05:32:52.0000000+00:00</time></trkpt><trkpt lat="42.897495" lon="19.03657"><ele>1330.9</ele><time>2012-05-02T05:32:57.0000000+00:00</time></trkpt><trkpt lat="42.898247" lon="19.036169"><ele>1327.2</ele><time>2012-05-02T05:33:02.0000000+00:00</time></trkpt><trkpt lat="42.898983" lon="19.035734"><ele>1322.4</ele><time>2012-05-02T05:33:07.0000000+00:00</time></trkpt><trkpt lat="42.899536" lon="19.034941"><ele>1317.0</ele><time>2012-05-02T05:33:12.0000000+00:00</time></trkpt><trkpt lat="42.899754" lon="19.033876"><ele>1312.5</ele><time>2012-05-02T05:33:17.0000000+00:00</time></trkpt><trkpt lat="42.899933" lon="19.032961"><ele>1310.3</ele><time>2012-05-02T05:33:22.0000000+00:00</time></trkpt><trkpt lat="42.900284" lon="19.032169"><ele>1309.0</ele><time>2012-05-02T05:33:27.0000000+00:00</time></trkpt><trkpt lat="42.900517" lon="19.03124"><ele>1307.6</ele><time>2012-05-02T05:33:32.0000000+00:00</time></trkpt><trkpt lat="42.900467" lon="19.030127"><ele>1305.0</ele><time>2012-05-02T05:33:37.0000000+00:00</time></trkpt><trkpt lat="42.900215" lon="19.028856"><ele>1301.1</ele><time>2012-05-02T05:33:42.0000000+00:00</time></trkpt><trkpt lat="42.89994" lon="19.027493"><ele>1296.9</ele><time>2012-05-02T05:33:47.0000000+00:00</time></trkpt><trkpt lat="42.899681" lon="19.026155"><ele>1294.1</ele><time>2012-05-02T05:33:52.0000000+00:00</time></trkpt><trkpt lat="42.89957" lon="19.024942"><ele>1289.6</ele><time>2012-05-02T05:33:57.0000000+00:00</time></trkpt><trkpt lat="42.899715" lon="19.023802"><ele>1282.5</ele><time>2012-05-02T05:34:02.0000000+00:00</time></trkpt><trkpt lat="42.900093" lon="19.022669"><ele>1274.3</ele><time>2012-05-02T05:34:07.0000000+00:00</time></trkpt><trkpt lat="42.900715" lon="19.021719"><ele>1266.0</ele><time>2012-05-02T05:34:12.0000000+00:00</time></trkpt><trkpt lat="42.901478" lon="19.021029"><ele>1258.2</ele><time>2012-05-02T05:34:17.0000000+00:00</time></trkpt><trkpt lat="42.902222" lon="19.020332"><ele>1250.8</ele><time>2012-05-02T05:34:22.0000000+00:00</time></trkpt><trkpt lat="42.902756" lon="19.019403"><ele>1243.5</ele><time>2012-05-02T05:34:27.0000000+00:00</time></trkpt><trkpt lat="42.903172" lon="19.01833"><ele>1236.3</ele><time>2012-05-02T05:34:32.0000000+00:00</time></trkpt><trkpt lat="42.903725" lon="19.01737"><ele>1228.0</ele><time>2012-05-02T05:34:37.0000000+00:00</time></trkpt><trkpt lat="42.904312" lon="19.016506"><ele>1220.5</ele><time>2012-05-02T05:34:42.0000000+00:00</time></trkpt><trkpt lat="42.904636" lon="19.01548"><ele>1213.7</ele><time>2012-05-02T05:34:47.0000000+00:00</time></trkpt><trkpt lat="42.904621" lon="19.014297"><ele>1208.1</ele><time>2012-05-02T05:34:52.0000000+00:00</time></trkpt><trkpt lat="42.904243" lon="19.013235"><ele>1205.0</ele><time>2012-05-02T05:34:57.0000000+00:00</time></trkpt><trkpt lat="42.903599" lon="19.012438"><ele>1201.1</ele><time>2012-05-02T05:35:02.0000000+00:00</time></trkpt><trkpt lat="42.90292" lon="19.011667"><ele>1196.8</ele><time>2012-05-02T05:35:07.0000000+00:00</time></trkpt><trkpt lat="42.902264" lon="19.010885"><ele>1194.1</ele><time>2012-05-02T05:35:12.0000000+00:00</time></trkpt><trkpt lat="42.901817" lon="19.00992"><ele>1191.3</ele><time>2012-05-02T05:35:17.0000000+00:00</time></trkpt><trkpt lat="42.901737" lon="19.008793"><ele>1186.2</ele><time>2012-05-02T05:35:22.0000000+00:00</time></trkpt><trkpt lat="42.901852" lon="19.00773"><ele>1180.4</ele><time>2012-05-02T05:35:27.0000000+00:00</time></trkpt><trkpt lat="42.901722" lon="19.006777"><ele>1175.5</ele><time>2012-05-02T05:35:32.0000000+00:00</time></trkpt><trkpt lat="42.901222" lon="19.006006"><ele>1170.1</ele><time>2012-05-02T05:35:37.0000000+00:00</time></trkpt><trkpt lat="42.900631" lon="19.005264"><ele>1165.2</ele><time>2012-05-02T05:35:42.0000000+00:00</time></trkpt><trkpt lat="42.90023" lon="19.004265"><ele>1160.1</ele><time>2012-05-02T05:35:47.0000000+00:00</time></trkpt><trkpt lat="42.899948" lon="19.003128"><ele>1155.2</ele><time>2012-05-02T05:35:52.0000000+00:00</time></trkpt><trkpt lat="42.899487" lon="19.002098"><ele>1150.0</ele><time>2012-05-02T05:35:57.0000000+00:00</time></trkpt><trkpt lat="42.899113" lon="19.001163"><ele>1145.9</ele><time>2012-05-02T05:36:02.0000000+00:00</time></trkpt><trkpt lat="42.899025" lon="19.000101"><ele>1139.7</ele><time>2012-05-02T05:36:07.0000000+00:00</time></trkpt><trkpt lat="42.899242" lon="18.999104"><ele>1133.7</ele><time>2012-05-02T05:36:12.0000000+00:00</time></trkpt><trkpt lat="42.899586" lon="18.998138"><ele>1129.8</ele><time>2012-05-02T05:36:17.0000000+00:00</time></trkpt><trkpt lat="42.899799" lon="18.997116"><ele>1124.1</ele><time>2012-05-02T05:36:22.0000000+00:00</time></trkpt><trkpt lat="42.900047" lon="18.996088"><ele>1118.9</ele><time>2012-05-02T05:36:27.0000000+00:00</time></trkpt><trkpt lat="42.900482" lon="18.995173"><ele>1113.8</ele><time>2012-05-02T05:36:32.0000000+00:00</time></trkpt><trkpt lat="42.900787" lon="18.994196"><ele>1109.0</ele><time>2012-05-02T05:36:37.0000000+00:00</time></trkpt><trkpt lat="42.90089" lon="18.993116"><ele>1103.5</ele><time>2012-05-02T05:36:42.0000000+00:00</time></trkpt><trkpt lat="42.901241" lon="18.99218"><ele>1098.3</ele><time>2012-05-02T05:36:47.0000000+00:00</time></trkpt><trkpt lat="42.901581" lon="18.991365"><ele>1093.3</ele><time>2012-05-02T05:36:52.0000000+00:00</time></trkpt><trkpt lat="42.901524" lon="18.990425"><ele>1087.8</ele><time>2012-05-02T05:36:57.0000000+00:00</time></trkpt><trkpt lat="42.901192" lon="18.989536"><ele>1082.9</ele><time>2012-05-02T05:37:02.0000000+00:00</time></trkpt><trkpt lat="42.901119" lon="18.988607"><ele>1078.2</ele><time>2012-05-02T05:37:07.0000000+00:00</time></trkpt><trkpt lat="42.901512" lon="18.987825"><ele>1072.2</ele><time>2012-05-02T05:37:12.0000000+00:00</time></trkpt><trkpt lat="42.902138" lon="18.987238"><ele>1068.6</ele><time>2012-05-02T05:37:17.0000000+00:00</time></trkpt><trkpt lat="42.902588" lon="18.986586"><ele>1065.5</ele><time>2012-05-02T05:37:22.0000000+00:00</time></trkpt><trkpt lat="42.902672" lon="18.985653"><ele>1061.1</ele><time>2012-05-02T05:37:27.0000000+00:00</time></trkpt><trkpt lat="42.90255" lon="18.984663"><ele>1055.6</ele><time>2012-05-02T05:37:32.0000000+00:00</time></trkpt><trkpt lat="42.902733" lon="18.983635"><ele>1049.1</ele><time>2012-05-02T05:37:37.0000000+00:00</time></trkpt><trkpt lat="42.903084" lon="18.982647"><ele>1043.8</ele><time>2012-05-02T05:37:42.0000000+00:00</time></trkpt><trkpt lat="42.903149" lon="18.981529"><ele>1038.0</ele><time>2012-05-02T05:37:47.0000000+00:00</time></trkpt><trkpt lat="42.902946" lon="18.9804"><ele>1031.5</ele><time>2012-05-02T05:37:52.0000000+00:00</time></trkpt><trkpt lat="42.902893" lon="18.979231"><ele>1024.7</ele><time>2012-05-02T05:37:57.0000000+00:00</time></trkpt><trkpt lat="42.903145" lon="18.978079"><ele>1018.8</ele><time>2012-05-02T05:38:02.0000000+00:00</time></trkpt><trkpt lat="42.903431" lon="18.976933"><ele>1013.8</ele><time>2012-05-02T05:38:07.0000000+00:00</time></trkpt><trkpt lat="42.903557" lon="18.975719"><ele>1006.8</ele><time>2012-05-02T05:38:12.0000000+00:00</time></trkpt><trkpt lat="42.90353" lon="18.974449"><ele>1000.1</ele><time>2012-05-02T05:38:17.0000000+00:00</time></trkpt><trkpt lat="42.903633" lon="18.973145"><ele>992.6</ele><time>2012-05-02T05:38:22.0000000+00:00</time></trkpt><trkpt lat="42.903961" lon="18.971874"><ele>985.8</ele><time>2012-05-02T05:38:27.0000000+00:00</time></trkpt><trkpt lat="42.904205" lon="18.97069"><ele>979.2</ele><time>2012-05-02T05:38:32.0000000+00:00</time></trkpt><trkpt lat="42.904125" lon="18.969561"><ele>972.7</ele><time>2012-05-02T05:38:37.0000000+00:00</time></trkpt><trkpt lat="42.903797" lon="18.968491"><ele>965.6</ele><time>2012-05-02T05:38:42.0000000+00:00</time></trkpt><trkpt lat="42.9034" lon="18.96736"><ele>958.6</ele><time>2012-05-02T05:38:47.0000000+00:00</time></trkpt><trkpt lat="42.902985" lon="18.966148"><ele>951.4</ele><time>2012-05-02T05:38:52.0000000+00:00</time></trkpt><trkpt lat="42.902618" lon="18.964855"><ele>945.9</ele><time>2012-05-02T05:38:57.0000000+00:00</time></trkpt><trkpt lat="42.902508" lon="18.96348"><ele>942.1</ele><time>2012-05-02T05:39:02.0000000+00:00</time></trkpt><trkpt lat="42.902485" lon="18.962147"><ele>941.5</ele><time>2012-05-02T05:39:07.0000000+00:00</time></trkpt><trkpt lat="42.90242" lon="18.961012"><ele>941.2</ele><time>2012-05-02T05:39:12.0000000+00:00</time></trkpt><trkpt lat="42.902054" lon="18.960293"><ele>941.2</ele><time>2012-05-02T05:39:17.0000000+00:00</time></trkpt><trkpt lat="42.901543" lon="18.96003"><ele>938.9</ele><time>2012-05-02T05:39:22.0000000+00:00</time></trkpt><trkpt lat="42.90131" lon="18.959997"><ele>938.4</ele><time>2012-05-02T05:39:27.0000000+00:00</time></trkpt><trkpt lat="42.901165" lon="18.960386"><ele>936.1</ele><time>2012-05-02T05:39:32.0000000+00:00</time></trkpt><trkpt lat="42.900902" lon="18.961102"><ele>931.0</ele><time>2012-05-02T05:39:37.0000000+00:00</time></trkpt><trkpt lat="42.900463" lon="18.961916"><ele>926.8</ele><time>2012-05-02T05:39:42.0000000+00:00</time></trkpt><trkpt lat="42.899887" lon="18.962671"><ele>921.2</ele><time>2012-05-02T05:39:47.0000000+00:00</time></trkpt><trkpt lat="42.899189" lon="18.963297"><ele>916.6</ele><time>2012-05-02T05:39:52.0000000+00:00</time></trkpt><trkpt lat="42.89843" lon="18.963732"><ele>911.8</ele><time>2012-05-02T05:39:57.0000000+00:00</time></trkpt><trkpt lat="42.897686" lon="18.963957"><ele>909.9</ele><time>2012-05-02T05:40:02.0000000+00:00</time></trkpt><trkpt lat="42.896946" lon="18.964024"><ele>907.3</ele><time>2012-05-02T05:40:07.0000000+00:00</time></trkpt><trkpt lat="42.89621" lon="18.9639"><ele>904.0</ele><time>2012-05-02T05:40:12.0000000+00:00</time></trkpt><trkpt lat="42.895409" lon="18.963598"><ele>900.6</ele><time>2012-05-02T05:40:17.0000000+00:00</time></trkpt><trkpt lat="42.894432" lon="18.96315"><ele>899.4</ele><time>2012-05-02T05:40:22.0000000+00:00</time></trkpt><trkpt lat="42.893406" lon="18.962645"><ele>897.8</ele><time>2012-05-02T05:40:27.0000000+00:00</time></trkpt><trkpt lat="42.892338" lon="18.962172"><ele>896.5</ele><time>2012-05-02T05:40:32.0000000+00:00</time></trkpt><trkpt lat="42.891285" lon="18.961802"><ele>897.7</ele><time>2012-05-02T05:40:37.0000000+00:00</time></trkpt><trkpt lat="42.890285" lon="18.961561"><ele>900.4</ele><time>2012-05-02T05:40:42.0000000+00:00</time></trkpt><trkpt lat="42.889343" lon="18.96134"><ele>903.0</ele><time>2012-05-02T05:40:47.0000000+00:00</time></trkpt><trkpt lat="42.888577" lon="18.960802"><ele>906.0</ele><time>2012-05-02T05:40:52.0000000+00:00</time></trkpt><trkpt lat="42.888134" lon="18.959948"><ele>908.4</ele><time>2012-05-02T05:40:57.0000000+00:00</time></trkpt><trkpt lat="42.887997" lon="18.958973"><ele>909.1</ele><time>2012-05-02T05:41:02.0000000+00:00</time></trkpt><trkpt lat="42.888031" lon="18.95793"><ele>907.7</ele><time>2012-05-02T05:41:07.0000000+00:00</time></trkpt><trkpt lat="42.887859" lon="18.956844"><ele>905.3</ele><time>2012-05-02T05:41:12.0000000+00:00</time></trkpt><trkpt lat="42.887356" lon="18.95574"><ele>900.1</ele><time>2012-05-02T05:41:17.0000000+00:00</time></trkpt><trkpt lat="42.886742" lon="18.954611"><ele>893.1</ele><time>2012-05-02T05:41:22.0000000+00:00</time></trkpt><trkpt lat="42.886238" lon="18.953562"><ele>886.9</ele><time>2012-05-02T05:41:27.0000000+00:00</time></trkpt><trkpt lat="42.885975" lon="18.952391"><ele>879.7</ele><time>2012-05-02T05:41:32.0000000+00:00</time></trkpt><trkpt lat="42.885536" lon="18.951317"><ele>873.8</ele><time>2012-05-02T05:41:37.0000000+00:00</time></trkpt><trkpt lat="42.884857" lon="18.950439"><ele>867.4</ele><time>2012-05-02T05:41:42.0000000+00:00</time></trkpt><trkpt lat="42.884144" lon="18.949572"><ele>861.7</ele><time>2012-05-02T05:41:47.0000000+00:00</time></trkpt><trkpt lat="42.883419" lon="18.948683"><ele>855.3</ele><time>2012-05-02T05:41:52.0000000+00:00</time></trkpt><trkpt lat="42.88269" lon="18.947783"><ele>848.3</ele><time>2012-05-02T05:41:57.0000000+00:00</time></trkpt><trkpt lat="42.881992" lon="18.946928"><ele>841.3</ele><time>2012-05-02T05:42:02.0000000+00:00</time></trkpt><trkpt lat="42.881481" lon="18.946123"><ele>835.1</ele><time>2012-05-02T05:42:07.0000000+00:00</time></trkpt><trkpt lat="42.881165" lon="18.945053"><ele>830.1</ele><time>2012-05-02T05:42:12.0000000+00:00</time></trkpt><trkpt lat="42.880901" lon="18.943851"><ele>826.9</ele><time>2012-05-02T05:42:17.0000000+00:00</time></trkpt><trkpt lat="42.880478" lon="18.942774"><ele>825.9</ele><time>2012-05-02T05:42:22.0000000+00:00</time></trkpt><trkpt lat="42.879753" lon="18.942057"><ele>824.4</ele><time>2012-05-02T05:42:27.0000000+00:00</time></trkpt><trkpt lat="42.879002" lon="18.941313"><ele>823.1</ele><time>2012-05-02T05:42:32.0000000+00:00</time></trkpt><trkpt lat="42.878319" lon="18.940416"><ele>820.4</ele><time>2012-05-02T05:42:37.0000000+00:00</time></trkpt><trkpt lat="42.877434" lon="18.939837"><ele>815.0</ele><time>2012-05-02T05:42:42.0000000+00:00</time></trkpt><trkpt lat="42.876457" lon="18.939482"><ele>806.5</ele><time>2012-05-02T05:42:47.0000000+00:00</time></trkpt><trkpt lat="42.875504" lon="18.9389"><ele>800.3</ele><time>2012-05-02T05:42:52.0000000+00:00</time></trkpt><trkpt lat="42.874603" lon="18.938372"><ele>793.0</ele><time>2012-05-02T05:42:57.0000000+00:00</time></trkpt><trkpt lat="42.873703" lon="18.937872"><ele>786.8</ele><time>2012-05-02T05:43:02.0000000+00:00</time></trkpt><trkpt lat="42.872887" lon="18.93714"><ele>781.7</ele><time>2012-05-02T05:43:07.0000000+00:00</time></trkpt><trkpt lat="42.871994" lon="18.936609"><ele>774.6</ele><time>2012-05-02T05:43:12.0000000+00:00</time></trkpt><trkpt lat="42.871094" lon="18.936153"><ele>767.4</ele><time>2012-05-02T05:43:17.0000000+00:00</time></trkpt><trkpt lat="42.870251" lon="18.935492"><ele>760.9</ele><time>2012-05-02T05:43:22.0000000+00:00</time></trkpt><trkpt lat="42.869411" lon="18.934809"><ele>755.0</ele><time>2012-05-02T05:43:27.0000000+00:00</time></trkpt><trkpt lat="42.868553" lon="18.93412"><ele>749.5</ele><time>2012-05-02T05:43:32.0000000+00:00</time></trkpt><trkpt lat="42.867668" lon="18.933439"><ele>744.0</ele><time>2012-05-02T05:43:37.0000000+00:00</time></trkpt><trkpt lat="42.866722" lon="18.933043"><ele>740.1</ele><time>2012-05-02T05:43:42.0000000+00:00</time></trkpt><trkpt lat="42.865746" lon="18.933134"><ele>738.4</ele><time>2012-05-02T05:43:47.0000000+00:00</time></trkpt><trkpt lat="42.864799" lon="18.933561"><ele>734.7</ele><time>2012-05-02T05:43:52.0000000+00:00</time></trkpt><trkpt lat="42.863895" lon="18.934082"><ele>730.5</ele><time>2012-05-02T05:43:57.0000000+00:00</time></trkpt><trkpt lat="42.863277" lon="18.934446"><ele>726.9</ele><time>2012-05-02T05:44:02.0000000+00:00</time></trkpt><trkpt lat="42.863033" lon="18.935024"><ele>726.9</ele><time>2012-05-02T05:44:07.0000000+00:00</time></trkpt><trkpt lat="42.863091" lon="18.935858"><ele>726.7</ele><time>2012-05-02T05:44:12.0000000+00:00</time></trkpt><trkpt lat="42.863125" lon="18.936687"><ele>724.5</ele><time>2012-05-02T05:44:17.0000000+00:00</time></trkpt><trkpt lat="42.863014" lon="18.937525"><ele>720.6</ele><time>2012-05-02T05:44:22.0000000+00:00</time></trkpt><trkpt lat="42.86269" lon="18.938313"><ele>714.9</ele><time>2012-05-02T05:44:27.0000000+00:00</time></trkpt><trkpt lat="42.862141" lon="18.938934"><ele>707.1</ele><time>2012-05-02T05:44:32.0000000+00:00</time></trkpt><trkpt lat="42.86145" lon="18.939255"><ele>700.9</ele><time>2012-05-02T05:44:37.0000000+00:00</time></trkpt><trkpt lat="42.86076" lon="18.939335"><ele>695.1</ele><time>2012-05-02T05:44:42.0000000+00:00</time></trkpt><trkpt lat="42.860039" lon="18.939478"><ele>689.4</ele><time>2012-05-02T05:44:47.0000000+00:00</time></trkpt><trkpt lat="42.859379" lon="18.940027"><ele>683.2</ele><time>2012-05-02T05:44:52.0000000+00:00</time></trkpt><trkpt lat="42.858921" lon="18.940924"><ele>677.5</ele><time>2012-05-02T05:44:57.0000000+00:00</time></trkpt><trkpt lat="42.858578" lon="18.941906"><ele>671.0</ele><time>2012-05-02T05:45:02.0000000+00:00</time></trkpt><trkpt lat="42.858227" lon="18.942766"><ele>666.0</ele><time>2012-05-02T05:45:07.0000000+00:00</time></trkpt><trkpt lat="42.857746" lon="18.943176"><ele>663.3</ele><time>2012-05-02T05:45:12.0000000+00:00</time></trkpt><trkpt lat="42.857235" lon="18.943108"><ele>661.2</ele><time>2012-05-02T05:45:17.0000000+00:00</time></trkpt><trkpt lat="42.8568" lon="18.942837"><ele>659.7</ele><time>2012-05-02T05:45:22.0000000+00:00</time></trkpt><trkpt lat="42.856483" lon="18.943104"><ele>658.0</ele><time>2012-05-02T05:45:27.0000000+00:00</time></trkpt><trkpt lat="42.856171" lon="18.943493"><ele>655.1</ele><time>2012-05-02T05:45:32.0000000+00:00</time></trkpt><trkpt lat="42.855728" lon="18.943607"><ele>652.0</ele><time>2012-05-02T05:45:37.0000000+00:00</time></trkpt><trkpt lat="42.85519" lon="18.943398"><ele>649.1</ele><time>2012-05-02T05:45:42.0000000+00:00</time></trkpt><trkpt lat="42.854622" lon="18.943163"><ele>646.1</ele><time>2012-05-02T05:45:47.0000000+00:00</time></trkpt><trkpt lat="42.854103" lon="18.942909"><ele>643.8</ele><time>2012-05-02T05:45:52.0000000+00:00</time></trkpt><trkpt lat="42.853722" lon="18.942432"><ele>643.1</ele><time>2012-05-02T05:45:57.0000000+00:00</time></trkpt><trkpt lat="42.85358" lon="18.941734"><ele>643.4</ele><time>2012-05-02T05:46:02.0000000+00:00</time></trkpt><trkpt lat="42.85355" lon="18.940861"><ele>643.2</ele><time>2012-05-02T05:46:07.0000000+00:00</time></trkpt><trkpt lat="42.853325" lon="18.940031"><ele>643.8</ele><time>2012-05-02T05:46:12.0000000+00:00</time></trkpt><trkpt lat="42.852947" lon="18.939409"><ele>644.8</ele><time>2012-05-02T05:46:17.0000000+00:00</time></trkpt><trkpt lat="42.852444" lon="18.939007"><ele>646.3</ele><time>2012-05-02T05:46:22.0000000+00:00</time></trkpt><trkpt lat="42.851875" lon="18.938765"><ele>647.3</ele><time>2012-05-02T05:46:27.0000000+00:00</time></trkpt><trkpt lat="42.851398" lon="18.938435"><ele>649.3</ele><time>2012-05-02T05:46:32.0000000+00:00</time></trkpt><trkpt lat="42.851105" lon="18.937843"><ele>650.3</ele><time>2012-05-02T05:46:37.0000000+00:00</time></trkpt><trkpt lat="42.850746" lon="18.93722"><ele>649.6</ele><time>2012-05-02T05:46:42.0000000+00:00</time></trkpt><trkpt lat="42.850311" lon="18.936588"><ele>648.9</ele><time>2012-05-02T05:46:47.0000000+00:00</time></trkpt><trkpt lat="42.849796" lon="18.936003"><ele>648.4</ele><time>2012-05-02T05:46:52.0000000+00:00</time></trkpt><trkpt lat="42.849213" lon="18.935444"><ele>647.6</ele><time>2012-05-02T05:46:57.0000000+00:00</time></trkpt><trkpt lat="42.848564" lon="18.935019"><ele>646.9</ele><time>2012-05-02T05:47:02.0000000+00:00</time></trkpt><trkpt lat="42.847923" lon="18.934687"><ele>645.6</ele><time>2012-05-02T05:47:07.0000000+00:00</time></trkpt><trkpt lat="42.847321" lon="18.934273"><ele>644.5</ele><time>2012-05-02T05:47:12.0000000+00:00</time></trkpt><trkpt lat="42.846779" lon="18.933638"><ele>643.6</ele><time>2012-05-02T05:47:17.0000000+00:00</time></trkpt><trkpt lat="42.846272" lon="18.932878"><ele>642.9</ele><time>2012-05-02T05:47:22.0000000+00:00</time></trkpt><trkpt lat="42.845791" lon="18.932117"><ele>642.2</ele><time>2012-05-02T05:47:27.0000000+00:00</time></trkpt><trkpt lat="42.845226" lon="18.931324"><ele>640.9</ele><time>2012-05-02T05:47:32.0000000+00:00</time></trkpt><trkpt lat="42.844658" lon="18.930563"><ele>640.2</ele><time>2012-05-02T05:47:37.0000000+00:00</time></trkpt><trkpt lat="42.844093" lon="18.929804"><ele>639.4</ele><time>2012-05-02T05:47:42.0000000+00:00</time></trkpt><trkpt lat="42.843483" lon="18.929031"><ele>638.3</ele><time>2012-05-02T05:47:47.0000000+00:00</time></trkpt><trkpt lat="42.842869" lon="18.92835"><ele>637.6</ele><time>2012-05-02T05:47:52.0000000+00:00</time></trkpt><trkpt lat="42.842274" lon="18.927715"><ele>636.9</ele><time>2012-05-02T05:47:57.0000000+00:00</time></trkpt><trkpt lat="42.84166" lon="18.92708"><ele>635.6</ele><time>2012-05-02T05:48:02.0000000+00:00</time></trkpt><trkpt lat="42.841022" lon="18.926449"><ele>634.3</ele><time>2012-05-02T05:48:07.0000000+00:00</time></trkpt><trkpt lat="42.840397" lon="18.925842"><ele>633.3</ele><time>2012-05-02T05:48:12.0000000+00:00</time></trkpt><trkpt lat="42.839771" lon="18.925247"><ele>631.9</ele><time>2012-05-02T05:48:17.0000000+00:00</time></trkpt><trkpt lat="42.839024" lon="18.924717"><ele>630.1</ele><time>2012-05-02T05:48:22.0000000+00:00</time></trkpt><trkpt lat="42.83828" lon="18.924143"><ele>629.6</ele><time>2012-05-02T05:48:27.0000000+00:00</time></trkpt><trkpt lat="42.837574" lon="18.923576"><ele>629.5</ele><time>2012-05-02T05:48:32.0000000+00:00</time></trkpt><trkpt lat="42.836903" lon="18.923025"><ele>628.9</ele><time>2012-05-02T05:48:37.0000000+00:00</time></trkpt><trkpt lat="42.836235" lon="18.922501"><ele>628.4</ele><time>2012-05-02T05:48:42.0000000+00:00</time></trkpt><trkpt lat="42.835526" lon="18.92206"><ele>628.0</ele><time>2012-05-02T05:48:47.0000000+00:00</time></trkpt><trkpt lat="42.834831" lon="18.921642"><ele>628.1</ele><time>2012-05-02T05:48:52.0000000+00:00</time></trkpt><trkpt lat="42.834145" lon="18.921257"><ele>628.3</ele><time>2012-05-02T05:48:57.0000000+00:00</time></trkpt><trkpt lat="42.833481" lon="18.920866"><ele>627.5</ele><time>2012-05-02T05:49:02.0000000+00:00</time></trkpt><trkpt lat="42.832806" lon="18.920504"><ele>627.2</ele><time>2012-05-02T05:49:07.0000000+00:00</time></trkpt><trkpt lat="42.832092" lon="18.920208"><ele>626.3</ele><time>2012-05-02T05:49:12.0000000+00:00</time></trkpt><trkpt lat="42.831356" lon="18.919907"><ele>625.4</ele><time>2012-05-02T05:49:17.0000000+00:00</time></trkpt><trkpt lat="42.830627" lon="18.919596"><ele>624.6</ele><time>2012-05-02T05:49:22.0000000+00:00</time></trkpt><trkpt lat="42.829899" lon="18.91918"><ele>624.1</ele><time>2012-05-02T05:49:27.0000000+00:00</time></trkpt><trkpt lat="42.829117" lon="18.918665"><ele>623.5</ele><time>2012-05-02T05:49:32.0000000+00:00</time></trkpt><trkpt lat="42.828339" lon="18.918163"><ele>623.4</ele><time>2012-05-02T05:49:37.0000000+00:00</time></trkpt><trkpt lat="42.827587" lon="18.9177"><ele>623.3</ele><time>2012-05-02T05:49:42.0000000+00:00</time></trkpt><trkpt lat="42.826836" lon="18.917278"><ele>623.0</ele><time>2012-05-02T05:49:47.0000000+00:00</time></trkpt><trkpt lat="42.826092" lon="18.916872"><ele>623.2</ele><time>2012-05-02T05:49:52.0000000+00:00</time></trkpt><trkpt lat="42.825359" lon="18.916466"><ele>623.0</ele><time>2012-05-02T05:49:57.0000000+00:00</time></trkpt><trkpt lat="42.824692" lon="18.916098"><ele>623.2</ele><time>2012-05-02T05:50:02.0000000+00:00</time></trkpt><trkpt lat="42.824108" lon="18.915688"><ele>623.4</ele><time>2012-05-02T05:50:07.0000000+00:00</time></trkpt><trkpt lat="42.823547" lon="18.915449"><ele>623.2</ele><time>2012-05-02T05:50:12.0000000+00:00</time></trkpt><trkpt lat="42.823017" lon="18.915651"><ele>623.0</ele><time>2012-05-02T05:50:17.0000000+00:00</time></trkpt><trkpt lat="42.822475" lon="18.916122"><ele>622.9</ele><time>2012-05-02T05:50:22.0000000+00:00</time></trkpt><trkpt lat="42.821827" lon="18.916677"><ele>622.9</ele><time>2012-05-02T05:50:27.0000000+00:00</time></trkpt><trkpt lat="42.821156" lon="18.917238"><ele>622.9</ele><time>2012-05-02T05:50:32.0000000+00:00</time></trkpt><trkpt lat="42.820454" lon="18.917826"><ele>622.7</ele><time>2012-05-02T05:50:37.0000000+00:00</time></trkpt><trkpt lat="42.819695" lon="18.918459"><ele>622.0</ele><time>2012-05-02T05:50:42.0000000+00:00</time></trkpt><trkpt lat="42.818893" lon="18.919136"><ele>621.4</ele><time>2012-05-02T05:50:47.0000000+00:00</time></trkpt><trkpt lat="42.818104" lon="18.919785"><ele>621.1</ele><time>2012-05-02T05:50:52.0000000+00:00</time></trkpt><trkpt lat="42.81736" lon="18.920399"><ele>620.5</ele><time>2012-05-02T05:50:57.0000000+00:00</time></trkpt><trkpt lat="42.816612" lon="18.921019"><ele>619.8</ele><time>2012-05-02T05:51:02.0000000+00:00</time></trkpt><trkpt lat="42.815845" lon="18.921667"><ele>619.2</ele><time>2012-05-02T05:51:07.0000000+00:00</time></trkpt><trkpt lat="42.81506" lon="18.922319"><ele>618.7</ele><time>2012-05-02T05:51:12.0000000+00:00</time></trkpt><trkpt lat="42.814281" lon="18.922964"><ele>618.2</ele><time>2012-05-02T05:51:17.0000000+00:00</time></trkpt><trkpt lat="42.813503" lon="18.92362"><ele>618.4</ele><time>2012-05-02T05:51:22.0000000+00:00</time></trkpt><trkpt lat="42.812778" lon="18.924265"><ele>618.2</ele><time>2012-05-02T05:51:27.0000000+00:00</time></trkpt><trkpt lat="42.812206" lon="18.924936"><ele>618.4</ele><time>2012-05-02T05:51:32.0000000+00:00</time></trkpt><trkpt lat="42.81179" lon="18.925549"><ele>618.3</ele><time>2012-05-02T05:51:37.0000000+00:00</time></trkpt><trkpt lat="42.811405" lon="18.925907"><ele>618.7</ele><time>2012-05-02T05:51:42.0000000+00:00</time></trkpt><trkpt lat="42.811012" lon="18.925865"><ele>619.6</ele><time>2012-05-02T05:51:47.0000000+00:00</time></trkpt><trkpt lat="42.810631" lon="18.925751"><ele>619.5</ele><time>2012-05-02T05:51:52.0000000+00:00</time></trkpt><trkpt lat="42.810375" lon="18.925819"><ele>619.0</ele><time>2012-05-02T05:51:57.0000000+00:00</time></trkpt><trkpt lat="42.810215" lon="18.926325"><ele>619.0</ele><time>2012-05-02T05:52:02.0000000+00:00</time></trkpt><trkpt lat="42.809971" lon="18.926983"><ele>619.1</ele><time>2012-05-02T05:52:07.0000000+00:00</time></trkpt><trkpt lat="42.809418" lon="18.92771"><ele>619.9</ele><time>2012-05-02T05:52:12.0000000+00:00</time></trkpt><trkpt lat="42.808762" lon="18.928522"><ele>620.1</ele><time>2012-05-02T05:52:17.0000000+00:00</time></trkpt><trkpt lat="42.808102" lon="18.92939"><ele>620.3</ele><time>2012-05-02T05:52:22.0000000+00:00</time></trkpt><trkpt lat="42.807545" lon="18.930357"><ele>620.7</ele><time>2012-05-02T05:52:27.0000000+00:00</time></trkpt><trkpt lat="42.80706" lon="18.931252"><ele>621.3</ele><time>2012-05-02T05:52:32.0000000+00:00</time></trkpt><trkpt lat="42.806503" lon="18.931946"><ele>622.1</ele><time>2012-05-02T05:52:37.0000000+00:00</time></trkpt><trkpt lat="42.805828" lon="18.932499"><ele>622.1</ele><time>2012-05-02T05:52:42.0000000+00:00</time></trkpt><trkpt lat="42.805122" lon="18.932981"><ele>622.4</ele><time>2012-05-02T05:52:47.0000000+00:00</time></trkpt><trkpt lat="42.804382" lon="18.933399"><ele>622.6</ele><time>2012-05-02T05:52:52.0000000+00:00</time></trkpt><trkpt lat="42.80365" lon="18.933826"><ele>622.5</ele><time>2012-05-02T05:52:57.0000000+00:00</time></trkpt><trkpt lat="42.80291" lon="18.934254"><ele>622.5</ele><time>2012-05-02T05:53:02.0000000+00:00</time></trkpt><trkpt lat="42.802189" lon="18.934643"><ele>621.9</ele><time>2012-05-02T05:53:07.0000000+00:00</time></trkpt><trkpt lat="42.801392" lon="18.934866"><ele>621.7</ele><time>2012-05-02T05:53:12.0000000+00:00</time></trkpt><trkpt lat="42.800522" lon="18.935043"><ele>621.2</ele><time>2012-05-02T05:53:17.0000000+00:00</time></trkpt><trkpt lat="42.799625" lon="18.935232"><ele>620.9</ele><time>2012-05-02T05:53:22.0000000+00:00</time></trkpt><trkpt lat="42.798748" lon="18.935417"><ele>620.7</ele><time>2012-05-02T05:53:27.0000000+00:00</time></trkpt><trkpt lat="42.797897" lon="18.935595"><ele>620.4</ele><time>2012-05-02T05:53:32.0000000+00:00</time></trkpt><trkpt lat="42.79707" lon="18.935728"><ele>620.3</ele><time>2012-05-02T05:53:37.0000000+00:00</time></trkpt><trkpt lat="42.796265" lon="18.935768"><ele>622.0</ele><time>2012-05-02T05:53:42.0000000+00:00</time></trkpt><trkpt lat="42.795551" lon="18.935667"><ele>622.5</ele><time>2012-05-02T05:53:47.0000000+00:00</time></trkpt><trkpt lat="42.794888" lon="18.935417"><ele>622.8</ele><time>2012-05-02T05:53:52.0000000+00:00</time></trkpt><trkpt lat="42.794388" lon="18.935123"><ele>623.1</ele><time>2012-05-02T05:53:57.0000000+00:00</time></trkpt><trkpt lat="42.794113" lon="18.934668"><ele>622.1</ele><time>2012-05-02T05:54:02.0000000+00:00</time></trkpt><trkpt lat="42.793922" lon="18.934486"><ele>622.0</ele><time>2012-05-02T05:54:07.0000000+00:00</time></trkpt><trkpt lat="42.793877" lon="18.934486"><ele>622.1</ele><time>2012-05-02T05:54:12.0000000+00:00</time></trkpt><trkpt lat="42.793877" lon="18.934494"><ele>622.0</ele><time>2012-05-02T05:54:17.0000000+00:00</time></trkpt><trkpt lat="42.793877" lon="18.934496"><ele>622.0</ele><time>2012-05-02T05:54:22.0000000+00:00</time></trkpt><trkpt lat="42.793877" lon="18.934496"><ele>622.0</ele><time>2012-05-02T05:54:27.0000000+00:00</time></trkpt><trkpt lat="42.793877" lon="18.934496"><ele>622.0</ele><time>2012-05-02T05:54:32.0000000+00:00</time></trkpt><trkpt lat="42.793877" lon="18.934496"><ele>622.1</ele><time>2012-05-02T05:54:37.0000000+00:00</time></trkpt><trkpt lat="42.793877" lon="18.934496"><ele>622.1</ele><time>2012-05-02T05:54:42.0000000+00:00</time></trkpt><trkpt lat="42.793877" lon="18.934496"><ele>622.1</ele><time>2012-05-02T05:54:47.0000000+00:00</time></trkpt><trkpt lat="42.793877" lon="18.934498"><ele>622.1</ele><time>2012-05-02T05:54:52.0000000+00:00</time></trkpt><trkpt lat="42.793877" lon="18.934498"><ele>622.1</ele><time>2012-05-02T05:54:57.0000000+00:00</time></trkpt><trkpt lat="42.793877" lon="18.934498"><ele>622.1</ele><time>2012-05-02T05:55:02.0000000+00:00</time></trkpt><trkpt lat="42.793877" lon="18.934498"><ele>622.2</ele><time>2012-05-02T05:55:07.0000000+00:00</time></trkpt><trkpt lat="42.793877" lon="18.934498"><ele>622.2</ele><time>2012-05-02T05:55:12.0000000+00:00</time></trkpt><trkpt lat="42.793877" lon="18.934498"><ele>622.2</ele><time>2012-05-02T05:55:17.0000000+00:00</time></trkpt><trkpt lat="42.793877" lon="18.934498"><ele>622.2</ele><time>2012-05-02T05:55:22.0000000+00:00</time></trkpt><trkpt lat="42.793877" lon="18.934498"><ele>622.2</ele><time>2012-05-02T05:55:27.0000000+00:00</time></trkpt><trkpt lat="42.793877" lon="18.934498"><ele>622.2</ele><time>2012-05-02T05:55:32.0000000+00:00</time></trkpt><trkpt lat="42.79388" lon="18.934498"><ele>622.2</ele><time>2012-05-02T05:55:37.0000000+00:00</time></trkpt><trkpt lat="42.79388" lon="18.934498"><ele>622.2</ele><time>2012-05-02T05:55:42.0000000+00:00</time></trkpt><trkpt lat="42.79388" lon="18.934498"><ele>622.2</ele><time>2012-05-02T05:55:47.0000000+00:00</time></trkpt><trkpt lat="42.79388" lon="18.934498"><ele>622.2</ele><time>2012-05-02T05:55:52.0000000+00:00</time></trkpt><trkpt lat="42.79388" lon="18.934498"><ele>622.2</ele><time>2012-05-02T05:55:57.0000000+00:00</time></trkpt><trkpt lat="42.79388" lon="18.934498"><ele>622.3</ele><time>2012-05-02T05:56:02.0000000+00:00</time></trkpt><trkpt lat="42.79388" lon="18.934498"><ele>622.3</ele><time>2012-05-02T05:56:07.0000000+00:00</time></trkpt><trkpt lat="42.79388" lon="18.934498"><ele>622.3</ele><time>2012-05-02T05:56:12.0000000+00:00</time></trkpt><trkpt lat="42.79388" lon="18.934498"><ele>622.3</ele><time>2012-05-02T05:56:17.0000000+00:00</time></trkpt><trkpt lat="42.79388" lon="18.934498"><ele>622.3</ele><time>2012-05-02T05:56:22.0000000+00:00</time></trkpt><trkpt lat="42.79388" lon="18.934498"><ele>622.3</ele><time>2012-05-02T05:56:27.0000000+00:00</time></trkpt><trkpt lat="42.79388" lon="18.934498"><ele>622.3</ele><time>2012-05-02T05:56:32.0000000+00:00</time></trkpt><trkpt lat="42.79388" lon="18.934498"><ele>622.3</ele><time>2012-05-02T05:56:37.0000000+00:00</time></trkpt><trkpt lat="42.79388" lon="18.934498"><ele>622.3</ele><time>2012-05-02T05:56:42.0000000+00:00</time></trkpt><trkpt lat="42.79388" lon="18.934498"><ele>622.3</ele><time>2012-05-02T05:56:47.0000000+00:00</time></trkpt><trkpt lat="42.79388" lon="18.934498"><ele>622.3</ele><time>2012-05-02T05:56:52.0000000+00:00</time></trkpt><trkpt lat="42.793877" lon="18.934498"><ele>622.3</ele><time>2012-05-02T05:56:57.0000000+00:00</time></trkpt><trkpt lat="42.79377" lon="18.934456"><ele>622.7</ele><time>2012-05-02T05:57:02.0000000+00:00</time></trkpt><trkpt lat="42.793671" lon="18.934231"><ele>622.6</ele><time>2012-05-02T05:57:07.0000000+00:00</time></trkpt><trkpt lat="42.79348" lon="18.933849"><ele>621.8</ele><time>2012-05-02T05:57:12.0000000+00:00</time></trkpt><trkpt lat="42.793098" lon="18.933462"><ele>621.0</ele><time>2012-05-02T05:57:17.0000000+00:00</time></trkpt><trkpt lat="42.79277" lon="18.932934"><ele>620.9</ele><time>2012-05-02T05:57:22.0000000+00:00</time></trkpt><trkpt lat="42.792614" lon="18.932293"><ele>621.7</ele><time>2012-05-02T05:57:27.0000000+00:00</time></trkpt><trkpt lat="42.792675" lon="18.931559"><ele>621.9</ele><time>2012-05-02T05:57:32.0000000+00:00</time></trkpt><trkpt lat="42.792892" lon="18.930582"><ele>622.2</ele><time>2012-05-02T05:57:37.0000000+00:00</time></trkpt><trkpt lat="42.793156" lon="18.929615"><ele>623.2</ele><time>2012-05-02T05:57:42.0000000+00:00</time></trkpt><trkpt lat="42.793427" lon="18.92865"><ele>623.4</ele><time>2012-05-02T05:57:47.0000000+00:00</time></trkpt><trkpt lat="42.793694" lon="18.927769"><ele>623.5</ele><time>2012-05-02T05:57:52.0000000+00:00</time></trkpt><trkpt lat="42.793953" lon="18.926954"><ele>623.6</ele><time>2012-05-02T05:57:57.0000000+00:00</time></trkpt><trkpt lat="42.794308" lon="18.926281"><ele>624.2</ele><time>2012-05-02T05:58:02.0000000+00:00</time></trkpt><trkpt lat="42.794529" lon="18.925611"><ele>624.3</ele><time>2012-05-02T05:58:07.0000000+00:00</time></trkpt><trkpt lat="42.794579" lon="18.925055"><ele>624.6</ele><time>2012-05-02T05:58:12.0000000+00:00</time></trkpt><trkpt lat="42.794353" lon="18.924906"><ele>625.7</ele><time>2012-05-02T05:58:17.0000000+00:00</time></trkpt><trkpt lat="42.794102" lon="18.924845"><ele>626.1</ele><time>2012-05-02T05:58:22.0000000+00:00</time></trkpt><trkpt lat="42.793869" lon="18.924633"><ele>626.3</ele><time>2012-05-02T05:58:27.0000000+00:00</time></trkpt><trkpt lat="42.793686" lon="18.924406"><ele>626.9</ele><time>2012-05-02T05:58:32.0000000+00:00</time></trkpt><trkpt lat="42.793465" lon="18.924532"><ele>627.4</ele><time>2012-05-02T05:58:37.0000000+00:00</time></trkpt><trkpt lat="42.793163" lon="18.924891"><ele>627.3</ele><time>2012-05-02T05:58:42.0000000+00:00</time></trkpt><trkpt lat="42.792706" lon="18.925409"><ele>626.7</ele><time>2012-05-02T05:58:47.0000000+00:00</time></trkpt><trkpt lat="42.792095" lon="18.92606"><ele>626.4</ele><time>2012-05-02T05:58:52.0000000+00:00</time></trkpt><trkpt lat="42.791451" lon="18.92671"><ele>626.7</ele><time>2012-05-02T05:58:57.0000000+00:00</time></trkpt><trkpt lat="42.790859" lon="18.927322"><ele>627.0</ele><time>2012-05-02T05:59:02.0000000+00:00</time></trkpt><trkpt lat="42.790295" lon="18.927868"><ele>627.0</ele><time>2012-05-02T05:59:07.0000000+00:00</time></trkpt><trkpt lat="42.789692" lon="18.928219"><ele>626.8</ele><time>2012-05-02T05:59:12.0000000+00:00</time></trkpt><trkpt lat="42.789101" lon="18.92837"><ele>626.5</ele><time>2012-05-02T05:59:17.0000000+00:00</time></trkpt><trkpt lat="42.788555" lon="18.928385"><ele>626.7</ele><time>2012-05-02T05:59:22.0000000+00:00</time></trkpt><trkpt lat="42.788021" lon="18.928347"><ele>626.7</ele><time>2012-05-02T05:59:27.0000000+00:00</time></trkpt><trkpt lat="42.78727" lon="18.92832"><ele>627.0</ele><time>2012-05-02T05:59:32.0000000+00:00</time></trkpt><trkpt lat="42.78635" lon="18.928291"><ele>627.3</ele><time>2012-05-02T05:59:37.0000000+00:00</time></trkpt><trkpt lat="42.785473" lon="18.928259"><ele>627.7</ele><time>2012-05-02T05:59:42.0000000+00:00</time></trkpt><trkpt lat="42.784679" lon="18.928223"><ele>630.1</ele><time>2012-05-02T05:59:47.0000000+00:00</time></trkpt><trkpt lat="42.784008" lon="18.92827"><ele>632.9</ele><time>2012-05-02T05:59:52.0000000+00:00</time></trkpt><trkpt lat="42.783569" lon="18.928381"><ele>634.6</ele><time>2012-05-02T05:59:57.0000000+00:00</time></trkpt><trkpt lat="42.783241" lon="18.928576"><ele>635.8</ele><time>2012-05-02T06:00:02.0000000+00:00</time></trkpt><trkpt lat="42.782806" lon="18.928932"><ele>637.7</ele><time>2012-05-02T06:00:07.0000000+00:00</time></trkpt><trkpt lat="42.782375" lon="18.929455"><ele>640.3</ele><time>2012-05-02T06:00:12.0000000+00:00</time></trkpt><trkpt lat="42.782017" lon="18.930162"><ele>641.4</ele><time>2012-05-02T06:00:17.0000000+00:00</time></trkpt><trkpt lat="42.781761" lon="18.931005"><ele>641.3</ele><time>2012-05-02T06:00:22.0000000+00:00</time></trkpt><trkpt lat="42.781551" lon="18.931934"><ele>640.6</ele><time>2012-05-02T06:00:27.0000000+00:00</time></trkpt><trkpt lat="42.781311" lon="18.932838"><ele>639.9</ele><time>2012-05-02T06:00:32.0000000+00:00</time></trkpt><trkpt lat="42.780972" lon="18.933601"><ele>639.5</ele><time>2012-05-02T06:00:37.0000000+00:00</time></trkpt><trkpt lat="42.78056" lon="18.934172"><ele>639.1</ele><time>2012-05-02T06:00:42.0000000+00:00</time></trkpt><trkpt lat="42.780357" lon="18.934387"><ele>638.7</ele><time>2012-05-02T06:00:47.0000000+00:00</time></trkpt><trkpt lat="42.780354" lon="18.934387"><ele>638.5</ele><time>2012-05-02T06:00:52.0000000+00:00</time></trkpt><trkpt lat="42.780354" lon="18.934385"><ele>638.5</ele><time>2012-05-02T06:00:57.0000000+00:00</time></trkpt><trkpt lat="42.780354" lon="18.934385"><ele>638.5</ele><time>2012-05-02T06:01:02.0000000+00:00</time></trkpt><trkpt lat="42.780354" lon="18.934385"><ele>638.5</ele><time>2012-05-02T06:01:07.0000000+00:00</time></trkpt><trkpt lat="42.780354" lon="18.934385"><ele>638.6</ele><time>2012-05-02T06:01:12.0000000+00:00</time></trkpt><trkpt lat="42.780354" lon="18.934385"><ele>638.6</ele><time>2012-05-02T06:01:17.0000000+00:00</time></trkpt><trkpt lat="42.780354" lon="18.934385"><ele>638.6</ele><time>2012-05-02T06:01:22.0000000+00:00</time></trkpt><trkpt lat="42.780361" lon="18.934378"><ele>638.6</ele><time>2012-05-02T06:01:27.0000000+00:00</time></trkpt><trkpt lat="42.780426" lon="18.934303"><ele>638.4</ele><time>2012-05-02T06:01:32.0000000+00:00</time></trkpt><trkpt lat="42.780502" lon="18.934212"><ele>638.2</ele><time>2012-05-02T06:01:37.0000000+00:00</time></trkpt><trkpt lat="42.78054" lon="18.934164"><ele>638.1</ele><time>2012-05-02T06:01:42.0000000+00:00</time></trkpt><trkpt lat="42.780483" lon="18.934193"><ele>638.2</ele><time>2012-05-02T06:01:47.0000000+00:00</time></trkpt><trkpt lat="42.780487" lon="18.934258"><ele>638.3</ele><time>2012-05-02T06:01:52.0000000+00:00</time></trkpt><trkpt lat="42.780499" lon="18.934246"><ele>638.1</ele><time>2012-05-02T06:01:57.0000000+00:00</time></trkpt><trkpt lat="42.780518" lon="18.934225"><ele>637.5</ele><time>2012-05-02T06:02:02.0000000+00:00</time></trkpt><trkpt lat="42.78056" lon="18.93424"><ele>637.7</ele><time>2012-05-02T06:02:07.0000000+00:00</time></trkpt><trkpt lat="42.780758" lon="18.934023"><ele>639.1</ele><time>2012-05-02T06:02:12.0000000+00:00</time></trkpt><trkpt lat="42.781055" lon="18.933493"><ele>639.8</ele><time>2012-05-02T06:02:17.0000000+00:00</time></trkpt><trkpt lat="42.781414" lon="18.932577"><ele>639.4</ele><time>2012-05-02T06:02:22.0000000+00:00</time></trkpt><trkpt lat="42.781693" lon="18.931513"><ele>639.1</ele><time>2012-05-02T06:02:27.0000000+00:00</time></trkpt><trkpt lat="42.78196" lon="18.930511"><ele>638.8</ele><time>2012-05-02T06:02:32.0000000+00:00</time></trkpt><trkpt lat="42.78233" lon="18.929638"><ele>638.5</ele><time>2012-05-02T06:02:37.0000000+00:00</time></trkpt><trkpt lat="42.782757" lon="18.929028"><ele>636.9</ele><time>2012-05-02T06:02:42.0000000+00:00</time></trkpt><trkpt lat="42.783276" lon="18.928612"><ele>635.2</ele><time>2012-05-02T06:02:47.0000000+00:00</time></trkpt><trkpt lat="42.783886" lon="18.928389"><ele>633.0</ele><time>2012-05-02T06:02:52.0000000+00:00</time></trkpt><trkpt lat="42.78437" lon="18.928352"><ele>631.2</ele><time>2012-05-02T06:02:57.0000000+00:00</time></trkpt><trkpt lat="42.784584" lon="18.928692"><ele>629.4</ele><time>2012-05-02T06:03:02.0000000+00:00</time></trkpt><trkpt lat="42.784389" lon="18.929119"><ele>628.0</ele><time>2012-05-02T06:03:07.0000000+00:00</time></trkpt><trkpt lat="42.784054" lon="18.929186"><ele>627.3</ele><time>2012-05-02T06:03:12.0000000+00:00</time></trkpt><trkpt lat="42.783924" lon="18.928844"><ele>627.0</ele><time>2012-05-02T06:03:17.0000000+00:00</time></trkpt><trkpt lat="42.783882" lon="18.928143"><ele>626.1</ele><time>2012-05-02T06:03:22.0000000+00:00</time></trkpt><trkpt lat="42.783722" lon="18.927217"><ele>625.6</ele><time>2012-05-02T06:03:27.0000000+00:00</time></trkpt><trkpt lat="42.783466" lon="18.926327"><ele>625.2</ele><time>2012-05-02T06:03:32.0000000+00:00</time></trkpt><trkpt lat="42.783142" lon="18.925556"><ele>624.8</ele><time>2012-05-02T06:03:37.0000000+00:00</time></trkpt><trkpt lat="42.782757" lon="18.924829"><ele>623.5</ele><time>2012-05-02T06:03:42.0000000+00:00</time></trkpt><trkpt lat="42.782276" lon="18.924164"><ele>622.3</ele><time>2012-05-02T06:03:47.0000000+00:00</time></trkpt><trkpt lat="42.781746" lon="18.923611"><ele>621.5</ele><time>2012-05-02T06:03:52.0000000+00:00</time></trkpt><trkpt lat="42.781216" lon="18.923103"><ele>621.0</ele><time>2012-05-02T06:03:57.0000000+00:00</time></trkpt><trkpt lat="42.780811" lon="18.92251"><ele>621.3</ele><time>2012-05-02T06:04:02.0000000+00:00</time></trkpt><trkpt lat="42.780579" lon="18.921846"><ele>621.9</ele><time>2012-05-02T06:04:07.0000000+00:00</time></trkpt><trkpt lat="42.780487" lon="18.921156"><ele>621.8</ele><time>2012-05-02T06:04:12.0000000+00:00</time></trkpt><trkpt lat="42.780495" lon="18.920378"><ele>622.1</ele><time>2012-05-02T06:04:17.0000000+00:00</time></trkpt><trkpt lat="42.780506" lon="18.919521"><ele>622.7</ele><time>2012-05-02T06:04:22.0000000+00:00</time></trkpt><trkpt lat="42.780521" lon="18.91864"><ele>623.1</ele><time>2012-05-02T06:04:27.0000000+00:00</time></trkpt><trkpt lat="42.780529" lon="18.917721"><ele>623.2</ele><time>2012-05-02T06:04:32.0000000+00:00</time></trkpt><trkpt lat="42.78054" lon="18.91678"><ele>623.1</ele><time>2012-05-02T06:04:37.0000000+00:00</time></trkpt><trkpt lat="42.780533" lon="18.915804"><ele>622.6</ele><time>2012-05-02T06:04:42.0000000+00:00</time></trkpt><trkpt lat="42.780483" lon="18.914831"><ele>622.3</ele><time>2012-05-02T06:04:47.0000000+00:00</time></trkpt><trkpt lat="42.780418" lon="18.913879"><ele>621.9</ele><time>2012-05-02T06:04:52.0000000+00:00</time></trkpt><trkpt lat="42.780354" lon="18.912931"><ele>621.7</ele><time>2012-05-02T06:04:57.0000000+00:00</time></trkpt><trkpt lat="42.780281" lon="18.911943"><ele>621.6</ele><time>2012-05-02T06:05:02.0000000+00:00</time></trkpt><trkpt lat="42.780205" lon="18.910908"><ele>621.3</ele><time>2012-05-02T06:05:07.0000000+00:00</time></trkpt><trkpt lat="42.780132" lon="18.909883"><ele>621.1</ele><time>2012-05-02T06:05:12.0000000+00:00</time></trkpt><trkpt lat="42.780064" lon="18.908903"><ele>620.7</ele><time>2012-05-02T06:05:17.0000000+00:00</time></trkpt><trkpt lat="42.779942" lon="18.907949"><ele>620.8</ele><time>2012-05-02T06:05:22.0000000+00:00</time></trkpt><trkpt lat="42.779766" lon="18.907036"><ele>620.7</ele><time>2012-05-02T06:05:27.0000000+00:00</time></trkpt><trkpt lat="42.77953" lon="18.906158"><ele>620.7</ele><time>2012-05-02T06:05:32.0000000+00:00</time></trkpt><trkpt lat="42.779232" lon="18.905272"><ele>620.7</ele><time>2012-05-02T06:05:37.0000000+00:00</time></trkpt><trkpt lat="42.77887" lon="18.90439"><ele>620.9</ele><time>2012-05-02T06:05:42.0000000+00:00</time></trkpt><trkpt lat="42.778473" lon="18.9035"><ele>620.8</ele><time>2012-05-02T06:05:47.0000000+00:00</time></trkpt><trkpt lat="42.778095" lon="18.902636"><ele>620.9</ele><time>2012-05-02T06:05:52.0000000+00:00</time></trkpt><trkpt lat="42.777725" lon="18.901804"><ele>621.2</ele><time>2012-05-02T06:05:57.0000000+00:00</time></trkpt><trkpt lat="42.777382" lon="18.901016"><ele>622.1</ele><time>2012-05-02T06:06:02.0000000+00:00</time></trkpt><trkpt lat="42.777061" lon="18.900293"><ele>623.5</ele><time>2012-05-02T06:06:07.0000000+00:00</time></trkpt><trkpt lat="42.776768" lon="18.899588"><ele>625.0</ele><time>2012-05-02T06:06:12.0000000+00:00</time></trkpt><trkpt lat="42.77655" lon="18.89887"><ele>626.9</ele><time>2012-05-02T06:06:17.0000000+00:00</time></trkpt><trkpt lat="42.776428" lon="18.89819"><ele>628.5</ele><time>2012-05-02T06:06:22.0000000+00:00</time></trkpt><trkpt lat="42.776394" lon="18.897474"><ele>630.4</ele><time>2012-05-02T06:06:27.0000000+00:00</time></trkpt><trkpt lat="42.776413" lon="18.896671"><ele>632.7</ele><time>2012-05-02T06:06:32.0000000+00:00</time></trkpt><trkpt lat="42.776474" lon="18.895739"><ele>635.4</ele><time>2012-05-02T06:06:37.0000000+00:00</time></trkpt><trkpt lat="42.776543" lon="18.894802"><ele>637.9</ele><time>2012-05-02T06:06:42.0000000+00:00</time></trkpt><trkpt lat="42.776577" lon="18.893948"><ele>640.5</ele><time>2012-05-02T06:06:47.0000000+00:00</time></trkpt><trkpt lat="42.776653" lon="18.893078"><ele>642.3</ele><time>2012-05-02T06:06:52.0000000+00:00</time></trkpt><trkpt lat="42.776726" lon="18.892139"><ele>644.0</ele><time>2012-05-02T06:06:57.0000000+00:00</time></trkpt><trkpt lat="42.776848" lon="18.891109"><ele>644.7</ele><time>2012-05-02T06:07:02.0000000+00:00</time></trkpt><trkpt lat="42.777073" lon="18.890177"><ele>645.7</ele><time>2012-05-02T06:07:07.0000000+00:00</time></trkpt><trkpt lat="42.777363" lon="18.889332"><ele>646.0</ele><time>2012-05-02T06:07:12.0000000+00:00</time></trkpt><trkpt lat="42.777691" lon="18.888493"><ele>646.7</ele><time>2012-05-02T06:07:17.0000000+00:00</time></trkpt><trkpt lat="42.777981" lon="18.887585"><ele>647.4</ele><time>2012-05-02T06:07:22.0000000+00:00</time></trkpt><trkpt lat="42.778183" lon="18.886618"><ele>648.3</ele><time>2012-05-02T06:07:27.0000000+00:00</time></trkpt><trkpt lat="42.778259" lon="18.885612"><ele>649.2</ele><time>2012-05-02T06:07:32.0000000+00:00</time></trkpt><trkpt lat="42.778252" lon="18.884594"><ele>650.0</ele><time>2012-05-02T06:07:37.0000000+00:00</time></trkpt><trkpt lat="42.778221" lon="18.883606"><ele>650.5</ele><time>2012-05-02T06:07:42.0000000+00:00</time></trkpt><trkpt lat="42.778206" lon="18.882637"><ele>650.7</ele><time>2012-05-02T06:07:47.0000000+00:00</time></trkpt><trkpt lat="42.778267" lon="18.881636"><ele>650.2</ele><time>2012-05-02T06:07:52.0000000+00:00</time></trkpt><trkpt lat="42.778435" lon="18.880606"><ele>649.3</ele><time>2012-05-02T06:07:57.0000000+00:00</time></trkpt><trkpt lat="42.778778" lon="18.879604"><ele>647.5</ele><time>2012-05-02T06:08:02.0000000+00:00</time></trkpt><trkpt lat="42.779255" lon="18.878613"><ele>646.3</ele><time>2012-05-02T06:08:07.0000000+00:00</time></trkpt><trkpt lat="42.779785" lon="18.877596"><ele>644.9</ele><time>2012-05-02T06:08:12.0000000+00:00</time></trkpt><trkpt lat="42.780216" lon="18.876417"><ele>642.9</ele><time>2012-05-02T06:08:17.0000000+00:00</time></trkpt><trkpt lat="42.780487" lon="18.87499"><ele>642.3</ele><time>2012-05-02T06:08:22.0000000+00:00</time></trkpt><trkpt lat="42.78072" lon="18.873617"><ele>642.7</ele><time>2012-05-02T06:08:27.0000000+00:00</time></trkpt><trkpt lat="42.780968" lon="18.872349"><ele>644.1</ele><time>2012-05-02T06:08:32.0000000+00:00</time></trkpt><trkpt lat="42.781322" lon="18.871119"><ele>645.4</ele><time>2012-05-02T06:08:37.0000000+00:00</time></trkpt><trkpt lat="42.7817" lon="18.869911"><ele>645.8</ele><time>2012-05-02T06:08:42.0000000+00:00</time></trkpt><trkpt lat="42.782055" lon="18.868773"><ele>645.1</ele><time>2012-05-02T06:08:47.0000000+00:00</time></trkpt><trkpt lat="42.782387" lon="18.867695"><ele>643.3</ele><time>2012-05-02T06:08:52.0000000+00:00</time></trkpt><trkpt lat="42.782623" lon="18.866621"><ele>642.1</ele><time>2012-05-02T06:08:57.0000000+00:00</time></trkpt><trkpt lat="42.782673" lon="18.86553"><ele>643.1</ele><time>2012-05-02T06:09:02.0000000+00:00</time></trkpt><trkpt lat="42.782417" lon="18.864485"><ele>645.8</ele><time>2012-05-02T06:09:07.0000000+00:00</time></trkpt><trkpt lat="42.782024" lon="18.863478"><ele>649.9</ele><time>2012-05-02T06:09:12.0000000+00:00</time></trkpt><trkpt lat="42.781475" lon="18.86257"><ele>653.9</ele><time>2012-05-02T06:09:17.0000000+00:00</time></trkpt><trkpt lat="42.780792" lon="18.861843"><ele>657.8</ele><time>2012-05-02T06:09:22.0000000+00:00</time></trkpt><trkpt lat="42.780243" lon="18.861048"><ele>660.9</ele><time>2012-05-02T06:09:27.0000000+00:00</time></trkpt><trkpt lat="42.779896" lon="18.86005"><ele>663.2</ele><time>2012-05-02T06:09:32.0000000+00:00</time></trkpt><trkpt lat="42.77948" lon="18.859108"><ele>665.1</ele><time>2012-05-02T06:09:37.0000000+00:00</time></trkpt><trkpt lat="42.778877" lon="18.858374"><ele>666.9</ele><time>2012-05-02T06:09:42.0000000+00:00</time></trkpt><trkpt lat="42.778336" lon="18.857653"><ele>668.2</ele><time>2012-05-02T06:09:47.0000000+00:00</time></trkpt><trkpt lat="42.778095" lon="18.856724"><ele>669.3</ele><time>2012-05-02T06:09:52.0000000+00:00</time></trkpt><trkpt lat="42.778088" lon="18.855648"><ele>670.5</ele><time>2012-05-02T06:09:57.0000000+00:00</time></trkpt><trkpt lat="42.778118" lon="18.854509"><ele>672.4</ele><time>2012-05-02T06:10:02.0000000+00:00</time></trkpt><trkpt lat="42.778084" lon="18.853374"><ele>674.3</ele><time>2012-05-02T06:10:07.0000000+00:00</time></trkpt><trkpt lat="42.778" lon="18.85231"><ele>676.0</ele><time>2012-05-02T06:10:12.0000000+00:00</time></trkpt><trkpt lat="42.777798" lon="18.851358"><ele>678.0</ele><time>2012-05-02T06:10:17.0000000+00:00</time></trkpt><trkpt lat="42.777565" lon="18.850603"><ele>680.6</ele><time>2012-05-02T06:10:22.0000000+00:00</time></trkpt><trkpt lat="42.777409" lon="18.850161"><ele>682.6</ele><time>2012-05-02T06:10:27.0000000+00:00</time></trkpt><trkpt lat="42.777374" lon="18.850111"><ele>683.1</ele><time>2012-05-02T06:10:32.0000000+00:00</time></trkpt><trkpt lat="42.777374" lon="18.850115"><ele>683.1</ele><time>2012-05-02T06:10:37.0000000+00:00</time></trkpt><trkpt lat="42.777374" lon="18.850115"><ele>683.2</ele><time>2012-05-02T06:10:42.0000000+00:00</time></trkpt><trkpt lat="42.777378" lon="18.850115"><ele>683.1</ele><time>2012-05-02T06:10:47.0000000+00:00</time></trkpt><trkpt lat="42.777374" lon="18.850115"><ele>683.1</ele><time>2012-05-02T06:10:52.0000000+00:00</time></trkpt><trkpt lat="42.777374" lon="18.850115"><ele>683.1</ele><time>2012-05-02T06:10:57.0000000+00:00</time></trkpt><trkpt lat="42.777374" lon="18.850117"><ele>683.1</ele><time>2012-05-02T06:11:02.0000000+00:00</time></trkpt><trkpt lat="42.777374" lon="18.850117"><ele>683.1</ele><time>2012-05-02T06:11:07.0000000+00:00</time></trkpt><trkpt lat="42.777374" lon="18.850117"><ele>683.2</ele><time>2012-05-02T06:11:12.0000000+00:00</time></trkpt><trkpt lat="42.777374" lon="18.850117"><ele>683.2</ele><time>2012-05-02T06:11:17.0000000+00:00</time></trkpt><trkpt lat="42.777374" lon="18.850117"><ele>683.2</ele><time>2012-05-02T06:11:22.0000000+00:00</time></trkpt><trkpt lat="42.777374" lon="18.850117"><ele>683.2</ele><time>2012-05-02T06:11:27.0000000+00:00</time></trkpt><trkpt lat="42.777374" lon="18.850117"><ele>683.2</ele><time>2012-05-02T06:11:32.0000000+00:00</time></trkpt><trkpt lat="42.777374" lon="18.850117"><ele>683.2</ele><time>2012-05-02T06:11:37.0000000+00:00</time></trkpt><trkpt lat="42.777374" lon="18.850117"><ele>683.2</ele><time>2012-05-02T06:11:42.0000000+00:00</time></trkpt><trkpt lat="42.777374" lon="18.850117"><ele>683.2</ele><time>2012-05-02T06:11:47.0000000+00:00</time></trkpt><trkpt lat="42.777374" lon="18.850119"><ele>683.2</ele><time>2012-05-02T06:11:52.0000000+00:00</time></trkpt><trkpt lat="42.777374" lon="18.850119"><ele>683.2</ele><time>2012-05-02T06:11:57.0000000+00:00</time></trkpt><trkpt lat="42.777374" lon="18.850119"><ele>683.3</ele><time>2012-05-02T06:12:02.0000000+00:00</time></trkpt><trkpt lat="42.777374" lon="18.850119"><ele>683.3</ele><time>2012-05-02T06:12:07.0000000+00:00</time></trkpt><trkpt lat="42.777374" lon="18.850119"><ele>683.3</ele><time>2012-05-02T06:12:12.0000000+00:00</time></trkpt><trkpt lat="42.777374" lon="18.850119"><ele>683.3</ele><time>2012-05-02T06:12:17.0000000+00:00</time></trkpt><trkpt lat="42.777378" lon="18.850119"><ele>683.3</ele><time>2012-05-02T06:12:22.0000000+00:00</time></trkpt><trkpt lat="42.777378" lon="18.850119"><ele>683.3</ele><time>2012-05-02T06:12:27.0000000+00:00</time></trkpt><trkpt lat="42.777378" lon="18.850119"><ele>683.3</ele><time>2012-05-02T06:12:32.0000000+00:00</time></trkpt><trkpt lat="42.777378" lon="18.850119"><ele>683.4</ele><time>2012-05-02T06:12:37.0000000+00:00</time></trkpt><trkpt lat="42.777378" lon="18.850119"><ele>683.4</ele><time>2012-05-02T06:12:42.0000000+00:00</time></trkpt><trkpt lat="42.777378" lon="18.850121"><ele>683.4</ele><time>2012-05-02T06:12:47.0000000+00:00</time></trkpt><trkpt lat="42.777378" lon="18.850121"><ele>683.4</ele><time>2012-05-02T06:12:52.0000000+00:00</time></trkpt><trkpt lat="42.777378" lon="18.850121"><ele>683.4</ele><time>2012-05-02T06:12:57.0000000+00:00</time></trkpt><trkpt lat="42.777378" lon="18.850121"><ele>683.4</ele><time>2012-05-02T06:13:02.0000000+00:00</time></trkpt><trkpt lat="42.777378" lon="18.850121"><ele>683.4</ele><time>2012-05-02T06:13:07.0000000+00:00</time></trkpt><trkpt lat="42.777378" lon="18.850121"><ele>683.4</ele><time>2012-05-02T06:13:12.0000000+00:00</time></trkpt><trkpt lat="42.777378" lon="18.850121"><ele>683.4</ele><time>2012-05-02T06:13:17.0000000+00:00</time></trkpt><trkpt lat="42.777378" lon="18.850121"><ele>683.4</ele><time>2012-05-02T06:13:22.0000000+00:00</time></trkpt><trkpt lat="42.777378" lon="18.850121"><ele>683.4</ele><time>2012-05-02T06:13:27.0000000+00:00</time></trkpt><trkpt lat="42.777378" lon="18.850121"><ele>683.4</ele><time>2012-05-02T06:13:32.0000000+00:00</time></trkpt><trkpt lat="42.777378" lon="18.850121"><ele>683.4</ele><time>2012-05-02T06:13:37.0000000+00:00</time></trkpt><trkpt lat="42.777378" lon="18.850121"><ele>683.4</ele><time>2012-05-02T06:13:42.0000000+00:00</time></trkpt><trkpt lat="42.777378" lon="18.850121"><ele>683.4</ele><time>2012-05-02T06:13:47.0000000+00:00</time></trkpt><trkpt lat="42.777378" lon="18.850121"><ele>683.4</ele><time>2012-05-02T06:13:52.0000000+00:00</time></trkpt><trkpt lat="42.777378" lon="18.850121"><ele>683.4</ele><time>2012-05-02T06:13:57.0000000+00:00</time></trkpt><trkpt lat="42.777378" lon="18.850121"><ele>683.4</ele><time>2012-05-02T06:14:02.0000000+00:00</time></trkpt><trkpt lat="42.777378" lon="18.850122"><ele>683.4</ele><time>2012-05-02T06:14:07.0000000+00:00</time></trkpt><trkpt lat="42.777378" lon="18.850122"><ele>683.4</ele><time>2012-05-02T06:14:12.0000000+00:00</time></trkpt><trkpt lat="42.777378" lon="18.850122"><ele>683.4</ele><time>2012-05-02T06:14:17.0000000+00:00</time></trkpt><trkpt lat="42.777378" lon="18.850122"><ele>683.4</ele><time>2012-05-02T06:14:22.0000000+00:00</time></trkpt><trkpt lat="42.777378" lon="18.850122"><ele>683.5</ele><time>2012-05-02T06:14:27.0000000+00:00</time></trkpt><trkpt lat="42.777374" lon="18.850113"><ele>683.5</ele><time>2012-05-02T06:14:32.0000000+00:00</time></trkpt><trkpt lat="42.777306" lon="18.85005"><ele>683.7</ele><time>2012-05-02T06:14:37.0000000+00:00</time></trkpt><trkpt lat="42.777119" lon="18.849728"><ele>685.2</ele><time>2012-05-02T06:14:42.0000000+00:00</time></trkpt><trkpt lat="42.776829" lon="18.849266"><ele>687.5</ele><time>2012-05-02T06:14:47.0000000+00:00</time></trkpt><trkpt lat="42.776424" lon="18.848698"><ele>690.5</ele><time>2012-05-02T06:14:52.0000000+00:00</time></trkpt><trkpt lat="42.775875" lon="18.848017"><ele>694.2</ele><time>2012-05-02T06:14:57.0000000+00:00</time></trkpt><trkpt lat="42.775284" lon="18.847334"><ele>697.6</ele><time>2012-05-02T06:15:02.0000000+00:00</time></trkpt><trkpt lat="42.774708" lon="18.846678"><ele>700.5</ele><time>2012-05-02T06:15:07.0000000+00:00</time></trkpt><trkpt lat="42.774151" lon="18.846027"><ele>703.4</ele><time>2012-05-02T06:15:12.0000000+00:00</time></trkpt><trkpt lat="42.773594" lon="18.845398"><ele>705.9</ele><time>2012-05-02T06:15:17.0000000+00:00</time></trkpt><trkpt lat="42.773109" lon="18.844782"><ele>707.6</ele><time>2012-05-02T06:15:22.0000000+00:00</time></trkpt><trkpt lat="42.7728" lon="18.843987"><ele>708.9</ele><time>2012-05-02T06:15:27.0000000+00:00</time></trkpt><trkpt lat="42.772736" lon="18.843004"><ele>710.3</ele><time>2012-05-02T06:15:32.0000000+00:00</time></trkpt><trkpt lat="42.772705" lon="18.841978"><ele>711.9</ele><time>2012-05-02T06:15:37.0000000+00:00</time></trkpt><trkpt lat="42.772381" lon="18.841032"><ele>714.2</ele><time>2012-05-02T06:15:42.0000000+00:00</time></trkpt><trkpt lat="42.771873" lon="18.84021"><ele>717.3</ele><time>2012-05-02T06:15:47.0000000+00:00</time></trkpt><trkpt lat="42.771511" lon="18.83934"><ele>721.0</ele><time>2012-05-02T06:15:52.0000000+00:00</time></trkpt><trkpt lat="42.771412" lon="18.838318"><ele>725.9</ele><time>2012-05-02T06:15:57.0000000+00:00</time></trkpt><trkpt lat="42.771248" lon="18.837414"><ele>731.5</ele><time>2012-05-02T06:16:02.0000000+00:00</time></trkpt><trkpt lat="42.770943" lon="18.836674"><ele>736.4</ele><time>2012-05-02T06:16:07.0000000+00:00</time></trkpt><trkpt lat="42.770454" lon="18.836067"><ele>741.2</ele><time>2012-05-02T06:16:12.0000000+00:00</time></trkpt><trkpt lat="42.769897" lon="18.835499"><ele>744.8</ele><time>2012-05-02T06:16:17.0000000+00:00</time></trkpt><trkpt lat="42.769569" lon="18.834715"><ele>749.0</ele><time>2012-05-02T06:16:22.0000000+00:00</time></trkpt><trkpt lat="42.769726" lon="18.833803"><ele>754.0</ele><time>2012-05-02T06:16:27.0000000+00:00</time></trkpt><trkpt lat="42.770142" lon="18.833008"><ele>758.9</ele><time>2012-05-02T06:16:32.0000000+00:00</time></trkpt><trkpt lat="42.770306" lon="18.83215"><ele>763.8</ele><time>2012-05-02T06:16:37.0000000+00:00</time></trkpt><trkpt lat="42.770035" lon="18.831261"><ele>768.7</ele><time>2012-05-02T06:16:42.0000000+00:00</time></trkpt><trkpt lat="42.769432" lon="18.83061"><ele>774.2</ele><time>2012-05-02T06:16:47.0000000+00:00</time></trkpt><trkpt lat="42.768795" lon="18.830103"><ele>778.5</ele><time>2012-05-02T06:16:52.0000000+00:00</time></trkpt><trkpt lat="42.768078" lon="18.829786"><ele>781.9</ele><time>2012-05-02T06:16:57.0000000+00:00</time></trkpt><trkpt lat="42.767284" lon="18.829536"><ele>784.9</ele><time>2012-05-02T06:17:02.0000000+00:00</time></trkpt><trkpt lat="42.766556" lon="18.8293"><ele>787.7</ele><time>2012-05-02T06:17:07.0000000+00:00</time></trkpt><trkpt lat="42.765919" lon="18.828846"><ele>790.8</ele><time>2012-05-02T06:17:12.0000000+00:00</time></trkpt><trkpt lat="42.765205" lon="18.828531"><ele>794.0</ele><time>2012-05-02T06:17:17.0000000+00:00</time></trkpt><trkpt lat="42.764439" lon="18.828188"><ele>797.2</ele><time>2012-05-02T06:17:22.0000000+00:00</time></trkpt><trkpt lat="42.763817" lon="18.827555"><ele>801.4</ele><time>2012-05-02T06:17:27.0000000+00:00</time></trkpt><trkpt lat="42.763367" lon="18.826775"><ele>806.0</ele><time>2012-05-02T06:17:32.0000000+00:00</time></trkpt><trkpt lat="42.762783" lon="18.826319"><ele>810.7</ele><time>2012-05-02T06:17:37.0000000+00:00</time></trkpt><trkpt lat="42.762241" lon="18.82588"><ele>814.8</ele><time>2012-05-02T06:17:42.0000000+00:00</time></trkpt><trkpt lat="42.761749" lon="18.825274"><ele>816.9</ele><time>2012-05-02T06:17:47.0000000+00:00</time></trkpt><trkpt lat="42.761127" lon="18.82477"><ele>819.7</ele><time>2012-05-02T06:17:52.0000000+00:00</time></trkpt><trkpt lat="42.760651" lon="18.824053"><ele>823.9</ele><time>2012-05-02T06:17:57.0000000+00:00</time></trkpt><trkpt lat="42.760063" lon="18.823603"><ele>829.0</ele><time>2012-05-02T06:18:02.0000000+00:00</time></trkpt><trkpt lat="42.759499" lon="18.823088"><ele>834.2</ele><time>2012-05-02T06:18:07.0000000+00:00</time></trkpt><trkpt lat="42.758911" lon="18.822424"><ele>837.8</ele><time>2012-05-02T06:18:12.0000000+00:00</time></trkpt><trkpt lat="42.758141" lon="18.821844"><ele>841.4</ele><time>2012-05-02T06:18:17.0000000+00:00</time></trkpt><trkpt lat="42.75737" lon="18.82139"><ele>846.5</ele><time>2012-05-02T06:18:22.0000000+00:00</time></trkpt><trkpt lat="42.756599" lon="18.82103"><ele>850.0</ele><time>2012-05-02T06:18:27.0000000+00:00</time></trkpt><trkpt lat="42.755898" lon="18.820566"><ele>852.1</ele><time>2012-05-02T06:18:32.0000000+00:00</time></trkpt><trkpt lat="42.755383" lon="18.819849"><ele>854.2</ele><time>2012-05-02T06:18:37.0000000+00:00</time></trkpt><trkpt lat="42.754967" lon="18.819147"><ele>857.1</ele><time>2012-05-02T06:18:42.0000000+00:00</time></trkpt><trkpt lat="42.754723" lon="18.818371"><ele>857.7</ele><time>2012-05-02T06:18:47.0000000+00:00</time></trkpt><trkpt lat="42.754616" lon="18.817432"><ele>858.0</ele><time>2012-05-02T06:18:52.0000000+00:00</time></trkpt><trkpt lat="42.754242" lon="18.816608"><ele>858.9</ele><time>2012-05-02T06:18:57.0000000+00:00</time></trkpt><trkpt lat="42.753948" lon="18.815756"><ele>858.2</ele><time>2012-05-02T06:19:02.0000000+00:00</time></trkpt><trkpt lat="42.753628" lon="18.815016"><ele>857.5</ele><time>2012-05-02T06:19:07.0000000+00:00</time></trkpt><trkpt lat="42.75309" lon="18.814577"><ele>857.0</ele><time>2012-05-02T06:19:12.0000000+00:00</time></trkpt><trkpt lat="42.752594" lon="18.814133"><ele>856.8</ele><time>2012-05-02T06:19:17.0000000+00:00</time></trkpt><trkpt lat="42.752403" lon="18.813404"><ele>856.5</ele><time>2012-05-02T06:19:22.0000000+00:00</time></trkpt><trkpt lat="42.752354" lon="18.812346"><ele>856.4</ele><time>2012-05-02T06:19:27.0000000+00:00</time></trkpt><trkpt lat="42.752323" lon="18.811247"><ele>857.8</ele><time>2012-05-02T06:19:32.0000000+00:00</time></trkpt><trkpt lat="42.752567" lon="18.810291"><ele>858.4</ele><time>2012-05-02T06:19:37.0000000+00:00</time></trkpt><trkpt lat="42.752987" lon="18.809454"><ele>858.3</ele><time>2012-05-02T06:19:42.0000000+00:00</time></trkpt><trkpt lat="42.753159" lon="18.80851"><ele>857.9</ele><time>2012-05-02T06:19:47.0000000+00:00</time></trkpt><trkpt lat="42.75317" lon="18.807531"><ele>858.2</ele><time>2012-05-02T06:19:52.0000000+00:00</time></trkpt><trkpt lat="42.753334" lon="18.80654"><ele>860.2</ele><time>2012-05-02T06:19:57.0000000+00:00</time></trkpt><trkpt lat="42.753384" lon="18.805674"><ele>859.9</ele><time>2012-05-02T06:20:02.0000000+00:00</time></trkpt><trkpt lat="42.753067" lon="18.805155"><ele>860.8</ele><time>2012-05-02T06:20:07.0000000+00:00</time></trkpt><trkpt lat="42.752586" lon="18.80463"><ele>862.5</ele><time>2012-05-02T06:20:12.0000000+00:00</time></trkpt><trkpt lat="42.752136" lon="18.803879"><ele>866.1</ele><time>2012-05-02T06:20:17.0000000+00:00</time></trkpt><trkpt lat="42.751545" lon="18.803322"><ele>869.6</ele><time>2012-05-02T06:20:22.0000000+00:00</time></trkpt><trkpt lat="42.751129" lon="18.802505"><ele>872.0</ele><time>2012-05-02T06:20:27.0000000+00:00</time></trkpt><trkpt lat="42.751038" lon="18.80155"><ele>869.9</ele><time>2012-05-02T06:20:32.0000000+00:00</time></trkpt><trkpt lat="42.751297" lon="18.800489"><ele>866.7</ele><time>2012-05-02T06:20:37.0000000+00:00</time></trkpt><trkpt lat="42.751465" lon="18.799475"><ele>864.7</ele><time>2012-05-02T06:20:42.0000000+00:00</time></trkpt><trkpt lat="42.751465" lon="18.798523"><ele>864.0</ele><time>2012-05-02T06:20:47.0000000+00:00</time></trkpt><trkpt lat="42.751682" lon="18.797533"><ele>863.4</ele><time>2012-05-02T06:20:52.0000000+00:00</time></trkpt><trkpt lat="42.751869" lon="18.796516"><ele>864.0</ele><time>2012-05-02T06:20:57.0000000+00:00</time></trkpt><trkpt lat="42.751938" lon="18.795479"><ele>863.3</ele><time>2012-05-02T06:21:02.0000000+00:00</time></trkpt><trkpt lat="42.751877" lon="18.794361"><ele>862.3</ele><time>2012-05-02T06:21:07.0000000+00:00</time></trkpt><trkpt lat="42.751751" lon="18.793158"><ele>861.8</ele><time>2012-05-02T06:21:12.0000000+00:00</time></trkpt><trkpt lat="42.751801" lon="18.791925"><ele>861.3</ele><time>2012-05-02T06:21:17.0000000+00:00</time></trkpt><trkpt lat="42.751846" lon="18.790726"><ele>858.8</ele><time>2012-05-02T06:21:22.0000000+00:00</time></trkpt><trkpt lat="42.751556" lon="18.789436"><ele>854.8</ele><time>2012-05-02T06:21:27.0000000+00:00</time></trkpt><trkpt lat="42.751213" lon="18.78816"><ele>852.4</ele><time>2012-05-02T06:21:32.0000000+00:00</time></trkpt><trkpt lat="42.750862" lon="18.786976"><ele>850.5</ele><time>2012-05-02T06:21:37.0000000+00:00</time></trkpt><trkpt lat="42.750225" lon="18.786098"><ele>848.1</ele><time>2012-05-02T06:21:42.0000000+00:00</time></trkpt><trkpt lat="42.749363" lon="18.785593"><ele>845.6</ele><time>2012-05-02T06:21:47.0000000+00:00</time></trkpt><trkpt lat="42.748558" lon="18.785151"><ele>844.0</ele><time>2012-05-02T06:21:52.0000000+00:00</time></trkpt><trkpt lat="42.748104" lon="18.784258"><ele>843.6</ele><time>2012-05-02T06:21:57.0000000+00:00</time></trkpt><trkpt lat="42.747658" lon="18.783247"><ele>843.0</ele><time>2012-05-02T06:22:02.0000000+00:00</time></trkpt><trkpt lat="42.747139" lon="18.782286"><ele>842.7</ele><time>2012-05-02T06:22:07.0000000+00:00</time></trkpt><trkpt lat="42.74659" lon="18.781399"><ele>841.8</ele><time>2012-05-02T06:22:12.0000000+00:00</time></trkpt><trkpt lat="42.745941" lon="18.780777"><ele>840.0</ele><time>2012-05-02T06:22:17.0000000+00:00</time></trkpt><trkpt lat="42.745274" lon="18.780359"><ele>839.4</ele><time>2012-05-02T06:22:22.0000000+00:00</time></trkpt><trkpt lat="42.744751" lon="18.7798"><ele>839.0</ele><time>2012-05-02T06:22:27.0000000+00:00</time></trkpt><trkpt lat="42.744373" lon="18.779022"><ele>838.3</ele><time>2012-05-02T06:22:32.0000000+00:00</time></trkpt><trkpt lat="42.743874" lon="18.778353"><ele>837.2</ele><time>2012-05-02T06:22:37.0000000+00:00</time></trkpt><trkpt lat="42.743229" lon="18.777748"><ele>834.9</ele><time>2012-05-02T06:22:42.0000000+00:00</time></trkpt><trkpt lat="42.742691" lon="18.776846"><ele>830.7</ele><time>2012-05-02T06:22:47.0000000+00:00</time></trkpt><trkpt lat="42.742439" lon="18.775675"><ele>826.3</ele><time>2012-05-02T06:22:52.0000000+00:00</time></trkpt><trkpt lat="42.742168" lon="18.774509"><ele>821.6</ele><time>2012-05-02T06:22:57.0000000+00:00</time></trkpt><trkpt lat="42.74181" lon="18.773397"><ele>817.1</ele><time>2012-05-02T06:23:02.0000000+00:00</time></trkpt><trkpt lat="42.741661" lon="18.772263"><ele>813.1</ele><time>2012-05-02T06:23:07.0000000+00:00</time></trkpt><trkpt lat="42.741619" lon="18.771166"><ele>809.2</ele><time>2012-05-02T06:23:12.0000000+00:00</time></trkpt><trkpt lat="42.741405" lon="18.770071"><ele>804.8</ele><time>2012-05-02T06:23:17.0000000+00:00</time></trkpt><trkpt lat="42.741016" lon="18.769041"><ele>800.1</ele><time>2012-05-02T06:23:22.0000000+00:00</time></trkpt><trkpt lat="42.74044" lon="18.768181"><ele>797.7</ele><time>2012-05-02T06:23:27.0000000+00:00</time></trkpt><trkpt lat="42.739788" lon="18.767441"><ele>797.0</ele><time>2012-05-02T06:23:32.0000000+00:00</time></trkpt><trkpt lat="42.739265" lon="18.766594"><ele>797.3</ele><time>2012-05-02T06:23:37.0000000+00:00</time></trkpt><trkpt lat="42.73896" lon="18.765524"><ele>797.9</ele><time>2012-05-02T06:23:42.0000000+00:00</time></trkpt><trkpt lat="42.738831" lon="18.764217"><ele>798.4</ele><time>2012-05-02T06:23:47.0000000+00:00</time></trkpt><trkpt lat="42.738522" lon="18.762802"><ele>800.7</ele><time>2012-05-02T06:23:52.0000000+00:00</time></trkpt><trkpt lat="42.738178" lon="18.761463"><ele>802.4</ele><time>2012-05-02T06:23:57.0000000+00:00</time></trkpt><trkpt lat="42.738106" lon="18.760242"><ele>803.1</ele><time>2012-05-02T06:24:02.0000000+00:00</time></trkpt><trkpt lat="42.738312" lon="18.759018"><ele>802.5</ele><time>2012-05-02T06:24:07.0000000+00:00</time></trkpt><trkpt lat="42.738819" lon="18.757967"><ele>803.2</ele><time>2012-05-02T06:24:12.0000000+00:00</time></trkpt><trkpt lat="42.739143" lon="18.756918"><ele>804.1</ele><time>2012-05-02T06:24:17.0000000+00:00</time></trkpt><trkpt lat="42.739109" lon="18.755817"><ele>805.4</ele><time>2012-05-02T06:24:22.0000000+00:00</time></trkpt><trkpt lat="42.739208" lon="18.754778"><ele>807.0</ele><time>2012-05-02T06:24:27.0000000+00:00</time></trkpt><trkpt lat="42.739567" lon="18.753809"><ele>806.6</ele><time>2012-05-02T06:24:32.0000000+00:00</time></trkpt><trkpt lat="42.740192" lon="18.75296"><ele>806.1</ele><time>2012-05-02T06:24:37.0000000+00:00</time></trkpt><trkpt lat="42.74073" lon="18.75219"><ele>806.4</ele><time>2012-05-02T06:24:42.0000000+00:00</time></trkpt><trkpt lat="42.740982" lon="18.751637"><ele>807.2</ele><time>2012-05-02T06:24:47.0000000+00:00</time></trkpt><trkpt lat="42.741367" lon="18.75108"><ele>808.6</ele><time>2012-05-02T06:24:52.0000000+00:00</time></trkpt><trkpt lat="42.742023" lon="18.750563"><ele>809.1</ele><time>2012-05-02T06:24:57.0000000+00:00</time></trkpt><trkpt lat="42.742676" lon="18.750149"><ele>809.3</ele><time>2012-05-02T06:25:02.0000000+00:00</time></trkpt><trkpt lat="42.743275" lon="18.74971"><ele>809.7</ele><time>2012-05-02T06:25:07.0000000+00:00</time></trkpt><trkpt lat="42.743706" lon="18.749027"><ele>809.9</ele><time>2012-05-02T06:25:12.0000000+00:00</time></trkpt><trkpt lat="42.744007" lon="18.748123"><ele>810.5</ele><time>2012-05-02T06:25:17.0000000+00:00</time></trkpt><trkpt lat="42.744286" lon="18.747145"><ele>809.7</ele><time>2012-05-02T06:25:22.0000000+00:00</time></trkpt><trkpt lat="42.744778" lon="18.746189"><ele>809.1</ele><time>2012-05-02T06:25:27.0000000+00:00</time></trkpt><trkpt lat="42.745544" lon="18.745304"><ele>809.3</ele><time>2012-05-02T06:25:32.0000000+00:00</time></trkpt><trkpt lat="42.746231" lon="18.744371"><ele>808.5</ele><time>2012-05-02T06:25:37.0000000+00:00</time></trkpt><trkpt lat="42.746647" lon="18.74317"><ele>808.3</ele><time>2012-05-02T06:25:42.0000000+00:00</time></trkpt><trkpt lat="42.746712" lon="18.741837"><ele>807.2</ele><time>2012-05-02T06:25:47.0000000+00:00</time></trkpt><trkpt lat="42.746536" lon="18.740473"><ele>803.9</ele><time>2012-05-02T06:25:52.0000000+00:00</time></trkpt><trkpt lat="42.746426" lon="18.739017"><ele>800.8</ele><time>2012-05-02T06:25:57.0000000+00:00</time></trkpt><trkpt lat="42.746433" lon="18.737513"><ele>798.1</ele><time>2012-05-02T06:26:02.0000000+00:00</time></trkpt><trkpt lat="42.746315" lon="18.736063"><ele>797.2</ele><time>2012-05-02T06:26:07.0000000+00:00</time></trkpt><trkpt lat="42.745926" lon="18.734711"><ele>796.3</ele><time>2012-05-02T06:26:12.0000000+00:00</time></trkpt><trkpt lat="42.745411" lon="18.733442"><ele>795.9</ele><time>2012-05-02T06:26:17.0000000+00:00</time></trkpt><trkpt lat="42.745113" lon="18.732281"><ele>796.3</ele><time>2012-05-02T06:26:22.0000000+00:00</time></trkpt><trkpt lat="42.745358" lon="18.731213"><ele>797.8</ele><time>2012-05-02T06:26:27.0000000+00:00</time></trkpt><trkpt lat="42.745842" lon="18.730278"><ele>800.4</ele><time>2012-05-02T06:26:32.0000000+00:00</time></trkpt><trkpt lat="42.745975" lon="18.729254"><ele>802.8</ele><time>2012-05-02T06:26:37.0000000+00:00</time></trkpt><trkpt lat="42.745728" lon="18.728134"><ele>804.6</ele><time>2012-05-02T06:26:42.0000000+00:00</time></trkpt><trkpt lat="42.745461" lon="18.727013"><ele>805.2</ele><time>2012-05-02T06:26:47.0000000+00:00</time></trkpt><trkpt lat="42.74548" lon="18.725794"><ele>807.2</ele><time>2012-05-02T06:26:52.0000000+00:00</time></trkpt><trkpt lat="42.745701" lon="18.724503"><ele>809.2</ele><time>2012-05-02T06:26:57.0000000+00:00</time></trkpt><trkpt lat="42.745598" lon="18.723282"><ele>810.2</ele><time>2012-05-02T06:27:02.0000000+00:00</time></trkpt><trkpt lat="42.745113" lon="18.722166"><ele>810.9</ele><time>2012-05-02T06:27:07.0000000+00:00</time></trkpt><trkpt lat="42.744625" lon="18.721115"><ele>811.4</ele><time>2012-05-02T06:27:12.0000000+00:00</time></trkpt><trkpt lat="42.744469" lon="18.719999"><ele>811.5</ele><time>2012-05-02T06:27:17.0000000+00:00</time></trkpt><trkpt lat="42.744549" lon="18.718876"><ele>812.9</ele><time>2012-05-02T06:27:22.0000000+00:00</time></trkpt><trkpt lat="42.74456" lon="18.717655"><ele>813.9</ele><time>2012-05-02T06:27:27.0000000+00:00</time></trkpt><trkpt lat="42.744457" lon="18.716322"><ele>814.6</ele><time>2012-05-02T06:27:32.0000000+00:00</time></trkpt><trkpt lat="42.744625" lon="18.714937"><ele>815.5</ele><time>2012-05-02T06:27:37.0000000+00:00</time></trkpt><trkpt lat="42.744877" lon="18.713512"><ele>816.7</ele><time>2012-05-02T06:27:42.0000000+00:00</time></trkpt><trkpt lat="42.744949" lon="18.712124"><ele>815.7</ele><time>2012-05-02T06:27:47.0000000+00:00</time></trkpt><trkpt lat="42.744827" lon="18.710808"><ele>815.4</ele><time>2012-05-02T06:27:52.0000000+00:00</time></trkpt><trkpt lat="42.744766" lon="18.709612"><ele>815.1</ele><time>2012-05-02T06:27:57.0000000+00:00</time></trkpt><trkpt lat="42.744854" lon="18.708536"><ele>815.2</ele><time>2012-05-02T06:28:02.0000000+00:00</time></trkpt><trkpt lat="42.745064" lon="18.707584"><ele>814.4</ele><time>2012-05-02T06:28:07.0000000+00:00</time></trkpt><trkpt lat="42.745327" lon="18.706642"><ele>814.7</ele><time>2012-05-02T06:28:12.0000000+00:00</time></trkpt><trkpt lat="42.745583" lon="18.705706"><ele>815.1</ele><time>2012-05-02T06:28:17.0000000+00:00</time></trkpt><trkpt lat="42.745842" lon="18.704763"><ele>815.6</ele><time>2012-05-02T06:28:22.0000000+00:00</time></trkpt><trkpt lat="42.746113" lon="18.703764"><ele>816.1</ele><time>2012-05-02T06:28:27.0000000+00:00</time></trkpt><trkpt lat="42.746372" lon="18.702782"><ele>816.6</ele><time>2012-05-02T06:28:32.0000000+00:00</time></trkpt><trkpt lat="42.746632" lon="18.701632"><ele>817.1</ele><time>2012-05-02T06:28:37.0000000+00:00</time></trkpt><trkpt lat="42.746761" lon="18.700275"><ele>817.3</ele><time>2012-05-02T06:28:42.0000000+00:00</time></trkpt><trkpt lat="42.746883" lon="18.698862"><ele>817.7</ele><time>2012-05-02T06:28:47.0000000+00:00</time></trkpt><trkpt lat="42.747173" lon="18.697533"><ele>817.0</ele><time>2012-05-02T06:28:52.0000000+00:00</time></trkpt><trkpt lat="42.747684" lon="18.696316"><ele>815.5</ele><time>2012-05-02T06:28:57.0000000+00:00</time></trkpt><trkpt lat="42.748314" lon="18.695169"><ele>813.5</ele><time>2012-05-02T06:29:02.0000000+00:00</time></trkpt><trkpt lat="42.748875" lon="18.693876"><ele>809.5</ele><time>2012-05-02T06:29:07.0000000+00:00</time></trkpt><trkpt lat="42.749226" lon="18.692375"><ele>807.5</ele><time>2012-05-02T06:29:12.0000000+00:00</time></trkpt><trkpt lat="42.749542" lon="18.690937"><ele>807.6</ele><time>2012-05-02T06:29:17.0000000+00:00</time></trkpt><trkpt lat="42.750061" lon="18.689598"><ele>810.0</ele><time>2012-05-02T06:29:22.0000000+00:00</time></trkpt><trkpt lat="42.750771" lon="18.688448"><ele>812.0</ele><time>2012-05-02T06:29:27.0000000+00:00</time></trkpt><trkpt lat="42.751572" lon="18.687334"><ele>813.1</ele><time>2012-05-02T06:29:32.0000000+00:00</time></trkpt><trkpt lat="42.752262" lon="18.686113"><ele>814.1</ele><time>2012-05-02T06:29:37.0000000+00:00</time></trkpt><trkpt lat="42.752796" lon="18.684696"><ele>814.8</ele><time>2012-05-02T06:29:42.0000000+00:00</time></trkpt><trkpt lat="42.753128" lon="18.683086"><ele>815.3</ele><time>2012-05-02T06:29:47.0000000+00:00</time></trkpt><trkpt lat="42.753231" lon="18.681389"><ele>814.5</ele><time>2012-05-02T06:29:52.0000000+00:00</time></trkpt><trkpt lat="42.7533" lon="18.679773"><ele>813.6</ele><time>2012-05-02T06:29:57.0000000+00:00</time></trkpt><trkpt lat="42.753574" lon="18.678152"><ele>812.6</ele><time>2012-05-02T06:30:02.0000000+00:00</time></trkpt><trkpt lat="42.754097" lon="18.676598"><ele>813.6</ele><time>2012-05-02T06:30:07.0000000+00:00</time></trkpt><trkpt lat="42.754559" lon="18.675049"><ele>817.4</ele><time>2012-05-02T06:30:12.0000000+00:00</time></trkpt><trkpt lat="42.754692" lon="18.673471"><ele>824.2</ele><time>2012-05-02T06:30:17.0000000+00:00</time></trkpt><trkpt lat="42.754559" lon="18.671852"><ele>830.1</ele><time>2012-05-02T06:30:22.0000000+00:00</time></trkpt><trkpt lat="42.754444" lon="18.670265"><ele>835.4</ele><time>2012-05-02T06:30:27.0000000+00:00</time></trkpt><trkpt lat="42.754574" lon="18.668688"><ele>840.6</ele><time>2012-05-02T06:30:32.0000000+00:00</time></trkpt><trkpt lat="42.754677" lon="18.667173"><ele>844.8</ele><time>2012-05-02T06:30:37.0000000+00:00</time></trkpt><trkpt lat="42.754364" lon="18.665827"><ele>846.6</ele><time>2012-05-02T06:30:42.0000000+00:00</time></trkpt><trkpt lat="42.753704" lon="18.664658"><ele>846.2</ele><time>2012-05-02T06:30:47.0000000+00:00</time></trkpt><trkpt lat="42.753201" lon="18.663342"><ele>846.0</ele><time>2012-05-02T06:30:52.0000000+00:00</time></trkpt><trkpt lat="42.752892" lon="18.66188"><ele>847.2</ele><time>2012-05-02T06:30:57.0000000+00:00</time></trkpt><trkpt lat="42.752365" lon="18.660538"><ele>848.3</ele><time>2012-05-02T06:31:02.0000000+00:00</time></trkpt><trkpt lat="42.751766" lon="18.659233"><ele>849.4</ele><time>2012-05-02T06:31:07.0000000+00:00</time></trkpt><trkpt lat="42.75132" lon="18.657923"><ele>850.1</ele><time>2012-05-02T06:31:12.0000000+00:00</time></trkpt><trkpt lat="42.751049" lon="18.656595"><ele>852.1</ele><time>2012-05-02T06:31:17.0000000+00:00</time></trkpt><trkpt lat="42.750942" lon="18.655313"><ele>855.4</ele><time>2012-05-02T06:31:22.0000000+00:00</time></trkpt><trkpt lat="42.750992" lon="18.654104"><ele>857.7</ele><time>2012-05-02T06:31:27.0000000+00:00</time></trkpt><trkpt lat="42.751102" lon="18.65296"><ele>858.4</ele><time>2012-05-02T06:31:32.0000000+00:00</time></trkpt><trkpt lat="42.751217" lon="18.651844"><ele>857.7</ele><time>2012-05-02T06:31:37.0000000+00:00</time></trkpt><trkpt lat="42.751221" lon="18.650743"><ele>856.0</ele><time>2012-05-02T06:31:42.0000000+00:00</time></trkpt><trkpt lat="42.751091" lon="18.649782"><ele>852.7</ele><time>2012-05-02T06:31:47.0000000+00:00</time></trkpt><trkpt lat="42.75098" lon="18.649237"><ele>850.1</ele><time>2012-05-02T06:31:52.0000000+00:00</time></trkpt><trkpt lat="42.750835" lon="18.64875"><ele>847.6</ele><time>2012-05-02T06:31:57.0000000+00:00</time></trkpt><trkpt lat="42.75053" lon="18.648003"><ele>844.8</ele><time>2012-05-02T06:32:02.0000000+00:00</time></trkpt><trkpt lat="42.749977" lon="18.64702"><ele>842.1</ele><time>2012-05-02T06:32:07.0000000+00:00</time></trkpt><trkpt lat="42.749214" lon="18.646194"><ele>839.8</ele><time>2012-05-02T06:32:12.0000000+00:00</time></trkpt><trkpt lat="42.748425" lon="18.645494"><ele>839.0</ele><time>2012-05-02T06:32:17.0000000+00:00</time></trkpt><trkpt lat="42.747627" lon="18.644804"><ele>838.8</ele><time>2012-05-02T06:32:22.0000000+00:00</time></trkpt><trkpt lat="42.746853" lon="18.644133"><ele>839.6</ele><time>2012-05-02T06:32:27.0000000+00:00</time></trkpt><trkpt lat="42.74609" lon="18.643452"><ele>839.3</ele><time>2012-05-02T06:32:32.0000000+00:00</time></trkpt><trkpt lat="42.745392" lon="18.64266"><ele>837.4</ele><time>2012-05-02T06:32:37.0000000+00:00</time></trkpt><trkpt lat="42.744801" lon="18.6416"><ele>833.3</ele><time>2012-05-02T06:32:42.0000000+00:00</time></trkpt><trkpt lat="42.744362" lon="18.640251"><ele>831.0</ele><time>2012-05-02T06:32:47.0000000+00:00</time></trkpt><trkpt lat="42.744133" lon="18.638723"><ele>832.5</ele><time>2012-05-02T06:32:52.0000000+00:00</time></trkpt><trkpt lat="42.743881" lon="18.637304"><ele>835.9</ele><time>2012-05-02T06:32:57.0000000+00:00</time></trkpt><trkpt lat="42.743393" lon="18.636028"><ele>839.2</ele><time>2012-05-02T06:33:02.0000000+00:00</time></trkpt><trkpt lat="42.742619" lon="18.63489"><ele>842.9</ele><time>2012-05-02T06:33:07.0000000+00:00</time></trkpt><trkpt lat="42.741745" lon="18.633774"><ele>846.1</ele><time>2012-05-02T06:33:12.0000000+00:00</time></trkpt><trkpt lat="42.740898" lon="18.63271"><ele>848.7</ele><time>2012-05-02T06:33:17.0000000+00:00</time></trkpt><trkpt lat="42.740128" lon="18.631735"><ele>849.0</ele><time>2012-05-02T06:33:22.0000000+00:00</time></trkpt><trkpt lat="42.739513" lon="18.630585"><ele>847.1</ele><time>2012-05-02T06:33:27.0000000+00:00</time></trkpt><trkpt lat="42.739204" lon="18.629173"><ele>844.1</ele><time>2012-05-02T06:33:32.0000000+00:00</time></trkpt><trkpt lat="42.739189" lon="18.627691"><ele>843.9</ele><time>2012-05-02T06:33:37.0000000+00:00</time></trkpt><trkpt lat="42.739498" lon="18.626226"><ele>844.0</ele><time>2012-05-02T06:33:42.0000000+00:00</time></trkpt><trkpt lat="42.739944" lon="18.624741"><ele>846.1</ele><time>2012-05-02T06:33:47.0000000+00:00</time></trkpt><trkpt lat="42.74033" lon="18.623287"><ele>850.6</ele><time>2012-05-02T06:33:52.0000000+00:00</time></trkpt><trkpt lat="42.740498" lon="18.62191"><ele>856.6</ele><time>2012-05-02T06:33:57.0000000+00:00</time></trkpt><trkpt lat="42.740368" lon="18.620575"><ele>862.8</ele><time>2012-05-02T06:34:02.0000000+00:00</time></trkpt><trkpt lat="42.740009" lon="18.619282"><ele>868.4</ele><time>2012-05-02T06:34:07.0000000+00:00</time></trkpt><trkpt lat="42.739632" lon="18.617996"><ele>873.5</ele><time>2012-05-02T06:34:12.0000000+00:00</time></trkpt><trkpt lat="42.739445" lon="18.616665"><ele>876.9</ele><time>2012-05-02T06:34:17.0000000+00:00</time></trkpt><trkpt lat="42.739529" lon="18.615259"><ele>879.8</ele><time>2012-05-02T06:34:22.0000000+00:00</time></trkpt><trkpt lat="42.739708" lon="18.613823"><ele>881.6</ele><time>2012-05-02T06:34:27.0000000+00:00</time></trkpt><trkpt lat="42.739681" lon="18.612274"><ele>882.4</ele><time>2012-05-02T06:34:32.0000000+00:00</time></trkpt><trkpt lat="42.739323" lon="18.610846"><ele>883.2</ele><time>2012-05-02T06:34:37.0000000+00:00</time></trkpt><trkpt lat="42.738659" lon="18.609644"><ele>884.3</ele><time>2012-05-02T06:34:42.0000000+00:00</time></trkpt><trkpt lat="42.737919" lon="18.608551"><ele>886.5</ele><time>2012-05-02T06:34:47.0000000+00:00</time></trkpt><trkpt lat="42.737457" lon="18.607252"><ele>889.5</ele><time>2012-05-02T06:34:52.0000000+00:00</time></trkpt><trkpt lat="42.737053" lon="18.605934"><ele>892.1</ele><time>2012-05-02T06:34:57.0000000+00:00</time></trkpt><trkpt lat="42.736366" lon="18.604935"><ele>893.7</ele><time>2012-05-02T06:35:02.0000000+00:00</time></trkpt><trkpt lat="42.735527" lon="18.604057"><ele>894.3</ele><time>2012-05-02T06:35:07.0000000+00:00</time></trkpt><trkpt lat="42.734882" lon="18.603041"><ele>892.9</ele><time>2012-05-02T06:35:12.0000000+00:00</time></trkpt><trkpt lat="42.734322" lon="18.602175"><ele>892.2</ele><time>2012-05-02T06:35:17.0000000+00:00</time></trkpt><trkpt lat="42.733784" lon="18.601692"><ele>891.9</ele><time>2012-05-02T06:35:22.0000000+00:00</time></trkpt><trkpt lat="42.733391" lon="18.601522"><ele>892.3</ele><time>2012-05-02T06:35:27.0000000+00:00</time></trkpt><trkpt lat="42.733208" lon="18.601875"><ele>890.3</ele><time>2012-05-02T06:35:32.0000000+00:00</time></trkpt><trkpt lat="42.732933" lon="18.602486"><ele>889.7</ele><time>2012-05-02T06:35:37.0000000+00:00</time></trkpt><trkpt lat="42.732376" lon="18.603132"><ele>894.7</ele><time>2012-05-02T06:35:42.0000000+00:00</time></trkpt><trkpt lat="42.731594" lon="18.60351"><ele>896.0</ele><time>2012-05-02T06:35:47.0000000+00:00</time></trkpt><trkpt lat="42.730824" lon="18.603817"><ele>896.3</ele><time>2012-05-02T06:35:52.0000000+00:00</time></trkpt><trkpt lat="42.730042" lon="18.604126"><ele>896.7</ele><time>2012-05-02T06:35:57.0000000+00:00</time></trkpt><trkpt lat="42.729336" lon="18.604637"><ele>897.1</ele><time>2012-05-02T06:36:02.0000000+00:00</time></trkpt><trkpt lat="42.728706" lon="18.605488"><ele>897.6</ele><time>2012-05-02T06:36:07.0000000+00:00</time></trkpt><trkpt lat="42.727898" lon="18.606194"><ele>902.0</ele><time>2012-05-02T06:36:12.0000000+00:00</time></trkpt><trkpt lat="42.726933" lon="18.606323"><ele>908.6</ele><time>2012-05-02T06:36:17.0000000+00:00</time></trkpt><trkpt lat="42.725983" lon="18.6061"><ele>915.3</ele><time>2012-05-02T06:36:22.0000000+00:00</time></trkpt><trkpt lat="42.725185" lon="18.605757"><ele>920.2</ele><time>2012-05-02T06:36:27.0000000+00:00</time></trkpt><trkpt lat="42.724602" lon="18.605017"><ele>925.4</ele><time>2012-05-02T06:36:32.0000000+00:00</time></trkpt><trkpt lat="42.723999" lon="18.604265"><ele>932.8</ele><time>2012-05-02T06:36:37.0000000+00:00</time></trkpt><trkpt lat="42.723194" lon="18.604073"><ele>938.1</ele><time>2012-05-02T06:36:42.0000000+00:00</time></trkpt><trkpt lat="42.722443" lon="18.604559"><ele>945.6</ele><time>2012-05-02T06:36:47.0000000+00:00</time></trkpt><trkpt lat="42.72187" lon="18.605375"><ele>950.1</ele><time>2012-05-02T06:36:52.0000000+00:00</time></trkpt><trkpt lat="42.721245" lon="18.605999"><ele>955.6</ele><time>2012-05-02T06:36:57.0000000+00:00</time></trkpt><trkpt lat="42.72052" lon="18.606014"><ele>960.9</ele><time>2012-05-02T06:37:02.0000000+00:00</time></trkpt><trkpt lat="42.719826" lon="18.605583"><ele>967.3</ele><time>2012-05-02T06:37:07.0000000+00:00</time></trkpt><trkpt lat="42.719063" lon="18.60545"><ele>972.3</ele><time>2012-05-02T06:37:12.0000000+00:00</time></trkpt><trkpt lat="42.718327" lon="18.60594"><ele>978.6</ele><time>2012-05-02T06:37:17.0000000+00:00</time></trkpt><trkpt lat="42.717552" lon="18.606476"><ele>984.2</ele><time>2012-05-02T06:37:22.0000000+00:00</time></trkpt><trkpt lat="42.716679" lon="18.606361"><ele>989.9</ele><time>2012-05-02T06:37:27.0000000+00:00</time></trkpt><trkpt lat="42.715847" lon="18.606493"><ele>996.1</ele><time>2012-05-02T06:37:32.0000000+00:00</time></trkpt><trkpt lat="42.715084" lon="18.607012"><ele>1001.9</ele><time>2012-05-02T06:37:37.0000000+00:00</time></trkpt><trkpt lat="42.714226" lon="18.60714"><ele>1007.5</ele><time>2012-05-02T06:37:42.0000000+00:00</time></trkpt><trkpt lat="42.713337" lon="18.607101"><ele>1011.7</ele><time>2012-05-02T06:37:47.0000000+00:00</time></trkpt><trkpt lat="42.712467" lon="18.607145"><ele>1013.1</ele><time>2012-05-02T06:37:52.0000000+00:00</time></trkpt><trkpt lat="42.711636" lon="18.607504"><ele>1014.9</ele><time>2012-05-02T06:37:57.0000000+00:00</time></trkpt><trkpt lat="42.710838" lon="18.608049"><ele>1017.0</ele><time>2012-05-02T06:38:02.0000000+00:00</time></trkpt><trkpt lat="42.710026" lon="18.608625"><ele>1018.6</ele><time>2012-05-02T06:38:07.0000000+00:00</time></trkpt><trkpt lat="42.709171" lon="18.609213"><ele>1020.8</ele><time>2012-05-02T06:38:12.0000000+00:00</time></trkpt><trkpt lat="42.708389" lon="18.609787"><ele>1021.7</ele><time>2012-05-02T06:38:17.0000000+00:00</time></trkpt><trkpt lat="42.707722" lon="18.610575"><ele>1020.3</ele><time>2012-05-02T06:38:22.0000000+00:00</time></trkpt><trkpt lat="42.707138" lon="18.611572"><ele>1018.3</ele><time>2012-05-02T06:38:27.0000000+00:00</time></trkpt><trkpt lat="42.70644" lon="18.612562"><ele>1016.4</ele><time>2012-05-02T06:38:32.0000000+00:00</time></trkpt><trkpt lat="42.705643" lon="18.613504"><ele>1017.6</ele><time>2012-05-02T06:38:37.0000000+00:00</time></trkpt><trkpt lat="42.70512" lon="18.614626"><ele>1017.5</ele><time>2012-05-02T06:38:42.0000000+00:00</time></trkpt><trkpt lat="42.704632" lon="18.61586"><ele>1016.2</ele><time>2012-05-02T06:38:47.0000000+00:00</time></trkpt><trkpt lat="42.703945" lon="18.61714"><ele>1012.2</ele><time>2012-05-02T06:38:52.0000000+00:00</time></trkpt><trkpt lat="42.70322" lon="18.618422"><ele>1008.4</ele><time>2012-05-02T06:38:57.0000000+00:00</time></trkpt><trkpt lat="42.702587" lon="18.619652"><ele>1007.1</ele><time>2012-05-02T06:39:02.0000000+00:00</time></trkpt><trkpt lat="42.702137" lon="18.620951"><ele>1006.6</ele><time>2012-05-02T06:39:07.0000000+00:00</time></trkpt><trkpt lat="42.70171" lon="18.622297"><ele>1006.7</ele><time>2012-05-02T06:39:12.0000000+00:00</time></trkpt><trkpt lat="42.701164" lon="18.623678"><ele>1006.9</ele><time>2012-05-02T06:39:17.0000000+00:00</time></trkpt><trkpt lat="42.700596" lon="18.625044"><ele>1008.6</ele><time>2012-05-02T06:39:22.0000000+00:00</time></trkpt><trkpt lat="42.700138" lon="18.626141"><ele>1011.3</ele><time>2012-05-02T06:39:27.0000000+00:00</time></trkpt><trkpt lat="42.699619" lon="18.626898"><ele>1013.5</ele><time>2012-05-02T06:39:32.0000000+00:00</time></trkpt><trkpt lat="42.698975" lon="18.62722"><ele>1013.8</ele><time>2012-05-02T06:39:37.0000000+00:00</time></trkpt><trkpt lat="42.698338" lon="18.627728"><ele>1012.9</ele><time>2012-05-02T06:39:42.0000000+00:00</time></trkpt><trkpt lat="42.697773" lon="18.628553"><ele>1011.2</ele><time>2012-05-02T06:39:47.0000000+00:00</time></trkpt><trkpt lat="42.697239" lon="18.629375"><ele>1011.0</ele><time>2012-05-02T06:39:52.0000000+00:00</time></trkpt><trkpt lat="42.697025" lon="18.63032"><ele>1011.2</ele><time>2012-05-02T06:39:57.0000000+00:00</time></trkpt><trkpt lat="42.696918" lon="18.631216"><ele>1011.5</ele><time>2012-05-02T06:40:02.0000000+00:00</time></trkpt><trkpt lat="42.696579" lon="18.63203"><ele>1011.3</ele><time>2012-05-02T06:40:07.0000000+00:00</time></trkpt><trkpt lat="42.696121" lon="18.632927"><ele>1009.4</ele><time>2012-05-02T06:40:12.0000000+00:00</time></trkpt><trkpt lat="42.695637" lon="18.633862"><ele>1006.1</ele><time>2012-05-02T06:40:17.0000000+00:00</time></trkpt><trkpt lat="42.695095" lon="18.63475"><ele>1003.3</ele><time>2012-05-02T06:40:22.0000000+00:00</time></trkpt><trkpt lat="42.694431" lon="18.635548"><ele>999.5</ele><time>2012-05-02T06:40:27.0000000+00:00</time></trkpt><trkpt lat="42.693657" lon="18.636187"><ele>995.7</ele><time>2012-05-02T06:40:32.0000000+00:00</time></trkpt><trkpt lat="42.692802" lon="18.636646"><ele>991.7</ele><time>2012-05-02T06:40:37.0000000+00:00</time></trkpt><trkpt lat="42.691898" lon="18.636894"><ele>987.5</ele><time>2012-05-02T06:40:42.0000000+00:00</time></trkpt><trkpt lat="42.690979" lon="18.636917"><ele>984.2</ele><time>2012-05-02T06:40:47.0000000+00:00</time></trkpt><trkpt lat="42.690075" lon="18.636715"><ele>982.7</ele><time>2012-05-02T06:40:52.0000000+00:00</time></trkpt><trkpt lat="42.689095" lon="18.636261"><ele>982.2</ele><time>2012-05-02T06:40:57.0000000+00:00</time></trkpt><trkpt lat="42.688057" lon="18.635672"><ele>983.7</ele><time>2012-05-02T06:41:02.0000000+00:00</time></trkpt><trkpt lat="42.687027" lon="18.635094"><ele>986.8</ele><time>2012-05-02T06:41:07.0000000+00:00</time></trkpt><trkpt lat="42.68602" lon="18.634527"><ele>990.3</ele><time>2012-05-02T06:41:12.0000000+00:00</time></trkpt><trkpt lat="42.685127" lon="18.634056"><ele>991.3</ele><time>2012-05-02T06:41:17.0000000+00:00</time></trkpt><trkpt lat="42.684269" lon="18.633814"><ele>990.5</ele><time>2012-05-02T06:41:22.0000000+00:00</time></trkpt><trkpt lat="42.683331" lon="18.633865"><ele>987.6</ele><time>2012-05-02T06:41:27.0000000+00:00</time></trkpt><trkpt lat="42.682358" lon="18.634228"><ele>982.3</ele><time>2012-05-02T06:41:32.0000000+00:00</time></trkpt><trkpt lat="42.681465" lon="18.634907"><ele>977.0</ele><time>2012-05-02T06:41:37.0000000+00:00</time></trkpt><trkpt lat="42.680706" lon="18.635897"><ele>971.4</ele><time>2012-05-02T06:41:42.0000000+00:00</time></trkpt><trkpt lat="42.680103" lon="18.637115"><ele>965.1</ele><time>2012-05-02T06:41:47.0000000+00:00</time></trkpt><trkpt lat="42.679523" lon="18.638393"><ele>958.6</ele><time>2012-05-02T06:41:52.0000000+00:00</time></trkpt><trkpt lat="42.678936" lon="18.639694"><ele>950.7</ele><time>2012-05-02T06:41:57.0000000+00:00</time></trkpt><trkpt lat="42.678291" lon="18.640945"><ele>942.7</ele><time>2012-05-02T06:42:02.0000000+00:00</time></trkpt><trkpt lat="42.677448" lon="18.642"><ele>934.7</ele><time>2012-05-02T06:42:07.0000000+00:00</time></trkpt><trkpt lat="42.676537" lon="18.643034"><ele>926.3</ele><time>2012-05-02T06:42:12.0000000+00:00</time></trkpt><trkpt lat="42.67564" lon="18.64406"><ele>917.0</ele><time>2012-05-02T06:42:17.0000000+00:00</time></trkpt><trkpt lat="42.674744" lon="18.64506"><ele>908.0</ele><time>2012-05-02T06:42:22.0000000+00:00</time></trkpt><trkpt lat="42.67374" lon="18.645765"><ele>898.8</ele><time>2012-05-02T06:42:27.0000000+00:00</time></trkpt><trkpt lat="42.672722" lon="18.646317"><ele>890.2</ele><time>2012-05-02T06:42:32.0000000+00:00</time></trkpt><trkpt lat="42.671814" lon="18.647104"><ele>881.5</ele><time>2012-05-02T06:42:37.0000000+00:00</time></trkpt><trkpt lat="42.671104" lon="18.648146"><ele>873.2</ele><time>2012-05-02T06:42:42.0000000+00:00</time></trkpt><trkpt lat="42.670498" lon="18.649292"><ele>865.9</ele><time>2012-05-02T06:42:47.0000000+00:00</time></trkpt><trkpt lat="42.669872" lon="18.650391"><ele>861.3</ele><time>2012-05-02T06:42:52.0000000+00:00</time></trkpt><trkpt lat="42.669312" lon="18.651506"><ele>859.3</ele><time>2012-05-02T06:42:57.0000000+00:00</time></trkpt><trkpt lat="42.668877" lon="18.652752"><ele>859.7</ele><time>2012-05-02T06:43:02.0000000+00:00</time></trkpt><trkpt lat="42.668556" lon="18.654146"><ele>862.9</ele><time>2012-05-02T06:43:07.0000000+00:00</time></trkpt><trkpt lat="42.668266" lon="18.655533"><ele>864.8</ele><time>2012-05-02T06:43:12.0000000+00:00</time></trkpt><trkpt lat="42.667915" lon="18.65694"><ele>864.4</ele><time>2012-05-02T06:43:17.0000000+00:00</time></trkpt><trkpt lat="42.66737" lon="18.658352"><ele>862.7</ele><time>2012-05-02T06:43:22.0000000+00:00</time></trkpt><trkpt lat="42.666653" lon="18.659628"><ele>856.8</ele><time>2012-05-02T06:43:27.0000000+00:00</time></trkpt><trkpt lat="42.665852" lon="18.660841"><ele>848.2</ele><time>2012-05-02T06:43:32.0000000+00:00</time></trkpt><trkpt lat="42.665035" lon="18.662056"><ele>837.1</ele><time>2012-05-02T06:43:37.0000000+00:00</time></trkpt><trkpt lat="42.664219" lon="18.663263"><ele>826.6</ele><time>2012-05-02T06:43:42.0000000+00:00</time></trkpt><trkpt lat="42.663303" lon="18.664373"><ele>815.8</ele><time>2012-05-02T06:43:47.0000000+00:00</time></trkpt><trkpt lat="42.662247" lon="18.665247"><ele>805.1</ele><time>2012-05-02T06:43:52.0000000+00:00</time></trkpt><trkpt lat="42.661095" lon="18.665823"><ele>793.9</ele><time>2012-05-02T06:43:57.0000000+00:00</time></trkpt><trkpt lat="42.659885" lon="18.66629"><ele>783.4</ele><time>2012-05-02T06:44:02.0000000+00:00</time></trkpt><trkpt lat="42.658718" lon="18.666794"><ele>773.0</ele><time>2012-05-02T06:44:07.0000000+00:00</time></trkpt><trkpt lat="42.657707" lon="18.66757"><ele>763.4</ele><time>2012-05-02T06:44:12.0000000+00:00</time></trkpt><trkpt lat="42.65686" lon="18.668709"><ele>753.2</ele><time>2012-05-02T06:44:17.0000000+00:00</time></trkpt><trkpt lat="42.656254" lon="18.670099"><ele>743.8</ele><time>2012-05-02T06:44:22.0000000+00:00</time></trkpt><trkpt lat="42.655884" lon="18.671671"><ele>733.2</ele><time>2012-05-02T06:44:27.0000000+00:00</time></trkpt><trkpt lat="42.655495" lon="18.67321"><ele>723.7</ele><time>2012-05-02T06:44:32.0000000+00:00</time></trkpt><trkpt lat="42.654907" lon="18.674658"><ele>714.3</ele><time>2012-05-02T06:44:37.0000000+00:00</time></trkpt><trkpt lat="42.654106" lon="18.675947"><ele>707.1</ele><time>2012-05-02T06:44:42.0000000+00:00</time></trkpt><trkpt lat="42.653149" lon="18.676977"><ele>703.6</ele><time>2012-05-02T06:44:47.0000000+00:00</time></trkpt><trkpt lat="42.652081" lon="18.677711"><ele>703.0</ele><time>2012-05-02T06:44:52.0000000+00:00</time></trkpt><trkpt lat="42.650944" lon="18.67819"><ele>702.4</ele><time>2012-05-02T06:44:57.0000000+00:00</time></trkpt><trkpt lat="42.649803" lon="18.678606"><ele>701.4</ele><time>2012-05-02T06:45:02.0000000+00:00</time></trkpt><trkpt lat="42.648708" lon="18.67901"><ele>701.1</ele><time>2012-05-02T06:45:07.0000000+00:00</time></trkpt><trkpt lat="42.647736" lon="18.679375"><ele>700.6</ele><time>2012-05-02T06:45:12.0000000+00:00</time></trkpt><trkpt lat="42.647011" lon="18.679806"><ele>700.9</ele><time>2012-05-02T06:45:17.0000000+00:00</time></trkpt><trkpt lat="42.646442" lon="18.680475"><ele>700.7</ele><time>2012-05-02T06:45:22.0000000+00:00</time></trkpt><trkpt lat="42.645943" lon="18.681297"><ele>700.3</ele><time>2012-05-02T06:45:27.0000000+00:00</time></trkpt><trkpt lat="42.64542" lon="18.682159"><ele>700.7</ele><time>2012-05-02T06:45:32.0000000+00:00</time></trkpt><trkpt lat="42.64484" lon="18.682993"><ele>700.7</ele><time>2012-05-02T06:45:37.0000000+00:00</time></trkpt><trkpt lat="42.644073" lon="18.683569"><ele>701.2</ele><time>2012-05-02T06:45:42.0000000+00:00</time></trkpt><trkpt lat="42.643204" lon="18.683737"><ele>700.7</ele><time>2012-05-02T06:45:47.0000000+00:00</time></trkpt><trkpt lat="42.6423" lon="18.683563"><ele>699.9</ele><time>2012-05-02T06:45:52.0000000+00:00</time></trkpt><trkpt lat="42.641403" lon="18.683453"><ele>699.8</ele><time>2012-05-02T06:45:57.0000000+00:00</time></trkpt><trkpt lat="42.640507" lon="18.683701"><ele>699.7</ele><time>2012-05-02T06:46:02.0000000+00:00</time></trkpt><trkpt lat="42.639614" lon="18.684053"><ele>699.3</ele><time>2012-05-02T06:46:07.0000000+00:00</time></trkpt><trkpt lat="42.638634" lon="18.684187"><ele>698.7</ele><time>2012-05-02T06:46:12.0000000+00:00</time></trkpt><trkpt lat="42.637665" lon="18.683893"><ele>698.0</ele><time>2012-05-02T06:46:17.0000000+00:00</time></trkpt><trkpt lat="42.63681" lon="18.683178"><ele>696.7</ele><time>2012-05-02T06:46:22.0000000+00:00</time></trkpt><trkpt lat="42.635979" lon="18.682211"><ele>695.1</ele><time>2012-05-02T06:46:27.0000000+00:00</time></trkpt><trkpt lat="42.635086" lon="18.681313"><ele>692.9</ele><time>2012-05-02T06:46:32.0000000+00:00</time></trkpt><trkpt lat="42.634068" lon="18.680754"><ele>689.5</ele><time>2012-05-02T06:46:37.0000000+00:00</time></trkpt><trkpt lat="42.632984" lon="18.680593"><ele>684.9</ele><time>2012-05-02T06:46:42.0000000+00:00</time></trkpt><trkpt lat="42.631901" lon="18.680834"><ele>679.6</ele><time>2012-05-02T06:46:47.0000000+00:00</time></trkpt><trkpt lat="42.630859" lon="18.68136"><ele>674.1</ele><time>2012-05-02T06:46:52.0000000+00:00</time></trkpt><trkpt lat="42.629818" lon="18.681881"><ele>668.3</ele><time>2012-05-02T06:46:57.0000000+00:00</time></trkpt><trkpt lat="42.628773" lon="18.681984"><ele>660.8</ele><time>2012-05-02T06:47:02.0000000+00:00</time></trkpt><trkpt lat="42.627785" lon="18.681561"><ele>653.2</ele><time>2012-05-02T06:47:07.0000000+00:00</time></trkpt><trkpt lat="42.626789" lon="18.681013"><ele>646.6</ele><time>2012-05-02T06:47:12.0000000+00:00</time></trkpt><trkpt lat="42.625702" lon="18.680786"><ele>638.3</ele><time>2012-05-02T06:47:17.0000000+00:00</time></trkpt><trkpt lat="42.624554" lon="18.680923"><ele>630.3</ele><time>2012-05-02T06:47:22.0000000+00:00</time></trkpt><trkpt lat="42.623352" lon="18.68115"><ele>625.1</ele><time>2012-05-02T06:47:27.0000000+00:00</time></trkpt><trkpt lat="42.622143" lon="18.681334"><ele>622.4</ele><time>2012-05-02T06:47:32.0000000+00:00</time></trkpt><trkpt lat="42.620987" lon="18.681471"><ele>622.6</ele><time>2012-05-02T06:47:37.0000000+00:00</time></trkpt><trkpt lat="42.619865" lon="18.681553"><ele>622.4</ele><time>2012-05-02T06:47:42.0000000+00:00</time></trkpt><trkpt lat="42.618729" lon="18.681612"><ele>622.4</ele><time>2012-05-02T06:47:47.0000000+00:00</time></trkpt><trkpt lat="42.617588" lon="18.681644"><ele>622.7</ele><time>2012-05-02T06:47:52.0000000+00:00</time></trkpt><trkpt lat="42.616447" lon="18.681681"><ele>623.0</ele><time>2012-05-02T06:47:57.0000000+00:00</time></trkpt><trkpt lat="42.615303" lon="18.68181"><ele>623.4</ele><time>2012-05-02T06:48:02.0000000+00:00</time></trkpt><trkpt lat="42.614159" lon="18.682079"><ele>623.5</ele><time>2012-05-02T06:48:07.0000000+00:00</time></trkpt><trkpt lat="42.613014" lon="18.682495"><ele>623.4</ele><time>2012-05-02T06:48:12.0000000+00:00</time></trkpt><trkpt lat="42.611885" lon="18.683043"><ele>623.5</ele><time>2012-05-02T06:48:17.0000000+00:00</time></trkpt><trkpt lat="42.610779" lon="18.683723"><ele>623.9</ele><time>2012-05-02T06:48:22.0000000+00:00</time></trkpt><trkpt lat="42.609711" lon="18.684517"><ele>624.0</ele><time>2012-05-02T06:48:27.0000000+00:00</time></trkpt><trkpt lat="42.608646" lon="18.685335"><ele>624.1</ele><time>2012-05-02T06:48:32.0000000+00:00</time></trkpt><trkpt lat="42.607578" lon="18.686159"><ele>624.5</ele><time>2012-05-02T06:48:37.0000000+00:00</time></trkpt><trkpt lat="42.606506" lon="18.686985"><ele>624.8</ele><time>2012-05-02T06:48:42.0000000+00:00</time></trkpt><trkpt lat="42.605423" lon="18.687777"><ele>625.1</ele><time>2012-05-02T06:48:47.0000000+00:00</time></trkpt><trkpt lat="42.604332" lon="18.688459"><ele>625.1</ele><time>2012-05-02T06:48:52.0000000+00:00</time></trkpt><trkpt lat="42.603233" lon="18.689037"><ele>625.4</ele><time>2012-05-02T06:48:57.0000000+00:00</time></trkpt><trkpt lat="42.602123" lon="18.689507"><ele>626.3</ele><time>2012-05-02T06:49:02.0000000+00:00</time></trkpt><trkpt lat="42.601006" lon="18.689873"><ele>627.1</ele><time>2012-05-02T06:49:07.0000000+00:00</time></trkpt><trkpt lat="42.599869" lon="18.690142"><ele>627.9</ele><time>2012-05-02T06:49:12.0000000+00:00</time></trkpt><trkpt lat="42.598717" lon="18.690311"><ele>628.7</ele><time>2012-05-02T06:49:17.0000000+00:00</time></trkpt><trkpt lat="42.597553" lon="18.690372"><ele>629.5</ele><time>2012-05-02T06:49:22.0000000+00:00</time></trkpt><trkpt lat="42.596382" lon="18.690344"><ele>629.9</ele><time>2012-05-02T06:49:27.0000000+00:00</time></trkpt><trkpt lat="42.595211" lon="18.690203"><ele>630.2</ele><time>2012-05-02T06:49:32.0000000+00:00</time></trkpt><trkpt lat="42.594044" lon="18.689951"><ele>631.0</ele><time>2012-05-02T06:49:37.0000000+00:00</time></trkpt><trkpt lat="42.592892" lon="18.689606"><ele>632.2</ele><time>2012-05-02T06:49:42.0000000+00:00</time></trkpt><trkpt lat="42.591763" lon="18.689161"><ele>633.3</ele><time>2012-05-02T06:49:47.0000000+00:00</time></trkpt><trkpt lat="42.59066" lon="18.688631"><ele>634.3</ele><time>2012-05-02T06:49:52.0000000+00:00</time></trkpt><trkpt lat="42.589581" lon="18.68803"><ele>634.8</ele><time>2012-05-02T06:49:57.0000000+00:00</time></trkpt><trkpt lat="42.588497" lon="18.68741"><ele>634.7</ele><time>2012-05-02T06:50:02.0000000+00:00</time></trkpt><trkpt lat="42.587391" lon="18.686806"><ele>634.0</ele><time>2012-05-02T06:50:07.0000000+00:00</time></trkpt><trkpt lat="42.586231" lon="18.686399"><ele>632.2</ele><time>2012-05-02T06:50:12.0000000+00:00</time></trkpt><trkpt lat="42.585033" lon="18.686272"><ele>629.7</ele><time>2012-05-02T06:50:17.0000000+00:00</time></trkpt><trkpt lat="42.583809" lon="18.68646"><ele>626.6</ele><time>2012-05-02T06:50:22.0000000+00:00</time></trkpt><trkpt lat="42.582626" lon="18.686823"><ele>623.4</ele><time>2012-05-02T06:50:27.0000000+00:00</time></trkpt><trkpt lat="42.581482" lon="18.68705"><ele>620.0</ele><time>2012-05-02T06:50:32.0000000+00:00</time></trkpt><trkpt lat="42.58033" lon="18.687052"><ele>616.7</ele><time>2012-05-02T06:50:37.0000000+00:00</time></trkpt><trkpt lat="42.579128" lon="18.686924"><ele>615.8</ele><time>2012-05-02T06:50:42.0000000+00:00</time></trkpt><trkpt lat="42.577953" lon="18.686993"><ele>618.1</ele><time>2012-05-02T06:50:47.0000000+00:00</time></trkpt><trkpt lat="42.57687" lon="18.687067"><ele>623.3</ele><time>2012-05-02T06:50:52.0000000+00:00</time></trkpt><trkpt lat="42.575871" lon="18.686806"><ele>629.2</ele><time>2012-05-02T06:50:57.0000000+00:00</time></trkpt><trkpt lat="42.574974" lon="18.686518"><ele>634.5</ele><time>2012-05-02T06:51:02.0000000+00:00</time></trkpt><trkpt lat="42.574074" lon="18.686642"><ele>639.9</ele><time>2012-05-02T06:51:07.0000000+00:00</time></trkpt><trkpt lat="42.573299" lon="18.687237"><ele>644.7</ele><time>2012-05-02T06:51:12.0000000+00:00</time></trkpt><trkpt lat="42.572697" lon="18.68804"><ele>649.3</ele><time>2012-05-02T06:51:17.0000000+00:00</time></trkpt><trkpt lat="42.57201" lon="18.68866"><ele>653.9</ele><time>2012-05-02T06:51:22.0000000+00:00</time></trkpt><trkpt lat="42.571205" lon="18.688917"><ele>657.3</ele><time>2012-05-02T06:51:27.0000000+00:00</time></trkpt><trkpt lat="42.57037" lon="18.689215"><ele>659.5</ele><time>2012-05-02T06:51:32.0000000+00:00</time></trkpt><trkpt lat="42.569557" lon="18.689804"><ele>660.4</ele><time>2012-05-02T06:51:37.0000000+00:00</time></trkpt><trkpt lat="42.56884" lon="18.69071"><ele>661.4</ele><time>2012-05-02T06:51:42.0000000+00:00</time></trkpt><trkpt lat="42.568329" lon="18.691833"><ele>661.4</ele><time>2012-05-02T06:51:47.0000000+00:00</time></trkpt><trkpt lat="42.567951" lon="18.692884"><ele>662.7</ele><time>2012-05-02T06:51:52.0000000+00:00</time></trkpt><trkpt lat="42.567265" lon="18.69384"><ele>661.7</ele><time>2012-05-02T06:51:58.0000000+00:00</time></trkpt><trkpt lat="42.566505" lon="18.694586"><ele>664.3</ele><time>2012-05-02T06:52:03.0000000+00:00</time></trkpt><trkpt lat="42.565945" lon="18.695465"><ele>663.8</ele><time>2012-05-02T06:52:08.0000000+00:00</time></trkpt><trkpt lat="42.565578" lon="18.696526"><ele>663.4</ele><time>2012-05-02T06:52:13.0000000+00:00</time></trkpt><trkpt lat="42.565174" lon="18.697556"><ele>664.8</ele><time>2012-05-02T06:52:18.0000000+00:00</time></trkpt><trkpt lat="42.564636" lon="18.698372"><ele>665.3</ele><time>2012-05-02T06:52:23.0000000+00:00</time></trkpt><trkpt lat="42.56435" lon="18.699318"><ele>666.7</ele><time>2012-05-02T06:52:28.0000000+00:00</time></trkpt><trkpt lat="42.564453" lon="18.700356"><ele>669.2</ele><time>2012-05-02T06:52:33.0000000+00:00</time></trkpt><trkpt lat="42.564976" lon="18.701105"><ele>668.9</ele><time>2012-05-02T06:52:38.0000000+00:00</time></trkpt><trkpt lat="42.565754" lon="18.70145"><ele>670.7</ele><time>2012-05-02T06:52:43.0000000+00:00</time></trkpt><trkpt lat="42.566498" lon="18.70183"><ele>671.4</ele><time>2012-05-02T06:52:48.0000000+00:00</time></trkpt><trkpt lat="42.566856" lon="18.702753"><ele>673.5</ele><time>2012-05-02T06:52:53.0000000+00:00</time></trkpt><trkpt lat="42.566673" lon="18.703825"><ele>673.6</ele><time>2012-05-02T06:52:58.0000000+00:00</time></trkpt><trkpt lat="42.566353" lon="18.70491"><ele>674.9</ele><time>2012-05-02T06:53:03.0000000+00:00</time></trkpt><trkpt lat="42.5662" lon="18.706112"><ele>679.1</ele><time>2012-05-02T06:53:08.0000000+00:00</time></trkpt><trkpt lat="42.565845" lon="18.707218"><ele>684.5</ele><time>2012-05-02T06:53:13.0000000+00:00</time></trkpt><trkpt lat="42.56522" lon="18.708166"><ele>688.8</ele><time>2012-05-02T06:53:18.0000000+00:00</time></trkpt><trkpt lat="42.564323" lon="18.708826"><ele>691.3</ele><time>2012-05-02T06:53:23.0000000+00:00</time></trkpt><trkpt lat="42.563274" lon="18.709042"><ele>691.4</ele><time>2012-05-02T06:53:28.0000000+00:00</time></trkpt><trkpt lat="42.562172" lon="18.708979"><ele>690.4</ele><time>2012-05-02T06:53:33.0000000+00:00</time></trkpt><trkpt lat="42.561081" lon="18.709181"><ele>689.9</ele><time>2012-05-02T06:53:38.0000000+00:00</time></trkpt><trkpt lat="42.560001" lon="18.709293"><ele>690.2</ele><time>2012-05-02T06:53:43.0000000+00:00</time></trkpt><trkpt lat="42.558846" lon="18.709234"><ele>690.3</ele><time>2012-05-02T06:53:48.0000000+00:00</time></trkpt><trkpt lat="42.557796" lon="18.709513"><ele>691.0</ele><time>2012-05-02T06:53:53.0000000+00:00</time></trkpt><trkpt lat="42.556877" lon="18.710161"><ele>691.5</ele><time>2012-05-02T06:53:58.0000000+00:00</time></trkpt><trkpt lat="42.556099" lon="18.711134"><ele>692.1</ele><time>2012-05-02T06:54:03.0000000+00:00</time></trkpt><trkpt lat="42.55534" lon="18.712069"><ele>692.9</ele><time>2012-05-02T06:54:08.0000000+00:00</time></trkpt><trkpt lat="42.55439" lon="18.712711"><ele>693.3</ele><time>2012-05-02T06:54:13.0000000+00:00</time></trkpt><trkpt lat="42.553318" lon="18.712976"><ele>693.7</ele><time>2012-05-02T06:54:18.0000000+00:00</time></trkpt><trkpt lat="42.552261" lon="18.71323"><ele>694.4</ele><time>2012-05-02T06:54:23.0000000+00:00</time></trkpt><trkpt lat="42.551292" lon="18.713697"><ele>694.7</ele><time>2012-05-02T06:54:28.0000000+00:00</time></trkpt><trkpt lat="42.550377" lon="18.713812"><ele>694.5</ele><time>2012-05-02T06:54:33.0000000+00:00</time></trkpt><trkpt lat="42.54953" lon="18.713524"><ele>691.9</ele><time>2012-05-02T06:54:38.0000000+00:00</time></trkpt><trkpt lat="42.548798" lon="18.712872"><ele>687.6</ele><time>2012-05-02T06:54:43.0000000+00:00</time></trkpt><trkpt lat="42.548042" lon="18.712101"><ele>685.4</ele><time>2012-05-02T06:54:48.0000000+00:00</time></trkpt><trkpt lat="42.547386" lon="18.711113"><ele>682.4</ele><time>2012-05-02T06:54:53.0000000+00:00</time></trkpt><trkpt lat="42.546547" lon="18.71035"><ele>674.3</ele><time>2012-05-02T06:54:58.0000000+00:00</time></trkpt><trkpt lat="42.546021" lon="18.709278"><ele>665.4</ele><time>2012-05-02T06:55:03.0000000+00:00</time></trkpt><trkpt lat="42.545765" lon="18.708014"><ele>657.0</ele><time>2012-05-02T06:55:08.0000000+00:00</time></trkpt><trkpt lat="42.545319" lon="18.706917"><ele>648.7</ele><time>2012-05-02T06:55:13.0000000+00:00</time></trkpt><trkpt lat="42.544895" lon="18.705795"><ele>640.2</ele><time>2012-05-02T06:55:18.0000000+00:00</time></trkpt><trkpt lat="42.544724" lon="18.7045"><ele>632.2</ele><time>2012-05-02T06:55:23.0000000+00:00</time></trkpt><trkpt lat="42.544346" lon="18.703281"><ele>624.3</ele><time>2012-05-02T06:55:28.0000000+00:00</time></trkpt><trkpt lat="42.543579" lon="18.702374"><ele>616.0</ele><time>2012-05-02T06:55:33.0000000+00:00</time></trkpt><trkpt lat="42.542564" lon="18.70191"><ele>608.3</ele><time>2012-05-02T06:55:38.0000000+00:00</time></trkpt><trkpt lat="42.541676" lon="18.701353"><ele>603.4</ele><time>2012-05-02T06:55:43.0000000+00:00</time></trkpt><trkpt lat="42.541054" lon="18.700487"><ele>598.3</ele><time>2012-05-02T06:55:48.0000000+00:00</time></trkpt><trkpt lat="42.540745" lon="18.697554"><ele>605.1</ele><time>2012-05-02T06:56:04.0000000+00:00</time></trkpt><trkpt lat="42.54089" lon="18.696775"><ele>594.6</ele><time>2012-05-02T06:56:09.0000000+00:00</time></trkpt><trkpt lat="42.541237" lon="18.695997"><ele>592.5</ele><time>2012-05-02T06:56:14.0000000+00:00</time></trkpt><trkpt lat="42.541561" lon="18.695124"><ele>588.4</ele><time>2012-05-02T06:56:19.0000000+00:00</time></trkpt><trkpt lat="42.541637" lon="18.694168"><ele>586.0</ele><time>2012-05-02T06:56:24.0000000+00:00</time></trkpt><trkpt lat="42.541447" lon="18.693239"><ele>585.4</ele><time>2012-05-02T06:56:29.0000000+00:00</time></trkpt><trkpt lat="42.540997" lon="18.692411"><ele>585.4</ele><time>2012-05-02T06:56:34.0000000+00:00</time></trkpt><trkpt lat="42.540569" lon="18.691504"><ele>585.9</ele><time>2012-05-02T06:56:39.0000000+00:00</time></trkpt><trkpt lat="42.540215" lon="18.690468"><ele>586.8</ele><time>2012-05-02T06:56:44.0000000+00:00</time></trkpt><trkpt lat="42.539604" lon="18.689753"><ele>586.1</ele><time>2012-05-02T06:56:49.0000000+00:00</time></trkpt><trkpt lat="42.53878" lon="18.689501"><ele>586.4</ele><time>2012-05-02T06:56:54.0000000+00:00</time></trkpt><trkpt lat="42.537926" lon="18.68926"><ele>584.0</ele><time>2012-05-02T06:56:59.0000000+00:00</time></trkpt><trkpt lat="42.537231" lon="18.688595"><ele>579.9</ele><time>2012-05-02T06:57:04.0000000+00:00</time></trkpt><trkpt lat="42.536846" lon="18.687616"><ele>574.4</ele><time>2012-05-02T06:57:09.0000000+00:00</time></trkpt><trkpt lat="42.536808" lon="18.686571"><ele>569.0</ele><time>2012-05-02T06:57:14.0000000+00:00</time></trkpt><trkpt lat="42.537025" lon="18.685623"><ele>565.4</ele><time>2012-05-02T06:57:19.0000000+00:00</time></trkpt><trkpt lat="42.537327" lon="18.684713"><ele>564.5</ele><time>2012-05-02T06:57:24.0000000+00:00</time></trkpt><trkpt lat="42.537624" lon="18.683832"><ele>564.7</ele><time>2012-05-02T06:57:29.0000000+00:00</time></trkpt><trkpt lat="42.537891" lon="18.682964"><ele>564.6</ele><time>2012-05-02T06:57:34.0000000+00:00</time></trkpt><trkpt lat="42.538052" lon="18.682079"><ele>564.3</ele><time>2012-05-02T06:57:39.0000000+00:00</time></trkpt><trkpt lat="42.538105" lon="18.681187"><ele>563.3</ele><time>2012-05-02T06:57:44.0000000+00:00</time></trkpt><trkpt lat="42.538185" lon="18.68026"><ele>561.4</ele><time>2012-05-02T06:57:49.0000000+00:00</time></trkpt><trkpt lat="42.538372" lon="18.679327"><ele>559.8</ele><time>2012-05-02T06:57:54.0000000+00:00</time></trkpt><trkpt lat="42.538586" lon="18.678427"><ele>557.2</ele><time>2012-05-02T06:57:59.0000000+00:00</time></trkpt><trkpt lat="42.538738" lon="18.677589"><ele>553.9</ele><time>2012-05-02T06:58:04.0000000+00:00</time></trkpt><trkpt lat="42.538612" lon="18.676756"><ele>550.6</ele><time>2012-05-02T06:58:09.0000000+00:00</time></trkpt><trkpt lat="42.538139" lon="18.676125"><ele>546.3</ele><time>2012-05-02T06:58:14.0000000+00:00</time></trkpt><trkpt lat="42.537457" lon="18.675983"><ele>541.8</ele><time>2012-05-02T06:58:19.0000000+00:00</time></trkpt><trkpt lat="42.536831" lon="18.676437"><ele>537.4</ele><time>2012-05-02T06:58:24.0000000+00:00</time></trkpt><trkpt lat="42.536541" lon="18.677338"><ele>532.8</ele><time>2012-05-02T06:58:29.0000000+00:00</time></trkpt><trkpt lat="42.536499" lon="18.678368"><ele>528.4</ele><time>2012-05-02T06:58:34.0000000+00:00</time></trkpt><trkpt lat="42.536293" lon="18.67934"><ele>521.1</ele><time>2012-05-02T06:58:39.0000000+00:00</time></trkpt><trkpt lat="42.535904" lon="18.680206"><ele>516.2</ele><time>2012-05-02T06:58:44.0000000+00:00</time></trkpt><trkpt lat="42.535526" lon="18.681049"><ele>512.3</ele><time>2012-05-02T06:58:49.0000000+00:00</time></trkpt><trkpt lat="42.535316" lon="18.682056"><ele>507.2</ele><time>2012-05-02T06:58:54.0000000+00:00</time></trkpt><trkpt lat="42.535267" lon="18.683132"><ele>499.9</ele><time>2012-05-02T06:58:59.0000000+00:00</time></trkpt><trkpt lat="42.535091" lon="18.684145"><ele>494.4</ele><time>2012-05-02T06:59:04.0000000+00:00</time></trkpt><trkpt lat="42.534649" lon="18.685022"><ele>491.7</ele><time>2012-05-02T06:59:09.0000000+00:00</time></trkpt><trkpt lat="42.534008" lon="18.685619"><ele>486.9</ele><time>2012-05-02T06:59:14.0000000+00:00</time></trkpt><trkpt lat="42.53323" lon="18.685854"><ele>481.7</ele><time>2012-05-02T06:59:19.0000000+00:00</time></trkpt><trkpt lat="42.532455" lon="18.685926"><ele>475.9</ele><time>2012-05-02T06:59:24.0000000+00:00</time></trkpt><trkpt lat="42.531704" lon="18.68622"><ele>469.3</ele><time>2012-05-02T06:59:29.0000000+00:00</time></trkpt><trkpt lat="42.530968" lon="18.686491"><ele>463.0</ele><time>2012-05-02T06:59:34.0000000+00:00</time></trkpt><trkpt lat="42.530254" lon="18.686422"><ele>456.5</ele><time>2012-05-02T06:59:39.0000000+00:00</time></trkpt><trkpt lat="42.52956" lon="18.686123"><ele>450.0</ele><time>2012-05-02T06:59:44.0000000+00:00</time></trkpt><trkpt lat="42.528828" lon="18.685877"><ele>445.3</ele><time>2012-05-02T06:59:49.0000000+00:00</time></trkpt><trkpt lat="42.528046" lon="18.685717"><ele>437.8</ele><time>2012-05-02T06:59:54.0000000+00:00</time></trkpt><trkpt lat="42.527264" lon="18.685472"><ele>430.5</ele><time>2012-05-02T06:59:59.0000000+00:00</time></trkpt><trkpt lat="42.526516" lon="18.685053"><ele>424.1</ele><time>2012-05-02T07:00:04.0000000+00:00</time></trkpt><trkpt lat="42.52578" lon="18.684805"><ele>417.6</ele><time>2012-05-02T07:00:09.0000000+00:00</time></trkpt><trkpt lat="42.525002" lon="18.684889"><ele>411.9</ele><time>2012-05-02T07:00:14.0000000+00:00</time></trkpt><trkpt lat="42.524197" lon="18.685102"><ele>405.8</ele><time>2012-05-02T07:00:19.0000000+00:00</time></trkpt><trkpt lat="42.523441" lon="18.685308"><ele>400.3</ele><time>2012-05-02T07:00:24.0000000+00:00</time></trkpt><trkpt lat="42.522758" lon="18.685352"><ele>394.1</ele><time>2012-05-02T07:00:29.0000000+00:00</time></trkpt><trkpt lat="42.522133" lon="18.685049"><ele>388.9</ele><time>2012-05-02T07:00:34.0000000+00:00</time></trkpt><trkpt lat="42.521664" lon="18.684387"><ele>383.6</ele><time>2012-05-02T07:00:39.0000000+00:00</time></trkpt><trkpt lat="42.521397" lon="18.68354"><ele>379.2</ele><time>2012-05-02T07:00:44.0000000+00:00</time></trkpt><trkpt lat="42.521061" lon="18.682831"><ele>374.1</ele><time>2012-05-02T07:00:49.0000000+00:00</time></trkpt><trkpt lat="42.5205" lon="18.682402"><ele>368.9</ele><time>2012-05-02T07:00:54.0000000+00:00</time></trkpt><trkpt lat="42.519962" lon="18.681868"><ele>363.5</ele><time>2012-05-02T07:00:59.0000000+00:00</time></trkpt><trkpt lat="42.519733" lon="18.680988"><ele>357.9</ele><time>2012-05-02T07:01:04.0000000+00:00</time></trkpt><trkpt lat="42.519848" lon="18.680016"><ele>352.5</ele><time>2012-05-02T07:01:09.0000000+00:00</time></trkpt><trkpt lat="42.519886" lon="18.679062"><ele>347.2</ele><time>2012-05-02T07:01:14.0000000+00:00</time></trkpt><trkpt lat="42.519646" lon="18.678154"><ele>341.6</ele><time>2012-05-02T07:01:19.0000000+00:00</time></trkpt><trkpt lat="42.519154" lon="18.677408"><ele>335.8</ele><time>2012-05-02T07:01:24.0000000+00:00</time></trkpt><trkpt lat="42.518581" lon="18.676683"><ele>329.5</ele><time>2012-05-02T07:01:29.0000000+00:00</time></trkpt><trkpt lat="42.517941" lon="18.67597"><ele>322.9</ele><time>2012-05-02T07:01:34.0000000+00:00</time></trkpt><trkpt lat="42.517162" lon="18.67547"><ele>316.5</ele><time>2012-05-02T07:01:39.0000000+00:00</time></trkpt><trkpt lat="42.516335" lon="18.675037"><ele>310.3</ele><time>2012-05-02T07:01:44.0000000+00:00</time></trkpt><trkpt lat="42.515491" lon="18.674601"><ele>304.5</ele><time>2012-05-02T07:01:49.0000000+00:00</time></trkpt><trkpt lat="42.514687" lon="18.674366"><ele>299.9</ele><time>2012-05-02T07:01:54.0000000+00:00</time></trkpt><trkpt lat="42.513905" lon="18.674269"><ele>296.3</ele><time>2012-05-02T07:01:59.0000000+00:00</time></trkpt><trkpt lat="42.513248" lon="18.673817"><ele>293.1</ele><time>2012-05-02T07:02:04.0000000+00:00</time></trkpt><trkpt lat="42.51263" lon="18.673214"><ele>290.3</ele><time>2012-05-02T07:02:09.0000000+00:00</time></trkpt><trkpt lat="42.51202" lon="18.672592"><ele>288.3</ele><time>2012-05-02T07:02:14.0000000+00:00</time></trkpt><trkpt lat="42.511456" lon="18.671879"><ele>287.2</ele><time>2012-05-02T07:02:19.0000000+00:00</time></trkpt><trkpt lat="42.510345" lon="18.66856"><ele>266.7</ele><time>2012-05-02T07:02:40.0000000+00:00</time></trkpt><trkpt lat="42.510063" lon="18.667574"><ele>276.2</ele><time>2012-05-02T07:02:45.0000000+00:00</time></trkpt><trkpt lat="42.509918" lon="18.666679"><ele>266.5</ele><time>2012-05-02T07:02:50.0000000+00:00</time></trkpt><trkpt lat="42.50967" lon="18.665918"><ele>258.0</ele><time>2012-05-02T07:02:55.0000000+00:00</time></trkpt><trkpt lat="42.509178" lon="18.665358"><ele>252.0</ele><time>2012-05-02T07:03:00.0000000+00:00</time></trkpt><trkpt lat="42.508545" lon="18.665009"><ele>249.1</ele><time>2012-05-02T07:03:05.0000000+00:00</time></trkpt><trkpt lat="42.507912" lon="18.664627"><ele>247.1</ele><time>2012-05-02T07:03:10.0000000+00:00</time></trkpt><trkpt lat="42.506195" lon="18.662329"><ele>235.4</ele><time>2012-05-02T07:03:29.0000000+00:00</time></trkpt><trkpt lat="42.505684" lon="18.661819"><ele>245.8</ele><time>2012-05-02T07:03:34.0000000+00:00</time></trkpt><trkpt lat="42.503525" lon="18.660027"><ele>239.0</ele><time>2012-05-02T07:03:53.0000000+00:00</time></trkpt><trkpt lat="42.503147" lon="18.659328"><ele>238.7</ele><time>2012-05-02T07:03:58.0000000+00:00</time></trkpt><trkpt lat="42.502117" lon="18.656368"><ele>221.1</ele><time>2012-05-02T07:04:15.0000000+00:00</time></trkpt><trkpt lat="42.501694" lon="18.65575"><ele>188.6</ele><time>2012-05-02T07:04:20.0000000+00:00</time></trkpt><trkpt lat="42.501068" lon="18.655209"><ele>185.7</ele><time>2012-05-02T07:04:25.0000000+00:00</time></trkpt><trkpt lat="42.500523" lon="18.654478"><ele>182.4</ele><time>2012-05-02T07:04:30.0000000+00:00</time></trkpt><trkpt lat="42.50005" lon="18.653627"><ele>178.5</ele><time>2012-05-02T07:04:35.0000000+00:00</time></trkpt><trkpt lat="42.499577" lon="18.652821"><ele>175.4</ele><time>2012-05-02T07:04:40.0000000+00:00</time></trkpt><trkpt lat="42.499027" lon="18.652262"><ele>170.8</ele><time>2012-05-02T07:04:45.0000000+00:00</time></trkpt><trkpt lat="42.498386" lon="18.651751"><ele>166.2</ele><time>2012-05-02T07:04:50.0000000+00:00</time></trkpt><trkpt lat="42.497688" lon="18.650951"><ele>160.2</ele><time>2012-05-02T07:04:55.0000000+00:00</time></trkpt><trkpt lat="42.497055" lon="18.650196"><ele>157.2</ele><time>2012-05-02T07:05:00.0000000+00:00</time></trkpt><trkpt lat="42.496456" lon="18.649521"><ele>153.3</ele><time>2012-05-02T07:05:05.0000000+00:00</time></trkpt><trkpt lat="42.495827" lon="18.649128"><ele>147.6</ele><time>2012-05-02T07:05:10.0000000+00:00</time></trkpt><trkpt lat="42.495289" lon="18.648743"><ele>142.0</ele><time>2012-05-02T07:05:15.0000000+00:00</time></trkpt><trkpt lat="42.494858" lon="18.64809"><ele>137.0</ele><time>2012-05-02T07:05:20.0000000+00:00</time></trkpt><trkpt lat="42.494453" lon="18.647331"><ele>131.4</ele><time>2012-05-02T07:05:25.0000000+00:00</time></trkpt><trkpt lat="42.494019" lon="18.646608"><ele>126.1</ele><time>2012-05-02T07:05:30.0000000+00:00</time></trkpt><trkpt lat="42.493385" lon="18.646133"><ele>120.9</ele><time>2012-05-02T07:05:35.0000000+00:00</time></trkpt><trkpt lat="42.492649" lon="18.645832"><ele>115.4</ele><time>2012-05-02T07:05:40.0000000+00:00</time></trkpt><trkpt lat="42.492016" lon="18.645388"><ele>110.7</ele><time>2012-05-02T07:05:45.0000000+00:00</time></trkpt><trkpt lat="42.491592" lon="18.644653"><ele>106.5</ele><time>2012-05-02T07:05:50.0000000+00:00</time></trkpt><trkpt lat="42.49131" lon="18.643826"><ele>102.3</ele><time>2012-05-02T07:05:55.0000000+00:00</time></trkpt><trkpt lat="42.491016" lon="18.643063"><ele>98.5</ele><time>2012-05-02T07:06:00.0000000+00:00</time></trkpt><trkpt lat="42.490612" lon="18.642567"><ele>95.5</ele><time>2012-05-02T07:06:05.0000000+00:00</time></trkpt><trkpt lat="42.490341" lon="18.642221"><ele>93.6</ele><time>2012-05-02T07:06:10.0000000+00:00</time></trkpt><trkpt lat="42.490192" lon="18.641945"><ele>92.8</ele><time>2012-05-02T07:06:15.0000000+00:00</time></trkpt><trkpt lat="42.489994" lon="18.642096"><ele>92.3</ele><time>2012-05-02T07:06:20.0000000+00:00</time></trkpt><trkpt lat="42.490276" lon="18.642559"><ele>88.9</ele><time>2012-05-02T07:06:25.0000000+00:00</time></trkpt><trkpt lat="42.490654" lon="18.643175"><ele>86.7</ele><time>2012-05-02T07:06:30.0000000+00:00</time></trkpt><trkpt lat="42.490948" lon="18.643906"><ele>83.3</ele><time>2012-05-02T07:06:35.0000000+00:00</time></trkpt><trkpt lat="42.490997" lon="18.644754"><ele>79.2</ele><time>2012-05-02T07:06:40.0000000+00:00</time></trkpt><trkpt lat="42.49091" lon="18.645561"><ele>75.2</ele><time>2012-05-02T07:06:45.0000000+00:00</time></trkpt><trkpt lat="42.490898" lon="18.646378"><ele>71.1</ele><time>2012-05-02T07:06:50.0000000+00:00</time></trkpt><trkpt lat="42.491196" lon="18.647099"><ele>67.2</ele><time>2012-05-02T07:06:55.0000000+00:00</time></trkpt><trkpt lat="42.491695" lon="18.647518"><ele>63.6</ele><time>2012-05-02T07:07:00.0000000+00:00</time></trkpt><trkpt lat="42.492203" lon="18.647877"><ele>59.7</ele><time>2012-05-02T07:07:05.0000000+00:00</time></trkpt><trkpt lat="42.492683" lon="18.64847"><ele>55.6</ele><time>2012-05-02T07:07:10.0000000+00:00</time></trkpt><trkpt lat="42.493336" lon="18.649363"><ele>48.2</ele><time>2012-05-02T07:07:15.0000000+00:00</time></trkpt><trkpt lat="42.494007" lon="18.650297"><ele>39.9</ele><time>2012-05-02T07:07:20.0000000+00:00</time></trkpt><trkpt lat="42.494518" lon="18.651314"><ele>32.7</ele><time>2012-05-02T07:07:25.0000000+00:00</time></trkpt><trkpt lat="42.495007" lon="18.652182"><ele>26.3</ele><time>2012-05-02T07:07:30.0000000+00:00</time></trkpt><trkpt lat="42.495243" lon="18.653048"><ele>20.2</ele><time>2012-05-02T07:07:35.0000000+00:00</time></trkpt><trkpt lat="42.495373" lon="18.653778"><ele>15.4</ele><time>2012-05-02T07:07:40.0000000+00:00</time></trkpt><trkpt lat="42.495651" lon="18.654373"><ele>12.3</ele><time>2012-05-02T07:07:45.0000000+00:00</time></trkpt><trkpt lat="42.495625" lon="18.654644"><ele>12.3</ele><time>2012-05-02T07:07:50.0000000+00:00</time></trkpt><trkpt lat="42.495335" lon="18.654369"><ele>12.5</ele><time>2012-05-02T07:07:55.0000000+00:00</time></trkpt><trkpt lat="42.495163" lon="18.653723"><ele>13.0</ele><time>2012-05-02T07:08:00.0000000+00:00</time></trkpt><trkpt lat="42.495022" lon="18.652939"><ele>12.9</ele><time>2012-05-02T07:08:05.0000000+00:00</time></trkpt><trkpt lat="42.49474" lon="18.652187"><ele>13.4</ele><time>2012-05-02T07:08:10.0000000+00:00</time></trkpt><trkpt lat="42.494335" lon="18.651703"><ele>13.9</ele><time>2012-05-02T07:08:15.0000000+00:00</time></trkpt><trkpt lat="42.49382" lon="18.651766"><ele>13.6</ele><time>2012-05-02T07:08:20.0000000+00:00</time></trkpt><trkpt lat="42.493343" lon="18.651564"><ele>13.3</ele><time>2012-05-02T07:08:25.0000000+00:00</time></trkpt><trkpt lat="42.492912" lon="18.651035"><ele>12.6</ele><time>2012-05-02T07:08:30.0000000+00:00</time></trkpt><trkpt lat="42.49239" lon="18.650536"><ele>12.6</ele><time>2012-05-02T07:08:35.0000000+00:00</time></trkpt><trkpt lat="42.491898" lon="18.650137"><ele>12.8</ele><time>2012-05-02T07:08:40.0000000+00:00</time></trkpt><trkpt lat="42.491394" lon="18.650202"><ele>13.4</ele><time>2012-05-02T07:08:45.0000000+00:00</time></trkpt><trkpt lat="42.490879" lon="18.65019"><ele>13.7</ele><time>2012-05-02T07:08:50.0000000+00:00</time></trkpt><trkpt lat="42.490414" lon="18.649742"><ele>15.0</ele><time>2012-05-02T07:08:55.0000000+00:00</time></trkpt><trkpt lat="42.489994" lon="18.649162"><ele>14.5</ele><time>2012-05-02T07:09:00.0000000+00:00</time></trkpt><trkpt lat="42.489456" lon="18.648947"><ele>14.1</ele><time>2012-05-02T07:09:05.0000000+00:00</time></trkpt><trkpt lat="42.48896" lon="18.649315"><ele>13.9</ele><time>2012-05-02T07:09:10.0000000+00:00</time></trkpt><trkpt lat="42.488636" lon="18.649992"><ele>13.0</ele><time>2012-05-02T07:09:15.0000000+00:00</time></trkpt><trkpt lat="42.488213" lon="18.6507"><ele>12.5</ele><time>2012-05-02T07:09:20.0000000+00:00</time></trkpt><trkpt lat="42.487679" lon="18.651243"><ele>13.0</ele><time>2012-05-02T07:09:25.0000000+00:00</time></trkpt><trkpt lat="42.487293" lon="18.651566"><ele>13.1</ele><time>2012-05-02T07:09:30.0000000+00:00</time></trkpt><trkpt lat="42.487267" lon="18.651598"><ele>13.0</ele><time>2012-05-02T07:09:35.0000000+00:00</time></trkpt><trkpt lat="42.487267" lon="18.651598"><ele>12.9</ele><time>2012-05-02T07:09:40.0000000+00:00</time></trkpt><trkpt lat="42.487148" lon="18.651741"><ele>13.2</ele><time>2012-05-02T07:09:45.0000000+00:00</time></trkpt><trkpt lat="42.486984" lon="18.652077"><ele>13.7</ele><time>2012-05-02T07:09:50.0000000+00:00</time></trkpt><trkpt lat="42.487034" lon="18.652554"><ele>13.6</ele><time>2012-05-02T07:09:55.0000000+00:00</time></trkpt><trkpt lat="42.487091" lon="18.653036"><ele>13.9</ele><time>2012-05-02T07:10:00.0000000+00:00</time></trkpt><trkpt lat="42.487106" lon="18.653625"><ele>14.5</ele><time>2012-05-02T07:10:05.0000000+00:00</time></trkpt><trkpt lat="42.487103" lon="18.654245"><ele>15.3</ele><time>2012-05-02T07:10:10.0000000+00:00</time></trkpt><trkpt lat="42.487061" lon="18.654936"><ele>15.7</ele><time>2012-05-02T07:10:15.0000000+00:00</time></trkpt><trkpt lat="42.48695" lon="18.655891"><ele>15.6</ele><time>2012-05-02T07:10:20.0000000+00:00</time></trkpt><trkpt lat="42.486885" lon="18.656841"><ele>15.7</ele><time>2012-05-02T07:10:25.0000000+00:00</time></trkpt><trkpt lat="42.48708" lon="18.657755"><ele>15.1</ele><time>2012-05-02T07:10:30.0000000+00:00</time></trkpt><trkpt lat="42.487106" lon="18.658604"><ele>15.0</ele><time>2012-05-02T07:10:35.0000000+00:00</time></trkpt><trkpt lat="42.486881" lon="18.659435"><ele>15.3</ele><time>2012-05-02T07:10:40.0000000+00:00</time></trkpt><trkpt lat="42.486988" lon="18.66029"><ele>15.0</ele><time>2012-05-02T07:10:45.0000000+00:00</time></trkpt><trkpt lat="42.487217" lon="18.66111"><ele>15.1</ele><time>2012-05-02T07:10:50.0000000+00:00</time></trkpt><trkpt lat="42.487232" lon="18.662024"><ele>14.9</ele><time>2012-05-02T07:10:55.0000000+00:00</time></trkpt><trkpt lat="42.486984" lon="18.662945"><ele>14.6</ele><time>2012-05-02T07:11:00.0000000+00:00</time></trkpt><trkpt lat="42.486813" lon="18.663879"><ele>13.3</ele><time>2012-05-02T07:11:05.0000000+00:00</time></trkpt><trkpt lat="42.486618" lon="18.664703"><ele>12.8</ele><time>2012-05-02T07:11:10.0000000+00:00</time></trkpt><trkpt lat="42.486362" lon="18.665428"><ele>12.5</ele><time>2012-05-02T07:11:15.0000000+00:00</time></trkpt><trkpt lat="42.486397" lon="18.666122"><ele>12.8</ele><time>2012-05-02T07:11:20.0000000+00:00</time></trkpt><trkpt lat="42.486465" lon="18.666819"><ele>12.4</ele><time>2012-05-02T07:11:25.0000000+00:00</time></trkpt><trkpt lat="42.486313" lon="18.667576"><ele>12.8</ele><time>2012-05-02T07:11:30.0000000+00:00</time></trkpt><trkpt lat="42.485989" lon="18.66824"><ele>12.6</ele><time>2012-05-02T07:11:35.0000000+00:00</time></trkpt><trkpt lat="42.485603" lon="18.668892"><ele>12.3</ele><time>2012-05-02T07:11:40.0000000+00:00</time></trkpt><trkpt lat="42.485279" lon="18.669685"><ele>12.2</ele><time>2012-05-02T07:11:45.0000000+00:00</time></trkpt><trkpt lat="42.484959" lon="18.670485"><ele>12.1</ele><time>2012-05-02T07:11:50.0000000+00:00</time></trkpt><trkpt lat="42.484669" lon="18.67135"><ele>11.8</ele><time>2012-05-02T07:11:55.0000000+00:00</time></trkpt><trkpt lat="42.48455" lon="18.672359"><ele>11.6</ele><time>2012-05-02T07:12:00.0000000+00:00</time></trkpt><trkpt lat="42.484501" lon="18.673323"><ele>12.3</ele><time>2012-05-02T07:12:05.0000000+00:00</time></trkpt><trkpt lat="42.484295" lon="18.674185"><ele>13.4</ele><time>2012-05-02T07:12:10.0000000+00:00</time></trkpt><trkpt lat="42.483906" lon="18.674969"><ele>14.7</ele><time>2012-05-02T07:12:15.0000000+00:00</time></trkpt><trkpt lat="42.483498" lon="18.675718"><ele>15.7</ele><time>2012-05-02T07:12:20.0000000+00:00</time></trkpt><trkpt lat="42.483196" lon="18.67655"><ele>16.4</ele><time>2012-05-02T07:12:25.0000000+00:00</time></trkpt><trkpt lat="42.482948" lon="18.677402"><ele>15.7</ele><time>2012-05-02T07:12:30.0000000+00:00</time></trkpt><trkpt lat="42.482609" lon="18.678305"><ele>15.7</ele><time>2012-05-02T07:12:35.0000000+00:00</time></trkpt><trkpt lat="42.482201" lon="18.679205"><ele>17.0</ele><time>2012-05-02T07:12:40.0000000+00:00</time></trkpt><trkpt lat="42.481815" lon="18.680069"><ele>18.0</ele><time>2012-05-02T07:12:45.0000000+00:00</time></trkpt><trkpt lat="42.481453" lon="18.680998"><ele>18.2</ele><time>2012-05-02T07:12:50.0000000+00:00</time></trkpt><trkpt lat="42.481106" lon="18.681942"><ele>18.3</ele><time>2012-05-02T07:12:55.0000000+00:00</time></trkpt><trkpt lat="42.480721" lon="18.682905"><ele>19.2</ele><time>2012-05-02T07:13:00.0000000+00:00</time></trkpt><trkpt lat="42.480331" lon="18.683886"><ele>19.7</ele><time>2012-05-02T07:13:05.0000000+00:00</time></trkpt><trkpt lat="42.47995" lon="18.684866"><ele>19.8</ele><time>2012-05-02T07:13:10.0000000+00:00</time></trkpt><trkpt lat="42.479523" lon="18.68574"><ele>19.8</ele><time>2012-05-02T07:13:15.0000000+00:00</time></trkpt><trkpt lat="42.479008" lon="18.686308"><ele>19.0</ele><time>2012-05-02T07:13:20.0000000+00:00</time></trkpt><trkpt lat="42.478531" lon="18.686338"><ele>18.8</ele><time>2012-05-02T07:13:25.0000000+00:00</time></trkpt><trkpt lat="42.478264" lon="18.685818"><ele>19.9</ele><time>2012-05-02T07:13:30.0000000+00:00</time></trkpt><trkpt lat="42.477898" lon="18.685383"><ele>19.4</ele><time>2012-05-02T07:13:35.0000000+00:00</time></trkpt><trkpt lat="42.477592" lon="18.68475"><ele>18.9</ele><time>2012-05-02T07:13:40.0000000+00:00</time></trkpt><trkpt lat="42.47715" lon="18.684055"><ele>18.7</ele><time>2012-05-02T07:13:45.0000000+00:00</time></trkpt><trkpt lat="42.476582" lon="18.683779"><ele>17.8</ele><time>2012-05-02T07:13:50.0000000+00:00</time></trkpt><trkpt lat="42.476101" lon="18.683765"><ele>15.7</ele><time>2012-05-02T07:13:55.0000000+00:00</time></trkpt><trkpt lat="42.475727" lon="18.683359"><ele>13.9</ele><time>2012-05-02T07:14:00.0000000+00:00</time></trkpt><trkpt lat="42.475281" lon="18.682972"><ele>11.7</ele><time>2012-05-02T07:14:05.0000000+00:00</time></trkpt><trkpt lat="42.474834" lon="18.68247"><ele>9.7</ele><time>2012-05-02T07:14:10.0000000+00:00</time></trkpt><trkpt lat="42.474407" lon="18.681889"><ele>9.0</ele><time>2012-05-02T07:14:15.0000000+00:00</time></trkpt><trkpt lat="42.473999" lon="18.681303"><ele>9.3</ele><time>2012-05-02T07:14:20.0000000+00:00</time></trkpt><trkpt lat="42.473537" lon="18.680807"><ele>9.1</ele><time>2012-05-02T07:14:25.0000000+00:00</time></trkpt><trkpt lat="42.472961" lon="18.680536"><ele>9.0</ele><time>2012-05-02T07:14:30.0000000+00:00</time></trkpt><trkpt lat="42.472378" lon="18.680496"><ele>8.8</ele><time>2012-05-02T07:14:35.0000000+00:00</time></trkpt><trkpt lat="42.471821" lon="18.680525"><ele>8.8</ele><time>2012-05-02T07:14:40.0000000+00:00</time></trkpt><trkpt lat="42.471298" lon="18.680296"><ele>8.7</ele><time>2012-05-02T07:14:45.0000000+00:00</time></trkpt><trkpt lat="42.47097" lon="18.67968"><ele>9.8</ele><time>2012-05-02T07:14:50.0000000+00:00</time></trkpt><trkpt lat="42.470795" lon="18.678913"><ele>11.4</ele><time>2012-05-02T07:14:55.0000000+00:00</time></trkpt><trkpt lat="42.470604" lon="18.678135"><ele>11.1</ele><time>2012-05-02T07:15:00.0000000+00:00</time></trkpt><trkpt lat="42.470215" lon="18.677574"><ele>10.3</ele><time>2012-05-02T07:15:05.0000000+00:00</time></trkpt><trkpt lat="42.469673" lon="18.677193"><ele>9.3</ele><time>2012-05-02T07:15:10.0000000+00:00</time></trkpt><trkpt lat="42.469193" lon="18.67671"><ele>8.2</ele><time>2012-05-02T07:15:15.0000000+00:00</time></trkpt><trkpt lat="42.468895" lon="18.676054"><ele>7.5</ele><time>2012-05-02T07:15:20.0000000+00:00</time></trkpt><trkpt lat="42.468456" lon="18.675543"><ele>7.1</ele><time>2012-05-02T07:15:25.0000000+00:00</time></trkpt><trkpt lat="42.467926" lon="18.675468"><ele>7.7</ele><time>2012-05-02T07:15:30.0000000+00:00</time></trkpt><trkpt lat="42.467484" lon="18.675344"><ele>8.1</ele><time>2012-05-02T07:15:35.0000000+00:00</time></trkpt><trkpt lat="42.467175" lon="18.674913"><ele>7.2</ele><time>2012-05-02T07:15:40.0000000+00:00</time></trkpt><trkpt lat="42.466942" lon="18.674421"><ele>7.3</ele><time>2012-05-02T07:15:45.0000000+00:00</time></trkpt><trkpt lat="42.466759" lon="18.674232"><ele>7.0</ele><time>2012-05-02T07:15:50.0000000+00:00</time></trkpt><trkpt lat="42.466633" lon="18.674021"><ele>7.1</ele><time>2012-05-02T07:15:55.0000000+00:00</time></trkpt><trkpt lat="42.466446" lon="18.673565"><ele>7.4</ele><time>2012-05-02T07:16:00.0000000+00:00</time></trkpt><trkpt lat="42.466076" lon="18.673265"><ele>7.7</ele><time>2012-05-02T07:16:05.0000000+00:00</time></trkpt><trkpt lat="42.465679" lon="18.673307"><ele>7.6</ele><time>2012-05-02T07:16:10.0000000+00:00</time></trkpt><trkpt lat="42.465248" lon="18.673328"><ele>7.4</ele><time>2012-05-02T07:16:15.0000000+00:00</time></trkpt><trkpt lat="42.464699" lon="18.673317"><ele>8.9</ele><time>2012-05-02T07:16:20.0000000+00:00</time></trkpt><trkpt lat="42.464149" lon="18.673336"><ele>10.3</ele><time>2012-05-02T07:16:25.0000000+00:00</time></trkpt><trkpt lat="42.463612" lon="18.673306"><ele>11.2</ele><time>2012-05-02T07:16:30.0000000+00:00</time></trkpt><trkpt lat="42.463074" lon="18.673012"><ele>11.2</ele><time>2012-05-02T07:16:35.0000000+00:00</time></trkpt><trkpt lat="42.462448" lon="18.67289"><ele>9.9</ele><time>2012-05-02T07:16:40.0000000+00:00</time></trkpt><trkpt lat="42.46183" lon="18.673176"><ele>9.1</ele><time>2012-05-02T07:16:45.0000000+00:00</time></trkpt><trkpt lat="42.461311" lon="18.673737"><ele>9.0</ele><time>2012-05-02T07:16:50.0000000+00:00</time></trkpt><trkpt lat="42.46101" lon="18.674463"><ele>9.4</ele><time>2012-05-02T07:16:55.0000000+00:00</time></trkpt><trkpt lat="42.460728" lon="18.6751"><ele>9.3</ele><time>2012-05-02T07:17:00.0000000+00:00</time></trkpt><trkpt lat="42.460281" lon="18.675461"><ele>9.1</ele><time>2012-05-02T07:17:05.0000000+00:00</time></trkpt><trkpt lat="42.459789" lon="18.675407"><ele>8.4</ele><time>2012-05-02T07:17:10.0000000+00:00</time></trkpt><trkpt lat="42.459515" lon="18.674868"><ele>8.9</ele><time>2012-05-02T07:17:15.0000000+00:00</time></trkpt><trkpt lat="42.459465" lon="18.674089"><ele>8.9</ele><time>2012-05-02T07:17:20.0000000+00:00</time></trkpt><trkpt lat="42.459457" lon="18.673174"><ele>8.0</ele><time>2012-05-02T07:17:25.0000000+00:00</time></trkpt><trkpt lat="42.45945" lon="18.672235"><ele>8.9</ele><time>2012-05-02T07:17:30.0000000+00:00</time></trkpt><trkpt lat="42.459255" lon="18.671288"><ele>9.7</ele><time>2012-05-02T07:17:35.0000000+00:00</time></trkpt><trkpt lat="42.458931" lon="18.670424"><ele>9.5</ele><time>2012-05-02T07:17:40.0000000+00:00</time></trkpt><trkpt lat="42.458504" lon="18.669641"><ele>10.0</ele><time>2012-05-02T07:17:45.0000000+00:00</time></trkpt><trkpt lat="42.458035" lon="18.668915"><ele>10.0</ele><time>2012-05-02T07:17:50.0000000+00:00</time></trkpt><trkpt lat="42.457645" lon="18.668182"><ele>11.0</ele><time>2012-05-02T07:17:55.0000000+00:00</time></trkpt><trkpt lat="42.457516" lon="18.667326"><ele>12.2</ele><time>2012-05-02T07:18:00.0000000+00:00</time></trkpt><trkpt lat="42.457508" lon="18.666359"><ele>13.2</ele><time>2012-05-02T07:18:05.0000000+00:00</time></trkpt><trkpt lat="42.457512" lon="18.665445"><ele>14.5</ele><time>2012-05-02T07:18:10.0000000+00:00</time></trkpt><trkpt lat="42.457493" lon="18.664539"><ele>15.8</ele><time>2012-05-02T07:18:15.0000000+00:00</time></trkpt><trkpt lat="42.457443" lon="18.66375"><ele>17.6</ele><time>2012-05-02T07:18:20.0000000+00:00</time></trkpt><trkpt lat="42.457386" lon="18.663288"><ele>18.0</ele><time>2012-05-02T07:18:25.0000000+00:00</time></trkpt><trkpt lat="42.457317" lon="18.66275"><ele>18.0</ele><time>2012-05-02T07:18:30.0000000+00:00</time></trkpt><trkpt lat="42.457188" lon="18.662035"><ele>18.7</ele><time>2012-05-02T07:18:35.0000000+00:00</time></trkpt><trkpt lat="42.457024" lon="18.661325"><ele>19.7</ele><time>2012-05-02T07:18:40.0000000+00:00</time></trkpt><trkpt lat="42.456818" lon="18.660608"><ele>20.2</ele><time>2012-05-02T07:18:45.0000000+00:00</time></trkpt><trkpt lat="42.456604" lon="18.659927"><ele>20.3</ele><time>2012-05-02T07:18:50.0000000+00:00</time></trkpt><trkpt lat="42.45636" lon="18.65925"><ele>21.0</ele><time>2012-05-02T07:18:55.0000000+00:00</time></trkpt><trkpt lat="42.456104" lon="18.65851"><ele>21.2</ele><time>2012-05-02T07:19:00.0000000+00:00</time></trkpt><trkpt lat="42.455856" lon="18.657814"><ele>21.5</ele><time>2012-05-02T07:19:05.0000000+00:00</time></trkpt><trkpt lat="42.455627" lon="18.657164"><ele>21.8</ele><time>2012-05-02T07:19:10.0000000+00:00</time></trkpt><trkpt lat="42.455387" lon="18.656492"><ele>21.8</ele><time>2012-05-02T07:19:15.0000000+00:00</time></trkpt><trkpt lat="42.455135" lon="18.655844"><ele>22.0</ele><time>2012-05-02T07:19:20.0000000+00:00</time></trkpt><trkpt lat="42.454865" lon="18.655207"><ele>22.1</ele><time>2012-05-02T07:19:25.0000000+00:00</time></trkpt><trkpt lat="42.454586" lon="18.654623"><ele>22.1</ele><time>2012-05-02T07:19:30.0000000+00:00</time></trkpt><trkpt lat="42.454285" lon="18.654057"><ele>21.9</ele><time>2012-05-02T07:19:35.0000000+00:00</time></trkpt><trkpt lat="42.453945" lon="18.653484"><ele>21.7</ele><time>2012-05-02T07:19:40.0000000+00:00</time></trkpt><trkpt lat="42.453598" lon="18.65291"><ele>21.8</ele><time>2012-05-02T07:19:45.0000000+00:00</time></trkpt><trkpt lat="42.453247" lon="18.652298"><ele>21.8</ele><time>2012-05-02T07:19:50.0000000+00:00</time></trkpt><trkpt lat="42.452885" lon="18.651674"><ele>21.7</ele><time>2012-05-02T07:19:55.0000000+00:00</time></trkpt><trkpt lat="42.452526" lon="18.651056"><ele>21.6</ele><time>2012-05-02T07:20:00.0000000+00:00</time></trkpt><trkpt lat="42.45216" lon="18.650459"><ele>21.2</ele><time>2012-05-02T07:20:05.0000000+00:00</time></trkpt><trkpt lat="42.451748" lon="18.649847"><ele>21.1</ele><time>2012-05-02T07:20:10.0000000+00:00</time></trkpt><trkpt lat="42.451332" lon="18.649248"><ele>20.0</ele><time>2012-05-02T07:20:15.0000000+00:00</time></trkpt><trkpt lat="42.45089" lon="18.648626"><ele>19.2</ele><time>2012-05-02T07:20:20.0000000+00:00</time></trkpt><trkpt lat="42.450481" lon="18.64798"><ele>18.1</ele><time>2012-05-02T07:20:25.0000000+00:00</time></trkpt><trkpt lat="42.450134" lon="18.647316"><ele>17.7</ele><time>2012-05-02T07:20:30.0000000+00:00</time></trkpt><trkpt lat="42.449829" lon="18.646626"><ele>16.5</ele><time>2012-05-02T07:20:35.0000000+00:00</time></trkpt><trkpt lat="42.44957" lon="18.645855"><ele>16.0</ele><time>2012-05-02T07:20:40.0000000+00:00</time></trkpt><trkpt lat="42.449303" lon="18.645065"><ele>15.6</ele><time>2012-05-02T07:20:45.0000000+00:00</time></trkpt><trkpt lat="42.448975" lon="18.644375"><ele>15.0</ele><time>2012-05-02T07:20:50.0000000+00:00</time></trkpt><trkpt lat="42.448578" lon="18.643761"><ele>15.8</ele><time>2012-05-02T07:20:55.0000000+00:00</time></trkpt><trkpt lat="42.448097" lon="18.643251"><ele>16.9</ele><time>2012-05-02T07:21:00.0000000+00:00</time></trkpt><trkpt lat="42.447559" lon="18.642838"><ele>17.6</ele><time>2012-05-02T07:21:05.0000000+00:00</time></trkpt><trkpt lat="42.447014" lon="18.642441"><ele>17.9</ele><time>2012-05-02T07:21:10.0000000+00:00</time></trkpt><trkpt lat="42.446541" lon="18.641932"><ele>18.4</ele><time>2012-05-02T07:21:15.0000000+00:00</time></trkpt><trkpt lat="42.446156" lon="18.641296"><ele>19.9</ele><time>2012-05-02T07:21:20.0000000+00:00</time></trkpt><trkpt lat="42.445827" lon="18.640549"><ele>21.2</ele><time>2012-05-02T07:21:25.0000000+00:00</time></trkpt><trkpt lat="42.445442" lon="18.639801"><ele>23.2</ele><time>2012-05-02T07:21:30.0000000+00:00</time></trkpt><trkpt lat="42.445049" lon="18.63916"><ele>23.6</ele><time>2012-05-02T07:21:35.0000000+00:00</time></trkpt><trkpt lat="42.444664" lon="18.638544"><ele>25.0</ele><time>2012-05-02T07:21:40.0000000+00:00</time></trkpt><trkpt lat="42.444317" lon="18.637922"><ele>25.6</ele><time>2012-05-02T07:21:45.0000000+00:00</time></trkpt><trkpt lat="42.444046" lon="18.637224"><ele>25.0</ele><time>2012-05-02T07:21:50.0000000+00:00</time></trkpt><trkpt lat="42.443848" lon="18.63645"><ele>24.9</ele><time>2012-05-02T07:21:55.0000000+00:00</time></trkpt><trkpt lat="42.443737" lon="18.635597"><ele>25.1</ele><time>2012-05-02T07:22:00.0000000+00:00</time></trkpt><trkpt lat="42.443687" lon="18.634686"><ele>23.7</ele><time>2012-05-02T07:22:05.0000000+00:00</time></trkpt><trkpt lat="42.443649" lon="18.633749"><ele>22.4</ele><time>2012-05-02T07:22:10.0000000+00:00</time></trkpt><trkpt lat="42.443596" lon="18.632778"><ele>22.6</ele><time>2012-05-02T07:22:15.0000000+00:00</time></trkpt><trkpt lat="42.44355" lon="18.631809"><ele>23.5</ele><time>2012-05-02T07:22:20.0000000+00:00</time></trkpt><trkpt lat="42.443508" lon="18.630894"><ele>25.6</ele><time>2012-05-02T07:22:25.0000000+00:00</time></trkpt><trkpt lat="42.443466" lon="18.629995"><ele>26.1</ele><time>2012-05-02T07:22:30.0000000+00:00</time></trkpt><trkpt lat="42.44342" lon="18.629068"><ele>26.0</ele><time>2012-05-02T07:22:35.0000000+00:00</time></trkpt><trkpt lat="42.443321" lon="18.628246"><ele>26.1</ele><time>2012-05-02T07:22:40.0000000+00:00</time></trkpt><trkpt lat="42.443092" lon="18.627453"><ele>26.8</ele><time>2012-05-02T07:22:45.0000000+00:00</time></trkpt><trkpt lat="42.442711" lon="18.626741"><ele>27.2</ele><time>2012-05-02T07:22:50.0000000+00:00</time></trkpt><trkpt lat="42.442295" lon="18.626106"><ele>27.1</ele><time>2012-05-02T07:22:55.0000000+00:00</time></trkpt><trkpt lat="42.44194" lon="18.625397"><ele>26.6</ele><time>2012-05-02T07:23:00.0000000+00:00</time></trkpt><trkpt lat="42.441776" lon="18.624765"><ele>28.7</ele><time>2012-05-02T07:23:05.0000000+00:00</time></trkpt><trkpt lat="42.441647" lon="18.624243"><ele>28.9</ele><time>2012-05-02T07:23:10.0000000+00:00</time></trkpt><trkpt lat="42.441532" lon="18.623732"><ele>29.4</ele><time>2012-05-02T07:23:15.0000000+00:00</time></trkpt><trkpt lat="42.441349" lon="18.623075"><ele>29.8</ele><time>2012-05-02T07:23:20.0000000+00:00</time></trkpt><trkpt lat="42.44104" lon="18.622486"><ele>30.0</ele><time>2012-05-02T07:23:25.0000000+00:00</time></trkpt><trkpt lat="42.440731" lon="18.621881"><ele>30.4</ele><time>2012-05-02T07:23:30.0000000+00:00</time></trkpt><trkpt lat="42.440495" lon="18.62113"><ele>31.2</ele><time>2012-05-02T07:23:35.0000000+00:00</time></trkpt><trkpt lat="42.440292" lon="18.62031"><ele>32.1</ele><time>2012-05-02T07:23:40.0000000+00:00</time></trkpt><trkpt lat="42.440166" lon="18.619495"><ele>32.5</ele><time>2012-05-02T07:23:45.0000000+00:00</time></trkpt><trkpt lat="42.44017" lon="18.618637"><ele>31.6</ele><time>2012-05-02T07:23:50.0000000+00:00</time></trkpt><trkpt lat="42.440258" lon="18.617781"><ele>31.1</ele><time>2012-05-02T07:23:55.0000000+00:00</time></trkpt><trkpt lat="42.440407" lon="18.616926"><ele>32.0</ele><time>2012-05-02T07:24:00.0000000+00:00</time></trkpt><trkpt lat="42.440441" lon="18.616079"><ele>32.8</ele><time>2012-05-02T07:24:05.0000000+00:00</time></trkpt><trkpt lat="42.440147" lon="18.61533"><ele>33.4</ele><time>2012-05-02T07:24:10.0000000+00:00</time></trkpt><trkpt lat="42.439705" lon="18.614723"><ele>33.2</ele><time>2012-05-02T07:24:15.0000000+00:00</time></trkpt><trkpt lat="42.439449" lon="18.613937"><ele>32.9</ele><time>2012-05-02T07:24:20.0000000+00:00</time></trkpt><trkpt lat="42.439259" lon="18.612999"><ele>33.2</ele><time>2012-05-02T07:24:25.0000000+00:00</time></trkpt><trkpt lat="42.43919" lon="18.611982"><ele>34.6</ele><time>2012-05-02T07:24:30.0000000+00:00</time></trkpt><trkpt lat="42.439209" lon="18.610964"><ele>35.5</ele><time>2012-05-02T07:24:35.0000000+00:00</time></trkpt><trkpt lat="42.438984" lon="18.610149"><ele>37.7</ele><time>2012-05-02T07:24:40.0000000+00:00</time></trkpt><trkpt lat="42.438454" lon="18.609732"><ele>38.3</ele><time>2012-05-02T07:24:45.0000000+00:00</time></trkpt><trkpt lat="42.437874" lon="18.609558"><ele>38.8</ele><time>2012-05-02T07:24:50.0000000+00:00</time></trkpt><trkpt lat="42.437397" lon="18.609108"><ele>39.5</ele><time>2012-05-02T07:24:55.0000000+00:00</time></trkpt><trkpt lat="42.437267" lon="18.608349"><ele>39.7</ele><time>2012-05-02T07:25:00.0000000+00:00</time></trkpt><trkpt lat="42.437469" lon="18.607662"><ele>40.7</ele><time>2012-05-02T07:25:05.0000000+00:00</time></trkpt><trkpt lat="42.437603" lon="18.607498"><ele>42.4</ele><time>2012-05-02T07:25:10.0000000+00:00</time></trkpt><trkpt lat="42.437607" lon="18.607489"><ele>43.1</ele><time>2012-05-02T07:25:15.0000000+00:00</time></trkpt><trkpt lat="42.437744" lon="18.607347"><ele>43.5</ele><time>2012-05-02T07:25:20.0000000+00:00</time></trkpt><trkpt lat="42.438046" lon="18.607082"><ele>43.9</ele><time>2012-05-02T07:25:25.0000000+00:00</time></trkpt><trkpt lat="42.438431" lon="18.606586"><ele>44.2</ele><time>2012-05-02T07:25:30.0000000+00:00</time></trkpt><trkpt lat="42.438637" lon="18.605844"><ele>44.5</ele><time>2012-05-02T07:25:35.0000000+00:00</time></trkpt><trkpt lat="42.438572" lon="18.605026"><ele>45.8</ele><time>2012-05-02T07:25:40.0000000+00:00</time></trkpt><trkpt lat="42.438351" lon="18.604284"><ele>47.1</ele><time>2012-05-02T07:25:45.0000000+00:00</time></trkpt><trkpt lat="42.438232" lon="18.603472"><ele>46.8</ele><time>2012-05-02T07:25:50.0000000+00:00</time></trkpt><trkpt lat="42.438202" lon="18.60261"><ele>46.5</ele><time>2012-05-02T07:25:55.0000000+00:00</time></trkpt><trkpt lat="42.438168" lon="18.601715"><ele>44.6</ele><time>2012-05-02T07:26:00.0000000+00:00</time></trkpt><trkpt lat="42.438141" lon="18.600801"><ele>42.8</ele><time>2012-05-02T07:26:05.0000000+00:00</time></trkpt><trkpt lat="42.438057" lon="18.599857"><ele>42.8</ele><time>2012-05-02T07:26:10.0000000+00:00</time></trkpt><trkpt lat="42.437962" lon="18.598957"><ele>42.1</ele><time>2012-05-02T07:26:15.0000000+00:00</time></trkpt><trkpt lat="42.437943" lon="18.598097"><ele>41.6</ele><time>2012-05-02T07:26:20.0000000+00:00</time></trkpt><trkpt lat="42.438141" lon="18.597408"><ele>39.8</ele><time>2012-05-02T07:26:25.0000000+00:00</time></trkpt><trkpt lat="42.438477" lon="18.596785"><ele>39.6</ele><time>2012-05-02T07:26:30.0000000+00:00</time></trkpt><trkpt lat="42.438641" lon="18.59589"><ele>38.7</ele><time>2012-05-02T07:26:35.0000000+00:00</time></trkpt><trkpt lat="42.438564" lon="18.594908"><ele>36.8</ele><time>2012-05-02T07:26:40.0000000+00:00</time></trkpt><trkpt lat="42.438381" lon="18.593958"><ele>38.6</ele><time>2012-05-02T07:26:45.0000000+00:00</time></trkpt><trkpt lat="42.438534" lon="18.593016"><ele>36.7</ele><time>2012-05-02T07:26:50.0000000+00:00</time></trkpt><trkpt lat="42.438904" lon="18.591999"><ele>35.0</ele><time>2012-05-02T07:26:55.0000000+00:00</time></trkpt><trkpt lat="42.439262" lon="18.590998"><ele>33.1</ele><time>2012-05-02T07:27:00.0000000+00:00</time></trkpt><trkpt lat="42.439507" lon="18.590033"><ele>31.5</ele><time>2012-05-02T07:27:05.0000000+00:00</time></trkpt><trkpt lat="42.439491" lon="18.589142"><ele>30.2</ele><time>2012-05-02T07:27:10.0000000+00:00</time></trkpt><trkpt lat="42.439453" lon="18.588356"><ele>28.7</ele><time>2012-05-02T07:27:15.0000000+00:00</time></trkpt><trkpt lat="42.439659" lon="18.587688"><ele>27.6</ele><time>2012-05-02T07:27:20.0000000+00:00</time></trkpt><trkpt lat="42.440083" lon="18.587135"><ele>28.0</ele><time>2012-05-02T07:27:25.0000000+00:00</time></trkpt><trkpt lat="42.440357" lon="18.58637"><ele>26.5</ele><time>2012-05-02T07:27:30.0000000+00:00</time></trkpt><trkpt lat="42.440495" lon="18.585556"><ele>26.2</ele><time>2012-05-02T07:27:35.0000000+00:00</time></trkpt><trkpt lat="42.440807" lon="18.584938"><ele>26.9</ele><time>2012-05-02T07:27:40.0000000+00:00</time></trkpt><trkpt lat="42.441261" lon="18.5846"><ele>25.5</ele><time>2012-05-02T07:27:45.0000000+00:00</time></trkpt><trkpt lat="42.441952" lon="18.584423"><ele>25.6</ele><time>2012-05-02T07:27:50.0000000+00:00</time></trkpt><trkpt lat="42.442638" lon="18.584181"><ele>25.0</ele><time>2012-05-02T07:27:55.0000000+00:00</time></trkpt><trkpt lat="42.443188" lon="18.58367"><ele>24.1</ele><time>2012-05-02T07:28:00.0000000+00:00</time></trkpt><trkpt lat="42.443478" lon="18.582829"><ele>23.1</ele><time>2012-05-02T07:28:05.0000000+00:00</time></trkpt><trkpt lat="42.443546" lon="18.581795"><ele>21.9</ele><time>2012-05-02T07:28:10.0000000+00:00</time></trkpt><trkpt lat="42.443645" lon="18.580751"><ele>20.8</ele><time>2012-05-02T07:28:15.0000000+00:00</time></trkpt><trkpt lat="42.443863" lon="18.579739"><ele>20.1</ele><time>2012-05-02T07:28:20.0000000+00:00</time></trkpt><trkpt lat="42.444252" lon="18.578859"><ele>18.5</ele><time>2012-05-02T07:28:25.0000000+00:00</time></trkpt><trkpt lat="42.444775" lon="18.578138"><ele>17.8</ele><time>2012-05-02T07:28:30.0000000+00:00</time></trkpt><trkpt lat="42.445374" lon="18.577663"><ele>16.6</ele><time>2012-05-02T07:28:35.0000000+00:00</time></trkpt><trkpt lat="42.446003" lon="18.577213"><ele>13.7</ele><time>2012-05-02T07:28:40.0000000+00:00</time></trkpt><trkpt lat="42.446594" lon="18.576668"><ele>12.6</ele><time>2012-05-02T07:28:45.0000000+00:00</time></trkpt><trkpt lat="42.447124" lon="18.576145"><ele>12.4</ele><time>2012-05-02T07:28:50.0000000+00:00</time></trkpt><trkpt lat="42.447609" lon="18.575661"><ele>12.1</ele><time>2012-05-02T07:28:55.0000000+00:00</time></trkpt><trkpt lat="42.448021" lon="18.575235"><ele>13.3</ele><time>2012-05-02T07:29:00.0000000+00:00</time></trkpt><trkpt lat="42.448421" lon="18.574827"><ele>13.6</ele><time>2012-05-02T07:29:05.0000000+00:00</time></trkpt><trkpt lat="42.448772" lon="18.574453"><ele>13.7</ele><time>2012-05-02T07:29:10.0000000+00:00</time></trkpt><trkpt lat="42.449081" lon="18.574106"><ele>12.6</ele><time>2012-05-02T07:29:15.0000000+00:00</time></trkpt><trkpt lat="42.449516" lon="18.573772"><ele>12.5</ele><time>2012-05-02T07:29:20.0000000+00:00</time></trkpt><trkpt lat="42.449997" lon="18.57357"><ele>11.7</ele><time>2012-05-02T07:29:25.0000000+00:00</time></trkpt><trkpt lat="42.450432" lon="18.573349"><ele>12.5</ele><time>2012-05-02T07:29:30.0000000+00:00</time></trkpt><trkpt lat="42.450699" lon="18.573135"><ele>12.8</ele><time>2012-05-02T07:29:35.0000000+00:00</time></trkpt><trkpt lat="42.450996" lon="18.572828"><ele>12.6</ele><time>2012-05-02T07:29:40.0000000+00:00</time></trkpt><trkpt lat="42.451298" lon="18.572456"><ele>13.4</ele><time>2012-05-02T07:29:45.0000000+00:00</time></trkpt><trkpt lat="42.451591" lon="18.571945"><ele>12.6</ele><time>2012-05-02T07:29:50.0000000+00:00</time></trkpt><trkpt lat="42.451851" lon="18.571291"><ele>12.2</ele><time>2012-05-02T07:29:55.0000000+00:00</time></trkpt><trkpt lat="42.452168" lon="18.570663"><ele>10.9</ele><time>2012-05-02T07:30:00.0000000+00:00</time></trkpt><trkpt lat="42.452694" lon="18.570122"><ele>11.2</ele><time>2012-05-02T07:30:05.0000000+00:00</time></trkpt><trkpt lat="42.453312" lon="18.569508"><ele>14.4</ele><time>2012-05-02T07:30:10.0000000+00:00</time></trkpt><trkpt lat="42.453945" lon="18.568836"><ele>18.6</ele><time>2012-05-02T07:30:15.0000000+00:00</time></trkpt><trkpt lat="42.45451" lon="18.568155"><ele>25.4</ele><time>2012-05-02T07:30:20.0000000+00:00</time></trkpt><trkpt lat="42.454971" lon="18.567677"><ele>29.8</ele><time>2012-05-02T07:30:25.0000000+00:00</time></trkpt><trkpt lat="42.455585" lon="18.566381"><ele>38.5</ele><time>2012-05-02T07:30:33.0000000+00:00</time></trkpt><trkpt lat="42.455723" lon="18.56554"><ele>33.3</ele><time>2012-05-02T07:30:38.0000000+00:00</time></trkpt><trkpt lat="42.455677" lon="18.564734"><ele>30.3</ele><time>2012-05-02T07:30:43.0000000+00:00</time></trkpt><trkpt lat="42.455505" lon="18.563879"><ele>26.9</ele><time>2012-05-02T07:30:48.0000000+00:00</time></trkpt><trkpt lat="42.455338" lon="18.562988"><ele>22.2</ele><time>2012-05-02T07:30:53.0000000+00:00</time></trkpt><trkpt lat="42.45525" lon="18.562216"><ele>19.6</ele><time>2012-05-02T07:30:58.0000000+00:00</time></trkpt><trkpt lat="42.455227" lon="18.561527"><ele>18.3</ele><time>2012-05-02T07:31:03.0000000+00:00</time></trkpt><trkpt lat="42.455242" lon="18.560888"><ele>16.5</ele><time>2012-05-02T07:31:08.0000000+00:00</time></trkpt><trkpt lat="42.455288" lon="18.560265"><ele>15.0</ele><time>2012-05-02T07:31:13.0000000+00:00</time></trkpt><trkpt lat="42.455303" lon="18.559683"><ele>14.9</ele><time>2012-05-02T07:31:18.0000000+00:00</time></trkpt><trkpt lat="42.455276" lon="18.559135"><ele>16.0</ele><time>2012-05-02T07:31:23.0000000+00:00</time></trkpt><trkpt lat="42.455223" lon="18.558662"><ele>16.5</ele><time>2012-05-02T07:31:28.0000000+00:00</time></trkpt><trkpt lat="42.455235" lon="18.558256"><ele>17.5</ele><time>2012-05-02T07:31:33.0000000+00:00</time></trkpt><trkpt lat="42.454994" lon="18.558199"><ele>16.8</ele><time>2012-05-02T07:31:38.0000000+00:00</time></trkpt><trkpt lat="42.454731" lon="18.558407"><ele>16.0</ele><time>2012-05-02T07:31:43.0000000+00:00</time></trkpt><trkpt lat="42.454357" lon="18.558464"><ele>16.8</ele><time>2012-05-02T07:31:48.0000000+00:00</time></trkpt><trkpt lat="42.453949" lon="18.558456"><ele>18.3</ele><time>2012-05-02T07:31:53.0000000+00:00</time></trkpt><trkpt lat="42.453541" lon="18.558294"><ele>21.4</ele><time>2012-05-02T07:31:58.0000000+00:00</time></trkpt><trkpt lat="42.45319" lon="18.558004"><ele>23.6</ele><time>2012-05-02T07:32:03.0000000+00:00</time></trkpt><trkpt lat="42.452904" lon="18.557598"><ele>25.5</ele><time>2012-05-02T07:32:08.0000000+00:00</time></trkpt><trkpt lat="42.452675" lon="18.557085"><ele>26.8</ele><time>2012-05-02T07:32:13.0000000+00:00</time></trkpt><trkpt lat="42.452366" lon="18.556482"><ele>26.9</ele><time>2012-05-02T07:32:18.0000000+00:00</time></trkpt><trkpt lat="42.452019" lon="18.555946"><ele>27.6</ele><time>2012-05-02T07:32:23.0000000+00:00</time></trkpt><trkpt lat="42.451809" lon="18.555382"><ele>30.0</ele><time>2012-05-02T07:32:28.0000000+00:00</time></trkpt><trkpt lat="42.451702" lon="18.554747"><ele>32.6</ele><time>2012-05-02T07:32:33.0000000+00:00</time></trkpt><trkpt lat="42.451611" lon="18.5541"><ele>35.8</ele><time>2012-05-02T07:32:38.0000000+00:00</time></trkpt><trkpt lat="42.451569" lon="18.553589"><ele>37.0</ele><time>2012-05-02T07:32:43.0000000+00:00</time></trkpt><trkpt lat="42.451347" lon="18.553154"><ele>37.7</ele><time>2012-05-02T07:32:48.0000000+00:00</time></trkpt><trkpt lat="42.451015" lon="18.552824"><ele>35.9</ele><time>2012-05-02T07:32:53.0000000+00:00</time></trkpt><trkpt lat="42.450897" lon="18.552603"><ele>34.3</ele><time>2012-05-02T07:32:58.0000000+00:00</time></trkpt><trkpt lat="42.450848" lon="18.552435"><ele>34.3</ele><time>2012-05-02T07:33:03.0000000+00:00</time></trkpt><trkpt lat="42.450771" lon="18.552063"><ele>35.3</ele><time>2012-05-02T07:33:08.0000000+00:00</time></trkpt><trkpt lat="42.450603" lon="18.551565"><ele>36.9</ele><time>2012-05-02T07:33:13.0000000+00:00</time></trkpt><trkpt lat="42.450474" lon="18.551142"><ele>38.0</ele><time>2012-05-02T07:33:18.0000000+00:00</time></trkpt><trkpt lat="42.450489" lon="18.550646"><ele>38.6</ele><time>2012-05-02T07:33:23.0000000+00:00</time></trkpt><trkpt lat="42.450535" lon="18.550121"><ele>40.1</ele><time>2012-05-02T07:33:28.0000000+00:00</time></trkpt><trkpt lat="42.450493" lon="18.549723"><ele>39.9</ele><time>2012-05-02T07:33:33.0000000+00:00</time></trkpt><trkpt lat="42.45055" lon="18.549322"><ele>41.2</ele><time>2012-05-02T07:33:38.0000000+00:00</time></trkpt><trkpt lat="42.450665" lon="18.548899"><ele>43.8</ele><time>2012-05-02T07:33:43.0000000+00:00</time></trkpt><trkpt lat="42.450729" lon="18.548517"><ele>44.2</ele><time>2012-05-02T07:33:48.0000000+00:00</time></trkpt><trkpt lat="42.450806" lon="18.548285"><ele>43.8</ele><time>2012-05-02T07:33:53.0000000+00:00</time></trkpt><trkpt lat="42.450932" lon="18.548084"><ele>43.6</ele><time>2012-05-02T07:33:58.0000000+00:00</time></trkpt><trkpt lat="42.450958" lon="18.548067"><ele>43.7</ele><time>2012-05-02T07:34:03.0000000+00:00</time></trkpt><trkpt lat="42.450985" lon="18.547974"><ele>43.5</ele><time>2012-05-02T07:34:08.0000000+00:00</time></trkpt><trkpt lat="42.451019" lon="18.5478"><ele>44.4</ele><time>2012-05-02T07:34:13.0000000+00:00</time></trkpt><trkpt lat="42.451012" lon="18.547752"><ele>44.6</ele><time>2012-05-02T07:34:18.0000000+00:00</time></trkpt><trkpt lat="42.450996" lon="18.547562"><ele>45.0</ele><time>2012-05-02T07:34:23.0000000+00:00</time></trkpt><trkpt lat="42.450958" lon="18.547285"><ele>45.4</ele><time>2012-05-02T07:34:28.0000000+00:00</time></trkpt><trkpt lat="42.450932" lon="18.547087"><ele>45.3</ele><time>2012-05-02T07:34:33.0000000+00:00</time></trkpt><trkpt lat="42.450928" lon="18.546833"><ele>46.8</ele><time>2012-05-02T07:34:38.0000000+00:00</time></trkpt><trkpt lat="42.450943" lon="18.54652"><ele>47.6</ele><time>2012-05-02T07:34:43.0000000+00:00</time></trkpt><trkpt lat="42.450985" lon="18.54615"><ele>48.4</ele><time>2012-05-02T07:34:48.0000000+00:00</time></trkpt><trkpt lat="42.451035" lon="18.545696"><ele>48.1</ele><time>2012-05-02T07:34:53.0000000+00:00</time></trkpt><trkpt lat="42.451084" lon="18.545256"><ele>48.7</ele><time>2012-05-02T07:34:58.0000000+00:00</time></trkpt><trkpt lat="42.451134" lon="18.544899"><ele>49.1</ele><time>2012-05-02T07:35:03.0000000+00:00</time></trkpt><trkpt lat="42.451267" lon="18.544466"><ele>49.7</ele><time>2012-05-02T07:35:08.0000000+00:00</time></trkpt><trkpt lat="42.451385" lon="18.544088"><ele>50.5</ele><time>2012-05-02T07:35:13.0000000+00:00</time></trkpt><trkpt lat="42.451431" lon="18.543982"><ele>49.9</ele><time>2012-05-02T07:35:18.0000000+00:00</time></trkpt><trkpt lat="42.451469" lon="18.543924"><ele>50.1</ele><time>2012-05-02T07:35:23.0000000+00:00</time></trkpt><trkpt lat="42.451492" lon="18.54389"><ele>51.3</ele><time>2012-05-02T07:35:28.0000000+00:00</time></trkpt><trkpt lat="42.451492" lon="18.543892"><ele>51.6</ele><time>2012-05-02T07:35:33.0000000+00:00</time></trkpt><trkpt lat="42.451492" lon="18.543892"><ele>51.6</ele><time>2012-05-02T07:35:38.0000000+00:00</time></trkpt><trkpt lat="42.451492" lon="18.543894"><ele>51.6</ele><time>2012-05-02T07:35:43.0000000+00:00</time></trkpt><trkpt lat="42.451492" lon="18.543871"><ele>51.5</ele><time>2012-05-02T07:35:48.0000000+00:00</time></trkpt><trkpt lat="42.451477" lon="18.543749"><ele>51.0</ele><time>2012-05-02T07:35:53.0000000+00:00</time></trkpt><trkpt lat="42.451496" lon="18.543688"><ele>51.2</ele><time>2012-05-02T07:35:58.0000000+00:00</time></trkpt><trkpt lat="42.451492" lon="18.543692"><ele>51.0</ele><time>2012-05-02T07:36:03.0000000+00:00</time></trkpt><trkpt lat="42.451492" lon="18.543692"><ele>51.0</ele><time>2012-05-02T07:36:08.0000000+00:00</time></trkpt><trkpt lat="42.451492" lon="18.543692"><ele>51.0</ele><time>2012-05-02T07:36:13.0000000+00:00</time></trkpt><trkpt lat="42.451492" lon="18.543692"><ele>51.0</ele><time>2012-05-02T07:36:18.0000000+00:00</time></trkpt><trkpt lat="42.451492" lon="18.543692"><ele>51.0</ele><time>2012-05-02T07:36:23.0000000+00:00</time></trkpt><trkpt lat="42.451492" lon="18.543692"><ele>51.0</ele><time>2012-05-02T07:36:28.0000000+00:00</time></trkpt><trkpt lat="42.451492" lon="18.543692"><ele>51.0</ele><time>2012-05-02T07:36:33.0000000+00:00</time></trkpt><trkpt lat="42.451492" lon="18.543692"><ele>51.0</ele><time>2012-05-02T07:36:38.0000000+00:00</time></trkpt><trkpt lat="42.451492" lon="18.543692"><ele>51.0</ele><time>2012-05-02T07:36:43.0000000+00:00</time></trkpt><trkpt lat="42.451492" lon="18.543692"><ele>51.0</ele><time>2012-05-02T07:36:48.0000000+00:00</time></trkpt><trkpt lat="42.451492" lon="18.543692"><ele>50.9</ele><time>2012-05-02T07:36:53.0000000+00:00</time></trkpt><trkpt lat="42.451492" lon="18.543692"><ele>50.9</ele><time>2012-05-02T07:36:58.0000000+00:00</time></trkpt><trkpt lat="42.451492" lon="18.543694"><ele>50.9</ele><time>2012-05-02T07:37:03.0000000+00:00</time></trkpt><trkpt lat="42.451492" lon="18.543694"><ele>50.9</ele><time>2012-05-02T07:37:08.0000000+00:00</time></trkpt><trkpt lat="42.451492" lon="18.543694"><ele>50.9</ele><time>2012-05-02T07:37:13.0000000+00:00</time></trkpt><trkpt lat="42.451492" lon="18.543694"><ele>50.9</ele><time>2012-05-02T07:37:18.0000000+00:00</time></trkpt><trkpt lat="42.451492" lon="18.543694"><ele>50.9</ele><time>2012-05-02T07:37:23.0000000+00:00</time></trkpt><trkpt lat="42.451492" lon="18.543694"><ele>50.9</ele><time>2012-05-02T07:37:28.0000000+00:00</time></trkpt><trkpt lat="42.451492" lon="18.543694"><ele>50.9</ele><time>2012-05-02T07:37:33.0000000+00:00</time></trkpt><trkpt lat="42.451492" lon="18.543694"><ele>50.9</ele><time>2012-05-02T07:37:38.0000000+00:00</time></trkpt><trkpt lat="42.451492" lon="18.543694"><ele>50.9</ele><time>2012-05-02T07:37:43.0000000+00:00</time></trkpt><trkpt lat="42.451523" lon="18.543695"><ele>50.7</ele><time>2012-05-02T07:37:48.0000000+00:00</time></trkpt><trkpt lat="42.45155" lon="18.543707"><ele>51.8</ele><time>2012-05-02T07:37:53.0000000+00:00</time></trkpt><trkpt lat="42.451546" lon="18.543711"><ele>52.3</ele><time>2012-05-02T07:37:58.0000000+00:00</time></trkpt><trkpt lat="42.45155" lon="18.543716"><ele>52.6</ele><time>2012-05-02T07:38:03.0000000+00:00</time></trkpt><trkpt lat="42.451553" lon="18.543707"><ele>52.6</ele><time>2012-05-02T07:38:08.0000000+00:00</time></trkpt><trkpt lat="42.451565" lon="18.543655"><ele>52.5</ele><time>2012-05-02T07:38:13.0000000+00:00</time></trkpt><trkpt lat="42.451519" lon="18.54372"><ele>51.0</ele><time>2012-05-02T07:38:18.0000000+00:00</time></trkpt><trkpt lat="42.451504" lon="18.543802"><ele>50.6</ele><time>2012-05-02T07:38:23.0000000+00:00</time></trkpt><trkpt lat="42.451485" lon="18.543909"><ele>50.3</ele><time>2012-05-02T07:38:28.0000000+00:00</time></trkpt><trkpt lat="42.451488" lon="18.543919"><ele>50.6</ele><time>2012-05-02T07:38:33.0000000+00:00</time></trkpt><trkpt lat="42.451511" lon="18.543903"><ele>51.4</ele><time>2012-05-02T07:38:38.0000000+00:00</time></trkpt><trkpt lat="42.451504" lon="18.543915"><ele>51.8</ele><time>2012-05-02T07:38:43.0000000+00:00</time></trkpt><trkpt lat="42.451477" lon="18.543962"><ele>52.5</ele><time>2012-05-02T07:38:48.0000000+00:00</time></trkpt><trkpt lat="42.451527" lon="18.543947"><ele>53.2</ele><time>2012-05-02T07:38:53.0000000+00:00</time></trkpt><trkpt lat="42.451668" lon="18.543764"><ele>54.0</ele><time>2012-05-02T07:38:58.0000000+00:00</time></trkpt><trkpt lat="42.451782" lon="18.543419"><ele>57.7</ele><time>2012-05-02T07:39:03.0000000+00:00</time></trkpt><trkpt lat="42.451973" lon="18.543011"><ele>62.2</ele><time>2012-05-02T07:39:08.0000000+00:00</time></trkpt><trkpt lat="42.452099" lon="18.542685"><ele>65.4</ele><time>2012-05-02T07:39:13.0000000+00:00</time></trkpt><trkpt lat="42.452183" lon="18.542387"><ele>67.7</ele><time>2012-05-02T07:39:18.0000000+00:00</time></trkpt><trkpt lat="42.452248" lon="18.542109"><ele>68.6</ele><time>2012-05-02T07:39:23.0000000+00:00</time></trkpt><trkpt lat="42.452297" lon="18.54187"><ele>68.5</ele><time>2012-05-02T07:39:28.0000000+00:00</time></trkpt><trkpt lat="42.452374" lon="18.541721"><ele>68.4</ele><time>2012-05-02T07:39:33.0000000+00:00</time></trkpt><trkpt lat="42.452454" lon="18.541645"><ele>70.2</ele><time>2012-05-02T07:39:38.0000000+00:00</time></trkpt><trkpt lat="42.452488" lon="18.541626"><ele>70.5</ele><time>2012-05-02T07:39:43.0000000+00:00</time></trkpt><trkpt lat="42.452492" lon="18.541624"><ele>70.5</ele><time>2012-05-02T07:39:48.0000000+00:00</time></trkpt><trkpt lat="42.45253" lon="18.54158"><ele>71.2</ele><time>2012-05-02T07:39:53.0000000+00:00</time></trkpt><trkpt lat="42.452564" lon="18.541414"><ele>71.7</ele><time>2012-05-02T07:39:58.0000000+00:00</time></trkpt><trkpt lat="42.452576" lon="18.541351"><ele>72.3</ele><time>2012-05-02T07:40:03.0000000+00:00</time></trkpt><trkpt lat="42.452583" lon="18.541325"><ele>72.8</ele><time>2012-05-02T07:40:08.0000000+00:00</time></trkpt><trkpt lat="42.452599" lon="18.54133"><ele>72.9</ele><time>2012-05-02T07:40:13.0000000+00:00</time></trkpt><trkpt lat="42.452599" lon="18.54133"><ele>73.1</ele><time>2012-05-02T07:40:18.0000000+00:00</time></trkpt><trkpt lat="42.452602" lon="18.54133"><ele>73.2</ele><time>2012-05-02T07:40:23.0000000+00:00</time></trkpt><trkpt lat="42.452599" lon="18.54133"><ele>73.1</ele><time>2012-05-02T07:40:28.0000000+00:00</time></trkpt><trkpt lat="42.452599" lon="18.54133"><ele>73.1</ele><time>2012-05-02T07:40:33.0000000+00:00</time></trkpt><trkpt lat="42.452599" lon="18.54133"><ele>73.1</ele><time>2012-05-02T07:40:38.0000000+00:00</time></trkpt><trkpt lat="42.452599" lon="18.54133"><ele>73.1</ele><time>2012-05-02T07:40:43.0000000+00:00</time></trkpt><trkpt lat="42.452599" lon="18.54133"><ele>73.1</ele><time>2012-05-02T07:40:48.0000000+00:00</time></trkpt><trkpt lat="42.452599" lon="18.54133"><ele>73.1</ele><time>2012-05-02T07:40:53.0000000+00:00</time></trkpt><trkpt lat="42.452602" lon="18.54133"><ele>73.1</ele><time>2012-05-02T07:40:58.0000000+00:00</time></trkpt><trkpt lat="42.452602" lon="18.54133"><ele>73.1</ele><time>2012-05-02T07:41:03.0000000+00:00</time></trkpt><trkpt lat="42.452602" lon="18.54133"><ele>73.1</ele><time>2012-05-02T07:41:08.0000000+00:00</time></trkpt><trkpt lat="42.452602" lon="18.54133"><ele>73.1</ele><time>2012-05-02T07:41:13.0000000+00:00</time></trkpt><trkpt lat="42.452602" lon="18.54133"><ele>73.1</ele><time>2012-05-02T07:41:18.0000000+00:00</time></trkpt><trkpt lat="42.452602" lon="18.54133"><ele>73.1</ele><time>2012-05-02T07:41:23.0000000+00:00</time></trkpt><trkpt lat="42.452602" lon="18.54133"><ele>73.2</ele><time>2012-05-02T07:41:28.0000000+00:00</time></trkpt><trkpt lat="42.452602" lon="18.54133"><ele>73.2</ele><time>2012-05-02T07:41:33.0000000+00:00</time></trkpt><trkpt lat="42.452602" lon="18.541332"><ele>73.2</ele><time>2012-05-02T07:41:38.0000000+00:00</time></trkpt><trkpt lat="42.452602" lon="18.541332"><ele>73.2</ele><time>2012-05-02T07:41:43.0000000+00:00</time></trkpt><trkpt lat="42.452602" lon="18.541332"><ele>73.2</ele><time>2012-05-02T07:41:48.0000000+00:00</time></trkpt><trkpt lat="42.452602" lon="18.541332"><ele>73.2</ele><time>2012-05-02T07:41:53.0000000+00:00</time></trkpt><trkpt lat="42.452602" lon="18.541332"><ele>73.2</ele><time>2012-05-02T07:41:58.0000000+00:00</time></trkpt><trkpt lat="42.452602" lon="18.541332"><ele>73.2</ele><time>2012-05-02T07:42:03.0000000+00:00</time></trkpt><trkpt lat="42.452602" lon="18.541332"><ele>73.3</ele><time>2012-05-02T07:42:08.0000000+00:00</time></trkpt><trkpt lat="42.452602" lon="18.541332"><ele>73.3</ele><time>2012-05-02T07:42:13.0000000+00:00</time></trkpt><trkpt lat="42.452602" lon="18.541332"><ele>73.3</ele><time>2012-05-02T07:42:18.0000000+00:00</time></trkpt><trkpt lat="42.452602" lon="18.541332"><ele>73.3</ele><time>2012-05-02T07:42:23.0000000+00:00</time></trkpt><trkpt lat="42.452602" lon="18.541332"><ele>73.3</ele><time>2012-05-02T07:42:28.0000000+00:00</time></trkpt><trkpt lat="42.452602" lon="18.541332"><ele>73.4</ele><time>2012-05-02T07:42:33.0000000+00:00</time></trkpt><trkpt lat="42.452602" lon="18.541332"><ele>73.4</ele><time>2012-05-02T07:42:38.0000000+00:00</time></trkpt><trkpt lat="42.452602" lon="18.541332"><ele>73.4</ele><time>2012-05-02T07:42:43.0000000+00:00</time></trkpt><trkpt lat="42.452602" lon="18.541332"><ele>73.4</ele><time>2012-05-02T07:42:48.0000000+00:00</time></trkpt><trkpt lat="42.452602" lon="18.541332"><ele>73.4</ele><time>2012-05-02T07:42:53.0000000+00:00</time></trkpt><trkpt lat="42.452602" lon="18.541332"><ele>73.4</ele><time>2012-05-02T07:42:58.0000000+00:00</time></trkpt><trkpt lat="42.452606" lon="18.541332"><ele>73.5</ele><time>2012-05-02T07:43:03.0000000+00:00</time></trkpt><trkpt lat="42.452606" lon="18.541332"><ele>73.5</ele><time>2012-05-02T07:43:08.0000000+00:00</time></trkpt><trkpt lat="42.452606" lon="18.541332"><ele>73.4</ele><time>2012-05-02T07:43:13.0000000+00:00</time></trkpt><trkpt lat="42.452606" lon="18.541332"><ele>73.5</ele><time>2012-05-02T07:43:18.0000000+00:00</time></trkpt><trkpt lat="42.452606" lon="18.541332"><ele>73.4</ele><time>2012-05-02T07:43:23.0000000+00:00</time></trkpt><trkpt lat="42.452606" lon="18.541332"><ele>73.4</ele><time>2012-05-02T07:43:28.0000000+00:00</time></trkpt><trkpt lat="42.452606" lon="18.541332"><ele>73.4</ele><time>2012-05-02T07:43:33.0000000+00:00</time></trkpt><trkpt lat="42.452606" lon="18.541332"><ele>73.5</ele><time>2012-05-02T07:43:38.0000000+00:00</time></trkpt><trkpt lat="42.452606" lon="18.541332"><ele>73.5</ele><time>2012-05-02T07:43:43.0000000+00:00</time></trkpt><trkpt lat="42.452606" lon="18.541332"><ele>73.5</ele><time>2012-05-02T07:43:48.0000000+00:00</time></trkpt><trkpt lat="42.452606" lon="18.541334"><ele>73.5</ele><time>2012-05-02T07:43:53.0000000+00:00</time></trkpt><trkpt lat="42.452606" lon="18.541334"><ele>73.5</ele><time>2012-05-02T07:43:58.0000000+00:00</time></trkpt><trkpt lat="42.452606" lon="18.541334"><ele>73.5</ele><time>2012-05-02T07:44:03.0000000+00:00</time></trkpt><trkpt lat="42.452606" lon="18.541334"><ele>73.5</ele><time>2012-05-02T07:44:08.0000000+00:00</time></trkpt><trkpt lat="42.452606" lon="18.541334"><ele>73.5</ele><time>2012-05-02T07:44:13.0000000+00:00</time></trkpt><trkpt lat="42.452606" lon="18.541334"><ele>73.4</ele><time>2012-05-02T07:44:18.0000000+00:00</time></trkpt><trkpt lat="42.452606" lon="18.541334"><ele>73.4</ele><time>2012-05-02T07:44:23.0000000+00:00</time></trkpt><trkpt lat="42.452606" lon="18.541334"><ele>73.4</ele><time>2012-05-02T07:44:28.0000000+00:00</time></trkpt><trkpt lat="42.452606" lon="18.541334"><ele>73.4</ele><time>2012-05-02T07:44:33.0000000+00:00</time></trkpt><trkpt lat="42.452606" lon="18.541332"><ele>73.4</ele><time>2012-05-02T07:44:38.0000000+00:00</time></trkpt><trkpt lat="42.452606" lon="18.541332"><ele>73.4</ele><time>2012-05-02T07:44:43.0000000+00:00</time></trkpt><trkpt lat="42.452606" lon="18.541332"><ele>73.4</ele><time>2012-05-02T07:44:48.0000000+00:00</time></trkpt><trkpt lat="42.452606" lon="18.541332"><ele>73.4</ele><time>2012-05-02T07:44:53.0000000+00:00</time></trkpt><trkpt lat="42.452606" lon="18.541332"><ele>73.4</ele><time>2012-05-02T07:44:58.0000000+00:00</time></trkpt><trkpt lat="42.452606" lon="18.541332"><ele>73.4</ele><time>2012-05-02T07:45:03.0000000+00:00</time></trkpt><trkpt lat="42.452606" lon="18.541332"><ele>73.4</ele><time>2012-05-02T07:45:08.0000000+00:00</time></trkpt><trkpt lat="42.452606" lon="18.541332"><ele>73.4</ele><time>2012-05-02T07:45:13.0000000+00:00</time></trkpt><trkpt lat="42.452606" lon="18.541332"><ele>73.5</ele><time>2012-05-02T07:45:18.0000000+00:00</time></trkpt><trkpt lat="42.452606" lon="18.541332"><ele>73.6</ele><time>2012-05-02T07:45:23.0000000+00:00</time></trkpt><trkpt lat="42.452606" lon="18.541332"><ele>73.7</ele><time>2012-05-02T07:45:28.0000000+00:00</time></trkpt><trkpt lat="42.452606" lon="18.54133"><ele>73.7</ele><time>2012-05-02T07:45:33.0000000+00:00</time></trkpt><trkpt lat="42.452606" lon="18.54133"><ele>73.8</ele><time>2012-05-02T07:45:38.0000000+00:00</time></trkpt><trkpt lat="42.452606" lon="18.54133"><ele>73.9</ele><time>2012-05-02T07:45:43.0000000+00:00</time></trkpt><trkpt lat="42.452606" lon="18.541332"><ele>73.9</ele><time>2012-05-02T07:45:48.0000000+00:00</time></trkpt><trkpt lat="42.452606" lon="18.541332"><ele>73.9</ele><time>2012-05-02T07:45:53.0000000+00:00</time></trkpt><trkpt lat="42.452606" lon="18.541332"><ele>73.9</ele><time>2012-05-02T07:45:58.0000000+00:00</time></trkpt><trkpt lat="42.452606" lon="18.541332"><ele>73.9</ele><time>2012-05-02T07:46:03.0000000+00:00</time></trkpt><trkpt lat="42.452606" lon="18.541332"><ele>73.9</ele><time>2012-05-02T07:46:08.0000000+00:00</time></trkpt><trkpt lat="42.452606" lon="18.541332"><ele>73.8</ele><time>2012-05-02T07:46:13.0000000+00:00</time></trkpt><trkpt lat="42.452606" lon="18.541332"><ele>73.8</ele><time>2012-05-02T07:46:18.0000000+00:00</time></trkpt><trkpt lat="42.452606" lon="18.541332"><ele>73.8</ele><time>2012-05-02T07:46:23.0000000+00:00</time></trkpt><trkpt lat="42.452606" lon="18.541332"><ele>73.9</ele><time>2012-05-02T07:46:28.0000000+00:00</time></trkpt><trkpt lat="42.452606" lon="18.541332"><ele>73.9</ele><time>2012-05-02T07:46:33.0000000+00:00</time></trkpt><trkpt lat="42.452606" lon="18.541332"><ele>73.9</ele><time>2012-05-02T07:46:38.0000000+00:00</time></trkpt><trkpt lat="42.452606" lon="18.541332"><ele>73.9</ele><time>2012-05-02T07:46:43.0000000+00:00</time></trkpt><trkpt lat="42.452606" lon="18.541332"><ele>74.0</ele><time>2012-05-02T07:46:48.0000000+00:00</time></trkpt><trkpt lat="42.452606" lon="18.541332"><ele>74.0</ele><time>2012-05-02T07:46:53.0000000+00:00</time></trkpt><trkpt lat="42.452606" lon="18.541332"><ele>74.0</ele><time>2012-05-02T07:46:58.0000000+00:00</time></trkpt><trkpt lat="42.452606" lon="18.54133"><ele>74.0</ele><time>2012-05-02T07:47:03.0000000+00:00</time></trkpt><trkpt lat="42.452606" lon="18.54133"><ele>74.0</ele><time>2012-05-02T07:47:08.0000000+00:00</time></trkpt><trkpt lat="42.452606" lon="18.54133"><ele>74.1</ele><time>2012-05-02T07:47:13.0000000+00:00</time></trkpt><trkpt lat="42.452606" lon="18.54133"><ele>74.1</ele><time>2012-05-02T07:47:18.0000000+00:00</time></trkpt><trkpt lat="42.452606" lon="18.54133"><ele>74.1</ele><time>2012-05-02T07:47:23.0000000+00:00</time></trkpt><trkpt lat="42.452606" lon="18.54133"><ele>74.2</ele><time>2012-05-02T07:47:28.0000000+00:00</time></trkpt><trkpt lat="42.452606" lon="18.54133"><ele>74.2</ele><time>2012-05-02T07:47:33.0000000+00:00</time></trkpt><trkpt lat="42.452606" lon="18.54133"><ele>74.2</ele><time>2012-05-02T07:47:38.0000000+00:00</time></trkpt><trkpt lat="42.452606" lon="18.54133"><ele>74.2</ele><time>2012-05-02T07:47:43.0000000+00:00</time></trkpt><trkpt lat="42.452606" lon="18.54133"><ele>74.2</ele><time>2012-05-02T07:47:48.0000000+00:00</time></trkpt><trkpt lat="42.452606" lon="18.54133"><ele>74.2</ele><time>2012-05-02T07:47:53.0000000+00:00</time></trkpt><trkpt lat="42.452606" lon="18.54133"><ele>74.2</ele><time>2012-05-02T07:47:58.0000000+00:00</time></trkpt><trkpt lat="42.452606" lon="18.54133"><ele>74.2</ele><time>2012-05-02T07:48:03.0000000+00:00</time></trkpt><trkpt lat="42.452606" lon="18.54133"><ele>74.2</ele><time>2012-05-02T07:48:08.0000000+00:00</time></trkpt><trkpt lat="42.452606" lon="18.54133"><ele>74.2</ele><time>2012-05-02T07:48:13.0000000+00:00</time></trkpt><trkpt lat="42.452606" lon="18.54133"><ele>74.2</ele><time>2012-05-02T07:48:18.0000000+00:00</time></trkpt><trkpt lat="42.452606" lon="18.54133"><ele>74.2</ele><time>2012-05-02T07:48:23.0000000+00:00</time></trkpt><trkpt lat="42.452606" lon="18.54133"><ele>74.2</ele><time>2012-05-02T07:48:28.0000000+00:00</time></trkpt><trkpt lat="42.452606" lon="18.54133"><ele>74.3</ele><time>2012-05-02T07:48:33.0000000+00:00</time></trkpt><trkpt lat="42.45261" lon="18.54133"><ele>74.3</ele><time>2012-05-02T07:48:38.0000000+00:00</time></trkpt><trkpt lat="42.45261" lon="18.54133"><ele>74.4</ele><time>2012-05-02T07:48:43.0000000+00:00</time></trkpt><trkpt lat="42.45261" lon="18.54133"><ele>74.4</ele><time>2012-05-02T07:48:48.0000000+00:00</time></trkpt><trkpt lat="42.45261" lon="18.54133"><ele>74.5</ele><time>2012-05-02T07:48:53.0000000+00:00</time></trkpt><trkpt lat="42.452606" lon="18.54133"><ele>74.6</ele><time>2012-05-02T07:48:58.0000000+00:00</time></trkpt><trkpt lat="42.452606" lon="18.54133"><ele>74.7</ele><time>2012-05-02T07:49:03.0000000+00:00</time></trkpt><trkpt lat="42.452606" lon="18.541328"><ele>74.8</ele><time>2012-05-02T07:49:08.0000000+00:00</time></trkpt><trkpt lat="42.452606" lon="18.541328"><ele>74.9</ele><time>2012-05-02T07:49:13.0000000+00:00</time></trkpt><trkpt lat="42.452606" lon="18.541328"><ele>75.0</ele><time>2012-05-02T07:49:18.0000000+00:00</time></trkpt><trkpt lat="42.452606" lon="18.541328"><ele>75.1</ele><time>2012-05-02T07:49:23.0000000+00:00</time></trkpt><trkpt lat="42.452606" lon="18.541327"><ele>75.2</ele><time>2012-05-02T07:49:28.0000000+00:00</time></trkpt><trkpt lat="42.452606" lon="18.541327"><ele>75.3</ele><time>2012-05-02T07:49:33.0000000+00:00</time></trkpt><trkpt lat="42.452606" lon="18.541327"><ele>75.4</ele><time>2012-05-02T07:49:38.0000000+00:00</time></trkpt><trkpt lat="42.452606" lon="18.541327"><ele>75.4</ele><time>2012-05-02T07:49:43.0000000+00:00</time></trkpt><trkpt lat="42.452606" lon="18.541327"><ele>75.5</ele><time>2012-05-02T07:49:48.0000000+00:00</time></trkpt><trkpt lat="42.452606" lon="18.541327"><ele>75.5</ele><time>2012-05-02T07:49:53.0000000+00:00</time></trkpt><trkpt lat="42.452606" lon="18.541327"><ele>75.5</ele><time>2012-05-02T07:49:58.0000000+00:00</time></trkpt><trkpt lat="42.452606" lon="18.541327"><ele>75.6</ele><time>2012-05-02T07:50:03.0000000+00:00</time></trkpt><trkpt lat="42.452606" lon="18.541327"><ele>75.6</ele><time>2012-05-02T07:50:08.0000000+00:00</time></trkpt><trkpt lat="42.452606" lon="18.541328"><ele>75.6</ele><time>2012-05-02T07:50:13.0000000+00:00</time></trkpt><trkpt lat="42.452587" lon="18.541319"><ele>76.0</ele><time>2012-05-02T07:50:18.0000000+00:00</time></trkpt><trkpt lat="42.452583" lon="18.541309"><ele>75.9</ele><time>2012-05-02T07:50:23.0000000+00:00</time></trkpt><trkpt lat="42.452599" lon="18.541365"><ele>73.7</ele><time>2012-05-02T07:50:28.0000000+00:00</time></trkpt><trkpt lat="42.452579" lon="18.541401"><ele>71.7</ele><time>2012-05-02T07:50:33.0000000+00:00</time></trkpt><trkpt lat="42.452583" lon="18.541451"><ele>70.7</ele><time>2012-05-02T07:50:38.0000000+00:00</time></trkpt><trkpt lat="42.452599" lon="18.541466"><ele>69.3</ele><time>2012-05-02T07:50:43.0000000+00:00</time></trkpt><trkpt lat="42.452629" lon="18.541471"><ele>69.0</ele><time>2012-05-02T07:50:48.0000000+00:00</time></trkpt><trkpt lat="42.452625" lon="18.541475"><ele>69.0</ele><time>2012-05-02T07:50:53.0000000+00:00</time></trkpt><trkpt lat="42.452648" lon="18.541481"><ele>69.1</ele><time>2012-05-02T07:50:58.0000000+00:00</time></trkpt><trkpt lat="42.452274" lon="18.541325"><ele>53.4</ele><time>2012-05-02T07:51:09.0000000+00:00</time></trkpt><trkpt lat="42.452457" lon="18.541386"><ele>54.9</ele><time>2012-05-02T07:51:14.0000000+00:00</time></trkpt><trkpt lat="42.452522" lon="18.54141"><ele>61.8</ele><time>2012-05-02T07:51:19.0000000+00:00</time></trkpt><trkpt lat="42.452583" lon="18.541426"><ele>64.6</ele><time>2012-05-02T07:51:24.0000000+00:00</time></trkpt><trkpt lat="42.452599" lon="18.541439"><ele>68.2</ele><time>2012-05-02T07:51:29.0000000+00:00</time></trkpt><trkpt lat="42.452579" lon="18.541433"><ele>70.1</ele><time>2012-05-02T07:51:34.0000000+00:00</time></trkpt><trkpt lat="42.452579" lon="18.541431"><ele>70.3</ele><time>2012-05-02T07:51:39.0000000+00:00</time></trkpt><trkpt lat="42.452579" lon="18.541433"><ele>70.8</ele><time>2012-05-02T07:51:44.0000000+00:00</time></trkpt><trkpt lat="42.452579" lon="18.541431"><ele>70.7</ele><time>2012-05-02T07:51:49.0000000+00:00</time></trkpt><trkpt lat="42.452579" lon="18.541433"><ele>70.7</ele><time>2012-05-02T07:51:54.0000000+00:00</time></trkpt><trkpt lat="42.452583" lon="18.541433"><ele>70.8</ele><time>2012-05-02T07:51:59.0000000+00:00</time></trkpt><trkpt lat="42.452583" lon="18.541433"><ele>70.8</ele><time>2012-05-02T07:52:04.0000000+00:00</time></trkpt><trkpt lat="42.452583" lon="18.541433"><ele>70.8</ele><time>2012-05-02T07:52:09.0000000+00:00</time></trkpt><trkpt lat="42.452583" lon="18.541435"><ele>70.8</ele><time>2012-05-02T07:52:14.0000000+00:00</time></trkpt><trkpt lat="42.452583" lon="18.541435"><ele>70.8</ele><time>2012-05-02T07:52:19.0000000+00:00</time></trkpt><trkpt lat="42.452583" lon="18.541435"><ele>70.8</ele><time>2012-05-02T07:52:24.0000000+00:00</time></trkpt><trkpt lat="42.452587" lon="18.541435"><ele>70.8</ele><time>2012-05-02T07:52:29.0000000+00:00</time></trkpt><trkpt lat="42.452587" lon="18.541437"><ele>70.8</ele><time>2012-05-02T07:52:34.0000000+00:00</time></trkpt><trkpt lat="42.452587" lon="18.541437"><ele>70.8</ele><time>2012-05-02T07:52:39.0000000+00:00</time></trkpt><trkpt lat="42.452587" lon="18.541437"><ele>70.8</ele><time>2012-05-02T07:52:44.0000000+00:00</time></trkpt><trkpt lat="42.452587" lon="18.541437"><ele>70.8</ele><time>2012-05-02T07:52:49.0000000+00:00</time></trkpt><trkpt lat="42.452587" lon="18.541437"><ele>70.8</ele><time>2012-05-02T07:52:54.0000000+00:00</time></trkpt><trkpt lat="42.452587" lon="18.541437"><ele>70.8</ele><time>2012-05-02T07:52:59.0000000+00:00</time></trkpt><trkpt lat="42.452587" lon="18.541437"><ele>70.8</ele><time>2012-05-02T07:53:04.0000000+00:00</time></trkpt><trkpt lat="42.452587" lon="18.541437"><ele>70.7</ele><time>2012-05-02T07:53:09.0000000+00:00</time></trkpt><trkpt lat="42.452587" lon="18.541437"><ele>70.7</ele><time>2012-05-02T07:53:14.0000000+00:00</time></trkpt><trkpt lat="42.452591" lon="18.541437"><ele>70.7</ele><time>2012-05-02T07:53:19.0000000+00:00</time></trkpt><trkpt lat="42.452591" lon="18.541437"><ele>70.7</ele><time>2012-05-02T07:53:24.0000000+00:00</time></trkpt><trkpt lat="42.452591" lon="18.541437"><ele>70.7</ele><time>2012-05-02T07:53:29.0000000+00:00</time></trkpt><trkpt lat="42.452591" lon="18.541437"><ele>70.7</ele><time>2012-05-02T07:53:34.0000000+00:00</time></trkpt><trkpt lat="42.452591" lon="18.541437"><ele>70.7</ele><time>2012-05-02T07:53:39.0000000+00:00</time></trkpt><trkpt lat="42.452591" lon="18.541437"><ele>70.6</ele><time>2012-05-02T07:53:44.0000000+00:00</time></trkpt><trkpt lat="42.452591" lon="18.541437"><ele>70.6</ele><time>2012-05-02T07:53:49.0000000+00:00</time></trkpt><trkpt lat="42.452591" lon="18.541437"><ele>70.6</ele><time>2012-05-02T07:53:54.0000000+00:00</time></trkpt><trkpt lat="42.452591" lon="18.541437"><ele>70.6</ele><time>2012-05-02T07:53:59.0000000+00:00</time></trkpt><trkpt lat="42.452591" lon="18.541437"><ele>70.6</ele><time>2012-05-02T07:54:04.0000000+00:00</time></trkpt><trkpt lat="42.452591" lon="18.541437"><ele>70.5</ele><time>2012-05-02T07:54:09.0000000+00:00</time></trkpt><trkpt lat="42.452591" lon="18.541437"><ele>70.5</ele><time>2012-05-02T07:54:14.0000000+00:00</time></trkpt><trkpt lat="42.452591" lon="18.541437"><ele>70.5</ele><time>2012-05-02T07:54:19.0000000+00:00</time></trkpt><trkpt lat="42.452591" lon="18.541437"><ele>70.5</ele><time>2012-05-02T07:54:24.0000000+00:00</time></trkpt><trkpt lat="42.452591" lon="18.541437"><ele>70.5</ele><time>2012-05-02T07:54:29.0000000+00:00</time></trkpt><trkpt lat="42.452591" lon="18.541437"><ele>70.5</ele><time>2012-05-02T07:54:34.0000000+00:00</time></trkpt><trkpt lat="42.452591" lon="18.541437"><ele>70.5</ele><time>2012-05-02T07:54:39.0000000+00:00</time></trkpt><trkpt lat="42.452591" lon="18.541437"><ele>70.5</ele><time>2012-05-02T07:54:44.0000000+00:00</time></trkpt><trkpt lat="42.452591" lon="18.541437"><ele>70.5</ele><time>2012-05-02T07:54:49.0000000+00:00</time></trkpt><trkpt lat="42.452591" lon="18.541437"><ele>70.5</ele><time>2012-05-02T07:54:54.0000000+00:00</time></trkpt><trkpt lat="42.452591" lon="18.541437"><ele>70.5</ele><time>2012-05-02T07:54:59.0000000+00:00</time></trkpt><trkpt lat="42.452595" lon="18.541437"><ele>70.5</ele><time>2012-05-02T07:55:04.0000000+00:00</time></trkpt><trkpt lat="42.452595" lon="18.541437"><ele>70.4</ele><time>2012-05-02T07:55:09.0000000+00:00</time></trkpt><trkpt lat="42.452595" lon="18.541437"><ele>70.4</ele><time>2012-05-02T07:55:14.0000000+00:00</time></trkpt><trkpt lat="42.452595" lon="18.541437"><ele>70.4</ele><time>2012-05-02T07:55:19.0000000+00:00</time></trkpt><trkpt lat="42.452595" lon="18.541437"><ele>70.5</ele><time>2012-05-02T07:55:24.0000000+00:00</time></trkpt><trkpt lat="42.452595" lon="18.541437"><ele>70.5</ele><time>2012-05-02T07:55:29.0000000+00:00</time></trkpt><trkpt lat="42.452595" lon="18.541437"><ele>70.5</ele><time>2012-05-02T07:55:34.0000000+00:00</time></trkpt><trkpt lat="42.452595" lon="18.541437"><ele>70.4</ele><time>2012-05-02T07:55:39.0000000+00:00</time></trkpt><trkpt lat="42.452595" lon="18.541437"><ele>70.5</ele><time>2012-05-02T07:55:44.0000000+00:00</time></trkpt><trkpt lat="42.452595" lon="18.541437"><ele>70.4</ele><time>2012-05-02T07:55:49.0000000+00:00</time></trkpt><trkpt lat="42.452595" lon="18.541437"><ele>70.4</ele><time>2012-05-02T07:55:54.0000000+00:00</time></trkpt><trkpt lat="42.452595" lon="18.541439"><ele>70.4</ele><time>2012-05-02T07:55:59.0000000+00:00</time></trkpt><trkpt lat="42.452595" lon="18.541439"><ele>70.4</ele><time>2012-05-02T07:56:04.0000000+00:00</time></trkpt><trkpt lat="42.452595" lon="18.541439"><ele>70.4</ele><time>2012-05-02T07:56:09.0000000+00:00</time></trkpt><trkpt lat="42.452595" lon="18.541439"><ele>70.4</ele><time>2012-05-02T07:56:14.0000000+00:00</time></trkpt><trkpt lat="42.452595" lon="18.541439"><ele>70.4</ele><time>2012-05-02T07:56:19.0000000+00:00</time></trkpt><trkpt lat="42.452595" lon="18.541439"><ele>70.3</ele><time>2012-05-02T07:56:24.0000000+00:00</time></trkpt><trkpt lat="42.452595" lon="18.541439"><ele>70.3</ele><time>2012-05-02T07:56:29.0000000+00:00</time></trkpt><trkpt lat="42.452595" lon="18.541439"><ele>70.3</ele><time>2012-05-02T07:56:34.0000000+00:00</time></trkpt><trkpt lat="42.452595" lon="18.541439"><ele>70.3</ele><time>2012-05-02T07:56:39.0000000+00:00</time></trkpt><trkpt lat="42.452595" lon="18.541439"><ele>70.2</ele><time>2012-05-02T07:56:44.0000000+00:00</time></trkpt><trkpt lat="42.452595" lon="18.541439"><ele>70.2</ele><time>2012-05-02T07:56:49.0000000+00:00</time></trkpt><trkpt lat="42.452595" lon="18.541439"><ele>70.2</ele><time>2012-05-02T07:56:54.0000000+00:00</time></trkpt><trkpt lat="42.452595" lon="18.541439"><ele>70.1</ele><time>2012-05-02T07:56:59.0000000+00:00</time></trkpt><trkpt lat="42.452595" lon="18.541439"><ele>70.1</ele><time>2012-05-02T07:57:04.0000000+00:00</time></trkpt><trkpt lat="42.452595" lon="18.541439"><ele>70.1</ele><time>2012-05-02T07:57:09.0000000+00:00</time></trkpt><trkpt lat="42.452595" lon="18.541439"><ele>70.1</ele><time>2012-05-02T07:57:14.0000000+00:00</time></trkpt><trkpt lat="42.452595" lon="18.541439"><ele>70.1</ele><time>2012-05-02T07:57:19.0000000+00:00</time></trkpt><trkpt lat="42.452595" lon="18.541439"><ele>70.1</ele><time>2012-05-02T07:57:24.0000000+00:00</time></trkpt><trkpt lat="42.452595" lon="18.541439"><ele>70.1</ele><time>2012-05-02T07:57:29.0000000+00:00</time></trkpt><trkpt lat="42.452595" lon="18.541439"><ele>70.1</ele><time>2012-05-02T07:57:34.0000000+00:00</time></trkpt><trkpt lat="42.452595" lon="18.541439"><ele>70.1</ele><time>2012-05-02T07:57:39.0000000+00:00</time></trkpt><trkpt lat="42.452599" lon="18.541439"><ele>70.1</ele><time>2012-05-02T07:57:44.0000000+00:00</time></trkpt><trkpt lat="42.452599" lon="18.541439"><ele>70.1</ele><time>2012-05-02T07:57:49.0000000+00:00</time></trkpt><trkpt lat="42.452599" lon="18.541439"><ele>70.1</ele><time>2012-05-02T07:57:54.0000000+00:00</time></trkpt><trkpt lat="42.452599" lon="18.541439"><ele>70.1</ele><time>2012-05-02T07:57:59.0000000+00:00</time></trkpt><trkpt lat="42.452599" lon="18.541439"><ele>70.1</ele><time>2012-05-02T07:58:04.0000000+00:00</time></trkpt><trkpt lat="42.452599" lon="18.541439"><ele>70.1</ele><time>2012-05-02T07:58:09.0000000+00:00</time></trkpt><trkpt lat="42.452599" lon="18.541439"><ele>70.1</ele><time>2012-05-02T07:58:14.0000000+00:00</time></trkpt><trkpt lat="42.452599" lon="18.541439"><ele>70.1</ele><time>2012-05-02T07:58:19.0000000+00:00</time></trkpt><trkpt lat="42.452599" lon="18.541439"><ele>70.1</ele><time>2012-05-02T07:58:24.0000000+00:00</time></trkpt><trkpt lat="42.452599" lon="18.541439"><ele>70.1</ele><time>2012-05-02T07:58:29.0000000+00:00</time></trkpt><trkpt lat="42.452599" lon="18.541439"><ele>70.1</ele><time>2012-05-02T07:58:34.0000000+00:00</time></trkpt><trkpt lat="42.452599" lon="18.541439"><ele>70.1</ele><time>2012-05-02T07:58:39.0000000+00:00</time></trkpt><trkpt lat="42.452599" lon="18.541441"><ele>70.1</ele><time>2012-05-02T07:58:44.0000000+00:00</time></trkpt><trkpt lat="42.452599" lon="18.541441"><ele>70.1</ele><time>2012-05-02T07:58:49.0000000+00:00</time></trkpt><trkpt lat="42.452599" lon="18.541441"><ele>70.1</ele><time>2012-05-02T07:58:54.0000000+00:00</time></trkpt><trkpt lat="42.452599" lon="18.541441"><ele>70.1</ele><time>2012-05-02T07:58:59.0000000+00:00</time></trkpt><trkpt lat="42.452599" lon="18.541441"><ele>70.1</ele><time>2012-05-02T07:59:04.0000000+00:00</time></trkpt><trkpt lat="42.452599" lon="18.541441"><ele>70.1</ele><time>2012-05-02T07:59:09.0000000+00:00</time></trkpt><trkpt lat="42.452599" lon="18.541441"><ele>70.1</ele><time>2012-05-02T07:59:14.0000000+00:00</time></trkpt><trkpt lat="42.452599" lon="18.541441"><ele>70.1</ele><time>2012-05-02T07:59:19.0000000+00:00</time></trkpt><trkpt lat="42.452599" lon="18.541441"><ele>70.1</ele><time>2012-05-02T07:59:24.0000000+00:00</time></trkpt><trkpt lat="42.452599" lon="18.541441"><ele>70.1</ele><time>2012-05-02T07:59:29.0000000+00:00</time></trkpt><trkpt lat="42.452599" lon="18.541441"><ele>70.1</ele><time>2012-05-02T07:59:34.0000000+00:00</time></trkpt><trkpt lat="42.452599" lon="18.541441"><ele>70.0</ele><time>2012-05-02T07:59:39.0000000+00:00</time></trkpt><trkpt lat="42.452599" lon="18.541443"><ele>70.0</ele><time>2012-05-02T07:59:44.0000000+00:00</time></trkpt><trkpt lat="42.452599" lon="18.541443"><ele>70.1</ele><time>2012-05-02T07:59:49.0000000+00:00</time></trkpt><trkpt lat="42.452599" lon="18.541443"><ele>70.1</ele><time>2012-05-02T07:59:54.0000000+00:00</time></trkpt><trkpt lat="42.452599" lon="18.541443"><ele>70.1</ele><time>2012-05-02T07:59:59.0000000+00:00</time></trkpt><trkpt lat="42.452599" lon="18.541443"><ele>70.1</ele><time>2012-05-02T08:00:04.0000000+00:00</time></trkpt><trkpt lat="42.452599" lon="18.541443"><ele>70.1</ele><time>2012-05-02T08:00:09.0000000+00:00</time></trkpt><trkpt lat="42.452599" lon="18.541443"><ele>70.1</ele><time>2012-05-02T08:00:14.0000000+00:00</time></trkpt><trkpt lat="42.452599" lon="18.541443"><ele>70.1</ele><time>2012-05-02T08:00:19.0000000+00:00</time></trkpt><trkpt lat="42.452599" lon="18.541443"><ele>70.1</ele><time>2012-05-02T08:00:24.0000000+00:00</time></trkpt><trkpt lat="42.452599" lon="18.541443"><ele>70.1</ele><time>2012-05-02T08:00:29.0000000+00:00</time></trkpt><trkpt lat="42.452599" lon="18.541445"><ele>70.1</ele><time>2012-05-02T08:00:34.0000000+00:00</time></trkpt><trkpt lat="42.452599" lon="18.541445"><ele>70.1</ele><time>2012-05-02T08:00:39.0000000+00:00</time></trkpt><trkpt lat="42.452599" lon="18.541445"><ele>70.1</ele><time>2012-05-02T08:00:44.0000000+00:00</time></trkpt><trkpt lat="42.452599" lon="18.541445"><ele>70.1</ele><time>2012-05-02T08:00:49.0000000+00:00</time></trkpt><trkpt lat="42.452599" lon="18.541445"><ele>70.1</ele><time>2012-05-02T08:00:54.0000000+00:00</time></trkpt><trkpt lat="42.452602" lon="18.541445"><ele>70.2</ele><time>2012-05-02T08:00:59.0000000+00:00</time></trkpt><trkpt lat="42.452602" lon="18.541445"><ele>70.2</ele><time>2012-05-02T08:01:04.0000000+00:00</time></trkpt><trkpt lat="42.452602" lon="18.541445"><ele>70.2</ele><time>2012-05-02T08:01:09.0000000+00:00</time></trkpt><trkpt lat="42.452602" lon="18.541445"><ele>70.2</ele><time>2012-05-02T08:01:14.0000000+00:00</time></trkpt><trkpt lat="42.452602" lon="18.541445"><ele>70.2</ele><time>2012-05-02T08:01:19.0000000+00:00</time></trkpt><trkpt lat="42.452602" lon="18.541445"><ele>70.2</ele><time>2012-05-02T08:01:24.0000000+00:00</time></trkpt><trkpt lat="42.452587" lon="18.541445"><ele>70.7</ele><time>2012-05-02T08:01:29.0000000+00:00</time></trkpt><trkpt lat="42.452572" lon="18.541449"><ele>70.5</ele><time>2012-05-02T08:01:34.0000000+00:00</time></trkpt><trkpt lat="42.452576" lon="18.541422"><ele>71.0</ele><time>2012-05-02T08:01:39.0000000+00:00</time></trkpt><trkpt lat="42.452599" lon="18.541288"><ele>72.0</ele><time>2012-05-02T08:01:44.0000000+00:00</time></trkpt><trkpt lat="42.452621" lon="18.541075"><ele>73.0</ele><time>2012-05-02T08:01:49.0000000+00:00</time></trkpt><trkpt lat="42.452633" lon="18.540794"><ele>73.4</ele><time>2012-05-02T08:01:54.0000000+00:00</time></trkpt><trkpt lat="42.452633" lon="18.540461"><ele>73.9</ele><time>2012-05-02T08:01:59.0000000+00:00</time></trkpt><trkpt lat="42.452648" lon="18.54018"><ele>74.1</ele><time>2012-05-02T08:02:04.0000000+00:00</time></trkpt><trkpt lat="42.452679" lon="18.539902"><ele>75.0</ele><time>2012-05-02T08:02:09.0000000+00:00</time></trkpt><trkpt lat="42.452713" lon="18.539709"><ele>77.0</ele><time>2012-05-02T08:02:14.0000000+00:00</time></trkpt><trkpt lat="42.45274" lon="18.539459"><ele>79.4</ele><time>2012-05-02T08:02:19.0000000+00:00</time></trkpt><trkpt lat="42.452759" lon="18.539312"><ele>83.8</ele><time>2012-05-02T08:02:24.0000000+00:00</time></trkpt><trkpt lat="42.452755" lon="18.539213"><ele>85.0</ele><time>2012-05-02T08:02:29.0000000+00:00</time></trkpt><trkpt lat="42.452732" lon="18.539076"><ele>85.8</ele><time>2012-05-02T08:02:34.0000000+00:00</time></trkpt><trkpt lat="42.45266" lon="18.538921"><ele>87.5</ele><time>2012-05-02T08:02:39.0000000+00:00</time></trkpt><trkpt lat="42.452637" lon="18.538774"><ele>88.5</ele><time>2012-05-02T08:02:44.0000000+00:00</time></trkpt><trkpt lat="42.452648" lon="18.538637"><ele>88.9</ele><time>2012-05-02T08:02:49.0000000+00:00</time></trkpt><trkpt lat="42.452698" lon="18.538525"><ele>90.0</ele><time>2012-05-02T08:02:54.0000000+00:00</time></trkpt><trkpt lat="42.452766" lon="18.538406"><ele>88.9</ele><time>2012-05-02T08:02:59.0000000+00:00</time></trkpt><trkpt lat="42.452827" lon="18.538292"><ele>89.8</ele><time>2012-05-02T08:03:04.0000000+00:00</time></trkpt><trkpt lat="42.452862" lon="18.538204"><ele>91.7</ele><time>2012-05-02T08:03:09.0000000+00:00</time></trkpt><trkpt lat="42.452862" lon="18.538187"><ele>92.2</ele><time>2012-05-02T08:03:14.0000000+00:00</time></trkpt><trkpt lat="42.452869" lon="18.538151"><ele>92.4</ele><time>2012-05-02T08:03:19.0000000+00:00</time></trkpt><trkpt lat="42.452839" lon="18.538069"><ele>91.8</ele><time>2012-05-02T08:03:24.0000000+00:00</time></trkpt><trkpt lat="42.452843" lon="18.538025"><ele>91.0</ele><time>2012-05-02T08:03:29.0000000+00:00</time></trkpt><trkpt lat="42.452854" lon="18.538029"><ele>91.3</ele><time>2012-05-02T08:03:34.0000000+00:00</time></trkpt><trkpt lat="42.452854" lon="18.538029"><ele>91.3</ele><time>2012-05-02T08:03:39.0000000+00:00</time></trkpt><trkpt lat="42.452854" lon="18.538029"><ele>91.3</ele><time>2012-05-02T08:03:44.0000000+00:00</time></trkpt><trkpt lat="42.452854" lon="18.538029"><ele>91.3</ele><time>2012-05-02T08:03:49.0000000+00:00</time></trkpt><trkpt lat="42.452869" lon="18.538015"><ele>91.4</ele><time>2012-05-02T08:03:54.0000000+00:00</time></trkpt><trkpt lat="42.452911" lon="18.537962"><ele>92.8</ele><time>2012-05-02T08:03:59.0000000+00:00</time></trkpt><trkpt lat="42.452923" lon="18.537802"><ele>94.1</ele><time>2012-05-02T08:04:04.0000000+00:00</time></trkpt><trkpt lat="42.452953" lon="18.53758"><ele>95.0</ele><time>2012-05-02T08:04:09.0000000+00:00</time></trkpt><trkpt lat="42.453014" lon="18.537365"><ele>95.1</ele><time>2012-05-02T08:04:14.0000000+00:00</time></trkpt><trkpt lat="42.453072" lon="18.537203"><ele>94.6</ele><time>2012-05-02T08:04:19.0000000+00:00</time></trkpt><trkpt lat="42.45311" lon="18.537085"><ele>94.0</ele><time>2012-05-02T08:04:24.0000000+00:00</time></trkpt><trkpt lat="42.453117" lon="18.537056"><ele>92.1</ele><time>2012-05-02T08:04:29.0000000+00:00</time></trkpt><trkpt lat="42.453117" lon="18.537056"><ele>92.1</ele><time>2012-05-02T08:04:34.0000000+00:00</time></trkpt><trkpt lat="42.453117" lon="18.537054"><ele>92.0</ele><time>2012-05-02T08:04:39.0000000+00:00</time></trkpt><trkpt lat="42.453117" lon="18.537056"><ele>91.9</ele><time>2012-05-02T08:04:44.0000000+00:00</time></trkpt><trkpt lat="42.453117" lon="18.537056"><ele>91.9</ele><time>2012-05-02T08:04:49.0000000+00:00</time></trkpt><trkpt lat="42.453121" lon="18.537045"><ele>91.7</ele><time>2012-05-02T08:04:54.0000000+00:00</time></trkpt><trkpt lat="42.453121" lon="18.537045"><ele>91.8</ele><time>2012-05-02T08:04:59.0000000+00:00</time></trkpt><trkpt lat="42.453159" lon="18.537001"><ele>91.7</ele><time>2012-05-02T08:05:04.0000000+00:00</time></trkpt><trkpt lat="42.453232" lon="18.536758"><ele>90.8</ele><time>2012-05-02T08:05:09.0000000+00:00</time></trkpt><trkpt lat="42.453232" lon="18.536421"><ele>89.5</ele><time>2012-05-02T08:05:14.0000000+00:00</time></trkpt><trkpt lat="42.453224" lon="18.536015"><ele>88.1</ele><time>2012-05-02T08:05:19.0000000+00:00</time></trkpt><trkpt lat="42.453209" lon="18.535583"><ele>86.8</ele><time>2012-05-02T08:05:24.0000000+00:00</time></trkpt><trkpt lat="42.453186" lon="18.535145"><ele>85.7</ele><time>2012-05-02T08:05:29.0000000+00:00</time></trkpt><trkpt lat="42.453167" lon="18.534695"><ele>84.5</ele><time>2012-05-02T08:05:34.0000000+00:00</time></trkpt><trkpt lat="42.453159" lon="18.534262"><ele>83.3</ele><time>2012-05-02T08:05:39.0000000+00:00</time></trkpt><trkpt lat="42.453171" lon="18.534077"><ele>82.3</ele><time>2012-05-02T08:05:44.0000000+00:00</time></trkpt><trkpt lat="42.453178" lon="18.534025"><ele>82.3</ele><time>2012-05-02T08:05:49.0000000+00:00</time></trkpt><trkpt lat="42.45311" lon="18.533978"><ele>83.1</ele><time>2012-05-02T08:05:54.0000000+00:00</time></trkpt><trkpt lat="42.453079" lon="18.533966"><ele>82.7</ele><time>2012-05-02T08:05:59.0000000+00:00</time></trkpt><trkpt lat="42.453053" lon="18.534004"><ele>83.3</ele><time>2012-05-02T08:06:04.0000000+00:00</time></trkpt><trkpt lat="42.453045" lon="18.534023"><ele>83.6</ele><time>2012-05-02T08:06:09.0000000+00:00</time></trkpt><trkpt lat="42.453045" lon="18.534025"><ele>83.8</ele><time>2012-05-02T08:06:14.0000000+00:00</time></trkpt><trkpt lat="42.452988" lon="18.534067"><ele>82.7</ele><time>2012-05-02T08:06:19.0000000+00:00</time></trkpt><trkpt lat="42.452972" lon="18.534109"><ele>81.4</ele><time>2012-05-02T08:06:24.0000000+00:00</time></trkpt><trkpt lat="42.452972" lon="18.534105"><ele>81.6</ele><time>2012-05-02T08:06:29.0000000+00:00</time></trkpt><trkpt lat="42.452972" lon="18.534105"><ele>81.6</ele><time>2012-05-02T08:06:34.0000000+00:00</time></trkpt><trkpt lat="42.452972" lon="18.534107"><ele>81.6</ele><time>2012-05-02T08:06:39.0000000+00:00</time></trkpt><trkpt lat="42.452953" lon="18.534126"><ele>82.1</ele><time>2012-05-02T08:06:44.0000000+00:00</time></trkpt><trkpt lat="42.452946" lon="18.534088"><ele>82.2</ele><time>2012-05-02T08:06:49.0000000+00:00</time></trkpt><trkpt lat="42.45293" lon="18.534092"><ele>82.4</ele><time>2012-05-02T08:06:54.0000000+00:00</time></trkpt><trkpt lat="42.452908" lon="18.534103"><ele>82.7</ele><time>2012-05-02T08:06:59.0000000+00:00</time></trkpt><trkpt lat="42.452866" lon="18.534079"><ele>82.5</ele><time>2012-05-02T08:07:04.0000000+00:00</time></trkpt><trkpt lat="42.452839" lon="18.534069"><ele>82.3</ele><time>2012-05-02T08:07:09.0000000+00:00</time></trkpt><trkpt lat="42.45282" lon="18.534084"><ele>82.2</ele><time>2012-05-02T08:07:14.0000000+00:00</time></trkpt><trkpt lat="42.452812" lon="18.534113"><ele>82.1</ele><time>2012-05-02T08:07:19.0000000+00:00</time></trkpt><trkpt lat="42.45282" lon="18.534132"><ele>82.1</ele><time>2012-05-02T08:07:24.0000000+00:00</time></trkpt><trkpt lat="42.452854" lon="18.53417"><ele>82.1</ele><time>2012-05-02T08:07:29.0000000+00:00</time></trkpt><trkpt lat="42.452915" lon="18.534224"><ele>82.1</ele><time>2012-05-02T08:07:34.0000000+00:00</time></trkpt><trkpt lat="42.452972" lon="18.534241"><ele>82.1</ele><time>2012-05-02T08:07:39.0000000+00:00</time></trkpt><trkpt lat="42.452991" lon="18.534245"><ele>82.1</ele><time>2012-05-02T08:07:44.0000000+00:00</time></trkpt><trkpt lat="42.453003" lon="18.534231"><ele>82.2</ele><time>2012-05-02T08:07:49.0000000+00:00</time></trkpt><trkpt lat="42.453003" lon="18.534235"><ele>82.3</ele><time>2012-05-02T08:07:54.0000000+00:00</time></trkpt><trkpt lat="42.453007" lon="18.534243"><ele>82.3</ele><time>2012-05-02T08:07:59.0000000+00:00</time></trkpt><trkpt lat="42.452999" lon="18.534252"><ele>82.3</ele><time>2012-05-02T08:08:04.0000000+00:00</time></trkpt><trkpt lat="42.45298" lon="18.534248"><ele>82.4</ele><time>2012-05-02T08:08:09.0000000+00:00</time></trkpt><trkpt lat="42.452934" lon="18.534233"><ele>82.5</ele><time>2012-05-02T08:08:14.0000000+00:00</time></trkpt><trkpt lat="42.4529" lon="18.534227"><ele>82.7</ele><time>2012-05-02T08:08:19.0000000+00:00</time></trkpt><trkpt lat="42.452862" lon="18.534229"><ele>82.9</ele><time>2012-05-02T08:08:24.0000000+00:00</time></trkpt><trkpt lat="42.452827" lon="18.534252"><ele>83.0</ele><time>2012-05-02T08:08:29.0000000+00:00</time></trkpt><trkpt lat="42.452827" lon="18.534237"><ele>83.1</ele><time>2012-05-02T08:08:34.0000000+00:00</time></trkpt><trkpt lat="42.452839" lon="18.534233"><ele>83.2</ele><time>2012-05-02T08:08:39.0000000+00:00</time></trkpt><trkpt lat="42.452831" lon="18.534241"><ele>83.2</ele><time>2012-05-02T08:08:44.0000000+00:00</time></trkpt><trkpt lat="42.452869" lon="18.534248"><ele>83.3</ele><time>2012-05-02T08:08:49.0000000+00:00</time></trkpt><trkpt lat="42.452911" lon="18.534267"><ele>83.3</ele><time>2012-05-02T08:08:54.0000000+00:00</time></trkpt><trkpt lat="42.452946" lon="18.534277"><ele>83.3</ele><time>2012-05-02T08:08:59.0000000+00:00</time></trkpt><trkpt lat="42.452988" lon="18.534279"><ele>83.2</ele><time>2012-05-02T08:09:04.0000000+00:00</time></trkpt><trkpt lat="42.453011" lon="18.534239"><ele>83.1</ele><time>2012-05-02T08:09:09.0000000+00:00</time></trkpt><trkpt lat="42.452988" lon="18.53421"><ele>83.2</ele><time>2012-05-02T08:09:14.0000000+00:00</time></trkpt><trkpt lat="42.452934" lon="18.534184"><ele>83.4</ele><time>2012-05-02T08:09:19.0000000+00:00</time></trkpt><trkpt lat="42.452969" lon="18.534164"><ele>82.9</ele><time>2012-05-02T08:09:24.0000000+00:00</time></trkpt><trkpt lat="42.452984" lon="18.534132"><ele>80.6</ele><time>2012-05-02T08:09:29.0000000+00:00</time></trkpt><trkpt lat="42.452988" lon="18.534124"><ele>80.2</ele><time>2012-05-02T08:09:34.0000000+00:00</time></trkpt><trkpt lat="42.452988" lon="18.534122"><ele>79.5</ele><time>2012-05-02T08:09:39.0000000+00:00</time></trkpt><trkpt lat="42.452988" lon="18.534122"><ele>79.5</ele><time>2012-05-02T08:09:44.0000000+00:00</time></trkpt><trkpt lat="42.452988" lon="18.534122"><ele>79.5</ele><time>2012-05-02T08:09:49.0000000+00:00</time></trkpt><trkpt lat="42.452988" lon="18.534122"><ele>79.5</ele><time>2012-05-02T08:09:54.0000000+00:00</time></trkpt><trkpt lat="42.452988" lon="18.534121"><ele>79.5</ele><time>2012-05-02T08:09:59.0000000+00:00</time></trkpt><trkpt lat="42.452988" lon="18.534121"><ele>79.5</ele><time>2012-05-02T08:10:04.0000000+00:00</time></trkpt><trkpt lat="42.452988" lon="18.534121"><ele>79.5</ele><time>2012-05-02T08:10:09.0000000+00:00</time></trkpt><trkpt lat="42.452988" lon="18.534121"><ele>79.5</ele><time>2012-05-02T08:10:14.0000000+00:00</time></trkpt><trkpt lat="42.452988" lon="18.534121"><ele>79.5</ele><time>2012-05-02T08:10:19.0000000+00:00</time></trkpt><trkpt lat="42.452988" lon="18.534121"><ele>79.5</ele><time>2012-05-02T08:10:24.0000000+00:00</time></trkpt><trkpt lat="42.452988" lon="18.534121"><ele>79.5</ele><time>2012-05-02T08:10:29.0000000+00:00</time></trkpt><trkpt lat="42.452988" lon="18.534121"><ele>79.5</ele><time>2012-05-02T08:10:34.0000000+00:00</time></trkpt><trkpt lat="42.452988" lon="18.534119"><ele>79.5</ele><time>2012-05-02T08:10:39.0000000+00:00</time></trkpt><trkpt lat="42.452988" lon="18.534119"><ele>79.5</ele><time>2012-05-02T08:10:44.0000000+00:00</time></trkpt><trkpt lat="42.452988" lon="18.534119"><ele>79.5</ele><time>2012-05-02T08:10:49.0000000+00:00</time></trkpt><trkpt lat="42.452988" lon="18.534119"><ele>79.5</ele><time>2012-05-02T08:10:54.0000000+00:00</time></trkpt><trkpt lat="42.452988" lon="18.534119"><ele>79.5</ele><time>2012-05-02T08:10:59.0000000+00:00</time></trkpt><trkpt lat="42.452988" lon="18.534119"><ele>79.6</ele><time>2012-05-02T08:11:04.0000000+00:00</time></trkpt><trkpt lat="42.452988" lon="18.534119"><ele>79.6</ele><time>2012-05-02T08:11:09.0000000+00:00</time></trkpt><trkpt lat="42.452988" lon="18.534117"><ele>79.6</ele><time>2012-05-02T08:11:14.0000000+00:00</time></trkpt><trkpt lat="42.452988" lon="18.534117"><ele>79.6</ele><time>2012-05-02T08:11:19.0000000+00:00</time></trkpt><trkpt lat="42.452988" lon="18.534117"><ele>79.6</ele><time>2012-05-02T08:11:24.0000000+00:00</time></trkpt><trkpt lat="42.452988" lon="18.534117"><ele>79.6</ele><time>2012-05-02T08:11:29.0000000+00:00</time></trkpt><trkpt lat="42.452988" lon="18.534117"><ele>79.6</ele><time>2012-05-02T08:11:34.0000000+00:00</time></trkpt><trkpt lat="42.452988" lon="18.534117"><ele>79.6</ele><time>2012-05-02T08:11:39.0000000+00:00</time></trkpt><trkpt lat="42.452988" lon="18.534117"><ele>79.6</ele><time>2012-05-02T08:11:44.0000000+00:00</time></trkpt><trkpt lat="42.452988" lon="18.534115"><ele>79.6</ele><time>2012-05-02T08:11:49.0000000+00:00</time></trkpt><trkpt lat="42.452988" lon="18.534115"><ele>79.6</ele><time>2012-05-02T08:11:54.0000000+00:00</time></trkpt><trkpt lat="42.452988" lon="18.534115"><ele>79.6</ele><time>2012-05-02T08:11:59.0000000+00:00</time></trkpt><trkpt lat="42.452988" lon="18.534115"><ele>79.6</ele><time>2012-05-02T08:12:04.0000000+00:00</time></trkpt><trkpt lat="42.452988" lon="18.534115"><ele>79.6</ele><time>2012-05-02T08:12:09.0000000+00:00</time></trkpt><trkpt lat="42.452988" lon="18.534115"><ele>79.6</ele><time>2012-05-02T08:12:14.0000000+00:00</time></trkpt><trkpt lat="42.452988" lon="18.534115"><ele>79.6</ele><time>2012-05-02T08:12:19.0000000+00:00</time></trkpt><trkpt lat="42.452988" lon="18.534115"><ele>79.6</ele><time>2012-05-02T08:12:24.0000000+00:00</time></trkpt><trkpt lat="42.452988" lon="18.534115"><ele>79.6</ele><time>2012-05-02T08:12:29.0000000+00:00</time></trkpt><trkpt lat="42.452988" lon="18.534115"><ele>79.6</ele><time>2012-05-02T08:12:34.0000000+00:00</time></trkpt><trkpt lat="42.452988" lon="18.534113"><ele>79.6</ele><time>2012-05-02T08:12:39.0000000+00:00</time></trkpt><trkpt lat="42.452988" lon="18.534113"><ele>79.6</ele><time>2012-05-02T08:12:44.0000000+00:00</time></trkpt><trkpt lat="42.452988" lon="18.534113"><ele>79.6</ele><time>2012-05-02T08:12:49.0000000+00:00</time></trkpt><trkpt lat="42.452988" lon="18.534113"><ele>79.5</ele><time>2012-05-02T08:12:54.0000000+00:00</time></trkpt><trkpt lat="42.452988" lon="18.534113"><ele>79.5</ele><time>2012-05-02T08:12:59.0000000+00:00</time></trkpt><trkpt lat="42.452988" lon="18.534113"><ele>79.5</ele><time>2012-05-02T08:13:04.0000000+00:00</time></trkpt><trkpt lat="42.452988" lon="18.534113"><ele>79.5</ele><time>2012-05-02T08:13:09.0000000+00:00</time></trkpt><trkpt lat="42.452988" lon="18.534113"><ele>79.5</ele><time>2012-05-02T08:13:14.0000000+00:00</time></trkpt><trkpt lat="42.452988" lon="18.534113"><ele>79.5</ele><time>2012-05-02T08:13:19.0000000+00:00</time></trkpt><trkpt lat="42.452988" lon="18.534113"><ele>79.5</ele><time>2012-05-02T08:13:24.0000000+00:00</time></trkpt><trkpt lat="42.452988" lon="18.534111"><ele>79.5</ele><time>2012-05-02T08:13:29.0000000+00:00</time></trkpt><trkpt lat="42.452988" lon="18.534111"><ele>79.5</ele><time>2012-05-02T08:13:34.0000000+00:00</time></trkpt><trkpt lat="42.452988" lon="18.534111"><ele>79.5</ele><time>2012-05-02T08:13:39.0000000+00:00</time></trkpt><trkpt lat="42.452988" lon="18.534111"><ele>79.5</ele><time>2012-05-02T08:13:44.0000000+00:00</time></trkpt><trkpt lat="42.452988" lon="18.534111"><ele>79.5</ele><time>2012-05-02T08:13:49.0000000+00:00</time></trkpt><trkpt lat="42.452988" lon="18.534111"><ele>79.5</ele><time>2012-05-02T08:13:54.0000000+00:00</time></trkpt><trkpt lat="42.452988" lon="18.534111"><ele>79.5</ele><time>2012-05-02T08:13:59.0000000+00:00</time></trkpt><trkpt lat="42.452988" lon="18.534109"><ele>79.5</ele><time>2012-05-02T08:14:04.0000000+00:00</time></trkpt><trkpt lat="42.452988" lon="18.534109"><ele>79.5</ele><time>2012-05-02T08:14:09.0000000+00:00</time></trkpt><trkpt lat="42.452988" lon="18.534107"><ele>79.5</ele><time>2012-05-02T08:14:14.0000000+00:00</time></trkpt><trkpt lat="42.452984" lon="18.534107"><ele>79.4</ele><time>2012-05-02T08:14:19.0000000+00:00</time></trkpt><trkpt lat="42.452984" lon="18.534107"><ele>79.4</ele><time>2012-05-02T08:14:24.0000000+00:00</time></trkpt><trkpt lat="42.452984" lon="18.534105"><ele>79.4</ele><time>2012-05-02T08:14:29.0000000+00:00</time></trkpt><trkpt lat="42.452984" lon="18.534105"><ele>79.3</ele><time>2012-05-02T08:14:34.0000000+00:00</time></trkpt><trkpt lat="42.452984" lon="18.534103"><ele>79.3</ele><time>2012-05-02T08:14:39.0000000+00:00</time></trkpt><trkpt lat="42.452984" lon="18.534103"><ele>79.3</ele><time>2012-05-02T08:14:44.0000000+00:00</time></trkpt><trkpt lat="42.452984" lon="18.534103"><ele>79.3</ele><time>2012-05-02T08:14:49.0000000+00:00</time></trkpt><trkpt lat="42.45298" lon="18.534101"><ele>79.3</ele><time>2012-05-02T08:14:54.0000000+00:00</time></trkpt><trkpt lat="42.45298" lon="18.534101"><ele>79.3</ele><time>2012-05-02T08:14:59.0000000+00:00</time></trkpt><trkpt lat="42.45298" lon="18.534101"><ele>79.2</ele><time>2012-05-02T08:15:04.0000000+00:00</time></trkpt><trkpt lat="42.45298" lon="18.5341"><ele>79.2</ele><time>2012-05-02T08:15:09.0000000+00:00</time></trkpt><trkpt lat="42.45298" lon="18.5341"><ele>79.2</ele><time>2012-05-02T08:15:14.0000000+00:00</time></trkpt><trkpt lat="42.45298" lon="18.5341"><ele>79.2</ele><time>2012-05-02T08:15:19.0000000+00:00</time></trkpt><trkpt lat="42.45298" lon="18.5341"><ele>79.2</ele><time>2012-05-02T08:15:24.0000000+00:00</time></trkpt><trkpt lat="42.45298" lon="18.5341"><ele>79.2</ele><time>2012-05-02T08:15:29.0000000+00:00</time></trkpt><trkpt lat="42.45298" lon="18.5341"><ele>79.2</ele><time>2012-05-02T08:15:34.0000000+00:00</time></trkpt><trkpt lat="42.45298" lon="18.5341"><ele>79.2</ele><time>2012-05-02T08:15:39.0000000+00:00</time></trkpt><trkpt lat="42.45298" lon="18.5341"><ele>79.2</ele><time>2012-05-02T08:15:44.0000000+00:00</time></trkpt><trkpt lat="42.45298" lon="18.5341"><ele>79.2</ele><time>2012-05-02T08:15:49.0000000+00:00</time></trkpt><trkpt lat="42.45298" lon="18.5341"><ele>79.2</ele><time>2012-05-02T08:15:54.0000000+00:00</time></trkpt><trkpt lat="42.45298" lon="18.5341"><ele>79.2</ele><time>2012-05-02T08:15:59.0000000+00:00</time></trkpt><trkpt lat="42.45298" lon="18.5341"><ele>79.2</ele><time>2012-05-02T08:16:04.0000000+00:00</time></trkpt><trkpt lat="42.452984" lon="18.5341"><ele>79.2</ele><time>2012-05-02T08:16:09.0000000+00:00</time></trkpt><trkpt lat="42.452984" lon="18.5341"><ele>79.2</ele><time>2012-05-02T08:16:14.0000000+00:00</time></trkpt><trkpt lat="42.452984" lon="18.5341"><ele>79.2</ele><time>2012-05-02T08:16:19.0000000+00:00</time></trkpt><trkpt lat="42.452984" lon="18.5341"><ele>79.3</ele><time>2012-05-02T08:16:24.0000000+00:00</time></trkpt><trkpt lat="42.452984" lon="18.5341"><ele>79.3</ele><time>2012-05-02T08:16:29.0000000+00:00</time></trkpt><trkpt lat="42.452984" lon="18.5341"><ele>79.3</ele><time>2012-05-02T08:16:34.0000000+00:00</time></trkpt><trkpt lat="42.452984" lon="18.5341"><ele>79.3</ele><time>2012-05-02T08:16:39.0000000+00:00</time></trkpt><trkpt lat="42.452984" lon="18.534098"><ele>79.3</ele><time>2012-05-02T08:16:44.0000000+00:00</time></trkpt><trkpt lat="42.452984" lon="18.534098"><ele>79.3</ele><time>2012-05-02T08:16:49.0000000+00:00</time></trkpt><trkpt lat="42.452984" lon="18.534098"><ele>79.3</ele><time>2012-05-02T08:16:54.0000000+00:00</time></trkpt><trkpt lat="42.452984" lon="18.534098"><ele>79.3</ele><time>2012-05-02T08:16:59.0000000+00:00</time></trkpt><trkpt lat="42.452984" lon="18.534098"><ele>79.3</ele><time>2012-05-02T08:17:04.0000000+00:00</time></trkpt><trkpt lat="42.452984" lon="18.534098"><ele>79.3</ele><time>2012-05-02T08:17:09.0000000+00:00</time></trkpt><trkpt lat="42.452984" lon="18.534098"><ele>79.3</ele><time>2012-05-02T08:17:14.0000000+00:00</time></trkpt><trkpt lat="42.452984" lon="18.534098"><ele>79.3</ele><time>2012-05-02T08:17:19.0000000+00:00</time></trkpt><trkpt lat="42.452984" lon="18.534098"><ele>79.3</ele><time>2012-05-02T08:17:24.0000000+00:00</time></trkpt><trkpt lat="42.452984" lon="18.534098"><ele>79.3</ele><time>2012-05-02T08:17:29.0000000+00:00</time></trkpt><trkpt lat="42.452984" lon="18.534096"><ele>79.3</ele><time>2012-05-02T08:17:34.0000000+00:00</time></trkpt><trkpt lat="42.452984" lon="18.534096"><ele>79.3</ele><time>2012-05-02T08:17:39.0000000+00:00</time></trkpt><trkpt lat="42.452984" lon="18.534096"><ele>79.3</ele><time>2012-05-02T08:17:44.0000000+00:00</time></trkpt><trkpt lat="42.452984" lon="18.534096"><ele>79.3</ele><time>2012-05-02T08:17:49.0000000+00:00</time></trkpt><trkpt lat="42.452984" lon="18.534096"><ele>79.3</ele><time>2012-05-02T08:17:54.0000000+00:00</time></trkpt><trkpt lat="42.452984" lon="18.534096"><ele>79.3</ele><time>2012-05-02T08:17:59.0000000+00:00</time></trkpt><trkpt lat="42.452984" lon="18.534096"><ele>79.3</ele><time>2012-05-02T08:18:04.0000000+00:00</time></trkpt><trkpt lat="42.452984" lon="18.534096"><ele>79.3</ele><time>2012-05-02T08:18:09.0000000+00:00</time></trkpt><trkpt lat="42.452984" lon="18.534096"><ele>79.3</ele><time>2012-05-02T08:18:14.0000000+00:00</time></trkpt><trkpt lat="42.452984" lon="18.534096"><ele>79.3</ele><time>2012-05-02T08:18:19.0000000+00:00</time></trkpt><trkpt lat="42.452984" lon="18.534096"><ele>79.3</ele><time>2012-05-02T08:18:24.0000000+00:00</time></trkpt><trkpt lat="42.452984" lon="18.534096"><ele>79.3</ele><time>2012-05-02T08:18:29.0000000+00:00</time></trkpt><trkpt lat="42.452984" lon="18.534096"><ele>79.3</ele><time>2012-05-02T08:18:34.0000000+00:00</time></trkpt><trkpt lat="42.452984" lon="18.534096"><ele>79.3</ele><time>2012-05-02T08:18:39.0000000+00:00</time></trkpt><trkpt lat="42.452984" lon="18.534094"><ele>79.3</ele><time>2012-05-02T08:18:44.0000000+00:00</time></trkpt><trkpt lat="42.452984" lon="18.534094"><ele>79.3</ele><time>2012-05-02T08:18:49.0000000+00:00</time></trkpt><trkpt lat="42.452984" lon="18.534094"><ele>79.3</ele><time>2012-05-02T08:18:54.0000000+00:00</time></trkpt><trkpt lat="42.452984" lon="18.534094"><ele>79.3</ele><time>2012-05-02T08:18:59.0000000+00:00</time></trkpt><trkpt lat="42.452984" lon="18.534094"><ele>79.3</ele><time>2012-05-02T08:19:04.0000000+00:00</time></trkpt><trkpt lat="42.452984" lon="18.534094"><ele>79.3</ele><time>2012-05-02T08:19:09.0000000+00:00</time></trkpt><trkpt lat="42.452984" lon="18.534094"><ele>79.3</ele><time>2012-05-02T08:19:14.0000000+00:00</time></trkpt><trkpt lat="42.452984" lon="18.534094"><ele>79.3</ele><time>2012-05-02T08:19:19.0000000+00:00</time></trkpt><trkpt lat="42.452984" lon="18.534094"><ele>79.3</ele><time>2012-05-02T08:19:24.0000000+00:00</time></trkpt><trkpt lat="42.452984" lon="18.534094"><ele>79.3</ele><time>2012-05-02T08:19:29.0000000+00:00</time></trkpt><trkpt lat="42.45298" lon="18.534092"><ele>79.3</ele><time>2012-05-02T08:19:34.0000000+00:00</time></trkpt><trkpt lat="42.45298" lon="18.534092"><ele>79.3</ele><time>2012-05-02T08:19:39.0000000+00:00</time></trkpt><trkpt lat="42.45298" lon="18.534092"><ele>79.3</ele><time>2012-05-02T08:19:44.0000000+00:00</time></trkpt><trkpt lat="42.45298" lon="18.534092"><ele>79.3</ele><time>2012-05-02T08:19:49.0000000+00:00</time></trkpt><trkpt lat="42.45298" lon="18.534092"><ele>79.3</ele><time>2012-05-02T08:19:54.0000000+00:00</time></trkpt><trkpt lat="42.45298" lon="18.534092"><ele>79.3</ele><time>2012-05-02T08:19:59.0000000+00:00</time></trkpt><trkpt lat="42.45298" lon="18.534092"><ele>79.3</ele><time>2012-05-02T08:20:04.0000000+00:00</time></trkpt><trkpt lat="42.45298" lon="18.534092"><ele>79.3</ele><time>2012-05-02T08:20:09.0000000+00:00</time></trkpt><trkpt lat="42.45298" lon="18.534092"><ele>79.3</ele><time>2012-05-02T08:20:14.0000000+00:00</time></trkpt><trkpt lat="42.45298" lon="18.534092"><ele>79.3</ele><time>2012-05-02T08:20:19.0000000+00:00</time></trkpt><trkpt lat="42.45298" lon="18.534092"><ele>79.3</ele><time>2012-05-02T08:20:24.0000000+00:00</time></trkpt><trkpt lat="42.45298" lon="18.534092"><ele>79.3</ele><time>2012-05-02T08:20:29.0000000+00:00</time></trkpt><trkpt lat="42.45298" lon="18.534092"><ele>79.3</ele><time>2012-05-02T08:20:34.0000000+00:00</time></trkpt><trkpt lat="42.45298" lon="18.534092"><ele>79.3</ele><time>2012-05-02T08:20:39.0000000+00:00</time></trkpt><trkpt lat="42.45298" lon="18.534092"><ele>79.3</ele><time>2012-05-02T08:20:44.0000000+00:00</time></trkpt><trkpt lat="42.45298" lon="18.534092"><ele>79.3</ele><time>2012-05-02T08:20:49.0000000+00:00</time></trkpt><trkpt lat="42.45298" lon="18.534092"><ele>79.3</ele><time>2012-05-02T08:20:54.0000000+00:00</time></trkpt><trkpt lat="42.45298" lon="18.534092"><ele>79.3</ele><time>2012-05-02T08:20:59.0000000+00:00</time></trkpt><trkpt lat="42.45298" lon="18.53409"><ele>79.2</ele><time>2012-05-02T08:21:04.0000000+00:00</time></trkpt><trkpt lat="42.452976" lon="18.534088"><ele>79.2</ele><time>2012-05-02T08:21:09.0000000+00:00</time></trkpt><trkpt lat="42.452972" lon="18.534084"><ele>79.2</ele><time>2012-05-02T08:21:14.0000000+00:00</time></trkpt><trkpt lat="42.452969" lon="18.534081"><ele>79.2</ele><time>2012-05-02T08:21:19.0000000+00:00</time></trkpt><trkpt lat="42.452961" lon="18.534073"><ele>79.2</ele><time>2012-05-02T08:21:24.0000000+00:00</time></trkpt><trkpt lat="42.452919" lon="18.534033"><ele>79.4</ele><time>2012-05-02T08:21:29.0000000+00:00</time></trkpt><trkpt lat="42.452881" lon="18.533993"><ele>79.3</ele><time>2012-05-02T08:21:34.0000000+00:00</time></trkpt><trkpt lat="42.45285" lon="18.533966"><ele>79.1</ele><time>2012-05-02T08:21:39.0000000+00:00</time></trkpt><trkpt lat="42.452827" lon="18.533943"><ele>79.2</ele><time>2012-05-02T08:21:44.0000000+00:00</time></trkpt><trkpt lat="42.45282" lon="18.533937"><ele>79.5</ele><time>2012-05-02T08:21:49.0000000+00:00</time></trkpt><trkpt lat="42.452816" lon="18.533932"><ele>79.5</ele><time>2012-05-02T08:21:54.0000000+00:00</time></trkpt><trkpt lat="42.452816" lon="18.533936"><ele>79.6</ele><time>2012-05-02T08:21:59.0000000+00:00</time></trkpt><trkpt lat="42.452847" lon="18.533962"><ele>79.8</ele><time>2012-05-02T08:22:04.0000000+00:00</time></trkpt><trkpt lat="42.452869" lon="18.533979"><ele>80.2</ele><time>2012-05-02T08:22:09.0000000+00:00</time></trkpt><trkpt lat="42.452873" lon="18.533985"><ele>80.2</ele><time>2012-05-02T08:22:14.0000000+00:00</time></trkpt><trkpt lat="42.452881" lon="18.533993"><ele>80.3</ele><time>2012-05-02T08:22:19.0000000+00:00</time></trkpt><trkpt lat="42.452888" lon="18.533998"><ele>80.4</ele><time>2012-05-02T08:22:24.0000000+00:00</time></trkpt><trkpt lat="42.452896" lon="18.534004"><ele>80.6</ele><time>2012-05-02T08:22:29.0000000+00:00</time></trkpt><trkpt lat="42.452904" lon="18.53401"><ele>80.9</ele><time>2012-05-02T08:22:34.0000000+00:00</time></trkpt><trkpt lat="42.452904" lon="18.534012"><ele>81.3</ele><time>2012-05-02T08:22:39.0000000+00:00</time></trkpt><trkpt lat="42.452904" lon="18.534012"><ele>81.7</ele><time>2012-05-02T08:22:44.0000000+00:00</time></trkpt><trkpt lat="42.452904" lon="18.534012"><ele>81.9</ele><time>2012-05-02T08:22:49.0000000+00:00</time></trkpt><trkpt lat="42.452904" lon="18.534012"><ele>81.9</ele><time>2012-05-02T08:22:54.0000000+00:00</time></trkpt><trkpt lat="42.452908" lon="18.534012"><ele>81.9</ele><time>2012-05-02T08:22:59.0000000+00:00</time></trkpt><trkpt lat="42.452908" lon="18.534012"><ele>81.9</ele><time>2012-05-02T08:23:04.0000000+00:00</time></trkpt><trkpt lat="42.452908" lon="18.534012"><ele>81.9</ele><time>2012-05-02T08:23:09.0000000+00:00</time></trkpt><trkpt lat="42.452908" lon="18.534012"><ele>81.9</ele><time>2012-05-02T08:23:14.0000000+00:00</time></trkpt><trkpt lat="42.452908" lon="18.534012"><ele>81.9</ele><time>2012-05-02T08:23:19.0000000+00:00</time></trkpt><trkpt lat="42.452908" lon="18.534012"><ele>81.9</ele><time>2012-05-02T08:23:24.0000000+00:00</time></trkpt><trkpt lat="42.452908" lon="18.534012"><ele>81.9</ele><time>2012-05-02T08:23:29.0000000+00:00</time></trkpt><trkpt lat="42.452908" lon="18.534012"><ele>81.9</ele><time>2012-05-02T08:23:34.0000000+00:00</time></trkpt><trkpt lat="42.452908" lon="18.534012"><ele>81.9</ele><time>2012-05-02T08:23:39.0000000+00:00</time></trkpt><trkpt lat="42.452908" lon="18.534014"><ele>81.9</ele><time>2012-05-02T08:23:44.0000000+00:00</time></trkpt><trkpt lat="42.452908" lon="18.534014"><ele>82.0</ele><time>2012-05-02T08:23:49.0000000+00:00</time></trkpt><trkpt lat="42.452908" lon="18.534014"><ele>82.0</ele><time>2012-05-02T08:23:54.0000000+00:00</time></trkpt><trkpt lat="42.452908" lon="18.534014"><ele>82.1</ele><time>2012-05-02T08:23:59.0000000+00:00</time></trkpt><trkpt lat="42.452908" lon="18.534014"><ele>82.1</ele><time>2012-05-02T08:24:04.0000000+00:00</time></trkpt><trkpt lat="42.452911" lon="18.534014"><ele>82.2</ele><time>2012-05-02T08:24:09.0000000+00:00</time></trkpt><trkpt lat="42.452911" lon="18.534016"><ele>82.2</ele><time>2012-05-02T08:24:14.0000000+00:00</time></trkpt><trkpt lat="42.452911" lon="18.534016"><ele>82.3</ele><time>2012-05-02T08:24:19.0000000+00:00</time></trkpt><trkpt lat="42.452911" lon="18.534016"><ele>82.3</ele><time>2012-05-02T08:24:24.0000000+00:00</time></trkpt><trkpt lat="42.452911" lon="18.534016"><ele>82.4</ele><time>2012-05-02T08:24:29.0000000+00:00</time></trkpt><trkpt lat="42.452911" lon="18.534016"><ele>82.4</ele><time>2012-05-02T08:24:34.0000000+00:00</time></trkpt><trkpt lat="42.452911" lon="18.534016"><ele>82.4</ele><time>2012-05-02T08:24:39.0000000+00:00</time></trkpt><trkpt lat="42.452911" lon="18.534016"><ele>82.4</ele><time>2012-05-02T08:24:44.0000000+00:00</time></trkpt><trkpt lat="42.452911" lon="18.534016"><ele>82.4</ele><time>2012-05-02T08:24:49.0000000+00:00</time></trkpt><trkpt lat="42.452911" lon="18.534016"><ele>82.5</ele><time>2012-05-02T08:24:54.0000000+00:00</time></trkpt><trkpt lat="42.452911" lon="18.534016"><ele>82.5</ele><time>2012-05-02T08:24:59.0000000+00:00</time></trkpt><trkpt lat="42.452911" lon="18.534016"><ele>82.5</ele><time>2012-05-02T08:25:04.0000000+00:00</time></trkpt><trkpt lat="42.452911" lon="18.534016"><ele>82.5</ele><time>2012-05-02T08:25:09.0000000+00:00</time></trkpt><trkpt lat="42.452915" lon="18.534016"><ele>82.5</ele><time>2012-05-02T08:25:14.0000000+00:00</time></trkpt><trkpt lat="42.452915" lon="18.534016"><ele>82.5</ele><time>2012-05-02T08:25:19.0000000+00:00</time></trkpt><trkpt lat="42.452915" lon="18.534016"><ele>82.5</ele><time>2012-05-02T08:25:24.0000000+00:00</time></trkpt><trkpt lat="42.452915" lon="18.534016"><ele>82.5</ele><time>2012-05-02T08:25:29.0000000+00:00</time></trkpt><trkpt lat="42.452915" lon="18.534016"><ele>82.5</ele><time>2012-05-02T08:25:34.0000000+00:00</time></trkpt><trkpt lat="42.452915" lon="18.534016"><ele>82.6</ele><time>2012-05-02T08:25:39.0000000+00:00</time></trkpt><trkpt lat="42.452915" lon="18.534018"><ele>82.6</ele><time>2012-05-02T08:25:44.0000000+00:00</time></trkpt><trkpt lat="42.452915" lon="18.534018"><ele>82.6</ele><time>2012-05-02T08:25:49.0000000+00:00</time></trkpt><trkpt lat="42.452915" lon="18.534018"><ele>82.6</ele><time>2012-05-02T08:25:54.0000000+00:00</time></trkpt><trkpt lat="42.452915" lon="18.534018"><ele>82.6</ele><time>2012-05-02T08:25:59.0000000+00:00</time></trkpt><trkpt lat="42.452915" lon="18.534018"><ele>82.6</ele><time>2012-05-02T08:26:04.0000000+00:00</time></trkpt><trkpt lat="42.452915" lon="18.534018"><ele>82.6</ele><time>2012-05-02T08:26:09.0000000+00:00</time></trkpt><trkpt lat="42.452915" lon="18.534018"><ele>82.6</ele><time>2012-05-02T08:26:14.0000000+00:00</time></trkpt><trkpt lat="42.452915" lon="18.534018"><ele>82.6</ele><time>2012-05-02T08:26:19.0000000+00:00</time></trkpt><trkpt lat="42.452915" lon="18.534018"><ele>82.6</ele><time>2012-05-02T08:26:24.0000000+00:00</time></trkpt><trkpt lat="42.452915" lon="18.534018"><ele>82.6</ele><time>2012-05-02T08:26:29.0000000+00:00</time></trkpt><trkpt lat="42.452915" lon="18.534018"><ele>82.6</ele><time>2012-05-02T08:26:34.0000000+00:00</time></trkpt><trkpt lat="42.452915" lon="18.534018"><ele>82.7</ele><time>2012-05-02T08:26:39.0000000+00:00</time></trkpt><trkpt lat="42.452915" lon="18.534018"><ele>82.7</ele><time>2012-05-02T08:26:44.0000000+00:00</time></trkpt><trkpt lat="42.452919" lon="18.534018"><ele>82.7</ele><time>2012-05-02T08:26:49.0000000+00:00</time></trkpt><trkpt lat="42.452919" lon="18.534018"><ele>82.7</ele><time>2012-05-02T08:26:54.0000000+00:00</time></trkpt><trkpt lat="42.452919" lon="18.534018"><ele>82.7</ele><time>2012-05-02T08:26:59.0000000+00:00</time></trkpt><trkpt lat="42.452919" lon="18.534018"><ele>82.7</ele><time>2012-05-02T08:27:04.0000000+00:00</time></trkpt><trkpt lat="42.452919" lon="18.534018"><ele>82.7</ele><time>2012-05-02T08:27:09.0000000+00:00</time></trkpt><trkpt lat="42.452919" lon="18.534018"><ele>82.7</ele><time>2012-05-02T08:27:14.0000000+00:00</time></trkpt><trkpt lat="42.452919" lon="18.534018"><ele>82.7</ele><time>2012-05-02T08:27:19.0000000+00:00</time></trkpt><trkpt lat="42.452919" lon="18.534018"><ele>82.8</ele><time>2012-05-02T08:27:24.0000000+00:00</time></trkpt><trkpt lat="42.452919" lon="18.534018"><ele>82.8</ele><time>2012-05-02T08:27:29.0000000+00:00</time></trkpt><trkpt lat="42.452919" lon="18.534018"><ele>82.8</ele><time>2012-05-02T08:27:34.0000000+00:00</time></trkpt><trkpt lat="42.452919" lon="18.534018"><ele>82.8</ele><time>2012-05-02T08:27:39.0000000+00:00</time></trkpt><trkpt lat="42.452919" lon="18.534018"><ele>82.9</ele><time>2012-05-02T08:27:44.0000000+00:00</time></trkpt><trkpt lat="42.452919" lon="18.534018"><ele>82.9</ele><time>2012-05-02T08:27:49.0000000+00:00</time></trkpt><trkpt lat="42.452919" lon="18.534018"><ele>82.9</ele><time>2012-05-02T08:27:54.0000000+00:00</time></trkpt><trkpt lat="42.452919" lon="18.534018"><ele>82.9</ele><time>2012-05-02T08:27:59.0000000+00:00</time></trkpt><trkpt lat="42.452919" lon="18.534018"><ele>82.9</ele><time>2012-05-02T08:28:04.0000000+00:00</time></trkpt><trkpt lat="42.452923" lon="18.534018"><ele>82.9</ele><time>2012-05-02T08:28:09.0000000+00:00</time></trkpt><trkpt lat="42.452919" lon="18.534018"><ele>82.9</ele><time>2012-05-02T08:28:14.0000000+00:00</time></trkpt><trkpt lat="42.452923" lon="18.534018"><ele>82.9</ele><time>2012-05-02T08:28:19.0000000+00:00</time></trkpt><trkpt lat="42.452923" lon="18.534018"><ele>82.9</ele><time>2012-05-02T08:28:24.0000000+00:00</time></trkpt><trkpt lat="42.452923" lon="18.534018"><ele>82.9</ele><time>2012-05-02T08:28:29.0000000+00:00</time></trkpt><trkpt lat="42.452923" lon="18.534018"><ele>82.9</ele><time>2012-05-02T08:28:34.0000000+00:00</time></trkpt><trkpt lat="42.452923" lon="18.534018"><ele>82.9</ele><time>2012-05-02T08:28:39.0000000+00:00</time></trkpt><trkpt lat="42.452923" lon="18.534018"><ele>82.9</ele><time>2012-05-02T08:28:44.0000000+00:00</time></trkpt><trkpt lat="42.452923" lon="18.534018"><ele>82.9</ele><time>2012-05-02T08:28:49.0000000+00:00</time></trkpt><trkpt lat="42.452923" lon="18.534018"><ele>82.9</ele><time>2012-05-02T08:28:54.0000000+00:00</time></trkpt><trkpt lat="42.452923" lon="18.534018"><ele>82.9</ele><time>2012-05-02T08:28:59.0000000+00:00</time></trkpt><trkpt lat="42.452923" lon="18.534018"><ele>82.9</ele><time>2012-05-02T08:29:04.0000000+00:00</time></trkpt><trkpt lat="42.452923" lon="18.534016"><ele>82.9</ele><time>2012-05-02T08:29:09.0000000+00:00</time></trkpt><trkpt lat="42.452919" lon="18.534016"><ele>82.9</ele><time>2012-05-02T08:29:14.0000000+00:00</time></trkpt><trkpt lat="42.452919" lon="18.534016"><ele>82.9</ele><time>2012-05-02T08:29:19.0000000+00:00</time></trkpt><trkpt lat="42.452919" lon="18.534016"><ele>82.9</ele><time>2012-05-02T08:29:24.0000000+00:00</time></trkpt><trkpt lat="42.452919" lon="18.534016"><ele>82.9</ele><time>2012-05-02T08:29:29.0000000+00:00</time></trkpt><trkpt lat="42.452919" lon="18.534016"><ele>82.8</ele><time>2012-05-02T08:29:34.0000000+00:00</time></trkpt><trkpt lat="42.452919" lon="18.534016"><ele>82.8</ele><time>2012-05-02T08:29:39.0000000+00:00</time></trkpt><trkpt lat="42.452919" lon="18.534016"><ele>82.7</ele><time>2012-05-02T08:29:44.0000000+00:00</time></trkpt><trkpt lat="42.452919" lon="18.534016"><ele>82.7</ele><time>2012-05-02T08:29:49.0000000+00:00</time></trkpt><trkpt lat="42.452919" lon="18.534014"><ele>82.7</ele><time>2012-05-02T08:29:54.0000000+00:00</time></trkpt><trkpt lat="42.452919" lon="18.534014"><ele>82.6</ele><time>2012-05-02T08:29:59.0000000+00:00</time></trkpt><trkpt lat="42.452919" lon="18.534014"><ele>82.6</ele><time>2012-05-02T08:30:04.0000000+00:00</time></trkpt><trkpt lat="42.452919" lon="18.534014"><ele>82.6</ele><time>2012-05-02T08:30:09.0000000+00:00</time></trkpt><trkpt lat="42.452919" lon="18.534014"><ele>82.6</ele><time>2012-05-02T08:30:14.0000000+00:00</time></trkpt><trkpt lat="42.452919" lon="18.534014"><ele>82.6</ele><time>2012-05-02T08:30:19.0000000+00:00</time></trkpt><trkpt lat="42.452919" lon="18.534014"><ele>82.5</ele><time>2012-05-02T08:30:24.0000000+00:00</time></trkpt><trkpt lat="42.452919" lon="18.534012"><ele>82.5</ele><time>2012-05-02T08:30:29.0000000+00:00</time></trkpt><trkpt lat="42.452919" lon="18.534012"><ele>82.5</ele><time>2012-05-02T08:30:34.0000000+00:00</time></trkpt><trkpt lat="42.452919" lon="18.534012"><ele>82.5</ele><time>2012-05-02T08:30:39.0000000+00:00</time></trkpt><trkpt lat="42.452919" lon="18.534012"><ele>82.5</ele><time>2012-05-02T08:30:44.0000000+00:00</time></trkpt><trkpt lat="42.452919" lon="18.534012"><ele>82.5</ele><time>2012-05-02T08:30:49.0000000+00:00</time></trkpt><trkpt lat="42.452919" lon="18.534012"><ele>82.5</ele><time>2012-05-02T08:30:54.0000000+00:00</time></trkpt><trkpt lat="42.452919" lon="18.534012"><ele>82.5</ele><time>2012-05-02T08:30:59.0000000+00:00</time></trkpt><trkpt lat="42.452919" lon="18.534012"><ele>82.5</ele><time>2012-05-02T08:31:04.0000000+00:00</time></trkpt><trkpt lat="42.452919" lon="18.534012"><ele>82.4</ele><time>2012-05-02T08:31:09.0000000+00:00</time></trkpt><trkpt lat="42.452919" lon="18.534012"><ele>82.4</ele><time>2012-05-02T08:31:14.0000000+00:00</time></trkpt><trkpt lat="42.452919" lon="18.534012"><ele>82.4</ele><time>2012-05-02T08:31:19.0000000+00:00</time></trkpt><trkpt lat="42.452919" lon="18.534012"><ele>82.4</ele><time>2012-05-02T08:31:24.0000000+00:00</time></trkpt><trkpt lat="42.452919" lon="18.534012"><ele>82.4</ele><time>2012-05-02T08:31:29.0000000+00:00</time></trkpt><trkpt lat="42.452919" lon="18.534012"><ele>82.3</ele><time>2012-05-02T08:31:34.0000000+00:00</time></trkpt><trkpt lat="42.452919" lon="18.534012"><ele>82.3</ele><time>2012-05-02T08:31:39.0000000+00:00</time></trkpt><trkpt lat="42.452919" lon="18.534012"><ele>82.3</ele><time>2012-05-02T08:31:44.0000000+00:00</time></trkpt><trkpt lat="42.452919" lon="18.534012"><ele>82.3</ele><time>2012-05-02T08:31:49.0000000+00:00</time></trkpt><trkpt lat="42.452919" lon="18.534012"><ele>82.3</ele><time>2012-05-02T08:31:54.0000000+00:00</time></trkpt><trkpt lat="42.452919" lon="18.534012"><ele>82.3</ele><time>2012-05-02T08:31:59.0000000+00:00</time></trkpt><trkpt lat="42.452919" lon="18.534012"><ele>82.2</ele><time>2012-05-02T08:32:04.0000000+00:00</time></trkpt><trkpt lat="42.452919" lon="18.534012"><ele>82.2</ele><time>2012-05-02T08:32:09.0000000+00:00</time></trkpt><trkpt lat="42.452919" lon="18.534012"><ele>82.2</ele><time>2012-05-02T08:32:14.0000000+00:00</time></trkpt><trkpt lat="42.452919" lon="18.534014"><ele>82.2</ele><time>2012-05-02T08:32:19.0000000+00:00</time></trkpt><trkpt lat="42.452919" lon="18.534014"><ele>82.2</ele><time>2012-05-02T08:32:24.0000000+00:00</time></trkpt><trkpt lat="42.452919" lon="18.534014"><ele>82.2</ele><time>2012-05-02T08:32:29.0000000+00:00</time></trkpt><trkpt lat="42.452919" lon="18.534014"><ele>82.2</ele><time>2012-05-02T08:32:34.0000000+00:00</time></trkpt><trkpt lat="42.452919" lon="18.534014"><ele>82.2</ele><time>2012-05-02T08:32:39.0000000+00:00</time></trkpt><trkpt lat="42.452919" lon="18.534014"><ele>82.2</ele><time>2012-05-02T08:32:44.0000000+00:00</time></trkpt><trkpt lat="42.452923" lon="18.534014"><ele>82.2</ele><time>2012-05-02T08:32:49.0000000+00:00</time></trkpt><trkpt lat="42.452923" lon="18.534014"><ele>82.2</ele><time>2012-05-02T08:32:54.0000000+00:00</time></trkpt><trkpt lat="42.452923" lon="18.534016"><ele>82.1</ele><time>2012-05-02T08:32:59.0000000+00:00</time></trkpt><trkpt lat="42.452923" lon="18.534016"><ele>82.1</ele><time>2012-05-02T08:33:04.0000000+00:00</time></trkpt><trkpt lat="42.452923" lon="18.534016"><ele>82.1</ele><time>2012-05-02T08:33:09.0000000+00:00</time></trkpt><trkpt lat="42.452923" lon="18.534016"><ele>82.1</ele><time>2012-05-02T08:33:14.0000000+00:00</time></trkpt><trkpt lat="42.452923" lon="18.534016"><ele>82.1</ele><time>2012-05-02T08:33:19.0000000+00:00</time></trkpt><trkpt lat="42.452923" lon="18.534016"><ele>82.1</ele><time>2012-05-02T08:33:24.0000000+00:00</time></trkpt><trkpt lat="42.452923" lon="18.534016"><ele>82.1</ele><time>2012-05-02T08:33:29.0000000+00:00</time></trkpt><trkpt lat="42.452923" lon="18.534018"><ele>82.1</ele><time>2012-05-02T08:33:34.0000000+00:00</time></trkpt><trkpt lat="42.452923" lon="18.534018"><ele>82.0</ele><time>2012-05-02T08:33:39.0000000+00:00</time></trkpt><trkpt lat="42.452923" lon="18.534018"><ele>82.0</ele><time>2012-05-02T08:33:44.0000000+00:00</time></trkpt><trkpt lat="42.452923" lon="18.534018"><ele>82.0</ele><time>2012-05-02T08:33:49.0000000+00:00</time></trkpt><trkpt lat="42.452923" lon="18.534018"><ele>82.0</ele><time>2012-05-02T08:33:54.0000000+00:00</time></trkpt><trkpt lat="42.452923" lon="18.534018"><ele>81.9</ele><time>2012-05-02T08:33:59.0000000+00:00</time></trkpt><trkpt lat="42.452923" lon="18.534018"><ele>81.7</ele><time>2012-05-02T08:34:04.0000000+00:00</time></trkpt><trkpt lat="42.452923" lon="18.534018"><ele>81.6</ele><time>2012-05-02T08:34:09.0000000+00:00</time></trkpt><trkpt lat="42.452923" lon="18.534018"><ele>81.4</ele><time>2012-05-02T08:34:14.0000000+00:00</time></trkpt><trkpt lat="42.452923" lon="18.534018"><ele>81.2</ele><time>2012-05-02T08:34:19.0000000+00:00</time></trkpt><trkpt lat="42.452923" lon="18.534018"><ele>81.0</ele><time>2012-05-02T08:34:24.0000000+00:00</time></trkpt><trkpt lat="42.452923" lon="18.534018"><ele>80.7</ele><time>2012-05-02T08:34:29.0000000+00:00</time></trkpt><trkpt lat="42.452927" lon="18.534021"><ele>80.5</ele><time>2012-05-02T08:34:34.0000000+00:00</time></trkpt><trkpt lat="42.45293" lon="18.534027"><ele>80.2</ele><time>2012-05-02T08:34:39.0000000+00:00</time></trkpt><trkpt lat="42.452934" lon="18.534033"><ele>79.9</ele><time>2012-05-02T08:34:44.0000000+00:00</time></trkpt><trkpt lat="42.452938" lon="18.534039"><ele>79.6</ele><time>2012-05-02T08:34:49.0000000+00:00</time></trkpt><trkpt lat="42.452938" lon="18.534039"><ele>79.4</ele><time>2012-05-02T08:34:54.0000000+00:00</time></trkpt><trkpt lat="42.452938" lon="18.534039"><ele>79.1</ele><time>2012-05-02T08:34:59.0000000+00:00</time></trkpt><trkpt lat="42.452938" lon="18.534039"><ele>78.9</ele><time>2012-05-02T08:35:04.0000000+00:00</time></trkpt><trkpt lat="42.452934" lon="18.534039"><ele>78.7</ele><time>2012-05-02T08:35:09.0000000+00:00</time></trkpt><trkpt lat="42.452934" lon="18.534039"><ele>78.7</ele><time>2012-05-02T08:35:14.0000000+00:00</time></trkpt><trkpt lat="42.452934" lon="18.534039"><ele>78.6</ele><time>2012-05-02T08:35:19.0000000+00:00</time></trkpt><trkpt lat="42.452934" lon="18.534039"><ele>78.5</ele><time>2012-05-02T08:35:24.0000000+00:00</time></trkpt><trkpt lat="42.452934" lon="18.534039"><ele>78.4</ele><time>2012-05-02T08:35:29.0000000+00:00</time></trkpt><trkpt lat="42.452934" lon="18.534039"><ele>78.3</ele><time>2012-05-02T08:35:34.0000000+00:00</time></trkpt><trkpt lat="42.452934" lon="18.534039"><ele>78.2</ele><time>2012-05-02T08:35:39.0000000+00:00</time></trkpt><trkpt lat="42.452934" lon="18.53404"><ele>78.1</ele><time>2012-05-02T08:35:44.0000000+00:00</time></trkpt><trkpt lat="42.452934" lon="18.53404"><ele>78.1</ele><time>2012-05-02T08:35:49.0000000+00:00</time></trkpt><trkpt lat="42.452934" lon="18.53404"><ele>78.1</ele><time>2012-05-02T08:35:54.0000000+00:00</time></trkpt><trkpt lat="42.452934" lon="18.53404"><ele>78.1</ele><time>2012-05-02T08:35:59.0000000+00:00</time></trkpt><trkpt lat="42.452934" lon="18.53404"><ele>78.0</ele><time>2012-05-02T08:36:04.0000000+00:00</time></trkpt><trkpt lat="42.452934" lon="18.53404"><ele>78.0</ele><time>2012-05-02T08:36:09.0000000+00:00</time></trkpt><trkpt lat="42.452934" lon="18.534042"><ele>78.0</ele><time>2012-05-02T08:36:14.0000000+00:00</time></trkpt><trkpt lat="42.452934" lon="18.534042"><ele>78.0</ele><time>2012-05-02T08:36:19.0000000+00:00</time></trkpt><trkpt lat="42.452934" lon="18.534042"><ele>78.0</ele><time>2012-05-02T08:36:24.0000000+00:00</time></trkpt><trkpt lat="42.452934" lon="18.534042"><ele>78.0</ele><time>2012-05-02T08:36:29.0000000+00:00</time></trkpt><trkpt lat="42.452934" lon="18.534042"><ele>77.9</ele><time>2012-05-02T08:36:34.0000000+00:00</time></trkpt><trkpt lat="42.452934" lon="18.534042"><ele>77.9</ele><time>2012-05-02T08:36:39.0000000+00:00</time></trkpt><trkpt lat="42.452934" lon="18.534042"><ele>77.9</ele><time>2012-05-02T08:36:44.0000000+00:00</time></trkpt><trkpt lat="42.452934" lon="18.534042"><ele>77.8</ele><time>2012-05-02T08:36:49.0000000+00:00</time></trkpt><trkpt lat="42.452934" lon="18.534042"><ele>77.8</ele><time>2012-05-02T08:36:54.0000000+00:00</time></trkpt><trkpt lat="42.452934" lon="18.534044"><ele>77.8</ele><time>2012-05-02T08:36:59.0000000+00:00</time></trkpt><trkpt lat="42.452934" lon="18.534044"><ele>77.8</ele><time>2012-05-02T08:37:04.0000000+00:00</time></trkpt><trkpt lat="42.452934" lon="18.534044"><ele>77.8</ele><time>2012-05-02T08:37:09.0000000+00:00</time></trkpt><trkpt lat="42.452934" lon="18.534044"><ele>77.8</ele><time>2012-05-02T08:37:14.0000000+00:00</time></trkpt><trkpt lat="42.452934" lon="18.534046"><ele>77.8</ele><time>2012-05-02T08:37:19.0000000+00:00</time></trkpt><trkpt lat="42.452934" lon="18.534046"><ele>77.8</ele><time>2012-05-02T08:37:24.0000000+00:00</time></trkpt><trkpt lat="42.452934" lon="18.534046"><ele>77.8</ele><time>2012-05-02T08:37:29.0000000+00:00</time></trkpt><trkpt lat="42.452934" lon="18.534046"><ele>77.8</ele><time>2012-05-02T08:37:34.0000000+00:00</time></trkpt><trkpt lat="42.452934" lon="18.534046"><ele>77.7</ele><time>2012-05-02T08:37:39.0000000+00:00</time></trkpt><trkpt lat="42.452934" lon="18.534046"><ele>77.7</ele><time>2012-05-02T08:37:44.0000000+00:00</time></trkpt><trkpt lat="42.452934" lon="18.534046"><ele>77.7</ele><time>2012-05-02T08:37:49.0000000+00:00</time></trkpt><trkpt lat="42.452934" lon="18.534046"><ele>77.7</ele><time>2012-05-02T08:37:54.0000000+00:00</time></trkpt><trkpt lat="42.452934" lon="18.534046"><ele>77.7</ele><time>2012-05-02T08:37:59.0000000+00:00</time></trkpt><trkpt lat="42.452938" lon="18.534046"><ele>77.7</ele><time>2012-05-02T08:38:04.0000000+00:00</time></trkpt><trkpt lat="42.452938" lon="18.534046"><ele>77.7</ele><time>2012-05-02T08:38:09.0000000+00:00</time></trkpt><trkpt lat="42.452938" lon="18.534046"><ele>77.7</ele><time>2012-05-02T08:38:14.0000000+00:00</time></trkpt><trkpt lat="42.452938" lon="18.534048"><ele>77.6</ele><time>2012-05-02T08:38:19.0000000+00:00</time></trkpt><trkpt lat="42.452938" lon="18.534048"><ele>77.6</ele><time>2012-05-02T08:38:24.0000000+00:00</time></trkpt><trkpt lat="42.452938" lon="18.534048"><ele>77.6</ele><time>2012-05-02T08:38:29.0000000+00:00</time></trkpt><trkpt lat="42.452938" lon="18.534048"><ele>77.6</ele><time>2012-05-02T08:38:34.0000000+00:00</time></trkpt><trkpt lat="42.452938" lon="18.534048"><ele>77.5</ele><time>2012-05-02T08:38:39.0000000+00:00</time></trkpt><trkpt lat="42.452938" lon="18.534048"><ele>77.5</ele><time>2012-05-02T08:38:44.0000000+00:00</time></trkpt><trkpt lat="42.452938" lon="18.534048"><ele>77.4</ele><time>2012-05-02T08:38:49.0000000+00:00</time></trkpt><trkpt lat="42.452938" lon="18.534048"><ele>77.4</ele><time>2012-05-02T08:38:54.0000000+00:00</time></trkpt><trkpt lat="42.452938" lon="18.534048"><ele>77.4</ele><time>2012-05-02T08:38:59.0000000+00:00</time></trkpt><trkpt lat="42.452938" lon="18.534048"><ele>77.3</ele><time>2012-05-02T08:39:04.0000000+00:00</time></trkpt><trkpt lat="42.452938" lon="18.534048"><ele>77.3</ele><time>2012-05-02T08:39:09.0000000+00:00</time></trkpt><trkpt lat="42.452938" lon="18.53405"><ele>77.3</ele><time>2012-05-02T08:39:14.0000000+00:00</time></trkpt><trkpt lat="42.452938" lon="18.53405"><ele>77.2</ele><time>2012-05-02T08:39:19.0000000+00:00</time></trkpt><trkpt lat="42.452938" lon="18.53405"><ele>77.2</ele><time>2012-05-02T08:39:24.0000000+00:00</time></trkpt><trkpt lat="42.452938" lon="18.53405"><ele>77.2</ele><time>2012-05-02T08:39:29.0000000+00:00</time></trkpt><trkpt lat="42.452938" lon="18.53405"><ele>77.2</ele><time>2012-05-02T08:39:34.0000000+00:00</time></trkpt><trkpt lat="42.452938" lon="18.53405"><ele>77.1</ele><time>2012-05-02T08:39:39.0000000+00:00</time></trkpt><trkpt lat="42.452938" lon="18.53405"><ele>77.1</ele><time>2012-05-02T08:39:44.0000000+00:00</time></trkpt><trkpt lat="42.452938" lon="18.534052"><ele>77.0</ele><time>2012-05-02T08:39:49.0000000+00:00</time></trkpt><trkpt lat="42.452938" lon="18.534052"><ele>76.9</ele><time>2012-05-02T08:39:54.0000000+00:00</time></trkpt><trkpt lat="42.452938" lon="18.534052"><ele>76.8</ele><time>2012-05-02T08:39:59.0000000+00:00</time></trkpt><trkpt lat="42.452938" lon="18.534052"><ele>76.8</ele><time>2012-05-02T08:40:04.0000000+00:00</time></trkpt><trkpt lat="42.452938" lon="18.534052"><ele>76.7</ele><time>2012-05-02T08:40:09.0000000+00:00</time></trkpt><trkpt lat="42.452938" lon="18.534052"><ele>76.7</ele><time>2012-05-02T08:40:14.0000000+00:00</time></trkpt><trkpt lat="42.452938" lon="18.534052"><ele>76.7</ele><time>2012-05-02T08:40:19.0000000+00:00</time></trkpt><trkpt lat="42.452938" lon="18.534052"><ele>76.7</ele><time>2012-05-02T08:40:24.0000000+00:00</time></trkpt><trkpt lat="42.452938" lon="18.534054"><ele>76.7</ele><time>2012-05-02T08:40:29.0000000+00:00</time></trkpt><trkpt lat="42.452938" lon="18.534054"><ele>76.6</ele><time>2012-05-02T08:40:34.0000000+00:00</time></trkpt><trkpt lat="42.452938" lon="18.534054"><ele>76.6</ele><time>2012-05-02T08:40:39.0000000+00:00</time></trkpt><trkpt lat="42.452942" lon="18.534056"><ele>76.6</ele><time>2012-05-02T08:40:44.0000000+00:00</time></trkpt><trkpt lat="42.452942" lon="18.534056"><ele>76.6</ele><time>2012-05-02T08:40:49.0000000+00:00</time></trkpt><trkpt lat="42.452942" lon="18.534056"><ele>76.6</ele><time>2012-05-02T08:40:54.0000000+00:00</time></trkpt><trkpt lat="42.452942" lon="18.534058"><ele>76.6</ele><time>2012-05-02T08:40:59.0000000+00:00</time></trkpt><trkpt lat="42.452942" lon="18.534058"><ele>76.6</ele><time>2012-05-02T08:41:04.0000000+00:00</time></trkpt><trkpt lat="42.452946" lon="18.53406"><ele>76.6</ele><time>2012-05-02T08:41:09.0000000+00:00</time></trkpt><trkpt lat="42.452946" lon="18.53406"><ele>76.6</ele><time>2012-05-02T08:41:14.0000000+00:00</time></trkpt><trkpt lat="42.452946" lon="18.534061"><ele>76.6</ele><time>2012-05-02T08:41:19.0000000+00:00</time></trkpt><trkpt lat="42.452946" lon="18.534061"><ele>76.6</ele><time>2012-05-02T08:41:24.0000000+00:00</time></trkpt><trkpt lat="42.452946" lon="18.534063"><ele>76.5</ele><time>2012-05-02T08:41:29.0000000+00:00</time></trkpt><trkpt lat="42.45295" lon="18.534063"><ele>76.4</ele><time>2012-05-02T08:41:34.0000000+00:00</time></trkpt><trkpt lat="42.45295" lon="18.534063"><ele>76.3</ele><time>2012-05-02T08:41:39.0000000+00:00</time></trkpt><trkpt lat="42.45295" lon="18.534063"><ele>76.3</ele><time>2012-05-02T08:41:44.0000000+00:00</time></trkpt><trkpt lat="42.45295" lon="18.534065"><ele>76.2</ele><time>2012-05-02T08:41:49.0000000+00:00</time></trkpt><trkpt lat="42.45295" lon="18.534065"><ele>76.2</ele><time>2012-05-02T08:41:54.0000000+00:00</time></trkpt><trkpt lat="42.45295" lon="18.534065"><ele>76.2</ele><time>2012-05-02T08:41:59.0000000+00:00</time></trkpt><trkpt lat="42.45295" lon="18.534065"><ele>76.2</ele><time>2012-05-02T08:42:04.0000000+00:00</time></trkpt><trkpt lat="42.45295" lon="18.534065"><ele>76.2</ele><time>2012-05-02T08:42:09.0000000+00:00</time></trkpt><trkpt lat="42.452953" lon="18.534067"><ele>76.2</ele><time>2012-05-02T08:42:14.0000000+00:00</time></trkpt><trkpt lat="42.452953" lon="18.534067"><ele>76.2</ele><time>2012-05-02T08:42:19.0000000+00:00</time></trkpt><trkpt lat="42.452953" lon="18.534067"><ele>76.2</ele><time>2012-05-02T08:42:24.0000000+00:00</time></trkpt><trkpt lat="42.452953" lon="18.534067"><ele>76.3</ele><time>2012-05-02T08:42:29.0000000+00:00</time></trkpt><trkpt lat="42.452953" lon="18.534067"><ele>76.3</ele><time>2012-05-02T08:42:34.0000000+00:00</time></trkpt><trkpt lat="42.452953" lon="18.534067"><ele>76.3</ele><time>2012-05-02T08:42:39.0000000+00:00</time></trkpt><trkpt lat="42.452953" lon="18.534069"><ele>76.3</ele><time>2012-05-02T08:42:44.0000000+00:00</time></trkpt><trkpt lat="42.452953" lon="18.534069"><ele>76.3</ele><time>2012-05-02T08:42:49.0000000+00:00</time></trkpt><trkpt lat="42.452957" lon="18.534069"><ele>76.3</ele><time>2012-05-02T08:42:54.0000000+00:00</time></trkpt><trkpt lat="42.452957" lon="18.534069"><ele>76.3</ele><time>2012-05-02T08:42:59.0000000+00:00</time></trkpt><trkpt lat="42.452957" lon="18.534071"><ele>76.3</ele><time>2012-05-02T08:43:04.0000000+00:00</time></trkpt><trkpt lat="42.452957" lon="18.534071"><ele>76.2</ele><time>2012-05-02T08:43:09.0000000+00:00</time></trkpt><trkpt lat="42.452957" lon="18.534071"><ele>76.2</ele><time>2012-05-02T08:43:14.0000000+00:00</time></trkpt><trkpt lat="42.452957" lon="18.534071"><ele>76.1</ele><time>2012-05-02T08:43:19.0000000+00:00</time></trkpt><trkpt lat="42.452957" lon="18.534073"><ele>76.0</ele><time>2012-05-02T08:43:24.0000000+00:00</time></trkpt><trkpt lat="42.452961" lon="18.534075"><ele>75.9</ele><time>2012-05-02T08:43:29.0000000+00:00</time></trkpt><trkpt lat="42.452961" lon="18.534075"><ele>75.8</ele><time>2012-05-02T08:43:34.0000000+00:00</time></trkpt><trkpt lat="42.452961" lon="18.534075"><ele>75.7</ele><time>2012-05-02T08:43:39.0000000+00:00</time></trkpt><trkpt lat="42.452961" lon="18.534077"><ele>75.7</ele><time>2012-05-02T08:43:44.0000000+00:00</time></trkpt><trkpt lat="42.452961" lon="18.534077"><ele>75.6</ele><time>2012-05-02T08:43:49.0000000+00:00</time></trkpt><trkpt lat="42.452961" lon="18.534077"><ele>75.6</ele><time>2012-05-02T08:43:54.0000000+00:00</time></trkpt><trkpt lat="42.452961" lon="18.534077"><ele>75.6</ele><time>2012-05-02T08:43:59.0000000+00:00</time></trkpt><trkpt lat="42.452965" lon="18.534079"><ele>75.6</ele><time>2012-05-02T08:44:04.0000000+00:00</time></trkpt><trkpt lat="42.452965" lon="18.534079"><ele>75.5</ele><time>2012-05-02T08:44:09.0000000+00:00</time></trkpt><trkpt lat="42.452965" lon="18.534079"><ele>75.5</ele><time>2012-05-02T08:44:14.0000000+00:00</time></trkpt><trkpt lat="42.452965" lon="18.534079"><ele>75.5</ele><time>2012-05-02T08:44:19.0000000+00:00</time></trkpt><trkpt lat="42.452965" lon="18.534079"><ele>75.5</ele><time>2012-05-02T08:44:24.0000000+00:00</time></trkpt><trkpt lat="42.452965" lon="18.534079"><ele>75.5</ele><time>2012-05-02T08:44:29.0000000+00:00</time></trkpt><trkpt lat="42.452965" lon="18.534079"><ele>75.5</ele><time>2012-05-02T08:44:34.0000000+00:00</time></trkpt><trkpt lat="42.452965" lon="18.534079"><ele>75.4</ele><time>2012-05-02T08:44:39.0000000+00:00</time></trkpt><trkpt lat="42.452965" lon="18.534079"><ele>75.4</ele><time>2012-05-02T08:44:44.0000000+00:00</time></trkpt><trkpt lat="42.452965" lon="18.534079"><ele>75.4</ele><time>2012-05-02T08:44:49.0000000+00:00</time></trkpt><trkpt lat="42.452965" lon="18.534079"><ele>75.4</ele><time>2012-05-02T08:44:54.0000000+00:00</time></trkpt><trkpt lat="42.452969" lon="18.534079"><ele>75.5</ele><time>2012-05-02T08:44:59.0000000+00:00</time></trkpt><trkpt lat="42.452969" lon="18.534079"><ele>75.5</ele><time>2012-05-02T08:45:04.0000000+00:00</time></trkpt><trkpt lat="42.452969" lon="18.534079"><ele>75.6</ele><time>2012-05-02T08:45:09.0000000+00:00</time></trkpt><trkpt lat="42.452969" lon="18.534079"><ele>75.6</ele><time>2012-05-02T08:45:14.0000000+00:00</time></trkpt><trkpt lat="42.452969" lon="18.534079"><ele>75.6</ele><time>2012-05-02T08:45:19.0000000+00:00</time></trkpt><trkpt lat="42.452969" lon="18.534079"><ele>75.7</ele><time>2012-05-02T08:45:24.0000000+00:00</time></trkpt><trkpt lat="42.452969" lon="18.534079"><ele>75.7</ele><time>2012-05-02T08:45:29.0000000+00:00</time></trkpt><trkpt lat="42.452969" lon="18.534079"><ele>75.7</ele><time>2012-05-02T08:45:34.0000000+00:00</time></trkpt><trkpt lat="42.452969" lon="18.534081"><ele>75.7</ele><time>2012-05-02T08:45:39.0000000+00:00</time></trkpt><trkpt lat="42.452969" lon="18.534081"><ele>75.6</ele><time>2012-05-02T08:45:44.0000000+00:00</time></trkpt><trkpt lat="42.452969" lon="18.534081"><ele>75.6</ele><time>2012-05-02T08:45:49.0000000+00:00</time></trkpt><trkpt lat="42.452969" lon="18.534081"><ele>75.6</ele><time>2012-05-02T08:45:54.0000000+00:00</time></trkpt><trkpt lat="42.452969" lon="18.534081"><ele>75.6</ele><time>2012-05-02T08:45:59.0000000+00:00</time></trkpt><trkpt lat="42.452969" lon="18.534079"><ele>75.7</ele><time>2012-05-02T08:46:04.0000000+00:00</time></trkpt><trkpt lat="42.452969" lon="18.534079"><ele>75.7</ele><time>2012-05-02T08:46:09.0000000+00:00</time></trkpt><trkpt lat="42.452969" lon="18.534079"><ele>75.7</ele><time>2012-05-02T08:46:14.0000000+00:00</time></trkpt><trkpt lat="42.452969" lon="18.534079"><ele>75.7</ele><time>2012-05-02T08:46:19.0000000+00:00</time></trkpt><trkpt lat="42.452969" lon="18.534079"><ele>75.7</ele><time>2012-05-02T08:46:24.0000000+00:00</time></trkpt><trkpt lat="42.452969" lon="18.534079"><ele>75.7</ele><time>2012-05-02T08:46:29.0000000+00:00</time></trkpt><trkpt lat="42.452969" lon="18.534079"><ele>75.7</ele><time>2012-05-02T08:46:34.0000000+00:00</time></trkpt><trkpt lat="42.452972" lon="18.534079"><ele>75.7</ele><time>2012-05-02T08:46:39.0000000+00:00</time></trkpt><trkpt lat="42.452972" lon="18.534079"><ele>75.7</ele><time>2012-05-02T08:46:44.0000000+00:00</time></trkpt><trkpt lat="42.452972" lon="18.534079"><ele>75.7</ele><time>2012-05-02T08:46:49.0000000+00:00</time></trkpt><trkpt lat="42.452972" lon="18.534079"><ele>75.7</ele><time>2012-05-02T08:46:54.0000000+00:00</time></trkpt><trkpt lat="42.452972" lon="18.534079"><ele>75.7</ele><time>2012-05-02T08:46:59.0000000+00:00</time></trkpt><trkpt lat="42.452972" lon="18.534079"><ele>75.6</ele><time>2012-05-02T08:47:04.0000000+00:00</time></trkpt><trkpt lat="42.452972" lon="18.534079"><ele>75.6</ele><time>2012-05-02T08:47:09.0000000+00:00</time></trkpt><trkpt lat="42.452972" lon="18.534079"><ele>75.6</ele><time>2012-05-02T08:47:14.0000000+00:00</time></trkpt><trkpt lat="42.452972" lon="18.534079"><ele>75.6</ele><time>2012-05-02T08:47:19.0000000+00:00</time></trkpt><trkpt lat="42.452976" lon="18.534079"><ele>75.5</ele><time>2012-05-02T08:47:24.0000000+00:00</time></trkpt><trkpt lat="42.452976" lon="18.534079"><ele>75.5</ele><time>2012-05-02T08:47:29.0000000+00:00</time></trkpt><trkpt lat="42.452976" lon="18.534079"><ele>75.5</ele><time>2012-05-02T08:47:34.0000000+00:00</time></trkpt><trkpt lat="42.452976" lon="18.534081"><ele>75.5</ele><time>2012-05-02T08:47:39.0000000+00:00</time></trkpt><trkpt lat="42.452976" lon="18.534081"><ele>75.5</ele><time>2012-05-02T08:47:44.0000000+00:00</time></trkpt><trkpt lat="42.452976" lon="18.534079"><ele>75.6</ele><time>2012-05-02T08:47:49.0000000+00:00</time></trkpt><trkpt lat="42.452976" lon="18.534079"><ele>75.6</ele><time>2012-05-02T08:47:54.0000000+00:00</time></trkpt><trkpt lat="42.45298" lon="18.534079"><ele>75.6</ele><time>2012-05-02T08:47:59.0000000+00:00</time></trkpt><trkpt lat="42.45298" lon="18.534079"><ele>75.7</ele><time>2012-05-02T08:48:04.0000000+00:00</time></trkpt><trkpt lat="42.45298" lon="18.534081"><ele>75.7</ele><time>2012-05-02T08:48:09.0000000+00:00</time></trkpt><trkpt lat="42.45298" lon="18.534081"><ele>75.6</ele><time>2012-05-02T08:48:14.0000000+00:00</time></trkpt><trkpt lat="42.45298" lon="18.534081"><ele>75.6</ele><time>2012-05-02T08:48:19.0000000+00:00</time></trkpt><trkpt lat="42.45298" lon="18.534081"><ele>75.6</ele><time>2012-05-02T08:48:24.0000000+00:00</time></trkpt><trkpt lat="42.45298" lon="18.534081"><ele>75.6</ele><time>2012-05-02T08:48:29.0000000+00:00</time></trkpt><trkpt lat="42.45298" lon="18.534081"><ele>75.6</ele><time>2012-05-02T08:48:34.0000000+00:00</time></trkpt><trkpt lat="42.452984" lon="18.534081"><ele>75.6</ele><time>2012-05-02T08:48:39.0000000+00:00</time></trkpt><trkpt lat="42.452984" lon="18.534081"><ele>75.6</ele><time>2012-05-02T08:48:44.0000000+00:00</time></trkpt><trkpt lat="42.452984" lon="18.534081"><ele>75.6</ele><time>2012-05-02T08:48:49.0000000+00:00</time></trkpt><trkpt lat="42.452984" lon="18.534081"><ele>75.6</ele><time>2012-05-02T08:48:54.0000000+00:00</time></trkpt><trkpt lat="42.452984" lon="18.534081"><ele>75.5</ele><time>2012-05-02T08:48:59.0000000+00:00</time></trkpt><trkpt lat="42.452984" lon="18.534084"><ele>75.5</ele><time>2012-05-02T08:49:04.0000000+00:00</time></trkpt><trkpt lat="42.452984" lon="18.534094"><ele>75.4</ele><time>2012-05-02T08:49:09.0000000+00:00</time></trkpt><trkpt lat="42.452984" lon="18.534132"><ele>75.1</ele><time>2012-05-02T08:49:14.0000000+00:00</time></trkpt><trkpt lat="42.452965" lon="18.53417"><ele>74.7</ele><time>2012-05-02T08:49:19.0000000+00:00</time></trkpt><trkpt lat="42.452969" lon="18.534206"><ele>74.3</ele><time>2012-05-02T08:49:24.0000000+00:00</time></trkpt><trkpt lat="42.452965" lon="18.534222"><ele>74.1</ele><time>2012-05-02T08:49:29.0000000+00:00</time></trkpt><trkpt lat="42.452961" lon="18.534225"><ele>74.0</ele><time>2012-05-02T08:49:34.0000000+00:00</time></trkpt><trkpt lat="42.452957" lon="18.534225"><ele>73.9</ele><time>2012-05-02T08:49:39.0000000+00:00</time></trkpt><trkpt lat="42.452953" lon="18.534225"><ele>73.9</ele><time>2012-05-02T08:49:44.0000000+00:00</time></trkpt><trkpt lat="42.452953" lon="18.534222"><ele>73.8</ele><time>2012-05-02T08:49:49.0000000+00:00</time></trkpt><trkpt lat="42.452946" lon="18.534216"><ele>73.8</ele><time>2012-05-02T08:49:54.0000000+00:00</time></trkpt><trkpt lat="42.452946" lon="18.534208"><ele>73.9</ele><time>2012-05-02T08:49:59.0000000+00:00</time></trkpt><trkpt lat="42.452938" lon="18.534203"><ele>73.9</ele><time>2012-05-02T08:50:04.0000000+00:00</time></trkpt><trkpt lat="42.452934" lon="18.534193"><ele>74.0</ele><time>2012-05-02T08:50:09.0000000+00:00</time></trkpt><trkpt lat="42.452934" lon="18.534191"><ele>74.1</ele><time>2012-05-02T08:50:14.0000000+00:00</time></trkpt><trkpt lat="42.452938" lon="18.534187"><ele>74.2</ele><time>2012-05-02T08:50:19.0000000+00:00</time></trkpt><trkpt lat="42.452938" lon="18.534185"><ele>74.5</ele><time>2012-05-02T08:50:24.0000000+00:00</time></trkpt><trkpt lat="42.452938" lon="18.534185"><ele>74.4</ele><time>2012-05-02T08:50:29.0000000+00:00</time></trkpt><trkpt lat="42.452938" lon="18.534185"><ele>74.4</ele><time>2012-05-02T08:50:34.0000000+00:00</time></trkpt><trkpt lat="42.452938" lon="18.534164"><ele>75.0</ele><time>2012-05-02T08:50:39.0000000+00:00</time></trkpt><trkpt lat="42.452923" lon="18.534121"><ele>78.2</ele><time>2012-05-02T08:50:44.0000000+00:00</time></trkpt><trkpt lat="42.452923" lon="18.53414"><ele>78.0</ele><time>2012-05-02T08:50:49.0000000+00:00</time></trkpt><trkpt lat="42.452908" lon="18.534229"><ele>78.0</ele><time>2012-05-02T08:50:54.0000000+00:00</time></trkpt><trkpt lat="42.452885" lon="18.534328"><ele>77.4</ele><time>2012-05-02T08:50:59.0000000+00:00</time></trkpt><trkpt lat="42.452888" lon="18.53443"><ele>77.7</ele><time>2012-05-02T08:51:04.0000000+00:00</time></trkpt><trkpt lat="42.453003" lon="18.534491"><ele>78.2</ele><time>2012-05-02T08:51:09.0000000+00:00</time></trkpt><trkpt lat="42.453102" lon="18.534595"><ele>78.7</ele><time>2012-05-02T08:51:14.0000000+00:00</time></trkpt><trkpt lat="42.453152" lon="18.534647"><ele>78.7</ele><time>2012-05-02T08:51:19.0000000+00:00</time></trkpt><trkpt lat="42.453186" lon="18.534842"><ele>78.5</ele><time>2012-05-02T08:51:24.0000000+00:00</time></trkpt><trkpt lat="42.453205" lon="18.534918"><ele>78.4</ele><time>2012-05-02T08:51:29.0000000+00:00</time></trkpt><trkpt lat="42.453209" lon="18.534918"><ele>78.3</ele><time>2012-05-02T08:51:34.0000000+00:00</time></trkpt><trkpt lat="42.453213" lon="18.534927"><ele>78.4</ele><time>2012-05-02T08:51:39.0000000+00:00</time></trkpt><trkpt lat="42.45322" lon="18.534727"><ele>77.6</ele><time>2012-05-02T08:51:44.0000000+00:00</time></trkpt><trkpt lat="42.453152" lon="18.534512"><ele>76.3</ele><time>2012-05-02T08:51:49.0000000+00:00</time></trkpt><trkpt lat="42.452927" lon="18.534437"><ele>75.2</ele><time>2012-05-02T08:51:54.0000000+00:00</time></trkpt><trkpt lat="42.452702" lon="18.534643"><ele>71.4</ele><time>2012-05-02T08:51:59.0000000+00:00</time></trkpt><trkpt lat="42.452724" lon="18.534874"><ele>69.3</ele><time>2012-05-02T08:52:04.0000000+00:00</time></trkpt><trkpt lat="42.452721" lon="18.535046"><ele>67.8</ele><time>2012-05-02T08:52:09.0000000+00:00</time></trkpt><trkpt lat="42.452713" lon="18.535069"><ele>67.6</ele><time>2012-05-02T08:52:14.0000000+00:00</time></trkpt><trkpt lat="42.452702" lon="18.535049"><ele>67.7</ele><time>2012-05-02T08:52:19.0000000+00:00</time></trkpt><trkpt lat="42.452686" lon="18.534975"><ele>68.0</ele><time>2012-05-02T08:52:24.0000000+00:00</time></trkpt><trkpt lat="42.452675" lon="18.534746"><ele>67.8</ele><time>2012-05-02T08:52:29.0000000+00:00</time></trkpt><trkpt lat="42.45277" lon="18.534601"><ele>69.3</ele><time>2012-05-02T08:52:34.0000000+00:00</time></trkpt><trkpt lat="42.452843" lon="18.534521"><ele>71.5</ele><time>2012-05-02T08:52:39.0000000+00:00</time></trkpt><trkpt lat="42.452881" lon="18.534504"><ele>73.2</ele><time>2012-05-02T08:52:44.0000000+00:00</time></trkpt><trkpt lat="42.452915" lon="18.53447"><ele>74.7</ele><time>2012-05-02T08:52:49.0000000+00:00</time></trkpt><trkpt lat="42.452923" lon="18.534399"><ele>76.4</ele><time>2012-05-02T08:52:54.0000000+00:00</time></trkpt><trkpt lat="42.452942" lon="18.534304"><ele>76.0</ele><time>2012-05-02T08:52:59.0000000+00:00</time></trkpt><trkpt lat="42.452953" lon="18.534208"><ele>76.2</ele><time>2012-05-02T08:53:04.0000000+00:00</time></trkpt><trkpt lat="42.452969" lon="18.534142"><ele>76.8</ele><time>2012-05-02T08:53:09.0000000+00:00</time></trkpt><trkpt lat="42.452984" lon="18.534025"><ele>75.8</ele><time>2012-05-02T08:53:14.0000000+00:00</time></trkpt><trkpt lat="42.453037" lon="18.53404"><ele>75.8</ele><time>2012-05-02T08:53:19.0000000+00:00</time></trkpt><trkpt lat="42.453068" lon="18.534046"><ele>76.2</ele><time>2012-05-02T08:53:24.0000000+00:00</time></trkpt><trkpt lat="42.453053" lon="18.534012"><ele>77.9</ele><time>2012-05-02T08:53:29.0000000+00:00</time></trkpt><trkpt lat="42.453049" lon="18.534021"><ele>78.1</ele><time>2012-05-02T08:53:34.0000000+00:00</time></trkpt><trkpt lat="42.453056" lon="18.534018"><ele>78.2</ele><time>2012-05-02T08:53:39.0000000+00:00</time></trkpt><trkpt lat="42.453045" lon="18.534012"><ele>78.6</ele><time>2012-05-02T08:53:44.0000000+00:00</time></trkpt><trkpt lat="42.452995" lon="18.534008"><ele>78.9</ele><time>2012-05-02T08:53:49.0000000+00:00</time></trkpt><trkpt lat="42.452946" lon="18.534058"><ele>78.8</ele><time>2012-05-02T08:53:54.0000000+00:00</time></trkpt><trkpt lat="42.452923" lon="18.534168"><ele>77.7</ele><time>2012-05-02T08:53:59.0000000+00:00</time></trkpt><trkpt lat="42.452881" lon="18.534285"><ele>76.4</ele><time>2012-05-02T08:54:04.0000000+00:00</time></trkpt><trkpt lat="42.452873" lon="18.534374"><ele>75.0</ele><time>2012-05-02T08:54:09.0000000+00:00</time></trkpt><trkpt lat="42.452892" lon="18.534391"><ele>75.2</ele><time>2012-05-02T08:54:14.0000000+00:00</time></trkpt><trkpt lat="42.452892" lon="18.534391"><ele>75.2</ele><time>2012-05-02T08:54:19.0000000+00:00</time></trkpt><trkpt lat="42.452892" lon="18.534391"><ele>75.3</ele><time>2012-05-02T08:54:24.0000000+00:00</time></trkpt><trkpt lat="42.452892" lon="18.534391"><ele>75.3</ele><time>2012-05-02T08:54:29.0000000+00:00</time></trkpt><trkpt lat="42.452888" lon="18.534391"><ele>75.3</ele><time>2012-05-02T08:54:34.0000000+00:00</time></trkpt><trkpt lat="42.452888" lon="18.534391"><ele>75.3</ele><time>2012-05-02T08:54:39.0000000+00:00</time></trkpt><trkpt lat="42.452888" lon="18.534391"><ele>75.3</ele><time>2012-05-02T08:54:44.0000000+00:00</time></trkpt><trkpt lat="42.452888" lon="18.534391"><ele>75.3</ele><time>2012-05-02T08:54:49.0000000+00:00</time></trkpt><trkpt lat="42.452888" lon="18.534391"><ele>75.3</ele><time>2012-05-02T08:54:54.0000000+00:00</time></trkpt><trkpt lat="42.452888" lon="18.534391"><ele>75.3</ele><time>2012-05-02T08:54:59.0000000+00:00</time></trkpt><trkpt lat="42.452888" lon="18.534391"><ele>75.3</ele><time>2012-05-02T08:55:04.0000000+00:00</time></trkpt><trkpt lat="42.452888" lon="18.534391"><ele>75.3</ele><time>2012-05-02T08:55:09.0000000+00:00</time></trkpt><trkpt lat="42.452885" lon="18.534388"><ele>75.3</ele><time>2012-05-02T08:55:14.0000000+00:00</time></trkpt><trkpt lat="42.452881" lon="18.534378"><ele>74.9</ele><time>2012-05-02T08:55:19.0000000+00:00</time></trkpt><trkpt lat="42.452877" lon="18.53437"><ele>74.7</ele><time>2012-05-02T08:55:24.0000000+00:00</time></trkpt><trkpt lat="42.452869" lon="18.534376"><ele>74.5</ele><time>2012-05-02T08:55:29.0000000+00:00</time></trkpt><trkpt lat="42.452797" lon="18.534437"><ele>74.5</ele><time>2012-05-02T08:55:34.0000000+00:00</time></trkpt><trkpt lat="42.452644" lon="18.534662"><ele>73.8</ele><time>2012-05-02T08:55:39.0000000+00:00</time></trkpt><trkpt lat="42.452709" lon="18.535017"><ele>72.0</ele><time>2012-05-02T08:55:44.0000000+00:00</time></trkpt><trkpt lat="42.452633" lon="18.535461"><ele>69.6</ele><time>2012-05-02T08:55:49.0000000+00:00</time></trkpt><trkpt lat="42.452457" lon="18.535843"><ele>66.6</ele><time>2012-05-02T08:55:54.0000000+00:00</time></trkpt><trkpt lat="42.452343" lon="18.536068"><ele>62.1</ele><time>2012-05-02T08:55:59.0000000+00:00</time></trkpt><trkpt lat="42.452255" lon="18.536282"><ele>57.8</ele><time>2012-05-02T08:56:04.0000000+00:00</time></trkpt><trkpt lat="42.452206" lon="18.536472"><ele>55.0</ele><time>2012-05-02T08:56:09.0000000+00:00</time></trkpt><trkpt lat="42.452137" lon="18.536533"><ele>51.8</ele><time>2012-05-02T08:56:14.0000000+00:00</time></trkpt><trkpt lat="42.452034" lon="18.536537"><ele>47.6</ele><time>2012-05-02T08:56:19.0000000+00:00</time></trkpt><trkpt lat="42.451958" lon="18.536455"><ele>45.5</ele><time>2012-05-02T08:56:24.0000000+00:00</time></trkpt><trkpt lat="42.451908" lon="18.536352"><ele>44.7</ele><time>2012-05-02T08:56:29.0000000+00:00</time></trkpt><trkpt lat="42.451897" lon="18.536249"><ele>44.6</ele><time>2012-05-02T08:56:34.0000000+00:00</time></trkpt><trkpt lat="42.451828" lon="18.536146"><ele>45.9</ele><time>2012-05-02T08:56:39.0000000+00:00</time></trkpt><trkpt lat="42.451862" lon="18.536032"><ele>45.4</ele><time>2012-05-02T08:56:44.0000000+00:00</time></trkpt><trkpt lat="42.451847" lon="18.535948"><ele>44.7</ele><time>2012-05-02T08:56:49.0000000+00:00</time></trkpt><trkpt lat="42.451977" lon="18.535734"><ele>44.1</ele><time>2012-05-02T08:56:54.0000000+00:00</time></trkpt><trkpt lat="42.452019" lon="18.535522"><ele>44.3</ele><time>2012-05-02T08:56:59.0000000+00:00</time></trkpt><trkpt lat="42.452011" lon="18.535295"><ele>45.6</ele><time>2012-05-02T08:57:04.0000000+00:00</time></trkpt><trkpt lat="42.452" lon="18.535053"><ele>47.1</ele><time>2012-05-02T08:57:09.0000000+00:00</time></trkpt><trkpt lat="42.451984" lon="18.534855"><ele>46.2</ele><time>2012-05-02T08:57:14.0000000+00:00</time></trkpt><trkpt lat="42.451984" lon="18.534794"><ele>45.0</ele><time>2012-05-02T08:57:19.0000000+00:00</time></trkpt><trkpt lat="42.451965" lon="18.534761"><ele>44.6</ele><time>2012-05-02T08:57:24.0000000+00:00</time></trkpt><trkpt lat="42.451931" lon="18.534872"><ele>48.5</ele><time>2012-05-02T08:57:29.0000000+00:00</time></trkpt><trkpt lat="42.451881" lon="18.535097"><ele>46.5</ele><time>2012-05-02T08:57:34.0000000+00:00</time></trkpt><trkpt lat="42.451675" lon="18.535414"><ele>46.4</ele><time>2012-05-02T08:57:39.0000000+00:00</time></trkpt><trkpt lat="42.451557" lon="18.535522"><ele>47.9</ele><time>2012-05-02T08:57:44.0000000+00:00</time></trkpt><trkpt lat="42.451477" lon="18.535564"><ele>47.5</ele><time>2012-05-02T08:57:49.0000000+00:00</time></trkpt><trkpt lat="42.451427" lon="18.535736"><ele>46.9</ele><time>2012-05-02T08:57:54.0000000+00:00</time></trkpt><trkpt lat="42.45142" lon="18.535942"><ele>46.9</ele><time>2012-05-02T08:57:59.0000000+00:00</time></trkpt><trkpt lat="42.45142" lon="18.536039"><ele>46.1</ele><time>2012-05-02T08:58:04.0000000+00:00</time></trkpt><trkpt lat="42.451439" lon="18.536032"><ele>45.1</ele><time>2012-05-02T08:58:09.0000000+00:00</time></trkpt><trkpt lat="42.451443" lon="18.536034"><ele>44.9</ele><time>2012-05-02T08:58:14.0000000+00:00</time></trkpt><trkpt lat="42.45145" lon="18.536041"><ele>44.8</ele><time>2012-05-02T08:58:19.0000000+00:00</time></trkpt><trkpt lat="42.451458" lon="18.536043"><ele>44.7</ele><time>2012-05-02T08:58:24.0000000+00:00</time></trkpt><trkpt lat="42.451462" lon="18.536102"><ele>44.8</ele><time>2012-05-02T08:58:29.0000000+00:00</time></trkpt><trkpt lat="42.45145" lon="18.536257"><ele>44.5</ele><time>2012-05-02T08:58:34.0000000+00:00</time></trkpt><trkpt lat="42.451347" lon="18.536432"><ele>44.0</ele><time>2012-05-02T08:58:39.0000000+00:00</time></trkpt><trkpt lat="42.451183" lon="18.536427"><ele>42.3</ele><time>2012-05-02T08:58:44.0000000+00:00</time></trkpt><trkpt lat="42.451008" lon="18.536446"><ele>41.0</ele><time>2012-05-02T08:58:49.0000000+00:00</time></trkpt><trkpt lat="42.45079" lon="18.536413"><ele>38.1</ele><time>2012-05-02T08:58:54.0000000+00:00</time></trkpt><trkpt lat="42.450565" lon="18.536337"><ele>34.9</ele><time>2012-05-02T08:58:59.0000000+00:00</time></trkpt><trkpt lat="42.450409" lon="18.53624"><ele>31.9</ele><time>2012-05-02T08:59:04.0000000+00:00</time></trkpt><trkpt lat="42.450268" lon="18.53632"><ele>30.0</ele><time>2012-05-02T08:59:09.0000000+00:00</time></trkpt><trkpt lat="42.450184" lon="18.536646"><ele>26.9</ele><time>2012-05-02T08:59:14.0000000+00:00</time></trkpt><trkpt lat="42.450073" lon="18.537075"><ele>23.7</ele><time>2012-05-02T08:59:19.0000000+00:00</time></trkpt><trkpt lat="42.45002" lon="18.537373"><ele>21.5</ele><time>2012-05-02T08:59:24.0000000+00:00</time></trkpt><trkpt lat="42.450058" lon="18.537685"><ele>16.3</ele><time>2012-05-02T08:59:29.0000000+00:00</time></trkpt><trkpt lat="42.450211" lon="18.537943"><ele>12.1</ele><time>2012-05-02T08:59:34.0000000+00:00</time></trkpt><trkpt lat="42.450367" lon="18.538084"><ele>9.9</ele><time>2012-05-02T08:59:39.0000000+00:00</time></trkpt><trkpt lat="42.450397" lon="18.53813"><ele>10.1</ele><time>2012-05-02T08:59:44.0000000+00:00</time></trkpt><trkpt lat="42.450397" lon="18.538168"><ele>7.8</ele><time>2012-05-02T08:59:49.0000000+00:00</time></trkpt><trkpt lat="42.450397" lon="18.538176"><ele>7.1</ele><time>2012-05-02T08:59:54.0000000+00:00</time></trkpt><trkpt lat="42.450401" lon="18.538179"><ele>6.9</ele><time>2012-05-02T08:59:59.0000000+00:00</time></trkpt><trkpt lat="42.450405" lon="18.53817"><ele>6.8</ele><time>2012-05-02T09:00:04.0000000+00:00</time></trkpt><trkpt lat="42.450405" lon="18.538168"><ele>7.0</ele><time>2012-05-02T09:00:09.0000000+00:00</time></trkpt><trkpt lat="42.450413" lon="18.538164"><ele>7.2</ele><time>2012-05-02T09:00:14.0000000+00:00</time></trkpt><trkpt lat="42.450413" lon="18.538164"><ele>7.4</ele><time>2012-05-02T09:00:19.0000000+00:00</time></trkpt><trkpt lat="42.450417" lon="18.53816"><ele>7.5</ele><time>2012-05-02T09:00:24.0000000+00:00</time></trkpt><trkpt lat="42.450417" lon="18.538155"><ele>7.6</ele><time>2012-05-02T09:00:29.0000000+00:00</time></trkpt><trkpt lat="42.450417" lon="18.538147"><ele>7.7</ele><time>2012-05-02T09:00:34.0000000+00:00</time></trkpt><trkpt lat="42.450409" lon="18.538141"><ele>7.7</ele><time>2012-05-02T09:00:39.0000000+00:00</time></trkpt><trkpt lat="42.450409" lon="18.538139"><ele>7.8</ele><time>2012-05-02T09:00:44.0000000+00:00</time></trkpt><trkpt lat="42.450413" lon="18.538136"><ele>7.8</ele><time>2012-05-02T09:00:49.0000000+00:00</time></trkpt><trkpt lat="42.45042" lon="18.538134"><ele>7.9</ele><time>2012-05-02T09:00:54.0000000+00:00</time></trkpt><trkpt lat="42.45042" lon="18.538118"><ele>8.0</ele><time>2012-05-02T09:00:59.0000000+00:00</time></trkpt><trkpt lat="42.450432" lon="18.538116"><ele>8.0</ele><time>2012-05-02T09:01:04.0000000+00:00</time></trkpt><trkpt lat="42.450436" lon="18.538115"><ele>8.1</ele><time>2012-05-02T09:01:09.0000000+00:00</time></trkpt><trkpt lat="42.450443" lon="18.538115"><ele>8.2</ele><time>2012-05-02T09:01:14.0000000+00:00</time></trkpt><trkpt lat="42.450447" lon="18.538115"><ele>8.3</ele><time>2012-05-02T09:01:19.0000000+00:00</time></trkpt><trkpt lat="42.450447" lon="18.538116"><ele>8.6</ele><time>2012-05-02T09:01:24.0000000+00:00</time></trkpt><trkpt lat="42.450447" lon="18.538116"><ele>8.7</ele><time>2012-05-02T09:01:29.0000000+00:00</time></trkpt><trkpt lat="42.450447" lon="18.538116"><ele>8.8</ele><time>2012-05-02T09:01:34.0000000+00:00</time></trkpt><trkpt lat="42.450447" lon="18.538116"><ele>8.9</ele><time>2012-05-02T09:01:39.0000000+00:00</time></trkpt><trkpt lat="42.450451" lon="18.538118"><ele>8.9</ele><time>2012-05-02T09:01:44.0000000+00:00</time></trkpt><trkpt lat="42.450481" lon="18.538162"><ele>9.2</ele><time>2012-05-02T09:01:49.0000000+00:00</time></trkpt><trkpt lat="42.450531" lon="18.538204"><ele>13.0</ele><time>2012-05-02T09:01:54.0000000+00:00</time></trkpt><trkpt lat="42.450562" lon="18.538244"><ele>14.2</ele><time>2012-05-02T09:01:59.0000000+00:00</time></trkpt><trkpt lat="42.450569" lon="18.538399"><ele>15.9</ele><time>2012-05-02T09:02:04.0000000+00:00</time></trkpt><trkpt lat="42.450645" lon="18.538614"><ele>18.3</ele><time>2012-05-02T09:02:09.0000000+00:00</time></trkpt><trkpt lat="42.450703" lon="18.538813"><ele>20.0</ele><time>2012-05-02T09:02:14.0000000+00:00</time></trkpt><trkpt lat="42.450794" lon="18.539028"><ele>20.5</ele><time>2012-05-02T09:02:19.0000000+00:00</time></trkpt><trkpt lat="42.450893" lon="18.539209"><ele>20.6</ele><time>2012-05-02T09:02:24.0000000+00:00</time></trkpt><trkpt lat="42.450928" lon="18.539543"><ele>21.1</ele><time>2012-05-02T09:02:29.0000000+00:00</time></trkpt><trkpt lat="42.451" lon="18.539822"><ele>21.5</ele><time>2012-05-02T09:02:34.0000000+00:00</time></trkpt><trkpt lat="42.451096" lon="18.540131"><ele>23.4</ele><time>2012-05-02T09:02:39.0000000+00:00</time></trkpt><trkpt lat="42.451233" lon="18.540344"><ele>22.8</ele><time>2012-05-02T09:02:44.0000000+00:00</time></trkpt><trkpt lat="42.451317" lon="18.54051"><ele>23.8</ele><time>2012-05-02T09:02:49.0000000+00:00</time></trkpt><trkpt lat="42.451393" lon="18.540773"><ele>24.3</ele><time>2012-05-02T09:02:54.0000000+00:00</time></trkpt><trkpt lat="42.451485" lon="18.541044"><ele>25.9</ele><time>2012-05-02T09:02:59.0000000+00:00</time></trkpt><trkpt lat="42.451527" lon="18.541317"><ele>27.9</ele><time>2012-05-02T09:03:04.0000000+00:00</time></trkpt><trkpt lat="42.451515" lon="18.541521"><ele>29.8</ele><time>2012-05-02T09:03:09.0000000+00:00</time></trkpt><trkpt lat="42.45153" lon="18.541777"><ele>32.0</ele><time>2012-05-02T09:03:14.0000000+00:00</time></trkpt><trkpt lat="42.451561" lon="18.54192"><ele>32.6</ele><time>2012-05-02T09:03:19.0000000+00:00</time></trkpt><trkpt lat="42.451599" lon="18.542084"><ele>33.5</ele><time>2012-05-02T09:03:24.0000000+00:00</time></trkpt><trkpt lat="42.451611" lon="18.542244"><ele>35.3</ele><time>2012-05-02T09:03:29.0000000+00:00</time></trkpt><trkpt lat="42.451614" lon="18.542404"><ele>36.5</ele><time>2012-05-02T09:03:34.0000000+00:00</time></trkpt><trkpt lat="42.451611" lon="18.542551"><ele>36.4</ele><time>2012-05-02T09:03:39.0000000+00:00</time></trkpt><trkpt lat="42.451595" lon="18.54274"><ele>37.7</ele><time>2012-05-02T09:03:44.0000000+00:00</time></trkpt><trkpt lat="42.451565" lon="18.542986"><ele>37.4</ele><time>2012-05-02T09:03:49.0000000+00:00</time></trkpt><trkpt lat="42.45153" lon="18.54315"><ele>39.9</ele><time>2012-05-02T09:03:54.0000000+00:00</time></trkpt><trkpt lat="42.451504" lon="18.543293"><ele>42.9</ele><time>2012-05-02T09:03:59.0000000+00:00</time></trkpt><trkpt lat="42.451473" lon="18.543489"><ele>43.4</ele><time>2012-05-02T09:04:04.0000000+00:00</time></trkpt><trkpt lat="42.451412" lon="18.543709"><ele>44.2</ele><time>2012-05-02T09:04:09.0000000+00:00</time></trkpt><trkpt lat="42.451374" lon="18.543909"><ele>45.4</ele><time>2012-05-02T09:04:14.0000000+00:00</time></trkpt><trkpt lat="42.451275" lon="18.544109"><ele>44.9</ele><time>2012-05-02T09:04:19.0000000+00:00</time></trkpt><trkpt lat="42.451168" lon="18.54434"><ele>43.4</ele><time>2012-05-02T09:04:24.0000000+00:00</time></trkpt><trkpt lat="42.451122" lon="18.544605"><ele>44.2</ele><time>2012-05-02T09:04:29.0000000+00:00</time></trkpt><trkpt lat="42.451054" lon="18.544861"><ele>45.0</ele><time>2012-05-02T09:04:34.0000000+00:00</time></trkpt><trkpt lat="42.451031" lon="18.545259"><ele>44.9</ele><time>2012-05-02T09:04:39.0000000+00:00</time></trkpt><trkpt lat="42.450996" lon="18.545609"><ele>44.7</ele><time>2012-05-02T09:04:44.0000000+00:00</time></trkpt><trkpt lat="42.450974" lon="18.545973"><ele>44.7</ele><time>2012-05-02T09:04:49.0000000+00:00</time></trkpt><trkpt lat="42.450962" lon="18.54623"><ele>44.9</ele><time>2012-05-02T09:04:54.0000000+00:00</time></trkpt><trkpt lat="42.450863" lon="18.546595"><ele>44.9</ele><time>2012-05-02T09:04:59.0000000+00:00</time></trkpt><trkpt lat="42.450867" lon="18.546951"><ele>44.8</ele><time>2012-05-02T09:05:04.0000000+00:00</time></trkpt><trkpt lat="42.450935" lon="18.547272"><ele>43.8</ele><time>2012-05-02T09:05:09.0000000+00:00</time></trkpt><trkpt lat="42.450996" lon="18.547552"><ele>43.7</ele><time>2012-05-02T09:05:14.0000000+00:00</time></trkpt><trkpt lat="42.450939" lon="18.547894"><ele>43.6</ele><time>2012-05-02T09:05:19.0000000+00:00</time></trkpt><trkpt lat="42.450821" lon="18.548193"><ele>42.8</ele><time>2012-05-02T09:05:24.0000000+00:00</time></trkpt><trkpt lat="42.450733" lon="18.548536"><ele>43.1</ele><time>2012-05-02T09:05:29.0000000+00:00</time></trkpt><trkpt lat="42.450703" lon="18.548927"><ele>44.2</ele><time>2012-05-02T09:05:34.0000000+00:00</time></trkpt><trkpt lat="42.450607" lon="18.549307"><ele>44.6</ele><time>2012-05-02T09:05:39.0000000+00:00</time></trkpt><trkpt lat="42.4505" lon="18.549686"><ele>44.4</ele><time>2012-05-02T09:05:44.0000000+00:00</time></trkpt><trkpt lat="42.45052" lon="18.550081"><ele>44.2</ele><time>2012-05-02T09:05:49.0000000+00:00</time></trkpt><trkpt lat="42.450497" lon="18.550528"><ele>43.3</ele><time>2012-05-02T09:05:54.0000000+00:00</time></trkpt><trkpt lat="42.450439" lon="18.551025"><ele>42.5</ele><time>2012-05-02T09:05:59.0000000+00:00</time></trkpt><trkpt lat="42.450558" lon="18.551519"><ele>41.5</ele><time>2012-05-02T09:06:04.0000000+00:00</time></trkpt><trkpt lat="42.450745" lon="18.551983"><ele>40.8</ele><time>2012-05-02T09:06:09.0000000+00:00</time></trkpt><trkpt lat="42.450836" lon="18.552454"><ele>41.0</ele><time>2012-05-02T09:06:14.0000000+00:00</time></trkpt><trkpt lat="42.450966" lon="18.552876"><ele>39.8</ele><time>2012-05-02T09:06:19.0000000+00:00</time></trkpt><trkpt lat="42.451172" lon="18.553127"><ele>40.1</ele><time>2012-05-02T09:06:24.0000000+00:00</time></trkpt><trkpt lat="42.451359" lon="18.553301"><ele>39.5</ele><time>2012-05-02T09:06:29.0000000+00:00</time></trkpt><trkpt lat="42.451488" lon="18.553505"><ele>39.0</ele><time>2012-05-02T09:06:34.0000000+00:00</time></trkpt><trkpt lat="42.451572" lon="18.553802"><ele>37.2</ele><time>2012-05-02T09:06:39.0000000+00:00</time></trkpt><trkpt lat="42.451584" lon="18.554131"><ele>35.4</ele><time>2012-05-02T09:06:44.0000000+00:00</time></trkpt><trkpt lat="42.45166" lon="18.554586"><ele>33.9</ele><time>2012-05-02T09:06:49.0000000+00:00</time></trkpt><trkpt lat="42.451736" lon="18.555088"><ele>32.5</ele><time>2012-05-02T09:06:54.0000000+00:00</time></trkpt><trkpt lat="42.451813" lon="18.555611"><ele>31.1</ele><time>2012-05-02T09:06:59.0000000+00:00</time></trkpt><trkpt lat="42.451992" lon="18.556135"><ele>27.8</ele><time>2012-05-02T09:07:04.0000000+00:00</time></trkpt><trkpt lat="42.452263" lon="18.556564"><ele>25.1</ele><time>2012-05-02T09:07:09.0000000+00:00</time></trkpt><trkpt lat="42.452503" lon="18.556942"><ele>24.4</ele><time>2012-05-02T09:07:14.0000000+00:00</time></trkpt><trkpt lat="42.452679" lon="18.557318"><ele>24.3</ele><time>2012-05-02T09:07:19.0000000+00:00</time></trkpt><trkpt lat="42.452843" lon="18.557728"><ele>22.6</ele><time>2012-05-02T09:07:24.0000000+00:00</time></trkpt><trkpt lat="42.45311" lon="18.558069"><ele>20.5</ele><time>2012-05-02T09:07:29.0000000+00:00</time></trkpt><trkpt lat="42.453465" lon="18.55839"><ele>17.0</ele><time>2012-05-02T09:07:34.0000000+00:00</time></trkpt><trkpt lat="42.453907" lon="18.558592"><ele>13.7</ele><time>2012-05-02T09:07:39.0000000+00:00</time></trkpt><trkpt lat="42.454361" lon="18.558617"><ele>13.4</ele><time>2012-05-02T09:07:44.0000000+00:00</time></trkpt><trkpt lat="42.454712" lon="18.558573"><ele>12.6</ele><time>2012-05-02T09:07:49.0000000+00:00</time></trkpt><trkpt lat="42.454945" lon="18.558578"><ele>12.1</ele><time>2012-05-02T09:07:54.0000000+00:00</time></trkpt><trkpt lat="42.45512" lon="18.558723"><ele>17.2</ele><time>2012-05-02T09:07:59.0000000+00:00</time></trkpt><trkpt lat="42.455246" lon="18.559025"><ele>17.3</ele><time>2012-05-02T09:08:04.0000000+00:00</time></trkpt><trkpt lat="42.455257" lon="18.559414"><ele>12.8</ele><time>2012-05-02T09:08:09.0000000+00:00</time></trkpt><trkpt lat="42.455257" lon="18.559761"><ele>10.3</ele><time>2012-05-02T09:08:14.0000000+00:00</time></trkpt><trkpt lat="42.45525" lon="18.560022"><ele>8.6</ele><time>2012-05-02T09:08:19.0000000+00:00</time></trkpt><trkpt lat="42.455265" lon="18.560349"><ele>7.4</ele><time>2012-05-02T09:08:24.0000000+00:00</time></trkpt><trkpt lat="42.455246" lon="18.560694"><ele>6.1</ele><time>2012-05-02T09:08:29.0000000+00:00</time></trkpt><trkpt lat="42.455227" lon="18.561052"><ele>3.5</ele><time>2012-05-02T09:08:34.0000000+00:00</time></trkpt><trkpt lat="42.455193" lon="18.561411"><ele>0.5</ele><time>2012-05-02T09:08:39.0000000+00:00</time></trkpt><trkpt lat="42.455181" lon="18.561792"><ele>-1.8</ele><time>2012-05-02T09:08:44.0000000+00:00</time></trkpt><trkpt lat="42.455189" lon="18.562172"><ele>-3.4</ele><time>2012-05-02T09:08:49.0000000+00:00</time></trkpt><trkpt lat="42.455223" lon="18.562513"><ele>-4.1</ele><time>2012-05-02T09:08:54.0000000+00:00</time></trkpt><trkpt lat="42.455257" lon="18.56279"><ele>-3.9</ele><time>2012-05-02T09:08:59.0000000+00:00</time></trkpt><trkpt lat="42.455303" lon="18.563103"><ele>-2.0</ele><time>2012-05-02T09:09:04.0000000+00:00</time></trkpt><trkpt lat="42.455376" lon="18.563425"><ele>-1.0</ele><time>2012-05-02T09:09:09.0000000+00:00</time></trkpt><trkpt lat="42.455429" lon="18.563702"><ele>0.7</ele><time>2012-05-02T09:09:14.0000000+00:00</time></trkpt><trkpt lat="42.455505" lon="18.563995"><ele>2.0</ele><time>2012-05-02T09:09:19.0000000+00:00</time></trkpt><trkpt lat="42.455616" lon="18.564201"><ele>4.9</ele><time>2012-05-02T09:09:24.0000000+00:00</time></trkpt><trkpt lat="42.455627" lon="18.564489"><ele>9.2</ele><time>2012-05-02T09:09:29.0000000+00:00</time></trkpt><trkpt lat="42.455681" lon="18.564726"><ele>12.0</ele><time>2012-05-02T09:09:34.0000000+00:00</time></trkpt><trkpt lat="42.45573" lon="18.564976"><ele>13.8</ele><time>2012-05-02T09:09:39.0000000+00:00</time></trkpt><trkpt lat="42.45573" lon="18.565189"><ele>15.5</ele><time>2012-05-02T09:09:44.0000000+00:00</time></trkpt><trkpt lat="42.455738" lon="18.565449"><ele>16.3</ele><time>2012-05-02T09:09:49.0000000+00:00</time></trkpt><trkpt lat="42.455708" lon="18.565725"><ele>17.0</ele><time>2012-05-02T09:09:54.0000000+00:00</time></trkpt><trkpt lat="42.455662" lon="18.566044"><ele>16.0</ele><time>2012-05-02T09:09:59.0000000+00:00</time></trkpt><trkpt lat="42.455589" lon="18.566378"><ele>16.5</ele><time>2012-05-02T09:10:04.0000000+00:00</time></trkpt><trkpt lat="42.455494" lon="18.566673"><ele>17.3</ele><time>2012-05-02T09:10:09.0000000+00:00</time></trkpt><trkpt lat="42.455433" lon="18.567019"><ele>17.3</ele><time>2012-05-02T09:10:14.0000000+00:00</time></trkpt><trkpt lat="42.455467" lon="18.567497"><ele>17.0</ele><time>2012-05-02T09:10:19.0000000+00:00</time></trkpt><trkpt lat="42.454372" lon="18.56827"><ele>14.5</ele><time>2012-05-02T09:10:35.0000000+00:00</time></trkpt><trkpt lat="42.454044" lon="18.568661"><ele>16.5</ele><time>2012-05-02T09:10:40.0000000+00:00</time></trkpt><trkpt lat="42.453705" lon="18.569077"><ele>14.1</ele><time>2012-05-02T09:10:45.0000000+00:00</time></trkpt><trkpt lat="42.453354" lon="18.569443"><ele>10.6</ele><time>2012-05-02T09:10:50.0000000+00:00</time></trkpt><trkpt lat="42.453003" lon="18.56983"><ele>10.1</ele><time>2012-05-02T09:10:55.0000000+00:00</time></trkpt><trkpt lat="42.452667" lon="18.570124"><ele>9.7</ele><time>2012-05-02T09:11:00.0000000+00:00</time></trkpt><trkpt lat="42.452351" lon="18.57041"><ele>8.0</ele><time>2012-05-02T09:11:05.0000000+00:00</time></trkpt><trkpt lat="42.452065" lon="18.57077"><ele>8.3</ele><time>2012-05-02T09:11:10.0000000+00:00</time></trkpt><trkpt lat="42.451851" lon="18.571182"><ele>8.5</ele><time>2012-05-02T09:11:15.0000000+00:00</time></trkpt><trkpt lat="42.451656" lon="18.571632"><ele>8.8</ele><time>2012-05-02T09:11:20.0000000+00:00</time></trkpt><trkpt lat="42.451481" lon="18.572113"><ele>9.4</ele><time>2012-05-02T09:11:25.0000000+00:00</time></trkpt><trkpt lat="42.451275" lon="18.572519"><ele>8.7</ele><time>2012-05-02T09:11:30.0000000+00:00</time></trkpt><trkpt lat="42.450996" lon="18.572832"><ele>7.4</ele><time>2012-05-02T09:11:35.0000000+00:00</time></trkpt><trkpt lat="42.450699" lon="18.573149"><ele>6.6</ele><time>2012-05-02T09:11:40.0000000+00:00</time></trkpt><trkpt lat="42.450375" lon="18.573381"><ele>6.3</ele><time>2012-05-02T09:11:45.0000000+00:00</time></trkpt><trkpt lat="42.450047" lon="18.573544"><ele>4.5</ele><time>2012-05-02T09:11:50.0000000+00:00</time></trkpt><trkpt lat="42.449696" lon="18.573669"><ele>4.9</ele><time>2012-05-02T09:11:55.0000000+00:00</time></trkpt><trkpt lat="42.44939" lon="18.573858"><ele>5.5</ele><time>2012-05-02T09:12:00.0000000+00:00</time></trkpt><trkpt lat="42.44912" lon="18.574116"><ele>3.8</ele><time>2012-05-02T09:12:05.0000000+00:00</time></trkpt><trkpt lat="42.448849" lon="18.574389"><ele>3.5</ele><time>2012-05-02T09:12:10.0000000+00:00</time></trkpt><trkpt lat="42.448601" lon="18.574646"><ele>2.2</ele><time>2012-05-02T09:12:15.0000000+00:00</time></trkpt><trkpt lat="42.448334" lon="18.574898"><ele>0.7</ele><time>2012-05-02T09:12:20.0000000+00:00</time></trkpt><trkpt lat="42.448071" lon="18.575182"><ele>-1.4</ele><time>2012-05-02T09:12:25.0000000+00:00</time></trkpt><trkpt lat="42.447796" lon="18.575472"><ele>-2.6</ele><time>2012-05-02T09:12:30.0000000+00:00</time></trkpt><trkpt lat="42.447506" lon="18.575737"><ele>-1.2</ele><time>2012-05-02T09:12:35.0000000+00:00</time></trkpt><trkpt lat="42.447231" lon="18.576054"><ele>-1.5</ele><time>2012-05-02T09:12:40.0000000+00:00</time></trkpt><trkpt lat="42.446938" lon="18.576355"><ele>-0.6</ele><time>2012-05-02T09:12:45.0000000+00:00</time></trkpt><trkpt lat="42.446667" lon="18.576612"><ele>-0.9</ele><time>2012-05-02T09:12:50.0000000+00:00</time></trkpt><trkpt lat="42.446384" lon="18.576889"><ele>-1.9</ele><time>2012-05-02T09:12:55.0000000+00:00</time></trkpt><trkpt lat="42.446117" lon="18.577143"><ele>-2.1</ele><time>2012-05-02T09:13:00.0000000+00:00</time></trkpt><trkpt lat="42.445885" lon="18.57736"><ele>-1.8</ele><time>2012-05-02T09:13:05.0000000+00:00</time></trkpt><trkpt lat="42.445644" lon="18.577499"><ele>-2.1</ele><time>2012-05-02T09:13:10.0000000+00:00</time></trkpt><trkpt lat="42.445419" lon="18.577635"><ele>-1.5</ele><time>2012-05-02T09:13:15.0000000+00:00</time></trkpt><trkpt lat="42.445206" lon="18.577768"><ele>-0.0</ele><time>2012-05-02T09:13:20.0000000+00:00</time></trkpt><trkpt lat="42.445019" lon="18.5779"><ele>1.9</ele><time>2012-05-02T09:13:25.0000000+00:00</time></trkpt><trkpt lat="42.444836" lon="18.578062"><ele>2.0</ele><time>2012-05-02T09:13:30.0000000+00:00</time></trkpt><trkpt lat="42.444618" lon="18.578365"><ele>1.3</ele><time>2012-05-02T09:13:35.0000000+00:00</time></trkpt><trkpt lat="42.444382" lon="18.57868"><ele>0.7</ele><time>2012-05-02T09:13:40.0000000+00:00</time></trkpt><trkpt lat="42.444191" lon="18.579008"><ele>1.3</ele><time>2012-05-02T09:13:45.0000000+00:00</time></trkpt><trkpt lat="42.443985" lon="18.579395"><ele>0.5</ele><time>2012-05-02T09:13:50.0000000+00:00</time></trkpt><trkpt lat="42.443871" lon="18.57972"><ele>-1.2</ele><time>2012-05-02T09:13:55.0000000+00:00</time></trkpt><trkpt lat="42.443832" lon="18.579861"><ele>-2.3</ele><time>2012-05-02T09:14:00.0000000+00:00</time></trkpt><trkpt lat="42.44384" lon="18.579866"><ele>-2.0</ele><time>2012-05-02T09:14:05.0000000+00:00</time></trkpt><trkpt lat="42.443844" lon="18.579868"><ele>-2.2</ele><time>2012-05-02T09:14:10.0000000+00:00</time></trkpt><trkpt lat="42.443855" lon="18.579876"><ele>-2.3</ele><time>2012-05-02T09:14:15.0000000+00:00</time></trkpt><trkpt lat="42.443859" lon="18.579874"><ele>-2.4</ele><time>2012-05-02T09:14:20.0000000+00:00</time></trkpt><trkpt lat="42.443859" lon="18.57987"><ele>-2.4</ele><time>2012-05-02T09:14:25.0000000+00:00</time></trkpt><trkpt lat="42.443855" lon="18.579868"><ele>-2.3</ele><time>2012-05-02T09:14:30.0000000+00:00</time></trkpt><trkpt lat="42.443851" lon="18.579865"><ele>-2.3</ele><time>2012-05-02T09:14:35.0000000+00:00</time></trkpt><trkpt lat="42.443848" lon="18.579863"><ele>-2.2</ele><time>2012-05-02T09:14:40.0000000+00:00</time></trkpt><trkpt lat="42.443844" lon="18.579861"><ele>-2.2</ele><time>2012-05-02T09:14:45.0000000+00:00</time></trkpt><trkpt lat="42.443844" lon="18.579859"><ele>-2.2</ele><time>2012-05-02T09:14:50.0000000+00:00</time></trkpt><trkpt lat="42.44384" lon="18.579855"><ele>-2.2</ele><time>2012-05-02T09:14:55.0000000+00:00</time></trkpt><trkpt lat="42.443844" lon="18.579855"><ele>-2.2</ele><time>2012-05-02T09:15:00.0000000+00:00</time></trkpt><trkpt lat="42.443844" lon="18.579855"><ele>-2.1</ele><time>2012-05-02T09:15:05.0000000+00:00</time></trkpt><trkpt lat="42.443848" lon="18.579851"><ele>-2.0</ele><time>2012-05-02T09:15:10.0000000+00:00</time></trkpt><trkpt lat="42.443848" lon="18.579853"><ele>-1.9</ele><time>2012-05-02T09:15:15.0000000+00:00</time></trkpt><trkpt lat="42.443848" lon="18.579853"><ele>-1.8</ele><time>2012-05-02T09:15:20.0000000+00:00</time></trkpt><trkpt lat="42.443848" lon="18.579853"><ele>-1.7</ele><time>2012-05-02T09:15:25.0000000+00:00</time></trkpt><trkpt lat="42.443832" lon="18.579859"><ele>-0.0</ele><time>2012-05-02T09:15:30.0000000+00:00</time></trkpt><trkpt lat="42.443817" lon="18.579853"><ele>2.5</ele><time>2012-05-02T09:15:35.0000000+00:00</time></trkpt><trkpt lat="42.443806" lon="18.579849"><ele>4.0</ele><time>2012-05-02T09:15:40.0000000+00:00</time></trkpt><trkpt lat="42.443787" lon="18.579861"><ele>4.5</ele><time>2012-05-02T09:15:45.0000000+00:00</time></trkpt><trkpt lat="42.443779" lon="18.579865"><ele>5.5</ele><time>2012-05-02T09:15:50.0000000+00:00</time></trkpt><trkpt lat="42.443775" lon="18.579849"><ele>7.4</ele><time>2012-05-02T09:15:55.0000000+00:00</time></trkpt><trkpt lat="42.44376" lon="18.57984"><ele>8.7</ele><time>2012-05-02T09:16:00.0000000+00:00</time></trkpt><trkpt lat="42.443752" lon="18.579845"><ele>9.0</ele><time>2012-05-02T09:16:05.0000000+00:00</time></trkpt><trkpt lat="42.443748" lon="18.579849"><ele>10.1</ele><time>2012-05-02T09:16:10.0000000+00:00</time></trkpt><trkpt lat="42.443748" lon="18.579849"><ele>10.1</ele><time>2012-05-02T09:16:15.0000000+00:00</time></trkpt><trkpt lat="42.443748" lon="18.579849"><ele>10.2</ele><time>2012-05-02T09:16:20.0000000+00:00</time></trkpt><trkpt lat="42.443748" lon="18.579849"><ele>10.2</ele><time>2012-05-02T09:16:25.0000000+00:00</time></trkpt><trkpt lat="42.443748" lon="18.579849"><ele>10.2</ele><time>2012-05-02T09:16:30.0000000+00:00</time></trkpt><trkpt lat="42.443748" lon="18.579849"><ele>10.2</ele><time>2012-05-02T09:16:35.0000000+00:00</time></trkpt><trkpt lat="42.443748" lon="18.579849"><ele>10.2</ele><time>2012-05-02T09:16:40.0000000+00:00</time></trkpt><trkpt lat="42.443748" lon="18.579849"><ele>10.2</ele><time>2012-05-02T09:16:45.0000000+00:00</time></trkpt><trkpt lat="42.443748" lon="18.579849"><ele>10.3</ele><time>2012-05-02T09:16:50.0000000+00:00</time></trkpt><trkpt lat="42.443748" lon="18.579849"><ele>10.3</ele><time>2012-05-02T09:16:55.0000000+00:00</time></trkpt><trkpt lat="42.443748" lon="18.579851"><ele>10.3</ele><time>2012-05-02T09:17:00.0000000+00:00</time></trkpt><trkpt lat="42.443748" lon="18.579851"><ele>10.4</ele><time>2012-05-02T09:17:05.0000000+00:00</time></trkpt><trkpt lat="42.443748" lon="18.579851"><ele>10.4</ele><time>2012-05-02T09:17:10.0000000+00:00</time></trkpt><trkpt lat="42.443748" lon="18.579851"><ele>10.4</ele><time>2012-05-02T09:17:15.0000000+00:00</time></trkpt><trkpt lat="42.443748" lon="18.579851"><ele>10.4</ele><time>2012-05-02T09:17:20.0000000+00:00</time></trkpt><trkpt lat="42.443748" lon="18.579851"><ele>10.5</ele><time>2012-05-02T09:17:25.0000000+00:00</time></trkpt><trkpt lat="42.443748" lon="18.579851"><ele>10.5</ele><time>2012-05-02T09:17:30.0000000+00:00</time></trkpt><trkpt lat="42.443748" lon="18.579851"><ele>10.5</ele><time>2012-05-02T09:17:35.0000000+00:00</time></trkpt><trkpt lat="42.443745" lon="18.579853"><ele>10.6</ele><time>2012-05-02T09:17:40.0000000+00:00</time></trkpt><trkpt lat="42.443745" lon="18.579853"><ele>10.6</ele><time>2012-05-02T09:17:45.0000000+00:00</time></trkpt><trkpt lat="42.443745" lon="18.579853"><ele>10.6</ele><time>2012-05-02T09:17:50.0000000+00:00</time></trkpt><trkpt lat="42.443745" lon="18.579853"><ele>10.6</ele><time>2012-05-02T09:17:55.0000000+00:00</time></trkpt><trkpt lat="42.443745" lon="18.579853"><ele>10.6</ele><time>2012-05-02T09:18:00.0000000+00:00</time></trkpt><trkpt lat="42.443745" lon="18.579853"><ele>10.6</ele><time>2012-05-02T09:18:05.0000000+00:00</time></trkpt><trkpt lat="42.443745" lon="18.579853"><ele>10.7</ele><time>2012-05-02T09:18:10.0000000+00:00</time></trkpt><trkpt lat="42.443745" lon="18.579855"><ele>10.7</ele><time>2012-05-02T09:18:15.0000000+00:00</time></trkpt><trkpt lat="42.443745" lon="18.579855"><ele>10.7</ele><time>2012-05-02T09:18:20.0000000+00:00</time></trkpt><trkpt lat="42.443745" lon="18.579855"><ele>10.7</ele><time>2012-05-02T09:18:25.0000000+00:00</time></trkpt><trkpt lat="42.443745" lon="18.579855"><ele>10.8</ele><time>2012-05-02T09:18:30.0000000+00:00</time></trkpt><trkpt lat="42.443745" lon="18.579855"><ele>10.8</ele><time>2012-05-02T09:18:35.0000000+00:00</time></trkpt><trkpt lat="42.443745" lon="18.579855"><ele>10.8</ele><time>2012-05-02T09:18:40.0000000+00:00</time></trkpt><trkpt lat="42.443745" lon="18.579855"><ele>10.8</ele><time>2012-05-02T09:18:45.0000000+00:00</time></trkpt><trkpt lat="42.443745" lon="18.579855"><ele>10.8</ele><time>2012-05-02T09:18:50.0000000+00:00</time></trkpt><trkpt lat="42.443745" lon="18.579855"><ele>10.7</ele><time>2012-05-02T09:18:55.0000000+00:00</time></trkpt><trkpt lat="42.443748" lon="18.579855"><ele>10.7</ele><time>2012-05-02T09:19:00.0000000+00:00</time></trkpt><trkpt lat="42.443748" lon="18.579855"><ele>10.7</ele><time>2012-05-02T09:19:05.0000000+00:00</time></trkpt><trkpt lat="42.443748" lon="18.579855"><ele>10.7</ele><time>2012-05-02T09:19:10.0000000+00:00</time></trkpt><trkpt lat="42.443748" lon="18.579855"><ele>10.7</ele><time>2012-05-02T09:19:15.0000000+00:00</time></trkpt><trkpt lat="42.443748" lon="18.579855"><ele>10.7</ele><time>2012-05-02T09:19:20.0000000+00:00</time></trkpt><trkpt lat="42.443748" lon="18.579855"><ele>10.7</ele><time>2012-05-02T09:19:25.0000000+00:00</time></trkpt><trkpt lat="42.443748" lon="18.579855"><ele>10.7</ele><time>2012-05-02T09:19:30.0000000+00:00</time></trkpt><trkpt lat="42.443748" lon="18.579855"><ele>10.7</ele><time>2012-05-02T09:19:35.0000000+00:00</time></trkpt><trkpt lat="42.443748" lon="18.579855"><ele>10.7</ele><time>2012-05-02T09:19:40.0000000+00:00</time></trkpt><trkpt lat="42.443748" lon="18.579855"><ele>10.7</ele><time>2012-05-02T09:19:45.0000000+00:00</time></trkpt><trkpt lat="42.443748" lon="18.579855"><ele>10.7</ele><time>2012-05-02T09:19:50.0000000+00:00</time></trkpt><trkpt lat="42.443748" lon="18.579855"><ele>10.7</ele><time>2012-05-02T09:19:55.0000000+00:00</time></trkpt><trkpt lat="42.443748" lon="18.579855"><ele>10.7</ele><time>2012-05-02T09:20:00.0000000+00:00</time></trkpt><trkpt lat="42.443748" lon="18.579855"><ele>10.7</ele><time>2012-05-02T09:20:05.0000000+00:00</time></trkpt><trkpt lat="42.443748" lon="18.579855"><ele>10.7</ele><time>2012-05-02T09:20:10.0000000+00:00</time></trkpt><trkpt lat="42.443748" lon="18.579855"><ele>10.7</ele><time>2012-05-02T09:20:15.0000000+00:00</time></trkpt><trkpt lat="42.443748" lon="18.579855"><ele>10.7</ele><time>2012-05-02T09:20:20.0000000+00:00</time></trkpt><trkpt lat="42.443748" lon="18.579855"><ele>10.8</ele><time>2012-05-02T09:20:25.0000000+00:00</time></trkpt><trkpt lat="42.443748" lon="18.579857"><ele>10.7</ele><time>2012-05-02T09:20:30.0000000+00:00</time></trkpt><trkpt lat="42.443748" lon="18.579857"><ele>10.8</ele><time>2012-05-02T09:20:35.0000000+00:00</time></trkpt><trkpt lat="42.443756" lon="18.57987"><ele>10.7</ele><time>2012-05-02T09:20:40.0000000+00:00</time></trkpt><trkpt lat="42.44376" lon="18.579906"><ele>10.6</ele><time>2012-05-02T09:20:45.0000000+00:00</time></trkpt><trkpt lat="42.443756" lon="18.579935"><ele>10.4</ele><time>2012-05-02T09:20:50.0000000+00:00</time></trkpt><trkpt lat="42.443752" lon="18.579971"><ele>10.1</ele><time>2012-05-02T09:20:55.0000000+00:00</time></trkpt><trkpt lat="42.443752" lon="18.579979"><ele>10.8</ele><time>2012-05-02T09:21:00.0000000+00:00</time></trkpt><trkpt lat="42.443752" lon="18.579994"><ele>10.6</ele><time>2012-05-02T09:21:05.0000000+00:00</time></trkpt><trkpt lat="42.443748" lon="18.579996"><ele>10.1</ele><time>2012-05-02T09:21:10.0000000+00:00</time></trkpt><trkpt lat="42.443752" lon="18.57999"><ele>8.9</ele><time>2012-05-02T09:21:15.0000000+00:00</time></trkpt><trkpt lat="42.443756" lon="18.57999"><ele>8.2</ele><time>2012-05-02T09:21:20.0000000+00:00</time></trkpt><trkpt lat="42.443756" lon="18.579988"><ele>7.8</ele><time>2012-05-02T09:21:25.0000000+00:00</time></trkpt><trkpt lat="42.443756" lon="18.579988"><ele>7.8</ele><time>2012-05-02T09:21:30.0000000+00:00</time></trkpt><trkpt lat="42.443756" lon="18.579988"><ele>7.8</ele><time>2012-05-02T09:21:35.0000000+00:00</time></trkpt><trkpt lat="42.44376" lon="18.57999"><ele>7.8</ele><time>2012-05-02T09:21:40.0000000+00:00</time></trkpt><trkpt lat="42.44376" lon="18.579988"><ele>7.8</ele><time>2012-05-02T09:21:45.0000000+00:00</time></trkpt><trkpt lat="42.44376" lon="18.579988"><ele>7.8</ele><time>2012-05-02T09:21:50.0000000+00:00</time></trkpt><trkpt lat="42.44376" lon="18.579988"><ele>7.8</ele><time>2012-05-02T09:21:55.0000000+00:00</time></trkpt><trkpt lat="42.44376" lon="18.579988"><ele>7.8</ele><time>2012-05-02T09:22:00.0000000+00:00</time></trkpt><trkpt lat="42.44376" lon="18.579988"><ele>7.8</ele><time>2012-05-02T09:22:05.0000000+00:00</time></trkpt><trkpt lat="42.44376" lon="18.579988"><ele>7.8</ele><time>2012-05-02T09:22:10.0000000+00:00</time></trkpt><trkpt lat="42.44376" lon="18.579988"><ele>7.8</ele><time>2012-05-02T09:22:15.0000000+00:00</time></trkpt><trkpt lat="42.44376" lon="18.579988"><ele>7.7</ele><time>2012-05-02T09:22:20.0000000+00:00</time></trkpt><trkpt lat="42.44376" lon="18.57999"><ele>7.6</ele><time>2012-05-02T09:22:25.0000000+00:00</time></trkpt><trkpt lat="42.44376" lon="18.57999"><ele>7.6</ele><time>2012-05-02T09:22:30.0000000+00:00</time></trkpt><trkpt lat="42.44376" lon="18.57999"><ele>7.5</ele><time>2012-05-02T09:22:35.0000000+00:00</time></trkpt><trkpt lat="42.44376" lon="18.57999"><ele>7.5</ele><time>2012-05-02T09:22:40.0000000+00:00</time></trkpt><trkpt lat="42.44376" lon="18.57999"><ele>7.5</ele><time>2012-05-02T09:22:45.0000000+00:00</time></trkpt><trkpt lat="42.44376" lon="18.57999"><ele>7.5</ele><time>2012-05-02T09:22:50.0000000+00:00</time></trkpt><trkpt lat="42.44376" lon="18.57999"><ele>7.5</ele><time>2012-05-02T09:22:55.0000000+00:00</time></trkpt><trkpt lat="42.44376" lon="18.57999"><ele>7.5</ele><time>2012-05-02T09:23:00.0000000+00:00</time></trkpt><trkpt lat="42.44376" lon="18.57999"><ele>7.5</ele><time>2012-05-02T09:23:05.0000000+00:00</time></trkpt><trkpt lat="42.44376" lon="18.57999"><ele>7.4</ele><time>2012-05-02T09:23:10.0000000+00:00</time></trkpt><trkpt lat="42.44376" lon="18.57999"><ele>7.4</ele><time>2012-05-02T09:23:15.0000000+00:00</time></trkpt><trkpt lat="42.44376" lon="18.579992"><ele>7.4</ele><time>2012-05-02T09:23:20.0000000+00:00</time></trkpt><trkpt lat="42.44376" lon="18.579992"><ele>7.4</ele><time>2012-05-02T09:23:25.0000000+00:00</time></trkpt><trkpt lat="42.44376" lon="18.579992"><ele>7.4</ele><time>2012-05-02T09:23:30.0000000+00:00</time></trkpt><trkpt lat="42.44376" lon="18.579992"><ele>7.3</ele><time>2012-05-02T09:23:35.0000000+00:00</time></trkpt><trkpt lat="42.44376" lon="18.579992"><ele>7.3</ele><time>2012-05-02T09:23:40.0000000+00:00</time></trkpt><trkpt lat="42.44376" lon="18.579992"><ele>7.2</ele><time>2012-05-02T09:23:45.0000000+00:00</time></trkpt><trkpt lat="42.44376" lon="18.579992"><ele>7.2</ele><time>2012-05-02T09:23:50.0000000+00:00</time></trkpt><trkpt lat="42.44376" lon="18.579992"><ele>7.2</ele><time>2012-05-02T09:23:55.0000000+00:00</time></trkpt><trkpt lat="42.44376" lon="18.579992"><ele>7.2</ele><time>2012-05-02T09:24:00.0000000+00:00</time></trkpt><trkpt lat="42.44376" lon="18.579992"><ele>7.2</ele><time>2012-05-02T09:24:05.0000000+00:00</time></trkpt><trkpt lat="42.44376" lon="18.579992"><ele>7.2</ele><time>2012-05-02T09:24:10.0000000+00:00</time></trkpt><trkpt lat="42.44376" lon="18.579992"><ele>7.3</ele><time>2012-05-02T09:24:15.0000000+00:00</time></trkpt><trkpt lat="42.443756" lon="18.579994"><ele>7.3</ele><time>2012-05-02T09:24:20.0000000+00:00</time></trkpt><trkpt lat="42.443748" lon="18.580008"><ele>8.1</ele><time>2012-05-02T09:24:25.0000000+00:00</time></trkpt><trkpt lat="42.443745" lon="18.580021"><ele>9.2</ele><time>2012-05-02T09:24:30.0000000+00:00</time></trkpt><trkpt lat="42.443733" lon="18.580025"><ele>8.9</ele><time>2012-05-02T09:24:35.0000000+00:00</time></trkpt><trkpt lat="42.443733" lon="18.580025"><ele>8.8</ele><time>2012-05-02T09:24:40.0000000+00:00</time></trkpt><trkpt lat="42.443737" lon="18.580027"><ele>8.7</ele><time>2012-05-02T09:24:45.0000000+00:00</time></trkpt><trkpt lat="42.443733" lon="18.580027"><ele>8.7</ele><time>2012-05-02T09:24:50.0000000+00:00</time></trkpt><trkpt lat="42.443714" lon="18.580109"><ele>9.4</ele><time>2012-05-02T09:24:55.0000000+00:00</time></trkpt><trkpt lat="42.443634" lon="18.580362"><ele>8.8</ele><time>2012-05-02T09:25:00.0000000+00:00</time></trkpt><trkpt lat="42.443516" lon="18.580744"><ele>6.7</ele><time>2012-05-02T09:25:05.0000000+00:00</time></trkpt><trkpt lat="42.443405" lon="18.581213"><ele>3.9</ele><time>2012-05-02T09:25:10.0000000+00:00</time></trkpt><trkpt lat="42.443268" lon="18.581707"><ele>1.3</ele><time>2012-05-02T09:25:15.0000000+00:00</time></trkpt><trkpt lat="42.442986" lon="18.582041"><ele>0.6</ele><time>2012-05-02T09:25:20.0000000+00:00</time></trkpt><trkpt lat="42.442741" lon="18.582283"><ele>0.5</ele><time>2012-05-02T09:25:25.0000000+00:00</time></trkpt><trkpt lat="42.442543" lon="18.582544"><ele>1.9</ele><time>2012-05-02T09:25:30.0000000+00:00</time></trkpt><trkpt lat="42.44236" lon="18.582745"><ele>1.3</ele><time>2012-05-02T09:25:35.0000000+00:00</time></trkpt><trkpt lat="42.442329" lon="18.582766"><ele>-1.0</ele><time>2012-05-02T09:25:40.0000000+00:00</time></trkpt><trkpt lat="42.442249" lon="18.582832"><ele>-0.5</ele><time>2012-05-02T09:25:45.0000000+00:00</time></trkpt><trkpt lat="42.442154" lon="18.582941"><ele>0.2</ele><time>2012-05-02T09:25:50.0000000+00:00</time></trkpt><trkpt lat="42.441986" lon="18.583054"><ele>1.6</ele><time>2012-05-02T09:25:55.0000000+00:00</time></trkpt><trkpt lat="42.441769" lon="18.583183"><ele>2.6</ele><time>2012-05-02T09:26:00.0000000+00:00</time></trkpt><trkpt lat="42.441536" lon="18.583302"><ele>3.6</ele><time>2012-05-02T09:26:05.0000000+00:00</time></trkpt><trkpt lat="42.441299" lon="18.583418"><ele>3.7</ele><time>2012-05-02T09:26:10.0000000+00:00</time></trkpt><trkpt lat="42.441135" lon="18.583595"><ele>3.3</ele><time>2012-05-02T09:26:15.0000000+00:00</time></trkpt><trkpt lat="42.44091" lon="18.583828"><ele>1.9</ele><time>2012-05-02T09:26:20.0000000+00:00</time></trkpt><trkpt lat="42.440723" lon="18.584085"><ele>1.4</ele><time>2012-05-02T09:26:25.0000000+00:00</time></trkpt><trkpt lat="42.44051" lon="18.584387"><ele>1.2</ele><time>2012-05-02T09:26:30.0000000+00:00</time></trkpt><trkpt lat="42.440311" lon="18.584639"><ele>-0.0</ele><time>2012-05-02T09:26:35.0000000+00:00</time></trkpt><trkpt lat="42.440159" lon="18.584944"><ele>-0.3</ele><time>2012-05-02T09:26:40.0000000+00:00</time></trkpt><trkpt lat="42.440018" lon="18.585302"><ele>0.6</ele><time>2012-05-02T09:26:45.0000000+00:00</time></trkpt><trkpt lat="42.43985" lon="18.585581"><ele>-0.1</ele><time>2012-05-02T09:26:50.0000000+00:00</time></trkpt><trkpt lat="42.439659" lon="18.585873"><ele>-0.3</ele><time>2012-05-02T09:26:55.0000000+00:00</time></trkpt><trkpt lat="42.439461" lon="18.586176"><ele>0.2</ele><time>2012-05-02T09:27:00.0000000+00:00</time></trkpt><trkpt lat="42.439255" lon="18.586462"><ele>-0.7</ele><time>2012-05-02T09:27:05.0000000+00:00</time></trkpt><trkpt lat="42.439072" lon="18.586786"><ele>0.3</ele><time>2012-05-02T09:27:10.0000000+00:00</time></trkpt><trkpt lat="42.438866" lon="18.587063"><ele>-1.2</ele><time>2012-05-02T09:27:15.0000000+00:00</time></trkpt><trkpt lat="42.438713" lon="18.587292"><ele>-1.7</ele><time>2012-05-02T09:27:20.0000000+00:00</time></trkpt><trkpt lat="42.438599" lon="18.587507"><ele>-2.2</ele><time>2012-05-02T09:27:25.0000000+00:00</time></trkpt><trkpt lat="42.438541" lon="18.587694"><ele>-2.9</ele><time>2012-05-02T09:27:30.0000000+00:00</time></trkpt><trkpt lat="42.438473" lon="18.587906"><ele>-2.7</ele><time>2012-05-02T09:27:35.0000000+00:00</time></trkpt><trkpt lat="42.438377" lon="18.588112"><ele>-1.2</ele><time>2012-05-02T09:27:40.0000000+00:00</time></trkpt><trkpt lat="42.438259" lon="18.588308"><ele>-1.2</ele><time>2012-05-02T09:27:45.0000000+00:00</time></trkpt><trkpt lat="42.438145" lon="18.588552"><ele>-0.7</ele><time>2012-05-02T09:27:50.0000000+00:00</time></trkpt><trkpt lat="42.438034" lon="18.588789"><ele>-0.3</ele><time>2012-05-02T09:27:55.0000000+00:00</time></trkpt><trkpt lat="42.437965" lon="18.588995"><ele>-0.1</ele><time>2012-05-02T09:28:00.0000000+00:00</time></trkpt><trkpt lat="42.437908" lon="18.589258"><ele>-0.8</ele><time>2012-05-02T09:28:05.0000000+00:00</time></trkpt><trkpt lat="42.43782" lon="18.58955"><ele>-1.9</ele><time>2012-05-02T09:28:10.0000000+00:00</time></trkpt><trkpt lat="42.43771" lon="18.589874"><ele>-0.8</ele><time>2012-05-02T09:28:15.0000000+00:00</time></trkpt><trkpt lat="42.437603" lon="18.5902"><ele>-0.7</ele><time>2012-05-02T09:28:20.0000000+00:00</time></trkpt><trkpt lat="42.437489" lon="18.59054"><ele>-0.7</ele><time>2012-05-02T09:28:25.0000000+00:00</time></trkpt><trkpt lat="42.437378" lon="18.590874"><ele>-1.6</ele><time>2012-05-02T09:28:30.0000000+00:00</time></trkpt><trkpt lat="42.437397" lon="18.591225"><ele>-1.5</ele><time>2012-05-02T09:28:35.0000000+00:00</time></trkpt><trkpt lat="42.437572" lon="18.591467"><ele>-1.2</ele><time>2012-05-02T09:28:40.0000000+00:00</time></trkpt><trkpt lat="42.437729" lon="18.591579"><ele>0.4</ele><time>2012-05-02T09:28:45.0000000+00:00</time></trkpt><trkpt lat="42.437912" lon="18.591681"><ele>2.1</ele><time>2012-05-02T09:28:50.0000000+00:00</time></trkpt><trkpt lat="42.438057" lon="18.591837"><ele>2.4</ele><time>2012-05-02T09:28:55.0000000+00:00</time></trkpt><trkpt lat="42.43816" lon="18.591993"><ele>1.2</ele><time>2012-05-02T09:29:00.0000000+00:00</time></trkpt><trkpt lat="42.438217" lon="18.592161"><ele>1.3</ele><time>2012-05-02T09:29:05.0000000+00:00</time></trkpt><trkpt lat="42.438282" lon="18.592352"><ele>1.6</ele><time>2012-05-02T09:29:10.0000000+00:00</time></trkpt><trkpt lat="42.438309" lon="18.592554"><ele>3.1</ele><time>2012-05-02T09:29:15.0000000+00:00</time></trkpt><trkpt lat="42.438297" lon="18.592735"><ele>4.3</ele><time>2012-05-02T09:29:20.0000000+00:00</time></trkpt><trkpt lat="42.438259" lon="18.592932"><ele>4.6</ele><time>2012-05-02T09:29:25.0000000+00:00</time></trkpt><trkpt lat="42.438232" lon="18.593107"><ele>6.3</ele><time>2012-05-02T09:29:30.0000000+00:00</time></trkpt><trkpt lat="42.438206" lon="18.593309"><ele>8.2</ele><time>2012-05-02T09:29:35.0000000+00:00</time></trkpt><trkpt lat="42.438171" lon="18.593481"><ele>9.7</ele><time>2012-05-02T09:29:40.0000000+00:00</time></trkpt><trkpt lat="42.438152" lon="18.593657"><ele>11.3</ele><time>2012-05-02T09:29:45.0000000+00:00</time></trkpt><trkpt lat="42.438114" lon="18.593863"><ele>12.4</ele><time>2012-05-02T09:29:50.0000000+00:00</time></trkpt><trkpt lat="42.438068" lon="18.59409"><ele>14.7</ele><time>2012-05-02T09:29:55.0000000+00:00</time></trkpt><trkpt lat="42.438023" lon="18.594336"><ele>16.5</ele><time>2012-05-02T09:30:00.0000000+00:00</time></trkpt><trkpt lat="42.43795" lon="18.594652"><ele>13.6</ele><time>2012-05-02T09:30:05.0000000+00:00</time></trkpt><trkpt lat="42.437832" lon="18.595045"><ele>12.0</ele><time>2012-05-02T09:30:10.0000000+00:00</time></trkpt><trkpt lat="42.437675" lon="18.595524"><ele>10.9</ele><time>2012-05-02T09:30:15.0000000+00:00</time></trkpt><trkpt lat="42.437523" lon="18.596041"><ele>7.9</ele><time>2012-05-02T09:30:20.0000000+00:00</time></trkpt><trkpt lat="42.437382" lon="18.596523"><ele>7.6</ele><time>2012-05-02T09:30:25.0000000+00:00</time></trkpt><trkpt lat="42.437214" lon="18.597008"><ele>15.6</ele><time>2012-05-02T09:30:30.0000000+00:00</time></trkpt><trkpt lat="42.43705" lon="18.597473"><ele>20.4</ele><time>2012-05-02T09:30:35.0000000+00:00</time></trkpt><trkpt lat="42.436954" lon="18.597813"><ele>27.7</ele><time>2012-05-02T09:30:40.0000000+00:00</time></trkpt><trkpt lat="42.436859" lon="18.598152"><ele>31.5</ele><time>2012-05-02T09:30:45.0000000+00:00</time></trkpt><trkpt lat="42.436756" lon="18.59841"><ele>33.1</ele><time>2012-05-02T09:30:50.0000000+00:00</time></trkpt><trkpt lat="42.436699" lon="18.598698"><ele>29.4</ele><time>2012-05-02T09:30:55.0000000+00:00</time></trkpt><trkpt lat="42.436638" lon="18.598957"><ele>28.1</ele><time>2012-05-02T09:31:00.0000000+00:00</time></trkpt><trkpt lat="42.436558" lon="18.599236"><ele>30.7</ele><time>2012-05-02T09:31:05.0000000+00:00</time></trkpt><trkpt lat="42.436474" lon="18.599518"><ele>30.8</ele><time>2012-05-02T09:31:10.0000000+00:00</time></trkpt><trkpt lat="42.43639" lon="18.599825"><ele>29.7</ele><time>2012-05-02T09:31:15.0000000+00:00</time></trkpt><trkpt lat="42.436298" lon="18.600124"><ele>28.7</ele><time>2012-05-02T09:31:20.0000000+00:00</time></trkpt><trkpt lat="42.436211" lon="18.600378"><ele>30.0</ele><time>2012-05-02T09:31:25.0000000+00:00</time></trkpt><trkpt lat="42.436146" lon="18.600622"><ele>29.1</ele><time>2012-05-02T09:31:30.0000000+00:00</time></trkpt><trkpt lat="42.436073" lon="18.600878"><ele>30.3</ele><time>2012-05-02T09:31:35.0000000+00:00</time></trkpt><trkpt lat="42.435993" lon="18.601208"><ele>29.9</ele><time>2012-05-02T09:31:40.0000000+00:00</time></trkpt><trkpt lat="42.435879" lon="18.601639"><ele>27.1</ele><time>2012-05-02T09:31:45.0000000+00:00</time></trkpt><trkpt lat="42.43573" lon="18.602217"><ele>20.5</ele><time>2012-05-02T09:31:50.0000000+00:00</time></trkpt><trkpt lat="42.435612" lon="18.602633"><ele>14.8</ele><time>2012-05-02T09:31:55.0000000+00:00</time></trkpt><trkpt lat="42.435379" lon="18.602734"><ele>11.1</ele><time>2012-05-02T09:32:00.0000000+00:00</time></trkpt><trkpt lat="42.435184" lon="18.602949"><ele>13.0</ele><time>2012-05-02T09:32:05.0000000+00:00</time></trkpt><trkpt lat="42.435207" lon="18.603399"><ele>8.9</ele><time>2012-05-02T09:32:10.0000000+00:00</time></trkpt><trkpt lat="42.435204" lon="18.603806"><ele>8.5</ele><time>2012-05-02T09:32:15.0000000+00:00</time></trkpt><trkpt lat="42.435188" lon="18.604174"><ele>9.5</ele><time>2012-05-02T09:32:20.0000000+00:00</time></trkpt><trkpt lat="42.435123" lon="18.6045"><ele>9.8</ele><time>2012-05-02T09:32:25.0000000+00:00</time></trkpt><trkpt lat="42.434956" lon="18.604792"><ele>7.5</ele><time>2012-05-02T09:32:30.0000000+00:00</time></trkpt><trkpt lat="42.434879" lon="18.605156"><ele>7.5</ele><time>2012-05-02T09:32:35.0000000+00:00</time></trkpt><trkpt lat="42.434872" lon="18.605515"><ele>6.2</ele><time>2012-05-02T09:32:40.0000000+00:00</time></trkpt><trkpt lat="42.435009" lon="18.605751"><ele>6.1</ele><time>2012-05-02T09:32:45.0000000+00:00</time></trkpt><trkpt lat="42.435131" lon="18.605961"><ele>4.6</ele><time>2012-05-02T09:32:50.0000000+00:00</time></trkpt><trkpt lat="42.4352" lon="18.606277"><ele>3.9</ele><time>2012-05-02T09:32:55.0000000+00:00</time></trkpt><trkpt lat="42.43515" lon="18.606606"><ele>3.1</ele><time>2012-05-02T09:33:00.0000000+00:00</time></trkpt><trkpt lat="42.435028" lon="18.606888"><ele>1.9</ele><time>2012-05-02T09:33:05.0000000+00:00</time></trkpt><trkpt lat="42.435005" lon="18.607203"><ele>1.6</ele><time>2012-05-02T09:33:10.0000000+00:00</time></trkpt><trkpt lat="42.435024" lon="18.607471"><ele>2.9</ele><time>2012-05-02T09:33:15.0000000+00:00</time></trkpt><trkpt lat="42.435093" lon="18.607809"><ele>1.0</ele><time>2012-05-02T09:33:20.0000000+00:00</time></trkpt><trkpt lat="42.435165" lon="18.608196"><ele>-1.5</ele><time>2012-05-02T09:33:25.0000000+00:00</time></trkpt><trkpt lat="42.435215" lon="18.608583"><ele>-2.4</ele><time>2012-05-02T09:33:30.0000000+00:00</time></trkpt><trkpt lat="42.435219" lon="18.608971"><ele>-0.3</ele><time>2012-05-02T09:33:35.0000000+00:00</time></trkpt><trkpt lat="42.435207" lon="18.609343"><ele>1.6</ele><time>2012-05-02T09:33:40.0000000+00:00</time></trkpt><trkpt lat="42.435234" lon="18.609699"><ele>1.6</ele><time>2012-05-02T09:33:45.0000000+00:00</time></trkpt><trkpt lat="42.435371" lon="18.610004"><ele>1.7</ele><time>2012-05-02T09:33:50.0000000+00:00</time></trkpt><trkpt lat="42.435635" lon="18.610168"><ele>2.2</ele><time>2012-05-02T09:33:55.0000000+00:00</time></trkpt><trkpt lat="42.435841" lon="18.61039"><ele>3.1</ele><time>2012-05-02T09:34:00.0000000+00:00</time></trkpt><trkpt lat="42.436069" lon="18.610544"><ele>5.0</ele><time>2012-05-02T09:34:05.0000000+00:00</time></trkpt><trkpt lat="42.436253" lon="18.610802"><ele>6.7</ele><time>2012-05-02T09:34:10.0000000+00:00</time></trkpt><trkpt lat="42.436344" lon="18.610971"><ele>8.5</ele><time>2012-05-02T09:34:15.0000000+00:00</time></trkpt><trkpt lat="42.436344" lon="18.610998"><ele>7.2</ele><time>2012-05-02T09:34:20.0000000+00:00</time></trkpt><trkpt lat="42.436363" lon="18.611052"><ele>7.4</ele><time>2012-05-02T09:34:25.0000000+00:00</time></trkpt><trkpt lat="42.436455" lon="18.611284"><ele>7.4</ele><time>2012-05-02T09:34:30.0000000+00:00</time></trkpt><trkpt lat="42.436531" lon="18.611601"><ele>6.2</ele><time>2012-05-02T09:34:35.0000000+00:00</time></trkpt><trkpt lat="42.436569" lon="18.611919"><ele>5.9</ele><time>2012-05-02T09:34:40.0000000+00:00</time></trkpt><trkpt lat="42.436642" lon="18.612261"><ele>6.9</ele><time>2012-05-02T09:34:45.0000000+00:00</time></trkpt><trkpt lat="42.436752" lon="18.612589"><ele>6.7</ele><time>2012-05-02T09:34:50.0000000+00:00</time></trkpt><trkpt lat="42.436848" lon="18.612932"><ele>5.9</ele><time>2012-05-02T09:34:55.0000000+00:00</time></trkpt><trkpt lat="42.436928" lon="18.613293"><ele>6.3</ele><time>2012-05-02T09:35:00.0000000+00:00</time></trkpt><trkpt lat="42.437042" lon="18.613615"><ele>6.8</ele><time>2012-05-02T09:35:05.0000000+00:00</time></trkpt><trkpt lat="42.437191" lon="18.613926"><ele>9.2</ele><time>2012-05-02T09:35:10.0000000+00:00</time></trkpt><trkpt lat="42.437443" lon="18.614079"><ele>7.8</ele><time>2012-05-02T09:35:15.0000000+00:00</time></trkpt><trkpt lat="42.437706" lon="18.614187"><ele>7.1</ele><time>2012-05-02T09:35:20.0000000+00:00</time></trkpt><trkpt lat="42.437977" lon="18.6143"><ele>7.6</ele><time>2012-05-02T09:35:25.0000000+00:00</time></trkpt><trkpt lat="42.438179" lon="18.61446"><ele>5.5</ele><time>2012-05-02T09:35:30.0000000+00:00</time></trkpt><trkpt lat="42.438347" lon="18.614689"><ele>5.9</ele><time>2012-05-02T09:35:35.0000000+00:00</time></trkpt><trkpt lat="42.438438" lon="18.614998"><ele>7.2</ele><time>2012-05-02T09:35:40.0000000+00:00</time></trkpt><trkpt lat="42.438412" lon="18.615376"><ele>8.5</ele><time>2012-05-02T09:35:45.0000000+00:00</time></trkpt><trkpt lat="42.43832" lon="18.615694"><ele>6.5</ele><time>2012-05-02T09:35:50.0000000+00:00</time></trkpt><trkpt lat="42.43824" lon="18.616104"><ele>6.1</ele><time>2012-05-02T09:35:55.0000000+00:00</time></trkpt><trkpt lat="42.438282" lon="18.61651"><ele>7.1</ele><time>2012-05-02T09:36:00.0000000+00:00</time></trkpt><trkpt lat="42.438396" lon="18.616894"><ele>7.7</ele><time>2012-05-02T09:36:05.0000000+00:00</time></trkpt><trkpt lat="42.438492" lon="18.61727"><ele>6.3</ele><time>2012-05-02T09:36:10.0000000+00:00</time></trkpt><trkpt lat="42.438496" lon="18.617638"><ele>6.0</ele><time>2012-05-02T09:36:15.0000000+00:00</time></trkpt><trkpt lat="42.43856" lon="18.618046"><ele>4.4</ele><time>2012-05-02T09:36:20.0000000+00:00</time></trkpt><trkpt lat="42.438652" lon="18.618422"><ele>3.7</ele><time>2012-05-02T09:36:25.0000000+00:00</time></trkpt><trkpt lat="42.438694" lon="18.618792"><ele>1.5</ele><time>2012-05-02T09:36:30.0000000+00:00</time></trkpt><trkpt lat="42.438686" lon="18.619183"><ele>-0.7</ele><time>2012-05-02T09:36:35.0000000+00:00</time></trkpt><trkpt lat="42.43861" lon="18.619535"><ele>-1.4</ele><time>2012-05-02T09:36:40.0000000+00:00</time></trkpt><trkpt lat="42.438652" lon="18.619888"><ele>-3.1</ele><time>2012-05-02T09:36:45.0000000+00:00</time></trkpt><trkpt lat="42.438786" lon="18.620197"><ele>-0.9</ele><time>2012-05-02T09:36:50.0000000+00:00</time></trkpt><trkpt lat="42.438988" lon="18.620499"><ele>0.8</ele><time>2012-05-02T09:36:55.0000000+00:00</time></trkpt><trkpt lat="42.439152" lon="18.620802"><ele>1.1</ele><time>2012-05-02T09:37:00.0000000+00:00</time></trkpt><trkpt lat="42.439262" lon="18.621166"><ele>1.4</ele><time>2012-05-02T09:37:05.0000000+00:00</time></trkpt><trkpt lat="42.439346" lon="18.621576"><ele>1.7</ele><time>2012-05-02T09:37:10.0000000+00:00</time></trkpt><trkpt lat="42.439396" lon="18.621956"><ele>1.8</ele><time>2012-05-02T09:37:15.0000000+00:00</time></trkpt><trkpt lat="42.439442" lon="18.622356"><ele>3.6</ele><time>2012-05-02T09:37:20.0000000+00:00</time></trkpt><trkpt lat="42.43956" lon="18.6227"><ele>3.5</ele><time>2012-05-02T09:37:25.0000000+00:00</time></trkpt><trkpt lat="42.439655" lon="18.623001"><ele>2.1</ele><time>2012-05-02T09:37:30.0000000+00:00</time></trkpt><trkpt lat="42.439648" lon="18.623386"><ele>2.3</ele><time>2012-05-02T09:37:35.0000000+00:00</time></trkpt><trkpt lat="42.43956" lon="18.62381"><ele>2.4</ele><time>2012-05-02T09:37:40.0000000+00:00</time></trkpt><trkpt lat="42.439495" lon="18.624201"><ele>1.5</ele><time>2012-05-02T09:37:45.0000000+00:00</time></trkpt><trkpt lat="42.439499" lon="18.624596"><ele>2.1</ele><time>2012-05-02T09:37:50.0000000+00:00</time></trkpt><trkpt lat="42.439655" lon="18.624949"><ele>5.0</ele><time>2012-05-02T09:37:55.0000000+00:00</time></trkpt><trkpt lat="42.439846" lon="18.625307"><ele>6.5</ele><time>2012-05-02T09:38:00.0000000+00:00</time></trkpt><trkpt lat="42.43996" lon="18.62569"><ele>9.4</ele><time>2012-05-02T09:38:05.0000000+00:00</time></trkpt><trkpt lat="42.440056" lon="18.62604"><ele>10.4</ele><time>2012-05-02T09:38:10.0000000+00:00</time></trkpt><trkpt lat="42.440155" lon="18.626394"><ele>10.9</ele><time>2012-05-02T09:38:15.0000000+00:00</time></trkpt><trkpt lat="42.44022" lon="18.626732"><ele>14.9</ele><time>2012-05-02T09:38:20.0000000+00:00</time></trkpt><trkpt lat="42.440266" lon="18.627077"><ele>16.9</ele><time>2012-05-02T09:38:25.0000000+00:00</time></trkpt><trkpt lat="42.440304" lon="18.627489"><ele>17.4</ele><time>2012-05-02T09:38:30.0000000+00:00</time></trkpt><trkpt lat="42.440434" lon="18.627802"><ele>16.9</ele><time>2012-05-02T09:38:35.0000000+00:00</time></trkpt><trkpt lat="42.440514" lon="18.628149"><ele>17.4</ele><time>2012-05-02T09:38:40.0000000+00:00</time></trkpt><trkpt lat="42.440598" lon="18.62855"><ele>17.1</ele><time>2012-05-02T09:38:45.0000000+00:00</time></trkpt><trkpt lat="42.440697" lon="18.628918"><ele>17.4</ele><time>2012-05-02T09:38:50.0000000+00:00</time></trkpt><trkpt lat="42.440796" lon="18.629299"><ele>14.5</ele><time>2012-05-02T09:38:55.0000000+00:00</time></trkpt><trkpt lat="42.44091" lon="18.629683"><ele>12.0</ele><time>2012-05-02T09:39:00.0000000+00:00</time></trkpt><trkpt lat="42.441059" lon="18.630018"><ele>10.1</ele><time>2012-05-02T09:39:05.0000000+00:00</time></trkpt><trkpt lat="42.441158" lon="18.630363"><ele>8.7</ele><time>2012-05-02T09:39:10.0000000+00:00</time></trkpt><trkpt lat="42.441154" lon="18.630753"><ele>7.3</ele><time>2012-05-02T09:39:15.0000000+00:00</time></trkpt><trkpt lat="42.441097" lon="18.631126"><ele>6.3</ele><time>2012-05-02T09:39:20.0000000+00:00</time></trkpt><trkpt lat="42.44109" lon="18.631451"><ele>6.4</ele><time>2012-05-02T09:39:25.0000000+00:00</time></trkpt><trkpt lat="42.441174" lon="18.631718"><ele>7.6</ele><time>2012-05-02T09:39:30.0000000+00:00</time></trkpt><trkpt lat="42.441353" lon="18.631954"><ele>6.9</ele><time>2012-05-02T09:39:35.0000000+00:00</time></trkpt><trkpt lat="42.441639" lon="18.632143"><ele>6.3</ele><time>2012-05-02T09:39:40.0000000+00:00</time></trkpt><trkpt lat="42.441837" lon="18.632406"><ele>5.0</ele><time>2012-05-02T09:39:45.0000000+00:00</time></trkpt><trkpt lat="42.441948" lon="18.63275"><ele>4.1</ele><time>2012-05-02T09:39:50.0000000+00:00</time></trkpt><trkpt lat="42.442127" lon="18.633045"><ele>4.0</ele><time>2012-05-02T09:39:55.0000000+00:00</time></trkpt><trkpt lat="42.442356" lon="18.633272"><ele>4.0</ele><time>2012-05-02T09:40:00.0000000+00:00</time></trkpt><trkpt lat="42.442539" lon="18.633511"><ele>4.3</ele><time>2012-05-02T09:40:05.0000000+00:00</time></trkpt><trkpt lat="42.442719" lon="18.633799"><ele>3.7</ele><time>2012-05-02T09:40:10.0000000+00:00</time></trkpt><trkpt lat="42.442879" lon="18.634073"><ele>2.3</ele><time>2012-05-02T09:40:15.0000000+00:00</time></trkpt><trkpt lat="42.442974" lon="18.63443"><ele>2.6</ele><time>2012-05-02T09:40:20.0000000+00:00</time></trkpt><trkpt lat="42.442944" lon="18.634817"><ele>2.4</ele><time>2012-05-02T09:40:25.0000000+00:00</time></trkpt><trkpt lat="42.442963" lon="18.635166"><ele>2.3</ele><time>2012-05-02T09:40:30.0000000+00:00</time></trkpt><trkpt lat="42.443092" lon="18.635517"><ele>1.6</ele><time>2012-05-02T09:40:35.0000000+00:00</time></trkpt><trkpt lat="42.443211" lon="18.635921"><ele>1.8</ele><time>2012-05-02T09:40:40.0000000+00:00</time></trkpt><trkpt lat="42.44326" lon="18.636309"><ele>2.0</ele><time>2012-05-02T09:40:45.0000000+00:00</time></trkpt><trkpt lat="42.443336" lon="18.636702"><ele>2.2</ele><time>2012-05-02T09:40:50.0000000+00:00</time></trkpt><trkpt lat="42.443436" lon="18.637026"><ele>3.2</ele><time>2012-05-02T09:40:55.0000000+00:00</time></trkpt><trkpt lat="42.443611" lon="18.637342"><ele>7.4</ele><time>2012-05-02T09:41:00.0000000+00:00</time></trkpt><trkpt lat="42.443737" lon="18.637728"><ele>6.5</ele><time>2012-05-02T09:41:05.0000000+00:00</time></trkpt><trkpt lat="42.443844" lon="18.638075"><ele>5.3</ele><time>2012-05-02T09:41:10.0000000+00:00</time></trkpt><trkpt lat="42.443943" lon="18.638418"><ele>5.2</ele><time>2012-05-02T09:41:15.0000000+00:00</time></trkpt><trkpt lat="42.444008" lon="18.638771"><ele>6.9</ele><time>2012-05-02T09:41:20.0000000+00:00</time></trkpt><trkpt lat="42.444077" lon="18.639074"><ele>7.0</ele><time>2012-05-02T09:41:25.0000000+00:00</time></trkpt><trkpt lat="42.444225" lon="18.639347"><ele>5.8</ele><time>2012-05-02T09:41:30.0000000+00:00</time></trkpt><trkpt lat="42.444382" lon="18.63962"><ele>4.0</ele><time>2012-05-02T09:41:35.0000000+00:00</time></trkpt><trkpt lat="42.444519" lon="18.639866"><ele>3.7</ele><time>2012-05-02T09:41:40.0000000+00:00</time></trkpt><trkpt lat="42.444653" lon="18.640087"><ele>3.3</ele><time>2012-05-02T09:41:45.0000000+00:00</time></trkpt><trkpt lat="42.444817" lon="18.640308"><ele>3.0</ele><time>2012-05-02T09:41:50.0000000+00:00</time></trkpt><trkpt lat="42.444973" lon="18.640589"><ele>2.5</ele><time>2012-05-02T09:41:55.0000000+00:00</time></trkpt><trkpt lat="42.445145" lon="18.64086"><ele>2.2</ele><time>2012-05-02T09:42:00.0000000+00:00</time></trkpt><trkpt lat="42.445328" lon="18.641066"><ele>1.8</ele><time>2012-05-02T09:42:05.0000000+00:00</time></trkpt><trkpt lat="42.445515" lon="18.6413"><ele>1.5</ele><time>2012-05-02T09:42:10.0000000+00:00</time></trkpt><trkpt lat="42.445702" lon="18.641621"><ele>0.8</ele><time>2012-05-02T09:42:15.0000000+00:00</time></trkpt><trkpt lat="42.445919" lon="18.641972"><ele>0.4</ele><time>2012-05-02T09:42:20.0000000+00:00</time></trkpt><trkpt lat="42.446125" lon="18.642307"><ele>0.4</ele><time>2012-05-02T09:42:25.0000000+00:00</time></trkpt><trkpt lat="42.44635" lon="18.642673"><ele>0.0</ele><time>2012-05-02T09:42:30.0000000+00:00</time></trkpt><trkpt lat="42.446564" lon="18.643024"><ele>0.3</ele><time>2012-05-02T09:42:35.0000000+00:00</time></trkpt><trkpt lat="42.446774" lon="18.643372"><ele>0.2</ele><time>2012-05-02T09:42:40.0000000+00:00</time></trkpt><trkpt lat="42.446976" lon="18.643709"><ele>0.3</ele><time>2012-05-02T09:42:45.0000000+00:00</time></trkpt><trkpt lat="42.447189" lon="18.644058"><ele>0.0</ele><time>2012-05-02T09:42:50.0000000+00:00</time></trkpt><trkpt lat="42.447395" lon="18.644405"><ele>0.1</ele><time>2012-05-02T09:42:55.0000000+00:00</time></trkpt><trkpt lat="42.447605" lon="18.644796"><ele>-0.0</ele><time>2012-05-02T09:43:00.0000000+00:00</time></trkpt><trkpt lat="42.447777" lon="18.645145"><ele>0.8</ele><time>2012-05-02T09:43:05.0000000+00:00</time></trkpt><trkpt lat="42.447948" lon="18.645487"><ele>1.2</ele><time>2012-05-02T09:43:10.0000000+00:00</time></trkpt><trkpt lat="42.448105" lon="18.645857"><ele>2.0</ele><time>2012-05-02T09:43:15.0000000+00:00</time></trkpt><trkpt lat="42.4482" lon="18.646246"><ele>2.2</ele><time>2012-05-02T09:43:20.0000000+00:00</time></trkpt><trkpt lat="42.448292" lon="18.646578"><ele>2.2</ele><time>2012-05-02T09:43:25.0000000+00:00</time></trkpt><trkpt lat="42.448395" lon="18.646816"><ele>2.9</ele><time>2012-05-02T09:43:30.0000000+00:00</time></trkpt><trkpt lat="42.448402" lon="18.646879"><ele>3.6</ele><time>2012-05-02T09:43:35.0000000+00:00</time></trkpt><trkpt lat="42.448395" lon="18.64687"><ele>3.9</ele><time>2012-05-02T09:43:40.0000000+00:00</time></trkpt><trkpt lat="42.448395" lon="18.64687"><ele>4.0</ele><time>2012-05-02T09:43:45.0000000+00:00</time></trkpt><trkpt lat="42.448395" lon="18.64687"><ele>4.1</ele><time>2012-05-02T09:43:50.0000000+00:00</time></trkpt><trkpt lat="42.448395" lon="18.646868"><ele>4.2</ele><time>2012-05-02T09:43:55.0000000+00:00</time></trkpt><trkpt lat="42.448391" lon="18.646868"><ele>4.3</ele><time>2012-05-02T09:44:00.0000000+00:00</time></trkpt><trkpt lat="42.448391" lon="18.646866"><ele>4.3</ele><time>2012-05-02T09:44:05.0000000+00:00</time></trkpt><trkpt lat="42.448391" lon="18.646872"><ele>3.9</ele><time>2012-05-02T09:44:10.0000000+00:00</time></trkpt><trkpt lat="42.448391" lon="18.646872"><ele>3.9</ele><time>2012-05-02T09:44:15.0000000+00:00</time></trkpt><trkpt lat="42.448391" lon="18.646872"><ele>3.9</ele><time>2012-05-02T09:44:20.0000000+00:00</time></trkpt><trkpt lat="42.448391" lon="18.646872"><ele>3.9</ele><time>2012-05-02T09:44:25.0000000+00:00</time></trkpt><trkpt lat="42.448391" lon="18.646872"><ele>3.9</ele><time>2012-05-02T09:44:30.0000000+00:00</time></trkpt><trkpt lat="42.448391" lon="18.64687"><ele>3.9</ele><time>2012-05-02T09:44:35.0000000+00:00</time></trkpt><trkpt lat="42.448391" lon="18.64687"><ele>3.9</ele><time>2012-05-02T09:44:40.0000000+00:00</time></trkpt><trkpt lat="42.448391" lon="18.64687"><ele>3.9</ele><time>2012-05-02T09:44:45.0000000+00:00</time></trkpt><trkpt lat="42.448391" lon="18.64687"><ele>3.9</ele><time>2012-05-02T09:44:50.0000000+00:00</time></trkpt><trkpt lat="42.448391" lon="18.64687"><ele>3.9</ele><time>2012-05-02T09:44:55.0000000+00:00</time></trkpt><trkpt lat="42.448391" lon="18.64687"><ele>3.9</ele><time>2012-05-02T09:45:00.0000000+00:00</time></trkpt><trkpt lat="42.448391" lon="18.64687"><ele>3.9</ele><time>2012-05-02T09:45:05.0000000+00:00</time></trkpt><trkpt lat="42.448391" lon="18.64687"><ele>3.9</ele><time>2012-05-02T09:45:10.0000000+00:00</time></trkpt><trkpt lat="42.448391" lon="18.646868"><ele>3.9</ele><time>2012-05-02T09:45:15.0000000+00:00</time></trkpt><trkpt lat="42.448391" lon="18.64687"><ele>3.9</ele><time>2012-05-02T09:45:20.0000000+00:00</time></trkpt><trkpt lat="42.448391" lon="18.64687"><ele>3.9</ele><time>2012-05-02T09:45:25.0000000+00:00</time></trkpt><trkpt lat="42.448391" lon="18.64687"><ele>3.9</ele><time>2012-05-02T09:45:30.0000000+00:00</time></trkpt><trkpt lat="42.448391" lon="18.64687"><ele>3.9</ele><time>2012-05-02T09:45:35.0000000+00:00</time></trkpt><trkpt lat="42.448391" lon="18.646868"><ele>3.9</ele><time>2012-05-02T09:45:40.0000000+00:00</time></trkpt><trkpt lat="42.448391" lon="18.646868"><ele>3.9</ele><time>2012-05-02T09:45:45.0000000+00:00</time></trkpt><trkpt lat="42.448391" lon="18.646868"><ele>3.9</ele><time>2012-05-02T09:45:50.0000000+00:00</time></trkpt><trkpt lat="42.448391" lon="18.646868"><ele>3.9</ele><time>2012-05-02T09:45:55.0000000+00:00</time></trkpt><trkpt lat="42.448391" lon="18.646868"><ele>3.9</ele><time>2012-05-02T09:46:00.0000000+00:00</time></trkpt><trkpt lat="42.448391" lon="18.646868"><ele>3.9</ele><time>2012-05-02T09:46:05.0000000+00:00</time></trkpt><trkpt lat="42.448391" lon="18.646868"><ele>3.9</ele><time>2012-05-02T09:46:10.0000000+00:00</time></trkpt><trkpt lat="42.448391" lon="18.646868"><ele>3.9</ele><time>2012-05-02T09:46:15.0000000+00:00</time></trkpt><trkpt lat="42.448391" lon="18.646868"><ele>3.9</ele><time>2012-05-02T09:46:20.0000000+00:00</time></trkpt><trkpt lat="42.448391" lon="18.646868"><ele>3.9</ele><time>2012-05-02T09:46:25.0000000+00:00</time></trkpt><trkpt lat="42.448391" lon="18.646868"><ele>3.9</ele><time>2012-05-02T09:46:30.0000000+00:00</time></trkpt><trkpt lat="42.448391" lon="18.646868"><ele>3.9</ele><time>2012-05-02T09:46:35.0000000+00:00</time></trkpt><trkpt lat="42.448444" lon="18.646891"><ele>4.7</ele><time>2012-05-02T09:46:40.0000000+00:00</time></trkpt><trkpt lat="42.448574" lon="18.647066"><ele>4.2</ele><time>2012-05-02T09:46:45.0000000+00:00</time></trkpt><trkpt lat="42.448772" lon="18.64728"><ele>4.4</ele><time>2012-05-02T09:46:50.0000000+00:00</time></trkpt><trkpt lat="42.448959" lon="18.647509"><ele>3.7</ele><time>2012-05-02T09:46:55.0000000+00:00</time></trkpt><trkpt lat="42.449108" lon="18.647772"><ele>3.4</ele><time>2012-05-02T09:47:00.0000000+00:00</time></trkpt><trkpt lat="42.449242" lon="18.64806"><ele>3.6</ele><time>2012-05-02T09:47:05.0000000+00:00</time></trkpt><trkpt lat="42.449383" lon="18.648371"><ele>3.4</ele><time>2012-05-02T09:47:10.0000000+00:00</time></trkpt><trkpt lat="42.449512" lon="18.648727"><ele>3.5</ele><time>2012-05-02T09:47:15.0000000+00:00</time></trkpt><trkpt lat="42.449642" lon="18.649038"><ele>3.1</ele><time>2012-05-02T09:47:20.0000000+00:00</time></trkpt><trkpt lat="42.449764" lon="18.649328"><ele>2.6</ele><time>2012-05-02T09:47:25.0000000+00:00</time></trkpt><trkpt lat="42.449879" lon="18.649664"><ele>3.1</ele><time>2012-05-02T09:47:30.0000000+00:00</time></trkpt><trkpt lat="42.449989" lon="18.650007"><ele>2.6</ele><time>2012-05-02T09:47:35.0000000+00:00</time></trkpt><trkpt lat="42.450092" lon="18.650349"><ele>2.7</ele><time>2012-05-02T09:47:40.0000000+00:00</time></trkpt><trkpt lat="42.450195" lon="18.650711"><ele>5.0</ele><time>2012-05-02T09:47:45.0000000+00:00</time></trkpt><trkpt lat="42.450272" lon="18.651087"><ele>7.2</ele><time>2012-05-02T09:47:50.0000000+00:00</time></trkpt><trkpt lat="42.450367" lon="18.651472"><ele>9.4</ele><time>2012-05-02T09:47:55.0000000+00:00</time></trkpt><trkpt lat="42.450558" lon="18.651598"><ele>11.1</ele><time>2012-05-02T09:48:00.0000000+00:00</time></trkpt><trkpt lat="42.45084" lon="18.651609"><ele>13.1</ele><time>2012-05-02T09:48:05.0000000+00:00</time></trkpt><trkpt lat="42.451073" lon="18.651562"><ele>15.2</ele><time>2012-05-02T09:48:10.0000000+00:00</time></trkpt><trkpt lat="42.451294" lon="18.651432"><ele>17.7</ele><time>2012-05-02T09:48:15.0000000+00:00</time></trkpt><trkpt lat="42.45153" lon="18.651503"><ele>16.9</ele><time>2012-05-02T09:48:20.0000000+00:00</time></trkpt><trkpt lat="42.45174" lon="18.651752"><ele>16.0</ele><time>2012-05-02T09:48:25.0000000+00:00</time></trkpt><trkpt lat="42.451958" lon="18.652018"><ele>15.7</ele><time>2012-05-02T09:48:30.0000000+00:00</time></trkpt><trkpt lat="42.452175" lon="18.652313"><ele>15.4</ele><time>2012-05-02T09:48:35.0000000+00:00</time></trkpt><trkpt lat="42.452381" lon="18.652534"><ele>14.9</ele><time>2012-05-02T09:48:40.0000000+00:00</time></trkpt><trkpt lat="42.452633" lon="18.652746"><ele>14.6</ele><time>2012-05-02T09:48:45.0000000+00:00</time></trkpt><trkpt lat="42.452858" lon="18.652901"><ele>15.8</ele><time>2012-05-02T09:48:50.0000000+00:00</time></trkpt><trkpt lat="42.45311" lon="18.653097"><ele>15.8</ele><time>2012-05-02T09:48:55.0000000+00:00</time></trkpt><trkpt lat="42.453335" lon="18.65332"><ele>15.1</ele><time>2012-05-02T09:49:00.0000000+00:00</time></trkpt><trkpt lat="42.453476" lon="18.653645"><ele>15.2</ele><time>2012-05-02T09:49:05.0000000+00:00</time></trkpt><trkpt lat="42.453621" lon="18.65394"><ele>15.9</ele><time>2012-05-02T09:49:10.0000000+00:00</time></trkpt><trkpt lat="42.453751" lon="18.654251"><ele>16.1</ele><time>2012-05-02T09:49:15.0000000+00:00</time></trkpt><trkpt lat="42.453762" lon="18.65448"><ele>16.2</ele><time>2012-05-02T09:49:20.0000000+00:00</time></trkpt><trkpt lat="42.453583" lon="18.654633"><ele>16.0</ele><time>2012-05-02T09:49:25.0000000+00:00</time></trkpt><trkpt lat="42.453491" lon="18.654915"><ele>15.7</ele><time>2012-05-02T09:49:30.0000000+00:00</time></trkpt><trkpt lat="42.453598" lon="18.655293"><ele>15.3</ele><time>2012-05-02T09:49:35.0000000+00:00</time></trkpt><trkpt lat="42.453743" lon="18.655672"><ele>14.1</ele><time>2012-05-02T09:49:40.0000000+00:00</time></trkpt><trkpt lat="42.453793" lon="18.655981"><ele>11.1</ele><time>2012-05-02T09:49:45.0000000+00:00</time></trkpt><trkpt lat="42.453564" lon="18.65621"><ele>9.2</ele><time>2012-05-02T09:49:50.0000000+00:00</time></trkpt><trkpt lat="42.453262" lon="18.656445"><ele>5.6</ele><time>2012-05-02T09:49:55.0000000+00:00</time></trkpt><trkpt lat="42.453026" lon="18.656765"><ele>9.0</ele><time>2012-05-02T09:50:00.0000000+00:00</time></trkpt><trkpt lat="42.452862" lon="18.657093"><ele>9.4</ele><time>2012-05-02T09:50:05.0000000+00:00</time></trkpt><trkpt lat="42.452667" lon="18.65744"><ele>10.6</ele><time>2012-05-02T09:50:10.0000000+00:00</time></trkpt><trkpt lat="42.452564" lon="18.657764"><ele>12.9</ele><time>2012-05-02T09:50:15.0000000+00:00</time></trkpt><trkpt lat="42.452553" lon="18.6581"><ele>14.6</ele><time>2012-05-02T09:50:20.0000000+00:00</time></trkpt><trkpt lat="42.452709" lon="18.658407"><ele>15.8</ele><time>2012-05-02T09:50:25.0000000+00:00</time></trkpt><trkpt lat="42.452953" lon="18.65868"><ele>16.3</ele><time>2012-05-02T09:50:30.0000000+00:00</time></trkpt><trkpt lat="42.453175" lon="18.658932"><ele>15.0</ele><time>2012-05-02T09:50:35.0000000+00:00</time></trkpt><trkpt lat="42.453407" lon="18.659184"><ele>13.3</ele><time>2012-05-02T09:50:40.0000000+00:00</time></trkpt><trkpt lat="42.453655" lon="18.659405"><ele>10.8</ele><time>2012-05-02T09:50:45.0000000+00:00</time></trkpt><trkpt lat="42.453911" lon="18.659603"><ele>9.0</ele><time>2012-05-02T09:50:50.0000000+00:00</time></trkpt><trkpt lat="42.454128" lon="18.659801"><ele>8.6</ele><time>2012-05-02T09:50:55.0000000+00:00</time></trkpt><trkpt lat="42.454296" lon="18.659998"><ele>8.0</ele><time>2012-05-02T09:51:00.0000000+00:00</time></trkpt><trkpt lat="42.454464" lon="18.660221"><ele>7.1</ele><time>2012-05-02T09:51:05.0000000+00:00</time></trkpt><trkpt lat="42.454639" lon="18.660446"><ele>7.1</ele><time>2012-05-02T09:51:10.0000000+00:00</time></trkpt><trkpt lat="42.454815" lon="18.660673"><ele>5.6</ele><time>2012-05-02T09:51:15.0000000+00:00</time></trkpt><trkpt lat="42.454987" lon="18.660881"><ele>5.3</ele><time>2012-05-02T09:51:20.0000000+00:00</time></trkpt><trkpt lat="42.455147" lon="18.661087"><ele>5.2</ele><time>2012-05-02T09:51:25.0000000+00:00</time></trkpt><trkpt lat="42.455364" lon="18.661322"><ele>5.5</ele><time>2012-05-02T09:51:30.0000000+00:00</time></trkpt><trkpt lat="42.455551" lon="18.661575"><ele>5.3</ele><time>2012-05-02T09:51:35.0000000+00:00</time></trkpt><trkpt lat="42.455734" lon="18.661825"><ele>5.1</ele><time>2012-05-02T09:51:40.0000000+00:00</time></trkpt><trkpt lat="42.455906" lon="18.662148"><ele>2.8</ele><time>2012-05-02T09:51:45.0000000+00:00</time></trkpt><trkpt lat="42.456112" lon="18.662497"><ele>1.3</ele><time>2012-05-02T09:51:50.0000000+00:00</time></trkpt><trkpt lat="42.456188" lon="18.662889"><ele>0.6</ele><time>2012-05-02T09:51:55.0000000+00:00</time></trkpt><trkpt lat="42.456318" lon="18.663273"><ele>0.4</ele><time>2012-05-02T09:52:00.0000000+00:00</time></trkpt><trkpt lat="42.456432" lon="18.663685"><ele>0.0</ele><time>2012-05-02T09:52:05.0000000+00:00</time></trkpt><trkpt lat="42.456604" lon="18.663992"><ele>0.9</ele><time>2012-05-02T09:52:10.0000000+00:00</time></trkpt><trkpt lat="42.456688" lon="18.664404"><ele>1.3</ele><time>2012-05-02T09:52:15.0000000+00:00</time></trkpt><trkpt lat="42.456768" lon="18.664808"><ele>2.1</ele><time>2012-05-02T09:52:20.0000000+00:00</time></trkpt><trkpt lat="42.456871" lon="18.665232"><ele>2.8</ele><time>2012-05-02T09:52:25.0000000+00:00</time></trkpt><trkpt lat="42.456944" lon="18.665674"><ele>3.7</ele><time>2012-05-02T09:52:30.0000000+00:00</time></trkpt><trkpt lat="42.457039" lon="18.666092"><ele>1.9</ele><time>2012-05-02T09:52:35.0000000+00:00</time></trkpt><trkpt lat="42.457096" lon="18.666502"><ele>0.8</ele><time>2012-05-02T09:52:40.0000000+00:00</time></trkpt><trkpt lat="42.457146" lon="18.666861"><ele>0.3</ele><time>2012-05-02T09:52:45.0000000+00:00</time></trkpt><trkpt lat="42.457195" lon="18.667185"><ele>0.2</ele><time>2012-05-02T09:52:50.0000000+00:00</time></trkpt><trkpt lat="42.457245" lon="18.667542"><ele>0.8</ele><time>2012-05-02T09:52:55.0000000+00:00</time></trkpt><trkpt lat="42.457302" lon="18.667944"><ele>0.6</ele><time>2012-05-02T09:53:00.0000000+00:00</time></trkpt><trkpt lat="42.45752" lon="18.66832"><ele>0.4</ele><time>2012-05-02T09:53:05.0000000+00:00</time></trkpt><trkpt lat="42.457737" lon="18.668734"><ele>-1.2</ele><time>2012-05-02T09:53:10.0000000+00:00</time></trkpt><trkpt lat="42.457962" lon="18.669128"><ele>-1.1</ele><time>2012-05-02T09:53:15.0000000+00:00</time></trkpt><trkpt lat="42.458164" lon="18.669485"><ele>-1.2</ele><time>2012-05-02T09:53:20.0000000+00:00</time></trkpt><trkpt lat="42.458355" lon="18.6698"><ele>-0.6</ele><time>2012-05-02T09:53:25.0000000+00:00</time></trkpt><trkpt lat="42.458591" lon="18.67001"><ele>0.7</ele><time>2012-05-02T09:53:30.0000000+00:00</time></trkpt><trkpt lat="42.458797" lon="18.670244"><ele>1.9</ele><time>2012-05-02T09:53:35.0000000+00:00</time></trkpt><trkpt lat="42.458946" lon="18.670572"><ele>3.1</ele><time>2012-05-02T09:53:40.0000000+00:00</time></trkpt><trkpt lat="42.459087" lon="18.670916"><ele>3.0</ele><time>2012-05-02T09:53:45.0000000+00:00</time></trkpt><trkpt lat="42.459236" lon="18.671242"><ele>2.6</ele><time>2012-05-02T09:53:50.0000000+00:00</time></trkpt><trkpt lat="42.459377" lon="18.67164"><ele>1.8</ele><time>2012-05-02T09:53:55.0000000+00:00</time></trkpt><trkpt lat="42.459476" lon="18.672075"><ele>1.6</ele><time>2012-05-02T09:54:00.0000000+00:00</time></trkpt><trkpt lat="42.459507" lon="18.672512"><ele>0.6</ele><time>2012-05-02T09:54:05.0000000+00:00</time></trkpt><trkpt lat="42.459507" lon="18.672937"><ele>-0.0</ele><time>2012-05-02T09:54:10.0000000+00:00</time></trkpt><trkpt lat="42.459511" lon="18.673389"><ele>0.5</ele><time>2012-05-02T09:54:15.0000000+00:00</time></trkpt><trkpt lat="42.459518" lon="18.673805"><ele>0.1</ele><time>2012-05-02T09:54:20.0000000+00:00</time></trkpt><trkpt lat="42.459526" lon="18.67421"><ele>0.4</ele><time>2012-05-02T09:54:25.0000000+00:00</time></trkpt><trkpt lat="42.459549" lon="18.674685"><ele>-0.2</ele><time>2012-05-02T09:54:30.0000000+00:00</time></trkpt><trkpt lat="42.459614" lon="18.675102"><ele>-0.2</ele><time>2012-05-02T09:54:35.0000000+00:00</time></trkpt><trkpt lat="42.459797" lon="18.675425"><ele>-0.4</ele><time>2012-05-02T09:54:40.0000000+00:00</time></trkpt><trkpt lat="42.460117" lon="18.67555"><ele>-1.1</ele><time>2012-05-02T09:54:45.0000000+00:00</time></trkpt><trkpt lat="42.46043" lon="18.675447"><ele>0.0</ele><time>2012-05-02T09:54:50.0000000+00:00</time></trkpt><trkpt lat="42.460705" lon="18.675226"><ele>1.2</ele><time>2012-05-02T09:54:55.0000000+00:00</time></trkpt><trkpt lat="42.460934" lon="18.674892"><ele>3.0</ele><time>2012-05-02T09:55:00.0000000+00:00</time></trkpt><trkpt lat="42.460987" lon="18.674774"><ele>5.4</ele><time>2012-05-02T09:55:05.0000000+00:00</time></trkpt><trkpt lat="42.460983" lon="18.674776"><ele>5.6</ele><time>2012-05-02T09:55:10.0000000+00:00</time></trkpt><trkpt lat="42.460983" lon="18.674778"><ele>5.7</ele><time>2012-05-02T09:55:15.0000000+00:00</time></trkpt><trkpt lat="42.460983" lon="18.674778"><ele>5.8</ele><time>2012-05-02T09:55:20.0000000+00:00</time></trkpt><trkpt lat="42.460983" lon="18.674778"><ele>5.9</ele><time>2012-05-02T09:55:25.0000000+00:00</time></trkpt><trkpt lat="42.460979" lon="18.67478"><ele>5.9</ele><time>2012-05-02T09:55:30.0000000+00:00</time></trkpt><trkpt lat="42.460979" lon="18.67478"><ele>5.9</ele><time>2012-05-02T09:55:35.0000000+00:00</time></trkpt><trkpt lat="42.460979" lon="18.67478"><ele>5.9</ele><time>2012-05-02T09:55:40.0000000+00:00</time></trkpt><trkpt lat="42.460979" lon="18.67478"><ele>5.9</ele><time>2012-05-02T09:55:45.0000000+00:00</time></trkpt><trkpt lat="42.460979" lon="18.67478"><ele>5.9</ele><time>2012-05-02T09:55:50.0000000+00:00</time></trkpt><trkpt lat="42.460979" lon="18.67478"><ele>5.9</ele><time>2012-05-02T09:55:55.0000000+00:00</time></trkpt><trkpt lat="42.460979" lon="18.67478"><ele>5.9</ele><time>2012-05-02T09:56:00.0000000+00:00</time></trkpt><trkpt lat="42.460979" lon="18.67478"><ele>5.9</ele><time>2012-05-02T09:56:05.0000000+00:00</time></trkpt><trkpt lat="42.460979" lon="18.67478"><ele>5.9</ele><time>2012-05-02T09:56:10.0000000+00:00</time></trkpt><trkpt lat="42.460979" lon="18.67478"><ele>5.9</ele><time>2012-05-02T09:56:15.0000000+00:00</time></trkpt><trkpt lat="42.460979" lon="18.67478"><ele>5.9</ele><time>2012-05-02T09:56:20.0000000+00:00</time></trkpt><trkpt lat="42.460979" lon="18.67478"><ele>5.9</ele><time>2012-05-02T09:56:25.0000000+00:00</time></trkpt><trkpt lat="42.460979" lon="18.67478"><ele>5.9</ele><time>2012-05-02T09:56:30.0000000+00:00</time></trkpt><trkpt lat="42.460983" lon="18.674765"><ele>6.1</ele><time>2012-05-02T09:56:35.0000000+00:00</time></trkpt><trkpt lat="42.461037" lon="18.674593"><ele>5.6</ele><time>2012-05-02T09:56:40.0000000+00:00</time></trkpt><trkpt lat="42.461086" lon="18.674435"><ele>4.5</ele><time>2012-05-02T09:56:45.0000000+00:00</time></trkpt><trkpt lat="42.46117" lon="18.6742"><ele>5.0</ele><time>2012-05-02T09:56:50.0000000+00:00</time></trkpt><trkpt lat="42.46133" lon="18.67388"><ele>6.1</ele><time>2012-05-02T09:56:55.0000000+00:00</time></trkpt><trkpt lat="42.461567" lon="18.673607"><ele>7.1</ele><time>2012-05-02T09:57:00.0000000+00:00</time></trkpt><trkpt lat="42.461849" lon="18.67333"><ele>4.9</ele><time>2012-05-02T09:57:05.0000000+00:00</time></trkpt><trkpt lat="42.462112" lon="18.673143"><ele>5.5</ele><time>2012-05-02T09:57:10.0000000+00:00</time></trkpt><trkpt lat="42.462406" lon="18.673019"><ele>7.3</ele><time>2012-05-02T09:57:15.0000000+00:00</time></trkpt><trkpt lat="42.462746" lon="18.672997"><ele>8.3</ele><time>2012-05-02T09:57:20.0000000+00:00</time></trkpt><trkpt lat="42.463043" lon="18.673086"><ele>8.9</ele><time>2012-05-02T09:57:25.0000000+00:00</time></trkpt><trkpt lat="42.463234" lon="18.673241"><ele>9.3</ele><time>2012-05-02T09:57:30.0000000+00:00</time></trkpt><trkpt lat="42.463371" lon="18.673346"><ele>9.7</ele><time>2012-05-02T09:57:35.0000000+00:00</time></trkpt><trkpt lat="42.463554" lon="18.673433"><ele>10.2</ele><time>2012-05-02T09:57:40.0000000+00:00</time></trkpt><trkpt lat="42.463829" lon="18.6735"><ele>9.9</ele><time>2012-05-02T09:57:45.0000000+00:00</time></trkpt><trkpt lat="42.464111" lon="18.673485"><ele>9.4</ele><time>2012-05-02T09:57:50.0000000+00:00</time></trkpt><trkpt lat="42.464417" lon="18.673458"><ele>8.1</ele><time>2012-05-02T09:57:55.0000000+00:00</time></trkpt><trkpt lat="42.464741" lon="18.673456"><ele>7.4</ele><time>2012-05-02T09:58:00.0000000+00:00</time></trkpt><trkpt lat="42.465065" lon="18.67346"><ele>6.6</ele><time>2012-05-02T09:58:05.0000000+00:00</time></trkpt><trkpt lat="42.465405" lon="18.673498"><ele>6.7</ele><time>2012-05-02T09:58:10.0000000+00:00</time></trkpt><trkpt lat="42.465729" lon="18.67351"><ele>6.3</ele><time>2012-05-02T09:58:15.0000000+00:00</time></trkpt><trkpt lat="42.466038" lon="18.67354"><ele>6.1</ele><time>2012-05-02T09:58:20.0000000+00:00</time></trkpt><trkpt lat="42.466297" lon="18.673676"><ele>6.6</ele><time>2012-05-02T09:58:25.0000000+00:00</time></trkpt><trkpt lat="42.46645" lon="18.673916"><ele>6.7</ele><time>2012-05-02T09:58:30.0000000+00:00</time></trkpt><trkpt lat="42.466522" lon="18.674013"><ele>7.1</ele><time>2012-05-02T09:58:35.0000000+00:00</time></trkpt><trkpt lat="42.466587" lon="18.674219"><ele>7.0</ele><time>2012-05-02T09:58:40.0000000+00:00</time></trkpt><trkpt lat="42.466717" lon="18.674427"><ele>7.8</ele><time>2012-05-02T09:58:45.0000000+00:00</time></trkpt><trkpt lat="42.466831" lon="18.67449"><ele>7.7</ele><time>2012-05-02T09:58:50.0000000+00:00</time></trkpt><trkpt lat="42.466835" lon="18.674503"><ele>6.3</ele><time>2012-05-02T09:58:55.0000000+00:00</time></trkpt><trkpt lat="42.466835" lon="18.674511"><ele>5.5</ele><time>2012-05-02T09:59:00.0000000+00:00</time></trkpt><trkpt lat="42.466831" lon="18.674511"><ele>5.2</ele><time>2012-05-02T09:59:05.0000000+00:00</time></trkpt><trkpt lat="42.466831" lon="18.674511"><ele>5.1</ele><time>2012-05-02T09:59:10.0000000+00:00</time></trkpt><trkpt lat="42.466827" lon="18.674509"><ele>5.2</ele><time>2012-05-02T09:59:15.0000000+00:00</time></trkpt><trkpt lat="42.466827" lon="18.674507"><ele>5.3</ele><time>2012-05-02T09:59:20.0000000+00:00</time></trkpt><trkpt lat="42.466835" lon="18.674511"><ele>5.5</ele><time>2012-05-02T09:59:25.0000000+00:00</time></trkpt><trkpt lat="42.466827" lon="18.674509"><ele>5.7</ele><time>2012-05-02T09:59:30.0000000+00:00</time></trkpt><trkpt lat="42.466827" lon="18.674511"><ele>5.7</ele><time>2012-05-02T09:59:35.0000000+00:00</time></trkpt><trkpt lat="42.466827" lon="18.674509"><ele>5.7</ele><time>2012-05-02T09:59:40.0000000+00:00</time></trkpt><trkpt lat="42.466827" lon="18.674509"><ele>5.7</ele><time>2012-05-02T09:59:45.0000000+00:00</time></trkpt><trkpt lat="42.466827" lon="18.674509"><ele>5.7</ele><time>2012-05-02T09:59:50.0000000+00:00</time></trkpt><trkpt lat="42.466827" lon="18.674509"><ele>5.7</ele><time>2012-05-02T09:59:55.0000000+00:00</time></trkpt><trkpt lat="42.466827" lon="18.674509"><ele>5.7</ele><time>2012-05-02T10:00:00.0000000+00:00</time></trkpt><trkpt lat="42.466827" lon="18.674509"><ele>5.7</ele><time>2012-05-02T10:00:05.0000000+00:00</time></trkpt><trkpt lat="42.466827" lon="18.674509"><ele>5.7</ele><time>2012-05-02T10:00:10.0000000+00:00</time></trkpt><trkpt lat="42.466827" lon="18.674509"><ele>5.7</ele><time>2012-05-02T10:00:15.0000000+00:00</time></trkpt><trkpt lat="42.466827" lon="18.674509"><ele>5.7</ele><time>2012-05-02T10:00:20.0000000+00:00</time></trkpt><trkpt lat="42.466827" lon="18.674509"><ele>5.7</ele><time>2012-05-02T10:00:25.0000000+00:00</time></trkpt><trkpt lat="42.466827" lon="18.674509"><ele>5.7</ele><time>2012-05-02T10:00:30.0000000+00:00</time></trkpt><trkpt lat="42.466827" lon="18.674509"><ele>5.7</ele><time>2012-05-02T10:00:35.0000000+00:00</time></trkpt><trkpt lat="42.466827" lon="18.674509"><ele>5.7</ele><time>2012-05-02T10:00:40.0000000+00:00</time></trkpt><trkpt lat="42.466827" lon="18.674507"><ele>5.7</ele><time>2012-05-02T10:00:45.0000000+00:00</time></trkpt><trkpt lat="42.466827" lon="18.674507"><ele>5.7</ele><time>2012-05-02T10:00:50.0000000+00:00</time></trkpt><trkpt lat="42.466827" lon="18.674507"><ele>5.7</ele><time>2012-05-02T10:00:55.0000000+00:00</time></trkpt><trkpt lat="42.466827" lon="18.674507"><ele>5.6</ele><time>2012-05-02T10:01:00.0000000+00:00</time></trkpt><trkpt lat="42.466827" lon="18.674507"><ele>5.6</ele><time>2012-05-02T10:01:05.0000000+00:00</time></trkpt><trkpt lat="42.466824" lon="18.674484"><ele>5.7</ele><time>2012-05-02T10:01:10.0000000+00:00</time></trkpt><trkpt lat="42.466824" lon="18.674461"><ele>6.3</ele><time>2012-05-02T10:01:15.0000000+00:00</time></trkpt><trkpt lat="42.466812" lon="18.674448"><ele>7.0</ele><time>2012-05-02T10:01:20.0000000+00:00</time></trkpt><trkpt lat="42.466816" lon="18.674448"><ele>7.5</ele><time>2012-05-02T10:01:25.0000000+00:00</time></trkpt><trkpt lat="42.466801" lon="18.674448"><ele>8.0</ele><time>2012-05-02T10:01:30.0000000+00:00</time></trkpt><trkpt lat="42.466805" lon="18.674427"><ele>8.1</ele><time>2012-05-02T10:01:35.0000000+00:00</time></trkpt><trkpt lat="42.466812" lon="18.674404"><ele>8.2</ele><time>2012-05-02T10:01:40.0000000+00:00</time></trkpt><trkpt lat="42.46682" lon="18.674398"><ele>8.2</ele><time>2012-05-02T10:01:45.0000000+00:00</time></trkpt><trkpt lat="42.46682" lon="18.674397"><ele>8.2</ele><time>2012-05-02T10:01:50.0000000+00:00</time></trkpt><trkpt lat="42.466816" lon="18.674395"><ele>8.2</ele><time>2012-05-02T10:01:55.0000000+00:00</time></trkpt><trkpt lat="42.466812" lon="18.674391"><ele>8.3</ele><time>2012-05-02T10:02:00.0000000+00:00</time></trkpt><trkpt lat="42.466808" lon="18.674383"><ele>8.3</ele><time>2012-05-02T10:02:05.0000000+00:00</time></trkpt><trkpt lat="42.466808" lon="18.674377"><ele>8.3</ele><time>2012-05-02T10:02:10.0000000+00:00</time></trkpt><trkpt lat="42.466812" lon="18.674368"><ele>8.3</ele><time>2012-05-02T10:02:15.0000000+00:00</time></trkpt><trkpt lat="42.466805" lon="18.674372"><ele>8.3</ele><time>2012-05-02T10:02:20.0000000+00:00</time></trkpt><trkpt lat="42.466805" lon="18.674366"><ele>8.3</ele><time>2012-05-02T10:02:25.0000000+00:00</time></trkpt><trkpt lat="42.466801" lon="18.674368"><ele>8.4</ele><time>2012-05-02T10:02:30.0000000+00:00</time></trkpt><trkpt lat="42.466805" lon="18.67437"><ele>8.4</ele><time>2012-05-02T10:02:35.0000000+00:00</time></trkpt><trkpt lat="42.466805" lon="18.67437"><ele>8.4</ele><time>2012-05-02T10:02:40.0000000+00:00</time></trkpt><trkpt lat="42.466805" lon="18.67437"><ele>8.4</ele><time>2012-05-02T10:02:45.0000000+00:00</time></trkpt><trkpt lat="42.466805" lon="18.67437"><ele>8.4</ele><time>2012-05-02T10:02:50.0000000+00:00</time></trkpt><trkpt lat="42.466805" lon="18.67437"><ele>8.4</ele><time>2012-05-02T10:02:55.0000000+00:00</time></trkpt><trkpt lat="42.466805" lon="18.674372"><ele>8.4</ele><time>2012-05-02T10:03:00.0000000+00:00</time></trkpt><trkpt lat="42.466805" lon="18.674372"><ele>8.4</ele><time>2012-05-02T10:03:05.0000000+00:00</time></trkpt><trkpt lat="42.466805" lon="18.674372"><ele>8.4</ele><time>2012-05-02T10:03:10.0000000+00:00</time></trkpt><trkpt lat="42.466805" lon="18.674372"><ele>8.4</ele><time>2012-05-02T10:03:15.0000000+00:00</time></trkpt><trkpt lat="42.466805" lon="18.674372"><ele>8.4</ele><time>2012-05-02T10:03:20.0000000+00:00</time></trkpt><trkpt lat="42.466805" lon="18.674372"><ele>8.4</ele><time>2012-05-02T10:03:25.0000000+00:00</time></trkpt><trkpt lat="42.466801" lon="18.674374"><ele>8.4</ele><time>2012-05-02T10:03:30.0000000+00:00</time></trkpt><trkpt lat="42.466801" lon="18.674374"><ele>8.4</ele><time>2012-05-02T10:03:35.0000000+00:00</time></trkpt><trkpt lat="42.466801" lon="18.674374"><ele>8.4</ele><time>2012-05-02T10:03:40.0000000+00:00</time></trkpt><trkpt lat="42.466801" lon="18.674374"><ele>8.4</ele><time>2012-05-02T10:03:45.0000000+00:00</time></trkpt><trkpt lat="42.466801" lon="18.674372"><ele>8.4</ele><time>2012-05-02T10:03:50.0000000+00:00</time></trkpt><trkpt lat="42.466805" lon="18.674372"><ele>8.5</ele><time>2012-05-02T10:03:55.0000000+00:00</time></trkpt><trkpt lat="42.466801" lon="18.67437"><ele>8.5</ele><time>2012-05-02T10:04:00.0000000+00:00</time></trkpt><trkpt lat="42.466801" lon="18.67437"><ele>8.5</ele><time>2012-05-02T10:04:05.0000000+00:00</time></trkpt><trkpt lat="42.466801" lon="18.674372"><ele>8.5</ele><time>2012-05-02T10:04:10.0000000+00:00</time></trkpt><trkpt lat="42.466801" lon="18.674372"><ele>8.5</ele><time>2012-05-02T10:04:15.0000000+00:00</time></trkpt><trkpt lat="42.466801" lon="18.67437"><ele>8.5</ele><time>2012-05-02T10:04:20.0000000+00:00</time></trkpt><trkpt lat="42.466801" lon="18.67437"><ele>8.6</ele><time>2012-05-02T10:04:25.0000000+00:00</time></trkpt><trkpt lat="42.466801" lon="18.67437"><ele>8.6</ele><time>2012-05-02T10:04:30.0000000+00:00</time></trkpt><trkpt lat="42.466801" lon="18.674368"><ele>8.6</ele><time>2012-05-02T10:04:35.0000000+00:00</time></trkpt><trkpt lat="42.466801" lon="18.674368"><ele>8.7</ele><time>2012-05-02T10:04:40.0000000+00:00</time></trkpt><trkpt lat="42.466801" lon="18.67437"><ele>8.7</ele><time>2012-05-02T10:04:45.0000000+00:00</time></trkpt><trkpt lat="42.466801" lon="18.67437"><ele>8.8</ele><time>2012-05-02T10:04:50.0000000+00:00</time></trkpt><trkpt lat="42.466801" lon="18.67437"><ele>8.8</ele><time>2012-05-02T10:04:55.0000000+00:00</time></trkpt><trkpt lat="42.466801" lon="18.67437"><ele>8.7</ele><time>2012-05-02T10:05:00.0000000+00:00</time></trkpt><trkpt lat="42.466801" lon="18.674368"><ele>8.8</ele><time>2012-05-02T10:05:05.0000000+00:00</time></trkpt><trkpt lat="42.466801" lon="18.674368"><ele>8.7</ele><time>2012-05-02T10:05:10.0000000+00:00</time></trkpt><trkpt lat="42.466801" lon="18.674368"><ele>8.7</ele><time>2012-05-02T10:05:15.0000000+00:00</time></trkpt><trkpt lat="42.466801" lon="18.674366"><ele>8.8</ele><time>2012-05-02T10:05:20.0000000+00:00</time></trkpt><trkpt lat="42.466915" lon="18.674461"><ele>9.3</ele><time>2012-05-02T10:05:25.0000000+00:00</time></trkpt><trkpt lat="42.467072" lon="18.674801"><ele>6.5</ele><time>2012-05-02T10:05:30.0000000+00:00</time></trkpt><trkpt lat="42.46727" lon="18.675182"><ele>5.6</ele><time>2012-05-02T10:05:35.0000000+00:00</time></trkpt><trkpt lat="42.467506" lon="18.675491"><ele>5.2</ele><time>2012-05-02T10:05:40.0000000+00:00</time></trkpt><trkpt lat="42.467762" lon="18.675571"><ele>3.0</ele><time>2012-05-02T10:05:45.0000000+00:00</time></trkpt><trkpt lat="42.46806" lon="18.675564"><ele>0.0</ele><time>2012-05-02T10:05:50.0000000+00:00</time></trkpt><trkpt lat="42.468403" lon="18.675611"><ele>-2.1</ele><time>2012-05-02T10:05:55.0000000+00:00</time></trkpt><trkpt lat="42.468693" lon="18.675821"><ele>-1.5</ele><time>2012-05-02T10:06:00.0000000+00:00</time></trkpt><trkpt lat="42.468872" lon="18.676107"><ele>-1.6</ele><time>2012-05-02T10:06:05.0000000+00:00</time></trkpt><trkpt lat="42.469013" lon="18.67646"><ele>-0.9</ele><time>2012-05-02T10:06:10.0000000+00:00</time></trkpt><trkpt lat="42.469158" lon="18.676775"><ele>-0.9</ele><time>2012-05-02T10:06:15.0000000+00:00</time></trkpt><trkpt lat="42.469345" lon="18.677036"><ele>-0.9</ele><time>2012-05-02T10:06:20.0000000+00:00</time></trkpt><trkpt lat="42.469639" lon="18.677292"><ele>-0.1</ele><time>2012-05-02T10:06:25.0000000+00:00</time></trkpt><trkpt lat="42.469929" lon="18.677486"><ele>0.0</ele><time>2012-05-02T10:06:30.0000000+00:00</time></trkpt><trkpt lat="42.470238" lon="18.677692"><ele>0.5</ele><time>2012-05-02T10:06:35.0000000+00:00</time></trkpt><trkpt lat="42.470509" lon="18.677933"><ele>1.0</ele><time>2012-05-02T10:06:40.0000000+00:00</time></trkpt><trkpt lat="42.470638" lon="18.678259"><ele>0.3</ele><time>2012-05-02T10:06:45.0000000+00:00</time></trkpt><trkpt lat="42.470726" lon="18.678677"><ele>-0.6</ele><time>2012-05-02T10:06:50.0000000+00:00</time></trkpt><trkpt lat="42.470825" lon="18.679083"><ele>-1.9</ele><time>2012-05-02T10:06:55.0000000+00:00</time></trkpt><trkpt lat="42.470924" lon="18.679485"><ele>-3.8</ele><time>2012-05-02T10:07:00.0000000+00:00</time></trkpt><trkpt lat="42.471035" lon="18.679924"><ele>-5.7</ele><time>2012-05-02T10:07:05.0000000+00:00</time></trkpt><trkpt lat="42.471237" lon="18.680344"><ele>-6.6</ele><time>2012-05-02T10:07:10.0000000+00:00</time></trkpt><trkpt lat="42.47155" lon="18.68058"><ele>-5.2</ele><time>2012-05-02T10:07:15.0000000+00:00</time></trkpt><trkpt lat="42.471958" lon="18.680658"><ele>-3.8</ele><time>2012-05-02T10:07:20.0000000+00:00</time></trkpt><trkpt lat="42.472389" lon="18.680618"><ele>-4.5</ele><time>2012-05-02T10:07:25.0000000+00:00</time></trkpt><trkpt lat="42.472778" lon="18.680567"><ele>-3.5</ele><time>2012-05-02T10:07:30.0000000+00:00</time></trkpt><trkpt lat="42.473148" lon="18.680721"><ele>-3.8</ele><time>2012-05-02T10:07:35.0000000+00:00</time></trkpt><trkpt lat="42.473499" lon="18.680895"><ele>-2.0</ele><time>2012-05-02T10:07:40.0000000+00:00</time></trkpt><trkpt lat="42.473801" lon="18.681137"><ele>1.8</ele><time>2012-05-02T10:07:45.0000000+00:00</time></trkpt><trkpt lat="42.474064" lon="18.681452"><ele>-0.1</ele><time>2012-05-02T10:07:50.0000000+00:00</time></trkpt><trkpt lat="42.474281" lon="18.681774"><ele>1.7</ele><time>2012-05-02T10:07:55.0000000+00:00</time></trkpt><trkpt lat="42.474514" lon="18.682117"><ele>1.9</ele><time>2012-05-02T10:08:00.0000000+00:00</time></trkpt><trkpt lat="42.474731" lon="18.682436"><ele>1.7</ele><time>2012-05-02T10:08:05.0000000+00:00</time></trkpt><trkpt lat="42.474983" lon="18.682732"><ele>3.2</ele><time>2012-05-02T10:08:10.0000000+00:00</time></trkpt><trkpt lat="42.475262" lon="18.683022"><ele>3.9</ele><time>2012-05-02T10:08:15.0000000+00:00</time></trkpt><trkpt lat="42.475502" lon="18.683245"><ele>4.1</ele><time>2012-05-02T10:08:20.0000000+00:00</time></trkpt><trkpt lat="42.475708" lon="18.683411"><ele>5.4</ele><time>2012-05-02T10:08:25.0000000+00:00</time></trkpt><trkpt lat="42.475941" lon="18.683638"><ele>6.4</ele><time>2012-05-02T10:08:30.0000000+00:00</time></trkpt><trkpt lat="42.476101" lon="18.683846"><ele>8.2</ele><time>2012-05-02T10:08:35.0000000+00:00</time></trkpt><trkpt lat="42.476349" lon="18.683964"><ele>8.0</ele><time>2012-05-02T10:08:40.0000000+00:00</time></trkpt><trkpt lat="42.476608" lon="18.683916"><ele>9.0</ele><time>2012-05-02T10:08:45.0000000+00:00</time></trkpt><trkpt lat="42.476864" lon="18.683886"><ele>9.0</ele><time>2012-05-02T10:08:50.0000000+00:00</time></trkpt><trkpt lat="42.477127" lon="18.68408"><ele>9.5</ele><time>2012-05-02T10:08:55.0000000+00:00</time></trkpt><trkpt lat="42.47736" lon="18.684366"><ele>8.8</ele><time>2012-05-02T10:09:00.0000000+00:00</time></trkpt><trkpt lat="42.477592" lon="18.684713"><ele>8.4</ele><time>2012-05-02T10:09:05.0000000+00:00</time></trkpt><trkpt lat="42.477753" lon="18.685095"><ele>8.2</ele><time>2012-05-02T10:09:10.0000000+00:00</time></trkpt><trkpt lat="42.477959" lon="18.685457"><ele>7.3</ele><time>2012-05-02T10:09:15.0000000+00:00</time></trkpt><trkpt lat="42.478241" lon="18.685715"><ele>6.1</ele><time>2012-05-02T10:09:20.0000000+00:00</time></trkpt><trkpt lat="42.478432" lon="18.68609"><ele>5.3</ele><time>2012-05-02T10:09:25.0000000+00:00</time></trkpt><trkpt lat="42.47863" lon="18.68642"><ele>6.4</ele><time>2012-05-02T10:09:30.0000000+00:00</time></trkpt><trkpt lat="42.478947" lon="18.686432"><ele>6.3</ele><time>2012-05-02T10:09:35.0000000+00:00</time></trkpt><trkpt lat="42.479225" lon="18.686138"><ele>6.1</ele><time>2012-05-02T10:09:40.0000000+00:00</time></trkpt><trkpt lat="42.479458" lon="18.685743"><ele>5.9</ele><time>2012-05-02T10:09:45.0000000+00:00</time></trkpt><trkpt lat="42.479675" lon="18.685335"><ele>5.7</ele><time>2012-05-02T10:09:50.0000000+00:00</time></trkpt><trkpt lat="42.479885" lon="18.684898"><ele>4.9</ele><time>2012-05-02T10:09:55.0000000+00:00</time></trkpt><trkpt lat="42.480068" lon="18.684526"><ele>4.2</ele><time>2012-05-02T10:10:00.0000000+00:00</time></trkpt><trkpt lat="42.480194" lon="18.684175"><ele>3.1</ele><time>2012-05-02T10:10:05.0000000+00:00</time></trkpt><trkpt lat="42.480373" lon="18.683817"><ele>2.7</ele><time>2012-05-02T10:10:10.0000000+00:00</time></trkpt><trkpt lat="42.480537" lon="18.683437"><ele>1.7</ele><time>2012-05-02T10:10:15.0000000+00:00</time></trkpt><trkpt lat="42.480701" lon="18.683077"><ele>1.0</ele><time>2012-05-02T10:10:20.0000000+00:00</time></trkpt><trkpt lat="42.480858" lon="18.682669"><ele>0.0</ele><time>2012-05-02T10:10:25.0000000+00:00</time></trkpt><trkpt lat="42.481026" lon="18.682226"><ele>-1.3</ele><time>2012-05-02T10:10:30.0000000+00:00</time></trkpt><trkpt lat="42.481194" lon="18.681831"><ele>-0.4</ele><time>2012-05-02T10:10:35.0000000+00:00</time></trkpt><trkpt lat="42.481342" lon="18.681425"><ele>-1.0</ele><time>2012-05-02T10:10:40.0000000+00:00</time></trkpt><trkpt lat="42.481472" lon="18.681019"><ele>-1.6</ele><time>2012-05-02T10:10:45.0000000+00:00</time></trkpt><trkpt lat="42.481613" lon="18.680656"><ele>-2.3</ele><time>2012-05-02T10:10:50.0000000+00:00</time></trkpt><trkpt lat="42.481747" lon="18.680271"><ele>-3.1</ele><time>2012-05-02T10:10:55.0000000+00:00</time></trkpt><trkpt lat="42.481899" lon="18.679884"><ele>-4.5</ele><time>2012-05-02T10:11:00.0000000+00:00</time></trkpt><trkpt lat="42.48204" lon="18.679533"><ele>-5.0</ele><time>2012-05-02T10:11:05.0000000+00:00</time></trkpt><trkpt lat="42.482193" lon="18.679186"><ele>-6.3</ele><time>2012-05-02T10:11:10.0000000+00:00</time></trkpt><trkpt lat="42.482372" lon="18.678808"><ele>-6.9</ele><time>2012-05-02T10:11:15.0000000+00:00</time></trkpt><trkpt lat="42.48254" lon="18.678442"><ele>-7.7</ele><time>2012-05-02T10:11:20.0000000+00:00</time></trkpt><trkpt lat="42.482681" lon="18.678089"><ele>-9.4</ele><time>2012-05-02T10:11:25.0000000+00:00</time></trkpt><trkpt lat="42.482838" lon="18.677696"><ele>-12.2</ele><time>2012-05-02T10:11:30.0000000+00:00</time></trkpt><trkpt lat="42.482952" lon="18.677305"><ele>-13.9</ele><time>2012-05-02T10:11:35.0000000+00:00</time></trkpt><trkpt lat="42.483055" lon="18.676956"><ele>-15.3</ele><time>2012-05-02T10:11:40.0000000+00:00</time></trkpt><trkpt lat="42.483162" lon="18.676582"><ele>-16.4</ele><time>2012-05-02T10:11:45.0000000+00:00</time></trkpt><trkpt lat="42.48328" lon="18.676186"><ele>-17.2</ele><time>2012-05-02T10:11:50.0000000+00:00</time></trkpt><trkpt lat="42.483429" lon="18.675827"><ele>-15.6</ele><time>2012-05-02T10:11:55.0000000+00:00</time></trkpt><trkpt lat="42.483608" lon="18.675447"><ele>-15.5</ele><time>2012-05-02T10:12:00.0000000+00:00</time></trkpt><trkpt lat="42.483845" lon="18.675037"><ele>-16.4</ele><time>2012-05-02T10:12:05.0000000+00:00</time></trkpt><trkpt lat="42.484097" lon="18.674603"><ele>-17.3</ele><time>2012-05-02T10:12:10.0000000+00:00</time></trkpt><trkpt lat="42.484287" lon="18.67417"><ele>-18.3</ele><time>2012-05-02T10:12:15.0000000+00:00</time></trkpt><trkpt lat="42.484444" lon="18.673714"><ele>-18.8</ele><time>2012-05-02T10:12:20.0000000+00:00</time></trkpt><trkpt lat="42.484528" lon="18.673231"><ele>-19.3</ele><time>2012-05-02T10:12:25.0000000+00:00</time></trkpt><trkpt lat="42.484566" lon="18.672754"><ele>-19.3</ele><time>2012-05-02T10:12:30.0000000+00:00</time></trkpt><trkpt lat="42.48457" lon="18.672285"><ele>-19.2</ele><time>2012-05-02T10:12:35.0000000+00:00</time></trkpt><trkpt lat="42.484566" lon="18.671854"><ele>-18.7</ele><time>2012-05-02T10:12:40.0000000+00:00</time></trkpt><trkpt lat="42.484627" lon="18.671389"><ele>-17.8</ele><time>2012-05-02T10:12:45.0000000+00:00</time></trkpt><trkpt lat="42.484703" lon="18.670954"><ele>-17.8</ele><time>2012-05-02T10:12:50.0000000+00:00</time></trkpt><trkpt lat="42.484837" lon="18.670626"><ele>-13.7</ele><time>2012-05-02T10:12:55.0000000+00:00</time></trkpt><trkpt lat="42.484989" lon="18.67025"><ele>-13.2</ele><time>2012-05-02T10:13:00.0000000+00:00</time></trkpt><trkpt lat="42.485134" lon="18.669888"><ele>-12.1</ele><time>2012-05-02T10:13:05.0000000+00:00</time></trkpt><trkpt lat="42.485264" lon="18.669514"><ele>-11.0</ele><time>2012-05-02T10:13:10.0000000+00:00</time></trkpt><trkpt lat="42.485413" lon="18.669102"><ele>-10.1</ele><time>2012-05-02T10:13:15.0000000+00:00</time></trkpt><trkpt lat="42.48558" lon="18.66873"><ele>-9.7</ele><time>2012-05-02T10:13:20.0000000+00:00</time></trkpt><trkpt lat="42.48576" lon="18.668409"><ele>-9.3</ele><time>2012-05-02T10:13:25.0000000+00:00</time></trkpt><trkpt lat="42.485977" lon="18.668066"><ele>-10.0</ele><time>2012-05-02T10:13:30.0000000+00:00</time></trkpt><trkpt lat="42.486168" lon="18.667698"><ele>-10.1</ele><time>2012-05-02T10:13:35.0000000+00:00</time></trkpt><trkpt lat="42.486298" lon="18.667336"><ele>-10.4</ele><time>2012-05-02T10:13:40.0000000+00:00</time></trkpt><trkpt lat="42.486374" lon="18.666903"><ele>-10.0</ele><time>2012-05-02T10:13:45.0000000+00:00</time></trkpt><trkpt lat="42.486401" lon="18.666409"><ele>-10.7</ele><time>2012-05-02T10:13:50.0000000+00:00</time></trkpt><trkpt lat="42.486332" lon="18.665989"><ele>-10.2</ele><time>2012-05-02T10:13:55.0000000+00:00</time></trkpt><trkpt lat="42.486286" lon="18.665585"><ele>-9.4</ele><time>2012-05-02T10:14:00.0000000+00:00</time></trkpt><trkpt lat="42.486332" lon="18.665171"><ele>-8.7</ele><time>2012-05-02T10:14:05.0000000+00:00</time></trkpt><trkpt lat="42.486465" lon="18.664728"><ele>-8.2</ele><time>2012-05-02T10:14:10.0000000+00:00</time></trkpt><trkpt lat="42.486641" lon="18.66431"><ele>-8.1</ele><time>2012-05-02T10:14:15.0000000+00:00</time></trkpt><trkpt lat="42.486732" lon="18.663921"><ele>-7.6</ele><time>2012-05-02T10:14:20.0000000+00:00</time></trkpt><trkpt lat="42.486786" lon="18.663477"><ele>-7.3</ele><time>2012-05-02T10:14:25.0000000+00:00</time></trkpt><trkpt lat="42.486858" lon="18.663063"><ele>-7.5</ele><time>2012-05-02T10:14:30.0000000+00:00</time></trkpt><trkpt lat="42.486946" lon="18.662687"><ele>-8.1</ele><time>2012-05-02T10:14:35.0000000+00:00</time></trkpt><trkpt lat="42.487041" lon="18.662277"><ele>-11.1</ele><time>2012-05-02T10:14:40.0000000+00:00</time></trkpt><trkpt lat="42.487133" lon="18.6619"><ele>-12.4</ele><time>2012-05-02T10:14:45.0000000+00:00</time></trkpt><trkpt lat="42.487186" lon="18.661505"><ele>-13.6</ele><time>2012-05-02T10:14:50.0000000+00:00</time></trkpt><trkpt lat="42.487175" lon="18.661068"><ele>-14.3</ele><time>2012-05-02T10:14:55.0000000+00:00</time></trkpt><trkpt lat="42.487068" lon="18.660645"><ele>-13.6</ele><time>2012-05-02T10:15:00.0000000+00:00</time></trkpt><trkpt lat="42.486961" lon="18.660273"><ele>-12.4</ele><time>2012-05-02T10:15:05.0000000+00:00</time></trkpt><trkpt lat="42.486847" lon="18.659943"><ele>-11.7</ele><time>2012-05-02T10:15:10.0000000+00:00</time></trkpt><trkpt lat="42.486805" lon="18.659601"><ele>-10.8</ele><time>2012-05-02T10:15:15.0000000+00:00</time></trkpt><trkpt lat="42.486851" lon="18.659256"><ele>-9.7</ele><time>2012-05-02T10:15:20.0000000+00:00</time></trkpt><trkpt lat="42.48695" lon="18.658831"><ele>-8.6</ele><time>2012-05-02T10:15:25.0000000+00:00</time></trkpt><trkpt lat="42.487061" lon="18.658367"><ele>-7.5</ele><time>2012-05-02T10:15:30.0000000+00:00</time></trkpt><trkpt lat="42.487103" lon="18.657936"><ele>-5.9</ele><time>2012-05-02T10:15:35.0000000+00:00</time></trkpt><trkpt lat="42.487068" lon="18.65756"><ele>-4.5</ele><time>2012-05-02T10:15:40.0000000+00:00</time></trkpt><trkpt lat="42.487" lon="18.657206"><ele>-2.6</ele><time>2012-05-02T10:15:45.0000000+00:00</time></trkpt><trkpt lat="42.486935" lon="18.656776"><ele>-0.8</ele><time>2012-05-02T10:15:50.0000000+00:00</time></trkpt><trkpt lat="42.486946" lon="18.656343"><ele>1.0</ele><time>2012-05-02T10:15:55.0000000+00:00</time></trkpt><trkpt lat="42.486988" lon="18.655874"><ele>2.6</ele><time>2012-05-02T10:16:00.0000000+00:00</time></trkpt><trkpt lat="42.487026" lon="18.655457"><ele>4.0</ele><time>2012-05-02T10:16:05.0000000+00:00</time></trkpt><trkpt lat="42.48708" lon="18.654999"><ele>4.8</ele><time>2012-05-02T10:16:10.0000000+00:00</time></trkpt><trkpt lat="42.487118" lon="18.654528"><ele>6.0</ele><time>2012-05-02T10:16:15.0000000+00:00</time></trkpt><trkpt lat="42.48716" lon="18.6541"><ele>7.1</ele><time>2012-05-02T10:16:20.0000000+00:00</time></trkpt><trkpt lat="42.487179" lon="18.653711"><ele>9.1</ele><time>2012-05-02T10:16:25.0000000+00:00</time></trkpt><trkpt lat="42.487186" lon="18.653334"><ele>10.3</ele><time>2012-05-02T10:16:30.0000000+00:00</time></trkpt><trkpt lat="42.487183" lon="18.652927"><ele>11.7</ele><time>2012-05-02T10:16:35.0000000+00:00</time></trkpt><trkpt lat="42.487125" lon="18.652517"><ele>12.3</ele><time>2012-05-02T10:16:40.0000000+00:00</time></trkpt><trkpt lat="42.487068" lon="18.652086"><ele>12.8</ele><time>2012-05-02T10:16:45.0000000+00:00</time></trkpt><trkpt lat="42.487183" lon="18.651737"><ele>11.5</ele><time>2012-05-02T10:16:50.0000000+00:00</time></trkpt><trkpt lat="42.4874" lon="18.651487"><ele>10.5</ele><time>2012-05-02T10:16:55.0000000+00:00</time></trkpt><trkpt lat="42.48769" lon="18.651224"><ele>9.8</ele><time>2012-05-02T10:17:00.0000000+00:00</time></trkpt><trkpt lat="42.48801" lon="18.650951"><ele>10.5</ele><time>2012-05-02T10:17:05.0000000+00:00</time></trkpt><trkpt lat="42.488285" lon="18.650669"><ele>10.6</ele><time>2012-05-02T10:17:10.0000000+00:00</time></trkpt><trkpt lat="42.488575" lon="18.650351"><ele>10.7</ele><time>2012-05-02T10:17:15.0000000+00:00</time></trkpt><trkpt lat="42.488792" lon="18.650043"><ele>11.3</ele><time>2012-05-02T10:17:20.0000000+00:00</time></trkpt><trkpt lat="42.488979" lon="18.649675"><ele>11.3</ele><time>2012-05-02T10:17:25.0000000+00:00</time></trkpt><trkpt lat="42.489174" lon="18.649342"><ele>8.8</ele><time>2012-05-02T10:17:30.0000000+00:00</time></trkpt><trkpt lat="42.4893" lon="18.649097"><ele>6.6</ele><time>2012-05-02T10:17:35.0000000+00:00</time></trkpt><trkpt lat="42.48954" lon="18.648987"><ele>5.6</ele><time>2012-05-02T10:17:40.0000000+00:00</time></trkpt><trkpt lat="42.489815" lon="18.649061"><ele>5.0</ele><time>2012-05-02T10:17:45.0000000+00:00</time></trkpt><trkpt lat="42.490017" lon="18.64933"><ele>1.6</ele><time>2012-05-02T10:17:50.0000000+00:00</time></trkpt><trkpt lat="42.490166" lon="18.649601"><ele>-1.7</ele><time>2012-05-02T10:17:55.0000000+00:00</time></trkpt><trkpt lat="42.490303" lon="18.649805"><ele>-3.5</ele><time>2012-05-02T10:18:00.0000000+00:00</time></trkpt><trkpt lat="42.490417" lon="18.649994"><ele>-4.4</ele><time>2012-05-02T10:18:05.0000000+00:00</time></trkpt><trkpt lat="42.490612" lon="18.650171"><ele>-3.2</ele><time>2012-05-02T10:18:10.0000000+00:00</time></trkpt><trkpt lat="42.490833" lon="18.650312"><ele>-1.7</ele><time>2012-05-02T10:18:15.0000000+00:00</time></trkpt><trkpt lat="42.491016" lon="18.650412"><ele>0.2</ele><time>2012-05-02T10:18:20.0000000+00:00</time></trkpt><trkpt lat="42.491066" lon="18.65045"><ele>0.1</ele><time>2012-05-02T10:18:25.0000000+00:00</time></trkpt><trkpt lat="42.491047" lon="18.650469"><ele>0.9</ele><time>2012-05-02T10:18:30.0000000+00:00</time></trkpt><trkpt lat="42.491039" lon="18.650471"><ele>1.2</ele><time>2012-05-02T10:18:35.0000000+00:00</time></trkpt><trkpt lat="42.491039" lon="18.650471"><ele>1.2</ele><time>2012-05-02T10:18:40.0000000+00:00</time></trkpt><trkpt lat="42.491035" lon="18.65049"><ele>1.0</ele><time>2012-05-02T10:18:45.0000000+00:00</time></trkpt><trkpt lat="42.491043" lon="18.650492"><ele>0.8</ele><time>2012-05-02T10:18:50.0000000+00:00</time></trkpt><trkpt lat="42.491051" lon="18.650492"><ele>0.6</ele><time>2012-05-02T10:18:55.0000000+00:00</time></trkpt><trkpt lat="42.491055" lon="18.650494"><ele>0.4</ele><time>2012-05-02T10:19:00.0000000+00:00</time></trkpt><trkpt lat="42.491062" lon="18.650496"><ele>0.3</ele><time>2012-05-02T10:19:05.0000000+00:00</time></trkpt><trkpt lat="42.491066" lon="18.650496"><ele>0.2</ele><time>2012-05-02T10:19:10.0000000+00:00</time></trkpt><trkpt lat="42.491066" lon="18.650496"><ele>0.2</ele><time>2012-05-02T10:19:15.0000000+00:00</time></trkpt><trkpt lat="42.491066" lon="18.650494"><ele>0.2</ele><time>2012-05-02T10:19:20.0000000+00:00</time></trkpt><trkpt lat="42.491066" lon="18.650494"><ele>0.1</ele><time>2012-05-02T10:19:25.0000000+00:00</time></trkpt><trkpt lat="42.49107" lon="18.650496"><ele>0.1</ele><time>2012-05-02T10:19:30.0000000+00:00</time></trkpt><trkpt lat="42.491074" lon="18.65049"><ele>0.1</ele><time>2012-05-02T10:19:35.0000000+00:00</time></trkpt><trkpt lat="42.491085" lon="18.650492"><ele>0.1</ele><time>2012-05-02T10:19:40.0000000+00:00</time></trkpt><trkpt lat="42.491089" lon="18.650492"><ele>0.2</ele><time>2012-05-02T10:19:45.0000000+00:00</time></trkpt><trkpt lat="42.491093" lon="18.650492"><ele>0.2</ele><time>2012-05-02T10:19:50.0000000+00:00</time></trkpt><trkpt lat="42.491096" lon="18.650492"><ele>0.2</ele><time>2012-05-02T10:19:55.0000000+00:00</time></trkpt><trkpt lat="42.4911" lon="18.650496"><ele>0.2</ele><time>2012-05-02T10:20:00.0000000+00:00</time></trkpt><trkpt lat="42.4911" lon="18.650496"><ele>0.2</ele><time>2012-05-02T10:20:05.0000000+00:00</time></trkpt><trkpt lat="42.4911" lon="18.650494"><ele>0.1</ele><time>2012-05-02T10:20:10.0000000+00:00</time></trkpt><trkpt lat="42.491104" lon="18.650494"><ele>0.1</ele><time>2012-05-02T10:20:15.0000000+00:00</time></trkpt><trkpt lat="42.491104" lon="18.650494"><ele>0.1</ele><time>2012-05-02T10:20:20.0000000+00:00</time></trkpt><trkpt lat="42.4911" lon="18.65049"><ele>0.1</ele><time>2012-05-02T10:20:25.0000000+00:00</time></trkpt><trkpt lat="42.4911" lon="18.650486"><ele>0.2</ele><time>2012-05-02T10:20:30.0000000+00:00</time></trkpt><trkpt lat="42.4911" lon="18.65049"><ele>0.3</ele><time>2012-05-02T10:20:35.0000000+00:00</time></trkpt><trkpt lat="42.491116" lon="18.650488"><ele>0.4</ele><time>2012-05-02T10:20:40.0000000+00:00</time></trkpt><trkpt lat="42.491135" lon="18.650486"><ele>0.6</ele><time>2012-05-02T10:20:45.0000000+00:00</time></trkpt><trkpt lat="42.49115" lon="18.650484"><ele>0.7</ele><time>2012-05-02T10:20:50.0000000+00:00</time></trkpt><trkpt lat="42.491161" lon="18.65049"><ele>0.7</ele><time>2012-05-02T10:20:55.0000000+00:00</time></trkpt><trkpt lat="42.491173" lon="18.650496"><ele>0.8</ele><time>2012-05-02T10:21:00.0000000+00:00</time></trkpt><trkpt lat="42.491184" lon="18.650499"><ele>0.8</ele><time>2012-05-02T10:21:05.0000000+00:00</time></trkpt><trkpt lat="42.491192" lon="18.650503"><ele>0.9</ele><time>2012-05-02T10:21:10.0000000+00:00</time></trkpt><trkpt lat="42.491199" lon="18.650507"><ele>0.9</ele><time>2012-05-02T10:21:15.0000000+00:00</time></trkpt><trkpt lat="42.491203" lon="18.650507"><ele>0.9</ele><time>2012-05-02T10:21:20.0000000+00:00</time></trkpt><trkpt lat="42.491203" lon="18.650507"><ele>0.9</ele><time>2012-05-02T10:21:25.0000000+00:00</time></trkpt><trkpt lat="42.491203" lon="18.650507"><ele>0.9</ele><time>2012-05-02T10:21:30.0000000+00:00</time></trkpt><trkpt lat="42.491199" lon="18.650507"><ele>0.9</ele><time>2012-05-02T10:21:35.0000000+00:00</time></trkpt><trkpt lat="42.491199" lon="18.650505"><ele>0.9</ele><time>2012-05-02T10:21:40.0000000+00:00</time></trkpt><trkpt lat="42.491199" lon="18.650505"><ele>0.9</ele><time>2012-05-02T10:21:45.0000000+00:00</time></trkpt><trkpt lat="42.491199" lon="18.650505"><ele>0.9</ele><time>2012-05-02T10:21:50.0000000+00:00</time></trkpt><trkpt lat="42.491199" lon="18.650505"><ele>0.9</ele><time>2012-05-02T10:21:55.0000000+00:00</time></trkpt><trkpt lat="42.491199" lon="18.650505"><ele>0.9</ele><time>2012-05-02T10:22:00.0000000+00:00</time></trkpt><trkpt lat="42.491199" lon="18.650503"><ele>0.9</ele><time>2012-05-02T10:22:05.0000000+00:00</time></trkpt><trkpt lat="42.491199" lon="18.650503"><ele>0.8</ele><time>2012-05-02T10:22:10.0000000+00:00</time></trkpt><trkpt lat="42.491199" lon="18.650503"><ele>0.8</ele><time>2012-05-02T10:22:15.0000000+00:00</time></trkpt><trkpt lat="42.491199" lon="18.650503"><ele>0.8</ele><time>2012-05-02T10:22:20.0000000+00:00</time></trkpt><trkpt lat="42.491199" lon="18.650501"><ele>0.8</ele><time>2012-05-02T10:22:25.0000000+00:00</time></trkpt><trkpt lat="42.491199" lon="18.650501"><ele>0.8</ele><time>2012-05-02T10:22:30.0000000+00:00</time></trkpt><trkpt lat="42.491199" lon="18.650501"><ele>0.7</ele><time>2012-05-02T10:22:35.0000000+00:00</time></trkpt><trkpt lat="42.491199" lon="18.650501"><ele>0.7</ele><time>2012-05-02T10:22:40.0000000+00:00</time></trkpt><trkpt lat="42.491199" lon="18.650499"><ele>0.7</ele><time>2012-05-02T10:22:45.0000000+00:00</time></trkpt><trkpt lat="42.491199" lon="18.650499"><ele>0.7</ele><time>2012-05-02T10:22:50.0000000+00:00</time></trkpt><trkpt lat="42.491199" lon="18.650499"><ele>0.7</ele><time>2012-05-02T10:22:55.0000000+00:00</time></trkpt><trkpt lat="42.491199" lon="18.650499"><ele>0.7</ele><time>2012-05-02T10:23:00.0000000+00:00</time></trkpt><trkpt lat="42.491199" lon="18.650499"><ele>0.7</ele><time>2012-05-02T10:23:05.0000000+00:00</time></trkpt><trkpt lat="42.491199" lon="18.650499"><ele>0.7</ele><time>2012-05-02T10:23:10.0000000+00:00</time></trkpt><trkpt lat="42.491199" lon="18.650499"><ele>0.7</ele><time>2012-05-02T10:23:15.0000000+00:00</time></trkpt><trkpt lat="42.491199" lon="18.650497"><ele>0.7</ele><time>2012-05-02T10:23:20.0000000+00:00</time></trkpt><trkpt lat="42.491199" lon="18.650497"><ele>0.6</ele><time>2012-05-02T10:23:25.0000000+00:00</time></trkpt><trkpt lat="42.491199" lon="18.650497"><ele>0.6</ele><time>2012-05-02T10:23:30.0000000+00:00</time></trkpt><trkpt lat="42.491199" lon="18.650496"><ele>0.6</ele><time>2012-05-02T10:23:35.0000000+00:00</time></trkpt><trkpt lat="42.491199" lon="18.650496"><ele>0.5</ele><time>2012-05-02T10:23:40.0000000+00:00</time></trkpt><trkpt lat="42.491196" lon="18.650496"><ele>0.5</ele><time>2012-05-02T10:23:45.0000000+00:00</time></trkpt><trkpt lat="42.491196" lon="18.650496"><ele>0.5</ele><time>2012-05-02T10:23:50.0000000+00:00</time></trkpt><trkpt lat="42.491196" lon="18.650496"><ele>0.5</ele><time>2012-05-02T10:23:55.0000000+00:00</time></trkpt><trkpt lat="42.491196" lon="18.650496"><ele>0.4</ele><time>2012-05-02T10:24:00.0000000+00:00</time></trkpt><trkpt lat="42.491196" lon="18.650496"><ele>0.4</ele><time>2012-05-02T10:24:05.0000000+00:00</time></trkpt><trkpt lat="42.491196" lon="18.650494"><ele>0.4</ele><time>2012-05-02T10:24:10.0000000+00:00</time></trkpt><trkpt lat="42.491196" lon="18.650494"><ele>0.4</ele><time>2012-05-02T10:24:15.0000000+00:00</time></trkpt><trkpt lat="42.491196" lon="18.650494"><ele>0.3</ele><time>2012-05-02T10:24:20.0000000+00:00</time></trkpt><trkpt lat="42.491196" lon="18.650492"><ele>0.3</ele><time>2012-05-02T10:24:25.0000000+00:00</time></trkpt><trkpt lat="42.491196" lon="18.650492"><ele>0.2</ele><time>2012-05-02T10:24:30.0000000+00:00</time></trkpt><trkpt lat="42.491196" lon="18.650492"><ele>0.2</ele><time>2012-05-02T10:24:35.0000000+00:00</time></trkpt><trkpt lat="42.491192" lon="18.650492"><ele>0.2</ele><time>2012-05-02T10:24:40.0000000+00:00</time></trkpt><trkpt lat="42.491192" lon="18.650492"><ele>0.2</ele><time>2012-05-02T10:24:45.0000000+00:00</time></trkpt><trkpt lat="42.491192" lon="18.650492"><ele>0.2</ele><time>2012-05-02T10:24:50.0000000+00:00</time></trkpt><trkpt lat="42.491192" lon="18.650492"><ele>0.2</ele><time>2012-05-02T10:24:55.0000000+00:00</time></trkpt><trkpt lat="42.491192" lon="18.650492"><ele>0.2</ele><time>2012-05-02T10:25:00.0000000+00:00</time></trkpt><trkpt lat="42.491192" lon="18.650492"><ele>0.2</ele><time>2012-05-02T10:25:05.0000000+00:00</time></trkpt><trkpt lat="42.491192" lon="18.65049"><ele>0.2</ele><time>2012-05-02T10:25:10.0000000+00:00</time></trkpt><trkpt lat="42.491192" lon="18.650492"><ele>0.2</ele><time>2012-05-02T10:25:15.0000000+00:00</time></trkpt><trkpt lat="42.491192" lon="18.65049"><ele>0.2</ele><time>2012-05-02T10:25:20.0000000+00:00</time></trkpt><trkpt lat="42.491192" lon="18.65049"><ele>0.2</ele><time>2012-05-02T10:25:25.0000000+00:00</time></trkpt><trkpt lat="42.491192" lon="18.65049"><ele>0.2</ele><time>2012-05-02T10:25:30.0000000+00:00</time></trkpt><trkpt lat="42.491192" lon="18.65049"><ele>0.2</ele><time>2012-05-02T10:25:35.0000000+00:00</time></trkpt><trkpt lat="42.491192" lon="18.65049"><ele>0.1</ele><time>2012-05-02T10:25:40.0000000+00:00</time></trkpt><trkpt lat="42.491192" lon="18.650488"><ele>0.1</ele><time>2012-05-02T10:25:45.0000000+00:00</time></trkpt><trkpt lat="42.491188" lon="18.650488"><ele>0.1</ele><time>2012-05-02T10:25:50.0000000+00:00</time></trkpt><trkpt lat="42.491188" lon="18.650488"><ele>0.1</ele><time>2012-05-02T10:25:55.0000000+00:00</time></trkpt><trkpt lat="42.491188" lon="18.650488"><ele>0.1</ele><time>2012-05-02T10:26:00.0000000+00:00</time></trkpt><trkpt lat="42.491188" lon="18.650488"><ele>0.1</ele><time>2012-05-02T10:26:05.0000000+00:00</time></trkpt><trkpt lat="42.491188" lon="18.650488"><ele>0.1</ele><time>2012-05-02T10:26:10.0000000+00:00</time></trkpt><trkpt lat="42.491188" lon="18.650488"><ele>0.1</ele><time>2012-05-02T10:26:15.0000000+00:00</time></trkpt><trkpt lat="42.491188" lon="18.650488"><ele>0.0</ele><time>2012-05-02T10:26:20.0000000+00:00</time></trkpt><trkpt lat="42.491188" lon="18.650488"><ele>0.0</ele><time>2012-05-02T10:26:25.0000000+00:00</time></trkpt><trkpt lat="42.491188" lon="18.650488"><ele>0.0</ele><time>2012-05-02T10:26:30.0000000+00:00</time></trkpt><trkpt lat="42.491188" lon="18.650488"><ele>0.0</ele><time>2012-05-02T10:26:35.0000000+00:00</time></trkpt><trkpt lat="42.491188" lon="18.650488"><ele>-0.0</ele><time>2012-05-02T10:26:40.0000000+00:00</time></trkpt><trkpt lat="42.491188" lon="18.650488"><ele>-0.0</ele><time>2012-05-02T10:26:45.0000000+00:00</time></trkpt><trkpt lat="42.491188" lon="18.650488"><ele>-0.0</ele><time>2012-05-02T10:26:50.0000000+00:00</time></trkpt><trkpt lat="42.491188" lon="18.650488"><ele>-0.0</ele><time>2012-05-02T10:26:55.0000000+00:00</time></trkpt><trkpt lat="42.491188" lon="18.650488"><ele>-0.0</ele><time>2012-05-02T10:27:00.0000000+00:00</time></trkpt><trkpt lat="42.491184" lon="18.650488"><ele>-0.0</ele><time>2012-05-02T10:27:05.0000000+00:00</time></trkpt><trkpt lat="42.491184" lon="18.650488"><ele>-0.0</ele><time>2012-05-02T10:27:10.0000000+00:00</time></trkpt><trkpt lat="42.491184" lon="18.650486"><ele>-0.0</ele><time>2012-05-02T10:27:15.0000000+00:00</time></trkpt><trkpt lat="42.491184" lon="18.650486"><ele>-0.1</ele><time>2012-05-02T10:27:20.0000000+00:00</time></trkpt><trkpt lat="42.491184" lon="18.650488"><ele>-0.0</ele><time>2012-05-02T10:27:25.0000000+00:00</time></trkpt><trkpt lat="42.491184" lon="18.650488"><ele>-0.0</ele><time>2012-05-02T10:27:30.0000000+00:00</time></trkpt><trkpt lat="42.491184" lon="18.650488"><ele>-0.0</ele><time>2012-05-02T10:27:35.0000000+00:00</time></trkpt><trkpt lat="42.491184" lon="18.650488"><ele>0.0</ele><time>2012-05-02T10:27:40.0000000+00:00</time></trkpt><trkpt lat="42.491184" lon="18.650488"><ele>0.0</ele><time>2012-05-02T10:27:45.0000000+00:00</time></trkpt><trkpt lat="42.491184" lon="18.650488"><ele>0.0</ele><time>2012-05-02T10:27:50.0000000+00:00</time></trkpt><trkpt lat="42.491184" lon="18.650488"><ele>0.0</ele><time>2012-05-02T10:27:55.0000000+00:00</time></trkpt><trkpt lat="42.491184" lon="18.650488"><ele>0.0</ele><time>2012-05-02T10:28:00.0000000+00:00</time></trkpt><trkpt lat="42.491184" lon="18.650488"><ele>0.1</ele><time>2012-05-02T10:28:05.0000000+00:00</time></trkpt><trkpt lat="42.49118" lon="18.650488"><ele>0.1</ele><time>2012-05-02T10:28:10.0000000+00:00</time></trkpt><trkpt lat="42.49118" lon="18.650486"><ele>0.0</ele><time>2012-05-02T10:28:15.0000000+00:00</time></trkpt><trkpt lat="42.49118" lon="18.650486"><ele>-0.0</ele><time>2012-05-02T10:28:20.0000000+00:00</time></trkpt><trkpt lat="42.49118" lon="18.650486"><ele>-0.1</ele><time>2012-05-02T10:28:25.0000000+00:00</time></trkpt><trkpt lat="42.49118" lon="18.650486"><ele>-0.1</ele><time>2012-05-02T10:28:30.0000000+00:00</time></trkpt><trkpt lat="42.491177" lon="18.650486"><ele>-0.1</ele><time>2012-05-02T10:28:35.0000000+00:00</time></trkpt><trkpt lat="42.491177" lon="18.650486"><ele>-0.1</ele><time>2012-05-02T10:28:40.0000000+00:00</time></trkpt><trkpt lat="42.491177" lon="18.650486"><ele>-0.2</ele><time>2012-05-02T10:28:45.0000000+00:00</time></trkpt><trkpt lat="42.491177" lon="18.650486"><ele>-0.2</ele><time>2012-05-02T10:28:50.0000000+00:00</time></trkpt><trkpt lat="42.491177" lon="18.650486"><ele>-0.2</ele><time>2012-05-02T10:28:55.0000000+00:00</time></trkpt><trkpt lat="42.491177" lon="18.650486"><ele>-0.2</ele><time>2012-05-02T10:29:00.0000000+00:00</time></trkpt><trkpt lat="42.491177" lon="18.650486"><ele>-0.2</ele><time>2012-05-02T10:29:05.0000000+00:00</time></trkpt><trkpt lat="42.491177" lon="18.650486"><ele>-0.3</ele><time>2012-05-02T10:29:10.0000000+00:00</time></trkpt><trkpt lat="42.491177" lon="18.650486"><ele>-0.3</ele><time>2012-05-02T10:29:15.0000000+00:00</time></trkpt><trkpt lat="42.491177" lon="18.650486"><ele>-0.3</ele><time>2012-05-02T10:29:20.0000000+00:00</time></trkpt><trkpt lat="42.491177" lon="18.650486"><ele>-0.3</ele><time>2012-05-02T10:29:25.0000000+00:00</time></trkpt><trkpt lat="42.491177" lon="18.650486"><ele>-0.3</ele><time>2012-05-02T10:29:30.0000000+00:00</time></trkpt><trkpt lat="42.491177" lon="18.650486"><ele>-0.4</ele><time>2012-05-02T10:29:35.0000000+00:00</time></trkpt><trkpt lat="42.491177" lon="18.650484"><ele>-0.4</ele><time>2012-05-02T10:29:40.0000000+00:00</time></trkpt><trkpt lat="42.491177" lon="18.650484"><ele>-0.4</ele><time>2012-05-02T10:29:45.0000000+00:00</time></trkpt><trkpt lat="42.491177" lon="18.650484"><ele>-0.4</ele><time>2012-05-02T10:29:50.0000000+00:00</time></trkpt><trkpt lat="42.491173" lon="18.650484"><ele>-0.4</ele><time>2012-05-02T10:29:55.0000000+00:00</time></trkpt><trkpt lat="42.491173" lon="18.650484"><ele>-0.4</ele><time>2012-05-02T10:30:00.0000000+00:00</time></trkpt><trkpt lat="42.491173" lon="18.650484"><ele>-0.4</ele><time>2012-05-02T10:30:05.0000000+00:00</time></trkpt><trkpt lat="42.491173" lon="18.650484"><ele>-0.4</ele><time>2012-05-02T10:30:10.0000000+00:00</time></trkpt><trkpt lat="42.491173" lon="18.650484"><ele>-0.4</ele><time>2012-05-02T10:30:15.0000000+00:00</time></trkpt><trkpt lat="42.491173" lon="18.650484"><ele>-0.4</ele><time>2012-05-02T10:30:20.0000000+00:00</time></trkpt><trkpt lat="42.491173" lon="18.650484"><ele>-0.4</ele><time>2012-05-02T10:30:25.0000000+00:00</time></trkpt><trkpt lat="42.491173" lon="18.650482"><ele>-0.4</ele><time>2012-05-02T10:30:30.0000000+00:00</time></trkpt><trkpt lat="42.491169" lon="18.650482"><ele>-0.4</ele><time>2012-05-02T10:30:35.0000000+00:00</time></trkpt><trkpt lat="42.491169" lon="18.650482"><ele>-0.4</ele><time>2012-05-02T10:30:40.0000000+00:00</time></trkpt><trkpt lat="42.491169" lon="18.650482"><ele>-0.4</ele><time>2012-05-02T10:30:45.0000000+00:00</time></trkpt><trkpt lat="42.491169" lon="18.650482"><ele>-0.4</ele><time>2012-05-02T10:30:50.0000000+00:00</time></trkpt><trkpt lat="42.491169" lon="18.650482"><ele>-0.3</ele><time>2012-05-02T10:30:55.0000000+00:00</time></trkpt><trkpt lat="42.491169" lon="18.650482"><ele>-0.3</ele><time>2012-05-02T10:31:00.0000000+00:00</time></trkpt><trkpt lat="42.491169" lon="18.650482"><ele>-0.3</ele><time>2012-05-02T10:31:05.0000000+00:00</time></trkpt><trkpt lat="42.491169" lon="18.650482"><ele>-0.3</ele><time>2012-05-02T10:31:10.0000000+00:00</time></trkpt><trkpt lat="42.491169" lon="18.65048"><ele>-0.3</ele><time>2012-05-02T10:31:15.0000000+00:00</time></trkpt><trkpt lat="42.491169" lon="18.65048"><ele>-0.3</ele><time>2012-05-02T10:31:20.0000000+00:00</time></trkpt><trkpt lat="42.491165" lon="18.65048"><ele>-0.3</ele><time>2012-05-02T10:31:25.0000000+00:00</time></trkpt><trkpt lat="42.491165" lon="18.650478"><ele>-0.3</ele><time>2012-05-02T10:31:30.0000000+00:00</time></trkpt><trkpt lat="42.491165" lon="18.650478"><ele>-0.3</ele><time>2012-05-02T10:31:35.0000000+00:00</time></trkpt><trkpt lat="42.491165" lon="18.650478"><ele>-0.3</ele><time>2012-05-02T10:31:40.0000000+00:00</time></trkpt><trkpt lat="42.491165" lon="18.650478"><ele>-0.3</ele><time>2012-05-02T10:31:45.0000000+00:00</time></trkpt><trkpt lat="42.491165" lon="18.650476"><ele>-0.3</ele><time>2012-05-02T10:31:50.0000000+00:00</time></trkpt><trkpt lat="42.491165" lon="18.650476"><ele>-0.3</ele><time>2012-05-02T10:31:55.0000000+00:00</time></trkpt><trkpt lat="42.491165" lon="18.650476"><ele>-0.4</ele><time>2012-05-02T10:32:00.0000000+00:00</time></trkpt><trkpt lat="42.491165" lon="18.650476"><ele>-0.4</ele><time>2012-05-02T10:32:05.0000000+00:00</time></trkpt><trkpt lat="42.491165" lon="18.650476"><ele>-0.4</ele><time>2012-05-02T10:32:10.0000000+00:00</time></trkpt><trkpt lat="42.491161" lon="18.650476"><ele>-0.4</ele><time>2012-05-02T10:32:15.0000000+00:00</time></trkpt><trkpt lat="42.491161" lon="18.650476"><ele>-0.4</ele><time>2012-05-02T10:32:20.0000000+00:00</time></trkpt><trkpt lat="42.491161" lon="18.650475"><ele>-0.4</ele><time>2012-05-02T10:32:25.0000000+00:00</time></trkpt><trkpt lat="42.491161" lon="18.650475"><ele>-0.4</ele><time>2012-05-02T10:32:30.0000000+00:00</time></trkpt><trkpt lat="42.491161" lon="18.650475"><ele>-0.4</ele><time>2012-05-02T10:32:35.0000000+00:00</time></trkpt><trkpt lat="42.491161" lon="18.650475"><ele>-0.4</ele><time>2012-05-02T10:32:40.0000000+00:00</time></trkpt><trkpt lat="42.491161" lon="18.650475"><ele>-0.4</ele><time>2012-05-02T10:32:45.0000000+00:00</time></trkpt><trkpt lat="42.491161" lon="18.650475"><ele>-0.4</ele><time>2012-05-02T10:32:50.0000000+00:00</time></trkpt><trkpt lat="42.491161" lon="18.650475"><ele>-0.4</ele><time>2012-05-02T10:32:55.0000000+00:00</time></trkpt><trkpt lat="42.491161" lon="18.650475"><ele>-0.4</ele><time>2012-05-02T10:33:00.0000000+00:00</time></trkpt><trkpt lat="42.491161" lon="18.650473"><ele>-0.5</ele><time>2012-05-02T10:33:05.0000000+00:00</time></trkpt><trkpt lat="42.491161" lon="18.650473"><ele>-0.5</ele><time>2012-05-02T10:33:10.0000000+00:00</time></trkpt><trkpt lat="42.491161" lon="18.650473"><ele>-0.5</ele><time>2012-05-02T10:33:15.0000000+00:00</time></trkpt><trkpt lat="42.491161" lon="18.650473"><ele>-0.5</ele><time>2012-05-02T10:33:20.0000000+00:00</time></trkpt><trkpt lat="42.491161" lon="18.650473"><ele>-0.5</ele><time>2012-05-02T10:33:25.0000000+00:00</time></trkpt><trkpt lat="42.491161" lon="18.650473"><ele>-0.5</ele><time>2012-05-02T10:33:30.0000000+00:00</time></trkpt><trkpt lat="42.491161" lon="18.650473"><ele>-0.5</ele><time>2012-05-02T10:33:35.0000000+00:00</time></trkpt><trkpt lat="42.491161" lon="18.650473"><ele>-0.5</ele><time>2012-05-02T10:33:40.0000000+00:00</time></trkpt><trkpt lat="42.491161" lon="18.650471"><ele>-0.6</ele><time>2012-05-02T10:33:45.0000000+00:00</time></trkpt><trkpt lat="42.491161" lon="18.650471"><ele>-0.6</ele><time>2012-05-02T10:33:50.0000000+00:00</time></trkpt><trkpt lat="42.491161" lon="18.650471"><ele>-0.6</ele><time>2012-05-02T10:33:55.0000000+00:00</time></trkpt><trkpt lat="42.491161" lon="18.650471"><ele>-0.6</ele><time>2012-05-02T10:34:00.0000000+00:00</time></trkpt><trkpt lat="42.491158" lon="18.650471"><ele>-0.6</ele><time>2012-05-02T10:34:05.0000000+00:00</time></trkpt><trkpt lat="42.491158" lon="18.650471"><ele>-0.6</ele><time>2012-05-02T10:34:10.0000000+00:00</time></trkpt><trkpt lat="42.491158" lon="18.650471"><ele>-0.6</ele><time>2012-05-02T10:34:15.0000000+00:00</time></trkpt><trkpt lat="42.491158" lon="18.650471"><ele>-0.6</ele><time>2012-05-02T10:34:20.0000000+00:00</time></trkpt><trkpt lat="42.491158" lon="18.650471"><ele>-0.6</ele><time>2012-05-02T10:34:25.0000000+00:00</time></trkpt><trkpt lat="42.491158" lon="18.650471"><ele>-0.7</ele><time>2012-05-02T10:34:30.0000000+00:00</time></trkpt><trkpt lat="42.491158" lon="18.650469"><ele>-0.7</ele><time>2012-05-02T10:34:35.0000000+00:00</time></trkpt><trkpt lat="42.491158" lon="18.650469"><ele>-0.8</ele><time>2012-05-02T10:34:40.0000000+00:00</time></trkpt><trkpt lat="42.491158" lon="18.650469"><ele>-0.8</ele><time>2012-05-02T10:34:45.0000000+00:00</time></trkpt><trkpt lat="42.491158" lon="18.650469"><ele>-0.8</ele><time>2012-05-02T10:34:50.0000000+00:00</time></trkpt><trkpt lat="42.491154" lon="18.650469"><ele>-0.8</ele><time>2012-05-02T10:34:55.0000000+00:00</time></trkpt><trkpt lat="42.491154" lon="18.650467"><ele>-0.8</ele><time>2012-05-02T10:35:00.0000000+00:00</time></trkpt><trkpt lat="42.491154" lon="18.650467"><ele>-0.9</ele><time>2012-05-02T10:35:05.0000000+00:00</time></trkpt><trkpt lat="42.491154" lon="18.650467"><ele>-0.9</ele><time>2012-05-02T10:35:10.0000000+00:00</time></trkpt><trkpt lat="42.491154" lon="18.650467"><ele>-0.9</ele><time>2012-05-02T10:35:15.0000000+00:00</time></trkpt><trkpt lat="42.491154" lon="18.650467"><ele>-0.9</ele><time>2012-05-02T10:35:20.0000000+00:00</time></trkpt><trkpt lat="42.491154" lon="18.650467"><ele>-1.0</ele><time>2012-05-02T10:35:25.0000000+00:00</time></trkpt><trkpt lat="42.491154" lon="18.650465"><ele>-1.0</ele><time>2012-05-02T10:35:30.0000000+00:00</time></trkpt><trkpt lat="42.491154" lon="18.650465"><ele>-1.0</ele><time>2012-05-02T10:35:35.0000000+00:00</time></trkpt><trkpt lat="42.491154" lon="18.650465"><ele>-1.0</ele><time>2012-05-02T10:35:40.0000000+00:00</time></trkpt><trkpt lat="42.491154" lon="18.650465"><ele>-1.0</ele><time>2012-05-02T10:35:45.0000000+00:00</time></trkpt><trkpt lat="42.491154" lon="18.650467"><ele>-0.9</ele><time>2012-05-02T10:35:50.0000000+00:00</time></trkpt><trkpt lat="42.491154" lon="18.650467"><ele>-0.9</ele><time>2012-05-02T10:35:55.0000000+00:00</time></trkpt><trkpt lat="42.491154" lon="18.650467"><ele>-0.9</ele><time>2012-05-02T10:36:00.0000000+00:00</time></trkpt><trkpt lat="42.491154" lon="18.650467"><ele>-0.9</ele><time>2012-05-02T10:36:05.0000000+00:00</time></trkpt><trkpt lat="42.491154" lon="18.650467"><ele>-0.9</ele><time>2012-05-02T10:36:10.0000000+00:00</time></trkpt><trkpt lat="42.491154" lon="18.650467"><ele>-0.9</ele><time>2012-05-02T10:36:15.0000000+00:00</time></trkpt><trkpt lat="42.491154" lon="18.650467"><ele>-0.9</ele><time>2012-05-02T10:36:20.0000000+00:00</time></trkpt><trkpt lat="42.491154" lon="18.650467"><ele>-0.9</ele><time>2012-05-02T10:36:25.0000000+00:00</time></trkpt><trkpt lat="42.491154" lon="18.650467"><ele>-0.9</ele><time>2012-05-02T10:36:30.0000000+00:00</time></trkpt><trkpt lat="42.49115" lon="18.650465"><ele>-1.0</ele><time>2012-05-02T10:36:35.0000000+00:00</time></trkpt><trkpt lat="42.49115" lon="18.650465"><ele>-1.1</ele><time>2012-05-02T10:36:40.0000000+00:00</time></trkpt><trkpt lat="42.49115" lon="18.650465"><ele>-1.2</ele><time>2012-05-02T10:36:45.0000000+00:00</time></trkpt><trkpt lat="42.49115" lon="18.650465"><ele>-1.3</ele><time>2012-05-02T10:36:50.0000000+00:00</time></trkpt><trkpt lat="42.49115" lon="18.650465"><ele>-1.3</ele><time>2012-05-02T10:36:55.0000000+00:00</time></trkpt><trkpt lat="42.49115" lon="18.650463"><ele>-1.4</ele><time>2012-05-02T10:37:00.0000000+00:00</time></trkpt><trkpt lat="42.49115" lon="18.650463"><ele>-1.5</ele><time>2012-05-02T10:37:05.0000000+00:00</time></trkpt><trkpt lat="42.491238" lon="18.650431"><ele>0.5</ele><time>2012-05-02T10:37:10.0000000+00:00</time></trkpt><trkpt lat="42.491425" lon="18.650364"><ele>2.9</ele><time>2012-05-02T10:37:15.0000000+00:00</time></trkpt><trkpt lat="42.491676" lon="18.650309"><ele>5.0</ele><time>2012-05-02T10:37:20.0000000+00:00</time></trkpt><trkpt lat="42.491909" lon="18.650433"><ele>5.3</ele><time>2012-05-02T10:37:25.0000000+00:00</time></trkpt><trkpt lat="42.492142" lon="18.650633"><ele>6.9</ele><time>2012-05-02T10:37:30.0000000+00:00</time></trkpt><trkpt lat="42.492386" lon="18.65086"><ele>10.1</ele><time>2012-05-02T10:37:35.0000000+00:00</time></trkpt><trkpt lat="42.492695" lon="18.6511"><ele>13.0</ele><time>2012-05-02T10:37:40.0000000+00:00</time></trkpt><trkpt lat="42.492912" lon="18.65134"><ele>12.6</ele><time>2012-05-02T10:37:45.0000000+00:00</time></trkpt><trkpt lat="42.493103" lon="18.651577"><ele>11.7</ele><time>2012-05-02T10:37:50.0000000+00:00</time></trkpt><trkpt lat="42.493332" lon="18.651814"><ele>12.4</ele><time>2012-05-02T10:37:55.0000000+00:00</time></trkpt><trkpt lat="42.493645" lon="18.651918"><ele>13.9</ele><time>2012-05-02T10:38:00.0000000+00:00</time></trkpt><trkpt lat="42.493946" lon="18.651871"><ele>12.6</ele><time>2012-05-02T10:38:05.0000000+00:00</time></trkpt><trkpt lat="42.494213" lon="18.65181"><ele>9.9</ele><time>2012-05-02T10:38:10.0000000+00:00</time></trkpt><trkpt lat="42.49448" lon="18.651966"><ele>7.9</ele><time>2012-05-02T10:38:15.0000000+00:00</time></trkpt><trkpt lat="42.49469" lon="18.652313"><ele>8.5</ele><time>2012-05-02T10:38:20.0000000+00:00</time></trkpt><trkpt lat="42.494865" lon="18.652689"><ele>9.0</ele><time>2012-05-02T10:38:25.0000000+00:00</time></trkpt><trkpt lat="42.49498" lon="18.653137"><ele>9.4</ele><time>2012-05-02T10:38:30.0000000+00:00</time></trkpt><trkpt lat="42.495056" lon="18.653559"><ele>8.0</ele><time>2012-05-02T10:38:35.0000000+00:00</time></trkpt><trkpt lat="42.495136" lon="18.653959"><ele>7.3</ele><time>2012-05-02T10:38:40.0000000+00:00</time></trkpt><trkpt lat="42.495239" lon="18.65435"><ele>5.8</ele><time>2012-05-02T10:38:45.0000000+00:00</time></trkpt><trkpt lat="42.495403" lon="18.654667"><ele>5.3</ele><time>2012-05-02T10:38:50.0000000+00:00</time></trkpt><trkpt lat="42.495693" lon="18.654865"><ele>3.9</ele><time>2012-05-02T10:38:55.0000000+00:00</time></trkpt><trkpt lat="42.495995" lon="18.655043"><ele>2.9</ele><time>2012-05-02T10:39:00.0000000+00:00</time></trkpt><trkpt lat="42.496258" lon="18.655361"><ele>3.2</ele><time>2012-05-02T10:39:05.0000000+00:00</time></trkpt><trkpt lat="42.496387" lon="18.655777"><ele>4.0</ele><time>2012-05-02T10:39:10.0000000+00:00</time></trkpt><trkpt lat="42.496449" lon="18.656204"><ele>2.4</ele><time>2012-05-02T10:39:15.0000000+00:00</time></trkpt><trkpt lat="42.496544" lon="18.656618"><ele>1.6</ele><time>2012-05-02T10:39:20.0000000+00:00</time></trkpt><trkpt lat="42.496632" lon="18.656992"><ele>1.5</ele><time>2012-05-02T10:39:25.0000000+00:00</time></trkpt><trkpt lat="42.496765" lon="18.657352"><ele>2.3</ele><time>2012-05-02T10:39:30.0000000+00:00</time></trkpt><trkpt lat="42.496883" lon="18.657684"><ele>3.5</ele><time>2012-05-02T10:39:35.0000000+00:00</time></trkpt><trkpt lat="42.497025" lon="18.65799"><ele>4.9</ele><time>2012-05-02T10:39:40.0000000+00:00</time></trkpt><trkpt lat="42.497196" lon="18.658226"><ele>6.7</ele><time>2012-05-02T10:39:45.0000000+00:00</time></trkpt><trkpt lat="42.497433" lon="18.658413"><ele>9.3</ele><time>2012-05-02T10:39:50.0000000+00:00</time></trkpt><trkpt lat="42.497696" lon="18.658485"><ele>9.7</ele><time>2012-05-02T10:39:55.0000000+00:00</time></trkpt><trkpt lat="42.497959" lon="18.658672"><ele>10.3</ele><time>2012-05-02T10:40:00.0000000+00:00</time></trkpt><trkpt lat="42.498207" lon="18.658976"><ele>10.6</ele><time>2012-05-02T10:40:05.0000000+00:00</time></trkpt><trkpt lat="42.498451" lon="18.659321"><ele>10.5</ele><time>2012-05-02T10:40:10.0000000+00:00</time></trkpt><trkpt lat="42.498661" lon="18.659676"><ele>9.9</ele><time>2012-05-02T10:40:15.0000000+00:00</time></trkpt><trkpt lat="42.498871" lon="18.660038"><ele>11.4</ele><time>2012-05-02T10:40:20.0000000+00:00</time></trkpt><trkpt lat="42.499111" lon="18.660372"><ele>11.4</ele><time>2012-05-02T10:40:25.0000000+00:00</time></trkpt><trkpt lat="42.499367" lon="18.66062"><ele>11.8</ele><time>2012-05-02T10:40:30.0000000+00:00</time></trkpt><trkpt lat="42.499596" lon="18.660788"><ele>12.4</ele><time>2012-05-02T10:40:35.0000000+00:00</time></trkpt><trkpt lat="42.49987" lon="18.660925"><ele>12.9</ele><time>2012-05-02T10:40:40.0000000+00:00</time></trkpt><trkpt lat="42.50013" lon="18.661064"><ele>13.6</ele><time>2012-05-02T10:40:45.0000000+00:00</time></trkpt><trkpt lat="42.500381" lon="18.661234"><ele>13.5</ele><time>2012-05-02T10:40:50.0000000+00:00</time></trkpt><trkpt lat="42.500607" lon="18.661516"><ele>14.8</ele><time>2012-05-02T10:40:55.0000000+00:00</time></trkpt><trkpt lat="42.500755" lon="18.661856"><ele>14.8</ele><time>2012-05-02T10:41:00.0000000+00:00</time></trkpt><trkpt lat="42.500832" lon="18.662199"><ele>14.0</ele><time>2012-05-02T10:41:05.0000000+00:00</time></trkpt><trkpt lat="42.500843" lon="18.662567"><ele>13.3</ele><time>2012-05-02T10:41:10.0000000+00:00</time></trkpt><trkpt lat="42.500877" lon="18.662924"><ele>12.8</ele><time>2012-05-02T10:41:15.0000000+00:00</time></trkpt><trkpt lat="42.500988" lon="18.663288"><ele>12.5</ele><time>2012-05-02T10:41:20.0000000+00:00</time></trkpt><trkpt lat="42.501198" lon="18.663597"><ele>12.2</ele><time>2012-05-02T10:41:25.0000000+00:00</time></trkpt><trkpt lat="42.501488" lon="18.663866"><ele>12.3</ele><time>2012-05-02T10:41:30.0000000+00:00</time></trkpt><trkpt lat="42.501801" lon="18.664154"><ele>12.1</ele><time>2012-05-02T10:41:35.0000000+00:00</time></trkpt><trkpt lat="42.502083" lon="18.664461"><ele>12.5</ele><time>2012-05-02T10:41:40.0000000+00:00</time></trkpt><trkpt lat="42.502361" lon="18.664797"><ele>11.8</ele><time>2012-05-02T10:41:45.0000000+00:00</time></trkpt><trkpt lat="42.502621" lon="18.665167"><ele>11.6</ele><time>2012-05-02T10:41:50.0000000+00:00</time></trkpt><trkpt lat="42.502831" lon="18.665506"><ele>11.8</ele><time>2012-05-02T10:41:55.0000000+00:00</time></trkpt><trkpt lat="42.50301" lon="18.665911"><ele>11.9</ele><time>2012-05-02T10:42:00.0000000+00:00</time></trkpt><trkpt lat="42.503143" lon="18.666348"><ele>11.9</ele><time>2012-05-02T10:42:05.0000000+00:00</time></trkpt><trkpt lat="42.503281" lon="18.666721"><ele>11.6</ele><time>2012-05-02T10:42:10.0000000+00:00</time></trkpt><trkpt lat="42.50349" lon="18.667051"><ele>10.5</ele><time>2012-05-02T10:42:15.0000000+00:00</time></trkpt><trkpt lat="42.503723" lon="18.667301"><ele>10.0</ele><time>2012-05-02T10:42:20.0000000+00:00</time></trkpt><trkpt lat="42.503994" lon="18.667484"><ele>9.4</ele><time>2012-05-02T10:42:25.0000000+00:00</time></trkpt><trkpt lat="42.504292" lon="18.667616"><ele>9.5</ele><time>2012-05-02T10:42:30.0000000+00:00</time></trkpt><trkpt lat="42.504559" lon="18.667789"><ele>8.9</ele><time>2012-05-02T10:42:35.0000000+00:00</time></trkpt><trkpt lat="42.504707" lon="18.66814"><ele>9.5</ele><time>2012-05-02T10:42:40.0000000+00:00</time></trkpt><trkpt lat="42.504665" lon="18.668591"><ele>10.1</ele><time>2012-05-02T10:42:45.0000000+00:00</time></trkpt><trkpt lat="42.504578" lon="18.669016"><ele>10.5</ele><time>2012-05-02T10:42:50.0000000+00:00</time></trkpt><trkpt lat="42.504551" lon="18.669453"><ele>9.1</ele><time>2012-05-02T10:42:55.0000000+00:00</time></trkpt><trkpt lat="42.504581" lon="18.66987"><ele>7.7</ele><time>2012-05-02T10:43:00.0000000+00:00</time></trkpt><trkpt lat="42.50462" lon="18.670311"><ele>6.3</ele><time>2012-05-02T10:43:05.0000000+00:00</time></trkpt><trkpt lat="42.504662" lon="18.670736"><ele>5.6</ele><time>2012-05-02T10:43:10.0000000+00:00</time></trkpt><trkpt lat="42.504772" lon="18.671165"><ele>5.8</ele><time>2012-05-02T10:43:15.0000000+00:00</time></trkpt><trkpt lat="42.504929" lon="18.671532"><ele>5.9</ele><time>2012-05-02T10:43:20.0000000+00:00</time></trkpt><trkpt lat="42.505081" lon="18.67185"><ele>5.7</ele><time>2012-05-02T10:43:25.0000000+00:00</time></trkpt><trkpt lat="42.505253" lon="18.672209"><ele>5.2</ele><time>2012-05-02T10:43:30.0000000+00:00</time></trkpt><trkpt lat="42.505348" lon="18.67259"><ele>4.3</ele><time>2012-05-02T10:43:35.0000000+00:00</time></trkpt><trkpt lat="42.505238" lon="18.673023"><ele>3.4</ele><time>2012-05-02T10:43:40.0000000+00:00</time></trkpt><trkpt lat="42.505074" lon="18.673416"><ele>2.8</ele><time>2012-05-02T10:43:45.0000000+00:00</time></trkpt><trkpt lat="42.504929" lon="18.673775"><ele>1.8</ele><time>2012-05-02T10:43:50.0000000+00:00</time></trkpt><trkpt lat="42.50481" lon="18.674192"><ele>0.9</ele><time>2012-05-02T10:43:55.0000000+00:00</time></trkpt><trkpt lat="42.504757" lon="18.67462"><ele>-0.0</ele><time>2012-05-02T10:44:00.0000000+00:00</time></trkpt><trkpt lat="42.50478" lon="18.675034"><ele>-0.7</ele><time>2012-05-02T10:44:05.0000000+00:00</time></trkpt><trkpt lat="42.504887" lon="18.675446"><ele>-1.2</ele><time>2012-05-02T10:44:10.0000000+00:00</time></trkpt><trkpt lat="42.505043" lon="18.67584"><ele>-1.8</ele><time>2012-05-02T10:44:15.0000000+00:00</time></trkpt><trkpt lat="42.505211" lon="18.676176"><ele>-2.1</ele><time>2012-05-02T10:44:20.0000000+00:00</time></trkpt><trkpt lat="42.505428" lon="18.676491"><ele>-1.4</ele><time>2012-05-02T10:44:25.0000000+00:00</time></trkpt><trkpt lat="42.505699" lon="18.676722"><ele>0.3</ele><time>2012-05-02T10:44:30.0000000+00:00</time></trkpt><trkpt lat="42.505939" lon="18.676844"><ele>2.7</ele><time>2012-05-02T10:44:35.0000000+00:00</time></trkpt><trkpt lat="42.506195" lon="18.676891"><ele>5.4</ele><time>2012-05-02T10:44:40.0000000+00:00</time></trkpt><trkpt lat="42.506435" lon="18.676876"><ele>6.4</ele><time>2012-05-02T10:44:45.0000000+00:00</time></trkpt><trkpt lat="42.506653" lon="18.67687"><ele>7.3</ele><time>2012-05-02T10:44:50.0000000+00:00</time></trkpt><trkpt lat="42.506912" lon="18.676891"><ele>8.6</ele><time>2012-05-02T10:44:55.0000000+00:00</time></trkpt><trkpt lat="42.507187" lon="18.676962"><ele>9.9</ele><time>2012-05-02T10:45:00.0000000+00:00</time></trkpt><trkpt lat="42.507416" lon="18.677031"><ele>10.7</ele><time>2012-05-02T10:45:05.0000000+00:00</time></trkpt><trkpt lat="42.507633" lon="18.677105"><ele>11.5</ele><time>2012-05-02T10:45:10.0000000+00:00</time></trkpt><trkpt lat="42.507847" lon="18.677235"><ele>9.8</ele><time>2012-05-02T10:45:15.0000000+00:00</time></trkpt><trkpt lat="42.508049" lon="18.677433"><ele>8.9</ele><time>2012-05-02T10:45:20.0000000+00:00</time></trkpt><trkpt lat="42.508209" lon="18.67765"><ele>8.1</ele><time>2012-05-02T10:45:25.0000000+00:00</time></trkpt><trkpt lat="42.508354" lon="18.677866"><ele>8.1</ele><time>2012-05-02T10:45:30.0000000+00:00</time></trkpt><trkpt lat="42.508533" lon="18.678091"><ele>8.3</ele><time>2012-05-02T10:45:35.0000000+00:00</time></trkpt><trkpt lat="42.50872" lon="18.678276"><ele>8.2</ele><time>2012-05-02T10:45:40.0000000+00:00</time></trkpt><trkpt lat="42.508907" lon="18.678455"><ele>8.0</ele><time>2012-05-02T10:45:45.0000000+00:00</time></trkpt><trkpt lat="42.509106" lon="18.678614"><ele>9.6</ele><time>2012-05-02T10:45:50.0000000+00:00</time></trkpt><trkpt lat="42.50938" lon="18.678741"><ele>10.7</ele><time>2012-05-02T10:45:55.0000000+00:00</time></trkpt><trkpt lat="42.509701" lon="18.678753"><ele>11.6</ele><time>2012-05-02T10:46:00.0000000+00:00</time></trkpt><trkpt lat="42.510033" lon="18.678656"><ele>12.7</ele><time>2012-05-02T10:46:05.0000000+00:00</time></trkpt><trkpt lat="42.510353" lon="18.678596"><ele>13.8</ele><time>2012-05-02T10:46:10.0000000+00:00</time></trkpt><trkpt lat="42.510654" lon="18.678719"><ele>15.8</ele><time>2012-05-02T10:46:15.0000000+00:00</time></trkpt><trkpt lat="42.510933" lon="18.678926"><ele>18.1</ele><time>2012-05-02T10:46:20.0000000+00:00</time></trkpt><trkpt lat="42.511139" lon="18.679224"><ele>20.0</ele><time>2012-05-02T10:46:25.0000000+00:00</time></trkpt><trkpt lat="42.511227" lon="18.679527"><ele>21.5</ele><time>2012-05-02T10:46:30.0000000+00:00</time></trkpt><trkpt lat="42.511303" lon="18.679846"><ele>22.5</ele><time>2012-05-02T10:46:35.0000000+00:00</time></trkpt><trkpt lat="42.511414" lon="18.680103"><ele>23.5</ele><time>2012-05-02T10:46:40.0000000+00:00</time></trkpt><trkpt lat="42.511486" lon="18.680351"><ele>24.3</ele><time>2012-05-02T10:46:45.0000000+00:00</time></trkpt><trkpt lat="42.511566" lon="18.680555"><ele>24.7</ele><time>2012-05-02T10:46:50.0000000+00:00</time></trkpt><trkpt lat="42.511642" lon="18.680742"><ele>24.3</ele><time>2012-05-02T10:46:55.0000000+00:00</time></trkpt><trkpt lat="42.511765" lon="18.680918"><ele>24.3</ele><time>2012-05-02T10:47:00.0000000+00:00</time></trkpt><trkpt lat="42.511864" lon="18.681093"><ele>23.8</ele><time>2012-05-02T10:47:05.0000000+00:00</time></trkpt><trkpt lat="42.511967" lon="18.681252"><ele>24.2</ele><time>2012-05-02T10:47:10.0000000+00:00</time></trkpt><trkpt lat="42.512096" lon="18.681402"><ele>24.8</ele><time>2012-05-02T10:47:15.0000000+00:00</time></trkpt><trkpt lat="42.512234" lon="18.681488"><ele>26.1</ele><time>2012-05-02T10:47:20.0000000+00:00</time></trkpt><trkpt lat="42.512394" lon="18.681507"><ele>27.2</ele><time>2012-05-02T10:47:25.0000000+00:00</time></trkpt><trkpt lat="42.512562" lon="18.681496"><ele>28.1</ele><time>2012-05-02T10:47:30.0000000+00:00</time></trkpt><trkpt lat="42.51273" lon="18.681431"><ele>29.3</ele><time>2012-05-02T10:47:35.0000000+00:00</time></trkpt><trkpt lat="42.512905" lon="18.681337"><ele>29.8</ele><time>2012-05-02T10:47:40.0000000+00:00</time></trkpt><trkpt lat="42.513107" lon="18.681311"><ele>30.5</ele><time>2012-05-02T10:47:45.0000000+00:00</time></trkpt><trkpt lat="42.513271" lon="18.681393"><ele>32.1</ele><time>2012-05-02T10:47:50.0000000+00:00</time></trkpt><trkpt lat="42.513412" lon="18.681465"><ele>33.2</ele><time>2012-05-02T10:47:55.0000000+00:00</time></trkpt><trkpt lat="42.513557" lon="18.681561"><ele>33.7</ele><time>2012-05-02T10:48:00.0000000+00:00</time></trkpt><trkpt lat="42.513687" lon="18.681684"><ele>33.7</ele><time>2012-05-02T10:48:05.0000000+00:00</time></trkpt><trkpt lat="42.513718" lon="18.681698"><ele>33.6</ele><time>2012-05-02T10:48:10.0000000+00:00</time></trkpt><trkpt lat="42.513729" lon="18.681694"><ele>34.2</ele><time>2012-05-02T10:48:15.0000000+00:00</time></trkpt><trkpt lat="42.513737" lon="18.681648"><ele>34.9</ele><time>2012-05-02T10:48:20.0000000+00:00</time></trkpt><trkpt lat="42.513744" lon="18.681648"><ele>35.0</ele><time>2012-05-02T10:48:25.0000000+00:00</time></trkpt><trkpt lat="42.513744" lon="18.68165"><ele>35.1</ele><time>2012-05-02T10:48:30.0000000+00:00</time></trkpt><trkpt lat="42.513721" lon="18.681664"><ele>35.1</ele><time>2012-05-02T10:48:35.0000000+00:00</time></trkpt><trkpt lat="42.513699" lon="18.681677"><ele>35.0</ele><time>2012-05-02T10:48:40.0000000+00:00</time></trkpt><trkpt lat="42.513699" lon="18.681684"><ele>35.1</ele><time>2012-05-02T10:48:45.0000000+00:00</time></trkpt><trkpt lat="42.513699" lon="18.681683"><ele>35.1</ele><time>2012-05-02T10:48:50.0000000+00:00</time></trkpt><trkpt lat="42.513695" lon="18.681683"><ele>35.2</ele><time>2012-05-02T10:48:55.0000000+00:00</time></trkpt><trkpt lat="42.513695" lon="18.681683"><ele>35.2</ele><time>2012-05-02T10:49:00.0000000+00:00</time></trkpt><trkpt lat="42.513695" lon="18.681683"><ele>35.2</ele><time>2012-05-02T10:49:05.0000000+00:00</time></trkpt><trkpt lat="42.513695" lon="18.681683"><ele>35.2</ele><time>2012-05-02T10:49:10.0000000+00:00</time></trkpt><trkpt lat="42.513699" lon="18.681681"><ele>35.2</ele><time>2012-05-02T10:49:15.0000000+00:00</time></trkpt><trkpt lat="42.513699" lon="18.681681"><ele>35.2</ele><time>2012-05-02T10:49:20.0000000+00:00</time></trkpt><trkpt lat="42.513699" lon="18.681683"><ele>35.2</ele><time>2012-05-02T10:49:25.0000000+00:00</time></trkpt><trkpt lat="42.513699" lon="18.681683"><ele>35.2</ele><time>2012-05-02T10:49:30.0000000+00:00</time></trkpt><trkpt lat="42.513699" lon="18.681683"><ele>35.3</ele><time>2012-05-02T10:49:35.0000000+00:00</time></trkpt><trkpt lat="42.513699" lon="18.681683"><ele>35.3</ele><time>2012-05-02T10:49:40.0000000+00:00</time></trkpt><trkpt lat="42.513699" lon="18.681683"><ele>35.3</ele><time>2012-05-02T10:49:45.0000000+00:00</time></trkpt><trkpt lat="42.513699" lon="18.681683"><ele>35.3</ele><time>2012-05-02T10:49:50.0000000+00:00</time></trkpt><trkpt lat="42.513702" lon="18.681683"><ele>35.4</ele><time>2012-05-02T10:49:55.0000000+00:00</time></trkpt><trkpt lat="42.513702" lon="18.681683"><ele>35.4</ele><time>2012-05-02T10:50:00.0000000+00:00</time></trkpt><trkpt lat="42.513702" lon="18.681683"><ele>35.4</ele><time>2012-05-02T10:50:05.0000000+00:00</time></trkpt><trkpt lat="42.513702" lon="18.681684"><ele>35.4</ele><time>2012-05-02T10:50:10.0000000+00:00</time></trkpt><trkpt lat="42.513702" lon="18.681684"><ele>35.4</ele><time>2012-05-02T10:50:15.0000000+00:00</time></trkpt><trkpt lat="42.513702" lon="18.681684"><ele>35.4</ele><time>2012-05-02T10:50:20.0000000+00:00</time></trkpt><trkpt lat="42.513702" lon="18.681684"><ele>35.4</ele><time>2012-05-02T10:50:25.0000000+00:00</time></trkpt><trkpt lat="42.513702" lon="18.681684"><ele>35.4</ele><time>2012-05-02T10:50:30.0000000+00:00</time></trkpt><trkpt lat="42.513702" lon="18.681684"><ele>35.4</ele><time>2012-05-02T10:50:35.0000000+00:00</time></trkpt><trkpt lat="42.513702" lon="18.681684"><ele>35.3</ele><time>2012-05-02T10:50:40.0000000+00:00</time></trkpt><trkpt lat="42.513702" lon="18.681684"><ele>35.3</ele><time>2012-05-02T10:50:45.0000000+00:00</time></trkpt><trkpt lat="42.513702" lon="18.681686"><ele>35.3</ele><time>2012-05-02T10:50:50.0000000+00:00</time></trkpt><trkpt lat="42.513702" lon="18.681686"><ele>35.3</ele><time>2012-05-02T10:50:55.0000000+00:00</time></trkpt><trkpt lat="42.513702" lon="18.681686"><ele>35.2</ele><time>2012-05-02T10:51:00.0000000+00:00</time></trkpt><trkpt lat="42.513702" lon="18.681686"><ele>35.2</ele><time>2012-05-02T10:51:05.0000000+00:00</time></trkpt><trkpt lat="42.513702" lon="18.681688"><ele>35.1</ele><time>2012-05-02T10:51:10.0000000+00:00</time></trkpt><trkpt lat="42.513706" lon="18.681688"><ele>35.1</ele><time>2012-05-02T10:51:15.0000000+00:00</time></trkpt><trkpt lat="42.513706" lon="18.681688"><ele>35.1</ele><time>2012-05-02T10:51:20.0000000+00:00</time></trkpt><trkpt lat="42.513706" lon="18.681688"><ele>35.1</ele><time>2012-05-02T10:51:25.0000000+00:00</time></trkpt><trkpt lat="42.513706" lon="18.681688"><ele>35.1</ele><time>2012-05-02T10:51:30.0000000+00:00</time></trkpt><trkpt lat="42.513706" lon="18.68169"><ele>35.1</ele><time>2012-05-02T10:51:35.0000000+00:00</time></trkpt><trkpt lat="42.513706" lon="18.68169"><ele>35.1</ele><time>2012-05-02T10:51:40.0000000+00:00</time></trkpt><trkpt lat="42.513706" lon="18.68169"><ele>35.1</ele><time>2012-05-02T10:51:45.0000000+00:00</time></trkpt><trkpt lat="42.513706" lon="18.68169"><ele>35.1</ele><time>2012-05-02T10:51:50.0000000+00:00</time></trkpt><trkpt lat="42.513706" lon="18.681688"><ele>35.1</ele><time>2012-05-02T10:51:55.0000000+00:00</time></trkpt><trkpt lat="42.513706" lon="18.681688"><ele>35.1</ele><time>2012-05-02T10:52:00.0000000+00:00</time></trkpt><trkpt lat="42.513706" lon="18.681688"><ele>35.1</ele><time>2012-05-02T10:52:05.0000000+00:00</time></trkpt><trkpt lat="42.513706" lon="18.681688"><ele>35.1</ele><time>2012-05-02T10:52:10.0000000+00:00</time></trkpt><trkpt lat="42.513706" lon="18.681688"><ele>35.0</ele><time>2012-05-02T10:52:15.0000000+00:00</time></trkpt><trkpt lat="42.513706" lon="18.681688"><ele>35.0</ele><time>2012-05-02T10:52:20.0000000+00:00</time></trkpt><trkpt lat="42.513706" lon="18.681688"><ele>35.0</ele><time>2012-05-02T10:52:25.0000000+00:00</time></trkpt><trkpt lat="42.513706" lon="18.681688"><ele>35.0</ele><time>2012-05-02T10:52:30.0000000+00:00</time></trkpt><trkpt lat="42.513706" lon="18.681688"><ele>35.0</ele><time>2012-05-02T10:52:35.0000000+00:00</time></trkpt><trkpt lat="42.513706" lon="18.681688"><ele>35.0</ele><time>2012-05-02T10:52:40.0000000+00:00</time></trkpt><trkpt lat="42.513706" lon="18.681688"><ele>35.0</ele><time>2012-05-02T10:52:45.0000000+00:00</time></trkpt><trkpt lat="42.513706" lon="18.681688"><ele>35.0</ele><time>2012-05-02T10:52:50.0000000+00:00</time></trkpt><trkpt lat="42.513706" lon="18.681688"><ele>35.0</ele><time>2012-05-02T10:52:55.0000000+00:00</time></trkpt><trkpt lat="42.513706" lon="18.681688"><ele>34.9</ele><time>2012-05-02T10:53:00.0000000+00:00</time></trkpt><trkpt lat="42.513706" lon="18.681688"><ele>34.9</ele><time>2012-05-02T10:53:05.0000000+00:00</time></trkpt><trkpt lat="42.513706" lon="18.681688"><ele>34.9</ele><time>2012-05-02T10:53:10.0000000+00:00</time></trkpt><trkpt lat="42.513706" lon="18.681688"><ele>34.9</ele><time>2012-05-02T10:53:15.0000000+00:00</time></trkpt><trkpt lat="42.513706" lon="18.681688"><ele>34.9</ele><time>2012-05-02T10:53:20.0000000+00:00</time></trkpt><trkpt lat="42.513706" lon="18.681688"><ele>34.9</ele><time>2012-05-02T10:53:25.0000000+00:00</time></trkpt><trkpt lat="42.513706" lon="18.681688"><ele>34.8</ele><time>2012-05-02T10:53:30.0000000+00:00</time></trkpt><trkpt lat="42.513706" lon="18.681688"><ele>34.8</ele><time>2012-05-02T10:53:35.0000000+00:00</time></trkpt><trkpt lat="42.513706" lon="18.681688"><ele>34.8</ele><time>2012-05-02T10:53:40.0000000+00:00</time></trkpt><trkpt lat="42.513706" lon="18.681688"><ele>34.8</ele><time>2012-05-02T10:53:45.0000000+00:00</time></trkpt><trkpt lat="42.513706" lon="18.681688"><ele>34.8</ele><time>2012-05-02T10:53:50.0000000+00:00</time></trkpt><trkpt lat="42.513706" lon="18.681688"><ele>34.8</ele><time>2012-05-02T10:53:55.0000000+00:00</time></trkpt><trkpt lat="42.513706" lon="18.681688"><ele>34.8</ele><time>2012-05-02T10:54:00.0000000+00:00</time></trkpt><trkpt lat="42.513706" lon="18.681688"><ele>34.8</ele><time>2012-05-02T10:54:05.0000000+00:00</time></trkpt><trkpt lat="42.513706" lon="18.681688"><ele>34.8</ele><time>2012-05-02T10:54:10.0000000+00:00</time></trkpt><trkpt lat="42.513706" lon="18.681688"><ele>34.8</ele><time>2012-05-02T10:54:15.0000000+00:00</time></trkpt><trkpt lat="42.513706" lon="18.681688"><ele>34.8</ele><time>2012-05-02T10:54:20.0000000+00:00</time></trkpt><trkpt lat="42.513706" lon="18.681688"><ele>34.8</ele><time>2012-05-02T10:54:25.0000000+00:00</time></trkpt><trkpt lat="42.513706" lon="18.681688"><ele>34.8</ele><time>2012-05-02T10:54:30.0000000+00:00</time></trkpt><trkpt lat="42.513725" lon="18.681664"><ele>35.1</ele><time>2012-05-02T10:54:35.0000000+00:00</time></trkpt><trkpt lat="42.513741" lon="18.681664"><ele>33.8</ele><time>2012-05-02T10:54:40.0000000+00:00</time></trkpt><trkpt lat="42.513737" lon="18.68166"><ele>32.2</ele><time>2012-05-02T10:54:45.0000000+00:00</time></trkpt><trkpt lat="42.513741" lon="18.681662"><ele>32.1</ele><time>2012-05-02T10:54:50.0000000+00:00</time></trkpt><trkpt lat="42.513737" lon="18.681673"><ele>32.1</ele><time>2012-05-02T10:54:55.0000000+00:00</time></trkpt><trkpt lat="42.513741" lon="18.681679"><ele>32.2</ele><time>2012-05-02T10:55:00.0000000+00:00</time></trkpt><trkpt lat="42.513744" lon="18.681679"><ele>32.3</ele><time>2012-05-02T10:55:05.0000000+00:00</time></trkpt><trkpt lat="42.513748" lon="18.681681"><ele>32.3</ele><time>2012-05-02T10:55:10.0000000+00:00</time></trkpt><trkpt lat="42.513752" lon="18.681707"><ele>32.5</ele><time>2012-05-02T10:55:15.0000000+00:00</time></trkpt><trkpt lat="42.513771" lon="18.68185"><ele>33.5</ele><time>2012-05-02T10:55:20.0000000+00:00</time></trkpt><trkpt lat="42.513885" lon="18.682028"><ele>33.6</ele><time>2012-05-02T10:55:25.0000000+00:00</time></trkpt><trkpt lat="42.514046" lon="18.682301"><ele>33.7</ele><time>2012-05-02T10:55:30.0000000+00:00</time></trkpt><trkpt lat="42.514294" lon="18.682606"><ele>32.0</ele><time>2012-05-02T10:55:35.0000000+00:00</time></trkpt><trkpt lat="42.514645" lon="18.682816"><ele>31.1</ele><time>2012-05-02T10:55:40.0000000+00:00</time></trkpt><trkpt lat="42.515118" lon="18.682831"><ele>28.6</ele><time>2012-05-02T10:55:45.0000000+00:00</time></trkpt><trkpt lat="42.515511" lon="18.683348"><ele>26.3</ele><time>2012-05-02T10:55:50.0000000+00:00</time></trkpt><trkpt lat="42.5158" lon="18.684107"><ele>23.3</ele><time>2012-05-02T10:55:55.0000000+00:00</time></trkpt><trkpt lat="42.516079" lon="18.684858"><ele>19.9</ele><time>2012-05-02T10:56:00.0000000+00:00</time></trkpt><trkpt lat="42.516098" lon="18.685658"><ele>14.5</ele><time>2012-05-02T10:56:05.0000000+00:00</time></trkpt><trkpt lat="42.516357" lon="18.68631"><ele>10.8</ele><time>2012-05-02T10:56:10.0000000+00:00</time></trkpt><trkpt lat="42.516754" lon="18.686779"><ele>8.7</ele><time>2012-05-02T10:56:15.0000000+00:00</time></trkpt><trkpt lat="42.517097" lon="18.687233"><ele>6.8</ele><time>2012-05-02T10:56:20.0000000+00:00</time></trkpt><trkpt lat="42.517246" lon="18.687769"><ele>5.5</ele><time>2012-05-02T10:56:25.0000000+00:00</time></trkpt><trkpt lat="42.517284" lon="18.688288"><ele>2.7</ele><time>2012-05-02T10:56:30.0000000+00:00</time></trkpt><trkpt lat="42.517281" lon="18.68882"><ele>0.5</ele><time>2012-05-02T10:56:35.0000000+00:00</time></trkpt><trkpt lat="42.517269" lon="18.689318"><ele>-1.2</ele><time>2012-05-02T10:56:40.0000000+00:00</time></trkpt><trkpt lat="42.517246" lon="18.689754"><ele>-1.6</ele><time>2012-05-02T10:56:45.0000000+00:00</time></trkpt><trkpt lat="42.517189" lon="18.690168"><ele>-2.2</ele><time>2012-05-02T10:56:50.0000000+00:00</time></trkpt><trkpt lat="42.517136" lon="18.690525"><ele>-1.9</ele><time>2012-05-02T10:56:55.0000000+00:00</time></trkpt><trkpt lat="42.517056" lon="18.690897"><ele>-0.3</ele><time>2012-05-02T10:57:00.0000000+00:00</time></trkpt><trkpt lat="42.51693" lon="18.691286"><ele>2.1</ele><time>2012-05-02T10:57:05.0000000+00:00</time></trkpt><trkpt lat="42.516788" lon="18.691628"><ele>3.4</ele><time>2012-05-02T10:57:10.0000000+00:00</time></trkpt><trkpt lat="42.51664" lon="18.691944"><ele>3.6</ele><time>2012-05-02T10:57:15.0000000+00:00</time></trkpt><trkpt lat="42.516506" lon="18.692228"><ele>4.2</ele><time>2012-05-02T10:57:20.0000000+00:00</time></trkpt><trkpt lat="42.516304" lon="18.692562"><ele>4.9</ele><time>2012-05-02T10:57:25.0000000+00:00</time></trkpt><trkpt lat="42.516109" lon="18.692894"><ele>6.0</ele><time>2012-05-02T10:57:30.0000000+00:00</time></trkpt><trkpt lat="42.515873" lon="18.693226"><ele>6.8</ele><time>2012-05-02T10:57:35.0000000+00:00</time></trkpt><trkpt lat="42.515625" lon="18.693487"><ele>7.2</ele><time>2012-05-02T10:57:40.0000000+00:00</time></trkpt><trkpt lat="42.515373" lon="18.693722"><ele>7.0</ele><time>2012-05-02T10:57:45.0000000+00:00</time></trkpt><trkpt lat="42.515121" lon="18.693916"><ele>7.2</ele><time>2012-05-02T10:57:50.0000000+00:00</time></trkpt><trkpt lat="42.514847" lon="18.694141"><ele>6.1</ele><time>2012-05-02T10:57:55.0000000+00:00</time></trkpt><trkpt lat="42.514565" lon="18.694361"><ele>5.9</ele><time>2012-05-02T10:58:00.0000000+00:00</time></trkpt><trkpt lat="42.514294" lon="18.694544"><ele>6.3</ele><time>2012-05-02T10:58:05.0000000+00:00</time></trkpt><trkpt lat="42.51405" lon="18.694695"><ele>6.0</ele><time>2012-05-02T10:58:10.0000000+00:00</time></trkpt><trkpt lat="42.513908" lon="18.694767"><ele>5.5</ele><time>2012-05-02T10:58:15.0000000+00:00</time></trkpt><trkpt lat="42.513882" lon="18.694809"><ele>4.4</ele><time>2012-05-02T10:58:20.0000000+00:00</time></trkpt><trkpt lat="42.513878" lon="18.694799"><ele>4.0</ele><time>2012-05-02T10:58:25.0000000+00:00</time></trkpt><trkpt lat="42.513878" lon="18.694799"><ele>4.0</ele><time>2012-05-02T10:58:30.0000000+00:00</time></trkpt><trkpt lat="42.513882" lon="18.694799"><ele>3.9</ele><time>2012-05-02T10:58:35.0000000+00:00</time></trkpt><trkpt lat="42.513882" lon="18.694799"><ele>3.8</ele><time>2012-05-02T10:58:40.0000000+00:00</time></trkpt><trkpt lat="42.513878" lon="18.694818"><ele>3.3</ele><time>2012-05-02T10:58:45.0000000+00:00</time></trkpt><trkpt lat="42.513916" lon="18.694874"><ele>1.9</ele><time>2012-05-02T10:58:50.0000000+00:00</time></trkpt><trkpt lat="42.514023" lon="18.694818"><ele>-1.2</ele><time>2012-05-02T10:58:55.0000000+00:00</time></trkpt><trkpt lat="42.514141" lon="18.694771"><ele>-2.0</ele><time>2012-05-02T10:59:00.0000000+00:00</time></trkpt><trkpt lat="42.514259" lon="18.694725"><ele>-2.1</ele><time>2012-05-02T10:59:05.0000000+00:00</time></trkpt><trkpt lat="42.514339" lon="18.694767"><ele>-2.4</ele><time>2012-05-02T10:59:10.0000000+00:00</time></trkpt><trkpt lat="42.514416" lon="18.694862"><ele>-2.3</ele><time>2012-05-02T10:59:15.0000000+00:00</time></trkpt><trkpt lat="42.514431" lon="18.695"><ele>-1.5</ele><time>2012-05-02T10:59:20.0000000+00:00</time></trkpt><trkpt lat="42.514431" lon="18.695158"><ele>-0.3</ele><time>2012-05-02T10:59:25.0000000+00:00</time></trkpt><trkpt lat="42.514439" lon="18.695257"><ele>1.8</ele><time>2012-05-02T10:59:30.0000000+00:00</time></trkpt><trkpt lat="42.514435" lon="18.695282"><ele>3.8</ele><time>2012-05-02T10:59:35.0000000+00:00</time></trkpt><trkpt lat="42.514462" lon="18.695311"><ele>5.4</ele><time>2012-05-02T10:59:40.0000000+00:00</time></trkpt><trkpt lat="42.514488" lon="18.695339"><ele>7.1</ele><time>2012-05-02T10:59:45.0000000+00:00</time></trkpt><trkpt lat="42.514511" lon="18.695381"><ele>8.7</ele><time>2012-05-02T10:59:50.0000000+00:00</time></trkpt><trkpt lat="42.514549" lon="18.695488"><ele>9.9</ele><time>2012-05-02T10:59:55.0000000+00:00</time></trkpt><trkpt lat="42.514565" lon="18.695583"><ele>11.4</ele><time>2012-05-02T11:00:00.0000000+00:00</time></trkpt><trkpt lat="42.514595" lon="18.695667"><ele>12.9</ele><time>2012-05-02T11:00:05.0000000+00:00</time></trkpt><trkpt lat="42.514606" lon="18.695784"><ele>14.2</ele><time>2012-05-02T11:00:10.0000000+00:00</time></trkpt><trkpt lat="42.514633" lon="18.695879"><ele>15.5</ele><time>2012-05-02T11:00:15.0000000+00:00</time></trkpt><trkpt lat="42.514652" lon="18.695942"><ele>16.3</ele><time>2012-05-02T11:00:20.0000000+00:00</time></trkpt><trkpt lat="42.514656" lon="18.696049"><ele>17.4</ele><time>2012-05-02T11:00:25.0000000+00:00</time></trkpt><trkpt lat="42.514671" lon="18.696138"><ele>18.5</ele><time>2012-05-02T11:00:30.0000000+00:00</time></trkpt><trkpt lat="42.514698" lon="18.696186"><ele>19.6</ele><time>2012-05-02T11:00:35.0000000+00:00</time></trkpt><trkpt lat="42.514687" lon="18.696182"><ele>20.3</ele><time>2012-05-02T11:00:40.0000000+00:00</time></trkpt><trkpt lat="42.514698" lon="18.696192"><ele>20.7</ele><time>2012-05-02T11:00:45.0000000+00:00</time></trkpt><trkpt lat="42.514702" lon="18.696203"><ele>21.6</ele><time>2012-05-02T11:00:50.0000000+00:00</time></trkpt><trkpt lat="42.514709" lon="18.696215"><ele>22.0</ele><time>2012-05-02T11:00:55.0000000+00:00</time></trkpt><trkpt lat="42.514713" lon="18.696228"><ele>21.9</ele><time>2012-05-02T11:01:00.0000000+00:00</time></trkpt><trkpt lat="42.514732" lon="18.696253"><ele>21.0</ele><time>2012-05-02T11:01:05.0000000+00:00</time></trkpt><trkpt lat="42.51474" lon="18.696264"><ele>20.9</ele><time>2012-05-02T11:01:10.0000000+00:00</time></trkpt><trkpt lat="42.514748" lon="18.69627"><ele>20.9</ele><time>2012-05-02T11:01:15.0000000+00:00</time></trkpt><trkpt lat="42.514755" lon="18.696276"><ele>20.9</ele><time>2012-05-02T11:01:20.0000000+00:00</time></trkpt><trkpt lat="42.514759" lon="18.69628"><ele>20.9</ele><time>2012-05-02T11:01:25.0000000+00:00</time></trkpt><trkpt lat="42.514767" lon="18.696285"><ele>20.8</ele><time>2012-05-02T11:01:30.0000000+00:00</time></trkpt><trkpt lat="42.514801" lon="18.69631"><ele>21.6</ele><time>2012-05-02T11:01:35.0000000+00:00</time></trkpt><trkpt lat="42.514816" lon="18.696331"><ele>22.9</ele><time>2012-05-02T11:01:40.0000000+00:00</time></trkpt><trkpt lat="42.514851" lon="18.69635"><ele>24.0</ele><time>2012-05-02T11:01:45.0000000+00:00</time></trkpt><trkpt lat="42.514904" lon="18.696386"><ele>25.2</ele><time>2012-05-02T11:01:50.0000000+00:00</time></trkpt><trkpt lat="42.514973" lon="18.696424"><ele>26.1</ele><time>2012-05-02T11:01:55.0000000+00:00</time></trkpt><trkpt lat="42.515007" lon="18.696445"><ele>27.0</ele><time>2012-05-02T11:02:00.0000000+00:00</time></trkpt><trkpt lat="42.515057" lon="18.696472"><ele>27.9</ele><time>2012-05-02T11:02:05.0000000+00:00</time></trkpt><trkpt lat="42.515045" lon="18.696447"><ele>29.0</ele><time>2012-05-02T11:02:10.0000000+00:00</time></trkpt><trkpt lat="42.514988" lon="18.696375"><ele>28.9</ele><time>2012-05-02T11:02:15.0000000+00:00</time></trkpt><trkpt lat="42.514988" lon="18.696371"><ele>29.0</ele><time>2012-05-02T11:02:20.0000000+00:00</time></trkpt><trkpt lat="42.51495" lon="18.696302"><ele>28.0</ele><time>2012-05-02T11:02:25.0000000+00:00</time></trkpt><trkpt lat="42.514904" lon="18.696241"><ele>27.1</ele><time>2012-05-02T11:02:30.0000000+00:00</time></trkpt><trkpt lat="42.514866" lon="18.696196"><ele>25.8</ele><time>2012-05-02T11:02:35.0000000+00:00</time></trkpt><trkpt lat="42.514847" lon="18.696184"><ele>24.2</ele><time>2012-05-02T11:02:40.0000000+00:00</time></trkpt><trkpt lat="42.514843" lon="18.696199"><ele>22.5</ele><time>2012-05-02T11:02:45.0000000+00:00</time></trkpt><trkpt lat="42.514881" lon="18.69627"><ele>20.6</ele><time>2012-05-02T11:02:50.0000000+00:00</time></trkpt><trkpt lat="42.51487" lon="18.696276"><ele>20.4</ele><time>2012-05-02T11:02:55.0000000+00:00</time></trkpt><trkpt lat="42.514862" lon="18.696285"><ele>20.2</ele><time>2012-05-02T11:03:00.0000000+00:00</time></trkpt><trkpt lat="42.514851" lon="18.696295"><ele>20.0</ele><time>2012-05-02T11:03:05.0000000+00:00</time></trkpt><trkpt lat="42.514843" lon="18.696306"><ele>19.8</ele><time>2012-05-02T11:03:10.0000000+00:00</time></trkpt><trkpt lat="42.514835" lon="18.696318"><ele>19.6</ele><time>2012-05-02T11:03:15.0000000+00:00</time></trkpt><trkpt lat="42.514824" lon="18.696337"><ele>19.4</ele><time>2012-05-02T11:03:20.0000000+00:00</time></trkpt><trkpt lat="42.514786" lon="18.69636"><ele>19.2</ele><time>2012-05-02T11:03:25.0000000+00:00</time></trkpt><trkpt lat="42.514771" lon="18.696375"><ele>19.0</ele><time>2012-05-02T11:03:30.0000000+00:00</time></trkpt><trkpt lat="42.514748" lon="18.696386"><ele>18.8</ele><time>2012-05-02T11:03:35.0000000+00:00</time></trkpt><trkpt lat="42.514713" lon="18.696388"><ele>18.6</ele><time>2012-05-02T11:03:40.0000000+00:00</time></trkpt><trkpt lat="42.514717" lon="18.696398"><ele>18.3</ele><time>2012-05-02T11:03:45.0000000+00:00</time></trkpt><trkpt lat="42.514713" lon="18.696398"><ele>18.1</ele><time>2012-05-02T11:03:50.0000000+00:00</time></trkpt><trkpt lat="42.51469" lon="18.696409"><ele>17.9</ele><time>2012-05-02T11:03:55.0000000+00:00</time></trkpt><trkpt lat="42.514713" lon="18.696394"><ele>17.7</ele><time>2012-05-02T11:04:00.0000000+00:00</time></trkpt><trkpt lat="42.514736" lon="18.696398"><ele>17.5</ele><time>2012-05-02T11:04:05.0000000+00:00</time></trkpt><trkpt lat="42.514736" lon="18.6964"><ele>17.3</ele><time>2012-05-02T11:04:10.0000000+00:00</time></trkpt><trkpt lat="42.51474" lon="18.696404"><ele>17.1</ele><time>2012-05-02T11:04:15.0000000+00:00</time></trkpt><trkpt lat="42.514748" lon="18.696404"><ele>16.9</ele><time>2012-05-02T11:04:20.0000000+00:00</time></trkpt><trkpt lat="42.514782" lon="18.696394"><ele>16.7</ele><time>2012-05-02T11:04:25.0000000+00:00</time></trkpt><trkpt lat="42.514812" lon="18.696386"><ele>16.6</ele><time>2012-05-02T11:04:30.0000000+00:00</time></trkpt><trkpt lat="42.514835" lon="18.696377"><ele>16.5</ele><time>2012-05-02T11:04:35.0000000+00:00</time></trkpt><trkpt lat="42.514854" lon="18.696352"><ele>16.4</ele><time>2012-05-02T11:04:40.0000000+00:00</time></trkpt><trkpt lat="42.514889" lon="18.696341"><ele>16.4</ele><time>2012-05-02T11:04:45.0000000+00:00</time></trkpt><trkpt lat="42.514885" lon="18.696337"><ele>16.3</ele><time>2012-05-02T11:04:50.0000000+00:00</time></trkpt><trkpt lat="42.51487" lon="18.696363"><ele>16.3</ele><time>2012-05-02T11:04:55.0000000+00:00</time></trkpt><trkpt lat="42.51487" lon="18.696362"><ele>16.2</ele><time>2012-05-02T11:05:00.0000000+00:00</time></trkpt><trkpt lat="42.514881" lon="18.696362"><ele>16.1</ele><time>2012-05-02T11:05:05.0000000+00:00</time></trkpt><trkpt lat="42.514889" lon="18.696363"><ele>16.0</ele><time>2012-05-02T11:05:10.0000000+00:00</time></trkpt><trkpt lat="42.5149" lon="18.696367"><ele>15.9</ele><time>2012-05-02T11:05:15.0000000+00:00</time></trkpt><trkpt lat="42.514908" lon="18.696371"><ele>15.8</ele><time>2012-05-02T11:05:20.0000000+00:00</time></trkpt><trkpt lat="42.514915" lon="18.696381"><ele>15.7</ele><time>2012-05-02T11:05:25.0000000+00:00</time></trkpt><trkpt lat="42.514915" lon="18.69639"><ele>15.6</ele><time>2012-05-02T11:05:30.0000000+00:00</time></trkpt><trkpt lat="42.514912" lon="18.696396"><ele>15.5</ele><time>2012-05-02T11:05:35.0000000+00:00</time></trkpt><trkpt lat="42.514904" lon="18.696394"><ele>15.4</ele><time>2012-05-02T11:05:40.0000000+00:00</time></trkpt><trkpt lat="42.514896" lon="18.69639"><ele>15.3</ele><time>2012-05-02T11:05:45.0000000+00:00</time></trkpt><trkpt lat="42.514889" lon="18.696383"><ele>15.2</ele><time>2012-05-02T11:05:50.0000000+00:00</time></trkpt><trkpt lat="42.514885" lon="18.696379"><ele>15.1</ele><time>2012-05-02T11:05:55.0000000+00:00</time></trkpt><trkpt lat="42.514874" lon="18.696375"><ele>15.0</ele><time>2012-05-02T11:06:00.0000000+00:00</time></trkpt><trkpt lat="42.514812" lon="18.696379"><ele>15.0</ele><time>2012-05-02T11:06:05.0000000+00:00</time></trkpt><trkpt lat="42.514782" lon="18.696388"><ele>15.0</ele><time>2012-05-02T11:06:10.0000000+00:00</time></trkpt><trkpt lat="42.514763" lon="18.696392"><ele>15.0</ele><time>2012-05-02T11:06:15.0000000+00:00</time></trkpt><trkpt lat="42.514748" lon="18.696386"><ele>15.0</ele><time>2012-05-02T11:06:20.0000000+00:00</time></trkpt><trkpt lat="42.514748" lon="18.696383"><ele>15.0</ele><time>2012-05-02T11:06:25.0000000+00:00</time></trkpt><trkpt lat="42.514744" lon="18.696377"><ele>15.0</ele><time>2012-05-02T11:06:30.0000000+00:00</time></trkpt><trkpt lat="42.51474" lon="18.696373"><ele>15.0</ele><time>2012-05-02T11:06:35.0000000+00:00</time></trkpt><trkpt lat="42.514736" lon="18.696373"><ele>15.0</ele><time>2012-05-02T11:06:40.0000000+00:00</time></trkpt><trkpt lat="42.514748" lon="18.696373"><ele>14.9</ele><time>2012-05-02T11:06:45.0000000+00:00</time></trkpt><trkpt lat="42.514759" lon="18.696371"><ele>14.9</ele><time>2012-05-02T11:06:50.0000000+00:00</time></trkpt><trkpt lat="42.514801" lon="18.696383"><ele>14.9</ele><time>2012-05-02T11:06:55.0000000+00:00</time></trkpt><trkpt lat="42.514843" lon="18.696398"><ele>15.0</ele><time>2012-05-02T11:07:00.0000000+00:00</time></trkpt><trkpt lat="42.514828" lon="18.696373"><ele>15.2</ele><time>2012-05-02T11:07:05.0000000+00:00</time></trkpt><trkpt lat="42.51482" lon="18.696388"><ele>15.4</ele><time>2012-05-02T11:07:10.0000000+00:00</time></trkpt><trkpt lat="42.514774" lon="18.696404"><ele>15.3</ele><time>2012-05-02T11:07:15.0000000+00:00</time></trkpt><trkpt lat="42.514751" lon="18.696428"><ele>15.3</ele><time>2012-05-02T11:07:20.0000000+00:00</time></trkpt><trkpt lat="42.514755" lon="18.696503"><ele>15.2</ele><time>2012-05-02T11:07:25.0000000+00:00</time></trkpt><trkpt lat="42.51474" lon="18.696566"><ele>15.3</ele><time>2012-05-02T11:07:30.0000000+00:00</time></trkpt><trkpt lat="42.514763" lon="18.696627"><ele>15.3</ele><time>2012-05-02T11:07:35.0000000+00:00</time></trkpt><trkpt lat="42.514648" lon="18.696705"><ele>15.6</ele><time>2012-05-02T11:07:40.0000000+00:00</time></trkpt><trkpt lat="42.514503" lon="18.696815"><ele>16.9</ele><time>2012-05-02T11:07:45.0000000+00:00</time></trkpt><trkpt lat="42.514393" lon="18.696907"><ele>19.2</ele><time>2012-05-02T11:07:50.0000000+00:00</time></trkpt><trkpt lat="42.514317" lon="18.696955"><ele>21.4</ele><time>2012-05-02T11:07:55.0000000+00:00</time></trkpt><trkpt lat="42.51421" lon="18.69697"><ele>22.6</ele><time>2012-05-02T11:08:00.0000000+00:00</time></trkpt><trkpt lat="42.514103" lon="18.696947"><ele>20.8</ele><time>2012-05-02T11:08:05.0000000+00:00</time></trkpt><trkpt lat="42.514107" lon="18.696875"><ele>19.7</ele><time>2012-05-02T11:08:10.0000000+00:00</time></trkpt><trkpt lat="42.514061" lon="18.69692"><ele>21.4</ele><time>2012-05-02T11:08:15.0000000+00:00</time></trkpt><trkpt lat="42.514103" lon="18.697035"><ele>21.0</ele><time>2012-05-02T11:08:20.0000000+00:00</time></trkpt><trkpt lat="42.514137" lon="18.697046"><ele>20.8</ele><time>2012-05-02T11:08:25.0000000+00:00</time></trkpt><trkpt lat="42.514191" lon="18.696978"><ele>19.7</ele><time>2012-05-02T11:08:30.0000000+00:00</time></trkpt><trkpt lat="42.514286" lon="18.696997"><ele>18.8</ele><time>2012-05-02T11:08:35.0000000+00:00</time></trkpt><trkpt lat="42.514343" lon="18.697016"><ele>17.8</ele><time>2012-05-02T11:08:40.0000000+00:00</time></trkpt><trkpt lat="42.514328" lon="18.69706"><ele>19.5</ele><time>2012-05-02T11:08:45.0000000+00:00</time></trkpt><trkpt lat="42.514328" lon="18.697069"><ele>19.5</ele><time>2012-05-02T11:08:50.0000000+00:00</time></trkpt><trkpt lat="42.514328" lon="18.697073"><ele>19.5</ele><time>2012-05-02T11:08:55.0000000+00:00</time></trkpt><trkpt lat="42.5145" lon="18.696947"><ele>17.4</ele><time>2012-05-02T11:09:00.0000000+00:00</time></trkpt><trkpt lat="42.514687" lon="18.696842"><ele>16.8</ele><time>2012-05-02T11:09:05.0000000+00:00</time></trkpt><trkpt lat="42.514774" lon="18.696768"><ele>16.7</ele><time>2012-05-02T11:09:10.0000000+00:00</time></trkpt><trkpt lat="42.51479" lon="18.696741"><ele>16.4</ele><time>2012-05-02T11:09:15.0000000+00:00</time></trkpt><trkpt lat="42.514809" lon="18.696735"><ele>16.3</ele><time>2012-05-02T11:09:20.0000000+00:00</time></trkpt><trkpt lat="42.514816" lon="18.696726"><ele>16.1</ele><time>2012-05-02T11:09:25.0000000+00:00</time></trkpt><trkpt lat="42.514816" lon="18.696718"><ele>16.1</ele><time>2012-05-02T11:09:30.0000000+00:00</time></trkpt><trkpt lat="42.51482" lon="18.696701"><ele>16.1</ele><time>2012-05-02T11:09:35.0000000+00:00</time></trkpt><trkpt lat="42.514812" lon="18.69664"><ele>17.3</ele><time>2012-05-02T11:09:40.0000000+00:00</time></trkpt><trkpt lat="42.514847" lon="18.696503"><ele>17.8</ele><time>2012-05-02T11:09:45.0000000+00:00</time></trkpt><trkpt lat="42.514893" lon="18.696383"><ele>19.1</ele><time>2012-05-02T11:09:50.0000000+00:00</time></trkpt><trkpt lat="42.514847" lon="18.696333"><ele>19.9</ele><time>2012-05-02T11:09:55.0000000+00:00</time></trkpt><trkpt lat="42.51482" lon="18.696228"><ele>20.8</ele><time>2012-05-02T11:10:00.0000000+00:00</time></trkpt><trkpt lat="42.514893" lon="18.696024"><ele>22.9</ele><time>2012-05-02T11:10:05.0000000+00:00</time></trkpt><trkpt lat="42.51487" lon="18.695921"><ele>25.7</ele><time>2012-05-02T11:10:10.0000000+00:00</time></trkpt><trkpt lat="42.514816" lon="18.695873"><ele>29.1</ele><time>2012-05-02T11:10:15.0000000+00:00</time></trkpt><trkpt lat="42.514797" lon="18.695847"><ele>31.9</ele><time>2012-05-02T11:10:20.0000000+00:00</time></trkpt><trkpt lat="42.514797" lon="18.695852"><ele>34.4</ele><time>2012-05-02T11:10:25.0000000+00:00</time></trkpt><trkpt lat="42.514736" lon="18.695717"><ele>35.9</ele><time>2012-05-02T11:10:30.0000000+00:00</time></trkpt><trkpt lat="42.514622" lon="18.695728"><ele>38.3</ele><time>2012-05-02T11:10:35.0000000+00:00</time></trkpt><trkpt lat="42.514568" lon="18.695738"><ele>40.4</ele><time>2012-05-02T11:10:40.0000000+00:00</time></trkpt><trkpt lat="42.514557" lon="18.695723"><ele>41.8</ele><time>2012-05-02T11:10:45.0000000+00:00</time></trkpt><trkpt lat="42.51442" lon="18.695723"><ele>42.4</ele><time>2012-05-02T11:10:50.0000000+00:00</time></trkpt><trkpt lat="42.514378" lon="18.695677"><ele>42.5</ele><time>2012-05-02T11:10:55.0000000+00:00</time></trkpt><trkpt lat="42.514359" lon="18.695639"><ele>42.3</ele><time>2012-05-02T11:11:00.0000000+00:00</time></trkpt><trkpt lat="42.514252" lon="18.69561"><ele>41.0</ele><time>2012-05-02T11:11:05.0000000+00:00</time></trkpt><trkpt lat="42.514324" lon="18.695629"><ele>39.8</ele><time>2012-05-02T11:11:10.0000000+00:00</time></trkpt><trkpt lat="42.514156" lon="18.695709"><ele>41.8</ele><time>2012-05-02T11:11:15.0000000+00:00</time></trkpt><trkpt lat="42.514099" lon="18.695677"><ele>42.5</ele><time>2012-05-02T11:11:20.0000000+00:00</time></trkpt><trkpt lat="42.514084" lon="18.695675"><ele>40.7</ele><time>2012-05-02T11:11:25.0000000+00:00</time></trkpt><trkpt lat="42.514" lon="18.695763"><ele>37.1</ele><time>2012-05-02T11:11:30.0000000+00:00</time></trkpt><trkpt lat="42.513912" lon="18.695868"><ele>36.1</ele><time>2012-05-02T11:11:35.0000000+00:00</time></trkpt><trkpt lat="42.513817" lon="18.69593"><ele>33.7</ele><time>2012-05-02T11:11:40.0000000+00:00</time></trkpt><trkpt lat="42.51376" lon="18.695992"><ele>32.6</ele><time>2012-05-02T11:11:45.0000000+00:00</time></trkpt><trkpt lat="42.513767" lon="18.695934"><ele>28.5</ele><time>2012-05-02T11:11:50.0000000+00:00</time></trkpt><trkpt lat="42.513741" lon="18.695917"><ele>25.7</ele><time>2012-05-02T11:11:55.0000000+00:00</time></trkpt><trkpt lat="42.513657" lon="18.695885"><ele>23.9</ele><time>2012-05-02T11:12:00.0000000+00:00</time></trkpt><trkpt lat="42.513649" lon="18.695837"><ele>21.9</ele><time>2012-05-02T11:12:05.0000000+00:00</time></trkpt><trkpt lat="42.513645" lon="18.695822"><ele>21.1</ele><time>2012-05-02T11:12:10.0000000+00:00</time></trkpt><trkpt lat="42.513638" lon="18.695805"><ele>19.7</ele><time>2012-05-02T11:12:15.0000000+00:00</time></trkpt><trkpt lat="42.513638" lon="18.695807"><ele>19.2</ele><time>2012-05-02T11:12:20.0000000+00:00</time></trkpt><trkpt lat="42.51363" lon="18.695807"><ele>19.1</ele><time>2012-05-02T11:12:25.0000000+00:00</time></trkpt><trkpt lat="42.513592" lon="18.695799"><ele>18.3</ele><time>2012-05-02T11:12:30.0000000+00:00</time></trkpt><trkpt lat="42.513542" lon="18.695841"><ele>17.0</ele><time>2012-05-02T11:12:35.0000000+00:00</time></trkpt><trkpt lat="42.513512" lon="18.695866"><ele>15.2</ele><time>2012-05-02T11:12:40.0000000+00:00</time></trkpt><trkpt lat="42.513493" lon="18.695862"><ele>15.2</ele><time>2012-05-02T11:12:45.0000000+00:00</time></trkpt><trkpt lat="42.513489" lon="18.695862"><ele>15.2</ele><time>2012-05-02T11:12:50.0000000+00:00</time></trkpt><trkpt lat="42.513485" lon="18.695856"><ele>15.2</ele><time>2012-05-02T11:12:55.0000000+00:00</time></trkpt><trkpt lat="42.513474" lon="18.695852"><ele>15.2</ele><time>2012-05-02T11:13:00.0000000+00:00</time></trkpt><trkpt lat="42.51347" lon="18.69585"><ele>15.3</ele><time>2012-05-02T11:13:05.0000000+00:00</time></trkpt><trkpt lat="42.513466" lon="18.695848"><ele>15.3</ele><time>2012-05-02T11:13:10.0000000+00:00</time></trkpt><trkpt lat="42.513458" lon="18.695852"><ele>15.3</ele><time>2012-05-02T11:13:15.0000000+00:00</time></trkpt><trkpt lat="42.513454" lon="18.695858"><ele>15.3</ele><time>2012-05-02T11:13:20.0000000+00:00</time></trkpt><trkpt lat="42.513432" lon="18.695869"><ele>15.0</ele><time>2012-05-02T11:13:25.0000000+00:00</time></trkpt><trkpt lat="42.513416" lon="18.695879"><ele>14.3</ele><time>2012-05-02T11:13:30.0000000+00:00</time></trkpt><trkpt lat="42.513405" lon="18.695892"><ele>13.7</ele><time>2012-05-02T11:13:35.0000000+00:00</time></trkpt><trkpt lat="42.513401" lon="18.695898"><ele>13.5</ele><time>2012-05-02T11:13:40.0000000+00:00</time></trkpt><trkpt lat="42.513397" lon="18.695904"><ele>13.2</ele><time>2012-05-02T11:13:45.0000000+00:00</time></trkpt><trkpt lat="42.513393" lon="18.695911"><ele>12.9</ele><time>2012-05-02T11:13:50.0000000+00:00</time></trkpt><trkpt lat="42.51339" lon="18.695917"><ele>12.4</ele><time>2012-05-02T11:13:55.0000000+00:00</time></trkpt><trkpt lat="42.513393" lon="18.695919"><ele>11.8</ele><time>2012-05-02T11:14:00.0000000+00:00</time></trkpt><trkpt lat="42.513393" lon="18.695921"><ele>11.0</ele><time>2012-05-02T11:14:05.0000000+00:00</time></trkpt><trkpt lat="42.513397" lon="18.695921"><ele>10.9</ele><time>2012-05-02T11:14:10.0000000+00:00</time></trkpt><trkpt lat="42.513397" lon="18.695921"><ele>10.9</ele><time>2012-05-02T11:14:15.0000000+00:00</time></trkpt><trkpt lat="42.513397" lon="18.695921"><ele>10.8</ele><time>2012-05-02T11:14:20.0000000+00:00</time></trkpt><trkpt lat="42.513397" lon="18.695921"><ele>10.7</ele><time>2012-05-02T11:14:25.0000000+00:00</time></trkpt><trkpt lat="42.513397" lon="18.695921"><ele>10.6</ele><time>2012-05-02T11:14:30.0000000+00:00</time></trkpt><trkpt lat="42.513397" lon="18.695921"><ele>10.6</ele><time>2012-05-02T11:14:35.0000000+00:00</time></trkpt><trkpt lat="42.513397" lon="18.695919"><ele>10.5</ele><time>2012-05-02T11:14:40.0000000+00:00</time></trkpt><trkpt lat="42.513401" lon="18.695919"><ele>10.4</ele><time>2012-05-02T11:14:45.0000000+00:00</time></trkpt><trkpt lat="42.513397" lon="18.695917"><ele>10.4</ele><time>2012-05-02T11:14:50.0000000+00:00</time></trkpt><trkpt lat="42.513401" lon="18.695917"><ele>10.2</ele><time>2012-05-02T11:14:55.0000000+00:00</time></trkpt><trkpt lat="42.513401" lon="18.695917"><ele>10.0</ele><time>2012-05-02T11:15:00.0000000+00:00</time></trkpt><trkpt lat="42.513401" lon="18.695915"><ele>9.8</ele><time>2012-05-02T11:15:05.0000000+00:00</time></trkpt><trkpt lat="42.513405" lon="18.695915"><ele>9.7</ele><time>2012-05-02T11:15:10.0000000+00:00</time></trkpt><trkpt lat="42.513405" lon="18.695915"><ele>9.6</ele><time>2012-05-02T11:15:15.0000000+00:00</time></trkpt><trkpt lat="42.513405" lon="18.695913"><ele>9.5</ele><time>2012-05-02T11:15:20.0000000+00:00</time></trkpt><trkpt lat="42.513405" lon="18.695913"><ele>9.4</ele><time>2012-05-02T11:15:25.0000000+00:00</time></trkpt><trkpt lat="42.513405" lon="18.695913"><ele>9.3</ele><time>2012-05-02T11:15:30.0000000+00:00</time></trkpt><trkpt lat="42.513405" lon="18.695913"><ele>9.2</ele><time>2012-05-02T11:15:35.0000000+00:00</time></trkpt><trkpt lat="42.513405" lon="18.695913"><ele>9.1</ele><time>2012-05-02T11:15:40.0000000+00:00</time></trkpt><trkpt lat="42.513405" lon="18.695913"><ele>9.0</ele><time>2012-05-02T11:15:45.0000000+00:00</time></trkpt><trkpt lat="42.513405" lon="18.695913"><ele>8.9</ele><time>2012-05-02T11:15:50.0000000+00:00</time></trkpt><trkpt lat="42.513405" lon="18.695913"><ele>8.9</ele><time>2012-05-02T11:15:55.0000000+00:00</time></trkpt><trkpt lat="42.513405" lon="18.695911"><ele>8.8</ele><time>2012-05-02T11:16:00.0000000+00:00</time></trkpt><trkpt lat="42.513405" lon="18.695911"><ele>8.8</ele><time>2012-05-02T11:16:05.0000000+00:00</time></trkpt><trkpt lat="42.513405" lon="18.695911"><ele>8.7</ele><time>2012-05-02T11:16:10.0000000+00:00</time></trkpt><trkpt lat="42.513405" lon="18.69591"><ele>8.7</ele><time>2012-05-02T11:16:15.0000000+00:00</time></trkpt><trkpt lat="42.513405" lon="18.69591"><ele>8.6</ele><time>2012-05-02T11:16:20.0000000+00:00</time></trkpt><trkpt lat="42.513405" lon="18.69591"><ele>8.6</ele><time>2012-05-02T11:16:25.0000000+00:00</time></trkpt><trkpt lat="42.513405" lon="18.69591"><ele>8.6</ele><time>2012-05-02T11:16:30.0000000+00:00</time></trkpt><trkpt lat="42.513409" lon="18.69591"><ele>8.7</ele><time>2012-05-02T11:16:35.0000000+00:00</time></trkpt><trkpt lat="42.513409" lon="18.69591"><ele>8.7</ele><time>2012-05-02T11:16:40.0000000+00:00</time></trkpt><trkpt lat="42.513409" lon="18.695908"><ele>8.7</ele><time>2012-05-02T11:16:45.0000000+00:00</time></trkpt><trkpt lat="42.513409" lon="18.695908"><ele>8.6</ele><time>2012-05-02T11:16:50.0000000+00:00</time></trkpt><trkpt lat="42.513412" lon="18.695908"><ele>8.6</ele><time>2012-05-02T11:16:55.0000000+00:00</time></trkpt><trkpt lat="42.513412" lon="18.695908"><ele>8.5</ele><time>2012-05-02T11:17:00.0000000+00:00</time></trkpt><trkpt lat="42.513412" lon="18.695906"><ele>8.5</ele><time>2012-05-02T11:17:05.0000000+00:00</time></trkpt><trkpt lat="42.513412" lon="18.695906"><ele>8.4</ele><time>2012-05-02T11:17:10.0000000+00:00</time></trkpt><trkpt lat="42.513412" lon="18.695904"><ele>8.3</ele><time>2012-05-02T11:17:15.0000000+00:00</time></trkpt><trkpt lat="42.513412" lon="18.695904"><ele>8.3</ele><time>2012-05-02T11:17:20.0000000+00:00</time></trkpt><trkpt lat="42.513412" lon="18.695904"><ele>8.3</ele><time>2012-05-02T11:17:25.0000000+00:00</time></trkpt><trkpt lat="42.513412" lon="18.695904"><ele>8.3</ele><time>2012-05-02T11:17:30.0000000+00:00</time></trkpt><trkpt lat="42.513412" lon="18.695904"><ele>8.3</ele><time>2012-05-02T11:17:35.0000000+00:00</time></trkpt><trkpt lat="42.513412" lon="18.695904"><ele>8.3</ele><time>2012-05-02T11:17:40.0000000+00:00</time></trkpt><trkpt lat="42.513412" lon="18.695904"><ele>8.4</ele><time>2012-05-02T11:17:45.0000000+00:00</time></trkpt><trkpt lat="42.513412" lon="18.695904"><ele>8.4</ele><time>2012-05-02T11:17:50.0000000+00:00</time></trkpt><trkpt lat="42.513424" lon="18.69586"><ele>9.8</ele><time>2012-05-02T11:17:55.0000000+00:00</time></trkpt><trkpt lat="42.513409" lon="18.695707"><ele>9.2</ele><time>2012-05-02T11:18:00.0000000+00:00</time></trkpt><trkpt lat="42.513439" lon="18.695532"><ele>9.5</ele><time>2012-05-02T11:18:05.0000000+00:00</time></trkpt><trkpt lat="42.513348" lon="18.695414"><ele>8.8</ele><time>2012-05-02T11:18:10.0000000+00:00</time></trkpt><trkpt lat="42.513145" lon="18.6954"><ele>7.6</ele><time>2012-05-02T11:18:15.0000000+00:00</time></trkpt><trkpt lat="42.512981" lon="18.695396"><ele>7.9</ele><time>2012-05-02T11:18:20.0000000+00:00</time></trkpt><trkpt lat="42.512779" lon="18.695547"><ele>8.9</ele><time>2012-05-02T11:18:25.0000000+00:00</time></trkpt><trkpt lat="42.512558" lon="18.695639"><ele>10.0</ele><time>2012-05-02T11:18:30.0000000+00:00</time></trkpt><trkpt lat="42.51236" lon="18.695704"><ele>11.4</ele><time>2012-05-02T11:18:35.0000000+00:00</time></trkpt><trkpt lat="42.51215" lon="18.695738"><ele>12.8</ele><time>2012-05-02T11:18:40.0000000+00:00</time></trkpt><trkpt lat="42.511982" lon="18.695805"><ele>14.6</ele><time>2012-05-02T11:18:45.0000000+00:00</time></trkpt><trkpt lat="42.511738" lon="18.695845"><ele>16.9</ele><time>2012-05-02T11:18:50.0000000+00:00</time></trkpt><trkpt lat="42.511494" lon="18.695906"><ele>18.9</ele><time>2012-05-02T11:18:55.0000000+00:00</time></trkpt><trkpt lat="42.511242" lon="18.695988"><ele>21.0</ele><time>2012-05-02T11:19:00.0000000+00:00</time></trkpt><trkpt lat="42.510952" lon="18.696062"><ele>22.9</ele><time>2012-05-02T11:19:05.0000000+00:00</time></trkpt><trkpt lat="42.510735" lon="18.69619"><ele>24.3</ele><time>2012-05-02T11:19:10.0000000+00:00</time></trkpt><trkpt lat="42.510452" lon="18.696264"><ele>24.0</ele><time>2012-05-02T11:19:15.0000000+00:00</time></trkpt><trkpt lat="42.510174" lon="18.696365"><ele>22.6</ele><time>2012-05-02T11:19:20.0000000+00:00</time></trkpt><trkpt lat="42.509914" lon="18.696491"><ele>22.6</ele><time>2012-05-02T11:19:25.0000000+00:00</time></trkpt><trkpt lat="42.509632" lon="18.696543"><ele>22.7</ele><time>2012-05-02T11:19:30.0000000+00:00</time></trkpt><trkpt lat="42.50938" lon="18.696554"><ele>23.5</ele><time>2012-05-02T11:19:35.0000000+00:00</time></trkpt><trkpt lat="42.509155" lon="18.696545"><ele>25.2</ele><time>2012-05-02T11:19:40.0000000+00:00</time></trkpt><trkpt lat="42.508953" lon="18.696447"><ele>27.7</ele><time>2012-05-02T11:19:45.0000000+00:00</time></trkpt><trkpt lat="42.508644" lon="18.696213"><ele>27.2</ele><time>2012-05-02T11:19:50.0000000+00:00</time></trkpt><trkpt lat="42.508396" lon="18.695993"><ele>25.6</ele><time>2012-05-02T11:19:55.0000000+00:00</time></trkpt><trkpt lat="42.508114" lon="18.695818"><ele>24.9</ele><time>2012-05-02T11:20:00.0000000+00:00</time></trkpt><trkpt lat="42.507793" lon="18.695673"><ele>22.5</ele><time>2012-05-02T11:20:05.0000000+00:00</time></trkpt><trkpt lat="42.507515" lon="18.695545"><ele>19.9</ele><time>2012-05-02T11:20:10.0000000+00:00</time></trkpt><trkpt lat="42.50724" lon="18.695345"><ele>18.6</ele><time>2012-05-02T11:20:15.0000000+00:00</time></trkpt><trkpt lat="42.507008" lon="18.695053"><ele>17.2</ele><time>2012-05-02T11:20:20.0000000+00:00</time></trkpt><trkpt lat="42.506836" lon="18.694799"><ele>16.2</ele><time>2012-05-02T11:20:25.0000000+00:00</time></trkpt><trkpt lat="42.50666" lon="18.694529"><ele>15.2</ele><time>2012-05-02T11:20:30.0000000+00:00</time></trkpt><trkpt lat="42.506512" lon="18.694273"><ele>13.6</ele><time>2012-05-02T11:20:35.0000000+00:00</time></trkpt><trkpt lat="42.506401" lon="18.694096"><ele>12.7</ele><time>2012-05-02T11:20:40.0000000+00:00</time></trkpt><trkpt lat="42.506302" lon="18.693945"><ele>12.1</ele><time>2012-05-02T11:20:45.0000000+00:00</time></trkpt><trkpt lat="42.506191" lon="18.6938"><ele>11.8</ele><time>2012-05-02T11:20:50.0000000+00:00</time></trkpt><trkpt lat="42.506027" lon="18.693657"><ele>11.3</ele><time>2012-05-02T11:20:55.0000000+00:00</time></trkpt><trkpt lat="42.505806" lon="18.693552"><ele>10.9</ele><time>2012-05-02T11:21:00.0000000+00:00</time></trkpt><trkpt lat="42.505569" lon="18.693542"><ele>9.3</ele><time>2012-05-02T11:21:05.0000000+00:00</time></trkpt><trkpt lat="42.505306" lon="18.693638"><ele>7.6</ele><time>2012-05-02T11:21:10.0000000+00:00</time></trkpt><trkpt lat="42.505081" lon="18.693787"><ele>5.6</ele><time>2012-05-02T11:21:15.0000000+00:00</time></trkpt><trkpt lat="42.504818" lon="18.693964"><ele>4.0</ele><time>2012-05-02T11:21:20.0000000+00:00</time></trkpt><trkpt lat="42.504517" lon="18.694149"><ele>1.7</ele><time>2012-05-02T11:21:25.0000000+00:00</time></trkpt><trkpt lat="42.504162" lon="18.694368"><ele>-1.0</ele><time>2012-05-02T11:21:30.0000000+00:00</time></trkpt><trkpt lat="42.50378" lon="18.694498"><ele>-3.6</ele><time>2012-05-02T11:21:35.0000000+00:00</time></trkpt><trkpt lat="42.503403" lon="18.694382"><ele>-5.0</ele><time>2012-05-02T11:21:40.0000000+00:00</time></trkpt><trkpt lat="42.503052" lon="18.694124"><ele>-6.0</ele><time>2012-05-02T11:21:45.0000000+00:00</time></trkpt><trkpt lat="42.502747" lon="18.693806"><ele>-5.6</ele><time>2012-05-02T11:21:50.0000000+00:00</time></trkpt><trkpt lat="42.502617" lon="18.693386"><ele>-5.7</ele><time>2012-05-02T11:21:55.0000000+00:00</time></trkpt><trkpt lat="42.502583" lon="18.692955"><ele>-4.6</ele><time>2012-05-02T11:22:00.0000000+00:00</time></trkpt><trkpt lat="42.502487" lon="18.692545"><ele>-3.4</ele><time>2012-05-02T11:22:05.0000000+00:00</time></trkpt><trkpt lat="42.502296" lon="18.692238"><ele>-3.4</ele><time>2012-05-02T11:22:10.0000000+00:00</time></trkpt><trkpt lat="42.502056" lon="18.692093"><ele>-3.2</ele><time>2012-05-02T11:22:15.0000000+00:00</time></trkpt><trkpt lat="42.501785" lon="18.69208"><ele>-3.4</ele><time>2012-05-02T11:22:20.0000000+00:00</time></trkpt><trkpt lat="42.501495" lon="18.692114"><ele>-3.2</ele><time>2012-05-02T11:22:25.0000000+00:00</time></trkpt><trkpt lat="42.501186" lon="18.69223"><ele>-3.0</ele><time>2012-05-02T11:22:30.0000000+00:00</time></trkpt><trkpt lat="42.500908" lon="18.692451"><ele>-4.0</ele><time>2012-05-02T11:22:35.0000000+00:00</time></trkpt><trkpt lat="42.500614" lon="18.692633"><ele>-4.8</ele><time>2012-05-02T11:22:40.0000000+00:00</time></trkpt><trkpt lat="42.500271" lon="18.692616"><ele>-4.0</ele><time>2012-05-02T11:22:45.0000000+00:00</time></trkpt><trkpt lat="42.499962" lon="18.692486"><ele>-2.1</ele><time>2012-05-02T11:22:50.0000000+00:00</time></trkpt><trkpt lat="42.499668" lon="18.692387"><ele>-0.8</ele><time>2012-05-02T11:22:55.0000000+00:00</time></trkpt><trkpt lat="42.499359" lon="18.692291"><ele>-0.1</ele><time>2012-05-02T11:23:00.0000000+00:00</time></trkpt><trkpt lat="42.498997" lon="18.692221"><ele>0.9</ele><time>2012-05-02T11:23:05.0000000+00:00</time></trkpt><trkpt lat="42.49873" lon="18.692162"><ele>1.4</ele><time>2012-05-02T11:23:10.0000000+00:00</time></trkpt><trkpt lat="42.498497" lon="18.692129"><ele>1.9</ele><time>2012-05-02T11:23:15.0000000+00:00</time></trkpt><trkpt lat="42.498203" lon="18.692078"><ele>2.6</ele><time>2012-05-02T11:23:20.0000000+00:00</time></trkpt><trkpt lat="42.497921" lon="18.692003"><ele>3.4</ele><time>2012-05-02T11:23:25.0000000+00:00</time></trkpt><trkpt lat="42.497681" lon="18.691914"><ele>4.0</ele><time>2012-05-02T11:23:30.0000000+00:00</time></trkpt><trkpt lat="42.497425" lon="18.691763"><ele>4.0</ele><time>2012-05-02T11:23:35.0000000+00:00</time></trkpt><trkpt lat="42.497177" lon="18.691605"><ele>4.8</ele><time>2012-05-02T11:23:40.0000000+00:00</time></trkpt><trkpt lat="42.496933" lon="18.691433"><ele>5.5</ele><time>2012-05-02T11:23:45.0000000+00:00</time></trkpt><trkpt lat="42.496674" lon="18.691259"><ele>6.6</ele><time>2012-05-02T11:23:50.0000000+00:00</time></trkpt><trkpt lat="42.496403" lon="18.691105"><ele>7.2</ele><time>2012-05-02T11:23:55.0000000+00:00</time></trkpt><trkpt lat="42.496105" lon="18.691019"><ele>8.6</ele><time>2012-05-02T11:24:00.0000000+00:00</time></trkpt><trkpt lat="42.495842" lon="18.69099"><ele>9.2</ele><time>2012-05-02T11:24:05.0000000+00:00</time></trkpt><trkpt lat="42.495594" lon="18.691006"><ele>11.0</ele><time>2012-05-02T11:24:10.0000000+00:00</time></trkpt><trkpt lat="42.495323" lon="18.69108"><ele>11.3</ele><time>2012-05-02T11:24:15.0000000+00:00</time></trkpt><trkpt lat="42.495045" lon="18.691248"><ele>12.0</ele><time>2012-05-02T11:24:20.0000000+00:00</time></trkpt><trkpt lat="42.494778" lon="18.691385"><ele>12.2</ele><time>2012-05-02T11:24:25.0000000+00:00</time></trkpt><trkpt lat="42.494522" lon="18.691507"><ele>12.8</ele><time>2012-05-02T11:24:30.0000000+00:00</time></trkpt><trkpt lat="42.494228" lon="18.691513"><ele>12.4</ele><time>2012-05-02T11:24:35.0000000+00:00</time></trkpt><trkpt lat="42.493931" lon="18.691473"><ele>12.7</ele><time>2012-05-02T11:24:40.0000000+00:00</time></trkpt><trkpt lat="42.493652" lon="18.691404"><ele>13.2</ele><time>2012-05-02T11:24:45.0000000+00:00</time></trkpt><trkpt lat="42.493324" lon="18.691418"><ele>13.6</ele><time>2012-05-02T11:24:50.0000000+00:00</time></trkpt><trkpt lat="42.492996" lon="18.691471"><ele>14.3</ele><time>2012-05-02T11:24:55.0000000+00:00</time></trkpt><trkpt lat="42.492664" lon="18.691475"><ele>15.3</ele><time>2012-05-02T11:25:00.0000000+00:00</time></trkpt><trkpt lat="42.492336" lon="18.6915"><ele>14.2</ele><time>2012-05-02T11:25:05.0000000+00:00</time></trkpt><trkpt lat="42.492001" lon="18.691607"><ele>13.4</ele><time>2012-05-02T11:25:10.0000000+00:00</time></trkpt><trkpt lat="42.491665" lon="18.691767"><ele>12.5</ele><time>2012-05-02T11:25:15.0000000+00:00</time></trkpt><trkpt lat="42.491364" lon="18.691929"><ele>11.0</ele><time>2012-05-02T11:25:20.0000000+00:00</time></trkpt><trkpt lat="42.491062" lon="18.692104"><ele>11.2</ele><time>2012-05-02T11:25:25.0000000+00:00</time></trkpt><trkpt lat="42.49081" lon="18.692211"><ele>11.2</ele><time>2012-05-02T11:25:30.0000000+00:00</time></trkpt><trkpt lat="42.490734" lon="18.692284"><ele>10.6</ele><time>2012-05-02T11:25:35.0000000+00:00</time></trkpt><trkpt lat="42.490723" lon="18.692276"><ele>10.4</ele><time>2012-05-02T11:25:40.0000000+00:00</time></trkpt><trkpt lat="42.490723" lon="18.692276"><ele>10.3</ele><time>2012-05-02T11:25:45.0000000+00:00</time></trkpt><trkpt lat="42.490723" lon="18.692278"><ele>10.4</ele><time>2012-05-02T11:25:50.0000000+00:00</time></trkpt><trkpt lat="42.490692" lon="18.692301"><ele>9.8</ele><time>2012-05-02T11:25:55.0000000+00:00</time></trkpt><trkpt lat="42.490627" lon="18.692373"><ele>8.9</ele><time>2012-05-02T11:26:00.0000000+00:00</time></trkpt><trkpt lat="42.490532" lon="18.69245"><ele>7.7</ele><time>2012-05-02T11:26:05.0000000+00:00</time></trkpt><trkpt lat="42.490421" lon="18.692528"><ele>7.1</ele><time>2012-05-02T11:26:10.0000000+00:00</time></trkpt><trkpt lat="42.490387" lon="18.692602"><ele>5.2</ele><time>2012-05-02T11:26:15.0000000+00:00</time></trkpt><trkpt lat="42.490364" lon="18.692625"><ele>5.9</ele><time>2012-05-02T11:26:20.0000000+00:00</time></trkpt><trkpt lat="42.490334" lon="18.692667"><ele>5.5</ele><time>2012-05-02T11:26:25.0000000+00:00</time></trkpt><trkpt lat="42.490303" lon="18.69273"><ele>5.4</ele><time>2012-05-02T11:26:30.0000000+00:00</time></trkpt><trkpt lat="42.490299" lon="18.692764"><ele>5.9</ele><time>2012-05-02T11:26:35.0000000+00:00</time></trkpt><trkpt lat="42.490307" lon="18.692766"><ele>5.9</ele><time>2012-05-02T11:26:40.0000000+00:00</time></trkpt><trkpt lat="42.490307" lon="18.692768"><ele>5.8</ele><time>2012-05-02T11:26:45.0000000+00:00</time></trkpt><trkpt lat="42.490307" lon="18.69277"><ele>5.9</ele><time>2012-05-02T11:26:50.0000000+00:00</time></trkpt><trkpt lat="42.490307" lon="18.69277"><ele>5.8</ele><time>2012-05-02T11:26:55.0000000+00:00</time></trkpt><trkpt lat="42.490307" lon="18.69277"><ele>5.8</ele><time>2012-05-02T11:27:00.0000000+00:00</time></trkpt><trkpt lat="42.490307" lon="18.69277"><ele>5.9</ele><time>2012-05-02T11:27:05.0000000+00:00</time></trkpt><trkpt lat="42.490288" lon="18.692804"><ele>6.5</ele><time>2012-05-02T11:27:10.0000000+00:00</time></trkpt><trkpt lat="42.490189" lon="18.692909"><ele>7.3</ele><time>2012-05-02T11:27:15.0000000+00:00</time></trkpt><trkpt lat="42.490059" lon="18.693022"><ele>7.6</ele><time>2012-05-02T11:27:20.0000000+00:00</time></trkpt><trkpt lat="42.489937" lon="18.693157"><ele>7.6</ele><time>2012-05-02T11:27:25.0000000+00:00</time></trkpt><trkpt lat="42.489803" lon="18.693296"><ele>8.0</ele><time>2012-05-02T11:27:30.0000000+00:00</time></trkpt><trkpt lat="42.489719" lon="18.693378"><ele>8.8</ele><time>2012-05-02T11:27:35.0000000+00:00</time></trkpt><trkpt lat="42.489662" lon="18.693401"><ele>8.8</ele><time>2012-05-02T11:27:40.0000000+00:00</time></trkpt><trkpt lat="42.489658" lon="18.693407"><ele>8.9</ele><time>2012-05-02T11:27:45.0000000+00:00</time></trkpt><trkpt lat="42.489662" lon="18.693407"><ele>8.9</ele><time>2012-05-02T11:27:50.0000000+00:00</time></trkpt><trkpt lat="42.489666" lon="18.693405"><ele>9.0</ele><time>2012-05-02T11:27:55.0000000+00:00</time></trkpt><trkpt lat="42.489666" lon="18.693411"><ele>9.1</ele><time>2012-05-02T11:28:00.0000000+00:00</time></trkpt><trkpt lat="42.48967" lon="18.693415"><ele>9.1</ele><time>2012-05-02T11:28:05.0000000+00:00</time></trkpt><trkpt lat="42.48967" lon="18.693422"><ele>9.2</ele><time>2012-05-02T11:28:10.0000000+00:00</time></trkpt><trkpt lat="42.48967" lon="18.693432"><ele>9.2</ele><time>2012-05-02T11:28:15.0000000+00:00</time></trkpt><trkpt lat="42.48967" lon="18.693434"><ele>9.2</ele><time>2012-05-02T11:28:20.0000000+00:00</time></trkpt><trkpt lat="42.489674" lon="18.693441"><ele>9.3</ele><time>2012-05-02T11:28:25.0000000+00:00</time></trkpt><trkpt lat="42.489674" lon="18.693441"><ele>9.3</ele><time>2012-05-02T11:28:30.0000000+00:00</time></trkpt><trkpt lat="42.48967" lon="18.693445"><ele>9.3</ele><time>2012-05-02T11:28:35.0000000+00:00</time></trkpt><trkpt lat="42.489666" lon="18.693445"><ele>9.3</ele><time>2012-05-02T11:28:40.0000000+00:00</time></trkpt><trkpt lat="42.489666" lon="18.693441"><ele>9.2</ele><time>2012-05-02T11:28:45.0000000+00:00</time></trkpt><trkpt lat="42.489662" lon="18.693443"><ele>9.2</ele><time>2012-05-02T11:28:50.0000000+00:00</time></trkpt><trkpt lat="42.489662" lon="18.693443"><ele>9.2</ele><time>2012-05-02T11:28:55.0000000+00:00</time></trkpt><trkpt lat="42.489662" lon="18.693443"><ele>9.2</ele><time>2012-05-02T11:29:00.0000000+00:00</time></trkpt><trkpt lat="42.489662" lon="18.693443"><ele>9.2</ele><time>2012-05-02T11:29:05.0000000+00:00</time></trkpt><trkpt lat="42.489662" lon="18.693443"><ele>9.2</ele><time>2012-05-02T11:29:10.0000000+00:00</time></trkpt><trkpt lat="42.489666" lon="18.693443"><ele>9.2</ele><time>2012-05-02T11:29:15.0000000+00:00</time></trkpt><trkpt lat="42.489666" lon="18.693443"><ele>9.2</ele><time>2012-05-02T11:29:20.0000000+00:00</time></trkpt><trkpt lat="42.489666" lon="18.693443"><ele>9.2</ele><time>2012-05-02T11:29:25.0000000+00:00</time></trkpt><trkpt lat="42.489666" lon="18.693445"><ele>9.2</ele><time>2012-05-02T11:29:30.0000000+00:00</time></trkpt><trkpt lat="42.489666" lon="18.693445"><ele>9.2</ele><time>2012-05-02T11:29:35.0000000+00:00</time></trkpt><trkpt lat="42.489666" lon="18.693445"><ele>9.2</ele><time>2012-05-02T11:29:40.0000000+00:00</time></trkpt><trkpt lat="42.489666" lon="18.693445"><ele>9.2</ele><time>2012-05-02T11:29:45.0000000+00:00</time></trkpt><trkpt lat="42.489666" lon="18.693445"><ele>9.2</ele><time>2012-05-02T11:29:50.0000000+00:00</time></trkpt><trkpt lat="42.489666" lon="18.693445"><ele>9.2</ele><time>2012-05-02T11:29:55.0000000+00:00</time></trkpt><trkpt lat="42.489666" lon="18.693445"><ele>9.2</ele><time>2012-05-02T11:30:00.0000000+00:00</time></trkpt><trkpt lat="42.489635" lon="18.693529"><ele>9.5</ele><time>2012-05-02T11:30:05.0000000+00:00</time></trkpt><trkpt lat="42.489559" lon="18.693668"><ele>9.1</ele><time>2012-05-02T11:30:10.0000000+00:00</time></trkpt><trkpt lat="42.489483" lon="18.693823"><ele>8.6</ele><time>2012-05-02T11:30:15.0000000+00:00</time></trkpt><trkpt lat="42.489361" lon="18.693996"><ele>9.1</ele><time>2012-05-02T11:30:20.0000000+00:00</time></trkpt><trkpt lat="42.489174" lon="18.694183"><ele>11.0</ele><time>2012-05-02T11:30:25.0000000+00:00</time></trkpt><trkpt lat="42.488949" lon="18.694414"><ele>11.4</ele><time>2012-05-02T11:30:30.0000000+00:00</time></trkpt><trkpt lat="42.488667" lon="18.69463"><ele>12.7</ele><time>2012-05-02T11:30:35.0000000+00:00</time></trkpt><trkpt lat="42.48843" lon="18.694733"><ele>16.2</ele><time>2012-05-02T11:30:40.0000000+00:00</time></trkpt><trkpt lat="42.488262" lon="18.694883"><ele>13.7</ele><time>2012-05-02T11:30:45.0000000+00:00</time></trkpt><trkpt lat="42.488098" lon="18.695034"><ele>11.7</ele><time>2012-05-02T11:30:50.0000000+00:00</time></trkpt><trkpt lat="42.487968" lon="18.695261"><ele>10.6</ele><time>2012-05-02T11:30:55.0000000+00:00</time></trkpt><trkpt lat="42.487915" lon="18.695351"><ele>9.8</ele><time>2012-05-02T11:31:00.0000000+00:00</time></trkpt><trkpt lat="42.48793" lon="18.695339"><ele>8.2</ele><time>2012-05-02T11:31:05.0000000+00:00</time></trkpt><trkpt lat="42.48793" lon="18.695335"><ele>8.1</ele><time>2012-05-02T11:31:10.0000000+00:00</time></trkpt><trkpt lat="42.487919" lon="18.695345"><ele>8.2</ele><time>2012-05-02T11:31:15.0000000+00:00</time></trkpt><trkpt lat="42.487881" lon="18.695393"><ele>8.3</ele><time>2012-05-02T11:31:20.0000000+00:00</time></trkpt><trkpt lat="42.487816" lon="18.695545"><ele>7.2</ele><time>2012-05-02T11:31:25.0000000+00:00</time></trkpt><trkpt lat="42.48777" lon="18.695835"><ele>4.7</ele><time>2012-05-02T11:31:30.0000000+00:00</time></trkpt><trkpt lat="42.487751" lon="18.696106"><ele>2.1</ele><time>2012-05-02T11:31:35.0000000+00:00</time></trkpt><trkpt lat="42.487743" lon="18.696335"><ele>1.0</ele><time>2012-05-02T11:31:40.0000000+00:00</time></trkpt><trkpt lat="42.487709" lon="18.696533"><ele>0.8</ele><time>2012-05-02T11:31:45.0000000+00:00</time></trkpt><trkpt lat="42.487587" lon="18.696749"><ele>-0.7</ele><time>2012-05-02T11:31:50.0000000+00:00</time></trkpt><trkpt lat="42.487404" lon="18.696899"><ele>-0.7</ele><time>2012-05-02T11:31:55.0000000+00:00</time></trkpt><trkpt lat="42.487263" lon="18.697018"><ele>0.2</ele><time>2012-05-02T11:32:00.0000000+00:00</time></trkpt><trkpt lat="42.48716" lon="18.697073"><ele>2.5</ele><time>2012-05-02T11:32:05.0000000+00:00</time></trkpt><trkpt lat="42.486988" lon="18.697147"><ele>3.9</ele><time>2012-05-02T11:32:10.0000000+00:00</time></trkpt><trkpt lat="42.486805" lon="18.697237"><ele>3.1</ele><time>2012-05-02T11:32:15.0000000+00:00</time></trkpt><trkpt lat="42.48666" lon="18.69742"><ele>2.2</ele><time>2012-05-02T11:32:20.0000000+00:00</time></trkpt><trkpt lat="42.486469" lon="18.697578"><ele>4.0</ele><time>2012-05-02T11:32:25.0000000+00:00</time></trkpt><trkpt lat="42.486286" lon="18.697756"><ele>2.0</ele><time>2012-05-02T11:32:30.0000000+00:00</time></trkpt><trkpt lat="42.486126" lon="18.697971"><ele>1.5</ele><time>2012-05-02T11:32:35.0000000+00:00</time></trkpt><trkpt lat="42.486" lon="18.6982"><ele>3.7</ele><time>2012-05-02T11:32:40.0000000+00:00</time></trkpt><trkpt lat="42.485909" lon="18.698399"><ele>5.6</ele><time>2012-05-02T11:32:45.0000000+00:00</time></trkpt><trkpt lat="42.485809" lon="18.698494"><ele>5.7</ele><time>2012-05-02T11:32:50.0000000+00:00</time></trkpt><trkpt lat="42.485729" lon="18.698624"><ele>7.1</ele><time>2012-05-02T11:32:55.0000000+00:00</time></trkpt><trkpt lat="42.485641" lon="18.698799"><ele>11.0</ele><time>2012-05-02T11:33:00.0000000+00:00</time></trkpt><trkpt lat="42.485569" lon="18.699039"><ele>10.7</ele><time>2012-05-02T11:33:05.0000000+00:00</time></trkpt><trkpt lat="42.485455" lon="18.699272"><ele>11.8</ele><time>2012-05-02T11:33:10.0000000+00:00</time></trkpt><trkpt lat="42.485378" lon="18.699488"><ele>12.4</ele><time>2012-05-02T11:33:15.0000000+00:00</time></trkpt><trkpt lat="42.485424" lon="18.699514"><ele>12.1</ele><time>2012-05-02T11:33:20.0000000+00:00</time></trkpt><trkpt lat="42.485466" lon="18.699497"><ele>11.4</ele><time>2012-05-02T11:33:25.0000000+00:00</time></trkpt><trkpt lat="42.485462" lon="18.699507"><ele>12.7</ele><time>2012-05-02T11:33:30.0000000+00:00</time></trkpt><trkpt lat="42.485462" lon="18.699503"><ele>13.1</ele><time>2012-05-02T11:33:35.0000000+00:00</time></trkpt><trkpt lat="42.485458" lon="18.699495"><ele>13.2</ele><time>2012-05-02T11:33:40.0000000+00:00</time></trkpt><trkpt lat="42.485455" lon="18.69949"><ele>13.3</ele><time>2012-05-02T11:33:45.0000000+00:00</time></trkpt><trkpt lat="42.485451" lon="18.699482"><ele>13.3</ele><time>2012-05-02T11:33:50.0000000+00:00</time></trkpt><trkpt lat="42.485447" lon="18.699474"><ele>13.4</ele><time>2012-05-02T11:33:55.0000000+00:00</time></trkpt><trkpt lat="42.485435" lon="18.699455"><ele>13.4</ele><time>2012-05-02T11:34:00.0000000+00:00</time></trkpt><trkpt lat="42.48542" lon="18.699509"><ele>13.3</ele><time>2012-05-02T11:34:05.0000000+00:00</time></trkpt><trkpt lat="42.485371" lon="18.69969"><ele>11.1</ele><time>2012-05-02T11:34:10.0000000+00:00</time></trkpt><trkpt lat="42.485268" lon="18.699879"><ele>10.3</ele><time>2012-05-02T11:34:15.0000000+00:00</time></trkpt><trkpt lat="42.485161" lon="18.700064"><ele>10.6</ele><time>2012-05-02T11:34:20.0000000+00:00</time></trkpt><trkpt lat="42.485069" lon="18.700283"><ele>9.3</ele><time>2012-05-02T11:34:25.0000000+00:00</time></trkpt><trkpt lat="42.485001" lon="18.700575"><ele>8.5</ele><time>2012-05-02T11:34:30.0000000+00:00</time></trkpt><trkpt lat="42.484989" lon="18.700857"><ele>3.9</ele><time>2012-05-02T11:34:35.0000000+00:00</time></trkpt><trkpt lat="42.485016" lon="18.701157"><ele>1.4</ele><time>2012-05-02T11:34:40.0000000+00:00</time></trkpt><trkpt lat="42.485039" lon="18.701435"><ele>-0.4</ele><time>2012-05-02T11:34:45.0000000+00:00</time></trkpt><trkpt lat="42.485043" lon="18.701681"><ele>-2.1</ele><time>2012-05-02T11:34:50.0000000+00:00</time></trkpt><trkpt lat="42.485073" lon="18.701944"><ele>-3.3</ele><time>2012-05-02T11:34:55.0000000+00:00</time></trkpt><trkpt lat="42.485126" lon="18.70229"><ele>-0.7</ele><time>2012-05-02T11:35:00.0000000+00:00</time></trkpt><trkpt lat="42.485191" lon="18.70257"><ele>-0.4</ele><time>2012-05-02T11:35:05.0000000+00:00</time></trkpt><trkpt lat="42.485229" lon="18.702822"><ele>0.5</ele><time>2012-05-02T11:35:10.0000000+00:00</time></trkpt><trkpt lat="42.485199" lon="18.703039"><ele>0.8</ele><time>2012-05-02T11:35:15.0000000+00:00</time></trkpt><trkpt lat="42.485058" lon="18.703236"><ele>1.2</ele><time>2012-05-02T11:35:20.0000000+00:00</time></trkpt><trkpt lat="42.484875" lon="18.703394"><ele>2.5</ele><time>2012-05-02T11:35:25.0000000+00:00</time></trkpt><trkpt lat="42.48468" lon="18.703592"><ele>3.1</ele><time>2012-05-02T11:35:30.0000000+00:00</time></trkpt><trkpt lat="42.484497" lon="18.703802"><ele>3.5</ele><time>2012-05-02T11:35:35.0000000+00:00</time></trkpt><trkpt lat="42.48436" lon="18.704035"><ele>3.8</ele><time>2012-05-02T11:35:40.0000000+00:00</time></trkpt><trkpt lat="42.484238" lon="18.704279"><ele>4.3</ele><time>2012-05-02T11:35:45.0000000+00:00</time></trkpt><trkpt lat="42.4842" lon="18.704573"><ele>5.2</ele><time>2012-05-02T11:35:50.0000000+00:00</time></trkpt><trkpt lat="42.48418" lon="18.704819"><ele>5.7</ele><time>2012-05-02T11:35:55.0000000+00:00</time></trkpt><trkpt lat="42.484154" lon="18.705076"><ele>6.2</ele><time>2012-05-02T11:36:00.0000000+00:00</time></trkpt><trkpt lat="42.484161" lon="18.705467"><ele>5.9</ele><time>2012-05-02T11:36:05.0000000+00:00</time></trkpt><trkpt lat="42.484188" lon="18.705786"><ele>7.6</ele><time>2012-05-02T11:36:10.0000000+00:00</time></trkpt><trkpt lat="42.484268" lon="18.706079"><ele>6.3</ele><time>2012-05-02T11:36:15.0000000+00:00</time></trkpt><trkpt lat="42.48436" lon="18.706379"><ele>6.3</ele><time>2012-05-02T11:36:20.0000000+00:00</time></trkpt><trkpt lat="42.484341" lon="18.70665"><ele>6.2</ele><time>2012-05-02T11:36:25.0000000+00:00</time></trkpt><trkpt lat="42.484303" lon="18.706837"><ele>6.2</ele><time>2012-05-02T11:36:30.0000000+00:00</time></trkpt><trkpt lat="42.484264" lon="18.706976"><ele>6.3</ele><time>2012-05-02T11:36:35.0000000+00:00</time></trkpt><trkpt lat="42.484249" lon="18.707092"><ele>6.3</ele><time>2012-05-02T11:36:40.0000000+00:00</time></trkpt><trkpt lat="42.484249" lon="18.707161"><ele>6.2</ele><time>2012-05-02T11:36:45.0000000+00:00</time></trkpt><trkpt lat="42.484241" lon="18.707174"><ele>5.9</ele><time>2012-05-02T11:36:50.0000000+00:00</time></trkpt><trkpt lat="42.484245" lon="18.707172"><ele>5.7</ele><time>2012-05-02T11:36:55.0000000+00:00</time></trkpt><trkpt lat="42.484241" lon="18.707184"><ele>5.6</ele><time>2012-05-02T11:37:00.0000000+00:00</time></trkpt><trkpt lat="42.484241" lon="18.707193"><ele>5.6</ele><time>2012-05-02T11:37:05.0000000+00:00</time></trkpt><trkpt lat="42.484241" lon="18.707197"><ele>5.6</ele><time>2012-05-02T11:37:10.0000000+00:00</time></trkpt><trkpt lat="42.484241" lon="18.707205"><ele>5.6</ele><time>2012-05-02T11:37:15.0000000+00:00</time></trkpt><trkpt lat="42.484241" lon="18.707214"><ele>5.6</ele><time>2012-05-02T11:37:20.0000000+00:00</time></trkpt><trkpt lat="42.484241" lon="18.70723"><ele>5.5</ele><time>2012-05-02T11:37:25.0000000+00:00</time></trkpt><trkpt lat="42.484234" lon="18.707247"><ele>5.5</ele><time>2012-05-02T11:37:30.0000000+00:00</time></trkpt><trkpt lat="42.48423" lon="18.707253"><ele>5.5</ele><time>2012-05-02T11:37:35.0000000+00:00</time></trkpt><trkpt lat="42.484226" lon="18.707247"><ele>5.5</ele><time>2012-05-02T11:37:40.0000000+00:00</time></trkpt><trkpt lat="42.48423" lon="18.707245"><ele>5.5</ele><time>2012-05-02T11:37:45.0000000+00:00</time></trkpt><trkpt lat="42.484234" lon="18.707245"><ele>5.4</ele><time>2012-05-02T11:37:50.0000000+00:00</time></trkpt><trkpt lat="42.484234" lon="18.707245"><ele>5.4</ele><time>2012-05-02T11:37:55.0000000+00:00</time></trkpt><trkpt lat="42.484234" lon="18.707245"><ele>5.4</ele><time>2012-05-02T11:38:00.0000000+00:00</time></trkpt><trkpt lat="42.484234" lon="18.707245"><ele>5.4</ele><time>2012-05-02T11:38:05.0000000+00:00</time></trkpt><trkpt lat="42.484234" lon="18.707245"><ele>5.4</ele><time>2012-05-02T11:38:10.0000000+00:00</time></trkpt><trkpt lat="42.484234" lon="18.707245"><ele>5.4</ele><time>2012-05-02T11:38:15.0000000+00:00</time></trkpt><trkpt lat="42.484234" lon="18.707243"><ele>5.4</ele><time>2012-05-02T11:38:20.0000000+00:00</time></trkpt><trkpt lat="42.484234" lon="18.707243"><ele>5.4</ele><time>2012-05-02T11:38:25.0000000+00:00</time></trkpt><trkpt lat="42.484234" lon="18.707245"><ele>5.4</ele><time>2012-05-02T11:38:30.0000000+00:00</time></trkpt><trkpt lat="42.484234" lon="18.707243"><ele>5.4</ele><time>2012-05-02T11:38:35.0000000+00:00</time></trkpt><trkpt lat="42.484234" lon="18.707243"><ele>5.4</ele><time>2012-05-02T11:38:40.0000000+00:00</time></trkpt><trkpt lat="42.484234" lon="18.707243"><ele>5.4</ele><time>2012-05-02T11:38:45.0000000+00:00</time></trkpt><trkpt lat="42.484234" lon="18.707243"><ele>5.5</ele><time>2012-05-02T11:38:50.0000000+00:00</time></trkpt><trkpt lat="42.48423" lon="18.707241"><ele>5.5</ele><time>2012-05-02T11:38:55.0000000+00:00</time></trkpt><trkpt lat="42.484234" lon="18.707241"><ele>5.5</ele><time>2012-05-02T11:39:00.0000000+00:00</time></trkpt><trkpt lat="42.484234" lon="18.707241"><ele>5.5</ele><time>2012-05-02T11:39:05.0000000+00:00</time></trkpt><trkpt lat="42.484234" lon="18.707241"><ele>5.6</ele><time>2012-05-02T11:39:10.0000000+00:00</time></trkpt><trkpt lat="42.484234" lon="18.707241"><ele>5.6</ele><time>2012-05-02T11:39:15.0000000+00:00</time></trkpt><trkpt lat="42.484234" lon="18.707241"><ele>5.7</ele><time>2012-05-02T11:39:20.0000000+00:00</time></trkpt><trkpt lat="42.484234" lon="18.707243"><ele>5.7</ele><time>2012-05-02T11:39:25.0000000+00:00</time></trkpt><trkpt lat="42.484234" lon="18.707243"><ele>5.7</ele><time>2012-05-02T11:39:30.0000000+00:00</time></trkpt><trkpt lat="42.484234" lon="18.707243"><ele>5.7</ele><time>2012-05-02T11:39:35.0000000+00:00</time></trkpt><trkpt lat="42.484234" lon="18.707241"><ele>5.7</ele><time>2012-05-02T11:39:40.0000000+00:00</time></trkpt><trkpt lat="42.484234" lon="18.707241"><ele>5.7</ele><time>2012-05-02T11:39:45.0000000+00:00</time></trkpt><trkpt lat="42.484234" lon="18.707239"><ele>5.7</ele><time>2012-05-02T11:39:50.0000000+00:00</time></trkpt><trkpt lat="42.484234" lon="18.707239"><ele>5.6</ele><time>2012-05-02T11:39:55.0000000+00:00</time></trkpt><trkpt lat="42.484234" lon="18.707239"><ele>5.7</ele><time>2012-05-02T11:40:00.0000000+00:00</time></trkpt><trkpt lat="42.484234" lon="18.707239"><ele>5.7</ele><time>2012-05-02T11:40:05.0000000+00:00</time></trkpt><trkpt lat="42.484234" lon="18.707237"><ele>5.7</ele><time>2012-05-02T11:40:10.0000000+00:00</time></trkpt><trkpt lat="42.484234" lon="18.707237"><ele>5.7</ele><time>2012-05-02T11:40:15.0000000+00:00</time></trkpt><trkpt lat="42.484234" lon="18.707237"><ele>5.7</ele><time>2012-05-02T11:40:20.0000000+00:00</time></trkpt><trkpt lat="42.484234" lon="18.707237"><ele>5.7</ele><time>2012-05-02T11:40:25.0000000+00:00</time></trkpt><trkpt lat="42.484234" lon="18.707237"><ele>5.6</ele><time>2012-05-02T11:40:30.0000000+00:00</time></trkpt><trkpt lat="42.48423" lon="18.707237"><ele>5.6</ele><time>2012-05-02T11:40:35.0000000+00:00</time></trkpt><trkpt lat="42.48423" lon="18.707237"><ele>5.7</ele><time>2012-05-02T11:40:40.0000000+00:00</time></trkpt><trkpt lat="42.48423" lon="18.707237"><ele>5.6</ele><time>2012-05-02T11:40:45.0000000+00:00</time></trkpt><trkpt lat="42.48423" lon="18.707237"><ele>5.6</ele><time>2012-05-02T11:40:50.0000000+00:00</time></trkpt><trkpt lat="42.48423" lon="18.707237"><ele>5.6</ele><time>2012-05-02T11:40:55.0000000+00:00</time></trkpt><trkpt lat="42.48423" lon="18.707237"><ele>5.6</ele><time>2012-05-02T11:41:00.0000000+00:00</time></trkpt><trkpt lat="42.48423" lon="18.707237"><ele>5.6</ele><time>2012-05-02T11:41:05.0000000+00:00</time></trkpt><trkpt lat="42.48423" lon="18.707237"><ele>5.6</ele><time>2012-05-02T11:41:10.0000000+00:00</time></trkpt><trkpt lat="42.48423" lon="18.707237"><ele>5.6</ele><time>2012-05-02T11:41:15.0000000+00:00</time></trkpt><trkpt lat="42.48423" lon="18.707237"><ele>5.6</ele><time>2012-05-02T11:41:20.0000000+00:00</time></trkpt><trkpt lat="42.48423" lon="18.707237"><ele>5.6</ele><time>2012-05-02T11:41:25.0000000+00:00</time></trkpt><trkpt lat="42.48423" lon="18.707237"><ele>5.6</ele><time>2012-05-02T11:41:30.0000000+00:00</time></trkpt><trkpt lat="42.48423" lon="18.707237"><ele>5.6</ele><time>2012-05-02T11:41:35.0000000+00:00</time></trkpt><trkpt lat="42.48423" lon="18.707237"><ele>5.6</ele><time>2012-05-02T11:41:40.0000000+00:00</time></trkpt><trkpt lat="42.48423" lon="18.707237"><ele>5.6</ele><time>2012-05-02T11:41:45.0000000+00:00</time></trkpt><trkpt lat="42.48423" lon="18.707237"><ele>5.6</ele><time>2012-05-02T11:41:50.0000000+00:00</time></trkpt><trkpt lat="42.48423" lon="18.707237"><ele>5.7</ele><time>2012-05-02T11:41:55.0000000+00:00</time></trkpt><trkpt lat="42.484203" lon="18.707336"><ele>5.0</ele><time>2012-05-02T11:42:00.0000000+00:00</time></trkpt><trkpt lat="42.484123" lon="18.707668"><ele>5.5</ele><time>2012-05-02T11:42:05.0000000+00:00</time></trkpt><trkpt lat="42.484032" lon="18.708029"><ele>4.9</ele><time>2012-05-02T11:42:10.0000000+00:00</time></trkpt><trkpt lat="42.483982" lon="18.708477"><ele>5.0</ele><time>2012-05-02T11:42:15.0000000+00:00</time></trkpt><trkpt lat="42.483959" lon="18.708961"><ele>3.3</ele><time>2012-05-02T11:42:20.0000000+00:00</time></trkpt><trkpt lat="42.483929" lon="18.709423"><ele>2.3</ele><time>2012-05-02T11:42:25.0000000+00:00</time></trkpt><trkpt lat="42.483894" lon="18.709902"><ele>3.4</ele><time>2012-05-02T11:42:30.0000000+00:00</time></trkpt><trkpt lat="42.483879" lon="18.710354"><ele>4.3</ele><time>2012-05-02T11:42:35.0000000+00:00</time></trkpt><trkpt lat="42.483891" lon="18.710812"><ele>4.2</ele><time>2012-05-02T11:42:40.0000000+00:00</time></trkpt><trkpt lat="42.483917" lon="18.711294"><ele>4.0</ele><time>2012-05-02T11:42:45.0000000+00:00</time></trkpt><trkpt lat="42.483925" lon="18.711712"><ele>6.7</ele><time>2012-05-02T11:42:50.0000000+00:00</time></trkpt><trkpt lat="42.48391" lon="18.712095"><ele>8.3</ele><time>2012-05-02T11:42:55.0000000+00:00</time></trkpt><trkpt lat="42.483879" lon="18.712519"><ele>10.2</ele><time>2012-05-02T11:43:00.0000000+00:00</time></trkpt><trkpt lat="42.483841" lon="18.712933"><ele>11.4</ele><time>2012-05-02T11:43:05.0000000+00:00</time></trkpt><trkpt lat="42.483795" lon="18.713356"><ele>13.7</ele><time>2012-05-02T11:43:10.0000000+00:00</time></trkpt><trkpt lat="42.483753" lon="18.713768"><ele>13.7</ele><time>2012-05-02T11:43:15.0000000+00:00</time></trkpt><trkpt lat="42.48373" lon="18.714199"><ele>13.4</ele><time>2012-05-02T11:43:20.0000000+00:00</time></trkpt><trkpt lat="42.483711" lon="18.714634"><ele>14.6</ele><time>2012-05-02T11:43:25.0000000+00:00</time></trkpt><trkpt lat="42.483707" lon="18.715046"><ele>11.3</ele><time>2012-05-02T11:43:30.0000000+00:00</time></trkpt><trkpt lat="42.483707" lon="18.715452"><ele>9.3</ele><time>2012-05-02T11:43:35.0000000+00:00</time></trkpt><trkpt lat="42.483707" lon="18.715912"><ele>10.7</ele><time>2012-05-02T11:43:40.0000000+00:00</time></trkpt><trkpt lat="42.48373" lon="18.716419"><ele>10.1</ele><time>2012-05-02T11:43:45.0000000+00:00</time></trkpt><trkpt lat="42.483772" lon="18.716921"><ele>9.5</ele><time>2012-05-02T11:43:50.0000000+00:00</time></trkpt><trkpt lat="42.483814" lon="18.71739"><ele>8.5</ele><time>2012-05-02T11:43:55.0000000+00:00</time></trkpt><trkpt lat="42.483864" lon="18.717834"><ele>6.9</ele><time>2012-05-02T11:44:00.0000000+00:00</time></trkpt><trkpt lat="42.483932" lon="18.718334"><ele>5.6</ele><time>2012-05-02T11:44:05.0000000+00:00</time></trkpt><trkpt lat="42.484005" lon="18.718832"><ele>5.3</ele><time>2012-05-02T11:44:10.0000000+00:00</time></trkpt><trkpt lat="42.48407" lon="18.719318"><ele>7.3</ele><time>2012-05-02T11:44:15.0000000+00:00</time></trkpt><trkpt lat="42.484127" lon="18.719831"><ele>10.0</ele><time>2012-05-02T11:44:20.0000000+00:00</time></trkpt><trkpt lat="42.484177" lon="18.720303"><ele>11.3</ele><time>2012-05-02T11:44:25.0000000+00:00</time></trkpt><trkpt lat="42.484207" lon="18.720764"><ele>11.4</ele><time>2012-05-02T11:44:30.0000000+00:00</time></trkpt><trkpt lat="42.48423" lon="18.721226"><ele>11.8</ele><time>2012-05-02T11:44:35.0000000+00:00</time></trkpt><trkpt lat="42.48423" lon="18.721638"><ele>13.3</ele><time>2012-05-02T11:44:40.0000000+00:00</time></trkpt><trkpt lat="42.48423" lon="18.722048"><ele>13.4</ele><time>2012-05-02T11:44:45.0000000+00:00</time></trkpt><trkpt lat="42.484215" lon="18.722458"><ele>12.6</ele><time>2012-05-02T11:44:50.0000000+00:00</time></trkpt><trkpt lat="42.484184" lon="18.722868"><ele>12.7</ele><time>2012-05-02T11:44:55.0000000+00:00</time></trkpt><trkpt lat="42.484158" lon="18.723257"><ele>12.7</ele><time>2012-05-02T11:45:00.0000000+00:00</time></trkpt><trkpt lat="42.484135" lon="18.723669"><ele>12.3</ele><time>2012-05-02T11:45:05.0000000+00:00</time></trkpt><trkpt lat="42.484116" lon="18.724087"><ele>12.6</ele><time>2012-05-02T11:45:10.0000000+00:00</time></trkpt><trkpt lat="42.484116" lon="18.724499"><ele>13.0</ele><time>2012-05-02T11:45:15.0000000+00:00</time></trkpt><trkpt lat="42.484119" lon="18.72492"><ele>13.6</ele><time>2012-05-02T11:45:20.0000000+00:00</time></trkpt><trkpt lat="42.484142" lon="18.725351"><ele>13.2</ele><time>2012-05-02T11:45:25.0000000+00:00</time></trkpt><trkpt lat="42.484188" lon="18.725784"><ele>12.1</ele><time>2012-05-02T11:45:30.0000000+00:00</time></trkpt><trkpt lat="42.484241" lon="18.726189"><ele>11.9</ele><time>2012-05-02T11:45:35.0000000+00:00</time></trkpt><trkpt lat="42.484299" lon="18.726568"><ele>12.7</ele><time>2012-05-02T11:45:40.0000000+00:00</time></trkpt><trkpt lat="42.484379" lon="18.726999"><ele>13.0</ele><time>2012-05-02T11:45:45.0000000+00:00</time></trkpt><trkpt lat="42.484451" lon="18.727419"><ele>13.0</ele><time>2012-05-02T11:45:50.0000000+00:00</time></trkpt><trkpt lat="42.484509" lon="18.727812"><ele>13.3</ele><time>2012-05-02T11:45:55.0000000+00:00</time></trkpt><trkpt lat="42.484558" lon="18.72822"><ele>13.2</ele><time>2012-05-02T11:46:00.0000000+00:00</time></trkpt><trkpt lat="42.484581" lon="18.728605"><ele>13.6</ele><time>2012-05-02T11:46:05.0000000+00:00</time></trkpt><trkpt lat="42.484581" lon="18.728987"><ele>14.5</ele><time>2012-05-02T11:46:10.0000000+00:00</time></trkpt><trkpt lat="42.484547" lon="18.729361"><ele>15.5</ele><time>2012-05-02T11:46:15.0000000+00:00</time></trkpt><trkpt lat="42.484535" lon="18.72975"><ele>16.5</ele><time>2012-05-02T11:46:20.0000000+00:00</time></trkpt><trkpt lat="42.484474" lon="18.730154"><ele>18.2</ele><time>2012-05-02T11:46:25.0000000+00:00</time></trkpt><trkpt lat="42.484348" lon="18.730513"><ele>19.2</ele><time>2012-05-02T11:46:30.0000000+00:00</time></trkpt><trkpt lat="42.484146" lon="18.730827"><ele>21.2</ele><time>2012-05-02T11:46:35.0000000+00:00</time></trkpt><trkpt lat="42.483944" lon="18.731108"><ele>23.7</ele><time>2012-05-02T11:46:40.0000000+00:00</time></trkpt><trkpt lat="42.483765" lon="18.731403"><ele>24.7</ele><time>2012-05-02T11:46:45.0000000+00:00</time></trkpt><trkpt lat="42.48362" lon="18.731787"><ele>25.4</ele><time>2012-05-02T11:46:50.0000000+00:00</time></trkpt><trkpt lat="42.483517" lon="18.732162"><ele>25.7</ele><time>2012-05-02T11:46:55.0000000+00:00</time></trkpt><trkpt lat="42.483452" lon="18.732525"><ele>25.7</ele><time>2012-05-02T11:47:00.0000000+00:00</time></trkpt><trkpt lat="42.483437" lon="18.732891"><ele>26.0</ele><time>2012-05-02T11:47:05.0000000+00:00</time></trkpt><trkpt lat="42.483459" lon="18.73328"><ele>26.3</ele><time>2012-05-02T11:47:10.0000000+00:00</time></trkpt><trkpt lat="42.483517" lon="18.733658"><ele>26.7</ele><time>2012-05-02T11:47:15.0000000+00:00</time></trkpt><trkpt lat="42.483601" lon="18.734015"><ele>26.8</ele><time>2012-05-02T11:47:20.0000000+00:00</time></trkpt><trkpt lat="42.483761" lon="18.734346"><ele>25.0</ele><time>2012-05-02T11:47:25.0000000+00:00</time></trkpt><trkpt lat="42.483952" lon="18.73465"><ele>23.9</ele><time>2012-05-02T11:47:30.0000000+00:00</time></trkpt><trkpt lat="42.484127" lon="18.73498"><ele>22.3</ele><time>2012-05-02T11:47:35.0000000+00:00</time></trkpt><trkpt lat="42.48423" lon="18.735348"><ele>21.5</ele><time>2012-05-02T11:47:40.0000000+00:00</time></trkpt><trkpt lat="42.484222" lon="18.735727"><ele>20.9</ele><time>2012-05-02T11:47:45.0000000+00:00</time></trkpt><trkpt lat="42.484215" lon="18.736145"><ele>20.2</ele><time>2012-05-02T11:47:50.0000000+00:00</time></trkpt><trkpt lat="42.484264" lon="18.736578"><ele>19.4</ele><time>2012-05-02T11:47:55.0000000+00:00</time></trkpt><trkpt lat="42.484333" lon="18.73699"><ele>19.5</ele><time>2012-05-02T11:48:00.0000000+00:00</time></trkpt><trkpt lat="42.484352" lon="18.737383"><ele>19.7</ele><time>2012-05-02T11:48:05.0000000+00:00</time></trkpt><trkpt lat="42.484333" lon="18.737778"><ele>20.2</ele><time>2012-05-02T11:48:10.0000000+00:00</time></trkpt><trkpt lat="42.48431" lon="18.738153"><ele>21.0</ele><time>2012-05-02T11:48:15.0000000+00:00</time></trkpt><trkpt lat="42.484333" lon="18.738518"><ele>22.1</ele><time>2012-05-02T11:48:20.0000000+00:00</time></trkpt><trkpt lat="42.484451" lon="18.738911"><ele>22.7</ele><time>2012-05-02T11:48:25.0000000+00:00</time></trkpt><trkpt lat="42.484631" lon="18.739237"><ele>22.7</ele><time>2012-05-02T11:48:30.0000000+00:00</time></trkpt><trkpt lat="42.484848" lon="18.739511"><ele>22.1</ele><time>2012-05-02T11:48:35.0000000+00:00</time></trkpt><trkpt lat="42.485081" lon="18.739771"><ele>22.2</ele><time>2012-05-02T11:48:40.0000000+00:00</time></trkpt><trkpt lat="42.485268" lon="18.740101"><ele>21.8</ele><time>2012-05-02T11:48:45.0000000+00:00</time></trkpt><trkpt lat="42.485348" lon="18.740454"><ele>20.9</ele><time>2012-05-02T11:48:50.0000000+00:00</time></trkpt><trkpt lat="42.485394" lon="18.740826"><ele>21.1</ele><time>2012-05-02T11:48:55.0000000+00:00</time></trkpt><trkpt lat="42.485516" lon="18.741182"><ele>21.1</ele><time>2012-05-02T11:49:00.0000000+00:00</time></trkpt><trkpt lat="42.485634" lon="18.741535"><ele>20.2</ele><time>2012-05-02T11:49:05.0000000+00:00</time></trkpt><trkpt lat="42.485664" lon="18.741936"><ele>19.7</ele><time>2012-05-02T11:49:10.0000000+00:00</time></trkpt><trkpt lat="42.485649" lon="18.742304"><ele>20.7</ele><time>2012-05-02T11:49:15.0000000+00:00</time></trkpt><trkpt lat="42.485641" lon="18.742733"><ele>21.1</ele><time>2012-05-02T11:49:20.0000000+00:00</time></trkpt><trkpt lat="42.485706" lon="18.743103"><ele>21.8</ele><time>2012-05-02T11:49:25.0000000+00:00</time></trkpt><trkpt lat="42.48595" lon="18.743414"><ele>21.1</ele><time>2012-05-02T11:49:30.0000000+00:00</time></trkpt><trkpt lat="42.48621" lon="18.74369"><ele>21.4</ele><time>2012-05-02T11:49:35.0000000+00:00</time></trkpt><trkpt lat="42.486351" lon="18.74402"><ele>20.3</ele><time>2012-05-02T11:49:40.0000000+00:00</time></trkpt><trkpt lat="42.486454" lon="18.744389"><ele>19.6</ele><time>2012-05-02T11:49:45.0000000+00:00</time></trkpt><trkpt lat="42.486568" lon="18.744802"><ele>19.5</ele><time>2012-05-02T11:49:50.0000000+00:00</time></trkpt><trkpt lat="42.486691" lon="18.745232"><ele>19.6</ele><time>2012-05-02T11:49:55.0000000+00:00</time></trkpt><trkpt lat="42.48682" lon="18.745646"><ele>18.9</ele><time>2012-05-02T11:50:00.0000000+00:00</time></trkpt><trkpt lat="42.486919" lon="18.746099"><ele>18.7</ele><time>2012-05-02T11:50:05.0000000+00:00</time></trkpt><trkpt lat="42.487022" lon="18.74658"><ele>18.4</ele><time>2012-05-02T11:50:10.0000000+00:00</time></trkpt><trkpt lat="42.487106" lon="18.747005"><ele>18.7</ele><time>2012-05-02T11:50:15.0000000+00:00</time></trkpt><trkpt lat="42.487209" lon="18.747438"><ele>19.2</ele><time>2012-05-02T11:50:20.0000000+00:00</time></trkpt><trkpt lat="42.48735" lon="18.747784"><ele>19.2</ele><time>2012-05-02T11:50:25.0000000+00:00</time></trkpt><trkpt lat="42.487541" lon="18.748146"><ele>19.3</ele><time>2012-05-02T11:50:30.0000000+00:00</time></trkpt><trkpt lat="42.487686" lon="18.748522"><ele>18.5</ele><time>2012-05-02T11:50:35.0000000+00:00</time></trkpt><trkpt lat="42.487755" lon="18.748913"><ele>16.5</ele><time>2012-05-02T11:50:40.0000000+00:00</time></trkpt><trkpt lat="42.48785" lon="18.749361"><ele>15.1</ele><time>2012-05-02T11:50:45.0000000+00:00</time></trkpt><trkpt lat="42.487972" lon="18.749771"><ele>13.5</ele><time>2012-05-02T11:50:50.0000000+00:00</time></trkpt><trkpt lat="42.488152" lon="18.750153"><ele>11.7</ele><time>2012-05-02T11:50:55.0000000+00:00</time></trkpt><trkpt lat="42.488426" lon="18.750448"><ele>9.9</ele><time>2012-05-02T11:51:00.0000000+00:00</time></trkpt><trkpt lat="42.488625" lon="18.750843"><ele>9.6</ele><time>2012-05-02T11:51:05.0000000+00:00</time></trkpt><trkpt lat="42.488796" lon="18.751265"><ele>9.9</ele><time>2012-05-02T11:51:10.0000000+00:00</time></trkpt><trkpt lat="42.488987" lon="18.751646"><ele>9.6</ele><time>2012-05-02T11:51:15.0000000+00:00</time></trkpt><trkpt lat="42.489182" lon="18.752039"><ele>9.5</ele><time>2012-05-02T11:51:20.0000000+00:00</time></trkpt><trkpt lat="42.489372" lon="18.752403"><ele>9.0</ele><time>2012-05-02T11:51:25.0000000+00:00</time></trkpt><trkpt lat="42.489594" lon="18.752804"><ele>9.4</ele><time>2012-05-02T11:51:30.0000000+00:00</time></trkpt><trkpt lat="42.489849" lon="18.753101"><ele>10.0</ele><time>2012-05-02T11:51:35.0000000+00:00</time></trkpt><trkpt lat="42.490105" lon="18.753378"><ele>10.4</ele><time>2012-05-02T11:51:40.0000000+00:00</time></trkpt><trkpt lat="42.49028" lon="18.753746"><ele>12.2</ele><time>2012-05-02T11:51:45.0000000+00:00</time></trkpt><trkpt lat="42.490318" lon="18.754177"><ele>12.2</ele><time>2012-05-02T11:51:50.0000000+00:00</time></trkpt><trkpt lat="42.4902" lon="18.754551"><ele>12.5</ele><time>2012-05-02T11:51:55.0000000+00:00</time></trkpt><trkpt lat="42.490055" lon="18.754847"><ele>12.7</ele><time>2012-05-02T11:52:00.0000000+00:00</time></trkpt><trkpt lat="42.489948" lon="18.755129"><ele>12.9</ele><time>2012-05-02T11:52:05.0000000+00:00</time></trkpt><trkpt lat="42.489918" lon="18.755444"><ele>13.3</ele><time>2012-05-02T11:52:10.0000000+00:00</time></trkpt><trkpt lat="42.489948" lon="18.755758"><ele>13.9</ele><time>2012-05-02T11:52:15.0000000+00:00</time></trkpt><trkpt lat="42.490067" lon="18.756109"><ele>14.8</ele><time>2012-05-02T11:52:20.0000000+00:00</time></trkpt><trkpt lat="42.490211" lon="18.756487"><ele>15.2</ele><time>2012-05-02T11:52:25.0000000+00:00</time></trkpt><trkpt lat="42.490364" lon="18.756889"><ele>15.5</ele><time>2012-05-02T11:52:30.0000000+00:00</time></trkpt><trkpt lat="42.49049" lon="18.757294"><ele>16.7</ele><time>2012-05-02T11:52:35.0000000+00:00</time></trkpt><trkpt lat="42.490566" lon="18.757698"><ele>17.3</ele><time>2012-05-02T11:52:40.0000000+00:00</time></trkpt><trkpt lat="42.490585" lon="18.758093"><ele>17.9</ele><time>2012-05-02T11:52:45.0000000+00:00</time></trkpt><trkpt lat="42.49057" lon="18.758524"><ele>19.1</ele><time>2012-05-02T11:52:50.0000000+00:00</time></trkpt><trkpt lat="42.490498" lon="18.758844"><ele>20.4</ele><time>2012-05-02T11:52:55.0000000+00:00</time></trkpt><trkpt lat="42.490414" lon="18.759174"><ele>21.3</ele><time>2012-05-02T11:53:00.0000000+00:00</time></trkpt><trkpt lat="42.490341" lon="18.759338"><ele>22.4</ele><time>2012-05-02T11:53:05.0000000+00:00</time></trkpt><trkpt lat="42.490314" lon="18.759375"><ele>22.8</ele><time>2012-05-02T11:53:10.0000000+00:00</time></trkpt><trkpt lat="42.490299" lon="18.759398"><ele>23.5</ele><time>2012-05-02T11:53:15.0000000+00:00</time></trkpt><trkpt lat="42.490292" lon="18.759428"><ele>24.2</ele><time>2012-05-02T11:53:20.0000000+00:00</time></trkpt><trkpt lat="42.490284" lon="18.759451"><ele>24.9</ele><time>2012-05-02T11:53:25.0000000+00:00</time></trkpt><trkpt lat="42.490284" lon="18.759474"><ele>25.6</ele><time>2012-05-02T11:53:30.0000000+00:00</time></trkpt><trkpt lat="42.490276" lon="18.759489"><ele>26.2</ele><time>2012-05-02T11:53:35.0000000+00:00</time></trkpt><trkpt lat="42.490276" lon="18.759499"><ele>26.8</ele><time>2012-05-02T11:53:40.0000000+00:00</time></trkpt><trkpt lat="42.49028" lon="18.759508"><ele>27.4</ele><time>2012-05-02T11:53:45.0000000+00:00</time></trkpt><trkpt lat="42.49028" lon="18.759512"><ele>28.1</ele><time>2012-05-02T11:53:50.0000000+00:00</time></trkpt><trkpt lat="42.49028" lon="18.75951"><ele>28.7</ele><time>2012-05-02T11:53:55.0000000+00:00</time></trkpt><trkpt lat="42.490273" lon="18.759502"><ele>29.3</ele><time>2012-05-02T11:54:00.0000000+00:00</time></trkpt><trkpt lat="42.490265" lon="18.759493"><ele>29.9</ele><time>2012-05-02T11:54:05.0000000+00:00</time></trkpt><trkpt lat="42.490261" lon="18.759483"><ele>30.5</ele><time>2012-05-02T11:54:10.0000000+00:00</time></trkpt><trkpt lat="42.490253" lon="18.759474"><ele>31.2</ele><time>2012-05-02T11:54:15.0000000+00:00</time></trkpt><trkpt lat="42.490238" lon="18.759462"><ele>31.8</ele><time>2012-05-02T11:54:20.0000000+00:00</time></trkpt><trkpt lat="42.490231" lon="18.759455"><ele>32.4</ele><time>2012-05-02T11:54:25.0000000+00:00</time></trkpt><trkpt lat="42.490223" lon="18.759453"><ele>33.0</ele><time>2012-05-02T11:54:30.0000000+00:00</time></trkpt><trkpt lat="42.490211" lon="18.759459"><ele>33.6</ele><time>2012-05-02T11:54:35.0000000+00:00</time></trkpt><trkpt lat="42.490196" lon="18.759462"><ele>34.3</ele><time>2012-05-02T11:54:40.0000000+00:00</time></trkpt><trkpt lat="42.490185" lon="18.759462"><ele>34.9</ele><time>2012-05-02T11:54:45.0000000+00:00</time></trkpt><trkpt lat="42.490177" lon="18.759453"><ele>35.5</ele><time>2012-05-02T11:54:50.0000000+00:00</time></trkpt><trkpt lat="42.490177" lon="18.759451"><ele>36.1</ele><time>2012-05-02T11:54:55.0000000+00:00</time></trkpt><trkpt lat="42.490189" lon="18.759453"><ele>36.7</ele><time>2012-05-02T11:55:00.0000000+00:00</time></trkpt><trkpt lat="42.490204" lon="18.759457"><ele>37.3</ele><time>2012-05-02T11:55:05.0000000+00:00</time></trkpt><trkpt lat="42.490223" lon="18.759459"><ele>38.0</ele><time>2012-05-02T11:55:10.0000000+00:00</time></trkpt><trkpt lat="42.490242" lon="18.759464"><ele>38.6</ele><time>2012-05-02T11:55:15.0000000+00:00</time></trkpt><trkpt lat="42.490261" lon="18.75947"><ele>39.2</ele><time>2012-05-02T11:55:20.0000000+00:00</time></trkpt><trkpt lat="42.49028" lon="18.759478"><ele>39.8</ele><time>2012-05-02T11:55:25.0000000+00:00</time></trkpt><trkpt lat="42.490299" lon="18.759485"><ele>40.4</ele><time>2012-05-02T11:55:30.0000000+00:00</time></trkpt><trkpt lat="42.490322" lon="18.759495"><ele>41.0</ele><time>2012-05-02T11:55:35.0000000+00:00</time></trkpt><trkpt lat="42.490349" lon="18.759502"><ele>41.7</ele><time>2012-05-02T11:55:40.0000000+00:00</time></trkpt><trkpt lat="42.490368" lon="18.759502"><ele>42.3</ele><time>2012-05-02T11:55:45.0000000+00:00</time></trkpt><trkpt lat="42.490379" lon="18.759495"><ele>42.9</ele><time>2012-05-02T11:55:50.0000000+00:00</time></trkpt><trkpt lat="42.490383" lon="18.759491"><ele>43.5</ele><time>2012-05-02T11:55:55.0000000+00:00</time></trkpt><trkpt lat="42.490383" lon="18.759495"><ele>44.1</ele><time>2012-05-02T11:56:00.0000000+00:00</time></trkpt><trkpt lat="42.490379" lon="18.759497"><ele>44.7</ele><time>2012-05-02T11:56:05.0000000+00:00</time></trkpt><trkpt lat="42.490356" lon="18.759504"><ele>45.3</ele><time>2012-05-02T11:56:10.0000000+00:00</time></trkpt><trkpt lat="42.490314" lon="18.759544"><ele>45.0</ele><time>2012-05-02T11:56:15.0000000+00:00</time></trkpt><trkpt lat="42.49028" lon="18.759558"><ele>44.8</ele><time>2012-05-02T11:56:20.0000000+00:00</time></trkpt><trkpt lat="42.490253" lon="18.75955"><ele>44.6</ele><time>2012-05-02T11:56:25.0000000+00:00</time></trkpt><trkpt lat="42.490276" lon="18.759504"><ele>44.6</ele><time>2012-05-02T11:56:30.0000000+00:00</time></trkpt><trkpt lat="42.490269" lon="18.759504"><ele>44.6</ele><time>2012-05-02T11:56:35.0000000+00:00</time></trkpt><trkpt lat="42.490257" lon="18.759502"><ele>44.6</ele><time>2012-05-02T11:56:40.0000000+00:00</time></trkpt><trkpt lat="42.490246" lon="18.759501"><ele>44.6</ele><time>2012-05-02T11:56:45.0000000+00:00</time></trkpt><trkpt lat="42.490246" lon="18.759493"><ele>44.6</ele><time>2012-05-02T11:56:50.0000000+00:00</time></trkpt><trkpt lat="42.49025" lon="18.75947"><ele>44.7</ele><time>2012-05-02T11:56:55.0000000+00:00</time></trkpt><trkpt lat="42.490273" lon="18.759447"><ele>44.7</ele><time>2012-05-02T11:57:00.0000000+00:00</time></trkpt><trkpt lat="42.490295" lon="18.759464"><ele>44.7</ele><time>2012-05-02T11:57:05.0000000+00:00</time></trkpt><trkpt lat="42.490341" lon="18.759521"><ele>44.7</ele><time>2012-05-02T11:57:10.0000000+00:00</time></trkpt><trkpt lat="42.490356" lon="18.759548"><ele>44.7</ele><time>2012-05-02T11:57:15.0000000+00:00</time></trkpt><trkpt lat="42.490356" lon="18.759581"><ele>44.7</ele><time>2012-05-02T11:57:20.0000000+00:00</time></trkpt><trkpt lat="42.490356" lon="18.75959"><ele>44.7</ele><time>2012-05-02T11:57:25.0000000+00:00</time></trkpt><trkpt lat="42.490349" lon="18.7596"><ele>44.7</ele><time>2012-05-02T11:57:30.0000000+00:00</time></trkpt><trkpt lat="42.490341" lon="18.759613"><ele>44.7</ele><time>2012-05-02T11:57:35.0000000+00:00</time></trkpt><trkpt lat="42.490322" lon="18.759605"><ele>44.7</ele><time>2012-05-02T11:57:40.0000000+00:00</time></trkpt><trkpt lat="42.490311" lon="18.759583"><ele>44.7</ele><time>2012-05-02T11:57:45.0000000+00:00</time></trkpt><trkpt lat="42.490303" lon="18.759575"><ele>44.7</ele><time>2012-05-02T11:57:50.0000000+00:00</time></trkpt><trkpt lat="42.490292" lon="18.759573"><ele>44.7</ele><time>2012-05-02T11:57:55.0000000+00:00</time></trkpt><trkpt lat="42.49028" lon="18.759552"><ele>44.7</ele><time>2012-05-02T11:58:00.0000000+00:00</time></trkpt><trkpt lat="42.490299" lon="18.759501"><ele>44.7</ele><time>2012-05-02T11:58:05.0000000+00:00</time></trkpt><trkpt lat="42.490314" lon="18.759384"><ele>44.6</ele><time>2012-05-02T11:58:10.0000000+00:00</time></trkpt><trkpt lat="42.490356" lon="18.759342"><ele>44.4</ele><time>2012-05-02T11:58:15.0000000+00:00</time></trkpt><trkpt lat="42.490391" lon="18.759363"><ele>44.4</ele><time>2012-05-02T11:58:20.0000000+00:00</time></trkpt><trkpt lat="42.490421" lon="18.759338"><ele>44.3</ele><time>2012-05-02T11:58:25.0000000+00:00</time></trkpt><trkpt lat="42.49044" lon="18.759371"><ele>44.4</ele><time>2012-05-02T11:58:30.0000000+00:00</time></trkpt><trkpt lat="42.490448" lon="18.759373"><ele>44.4</ele><time>2012-05-02T11:58:35.0000000+00:00</time></trkpt><trkpt lat="42.490456" lon="18.759375"><ele>44.4</ele><time>2012-05-02T11:58:40.0000000+00:00</time></trkpt><trkpt lat="42.490459" lon="18.759377"><ele>44.4</ele><time>2012-05-02T11:58:45.0000000+00:00</time></trkpt><trkpt lat="42.490463" lon="18.759378"><ele>44.3</ele><time>2012-05-02T11:58:50.0000000+00:00</time></trkpt><trkpt lat="42.490467" lon="18.759378"><ele>44.3</ele><time>2012-05-02T11:58:55.0000000+00:00</time></trkpt><trkpt lat="42.490471" lon="18.75938"><ele>44.3</ele><time>2012-05-02T11:59:00.0000000+00:00</time></trkpt><trkpt lat="42.490467" lon="18.75938"><ele>44.3</ele><time>2012-05-02T11:59:05.0000000+00:00</time></trkpt><trkpt lat="42.490467" lon="18.75938"><ele>44.3</ele><time>2012-05-02T11:59:10.0000000+00:00</time></trkpt><trkpt lat="42.490467" lon="18.75938"><ele>44.3</ele><time>2012-05-02T11:59:15.0000000+00:00</time></trkpt><trkpt lat="42.490467" lon="18.75938"><ele>44.3</ele><time>2012-05-02T11:59:20.0000000+00:00</time></trkpt><trkpt lat="42.490467" lon="18.75938"><ele>44.3</ele><time>2012-05-02T11:59:25.0000000+00:00</time></trkpt><trkpt lat="42.490467" lon="18.75938"><ele>44.3</ele><time>2012-05-02T11:59:30.0000000+00:00</time></trkpt><trkpt lat="42.490467" lon="18.75938"><ele>44.3</ele><time>2012-05-02T11:59:35.0000000+00:00</time></trkpt><trkpt lat="42.490471" lon="18.75938"><ele>44.3</ele><time>2012-05-02T11:59:40.0000000+00:00</time></trkpt><trkpt lat="42.490471" lon="18.75938"><ele>44.3</ele><time>2012-05-02T11:59:45.0000000+00:00</time></trkpt><trkpt lat="42.490471" lon="18.75938"><ele>44.3</ele><time>2012-05-02T11:59:50.0000000+00:00</time></trkpt><trkpt lat="42.490471" lon="18.759378"><ele>44.3</ele><time>2012-05-02T11:59:55.0000000+00:00</time></trkpt><trkpt lat="42.490471" lon="18.759378"><ele>44.3</ele><time>2012-05-02T12:00:00.0000000+00:00</time></trkpt><trkpt lat="42.490471" lon="18.759378"><ele>44.3</ele><time>2012-05-02T12:00:05.0000000+00:00</time></trkpt><trkpt lat="42.490471" lon="18.759377"><ele>44.3</ele><time>2012-05-02T12:00:10.0000000+00:00</time></trkpt><trkpt lat="42.490467" lon="18.759377"><ele>44.3</ele><time>2012-05-02T12:00:15.0000000+00:00</time></trkpt><trkpt lat="42.490467" lon="18.759377"><ele>44.3</ele><time>2012-05-02T12:00:20.0000000+00:00</time></trkpt><trkpt lat="42.490467" lon="18.759377"><ele>44.3</ele><time>2012-05-02T12:00:25.0000000+00:00</time></trkpt><trkpt lat="42.490467" lon="18.759377"><ele>44.3</ele><time>2012-05-02T12:00:30.0000000+00:00</time></trkpt><trkpt lat="42.490467" lon="18.759377"><ele>44.3</ele><time>2012-05-02T12:00:35.0000000+00:00</time></trkpt><trkpt lat="42.490467" lon="18.759375"><ele>44.3</ele><time>2012-05-02T12:00:40.0000000+00:00</time></trkpt><trkpt lat="42.490467" lon="18.759377"><ele>44.3</ele><time>2012-05-02T12:00:45.0000000+00:00</time></trkpt><trkpt lat="42.490467" lon="18.759377"><ele>44.3</ele><time>2012-05-02T12:00:50.0000000+00:00</time></trkpt><trkpt lat="42.490467" lon="18.759377"><ele>44.3</ele><time>2012-05-02T12:00:55.0000000+00:00</time></trkpt><trkpt lat="42.490467" lon="18.759377"><ele>44.3</ele><time>2012-05-02T12:01:00.0000000+00:00</time></trkpt><trkpt lat="42.490467" lon="18.759377"><ele>44.3</ele><time>2012-05-02T12:01:05.0000000+00:00</time></trkpt><trkpt lat="42.490467" lon="18.759377"><ele>44.3</ele><time>2012-05-02T12:01:10.0000000+00:00</time></trkpt><trkpt lat="42.490467" lon="18.759377"><ele>44.3</ele><time>2012-05-02T12:01:15.0000000+00:00</time></trkpt><trkpt lat="42.490467" lon="18.759377"><ele>44.3</ele><time>2012-05-02T12:01:20.0000000+00:00</time></trkpt><trkpt lat="42.490467" lon="18.759377"><ele>44.3</ele><time>2012-05-02T12:01:25.0000000+00:00</time></trkpt><trkpt lat="42.490467" lon="18.759377"><ele>44.3</ele><time>2012-05-02T12:01:30.0000000+00:00</time></trkpt><trkpt lat="42.490463" lon="18.759375"><ele>44.3</ele><time>2012-05-02T12:01:35.0000000+00:00</time></trkpt><trkpt lat="42.490463" lon="18.759375"><ele>44.2</ele><time>2012-05-02T12:01:40.0000000+00:00</time></trkpt><trkpt lat="42.490463" lon="18.759375"><ele>44.2</ele><time>2012-05-02T12:01:45.0000000+00:00</time></trkpt><trkpt lat="42.490463" lon="18.759375"><ele>44.2</ele><time>2012-05-02T12:01:50.0000000+00:00</time></trkpt><trkpt lat="42.490467" lon="18.759375"><ele>44.2</ele><time>2012-05-02T12:01:55.0000000+00:00</time></trkpt><trkpt lat="42.490467" lon="18.759377"><ele>44.2</ele><time>2012-05-02T12:02:00.0000000+00:00</time></trkpt><trkpt lat="42.490467" lon="18.759377"><ele>44.2</ele><time>2012-05-02T12:02:05.0000000+00:00</time></trkpt><trkpt lat="42.490467" lon="18.759377"><ele>44.2</ele><time>2012-05-02T12:02:10.0000000+00:00</time></trkpt><trkpt lat="42.490467" lon="18.759377"><ele>44.2</ele><time>2012-05-02T12:02:15.0000000+00:00</time></trkpt><trkpt lat="42.490463" lon="18.759377"><ele>44.2</ele><time>2012-05-02T12:02:20.0000000+00:00</time></trkpt><trkpt lat="42.490463" lon="18.759377"><ele>44.2</ele><time>2012-05-02T12:02:25.0000000+00:00</time></trkpt><trkpt lat="42.490463" lon="18.759377"><ele>44.2</ele><time>2012-05-02T12:02:30.0000000+00:00</time></trkpt><trkpt lat="42.490463" lon="18.759377"><ele>44.2</ele><time>2012-05-02T12:02:35.0000000+00:00</time></trkpt><trkpt lat="42.490463" lon="18.759377"><ele>44.1</ele><time>2012-05-02T12:02:40.0000000+00:00</time></trkpt><trkpt lat="42.490459" lon="18.759377"><ele>44.1</ele><time>2012-05-02T12:02:45.0000000+00:00</time></trkpt><trkpt lat="42.490459" lon="18.759377"><ele>44.1</ele><time>2012-05-02T12:02:50.0000000+00:00</time></trkpt><trkpt lat="42.490459" lon="18.759377"><ele>44.1</ele><time>2012-05-02T12:02:55.0000000+00:00</time></trkpt><trkpt lat="42.490459" lon="18.759377"><ele>44.0</ele><time>2012-05-02T12:03:00.0000000+00:00</time></trkpt><trkpt lat="42.490459" lon="18.759377"><ele>44.0</ele><time>2012-05-02T12:03:05.0000000+00:00</time></trkpt><trkpt lat="42.490459" lon="18.759377"><ele>44.0</ele><time>2012-05-02T12:03:10.0000000+00:00</time></trkpt><trkpt lat="42.490459" lon="18.759377"><ele>44.0</ele><time>2012-05-02T12:03:15.0000000+00:00</time></trkpt><trkpt lat="42.490459" lon="18.759377"><ele>44.0</ele><time>2012-05-02T12:03:20.0000000+00:00</time></trkpt><trkpt lat="42.490459" lon="18.759377"><ele>44.0</ele><time>2012-05-02T12:03:25.0000000+00:00</time></trkpt><trkpt lat="42.490459" lon="18.759377"><ele>44.0</ele><time>2012-05-02T12:03:30.0000000+00:00</time></trkpt><trkpt lat="42.490459" lon="18.759377"><ele>44.0</ele><time>2012-05-02T12:03:35.0000000+00:00</time></trkpt><trkpt lat="42.490459" lon="18.759377"><ele>44.0</ele><time>2012-05-02T12:03:40.0000000+00:00</time></trkpt><trkpt lat="42.490459" lon="18.759377"><ele>44.0</ele><time>2012-05-02T12:03:45.0000000+00:00</time></trkpt><trkpt lat="42.490459" lon="18.759377"><ele>44.0</ele><time>2012-05-02T12:03:50.0000000+00:00</time></trkpt><trkpt lat="42.490459" lon="18.759377"><ele>44.0</ele><time>2012-05-02T12:03:55.0000000+00:00</time></trkpt><trkpt lat="42.490459" lon="18.759377"><ele>43.9</ele><time>2012-05-02T12:04:00.0000000+00:00</time></trkpt><trkpt lat="42.490459" lon="18.759377"><ele>43.9</ele><time>2012-05-02T12:04:05.0000000+00:00</time></trkpt><trkpt lat="42.490459" lon="18.759377"><ele>43.9</ele><time>2012-05-02T12:04:10.0000000+00:00</time></trkpt><trkpt lat="42.490459" lon="18.759377"><ele>43.9</ele><time>2012-05-02T12:04:15.0000000+00:00</time></trkpt><trkpt lat="42.490459" lon="18.759377"><ele>43.9</ele><time>2012-05-02T12:04:20.0000000+00:00</time></trkpt><trkpt lat="42.490459" lon="18.759377"><ele>43.9</ele><time>2012-05-02T12:04:25.0000000+00:00</time></trkpt><trkpt lat="42.490459" lon="18.759377"><ele>43.9</ele><time>2012-05-02T12:04:30.0000000+00:00</time></trkpt><trkpt lat="42.490459" lon="18.759377"><ele>43.9</ele><time>2012-05-02T12:04:35.0000000+00:00</time></trkpt><trkpt lat="42.490452" lon="18.759377"><ele>43.9</ele><time>2012-05-02T12:04:40.0000000+00:00</time></trkpt><trkpt lat="42.490448" lon="18.759378"><ele>43.9</ele><time>2012-05-02T12:04:45.0000000+00:00</time></trkpt><trkpt lat="42.490444" lon="18.75938"><ele>43.9</ele><time>2012-05-02T12:04:50.0000000+00:00</time></trkpt><trkpt lat="42.490444" lon="18.75938"><ele>43.8</ele><time>2012-05-02T12:04:55.0000000+00:00</time></trkpt><trkpt lat="42.490444" lon="18.759382"><ele>43.8</ele><time>2012-05-02T12:05:00.0000000+00:00</time></trkpt><trkpt lat="42.490444" lon="18.759382"><ele>43.8</ele><time>2012-05-02T12:05:05.0000000+00:00</time></trkpt><trkpt lat="42.490444" lon="18.759382"><ele>43.8</ele><time>2012-05-02T12:05:10.0000000+00:00</time></trkpt><trkpt lat="42.49044" lon="18.759382"><ele>43.8</ele><time>2012-05-02T12:05:15.0000000+00:00</time></trkpt><trkpt lat="42.49044" lon="18.759382"><ele>43.8</ele><time>2012-05-02T12:05:20.0000000+00:00</time></trkpt><trkpt lat="42.490444" lon="18.759384"><ele>43.8</ele><time>2012-05-02T12:05:25.0000000+00:00</time></trkpt><trkpt lat="42.490452" lon="18.759386"><ele>43.9</ele><time>2012-05-02T12:05:30.0000000+00:00</time></trkpt><trkpt lat="42.490456" lon="18.759386"><ele>43.8</ele><time>2012-05-02T12:05:35.0000000+00:00</time></trkpt><trkpt lat="42.490459" lon="18.759388"><ele>43.8</ele><time>2012-05-02T12:05:40.0000000+00:00</time></trkpt><trkpt lat="42.490459" lon="18.759388"><ele>43.8</ele><time>2012-05-02T12:05:45.0000000+00:00</time></trkpt><trkpt lat="42.490463" lon="18.759388"><ele>43.8</ele><time>2012-05-02T12:05:50.0000000+00:00</time></trkpt><trkpt lat="42.490471" lon="18.75939"><ele>43.8</ele><time>2012-05-02T12:05:55.0000000+00:00</time></trkpt><trkpt lat="42.490475" lon="18.75939"><ele>43.8</ele><time>2012-05-02T12:06:00.0000000+00:00</time></trkpt><trkpt lat="42.490482" lon="18.759392"><ele>43.8</ele><time>2012-05-02T12:06:05.0000000+00:00</time></trkpt><trkpt lat="42.49049" lon="18.759394"><ele>43.9</ele><time>2012-05-02T12:06:10.0000000+00:00</time></trkpt><trkpt lat="42.490501" lon="18.759396"><ele>44.0</ele><time>2012-05-02T12:06:15.0000000+00:00</time></trkpt><trkpt lat="42.490501" lon="18.759394"><ele>44.1</ele><time>2012-05-02T12:06:20.0000000+00:00</time></trkpt><trkpt lat="42.490494" lon="18.759394"><ele>44.1</ele><time>2012-05-02T12:06:25.0000000+00:00</time></trkpt><trkpt lat="42.490486" lon="18.759394"><ele>44.1</ele><time>2012-05-02T12:06:30.0000000+00:00</time></trkpt><trkpt lat="42.490479" lon="18.759392"><ele>44.1</ele><time>2012-05-02T12:06:35.0000000+00:00</time></trkpt><trkpt lat="42.490475" lon="18.75939"><ele>44.1</ele><time>2012-05-02T12:06:40.0000000+00:00</time></trkpt><trkpt lat="42.490475" lon="18.75939"><ele>44.1</ele><time>2012-05-02T12:06:45.0000000+00:00</time></trkpt><trkpt lat="42.490479" lon="18.759392"><ele>44.1</ele><time>2012-05-02T12:06:50.0000000+00:00</time></trkpt><trkpt lat="42.490475" lon="18.759392"><ele>44.1</ele><time>2012-05-02T12:06:55.0000000+00:00</time></trkpt><trkpt lat="42.490479" lon="18.759392"><ele>44.1</ele><time>2012-05-02T12:07:00.0000000+00:00</time></trkpt><trkpt lat="42.490475" lon="18.759405"><ele>44.1</ele><time>2012-05-02T12:07:05.0000000+00:00</time></trkpt><trkpt lat="42.490326" lon="18.759483"><ele>44.9</ele><time>2012-05-02T12:07:10.0000000+00:00</time></trkpt><trkpt lat="42.490242" lon="18.759617"><ele>43.5</ele><time>2012-05-02T12:07:15.0000000+00:00</time></trkpt><trkpt lat="42.490158" lon="18.759979"><ele>40.7</ele><time>2012-05-02T12:07:20.0000000+00:00</time></trkpt><trkpt lat="42.490116" lon="18.760393"><ele>39.2</ele><time>2012-05-02T12:07:25.0000000+00:00</time></trkpt><trkpt lat="42.49012" lon="18.760826"><ele>38.1</ele><time>2012-05-02T12:07:30.0000000+00:00</time></trkpt><trkpt lat="42.490185" lon="18.761282"><ele>37.2</ele><time>2012-05-02T12:07:35.0000000+00:00</time></trkpt><trkpt lat="42.490303" lon="18.761761"><ele>37.1</ele><time>2012-05-02T12:07:40.0000000+00:00</time></trkpt><trkpt lat="42.490353" lon="18.762264"><ele>35.8</ele><time>2012-05-02T12:07:45.0000000+00:00</time></trkpt><trkpt lat="42.490284" lon="18.762812"><ele>33.9</ele><time>2012-05-02T12:07:50.0000000+00:00</time></trkpt><trkpt lat="42.490105" lon="18.763332"><ele>33.1</ele><time>2012-05-02T12:07:55.0000000+00:00</time></trkpt><trkpt lat="42.489799" lon="18.763803"><ele>30.9</ele><time>2012-05-02T12:08:00.0000000+00:00</time></trkpt><trkpt lat="42.489418" lon="18.764015"><ele>29.6</ele><time>2012-05-02T12:08:05.0000000+00:00</time></trkpt><trkpt lat="42.489056" lon="18.764252"><ele>27.0</ele><time>2012-05-02T12:08:10.0000000+00:00</time></trkpt><trkpt lat="42.488735" lon="18.764618"><ele>26.4</ele><time>2012-05-02T12:08:15.0000000+00:00</time></trkpt><trkpt lat="42.48848" lon="18.764986"><ele>24.3</ele><time>2012-05-02T12:08:20.0000000+00:00</time></trkpt><trkpt lat="42.488197" lon="18.765226"><ele>22.5</ele><time>2012-05-02T12:08:25.0000000+00:00</time></trkpt><trkpt lat="42.487873" lon="18.765282"><ele>21.8</ele><time>2012-05-02T12:08:30.0000000+00:00</time></trkpt><trkpt lat="42.487629" lon="18.765198"><ele>20.6</ele><time>2012-05-02T12:08:35.0000000+00:00</time></trkpt><trkpt lat="42.487473" lon="18.765131"><ele>18.0</ele><time>2012-05-02T12:08:40.0000000+00:00</time></trkpt><trkpt lat="42.487236" lon="18.765179"><ele>17.5</ele><time>2012-05-02T12:08:45.0000000+00:00</time></trkpt><trkpt lat="42.487019" lon="18.765282"><ele>17.8</ele><time>2012-05-02T12:08:50.0000000+00:00</time></trkpt><trkpt lat="42.486813" lon="18.765404"><ele>17.5</ele><time>2012-05-02T12:08:55.0000000+00:00</time></trkpt><trkpt lat="42.486633" lon="18.765547"><ele>17.0</ele><time>2012-05-02T12:09:00.0000000+00:00</time></trkpt><trkpt lat="42.486488" lon="18.765793"><ele>17.4</ele><time>2012-05-02T12:09:05.0000000+00:00</time></trkpt><trkpt lat="42.486401" lon="18.766085"><ele>17.8</ele><time>2012-05-02T12:09:10.0000000+00:00</time></trkpt><trkpt lat="42.486382" lon="18.766411"><ele>18.2</ele><time>2012-05-02T12:09:15.0000000+00:00</time></trkpt><trkpt lat="42.486332" lon="18.766655"><ele>18.6</ele><time>2012-05-02T12:09:20.0000000+00:00</time></trkpt><trkpt lat="42.48608" lon="18.76679"><ele>18.4</ele><time>2012-05-02T12:09:25.0000000+00:00</time></trkpt><trkpt lat="42.485806" lon="18.766754"><ele>18.3</ele><time>2012-05-02T12:09:30.0000000+00:00</time></trkpt><trkpt lat="42.4855" lon="18.7666"><ele>18.7</ele><time>2012-05-02T12:09:35.0000000+00:00</time></trkpt><trkpt lat="42.485245" lon="18.766506"><ele>19.0</ele><time>2012-05-02T12:09:40.0000000+00:00</time></trkpt><trkpt lat="42.484959" lon="18.766373"><ele>20.6</ele><time>2012-05-02T12:09:45.0000000+00:00</time></trkpt><trkpt lat="42.484673" lon="18.76615"><ele>23.2</ele><time>2012-05-02T12:09:50.0000000+00:00</time></trkpt><trkpt lat="42.484417" lon="18.765886"><ele>23.9</ele><time>2012-05-02T12:09:55.0000000+00:00</time></trkpt><trkpt lat="42.48415" lon="18.765621"><ele>24.9</ele><time>2012-05-02T12:10:00.0000000+00:00</time></trkpt><trkpt lat="42.483902" lon="18.765402"><ele>25.7</ele><time>2012-05-02T12:10:05.0000000+00:00</time></trkpt><trkpt lat="42.483562" lon="18.765265"><ele>26.8</ele><time>2012-05-02T12:10:10.0000000+00:00</time></trkpt><trkpt lat="42.48315" lon="18.765249"><ele>25.5</ele><time>2012-05-02T12:10:15.0000000+00:00</time></trkpt><trkpt lat="42.482742" lon="18.765234"><ele>26.6</ele><time>2012-05-02T12:10:20.0000000+00:00</time></trkpt><trkpt lat="42.482395" lon="18.765074"><ele>28.0</ele><time>2012-05-02T12:10:25.0000000+00:00</time></trkpt><trkpt lat="42.482075" lon="18.76483"><ele>30.3</ele><time>2012-05-02T12:10:30.0000000+00:00</time></trkpt><trkpt lat="42.481773" lon="18.764565"><ele>31.8</ele><time>2012-05-02T12:10:35.0000000+00:00</time></trkpt><trkpt lat="42.481514" lon="18.764347"><ele>32.5</ele><time>2012-05-02T12:10:40.0000000+00:00</time></trkpt><trkpt lat="42.481201" lon="18.76428"><ele>32.8</ele><time>2012-05-02T12:10:45.0000000+00:00</time></trkpt><trkpt lat="42.480824" lon="18.764294"><ele>32.6</ele><time>2012-05-02T12:10:50.0000000+00:00</time></trkpt><trkpt lat="42.480473" lon="18.764397"><ele>31.6</ele><time>2012-05-02T12:10:55.0000000+00:00</time></trkpt><trkpt lat="42.480106" lon="18.764475"><ele>31.5</ele><time>2012-05-02T12:11:00.0000000+00:00</time></trkpt><trkpt lat="42.479786" lon="18.764383"><ele>30.1</ele><time>2012-05-02T12:11:05.0000000+00:00</time></trkpt><trkpt lat="42.479538" lon="18.764221"><ele>29.9</ele><time>2012-05-02T12:11:10.0000000+00:00</time></trkpt><trkpt lat="42.479275" lon="18.763937"><ele>31.4</ele><time>2012-05-02T12:11:15.0000000+00:00</time></trkpt><trkpt lat="42.479023" lon="18.763723"><ele>32.8</ele><time>2012-05-02T12:11:20.0000000+00:00</time></trkpt><trkpt lat="42.478691" lon="18.76358"><ele>35.3</ele><time>2012-05-02T12:11:25.0000000+00:00</time></trkpt><trkpt lat="42.478348" lon="18.763428"><ele>37.2</ele><time>2012-05-02T12:11:30.0000000+00:00</time></trkpt><trkpt lat="42.477947" lon="18.763248"><ele>33.6</ele><time>2012-05-02T12:11:35.0000000+00:00</time></trkpt><trkpt lat="42.477512" lon="18.763315"><ele>30.6</ele><time>2012-05-02T12:11:40.0000000+00:00</time></trkpt><trkpt lat="42.477142" lon="18.763458"><ele>26.5</ele><time>2012-05-02T12:11:45.0000000+00:00</time></trkpt><trkpt lat="42.476772" lon="18.763853"><ele>24.3</ele><time>2012-05-02T12:11:50.0000000+00:00</time></trkpt><trkpt lat="42.47641" lon="18.764294"><ele>22.6</ele><time>2012-05-02T12:11:55.0000000+00:00</time></trkpt><trkpt lat="42.476124" lon="18.764681"><ele>20.7</ele><time>2012-05-02T12:12:00.0000000+00:00</time></trkpt><trkpt lat="42.475769" lon="18.764791"><ele>18.7</ele><time>2012-05-02T12:12:05.0000000+00:00</time></trkpt><trkpt lat="42.475346" lon="18.764713"><ele>16.0</ele><time>2012-05-02T12:12:10.0000000+00:00</time></trkpt><trkpt lat="42.474876" lon="18.764751"><ele>14.5</ele><time>2012-05-02T12:12:15.0000000+00:00</time></trkpt><trkpt lat="42.474472" lon="18.764603"><ele>12.9</ele><time>2012-05-02T12:12:20.0000000+00:00</time></trkpt><trkpt lat="42.474129" lon="18.764477"><ele>11.8</ele><time>2012-05-02T12:12:25.0000000+00:00</time></trkpt><trkpt lat="42.473763" lon="18.764523"><ele>11.4</ele><time>2012-05-02T12:12:30.0000000+00:00</time></trkpt><trkpt lat="42.473404" lon="18.764633"><ele>12.2</ele><time>2012-05-02T12:12:35.0000000+00:00</time></trkpt><trkpt lat="42.473114" lon="18.76461"><ele>13.0</ele><time>2012-05-02T12:12:40.0000000+00:00</time></trkpt><trkpt lat="42.472912" lon="18.764463"><ele>14.6</ele><time>2012-05-02T12:12:45.0000000+00:00</time></trkpt><trkpt lat="42.472713" lon="18.764282"><ele>17.2</ele><time>2012-05-02T12:12:50.0000000+00:00</time></trkpt><trkpt lat="42.472527" lon="18.764103"><ele>19.3</ele><time>2012-05-02T12:12:55.0000000+00:00</time></trkpt><trkpt lat="42.472336" lon="18.763998"><ele>20.0</ele><time>2012-05-02T12:13:00.0000000+00:00</time></trkpt><trkpt lat="42.472088" lon="18.763905"><ele>20.9</ele><time>2012-05-02T12:13:05.0000000+00:00</time></trkpt><trkpt lat="42.47179" lon="18.763968"><ele>21.3</ele><time>2012-05-02T12:13:10.0000000+00:00</time></trkpt><trkpt lat="42.471527" lon="18.764097"><ele>21.9</ele><time>2012-05-02T12:13:15.0000000+00:00</time></trkpt><trkpt lat="42.471279" lon="18.764225"><ele>22.4</ele><time>2012-05-02T12:13:20.0000000+00:00</time></trkpt><trkpt lat="42.471104" lon="18.764299"><ele>20.4</ele><time>2012-05-02T12:13:25.0000000+00:00</time></trkpt><trkpt lat="42.471001" lon="18.764372"><ele>20.8</ele><time>2012-05-02T12:13:30.0000000+00:00</time></trkpt><trkpt lat="42.47094" lon="18.764404"><ele>20.4</ele><time>2012-05-02T12:13:35.0000000+00:00</time></trkpt><trkpt lat="42.470943" lon="18.764406"><ele>19.8</ele><time>2012-05-02T12:13:40.0000000+00:00</time></trkpt><trkpt lat="42.47094" lon="18.764402"><ele>19.7</ele><time>2012-05-02T12:13:45.0000000+00:00</time></trkpt><trkpt lat="42.47094" lon="18.764397"><ele>19.7</ele><time>2012-05-02T12:13:50.0000000+00:00</time></trkpt><trkpt lat="42.470943" lon="18.764397"><ele>19.6</ele><time>2012-05-02T12:13:55.0000000+00:00</time></trkpt><trkpt lat="42.470947" lon="18.764399"><ele>19.6</ele><time>2012-05-02T12:14:00.0000000+00:00</time></trkpt><trkpt lat="42.470947" lon="18.764399"><ele>19.6</ele><time>2012-05-02T12:14:05.0000000+00:00</time></trkpt><trkpt lat="42.470943" lon="18.764399"><ele>19.6</ele><time>2012-05-02T12:14:10.0000000+00:00</time></trkpt><trkpt lat="42.470943" lon="18.7644"><ele>19.5</ele><time>2012-05-02T12:14:15.0000000+00:00</time></trkpt><trkpt lat="42.470943" lon="18.764404"><ele>19.5</ele><time>2012-05-02T12:14:20.0000000+00:00</time></trkpt><trkpt lat="42.470947" lon="18.764408"><ele>19.5</ele><time>2012-05-02T12:14:25.0000000+00:00</time></trkpt><trkpt lat="42.470917" lon="18.764475"><ele>18.5</ele><time>2012-05-02T12:14:30.0000000+00:00</time></trkpt><trkpt lat="42.470829" lon="18.764469"><ele>16.9</ele><time>2012-05-02T12:14:35.0000000+00:00</time></trkpt><trkpt lat="42.470699" lon="18.764446"><ele>14.5</ele><time>2012-05-02T12:14:40.0000000+00:00</time></trkpt><trkpt lat="42.47049" lon="18.764545"><ele>12.2</ele><time>2012-05-02T12:14:45.0000000+00:00</time></trkpt><trkpt lat="42.470158" lon="18.764496"><ele>10.5</ele><time>2012-05-02T12:14:50.0000000+00:00</time></trkpt><trkpt lat="42.469849" lon="18.764259"><ele>9.0</ele><time>2012-05-02T12:14:55.0000000+00:00</time></trkpt><trkpt lat="42.469601" lon="18.763916"><ele>6.7</ele><time>2012-05-02T12:15:00.0000000+00:00</time></trkpt><trkpt lat="42.469322" lon="18.763742"><ele>6.0</ele><time>2012-05-02T12:15:05.0000000+00:00</time></trkpt><trkpt lat="42.469067" lon="18.763607"><ele>4.8</ele><time>2012-05-02T12:15:10.0000000+00:00</time></trkpt><trkpt lat="42.468845" lon="18.763527"><ele>4.4</ele><time>2012-05-02T12:15:15.0000000+00:00</time></trkpt><trkpt lat="42.468624" lon="18.763411"><ele>4.2</ele><time>2012-05-02T12:15:20.0000000+00:00</time></trkpt><trkpt lat="42.468361" lon="18.763367"><ele>3.9</ele><time>2012-05-02T12:15:25.0000000+00:00</time></trkpt><trkpt lat="42.468136" lon="18.763283"><ele>3.8</ele><time>2012-05-02T12:15:30.0000000+00:00</time></trkpt><trkpt lat="42.467892" lon="18.763168"><ele>2.9</ele><time>2012-05-02T12:15:35.0000000+00:00</time></trkpt><trkpt lat="42.467705" lon="18.763046"><ele>2.2</ele><time>2012-05-02T12:15:40.0000000+00:00</time></trkpt><trkpt lat="42.467514" lon="18.762951"><ele>1.7</ele><time>2012-05-02T12:15:45.0000000+00:00</time></trkpt><trkpt lat="42.467213" lon="18.76302"><ele>-0.2</ele><time>2012-05-02T12:15:50.0000000+00:00</time></trkpt><trkpt lat="42.466965" lon="18.763102"><ele>-2.3</ele><time>2012-05-02T12:15:55.0000000+00:00</time></trkpt><trkpt lat="42.466736" lon="18.763145"><ele>-3.9</ele><time>2012-05-02T12:16:00.0000000+00:00</time></trkpt><trkpt lat="42.466484" lon="18.763214"><ele>-3.2</ele><time>2012-05-02T12:16:05.0000000+00:00</time></trkpt><trkpt lat="42.466221" lon="18.763279"><ele>-2.7</ele><time>2012-05-02T12:16:10.0000000+00:00</time></trkpt><trkpt lat="42.465969" lon="18.763342"><ele>-2.5</ele><time>2012-05-02T12:16:15.0000000+00:00</time></trkpt><trkpt lat="42.465748" lon="18.763403"><ele>-2.8</ele><time>2012-05-02T12:16:20.0000000+00:00</time></trkpt><trkpt lat="42.465557" lon="18.763496"><ele>-3.7</ele><time>2012-05-02T12:16:25.0000000+00:00</time></trkpt><trkpt lat="42.465267" lon="18.763615"><ele>-4.3</ele><time>2012-05-02T12:16:30.0000000+00:00</time></trkpt><trkpt lat="42.465" lon="18.763731"><ele>-2.9</ele><time>2012-05-02T12:16:35.0000000+00:00</time></trkpt><trkpt lat="42.464706" lon="18.763807"><ele>-2.7</ele><time>2012-05-02T12:16:40.0000000+00:00</time></trkpt><trkpt lat="42.464424" lon="18.763924"><ele>-1.2</ele><time>2012-05-02T12:16:45.0000000+00:00</time></trkpt><trkpt lat="42.464161" lon="18.763981"><ele>-1.6</ele><time>2012-05-02T12:16:50.0000000+00:00</time></trkpt><trkpt lat="42.463894" lon="18.763962"><ele>-2.0</ele><time>2012-05-02T12:16:55.0000000+00:00</time></trkpt><trkpt lat="42.4636" lon="18.763929"><ele>0.1</ele><time>2012-05-02T12:17:00.0000000+00:00</time></trkpt><trkpt lat="42.463291" lon="18.763901"><ele>0.9</ele><time>2012-05-02T12:17:05.0000000+00:00</time></trkpt><trkpt lat="42.463017" lon="18.763916"><ele>0.8</ele><time>2012-05-02T12:17:10.0000000+00:00</time></trkpt><trkpt lat="42.462749" lon="18.76403"><ele>-0.1</ele><time>2012-05-02T12:17:15.0000000+00:00</time></trkpt><trkpt lat="42.462521" lon="18.764109"><ele>-0.9</ele><time>2012-05-02T12:17:20.0000000+00:00</time></trkpt><trkpt lat="42.462246" lon="18.764141"><ele>-0.7</ele><time>2012-05-02T12:17:25.0000000+00:00</time></trkpt><trkpt lat="42.461987" lon="18.764204"><ele>-1.3</ele><time>2012-05-02T12:17:30.0000000+00:00</time></trkpt><trkpt lat="42.461712" lon="18.764227"><ele>-0.8</ele><time>2012-05-02T12:17:35.0000000+00:00</time></trkpt><trkpt lat="42.461422" lon="18.764177"><ele>-0.3</ele><time>2012-05-02T12:17:40.0000000+00:00</time></trkpt><trkpt lat="42.46114" lon="18.764147"><ele>-0.9</ele><time>2012-05-02T12:17:45.0000000+00:00</time></trkpt><trkpt lat="42.460888" lon="18.764154"><ele>-1.3</ele><time>2012-05-02T12:17:50.0000000+00:00</time></trkpt><trkpt lat="42.460621" lon="18.764116"><ele>-2.0</ele><time>2012-05-02T12:17:55.0000000+00:00</time></trkpt><trkpt lat="42.460373" lon="18.764145"><ele>-1.9</ele><time>2012-05-02T12:18:00.0000000+00:00</time></trkpt><trkpt lat="42.460155" lon="18.764339"><ele>-1.2</ele><time>2012-05-02T12:18:05.0000000+00:00</time></trkpt><trkpt lat="42.459991" lon="18.764595"><ele>0.3</ele><time>2012-05-02T12:18:10.0000000+00:00</time></trkpt><trkpt lat="42.459793" lon="18.764797"><ele>-0.2</ele><time>2012-05-02T12:18:15.0000000+00:00</time></trkpt><trkpt lat="42.459526" lon="18.764793"><ele>-0.6</ele><time>2012-05-02T12:18:20.0000000+00:00</time></trkpt><trkpt lat="42.459366" lon="18.764765"><ele>1.2</ele><time>2012-05-02T12:18:25.0000000+00:00</time></trkpt><trkpt lat="42.45919" lon="18.764845"><ele>2.3</ele><time>2012-05-02T12:18:30.0000000+00:00</time></trkpt><trkpt lat="42.458988" lon="18.764999"><ele>2.6</ele><time>2012-05-02T12:18:35.0000000+00:00</time></trkpt><trkpt lat="42.458767" lon="18.765127"><ele>3.4</ele><time>2012-05-02T12:18:40.0000000+00:00</time></trkpt><trkpt lat="42.458534" lon="18.765135"><ele>2.2</ele><time>2012-05-02T12:18:45.0000000+00:00</time></trkpt><trkpt lat="42.45826" lon="18.765003"><ele>3.3</ele><time>2012-05-02T12:18:50.0000000+00:00</time></trkpt><trkpt lat="42.458019" lon="18.764921"><ele>3.6</ele><time>2012-05-02T12:18:55.0000000+00:00</time></trkpt><trkpt lat="42.457764" lon="18.764877"><ele>4.0</ele><time>2012-05-02T12:19:00.0000000+00:00</time></trkpt><trkpt lat="42.457535" lon="18.764938"><ele>2.8</ele><time>2012-05-02T12:19:05.0000000+00:00</time></trkpt><trkpt lat="42.457336" lon="18.765099"><ele>1.0</ele><time>2012-05-02T12:19:10.0000000+00:00</time></trkpt><trkpt lat="42.457123" lon="18.76527"><ele>0.4</ele><time>2012-05-02T12:19:15.0000000+00:00</time></trkpt><trkpt lat="42.456917" lon="18.765413"><ele>-0.7</ele><time>2012-05-02T12:19:20.0000000+00:00</time></trkpt><trkpt lat="42.456673" lon="18.765564"><ele>-1.0</ele><time>2012-05-02T12:19:25.0000000+00:00</time></trkpt><trkpt lat="42.456463" lon="18.765839"><ele>-1.7</ele><time>2012-05-02T12:19:30.0000000+00:00</time></trkpt><trkpt lat="42.456253" lon="18.765945"><ele>-2.3</ele><time>2012-05-02T12:19:35.0000000+00:00</time></trkpt><trkpt lat="42.45599" lon="18.765841"><ele>-1.8</ele><time>2012-05-02T12:19:40.0000000+00:00</time></trkpt><trkpt lat="42.455738" lon="18.765888"><ele>-4.1</ele><time>2012-05-02T12:19:45.0000000+00:00</time></trkpt><trkpt lat="42.455467" lon="18.765932"><ele>-3.9</ele><time>2012-05-02T12:19:50.0000000+00:00</time></trkpt><trkpt lat="42.455196" lon="18.765938"><ele>-2.8</ele><time>2012-05-02T12:19:55.0000000+00:00</time></trkpt><trkpt lat="42.454964" lon="18.765846"><ele>-1.7</ele><time>2012-05-02T12:20:00.0000000+00:00</time></trkpt><trkpt lat="42.454754" lon="18.765697"><ele>0.0</ele><time>2012-05-02T12:20:05.0000000+00:00</time></trkpt><trkpt lat="42.454536" lon="18.765587"><ele>2.0</ele><time>2012-05-02T12:20:10.0000000+00:00</time></trkpt><trkpt lat="42.454304" lon="18.765493"><ele>3.2</ele><time>2012-05-02T12:20:15.0000000+00:00</time></trkpt><trkpt lat="42.454174" lon="18.765471"><ele>3.4</ele><time>2012-05-02T12:20:20.0000000+00:00</time></trkpt><trkpt lat="42.454147" lon="18.765451"><ele>3.0</ele><time>2012-05-02T12:20:25.0000000+00:00</time></trkpt><trkpt lat="42.454117" lon="18.765415"><ele>4.0</ele><time>2012-05-02T12:20:30.0000000+00:00</time></trkpt><trkpt lat="42.454086" lon="18.7654"><ele>5.0</ele><time>2012-05-02T12:20:35.0000000+00:00</time></trkpt><trkpt lat="42.453999" lon="18.765333"><ele>6.0</ele><time>2012-05-02T12:20:40.0000000+00:00</time></trkpt><trkpt lat="42.454002" lon="18.765219"><ele>5.2</ele><time>2012-05-02T12:20:45.0000000+00:00</time></trkpt><trkpt lat="42.453995" lon="18.765219"><ele>5.1</ele><time>2012-05-02T12:20:50.0000000+00:00</time></trkpt><trkpt lat="42.453995" lon="18.765232"><ele>5.3</ele><time>2012-05-02T12:20:55.0000000+00:00</time></trkpt><trkpt lat="42.453999" lon="18.765255"><ele>5.7</ele><time>2012-05-02T12:21:00.0000000+00:00</time></trkpt><trkpt lat="42.453972" lon="18.765263"><ele>6.3</ele><time>2012-05-02T12:21:05.0000000+00:00</time></trkpt><trkpt lat="42.453968" lon="18.765308"><ele>6.5</ele><time>2012-05-02T12:21:10.0000000+00:00</time></trkpt><trkpt lat="42.453972" lon="18.765312"><ele>6.5</ele><time>2012-05-02T12:21:15.0000000+00:00</time></trkpt><trkpt lat="42.453941" lon="18.765209"><ele>5.3</ele><time>2012-05-02T12:21:20.0000000+00:00</time></trkpt><trkpt lat="42.453926" lon="18.7652"><ele>4.8</ele><time>2012-05-02T12:21:25.0000000+00:00</time></trkpt><trkpt lat="42.453907" lon="18.765173"><ele>3.3</ele><time>2012-05-02T12:21:30.0000000+00:00</time></trkpt><trkpt lat="42.453899" lon="18.765158"><ele>1.7</ele><time>2012-05-02T12:21:35.0000000+00:00</time></trkpt><trkpt lat="42.453884" lon="18.765163"><ele>1.5</ele><time>2012-05-02T12:21:40.0000000+00:00</time></trkpt><trkpt lat="42.453838" lon="18.765129"><ele>1.4</ele><time>2012-05-02T12:21:45.0000000+00:00</time></trkpt><trkpt lat="42.453819" lon="18.765106"><ele>1.6</ele><time>2012-05-02T12:21:50.0000000+00:00</time></trkpt><trkpt lat="42.453785" lon="18.765095"><ele>1.8</ele><time>2012-05-02T12:21:55.0000000+00:00</time></trkpt><trkpt lat="42.453754" lon="18.765095"><ele>1.9</ele><time>2012-05-02T12:22:00.0000000+00:00</time></trkpt><trkpt lat="42.453712" lon="18.765072"><ele>2.1</ele><time>2012-05-02T12:22:05.0000000+00:00</time></trkpt><trkpt lat="42.45369" lon="18.76506"><ele>1.5</ele><time>2012-05-02T12:22:10.0000000+00:00</time></trkpt><trkpt lat="42.453663" lon="18.765028"><ele>1.1</ele><time>2012-05-02T12:22:15.0000000+00:00</time></trkpt><trkpt lat="42.453629" lon="18.765022"><ele>0.9</ele><time>2012-05-02T12:22:20.0000000+00:00</time></trkpt><trkpt lat="42.453587" lon="18.765028"><ele>1.0</ele><time>2012-05-02T12:22:25.0000000+00:00</time></trkpt><trkpt lat="42.453548" lon="18.765043"><ele>0.7</ele><time>2012-05-02T12:22:30.0000000+00:00</time></trkpt><trkpt lat="42.453526" lon="18.76506"><ele>0.3</ele><time>2012-05-02T12:22:35.0000000+00:00</time></trkpt><trkpt lat="42.453495" lon="18.765043"><ele>0.0</ele><time>2012-05-02T12:22:40.0000000+00:00</time></trkpt><trkpt lat="42.453465" lon="18.765062"><ele>-0.6</ele><time>2012-05-02T12:22:45.0000000+00:00</time></trkpt><trkpt lat="42.453434" lon="18.7651"><ele>-1.9</ele><time>2012-05-02T12:22:50.0000000+00:00</time></trkpt><trkpt lat="42.453419" lon="18.765106"><ele>-2.6</ele><time>2012-05-02T12:22:55.0000000+00:00</time></trkpt><trkpt lat="42.453415" lon="18.765127"><ele>-3.9</ele><time>2012-05-02T12:23:00.0000000+00:00</time></trkpt><trkpt lat="42.453403" lon="18.765106"><ele>-4.0</ele><time>2012-05-02T12:23:05.0000000+00:00</time></trkpt><trkpt lat="42.453358" lon="18.765062"><ele>-4.6</ele><time>2012-05-02T12:23:10.0000000+00:00</time></trkpt><trkpt lat="42.453354" lon="18.765055"><ele>-4.8</ele><time>2012-05-02T12:23:15.0000000+00:00</time></trkpt><trkpt lat="42.453346" lon="18.765051"><ele>-4.6</ele><time>2012-05-02T12:23:20.0000000+00:00</time></trkpt><trkpt lat="42.453327" lon="18.765047"><ele>-4.5</ele><time>2012-05-02T12:23:25.0000000+00:00</time></trkpt><trkpt lat="42.453289" lon="18.765051"><ele>-3.8</ele><time>2012-05-02T12:23:30.0000000+00:00</time></trkpt><trkpt lat="42.453266" lon="18.765047"><ele>-3.2</ele><time>2012-05-02T12:23:35.0000000+00:00</time></trkpt><trkpt lat="42.453247" lon="18.765043"><ele>-2.5</ele><time>2012-05-02T12:23:40.0000000+00:00</time></trkpt><trkpt lat="42.453209" lon="18.765047"><ele>-2.1</ele><time>2012-05-02T12:23:45.0000000+00:00</time></trkpt><trkpt lat="42.453117" lon="18.765038"><ele>-1.9</ele><time>2012-05-02T12:23:50.0000000+00:00</time></trkpt><trkpt lat="42.453049" lon="18.764997"><ele>-1.2</ele><time>2012-05-02T12:23:55.0000000+00:00</time></trkpt><trkpt lat="42.452988" lon="18.764936"><ele>-0.8</ele><time>2012-05-02T12:24:00.0000000+00:00</time></trkpt><trkpt lat="42.452888" lon="18.76495"><ele>0.1</ele><time>2012-05-02T12:24:05.0000000+00:00</time></trkpt><trkpt lat="42.452694" lon="18.765022"><ele>-0.4</ele><time>2012-05-02T12:24:10.0000000+00:00</time></trkpt><trkpt lat="42.452473" lon="18.765066"><ele>-1.2</ele><time>2012-05-02T12:24:15.0000000+00:00</time></trkpt><trkpt lat="42.45229" lon="18.7651"><ele>-1.4</ele><time>2012-05-02T12:24:20.0000000+00:00</time></trkpt><trkpt lat="42.452141" lon="18.765055"><ele>-1.1</ele><time>2012-05-02T12:24:25.0000000+00:00</time></trkpt><trkpt lat="42.451969" lon="18.765085"><ele>-2.0</ele><time>2012-05-02T12:24:30.0000000+00:00</time></trkpt><trkpt lat="42.451778" lon="18.765156"><ele>-3.5</ele><time>2012-05-02T12:24:35.0000000+00:00</time></trkpt><trkpt lat="42.45158" lon="18.765228"><ele>-3.4</ele><time>2012-05-02T12:24:40.0000000+00:00</time></trkpt><trkpt lat="42.451374" lon="18.765274"><ele>-4.0</ele><time>2012-05-02T12:24:45.0000000+00:00</time></trkpt><trkpt lat="42.45113" lon="18.765263"><ele>-3.5</ele><time>2012-05-02T12:24:50.0000000+00:00</time></trkpt><trkpt lat="42.450912" lon="18.765265"><ele>-3.6</ele><time>2012-05-02T12:24:55.0000000+00:00</time></trkpt><trkpt lat="42.450745" lon="18.765217"><ele>-3.5</ele><time>2012-05-02T12:25:00.0000000+00:00</time></trkpt><trkpt lat="42.450672" lon="18.765076"><ele>-4.8</ele><time>2012-05-02T12:25:05.0000000+00:00</time></trkpt><trkpt lat="42.450527" lon="18.76494"><ele>-3.5</ele><time>2012-05-02T12:25:10.0000000+00:00</time></trkpt><trkpt lat="42.450279" lon="18.764872"><ele>-2.6</ele><time>2012-05-02T12:25:15.0000000+00:00</time></trkpt><trkpt lat="42.450047" lon="18.765005"><ele>-4.6</ele><time>2012-05-02T12:25:20.0000000+00:00</time></trkpt><trkpt lat="42.449764" lon="18.765039"><ele>-5.4</ele><time>2012-05-02T12:25:25.0000000+00:00</time></trkpt><trkpt lat="42.449478" lon="18.765051"><ele>-5.2</ele><time>2012-05-02T12:25:30.0000000+00:00</time></trkpt><trkpt lat="42.449268" lon="18.76528"><ele>-5.5</ele><time>2012-05-02T12:25:35.0000000+00:00</time></trkpt><trkpt lat="42.449055" lon="18.765556"><ele>-6.2</ele><time>2012-05-02T12:25:40.0000000+00:00</time></trkpt><trkpt lat="42.448975" lon="18.765596"><ele>-5.7</ele><time>2012-05-02T12:25:45.0000000+00:00</time></trkpt><trkpt lat="42.448975" lon="18.765608"><ele>-5.2</ele><time>2012-05-02T12:25:50.0000000+00:00</time></trkpt><trkpt lat="42.448967" lon="18.765615"><ele>-5.1</ele><time>2012-05-02T12:25:55.0000000+00:00</time></trkpt><trkpt lat="42.448959" lon="18.765633"><ele>-5.1</ele><time>2012-05-02T12:26:00.0000000+00:00</time></trkpt><trkpt lat="42.448853" lon="18.765688"><ele>-5.0</ele><time>2012-05-02T12:26:05.0000000+00:00</time></trkpt><trkpt lat="42.44873" lon="18.765728"><ele>-4.1</ele><time>2012-05-02T12:26:10.0000000+00:00</time></trkpt><trkpt lat="42.448689" lon="18.765741"><ele>-2.9</ele><time>2012-05-02T12:26:15.0000000+00:00</time></trkpt><trkpt lat="42.448639" lon="18.765726"><ele>-3.0</ele><time>2012-05-02T12:26:20.0000000+00:00</time></trkpt><trkpt lat="42.448627" lon="18.765732"><ele>-2.8</ele><time>2012-05-02T12:26:25.0000000+00:00</time></trkpt><trkpt lat="42.448578" lon="18.765743"><ele>-2.4</ele><time>2012-05-02T12:26:30.0000000+00:00</time></trkpt><trkpt lat="42.448521" lon="18.765739"><ele>-2.0</ele><time>2012-05-02T12:26:35.0000000+00:00</time></trkpt><trkpt lat="42.448448" lon="18.765722"><ele>-1.1</ele><time>2012-05-02T12:26:40.0000000+00:00</time></trkpt><trkpt lat="42.44838" lon="18.765669"><ele>-1.1</ele><time>2012-05-02T12:26:45.0000000+00:00</time></trkpt><trkpt lat="42.448334" lon="18.765644"><ele>-1.2</ele><time>2012-05-02T12:26:50.0000000+00:00</time></trkpt><trkpt lat="42.448341" lon="18.765638"><ele>-0.6</ele><time>2012-05-02T12:26:55.0000000+00:00</time></trkpt><trkpt lat="42.448345" lon="18.76564"><ele>-0.5</ele><time>2012-05-02T12:27:00.0000000+00:00</time></trkpt><trkpt lat="42.448345" lon="18.765636"><ele>-0.5</ele><time>2012-05-02T12:27:05.0000000+00:00</time></trkpt><trkpt lat="42.448257" lon="18.765657"><ele>-1.2</ele><time>2012-05-02T12:27:10.0000000+00:00</time></trkpt><trkpt lat="42.448181" lon="18.765621"><ele>-1.5</ele><time>2012-05-02T12:27:15.0000000+00:00</time></trkpt><trkpt lat="42.448185" lon="18.765621"><ele>-1.6</ele><time>2012-05-02T12:27:20.0000000+00:00</time></trkpt><trkpt lat="42.448185" lon="18.765619"><ele>-1.6</ele><time>2012-05-02T12:27:25.0000000+00:00</time></trkpt><trkpt lat="42.448189" lon="18.765619"><ele>-1.6</ele><time>2012-05-02T12:27:30.0000000+00:00</time></trkpt><trkpt lat="42.448185" lon="18.765619"><ele>-1.6</ele><time>2012-05-02T12:27:35.0000000+00:00</time></trkpt><trkpt lat="42.448055" lon="18.765596"><ele>-2.1</ele><time>2012-05-02T12:27:40.0000000+00:00</time></trkpt><trkpt lat="42.447948" lon="18.765547"><ele>-2.0</ele><time>2012-05-02T12:27:45.0000000+00:00</time></trkpt><trkpt lat="42.44783" lon="18.765503"><ele>-1.7</ele><time>2012-05-02T12:27:50.0000000+00:00</time></trkpt><trkpt lat="42.447731" lon="18.765448"><ele>-1.2</ele><time>2012-05-02T12:27:55.0000000+00:00</time></trkpt><trkpt lat="42.447651" lon="18.765383"><ele>-0.4</ele><time>2012-05-02T12:28:00.0000000+00:00</time></trkpt><trkpt lat="42.447536" lon="18.765345"><ele>-0.3</ele><time>2012-05-02T12:28:05.0000000+00:00</time></trkpt><trkpt lat="42.447346" lon="18.765341"><ele>-0.6</ele><time>2012-05-02T12:28:10.0000000+00:00</time></trkpt><trkpt lat="42.447113" lon="18.765404"><ele>-1.8</ele><time>2012-05-02T12:28:15.0000000+00:00</time></trkpt><trkpt lat="42.446869" lon="18.765471"><ele>-1.1</ele><time>2012-05-02T12:28:20.0000000+00:00</time></trkpt><trkpt lat="42.44664" lon="18.765451"><ele>-1.3</ele><time>2012-05-02T12:28:25.0000000+00:00</time></trkpt><trkpt lat="42.44643" lon="18.765362"><ele>-0.5</ele><time>2012-05-02T12:28:30.0000000+00:00</time></trkpt><trkpt lat="42.446213" lon="18.765253"><ele>-0.7</ele><time>2012-05-02T12:28:35.0000000+00:00</time></trkpt><trkpt lat="42.445988" lon="18.765121"><ele>-0.9</ele><time>2012-05-02T12:28:40.0000000+00:00</time></trkpt><trkpt lat="42.445744" lon="18.764965"><ele>-1.4</ele><time>2012-05-02T12:28:45.0000000+00:00</time></trkpt><trkpt lat="42.445503" lon="18.764839"><ele>-2.4</ele><time>2012-05-02T12:28:50.0000000+00:00</time></trkpt><trkpt lat="42.445248" lon="18.76469"><ele>-3.6</ele><time>2012-05-02T12:28:55.0000000+00:00</time></trkpt><trkpt lat="42.444984" lon="18.764591"><ele>-3.2</ele><time>2012-05-02T12:29:00.0000000+00:00</time></trkpt><trkpt lat="42.444752" lon="18.764421"><ele>-2.6</ele><time>2012-05-02T12:29:05.0000000+00:00</time></trkpt><trkpt lat="42.444508" lon="18.764271"><ele>-1.7</ele><time>2012-05-02T12:29:10.0000000+00:00</time></trkpt><trkpt lat="42.444248" lon="18.764099"><ele>-0.8</ele><time>2012-05-02T12:29:15.0000000+00:00</time></trkpt><trkpt lat="42.444004" lon="18.763889"><ele>-0.2</ele><time>2012-05-02T12:29:20.0000000+00:00</time></trkpt><trkpt lat="42.443768" lon="18.763716"><ele>-0.2</ele><time>2012-05-02T12:29:25.0000000+00:00</time></trkpt><trkpt lat="42.443474" lon="18.763676"><ele>0.2</ele><time>2012-05-02T12:29:30.0000000+00:00</time></trkpt><trkpt lat="42.443222" lon="18.763615"><ele>1.2</ele><time>2012-05-02T12:29:35.0000000+00:00</time></trkpt><trkpt lat="42.443005" lon="18.763407"><ele>1.8</ele><time>2012-05-02T12:29:40.0000000+00:00</time></trkpt><trkpt lat="42.442814" lon="18.763124"><ele>2.9</ele><time>2012-05-02T12:29:45.0000000+00:00</time></trkpt><trkpt lat="42.44265" lon="18.762781"><ele>2.1</ele><time>2012-05-02T12:29:50.0000000+00:00</time></trkpt><trkpt lat="42.442482" lon="18.762493"><ele>2.8</ele><time>2012-05-02T12:29:55.0000000+00:00</time></trkpt><trkpt lat="42.442287" lon="18.762188"><ele>3.2</ele><time>2012-05-02T12:30:00.0000000+00:00</time></trkpt><trkpt lat="42.442009" lon="18.761974"><ele>2.7</ele><time>2012-05-02T12:30:05.0000000+00:00</time></trkpt><trkpt lat="42.441784" lon="18.76189"><ele>2.6</ele><time>2012-05-02T12:30:10.0000000+00:00</time></trkpt><trkpt lat="42.441566" lon="18.761925"><ele>2.2</ele><time>2012-05-02T12:30:15.0000000+00:00</time></trkpt><trkpt lat="42.441418" lon="18.761953"><ele>2.1</ele><time>2012-05-02T12:30:20.0000000+00:00</time></trkpt><trkpt lat="42.441303" lon="18.761959"><ele>1.1</ele><time>2012-05-02T12:30:25.0000000+00:00</time></trkpt><trkpt lat="42.441162" lon="18.762012"><ele>2.2</ele><time>2012-05-02T12:30:30.0000000+00:00</time></trkpt><trkpt lat="42.441044" lon="18.762066"><ele>3.6</ele><time>2012-05-02T12:30:35.0000000+00:00</time></trkpt><trkpt lat="42.440895" lon="18.762115"><ele>3.9</ele><time>2012-05-02T12:30:40.0000000+00:00</time></trkpt><trkpt lat="42.440739" lon="18.762167"><ele>3.9</ele><time>2012-05-02T12:30:45.0000000+00:00</time></trkpt><trkpt lat="42.440613" lon="18.762238"><ele>3.4</ele><time>2012-05-02T12:30:50.0000000+00:00</time></trkpt><trkpt lat="42.440475" lon="18.762272"><ele>3.5</ele><time>2012-05-02T12:30:55.0000000+00:00</time></trkpt><trkpt lat="42.440319" lon="18.762346"><ele>2.7</ele><time>2012-05-02T12:31:00.0000000+00:00</time></trkpt><trkpt lat="42.440132" lon="18.762453"><ele>2.1</ele><time>2012-05-02T12:31:05.0000000+00:00</time></trkpt><trkpt lat="42.439945" lon="18.762583"><ele>0.1</ele><time>2012-05-02T12:31:10.0000000+00:00</time></trkpt><trkpt lat="42.439793" lon="18.762814"><ele>-0.6</ele><time>2012-05-02T12:31:15.0000000+00:00</time></trkpt><trkpt lat="42.439651" lon="18.763021"><ele>-0.2</ele><time>2012-05-02T12:31:20.0000000+00:00</time></trkpt><trkpt lat="42.439438" lon="18.76313"><ele>-0.9</ele><time>2012-05-02T12:31:25.0000000+00:00</time></trkpt><trkpt lat="42.439198" lon="18.76322"><ele>-0.9</ele><time>2012-05-02T12:31:30.0000000+00:00</time></trkpt><trkpt lat="42.438984" lon="18.763332"><ele>0.3</ele><time>2012-05-02T12:31:35.0000000+00:00</time></trkpt><trkpt lat="42.438789" lon="18.763472"><ele>0.7</ele><time>2012-05-02T12:31:40.0000000+00:00</time></trkpt><trkpt lat="42.438599" lon="18.763676"><ele>-0.0</ele><time>2012-05-02T12:31:45.0000000+00:00</time></trkpt><trkpt lat="42.438389" lon="18.763876"><ele>0.5</ele><time>2012-05-02T12:31:50.0000000+00:00</time></trkpt><trkpt lat="42.438179" lon="18.764046"><ele>0.8</ele><time>2012-05-02T12:31:55.0000000+00:00</time></trkpt><trkpt lat="42.437973" lon="18.764238"><ele>2.0</ele><time>2012-05-02T12:32:00.0000000+00:00</time></trkpt><trkpt lat="42.437737" lon="18.764362"><ele>2.7</ele><time>2012-05-02T12:32:05.0000000+00:00</time></trkpt><trkpt lat="42.437443" lon="18.764425"><ele>1.9</ele><time>2012-05-02T12:32:10.0000000+00:00</time></trkpt><trkpt lat="42.437168" lon="18.764509"><ele>3.2</ele><time>2012-05-02T12:32:15.0000000+00:00</time></trkpt><trkpt lat="42.43697" lon="18.764565"><ele>2.9</ele><time>2012-05-02T12:32:20.0000000+00:00</time></trkpt><trkpt lat="42.436787" lon="18.764551"><ele>3.3</ele><time>2012-05-02T12:32:25.0000000+00:00</time></trkpt><trkpt lat="42.436611" lon="18.764517"><ele>3.7</ele><time>2012-05-02T12:32:30.0000000+00:00</time></trkpt><trkpt lat="42.436432" lon="18.764538"><ele>5.2</ele><time>2012-05-02T12:32:35.0000000+00:00</time></trkpt><trkpt lat="42.436264" lon="18.764542"><ele>5.9</ele><time>2012-05-02T12:32:40.0000000+00:00</time></trkpt><trkpt lat="42.436081" lon="18.764616"><ele>6.1</ele><time>2012-05-02T12:32:45.0000000+00:00</time></trkpt><trkpt lat="42.435925" lon="18.764891"><ele>6.7</ele><time>2012-05-02T12:32:50.0000000+00:00</time></trkpt><trkpt lat="42.435822" lon="18.765171"><ele>8.9</ele><time>2012-05-02T12:32:55.0000000+00:00</time></trkpt><trkpt lat="42.435726" lon="18.76545"><ele>10.2</ele><time>2012-05-02T12:33:00.0000000+00:00</time></trkpt><trkpt lat="42.435593" lon="18.765751"><ele>10.6</ele><time>2012-05-02T12:33:05.0000000+00:00</time></trkpt><trkpt lat="42.435368" lon="18.766024"><ele>9.4</ele><time>2012-05-02T12:33:10.0000000+00:00</time></trkpt><trkpt lat="42.435127" lon="18.766233"><ele>6.7</ele><time>2012-05-02T12:33:15.0000000+00:00</time></trkpt><trkpt lat="42.43491" lon="18.766415"><ele>4.6</ele><time>2012-05-02T12:33:20.0000000+00:00</time></trkpt><trkpt lat="42.434677" lon="18.766611"><ele>5.0</ele><time>2012-05-02T12:33:25.0000000+00:00</time></trkpt><trkpt lat="42.434448" lon="18.766777"><ele>3.8</ele><time>2012-05-02T12:33:30.0000000+00:00</time></trkpt><trkpt lat="42.434227" lon="18.766956"><ele>3.5</ele><time>2012-05-02T12:33:35.0000000+00:00</time></trkpt><trkpt lat="42.433971" lon="18.767054"><ele>3.9</ele><time>2012-05-02T12:33:40.0000000+00:00</time></trkpt><trkpt lat="42.43372" lon="18.767155"><ele>4.9</ele><time>2012-05-02T12:33:45.0000000+00:00</time></trkpt><trkpt lat="42.433456" lon="18.767263"><ele>3.9</ele><time>2012-05-02T12:33:50.0000000+00:00</time></trkpt><trkpt lat="42.433197" lon="18.767372"><ele>2.6</ele><time>2012-05-02T12:33:55.0000000+00:00</time></trkpt><trkpt lat="42.432953" lon="18.767385"><ele>3.3</ele><time>2012-05-02T12:34:00.0000000+00:00</time></trkpt><trkpt lat="42.432693" lon="18.767353"><ele>3.8</ele><time>2012-05-02T12:34:05.0000000+00:00</time></trkpt><trkpt lat="42.432465" lon="18.767321"><ele>5.8</ele><time>2012-05-02T12:34:10.0000000+00:00</time></trkpt><trkpt lat="42.432224" lon="18.767323"><ele>4.7</ele><time>2012-05-02T12:34:15.0000000+00:00</time></trkpt><trkpt lat="42.432049" lon="18.767334"><ele>5.1</ele><time>2012-05-02T12:34:20.0000000+00:00</time></trkpt><trkpt lat="42.431946" lon="18.767363"><ele>3.9</ele><time>2012-05-02T12:34:25.0000000+00:00</time></trkpt><trkpt lat="42.431759" lon="18.767376"><ele>3.8</ele><time>2012-05-02T12:34:30.0000000+00:00</time></trkpt><trkpt lat="42.431499" lon="18.76741"><ele>3.3</ele><time>2012-05-02T12:34:35.0000000+00:00</time></trkpt><trkpt lat="42.431248" lon="18.76754"><ele>3.0</ele><time>2012-05-02T12:34:40.0000000+00:00</time></trkpt><trkpt lat="42.430981" lon="18.767658"><ele>2.0</ele><time>2012-05-02T12:34:45.0000000+00:00</time></trkpt><trkpt lat="42.430729" lon="18.767612"><ele>3.4</ele><time>2012-05-02T12:34:50.0000000+00:00</time></trkpt><trkpt lat="42.430473" lon="18.767561"><ele>4.9</ele><time>2012-05-02T12:34:55.0000000+00:00</time></trkpt><trkpt lat="42.430206" lon="18.767702"><ele>4.2</ele><time>2012-05-02T12:35:00.0000000+00:00</time></trkpt><trkpt lat="42.429924" lon="18.767887"><ele>3.4</ele><time>2012-05-02T12:35:05.0000000+00:00</time></trkpt><trkpt lat="42.42963" lon="18.768099"><ele>3.3</ele><time>2012-05-02T12:35:10.0000000+00:00</time></trkpt><trkpt lat="42.429382" lon="18.76836"><ele>4.0</ele><time>2012-05-02T12:35:15.0000000+00:00</time></trkpt><trkpt lat="42.429138" lon="18.768604"><ele>4.1</ele><time>2012-05-02T12:35:20.0000000+00:00</time></trkpt><trkpt lat="42.428947" lon="18.768879"><ele>4.7</ele><time>2012-05-02T12:35:25.0000000+00:00</time></trkpt><trkpt lat="42.428764" lon="18.769051"><ele>5.3</ele><time>2012-05-02T12:35:30.0000000+00:00</time></trkpt><trkpt lat="42.428627" lon="18.769062"><ele>6.2</ele><time>2012-05-02T12:35:35.0000000+00:00</time></trkpt><trkpt lat="42.428555" lon="18.769053"><ele>6.0</ele><time>2012-05-02T12:35:40.0000000+00:00</time></trkpt><trkpt lat="42.428509" lon="18.76903"><ele>7.9</ele><time>2012-05-02T12:35:45.0000000+00:00</time></trkpt><trkpt lat="42.428509" lon="18.769032"><ele>7.8</ele><time>2012-05-02T12:35:50.0000000+00:00</time></trkpt><trkpt lat="42.428509" lon="18.769032"><ele>7.8</ele><time>2012-05-02T12:35:55.0000000+00:00</time></trkpt><trkpt lat="42.428509" lon="18.769028"><ele>7.8</ele><time>2012-05-02T12:36:00.0000000+00:00</time></trkpt><trkpt lat="42.428505" lon="18.769033"><ele>7.8</ele><time>2012-05-02T12:36:05.0000000+00:00</time></trkpt><trkpt lat="42.428455" lon="18.769064"><ele>8.1</ele><time>2012-05-02T12:36:10.0000000+00:00</time></trkpt><trkpt lat="42.42828" lon="18.769022"><ele>8.6</ele><time>2012-05-02T12:36:15.0000000+00:00</time></trkpt><trkpt lat="42.428051" lon="18.768946"><ele>8.5</ele><time>2012-05-02T12:36:20.0000000+00:00</time></trkpt><trkpt lat="42.42786" lon="18.768929"><ele>8.3</ele><time>2012-05-02T12:36:25.0000000+00:00</time></trkpt><trkpt lat="42.427746" lon="18.768904"><ele>10.1</ele><time>2012-05-02T12:36:30.0000000+00:00</time></trkpt><trkpt lat="42.427628" lon="18.768873"><ele>10.8</ele><time>2012-05-02T12:36:35.0000000+00:00</time></trkpt><trkpt lat="42.427437" lon="18.768806"><ele>14.5</ele><time>2012-05-02T12:36:40.0000000+00:00</time></trkpt><trkpt lat="42.427238" lon="18.768726"><ele>18.0</ele><time>2012-05-02T12:36:45.0000000+00:00</time></trkpt><trkpt lat="42.427036" lon="18.76862"><ele>21.0</ele><time>2012-05-02T12:36:50.0000000+00:00</time></trkpt><trkpt lat="42.426781" lon="18.768511"><ele>22.7</ele><time>2012-05-02T12:36:55.0000000+00:00</time></trkpt><trkpt lat="42.426552" lon="18.768452"><ele>24.2</ele><time>2012-05-02T12:37:00.0000000+00:00</time></trkpt><trkpt lat="42.426277" lon="18.768372"><ele>24.2</ele><time>2012-05-02T12:37:05.0000000+00:00</time></trkpt><trkpt lat="42.426037" lon="18.768364"><ele>22.6</ele><time>2012-05-02T12:37:10.0000000+00:00</time></trkpt><trkpt lat="42.425808" lon="18.768347"><ele>19.6</ele><time>2012-05-02T12:37:15.0000000+00:00</time></trkpt><trkpt lat="42.425632" lon="18.768276"><ele>19.3</ele><time>2012-05-02T12:37:20.0000000+00:00</time></trkpt><trkpt lat="42.425426" lon="18.768242"><ele>15.9</ele><time>2012-05-02T12:37:25.0000000+00:00</time></trkpt><trkpt lat="42.425224" lon="18.768353"><ele>14.3</ele><time>2012-05-02T12:37:30.0000000+00:00</time></trkpt><trkpt lat="42.425064" lon="18.768557"><ele>13.0</ele><time>2012-05-02T12:37:35.0000000+00:00</time></trkpt><trkpt lat="42.424931" lon="18.768778"><ele>11.8</ele><time>2012-05-02T12:37:40.0000000+00:00</time></trkpt><trkpt lat="42.424797" lon="18.768967"><ele>11.1</ele><time>2012-05-02T12:37:45.0000000+00:00</time></trkpt><trkpt lat="42.42466" lon="18.769173"><ele>10.7</ele><time>2012-05-02T12:37:50.0000000+00:00</time></trkpt><trkpt lat="42.424545" lon="18.769341"><ele>9.9</ele><time>2012-05-02T12:37:55.0000000+00:00</time></trkpt><trkpt lat="42.424541" lon="18.769382"><ele>9.7</ele><time>2012-05-02T12:38:00.0000000+00:00</time></trkpt><trkpt lat="42.42453" lon="18.769392"><ele>9.6</ele><time>2012-05-02T12:38:05.0000000+00:00</time></trkpt><trkpt lat="42.424526" lon="18.769392"><ele>9.5</ele><time>2012-05-02T12:38:10.0000000+00:00</time></trkpt><trkpt lat="42.424526" lon="18.76939"><ele>9.4</ele><time>2012-05-02T12:38:15.0000000+00:00</time></trkpt><trkpt lat="42.424526" lon="18.76939"><ele>9.4</ele><time>2012-05-02T12:38:20.0000000+00:00</time></trkpt><trkpt lat="42.42453" lon="18.769388"><ele>9.4</ele><time>2012-05-02T12:38:25.0000000+00:00</time></trkpt><trkpt lat="42.42453" lon="18.769388"><ele>9.4</ele><time>2012-05-02T12:38:30.0000000+00:00</time></trkpt><trkpt lat="42.42453" lon="18.769386"><ele>9.5</ele><time>2012-05-02T12:38:35.0000000+00:00</time></trkpt><trkpt lat="42.42453" lon="18.769386"><ele>9.5</ele><time>2012-05-02T12:38:40.0000000+00:00</time></trkpt><trkpt lat="42.42453" lon="18.769386"><ele>9.5</ele><time>2012-05-02T12:38:45.0000000+00:00</time></trkpt><trkpt lat="42.42453" lon="18.769386"><ele>9.5</ele><time>2012-05-02T12:38:50.0000000+00:00</time></trkpt><trkpt lat="42.42453" lon="18.769386"><ele>9.5</ele><time>2012-05-02T12:38:55.0000000+00:00</time></trkpt><trkpt lat="42.42453" lon="18.769384"><ele>9.5</ele><time>2012-05-02T12:39:00.0000000+00:00</time></trkpt><trkpt lat="42.424534" lon="18.769384"><ele>9.5</ele><time>2012-05-02T12:39:05.0000000+00:00</time></trkpt><trkpt lat="42.424534" lon="18.769384"><ele>9.5</ele><time>2012-05-02T12:39:10.0000000+00:00</time></trkpt><trkpt lat="42.424534" lon="18.769384"><ele>9.5</ele><time>2012-05-02T12:39:15.0000000+00:00</time></trkpt><trkpt lat="42.424534" lon="18.769384"><ele>9.5</ele><time>2012-05-02T12:39:20.0000000+00:00</time></trkpt><trkpt lat="42.424534" lon="18.769384"><ele>9.5</ele><time>2012-05-02T12:39:25.0000000+00:00</time></trkpt><trkpt lat="42.424534" lon="18.769384"><ele>9.5</ele><time>2012-05-02T12:39:30.0000000+00:00</time></trkpt><trkpt lat="42.424534" lon="18.769384"><ele>9.5</ele><time>2012-05-02T12:39:35.0000000+00:00</time></trkpt><trkpt lat="42.424534" lon="18.769382"><ele>9.5</ele><time>2012-05-02T12:39:40.0000000+00:00</time></trkpt><trkpt lat="42.424534" lon="18.769382"><ele>9.5</ele><time>2012-05-02T12:39:45.0000000+00:00</time></trkpt><trkpt lat="42.424534" lon="18.769381"><ele>9.5</ele><time>2012-05-02T12:39:50.0000000+00:00</time></trkpt><trkpt lat="42.424534" lon="18.769381"><ele>9.6</ele><time>2012-05-02T12:39:55.0000000+00:00</time></trkpt><trkpt lat="42.424534" lon="18.769381"><ele>9.6</ele><time>2012-05-02T12:40:00.0000000+00:00</time></trkpt><trkpt lat="42.424534" lon="18.769381"><ele>9.6</ele><time>2012-05-02T12:40:05.0000000+00:00</time></trkpt><trkpt lat="42.424534" lon="18.769381"><ele>9.6</ele><time>2012-05-02T12:40:10.0000000+00:00</time></trkpt><trkpt lat="42.424534" lon="18.769381"><ele>9.6</ele><time>2012-05-02T12:40:15.0000000+00:00</time></trkpt><trkpt lat="42.424534" lon="18.769379"><ele>9.6</ele><time>2012-05-02T12:40:20.0000000+00:00</time></trkpt><trkpt lat="42.424534" lon="18.769379"><ele>9.7</ele><time>2012-05-02T12:40:25.0000000+00:00</time></trkpt><trkpt lat="42.424534" lon="18.769379"><ele>9.7</ele><time>2012-05-02T12:40:30.0000000+00:00</time></trkpt><trkpt lat="42.424534" lon="18.769379"><ele>9.7</ele><time>2012-05-02T12:40:35.0000000+00:00</time></trkpt><trkpt lat="42.424534" lon="18.769379"><ele>9.7</ele><time>2012-05-02T12:40:40.0000000+00:00</time></trkpt><trkpt lat="42.424534" lon="18.769379"><ele>9.7</ele><time>2012-05-02T12:40:45.0000000+00:00</time></trkpt><trkpt lat="42.424534" lon="18.769377"><ele>9.8</ele><time>2012-05-02T12:40:50.0000000+00:00</time></trkpt><trkpt lat="42.424534" lon="18.769377"><ele>9.7</ele><time>2012-05-02T12:40:55.0000000+00:00</time></trkpt><trkpt lat="42.424534" lon="18.769377"><ele>9.8</ele><time>2012-05-02T12:41:00.0000000+00:00</time></trkpt><trkpt lat="42.424534" lon="18.769377"><ele>9.8</ele><time>2012-05-02T12:41:05.0000000+00:00</time></trkpt><trkpt lat="42.424534" lon="18.769377"><ele>9.8</ele><time>2012-05-02T12:41:10.0000000+00:00</time></trkpt><trkpt lat="42.424534" lon="18.769377"><ele>9.8</ele><time>2012-05-02T12:41:15.0000000+00:00</time></trkpt><trkpt lat="42.424534" lon="18.769377"><ele>9.8</ele><time>2012-05-02T12:41:20.0000000+00:00</time></trkpt><trkpt lat="42.424534" lon="18.769375"><ele>9.8</ele><time>2012-05-02T12:41:25.0000000+00:00</time></trkpt><trkpt lat="42.424534" lon="18.769375"><ele>9.8</ele><time>2012-05-02T12:41:30.0000000+00:00</time></trkpt><trkpt lat="42.424534" lon="18.769375"><ele>9.8</ele><time>2012-05-02T12:41:35.0000000+00:00</time></trkpt><trkpt lat="42.424534" lon="18.769375"><ele>9.8</ele><time>2012-05-02T12:41:40.0000000+00:00</time></trkpt><trkpt lat="42.424534" lon="18.769375"><ele>9.8</ele><time>2012-05-02T12:41:45.0000000+00:00</time></trkpt><trkpt lat="42.424534" lon="18.769375"><ele>9.8</ele><time>2012-05-02T12:41:50.0000000+00:00</time></trkpt><trkpt lat="42.424534" lon="18.769375"><ele>9.8</ele><time>2012-05-02T12:41:55.0000000+00:00</time></trkpt><trkpt lat="42.424538" lon="18.769375"><ele>9.8</ele><time>2012-05-02T12:42:00.0000000+00:00</time></trkpt><trkpt lat="42.424538" lon="18.769375"><ele>9.9</ele><time>2012-05-02T12:42:05.0000000+00:00</time></trkpt><trkpt lat="42.424538" lon="18.769375"><ele>9.9</ele><time>2012-05-02T12:42:10.0000000+00:00</time></trkpt><trkpt lat="42.424538" lon="18.769375"><ele>9.9</ele><time>2012-05-02T12:42:15.0000000+00:00</time></trkpt><trkpt lat="42.424538" lon="18.769373"><ele>9.9</ele><time>2012-05-02T12:42:20.0000000+00:00</time></trkpt><trkpt lat="42.424538" lon="18.769373"><ele>9.9</ele><time>2012-05-02T12:42:25.0000000+00:00</time></trkpt><trkpt lat="42.424538" lon="18.769373"><ele>9.9</ele><time>2012-05-02T12:42:30.0000000+00:00</time></trkpt><trkpt lat="42.424538" lon="18.769371"><ele>9.9</ele><time>2012-05-02T12:42:35.0000000+00:00</time></trkpt><trkpt lat="42.424538" lon="18.769371"><ele>9.9</ele><time>2012-05-02T12:42:40.0000000+00:00</time></trkpt><trkpt lat="42.424534" lon="18.769371"><ele>9.9</ele><time>2012-05-02T12:42:45.0000000+00:00</time></trkpt><trkpt lat="42.424538" lon="18.769371"><ele>9.9</ele><time>2012-05-02T12:42:50.0000000+00:00</time></trkpt><trkpt lat="42.424538" lon="18.769369"><ele>9.9</ele><time>2012-05-02T12:42:55.0000000+00:00</time></trkpt><trkpt lat="42.424538" lon="18.769369"><ele>9.9</ele><time>2012-05-02T12:43:00.0000000+00:00</time></trkpt><trkpt lat="42.424538" lon="18.769369"><ele>9.9</ele><time>2012-05-02T12:43:05.0000000+00:00</time></trkpt><trkpt lat="42.424538" lon="18.769369"><ele>9.9</ele><time>2012-05-02T12:43:10.0000000+00:00</time></trkpt><trkpt lat="42.424538" lon="18.769369"><ele>9.9</ele><time>2012-05-02T12:43:15.0000000+00:00</time></trkpt><trkpt lat="42.424538" lon="18.769367"><ele>10.0</ele><time>2012-05-02T12:43:20.0000000+00:00</time></trkpt><trkpt lat="42.424538" lon="18.769367"><ele>10.0</ele><time>2012-05-02T12:43:25.0000000+00:00</time></trkpt><trkpt lat="42.424538" lon="18.769365"><ele>10.0</ele><time>2012-05-02T12:43:30.0000000+00:00</time></trkpt><trkpt lat="42.424538" lon="18.769365"><ele>10.0</ele><time>2012-05-02T12:43:35.0000000+00:00</time></trkpt><trkpt lat="42.424538" lon="18.769365"><ele>10.1</ele><time>2012-05-02T12:43:40.0000000+00:00</time></trkpt><trkpt lat="42.424538" lon="18.769365"><ele>10.1</ele><time>2012-05-02T12:43:45.0000000+00:00</time></trkpt><trkpt lat="42.424538" lon="18.769365"><ele>10.1</ele><time>2012-05-02T12:43:50.0000000+00:00</time></trkpt><trkpt lat="42.424538" lon="18.769365"><ele>10.1</ele><time>2012-05-02T12:43:55.0000000+00:00</time></trkpt><trkpt lat="42.424538" lon="18.769365"><ele>10.0</ele><time>2012-05-02T12:44:00.0000000+00:00</time></trkpt><trkpt lat="42.424538" lon="18.769363"><ele>10.0</ele><time>2012-05-02T12:44:05.0000000+00:00</time></trkpt><trkpt lat="42.424538" lon="18.769363"><ele>10.0</ele><time>2012-05-02T12:44:10.0000000+00:00</time></trkpt><trkpt lat="42.424538" lon="18.769363"><ele>10.0</ele><time>2012-05-02T12:44:15.0000000+00:00</time></trkpt><trkpt lat="42.424538" lon="18.769363"><ele>10.0</ele><time>2012-05-02T12:44:20.0000000+00:00</time></trkpt><trkpt lat="42.424538" lon="18.769363"><ele>10.0</ele><time>2012-05-02T12:44:25.0000000+00:00</time></trkpt><trkpt lat="42.424538" lon="18.769363"><ele>10.0</ele><time>2012-05-02T12:44:30.0000000+00:00</time></trkpt><trkpt lat="42.424538" lon="18.769363"><ele>10.0</ele><time>2012-05-02T12:44:35.0000000+00:00</time></trkpt><trkpt lat="42.424538" lon="18.769363"><ele>10.0</ele><time>2012-05-02T12:44:40.0000000+00:00</time></trkpt><trkpt lat="42.424538" lon="18.769363"><ele>10.0</ele><time>2012-05-02T12:44:45.0000000+00:00</time></trkpt><trkpt lat="42.424538" lon="18.769363"><ele>10.0</ele><time>2012-05-02T12:44:50.0000000+00:00</time></trkpt><trkpt lat="42.424538" lon="18.769361"><ele>10.0</ele><time>2012-05-02T12:44:55.0000000+00:00</time></trkpt><trkpt lat="42.424538" lon="18.769361"><ele>10.0</ele><time>2012-05-02T12:45:00.0000000+00:00</time></trkpt><trkpt lat="42.424541" lon="18.769361"><ele>10.0</ele><time>2012-05-02T12:45:05.0000000+00:00</time></trkpt><trkpt lat="42.424541" lon="18.769361"><ele>10.0</ele><time>2012-05-02T12:45:10.0000000+00:00</time></trkpt><trkpt lat="42.424538" lon="18.769361"><ele>10.0</ele><time>2012-05-02T12:45:15.0000000+00:00</time></trkpt><trkpt lat="42.424541" lon="18.769361"><ele>10.0</ele><time>2012-05-02T12:45:20.0000000+00:00</time></trkpt><trkpt lat="42.424541" lon="18.769361"><ele>10.0</ele><time>2012-05-02T12:45:25.0000000+00:00</time></trkpt><trkpt lat="42.424541" lon="18.769361"><ele>10.0</ele><time>2012-05-02T12:45:30.0000000+00:00</time></trkpt><trkpt lat="42.424541" lon="18.76936"><ele>10.0</ele><time>2012-05-02T12:45:35.0000000+00:00</time></trkpt><trkpt lat="42.424541" lon="18.76936"><ele>10.0</ele><time>2012-05-02T12:45:40.0000000+00:00</time></trkpt><trkpt lat="42.424541" lon="18.76936"><ele>10.0</ele><time>2012-05-02T12:45:45.0000000+00:00</time></trkpt><trkpt lat="42.424541" lon="18.76936"><ele>10.0</ele><time>2012-05-02T12:45:50.0000000+00:00</time></trkpt><trkpt lat="42.424541" lon="18.769358"><ele>10.0</ele><time>2012-05-02T12:45:55.0000000+00:00</time></trkpt><trkpt lat="42.424541" lon="18.769358"><ele>10.0</ele><time>2012-05-02T12:46:00.0000000+00:00</time></trkpt><trkpt lat="42.424541" lon="18.769358"><ele>10.0</ele><time>2012-05-02T12:46:05.0000000+00:00</time></trkpt><trkpt lat="42.424541" lon="18.769358"><ele>10.0</ele><time>2012-05-02T12:46:10.0000000+00:00</time></trkpt><trkpt lat="42.424541" lon="18.769358"><ele>10.0</ele><time>2012-05-02T12:46:15.0000000+00:00</time></trkpt><trkpt lat="42.424541" lon="18.769358"><ele>10.0</ele><time>2012-05-02T12:46:20.0000000+00:00</time></trkpt><trkpt lat="42.424522" lon="18.769342"><ele>10.4</ele><time>2012-05-02T12:46:25.0000000+00:00</time></trkpt><trkpt lat="42.42445" lon="18.769243"><ele>10.8</ele><time>2012-05-02T12:46:30.0000000+00:00</time></trkpt><trkpt lat="42.42437" lon="18.769274"><ele>10.4</ele><time>2012-05-02T12:46:35.0000000+00:00</time></trkpt><trkpt lat="42.424274" lon="18.769411"><ele>10.7</ele><time>2012-05-02T12:46:40.0000000+00:00</time></trkpt><trkpt lat="42.424187" lon="18.769516"><ele>10.8</ele><time>2012-05-02T12:46:45.0000000+00:00</time></trkpt><trkpt lat="42.424126" lon="18.769585"><ele>10.6</ele><time>2012-05-02T12:46:50.0000000+00:00</time></trkpt><trkpt lat="42.424057" lon="18.769722"><ele>10.8</ele><time>2012-05-02T12:46:55.0000000+00:00</time></trkpt><trkpt lat="42.424011" lon="18.769793"><ele>10.9</ele><time>2012-05-02T12:47:00.0000000+00:00</time></trkpt><trkpt lat="42.423962" lon="18.769857"><ele>10.9</ele><time>2012-05-02T12:47:05.0000000+00:00</time></trkpt><trkpt lat="42.423897" lon="18.769987"><ele>10.8</ele><time>2012-05-02T12:47:10.0000000+00:00</time></trkpt><trkpt lat="42.423775" lon="18.77017"><ele>10.9</ele><time>2012-05-02T12:47:15.0000000+00:00</time></trkpt><trkpt lat="42.423641" lon="18.770365"><ele>10.8</ele><time>2012-05-02T12:47:20.0000000+00:00</time></trkpt><trkpt lat="42.4235" lon="18.770594"><ele>10.7</ele><time>2012-05-02T12:47:25.0000000+00:00</time></trkpt><trkpt lat="42.423347" lon="18.770811"><ele>10.5</ele><time>2012-05-02T12:47:30.0000000+00:00</time></trkpt><trkpt lat="42.423222" lon="18.770988"><ele>10.4</ele><time>2012-05-02T12:47:35.0000000+00:00</time></trkpt><trkpt lat="42.4231" lon="18.77113"><ele>10.1</ele><time>2012-05-02T12:47:40.0000000+00:00</time></trkpt><trkpt lat="42.422974" lon="18.771215"><ele>9.8</ele><time>2012-05-02T12:47:45.0000000+00:00</time></trkpt><trkpt lat="42.422935" lon="18.771227"><ele>9.4</ele><time>2012-05-02T12:47:50.0000000+00:00</time></trkpt><trkpt lat="42.422932" lon="18.771227"><ele>9.3</ele><time>2012-05-02T12:47:55.0000000+00:00</time></trkpt><trkpt lat="42.422932" lon="18.771227"><ele>9.3</ele><time>2012-05-02T12:48:00.0000000+00:00</time></trkpt><trkpt lat="42.422932" lon="18.771227"><ele>9.3</ele><time>2012-05-02T12:48:05.0000000+00:00</time></trkpt><trkpt lat="42.422932" lon="18.771229"><ele>9.3</ele><time>2012-05-02T12:48:10.0000000+00:00</time></trkpt><trkpt lat="42.422932" lon="18.771227"><ele>9.3</ele><time>2012-05-02T12:48:15.0000000+00:00</time></trkpt><trkpt lat="42.422932" lon="18.771227"><ele>9.3</ele><time>2012-05-02T12:48:20.0000000+00:00</time></trkpt><trkpt lat="42.422928" lon="18.771225"><ele>9.3</ele><time>2012-05-02T12:48:25.0000000+00:00</time></trkpt><trkpt lat="42.42292" lon="18.771219"><ele>9.3</ele><time>2012-05-02T12:48:30.0000000+00:00</time></trkpt><trkpt lat="42.422913" lon="18.771204"><ele>9.3</ele><time>2012-05-02T12:48:35.0000000+00:00</time></trkpt><trkpt lat="42.422905" lon="18.771202"><ele>9.3</ele><time>2012-05-02T12:48:40.0000000+00:00</time></trkpt><trkpt lat="42.422905" lon="18.771202"><ele>9.3</ele><time>2012-05-02T12:48:45.0000000+00:00</time></trkpt><trkpt lat="42.422905" lon="18.771204"><ele>9.3</ele><time>2012-05-02T12:48:50.0000000+00:00</time></trkpt><trkpt lat="42.422916" lon="18.771204"><ele>9.3</ele><time>2012-05-02T12:48:55.0000000+00:00</time></trkpt><trkpt lat="42.423004" lon="18.77117"><ele>9.5</ele><time>2012-05-02T12:49:00.0000000+00:00</time></trkpt><trkpt lat="42.423168" lon="18.771051"><ele>9.9</ele><time>2012-05-02T12:49:05.0000000+00:00</time></trkpt><trkpt lat="42.423351" lon="18.770838"><ele>10.7</ele><time>2012-05-02T12:49:10.0000000+00:00</time></trkpt><trkpt lat="42.423492" lon="18.770628"><ele>11.3</ele><time>2012-05-02T12:49:15.0000000+00:00</time></trkpt><trkpt lat="42.423634" lon="18.770456"><ele>11.8</ele><time>2012-05-02T12:49:20.0000000+00:00</time></trkpt><trkpt lat="42.423721" lon="18.770285"><ele>11.5</ele><time>2012-05-02T12:49:25.0000000+00:00</time></trkpt><trkpt lat="42.42382" lon="18.770113"><ele>11.2</ele><time>2012-05-02T12:49:30.0000000+00:00</time></trkpt><trkpt lat="42.423962" lon="18.769926"><ele>11.6</ele><time>2012-05-02T12:49:35.0000000+00:00</time></trkpt><trkpt lat="42.424049" lon="18.769783"><ele>9.5</ele><time>2012-05-02T12:49:40.0000000+00:00</time></trkpt><trkpt lat="42.424133" lon="18.769651"><ele>10.3</ele><time>2012-05-02T12:49:45.0000000+00:00</time></trkpt><trkpt lat="42.424202" lon="18.769545"><ele>11.2</ele><time>2012-05-02T12:49:50.0000000+00:00</time></trkpt><trkpt lat="42.424236" lon="18.769537"><ele>12.0</ele><time>2012-05-02T12:49:55.0000000+00:00</time></trkpt><trkpt lat="42.42429" lon="18.769493"><ele>13.2</ele><time>2012-05-02T12:50:00.0000000+00:00</time></trkpt><trkpt lat="42.424343" lon="18.769409"><ele>14.4</ele><time>2012-05-02T12:50:05.0000000+00:00</time></trkpt><trkpt lat="42.424435" lon="18.769379"><ele>15.7</ele><time>2012-05-02T12:50:10.0000000+00:00</time></trkpt><trkpt lat="42.424454" lon="18.769369"><ele>16.8</ele><time>2012-05-02T12:50:15.0000000+00:00</time></trkpt><trkpt lat="42.424519" lon="18.76943"><ele>18.0</ele><time>2012-05-02T12:50:20.0000000+00:00</time></trkpt><trkpt lat="42.424656" lon="18.769558"><ele>19.1</ele><time>2012-05-02T12:50:25.0000000+00:00</time></trkpt><trkpt lat="42.424725" lon="18.769636"><ele>20.4</ele><time>2012-05-02T12:50:30.0000000+00:00</time></trkpt><trkpt lat="42.42477" lon="18.769672"><ele>21.6</ele><time>2012-05-02T12:50:35.0000000+00:00</time></trkpt><trkpt lat="42.424755" lon="18.769724"><ele>22.6</ele><time>2012-05-02T12:50:40.0000000+00:00</time></trkpt><trkpt lat="42.424789" lon="18.769766"><ele>23.7</ele><time>2012-05-02T12:50:45.0000000+00:00</time></trkpt><trkpt lat="42.424679" lon="18.769793"><ele>24.6</ele><time>2012-05-02T12:50:50.0000000+00:00</time></trkpt><trkpt lat="42.424641" lon="18.769876"><ele>25.6</ele><time>2012-05-02T12:50:55.0000000+00:00</time></trkpt><trkpt lat="42.424679" lon="18.769983"><ele>26.7</ele><time>2012-05-02T12:51:00.0000000+00:00</time></trkpt><trkpt lat="42.424683" lon="18.770065"><ele>27.5</ele><time>2012-05-02T12:51:05.0000000+00:00</time></trkpt><trkpt lat="42.424694" lon="18.770172"><ele>28.5</ele><time>2012-05-02T12:51:10.0000000+00:00</time></trkpt><trkpt lat="42.424599" lon="18.770262"><ele>29.5</ele><time>2012-05-02T12:51:15.0000000+00:00</time></trkpt><trkpt lat="42.424522" lon="18.770393"><ele>30.5</ele><time>2012-05-02T12:51:20.0000000+00:00</time></trkpt><trkpt lat="42.424469" lon="18.770554"><ele>31.4</ele><time>2012-05-02T12:51:25.0000000+00:00</time></trkpt><trkpt lat="42.424408" lon="18.770622"><ele>32.4</ele><time>2012-05-02T12:51:30.0000000+00:00</time></trkpt><trkpt lat="42.424316" lon="18.770594"><ele>33.4</ele><time>2012-05-02T12:51:35.0000000+00:00</time></trkpt><trkpt lat="42.424313" lon="18.770632"><ele>34.3</ele><time>2012-05-02T12:51:40.0000000+00:00</time></trkpt><trkpt lat="42.424232" lon="18.770634"><ele>34.8</ele><time>2012-05-02T12:51:45.0000000+00:00</time></trkpt><trkpt lat="42.424175" lon="18.770622"><ele>35.5</ele><time>2012-05-02T12:51:50.0000000+00:00</time></trkpt><trkpt lat="42.424122" lon="18.770578"><ele>36.0</ele><time>2012-05-02T12:51:55.0000000+00:00</time></trkpt><trkpt lat="42.424088" lon="18.770576"><ele>36.6</ele><time>2012-05-02T12:52:00.0000000+00:00</time></trkpt><trkpt lat="42.424198" lon="18.770569"><ele>37.1</ele><time>2012-05-02T12:52:05.0000000+00:00</time></trkpt><trkpt lat="42.424179" lon="18.770611"><ele>37.5</ele><time>2012-05-02T12:52:10.0000000+00:00</time></trkpt><trkpt lat="42.424198" lon="18.770641"><ele>37.8</ele><time>2012-05-02T12:52:15.0000000+00:00</time></trkpt><trkpt lat="42.424133" lon="18.770624"><ele>38.1</ele><time>2012-05-02T12:52:20.0000000+00:00</time></trkpt><trkpt lat="42.424068" lon="18.770615"><ele>38.2</ele><time>2012-05-02T12:52:25.0000000+00:00</time></trkpt><trkpt lat="42.424171" lon="18.770683"><ele>38.4</ele><time>2012-05-02T12:52:30.0000000+00:00</time></trkpt><trkpt lat="42.424267" lon="18.770781"><ele>38.5</ele><time>2012-05-02T12:52:35.0000000+00:00</time></trkpt><trkpt lat="42.424335" lon="18.770813"><ele>38.5</ele><time>2012-05-02T12:52:40.0000000+00:00</time></trkpt><trkpt lat="42.424454" lon="18.770962"><ele>40.0</ele><time>2012-05-02T12:52:45.0000000+00:00</time></trkpt><trkpt lat="42.424347" lon="18.770985"><ele>40.1</ele><time>2012-05-02T12:52:50.0000000+00:00</time></trkpt><trkpt lat="42.42432" lon="18.770985"><ele>41.0</ele><time>2012-05-02T12:52:55.0000000+00:00</time></trkpt><trkpt lat="42.424255" lon="18.770998"><ele>41.5</ele><time>2012-05-02T12:53:00.0000000+00:00</time></trkpt><trkpt lat="42.424126" lon="18.770937"><ele>41.5</ele><time>2012-05-02T12:53:05.0000000+00:00</time></trkpt><trkpt lat="42.424141" lon="18.770948"><ele>40.1</ele><time>2012-05-02T12:53:10.0000000+00:00</time></trkpt><trkpt lat="42.424118" lon="18.770987"><ele>34.8</ele><time>2012-05-02T12:53:15.0000000+00:00</time></trkpt><trkpt lat="42.424225" lon="18.770985"><ele>32.6</ele><time>2012-05-02T12:53:20.0000000+00:00</time></trkpt><trkpt lat="42.42416" lon="18.770981"><ele>31.5</ele><time>2012-05-02T12:53:25.0000000+00:00</time></trkpt><trkpt lat="42.424171" lon="18.771038"><ele>30.7</ele><time>2012-05-02T12:53:30.0000000+00:00</time></trkpt><trkpt lat="42.424175" lon="18.771086"><ele>29.1</ele><time>2012-05-02T12:53:35.0000000+00:00</time></trkpt><trkpt lat="42.424149" lon="18.77112"><ele>28.1</ele><time>2012-05-02T12:53:40.0000000+00:00</time></trkpt><trkpt lat="42.424152" lon="18.771128"><ele>28.1</ele><time>2012-05-02T12:53:45.0000000+00:00</time></trkpt><trkpt lat="42.424198" lon="18.771132"><ele>27.0</ele><time>2012-05-02T12:53:50.0000000+00:00</time></trkpt><trkpt lat="42.424206" lon="18.771124"><ele>25.1</ele><time>2012-05-02T12:53:55.0000000+00:00</time></trkpt><trkpt lat="42.424187" lon="18.771132"><ele>24.3</ele><time>2012-05-02T12:54:00.0000000+00:00</time></trkpt><trkpt lat="42.424133" lon="18.771149"><ele>25.1</ele><time>2012-05-02T12:54:05.0000000+00:00</time></trkpt><trkpt lat="42.424103" lon="18.771103"><ele>25.7</ele><time>2012-05-02T12:54:10.0000000+00:00</time></trkpt><trkpt lat="42.424152" lon="18.771093"><ele>26.6</ele><time>2012-05-02T12:54:15.0000000+00:00</time></trkpt><trkpt lat="42.424133" lon="18.771111"><ele>25.8</ele><time>2012-05-02T12:54:20.0000000+00:00</time></trkpt><trkpt lat="42.424141" lon="18.771166"><ele>25.3</ele><time>2012-05-02T12:54:25.0000000+00:00</time></trkpt><trkpt lat="42.42411" lon="18.771198"><ele>25.2</ele><time>2012-05-02T12:54:30.0000000+00:00</time></trkpt><trkpt lat="42.424103" lon="18.7712"><ele>24.4</ele><time>2012-05-02T12:54:35.0000000+00:00</time></trkpt><trkpt lat="42.424141" lon="18.771235"><ele>23.6</ele><time>2012-05-02T12:54:40.0000000+00:00</time></trkpt><trkpt lat="42.424164" lon="18.771238"><ele>24.4</ele><time>2012-05-02T12:54:45.0000000+00:00</time></trkpt><trkpt lat="42.424171" lon="18.771206"><ele>23.8</ele><time>2012-05-02T12:54:50.0000000+00:00</time></trkpt><trkpt lat="42.424168" lon="18.771187"><ele>23.4</ele><time>2012-05-02T12:54:55.0000000+00:00</time></trkpt><trkpt lat="42.424141" lon="18.771215"><ele>23.2</ele><time>2012-05-02T12:55:00.0000000+00:00</time></trkpt><trkpt lat="42.42411" lon="18.771202"><ele>23.2</ele><time>2012-05-02T12:55:05.0000000+00:00</time></trkpt><trkpt lat="42.424152" lon="18.771177"><ele>22.3</ele><time>2012-05-02T12:55:10.0000000+00:00</time></trkpt><trkpt lat="42.424156" lon="18.771166"><ele>21.8</ele><time>2012-05-02T12:55:15.0000000+00:00</time></trkpt><trkpt lat="42.424156" lon="18.771162"><ele>21.3</ele><time>2012-05-02T12:55:20.0000000+00:00</time></trkpt><trkpt lat="42.424164" lon="18.771168"><ele>21.3</ele><time>2012-05-02T12:55:25.0000000+00:00</time></trkpt><trkpt lat="42.424179" lon="18.771193"><ele>21.5</ele><time>2012-05-02T12:55:30.0000000+00:00</time></trkpt><trkpt lat="42.424175" lon="18.771189"><ele>21.4</ele><time>2012-05-02T12:55:35.0000000+00:00</time></trkpt><trkpt lat="42.424191" lon="18.771179"><ele>21.5</ele><time>2012-05-02T12:55:40.0000000+00:00</time></trkpt><trkpt lat="42.424175" lon="18.771189"><ele>21.6</ele><time>2012-05-02T12:55:45.0000000+00:00</time></trkpt><trkpt lat="42.424164" lon="18.77117"><ele>22.0</ele><time>2012-05-02T12:55:50.0000000+00:00</time></trkpt><trkpt lat="42.424156" lon="18.771191"><ele>22.8</ele><time>2012-05-02T12:55:55.0000000+00:00</time></trkpt><trkpt lat="42.424164" lon="18.771185"><ele>22.6</ele><time>2012-05-02T12:56:00.0000000+00:00</time></trkpt><trkpt lat="42.424175" lon="18.771198"><ele>22.7</ele><time>2012-05-02T12:56:05.0000000+00:00</time></trkpt><trkpt lat="42.424198" lon="18.771235"><ele>22.7</ele><time>2012-05-02T12:56:10.0000000+00:00</time></trkpt><trkpt lat="42.424202" lon="18.771238"><ele>22.6</ele><time>2012-05-02T12:56:15.0000000+00:00</time></trkpt><trkpt lat="42.424198" lon="18.771238"><ele>22.5</ele><time>2012-05-02T12:56:20.0000000+00:00</time></trkpt><trkpt lat="42.424198" lon="18.771236"><ele>22.4</ele><time>2012-05-02T12:56:25.0000000+00:00</time></trkpt><trkpt lat="42.424198" lon="18.77124"><ele>22.4</ele><time>2012-05-02T12:56:30.0000000+00:00</time></trkpt><trkpt lat="42.424198" lon="18.771242"><ele>22.4</ele><time>2012-05-02T12:56:35.0000000+00:00</time></trkpt><trkpt lat="42.424202" lon="18.771233"><ele>22.4</ele><time>2012-05-02T12:56:40.0000000+00:00</time></trkpt><trkpt lat="42.424191" lon="18.771227"><ele>22.4</ele><time>2012-05-02T12:56:45.0000000+00:00</time></trkpt><trkpt lat="42.424168" lon="18.771194"><ele>22.1</ele><time>2012-05-02T12:56:50.0000000+00:00</time></trkpt><trkpt lat="42.424145" lon="18.771194"><ele>21.8</ele><time>2012-05-02T12:56:55.0000000+00:00</time></trkpt><trkpt lat="42.424141" lon="18.771196"><ele>21.7</ele><time>2012-05-02T12:57:00.0000000+00:00</time></trkpt><trkpt lat="42.424133" lon="18.7712"><ele>21.7</ele><time>2012-05-02T12:57:05.0000000+00:00</time></trkpt><trkpt lat="42.424118" lon="18.771196"><ele>21.3</ele><time>2012-05-02T12:57:10.0000000+00:00</time></trkpt><trkpt lat="42.424107" lon="18.771204"><ele>21.2</ele><time>2012-05-02T12:57:15.0000000+00:00</time></trkpt><trkpt lat="42.424103" lon="18.771198"><ele>21.2</ele><time>2012-05-02T12:57:20.0000000+00:00</time></trkpt><trkpt lat="42.424107" lon="18.771194"><ele>21.2</ele><time>2012-05-02T12:57:25.0000000+00:00</time></trkpt><trkpt lat="42.42411" lon="18.771191"><ele>21.2</ele><time>2012-05-02T12:57:30.0000000+00:00</time></trkpt><trkpt lat="42.42416" lon="18.771173"><ele>21.1</ele><time>2012-05-02T12:57:35.0000000+00:00</time></trkpt><trkpt lat="42.424191" lon="18.771181"><ele>21.0</ele><time>2012-05-02T12:57:40.0000000+00:00</time></trkpt><trkpt lat="42.424198" lon="18.771187"><ele>21.1</ele><time>2012-05-02T12:57:45.0000000+00:00</time></trkpt><trkpt lat="42.424221" lon="18.771236"><ele>21.2</ele><time>2012-05-02T12:57:50.0000000+00:00</time></trkpt><trkpt lat="42.424232" lon="18.771263"><ele>21.1</ele><time>2012-05-02T12:57:55.0000000+00:00</time></trkpt><trkpt lat="42.424244" lon="18.771225"><ele>21.1</ele><time>2012-05-02T12:58:00.0000000+00:00</time></trkpt><trkpt lat="42.424194" lon="18.771215"><ele>21.1</ele><time>2012-05-02T12:58:05.0000000+00:00</time></trkpt><trkpt lat="42.42421" lon="18.771194"><ele>21.1</ele><time>2012-05-02T12:58:10.0000000+00:00</time></trkpt><trkpt lat="42.424213" lon="18.771202"><ele>21.1</ele><time>2012-05-02T12:58:15.0000000+00:00</time></trkpt><trkpt lat="42.424229" lon="18.771217"><ele>21.2</ele><time>2012-05-02T12:58:20.0000000+00:00</time></trkpt><trkpt lat="42.424191" lon="18.771198"><ele>21.1</ele><time>2012-05-02T12:58:25.0000000+00:00</time></trkpt><trkpt lat="42.424198" lon="18.771244"><ele>20.9</ele><time>2012-05-02T12:58:30.0000000+00:00</time></trkpt><trkpt lat="42.424191" lon="18.771254"><ele>20.8</ele><time>2012-05-02T12:58:35.0000000+00:00</time></trkpt><trkpt lat="42.424187" lon="18.771267"><ele>20.7</ele><time>2012-05-02T12:58:40.0000000+00:00</time></trkpt><trkpt lat="42.424179" lon="18.771273"><ele>20.7</ele><time>2012-05-02T12:58:45.0000000+00:00</time></trkpt><trkpt lat="42.424168" lon="18.771297"><ele>20.7</ele><time>2012-05-02T12:58:50.0000000+00:00</time></trkpt><trkpt lat="42.424179" lon="18.771307"><ele>20.7</ele><time>2012-05-02T12:58:55.0000000+00:00</time></trkpt><trkpt lat="42.424194" lon="18.771332"><ele>20.7</ele><time>2012-05-02T12:59:00.0000000+00:00</time></trkpt><trkpt lat="42.424202" lon="18.771328"><ele>20.5</ele><time>2012-05-02T12:59:05.0000000+00:00</time></trkpt><trkpt lat="42.424179" lon="18.771366"><ele>20.5</ele><time>2012-05-02T12:59:10.0000000+00:00</time></trkpt><trkpt lat="42.424191" lon="18.771376"><ele>20.5</ele><time>2012-05-02T12:59:15.0000000+00:00</time></trkpt><trkpt lat="42.424194" lon="18.771357"><ele>20.4</ele><time>2012-05-02T12:59:20.0000000+00:00</time></trkpt><trkpt lat="42.424198" lon="18.771362"><ele>20.4</ele><time>2012-05-02T12:59:25.0000000+00:00</time></trkpt><trkpt lat="42.424217" lon="18.771343"><ele>20.4</ele><time>2012-05-02T12:59:30.0000000+00:00</time></trkpt><trkpt lat="42.424213" lon="18.771334"><ele>20.4</ele><time>2012-05-02T12:59:35.0000000+00:00</time></trkpt><trkpt lat="42.42421" lon="18.771273"><ele>20.4</ele><time>2012-05-02T12:59:40.0000000+00:00</time></trkpt><trkpt lat="42.424213" lon="18.771225"><ele>20.3</ele><time>2012-05-02T12:59:45.0000000+00:00</time></trkpt><trkpt lat="42.424206" lon="18.771215"><ele>20.4</ele><time>2012-05-02T12:59:50.0000000+00:00</time></trkpt><trkpt lat="42.424194" lon="18.771227"><ele>20.4</ele><time>2012-05-02T12:59:55.0000000+00:00</time></trkpt><trkpt lat="42.424213" lon="18.771246"><ele>20.4</ele><time>2012-05-02T13:00:00.0000000+00:00</time></trkpt><trkpt lat="42.424206" lon="18.771257"><ele>20.4</ele><time>2012-05-02T13:00:05.0000000+00:00</time></trkpt><trkpt lat="42.42424" lon="18.77129"><ele>20.5</ele><time>2012-05-02T13:00:10.0000000+00:00</time></trkpt><trkpt lat="42.424229" lon="18.771313"><ele>20.7</ele><time>2012-05-02T13:00:15.0000000+00:00</time></trkpt><trkpt lat="42.424229" lon="18.771317"><ele>20.7</ele><time>2012-05-02T13:00:20.0000000+00:00</time></trkpt><trkpt lat="42.424274" lon="18.771358"><ele>20.6</ele><time>2012-05-02T13:00:25.0000000+00:00</time></trkpt><trkpt lat="42.424232" lon="18.771399"><ele>20.5</ele><time>2012-05-02T13:00:30.0000000+00:00</time></trkpt><trkpt lat="42.424244" lon="18.77154"><ele>20.5</ele><time>2012-05-02T13:00:35.0000000+00:00</time></trkpt><trkpt lat="42.424164" lon="18.771658"><ele>20.6</ele><time>2012-05-02T13:00:40.0000000+00:00</time></trkpt><trkpt lat="42.424202" lon="18.771742"><ele>20.9</ele><time>2012-05-02T13:00:45.0000000+00:00</time></trkpt><trkpt lat="42.42421" lon="18.771832"><ele>21.0</ele><time>2012-05-02T13:00:50.0000000+00:00</time></trkpt><trkpt lat="42.424271" lon="18.771881"><ele>21.8</ele><time>2012-05-02T13:00:55.0000000+00:00</time></trkpt><trkpt lat="42.424316" lon="18.771898"><ele>22.6</ele><time>2012-05-02T13:01:00.0000000+00:00</time></trkpt><trkpt lat="42.424404" lon="18.771873"><ele>22.8</ele><time>2012-05-02T13:01:05.0000000+00:00</time></trkpt><trkpt lat="42.424419" lon="18.77187"><ele>23.1</ele><time>2012-05-02T13:01:10.0000000+00:00</time></trkpt><trkpt lat="42.424427" lon="18.77187"><ele>23.2</ele><time>2012-05-02T13:01:15.0000000+00:00</time></trkpt><trkpt lat="42.424458" lon="18.77182"><ele>23.2</ele><time>2012-05-02T13:01:20.0000000+00:00</time></trkpt><trkpt lat="42.424496" lon="18.77177"><ele>22.9</ele><time>2012-05-02T13:01:25.0000000+00:00</time></trkpt><trkpt lat="42.424488" lon="18.771727"><ele>22.7</ele><time>2012-05-02T13:01:30.0000000+00:00</time></trkpt><trkpt lat="42.424522" lon="18.77174"><ele>22.8</ele><time>2012-05-02T13:01:35.0000000+00:00</time></trkpt><trkpt lat="42.42453" lon="18.771744"><ele>22.9</ele><time>2012-05-02T13:01:40.0000000+00:00</time></trkpt><trkpt lat="42.424561" lon="18.771784"><ele>23.0</ele><time>2012-05-02T13:01:45.0000000+00:00</time></trkpt><trkpt lat="42.424618" lon="18.771841"><ele>23.2</ele><time>2012-05-02T13:01:50.0000000+00:00</time></trkpt><trkpt lat="42.424721" lon="18.771851"><ele>23.2</ele><time>2012-05-02T13:01:55.0000000+00:00</time></trkpt><trkpt lat="42.424786" lon="18.7719"><ele>23.2</ele><time>2012-05-02T13:02:00.0000000+00:00</time></trkpt><trkpt lat="42.424847" lon="18.771971"><ele>23.5</ele><time>2012-05-02T13:02:05.0000000+00:00</time></trkpt><trkpt lat="42.42487" lon="18.77203"><ele>23.8</ele><time>2012-05-02T13:02:10.0000000+00:00</time></trkpt><trkpt lat="42.424919" lon="18.772039"><ele>24.0</ele><time>2012-05-02T13:02:15.0000000+00:00</time></trkpt><trkpt lat="42.424931" lon="18.772043"><ele>24.1</ele><time>2012-05-02T13:02:20.0000000+00:00</time></trkpt><trkpt lat="42.424995" lon="18.772017"><ele>24.0</ele><time>2012-05-02T13:02:25.0000000+00:00</time></trkpt><trkpt lat="42.425018" lon="18.77203"><ele>24.1</ele><time>2012-05-02T13:02:30.0000000+00:00</time></trkpt><trkpt lat="42.424995" lon="18.772114"><ele>24.2</ele><time>2012-05-02T13:02:35.0000000+00:00</time></trkpt><trkpt lat="42.425053" lon="18.772129"><ele>24.2</ele><time>2012-05-02T13:02:40.0000000+00:00</time></trkpt><trkpt lat="42.425041" lon="18.772175"><ele>24.3</ele><time>2012-05-02T13:02:45.0000000+00:00</time></trkpt><trkpt lat="42.425041" lon="18.77219"><ele>24.3</ele><time>2012-05-02T13:02:50.0000000+00:00</time></trkpt><trkpt lat="42.425079" lon="18.772139"><ele>24.2</ele><time>2012-05-02T13:02:55.0000000+00:00</time></trkpt><trkpt lat="42.425068" lon="18.772123"><ele>24.0</ele><time>2012-05-02T13:03:00.0000000+00:00</time></trkpt><trkpt lat="42.42503" lon="18.772097"><ele>23.9</ele><time>2012-05-02T13:03:05.0000000+00:00</time></trkpt><trkpt lat="42.425041" lon="18.77211"><ele>23.8</ele><time>2012-05-02T13:03:10.0000000+00:00</time></trkpt><trkpt lat="42.42506" lon="18.772129"><ele>23.8</ele><time>2012-05-02T13:03:15.0000000+00:00</time></trkpt><trkpt lat="42.425114" lon="18.772165"><ele>23.8</ele><time>2012-05-02T13:03:20.0000000+00:00</time></trkpt><trkpt lat="42.425125" lon="18.772181"><ele>23.8</ele><time>2012-05-02T13:03:25.0000000+00:00</time></trkpt><trkpt lat="42.42514" lon="18.772194"><ele>23.8</ele><time>2012-05-02T13:03:30.0000000+00:00</time></trkpt><trkpt lat="42.425167" lon="18.772207"><ele>23.8</ele><time>2012-05-02T13:03:35.0000000+00:00</time></trkpt><trkpt lat="42.425171" lon="18.772209"><ele>23.8</ele><time>2012-05-02T13:03:40.0000000+00:00</time></trkpt><trkpt lat="42.425171" lon="18.772207"><ele>23.8</ele><time>2012-05-02T13:03:45.0000000+00:00</time></trkpt><trkpt lat="42.425179" lon="18.772215"><ele>23.9</ele><time>2012-05-02T13:03:50.0000000+00:00</time></trkpt><trkpt lat="42.425186" lon="18.772223"><ele>23.9</ele><time>2012-05-02T13:03:55.0000000+00:00</time></trkpt><trkpt lat="42.425201" lon="18.772228"><ele>23.9</ele><time>2012-05-02T13:04:00.0000000+00:00</time></trkpt><trkpt lat="42.425186" lon="18.772226"><ele>24.0</ele><time>2012-05-02T13:04:05.0000000+00:00</time></trkpt><trkpt lat="42.425205" lon="18.772245"><ele>23.9</ele><time>2012-05-02T13:04:10.0000000+00:00</time></trkpt><trkpt lat="42.425179" lon="18.772224"><ele>24.0</ele><time>2012-05-02T13:04:15.0000000+00:00</time></trkpt><trkpt lat="42.425152" lon="18.772209"><ele>24.0</ele><time>2012-05-02T13:04:20.0000000+00:00</time></trkpt><trkpt lat="42.425137" lon="18.772205"><ele>23.9</ele><time>2012-05-02T13:04:25.0000000+00:00</time></trkpt><trkpt lat="42.42514" lon="18.772215"><ele>24.0</ele><time>2012-05-02T13:04:30.0000000+00:00</time></trkpt><trkpt lat="42.425106" lon="18.772192"><ele>24.0</ele><time>2012-05-02T13:04:35.0000000+00:00</time></trkpt><trkpt lat="42.425049" lon="18.772169"><ele>24.0</ele><time>2012-05-02T13:04:40.0000000+00:00</time></trkpt><trkpt lat="42.42506" lon="18.772184"><ele>24.0</ele><time>2012-05-02T13:04:45.0000000+00:00</time></trkpt><trkpt lat="42.425007" lon="18.772158"><ele>24.0</ele><time>2012-05-02T13:04:50.0000000+00:00</time></trkpt><trkpt lat="42.42495" lon="18.772125"><ele>24.1</ele><time>2012-05-02T13:04:55.0000000+00:00</time></trkpt><trkpt lat="42.424992" lon="18.772146"><ele>24.0</ele><time>2012-05-02T13:05:00.0000000+00:00</time></trkpt><trkpt lat="42.424999" lon="18.77216"><ele>23.9</ele><time>2012-05-02T13:05:05.0000000+00:00</time></trkpt><trkpt lat="42.425072" lon="18.772188"><ele>23.9</ele><time>2012-05-02T13:05:10.0000000+00:00</time></trkpt><trkpt lat="42.425072" lon="18.77219"><ele>23.9</ele><time>2012-05-02T13:05:15.0000000+00:00</time></trkpt><trkpt lat="42.425095" lon="18.772205"><ele>24.5</ele><time>2012-05-02T13:05:20.0000000+00:00</time></trkpt><trkpt lat="42.425091" lon="18.772215"><ele>25.3</ele><time>2012-05-02T13:05:25.0000000+00:00</time></trkpt><trkpt lat="42.425117" lon="18.77223"><ele>25.6</ele><time>2012-05-02T13:05:30.0000000+00:00</time></trkpt><trkpt lat="42.425156" lon="18.772249"><ele>25.9</ele><time>2012-05-02T13:05:35.0000000+00:00</time></trkpt><trkpt lat="42.425167" lon="18.772259"><ele>26.3</ele><time>2012-05-02T13:05:40.0000000+00:00</time></trkpt><trkpt lat="42.425167" lon="18.772259"><ele>26.3</ele><time>2012-05-02T13:05:45.0000000+00:00</time></trkpt><trkpt lat="42.425179" lon="18.77227"><ele>26.8</ele><time>2012-05-02T13:05:50.0000000+00:00</time></trkpt><trkpt lat="42.425171" lon="18.772268"><ele>27.0</ele><time>2012-05-02T13:05:55.0000000+00:00</time></trkpt><trkpt lat="42.425163" lon="18.772266"><ele>27.5</ele><time>2012-05-02T13:06:00.0000000+00:00</time></trkpt><trkpt lat="42.425156" lon="18.772263"><ele>27.5</ele><time>2012-05-02T13:06:05.0000000+00:00</time></trkpt><trkpt lat="42.425137" lon="18.772245"><ele>27.4</ele><time>2012-05-02T13:06:10.0000000+00:00</time></trkpt><trkpt lat="42.425175" lon="18.772259"><ele>27.6</ele><time>2012-05-02T13:06:15.0000000+00:00</time></trkpt><trkpt lat="42.425159" lon="18.772247"><ele>27.9</ele><time>2012-05-02T13:06:20.0000000+00:00</time></trkpt><trkpt lat="42.425167" lon="18.772251"><ele>28.5</ele><time>2012-05-02T13:06:25.0000000+00:00</time></trkpt><trkpt lat="42.425159" lon="18.772243"><ele>28.6</ele><time>2012-05-02T13:06:30.0000000+00:00</time></trkpt><trkpt lat="42.425148" lon="18.77224"><ele>29.0</ele><time>2012-05-02T13:06:35.0000000+00:00</time></trkpt><trkpt lat="42.425137" lon="18.772234"><ele>29.1</ele><time>2012-05-02T13:06:40.0000000+00:00</time></trkpt><trkpt lat="42.425156" lon="18.772251"><ele>29.2</ele><time>2012-05-02T13:06:45.0000000+00:00</time></trkpt><trkpt lat="42.425167" lon="18.77228"><ele>29.4</ele><time>2012-05-02T13:06:50.0000000+00:00</time></trkpt><trkpt lat="42.425163" lon="18.772261"><ele>29.5</ele><time>2012-05-02T13:06:55.0000000+00:00</time></trkpt><trkpt lat="42.425144" lon="18.77224"><ele>29.6</ele><time>2012-05-02T13:07:00.0000000+00:00</time></trkpt><trkpt lat="42.425167" lon="18.77223"><ele>29.6</ele><time>2012-05-02T13:07:05.0000000+00:00</time></trkpt><trkpt lat="42.425163" lon="18.772236"><ele>29.7</ele><time>2012-05-02T13:07:10.0000000+00:00</time></trkpt><trkpt lat="42.425148" lon="18.772257"><ele>29.8</ele><time>2012-05-02T13:07:15.0000000+00:00</time></trkpt><trkpt lat="42.425152" lon="18.772242"><ele>29.7</ele><time>2012-05-02T13:07:20.0000000+00:00</time></trkpt><trkpt lat="42.425217" lon="18.772194"><ele>29.7</ele><time>2012-05-02T13:07:25.0000000+00:00</time></trkpt><trkpt lat="42.425205" lon="18.772213"><ele>29.7</ele><time>2012-05-02T13:07:30.0000000+00:00</time></trkpt><trkpt lat="42.425148" lon="18.772331"><ele>29.7</ele><time>2012-05-02T13:07:35.0000000+00:00</time></trkpt><trkpt lat="42.425148" lon="18.772337"><ele>29.6</ele><time>2012-05-02T13:07:40.0000000+00:00</time></trkpt><trkpt lat="42.425137" lon="18.772345"><ele>29.7</ele><time>2012-05-02T13:07:45.0000000+00:00</time></trkpt><trkpt lat="42.425156" lon="18.772326"><ele>29.8</ele><time>2012-05-02T13:07:50.0000000+00:00</time></trkpt><trkpt lat="42.425194" lon="18.772314"><ele>29.9</ele><time>2012-05-02T13:07:55.0000000+00:00</time></trkpt><trkpt lat="42.425167" lon="18.772326"><ele>30.0</ele><time>2012-05-02T13:08:00.0000000+00:00</time></trkpt><trkpt lat="42.425171" lon="18.772327"><ele>30.0</ele><time>2012-05-02T13:08:05.0000000+00:00</time></trkpt><trkpt lat="42.425156" lon="18.772303"><ele>30.0</ele><time>2012-05-02T13:08:10.0000000+00:00</time></trkpt><trkpt lat="42.425167" lon="18.772303"><ele>30.1</ele><time>2012-05-02T13:08:15.0000000+00:00</time></trkpt><trkpt lat="42.425144" lon="18.77231"><ele>30.6</ele><time>2012-05-02T13:08:20.0000000+00:00</time></trkpt><trkpt lat="42.42514" lon="18.772243"><ele>30.6</ele><time>2012-05-02T13:08:25.0000000+00:00</time></trkpt><trkpt lat="42.425156" lon="18.772211"><ele>31.0</ele><time>2012-05-02T13:08:30.0000000+00:00</time></trkpt><trkpt lat="42.425167" lon="18.772202"><ele>31.0</ele><time>2012-05-02T13:08:35.0000000+00:00</time></trkpt><trkpt lat="42.425194" lon="18.772192"><ele>30.9</ele><time>2012-05-02T13:08:40.0000000+00:00</time></trkpt><trkpt lat="42.425163" lon="18.772251"><ele>30.7</ele><time>2012-05-02T13:08:45.0000000+00:00</time></trkpt><trkpt lat="42.425049" lon="18.772427"><ele>30.9</ele><time>2012-05-02T13:08:50.0000000+00:00</time></trkpt><trkpt lat="42.424911" lon="18.772556"><ele>30.9</ele><time>2012-05-02T13:08:55.0000000+00:00</time></trkpt><trkpt lat="42.42482" lon="18.772715"><ele>30.9</ele><time>2012-05-02T13:09:00.0000000+00:00</time></trkpt><trkpt lat="42.424625" lon="18.772772"><ele>40.5</ele><time>2012-05-02T13:09:54.0000000+00:00</time></trkpt><trkpt lat="42.424625" lon="18.772778"><ele>40.5</ele><time>2012-05-02T13:09:59.0000000+00:00</time></trkpt><trkpt lat="42.424572" lon="18.772827"><ele>40.3</ele><time>2012-05-02T13:10:04.0000000+00:00</time></trkpt><trkpt lat="42.424526" lon="18.772905"><ele>39.6</ele><time>2012-05-02T13:10:09.0000000+00:00</time></trkpt><trkpt lat="42.424458" lon="18.773018"><ele>37.1</ele><time>2012-05-02T13:10:14.0000000+00:00</time></trkpt><trkpt lat="42.42448" lon="18.773027"><ele>36.8</ele><time>2012-05-02T13:10:19.0000000+00:00</time></trkpt><trkpt lat="42.424492" lon="18.773142"><ele>37.4</ele><time>2012-05-02T13:10:24.0000000+00:00</time></trkpt><trkpt lat="42.424416" lon="18.773211"><ele>37.9</ele><time>2012-05-02T13:10:29.0000000+00:00</time></trkpt><trkpt lat="42.424362" lon="18.773193"><ele>38.0</ele><time>2012-05-02T13:10:34.0000000+00:00</time></trkpt><trkpt lat="42.424374" lon="18.773211"><ele>38.1</ele><time>2012-05-02T13:10:39.0000000+00:00</time></trkpt><trkpt lat="42.424435" lon="18.773088"><ele>38.6</ele><time>2012-05-02T13:10:44.0000000+00:00</time></trkpt><trkpt lat="42.424473" lon="18.773052"><ele>39.8</ele><time>2012-05-02T13:10:49.0000000+00:00</time></trkpt><trkpt lat="42.424519" lon="18.772982"><ele>40.6</ele><time>2012-05-02T13:10:54.0000000+00:00</time></trkpt><trkpt lat="42.424522" lon="18.772942"><ele>40.9</ele><time>2012-05-02T13:10:59.0000000+00:00</time></trkpt><trkpt lat="42.424702" lon="18.772642"><ele>39.9</ele><time>2012-05-02T13:11:04.0000000+00:00</time></trkpt><trkpt lat="42.424835" lon="18.77243"><ele>39.4</ele><time>2012-05-02T13:11:09.0000000+00:00</time></trkpt><trkpt lat="42.424873" lon="18.772346"><ele>39.4</ele><time>2012-05-02T13:11:14.0000000+00:00</time></trkpt><trkpt lat="42.424904" lon="18.772303"><ele>39.5</ele><time>2012-05-02T13:11:19.0000000+00:00</time></trkpt><trkpt lat="42.42495" lon="18.772247"><ele>39.2</ele><time>2012-05-02T13:11:24.0000000+00:00</time></trkpt><trkpt lat="42.425007" lon="18.772219"><ele>39.5</ele><time>2012-05-02T13:11:29.0000000+00:00</time></trkpt><trkpt lat="42.424992" lon="18.772219"><ele>39.3</ele><time>2012-05-02T13:11:34.0000000+00:00</time></trkpt><trkpt lat="42.42495" lon="18.772247"><ele>39.2</ele><time>2012-05-02T13:11:39.0000000+00:00</time></trkpt><trkpt lat="42.424915" lon="18.77228"><ele>38.8</ele><time>2012-05-02T13:11:44.0000000+00:00</time></trkpt><trkpt lat="42.424915" lon="18.772253"><ele>38.8</ele><time>2012-05-02T13:11:49.0000000+00:00</time></trkpt><trkpt lat="42.424942" lon="18.772236"><ele>38.1</ele><time>2012-05-02T13:11:54.0000000+00:00</time></trkpt><trkpt lat="42.424969" lon="18.772238"><ele>38.0</ele><time>2012-05-02T13:11:59.0000000+00:00</time></trkpt><trkpt lat="42.425041" lon="18.772257"><ele>38.2</ele><time>2012-05-02T13:12:04.0000000+00:00</time></trkpt><trkpt lat="42.425079" lon="18.772291"><ele>38.3</ele><time>2012-05-02T13:12:09.0000000+00:00</time></trkpt><trkpt lat="42.42506" lon="18.772297"><ele>38.1</ele><time>2012-05-02T13:12:14.0000000+00:00</time></trkpt><trkpt lat="42.425007" lon="18.772316"><ele>37.9</ele><time>2012-05-02T13:12:19.0000000+00:00</time></trkpt><trkpt lat="42.424992" lon="18.772312"><ele>37.7</ele><time>2012-05-02T13:12:24.0000000+00:00</time></trkpt><trkpt lat="42.425064" lon="18.772272"><ele>37.7</ele><time>2012-05-02T13:12:29.0000000+00:00</time></trkpt><trkpt lat="42.425144" lon="18.772217"><ele>37.5</ele><time>2012-05-02T13:12:34.0000000+00:00</time></trkpt><trkpt lat="42.425217" lon="18.772131"><ele>37.1</ele><time>2012-05-02T13:12:39.0000000+00:00</time></trkpt><trkpt lat="42.425156" lon="18.772051"><ele>37.6</ele><time>2012-05-02T13:12:44.0000000+00:00</time></trkpt><trkpt lat="42.425213" lon="18.771971"><ele>40.0</ele><time>2012-05-02T13:12:49.0000000+00:00</time></trkpt><trkpt lat="42.425209" lon="18.771984"><ele>41.5</ele><time>2012-05-02T13:12:54.0000000+00:00</time></trkpt><trkpt lat="42.425266" lon="18.772022"><ele>42.2</ele><time>2012-05-02T13:12:59.0000000+00:00</time></trkpt><trkpt lat="42.425369" lon="18.772026"><ele>43.2</ele><time>2012-05-02T13:13:04.0000000+00:00</time></trkpt><trkpt lat="42.425526" lon="18.772005"><ele>43.6</ele><time>2012-05-02T13:13:09.0000000+00:00</time></trkpt><trkpt lat="42.425709" lon="18.771904"><ele>42.5</ele><time>2012-05-02T13:13:14.0000000+00:00</time></trkpt><trkpt lat="42.425743" lon="18.771891"><ele>42.4</ele><time>2012-05-02T13:13:19.0000000+00:00</time></trkpt><trkpt lat="42.425751" lon="18.771889"><ele>42.5</ele><time>2012-05-02T13:13:24.0000000+00:00</time></trkpt><trkpt lat="42.425755" lon="18.771891"><ele>42.4</ele><time>2012-05-02T13:13:29.0000000+00:00</time></trkpt><trkpt lat="42.425755" lon="18.771887"><ele>42.4</ele><time>2012-05-02T13:13:34.0000000+00:00</time></trkpt><trkpt lat="42.425751" lon="18.771887"><ele>42.3</ele><time>2012-05-02T13:13:39.0000000+00:00</time></trkpt><trkpt lat="42.425789" lon="18.771912"><ele>42.3</ele><time>2012-05-02T13:13:44.0000000+00:00</time></trkpt><trkpt lat="42.425831" lon="18.771969"><ele>42.2</ele><time>2012-05-02T13:13:49.0000000+00:00</time></trkpt><trkpt lat="42.425823" lon="18.771944"><ele>41.6</ele><time>2012-05-02T13:13:54.0000000+00:00</time></trkpt><trkpt lat="42.425819" lon="18.771954"><ele>41.5</ele><time>2012-05-02T13:13:59.0000000+00:00</time></trkpt><trkpt lat="42.425831" lon="18.771961"><ele>41.5</ele><time>2012-05-02T13:14:04.0000000+00:00</time></trkpt><trkpt lat="42.425961" lon="18.772083"><ele>38.9</ele><time>2012-05-02T13:14:09.0000000+00:00</time></trkpt><trkpt lat="42.426056" lon="18.772058"><ele>38.3</ele><time>2012-05-02T13:14:14.0000000+00:00</time></trkpt><trkpt lat="42.426098" lon="18.772097"><ele>37.8</ele><time>2012-05-02T13:14:19.0000000+00:00</time></trkpt><trkpt lat="42.426113" lon="18.771992"><ele>36.3</ele><time>2012-05-02T13:14:24.0000000+00:00</time></trkpt><trkpt lat="42.426121" lon="18.771894"><ele>32.3</ele><time>2012-05-02T13:14:29.0000000+00:00</time></trkpt><trkpt lat="42.426121" lon="18.771837"><ele>29.9</ele><time>2012-05-02T13:14:34.0000000+00:00</time></trkpt><trkpt lat="42.426075" lon="18.771879"><ele>27.9</ele><time>2012-05-02T13:14:39.0000000+00:00</time></trkpt><trkpt lat="42.426037" lon="18.771908"><ele>27.1</ele><time>2012-05-02T13:14:44.0000000+00:00</time></trkpt><trkpt lat="42.425995" lon="18.771921"><ele>26.5</ele><time>2012-05-02T13:14:49.0000000+00:00</time></trkpt><trkpt lat="42.425919" lon="18.771925"><ele>25.6</ele><time>2012-05-02T13:14:54.0000000+00:00</time></trkpt><trkpt lat="42.425831" lon="18.771925"><ele>24.9</ele><time>2012-05-02T13:14:59.0000000+00:00</time></trkpt><trkpt lat="42.425808" lon="18.771919"><ele>24.6</ele><time>2012-05-02T13:15:04.0000000+00:00</time></trkpt><trkpt lat="42.425854" lon="18.771875"><ele>24.2</ele><time>2012-05-02T13:15:09.0000000+00:00</time></trkpt><trkpt lat="42.425865" lon="18.771826"><ele>24.0</ele><time>2012-05-02T13:15:14.0000000+00:00</time></trkpt><trkpt lat="42.425865" lon="18.77182"><ele>23.9</ele><time>2012-05-02T13:15:19.0000000+00:00</time></trkpt><trkpt lat="42.425884" lon="18.77182"><ele>23.6</ele><time>2012-05-02T13:15:24.0000000+00:00</time></trkpt><trkpt lat="42.425987" lon="18.771812"><ele>23.7</ele><time>2012-05-02T13:15:29.0000000+00:00</time></trkpt><trkpt lat="42.426044" lon="18.771805"><ele>23.8</ele><time>2012-05-02T13:15:34.0000000+00:00</time></trkpt><trkpt lat="42.426025" lon="18.771811"><ele>23.8</ele><time>2012-05-02T13:15:39.0000000+00:00</time></trkpt><trkpt lat="42.426037" lon="18.771816"><ele>23.8</ele><time>2012-05-02T13:15:44.0000000+00:00</time></trkpt><trkpt lat="42.425999" lon="18.771847"><ele>23.8</ele><time>2012-05-02T13:15:49.0000000+00:00</time></trkpt><trkpt lat="42.425938" lon="18.771879"><ele>23.8</ele><time>2012-05-02T13:15:54.0000000+00:00</time></trkpt><trkpt lat="42.425877" lon="18.771809"><ele>23.8</ele><time>2012-05-02T13:15:59.0000000+00:00</time></trkpt><trkpt lat="42.425812" lon="18.771725"><ele>23.8</ele><time>2012-05-02T13:16:04.0000000+00:00</time></trkpt><trkpt lat="42.425774" lon="18.771719"><ele>23.8</ele><time>2012-05-02T13:16:09.0000000+00:00</time></trkpt><trkpt lat="42.425686" lon="18.771639"><ele>23.8</ele><time>2012-05-02T13:16:14.0000000+00:00</time></trkpt><trkpt lat="42.42564" lon="18.77154"><ele>24.3</ele><time>2012-05-02T13:16:19.0000000+00:00</time></trkpt><trkpt lat="42.425625" lon="18.771446"><ele>24.4</ele><time>2012-05-02T13:16:24.0000000+00:00</time></trkpt><trkpt lat="42.425652" lon="18.771301"><ele>24.8</ele><time>2012-05-02T13:16:29.0000000+00:00</time></trkpt><trkpt lat="42.425659" lon="18.771223"><ele>25.1</ele><time>2012-05-02T13:16:34.0000000+00:00</time></trkpt><trkpt lat="42.425613" lon="18.771181"><ele>25.3</ele><time>2012-05-02T13:16:39.0000000+00:00</time></trkpt><trkpt lat="42.425507" lon="18.771101"><ele>25.4</ele><time>2012-05-02T13:16:44.0000000+00:00</time></trkpt><trkpt lat="42.425442" lon="18.771036"><ele>24.8</ele><time>2012-05-02T13:16:49.0000000+00:00</time></trkpt><trkpt lat="42.425442" lon="18.771025"><ele>24.9</ele><time>2012-05-02T13:16:54.0000000+00:00</time></trkpt><trkpt lat="42.425446" lon="18.771027"><ele>24.9</ele><time>2012-05-02T13:16:59.0000000+00:00</time></trkpt><trkpt lat="42.425442" lon="18.771023"><ele>24.9</ele><time>2012-05-02T13:17:04.0000000+00:00</time></trkpt><trkpt lat="42.425438" lon="18.771017"><ele>24.9</ele><time>2012-05-02T13:17:09.0000000+00:00</time></trkpt><trkpt lat="42.42543" lon="18.771009"><ele>24.8</ele><time>2012-05-02T13:17:14.0000000+00:00</time></trkpt><trkpt lat="42.425426" lon="18.771015"><ele>24.8</ele><time>2012-05-02T13:17:19.0000000+00:00</time></trkpt><trkpt lat="42.425385" lon="18.771019"><ele>24.8</ele><time>2012-05-02T13:17:24.0000000+00:00</time></trkpt><trkpt lat="42.42535" lon="18.770979"><ele>25.0</ele><time>2012-05-02T13:17:29.0000000+00:00</time></trkpt><trkpt lat="42.425312" lon="18.771046"><ele>25.3</ele><time>2012-05-02T13:17:34.0000000+00:00</time></trkpt><trkpt lat="42.425232" lon="18.771137"><ele>25.7</ele><time>2012-05-02T13:17:39.0000000+00:00</time></trkpt><trkpt lat="42.425247" lon="18.771145"><ele>25.7</ele><time>2012-05-02T13:17:44.0000000+00:00</time></trkpt><trkpt lat="42.425243" lon="18.771177"><ele>25.7</ele><time>2012-05-02T13:17:49.0000000+00:00</time></trkpt><trkpt lat="42.425224" lon="18.771202"><ele>25.7</ele><time>2012-05-02T13:17:54.0000000+00:00</time></trkpt><trkpt lat="42.425198" lon="18.771235"><ele>25.8</ele><time>2012-05-02T13:17:59.0000000+00:00</time></trkpt><trkpt lat="42.425129" lon="18.771242"><ele>26.1</ele><time>2012-05-02T13:18:04.0000000+00:00</time></trkpt><trkpt lat="42.425018" lon="18.771276"><ele>27.3</ele><time>2012-05-02T13:18:09.0000000+00:00</time></trkpt><trkpt lat="42.424957" lon="18.771288"><ele>27.3</ele><time>2012-05-02T13:18:14.0000000+00:00</time></trkpt><trkpt lat="42.424915" lon="18.771278"><ele>27.8</ele><time>2012-05-02T13:18:19.0000000+00:00</time></trkpt><trkpt lat="42.424828" lon="18.771265"><ele>28.0</ele><time>2012-05-02T13:18:24.0000000+00:00</time></trkpt><trkpt lat="42.42477" lon="18.771246"><ele>27.8</ele><time>2012-05-02T13:18:29.0000000+00:00</time></trkpt><trkpt lat="42.424809" lon="18.771246"><ele>28.0</ele><time>2012-05-02T13:18:34.0000000+00:00</time></trkpt><trkpt lat="42.424767" lon="18.771097"><ele>28.5</ele><time>2012-05-02T13:18:39.0000000+00:00</time></trkpt><trkpt lat="42.424648" lon="18.771168"><ele>29.8</ele><time>2012-05-02T13:18:44.0000000+00:00</time></trkpt><trkpt lat="42.424541" lon="18.771202"><ele>31.0</ele><time>2012-05-02T13:18:49.0000000+00:00</time></trkpt><trkpt lat="42.424492" lon="18.771198"><ele>31.2</ele><time>2012-05-02T13:18:54.0000000+00:00</time></trkpt><trkpt lat="42.424385" lon="18.771257"><ele>31.8</ele><time>2012-05-02T13:18:59.0000000+00:00</time></trkpt><trkpt lat="42.424278" lon="18.77128"><ele>32.4</ele><time>2012-05-02T13:19:04.0000000+00:00</time></trkpt><trkpt lat="42.424095" lon="18.771351"><ele>31.5</ele><time>2012-05-02T13:19:09.0000000+00:00</time></trkpt><trkpt lat="42.424095" lon="18.771343"><ele>31.8</ele><time>2012-05-02T13:19:14.0000000+00:00</time></trkpt><trkpt lat="42.424095" lon="18.771338"><ele>31.7</ele><time>2012-05-02T13:19:19.0000000+00:00</time></trkpt><trkpt lat="42.424175" lon="18.7712"><ele>29.2</ele><time>2012-05-02T13:19:24.0000000+00:00</time></trkpt><trkpt lat="42.424221" lon="18.771181"><ele>29.0</ele><time>2012-05-02T13:19:29.0000000+00:00</time></trkpt><trkpt lat="42.424259" lon="18.771166"><ele>27.9</ele><time>2012-05-02T13:19:34.0000000+00:00</time></trkpt><trkpt lat="42.424202" lon="18.771206"><ele>27.5</ele><time>2012-05-02T13:19:39.0000000+00:00</time></trkpt><trkpt lat="42.424168" lon="18.771223"><ele>27.4</ele><time>2012-05-02T13:19:44.0000000+00:00</time></trkpt><trkpt lat="42.424164" lon="18.771313"><ele>27.2</ele><time>2012-05-02T13:19:49.0000000+00:00</time></trkpt><trkpt lat="42.423923" lon="18.771278"><ele>26.9</ele><time>2012-05-02T13:19:54.0000000+00:00</time></trkpt><trkpt lat="42.423885" lon="18.771391"><ele>27.0</ele><time>2012-05-02T13:19:59.0000000+00:00</time></trkpt><trkpt lat="42.423817" lon="18.771502"><ele>27.2</ele><time>2012-05-02T13:20:04.0000000+00:00</time></trkpt><trkpt lat="42.42382" lon="18.771515"><ele>27.3</ele><time>2012-05-02T13:20:09.0000000+00:00</time></trkpt><trkpt lat="42.423824" lon="18.771521"><ele>27.4</ele><time>2012-05-02T13:20:14.0000000+00:00</time></trkpt><trkpt lat="42.423855" lon="18.771467"><ele>27.5</ele><time>2012-05-02T13:20:19.0000000+00:00</time></trkpt><trkpt lat="42.423851" lon="18.77146"><ele>27.4</ele><time>2012-05-02T13:20:24.0000000+00:00</time></trkpt><trkpt lat="42.42384" lon="18.771454"><ele>27.4</ele><time>2012-05-02T13:20:29.0000000+00:00</time></trkpt><trkpt lat="42.423813" lon="18.771461"><ele>27.3</ele><time>2012-05-02T13:20:34.0000000+00:00</time></trkpt><trkpt lat="42.42382" lon="18.771454"><ele>27.3</ele><time>2012-05-02T13:20:39.0000000+00:00</time></trkpt><trkpt lat="42.423843" lon="18.771458"><ele>27.4</ele><time>2012-05-02T13:20:44.0000000+00:00</time></trkpt><trkpt lat="42.42384" lon="18.771486"><ele>27.4</ele><time>2012-05-02T13:20:49.0000000+00:00</time></trkpt><trkpt lat="42.423836" lon="18.771538"><ele>27.4</ele><time>2012-05-02T13:20:54.0000000+00:00</time></trkpt><trkpt lat="42.423805" lon="18.77157"><ele>27.4</ele><time>2012-05-02T13:20:59.0000000+00:00</time></trkpt><trkpt lat="42.42371" lon="18.771635"><ele>27.4</ele><time>2012-05-02T13:21:04.0000000+00:00</time></trkpt><trkpt lat="42.423637" lon="18.771658"><ele>27.4</ele><time>2012-05-02T13:21:09.0000000+00:00</time></trkpt><trkpt lat="42.423328" lon="18.771555"><ele>27.4</ele><time>2012-05-02T13:21:14.0000000+00:00</time></trkpt><trkpt lat="42.423088" lon="18.771631"><ele>27.4</ele><time>2012-05-02T13:21:19.0000000+00:00</time></trkpt><trkpt lat="42.422913" lon="18.771656"><ele>27.3</ele><time>2012-05-02T13:21:24.0000000+00:00</time></trkpt><trkpt lat="42.422928" lon="18.771692"><ele>27.2</ele><time>2012-05-02T13:21:29.0000000+00:00</time></trkpt><trkpt lat="42.422852" lon="18.771667"><ele>27.2</ele><time>2012-05-02T13:21:34.0000000+00:00</time></trkpt><trkpt lat="42.422791" lon="18.771658"><ele>27.0</ele><time>2012-05-02T13:21:39.0000000+00:00</time></trkpt><trkpt lat="42.422703" lon="18.771664"><ele>26.9</ele><time>2012-05-02T13:21:44.0000000+00:00</time></trkpt><trkpt lat="42.422626" lon="18.771729"><ele>26.9</ele><time>2012-05-02T13:21:49.0000000+00:00</time></trkpt><trkpt lat="42.422482" lon="18.771734"><ele>26.9</ele><time>2012-05-02T13:21:54.0000000+00:00</time></trkpt><trkpt lat="42.422535" lon="18.771811"><ele>26.9</ele><time>2012-05-02T13:21:59.0000000+00:00</time></trkpt><trkpt lat="42.4226" lon="18.771732"><ele>26.8</ele><time>2012-05-02T13:22:04.0000000+00:00</time></trkpt><trkpt lat="42.422646" lon="18.771687"><ele>26.8</ele><time>2012-05-02T13:22:09.0000000+00:00</time></trkpt><trkpt lat="42.422718" lon="18.771732"><ele>26.7</ele><time>2012-05-02T13:22:14.0000000+00:00</time></trkpt><trkpt lat="42.422794" lon="18.771826"><ele>26.7</ele><time>2012-05-02T13:22:19.0000000+00:00</time></trkpt><trkpt lat="42.422798" lon="18.771841"><ele>26.7</ele><time>2012-05-02T13:22:24.0000000+00:00</time></trkpt><trkpt lat="42.422741" lon="18.771788"><ele>26.7</ele><time>2012-05-02T13:22:29.0000000+00:00</time></trkpt><trkpt lat="42.422684" lon="18.771748"><ele>26.7</ele><time>2012-05-02T13:22:34.0000000+00:00</time></trkpt><trkpt lat="42.422539" lon="18.771568"><ele>26.7</ele><time>2012-05-02T13:22:39.0000000+00:00</time></trkpt><trkpt lat="42.422409" lon="18.771412"><ele>26.7</ele><time>2012-05-02T13:22:44.0000000+00:00</time></trkpt><trkpt lat="42.422337" lon="18.77141"><ele>26.7</ele><time>2012-05-02T13:22:49.0000000+00:00</time></trkpt><trkpt lat="42.422409" lon="18.771494"><ele>26.7</ele><time>2012-05-02T13:22:54.0000000+00:00</time></trkpt><trkpt lat="42.422501" lon="18.771544"><ele>26.7</ele><time>2012-05-02T13:22:59.0000000+00:00</time></trkpt><trkpt lat="42.422489" lon="18.771547"><ele>26.7</ele><time>2012-05-02T13:23:04.0000000+00:00</time></trkpt><trkpt lat="42.42247" lon="18.771551"><ele>26.7</ele><time>2012-05-02T13:23:09.0000000+00:00</time></trkpt><trkpt lat="42.42247" lon="18.771576"><ele>26.7</ele><time>2012-05-02T13:23:14.0000000+00:00</time></trkpt><trkpt lat="42.422489" lon="18.771618"><ele>26.7</ele><time>2012-05-02T13:23:19.0000000+00:00</time></trkpt><trkpt lat="42.422615" lon="18.771683"><ele>26.6</ele><time>2012-05-02T13:23:24.0000000+00:00</time></trkpt><trkpt lat="42.422756" lon="18.771769"><ele>26.6</ele><time>2012-05-02T13:23:29.0000000+00:00</time></trkpt><trkpt lat="42.422779" lon="18.771788"><ele>26.5</ele><time>2012-05-02T13:23:34.0000000+00:00</time></trkpt><trkpt lat="42.422546" lon="18.771719"><ele>26.5</ele><time>2012-05-02T13:23:39.0000000+00:00</time></trkpt><trkpt lat="42.422405" lon="18.77166"><ele>26.3</ele><time>2012-05-02T13:23:44.0000000+00:00</time></trkpt><trkpt lat="42.422401" lon="18.771618"><ele>26.3</ele><time>2012-05-02T13:23:49.0000000+00:00</time></trkpt><trkpt lat="42.422359" lon="18.771595"><ele>26.1</ele><time>2012-05-02T13:23:54.0000000+00:00</time></trkpt><trkpt lat="42.422333" lon="18.77161"><ele>25.9</ele><time>2012-05-02T13:23:59.0000000+00:00</time></trkpt><trkpt lat="42.422337" lon="18.771589"><ele>25.7</ele><time>2012-05-02T13:24:04.0000000+00:00</time></trkpt><trkpt lat="42.422386" lon="18.771551"><ele>25.5</ele><time>2012-05-02T13:24:09.0000000+00:00</time></trkpt><trkpt lat="42.422398" lon="18.771538"><ele>25.4</ele><time>2012-05-02T13:24:14.0000000+00:00</time></trkpt><trkpt lat="42.422421" lon="18.771515"><ele>25.4</ele><time>2012-05-02T13:24:19.0000000+00:00</time></trkpt><trkpt lat="42.422421" lon="18.77153"><ele>25.4</ele><time>2012-05-02T13:24:24.0000000+00:00</time></trkpt><trkpt lat="42.422466" lon="18.771545"><ele>25.4</ele><time>2012-05-02T13:24:29.0000000+00:00</time></trkpt><trkpt lat="42.422459" lon="18.772568"><ele>-82.4</ele><time>2012-05-02T13:26:14.0000000+00:00</time></trkpt><trkpt lat="42.422314" lon="18.772017"><ele>-43.3</ele><time>2012-05-02T13:26:19.0000000+00:00</time></trkpt><trkpt lat="42.422333" lon="18.772154"><ele>-44.5</ele><time>2012-05-02T13:26:24.0000000+00:00</time></trkpt><trkpt lat="42.422295" lon="18.772091"><ele>-43.0</ele><time>2012-05-02T13:26:29.0000000+00:00</time></trkpt><trkpt lat="42.422253" lon="18.771984"><ele>-40.0</ele><time>2012-05-02T13:26:34.0000000+00:00</time></trkpt><trkpt lat="42.42223" lon="18.771978"><ele>-37.3</ele><time>2012-05-02T13:26:39.0000000+00:00</time></trkpt><trkpt lat="42.42223" lon="18.771978"><ele>-37.8</ele><time>2012-05-02T13:26:44.0000000+00:00</time></trkpt><trkpt lat="42.42223" lon="18.771978"><ele>-38.3</ele><time>2012-05-02T13:26:49.0000000+00:00</time></trkpt><trkpt lat="42.422234" lon="18.771929"><ele>-37.7</ele><time>2012-05-02T13:26:54.0000000+00:00</time></trkpt><trkpt lat="42.422234" lon="18.771915"><ele>-38.2</ele><time>2012-05-02T13:26:59.0000000+00:00</time></trkpt><trkpt lat="42.42223" lon="18.771908"><ele>-38.7</ele><time>2012-05-02T13:27:04.0000000+00:00</time></trkpt><trkpt lat="42.422226" lon="18.771902"><ele>-39.2</ele><time>2012-05-02T13:27:09.0000000+00:00</time></trkpt><trkpt lat="42.422226" lon="18.771896"><ele>-39.7</ele><time>2012-05-02T13:27:14.0000000+00:00</time></trkpt><trkpt lat="42.422226" lon="18.771896"><ele>-40.2</ele><time>2012-05-02T13:27:19.0000000+00:00</time></trkpt><trkpt lat="42.42223" lon="18.771894"><ele>-40.8</ele><time>2012-05-02T13:27:24.0000000+00:00</time></trkpt><trkpt lat="42.422234" lon="18.771891"><ele>-41.3</ele><time>2012-05-02T13:27:29.0000000+00:00</time></trkpt><trkpt lat="42.422234" lon="18.771891"><ele>-41.8</ele><time>2012-05-02T13:27:34.0000000+00:00</time></trkpt><trkpt lat="42.422234" lon="18.771894"><ele>-42.3</ele><time>2012-05-02T13:27:39.0000000+00:00</time></trkpt><trkpt lat="42.422234" lon="18.771898"><ele>-42.8</ele><time>2012-05-02T13:27:44.0000000+00:00</time></trkpt><trkpt lat="42.422237" lon="18.771896"><ele>-43.3</ele><time>2012-05-02T13:27:49.0000000+00:00</time></trkpt><trkpt lat="42.422241" lon="18.771889"><ele>-43.8</ele><time>2012-05-02T13:27:54.0000000+00:00</time></trkpt><trkpt lat="42.422249" lon="18.771877"><ele>-44.3</ele><time>2012-05-02T13:27:59.0000000+00:00</time></trkpt><trkpt lat="42.422256" lon="18.77187"><ele>-44.8</ele><time>2012-05-02T13:28:04.0000000+00:00</time></trkpt><trkpt lat="42.42226" lon="18.771866"><ele>-45.2</ele><time>2012-05-02T13:28:09.0000000+00:00</time></trkpt><trkpt lat="42.422268" lon="18.771864"><ele>-45.7</ele><time>2012-05-02T13:28:14.0000000+00:00</time></trkpt><trkpt lat="42.422272" lon="18.771866"><ele>-46.1</ele><time>2012-05-02T13:28:19.0000000+00:00</time></trkpt><trkpt lat="42.422268" lon="18.771839"><ele>-46.4</ele><time>2012-05-02T13:28:24.0000000+00:00</time></trkpt><trkpt lat="42.422337" lon="18.771645"><ele>-46.2</ele><time>2012-05-02T13:28:29.0000000+00:00</time></trkpt><trkpt lat="42.422218" lon="18.771446"><ele>-46.9</ele><time>2012-05-02T13:28:34.0000000+00:00</time></trkpt><trkpt lat="42.422176" lon="18.771269"><ele>-47.2</ele><time>2012-05-02T13:28:39.0000000+00:00</time></trkpt><trkpt lat="42.422131" lon="18.771111"><ele>-47.7</ele><time>2012-05-02T13:28:44.0000000+00:00</time></trkpt><trkpt lat="42.422047" lon="18.770924"><ele>-47.8</ele><time>2012-05-02T13:28:49.0000000+00:00</time></trkpt><trkpt lat="42.42197" lon="18.770729"><ele>-47.2</ele><time>2012-05-02T13:28:54.0000000+00:00</time></trkpt><trkpt lat="42.421978" lon="18.770634"><ele>-46.4</ele><time>2012-05-02T13:28:59.0000000+00:00</time></trkpt><trkpt lat="42.421898" lon="18.770454"><ele>-45.4</ele><time>2012-05-02T13:29:04.0000000+00:00</time></trkpt><trkpt lat="42.421791" lon="18.770052"><ele>-43.6</ele><time>2012-05-02T13:29:09.0000000+00:00</time></trkpt><trkpt lat="42.421799" lon="18.769733"><ele>-41.9</ele><time>2012-05-02T13:29:14.0000000+00:00</time></trkpt><trkpt lat="42.421795" lon="18.769489"><ele>-40.2</ele><time>2012-05-02T13:29:19.0000000+00:00</time></trkpt><trkpt lat="42.421822" lon="18.769234"><ele>-37.2</ele><time>2012-05-02T13:29:24.0000000+00:00</time></trkpt><trkpt lat="42.421787" lon="18.769146"><ele>-34.4</ele><time>2012-05-02T13:29:29.0000000+00:00</time></trkpt><trkpt lat="42.421772" lon="18.76914"><ele>-33.4</ele><time>2012-05-02T13:29:34.0000000+00:00</time></trkpt><trkpt lat="42.421772" lon="18.769138"><ele>-33.0</ele><time>2012-05-02T13:29:39.0000000+00:00</time></trkpt><trkpt lat="42.421772" lon="18.769138"><ele>-32.9</ele><time>2012-05-02T13:29:44.0000000+00:00</time></trkpt><trkpt lat="42.421764" lon="18.769056"><ele>-32.5</ele><time>2012-05-02T13:29:49.0000000+00:00</time></trkpt><trkpt lat="42.421741" lon="18.768892"><ele>-31.9</ele><time>2012-05-02T13:29:54.0000000+00:00</time></trkpt><trkpt lat="42.421719" lon="18.768633"><ele>-31.3</ele><time>2012-05-02T13:29:59.0000000+00:00</time></trkpt><trkpt lat="42.421673" lon="18.768373"><ele>-30.2</ele><time>2012-05-02T13:30:04.0000000+00:00</time></trkpt><trkpt lat="42.421593" lon="18.768028"><ele>-28.8</ele><time>2012-05-02T13:30:09.0000000+00:00</time></trkpt><trkpt lat="42.421597" lon="18.767622"><ele>-27.1</ele><time>2012-05-02T13:30:14.0000000+00:00</time></trkpt><trkpt lat="42.421597" lon="18.767206"><ele>-25.2</ele><time>2012-05-02T13:30:19.0000000+00:00</time></trkpt><trkpt lat="42.421619" lon="18.766752"><ele>-22.4</ele><time>2012-05-02T13:30:24.0000000+00:00</time></trkpt><trkpt lat="42.421612" lon="18.76639"><ele>-19.6</ele><time>2012-05-02T13:30:29.0000000+00:00</time></trkpt><trkpt lat="42.421551" lon="18.766048"><ele>-16.6</ele><time>2012-05-02T13:30:34.0000000+00:00</time></trkpt><trkpt lat="42.42149" lon="18.765675"><ele>-13.0</ele><time>2012-05-02T13:30:39.0000000+00:00</time></trkpt><trkpt lat="42.421471" lon="18.765345"><ele>-9.9</ele><time>2012-05-02T13:30:44.0000000+00:00</time></trkpt><trkpt lat="42.421478" lon="18.764969"><ele>-7.0</ele><time>2012-05-02T13:30:49.0000000+00:00</time></trkpt><trkpt lat="42.421474" lon="18.76461"><ele>-4.1</ele><time>2012-05-02T13:30:54.0000000+00:00</time></trkpt><trkpt lat="42.42152" lon="18.764238"><ele>-1.2</ele><time>2012-05-02T13:30:59.0000000+00:00</time></trkpt><trkpt lat="42.421574" lon="18.763878"><ele>2.1</ele><time>2012-05-02T13:31:04.0000000+00:00</time></trkpt><trkpt lat="42.421612" lon="18.763523"><ele>5.4</ele><time>2012-05-02T13:31:09.0000000+00:00</time></trkpt><trkpt lat="42.421692" lon="18.763212"><ele>8.5</ele><time>2012-05-02T13:31:14.0000000+00:00</time></trkpt><trkpt lat="42.421776" lon="18.76297"><ele>11.1</ele><time>2012-05-02T13:31:19.0000000+00:00</time></trkpt><trkpt lat="42.421864" lon="18.762653"><ele>13.8</ele><time>2012-05-02T13:31:24.0000000+00:00</time></trkpt><trkpt lat="42.421986" lon="18.762323"><ele>16.6</ele><time>2012-05-02T13:31:29.0000000+00:00</time></trkpt><trkpt lat="42.422153" lon="18.762051"><ele>18.9</ele><time>2012-05-02T13:31:34.0000000+00:00</time></trkpt><trkpt lat="42.422329" lon="18.761906"><ele>21.2</ele><time>2012-05-02T13:31:39.0000000+00:00</time></trkpt><trkpt lat="42.422546" lon="18.761866"><ele>23.4</ele><time>2012-05-02T13:31:44.0000000+00:00</time></trkpt><trkpt lat="42.422733" lon="18.761801"><ele>25.3</ele><time>2012-05-02T13:31:49.0000000+00:00</time></trkpt><trkpt lat="42.422962" lon="18.761696"><ele>27.1</ele><time>2012-05-02T13:31:54.0000000+00:00</time></trkpt><trkpt lat="42.423191" lon="18.761503"><ele>27.8</ele><time>2012-05-02T13:31:59.0000000+00:00</time></trkpt><trkpt lat="42.423401" lon="18.761217"><ele>29.0</ele><time>2012-05-02T13:32:04.0000000+00:00</time></trkpt><trkpt lat="42.423622" lon="18.76096"><ele>30.3</ele><time>2012-05-02T13:32:09.0000000+00:00</time></trkpt><trkpt lat="42.423817" lon="18.760706"><ele>31.4</ele><time>2012-05-02T13:32:14.0000000+00:00</time></trkpt><trkpt lat="42.424061" lon="18.760517"><ele>32.4</ele><time>2012-05-02T13:32:19.0000000+00:00</time></trkpt><trkpt lat="42.424324" lon="18.76045"><ele>33.4</ele><time>2012-05-02T13:32:24.0000000+00:00</time></trkpt><trkpt lat="42.424625" lon="18.76033"><ele>33.9</ele><time>2012-05-02T13:32:29.0000000+00:00</time></trkpt><trkpt lat="42.424969" lon="18.760178"><ele>34.1</ele><time>2012-05-02T13:32:34.0000000+00:00</time></trkpt><trkpt lat="42.425198" lon="18.759844"><ele>34.3</ele><time>2012-05-02T13:32:39.0000000+00:00</time></trkpt><trkpt lat="42.42543" lon="18.759525"><ele>34.5</ele><time>2012-05-02T13:32:44.0000000+00:00</time></trkpt><trkpt lat="42.425674" lon="18.759298"><ele>34.6</ele><time>2012-05-02T13:32:49.0000000+00:00</time></trkpt><trkpt lat="42.425934" lon="18.759155"><ele>34.8</ele><time>2012-05-02T13:32:54.0000000+00:00</time></trkpt><trkpt lat="42.426224" lon="18.75906"><ele>35.0</ele><time>2012-05-02T13:32:59.0000000+00:00</time></trkpt><trkpt lat="42.426502" lon="18.759007"><ele>35.1</ele><time>2012-05-02T13:33:04.0000000+00:00</time></trkpt><trkpt lat="42.426804" lon="18.758989"><ele>35.1</ele><time>2012-05-02T13:33:09.0000000+00:00</time></trkpt><trkpt lat="42.427048" lon="18.758963"><ele>34.9</ele><time>2012-05-02T13:33:14.0000000+00:00</time></trkpt><trkpt lat="42.427132" lon="18.758921"><ele>34.4</ele><time>2012-05-02T13:33:19.0000000+00:00</time></trkpt><trkpt lat="42.427132" lon="18.758905"><ele>34.0</ele><time>2012-05-02T13:33:24.0000000+00:00</time></trkpt><trkpt lat="42.427128" lon="18.758904"><ele>33.9</ele><time>2012-05-02T13:33:29.0000000+00:00</time></trkpt><trkpt lat="42.42712" lon="18.758896"><ele>33.9</ele><time>2012-05-02T13:33:34.0000000+00:00</time></trkpt><trkpt lat="42.427113" lon="18.75889"><ele>33.9</ele><time>2012-05-02T13:33:39.0000000+00:00</time></trkpt><trkpt lat="42.427109" lon="18.758884"><ele>33.9</ele><time>2012-05-02T13:33:44.0000000+00:00</time></trkpt><trkpt lat="42.427105" lon="18.758879"><ele>33.9</ele><time>2012-05-02T13:33:49.0000000+00:00</time></trkpt><trkpt lat="42.427105" lon="18.758877"><ele>33.9</ele><time>2012-05-02T13:33:54.0000000+00:00</time></trkpt><trkpt lat="42.427101" lon="18.758875"><ele>33.9</ele><time>2012-05-02T13:33:59.0000000+00:00</time></trkpt><trkpt lat="42.427097" lon="18.758865"><ele>33.9</ele><time>2012-05-02T13:34:04.0000000+00:00</time></trkpt><trkpt lat="42.427231" lon="18.758875"><ele>32.8</ele><time>2012-05-02T13:34:09.0000000+00:00</time></trkpt><trkpt lat="42.427452" lon="18.7589"><ele>31.2</ele><time>2012-05-02T13:34:14.0000000+00:00</time></trkpt><trkpt lat="42.427727" lon="18.758905"><ele>30.6</ele><time>2012-05-02T13:34:19.0000000+00:00</time></trkpt><trkpt lat="42.427986" lon="18.758793"><ele>27.1</ele><time>2012-05-02T13:34:24.0000000+00:00</time></trkpt><trkpt lat="42.428257" lon="18.758619"><ele>19.7</ele><time>2012-05-02T13:34:29.0000000+00:00</time></trkpt><trkpt lat="42.428524" lon="18.758495"><ele>18.6</ele><time>2012-05-02T13:34:34.0000000+00:00</time></trkpt><trkpt lat="42.428795" lon="18.758402"><ele>17.7</ele><time>2012-05-02T13:34:39.0000000+00:00</time></trkpt><trkpt lat="42.429085" lon="18.758389"><ele>18.2</ele><time>2012-05-02T13:34:44.0000000+00:00</time></trkpt><trkpt lat="42.429359" lon="18.758402"><ele>18.1</ele><time>2012-05-02T13:34:49.0000000+00:00</time></trkpt><trkpt lat="42.429634" lon="18.758402"><ele>18.3</ele><time>2012-05-02T13:34:54.0000000+00:00</time></trkpt><trkpt lat="42.42989" lon="18.758402"><ele>18.2</ele><time>2012-05-02T13:34:59.0000000+00:00</time></trkpt><trkpt lat="42.43013" lon="18.758402"><ele>17.7</ele><time>2012-05-02T13:35:04.0000000+00:00</time></trkpt><trkpt lat="42.430393" lon="18.758356"><ele>15.4</ele><time>2012-05-02T13:35:09.0000000+00:00</time></trkpt><trkpt lat="42.430618" lon="18.75824"><ele>16.7</ele><time>2012-05-02T13:35:14.0000000+00:00</time></trkpt><trkpt lat="42.43087" lon="18.758114"><ele>17.9</ele><time>2012-05-02T13:35:19.0000000+00:00</time></trkpt><trkpt lat="42.431091" lon="18.757969"><ele>18.9</ele><time>2012-05-02T13:35:24.0000000+00:00</time></trkpt><trkpt lat="42.431351" lon="18.757952"><ele>19.6</ele><time>2012-05-02T13:35:29.0000000+00:00</time></trkpt><trkpt lat="42.431629" lon="18.757957"><ele>20.5</ele><time>2012-05-02T13:35:34.0000000+00:00</time></trkpt><trkpt lat="42.431881" lon="18.757919"><ele>22.9</ele><time>2012-05-02T13:35:39.0000000+00:00</time></trkpt><trkpt lat="42.43211" lon="18.757782"><ele>24.4</ele><time>2012-05-02T13:35:44.0000000+00:00</time></trkpt><trkpt lat="42.432362" lon="18.757759"><ele>26.6</ele><time>2012-05-02T13:35:49.0000000+00:00</time></trkpt><trkpt lat="42.432652" lon="18.757822"><ele>27.5</ele><time>2012-05-02T13:35:54.0000000+00:00</time></trkpt><trkpt lat="42.432888" lon="18.757898"><ele>24.1</ele><time>2012-05-02T13:35:59.0000000+00:00</time></trkpt><trkpt lat="42.433102" lon="18.758078"><ele>23.9</ele><time>2012-05-02T13:36:04.0000000+00:00</time></trkpt><trkpt lat="42.433403" lon="18.758066"><ele>23.8</ele><time>2012-05-02T13:36:09.0000000+00:00</time></trkpt><trkpt lat="42.433685" lon="18.757895"><ele>24.0</ele><time>2012-05-02T13:36:14.0000000+00:00</time></trkpt><trkpt lat="42.433918" lon="18.757648"><ele>23.4</ele><time>2012-05-02T13:36:19.0000000+00:00</time></trkpt><trkpt lat="42.434147" lon="18.757431"><ele>23.8</ele><time>2012-05-02T13:36:24.0000000+00:00</time></trkpt><trkpt lat="42.434391" lon="18.757183"><ele>23.6</ele><time>2012-05-02T13:36:29.0000000+00:00</time></trkpt><trkpt lat="42.434643" lon="18.757023"><ele>24.2</ele><time>2012-05-02T13:36:34.0000000+00:00</time></trkpt><trkpt lat="42.43494" lon="18.757021"><ele>24.4</ele><time>2012-05-02T13:36:39.0000000+00:00</time></trkpt><trkpt lat="42.435223" lon="18.756973"><ele>24.9</ele><time>2012-05-02T13:36:44.0000000+00:00</time></trkpt><trkpt lat="42.43549" lon="18.756752"><ele>24.6</ele><time>2012-05-02T13:36:49.0000000+00:00</time></trkpt><trkpt lat="42.435776" lon="18.756567"><ele>24.2</ele><time>2012-05-02T13:36:54.0000000+00:00</time></trkpt><trkpt lat="42.436028" lon="18.756462"><ele>24.0</ele><time>2012-05-02T13:36:59.0000000+00:00</time></trkpt><trkpt lat="42.436169" lon="18.756351"><ele>23.6</ele><time>2012-05-02T13:37:04.0000000+00:00</time></trkpt><trkpt lat="42.436398" lon="18.756252"><ele>23.4</ele><time>2012-05-02T13:37:09.0000000+00:00</time></trkpt><trkpt lat="42.436634" lon="18.75613"><ele>23.2</ele><time>2012-05-02T13:37:14.0000000+00:00</time></trkpt><trkpt lat="42.436893" lon="18.755991"><ele>22.9</ele><time>2012-05-02T13:37:19.0000000+00:00</time></trkpt><trkpt lat="42.437122" lon="18.755768"><ele>22.4</ele><time>2012-05-02T13:37:24.0000000+00:00</time></trkpt><trkpt lat="42.437275" lon="18.755484"><ele>22.0</ele><time>2012-05-02T13:37:29.0000000+00:00</time></trkpt><trkpt lat="42.437496" lon="18.755198"><ele>22.1</ele><time>2012-05-02T13:37:34.0000000+00:00</time></trkpt><trkpt lat="42.437775" lon="18.755033"><ele>22.2</ele><time>2012-05-02T13:37:39.0000000+00:00</time></trkpt><trkpt lat="42.437927" lon="18.754951"><ele>22.5</ele><time>2012-05-02T13:37:44.0000000+00:00</time></trkpt><trkpt lat="42.437958" lon="18.754969"><ele>22.4</ele><time>2012-05-02T13:37:49.0000000+00:00</time></trkpt><trkpt lat="42.437962" lon="18.754963"><ele>22.4</ele><time>2012-05-02T13:37:54.0000000+00:00</time></trkpt><trkpt lat="42.437969" lon="18.754965"><ele>22.4</ele><time>2012-05-02T13:37:59.0000000+00:00</time></trkpt><trkpt lat="42.437973" lon="18.754969"><ele>22.3</ele><time>2012-05-02T13:38:04.0000000+00:00</time></trkpt><trkpt lat="42.438026" lon="18.754927"><ele>22.0</ele><time>2012-05-02T13:38:09.0000000+00:00</time></trkpt><trkpt lat="42.438148" lon="18.754887"><ele>21.4</ele><time>2012-05-02T13:38:14.0000000+00:00</time></trkpt><trkpt lat="42.438351" lon="18.754772"><ele>21.0</ele><time>2012-05-02T13:38:19.0000000+00:00</time></trkpt><trkpt lat="42.438564" lon="18.754641"><ele>20.8</ele><time>2012-05-02T13:38:24.0000000+00:00</time></trkpt><trkpt lat="42.438786" lon="18.754507"><ele>20.7</ele><time>2012-05-02T13:38:29.0000000+00:00</time></trkpt><trkpt lat="42.438927" lon="18.754286"><ele>20.5</ele><time>2012-05-02T13:38:34.0000000+00:00</time></trkpt><trkpt lat="42.439102" lon="18.754005"><ele>20.3</ele><time>2012-05-02T13:38:39.0000000+00:00</time></trkpt><trkpt lat="42.439297" lon="18.753738"><ele>19.7</ele><time>2012-05-02T13:38:44.0000000+00:00</time></trkpt><trkpt lat="42.439491" lon="18.75351"><ele>19.7</ele><time>2012-05-02T13:38:49.0000000+00:00</time></trkpt><trkpt lat="42.439785" lon="18.753578"><ele>19.8</ele><time>2012-05-02T13:38:54.0000000+00:00</time></trkpt><trkpt lat="42.440075" lon="18.753777"><ele>19.6</ele><time>2012-05-02T13:38:59.0000000+00:00</time></trkpt><trkpt lat="42.440296" lon="18.753937"><ele>19.2</ele><time>2012-05-02T13:39:04.0000000+00:00</time></trkpt><trkpt lat="42.440582" lon="18.754066"><ele>19.3</ele><time>2012-05-02T13:39:09.0000000+00:00</time></trkpt><trkpt lat="42.440826" lon="18.754265"><ele>19.3</ele><time>2012-05-02T13:39:14.0000000+00:00</time></trkpt><trkpt lat="42.441063" lon="18.754414"><ele>19.3</ele><time>2012-05-02T13:39:19.0000000+00:00</time></trkpt><trkpt lat="42.441326" lon="18.754578"><ele>19.3</ele><time>2012-05-02T13:39:24.0000000+00:00</time></trkpt><trkpt lat="42.441517" lon="18.754627"><ele>19.8</ele><time>2012-05-02T13:39:29.0000000+00:00</time></trkpt><trkpt lat="42.441853" lon="18.754694"><ele>19.6</ele><time>2012-05-02T13:39:34.0000000+00:00</time></trkpt><trkpt lat="42.442123" lon="18.754723"><ele>20.1</ele><time>2012-05-02T13:39:39.0000000+00:00</time></trkpt><trkpt lat="42.442345" lon="18.754681"><ele>22.7</ele><time>2012-05-02T13:39:44.0000000+00:00</time></trkpt><trkpt lat="42.442554" lon="18.754467"><ele>23.8</ele><time>2012-05-02T13:39:49.0000000+00:00</time></trkpt><trkpt lat="42.442749" lon="18.754192"><ele>23.4</ele><time>2012-05-02T13:39:54.0000000+00:00</time></trkpt><trkpt lat="42.44302" lon="18.754084"><ele>24.1</ele><time>2012-05-02T13:39:59.0000000+00:00</time></trkpt><trkpt lat="42.443226" lon="18.753782"><ele>24.9</ele><time>2012-05-02T13:40:04.0000000+00:00</time></trkpt><trkpt lat="42.443367" lon="18.753447"><ele>23.7</ele><time>2012-05-02T13:40:09.0000000+00:00</time></trkpt><trkpt lat="42.443497" lon="18.753155"><ele>23.8</ele><time>2012-05-02T13:40:14.0000000+00:00</time></trkpt><trkpt lat="42.443626" lon="18.752878"><ele>24.1</ele><time>2012-05-02T13:40:19.0000000+00:00</time></trkpt><trkpt lat="42.443825" lon="18.752632"><ele>24.9</ele><time>2012-05-02T13:40:24.0000000+00:00</time></trkpt><trkpt lat="42.444019" lon="18.752439"><ele>25.0</ele><time>2012-05-02T13:40:29.0000000+00:00</time></trkpt><trkpt lat="42.444263" lon="18.752293"><ele>25.5</ele><time>2012-05-02T13:40:34.0000000+00:00</time></trkpt><trkpt lat="42.444614" lon="18.75231"><ele>26.1</ele><time>2012-05-02T13:40:39.0000000+00:00</time></trkpt><trkpt lat="42.444904" lon="18.752386"><ele>26.3</ele><time>2012-05-02T13:40:44.0000000+00:00</time></trkpt><trkpt lat="42.445206" lon="18.75255"><ele>26.5</ele><time>2012-05-02T13:40:49.0000000+00:00</time></trkpt><trkpt lat="42.445496" lon="18.752789"><ele>26.2</ele><time>2012-05-02T13:40:54.0000000+00:00</time></trkpt><trkpt lat="42.445732" lon="18.753025"><ele>26.7</ele><time>2012-05-02T13:40:59.0000000+00:00</time></trkpt><trkpt lat="42.445938" lon="18.753275"><ele>27.2</ele><time>2012-05-02T13:41:04.0000000+00:00</time></trkpt><trkpt lat="42.446079" lon="18.753551"><ele>27.5</ele><time>2012-05-02T13:41:09.0000000+00:00</time></trkpt><trkpt lat="42.446217" lon="18.753864"><ele>26.0</ele><time>2012-05-02T13:41:14.0000000+00:00</time></trkpt><trkpt lat="42.44643" lon="18.754122"><ele>24.7</ele><time>2012-05-02T13:41:19.0000000+00:00</time></trkpt><trkpt lat="42.44664" lon="18.754372"><ele>23.4</ele><time>2012-05-02T13:41:24.0000000+00:00</time></trkpt><trkpt lat="42.446918" lon="18.75452"><ele>22.0</ele><time>2012-05-02T13:41:29.0000000+00:00</time></trkpt><trkpt lat="42.447231" lon="18.754549"><ele>20.4</ele><time>2012-05-02T13:41:34.0000000+00:00</time></trkpt><trkpt lat="42.447521" lon="18.75453"><ele>19.4</ele><time>2012-05-02T13:41:39.0000000+00:00</time></trkpt><trkpt lat="42.447826" lon="18.754436"><ele>15.6</ele><time>2012-05-02T13:41:44.0000000+00:00</time></trkpt><trkpt lat="42.448116" lon="18.754366"><ele>13.0</ele><time>2012-05-02T13:41:49.0000000+00:00</time></trkpt><trkpt lat="42.44838" lon="18.75428"><ele>11.8</ele><time>2012-05-02T13:41:54.0000000+00:00</time></trkpt><trkpt lat="42.448658" lon="18.754202"><ele>11.1</ele><time>2012-05-02T13:41:59.0000000+00:00</time></trkpt><trkpt lat="42.448875" lon="18.754091"><ele>12.0</ele><time>2012-05-02T13:42:04.0000000+00:00</time></trkpt><trkpt lat="42.449093" lon="18.75383"><ele>11.7</ele><time>2012-05-02T13:42:09.0000000+00:00</time></trkpt><trkpt lat="42.449245" lon="18.753466"><ele>11.4</ele><time>2012-05-02T13:42:14.0000000+00:00</time></trkpt><trkpt lat="42.449398" lon="18.753122"><ele>9.9</ele><time>2012-05-02T13:42:19.0000000+00:00</time></trkpt><trkpt lat="42.449509" lon="18.75276"><ele>10.0</ele><time>2012-05-02T13:42:24.0000000+00:00</time></trkpt><trkpt lat="42.449574" lon="18.752359"><ele>10.5</ele><time>2012-05-02T13:42:29.0000000+00:00</time></trkpt><trkpt lat="42.449665" lon="18.751974"><ele>10.7</ele><time>2012-05-02T13:42:34.0000000+00:00</time></trkpt><trkpt lat="42.449791" lon="18.751602"><ele>11.4</ele><time>2012-05-02T13:42:39.0000000+00:00</time></trkpt><trkpt lat="42.449986" lon="18.751314"><ele>12.5</ele><time>2012-05-02T13:42:44.0000000+00:00</time></trkpt><trkpt lat="42.45015" lon="18.751024"><ele>13.6</ele><time>2012-05-02T13:42:49.0000000+00:00</time></trkpt><trkpt lat="42.45034" lon="18.750715"><ele>14.6</ele><time>2012-05-02T13:42:54.0000000+00:00</time></trkpt><trkpt lat="42.450577" lon="18.750477"><ele>15.5</ele><time>2012-05-02T13:42:59.0000000+00:00</time></trkpt><trkpt lat="42.450813" lon="18.750244"><ele>16.4</ele><time>2012-05-02T13:43:04.0000000+00:00</time></trkpt><trkpt lat="42.451054" lon="18.750063"><ele>17.0</ele><time>2012-05-02T13:43:09.0000000+00:00</time></trkpt><trkpt lat="42.451195" lon="18.749996"><ele>17.8</ele><time>2012-05-02T13:43:14.0000000+00:00</time></trkpt><trkpt lat="42.451542" lon="18.749893"><ele>19.5</ele><time>2012-05-02T13:43:19.0000000+00:00</time></trkpt><trkpt lat="42.451847" lon="18.749903"><ele>21.4</ele><time>2012-05-02T13:43:24.0000000+00:00</time></trkpt><trkpt lat="42.452106" lon="18.749861"><ele>25.1</ele><time>2012-05-02T13:43:29.0000000+00:00</time></trkpt><trkpt lat="42.452389" lon="18.749676"><ele>28.9</ele><time>2012-05-02T13:43:34.0000000+00:00</time></trkpt><trkpt lat="42.452629" lon="18.749365"><ele>30.8</ele><time>2012-05-02T13:43:39.0000000+00:00</time></trkpt><trkpt lat="42.452839" lon="18.749044"><ele>32.1</ele><time>2012-05-02T13:43:44.0000000+00:00</time></trkpt><trkpt lat="42.453049" lon="18.74885"><ele>34.9</ele><time>2012-05-02T13:43:49.0000000+00:00</time></trkpt><trkpt lat="42.453331" lon="18.748749"><ele>38.3</ele><time>2012-05-02T13:43:54.0000000+00:00</time></trkpt><trkpt lat="42.453621" lon="18.748684"><ele>41.0</ele><time>2012-05-02T13:43:59.0000000+00:00</time></trkpt><trkpt lat="42.453911" lon="18.748549"><ele>44.2</ele><time>2012-05-02T13:44:04.0000000+00:00</time></trkpt><trkpt lat="42.454159" lon="18.748354"><ele>47.8</ele><time>2012-05-02T13:44:09.0000000+00:00</time></trkpt><trkpt lat="42.454399" lon="18.748085"><ele>51.2</ele><time>2012-05-02T13:44:14.0000000+00:00</time></trkpt><trkpt lat="42.454712" lon="18.748089"><ele>54.5</ele><time>2012-05-02T13:44:19.0000000+00:00</time></trkpt><trkpt lat="42.454945" lon="18.74795"><ele>56.6</ele><time>2012-05-02T13:44:24.0000000+00:00</time></trkpt><trkpt lat="42.45499" lon="18.74795"><ele>55.0</ele><time>2012-05-02T13:44:29.0000000+00:00</time></trkpt><trkpt lat="42.455006" lon="18.747944"><ele>55.8</ele><time>2012-05-02T13:44:34.0000000+00:00</time></trkpt><trkpt lat="42.455013" lon="18.747936"><ele>56.2</ele><time>2012-05-02T13:44:39.0000000+00:00</time></trkpt><trkpt lat="42.45504" lon="18.747927"><ele>56.3</ele><time>2012-05-02T13:44:44.0000000+00:00</time></trkpt><trkpt lat="42.455067" lon="18.747913"><ele>56.5</ele><time>2012-05-02T13:44:49.0000000+00:00</time></trkpt><trkpt lat="42.455093" lon="18.747904"><ele>56.6</ele><time>2012-05-02T13:44:54.0000000+00:00</time></trkpt><trkpt lat="42.455116" lon="18.747911"><ele>56.6</ele><time>2012-05-02T13:44:59.0000000+00:00</time></trkpt><trkpt lat="42.455063" lon="18.747875"><ele>56.7</ele><time>2012-05-02T13:45:04.0000000+00:00</time></trkpt><trkpt lat="42.455025" lon="18.747869"><ele>56.4</ele><time>2012-05-02T13:45:09.0000000+00:00</time></trkpt><trkpt lat="42.455021" lon="18.7479"><ele>56.2</ele><time>2012-05-02T13:45:14.0000000+00:00</time></trkpt><trkpt lat="42.455029" lon="18.747917"><ele>56.1</ele><time>2012-05-02T13:45:19.0000000+00:00</time></trkpt><trkpt lat="42.455025" lon="18.747919"><ele>56.0</ele><time>2012-05-02T13:45:24.0000000+00:00</time></trkpt><trkpt lat="42.455029" lon="18.747925"><ele>56.0</ele><time>2012-05-02T13:45:29.0000000+00:00</time></trkpt><trkpt lat="42.455082" lon="18.747948"><ele>55.9</ele><time>2012-05-02T13:45:34.0000000+00:00</time></trkpt><trkpt lat="42.45507" lon="18.747959"><ele>55.7</ele><time>2012-05-02T13:45:39.0000000+00:00</time></trkpt><trkpt lat="42.455074" lon="18.747969"><ele>55.7</ele><time>2012-05-02T13:45:44.0000000+00:00</time></trkpt><trkpt lat="42.455078" lon="18.747978"><ele>55.7</ele><time>2012-05-02T13:45:49.0000000+00:00</time></trkpt><trkpt lat="42.455082" lon="18.74798"><ele>55.7</ele><time>2012-05-02T13:45:54.0000000+00:00</time></trkpt><trkpt lat="42.455074" lon="18.747972"><ele>55.7</ele><time>2012-05-02T13:45:59.0000000+00:00</time></trkpt><trkpt lat="42.455074" lon="18.747965"><ele>55.6</ele><time>2012-05-02T13:46:04.0000000+00:00</time></trkpt><trkpt lat="42.455078" lon="18.747963"><ele>55.6</ele><time>2012-05-02T13:46:09.0000000+00:00</time></trkpt><trkpt lat="42.455082" lon="18.747959"><ele>55.6</ele><time>2012-05-02T13:46:14.0000000+00:00</time></trkpt><trkpt lat="42.455082" lon="18.747963"><ele>55.6</ele><time>2012-05-02T13:46:19.0000000+00:00</time></trkpt><trkpt lat="42.455093" lon="18.747961"><ele>55.5</ele><time>2012-05-02T13:46:24.0000000+00:00</time></trkpt><trkpt lat="42.455093" lon="18.747959"><ele>55.5</ele><time>2012-05-02T13:46:29.0000000+00:00</time></trkpt><trkpt lat="42.455093" lon="18.747961"><ele>55.5</ele><time>2012-05-02T13:46:34.0000000+00:00</time></trkpt><trkpt lat="42.455093" lon="18.747957"><ele>55.5</ele><time>2012-05-02T13:46:39.0000000+00:00</time></trkpt><trkpt lat="42.455093" lon="18.747957"><ele>55.4</ele><time>2012-05-02T13:46:44.0000000+00:00</time></trkpt><trkpt lat="42.455093" lon="18.747961"><ele>55.4</ele><time>2012-05-02T13:46:49.0000000+00:00</time></trkpt><trkpt lat="42.455097" lon="18.747963"><ele>55.4</ele><time>2012-05-02T13:46:54.0000000+00:00</time></trkpt><trkpt lat="42.455101" lon="18.747938"><ele>54.9</ele><time>2012-05-02T13:46:59.0000000+00:00</time></trkpt><trkpt lat="42.455109" lon="18.747944"><ele>54.8</ele><time>2012-05-02T13:47:04.0000000+00:00</time></trkpt><trkpt lat="42.455105" lon="18.747942"><ele>54.8</ele><time>2012-05-02T13:47:09.0000000+00:00</time></trkpt><trkpt lat="42.455093" lon="18.747936"><ele>54.7</ele><time>2012-05-02T13:47:14.0000000+00:00</time></trkpt><trkpt lat="42.455097" lon="18.747936"><ele>54.7</ele><time>2012-05-02T13:47:19.0000000+00:00</time></trkpt><trkpt lat="42.455101" lon="18.747936"><ele>54.6</ele><time>2012-05-02T13:47:24.0000000+00:00</time></trkpt><trkpt lat="42.455097" lon="18.747942"><ele>54.6</ele><time>2012-05-02T13:47:29.0000000+00:00</time></trkpt><trkpt lat="42.455097" lon="18.747946"><ele>54.6</ele><time>2012-05-02T13:47:34.0000000+00:00</time></trkpt><trkpt lat="42.455101" lon="18.747948"><ele>54.5</ele><time>2012-05-02T13:47:39.0000000+00:00</time></trkpt><trkpt lat="42.455105" lon="18.74795"><ele>54.5</ele><time>2012-05-02T13:47:44.0000000+00:00</time></trkpt><trkpt lat="42.455105" lon="18.747953"><ele>54.4</ele><time>2012-05-02T13:47:49.0000000+00:00</time></trkpt><trkpt lat="42.455132" lon="18.747944"><ele>53.9</ele><time>2012-05-02T13:47:54.0000000+00:00</time></trkpt><trkpt lat="42.455132" lon="18.747942"><ele>53.2</ele><time>2012-05-02T13:47:59.0000000+00:00</time></trkpt><trkpt lat="42.455135" lon="18.74794"><ele>53.1</ele><time>2012-05-02T13:48:04.0000000+00:00</time></trkpt><trkpt lat="42.455135" lon="18.74794"><ele>53.0</ele><time>2012-05-02T13:48:09.0000000+00:00</time></trkpt><trkpt lat="42.455139" lon="18.747938"><ele>52.9</ele><time>2012-05-02T13:48:14.0000000+00:00</time></trkpt><trkpt lat="42.455143" lon="18.747944"><ele>52.8</ele><time>2012-05-02T13:48:19.0000000+00:00</time></trkpt><trkpt lat="42.455147" lon="18.747946"><ele>52.7</ele><time>2012-05-02T13:48:24.0000000+00:00</time></trkpt><trkpt lat="42.455154" lon="18.747946"><ele>52.7</ele><time>2012-05-02T13:48:29.0000000+00:00</time></trkpt><trkpt lat="42.455158" lon="18.747946"><ele>52.6</ele><time>2012-05-02T13:48:34.0000000+00:00</time></trkpt><trkpt lat="42.455158" lon="18.747948"><ele>52.4</ele><time>2012-05-02T13:48:39.0000000+00:00</time></trkpt><trkpt lat="42.455154" lon="18.74795"><ele>52.2</ele><time>2012-05-02T13:48:44.0000000+00:00</time></trkpt><trkpt lat="42.455154" lon="18.747955"><ele>52.0</ele><time>2012-05-02T13:48:49.0000000+00:00</time></trkpt><trkpt lat="42.455154" lon="18.747957"><ele>51.9</ele><time>2012-05-02T13:48:54.0000000+00:00</time></trkpt><trkpt lat="42.455162" lon="18.747961"><ele>51.8</ele><time>2012-05-02T13:48:59.0000000+00:00</time></trkpt><trkpt lat="42.45517" lon="18.747959"><ele>51.7</ele><time>2012-05-02T13:49:04.0000000+00:00</time></trkpt><trkpt lat="42.455177" lon="18.747963"><ele>51.5</ele><time>2012-05-02T13:49:09.0000000+00:00</time></trkpt><trkpt lat="42.455181" lon="18.747965"><ele>51.4</ele><time>2012-05-02T13:49:14.0000000+00:00</time></trkpt><trkpt lat="42.455185" lon="18.747969"><ele>51.3</ele><time>2012-05-02T13:49:19.0000000+00:00</time></trkpt><trkpt lat="42.455185" lon="18.747972"><ele>51.2</ele><time>2012-05-02T13:49:24.0000000+00:00</time></trkpt><trkpt lat="42.455189" lon="18.747972"><ele>51.0</ele><time>2012-05-02T13:49:29.0000000+00:00</time></trkpt><trkpt lat="42.455193" lon="18.747974"><ele>50.7</ele><time>2012-05-02T13:49:34.0000000+00:00</time></trkpt><trkpt lat="42.455196" lon="18.747974"><ele>50.5</ele><time>2012-05-02T13:49:39.0000000+00:00</time></trkpt><trkpt lat="42.455204" lon="18.747974"><ele>50.2</ele><time>2012-05-02T13:49:44.0000000+00:00</time></trkpt><trkpt lat="42.455208" lon="18.747976"><ele>49.8</ele><time>2012-05-02T13:49:49.0000000+00:00</time></trkpt><trkpt lat="42.455204" lon="18.747978"><ele>49.6</ele><time>2012-05-02T13:49:54.0000000+00:00</time></trkpt><trkpt lat="42.455208" lon="18.74798"><ele>49.5</ele><time>2012-05-02T13:49:59.0000000+00:00</time></trkpt><trkpt lat="42.455212" lon="18.74798"><ele>49.3</ele><time>2012-05-02T13:50:04.0000000+00:00</time></trkpt><trkpt lat="42.455212" lon="18.747972"><ele>49.2</ele><time>2012-05-02T13:50:09.0000000+00:00</time></trkpt><trkpt lat="42.455212" lon="18.747974"><ele>49.1</ele><time>2012-05-02T13:50:14.0000000+00:00</time></trkpt><trkpt lat="42.455212" lon="18.747972"><ele>49.0</ele><time>2012-05-02T13:50:19.0000000+00:00</time></trkpt><trkpt lat="42.455212" lon="18.747972"><ele>49.0</ele><time>2012-05-02T13:50:24.0000000+00:00</time></trkpt><trkpt lat="42.455215" lon="18.747978"><ele>48.9</ele><time>2012-05-02T13:50:29.0000000+00:00</time></trkpt><trkpt lat="42.455219" lon="18.747982"><ele>48.9</ele><time>2012-05-02T13:50:34.0000000+00:00</time></trkpt><trkpt lat="42.455215" lon="18.747984"><ele>48.8</ele><time>2012-05-02T13:50:39.0000000+00:00</time></trkpt><trkpt lat="42.455215" lon="18.747988"><ele>48.8</ele><time>2012-05-02T13:50:44.0000000+00:00</time></trkpt><trkpt lat="42.455215" lon="18.747988"><ele>48.7</ele><time>2012-05-02T13:50:49.0000000+00:00</time></trkpt><trkpt lat="42.455212" lon="18.74799"><ele>48.7</ele><time>2012-05-02T13:50:54.0000000+00:00</time></trkpt><trkpt lat="42.455215" lon="18.747992"><ele>48.6</ele><time>2012-05-02T13:50:59.0000000+00:00</time></trkpt><trkpt lat="42.455219" lon="18.74799"><ele>48.6</ele><time>2012-05-02T13:51:04.0000000+00:00</time></trkpt><trkpt lat="42.455223" lon="18.747993"><ele>48.5</ele><time>2012-05-02T13:51:09.0000000+00:00</time></trkpt><trkpt lat="42.455231" lon="18.747997"><ele>48.5</ele><time>2012-05-02T13:51:14.0000000+00:00</time></trkpt><trkpt lat="42.455235" lon="18.747999"><ele>48.4</ele><time>2012-05-02T13:51:19.0000000+00:00</time></trkpt><trkpt lat="42.455238" lon="18.747999"><ele>48.4</ele><time>2012-05-02T13:51:24.0000000+00:00</time></trkpt><trkpt lat="42.455242" lon="18.747999"><ele>48.4</ele><time>2012-05-02T13:51:29.0000000+00:00</time></trkpt><trkpt lat="42.455246" lon="18.747993"><ele>48.3</ele><time>2012-05-02T13:51:34.0000000+00:00</time></trkpt><trkpt lat="42.455246" lon="18.747982"><ele>48.3</ele><time>2012-05-02T13:51:39.0000000+00:00</time></trkpt><trkpt lat="42.455254" lon="18.747974"><ele>48.3</ele><time>2012-05-02T13:51:44.0000000+00:00</time></trkpt><trkpt lat="42.455257" lon="18.747972"><ele>48.3</ele><time>2012-05-02T13:51:49.0000000+00:00</time></trkpt><trkpt lat="42.455254" lon="18.747969"><ele>48.2</ele><time>2012-05-02T13:51:54.0000000+00:00</time></trkpt><trkpt lat="42.45525" lon="18.747974"><ele>48.2</ele><time>2012-05-02T13:51:59.0000000+00:00</time></trkpt><trkpt lat="42.455246" lon="18.747978"><ele>48.2</ele><time>2012-05-02T13:52:04.0000000+00:00</time></trkpt><trkpt lat="42.455242" lon="18.747978"><ele>48.2</ele><time>2012-05-02T13:52:09.0000000+00:00</time></trkpt><trkpt lat="42.455238" lon="18.747986"><ele>48.1</ele><time>2012-05-02T13:52:14.0000000+00:00</time></trkpt><trkpt lat="42.455235" lon="18.747995"><ele>48.1</ele><time>2012-05-02T13:52:19.0000000+00:00</time></trkpt><trkpt lat="42.455215" lon="18.74799"><ele>48.0</ele><time>2012-05-02T13:52:24.0000000+00:00</time></trkpt><trkpt lat="42.455215" lon="18.747993"><ele>48.0</ele><time>2012-05-02T13:52:29.0000000+00:00</time></trkpt><trkpt lat="42.455215" lon="18.747988"><ele>48.0</ele><time>2012-05-02T13:52:34.0000000+00:00</time></trkpt><trkpt lat="42.455215" lon="18.747995"><ele>47.9</ele><time>2012-05-02T13:52:39.0000000+00:00</time></trkpt><trkpt lat="42.455196" lon="18.748018"><ele>47.9</ele><time>2012-05-02T13:52:44.0000000+00:00</time></trkpt><trkpt lat="42.455189" lon="18.748039"><ele>47.6</ele><time>2012-05-02T13:52:49.0000000+00:00</time></trkpt><trkpt lat="42.455173" lon="18.748077"><ele>47.6</ele><time>2012-05-02T13:52:54.0000000+00:00</time></trkpt><trkpt lat="42.455162" lon="18.74811"><ele>47.6</ele><time>2012-05-02T13:52:59.0000000+00:00</time></trkpt><trkpt lat="42.455162" lon="18.748123"><ele>47.6</ele><time>2012-05-02T13:53:04.0000000+00:00</time></trkpt><trkpt lat="42.455158" lon="18.748142"><ele>47.7</ele><time>2012-05-02T13:53:09.0000000+00:00</time></trkpt><trkpt lat="42.455139" lon="18.748159"><ele>47.8</ele><time>2012-05-02T13:53:14.0000000+00:00</time></trkpt><trkpt lat="42.455135" lon="18.748163"><ele>47.8</ele><time>2012-05-02T13:53:19.0000000+00:00</time></trkpt><trkpt lat="42.455135" lon="18.748171"><ele>47.5</ele><time>2012-05-02T13:53:24.0000000+00:00</time></trkpt><trkpt lat="42.455132" lon="18.74818"><ele>47.5</ele><time>2012-05-02T13:53:29.0000000+00:00</time></trkpt><trkpt lat="42.455132" lon="18.748184"><ele>47.4</ele><time>2012-05-02T13:53:34.0000000+00:00</time></trkpt><trkpt lat="42.455132" lon="18.748186"><ele>47.4</ele><time>2012-05-02T13:53:39.0000000+00:00</time></trkpt><trkpt lat="42.455132" lon="18.748188"><ele>47.4</ele><time>2012-05-02T13:53:44.0000000+00:00</time></trkpt><trkpt lat="42.455132" lon="18.748188"><ele>47.4</ele><time>2012-05-02T13:53:49.0000000+00:00</time></trkpt><trkpt lat="42.455132" lon="18.748188"><ele>47.4</ele><time>2012-05-02T13:53:54.0000000+00:00</time></trkpt><trkpt lat="42.455132" lon="18.748188"><ele>47.4</ele><time>2012-05-02T13:53:59.0000000+00:00</time></trkpt><trkpt lat="42.455132" lon="18.748188"><ele>47.4</ele><time>2012-05-02T13:54:04.0000000+00:00</time></trkpt><trkpt lat="42.455132" lon="18.748188"><ele>47.4</ele><time>2012-05-02T13:54:09.0000000+00:00</time></trkpt><trkpt lat="42.455132" lon="18.748188"><ele>47.4</ele><time>2012-05-02T13:54:14.0000000+00:00</time></trkpt><trkpt lat="42.455132" lon="18.748188"><ele>47.4</ele><time>2012-05-02T13:54:19.0000000+00:00</time></trkpt><trkpt lat="42.455132" lon="18.748186"><ele>47.3</ele><time>2012-05-02T13:54:24.0000000+00:00</time></trkpt><trkpt lat="42.455132" lon="18.748186"><ele>47.3</ele><time>2012-05-02T13:54:29.0000000+00:00</time></trkpt><trkpt lat="42.455132" lon="18.748184"><ele>47.3</ele><time>2012-05-02T13:54:34.0000000+00:00</time></trkpt><trkpt lat="42.455132" lon="18.748184"><ele>47.3</ele><time>2012-05-02T13:54:39.0000000+00:00</time></trkpt><trkpt lat="42.455135" lon="18.748182"><ele>47.2</ele><time>2012-05-02T13:54:44.0000000+00:00</time></trkpt><trkpt lat="42.455135" lon="18.748182"><ele>47.2</ele><time>2012-05-02T13:54:49.0000000+00:00</time></trkpt><trkpt lat="42.455135" lon="18.74818"><ele>47.2</ele><time>2012-05-02T13:54:54.0000000+00:00</time></trkpt><trkpt lat="42.455135" lon="18.74818"><ele>47.2</ele><time>2012-05-02T13:54:59.0000000+00:00</time></trkpt><trkpt lat="42.455135" lon="18.74818"><ele>47.2</ele><time>2012-05-02T13:55:04.0000000+00:00</time></trkpt><trkpt lat="42.455139" lon="18.748178"><ele>47.2</ele><time>2012-05-02T13:55:09.0000000+00:00</time></trkpt><trkpt lat="42.455139" lon="18.748178"><ele>47.2</ele><time>2012-05-02T13:55:14.0000000+00:00</time></trkpt><trkpt lat="42.455139" lon="18.748178"><ele>47.2</ele><time>2012-05-02T13:55:19.0000000+00:00</time></trkpt><trkpt lat="42.455139" lon="18.748177"><ele>47.2</ele><time>2012-05-02T13:55:24.0000000+00:00</time></trkpt><trkpt lat="42.455139" lon="18.748177"><ele>47.1</ele><time>2012-05-02T13:55:29.0000000+00:00</time></trkpt><trkpt lat="42.455139" lon="18.748177"><ele>47.1</ele><time>2012-05-02T13:55:34.0000000+00:00</time></trkpt><trkpt lat="42.455139" lon="18.748175"><ele>47.1</ele><time>2012-05-02T13:55:39.0000000+00:00</time></trkpt><trkpt lat="42.455139" lon="18.748175"><ele>47.1</ele><time>2012-05-02T13:55:44.0000000+00:00</time></trkpt><trkpt lat="42.455139" lon="18.748175"><ele>47.1</ele><time>2012-05-02T13:55:49.0000000+00:00</time></trkpt><trkpt lat="42.455143" lon="18.748175"><ele>47.1</ele><time>2012-05-02T13:55:54.0000000+00:00</time></trkpt><trkpt lat="42.455143" lon="18.748175"><ele>47.1</ele><time>2012-05-02T13:55:59.0000000+00:00</time></trkpt><trkpt lat="42.455143" lon="18.748175"><ele>47.1</ele><time>2012-05-02T13:56:04.0000000+00:00</time></trkpt><trkpt lat="42.455143" lon="18.748173"><ele>47.1</ele><time>2012-05-02T13:56:09.0000000+00:00</time></trkpt><trkpt lat="42.455143" lon="18.748173"><ele>47.1</ele><time>2012-05-02T13:56:14.0000000+00:00</time></trkpt><trkpt lat="42.455143" lon="18.748173"><ele>47.0</ele><time>2012-05-02T13:56:19.0000000+00:00</time></trkpt><trkpt lat="42.455143" lon="18.748171"><ele>47.0</ele><time>2012-05-02T13:56:24.0000000+00:00</time></trkpt><trkpt lat="42.455143" lon="18.748171"><ele>47.0</ele><time>2012-05-02T13:56:29.0000000+00:00</time></trkpt><trkpt lat="42.455143" lon="18.748169"><ele>47.0</ele><time>2012-05-02T13:56:34.0000000+00:00</time></trkpt><trkpt lat="42.455147" lon="18.748169"><ele>47.0</ele><time>2012-05-02T13:56:39.0000000+00:00</time></trkpt><trkpt lat="42.455147" lon="18.748167"><ele>47.0</ele><time>2012-05-02T13:56:44.0000000+00:00</time></trkpt><trkpt lat="42.455147" lon="18.748167"><ele>47.0</ele><time>2012-05-02T13:56:49.0000000+00:00</time></trkpt><trkpt lat="42.455147" lon="18.748167"><ele>47.0</ele><time>2012-05-02T13:56:54.0000000+00:00</time></trkpt><trkpt lat="42.455147" lon="18.748165"><ele>47.0</ele><time>2012-05-02T13:56:59.0000000+00:00</time></trkpt><trkpt lat="42.455147" lon="18.748163"><ele>47.0</ele><time>2012-05-02T13:57:04.0000000+00:00</time></trkpt><trkpt lat="42.455147" lon="18.748161"><ele>47.0</ele><time>2012-05-02T13:57:09.0000000+00:00</time></trkpt><trkpt lat="42.455147" lon="18.748161"><ele>46.9</ele><time>2012-05-02T13:57:14.0000000+00:00</time></trkpt><trkpt lat="42.455147" lon="18.748159"><ele>46.9</ele><time>2012-05-02T13:57:19.0000000+00:00</time></trkpt><trkpt lat="42.455147" lon="18.748158"><ele>46.9</ele><time>2012-05-02T13:57:24.0000000+00:00</time></trkpt><trkpt lat="42.455147" lon="18.748156"><ele>46.9</ele><time>2012-05-02T13:57:29.0000000+00:00</time></trkpt><trkpt lat="42.455147" lon="18.748156"><ele>46.9</ele><time>2012-05-02T13:57:34.0000000+00:00</time></trkpt><trkpt lat="42.455147" lon="18.748156"><ele>46.9</ele><time>2012-05-02T13:57:39.0000000+00:00</time></trkpt><trkpt lat="42.455147" lon="18.748154"><ele>46.9</ele><time>2012-05-02T13:57:44.0000000+00:00</time></trkpt><trkpt lat="42.455147" lon="18.748154"><ele>46.9</ele><time>2012-05-02T13:57:49.0000000+00:00</time></trkpt><trkpt lat="42.455147" lon="18.748152"><ele>46.9</ele><time>2012-05-02T13:57:54.0000000+00:00</time></trkpt><trkpt lat="42.455147" lon="18.748152"><ele>46.9</ele><time>2012-05-02T13:57:59.0000000+00:00</time></trkpt><trkpt lat="42.455151" lon="18.748152"><ele>46.8</ele><time>2012-05-02T13:58:04.0000000+00:00</time></trkpt><trkpt lat="42.455151" lon="18.74815"><ele>46.8</ele><time>2012-05-02T13:58:09.0000000+00:00</time></trkpt><trkpt lat="42.455151" lon="18.748148"><ele>46.8</ele><time>2012-05-02T13:58:14.0000000+00:00</time></trkpt><trkpt lat="42.455151" lon="18.748148"><ele>46.8</ele><time>2012-05-02T13:58:19.0000000+00:00</time></trkpt><trkpt lat="42.455151" lon="18.748148"><ele>46.8</ele><time>2012-05-02T13:58:24.0000000+00:00</time></trkpt><trkpt lat="42.455154" lon="18.748146"><ele>46.8</ele><time>2012-05-02T13:58:29.0000000+00:00</time></trkpt><trkpt lat="42.455154" lon="18.748146"><ele>46.8</ele><time>2012-05-02T13:58:34.0000000+00:00</time></trkpt><trkpt lat="42.455158" lon="18.748144"><ele>46.8</ele><time>2012-05-02T13:58:39.0000000+00:00</time></trkpt><trkpt lat="42.455158" lon="18.748144"><ele>46.8</ele><time>2012-05-02T13:58:44.0000000+00:00</time></trkpt><trkpt lat="42.455158" lon="18.748142"><ele>46.7</ele><time>2012-05-02T13:58:49.0000000+00:00</time></trkpt><trkpt lat="42.455158" lon="18.748142"><ele>46.7</ele><time>2012-05-02T13:58:54.0000000+00:00</time></trkpt><trkpt lat="42.455158" lon="18.74814"><ele>46.7</ele><time>2012-05-02T13:58:59.0000000+00:00</time></trkpt><trkpt lat="42.455158" lon="18.74814"><ele>46.7</ele><time>2012-05-02T13:59:04.0000000+00:00</time></trkpt><trkpt lat="42.455158" lon="18.74814"><ele>46.7</ele><time>2012-05-02T13:59:09.0000000+00:00</time></trkpt><trkpt lat="42.455162" lon="18.748138"><ele>46.7</ele><time>2012-05-02T13:59:14.0000000+00:00</time></trkpt><trkpt lat="42.455162" lon="18.748138"><ele>46.7</ele><time>2012-05-02T13:59:19.0000000+00:00</time></trkpt><trkpt lat="42.455162" lon="18.748137"><ele>46.7</ele><time>2012-05-02T13:59:24.0000000+00:00</time></trkpt><trkpt lat="42.455162" lon="18.748137"><ele>46.7</ele><time>2012-05-02T13:59:29.0000000+00:00</time></trkpt><trkpt lat="42.455166" lon="18.748137"><ele>46.7</ele><time>2012-05-02T13:59:34.0000000+00:00</time></trkpt><trkpt lat="42.455166" lon="18.748135"><ele>46.6</ele><time>2012-05-02T13:59:39.0000000+00:00</time></trkpt><trkpt lat="42.455166" lon="18.748133"><ele>46.6</ele><time>2012-05-02T13:59:44.0000000+00:00</time></trkpt><trkpt lat="42.455166" lon="18.748133"><ele>46.6</ele><time>2012-05-02T13:59:49.0000000+00:00</time></trkpt><trkpt lat="42.45517" lon="18.748131"><ele>46.5</ele><time>2012-05-02T13:59:54.0000000+00:00</time></trkpt><trkpt lat="42.45517" lon="18.748131"><ele>46.5</ele><time>2012-05-02T13:59:59.0000000+00:00</time></trkpt><trkpt lat="42.45517" lon="18.748131"><ele>46.4</ele><time>2012-05-02T14:00:04.0000000+00:00</time></trkpt><trkpt lat="42.455173" lon="18.748131"><ele>46.4</ele><time>2012-05-02T14:00:09.0000000+00:00</time></trkpt><trkpt lat="42.455173" lon="18.748129"><ele>46.4</ele><time>2012-05-02T14:00:14.0000000+00:00</time></trkpt><trkpt lat="42.455173" lon="18.748129"><ele>46.4</ele><time>2012-05-02T14:00:19.0000000+00:00</time></trkpt><trkpt lat="42.455177" lon="18.748127"><ele>46.4</ele><time>2012-05-02T14:00:24.0000000+00:00</time></trkpt><trkpt lat="42.455177" lon="18.748127"><ele>46.4</ele><time>2012-05-02T14:00:29.0000000+00:00</time></trkpt><trkpt lat="42.455177" lon="18.748125"><ele>46.4</ele><time>2012-05-02T14:00:34.0000000+00:00</time></trkpt><trkpt lat="42.455177" lon="18.748125"><ele>46.4</ele><time>2012-05-02T14:00:39.0000000+00:00</time></trkpt><trkpt lat="42.455181" lon="18.748125"><ele>46.4</ele><time>2012-05-02T14:00:44.0000000+00:00</time></trkpt><trkpt lat="42.455181" lon="18.748123"><ele>46.4</ele><time>2012-05-02T14:00:49.0000000+00:00</time></trkpt><trkpt lat="42.455181" lon="18.748123"><ele>46.4</ele><time>2012-05-02T14:00:54.0000000+00:00</time></trkpt><trkpt lat="42.455181" lon="18.748121"><ele>46.4</ele><time>2012-05-02T14:00:59.0000000+00:00</time></trkpt><trkpt lat="42.455181" lon="18.748119"><ele>46.3</ele><time>2012-05-02T14:01:04.0000000+00:00</time></trkpt><trkpt lat="42.455181" lon="18.748119"><ele>46.3</ele><time>2012-05-02T14:01:09.0000000+00:00</time></trkpt><trkpt lat="42.455181" lon="18.748117"><ele>46.3</ele><time>2012-05-02T14:01:14.0000000+00:00</time></trkpt><trkpt lat="42.455181" lon="18.748117"><ele>46.2</ele><time>2012-05-02T14:01:19.0000000+00:00</time></trkpt><trkpt lat="42.455181" lon="18.748116"><ele>46.1</ele><time>2012-05-02T14:01:24.0000000+00:00</time></trkpt><trkpt lat="42.455181" lon="18.748114"><ele>46.1</ele><time>2012-05-02T14:01:29.0000000+00:00</time></trkpt><trkpt lat="42.455181" lon="18.748114"><ele>46.0</ele><time>2012-05-02T14:01:34.0000000+00:00</time></trkpt><trkpt lat="42.455181" lon="18.748112"><ele>46.0</ele><time>2012-05-02T14:01:39.0000000+00:00</time></trkpt><trkpt lat="42.455181" lon="18.74811"><ele>45.9</ele><time>2012-05-02T14:01:44.0000000+00:00</time></trkpt><trkpt lat="42.455181" lon="18.748108"><ele>45.9</ele><time>2012-05-02T14:01:49.0000000+00:00</time></trkpt><trkpt lat="42.455185" lon="18.748108"><ele>45.8</ele><time>2012-05-02T14:01:54.0000000+00:00</time></trkpt><trkpt lat="42.455185" lon="18.748106"><ele>45.8</ele><time>2012-05-02T14:01:59.0000000+00:00</time></trkpt><trkpt lat="42.455185" lon="18.748104"><ele>45.8</ele><time>2012-05-02T14:02:04.0000000+00:00</time></trkpt><trkpt lat="42.455185" lon="18.748102"><ele>45.7</ele><time>2012-05-02T14:02:09.0000000+00:00</time></trkpt><trkpt lat="42.455185" lon="18.7481"><ele>45.7</ele><time>2012-05-02T14:02:14.0000000+00:00</time></trkpt><trkpt lat="42.455189" lon="18.7481"><ele>45.7</ele><time>2012-05-02T14:02:19.0000000+00:00</time></trkpt><trkpt lat="42.455189" lon="18.748098"><ele>45.6</ele><time>2012-05-02T14:02:24.0000000+00:00</time></trkpt><trkpt lat="42.455189" lon="18.748096"><ele>45.6</ele><time>2012-05-02T14:02:29.0000000+00:00</time></trkpt><trkpt lat="42.455189" lon="18.748095"><ele>45.5</ele><time>2012-05-02T14:02:34.0000000+00:00</time></trkpt><trkpt lat="42.455189" lon="18.748095"><ele>45.4</ele><time>2012-05-02T14:02:39.0000000+00:00</time></trkpt><trkpt lat="42.455189" lon="18.748093"><ele>45.3</ele><time>2012-05-02T14:02:44.0000000+00:00</time></trkpt><trkpt lat="42.455189" lon="18.748091"><ele>45.2</ele><time>2012-05-02T14:02:49.0000000+00:00</time></trkpt><trkpt lat="42.455185" lon="18.748091"><ele>45.1</ele><time>2012-05-02T14:02:54.0000000+00:00</time></trkpt><trkpt lat="42.455185" lon="18.748089"><ele>45.0</ele><time>2012-05-02T14:02:59.0000000+00:00</time></trkpt><trkpt lat="42.455185" lon="18.748089"><ele>45.0</ele><time>2012-05-02T14:03:04.0000000+00:00</time></trkpt><trkpt lat="42.455185" lon="18.748089"><ele>44.9</ele><time>2012-05-02T14:03:09.0000000+00:00</time></trkpt><trkpt lat="42.455181" lon="18.748087"><ele>44.9</ele><time>2012-05-02T14:03:14.0000000+00:00</time></trkpt><trkpt lat="42.455181" lon="18.748087"><ele>44.8</ele><time>2012-05-02T14:03:19.0000000+00:00</time></trkpt><trkpt lat="42.455181" lon="18.748087"><ele>44.7</ele><time>2012-05-02T14:03:24.0000000+00:00</time></trkpt><trkpt lat="42.455181" lon="18.748087"><ele>44.7</ele><time>2012-05-02T14:03:29.0000000+00:00</time></trkpt><trkpt lat="42.455181" lon="18.748085"><ele>44.6</ele><time>2012-05-02T14:03:34.0000000+00:00</time></trkpt><trkpt lat="42.455181" lon="18.748085"><ele>44.6</ele><time>2012-05-02T14:03:39.0000000+00:00</time></trkpt><trkpt lat="42.455181" lon="18.748085"><ele>44.5</ele><time>2012-05-02T14:03:44.0000000+00:00</time></trkpt><trkpt lat="42.455181" lon="18.748083"><ele>44.5</ele><time>2012-05-02T14:03:49.0000000+00:00</time></trkpt><trkpt lat="42.455181" lon="18.748083"><ele>44.4</ele><time>2012-05-02T14:03:54.0000000+00:00</time></trkpt><trkpt lat="42.455181" lon="18.748083"><ele>44.3</ele><time>2012-05-02T14:03:59.0000000+00:00</time></trkpt><trkpt lat="42.455181" lon="18.748081"><ele>44.3</ele><time>2012-05-02T14:04:04.0000000+00:00</time></trkpt><trkpt lat="42.455181" lon="18.748079"><ele>44.3</ele><time>2012-05-02T14:04:09.0000000+00:00</time></trkpt><trkpt lat="42.455181" lon="18.748079"><ele>44.2</ele><time>2012-05-02T14:04:14.0000000+00:00</time></trkpt><trkpt lat="42.455181" lon="18.748079"><ele>44.1</ele><time>2012-05-02T14:04:19.0000000+00:00</time></trkpt><trkpt lat="42.455181" lon="18.748079"><ele>44.0</ele><time>2012-05-02T14:04:24.0000000+00:00</time></trkpt><trkpt lat="42.455181" lon="18.748077"><ele>43.9</ele><time>2012-05-02T14:04:29.0000000+00:00</time></trkpt><trkpt lat="42.455185" lon="18.748077"><ele>43.9</ele><time>2012-05-02T14:04:34.0000000+00:00</time></trkpt><trkpt lat="42.455185" lon="18.748077"><ele>43.8</ele><time>2012-05-02T14:04:39.0000000+00:00</time></trkpt><trkpt lat="42.455185" lon="18.748075"><ele>43.8</ele><time>2012-05-02T14:04:44.0000000+00:00</time></trkpt><trkpt lat="42.455185" lon="18.748074"><ele>43.7</ele><time>2012-05-02T14:04:49.0000000+00:00</time></trkpt><trkpt lat="42.455189" lon="18.748072"><ele>43.8</ele><time>2012-05-02T14:04:54.0000000+00:00</time></trkpt><trkpt lat="42.455189" lon="18.74807"><ele>43.8</ele><time>2012-05-02T14:04:59.0000000+00:00</time></trkpt><trkpt lat="42.455189" lon="18.74807"><ele>43.8</ele><time>2012-05-02T14:05:04.0000000+00:00</time></trkpt><trkpt lat="42.455189" lon="18.748068"><ele>43.8</ele><time>2012-05-02T14:05:09.0000000+00:00</time></trkpt><trkpt lat="42.455189" lon="18.748068"><ele>43.8</ele><time>2012-05-02T14:05:14.0000000+00:00</time></trkpt><trkpt lat="42.455189" lon="18.748066"><ele>43.8</ele><time>2012-05-02T14:05:19.0000000+00:00</time></trkpt><trkpt lat="42.455189" lon="18.748066"><ele>43.7</ele><time>2012-05-02T14:05:24.0000000+00:00</time></trkpt><trkpt lat="42.455189" lon="18.748066"><ele>43.7</ele><time>2012-05-02T14:05:29.0000000+00:00</time></trkpt><trkpt lat="42.455193" lon="18.748066"><ele>43.7</ele><time>2012-05-02T14:05:34.0000000+00:00</time></trkpt><trkpt lat="42.455193" lon="18.748064"><ele>43.7</ele><time>2012-05-02T14:05:39.0000000+00:00</time></trkpt><trkpt lat="42.455189" lon="18.748064"><ele>43.7</ele><time>2012-05-02T14:05:44.0000000+00:00</time></trkpt><trkpt lat="42.455189" lon="18.748064"><ele>43.7</ele><time>2012-05-02T14:05:49.0000000+00:00</time></trkpt><trkpt lat="42.455189" lon="18.748062"><ele>43.6</ele><time>2012-05-02T14:05:54.0000000+00:00</time></trkpt><trkpt lat="42.455189" lon="18.74806"><ele>43.5</ele><time>2012-05-02T14:05:59.0000000+00:00</time></trkpt><trkpt lat="42.455189" lon="18.74806"><ele>43.3</ele><time>2012-05-02T14:06:04.0000000+00:00</time></trkpt><trkpt lat="42.455189" lon="18.748058"><ele>43.2</ele><time>2012-05-02T14:06:09.0000000+00:00</time></trkpt><trkpt lat="42.455189" lon="18.748055"><ele>43.2</ele><time>2012-05-02T14:06:14.0000000+00:00</time></trkpt><trkpt lat="42.455189" lon="18.748053"><ele>43.2</ele><time>2012-05-02T14:06:19.0000000+00:00</time></trkpt><trkpt lat="42.455185" lon="18.748051"><ele>43.2</ele><time>2012-05-02T14:06:24.0000000+00:00</time></trkpt><trkpt lat="42.455185" lon="18.748051"><ele>43.1</ele><time>2012-05-02T14:06:29.0000000+00:00</time></trkpt><trkpt lat="42.455185" lon="18.748049"><ele>43.1</ele><time>2012-05-02T14:06:34.0000000+00:00</time></trkpt><trkpt lat="42.455185" lon="18.748043"><ele>42.8</ele><time>2012-05-02T14:06:39.0000000+00:00</time></trkpt><trkpt lat="42.455181" lon="18.748037"><ele>42.4</ele><time>2012-05-02T14:06:44.0000000+00:00</time></trkpt><trkpt lat="42.455185" lon="18.74803"><ele>42.3</ele><time>2012-05-02T14:06:49.0000000+00:00</time></trkpt><trkpt lat="42.455303" lon="18.747866"><ele>38.4</ele><time>2012-05-02T14:06:54.0000000+00:00</time></trkpt><trkpt lat="42.45541" lon="18.747784"><ele>37.1</ele><time>2012-05-02T14:06:59.0000000+00:00</time></trkpt><trkpt lat="42.45554" lon="18.747734"><ele>38.0</ele><time>2012-05-02T14:07:04.0000000+00:00</time></trkpt><trkpt lat="42.455536" lon="18.747721"><ele>34.0</ele><time>2012-05-02T14:07:09.0000000+00:00</time></trkpt><trkpt lat="42.45554" lon="18.747698"><ele>31.2</ele><time>2012-05-02T14:07:14.0000000+00:00</time></trkpt><trkpt lat="42.45554" lon="18.747698"><ele>31.1</ele><time>2012-05-02T14:07:19.0000000+00:00</time></trkpt><trkpt lat="42.455544" lon="18.747696"><ele>30.7</ele><time>2012-05-02T14:07:24.0000000+00:00</time></trkpt><trkpt lat="42.455532" lon="18.747652"><ele>27.5</ele><time>2012-05-02T14:07:29.0000000+00:00</time></trkpt><trkpt lat="42.455524" lon="18.74765"><ele>27.3</ele><time>2012-05-02T14:07:34.0000000+00:00</time></trkpt><trkpt lat="42.455536" lon="18.747608"><ele>26.1</ele><time>2012-05-02T14:07:39.0000000+00:00</time></trkpt><trkpt lat="42.455532" lon="18.747602"><ele>26.1</ele><time>2012-05-02T14:07:44.0000000+00:00</time></trkpt><trkpt lat="42.455544" lon="18.747606"><ele>26.1</ele><time>2012-05-02T14:07:49.0000000+00:00</time></trkpt><trkpt lat="42.455555" lon="18.747612"><ele>26.1</ele><time>2012-05-02T14:07:54.0000000+00:00</time></trkpt><trkpt lat="42.455563" lon="18.747612"><ele>25.9</ele><time>2012-05-02T14:07:59.0000000+00:00</time></trkpt><trkpt lat="42.455566" lon="18.74761"><ele>25.6</ele><time>2012-05-02T14:08:04.0000000+00:00</time></trkpt><trkpt lat="42.455688" lon="18.747517"><ele>22.7</ele><time>2012-05-02T14:08:09.0000000+00:00</time></trkpt><trkpt lat="42.455914" lon="18.747229"><ele>22.5</ele><time>2012-05-02T14:08:14.0000000+00:00</time></trkpt><trkpt lat="42.456036" lon="18.746828"><ele>21.9</ele><time>2012-05-02T14:08:19.0000000+00:00</time></trkpt><trkpt lat="42.456173" lon="18.746401"><ele>19.8</ele><time>2012-05-02T14:08:24.0000000+00:00</time></trkpt><trkpt lat="42.456249" lon="18.745983"><ele>16.4</ele><time>2012-05-02T14:08:29.0000000+00:00</time></trkpt><trkpt lat="42.456348" lon="18.745548"><ele>13.4</ele><time>2012-05-02T14:08:34.0000000+00:00</time></trkpt><trkpt lat="42.456493" lon="18.745092"><ele>10.7</ele><time>2012-05-02T14:08:39.0000000+00:00</time></trkpt><trkpt lat="42.456673" lon="18.744711"><ele>9.2</ele><time>2012-05-02T14:08:44.0000000+00:00</time></trkpt><trkpt lat="42.456844" lon="18.744343"><ele>8.2</ele><time>2012-05-02T14:08:49.0000000+00:00</time></trkpt><trkpt lat="42.457024" lon="18.743979"><ele>7.6</ele><time>2012-05-02T14:08:54.0000000+00:00</time></trkpt><trkpt lat="42.457211" lon="18.743618"><ele>7.2</ele><time>2012-05-02T14:08:59.0000000+00:00</time></trkpt><trkpt lat="42.457409" lon="18.743313"><ele>6.6</ele><time>2012-05-02T14:09:04.0000000+00:00</time></trkpt><trkpt lat="42.457565" lon="18.742914"><ele>7.2</ele><time>2012-05-02T14:09:09.0000000+00:00</time></trkpt><trkpt lat="42.457741" lon="18.742569"><ele>7.0</ele><time>2012-05-02T14:09:14.0000000+00:00</time></trkpt><trkpt lat="42.457981" lon="18.742287"><ele>6.1</ele><time>2012-05-02T14:09:19.0000000+00:00</time></trkpt><trkpt lat="42.45821" lon="18.742128"><ele>5.9</ele><time>2012-05-02T14:09:24.0000000+00:00</time></trkpt><trkpt lat="42.458466" lon="18.742008"><ele>6.3</ele><time>2012-05-02T14:09:29.0000000+00:00</time></trkpt><trkpt lat="42.458725" lon="18.741871"><ele>8.0</ele><time>2012-05-02T14:09:34.0000000+00:00</time></trkpt><trkpt lat="42.459003" lon="18.741564"><ele>7.4</ele><time>2012-05-02T14:09:39.0000000+00:00</time></trkpt><trkpt lat="42.459183" lon="18.74122"><ele>7.0</ele><time>2012-05-02T14:09:44.0000000+00:00</time></trkpt><trkpt lat="42.459339" lon="18.740845"><ele>7.5</ele><time>2012-05-02T14:09:49.0000000+00:00</time></trkpt><trkpt lat="42.459499" lon="18.740486"><ele>9.0</ele><time>2012-05-02T14:09:54.0000000+00:00</time></trkpt><trkpt lat="42.459698" lon="18.740162"><ele>8.7</ele><time>2012-05-02T14:09:59.0000000+00:00</time></trkpt><trkpt lat="42.459892" lon="18.739897"><ele>9.0</ele><time>2012-05-02T14:10:04.0000000+00:00</time></trkpt><trkpt lat="42.460121" lon="18.739693"><ele>8.4</ele><time>2012-05-02T14:10:09.0000000+00:00</time></trkpt><trkpt lat="42.460297" lon="18.739315"><ele>6.8</ele><time>2012-05-02T14:10:14.0000000+00:00</time></trkpt><trkpt lat="42.460472" lon="18.738953"><ele>5.6</ele><time>2012-05-02T14:10:19.0000000+00:00</time></trkpt><trkpt lat="42.460636" lon="18.7386"><ele>4.9</ele><time>2012-05-02T14:10:24.0000000+00:00</time></trkpt><trkpt lat="42.460823" lon="18.738297"><ele>5.2</ele><time>2012-05-02T14:10:29.0000000+00:00</time></trkpt><trkpt lat="42.461025" lon="18.737993"><ele>4.6</ele><time>2012-05-02T14:10:34.0000000+00:00</time></trkpt><trkpt lat="42.461239" lon="18.737705"><ele>4.5</ele><time>2012-05-02T14:10:39.0000000+00:00</time></trkpt><trkpt lat="42.461502" lon="18.737459"><ele>4.5</ele><time>2012-05-02T14:10:44.0000000+00:00</time></trkpt><trkpt lat="42.461788" lon="18.737291"><ele>4.2</ele><time>2012-05-02T14:10:49.0000000+00:00</time></trkpt><trkpt lat="42.462048" lon="18.737181"><ele>3.2</ele><time>2012-05-02T14:10:54.0000000+00:00</time></trkpt><trkpt lat="42.462334" lon="18.737101"><ele>2.7</ele><time>2012-05-02T14:10:59.0000000+00:00</time></trkpt><trkpt lat="42.462582" lon="18.736969"><ele>3.0</ele><time>2012-05-02T14:11:04.0000000+00:00</time></trkpt><trkpt lat="42.462833" lon="18.736851"><ele>3.1</ele><time>2012-05-02T14:11:09.0000000+00:00</time></trkpt><trkpt lat="42.463127" lon="18.736662"><ele>3.4</ele><time>2012-05-02T14:11:14.0000000+00:00</time></trkpt><trkpt lat="42.463383" lon="18.736319"><ele>2.9</ele><time>2012-05-02T14:11:19.0000000+00:00</time></trkpt><trkpt lat="42.463535" lon="18.73595"><ele>3.3</ele><time>2012-05-02T14:11:24.0000000+00:00</time></trkpt><trkpt lat="42.463707" lon="18.735638"><ele>3.5</ele><time>2012-05-02T14:11:29.0000000+00:00</time></trkpt><trkpt lat="42.463936" lon="18.73538"><ele>3.5</ele><time>2012-05-02T14:11:34.0000000+00:00</time></trkpt><trkpt lat="42.464165" lon="18.735115"><ele>4.8</ele><time>2012-05-02T14:11:39.0000000+00:00</time></trkpt><trkpt lat="42.464363" lon="18.734861"><ele>3.7</ele><time>2012-05-02T14:11:44.0000000+00:00</time></trkpt><trkpt lat="42.464558" lon="18.734583"><ele>4.2</ele><time>2012-05-02T14:11:49.0000000+00:00</time></trkpt><trkpt lat="42.464691" lon="18.734304"><ele>4.7</ele><time>2012-05-02T14:11:54.0000000+00:00</time></trkpt><trkpt lat="42.464844" lon="18.734091"><ele>6.0</ele><time>2012-05-02T14:11:59.0000000+00:00</time></trkpt><trkpt lat="42.465" lon="18.733852"><ele>8.9</ele><time>2012-05-02T14:12:04.0000000+00:00</time></trkpt><trkpt lat="42.465134" lon="18.733671"><ele>9.9</ele><time>2012-05-02T14:12:09.0000000+00:00</time></trkpt><trkpt lat="42.465263" lon="18.733433"><ele>10.6</ele><time>2012-05-02T14:12:14.0000000+00:00</time></trkpt><trkpt lat="42.465347" lon="18.733118"><ele>11.9</ele><time>2012-05-02T14:12:19.0000000+00:00</time></trkpt><trkpt lat="42.465363" lon="18.732723"><ele>10.7</ele><time>2012-05-02T14:12:24.0000000+00:00</time></trkpt><trkpt lat="42.465324" lon="18.732296"><ele>8.1</ele><time>2012-05-02T14:12:29.0000000+00:00</time></trkpt><trkpt lat="42.465363" lon="18.731863"><ele>7.8</ele><time>2012-05-02T14:12:34.0000000+00:00</time></trkpt><trkpt lat="42.465481" lon="18.731457"><ele>8.9</ele><time>2012-05-02T14:12:39.0000000+00:00</time></trkpt><trkpt lat="42.46563" lon="18.731071"><ele>9.5</ele><time>2012-05-02T14:12:44.0000000+00:00</time></trkpt><trkpt lat="42.465847" lon="18.730736"><ele>10.1</ele><time>2012-05-02T14:12:49.0000000+00:00</time></trkpt><trkpt lat="42.466042" lon="18.730423"><ele>10.8</ele><time>2012-05-02T14:12:54.0000000+00:00</time></trkpt><trkpt lat="42.466183" lon="18.730028"><ele>11.1</ele><time>2012-05-02T14:12:59.0000000+00:00</time></trkpt><trkpt lat="42.466309" lon="18.72962"><ele>11.4</ele><time>2012-05-02T14:13:04.0000000+00:00</time></trkpt><trkpt lat="42.466419" lon="18.729206"><ele>11.7</ele><time>2012-05-02T14:13:09.0000000+00:00</time></trkpt><trkpt lat="42.466507" lon="18.728817"><ele>12.5</ele><time>2012-05-02T14:13:14.0000000+00:00</time></trkpt><trkpt lat="42.46666" lon="18.728449"><ele>13.5</ele><time>2012-05-02T14:13:19.0000000+00:00</time></trkpt><trkpt lat="42.466831" lon="18.728085"><ele>14.6</ele><time>2012-05-02T14:13:24.0000000+00:00</time></trkpt><trkpt lat="42.467003" lon="18.727722"><ele>14.1</ele><time>2012-05-02T14:13:29.0000000+00:00</time></trkpt><trkpt lat="42.467175" lon="18.727379"><ele>13.3</ele><time>2012-05-02T14:13:34.0000000+00:00</time></trkpt><trkpt lat="42.467388" lon="18.727043"><ele>12.3</ele><time>2012-05-02T14:13:39.0000000+00:00</time></trkpt><trkpt lat="42.467606" lon="18.726715"><ele>11.4</ele><time>2012-05-02T14:13:44.0000000+00:00</time></trkpt><trkpt lat="42.467827" lon="18.726427"><ele>9.9</ele><time>2012-05-02T14:13:49.0000000+00:00</time></trkpt><trkpt lat="42.468006" lon="18.726171"><ele>9.0</ele><time>2012-05-02T14:13:54.0000000+00:00</time></trkpt><trkpt lat="42.46817" lon="18.725965"><ele>8.2</ele><time>2012-05-02T14:13:59.0000000+00:00</time></trkpt><trkpt lat="42.468353" lon="18.725716"><ele>7.3</ele><time>2012-05-02T14:14:04.0000000+00:00</time></trkpt><trkpt lat="42.468487" lon="18.725426"><ele>6.8</ele><time>2012-05-02T14:14:09.0000000+00:00</time></trkpt><trkpt lat="42.468578" lon="18.725061"><ele>6.7</ele><time>2012-05-02T14:14:14.0000000+00:00</time></trkpt><trkpt lat="42.468704" lon="18.724674"><ele>6.4</ele><time>2012-05-02T14:14:19.0000000+00:00</time></trkpt><trkpt lat="42.468784" lon="18.724258"><ele>5.9</ele><time>2012-05-02T14:14:24.0000000+00:00</time></trkpt><trkpt lat="42.468876" lon="18.723799"><ele>4.5</ele><time>2012-05-02T14:14:29.0000000+00:00</time></trkpt><trkpt lat="42.468864" lon="18.723307"><ele>2.7</ele><time>2012-05-02T14:14:34.0000000+00:00</time></trkpt><trkpt lat="42.468937" lon="18.722797"><ele>1.2</ele><time>2012-05-02T14:14:39.0000000+00:00</time></trkpt><trkpt lat="42.469032" lon="18.722294"><ele>-0.1</ele><time>2012-05-02T14:14:44.0000000+00:00</time></trkpt><trkpt lat="42.469227" lon="18.721849"><ele>0.0</ele><time>2012-05-02T14:14:49.0000000+00:00</time></trkpt><trkpt lat="42.469429" lon="18.721432"><ele>-0.1</ele><time>2012-05-02T14:14:54.0000000+00:00</time></trkpt><trkpt lat="42.469635" lon="18.721014"><ele>-0.3</ele><time>2012-05-02T14:14:59.0000000+00:00</time></trkpt><trkpt lat="42.469841" lon="18.720631"><ele>-0.6</ele><time>2012-05-02T14:15:04.0000000+00:00</time></trkpt><trkpt lat="42.47002" lon="18.720219"><ele>-0.8</ele><time>2012-05-02T14:15:09.0000000+00:00</time></trkpt><trkpt lat="42.470158" lon="18.719744"><ele>-1.4</ele><time>2012-05-02T14:15:14.0000000+00:00</time></trkpt><trkpt lat="42.470196" lon="18.719246"><ele>-2.1</ele><time>2012-05-02T14:15:19.0000000+00:00</time></trkpt><trkpt lat="42.470161" lon="18.718718"><ele>-0.8</ele><time>2012-05-02T14:15:24.0000000+00:00</time></trkpt><trkpt lat="42.47002" lon="18.718216"><ele>0.1</ele><time>2012-05-02T14:15:29.0000000+00:00</time></trkpt><trkpt lat="42.469933" lon="18.71767"><ele>0.7</ele><time>2012-05-02T14:15:34.0000000+00:00</time></trkpt><trkpt lat="42.469997" lon="18.717178"><ele>0.8</ele><time>2012-05-02T14:15:39.0000000+00:00</time></trkpt><trkpt lat="42.470146" lon="18.716707"><ele>1.0</ele><time>2012-05-02T14:15:44.0000000+00:00</time></trkpt><trkpt lat="42.470333" lon="18.7162"><ele>1.2</ele><time>2012-05-02T14:15:49.0000000+00:00</time></trkpt><trkpt lat="42.470585" lon="18.715807"><ele>1.7</ele><time>2012-05-02T14:15:54.0000000+00:00</time></trkpt><trkpt lat="42.470879" lon="18.715487"><ele>2.1</ele><time>2012-05-02T14:15:59.0000000+00:00</time></trkpt><trkpt lat="42.471195" lon="18.715246"><ele>1.9</ele><time>2012-05-02T14:16:04.0000000+00:00</time></trkpt><trkpt lat="42.471634" lon="18.715044"><ele>0.3</ele><time>2012-05-02T14:16:09.0000000+00:00</time></trkpt><trkpt lat="42.471954" lon="18.714804"><ele>-1.9</ele><time>2012-05-02T14:16:14.0000000+00:00</time></trkpt><trkpt lat="42.472256" lon="18.71455"><ele>-3.9</ele><time>2012-05-02T14:16:19.0000000+00:00</time></trkpt><trkpt lat="42.472343" lon="18.714098"><ele>-5.0</ele><time>2012-05-02T14:16:24.0000000+00:00</time></trkpt><trkpt lat="42.472351" lon="18.713676"><ele>-5.1</ele><time>2012-05-02T14:16:29.0000000+00:00</time></trkpt><trkpt lat="42.472397" lon="18.71332"><ele>-6.9</ele><time>2012-05-02T14:16:34.0000000+00:00</time></trkpt><trkpt lat="42.472485" lon="18.713028"><ele>-7.2</ele><time>2012-05-02T14:16:39.0000000+00:00</time></trkpt><trkpt lat="42.472481" lon="18.712675"><ele>-6.5</ele><time>2012-05-02T14:16:44.0000000+00:00</time></trkpt><trkpt lat="42.472389" lon="18.712301"><ele>-5.1</ele><time>2012-05-02T14:16:49.0000000+00:00</time></trkpt><trkpt lat="42.472324" lon="18.711964"><ele>-3.3</ele><time>2012-05-02T14:16:54.0000000+00:00</time></trkpt><trkpt lat="42.472282" lon="18.711672"><ele>-2.4</ele><time>2012-05-02T14:16:59.0000000+00:00</time></trkpt><trkpt lat="42.472332" lon="18.711349"><ele>-2.9</ele><time>2012-05-02T14:17:04.0000000+00:00</time></trkpt><trkpt lat="42.472385" lon="18.710941"><ele>-1.9</ele><time>2012-05-02T14:17:09.0000000+00:00</time></trkpt><trkpt lat="42.472469" lon="18.710489"><ele>-1.4</ele><time>2012-05-02T14:17:14.0000000+00:00</time></trkpt><trkpt lat="42.472565" lon="18.710091"><ele>-1.4</ele><time>2012-05-02T14:17:19.0000000+00:00</time></trkpt><trkpt lat="42.472675" lon="18.709738"><ele>-1.4</ele><time>2012-05-02T14:17:24.0000000+00:00</time></trkpt><trkpt lat="42.472729" lon="18.709335"><ele>-1.5</ele><time>2012-05-02T14:17:29.0000000+00:00</time></trkpt><trkpt lat="42.472599" lon="18.708944"><ele>-1.2</ele><time>2012-05-02T14:17:34.0000000+00:00</time></trkpt><trkpt lat="42.472431" lon="18.708616"><ele>-0.6</ele><time>2012-05-02T14:17:39.0000000+00:00</time></trkpt><trkpt lat="42.472256" lon="18.708254"><ele>0.3</ele><time>2012-05-02T14:17:44.0000000+00:00</time></trkpt><trkpt lat="42.472115" lon="18.707912"><ele>0.6</ele><time>2012-05-02T14:17:49.0000000+00:00</time></trkpt><trkpt lat="42.472008" lon="18.707525"><ele>0.9</ele><time>2012-05-02T14:17:54.0000000+00:00</time></trkpt><trkpt lat="42.471863" lon="18.70714"><ele>1.6</ele><time>2012-05-02T14:17:59.0000000+00:00</time></trkpt><trkpt lat="42.471729" lon="18.706787"><ele>2.4</ele><time>2012-05-02T14:18:04.0000000+00:00</time></trkpt><trkpt lat="42.471676" lon="18.706362"><ele>2.2</ele><time>2012-05-02T14:18:09.0000000+00:00</time></trkpt><trkpt lat="42.471786" lon="18.705946"><ele>2.2</ele><time>2012-05-02T14:18:14.0000000+00:00</time></trkpt><trkpt lat="42.471924" lon="18.705591"><ele>1.9</ele><time>2012-05-02T14:18:19.0000000+00:00</time></trkpt><trkpt lat="42.471996" lon="18.70521"><ele>1.0</ele><time>2012-05-02T14:18:24.0000000+00:00</time></trkpt><trkpt lat="42.472111" lon="18.704893"><ele>1.1</ele><time>2012-05-02T14:18:29.0000000+00:00</time></trkpt><trkpt lat="42.472336" lon="18.704681"><ele>1.6</ele><time>2012-05-02T14:18:34.0000000+00:00</time></trkpt><trkpt lat="42.472584" lon="18.704588"><ele>2.3</ele><time>2012-05-02T14:18:39.0000000+00:00</time></trkpt><trkpt lat="42.472828" lon="18.704485"><ele>2.9</ele><time>2012-05-02T14:18:44.0000000+00:00</time></trkpt><trkpt lat="42.473034" lon="18.704226"><ele>3.3</ele><time>2012-05-02T14:18:49.0000000+00:00</time></trkpt><trkpt lat="42.473167" lon="18.703917"><ele>3.4</ele><time>2012-05-02T14:18:54.0000000+00:00</time></trkpt><trkpt lat="42.473309" lon="18.703634"><ele>2.8</ele><time>2012-05-02T14:18:59.0000000+00:00</time></trkpt><trkpt lat="42.4734" lon="18.703375"><ele>1.2</ele><time>2012-05-02T14:19:04.0000000+00:00</time></trkpt><trkpt lat="42.473457" lon="18.703018"><ele>0.5</ele><time>2012-05-02T14:19:09.0000000+00:00</time></trkpt><trkpt lat="42.473507" lon="18.702623"><ele>-0.6</ele><time>2012-05-02T14:19:14.0000000+00:00</time></trkpt><trkpt lat="42.473591" lon="18.702272"><ele>-1.0</ele><time>2012-05-02T14:19:19.0000000+00:00</time></trkpt><trkpt lat="42.473751" lon="18.701954"><ele>-0.9</ele><time>2012-05-02T14:19:24.0000000+00:00</time></trkpt><trkpt lat="42.474052" lon="18.701782"><ele>-0.4</ele><time>2012-05-02T14:19:29.0000000+00:00</time></trkpt><trkpt lat="42.474323" lon="18.701561"><ele>-0.2</ele><time>2012-05-02T14:19:34.0000000+00:00</time></trkpt><trkpt lat="42.474522" lon="18.701284"><ele>-0.1</ele><time>2012-05-02T14:19:39.0000000+00:00</time></trkpt><trkpt lat="42.474689" lon="18.701002"><ele>-0.4</ele><time>2012-05-02T14:19:44.0000000+00:00</time></trkpt><trkpt lat="42.474731" lon="18.700603"><ele>-0.1</ele><time>2012-05-02T14:19:49.0000000+00:00</time></trkpt><trkpt lat="42.474716" lon="18.700151"><ele>-1.0</ele><time>2012-05-02T14:19:54.0000000+00:00</time></trkpt><trkpt lat="42.474865" lon="18.699759"><ele>-0.8</ele><time>2012-05-02T14:19:59.0000000+00:00</time></trkpt><trkpt lat="42.475002" lon="18.699368"><ele>-0.6</ele><time>2012-05-02T14:20:04.0000000+00:00</time></trkpt><trkpt lat="42.475094" lon="18.698984"><ele>-1.3</ele><time>2012-05-02T14:20:09.0000000+00:00</time></trkpt><trkpt lat="42.475288" lon="18.698715"><ele>-1.8</ele><time>2012-05-02T14:20:14.0000000+00:00</time></trkpt><trkpt lat="42.475506" lon="18.698494"><ele>-2.4</ele><time>2012-05-02T14:20:19.0000000+00:00</time></trkpt><trkpt lat="42.475651" lon="18.698214"><ele>-2.8</ele><time>2012-05-02T14:20:24.0000000+00:00</time></trkpt><trkpt lat="42.475716" lon="18.697836"><ele>-2.7</ele><time>2012-05-02T14:20:29.0000000+00:00</time></trkpt><trkpt lat="42.475666" lon="18.697464"><ele>-2.0</ele><time>2012-05-02T14:20:34.0000000+00:00</time></trkpt><trkpt lat="42.475613" lon="18.697174"><ele>-1.4</ele><time>2012-05-02T14:20:39.0000000+00:00</time></trkpt><trkpt lat="42.475609" lon="18.696871"><ele>-0.4</ele><time>2012-05-02T14:20:44.0000000+00:00</time></trkpt><trkpt lat="42.475662" lon="18.696554"><ele>0.6</ele><time>2012-05-02T14:20:49.0000000+00:00</time></trkpt><trkpt lat="42.475742" lon="18.696215"><ele>1.7</ele><time>2012-05-02T14:20:54.0000000+00:00</time></trkpt><trkpt lat="42.475826" lon="18.695913"><ele>2.2</ele><time>2012-05-02T14:20:59.0000000+00:00</time></trkpt><trkpt lat="42.475941" lon="18.695608"><ele>2.7</ele><time>2012-05-02T14:21:04.0000000+00:00</time></trkpt><trkpt lat="42.476036" lon="18.695303"><ele>3.5</ele><time>2012-05-02T14:21:09.0000000+00:00</time></trkpt><trkpt lat="42.476139" lon="18.695005"><ele>4.3</ele><time>2012-05-02T14:21:14.0000000+00:00</time></trkpt><trkpt lat="42.476212" lon="18.694695"><ele>4.4</ele><time>2012-05-02T14:21:19.0000000+00:00</time></trkpt><trkpt lat="42.476265" lon="18.694447"><ele>4.4</ele><time>2012-05-02T14:21:24.0000000+00:00</time></trkpt><trkpt lat="42.476357" lon="18.694231"><ele>4.6</ele><time>2012-05-02T14:21:29.0000000+00:00</time></trkpt><trkpt lat="42.476463" lon="18.693897"><ele>4.6</ele><time>2012-05-02T14:21:34.0000000+00:00</time></trkpt><trkpt lat="42.476582" lon="18.693569"><ele>4.5</ele><time>2012-05-02T14:21:39.0000000+00:00</time></trkpt><trkpt lat="42.476654" lon="18.693243"><ele>4.9</ele><time>2012-05-02T14:21:44.0000000+00:00</time></trkpt><trkpt lat="42.476753" lon="18.692913"><ele>4.7</ele><time>2012-05-02T14:21:49.0000000+00:00</time></trkpt><trkpt lat="42.476852" lon="18.692602"><ele>4.8</ele><time>2012-05-02T14:21:54.0000000+00:00</time></trkpt><trkpt lat="42.476933" lon="18.692289"><ele>4.1</ele><time>2012-05-02T14:21:59.0000000+00:00</time></trkpt><trkpt lat="42.476994" lon="18.691973"><ele>4.6</ele><time>2012-05-02T14:22:04.0000000+00:00</time></trkpt><trkpt lat="42.477043" lon="18.691687"><ele>5.1</ele><time>2012-05-02T14:22:09.0000000+00:00</time></trkpt><trkpt lat="42.477097" lon="18.691391"><ele>5.2</ele><time>2012-05-02T14:22:14.0000000+00:00</time></trkpt><trkpt lat="42.477142" lon="18.691107"><ele>6.1</ele><time>2012-05-02T14:22:19.0000000+00:00</time></trkpt><trkpt lat="42.477177" lon="18.690826"><ele>7.5</ele><time>2012-05-02T14:22:24.0000000+00:00</time></trkpt><trkpt lat="42.47718" lon="18.690536"><ele>7.4</ele><time>2012-05-02T14:22:29.0000000+00:00</time></trkpt><trkpt lat="42.477131" lon="18.690271"><ele>8.1</ele><time>2012-05-02T14:22:34.0000000+00:00</time></trkpt><trkpt lat="42.476997" lon="18.690042"><ele>8.6</ele><time>2012-05-02T14:22:39.0000000+00:00</time></trkpt><trkpt lat="42.476799" lon="18.689922"><ele>8.9</ele><time>2012-05-02T14:22:44.0000000+00:00</time></trkpt><trkpt lat="42.476593" lon="18.689793"><ele>9.1</ele><time>2012-05-02T14:22:49.0000000+00:00</time></trkpt><trkpt lat="42.476368" lon="18.689659"><ele>8.8</ele><time>2012-05-02T14:22:54.0000000+00:00</time></trkpt><trkpt lat="42.476131" lon="18.689466"><ele>8.1</ele><time>2012-05-02T14:22:59.0000000+00:00</time></trkpt><trkpt lat="42.475838" lon="18.689217"><ele>7.5</ele><time>2012-05-02T14:23:04.0000000+00:00</time></trkpt><trkpt lat="42.475506" lon="18.68895"><ele>7.8</ele><time>2012-05-02T14:23:09.0000000+00:00</time></trkpt><trkpt lat="42.475185" lon="18.688721"><ele>7.7</ele><time>2012-05-02T14:23:14.0000000+00:00</time></trkpt><trkpt lat="42.474899" lon="18.688505"><ele>7.6</ele><time>2012-05-02T14:23:19.0000000+00:00</time></trkpt><trkpt lat="42.474751" lon="18.688129"><ele>7.2</ele><time>2012-05-02T14:23:24.0000000+00:00</time></trkpt><trkpt lat="42.474594" lon="18.68779"><ele>6.9</ele><time>2012-05-02T14:23:29.0000000+00:00</time></trkpt><trkpt lat="42.47435" lon="18.687588"><ele>6.0</ele><time>2012-05-02T14:23:34.0000000+00:00</time></trkpt><trkpt lat="42.474113" lon="18.68729"><ele>4.7</ele><time>2012-05-02T14:23:39.0000000+00:00</time></trkpt><trkpt lat="42.473846" lon="18.687004"><ele>2.9</ele><time>2012-05-02T14:23:44.0000000+00:00</time></trkpt><trkpt lat="42.473549" lon="18.686773"><ele>1.4</ele><time>2012-05-02T14:23:49.0000000+00:00</time></trkpt><trkpt lat="42.473263" lon="18.686543"><ele>0.2</ele><time>2012-05-02T14:23:54.0000000+00:00</time></trkpt><trkpt lat="42.472958" lon="18.686424"><ele>-1.0</ele><time>2012-05-02T14:23:59.0000000+00:00</time></trkpt><trkpt lat="42.472607" lon="18.686495"><ele>-2.1</ele><time>2012-05-02T14:24:04.0000000+00:00</time></trkpt><trkpt lat="42.472256" lon="18.686611"><ele>-3.3</ele><time>2012-05-02T14:24:09.0000000+00:00</time></trkpt><trkpt lat="42.471931" lon="18.68675"><ele>-4.2</ele><time>2012-05-02T14:24:14.0000000+00:00</time></trkpt><trkpt lat="42.471672" lon="18.686832"><ele>-5.0</ele><time>2012-05-02T14:24:19.0000000+00:00</time></trkpt><trkpt lat="42.471424" lon="18.686842"><ele>-6.0</ele><time>2012-05-02T14:24:24.0000000+00:00</time></trkpt><trkpt lat="42.471153" lon="18.686897"><ele>-6.8</ele><time>2012-05-02T14:24:29.0000000+00:00</time></trkpt><trkpt lat="42.470871" lon="18.686979"><ele>-7.4</ele><time>2012-05-02T14:24:34.0000000+00:00</time></trkpt><trkpt lat="42.470577" lon="18.686916"><ele>-7.7</ele><time>2012-05-02T14:24:39.0000000+00:00</time></trkpt><trkpt lat="42.470272" lon="18.686789"><ele>-8.1</ele><time>2012-05-02T14:24:44.0000000+00:00</time></trkpt><trkpt lat="42.469994" lon="18.686642"><ele>-6.8</ele><time>2012-05-02T14:24:49.0000000+00:00</time></trkpt><trkpt lat="42.469727" lon="18.686464"><ele>-6.2</ele><time>2012-05-02T14:24:54.0000000+00:00</time></trkpt><trkpt lat="42.469482" lon="18.686209"><ele>-3.7</ele><time>2012-05-02T14:24:59.0000000+00:00</time></trkpt><trkpt lat="42.469269" lon="18.68598"><ele>-2.7</ele><time>2012-05-02T14:25:04.0000000+00:00</time></trkpt><trkpt lat="42.468975" lon="18.685932"><ele>-1.9</ele><time>2012-05-02T14:25:09.0000000+00:00</time></trkpt><trkpt lat="42.468662" lon="18.685833"><ele>-1.4</ele><time>2012-05-02T14:25:14.0000000+00:00</time></trkpt><trkpt lat="42.468391" lon="18.685669"><ele>-2.3</ele><time>2012-05-02T14:25:19.0000000+00:00</time></trkpt><trkpt lat="42.468151" lon="18.685539"><ele>-2.5</ele><time>2012-05-02T14:25:24.0000000+00:00</time></trkpt><trkpt lat="42.467884" lon="18.685482"><ele>-1.1</ele><time>2012-05-02T14:25:29.0000000+00:00</time></trkpt><trkpt lat="42.467648" lon="18.68568"><ele>0.2</ele><time>2012-05-02T14:25:34.0000000+00:00</time></trkpt><trkpt lat="42.467468" lon="18.685965"><ele>0.6</ele><time>2012-05-02T14:25:39.0000000+00:00</time></trkpt><trkpt lat="42.467274" lon="18.686249"><ele>1.1</ele><time>2012-05-02T14:25:44.0000000+00:00</time></trkpt><trkpt lat="42.467022" lon="18.686443"><ele>1.4</ele><time>2012-05-02T14:25:49.0000000+00:00</time></trkpt><trkpt lat="42.466724" lon="18.686449"><ele>3.0</ele><time>2012-05-02T14:25:54.0000000+00:00</time></trkpt><trkpt lat="42.466465" lon="18.686451"><ele>4.3</ele><time>2012-05-02T14:25:59.0000000+00:00</time></trkpt><trkpt lat="42.466248" lon="18.686443"><ele>4.2</ele><time>2012-05-02T14:26:04.0000000+00:00</time></trkpt><trkpt lat="42.465984" lon="18.686441"><ele>4.0</ele><time>2012-05-02T14:26:09.0000000+00:00</time></trkpt><trkpt lat="42.465752" lon="18.686436"><ele>4.0</ele><time>2012-05-02T14:26:14.0000000+00:00</time></trkpt><trkpt lat="42.465561" lon="18.686237"><ele>4.3</ele><time>2012-05-02T14:26:19.0000000+00:00</time></trkpt><trkpt lat="42.465473" lon="18.685986"><ele>4.2</ele><time>2012-05-02T14:26:24.0000000+00:00</time></trkpt><trkpt lat="42.465454" lon="18.68578"><ele>4.0</ele><time>2012-05-02T14:26:29.0000000+00:00</time></trkpt><trkpt lat="42.465496" lon="18.685638"><ele>4.1</ele><time>2012-05-02T14:26:34.0000000+00:00</time></trkpt><trkpt lat="42.465572" lon="18.685659"><ele>3.2</ele><time>2012-05-02T14:26:39.0000000+00:00</time></trkpt><trkpt lat="42.465584" lon="18.685648"><ele>3.4</ele><time>2012-05-02T14:26:44.0000000+00:00</time></trkpt><trkpt lat="42.465584" lon="18.685646"><ele>3.5</ele><time>2012-05-02T14:26:49.0000000+00:00</time></trkpt><trkpt lat="42.465584" lon="18.685646"><ele>3.5</ele><time>2012-05-02T14:26:54.0000000+00:00</time></trkpt><trkpt lat="42.465584" lon="18.685644"><ele>3.5</ele><time>2012-05-02T14:26:59.0000000+00:00</time></trkpt><trkpt lat="42.465584" lon="18.68564"><ele>3.5</ele><time>2012-05-02T14:27:04.0000000+00:00</time></trkpt><trkpt lat="42.465584" lon="18.685635"><ele>3.5</ele><time>2012-05-02T14:27:09.0000000+00:00</time></trkpt><trkpt lat="42.465588" lon="18.685635"><ele>3.5</ele><time>2012-05-02T14:27:14.0000000+00:00</time></trkpt><trkpt lat="42.465588" lon="18.685635"><ele>3.5</ele><time>2012-05-02T14:27:19.0000000+00:00</time></trkpt><trkpt lat="42.465588" lon="18.685635"><ele>3.5</ele><time>2012-05-02T14:27:24.0000000+00:00</time></trkpt><trkpt lat="42.465557" lon="18.685627"><ele>3.0</ele><time>2012-05-02T14:27:29.0000000+00:00</time></trkpt><trkpt lat="42.465515" lon="18.685617"><ele>2.8</ele><time>2012-05-02T14:27:34.0000000+00:00</time></trkpt><trkpt lat="42.465523" lon="18.68561"><ele>1.0</ele><time>2012-05-02T14:27:39.0000000+00:00</time></trkpt><trkpt lat="42.465523" lon="18.685589"><ele>1.3</ele><time>2012-05-02T14:27:44.0000000+00:00</time></trkpt><trkpt lat="42.465519" lon="18.685593"><ele>1.3</ele><time>2012-05-02T14:27:49.0000000+00:00</time></trkpt><trkpt lat="42.465519" lon="18.685593"><ele>1.4</ele><time>2012-05-02T14:27:54.0000000+00:00</time></trkpt><trkpt lat="42.465515" lon="18.685593"><ele>1.4</ele><time>2012-05-02T14:27:59.0000000+00:00</time></trkpt><trkpt lat="42.465515" lon="18.685593"><ele>1.4</ele><time>2012-05-02T14:28:04.0000000+00:00</time></trkpt><trkpt lat="42.465519" lon="18.685596"><ele>1.4</ele><time>2012-05-02T14:28:09.0000000+00:00</time></trkpt><trkpt lat="42.465549" lon="18.685652"><ele>1.5</ele><time>2012-05-02T14:28:14.0000000+00:00</time></trkpt><trkpt lat="42.465584" lon="18.685658"><ele>1.2</ele><time>2012-05-02T14:28:19.0000000+00:00</time></trkpt><trkpt lat="42.465584" lon="18.685658"><ele>1.3</ele><time>2012-05-02T14:28:24.0000000+00:00</time></trkpt><trkpt lat="42.465584" lon="18.685659"><ele>1.3</ele><time>2012-05-02T14:28:29.0000000+00:00</time></trkpt><trkpt lat="42.465584" lon="18.685658"><ele>1.2</ele><time>2012-05-02T14:28:34.0000000+00:00</time></trkpt><trkpt lat="42.465584" lon="18.685659"><ele>1.2</ele><time>2012-05-02T14:28:39.0000000+00:00</time></trkpt><trkpt lat="42.465584" lon="18.685665"><ele>1.2</ele><time>2012-05-02T14:28:44.0000000+00:00</time></trkpt><trkpt lat="42.465584" lon="18.685667"><ele>1.2</ele><time>2012-05-02T14:28:49.0000000+00:00</time></trkpt><trkpt lat="42.465584" lon="18.685669"><ele>1.2</ele><time>2012-05-02T14:28:54.0000000+00:00</time></trkpt><trkpt lat="42.465584" lon="18.685671"><ele>1.3</ele><time>2012-05-02T14:28:59.0000000+00:00</time></trkpt><trkpt lat="42.465588" lon="18.685673"><ele>1.3</ele><time>2012-05-02T14:29:04.0000000+00:00</time></trkpt><trkpt lat="42.465588" lon="18.685671"><ele>1.3</ele><time>2012-05-02T14:29:09.0000000+00:00</time></trkpt><trkpt lat="42.465584" lon="18.685671"><ele>1.3</ele><time>2012-05-02T14:29:14.0000000+00:00</time></trkpt><trkpt lat="42.465618" lon="18.685696"><ele>1.5</ele><time>2012-05-02T14:29:19.0000000+00:00</time></trkpt><trkpt lat="42.46571" lon="18.68564"><ele>1.6</ele><time>2012-05-02T14:29:24.0000000+00:00</time></trkpt><trkpt lat="42.465805" lon="18.68561"><ele>0.4</ele><time>2012-05-02T14:29:29.0000000+00:00</time></trkpt><trkpt lat="42.465843" lon="18.685587"><ele>-1.0</ele><time>2012-05-02T14:29:34.0000000+00:00</time></trkpt><trkpt lat="42.465847" lon="18.685593"><ele>-1.3</ele><time>2012-05-02T14:29:39.0000000+00:00</time></trkpt><trkpt lat="42.465847" lon="18.685595"><ele>-1.7</ele><time>2012-05-02T14:29:44.0000000+00:00</time></trkpt><trkpt lat="42.465847" lon="18.685593"><ele>-1.8</ele><time>2012-05-02T14:29:49.0000000+00:00</time></trkpt><trkpt lat="42.465847" lon="18.685591"><ele>-1.9</ele><time>2012-05-02T14:29:54.0000000+00:00</time></trkpt><trkpt lat="42.465843" lon="18.685591"><ele>-2.2</ele><time>2012-05-02T14:29:59.0000000+00:00</time></trkpt><trkpt lat="42.465843" lon="18.685585"><ele>-2.6</ele><time>2012-05-02T14:30:04.0000000+00:00</time></trkpt><trkpt lat="42.465843" lon="18.685583"><ele>-2.7</ele><time>2012-05-02T14:30:09.0000000+00:00</time></trkpt><trkpt lat="42.465843" lon="18.685581"><ele>-2.7</ele><time>2012-05-02T14:30:14.0000000+00:00</time></trkpt><trkpt lat="42.465836" lon="18.685568"><ele>-2.7</ele><time>2012-05-02T14:30:19.0000000+00:00</time></trkpt><trkpt lat="42.465836" lon="18.685577"><ele>-2.7</ele><time>2012-05-02T14:30:24.0000000+00:00</time></trkpt><trkpt lat="42.465836" lon="18.685577"><ele>-2.5</ele><time>2012-05-02T14:30:29.0000000+00:00</time></trkpt><trkpt lat="42.465836" lon="18.685577"><ele>-2.4</ele><time>2012-05-02T14:30:34.0000000+00:00</time></trkpt><trkpt lat="42.465836" lon="18.685575"><ele>-2.4</ele><time>2012-05-02T14:30:39.0000000+00:00</time></trkpt><trkpt lat="42.465836" lon="18.685575"><ele>-2.5</ele><time>2012-05-02T14:30:44.0000000+00:00</time></trkpt><trkpt lat="42.465836" lon="18.685574"><ele>-2.5</ele><time>2012-05-02T14:30:49.0000000+00:00</time></trkpt><trkpt lat="42.465836" lon="18.685574"><ele>-2.5</ele><time>2012-05-02T14:30:54.0000000+00:00</time></trkpt><trkpt lat="42.465836" lon="18.685572"><ele>-2.5</ele><time>2012-05-02T14:30:59.0000000+00:00</time></trkpt><trkpt lat="42.465836" lon="18.685572"><ele>-2.5</ele><time>2012-05-02T14:31:04.0000000+00:00</time></trkpt><trkpt lat="42.465836" lon="18.685572"><ele>-2.5</ele><time>2012-05-02T14:31:09.0000000+00:00</time></trkpt><trkpt lat="42.465836" lon="18.685572"><ele>-2.5</ele><time>2012-05-02T14:31:14.0000000+00:00</time></trkpt><trkpt lat="42.465836" lon="18.685572"><ele>-2.5</ele><time>2012-05-02T14:31:19.0000000+00:00</time></trkpt><trkpt lat="42.465836" lon="18.685572"><ele>-2.5</ele><time>2012-05-02T14:31:24.0000000+00:00</time></trkpt><trkpt lat="42.465836" lon="18.685572"><ele>-2.4</ele><time>2012-05-02T14:31:29.0000000+00:00</time></trkpt><trkpt lat="42.465836" lon="18.685572"><ele>-2.4</ele><time>2012-05-02T14:31:34.0000000+00:00</time></trkpt><trkpt lat="42.465836" lon="18.685572"><ele>-2.4</ele><time>2012-05-02T14:31:39.0000000+00:00</time></trkpt><trkpt lat="42.465836" lon="18.685572"><ele>-2.4</ele><time>2012-05-02T14:31:44.0000000+00:00</time></trkpt><trkpt lat="42.465836" lon="18.685572"><ele>-2.5</ele><time>2012-05-02T14:31:49.0000000+00:00</time></trkpt><trkpt lat="42.465836" lon="18.685574"><ele>-2.5</ele><time>2012-05-02T14:31:54.0000000+00:00</time></trkpt><trkpt lat="42.465836" lon="18.685577"><ele>-2.5</ele><time>2012-05-02T14:31:59.0000000+00:00</time></trkpt><trkpt lat="42.465836" lon="18.685579"><ele>-2.5</ele><time>2012-05-02T14:32:04.0000000+00:00</time></trkpt><trkpt lat="42.465832" lon="18.685575"><ele>-2.5</ele><time>2012-05-02T14:32:09.0000000+00:00</time></trkpt><trkpt lat="42.465832" lon="18.685574"><ele>-2.5</ele><time>2012-05-02T14:32:14.0000000+00:00</time></trkpt><trkpt lat="42.465832" lon="18.685574"><ele>-2.5</ele><time>2012-05-02T14:32:19.0000000+00:00</time></trkpt><trkpt lat="42.465832" lon="18.685574"><ele>-2.5</ele><time>2012-05-02T14:32:24.0000000+00:00</time></trkpt><trkpt lat="42.465832" lon="18.685572"><ele>-2.4</ele><time>2012-05-02T14:32:29.0000000+00:00</time></trkpt><trkpt lat="42.465832" lon="18.685572"><ele>-2.4</ele><time>2012-05-02T14:32:34.0000000+00:00</time></trkpt><trkpt lat="42.465832" lon="18.685572"><ele>-2.4</ele><time>2012-05-02T14:32:39.0000000+00:00</time></trkpt><trkpt lat="42.465832" lon="18.685572"><ele>-2.4</ele><time>2012-05-02T14:32:44.0000000+00:00</time></trkpt><trkpt lat="42.465832" lon="18.685572"><ele>-2.4</ele><time>2012-05-02T14:32:49.0000000+00:00</time></trkpt><trkpt lat="42.465832" lon="18.68557"><ele>-2.4</ele><time>2012-05-02T14:32:54.0000000+00:00</time></trkpt><trkpt lat="42.465832" lon="18.68557"><ele>-2.4</ele><time>2012-05-02T14:32:59.0000000+00:00</time></trkpt><trkpt lat="42.465832" lon="18.68557"><ele>-2.4</ele><time>2012-05-02T14:33:04.0000000+00:00</time></trkpt><trkpt lat="42.465832" lon="18.68557"><ele>-2.4</ele><time>2012-05-02T14:33:09.0000000+00:00</time></trkpt><trkpt lat="42.465832" lon="18.68557"><ele>-2.4</ele><time>2012-05-02T14:33:14.0000000+00:00</time></trkpt><trkpt lat="42.465832" lon="18.68557"><ele>-2.3</ele><time>2012-05-02T14:33:19.0000000+00:00</time></trkpt><trkpt lat="42.465832" lon="18.685568"><ele>-2.3</ele><time>2012-05-02T14:33:24.0000000+00:00</time></trkpt><trkpt lat="42.465832" lon="18.685568"><ele>-2.3</ele><time>2012-05-02T14:33:29.0000000+00:00</time></trkpt><trkpt lat="42.465832" lon="18.685568"><ele>-2.3</ele><time>2012-05-02T14:33:34.0000000+00:00</time></trkpt><trkpt lat="42.465832" lon="18.685568"><ele>-2.3</ele><time>2012-05-02T14:33:39.0000000+00:00</time></trkpt><trkpt lat="42.465832" lon="18.685568"><ele>-2.3</ele><time>2012-05-02T14:33:44.0000000+00:00</time></trkpt><trkpt lat="42.465832" lon="18.685568"><ele>-2.3</ele><time>2012-05-02T14:33:49.0000000+00:00</time></trkpt><trkpt lat="42.465832" lon="18.685568"><ele>-2.2</ele><time>2012-05-02T14:33:54.0000000+00:00</time></trkpt><trkpt lat="42.465832" lon="18.685568"><ele>-2.2</ele><time>2012-05-02T14:33:59.0000000+00:00</time></trkpt><trkpt lat="42.465836" lon="18.685568"><ele>-2.2</ele><time>2012-05-02T14:34:04.0000000+00:00</time></trkpt><trkpt lat="42.465832" lon="18.685568"><ele>-2.2</ele><time>2012-05-02T14:34:09.0000000+00:00</time></trkpt><trkpt lat="42.465832" lon="18.685566"><ele>-2.2</ele><time>2012-05-02T14:34:14.0000000+00:00</time></trkpt><trkpt lat="42.465832" lon="18.685566"><ele>-2.2</ele><time>2012-05-02T14:34:19.0000000+00:00</time></trkpt><trkpt lat="42.465832" lon="18.685566"><ele>-2.2</ele><time>2012-05-02T14:34:24.0000000+00:00</time></trkpt><trkpt lat="42.465832" lon="18.685566"><ele>-2.2</ele><time>2012-05-02T14:34:29.0000000+00:00</time></trkpt><trkpt lat="42.465832" lon="18.685568"><ele>-2.2</ele><time>2012-05-02T14:34:34.0000000+00:00</time></trkpt><trkpt lat="42.465832" lon="18.685568"><ele>-2.2</ele><time>2012-05-02T14:34:39.0000000+00:00</time></trkpt><trkpt lat="42.465832" lon="18.685568"><ele>-2.2</ele><time>2012-05-02T14:34:44.0000000+00:00</time></trkpt><trkpt lat="42.465832" lon="18.685568"><ele>-2.2</ele><time>2012-05-02T14:34:49.0000000+00:00</time></trkpt><trkpt lat="42.465832" lon="18.685568"><ele>-2.2</ele><time>2012-05-02T14:34:54.0000000+00:00</time></trkpt><trkpt lat="42.465832" lon="18.685568"><ele>-2.2</ele><time>2012-05-02T14:34:59.0000000+00:00</time></trkpt><trkpt lat="42.465832" lon="18.685568"><ele>-2.2</ele><time>2012-05-02T14:35:04.0000000+00:00</time></trkpt><trkpt lat="42.465832" lon="18.685568"><ele>-2.2</ele><time>2012-05-02T14:35:09.0000000+00:00</time></trkpt><trkpt lat="42.465832" lon="18.685568"><ele>-2.2</ele><time>2012-05-02T14:35:14.0000000+00:00</time></trkpt><trkpt lat="42.465832" lon="18.685568"><ele>-2.2</ele><time>2012-05-02T14:35:19.0000000+00:00</time></trkpt><trkpt lat="42.465855" lon="18.685555"><ele>-2.1</ele><time>2012-05-02T14:35:24.0000000+00:00</time></trkpt><trkpt lat="42.465935" lon="18.685535"><ele>-1.8</ele><time>2012-05-02T14:35:29.0000000+00:00</time></trkpt><trkpt lat="42.466034" lon="18.685522"><ele>-1.3</ele><time>2012-05-02T14:35:34.0000000+00:00</time></trkpt><trkpt lat="42.466122" lon="18.685478"><ele>-0.6</ele><time>2012-05-02T14:35:39.0000000+00:00</time></trkpt><trkpt lat="42.466209" lon="18.685415"><ele>-0.2</ele><time>2012-05-02T14:35:44.0000000+00:00</time></trkpt><trkpt lat="42.466351" lon="18.685318"><ele>-1.5</ele><time>2012-05-02T14:35:49.0000000+00:00</time></trkpt><trkpt lat="42.466476" lon="18.685207"><ele>-0.3</ele><time>2012-05-02T14:35:54.0000000+00:00</time></trkpt><trkpt lat="42.466564" lon="18.685097"><ele>5.5</ele><time>2012-05-02T14:35:59.0000000+00:00</time></trkpt><trkpt lat="42.466671" lon="18.684977"><ele>6.2</ele><time>2012-05-02T14:36:04.0000000+00:00</time></trkpt><trkpt lat="42.466782" lon="18.684866"><ele>6.9</ele><time>2012-05-02T14:36:09.0000000+00:00</time></trkpt><trkpt lat="42.466885" lon="18.684713"><ele>3.0</ele><time>2012-05-02T14:36:14.0000000+00:00</time></trkpt><trkpt lat="42.466965" lon="18.684563"><ele>-1.9</ele><time>2012-05-02T14:36:19.0000000+00:00</time></trkpt><trkpt lat="42.467072" lon="18.684401"><ele>-1.6</ele><time>2012-05-02T14:36:24.0000000+00:00</time></trkpt><trkpt lat="42.467148" lon="18.684227"><ele>1.7</ele><time>2012-05-02T14:36:29.0000000+00:00</time></trkpt><trkpt lat="42.467224" lon="18.684048"><ele>4.6</ele><time>2012-05-02T14:36:34.0000000+00:00</time></trkpt><trkpt lat="42.467304" lon="18.683863"><ele>3.3</ele><time>2012-05-02T14:36:39.0000000+00:00</time></trkpt><trkpt lat="42.4674" lon="18.683636"><ele>1.7</ele><time>2012-05-02T14:36:44.0000000+00:00</time></trkpt><trkpt lat="42.467461" lon="18.683443"><ele>1.3</ele><time>2012-05-02T14:36:49.0000000+00:00</time></trkpt><trkpt lat="42.46748" lon="18.683241"><ele>-1.3</ele><time>2012-05-02T14:36:54.0000000+00:00</time></trkpt><trkpt lat="42.467472" lon="18.683046"><ele>-0.7</ele><time>2012-05-02T14:36:59.0000000+00:00</time></trkpt><trkpt lat="42.467476" lon="18.68285"><ele>0.5</ele><time>2012-05-02T14:37:04.0000000+00:00</time></trkpt><trkpt lat="42.467499" lon="18.682648"><ele>1.2</ele><time>2012-05-02T14:37:09.0000000+00:00</time></trkpt><trkpt lat="42.467525" lon="18.682426"><ele>3.8</ele><time>2012-05-02T14:37:14.0000000+00:00</time></trkpt><trkpt lat="42.467533" lon="18.682199"><ele>4.3</ele><time>2012-05-02T14:37:19.0000000+00:00</time></trkpt><trkpt lat="42.467537" lon="18.681978"><ele>3.3</ele><time>2012-05-02T14:37:24.0000000+00:00</time></trkpt><trkpt lat="42.467545" lon="18.68177"><ele>1.0</ele><time>2012-05-02T14:37:29.0000000+00:00</time></trkpt><trkpt lat="42.467567" lon="18.681561"><ele>1.0</ele><time>2012-05-02T14:37:34.0000000+00:00</time></trkpt><trkpt lat="42.467564" lon="18.681324"><ele>-0.1</ele><time>2012-05-02T14:37:39.0000000+00:00</time></trkpt><trkpt lat="42.467567" lon="18.681097"><ele>0.0</ele><time>2012-05-02T14:37:44.0000000+00:00</time></trkpt><trkpt lat="42.467552" lon="18.68087"><ele>-0.9</ele><time>2012-05-02T14:37:49.0000000+00:00</time></trkpt><trkpt lat="42.467548" lon="18.680651"><ele>-2.6</ele><time>2012-05-02T14:37:54.0000000+00:00</time></trkpt><trkpt lat="42.46751" lon="18.680445"><ele>-3.0</ele><time>2012-05-02T14:37:59.0000000+00:00</time></trkpt><trkpt lat="42.46748" lon="18.68022"><ele>-4.0</ele><time>2012-05-02T14:38:04.0000000+00:00</time></trkpt><trkpt lat="42.467453" lon="18.679979"><ele>-5.3</ele><time>2012-05-02T14:38:09.0000000+00:00</time></trkpt><trkpt lat="42.467468" lon="18.679794"><ele>-4.9</ele><time>2012-05-02T14:38:14.0000000+00:00</time></trkpt><trkpt lat="42.467442" lon="18.679579"><ele>-3.8</ele><time>2012-05-02T14:38:19.0000000+00:00</time></trkpt><trkpt lat="42.467403" lon="18.679382"><ele>-2.2</ele><time>2012-05-02T14:38:24.0000000+00:00</time></trkpt><trkpt lat="42.467361" lon="18.679173"><ele>-3.7</ele><time>2012-05-02T14:38:29.0000000+00:00</time></trkpt><trkpt lat="42.467346" lon="18.678968"><ele>-5.3</ele><time>2012-05-02T14:38:34.0000000+00:00</time></trkpt><trkpt lat="42.467312" lon="18.678772"><ele>-7.0</ele><time>2012-05-02T14:38:39.0000000+00:00</time></trkpt><trkpt lat="42.467278" lon="18.678581"><ele>-9.2</ele><time>2012-05-02T14:38:44.0000000+00:00</time></trkpt><trkpt lat="42.467266" lon="18.678383"><ele>-9.6</ele><time>2012-05-02T14:38:49.0000000+00:00</time></trkpt><trkpt lat="42.467224" lon="18.678173"><ele>-11.4</ele><time>2012-05-02T14:38:54.0000000+00:00</time></trkpt><trkpt lat="42.467186" lon="18.677963"><ele>-11.9</ele><time>2012-05-02T14:38:59.0000000+00:00</time></trkpt><trkpt lat="42.467125" lon="18.677742"><ele>-14.1</ele><time>2012-05-02T14:39:04.0000000+00:00</time></trkpt><trkpt lat="42.467098" lon="18.677519"><ele>-14.4</ele><time>2012-05-02T14:39:09.0000000+00:00</time></trkpt><trkpt lat="42.467041" lon="18.677309"><ele>-12.0</ele><time>2012-05-02T14:39:14.0000000+00:00</time></trkpt><trkpt lat="42.466991" lon="18.677101"><ele>-10.7</ele><time>2012-05-02T14:39:19.0000000+00:00</time></trkpt><trkpt lat="42.466949" lon="18.676884"><ele>-11.1</ele><time>2012-05-02T14:39:24.0000000+00:00</time></trkpt><trkpt lat="42.466911" lon="18.676704"><ele>-11.9</ele><time>2012-05-02T14:39:29.0000000+00:00</time></trkpt><trkpt lat="42.466858" lon="18.6765"><ele>-11.1</ele><time>2012-05-02T14:39:34.0000000+00:00</time></trkpt><trkpt lat="42.466785" lon="18.6763"><ele>-10.7</ele><time>2012-05-02T14:39:39.0000000+00:00</time></trkpt><trkpt lat="42.466743" lon="18.676113"><ele>-11.0</ele><time>2012-05-02T14:39:44.0000000+00:00</time></trkpt><trkpt lat="42.46669" lon="18.675938"><ele>-10.5</ele><time>2012-05-02T14:39:49.0000000+00:00</time></trkpt><trkpt lat="42.466618" lon="18.675694"><ele>-10.1</ele><time>2012-05-02T14:39:54.0000000+00:00</time></trkpt><trkpt lat="42.466568" lon="18.675526"><ele>-5.9</ele><time>2012-05-02T14:39:59.0000000+00:00</time></trkpt><trkpt lat="42.466549" lon="18.675341"><ele>-2.0</ele><time>2012-05-02T14:40:04.0000000+00:00</time></trkpt><trkpt lat="42.466534" lon="18.675171"><ele>-2.5</ele><time>2012-05-02T14:40:09.0000000+00:00</time></trkpt><trkpt lat="42.466522" lon="18.675041"><ele>-0.8</ele><time>2012-05-02T14:40:14.0000000+00:00</time></trkpt><trkpt lat="42.46653" lon="18.674931"><ele>-2.1</ele><time>2012-05-02T14:40:19.0000000+00:00</time></trkpt><trkpt lat="42.466515" lon="18.674856"><ele>-4.5</ele><time>2012-05-02T14:40:24.0000000+00:00</time></trkpt><trkpt lat="42.466537" lon="18.674812"><ele>-5.9</ele><time>2012-05-02T14:40:29.0000000+00:00</time></trkpt><trkpt lat="42.466545" lon="18.674763"><ele>-6.3</ele><time>2012-05-02T14:40:34.0000000+00:00</time></trkpt><trkpt lat="42.466553" lon="18.674726"><ele>-7.0</ele><time>2012-05-02T14:40:39.0000000+00:00</time></trkpt><trkpt lat="42.466553" lon="18.674706"><ele>-7.4</ele><time>2012-05-02T14:40:44.0000000+00:00</time></trkpt><trkpt lat="42.466545" lon="18.674698"><ele>-7.5</ele><time>2012-05-02T14:40:49.0000000+00:00</time></trkpt><trkpt lat="42.466537" lon="18.674692"><ele>-7.5</ele><time>2012-05-02T14:40:54.0000000+00:00</time></trkpt><trkpt lat="42.466534" lon="18.674686"><ele>-7.7</ele><time>2012-05-02T14:40:59.0000000+00:00</time></trkpt><trkpt lat="42.466534" lon="18.674688"><ele>-7.8</ele><time>2012-05-02T14:41:04.0000000+00:00</time></trkpt><trkpt lat="42.466537" lon="18.674692"><ele>-7.8</ele><time>2012-05-02T14:41:09.0000000+00:00</time></trkpt><trkpt lat="42.466537" lon="18.674692"><ele>-7.8</ele><time>2012-05-02T14:41:14.0000000+00:00</time></trkpt><trkpt lat="42.466537" lon="18.674696"><ele>-7.8</ele><time>2012-05-02T14:41:19.0000000+00:00</time></trkpt><trkpt lat="42.466541" lon="18.674706"><ele>-7.8</ele><time>2012-05-02T14:41:24.0000000+00:00</time></trkpt><trkpt lat="42.466541" lon="18.674707"><ele>-7.5</ele><time>2012-05-02T14:41:29.0000000+00:00</time></trkpt><trkpt lat="42.466545" lon="18.674713"><ele>-7.2</ele><time>2012-05-02T14:41:34.0000000+00:00</time></trkpt><trkpt lat="42.466549" lon="18.674713"><ele>-7.0</ele><time>2012-05-02T14:41:39.0000000+00:00</time></trkpt><trkpt lat="42.466545" lon="18.674707"><ele>-6.8</ele><time>2012-05-02T14:41:44.0000000+00:00</time></trkpt><trkpt lat="42.466541" lon="18.674698"><ele>-6.7</ele><time>2012-05-02T14:41:49.0000000+00:00</time></trkpt><trkpt lat="42.466549" lon="18.674694"><ele>-6.6</ele><time>2012-05-02T14:41:54.0000000+00:00</time></trkpt><trkpt lat="42.466557" lon="18.674677"><ele>-6.6</ele><time>2012-05-02T14:41:59.0000000+00:00</time></trkpt><trkpt lat="42.46656" lon="18.674658"><ele>-6.5</ele><time>2012-05-02T14:42:04.0000000+00:00</time></trkpt><trkpt lat="42.466583" lon="18.674627"><ele>-6.3</ele><time>2012-05-02T14:42:09.0000000+00:00</time></trkpt><trkpt lat="42.466629" lon="18.674574"><ele>-5.4</ele><time>2012-05-02T14:42:14.0000000+00:00</time></trkpt><trkpt lat="42.466694" lon="18.674486"><ele>-5.2</ele><time>2012-05-02T14:42:19.0000000+00:00</time></trkpt><trkpt lat="42.466702" lon="18.674442"><ele>-5.1</ele><time>2012-05-02T14:42:24.0000000+00:00</time></trkpt><trkpt lat="42.466732" lon="18.674379"><ele>-4.8</ele><time>2012-05-02T14:42:29.0000000+00:00</time></trkpt><trkpt lat="42.466667" lon="18.67417"><ele>-4.7</ele><time>2012-05-02T14:42:34.0000000+00:00</time></trkpt><trkpt lat="42.466572" lon="18.673941"><ele>-4.6</ele><time>2012-05-02T14:42:39.0000000+00:00</time></trkpt><trkpt lat="42.466484" lon="18.673738"><ele>-4.6</ele><time>2012-05-02T14:42:44.0000000+00:00</time></trkpt><trkpt lat="42.466362" lon="18.673502"><ele>-4.3</ele><time>2012-05-02T14:42:49.0000000+00:00</time></trkpt><trkpt lat="42.466164" lon="18.673365"><ele>-3.6</ele><time>2012-05-02T14:42:54.0000000+00:00</time></trkpt><trkpt lat="42.465984" lon="18.673321"><ele>-3.0</ele><time>2012-05-02T14:42:59.0000000+00:00</time></trkpt><trkpt lat="42.465816" lon="18.673376"><ele>-2.4</ele><time>2012-05-02T14:43:04.0000000+00:00</time></trkpt><trkpt lat="42.465603" lon="18.673393"><ele>-2.0</ele><time>2012-05-02T14:43:09.0000000+00:00</time></trkpt><trkpt lat="42.465504" lon="18.673382"><ele>-1.5</ele><time>2012-05-02T14:43:14.0000000+00:00</time></trkpt><trkpt lat="42.465492" lon="18.673363"><ele>-1.1</ele><time>2012-05-02T14:43:19.0000000+00:00</time></trkpt><trkpt lat="42.465488" lon="18.673363"><ele>-1.1</ele><time>2012-05-02T14:43:24.0000000+00:00</time></trkpt><trkpt lat="42.465496" lon="18.67338"><ele>-1.0</ele><time>2012-05-02T14:43:29.0000000+00:00</time></trkpt><trkpt lat="42.465591" lon="18.673372"><ele>-1.0</ele><time>2012-05-02T14:43:34.0000000+00:00</time></trkpt><trkpt lat="42.465618" lon="18.673323"><ele>-1.3</ele><time>2012-05-02T14:43:39.0000000+00:00</time></trkpt><trkpt lat="42.465603" lon="18.673334"><ele>-1.3</ele><time>2012-05-02T14:43:44.0000000+00:00</time></trkpt><trkpt lat="42.465595" lon="18.673338"><ele>-1.3</ele><time>2012-05-02T14:43:49.0000000+00:00</time></trkpt><trkpt lat="42.465588" lon="18.67334"><ele>-1.4</ele><time>2012-05-02T14:43:54.0000000+00:00</time></trkpt><trkpt lat="42.465588" lon="18.673336"><ele>-1.4</ele><time>2012-05-02T14:43:59.0000000+00:00</time></trkpt><trkpt lat="42.465588" lon="18.673336"><ele>-1.4</ele><time>2012-05-02T14:44:04.0000000+00:00</time></trkpt><trkpt lat="42.465588" lon="18.673336"><ele>-1.4</ele><time>2012-05-02T14:44:09.0000000+00:00</time></trkpt><trkpt lat="42.465588" lon="18.673336"><ele>-1.4</ele><time>2012-05-02T14:44:14.0000000+00:00</time></trkpt><trkpt lat="42.465588" lon="18.673336"><ele>-1.4</ele><time>2012-05-02T14:44:19.0000000+00:00</time></trkpt><trkpt lat="42.465588" lon="18.673336"><ele>-1.4</ele><time>2012-05-02T14:44:24.0000000+00:00</time></trkpt><trkpt lat="42.465588" lon="18.673336"><ele>-1.4</ele><time>2012-05-02T14:44:29.0000000+00:00</time></trkpt><trkpt lat="42.465588" lon="18.673338"><ele>-1.3</ele><time>2012-05-02T14:44:34.0000000+00:00</time></trkpt><trkpt lat="42.465588" lon="18.673338"><ele>-1.3</ele><time>2012-05-02T14:44:39.0000000+00:00</time></trkpt><trkpt lat="42.465588" lon="18.673338"><ele>-1.3</ele><time>2012-05-02T14:44:44.0000000+00:00</time></trkpt><trkpt lat="42.465588" lon="18.673338"><ele>-1.3</ele><time>2012-05-02T14:44:49.0000000+00:00</time></trkpt><trkpt lat="42.465588" lon="18.673338"><ele>-1.3</ele><time>2012-05-02T14:44:54.0000000+00:00</time></trkpt><trkpt lat="42.465588" lon="18.673338"><ele>-1.3</ele><time>2012-05-02T14:44:59.0000000+00:00</time></trkpt><trkpt lat="42.465588" lon="18.673338"><ele>-1.3</ele><time>2012-05-02T14:45:04.0000000+00:00</time></trkpt><trkpt lat="42.465588" lon="18.673338"><ele>-1.3</ele><time>2012-05-02T14:45:09.0000000+00:00</time></trkpt><trkpt lat="42.465584" lon="18.673338"><ele>-1.3</ele><time>2012-05-02T14:45:14.0000000+00:00</time></trkpt><trkpt lat="42.465584" lon="18.673338"><ele>-1.3</ele><time>2012-05-02T14:45:19.0000000+00:00</time></trkpt><trkpt lat="42.465584" lon="18.673338"><ele>-1.3</ele><time>2012-05-02T14:45:24.0000000+00:00</time></trkpt><trkpt lat="42.465584" lon="18.673338"><ele>-1.3</ele><time>2012-05-02T14:45:29.0000000+00:00</time></trkpt><trkpt lat="42.465584" lon="18.673338"><ele>-1.3</ele><time>2012-05-02T14:45:34.0000000+00:00</time></trkpt><trkpt lat="42.465584" lon="18.673336"><ele>-1.3</ele><time>2012-05-02T14:45:39.0000000+00:00</time></trkpt><trkpt lat="42.465584" lon="18.673336"><ele>-1.3</ele><time>2012-05-02T14:45:44.0000000+00:00</time></trkpt><trkpt lat="42.465584" lon="18.673336"><ele>-1.3</ele><time>2012-05-02T14:45:49.0000000+00:00</time></trkpt><trkpt lat="42.465584" lon="18.673336"><ele>-1.3</ele><time>2012-05-02T14:45:54.0000000+00:00</time></trkpt><trkpt lat="42.465584" lon="18.673336"><ele>-1.3</ele><time>2012-05-02T14:45:59.0000000+00:00</time></trkpt><trkpt lat="42.465584" lon="18.673336"><ele>-1.4</ele><time>2012-05-02T14:46:04.0000000+00:00</time></trkpt><trkpt lat="42.465584" lon="18.673336"><ele>-1.3</ele><time>2012-05-02T14:46:09.0000000+00:00</time></trkpt><trkpt lat="42.465584" lon="18.673336"><ele>-1.3</ele><time>2012-05-02T14:46:14.0000000+00:00</time></trkpt><trkpt lat="42.465584" lon="18.673336"><ele>-1.3</ele><time>2012-05-02T14:46:19.0000000+00:00</time></trkpt><trkpt lat="42.465584" lon="18.673336"><ele>-1.3</ele><time>2012-05-02T14:46:24.0000000+00:00</time></trkpt><trkpt lat="42.465584" lon="18.673336"><ele>-1.3</ele><time>2012-05-02T14:46:29.0000000+00:00</time></trkpt><trkpt lat="42.465584" lon="18.673336"><ele>-1.3</ele><time>2012-05-02T14:46:34.0000000+00:00</time></trkpt><trkpt lat="42.465584" lon="18.673336"><ele>-1.3</ele><time>2012-05-02T14:46:39.0000000+00:00</time></trkpt><trkpt lat="42.465584" lon="18.673336"><ele>-1.4</ele><time>2012-05-02T14:46:44.0000000+00:00</time></trkpt><trkpt lat="42.465584" lon="18.673336"><ele>-1.4</ele><time>2012-05-02T14:46:49.0000000+00:00</time></trkpt><trkpt lat="42.46558" lon="18.673336"><ele>-1.4</ele><time>2012-05-02T14:46:54.0000000+00:00</time></trkpt><trkpt lat="42.46558" lon="18.673338"><ele>-1.4</ele><time>2012-05-02T14:46:59.0000000+00:00</time></trkpt><trkpt lat="42.46558" lon="18.673338"><ele>-1.3</ele><time>2012-05-02T14:47:04.0000000+00:00</time></trkpt><trkpt lat="42.46558" lon="18.673338"><ele>-1.3</ele><time>2012-05-02T14:47:09.0000000+00:00</time></trkpt><trkpt lat="42.46558" lon="18.67334"><ele>-1.3</ele><time>2012-05-02T14:47:14.0000000+00:00</time></trkpt><trkpt lat="42.46558" lon="18.67334"><ele>-1.3</ele><time>2012-05-02T14:47:19.0000000+00:00</time></trkpt><trkpt lat="42.46558" lon="18.67334"><ele>-1.3</ele><time>2012-05-02T14:47:24.0000000+00:00</time></trkpt><trkpt lat="42.46558" lon="18.67334"><ele>-1.3</ele><time>2012-05-02T14:47:29.0000000+00:00</time></trkpt><trkpt lat="42.46558" lon="18.67334"><ele>-1.3</ele><time>2012-05-02T14:47:34.0000000+00:00</time></trkpt><trkpt lat="42.46558" lon="18.673342"><ele>-1.3</ele><time>2012-05-02T14:47:39.0000000+00:00</time></trkpt><trkpt lat="42.46558" lon="18.673342"><ele>-1.3</ele><time>2012-05-02T14:47:44.0000000+00:00</time></trkpt><trkpt lat="42.46558" lon="18.673342"><ele>-1.3</ele><time>2012-05-02T14:47:49.0000000+00:00</time></trkpt><trkpt lat="42.46558" lon="18.673342"><ele>-1.3</ele><time>2012-05-02T14:47:54.0000000+00:00</time></trkpt><trkpt lat="42.46558" lon="18.673344"><ele>-1.3</ele><time>2012-05-02T14:47:59.0000000+00:00</time></trkpt><trkpt lat="42.46558" lon="18.673344"><ele>-1.3</ele><time>2012-05-02T14:48:04.0000000+00:00</time></trkpt><trkpt lat="42.46558" lon="18.673344"><ele>-1.3</ele><time>2012-05-02T14:48:09.0000000+00:00</time></trkpt><trkpt lat="42.46558" lon="18.673344"><ele>-1.3</ele><time>2012-05-02T14:48:14.0000000+00:00</time></trkpt><trkpt lat="42.46558" lon="18.673346"><ele>-1.3</ele><time>2012-05-02T14:48:19.0000000+00:00</time></trkpt><trkpt lat="42.46558" lon="18.673346"><ele>-1.3</ele><time>2012-05-02T14:48:24.0000000+00:00</time></trkpt><trkpt lat="42.46558" lon="18.673346"><ele>-1.3</ele><time>2012-05-02T14:48:29.0000000+00:00</time></trkpt><trkpt lat="42.46558" lon="18.673346"><ele>-1.3</ele><time>2012-05-02T14:48:34.0000000+00:00</time></trkpt><trkpt lat="42.46558" lon="18.673346"><ele>-1.3</ele><time>2012-05-02T14:48:39.0000000+00:00</time></trkpt><trkpt lat="42.46558" lon="18.673346"><ele>-1.3</ele><time>2012-05-02T14:48:44.0000000+00:00</time></trkpt><trkpt lat="42.46558" lon="18.673346"><ele>-1.3</ele><time>2012-05-02T14:48:49.0000000+00:00</time></trkpt><trkpt lat="42.46558" lon="18.673344"><ele>-1.3</ele><time>2012-05-02T14:48:54.0000000+00:00</time></trkpt><trkpt lat="42.465557" lon="18.673336"><ele>-1.4</ele><time>2012-05-02T14:48:59.0000000+00:00</time></trkpt><trkpt lat="42.465515" lon="18.673378"><ele>-1.4</ele><time>2012-05-02T14:49:04.0000000+00:00</time></trkpt><trkpt lat="42.465405" lon="18.673435"><ele>-1.4</ele><time>2012-05-02T14:49:09.0000000+00:00</time></trkpt><trkpt lat="42.465218" lon="18.673424"><ele>-1.3</ele><time>2012-05-02T14:49:14.0000000+00:00</time></trkpt><trkpt lat="42.465012" lon="18.673445"><ele>-1.0</ele><time>2012-05-02T14:49:19.0000000+00:00</time></trkpt><trkpt lat="42.464672" lon="18.673416"><ele>-1.4</ele><time>2012-05-02T14:49:24.0000000+00:00</time></trkpt><trkpt lat="42.464447" lon="18.673426"><ele>-1.3</ele><time>2012-05-02T14:49:29.0000000+00:00</time></trkpt><trkpt lat="42.46423" lon="18.673428"><ele>-1.3</ele><time>2012-05-02T14:49:34.0000000+00:00</time></trkpt><trkpt lat="42.46402" lon="18.673447"><ele>-1.3</ele><time>2012-05-02T14:49:39.0000000+00:00</time></trkpt><trkpt lat="42.463799" lon="18.673479"><ele>-0.5</ele><time>2012-05-02T14:49:44.0000000+00:00</time></trkpt><trkpt lat="42.463593" lon="18.673429"><ele>0.5</ele><time>2012-05-02T14:49:49.0000000+00:00</time></trkpt><trkpt lat="42.463398" lon="18.673307"><ele>1.5</ele><time>2012-05-02T14:49:54.0000000+00:00</time></trkpt><trkpt lat="42.463207" lon="18.673166"><ele>2.8</ele><time>2012-05-02T14:49:59.0000000+00:00</time></trkpt><trkpt lat="42.463051" lon="18.67296"><ele>4.8</ele><time>2012-05-02T14:50:04.0000000+00:00</time></trkpt><trkpt lat="42.462803" lon="18.672882"><ele>3.1</ele><time>2012-05-02T14:50:09.0000000+00:00</time></trkpt><trkpt lat="42.462543" lon="18.672876"><ele>2.0</ele><time>2012-05-02T14:50:14.0000000+00:00</time></trkpt><trkpt lat="42.462269" lon="18.672951"><ele>1.1</ele><time>2012-05-02T14:50:19.0000000+00:00</time></trkpt><trkpt lat="42.461994" lon="18.673063"><ele>0.6</ele><time>2012-05-02T14:50:24.0000000+00:00</time></trkpt><trkpt lat="42.461735" lon="18.673279"><ele>0.7</ele><time>2012-05-02T14:50:29.0000000+00:00</time></trkpt><trkpt lat="42.461506" lon="18.673525"><ele>0.5</ele><time>2012-05-02T14:50:34.0000000+00:00</time></trkpt><trkpt lat="42.461288" lon="18.673742"><ele>0.5</ele><time>2012-05-02T14:50:39.0000000+00:00</time></trkpt><trkpt lat="42.461155" lon="18.674002"><ele>0.9</ele><time>2012-05-02T14:50:44.0000000+00:00</time></trkpt><trkpt lat="42.461048" lon="18.674267"><ele>0.6</ele><time>2012-05-02T14:50:49.0000000+00:00</time></trkpt><trkpt lat="42.460938" lon="18.674561"><ele>0.6</ele><time>2012-05-02T14:50:54.0000000+00:00</time></trkpt><trkpt lat="42.460823" lon="18.674856"><ele>-0.1</ele><time>2012-05-02T14:50:59.0000000+00:00</time></trkpt><trkpt lat="42.460655" lon="18.675142"><ele>-1.0</ele><time>2012-05-02T14:51:04.0000000+00:00</time></trkpt><trkpt lat="42.460442" lon="18.675377"><ele>-2.0</ele><time>2012-05-02T14:51:09.0000000+00:00</time></trkpt><trkpt lat="42.460205" lon="18.675512"><ele>-2.8</ele><time>2012-05-02T14:51:14.0000000+00:00</time></trkpt><trkpt lat="42.459934" lon="18.675547"><ele>-3.6</ele><time>2012-05-02T14:51:19.0000000+00:00</time></trkpt><trkpt lat="42.459671" lon="18.675413"><ele>-3.8</ele><time>2012-05-02T14:51:24.0000000+00:00</time></trkpt><trkpt lat="42.459526" lon="18.675154"><ele>-4.3</ele><time>2012-05-02T14:51:29.0000000+00:00</time></trkpt><trkpt lat="42.459496" lon="18.674829"><ele>-4.8</ele><time>2012-05-02T14:51:34.0000000+00:00</time></trkpt><trkpt lat="42.45945" lon="18.674469"><ele>-5.4</ele><time>2012-05-02T14:51:39.0000000+00:00</time></trkpt><trkpt lat="42.459404" lon="18.674074"><ele>-6.0</ele><time>2012-05-02T14:51:44.0000000+00:00</time></trkpt><trkpt lat="42.459408" lon="18.673714"><ele>-6.5</ele><time>2012-05-02T14:51:49.0000000+00:00</time></trkpt><trkpt lat="42.459446" lon="18.673382"><ele>-6.9</ele><time>2012-05-02T14:51:54.0000000+00:00</time></trkpt><trkpt lat="42.45948" lon="18.673033"><ele>-7.4</ele><time>2012-05-02T14:51:59.0000000+00:00</time></trkpt><trkpt lat="42.459503" lon="18.672678"><ele>-8.0</ele><time>2012-05-02T14:52:04.0000000+00:00</time></trkpt><trkpt lat="42.459473" lon="18.672331"><ele>-8.5</ele><time>2012-05-02T14:52:09.0000000+00:00</time></trkpt><trkpt lat="42.459412" lon="18.671986"><ele>-9.1</ele><time>2012-05-02T14:52:14.0000000+00:00</time></trkpt><trkpt lat="42.459335" lon="18.671686"><ele>-9.7</ele><time>2012-05-02T14:52:19.0000000+00:00</time></trkpt><trkpt lat="42.459312" lon="18.671324"><ele>-9.9</ele><time>2012-05-02T14:52:24.0000000+00:00</time></trkpt><trkpt lat="42.45924" lon="18.671022"><ele>-10.4</ele><time>2012-05-02T14:52:29.0000000+00:00</time></trkpt><trkpt lat="42.459164" lon="18.670689"><ele>-10.9</ele><time>2012-05-02T14:52:34.0000000+00:00</time></trkpt><trkpt lat="42.459034" lon="18.670385"><ele>-11.3</ele><time>2012-05-02T14:52:39.0000000+00:00</time></trkpt><trkpt lat="42.458851" lon="18.670094"><ele>-10.9</ele><time>2012-05-02T14:52:44.0000000+00:00</time></trkpt><trkpt lat="42.458656" lon="18.669828"><ele>-9.8</ele><time>2012-05-02T14:52:49.0000000+00:00</time></trkpt><trkpt lat="42.458527" lon="18.669613"><ele>-8.6</ele><time>2012-05-02T14:52:54.0000000+00:00</time></trkpt><trkpt lat="42.45842" lon="18.669598"><ele>-5.4</ele><time>2012-05-02T14:52:59.0000000+00:00</time></trkpt><trkpt lat="42.458275" lon="18.669643"><ele>-3.5</ele><time>2012-05-02T14:53:04.0000000+00:00</time></trkpt><trkpt lat="42.458149" lon="18.669514"><ele>-3.1</ele><time>2012-05-02T14:53:09.0000000+00:00</time></trkpt><trkpt lat="42.458065" lon="18.669365"><ele>-2.7</ele><time>2012-05-02T14:53:14.0000000+00:00</time></trkpt><trkpt lat="42.457996" lon="18.669249"><ele>-2.0</ele><time>2012-05-02T14:53:19.0000000+00:00</time></trkpt><trkpt lat="42.457947" lon="18.66913"><ele>-1.3</ele><time>2012-05-02T14:53:24.0000000+00:00</time></trkpt><trkpt lat="42.457882" lon="18.669073"><ele>-0.7</ele><time>2012-05-02T14:53:29.0000000+00:00</time></trkpt><trkpt lat="42.457806" lon="18.668928"><ele>0.1</ele><time>2012-05-02T14:53:34.0000000+00:00</time></trkpt><trkpt lat="42.457729" lon="18.668844"><ele>1.1</ele><time>2012-05-02T14:53:39.0000000+00:00</time></trkpt><trkpt lat="42.457703" lon="18.668819"><ele>2.0</ele><time>2012-05-02T14:53:44.0000000+00:00</time></trkpt><trkpt lat="42.457699" lon="18.668819"><ele>2.4</ele><time>2012-05-02T14:53:49.0000000+00:00</time></trkpt><trkpt lat="42.457703" lon="18.668821"><ele>2.5</ele><time>2012-05-02T14:53:54.0000000+00:00</time></trkpt><trkpt lat="42.457695" lon="18.668821"><ele>2.6</ele><time>2012-05-02T14:53:59.0000000+00:00</time></trkpt><trkpt lat="42.457687" lon="18.668821"><ele>2.6</ele><time>2012-05-02T14:54:04.0000000+00:00</time></trkpt><trkpt lat="42.457684" lon="18.668819"><ele>2.6</ele><time>2012-05-02T14:54:09.0000000+00:00</time></trkpt><trkpt lat="42.457684" lon="18.668818"><ele>2.6</ele><time>2012-05-02T14:54:14.0000000+00:00</time></trkpt><trkpt lat="42.457687" lon="18.668814"><ele>2.6</ele><time>2012-05-02T14:54:19.0000000+00:00</time></trkpt><trkpt lat="42.457695" lon="18.668808"><ele>2.6</ele><time>2012-05-02T14:54:24.0000000+00:00</time></trkpt><trkpt lat="42.457699" lon="18.6688"><ele>2.6</ele><time>2012-05-02T14:54:29.0000000+00:00</time></trkpt><trkpt lat="42.457706" lon="18.668797"><ele>2.6</ele><time>2012-05-02T14:54:34.0000000+00:00</time></trkpt><trkpt lat="42.457706" lon="18.668795"><ele>2.6</ele><time>2012-05-02T14:54:39.0000000+00:00</time></trkpt><trkpt lat="42.457706" lon="18.668791"><ele>2.7</ele><time>2012-05-02T14:54:44.0000000+00:00</time></trkpt><trkpt lat="42.457706" lon="18.668789"><ele>2.7</ele><time>2012-05-02T14:54:49.0000000+00:00</time></trkpt><trkpt lat="42.457684" lon="18.668772"><ele>2.7</ele><time>2012-05-02T14:54:54.0000000+00:00</time></trkpt><trkpt lat="42.457623" lon="18.668686"><ele>2.8</ele><time>2012-05-02T14:54:59.0000000+00:00</time></trkpt><trkpt lat="42.457569" lon="18.668564"><ele>2.5</ele><time>2012-05-02T14:55:04.0000000+00:00</time></trkpt><trkpt lat="42.457485" lon="18.668365"><ele>1.7</ele><time>2012-05-02T14:55:09.0000000+00:00</time></trkpt><trkpt lat="42.457344" lon="18.668173"><ele>1.3</ele><time>2012-05-02T14:55:14.0000000+00:00</time></trkpt><trkpt lat="42.457294" lon="18.667866"><ele>0.9</ele><time>2012-05-02T14:55:19.0000000+00:00</time></trkpt><trkpt lat="42.457249" lon="18.667505"><ele>2.0</ele><time>2012-05-02T14:55:24.0000000+00:00</time></trkpt><trkpt lat="42.457184" lon="18.667175"><ele>5.6</ele><time>2012-05-02T14:55:29.0000000+00:00</time></trkpt><trkpt lat="42.457119" lon="18.666828"><ele>8.2</ele><time>2012-05-02T14:55:34.0000000+00:00</time></trkpt><trkpt lat="42.457073" lon="18.666494"><ele>10.2</ele><time>2012-05-02T14:55:39.0000000+00:00</time></trkpt><trkpt lat="42.457039" lon="18.666195"><ele>12.0</ele><time>2012-05-02T14:55:44.0000000+00:00</time></trkpt><trkpt lat="42.456974" lon="18.665937"><ele>12.4</ele><time>2012-05-02T14:55:49.0000000+00:00</time></trkpt><trkpt lat="42.456886" lon="18.665648"><ele>13.2</ele><time>2012-05-02T14:55:54.0000000+00:00</time></trkpt><trkpt lat="42.45681" lon="18.665293"><ele>11.3</ele><time>2012-05-02T14:55:59.0000000+00:00</time></trkpt><trkpt lat="42.456741" lon="18.664972"><ele>12.4</ele><time>2012-05-02T14:56:04.0000000+00:00</time></trkpt><trkpt lat="42.456696" lon="18.664654"><ele>13.3</ele><time>2012-05-02T14:56:09.0000000+00:00</time></trkpt><trkpt lat="42.456619" lon="18.664328"><ele>13.4</ele><time>2012-05-02T14:56:14.0000000+00:00</time></trkpt><trkpt lat="42.456528" lon="18.664013"><ele>16.0</ele><time>2012-05-02T14:56:19.0000000+00:00</time></trkpt><trkpt lat="42.456467" lon="18.663872"><ele>17.4</ele><time>2012-05-02T14:56:24.0000000+00:00</time></trkpt><trkpt lat="42.456429" lon="18.663841"><ele>17.4</ele><time>2012-05-02T14:56:29.0000000+00:00</time></trkpt><trkpt lat="42.456425" lon="18.663834"><ele>17.7</ele><time>2012-05-02T14:56:34.0000000+00:00</time></trkpt><trkpt lat="42.456432" lon="18.663837"><ele>17.8</ele><time>2012-05-02T14:56:39.0000000+00:00</time></trkpt><trkpt lat="42.456448" lon="18.663841"><ele>17.9</ele><time>2012-05-02T14:56:44.0000000+00:00</time></trkpt><trkpt lat="42.456455" lon="18.663836"><ele>17.8</ele><time>2012-05-02T14:56:49.0000000+00:00</time></trkpt><trkpt lat="42.456463" lon="18.663828"><ele>17.8</ele><time>2012-05-02T14:56:54.0000000+00:00</time></trkpt><trkpt lat="42.456429" lon="18.663694"><ele>17.5</ele><time>2012-05-02T14:56:59.0000000+00:00</time></trkpt><trkpt lat="42.45636" lon="18.663456"><ele>15.2</ele><time>2012-05-02T14:57:04.0000000+00:00</time></trkpt><trkpt lat="42.45628" lon="18.663116"><ele>9.9</ele><time>2012-05-02T14:57:09.0000000+00:00</time></trkpt><trkpt lat="42.456192" lon="18.6628"><ele>7.3</ele><time>2012-05-02T14:57:14.0000000+00:00</time></trkpt><trkpt lat="42.456066" lon="18.662491"><ele>6.4</ele><time>2012-05-02T14:57:19.0000000+00:00</time></trkpt><trkpt lat="42.455906" lon="18.662205"><ele>6.7</ele><time>2012-05-02T14:57:24.0000000+00:00</time></trkpt><trkpt lat="42.455753" lon="18.661922"><ele>7.2</ele><time>2012-05-02T14:57:29.0000000+00:00</time></trkpt><trkpt lat="42.455608" lon="18.661673"><ele>5.7</ele><time>2012-05-02T14:57:34.0000000+00:00</time></trkpt><trkpt lat="42.455463" lon="18.661467"><ele>5.6</ele><time>2012-05-02T14:57:39.0000000+00:00</time></trkpt><trkpt lat="42.45528" lon="18.661238"><ele>5.6</ele><time>2012-05-02T14:57:44.0000000+00:00</time></trkpt><trkpt lat="42.455086" lon="18.66102"><ele>6.1</ele><time>2012-05-02T14:57:49.0000000+00:00</time></trkpt><trkpt lat="42.454899" lon="18.660816"><ele>8.4</ele><time>2012-05-02T14:57:54.0000000+00:00</time></trkpt><trkpt lat="42.454746" lon="18.660603"><ele>13.0</ele><time>2012-05-02T14:57:59.0000000+00:00</time></trkpt><trkpt lat="42.454575" lon="18.660378"><ele>14.0</ele><time>2012-05-02T14:58:04.0000000+00:00</time></trkpt><trkpt lat="42.454361" lon="18.660185"><ele>16.0</ele><time>2012-05-02T14:58:09.0000000+00:00</time></trkpt><trkpt lat="42.454163" lon="18.659954"><ele>17.9</ele><time>2012-05-02T14:58:14.0000000+00:00</time></trkpt><trkpt lat="42.453941" lon="18.659752"><ele>16.3</ele><time>2012-05-02T14:58:19.0000000+00:00</time></trkpt><trkpt lat="42.453732" lon="18.659542"><ele>13.8</ele><time>2012-05-02T14:58:24.0000000+00:00</time></trkpt><trkpt lat="42.453537" lon="18.65941"><ele>11.8</ele><time>2012-05-02T14:58:29.0000000+00:00</time></trkpt><trkpt lat="42.453339" lon="18.659187"><ele>12.8</ele><time>2012-05-02T14:58:34.0000000+00:00</time></trkpt><trkpt lat="42.453163" lon="18.65897"><ele>14.3</ele><time>2012-05-02T14:58:39.0000000+00:00</time></trkpt><trkpt lat="42.45298" lon="18.658743"><ele>14.2</ele><time>2012-05-02T14:58:44.0000000+00:00</time></trkpt><trkpt lat="42.452782" lon="18.658525"><ele>13.1</ele><time>2012-05-02T14:58:49.0000000+00:00</time></trkpt><trkpt lat="42.45261" lon="18.658356"><ele>15.9</ele><time>2012-05-02T14:58:54.0000000+00:00</time></trkpt><trkpt lat="42.452499" lon="18.658184"><ele>17.1</ele><time>2012-05-02T14:58:59.0000000+00:00</time></trkpt><trkpt lat="42.452415" lon="18.658121"><ele>13.7</ele><time>2012-05-02T14:59:04.0000000+00:00</time></trkpt><trkpt lat="42.452271" lon="18.658056"><ele>11.8</ele><time>2012-05-02T14:59:09.0000000+00:00</time></trkpt><trkpt lat="42.452091" lon="18.657999"><ele>8.6</ele><time>2012-05-02T14:59:14.0000000+00:00</time></trkpt><trkpt lat="42.451916" lon="18.65778"><ele>3.3</ele><time>2012-05-02T14:59:19.0000000+00:00</time></trkpt><trkpt lat="42.451759" lon="18.657516"><ele>4.7</ele><time>2012-05-02T14:59:24.0000000+00:00</time></trkpt><trkpt lat="42.45158" lon="18.657274"><ele>6.5</ele><time>2012-05-02T14:59:29.0000000+00:00</time></trkpt><trkpt lat="42.451431" lon="18.657015"><ele>2.8</ele><time>2012-05-02T14:59:34.0000000+00:00</time></trkpt><trkpt lat="42.451412" lon="18.65695"><ele>-0.1</ele><time>2012-05-02T14:59:39.0000000+00:00</time></trkpt><trkpt lat="42.451408" lon="18.656954"><ele>-0.1</ele><time>2012-05-02T14:59:44.0000000+00:00</time></trkpt><trkpt lat="42.451401" lon="18.65696"><ele>-0.0</ele><time>2012-05-02T14:59:49.0000000+00:00</time></trkpt><trkpt lat="42.451393" lon="18.656952"><ele>-0.1</ele><time>2012-05-02T14:59:54.0000000+00:00</time></trkpt><trkpt lat="42.451389" lon="18.656858"><ele>-0.1</ele><time>2012-05-02T14:59:59.0000000+00:00</time></trkpt><trkpt lat="42.451454" lon="18.656719"><ele>-1.7</ele><time>2012-05-02T15:00:04.0000000+00:00</time></trkpt><trkpt lat="42.451611" lon="18.656647"><ele>-2.5</ele><time>2012-05-02T15:00:09.0000000+00:00</time></trkpt><trkpt lat="42.451771" lon="18.656605"><ele>-1.4</ele><time>2012-05-02T15:00:14.0000000+00:00</time></trkpt><trkpt lat="42.451912" lon="18.656372"><ele>4.6</ele><time>2012-05-02T15:00:19.0000000+00:00</time></trkpt><trkpt lat="42.452076" lon="18.656137"><ele>3.8</ele><time>2012-05-02T15:00:24.0000000+00:00</time></trkpt><trkpt lat="42.452255" lon="18.655985"><ele>4.2</ele><time>2012-05-02T15:00:29.0000000+00:00</time></trkpt><trkpt lat="42.452438" lon="18.655821"><ele>4.5</ele><time>2012-05-02T15:00:34.0000000+00:00</time></trkpt><trkpt lat="42.452572" lon="18.655636"><ele>5.2</ele><time>2012-05-02T15:00:39.0000000+00:00</time></trkpt><trkpt lat="42.452698" lon="18.655439"><ele>6.3</ele><time>2012-05-02T15:00:44.0000000+00:00</time></trkpt><trkpt lat="42.452839" lon="18.655317"><ele>7.5</ele><time>2012-05-02T15:00:49.0000000+00:00</time></trkpt><trkpt lat="42.453037" lon="18.655201"><ele>9.5</ele><time>2012-05-02T15:00:54.0000000+00:00</time></trkpt><trkpt lat="42.453201" lon="18.655077"><ele>11.3</ele><time>2012-05-02T15:00:59.0000000+00:00</time></trkpt><trkpt lat="42.453331" lon="18.654932"><ele>12.4</ele><time>2012-05-02T15:01:04.0000000+00:00</time></trkpt><trkpt lat="42.45351" lon="18.654768"><ele>12.9</ele><time>2012-05-02T15:01:09.0000000+00:00</time></trkpt><trkpt lat="42.453682" lon="18.654642"><ele>14.0</ele><time>2012-05-02T15:01:14.0000000+00:00</time></trkpt><trkpt lat="42.453751" lon="18.654495"><ele>15.5</ele><time>2012-05-02T15:01:19.0000000+00:00</time></trkpt><trkpt lat="42.453747" lon="18.654404"><ele>18.3</ele><time>2012-05-02T15:01:24.0000000+00:00</time></trkpt><trkpt lat="42.453732" lon="18.654203"><ele>19.0</ele><time>2012-05-02T15:01:29.0000000+00:00</time></trkpt><trkpt lat="42.453671" lon="18.653942"><ele>18.5</ele><time>2012-05-02T15:01:34.0000000+00:00</time></trkpt><trkpt lat="42.453545" lon="18.653616"><ele>18.4</ele><time>2012-05-02T15:01:39.0000000+00:00</time></trkpt><trkpt lat="42.453369" lon="18.653345"><ele>19.0</ele><time>2012-05-02T15:01:44.0000000+00:00</time></trkpt><trkpt lat="42.453156" lon="18.653086"><ele>14.1</ele><time>2012-05-02T15:01:49.0000000+00:00</time></trkpt><trkpt lat="42.452919" lon="18.652885"><ele>13.2</ele><time>2012-05-02T15:01:54.0000000+00:00</time></trkpt><trkpt lat="42.452663" lon="18.652718"><ele>14.7</ele><time>2012-05-02T15:01:59.0000000+00:00</time></trkpt><trkpt lat="42.452385" lon="18.652538"><ele>13.2</ele><time>2012-05-02T15:02:04.0000000+00:00</time></trkpt><trkpt lat="42.452164" lon="18.652277"><ele>12.3</ele><time>2012-05-02T15:02:09.0000000+00:00</time></trkpt><trkpt lat="42.451954" lon="18.652031"><ele>11.8</ele><time>2012-05-02T15:02:14.0000000+00:00</time></trkpt><trkpt lat="42.451748" lon="18.651793"><ele>11.4</ele><time>2012-05-02T15:02:19.0000000+00:00</time></trkpt><trkpt lat="42.451565" lon="18.651566"><ele>11.9</ele><time>2012-05-02T15:02:24.0000000+00:00</time></trkpt><trkpt lat="42.451485" lon="18.651363"><ele>11.5</ele><time>2012-05-02T15:02:29.0000000+00:00</time></trkpt><trkpt lat="42.451401" lon="18.651308"><ele>10.2</ele><time>2012-05-02T15:02:34.0000000+00:00</time></trkpt><trkpt lat="42.45126" lon="18.651421"><ele>9.8</ele><time>2012-05-02T15:02:39.0000000+00:00</time></trkpt><trkpt lat="42.451115" lon="18.651476"><ele>10.0</ele><time>2012-05-02T15:02:44.0000000+00:00</time></trkpt><trkpt lat="42.450958" lon="18.65151"><ele>9.3</ele><time>2012-05-02T15:02:49.0000000+00:00</time></trkpt><trkpt lat="42.450809" lon="18.651484"><ele>9.4</ele><time>2012-05-02T15:02:54.0000000+00:00</time></trkpt><trkpt lat="42.450638" lon="18.65148"><ele>8.6</ele><time>2012-05-02T15:02:59.0000000+00:00</time></trkpt><trkpt lat="42.45047" lon="18.651419"><ele>8.1</ele><time>2012-05-02T15:03:04.0000000+00:00</time></trkpt><trkpt lat="42.450359" lon="18.651119"><ele>7.2</ele><time>2012-05-02T15:03:09.0000000+00:00</time></trkpt><trkpt lat="42.450264" lon="18.650764"><ele>6.4</ele><time>2012-05-02T15:03:14.0000000+00:00</time></trkpt><trkpt lat="42.450153" lon="18.650463"><ele>5.3</ele><time>2012-05-02T15:03:19.0000000+00:00</time></trkpt><trkpt lat="42.450066" lon="18.650167"><ele>4.7</ele><time>2012-05-02T15:03:24.0000000+00:00</time></trkpt><trkpt lat="42.449959" lon="18.649883"><ele>4.9</ele><time>2012-05-02T15:03:29.0000000+00:00</time></trkpt><trkpt lat="42.449871" lon="18.649591"><ele>5.0</ele><time>2012-05-02T15:03:34.0000000+00:00</time></trkpt><trkpt lat="42.449776" lon="18.649288"><ele>4.8</ele><time>2012-05-02T15:03:39.0000000+00:00</time></trkpt><trkpt lat="42.449638" lon="18.648973"><ele>6.4</ele><time>2012-05-02T15:03:44.0000000+00:00</time></trkpt><trkpt lat="42.449512" lon="18.648685"><ele>8.0</ele><time>2012-05-02T15:03:49.0000000+00:00</time></trkpt><trkpt lat="42.449387" lon="18.648409"><ele>9.6</ele><time>2012-05-02T15:03:54.0000000+00:00</time></trkpt><trkpt lat="42.449234" lon="18.648157"><ele>10.8</ele><time>2012-05-02T15:03:59.0000000+00:00</time></trkpt><trkpt lat="42.449135" lon="18.647839"><ele>10.8</ele><time>2012-05-02T15:04:04.0000000+00:00</time></trkpt><trkpt lat="42.448963" lon="18.647556"><ele>10.4</ele><time>2012-05-02T15:04:09.0000000+00:00</time></trkpt><trkpt lat="42.44878" lon="18.64732"><ele>10.0</ele><time>2012-05-02T15:04:14.0000000+00:00</time></trkpt><trkpt lat="42.448559" lon="18.647131"><ele>8.8</ele><time>2012-05-02T15:04:19.0000000+00:00</time></trkpt><trkpt lat="42.448395" lon="18.646921"><ele>7.4</ele><time>2012-05-02T15:04:24.0000000+00:00</time></trkpt><trkpt lat="42.44828" lon="18.646702"><ele>6.5</ele><time>2012-05-02T15:04:29.0000000+00:00</time></trkpt><trkpt lat="42.448185" lon="18.646395"><ele>5.2</ele><time>2012-05-02T15:04:34.0000000+00:00</time></trkpt><trkpt lat="42.44812" lon="18.646061"><ele>3.7</ele><time>2012-05-02T15:04:39.0000000+00:00</time></trkpt><trkpt lat="42.448044" lon="18.645733"><ele>2.5</ele><time>2012-05-02T15:04:44.0000000+00:00</time></trkpt><trkpt lat="42.44791" lon="18.645435"><ele>2.0</ele><time>2012-05-02T15:04:49.0000000+00:00</time></trkpt><trkpt lat="42.447762" lon="18.645123"><ele>1.6</ele><time>2012-05-02T15:04:54.0000000+00:00</time></trkpt><trkpt lat="42.447598" lon="18.644878"><ele>1.3</ele><time>2012-05-02T15:04:59.0000000+00:00</time></trkpt><trkpt lat="42.447464" lon="18.644615"><ele>1.1</ele><time>2012-05-02T15:05:04.0000000+00:00</time></trkpt><trkpt lat="42.447315" lon="18.644316"><ele>1.0</ele><time>2012-05-02T15:05:09.0000000+00:00</time></trkpt><trkpt lat="42.44714" lon="18.644022"><ele>0.7</ele><time>2012-05-02T15:05:14.0000000+00:00</time></trkpt><trkpt lat="42.446949" lon="18.643703"><ele>0.2</ele><time>2012-05-02T15:05:19.0000000+00:00</time></trkpt><trkpt lat="42.446774" lon="18.6434"><ele>-0.8</ele><time>2012-05-02T15:05:24.0000000+00:00</time></trkpt><trkpt lat="42.446564" lon="18.643114"><ele>0.1</ele><time>2012-05-02T15:05:29.0000000+00:00</time></trkpt><trkpt lat="42.446388" lon="18.642807"><ele>0.4</ele><time>2012-05-02T15:05:34.0000000+00:00</time></trkpt><trkpt lat="42.446205" lon="18.64253"><ele>-0.2</ele><time>2012-05-02T15:05:39.0000000+00:00</time></trkpt><trkpt lat="42.446026" lon="18.642229"><ele>-1.0</ele><time>2012-05-02T15:05:44.0000000+00:00</time></trkpt><trkpt lat="42.445843" lon="18.641949"><ele>-1.8</ele><time>2012-05-02T15:05:49.0000000+00:00</time></trkpt><trkpt lat="42.445679" lon="18.641663"><ele>-1.8</ele><time>2012-05-02T15:05:54.0000000+00:00</time></trkpt><trkpt lat="42.445499" lon="18.641376"><ele>-3.2</ele><time>2012-05-02T15:05:59.0000000+00:00</time></trkpt><trkpt lat="42.445316" lon="18.641123"><ele>-3.9</ele><time>2012-05-02T15:06:04.0000000+00:00</time></trkpt><trkpt lat="42.445107" lon="18.640894"><ele>-4.6</ele><time>2012-05-02T15:06:09.0000000+00:00</time></trkpt><trkpt lat="42.444935" lon="18.640648"><ele>-2.4</ele><time>2012-05-02T15:06:14.0000000+00:00</time></trkpt><trkpt lat="42.444782" lon="18.640356"><ele>-2.7</ele><time>2012-05-02T15:06:19.0000000+00:00</time></trkpt><trkpt lat="42.444595" lon="18.640091"><ele>-2.0</ele><time>2012-05-02T15:06:24.0000000+00:00</time></trkpt><trkpt lat="42.444412" lon="18.639812"><ele>-2.5</ele><time>2012-05-02T15:06:29.0000000+00:00</time></trkpt><trkpt lat="42.444237" lon="18.639515"><ele>-2.6</ele><time>2012-05-02T15:06:34.0000000+00:00</time></trkpt><trkpt lat="42.444092" lon="18.639231"><ele>-1.9</ele><time>2012-05-02T15:06:39.0000000+00:00</time></trkpt><trkpt lat="42.443981" lon="18.638935"><ele>-0.7</ele><time>2012-05-02T15:06:44.0000000+00:00</time></trkpt><trkpt lat="42.443928" lon="18.638624"><ele>-0.5</ele><time>2012-05-02T15:06:49.0000000+00:00</time></trkpt><trkpt lat="42.443859" lon="18.638288"><ele>-0.4</ele><time>2012-05-02T15:06:54.0000000+00:00</time></trkpt><trkpt lat="42.443794" lon="18.637991"><ele>-0.8</ele><time>2012-05-02T15:06:59.0000000+00:00</time></trkpt><trkpt lat="42.443703" lon="18.637695"><ele>-1.4</ele><time>2012-05-02T15:07:04.0000000+00:00</time></trkpt><trkpt lat="42.443581" lon="18.637419"><ele>0.2</ele><time>2012-05-02T15:07:09.0000000+00:00</time></trkpt><trkpt lat="42.443443" lon="18.637142"><ele>0.8</ele><time>2012-05-02T15:07:14.0000000+00:00</time></trkpt><trkpt lat="42.443359" lon="18.636889"><ele>2.0</ele><time>2012-05-02T15:07:19.0000000+00:00</time></trkpt><trkpt lat="42.443298" lon="18.636553"><ele>1.9</ele><time>2012-05-02T15:07:24.0000000+00:00</time></trkpt><trkpt lat="42.443226" lon="18.636202"><ele>3.0</ele><time>2012-05-02T15:07:29.0000000+00:00</time></trkpt><trkpt lat="42.443218" lon="18.635847"><ele>3.7</ele><time>2012-05-02T15:07:34.0000000+00:00</time></trkpt><trkpt lat="42.443123" lon="18.635567"><ele>5.0</ele><time>2012-05-02T15:07:39.0000000+00:00</time></trkpt><trkpt lat="42.443024" lon="18.635292"><ele>5.4</ele><time>2012-05-02T15:07:44.0000000+00:00</time></trkpt><trkpt lat="42.442951" lon="18.634966"><ele>5.4</ele><time>2012-05-02T15:07:49.0000000+00:00</time></trkpt><trkpt lat="42.442921" lon="18.634706"><ele>6.3</ele><time>2012-05-02T15:07:54.0000000+00:00</time></trkpt><trkpt lat="42.442886" lon="18.634615"><ele>4.8</ele><time>2012-05-02T15:07:59.0000000+00:00</time></trkpt><trkpt lat="42.442875" lon="18.634596"><ele>4.1</ele><time>2012-05-02T15:08:04.0000000+00:00</time></trkpt><trkpt lat="42.442863" lon="18.634592"><ele>4.0</ele><time>2012-05-02T15:08:09.0000000+00:00</time></trkpt><trkpt lat="42.44286" lon="18.634573"><ele>3.7</ele><time>2012-05-02T15:08:14.0000000+00:00</time></trkpt><trkpt lat="42.44286" lon="18.634571"><ele>3.7</ele><time>2012-05-02T15:08:19.0000000+00:00</time></trkpt><trkpt lat="42.442863" lon="18.634573"><ele>3.7</ele><time>2012-05-02T15:08:24.0000000+00:00</time></trkpt><trkpt lat="42.442863" lon="18.634573"><ele>3.7</ele><time>2012-05-02T15:08:29.0000000+00:00</time></trkpt><trkpt lat="42.442863" lon="18.634573"><ele>3.7</ele><time>2012-05-02T15:08:34.0000000+00:00</time></trkpt><trkpt lat="42.442863" lon="18.634573"><ele>3.7</ele><time>2012-05-02T15:08:39.0000000+00:00</time></trkpt><trkpt lat="42.442863" lon="18.634571"><ele>3.8</ele><time>2012-05-02T15:08:44.0000000+00:00</time></trkpt><trkpt lat="42.442863" lon="18.634571"><ele>3.8</ele><time>2012-05-02T15:08:49.0000000+00:00</time></trkpt><trkpt lat="42.442863" lon="18.634571"><ele>3.8</ele><time>2012-05-02T15:08:54.0000000+00:00</time></trkpt><trkpt lat="42.442863" lon="18.634571"><ele>3.8</ele><time>2012-05-02T15:08:59.0000000+00:00</time></trkpt><trkpt lat="42.442863" lon="18.634571"><ele>3.8</ele><time>2012-05-02T15:09:04.0000000+00:00</time></trkpt><trkpt lat="42.44286" lon="18.634569"><ele>3.8</ele><time>2012-05-02T15:09:09.0000000+00:00</time></trkpt><trkpt lat="42.442863" lon="18.634569"><ele>3.8</ele><time>2012-05-02T15:09:14.0000000+00:00</time></trkpt><trkpt lat="42.442863" lon="18.634569"><ele>3.8</ele><time>2012-05-02T15:09:19.0000000+00:00</time></trkpt><trkpt lat="42.442863" lon="18.634569"><ele>3.8</ele><time>2012-05-02T15:09:24.0000000+00:00</time></trkpt><trkpt lat="42.442863" lon="18.634569"><ele>3.8</ele><time>2012-05-02T15:09:29.0000000+00:00</time></trkpt><trkpt lat="42.442863" lon="18.634569"><ele>3.9</ele><time>2012-05-02T15:09:34.0000000+00:00</time></trkpt><trkpt lat="42.442863" lon="18.634569"><ele>3.8</ele><time>2012-05-02T15:09:39.0000000+00:00</time></trkpt><trkpt lat="42.442863" lon="18.634569"><ele>3.8</ele><time>2012-05-02T15:09:44.0000000+00:00</time></trkpt><trkpt lat="42.442863" lon="18.634569"><ele>3.8</ele><time>2012-05-02T15:09:49.0000000+00:00</time></trkpt><trkpt lat="42.442863" lon="18.634569"><ele>3.8</ele><time>2012-05-02T15:09:54.0000000+00:00</time></trkpt><trkpt lat="42.44286" lon="18.634569"><ele>3.8</ele><time>2012-05-02T15:09:59.0000000+00:00</time></trkpt><trkpt lat="42.44286" lon="18.634569"><ele>3.8</ele><time>2012-05-02T15:10:04.0000000+00:00</time></trkpt><trkpt lat="42.44286" lon="18.634569"><ele>3.8</ele><time>2012-05-02T15:10:09.0000000+00:00</time></trkpt><trkpt lat="42.44286" lon="18.634569"><ele>3.8</ele><time>2012-05-02T15:10:14.0000000+00:00</time></trkpt><trkpt lat="42.44286" lon="18.634569"><ele>3.8</ele><time>2012-05-02T15:10:19.0000000+00:00</time></trkpt><trkpt lat="42.44286" lon="18.634569"><ele>3.8</ele><time>2012-05-02T15:10:24.0000000+00:00</time></trkpt><trkpt lat="42.44286" lon="18.634567"><ele>3.8</ele><time>2012-05-02T15:10:29.0000000+00:00</time></trkpt><trkpt lat="42.44286" lon="18.634567"><ele>3.8</ele><time>2012-05-02T15:10:34.0000000+00:00</time></trkpt><trkpt lat="42.44286" lon="18.634567"><ele>3.8</ele><time>2012-05-02T15:10:39.0000000+00:00</time></trkpt><trkpt lat="42.44286" lon="18.634567"><ele>3.7</ele><time>2012-05-02T15:10:44.0000000+00:00</time></trkpt><trkpt lat="42.44286" lon="18.634567"><ele>3.7</ele><time>2012-05-02T15:10:49.0000000+00:00</time></trkpt><trkpt lat="42.442856" lon="18.634567"><ele>3.7</ele><time>2012-05-02T15:10:54.0000000+00:00</time></trkpt><trkpt lat="42.442856" lon="18.634567"><ele>3.7</ele><time>2012-05-02T15:10:59.0000000+00:00</time></trkpt><trkpt lat="42.442856" lon="18.634567"><ele>3.6</ele><time>2012-05-02T15:11:04.0000000+00:00</time></trkpt><trkpt lat="42.442856" lon="18.634567"><ele>3.7</ele><time>2012-05-02T15:11:09.0000000+00:00</time></trkpt><trkpt lat="42.442856" lon="18.634565"><ele>3.7</ele><time>2012-05-02T15:11:14.0000000+00:00</time></trkpt><trkpt lat="42.442856" lon="18.634565"><ele>3.7</ele><time>2012-05-02T15:11:19.0000000+00:00</time></trkpt><trkpt lat="42.442856" lon="18.634565"><ele>3.7</ele><time>2012-05-02T15:11:24.0000000+00:00</time></trkpt><trkpt lat="42.442856" lon="18.634565"><ele>3.7</ele><time>2012-05-02T15:11:29.0000000+00:00</time></trkpt><trkpt lat="42.442856" lon="18.634563"><ele>3.7</ele><time>2012-05-02T15:11:34.0000000+00:00</time></trkpt><trkpt lat="42.442856" lon="18.634563"><ele>3.7</ele><time>2012-05-02T15:11:39.0000000+00:00</time></trkpt><trkpt lat="42.442856" lon="18.634563"><ele>3.6</ele><time>2012-05-02T15:11:44.0000000+00:00</time></trkpt><trkpt lat="42.442856" lon="18.634563"><ele>3.6</ele><time>2012-05-02T15:11:49.0000000+00:00</time></trkpt><trkpt lat="42.442852" lon="18.634563"><ele>3.7</ele><time>2012-05-02T15:11:54.0000000+00:00</time></trkpt><trkpt lat="42.442852" lon="18.634562"><ele>3.7</ele><time>2012-05-02T15:11:59.0000000+00:00</time></trkpt><trkpt lat="42.442852" lon="18.634562"><ele>3.7</ele><time>2012-05-02T15:12:04.0000000+00:00</time></trkpt><trkpt lat="42.442852" lon="18.634562"><ele>3.8</ele><time>2012-05-02T15:12:09.0000000+00:00</time></trkpt><trkpt lat="42.442852" lon="18.63456"><ele>3.8</ele><time>2012-05-02T15:12:14.0000000+00:00</time></trkpt><trkpt lat="42.442852" lon="18.63456"><ele>3.7</ele><time>2012-05-02T15:12:19.0000000+00:00</time></trkpt><trkpt lat="42.442852" lon="18.63456"><ele>3.7</ele><time>2012-05-02T15:12:24.0000000+00:00</time></trkpt><trkpt lat="42.442852" lon="18.63456"><ele>3.7</ele><time>2012-05-02T15:12:29.0000000+00:00</time></trkpt><trkpt lat="42.442852" lon="18.63456"><ele>3.7</ele><time>2012-05-02T15:12:34.0000000+00:00</time></trkpt><trkpt lat="42.442852" lon="18.634558"><ele>3.8</ele><time>2012-05-02T15:12:39.0000000+00:00</time></trkpt><trkpt lat="42.442852" lon="18.634558"><ele>3.8</ele><time>2012-05-02T15:12:44.0000000+00:00</time></trkpt><trkpt lat="42.442852" lon="18.634558"><ele>3.7</ele><time>2012-05-02T15:12:49.0000000+00:00</time></trkpt><trkpt lat="42.442852" lon="18.634558"><ele>3.7</ele><time>2012-05-02T15:12:54.0000000+00:00</time></trkpt><trkpt lat="42.442852" lon="18.634558"><ele>3.7</ele><time>2012-05-02T15:12:59.0000000+00:00</time></trkpt><trkpt lat="42.442852" lon="18.634558"><ele>3.7</ele><time>2012-05-02T15:13:04.0000000+00:00</time></trkpt><trkpt lat="42.442852" lon="18.634556"><ele>3.7</ele><time>2012-05-02T15:13:09.0000000+00:00</time></trkpt><trkpt lat="42.442852" lon="18.634556"><ele>3.7</ele><time>2012-05-02T15:13:14.0000000+00:00</time></trkpt><trkpt lat="42.442852" lon="18.634556"><ele>3.8</ele><time>2012-05-02T15:13:19.0000000+00:00</time></trkpt><trkpt lat="42.442852" lon="18.634556"><ele>3.8</ele><time>2012-05-02T15:13:24.0000000+00:00</time></trkpt><trkpt lat="42.442852" lon="18.634556"><ele>3.7</ele><time>2012-05-02T15:13:29.0000000+00:00</time></trkpt><trkpt lat="42.442852" lon="18.634556"><ele>3.7</ele><time>2012-05-02T15:13:34.0000000+00:00</time></trkpt><trkpt lat="42.442852" lon="18.634554"><ele>3.7</ele><time>2012-05-02T15:13:39.0000000+00:00</time></trkpt><trkpt lat="42.442852" lon="18.634554"><ele>3.7</ele><time>2012-05-02T15:13:44.0000000+00:00</time></trkpt><trkpt lat="42.442852" lon="18.634554"><ele>3.7</ele><time>2012-05-02T15:13:49.0000000+00:00</time></trkpt><trkpt lat="42.442852" lon="18.634554"><ele>3.7</ele><time>2012-05-02T15:13:54.0000000+00:00</time></trkpt><trkpt lat="42.442852" lon="18.634554"><ele>3.7</ele><time>2012-05-02T15:13:59.0000000+00:00</time></trkpt><trkpt lat="42.442852" lon="18.634554"><ele>3.8</ele><time>2012-05-02T15:14:04.0000000+00:00</time></trkpt><trkpt lat="42.442852" lon="18.634554"><ele>3.7</ele><time>2012-05-02T15:14:09.0000000+00:00</time></trkpt><trkpt lat="42.442852" lon="18.634552"><ele>3.7</ele><time>2012-05-02T15:14:14.0000000+00:00</time></trkpt><trkpt lat="42.442852" lon="18.634552"><ele>3.7</ele><time>2012-05-02T15:14:19.0000000+00:00</time></trkpt><trkpt lat="42.442852" lon="18.634552"><ele>3.7</ele><time>2012-05-02T15:14:24.0000000+00:00</time></trkpt><trkpt lat="42.442852" lon="18.634552"><ele>3.7</ele><time>2012-05-02T15:14:29.0000000+00:00</time></trkpt><trkpt lat="42.442852" lon="18.634552"><ele>3.7</ele><time>2012-05-02T15:14:34.0000000+00:00</time></trkpt><trkpt lat="42.442852" lon="18.634552"><ele>3.7</ele><time>2012-05-02T15:14:39.0000000+00:00</time></trkpt><trkpt lat="42.442852" lon="18.634552"><ele>3.7</ele><time>2012-05-02T15:14:44.0000000+00:00</time></trkpt><trkpt lat="42.442852" lon="18.63455"><ele>3.7</ele><time>2012-05-02T15:14:49.0000000+00:00</time></trkpt><trkpt lat="42.442852" lon="18.63455"><ele>3.7</ele><time>2012-05-02T15:14:54.0000000+00:00</time></trkpt><trkpt lat="42.442852" lon="18.63455"><ele>3.7</ele><time>2012-05-02T15:14:59.0000000+00:00</time></trkpt><trkpt lat="42.442852" lon="18.63455"><ele>3.6</ele><time>2012-05-02T15:15:04.0000000+00:00</time></trkpt><trkpt lat="42.442852" lon="18.63455"><ele>3.6</ele><time>2012-05-02T15:15:09.0000000+00:00</time></trkpt><trkpt lat="42.442852" lon="18.63455"><ele>3.6</ele><time>2012-05-02T15:15:14.0000000+00:00</time></trkpt><trkpt lat="42.442852" lon="18.63455"><ele>3.7</ele><time>2012-05-02T15:15:19.0000000+00:00</time></trkpt><trkpt lat="42.442852" lon="18.63455"><ele>3.7</ele><time>2012-05-02T15:15:24.0000000+00:00</time></trkpt><trkpt lat="42.442852" lon="18.63455"><ele>3.7</ele><time>2012-05-02T15:15:29.0000000+00:00</time></trkpt><trkpt lat="42.442852" lon="18.63455"><ele>3.7</ele><time>2012-05-02T15:15:34.0000000+00:00</time></trkpt><trkpt lat="42.442852" lon="18.63455"><ele>3.7</ele><time>2012-05-02T15:15:39.0000000+00:00</time></trkpt><trkpt lat="42.442852" lon="18.63455"><ele>3.7</ele><time>2012-05-02T15:15:44.0000000+00:00</time></trkpt><trkpt lat="42.442852" lon="18.63455"><ele>3.7</ele><time>2012-05-02T15:15:49.0000000+00:00</time></trkpt><trkpt lat="42.442852" lon="18.634548"><ele>3.6</ele><time>2012-05-02T15:15:54.0000000+00:00</time></trkpt><trkpt lat="42.442852" lon="18.634548"><ele>3.6</ele><time>2012-05-02T15:15:59.0000000+00:00</time></trkpt><trkpt lat="42.442852" lon="18.634548"><ele>3.6</ele><time>2012-05-02T15:16:04.0000000+00:00</time></trkpt><trkpt lat="42.442852" lon="18.634548"><ele>3.7</ele><time>2012-05-02T15:16:09.0000000+00:00</time></trkpt><trkpt lat="42.442852" lon="18.634548"><ele>3.7</ele><time>2012-05-02T15:16:14.0000000+00:00</time></trkpt><trkpt lat="42.442852" lon="18.634548"><ele>3.7</ele><time>2012-05-02T15:16:19.0000000+00:00</time></trkpt><trkpt lat="42.442852" lon="18.634548"><ele>3.6</ele><time>2012-05-02T15:16:24.0000000+00:00</time></trkpt><trkpt lat="42.442852" lon="18.634548"><ele>3.6</ele><time>2012-05-02T15:16:29.0000000+00:00</time></trkpt><trkpt lat="42.442852" lon="18.634548"><ele>3.6</ele><time>2012-05-02T15:16:34.0000000+00:00</time></trkpt><trkpt lat="42.442852" lon="18.634548"><ele>3.6</ele><time>2012-05-02T15:16:39.0000000+00:00</time></trkpt><trkpt lat="42.442852" lon="18.634546"><ele>3.6</ele><time>2012-05-02T15:16:44.0000000+00:00</time></trkpt><trkpt lat="42.442852" lon="18.634546"><ele>3.7</ele><time>2012-05-02T15:16:49.0000000+00:00</time></trkpt><trkpt lat="42.442852" lon="18.634546"><ele>3.7</ele><time>2012-05-02T15:16:54.0000000+00:00</time></trkpt><trkpt lat="42.442852" lon="18.634546"><ele>3.7</ele><time>2012-05-02T15:16:59.0000000+00:00</time></trkpt><trkpt lat="42.442852" lon="18.634546"><ele>3.7</ele><time>2012-05-02T15:17:04.0000000+00:00</time></trkpt><trkpt lat="42.442852" lon="18.634546"><ele>3.7</ele><time>2012-05-02T15:17:09.0000000+00:00</time></trkpt><trkpt lat="42.442852" lon="18.634546"><ele>3.6</ele><time>2012-05-02T15:17:14.0000000+00:00</time></trkpt><trkpt lat="42.442852" lon="18.634546"><ele>3.6</ele><time>2012-05-02T15:17:19.0000000+00:00</time></trkpt><trkpt lat="42.442852" lon="18.634546"><ele>3.6</ele><time>2012-05-02T15:17:24.0000000+00:00</time></trkpt><trkpt lat="42.442852" lon="18.634546"><ele>3.6</ele><time>2012-05-02T15:17:29.0000000+00:00</time></trkpt><trkpt lat="42.442852" lon="18.634546"><ele>3.6</ele><time>2012-05-02T15:17:34.0000000+00:00</time></trkpt><trkpt lat="42.442852" lon="18.634546"><ele>3.6</ele><time>2012-05-02T15:17:39.0000000+00:00</time></trkpt><trkpt lat="42.442852" lon="18.634546"><ele>3.6</ele><time>2012-05-02T15:17:44.0000000+00:00</time></trkpt><trkpt lat="42.442852" lon="18.634546"><ele>3.5</ele><time>2012-05-02T15:17:49.0000000+00:00</time></trkpt><trkpt lat="42.442852" lon="18.634546"><ele>3.5</ele><time>2012-05-02T15:17:54.0000000+00:00</time></trkpt><trkpt lat="42.442852" lon="18.634546"><ele>3.5</ele><time>2012-05-02T15:17:59.0000000+00:00</time></trkpt><trkpt lat="42.442852" lon="18.634546"><ele>3.5</ele><time>2012-05-02T15:18:04.0000000+00:00</time></trkpt><trkpt lat="42.442852" lon="18.634546"><ele>3.5</ele><time>2012-05-02T15:18:09.0000000+00:00</time></trkpt><trkpt lat="42.442852" lon="18.634546"><ele>3.5</ele><time>2012-05-02T15:18:14.0000000+00:00</time></trkpt><trkpt lat="42.442852" lon="18.634546"><ele>3.6</ele><time>2012-05-02T15:18:19.0000000+00:00</time></trkpt><trkpt lat="42.442852" lon="18.634546"><ele>3.6</ele><time>2012-05-02T15:18:24.0000000+00:00</time></trkpt><trkpt lat="42.442852" lon="18.634546"><ele>3.6</ele><time>2012-05-02T15:18:29.0000000+00:00</time></trkpt><trkpt lat="42.442852" lon="18.634546"><ele>3.6</ele><time>2012-05-02T15:18:34.0000000+00:00</time></trkpt><trkpt lat="42.442856" lon="18.634546"><ele>3.6</ele><time>2012-05-02T15:18:39.0000000+00:00</time></trkpt><trkpt lat="42.442856" lon="18.634546"><ele>3.6</ele><time>2012-05-02T15:18:44.0000000+00:00</time></trkpt><trkpt lat="42.442856" lon="18.634546"><ele>3.6</ele><time>2012-05-02T15:18:49.0000000+00:00</time></trkpt><trkpt lat="42.442856" lon="18.634546"><ele>3.6</ele><time>2012-05-02T15:18:54.0000000+00:00</time></trkpt><trkpt lat="42.442856" lon="18.634546"><ele>3.6</ele><time>2012-05-02T15:18:59.0000000+00:00</time></trkpt><trkpt lat="42.442856" lon="18.634546"><ele>3.6</ele><time>2012-05-02T15:19:04.0000000+00:00</time></trkpt><trkpt lat="42.442856" lon="18.634546"><ele>3.7</ele><time>2012-05-02T15:19:09.0000000+00:00</time></trkpt><trkpt lat="42.442856" lon="18.634546"><ele>3.7</ele><time>2012-05-02T15:19:14.0000000+00:00</time></trkpt><trkpt lat="42.442856" lon="18.634546"><ele>3.7</ele><time>2012-05-02T15:19:19.0000000+00:00</time></trkpt><trkpt lat="42.442856" lon="18.634546"><ele>3.7</ele><time>2012-05-02T15:19:24.0000000+00:00</time></trkpt><trkpt lat="42.442856" lon="18.634546"><ele>3.7</ele><time>2012-05-02T15:19:29.0000000+00:00</time></trkpt><trkpt lat="42.442856" lon="18.634546"><ele>3.7</ele><time>2012-05-02T15:19:34.0000000+00:00</time></trkpt><trkpt lat="42.442856" lon="18.634546"><ele>3.7</ele><time>2012-05-02T15:19:39.0000000+00:00</time></trkpt><trkpt lat="42.442856" lon="18.634546"><ele>3.7</ele><time>2012-05-02T15:19:44.0000000+00:00</time></trkpt><trkpt lat="42.442856" lon="18.634546"><ele>3.7</ele><time>2012-05-02T15:19:49.0000000+00:00</time></trkpt><trkpt lat="42.442856" lon="18.634546"><ele>3.7</ele><time>2012-05-02T15:19:54.0000000+00:00</time></trkpt><trkpt lat="42.442856" lon="18.634546"><ele>3.7</ele><time>2012-05-02T15:19:59.0000000+00:00</time></trkpt><trkpt lat="42.442856" lon="18.634546"><ele>3.7</ele><time>2012-05-02T15:20:04.0000000+00:00</time></trkpt><trkpt lat="42.442856" lon="18.634546"><ele>3.7</ele><time>2012-05-02T15:20:09.0000000+00:00</time></trkpt><trkpt lat="42.442856" lon="18.634546"><ele>3.8</ele><time>2012-05-02T15:20:14.0000000+00:00</time></trkpt><trkpt lat="42.442856" lon="18.634546"><ele>3.8</ele><time>2012-05-02T15:20:19.0000000+00:00</time></trkpt><trkpt lat="42.442856" lon="18.634546"><ele>3.8</ele><time>2012-05-02T15:20:24.0000000+00:00</time></trkpt><trkpt lat="42.442856" lon="18.634546"><ele>3.8</ele><time>2012-05-02T15:20:29.0000000+00:00</time></trkpt><trkpt lat="42.442856" lon="18.634546"><ele>3.8</ele><time>2012-05-02T15:20:34.0000000+00:00</time></trkpt><trkpt lat="42.442856" lon="18.634546"><ele>3.8</ele><time>2012-05-02T15:20:39.0000000+00:00</time></trkpt><trkpt lat="42.442856" lon="18.634546"><ele>3.8</ele><time>2012-05-02T15:20:44.0000000+00:00</time></trkpt><trkpt lat="42.442856" lon="18.634546"><ele>3.8</ele><time>2012-05-02T15:20:49.0000000+00:00</time></trkpt><trkpt lat="42.442856" lon="18.634546"><ele>3.8</ele><time>2012-05-02T15:20:54.0000000+00:00</time></trkpt><trkpt lat="42.442856" lon="18.634546"><ele>3.8</ele><time>2012-05-02T15:20:59.0000000+00:00</time></trkpt><trkpt lat="42.442856" lon="18.634546"><ele>3.8</ele><time>2012-05-02T15:21:04.0000000+00:00</time></trkpt><trkpt lat="42.442856" lon="18.634546"><ele>3.8</ele><time>2012-05-02T15:21:09.0000000+00:00</time></trkpt><trkpt lat="42.442856" lon="18.634546"><ele>3.8</ele><time>2012-05-02T15:21:14.0000000+00:00</time></trkpt><trkpt lat="42.442856" lon="18.634546"><ele>3.8</ele><time>2012-05-02T15:21:19.0000000+00:00</time></trkpt><trkpt lat="42.442856" lon="18.634546"><ele>3.8</ele><time>2012-05-02T15:21:24.0000000+00:00</time></trkpt><trkpt lat="42.442856" lon="18.634546"><ele>3.8</ele><time>2012-05-02T15:21:29.0000000+00:00</time></trkpt><trkpt lat="42.442856" lon="18.634546"><ele>3.8</ele><time>2012-05-02T15:21:34.0000000+00:00</time></trkpt><trkpt lat="42.442852" lon="18.634546"><ele>3.8</ele><time>2012-05-02T15:21:39.0000000+00:00</time></trkpt><trkpt lat="42.442852" lon="18.634546"><ele>3.8</ele><time>2012-05-02T15:21:44.0000000+00:00</time></trkpt><trkpt lat="42.442852" lon="18.634546"><ele>3.8</ele><time>2012-05-02T15:21:49.0000000+00:00</time></trkpt><trkpt lat="42.442852" lon="18.634546"><ele>3.8</ele><time>2012-05-02T15:21:54.0000000+00:00</time></trkpt><trkpt lat="42.442852" lon="18.634546"><ele>3.8</ele><time>2012-05-02T15:21:59.0000000+00:00</time></trkpt><trkpt lat="42.442852" lon="18.634546"><ele>3.8</ele><time>2012-05-02T15:22:04.0000000+00:00</time></trkpt><trkpt lat="42.442852" lon="18.634546"><ele>3.9</ele><time>2012-05-02T15:22:09.0000000+00:00</time></trkpt><trkpt lat="42.442852" lon="18.634544"><ele>3.9</ele><time>2012-05-02T15:22:14.0000000+00:00</time></trkpt><trkpt lat="42.442852" lon="18.634544"><ele>3.9</ele><time>2012-05-02T15:22:19.0000000+00:00</time></trkpt><trkpt lat="42.442852" lon="18.634544"><ele>3.9</ele><time>2012-05-02T15:22:24.0000000+00:00</time></trkpt><trkpt lat="42.442852" lon="18.634544"><ele>3.9</ele><time>2012-05-02T15:22:29.0000000+00:00</time></trkpt><trkpt lat="42.442852" lon="18.634544"><ele>3.9</ele><time>2012-05-02T15:22:34.0000000+00:00</time></trkpt><trkpt lat="42.442852" lon="18.634544"><ele>3.9</ele><time>2012-05-02T15:22:39.0000000+00:00</time></trkpt><trkpt lat="42.442852" lon="18.634544"><ele>3.9</ele><time>2012-05-02T15:22:44.0000000+00:00</time></trkpt><trkpt lat="42.442852" lon="18.634544"><ele>3.9</ele><time>2012-05-02T15:22:49.0000000+00:00</time></trkpt><trkpt lat="42.442852" lon="18.634544"><ele>3.9</ele><time>2012-05-02T15:22:54.0000000+00:00</time></trkpt><trkpt lat="42.442852" lon="18.634544"><ele>3.9</ele><time>2012-05-02T15:22:59.0000000+00:00</time></trkpt><trkpt lat="42.442852" lon="18.634544"><ele>4.0</ele><time>2012-05-02T15:23:04.0000000+00:00</time></trkpt><trkpt lat="42.442852" lon="18.634544"><ele>4.0</ele><time>2012-05-02T15:23:09.0000000+00:00</time></trkpt><trkpt lat="42.442852" lon="18.634544"><ele>4.0</ele><time>2012-05-02T15:23:14.0000000+00:00</time></trkpt><trkpt lat="42.442852" lon="18.634544"><ele>4.0</ele><time>2012-05-02T15:23:19.0000000+00:00</time></trkpt><trkpt lat="42.442852" lon="18.634544"><ele>4.0</ele><time>2012-05-02T15:23:24.0000000+00:00</time></trkpt><trkpt lat="42.442852" lon="18.634544"><ele>4.0</ele><time>2012-05-02T15:23:29.0000000+00:00</time></trkpt><trkpt lat="42.442852" lon="18.634544"><ele>4.0</ele><time>2012-05-02T15:23:34.0000000+00:00</time></trkpt><trkpt lat="42.442848" lon="18.634544"><ele>4.0</ele><time>2012-05-02T15:23:39.0000000+00:00</time></trkpt><trkpt lat="42.442848" lon="18.634544"><ele>3.9</ele><time>2012-05-02T15:23:44.0000000+00:00</time></trkpt><trkpt lat="42.442848" lon="18.634544"><ele>3.9</ele><time>2012-05-02T15:23:49.0000000+00:00</time></trkpt><trkpt lat="42.442848" lon="18.634544"><ele>3.9</ele><time>2012-05-02T15:23:54.0000000+00:00</time></trkpt><trkpt lat="42.442848" lon="18.634544"><ele>3.9</ele><time>2012-05-02T15:23:59.0000000+00:00</time></trkpt><trkpt lat="42.442848" lon="18.634544"><ele>3.8</ele><time>2012-05-02T15:24:04.0000000+00:00</time></trkpt><trkpt lat="42.442848" lon="18.634544"><ele>3.8</ele><time>2012-05-02T15:24:09.0000000+00:00</time></trkpt><trkpt lat="42.442848" lon="18.634544"><ele>3.8</ele><time>2012-05-02T15:24:14.0000000+00:00</time></trkpt><trkpt lat="42.442848" lon="18.634544"><ele>3.8</ele><time>2012-05-02T15:24:19.0000000+00:00</time></trkpt><trkpt lat="42.442848" lon="18.634544"><ele>3.8</ele><time>2012-05-02T15:24:24.0000000+00:00</time></trkpt><trkpt lat="42.442848" lon="18.634544"><ele>3.8</ele><time>2012-05-02T15:24:29.0000000+00:00</time></trkpt><trkpt lat="42.442848" lon="18.634544"><ele>3.8</ele><time>2012-05-02T15:24:34.0000000+00:00</time></trkpt><trkpt lat="42.442848" lon="18.634544"><ele>3.8</ele><time>2012-05-02T15:24:39.0000000+00:00</time></trkpt><trkpt lat="42.442848" lon="18.634546"><ele>3.7</ele><time>2012-05-02T15:24:44.0000000+00:00</time></trkpt><trkpt lat="42.442848" lon="18.634546"><ele>3.7</ele><time>2012-05-02T15:24:49.0000000+00:00</time></trkpt><trkpt lat="42.442848" lon="18.634546"><ele>3.7</ele><time>2012-05-02T15:24:54.0000000+00:00</time></trkpt><trkpt lat="42.442848" lon="18.634546"><ele>3.7</ele><time>2012-05-02T15:24:59.0000000+00:00</time></trkpt><trkpt lat="42.442848" lon="18.634546"><ele>3.7</ele><time>2012-05-02T15:25:04.0000000+00:00</time></trkpt><trkpt lat="42.442848" lon="18.634546"><ele>3.7</ele><time>2012-05-02T15:25:09.0000000+00:00</time></trkpt><trkpt lat="42.442848" lon="18.634546"><ele>3.7</ele><time>2012-05-02T15:25:14.0000000+00:00</time></trkpt><trkpt lat="42.442848" lon="18.634546"><ele>3.7</ele><time>2012-05-02T15:25:19.0000000+00:00</time></trkpt><trkpt lat="42.442848" lon="18.634546"><ele>3.7</ele><time>2012-05-02T15:25:24.0000000+00:00</time></trkpt><trkpt lat="42.442848" lon="18.634546"><ele>3.7</ele><time>2012-05-02T15:25:29.0000000+00:00</time></trkpt><trkpt lat="42.442848" lon="18.634546"><ele>3.7</ele><time>2012-05-02T15:25:34.0000000+00:00</time></trkpt><trkpt lat="42.442848" lon="18.634546"><ele>3.7</ele><time>2012-05-02T15:25:39.0000000+00:00</time></trkpt><trkpt lat="42.442848" lon="18.634546"><ele>3.7</ele><time>2012-05-02T15:25:44.0000000+00:00</time></trkpt><trkpt lat="42.442848" lon="18.634546"><ele>3.7</ele><time>2012-05-02T15:25:49.0000000+00:00</time></trkpt><trkpt lat="42.442848" lon="18.634546"><ele>3.7</ele><time>2012-05-02T15:25:54.0000000+00:00</time></trkpt><trkpt lat="42.442848" lon="18.634546"><ele>3.7</ele><time>2012-05-02T15:25:59.0000000+00:00</time></trkpt><trkpt lat="42.442848" lon="18.634546"><ele>3.7</ele><time>2012-05-02T15:26:04.0000000+00:00</time></trkpt><trkpt lat="42.442848" lon="18.634546"><ele>3.7</ele><time>2012-05-02T15:26:09.0000000+00:00</time></trkpt><trkpt lat="42.442848" lon="18.634546"><ele>3.7</ele><time>2012-05-02T15:26:14.0000000+00:00</time></trkpt><trkpt lat="42.442848" lon="18.634546"><ele>3.7</ele><time>2012-05-02T15:26:19.0000000+00:00</time></trkpt><trkpt lat="42.442848" lon="18.634546"><ele>3.7</ele><time>2012-05-02T15:26:24.0000000+00:00</time></trkpt><trkpt lat="42.442848" lon="18.634546"><ele>3.7</ele><time>2012-05-02T15:26:29.0000000+00:00</time></trkpt><trkpt lat="42.442848" lon="18.634546"><ele>3.7</ele><time>2012-05-02T15:26:34.0000000+00:00</time></trkpt><trkpt lat="42.442848" lon="18.634548"><ele>3.7</ele><time>2012-05-02T15:26:39.0000000+00:00</time></trkpt><trkpt lat="42.442848" lon="18.634548"><ele>3.7</ele><time>2012-05-02T15:26:44.0000000+00:00</time></trkpt><trkpt lat="42.442848" lon="18.634548"><ele>3.7</ele><time>2012-05-02T15:26:49.0000000+00:00</time></trkpt><trkpt lat="42.442848" lon="18.634548"><ele>3.6</ele><time>2012-05-02T15:26:54.0000000+00:00</time></trkpt><trkpt lat="42.442848" lon="18.634548"><ele>3.6</ele><time>2012-05-02T15:26:59.0000000+00:00</time></trkpt><trkpt lat="42.442848" lon="18.634548"><ele>3.6</ele><time>2012-05-02T15:27:04.0000000+00:00</time></trkpt><trkpt lat="42.442848" lon="18.634548"><ele>3.6</ele><time>2012-05-02T15:27:09.0000000+00:00</time></trkpt><trkpt lat="42.442848" lon="18.634548"><ele>3.5</ele><time>2012-05-02T15:27:14.0000000+00:00</time></trkpt><trkpt lat="42.442848" lon="18.634548"><ele>3.5</ele><time>2012-05-02T15:27:19.0000000+00:00</time></trkpt><trkpt lat="42.442848" lon="18.634548"><ele>3.5</ele><time>2012-05-02T15:27:24.0000000+00:00</time></trkpt><trkpt lat="42.442848" lon="18.634548"><ele>3.4</ele><time>2012-05-02T15:27:29.0000000+00:00</time></trkpt><trkpt lat="42.442848" lon="18.634548"><ele>3.4</ele><time>2012-05-02T15:27:34.0000000+00:00</time></trkpt><trkpt lat="42.442844" lon="18.634548"><ele>3.4</ele><time>2012-05-02T15:27:39.0000000+00:00</time></trkpt><trkpt lat="42.442844" lon="18.63455"><ele>3.4</ele><time>2012-05-02T15:27:44.0000000+00:00</time></trkpt><trkpt lat="42.442844" lon="18.63455"><ele>3.4</ele><time>2012-05-02T15:27:49.0000000+00:00</time></trkpt><trkpt lat="42.442844" lon="18.63455"><ele>3.4</ele><time>2012-05-02T15:27:54.0000000+00:00</time></trkpt><trkpt lat="42.442844" lon="18.63455"><ele>3.3</ele><time>2012-05-02T15:27:59.0000000+00:00</time></trkpt><trkpt lat="42.442848" lon="18.63455"><ele>3.3</ele><time>2012-05-02T15:28:04.0000000+00:00</time></trkpt><trkpt lat="42.442848" lon="18.63455"><ele>3.3</ele><time>2012-05-02T15:28:09.0000000+00:00</time></trkpt><trkpt lat="42.442848" lon="18.63455"><ele>3.2</ele><time>2012-05-02T15:28:14.0000000+00:00</time></trkpt><trkpt lat="42.442848" lon="18.63455"><ele>3.2</ele><time>2012-05-02T15:28:19.0000000+00:00</time></trkpt><trkpt lat="42.442848" lon="18.63455"><ele>3.2</ele><time>2012-05-02T15:28:24.0000000+00:00</time></trkpt><trkpt lat="42.442848" lon="18.63455"><ele>3.2</ele><time>2012-05-02T15:28:29.0000000+00:00</time></trkpt><trkpt lat="42.442848" lon="18.63455"><ele>3.2</ele><time>2012-05-02T15:28:34.0000000+00:00</time></trkpt><trkpt lat="42.442848" lon="18.63455"><ele>3.2</ele><time>2012-05-02T15:28:39.0000000+00:00</time></trkpt><trkpt lat="42.442848" lon="18.63455"><ele>3.2</ele><time>2012-05-02T15:28:44.0000000+00:00</time></trkpt><trkpt lat="42.442848" lon="18.634548"><ele>3.2</ele><time>2012-05-02T15:28:49.0000000+00:00</time></trkpt><trkpt lat="42.442848" lon="18.634548"><ele>3.2</ele><time>2012-05-02T15:28:54.0000000+00:00</time></trkpt><trkpt lat="42.442848" lon="18.634548"><ele>3.2</ele><time>2012-05-02T15:28:59.0000000+00:00</time></trkpt><trkpt lat="42.442844" lon="18.634548"><ele>3.2</ele><time>2012-05-02T15:29:04.0000000+00:00</time></trkpt><trkpt lat="42.442844" lon="18.634548"><ele>3.2</ele><time>2012-05-02T15:29:09.0000000+00:00</time></trkpt><trkpt lat="42.442844" lon="18.634548"><ele>3.2</ele><time>2012-05-02T15:29:14.0000000+00:00</time></trkpt><trkpt lat="42.442844" lon="18.634548"><ele>3.2</ele><time>2012-05-02T15:29:19.0000000+00:00</time></trkpt><trkpt lat="42.442844" lon="18.634548"><ele>3.2</ele><time>2012-05-02T15:29:24.0000000+00:00</time></trkpt><trkpt lat="42.442844" lon="18.634548"><ele>3.2</ele><time>2012-05-02T15:29:29.0000000+00:00</time></trkpt><trkpt lat="42.442844" lon="18.634548"><ele>3.2</ele><time>2012-05-02T15:29:34.0000000+00:00</time></trkpt><trkpt lat="42.442844" lon="18.634548"><ele>3.2</ele><time>2012-05-02T15:29:39.0000000+00:00</time></trkpt><trkpt lat="42.442844" lon="18.634548"><ele>3.2</ele><time>2012-05-02T15:29:44.0000000+00:00</time></trkpt><trkpt lat="42.442844" lon="18.634548"><ele>3.2</ele><time>2012-05-02T15:29:49.0000000+00:00</time></trkpt><trkpt lat="42.442844" lon="18.634548"><ele>3.2</ele><time>2012-05-02T15:29:54.0000000+00:00</time></trkpt><trkpt lat="42.442844" lon="18.634546"><ele>3.2</ele><time>2012-05-02T15:29:59.0000000+00:00</time></trkpt><trkpt lat="42.442844" lon="18.634546"><ele>3.2</ele><time>2012-05-02T15:30:04.0000000+00:00</time></trkpt><trkpt lat="42.442844" lon="18.634546"><ele>3.2</ele><time>2012-05-02T15:30:09.0000000+00:00</time></trkpt><trkpt lat="42.442844" lon="18.634546"><ele>3.2</ele><time>2012-05-02T15:30:14.0000000+00:00</time></trkpt><trkpt lat="42.442844" lon="18.634546"><ele>3.3</ele><time>2012-05-02T15:30:19.0000000+00:00</time></trkpt><trkpt lat="42.442848" lon="18.634546"><ele>3.3</ele><time>2012-05-02T15:30:24.0000000+00:00</time></trkpt><trkpt lat="42.442848" lon="18.634546"><ele>3.3</ele><time>2012-05-02T15:30:29.0000000+00:00</time></trkpt><trkpt lat="42.442848" lon="18.634544"><ele>3.3</ele><time>2012-05-02T15:30:34.0000000+00:00</time></trkpt><trkpt lat="42.442848" lon="18.634544"><ele>3.3</ele><time>2012-05-02T15:30:39.0000000+00:00</time></trkpt><trkpt lat="42.442848" lon="18.634544"><ele>3.4</ele><time>2012-05-02T15:30:44.0000000+00:00</time></trkpt><trkpt lat="42.442848" lon="18.634544"><ele>3.4</ele><time>2012-05-02T15:30:49.0000000+00:00</time></trkpt><trkpt lat="42.442848" lon="18.634544"><ele>3.4</ele><time>2012-05-02T15:30:54.0000000+00:00</time></trkpt><trkpt lat="42.442848" lon="18.634544"><ele>3.4</ele><time>2012-05-02T15:30:59.0000000+00:00</time></trkpt><trkpt lat="42.442848" lon="18.634544"><ele>3.5</ele><time>2012-05-02T15:31:04.0000000+00:00</time></trkpt><trkpt lat="42.442848" lon="18.634544"><ele>3.5</ele><time>2012-05-02T15:31:09.0000000+00:00</time></trkpt><trkpt lat="42.442848" lon="18.634542"><ele>3.5</ele><time>2012-05-02T15:31:14.0000000+00:00</time></trkpt><trkpt lat="42.442848" lon="18.634542"><ele>3.5</ele><time>2012-05-02T15:31:19.0000000+00:00</time></trkpt><trkpt lat="42.442848" lon="18.634542"><ele>3.6</ele><time>2012-05-02T15:31:24.0000000+00:00</time></trkpt><trkpt lat="42.442848" lon="18.634542"><ele>3.6</ele><time>2012-05-02T15:31:29.0000000+00:00</time></trkpt><trkpt lat="42.442848" lon="18.634542"><ele>3.6</ele><time>2012-05-02T15:31:34.0000000+00:00</time></trkpt><trkpt lat="42.442848" lon="18.634542"><ele>3.6</ele><time>2012-05-02T15:31:39.0000000+00:00</time></trkpt><trkpt lat="42.442848" lon="18.634541"><ele>3.6</ele><time>2012-05-02T15:31:44.0000000+00:00</time></trkpt><trkpt lat="42.442848" lon="18.634541"><ele>3.6</ele><time>2012-05-02T15:31:49.0000000+00:00</time></trkpt><trkpt lat="42.442848" lon="18.634541"><ele>3.7</ele><time>2012-05-02T15:31:54.0000000+00:00</time></trkpt><trkpt lat="42.442848" lon="18.634541"><ele>3.7</ele><time>2012-05-02T15:31:59.0000000+00:00</time></trkpt><trkpt lat="42.442848" lon="18.634541"><ele>3.7</ele><time>2012-05-02T15:32:04.0000000+00:00</time></trkpt><trkpt lat="42.442848" lon="18.634541"><ele>3.7</ele><time>2012-05-02T15:32:09.0000000+00:00</time></trkpt><trkpt lat="42.442848" lon="18.634539"><ele>3.7</ele><time>2012-05-02T15:32:14.0000000+00:00</time></trkpt><trkpt lat="42.442848" lon="18.634539"><ele>3.7</ele><time>2012-05-02T15:32:19.0000000+00:00</time></trkpt><trkpt lat="42.442848" lon="18.634539"><ele>3.8</ele><time>2012-05-02T15:32:24.0000000+00:00</time></trkpt><trkpt lat="42.442848" lon="18.634539"><ele>3.8</ele><time>2012-05-02T15:32:29.0000000+00:00</time></trkpt><trkpt lat="42.442848" lon="18.634539"><ele>3.8</ele><time>2012-05-02T15:32:34.0000000+00:00</time></trkpt><trkpt lat="42.442848" lon="18.634537"><ele>3.8</ele><time>2012-05-02T15:32:39.0000000+00:00</time></trkpt><trkpt lat="42.442848" lon="18.634537"><ele>3.8</ele><time>2012-05-02T15:32:44.0000000+00:00</time></trkpt><trkpt lat="42.442848" lon="18.634537"><ele>3.8</ele><time>2012-05-02T15:32:49.0000000+00:00</time></trkpt><trkpt lat="42.442848" lon="18.634537"><ele>3.8</ele><time>2012-05-02T15:32:54.0000000+00:00</time></trkpt><trkpt lat="42.442848" lon="18.634537"><ele>3.8</ele><time>2012-05-02T15:32:59.0000000+00:00</time></trkpt><trkpt lat="42.442848" lon="18.634537"><ele>3.9</ele><time>2012-05-02T15:33:04.0000000+00:00</time></trkpt><trkpt lat="42.442848" lon="18.634535"><ele>3.9</ele><time>2012-05-02T15:33:09.0000000+00:00</time></trkpt><trkpt lat="42.442848" lon="18.634535"><ele>3.9</ele><time>2012-05-02T15:33:14.0000000+00:00</time></trkpt><trkpt lat="42.442848" lon="18.634535"><ele>3.9</ele><time>2012-05-02T15:33:19.0000000+00:00</time></trkpt><trkpt lat="42.442848" lon="18.634535"><ele>3.9</ele><time>2012-05-02T15:33:24.0000000+00:00</time></trkpt><trkpt lat="42.442848" lon="18.634535"><ele>3.9</ele><time>2012-05-02T15:33:29.0000000+00:00</time></trkpt><trkpt lat="42.442848" lon="18.634535"><ele>3.9</ele><time>2012-05-02T15:33:34.0000000+00:00</time></trkpt><trkpt lat="42.442848" lon="18.634535"><ele>3.9</ele><time>2012-05-02T15:33:39.0000000+00:00</time></trkpt><trkpt lat="42.442848" lon="18.634535"><ele>3.9</ele><time>2012-05-02T15:33:44.0000000+00:00</time></trkpt><trkpt lat="42.442848" lon="18.634535"><ele>3.9</ele><time>2012-05-02T15:33:49.0000000+00:00</time></trkpt><trkpt lat="42.442848" lon="18.634535"><ele>4.0</ele><time>2012-05-02T15:33:54.0000000+00:00</time></trkpt><trkpt lat="42.442848" lon="18.634533"><ele>4.0</ele><time>2012-05-02T15:33:59.0000000+00:00</time></trkpt><trkpt lat="42.442848" lon="18.634533"><ele>4.0</ele><time>2012-05-02T15:34:04.0000000+00:00</time></trkpt><trkpt lat="42.442848" lon="18.634533"><ele>4.0</ele><time>2012-05-02T15:34:09.0000000+00:00</time></trkpt><trkpt lat="42.442848" lon="18.634533"><ele>4.0</ele><time>2012-05-02T15:34:14.0000000+00:00</time></trkpt><trkpt lat="42.442848" lon="18.634533"><ele>4.1</ele><time>2012-05-02T15:34:19.0000000+00:00</time></trkpt><trkpt lat="42.442848" lon="18.634533"><ele>4.1</ele><time>2012-05-02T15:34:24.0000000+00:00</time></trkpt><trkpt lat="42.442844" lon="18.634531"><ele>4.1</ele><time>2012-05-02T15:34:29.0000000+00:00</time></trkpt><trkpt lat="42.442844" lon="18.634531"><ele>4.1</ele><time>2012-05-02T15:34:34.0000000+00:00</time></trkpt><trkpt lat="42.442844" lon="18.634531"><ele>4.2</ele><time>2012-05-02T15:34:39.0000000+00:00</time></trkpt><trkpt lat="42.442844" lon="18.634531"><ele>4.2</ele><time>2012-05-02T15:34:44.0000000+00:00</time></trkpt><trkpt lat="42.442844" lon="18.634531"><ele>4.2</ele><time>2012-05-02T15:34:49.0000000+00:00</time></trkpt><trkpt lat="42.442844" lon="18.634531"><ele>4.2</ele><time>2012-05-02T15:34:54.0000000+00:00</time></trkpt><trkpt lat="42.442844" lon="18.634531"><ele>4.2</ele><time>2012-05-02T15:34:59.0000000+00:00</time></trkpt><trkpt lat="42.442844" lon="18.634531"><ele>4.2</ele><time>2012-05-02T15:35:04.0000000+00:00</time></trkpt><trkpt lat="42.442844" lon="18.634531"><ele>4.2</ele><time>2012-05-02T15:35:09.0000000+00:00</time></trkpt><trkpt lat="42.442844" lon="18.634531"><ele>4.2</ele><time>2012-05-02T15:35:14.0000000+00:00</time></trkpt><trkpt lat="42.442848" lon="18.634531"><ele>4.2</ele><time>2012-05-02T15:35:19.0000000+00:00</time></trkpt><trkpt lat="42.442848" lon="18.634531"><ele>4.2</ele><time>2012-05-02T15:35:24.0000000+00:00</time></trkpt><trkpt lat="42.442848" lon="18.634531"><ele>4.2</ele><time>2012-05-02T15:35:29.0000000+00:00</time></trkpt><trkpt lat="42.442848" lon="18.634531"><ele>4.2</ele><time>2012-05-02T15:35:34.0000000+00:00</time></trkpt><trkpt lat="42.442848" lon="18.634531"><ele>4.2</ele><time>2012-05-02T15:35:39.0000000+00:00</time></trkpt><trkpt lat="42.442848" lon="18.634533"><ele>4.2</ele><time>2012-05-02T15:35:44.0000000+00:00</time></trkpt><trkpt lat="42.442848" lon="18.634533"><ele>4.2</ele><time>2012-05-02T15:35:49.0000000+00:00</time></trkpt><trkpt lat="42.442848" lon="18.634533"><ele>4.2</ele><time>2012-05-02T15:35:54.0000000+00:00</time></trkpt><trkpt lat="42.442848" lon="18.634533"><ele>4.2</ele><time>2012-05-02T15:35:59.0000000+00:00</time></trkpt><trkpt lat="42.442848" lon="18.634533"><ele>4.2</ele><time>2012-05-02T15:36:04.0000000+00:00</time></trkpt><trkpt lat="42.442848" lon="18.634533"><ele>4.2</ele><time>2012-05-02T15:36:09.0000000+00:00</time></trkpt><trkpt lat="42.442848" lon="18.634533"><ele>4.2</ele><time>2012-05-02T15:36:14.0000000+00:00</time></trkpt><trkpt lat="42.442844" lon="18.634533"><ele>4.2</ele><time>2012-05-02T15:36:19.0000000+00:00</time></trkpt><trkpt lat="42.442844" lon="18.634533"><ele>4.2</ele><time>2012-05-02T15:36:24.0000000+00:00</time></trkpt><trkpt lat="42.442844" lon="18.634533"><ele>4.2</ele><time>2012-05-02T15:36:29.0000000+00:00</time></trkpt><trkpt lat="42.442844" lon="18.634533"><ele>4.2</ele><time>2012-05-02T15:36:34.0000000+00:00</time></trkpt><trkpt lat="42.442844" lon="18.634533"><ele>4.2</ele><time>2012-05-02T15:36:39.0000000+00:00</time></trkpt><trkpt lat="42.442844" lon="18.634533"><ele>4.2</ele><time>2012-05-02T15:36:44.0000000+00:00</time></trkpt><trkpt lat="42.442848" lon="18.634531"><ele>4.2</ele><time>2012-05-02T15:36:49.0000000+00:00</time></trkpt><trkpt lat="42.442848" lon="18.634531"><ele>4.2</ele><time>2012-05-02T15:36:54.0000000+00:00</time></trkpt><trkpt lat="42.442848" lon="18.634531"><ele>4.2</ele><time>2012-05-02T15:36:59.0000000+00:00</time></trkpt><trkpt lat="42.442848" lon="18.634531"><ele>4.2</ele><time>2012-05-02T15:37:04.0000000+00:00</time></trkpt><trkpt lat="42.442848" lon="18.634531"><ele>4.2</ele><time>2012-05-02T15:37:09.0000000+00:00</time></trkpt><trkpt lat="42.442848" lon="18.634531"><ele>4.2</ele><time>2012-05-02T15:37:14.0000000+00:00</time></trkpt><trkpt lat="42.442848" lon="18.634531"><ele>4.2</ele><time>2012-05-02T15:37:19.0000000+00:00</time></trkpt><trkpt lat="42.442848" lon="18.634533"><ele>4.2</ele><time>2012-05-02T15:37:24.0000000+00:00</time></trkpt><trkpt lat="42.442852" lon="18.634537"><ele>4.2</ele><time>2012-05-02T15:37:29.0000000+00:00</time></trkpt><trkpt lat="42.442852" lon="18.634537"><ele>4.2</ele><time>2012-05-02T15:37:34.0000000+00:00</time></trkpt><trkpt lat="42.442848" lon="18.634537"><ele>4.2</ele><time>2012-05-02T15:37:39.0000000+00:00</time></trkpt><trkpt lat="42.442848" lon="18.634537"><ele>4.1</ele><time>2012-05-02T15:37:44.0000000+00:00</time></trkpt><trkpt lat="42.442848" lon="18.634539"><ele>4.1</ele><time>2012-05-02T15:37:49.0000000+00:00</time></trkpt><trkpt lat="42.442852" lon="18.634541"><ele>4.1</ele><time>2012-05-02T15:37:54.0000000+00:00</time></trkpt><trkpt lat="42.44286" lon="18.634537"><ele>4.2</ele><time>2012-05-02T15:37:59.0000000+00:00</time></trkpt><trkpt lat="42.442898" lon="18.634455"><ele>4.5</ele><time>2012-05-02T15:38:04.0000000+00:00</time></trkpt><trkpt lat="42.442898" lon="18.634306"><ele>4.6</ele><time>2012-05-02T15:38:09.0000000+00:00</time></trkpt><trkpt lat="42.442863" lon="18.634094"><ele>4.1</ele><time>2012-05-02T15:38:14.0000000+00:00</time></trkpt><trkpt lat="42.442787" lon="18.6339"><ele>4.5</ele><time>2012-05-02T15:38:19.0000000+00:00</time></trkpt><trkpt lat="42.442619" lon="18.633667"><ele>5.1</ele><time>2012-05-02T15:38:24.0000000+00:00</time></trkpt><trkpt lat="42.442451" lon="18.63341"><ele>4.1</ele><time>2012-05-02T15:38:29.0000000+00:00</time></trkpt><trkpt lat="42.44228" lon="18.633162"><ele>5.0</ele><time>2012-05-02T15:38:34.0000000+00:00</time></trkpt><trkpt lat="42.442074" lon="18.632967"><ele>5.8</ele><time>2012-05-02T15:38:39.0000000+00:00</time></trkpt><trkpt lat="42.441925" lon="18.632727"><ele>6.3</ele><time>2012-05-02T15:38:44.0000000+00:00</time></trkpt><trkpt lat="42.441841" lon="18.63236"><ele>2.8</ele><time>2012-05-02T15:38:49.0000000+00:00</time></trkpt><trkpt lat="42.441669" lon="18.632072"><ele>4.0</ele><time>2012-05-02T15:38:54.0000000+00:00</time></trkpt><trkpt lat="42.441433" lon="18.631945"><ele>7.5</ele><time>2012-05-02T15:38:59.0000000+00:00</time></trkpt><trkpt lat="42.441231" lon="18.631809"><ele>8.8</ele><time>2012-05-02T15:39:04.0000000+00:00</time></trkpt><trkpt lat="42.441097" lon="18.631586"><ele>9.9</ele><time>2012-05-02T15:39:09.0000000+00:00</time></trkpt><trkpt lat="42.44104" lon="18.631248"><ele>12.8</ele><time>2012-05-02T15:39:14.0000000+00:00</time></trkpt><trkpt lat="42.441105" lon="18.630917"><ele>8.5</ele><time>2012-05-02T15:39:19.0000000+00:00</time></trkpt><trkpt lat="42.441151" lon="18.630581"><ele>8.1</ele><time>2012-05-02T15:39:24.0000000+00:00</time></trkpt><trkpt lat="42.441124" lon="18.630268"><ele>8.9</ele><time>2012-05-02T15:39:29.0000000+00:00</time></trkpt><trkpt lat="42.441025" lon="18.629959"><ele>9.4</ele><time>2012-05-02T15:39:34.0000000+00:00</time></trkpt><trkpt lat="42.440964" lon="18.629713"><ele>9.0</ele><time>2012-05-02T15:39:39.0000000+00:00</time></trkpt><trkpt lat="42.440834" lon="18.629395"><ele>10.4</ele><time>2012-05-02T15:39:44.0000000+00:00</time></trkpt><trkpt lat="42.440758" lon="18.629103"><ele>11.0</ele><time>2012-05-02T15:39:49.0000000+00:00</time></trkpt><trkpt lat="42.440624" lon="18.628765"><ele>11.6</ele><time>2012-05-02T15:39:54.0000000+00:00</time></trkpt><trkpt lat="42.440567" lon="18.628401"><ele>12.9</ele><time>2012-05-02T15:39:59.0000000+00:00</time></trkpt><trkpt lat="42.440514" lon="18.628084"><ele>13.8</ele><time>2012-05-02T15:40:04.0000000+00:00</time></trkpt><trkpt lat="42.440395" lon="18.627754"><ele>16.0</ele><time>2012-05-02T15:40:09.0000000+00:00</time></trkpt><trkpt lat="42.440277" lon="18.627422"><ele>17.0</ele><time>2012-05-02T15:40:14.0000000+00:00</time></trkpt><trkpt lat="42.440247" lon="18.627066"><ele>16.7</ele><time>2012-05-02T15:40:19.0000000+00:00</time></trkpt><trkpt lat="42.440228" lon="18.626705"><ele>11.1</ele><time>2012-05-02T15:40:24.0000000+00:00</time></trkpt><trkpt lat="42.440174" lon="18.626371"><ele>9.2</ele><time>2012-05-02T15:40:29.0000000+00:00</time></trkpt><trkpt lat="42.440109" lon="18.62607"><ele>5.7</ele><time>2012-05-02T15:40:34.0000000+00:00</time></trkpt><trkpt lat="42.440018" lon="18.625813"><ele>6.4</ele><time>2012-05-02T15:40:39.0000000+00:00</time></trkpt><trkpt lat="42.43993" lon="18.625519"><ele>9.3</ele><time>2012-05-02T15:40:44.0000000+00:00</time></trkpt><trkpt lat="42.439751" lon="18.625271"><ele>10.5</ele><time>2012-05-02T15:40:49.0000000+00:00</time></trkpt><trkpt lat="42.43959" lon="18.624969"><ele>10.4</ele><time>2012-05-02T15:40:54.0000000+00:00</time></trkpt><trkpt lat="42.43948" lon="18.624636"><ele>11.4</ele><time>2012-05-02T15:40:59.0000000+00:00</time></trkpt><trkpt lat="42.439476" lon="18.624268"><ele>10.7</ele><time>2012-05-02T15:41:04.0000000+00:00</time></trkpt><trkpt lat="42.439484" lon="18.623842"><ele>9.7</ele><time>2012-05-02T15:41:09.0000000+00:00</time></trkpt><trkpt lat="42.439575" lon="18.623501"><ele>8.7</ele><time>2012-05-02T15:41:14.0000000+00:00</time></trkpt><trkpt lat="42.439632" lon="18.6231"><ele>8.3</ele><time>2012-05-02T15:41:19.0000000+00:00</time></trkpt><trkpt lat="42.439556" lon="18.622705"><ele>7.3</ele><time>2012-05-02T15:41:24.0000000+00:00</time></trkpt><trkpt lat="42.439419" lon="18.622335"><ele>8.3</ele><time>2012-05-02T15:41:29.0000000+00:00</time></trkpt><trkpt lat="42.439346" lon="18.621922"><ele>7.8</ele><time>2012-05-02T15:41:34.0000000+00:00</time></trkpt><trkpt lat="42.439308" lon="18.621527"><ele>7.3</ele><time>2012-05-02T15:41:39.0000000+00:00</time></trkpt><trkpt lat="42.439243" lon="18.621132"><ele>8.0</ele><time>2012-05-02T15:41:44.0000000+00:00</time></trkpt><trkpt lat="42.439148" lon="18.620777"><ele>6.9</ele><time>2012-05-02T15:41:49.0000000+00:00</time></trkpt><trkpt lat="42.438953" lon="18.620457"><ele>7.8</ele><time>2012-05-02T15:41:54.0000000+00:00</time></trkpt><trkpt lat="42.438747" lon="18.620167"><ele>8.4</ele><time>2012-05-02T15:41:59.0000000+00:00</time></trkpt><trkpt lat="42.438587" lon="18.61986"><ele>10.6</ele><time>2012-05-02T15:42:04.0000000+00:00</time></trkpt><trkpt lat="42.438572" lon="18.619495"><ele>11.6</ele><time>2012-05-02T15:42:09.0000000+00:00</time></trkpt><trkpt lat="42.438629" lon="18.619141"><ele>12.0</ele><time>2012-05-02T15:42:14.0000000+00:00</time></trkpt><trkpt lat="42.438644" lon="18.618729"><ele>10.3</ele><time>2012-05-02T15:42:19.0000000+00:00</time></trkpt><trkpt lat="42.438602" lon="18.618383"><ele>10.9</ele><time>2012-05-02T15:42:24.0000000+00:00</time></trkpt><trkpt lat="42.438568" lon="18.61808"><ele>9.0</ele><time>2012-05-02T15:42:29.0000000+00:00</time></trkpt><trkpt lat="42.438511" lon="18.617771"><ele>9.8</ele><time>2012-05-02T15:42:34.0000000+00:00</time></trkpt><trkpt lat="42.438507" lon="18.617439"><ele>9.2</ele><time>2012-05-02T15:42:39.0000000+00:00</time></trkpt><trkpt lat="42.438515" lon="18.617212"><ele>9.0</ele><time>2012-05-02T15:42:44.0000000+00:00</time></trkpt><trkpt lat="42.438431" lon="18.616886"><ele>8.9</ele><time>2012-05-02T15:42:49.0000000+00:00</time></trkpt><trkpt lat="42.438316" lon="18.616606"><ele>9.3</ele><time>2012-05-02T15:42:54.0000000+00:00</time></trkpt><trkpt lat="42.438255" lon="18.616224"><ele>9.2</ele><time>2012-05-02T15:42:59.0000000+00:00</time></trkpt><trkpt lat="42.438293" lon="18.615814"><ele>6.9</ele><time>2012-05-02T15:43:04.0000000+00:00</time></trkpt><trkpt lat="42.438358" lon="18.61545"><ele>8.3</ele><time>2012-05-02T15:43:09.0000000+00:00</time></trkpt><trkpt lat="42.438393" lon="18.615097"><ele>10.2</ele><time>2012-05-02T15:43:14.0000000+00:00</time></trkpt><trkpt lat="42.438335" lon="18.614708"><ele>7.7</ele><time>2012-05-02T15:43:19.0000000+00:00</time></trkpt><trkpt lat="42.438126" lon="18.614397"><ele>9.9</ele><time>2012-05-02T15:43:24.0000000+00:00</time></trkpt><trkpt lat="42.437889" lon="18.614231"><ele>11.2</ele><time>2012-05-02T15:43:29.0000000+00:00</time></trkpt><trkpt lat="42.437599" lon="18.614073"><ele>8.6</ele><time>2012-05-02T15:43:34.0000000+00:00</time></trkpt><trkpt lat="42.437325" lon="18.613941"><ele>5.4</ele><time>2012-05-02T15:43:39.0000000+00:00</time></trkpt><trkpt lat="42.437145" lon="18.613728"><ele>4.8</ele><time>2012-05-02T15:43:44.0000000+00:00</time></trkpt><trkpt lat="42.436993" lon="18.613417"><ele>3.3</ele><time>2012-05-02T15:43:49.0000000+00:00</time></trkpt><trkpt lat="42.43689" lon="18.613026"><ele>0.8</ele><time>2012-05-02T15:43:54.0000000+00:00</time></trkpt><trkpt lat="42.43679" lon="18.612688"><ele>-0.4</ele><time>2012-05-02T15:43:59.0000000+00:00</time></trkpt><trkpt lat="42.436703" lon="18.612368"><ele>-0.2</ele><time>2012-05-02T15:44:04.0000000+00:00</time></trkpt><trkpt lat="42.436596" lon="18.612026"><ele>0.4</ele><time>2012-05-02T15:44:09.0000000+00:00</time></trkpt><trkpt lat="42.436546" lon="18.611658"><ele>-2.9</ele><time>2012-05-02T15:44:14.0000000+00:00</time></trkpt><trkpt lat="42.43647" lon="18.611273"><ele>-3.2</ele><time>2012-05-02T15:44:19.0000000+00:00</time></trkpt><trkpt lat="42.436386" lon="18.610937"><ele>-4.4</ele><time>2012-05-02T15:44:24.0000000+00:00</time></trkpt><trkpt lat="42.436237" lon="18.610611"><ele>-1.2</ele><time>2012-05-02T15:44:29.0000000+00:00</time></trkpt><trkpt lat="42.436035" lon="18.610359"><ele>0.1</ele><time>2012-05-02T15:44:34.0000000+00:00</time></trkpt><trkpt lat="42.435745" lon="18.61018"><ele>2.0</ele><time>2012-05-02T15:44:39.0000000+00:00</time></trkpt><trkpt lat="42.435532" lon="18.609941"><ele>1.7</ele><time>2012-05-02T15:44:44.0000000+00:00</time></trkpt><trkpt lat="42.435284" lon="18.609713"><ele>2.2</ele><time>2012-05-02T15:44:49.0000000+00:00</time></trkpt><trkpt lat="42.435226" lon="18.609329"><ele>4.5</ele><time>2012-05-02T15:44:54.0000000+00:00</time></trkpt><trkpt lat="42.435226" lon="18.608971"><ele>5.5</ele><time>2012-05-02T15:44:59.0000000+00:00</time></trkpt><trkpt lat="42.435226" lon="18.608604"><ele>6.1</ele><time>2012-05-02T15:45:04.0000000+00:00</time></trkpt><trkpt lat="42.435169" lon="18.608206"><ele>6.7</ele><time>2012-05-02T15:45:09.0000000+00:00</time></trkpt><trkpt lat="42.43512" lon="18.60787"><ele>7.6</ele><time>2012-05-02T15:45:14.0000000+00:00</time></trkpt><trkpt lat="42.435078" lon="18.607645"><ele>8.6</ele><time>2012-05-02T15:45:19.0000000+00:00</time></trkpt><trkpt lat="42.435028" lon="18.607349"><ele>9.0</ele><time>2012-05-02T15:45:24.0000000+00:00</time></trkpt><trkpt lat="42.435043" lon="18.607035"><ele>7.4</ele><time>2012-05-02T15:45:29.0000000+00:00</time></trkpt><trkpt lat="42.435131" lon="18.606672"><ele>5.5</ele><time>2012-05-02T15:45:34.0000000+00:00</time></trkpt><trkpt lat="42.435165" lon="18.606251"><ele>7.9</ele><time>2012-05-02T15:45:39.0000000+00:00</time></trkpt><trkpt lat="42.43507" lon="18.605852"><ele>8.2</ele><time>2012-05-02T15:45:44.0000000+00:00</time></trkpt><trkpt lat="42.434856" lon="18.605518"><ele>9.8</ele><time>2012-05-02T15:45:49.0000000+00:00</time></trkpt><trkpt lat="42.434837" lon="18.605209"><ele>9.6</ele><time>2012-05-02T15:45:54.0000000+00:00</time></trkpt><trkpt lat="42.434917" lon="18.604887"><ele>9.6</ele><time>2012-05-02T15:45:59.0000000+00:00</time></trkpt><trkpt lat="42.435059" lon="18.604616"><ele>12.4</ele><time>2012-05-02T15:46:04.0000000+00:00</time></trkpt><trkpt lat="42.435135" lon="18.604259"><ele>14.1</ele><time>2012-05-02T15:46:09.0000000+00:00</time></trkpt><trkpt lat="42.435146" lon="18.603794"><ele>15.2</ele><time>2012-05-02T15:46:14.0000000+00:00</time></trkpt><trkpt lat="42.435123" lon="18.603256"><ele>9.8</ele><time>2012-05-02T15:46:19.0000000+00:00</time></trkpt><trkpt lat="42.435177" lon="18.602859"><ele>10.1</ele><time>2012-05-02T15:46:24.0000000+00:00</time></trkpt><trkpt lat="42.435417" lon="18.602829"><ele>10.3</ele><time>2012-05-02T15:46:29.0000000+00:00</time></trkpt><trkpt lat="42.435593" lon="18.602762"><ele>13.1</ele><time>2012-05-02T15:46:34.0000000+00:00</time></trkpt><trkpt lat="42.435658" lon="18.602531"><ele>17.1</ele><time>2012-05-02T15:46:39.0000000+00:00</time></trkpt><trkpt lat="42.435696" lon="18.60236"><ele>20.5</ele><time>2012-05-02T15:46:44.0000000+00:00</time></trkpt><trkpt lat="42.435757" lon="18.602179"><ele>23.3</ele><time>2012-05-02T15:46:49.0000000+00:00</time></trkpt><trkpt lat="42.435802" lon="18.602018"><ele>26.2</ele><time>2012-05-02T15:46:54.0000000+00:00</time></trkpt><trkpt lat="42.435833" lon="18.601835"><ele>29.8</ele><time>2012-05-02T15:46:59.0000000+00:00</time></trkpt><trkpt lat="42.43589" lon="18.601665"><ele>32.7</ele><time>2012-05-02T15:47:04.0000000+00:00</time></trkpt><trkpt lat="42.435936" lon="18.601511"><ele>38.0</ele><time>2012-05-02T15:47:09.0000000+00:00</time></trkpt><trkpt lat="42.435982" lon="18.601324"><ele>43.0</ele><time>2012-05-02T15:47:14.0000000+00:00</time></trkpt><trkpt lat="42.436024" lon="18.601097"><ele>47.0</ele><time>2012-05-02T15:47:19.0000000+00:00</time></trkpt><trkpt lat="42.436092" lon="18.600813"><ele>45.7</ele><time>2012-05-02T15:47:24.0000000+00:00</time></trkpt><trkpt lat="42.43618" lon="18.600542"><ele>45.6</ele><time>2012-05-02T15:47:29.0000000+00:00</time></trkpt><trkpt lat="42.436222" lon="18.600237"><ele>49.9</ele><time>2012-05-02T15:47:34.0000000+00:00</time></trkpt><trkpt lat="42.436291" lon="18.599989"><ele>54.2</ele><time>2012-05-02T15:47:39.0000000+00:00</time></trkpt><trkpt lat="42.436382" lon="18.599714"><ele>52.4</ele><time>2012-05-02T15:47:44.0000000+00:00</time></trkpt><trkpt lat="42.436459" lon="18.59943"><ele>52.0</ele><time>2012-05-02T15:47:49.0000000+00:00</time></trkpt><trkpt lat="42.436558" lon="18.599085"><ele>50.0</ele><time>2012-05-02T15:47:54.0000000+00:00</time></trkpt><trkpt lat="42.436691" lon="18.5987"><ele>49.9</ele><time>2012-05-02T15:47:59.0000000+00:00</time></trkpt><trkpt lat="42.436802" lon="18.598238"><ele>50.1</ele><time>2012-05-02T15:48:04.0000000+00:00</time></trkpt><trkpt lat="42.436951" lon="18.597696"><ele>47.9</ele><time>2012-05-02T15:48:09.0000000+00:00</time></trkpt><trkpt lat="42.43713" lon="18.597092"><ele>44.9</ele><time>2012-05-02T15:48:14.0000000+00:00</time></trkpt><trkpt lat="42.437305" lon="18.596575"><ele>44.8</ele><time>2012-05-02T15:48:19.0000000+00:00</time></trkpt><trkpt lat="42.437477" lon="18.596102"><ele>44.9</ele><time>2012-05-02T15:48:24.0000000+00:00</time></trkpt><trkpt lat="42.437626" lon="18.595596"><ele>45.8</ele><time>2012-05-02T15:48:29.0000000+00:00</time></trkpt><trkpt lat="42.437782" lon="18.59515"><ele>48.1</ele><time>2012-05-02T15:48:34.0000000+00:00</time></trkpt><trkpt lat="42.437889" lon="18.594711"><ele>48.4</ele><time>2012-05-02T15:48:39.0000000+00:00</time></trkpt><trkpt lat="42.437996" lon="18.59428"><ele>49.9</ele><time>2012-05-02T15:48:44.0000000+00:00</time></trkpt><trkpt lat="42.438065" lon="18.593821"><ele>47.7</ele><time>2012-05-02T15:48:49.0000000+00:00</time></trkpt><trkpt lat="42.438168" lon="18.593369"><ele>43.4</ele><time>2012-05-02T15:48:54.0000000+00:00</time></trkpt><trkpt lat="42.438244" lon="18.592804"><ele>33.9</ele><time>2012-05-02T15:48:59.0000000+00:00</time></trkpt><trkpt lat="42.438217" lon="18.592163"><ele>29.3</ele><time>2012-05-02T15:49:04.0000000+00:00</time></trkpt><trkpt lat="42.437935" lon="18.59164"><ele>23.2</ele><time>2012-05-02T15:49:09.0000000+00:00</time></trkpt><trkpt lat="42.437572" lon="18.591364"><ele>19.1</ele><time>2012-05-02T15:49:14.0000000+00:00</time></trkpt><trkpt lat="42.437309" lon="18.590986"><ele>15.5</ele><time>2012-05-02T15:49:19.0000000+00:00</time></trkpt><trkpt lat="42.437412" lon="18.590563"><ele>14.3</ele><time>2012-05-02T15:49:24.0000000+00:00</time></trkpt><trkpt lat="42.437599" lon="18.590097"><ele>14.2</ele><time>2012-05-02T15:49:29.0000000+00:00</time></trkpt><trkpt lat="42.437756" lon="18.589621"><ele>15.3</ele><time>2012-05-02T15:49:34.0000000+00:00</time></trkpt><trkpt lat="42.437881" lon="18.58919"><ele>15.1</ele><time>2012-05-02T15:49:39.0000000+00:00</time></trkpt><trkpt lat="42.438053" lon="18.588835"><ele>13.9</ele><time>2012-05-02T15:49:44.0000000+00:00</time></trkpt><trkpt lat="42.438251" lon="18.588474"><ele>13.3</ele><time>2012-05-02T15:49:49.0000000+00:00</time></trkpt><trkpt lat="42.438446" lon="18.588095"><ele>11.6</ele><time>2012-05-02T15:49:54.0000000+00:00</time></trkpt><trkpt lat="42.438587" lon="18.587652"><ele>11.6</ele><time>2012-05-02T15:49:59.0000000+00:00</time></trkpt><trkpt lat="42.438751" lon="18.587212"><ele>11.8</ele><time>2012-05-02T15:50:04.0000000+00:00</time></trkpt><trkpt lat="42.438934" lon="18.586861"><ele>10.9</ele><time>2012-05-02T15:50:09.0000000+00:00</time></trkpt><trkpt lat="42.439194" lon="18.586498"><ele>8.1</ele><time>2012-05-02T15:50:14.0000000+00:00</time></trkpt><trkpt lat="42.439461" lon="18.586111"><ele>7.7</ele><time>2012-05-02T15:50:19.0000000+00:00</time></trkpt><trkpt lat="42.439713" lon="18.585733"><ele>7.6</ele><time>2012-05-02T15:50:24.0000000+00:00</time></trkpt><trkpt lat="42.43993" lon="18.585403"><ele>8.5</ele><time>2012-05-02T15:50:29.0000000+00:00</time></trkpt><trkpt lat="42.440109" lon="18.585039"><ele>8.3</ele><time>2012-05-02T15:50:34.0000000+00:00</time></trkpt><trkpt lat="42.440289" lon="18.58469"><ele>8.9</ele><time>2012-05-02T15:50:39.0000000+00:00</time></trkpt><trkpt lat="42.440483" lon="18.584383"><ele>13.2</ele><time>2012-05-02T15:50:44.0000000+00:00</time></trkpt><trkpt lat="42.440701" lon="18.58412"><ele>15.3</ele><time>2012-05-02T15:50:49.0000000+00:00</time></trkpt><trkpt lat="42.440899" lon="18.58383"><ele>17.4</ele><time>2012-05-02T15:50:54.0000000+00:00</time></trkpt><trkpt lat="42.44117" lon="18.583586"><ele>15.9</ele><time>2012-05-02T15:50:59.0000000+00:00</time></trkpt><trkpt lat="42.441463" lon="18.583416"><ele>15.9</ele><time>2012-05-02T15:51:04.0000000+00:00</time></trkpt><trkpt lat="42.441723" lon="18.583258"><ele>15.6</ele><time>2012-05-02T15:51:09.0000000+00:00</time></trkpt><trkpt lat="42.441978" lon="18.583132"><ele>16.1</ele><time>2012-05-02T15:51:14.0000000+00:00</time></trkpt><trkpt lat="42.442234" lon="18.582865"><ele>13.2</ele><time>2012-05-02T15:51:19.0000000+00:00</time></trkpt><trkpt lat="42.442455" lon="18.582594"><ele>13.9</ele><time>2012-05-02T15:51:24.0000000+00:00</time></trkpt><trkpt lat="42.442654" lon="18.582331"><ele>12.3</ele><time>2012-05-02T15:51:29.0000000+00:00</time></trkpt><trkpt lat="42.442856" lon="18.582159"><ele>10.4</ele><time>2012-05-02T15:51:34.0000000+00:00</time></trkpt><trkpt lat="42.443058" lon="18.58194"><ele>7.7</ele><time>2012-05-02T15:51:39.0000000+00:00</time></trkpt><trkpt lat="42.443245" lon="18.581665"><ele>9.4</ele><time>2012-05-02T15:51:44.0000000+00:00</time></trkpt><trkpt lat="42.443359" lon="18.581293"><ele>10.8</ele><time>2012-05-02T15:51:49.0000000+00:00</time></trkpt><trkpt lat="42.443424" lon="18.581066"><ele>14.2</ele><time>2012-05-02T15:51:54.0000000+00:00</time></trkpt><trkpt lat="42.443459" lon="18.580952"><ele>18.5</ele><time>2012-05-02T15:51:59.0000000+00:00</time></trkpt><trkpt lat="42.443493" lon="18.580805"><ele>22.1</ele><time>2012-05-02T15:52:04.0000000+00:00</time></trkpt><trkpt lat="42.443527" lon="18.580641"><ele>22.8</ele><time>2012-05-02T15:52:09.0000000+00:00</time></trkpt><trkpt lat="42.443584" lon="18.580502"><ele>24.5</ele><time>2012-05-02T15:52:14.0000000+00:00</time></trkpt><trkpt lat="42.443626" lon="18.580345"><ele>25.5</ele><time>2012-05-02T15:52:19.0000000+00:00</time></trkpt><trkpt lat="42.443668" lon="18.580141"><ele>24.4</ele><time>2012-05-02T15:52:24.0000000+00:00</time></trkpt><trkpt lat="42.443699" lon="18.580021"><ele>25.1</ele><time>2012-05-02T15:52:29.0000000+00:00</time></trkpt><trkpt lat="42.443737" lon="18.580019"><ele>22.0</ele><time>2012-05-02T15:52:34.0000000+00:00</time></trkpt><trkpt lat="42.443748" lon="18.579939"><ele>22.1</ele><time>2012-05-02T15:52:39.0000000+00:00</time></trkpt><trkpt lat="42.443783" lon="18.579834"><ele>23.2</ele><time>2012-05-02T15:52:44.0000000+00:00</time></trkpt><trkpt lat="42.443813" lon="18.579809"><ele>20.9</ele><time>2012-05-02T15:52:49.0000000+00:00</time></trkpt><trkpt lat="42.443825" lon="18.579817"><ele>20.5</ele><time>2012-05-02T15:52:54.0000000+00:00</time></trkpt><trkpt lat="42.443829" lon="18.579817"><ele>20.3</ele><time>2012-05-02T15:52:59.0000000+00:00</time></trkpt><trkpt lat="42.443832" lon="18.579821"><ele>20.3</ele><time>2012-05-02T15:53:04.0000000+00:00</time></trkpt><trkpt lat="42.44384" lon="18.579824"><ele>20.1</ele><time>2012-05-02T15:53:09.0000000+00:00</time></trkpt><trkpt lat="42.443844" lon="18.579828"><ele>19.9</ele><time>2012-05-02T15:53:14.0000000+00:00</time></trkpt><trkpt lat="42.443867" lon="18.579813"><ele>16.6</ele><time>2012-05-02T15:53:19.0000000+00:00</time></trkpt><trkpt lat="42.443871" lon="18.579815"><ele>16.5</ele><time>2012-05-02T15:53:24.0000000+00:00</time></trkpt><trkpt lat="42.443871" lon="18.579817"><ele>16.4</ele><time>2012-05-02T15:53:29.0000000+00:00</time></trkpt><trkpt lat="42.443874" lon="18.579819"><ele>16.3</ele><time>2012-05-02T15:53:34.0000000+00:00</time></trkpt><trkpt lat="42.443874" lon="18.579819"><ele>16.2</ele><time>2012-05-02T15:53:39.0000000+00:00</time></trkpt><trkpt lat="42.443874" lon="18.579817"><ele>16.2</ele><time>2012-05-02T15:53:44.0000000+00:00</time></trkpt><trkpt lat="42.443874" lon="18.579817"><ele>16.2</ele><time>2012-05-02T15:53:49.0000000+00:00</time></trkpt><trkpt lat="42.443874" lon="18.579817"><ele>16.2</ele><time>2012-05-02T15:53:54.0000000+00:00</time></trkpt><trkpt lat="42.443874" lon="18.579815"><ele>16.2</ele><time>2012-05-02T15:53:59.0000000+00:00</time></trkpt><trkpt lat="42.443871" lon="18.579815"><ele>16.2</ele><time>2012-05-02T15:54:04.0000000+00:00</time></trkpt><trkpt lat="42.443871" lon="18.579815"><ele>16.2</ele><time>2012-05-02T15:54:09.0000000+00:00</time></trkpt><trkpt lat="42.443871" lon="18.579815"><ele>16.1</ele><time>2012-05-02T15:54:14.0000000+00:00</time></trkpt><trkpt lat="42.443871" lon="18.579815"><ele>16.1</ele><time>2012-05-02T15:54:19.0000000+00:00</time></trkpt><trkpt lat="42.443871" lon="18.579815"><ele>16.1</ele><time>2012-05-02T15:54:24.0000000+00:00</time></trkpt><trkpt lat="42.443871" lon="18.579815"><ele>16.1</ele><time>2012-05-02T15:54:29.0000000+00:00</time></trkpt><trkpt lat="42.443871" lon="18.579813"><ele>16.1</ele><time>2012-05-02T15:54:34.0000000+00:00</time></trkpt><trkpt lat="42.443871" lon="18.579813"><ele>16.0</ele><time>2012-05-02T15:54:39.0000000+00:00</time></trkpt><trkpt lat="42.443871" lon="18.579813"><ele>16.0</ele><time>2012-05-02T15:54:44.0000000+00:00</time></trkpt><trkpt lat="42.443871" lon="18.579813"><ele>16.0</ele><time>2012-05-02T15:54:49.0000000+00:00</time></trkpt><trkpt lat="42.443874" lon="18.579813"><ele>16.0</ele><time>2012-05-02T15:54:54.0000000+00:00</time></trkpt><trkpt lat="42.443874" lon="18.579813"><ele>16.0</ele><time>2012-05-02T15:54:59.0000000+00:00</time></trkpt><trkpt lat="42.443874" lon="18.579813"><ele>16.0</ele><time>2012-05-02T15:55:04.0000000+00:00</time></trkpt><trkpt lat="42.44389" lon="18.579777"><ele>16.1</ele><time>2012-05-02T15:55:09.0000000+00:00</time></trkpt><trkpt lat="42.443954" lon="18.579603"><ele>16.8</ele><time>2012-05-02T15:55:14.0000000+00:00</time></trkpt><trkpt lat="42.444111" lon="18.579336"><ele>18.5</ele><time>2012-05-02T15:55:19.0000000+00:00</time></trkpt><trkpt lat="42.444248" lon="18.579086"><ele>19.6</ele><time>2012-05-02T15:55:24.0000000+00:00</time></trkpt><trkpt lat="42.44442" lon="18.578751"><ele>22.0</ele><time>2012-05-02T15:55:29.0000000+00:00</time></trkpt><trkpt lat="42.444603" lon="18.57844"><ele>24.4</ele><time>2012-05-02T15:55:34.0000000+00:00</time></trkpt><trkpt lat="42.444836" lon="18.578098"><ele>24.6</ele><time>2012-05-02T15:55:39.0000000+00:00</time></trkpt><trkpt lat="42.445213" lon="18.577801"><ele>17.3</ele><time>2012-05-02T15:55:44.0000000+00:00</time></trkpt><trkpt lat="42.445602" lon="18.577568"><ele>14.8</ele><time>2012-05-02T15:55:49.0000000+00:00</time></trkpt><trkpt lat="42.44598" lon="18.577286"><ele>11.3</ele><time>2012-05-02T15:55:54.0000000+00:00</time></trkpt><trkpt lat="42.446312" lon="18.577007"><ele>9.5</ele><time>2012-05-02T15:55:59.0000000+00:00</time></trkpt><trkpt lat="42.446629" lon="18.57674"><ele>9.4</ele><time>2012-05-02T15:56:04.0000000+00:00</time></trkpt><trkpt lat="42.446949" lon="18.576488"><ele>10.6</ele><time>2012-05-02T15:56:09.0000000+00:00</time></trkpt><trkpt lat="42.447262" lon="18.576206"><ele>13.3</ele><time>2012-05-02T15:56:14.0000000+00:00</time></trkpt><trkpt lat="42.447552" lon="18.575903"><ele>17.5</ele><time>2012-05-02T15:56:19.0000000+00:00</time></trkpt><trkpt lat="42.447823" lon="18.575575"><ele>18.4</ele><time>2012-05-02T15:56:24.0000000+00:00</time></trkpt><trkpt lat="42.448063" lon="18.575323"><ele>18.9</ele><time>2012-05-02T15:56:29.0000000+00:00</time></trkpt><trkpt lat="42.448277" lon="18.575045"><ele>19.2</ele><time>2012-05-02T15:56:34.0000000+00:00</time></trkpt><trkpt lat="42.448502" lon="18.574827"><ele>20.8</ele><time>2012-05-02T15:56:39.0000000+00:00</time></trkpt><trkpt lat="42.448727" lon="18.574577"><ele>18.9</ele><time>2012-05-02T15:56:44.0000000+00:00</time></trkpt><trkpt lat="42.448971" lon="18.574329"><ele>17.8</ele><time>2012-05-02T15:56:49.0000000+00:00</time></trkpt><trkpt lat="42.449242" lon="18.574041"><ele>15.7</ele><time>2012-05-02T15:56:54.0000000+00:00</time></trkpt><trkpt lat="42.449532" lon="18.573822"><ele>14.7</ele><time>2012-05-02T15:56:59.0000000+00:00</time></trkpt><trkpt lat="42.44981" lon="18.573719"><ele>15.1</ele><time>2012-05-02T15:57:04.0000000+00:00</time></trkpt><trkpt lat="42.450089" lon="18.573591"><ele>14.4</ele><time>2012-05-02T15:57:09.0000000+00:00</time></trkpt><trkpt lat="42.450386" lon="18.573412"><ele>12.9</ele><time>2012-05-02T15:57:14.0000000+00:00</time></trkpt><trkpt lat="42.450619" lon="18.573214"><ele>11.2</ele><time>2012-05-02T15:57:19.0000000+00:00</time></trkpt><trkpt lat="42.450867" lon="18.572971"><ele>10.3</ele><time>2012-05-02T15:57:24.0000000+00:00</time></trkpt><trkpt lat="42.451115" lon="18.572729"><ele>8.7</ele><time>2012-05-02T15:57:29.0000000+00:00</time></trkpt><trkpt lat="42.451336" lon="18.572466"><ele>6.1</ele><time>2012-05-02T15:57:34.0000000+00:00</time></trkpt><trkpt lat="42.451519" lon="18.572193"><ele>7.5</ele><time>2012-05-02T15:57:39.0000000+00:00</time></trkpt><trkpt lat="42.451687" lon="18.571947"><ele>9.3</ele><time>2012-05-02T15:57:44.0000000+00:00</time></trkpt><trkpt lat="42.451801" lon="18.571621"><ele>10.7</ele><time>2012-05-02T15:57:49.0000000+00:00</time></trkpt><trkpt lat="42.451885" lon="18.571527"><ele>12.7</ele><time>2012-05-02T15:57:54.0000000+00:00</time></trkpt><trkpt lat="42.451885" lon="18.571476"><ele>14.0</ele><time>2012-05-02T15:57:59.0000000+00:00</time></trkpt><trkpt lat="42.451862" lon="18.571396"><ele>15.1</ele><time>2012-05-02T15:58:04.0000000+00:00</time></trkpt><trkpt lat="42.451855" lon="18.571354"><ele>15.3</ele><time>2012-05-02T15:58:09.0000000+00:00</time></trkpt><trkpt lat="42.451859" lon="18.57135"><ele>15.5</ele><time>2012-05-02T15:58:14.0000000+00:00</time></trkpt><trkpt lat="42.451859" lon="18.57135"><ele>15.7</ele><time>2012-05-02T15:58:19.0000000+00:00</time></trkpt><trkpt lat="42.451859" lon="18.571348"><ele>15.7</ele><time>2012-05-02T15:58:24.0000000+00:00</time></trkpt><trkpt lat="42.451851" lon="18.571358"><ele>15.7</ele><time>2012-05-02T15:58:29.0000000+00:00</time></trkpt><trkpt lat="42.451843" lon="18.571363"><ele>15.8</ele><time>2012-05-02T15:58:34.0000000+00:00</time></trkpt><trkpt lat="42.451855" lon="18.571344"><ele>15.8</ele><time>2012-05-02T15:58:39.0000000+00:00</time></trkpt><trkpt lat="42.451912" lon="18.571205"><ele>16.2</ele><time>2012-05-02T15:58:44.0000000+00:00</time></trkpt><trkpt lat="42.452057" lon="18.570963"><ele>16.4</ele><time>2012-05-02T15:58:49.0000000+00:00</time></trkpt><trkpt lat="42.452267" lon="18.570683"><ele>18.6</ele><time>2012-05-02T15:58:54.0000000+00:00</time></trkpt><trkpt lat="42.452507" lon="18.57032"><ele>18.5</ele><time>2012-05-02T15:58:59.0000000+00:00</time></trkpt><trkpt lat="42.452736" lon="18.570068"><ele>20.3</ele><time>2012-05-02T15:59:04.0000000+00:00</time></trkpt><trkpt lat="42.452976" lon="18.569805"><ele>21.9</ele><time>2012-05-02T15:59:09.0000000+00:00</time></trkpt><trkpt lat="42.45322" lon="18.569586"><ele>22.9</ele><time>2012-05-02T15:59:14.0000000+00:00</time></trkpt><trkpt lat="42.453403" lon="18.569376"><ele>23.8</ele><time>2012-05-02T15:59:19.0000000+00:00</time></trkpt><trkpt lat="42.453598" lon="18.569153"><ele>25.6</ele><time>2012-05-02T15:59:24.0000000+00:00</time></trkpt><trkpt lat="42.453785" lon="18.569002"><ele>24.9</ele><time>2012-05-02T15:59:29.0000000+00:00</time></trkpt><trkpt lat="42.453938" lon="18.568892"><ele>24.6</ele><time>2012-05-02T15:59:34.0000000+00:00</time></trkpt><trkpt lat="42.454082" lon="18.568737"><ele>26.7</ele><time>2012-05-02T15:59:39.0000000+00:00</time></trkpt><trkpt lat="42.454235" lon="18.568567"><ele>26.6</ele><time>2012-05-02T15:59:44.0000000+00:00</time></trkpt><trkpt lat="42.454376" lon="18.56843"><ele>28.4</ele><time>2012-05-02T15:59:49.0000000+00:00</time></trkpt><trkpt lat="42.45451" lon="18.568304"><ele>30.8</ele><time>2012-05-02T15:59:54.0000000+00:00</time></trkpt><trkpt lat="42.454655" lon="18.568134"><ele>33.3</ele><time>2012-05-02T15:59:59.0000000+00:00</time></trkpt><trkpt lat="42.454796" lon="18.567921"><ele>34.9</ele><time>2012-05-02T16:00:04.0000000+00:00</time></trkpt><trkpt lat="42.454788" lon="18.567822"><ele>34.5</ele><time>2012-05-02T16:00:09.0000000+00:00</time></trkpt><trkpt lat="42.455563" lon="18.566233"><ele>66.2</ele><time>2012-05-02T16:00:33.0000000+00:00</time></trkpt><trkpt lat="42.455692" lon="18.566133"><ele>11.1</ele><time>2012-05-02T16:00:38.0000000+00:00</time></trkpt><trkpt lat="42.455738" lon="18.565872"><ele>18.6</ele><time>2012-05-02T16:00:43.0000000+00:00</time></trkpt><trkpt lat="42.45578" lon="18.565536"><ele>17.8</ele><time>2012-05-02T16:00:48.0000000+00:00</time></trkpt><trkpt lat="42.455803" lon="18.565113"><ele>13.9</ele><time>2012-05-02T16:00:53.0000000+00:00</time></trkpt><trkpt lat="42.455776" lon="18.564684"><ele>11.7</ele><time>2012-05-02T16:00:58.0000000+00:00</time></trkpt><trkpt lat="42.455639" lon="18.564196"><ele>13.0</ele><time>2012-05-02T16:01:03.0000000+00:00</time></trkpt><trkpt lat="42.455517" lon="18.563665"><ele>10.4</ele><time>2012-05-02T16:01:08.0000000+00:00</time></trkpt><trkpt lat="42.455399" lon="18.563038"><ele>11.3</ele><time>2012-05-02T16:01:13.0000000+00:00</time></trkpt><trkpt lat="42.455322" lon="18.562469"><ele>9.5</ele><time>2012-05-02T16:01:18.0000000+00:00</time></trkpt><trkpt lat="42.455235" lon="18.561943"><ele>6.4</ele><time>2012-05-02T16:01:23.0000000+00:00</time></trkpt><trkpt lat="42.455227" lon="18.561403"><ele>5.8</ele><time>2012-05-02T16:01:28.0000000+00:00</time></trkpt><trkpt lat="42.455231" lon="18.560892"><ele>4.8</ele><time>2012-05-02T16:01:33.0000000+00:00</time></trkpt><trkpt lat="42.455261" lon="18.560373"><ele>5.0</ele><time>2012-05-02T16:01:38.0000000+00:00</time></trkpt><trkpt lat="42.455269" lon="18.559891"><ele>5.4</ele><time>2012-05-02T16:01:43.0000000+00:00</time></trkpt><trkpt lat="42.455284" lon="18.559437"><ele>4.0</ele><time>2012-05-02T16:01:48.0000000+00:00</time></trkpt><trkpt lat="42.455257" lon="18.559032"><ele>2.9</ele><time>2012-05-02T16:01:53.0000000+00:00</time></trkpt><trkpt lat="42.4552" lon="18.558691"><ele>6.4</ele><time>2012-05-02T16:01:58.0000000+00:00</time></trkpt><trkpt lat="42.455261" lon="18.558357"><ele>9.3</ele><time>2012-05-02T16:02:03.0000000+00:00</time></trkpt><trkpt lat="42.45504" lon="18.558212"><ele>13.3</ele><time>2012-05-02T16:02:08.0000000+00:00</time></trkpt><trkpt lat="42.454792" lon="18.558449"><ele>17.0</ele><time>2012-05-02T16:02:13.0000000+00:00</time></trkpt><trkpt lat="42.45446" lon="18.558569"><ele>19.8</ele><time>2012-05-02T16:02:18.0000000+00:00</time></trkpt><trkpt lat="42.454079" lon="18.558569"><ele>22.5</ele><time>2012-05-02T16:02:23.0000000+00:00</time></trkpt><trkpt lat="42.453735" lon="18.558491"><ele>25.1</ele><time>2012-05-02T16:02:28.0000000+00:00</time></trkpt><trkpt lat="42.45348" lon="18.558348"><ele>28.0</ele><time>2012-05-02T16:02:33.0000000+00:00</time></trkpt><trkpt lat="42.453358" lon="18.55829"><ele>30.9</ele><time>2012-05-02T16:02:38.0000000+00:00</time></trkpt><trkpt lat="42.453243" lon="18.558128"><ele>33.8</ele><time>2012-05-02T16:02:43.0000000+00:00</time></trkpt><trkpt lat="42.453102" lon="18.558014"><ele>37.0</ele><time>2012-05-02T16:02:48.0000000+00:00</time></trkpt><trkpt lat="42.452938" lon="18.557888"><ele>39.2</ele><time>2012-05-02T16:02:53.0000000+00:00</time></trkpt><trkpt lat="42.452801" lon="18.557732"><ele>41.6</ele><time>2012-05-02T16:02:58.0000000+00:00</time></trkpt><trkpt lat="42.452732" lon="18.557495"><ele>43.8</ele><time>2012-05-02T16:03:03.0000000+00:00</time></trkpt><trkpt lat="42.452583" lon="18.557173"><ele>45.5</ele><time>2012-05-02T16:03:08.0000000+00:00</time></trkpt><trkpt lat="42.452473" lon="18.556889"><ele>46.8</ele><time>2012-05-02T16:03:13.0000000+00:00</time></trkpt><trkpt lat="42.452374" lon="18.556698"><ele>48.1</ele><time>2012-05-02T16:03:18.0000000+00:00</time></trkpt><trkpt lat="42.452236" lon="18.556494"><ele>49.0</ele><time>2012-05-02T16:03:23.0000000+00:00</time></trkpt><trkpt lat="42.452099" lon="18.556292"><ele>49.4</ele><time>2012-05-02T16:03:28.0000000+00:00</time></trkpt><trkpt lat="42.451973" lon="18.556076"><ele>47.9</ele><time>2012-05-02T16:03:33.0000000+00:00</time></trkpt><trkpt lat="42.451851" lon="18.555868"><ele>48.4</ele><time>2012-05-02T16:03:38.0000000+00:00</time></trkpt><trkpt lat="42.451794" lon="18.555635"><ele>49.1</ele><time>2012-05-02T16:03:43.0000000+00:00</time></trkpt><trkpt lat="42.451733" lon="18.555387"><ele>48.7</ele><time>2012-05-02T16:03:48.0000000+00:00</time></trkpt><trkpt lat="42.451679" lon="18.555132"><ele>48.3</ele><time>2012-05-02T16:03:53.0000000+00:00</time></trkpt><trkpt lat="42.451641" lon="18.554905"><ele>48.2</ele><time>2012-05-02T16:03:58.0000000+00:00</time></trkpt><trkpt lat="42.451614" lon="18.554659"><ele>48.0</ele><time>2012-05-02T16:04:03.0000000+00:00</time></trkpt><trkpt lat="42.451595" lon="18.554413"><ele>47.9</ele><time>2012-05-02T16:04:08.0000000+00:00</time></trkpt><trkpt lat="42.451557" lon="18.55418"><ele>47.1</ele><time>2012-05-02T16:04:13.0000000+00:00</time></trkpt><trkpt lat="42.45155" lon="18.553926"><ele>46.6</ele><time>2012-05-02T16:04:18.0000000+00:00</time></trkpt><trkpt lat="42.4515" lon="18.553638"><ele>46.1</ele><time>2012-05-02T16:04:23.0000000+00:00</time></trkpt><trkpt lat="42.451397" lon="18.553406"><ele>46.3</ele><time>2012-05-02T16:04:28.0000000+00:00</time></trkpt><trkpt lat="42.45129" lon="18.553253"><ele>46.7</ele><time>2012-05-02T16:04:33.0000000+00:00</time></trkpt><trkpt lat="42.451103" lon="18.553055"><ele>45.7</ele><time>2012-05-02T16:04:38.0000000+00:00</time></trkpt><trkpt lat="42.450867" lon="18.552704"><ele>43.3</ele><time>2012-05-02T16:04:43.0000000+00:00</time></trkpt><trkpt lat="42.450764" lon="18.552298"><ele>42.4</ele><time>2012-05-02T16:04:48.0000000+00:00</time></trkpt><trkpt lat="42.45071" lon="18.551907"><ele>41.6</ele><time>2012-05-02T16:04:53.0000000+00:00</time></trkpt><trkpt lat="42.450592" lon="18.551571"><ele>40.8</ele><time>2012-05-02T16:04:58.0000000+00:00</time></trkpt><trkpt lat="42.450493" lon="18.551311"><ele>40.0</ele><time>2012-05-02T16:05:03.0000000+00:00</time></trkpt><trkpt lat="42.450493" lon="18.551039"><ele>38.6</ele><time>2012-05-02T16:05:08.0000000+00:00</time></trkpt><trkpt lat="42.450535" lon="18.550732"><ele>37.7</ele><time>2012-05-02T16:05:13.0000000+00:00</time></trkpt><trkpt lat="42.450581" lon="18.550415"><ele>36.1</ele><time>2012-05-02T16:05:18.0000000+00:00</time></trkpt><trkpt lat="42.450546" lon="18.550112"><ele>35.3</ele><time>2012-05-02T16:05:23.0000000+00:00</time></trkpt><trkpt lat="42.450493" lon="18.549837"><ele>34.0</ele><time>2012-05-02T16:05:28.0000000+00:00</time></trkpt><trkpt lat="42.450512" lon="18.549557"><ele>33.8</ele><time>2012-05-02T16:05:33.0000000+00:00</time></trkpt><trkpt lat="42.450577" lon="18.549303"><ele>37.6</ele><time>2012-05-02T16:05:38.0000000+00:00</time></trkpt><trkpt lat="42.450588" lon="18.549139"><ele>43.7</ele><time>2012-05-02T16:05:43.0000000+00:00</time></trkpt><trkpt lat="42.450645" lon="18.548895"><ele>49.5</ele><time>2012-05-02T16:05:48.0000000+00:00</time></trkpt><trkpt lat="42.450695" lon="18.548637"><ele>53.9</ele><time>2012-05-02T16:05:53.0000000+00:00</time></trkpt><trkpt lat="42.450764" lon="18.548384"><ele>59.0</ele><time>2012-05-02T16:05:58.0000000+00:00</time></trkpt><trkpt lat="42.450848" lon="18.548079"><ele>62.2</ele><time>2012-05-02T16:06:03.0000000+00:00</time></trkpt><trkpt lat="42.450874" lon="18.547726"><ele>63.9</ele><time>2012-05-02T16:06:08.0000000+00:00</time></trkpt><trkpt lat="42.450905" lon="18.5474"><ele>57.4</ele><time>2012-05-02T16:06:13.0000000+00:00</time></trkpt><trkpt lat="42.450916" lon="18.547079"><ele>57.9</ele><time>2012-05-02T16:06:18.0000000+00:00</time></trkpt><trkpt lat="42.450897" lon="18.546926"><ele>58.3</ele><time>2012-05-02T16:06:23.0000000+00:00</time></trkpt><trkpt lat="42.450886" lon="18.546856"><ele>57.0</ele><time>2012-05-02T16:06:28.0000000+00:00</time></trkpt><trkpt lat="42.450901" lon="18.546707"><ele>57.3</ele><time>2012-05-02T16:06:33.0000000+00:00</time></trkpt><trkpt lat="42.450916" lon="18.54652"><ele>56.8</ele><time>2012-05-02T16:06:38.0000000+00:00</time></trkpt><trkpt lat="42.45092" lon="18.546577"><ele>54.4</ele><time>2012-05-02T16:06:43.0000000+00:00</time></trkpt><trkpt lat="42.450924" lon="18.546871"><ele>54.0</ele><time>2012-05-02T16:06:48.0000000+00:00</time></trkpt><trkpt lat="42.450943" lon="18.547174"><ele>53.9</ele><time>2012-05-02T16:06:53.0000000+00:00</time></trkpt><trkpt lat="42.450981" lon="18.547197"><ele>47.7</ele><time>2012-05-02T16:06:58.0000000+00:00</time></trkpt><trkpt lat="42.450996" lon="18.547184"><ele>46.1</ele><time>2012-05-02T16:07:03.0000000+00:00</time></trkpt><trkpt lat="42.451012" lon="18.547192"><ele>46.1</ele><time>2012-05-02T16:07:08.0000000+00:00</time></trkpt><trkpt lat="42.451015" lon="18.547195"><ele>46.0</ele><time>2012-05-02T16:07:13.0000000+00:00</time></trkpt><trkpt lat="42.451023" lon="18.547192"><ele>46.0</ele><time>2012-05-02T16:07:18.0000000+00:00</time></trkpt><trkpt lat="42.451035" lon="18.547194"><ele>45.9</ele><time>2012-05-02T16:07:23.0000000+00:00</time></trkpt><trkpt lat="42.451046" lon="18.547188"><ele>45.9</ele><time>2012-05-02T16:07:28.0000000+00:00</time></trkpt><trkpt lat="42.451046" lon="18.547188"><ele>45.9</ele><time>2012-05-02T16:07:33.0000000+00:00</time></trkpt><trkpt lat="42.451046" lon="18.547192"><ele>45.8</ele><time>2012-05-02T16:07:38.0000000+00:00</time></trkpt><trkpt lat="42.451054" lon="18.547199"><ele>45.8</ele><time>2012-05-02T16:07:43.0000000+00:00</time></trkpt><trkpt lat="42.451061" lon="18.547203"><ele>45.8</ele><time>2012-05-02T16:07:48.0000000+00:00</time></trkpt><trkpt lat="42.451065" lon="18.547201"><ele>45.8</ele><time>2012-05-02T16:07:53.0000000+00:00</time></trkpt><trkpt lat="42.451061" lon="18.547203"><ele>45.8</ele><time>2012-05-02T16:07:58.0000000+00:00</time></trkpt><trkpt lat="42.451069" lon="18.547203"><ele>45.8</ele><time>2012-05-02T16:08:03.0000000+00:00</time></trkpt><trkpt lat="42.451077" lon="18.547197"><ele>45.8</ele><time>2012-05-02T16:08:08.0000000+00:00</time></trkpt><trkpt lat="42.45108" lon="18.547197"><ele>45.7</ele><time>2012-05-02T16:08:13.0000000+00:00</time></trkpt><trkpt lat="42.451077" lon="18.547197"><ele>45.7</ele><time>2012-05-02T16:08:18.0000000+00:00</time></trkpt><trkpt lat="42.451069" lon="18.547215"><ele>45.7</ele><time>2012-05-02T16:08:23.0000000+00:00</time></trkpt><trkpt lat="42.451073" lon="18.547224"><ele>45.7</ele><time>2012-05-02T16:08:28.0000000+00:00</time></trkpt><trkpt lat="42.45108" lon="18.547232"><ele>45.7</ele><time>2012-05-02T16:08:33.0000000+00:00</time></trkpt><trkpt lat="42.451084" lon="18.547241"><ele>45.7</ele><time>2012-05-02T16:08:38.0000000+00:00</time></trkpt><trkpt lat="42.451088" lon="18.547253"><ele>45.7</ele><time>2012-05-02T16:08:43.0000000+00:00</time></trkpt><trkpt lat="42.451084" lon="18.547274"><ele>45.7</ele><time>2012-05-02T16:08:48.0000000+00:00</time></trkpt><trkpt lat="42.45108" lon="18.547293"><ele>45.8</ele><time>2012-05-02T16:08:53.0000000+00:00</time></trkpt><trkpt lat="42.451084" lon="18.547321"><ele>45.8</ele><time>2012-05-02T16:08:58.0000000+00:00</time></trkpt><trkpt lat="42.451088" lon="18.547333"><ele>45.9</ele><time>2012-05-02T16:09:03.0000000+00:00</time></trkpt><trkpt lat="42.451096" lon="18.547325"><ele>46.0</ele><time>2012-05-02T16:09:08.0000000+00:00</time></trkpt><trkpt lat="42.451103" lon="18.547314"><ele>46.0</ele><time>2012-05-02T16:09:13.0000000+00:00</time></trkpt><trkpt lat="42.451107" lon="18.547302"><ele>46.0</ele><time>2012-05-02T16:09:18.0000000+00:00</time></trkpt><trkpt lat="42.451115" lon="18.547291"><ele>46.0</ele><time>2012-05-02T16:09:23.0000000+00:00</time></trkpt><trkpt lat="42.451126" lon="18.547277"><ele>46.0</ele><time>2012-05-02T16:09:28.0000000+00:00</time></trkpt><trkpt lat="42.451141" lon="18.547264"><ele>46.1</ele><time>2012-05-02T16:09:33.0000000+00:00</time></trkpt><trkpt lat="42.451153" lon="18.547251"><ele>46.1</ele><time>2012-05-02T16:09:38.0000000+00:00</time></trkpt><trkpt lat="42.451157" lon="18.547247"><ele>46.1</ele><time>2012-05-02T16:09:43.0000000+00:00</time></trkpt><trkpt lat="42.451153" lon="18.547241"><ele>46.1</ele><time>2012-05-02T16:09:48.0000000+00:00</time></trkpt><trkpt lat="42.451157" lon="18.547232"><ele>46.1</ele><time>2012-05-02T16:09:53.0000000+00:00</time></trkpt><trkpt lat="42.45116" lon="18.547222"><ele>46.1</ele><time>2012-05-02T16:09:58.0000000+00:00</time></trkpt><trkpt lat="42.451157" lon="18.547226"><ele>46.2</ele><time>2012-05-02T16:10:03.0000000+00:00</time></trkpt><trkpt lat="42.451149" lon="18.547249"><ele>46.2</ele><time>2012-05-02T16:10:08.0000000+00:00</time></trkpt><trkpt lat="42.451141" lon="18.547255"><ele>46.2</ele><time>2012-05-02T16:10:13.0000000+00:00</time></trkpt><trkpt lat="42.451153" lon="18.547258"><ele>46.2</ele><time>2012-05-02T16:10:18.0000000+00:00</time></trkpt><trkpt lat="42.451164" lon="18.547255"><ele>46.1</ele><time>2012-05-02T16:10:23.0000000+00:00</time></trkpt><trkpt lat="42.451168" lon="18.547253"><ele>46.1</ele><time>2012-05-02T16:10:28.0000000+00:00</time></trkpt><trkpt lat="42.451183" lon="18.547272"><ele>46.2</ele><time>2012-05-02T16:10:33.0000000+00:00</time></trkpt><trkpt lat="42.451199" lon="18.547276"><ele>46.3</ele><time>2012-05-02T16:10:38.0000000+00:00</time></trkpt><trkpt lat="42.451221" lon="18.547262"><ele>46.4</ele><time>2012-05-02T16:10:43.0000000+00:00</time></trkpt><trkpt lat="42.451244" lon="18.547247"><ele>46.5</ele><time>2012-05-02T16:10:48.0000000+00:00</time></trkpt><trkpt lat="42.451267" lon="18.547234"><ele>46.6</ele><time>2012-05-02T16:10:53.0000000+00:00</time></trkpt><trkpt lat="42.451279" lon="18.547232"><ele>46.8</ele><time>2012-05-02T16:10:58.0000000+00:00</time></trkpt><trkpt lat="42.451271" lon="18.547245"><ele>46.8</ele><time>2012-05-02T16:11:03.0000000+00:00</time></trkpt><trkpt lat="42.451267" lon="18.547247"><ele>46.9</ele><time>2012-05-02T16:11:08.0000000+00:00</time></trkpt><trkpt lat="42.451275" lon="18.547247"><ele>46.9</ele><time>2012-05-02T16:11:13.0000000+00:00</time></trkpt><trkpt lat="42.451271" lon="18.547258"><ele>47.0</ele><time>2012-05-02T16:11:18.0000000+00:00</time></trkpt><trkpt lat="42.451267" lon="18.547262"><ele>47.0</ele><time>2012-05-02T16:11:23.0000000+00:00</time></trkpt><trkpt lat="42.451267" lon="18.547262"><ele>46.9</ele><time>2012-05-02T16:11:28.0000000+00:00</time></trkpt><trkpt lat="42.451267" lon="18.547266"><ele>46.9</ele><time>2012-05-02T16:11:33.0000000+00:00</time></trkpt><trkpt lat="42.451263" lon="18.547268"><ele>46.8</ele><time>2012-05-02T16:11:38.0000000+00:00</time></trkpt><trkpt lat="42.45126" lon="18.547268"><ele>46.8</ele><time>2012-05-02T16:11:43.0000000+00:00</time></trkpt><trkpt lat="42.451256" lon="18.547272"><ele>46.8</ele><time>2012-05-02T16:11:48.0000000+00:00</time></trkpt><trkpt lat="42.451252" lon="18.547266"><ele>46.8</ele><time>2012-05-02T16:11:53.0000000+00:00</time></trkpt><trkpt lat="42.451248" lon="18.547264"><ele>46.8</ele><time>2012-05-02T16:11:58.0000000+00:00</time></trkpt><trkpt lat="42.451241" lon="18.547268"><ele>46.8</ele><time>2012-05-02T16:12:03.0000000+00:00</time></trkpt><trkpt lat="42.451237" lon="18.54727"><ele>46.8</ele><time>2012-05-02T16:12:08.0000000+00:00</time></trkpt><trkpt lat="42.451229" lon="18.547272"><ele>46.8</ele><time>2012-05-02T16:12:13.0000000+00:00</time></trkpt><trkpt lat="42.451229" lon="18.547272"><ele>46.8</ele><time>2012-05-02T16:12:18.0000000+00:00</time></trkpt><trkpt lat="42.451225" lon="18.547276"><ele>46.9</ele><time>2012-05-02T16:12:23.0000000+00:00</time></trkpt><trkpt lat="42.451225" lon="18.547281"><ele>46.9</ele><time>2012-05-02T16:12:28.0000000+00:00</time></trkpt><trkpt lat="42.451229" lon="18.547287"><ele>46.9</ele><time>2012-05-02T16:12:33.0000000+00:00</time></trkpt><trkpt lat="42.451237" lon="18.547287"><ele>46.9</ele><time>2012-05-02T16:12:38.0000000+00:00</time></trkpt><trkpt lat="42.451244" lon="18.547297"><ele>46.8</ele><time>2012-05-02T16:12:43.0000000+00:00</time></trkpt><trkpt lat="42.451244" lon="18.547297"><ele>46.8</ele><time>2012-05-02T16:12:48.0000000+00:00</time></trkpt><trkpt lat="42.451237" lon="18.547298"><ele>46.8</ele><time>2012-05-02T16:12:53.0000000+00:00</time></trkpt><trkpt lat="42.451237" lon="18.547308"><ele>46.8</ele><time>2012-05-02T16:12:58.0000000+00:00</time></trkpt><trkpt lat="42.451241" lon="18.547312"><ele>46.9</ele><time>2012-05-02T16:13:03.0000000+00:00</time></trkpt><trkpt lat="42.451237" lon="18.547323"><ele>46.9</ele><time>2012-05-02T16:13:08.0000000+00:00</time></trkpt><trkpt lat="42.451237" lon="18.547331"><ele>46.9</ele><time>2012-05-02T16:13:13.0000000+00:00</time></trkpt><trkpt lat="42.451206" lon="18.547194"><ele>44.1</ele><time>2012-05-02T16:13:18.0000000+00:00</time></trkpt><trkpt lat="42.451187" lon="18.547094"><ele>43.7</ele><time>2012-05-02T16:13:23.0000000+00:00</time></trkpt><trkpt lat="42.451191" lon="18.54682"><ele>41.7</ele><time>2012-05-02T16:13:28.0000000+00:00</time></trkpt><trkpt lat="42.451126" lon="18.546572"><ele>40.6</ele><time>2012-05-02T16:13:33.0000000+00:00</time></trkpt><trkpt lat="42.451046" lon="18.546375"><ele>40.3</ele><time>2012-05-02T16:13:38.0000000+00:00</time></trkpt><trkpt lat="42.451069" lon="18.546124"><ele>38.2</ele><time>2012-05-02T16:13:43.0000000+00:00</time></trkpt><trkpt lat="42.451088" lon="18.545832"><ele>35.7</ele><time>2012-05-02T16:13:48.0000000+00:00</time></trkpt><trkpt lat="42.451122" lon="18.545523"><ele>34.7</ele><time>2012-05-02T16:13:53.0000000+00:00</time></trkpt><trkpt lat="42.451141" lon="18.545164"><ele>35.9</ele><time>2012-05-02T16:13:58.0000000+00:00</time></trkpt><trkpt lat="42.451199" lon="18.544884"><ele>36.7</ele><time>2012-05-02T16:14:03.0000000+00:00</time></trkpt><trkpt lat="42.451241" lon="18.544634"><ele>37.9</ele><time>2012-05-02T16:14:08.0000000+00:00</time></trkpt><trkpt lat="42.451286" lon="18.544359"><ele>38.1</ele><time>2012-05-02T16:14:13.0000000+00:00</time></trkpt><trkpt lat="42.45137" lon="18.544102"><ele>39.2</ele><time>2012-05-02T16:14:18.0000000+00:00</time></trkpt><trkpt lat="42.451447" lon="18.543993"><ele>39.1</ele><time>2012-05-02T16:14:23.0000000+00:00</time></trkpt><trkpt lat="42.451469" lon="18.543913"><ele>41.5</ele><time>2012-05-02T16:14:28.0000000+00:00</time></trkpt><trkpt lat="42.451565" lon="18.543678"><ele>43.4</ele><time>2012-05-02T16:14:33.0000000+00:00</time></trkpt><trkpt lat="42.451599" lon="18.543394"><ele>42.6</ele><time>2012-05-02T16:14:38.0000000+00:00</time></trkpt><trkpt lat="42.451672" lon="18.543076"><ele>45.4</ele><time>2012-05-02T16:14:43.0000000+00:00</time></trkpt><trkpt lat="42.451614" lon="18.542801"><ele>44.6</ele><time>2012-05-02T16:14:48.0000000+00:00</time></trkpt><trkpt lat="42.451595" lon="18.542738"><ele>44.5</ele><time>2012-05-02T16:14:53.0000000+00:00</time></trkpt><trkpt lat="42.45158" lon="18.542742"><ele>44.8</ele><time>2012-05-02T16:14:58.0000000+00:00</time></trkpt><trkpt lat="42.451576" lon="18.542742"><ele>44.8</ele><time>2012-05-02T16:15:03.0000000+00:00</time></trkpt><trkpt lat="42.451576" lon="18.542742"><ele>44.8</ele><time>2012-05-02T16:15:08.0000000+00:00</time></trkpt><trkpt lat="42.451591" lon="18.54274"><ele>44.8</ele><time>2012-05-02T16:15:13.0000000+00:00</time></trkpt><trkpt lat="42.451595" lon="18.542734"><ele>44.8</ele><time>2012-05-02T16:15:18.0000000+00:00</time></trkpt><trkpt lat="42.451591" lon="18.542732"><ele>44.8</ele><time>2012-05-02T16:15:23.0000000+00:00</time></trkpt><trkpt lat="42.45158" lon="18.542734"><ele>44.8</ele><time>2012-05-02T16:15:28.0000000+00:00</time></trkpt><trkpt lat="42.451572" lon="18.542728"><ele>44.7</ele><time>2012-05-02T16:15:33.0000000+00:00</time></trkpt><trkpt lat="42.451572" lon="18.54273"><ele>44.7</ele><time>2012-05-02T16:15:38.0000000+00:00</time></trkpt><trkpt lat="42.451569" lon="18.542669"><ele>44.4</ele><time>2012-05-02T16:15:43.0000000+00:00</time></trkpt><trkpt lat="42.451622" lon="18.542494"><ele>42.6</ele><time>2012-05-02T16:15:48.0000000+00:00</time></trkpt><trkpt lat="42.451618" lon="18.542389"><ele>41.3</ele><time>2012-05-02T16:15:53.0000000+00:00</time></trkpt><trkpt lat="42.451626" lon="18.542376"><ele>41.2</ele><time>2012-05-02T16:15:58.0000000+00:00</time></trkpt><trkpt lat="42.451599" lon="18.542217"><ele>40.7</ele><time>2012-05-02T16:16:03.0000000+00:00</time></trkpt><trkpt lat="42.451565" lon="18.541885"><ele>39.2</ele><time>2012-05-02T16:16:08.0000000+00:00</time></trkpt><trkpt lat="42.451523" lon="18.541456"><ele>38.0</ele><time>2012-05-02T16:16:13.0000000+00:00</time></trkpt><trkpt lat="42.451416" lon="18.54097"><ele>38.0</ele><time>2012-05-02T16:16:18.0000000+00:00</time></trkpt><trkpt lat="42.45129" lon="18.540588"><ele>38.2</ele><time>2012-05-02T16:16:23.0000000+00:00</time></trkpt><trkpt lat="42.451138" lon="18.540323"><ele>38.7</ele><time>2012-05-02T16:16:28.0000000+00:00</time></trkpt><trkpt lat="42.450977" lon="18.540115"><ele>40.6</ele><time>2012-05-02T16:16:33.0000000+00:00</time></trkpt><trkpt lat="42.450851" lon="18.539921"><ele>42.5</ele><time>2012-05-02T16:16:38.0000000+00:00</time></trkpt><trkpt lat="42.450783" lon="18.539717"><ele>42.6</ele><time>2012-05-02T16:16:43.0000000+00:00</time></trkpt><trkpt lat="42.450783" lon="18.539602"><ele>40.0</ele><time>2012-05-02T16:16:48.0000000+00:00</time></trkpt><trkpt lat="42.450817" lon="18.539743"><ele>40.3</ele><time>2012-05-02T16:16:53.0000000+00:00</time></trkpt><trkpt lat="42.450932" lon="18.540051"><ele>39.4</ele><time>2012-05-02T16:16:58.0000000+00:00</time></trkpt><trkpt lat="42.451122" lon="18.540319"><ele>39.4</ele><time>2012-05-02T16:17:03.0000000+00:00</time></trkpt><trkpt lat="42.451263" lon="18.540442"><ele>35.7</ele><time>2012-05-02T16:17:08.0000000+00:00</time></trkpt><trkpt lat="42.451363" lon="18.540638"><ele>34.6</ele><time>2012-05-02T16:17:13.0000000+00:00</time></trkpt><trkpt lat="42.451462" lon="18.541071"><ele>34.3</ele><time>2012-05-02T16:17:18.0000000+00:00</time></trkpt><trkpt lat="42.451504" lon="18.541521"><ele>32.7</ele><time>2012-05-02T16:17:23.0000000+00:00</time></trkpt><trkpt lat="42.451553" lon="18.541914"><ele>35.1</ele><time>2012-05-02T16:17:28.0000000+00:00</time></trkpt><trkpt lat="42.451523" lon="18.542187"><ele>36.1</ele><time>2012-05-02T16:17:33.0000000+00:00</time></trkpt><trkpt lat="42.451538" lon="18.542442"><ele>40.8</ele><time>2012-05-02T16:17:38.0000000+00:00</time></trkpt><trkpt lat="42.451511" lon="18.542767"><ele>45.6</ele><time>2012-05-02T16:17:43.0000000+00:00</time></trkpt><trkpt lat="42.451641" lon="18.543032"><ele>49.6</ele><time>2012-05-02T16:17:48.0000000+00:00</time></trkpt><trkpt lat="42.451591" lon="18.543282"><ele>51.9</ele><time>2012-05-02T16:17:53.0000000+00:00</time></trkpt><trkpt lat="42.451542" lon="18.54357"><ele>55.6</ele><time>2012-05-02T16:17:58.0000000+00:00</time></trkpt><trkpt lat="42.4515" lon="18.543636"><ele>57.5</ele><time>2012-05-02T16:18:03.0000000+00:00</time></trkpt><trkpt lat="42.451477" lon="18.543673"><ele>58.6</ele><time>2012-05-02T16:18:08.0000000+00:00</time></trkpt><trkpt lat="42.451473" lon="18.543667"><ele>59.5</ele><time>2012-05-02T16:18:13.0000000+00:00</time></trkpt><trkpt lat="42.451469" lon="18.543663"><ele>59.8</ele><time>2012-05-02T16:18:18.0000000+00:00</time></trkpt><trkpt lat="42.451466" lon="18.543659"><ele>60.0</ele><time>2012-05-02T16:18:23.0000000+00:00</time></trkpt><trkpt lat="42.451447" lon="18.543701"><ele>59.5</ele><time>2012-05-02T16:18:28.0000000+00:00</time></trkpt><trkpt lat="42.451466" lon="18.543823"><ele>58.0</ele><time>2012-05-02T16:18:33.0000000+00:00</time></trkpt><trkpt lat="42.451401" lon="18.54394"><ele>56.6</ele><time>2012-05-02T16:18:38.0000000+00:00</time></trkpt><trkpt lat="42.45129" lon="18.544046"><ele>53.5</ele><time>2012-05-02T16:18:43.0000000+00:00</time></trkpt><trkpt lat="42.451248" lon="18.544165"><ele>51.6</ele><time>2012-05-02T16:18:48.0000000+00:00</time></trkpt><trkpt lat="42.451168" lon="18.544327"><ele>50.2</ele><time>2012-05-02T16:18:53.0000000+00:00</time></trkpt><trkpt lat="42.451118" lon="18.54454"><ele>51.5</ele><time>2012-05-02T16:18:58.0000000+00:00</time></trkpt><trkpt lat="42.451099" lon="18.544765"><ele>51.8</ele><time>2012-05-02T16:19:03.0000000+00:00</time></trkpt><trkpt lat="42.451073" lon="18.544931"><ele>48.3</ele><time>2012-05-02T16:19:08.0000000+00:00</time></trkpt><trkpt lat="42.451096" lon="18.544842"><ele>47.5</ele><time>2012-05-02T16:19:13.0000000+00:00</time></trkpt><trkpt lat="42.451149" lon="18.544779"><ele>45.5</ele><time>2012-05-02T16:19:18.0000000+00:00</time></trkpt><trkpt lat="42.45118" lon="18.544662"><ele>42.7</ele><time>2012-05-02T16:19:23.0000000+00:00</time></trkpt><trkpt lat="42.451218" lon="18.544516"><ele>39.9</ele><time>2012-05-02T16:19:28.0000000+00:00</time></trkpt><trkpt lat="42.451275" lon="18.54434"><ele>37.6</ele><time>2012-05-02T16:19:33.0000000+00:00</time></trkpt><trkpt lat="42.451305" lon="18.544117"><ele>40.2</ele><time>2012-05-02T16:19:38.0000000+00:00</time></trkpt><trkpt lat="42.45137" lon="18.543859"><ele>41.9</ele><time>2012-05-02T16:19:43.0000000+00:00</time></trkpt><trkpt lat="42.451385" lon="18.543592"><ele>42.8</ele><time>2012-05-02T16:19:48.0000000+00:00</time></trkpt><trkpt lat="42.451488" lon="18.543344"><ele>42.8</ele><time>2012-05-02T16:19:53.0000000+00:00</time></trkpt><trkpt lat="42.451523" lon="18.543152"><ele>48.3</ele><time>2012-05-02T16:19:58.0000000+00:00</time></trkpt><trkpt lat="42.451572" lon="18.542995"><ele>53.9</ele><time>2012-05-02T16:20:03.0000000+00:00</time></trkpt><trkpt lat="42.451527" lon="18.542728"><ele>56.3</ele><time>2012-05-02T16:20:08.0000000+00:00</time></trkpt><trkpt lat="42.4515" lon="18.542446"><ele>54.9</ele><time>2012-05-02T16:20:13.0000000+00:00</time></trkpt><trkpt lat="42.4515" lon="18.542295"><ele>51.8</ele><time>2012-05-02T16:20:18.0000000+00:00</time></trkpt><trkpt lat="42.451488" lon="18.542185"><ele>50.0</ele><time>2012-05-02T16:20:23.0000000+00:00</time></trkpt><trkpt lat="42.451511" lon="18.542156"><ele>48.0</ele><time>2012-05-02T16:20:28.0000000+00:00</time></trkpt><trkpt lat="42.451515" lon="18.542152"><ele>47.7</ele><time>2012-05-02T16:20:33.0000000+00:00</time></trkpt><trkpt lat="42.451527" lon="18.542131"><ele>47.4</ele><time>2012-05-02T16:20:38.0000000+00:00</time></trkpt><trkpt lat="42.451511" lon="18.5422"><ele>47.4</ele><time>2012-05-02T16:20:43.0000000+00:00</time></trkpt><trkpt lat="42.451508" lon="18.5424"><ele>46.8</ele><time>2012-05-02T16:20:48.0000000+00:00</time></trkpt><trkpt lat="42.451519" lon="18.542675"><ele>46.5</ele><time>2012-05-02T16:20:53.0000000+00:00</time></trkpt><trkpt lat="42.451481" lon="18.542839"><ele>46.8</ele><time>2012-05-02T16:20:58.0000000+00:00</time></trkpt><trkpt lat="42.451492" lon="18.542839"><ele>45.9</ele><time>2012-05-02T16:21:03.0000000+00:00</time></trkpt><trkpt lat="42.451488" lon="18.542852"><ele>45.9</ele><time>2012-05-02T16:21:08.0000000+00:00</time></trkpt><trkpt lat="42.4515" lon="18.542847"><ele>46.4</ele><time>2012-05-02T16:21:13.0000000+00:00</time></trkpt><trkpt lat="42.45155" lon="18.542727"><ele>46.2</ele><time>2012-05-02T16:21:18.0000000+00:00</time></trkpt><trkpt lat="42.451557" lon="18.542421"><ele>45.0</ele><time>2012-05-02T16:21:23.0000000+00:00</time></trkpt><trkpt lat="42.451561" lon="18.541983"><ele>42.4</ele><time>2012-05-02T16:21:28.0000000+00:00</time></trkpt><trkpt lat="42.45153" lon="18.541485"><ele>39.5</ele><time>2012-05-02T16:21:33.0000000+00:00</time></trkpt><trkpt lat="42.451443" lon="18.540943"><ele>37.3</ele><time>2012-05-02T16:21:38.0000000+00:00</time></trkpt><trkpt lat="42.451324" lon="18.540569"><ele>35.9</ele><time>2012-05-02T16:21:43.0000000+00:00</time></trkpt><trkpt lat="42.451172" lon="18.540342"><ele>34.6</ele><time>2012-05-02T16:21:48.0000000+00:00</time></trkpt><trkpt lat="42.451038" lon="18.540155"><ele>35.5</ele><time>2012-05-02T16:21:53.0000000+00:00</time></trkpt><trkpt lat="42.450893" lon="18.539898"><ele>35.5</ele><time>2012-05-02T16:21:58.0000000+00:00</time></trkpt><trkpt lat="42.450806" lon="18.539644"><ele>33.2</ele><time>2012-05-02T16:22:03.0000000+00:00</time></trkpt><trkpt lat="42.45079" lon="18.53936"><ele>29.9</ele><time>2012-05-02T16:22:08.0000000+00:00</time></trkpt><trkpt lat="42.45071" lon="18.539021"><ele>22.9</ele><time>2012-05-02T16:22:13.0000000+00:00</time></trkpt><trkpt lat="42.450676" lon="18.538696"><ele>16.0</ele><time>2012-05-02T16:22:18.0000000+00:00</time></trkpt><trkpt lat="42.450695" lon="18.538488"><ele>14.3</ele><time>2012-05-02T16:22:23.0000000+00:00</time></trkpt><trkpt lat="42.4505" lon="18.538214"><ele>20.2</ele><time>2012-05-02T16:22:28.0000000+00:00</time></trkpt><trkpt lat="42.450268" lon="18.538025"><ele>26.5</ele><time>2012-05-02T16:22:33.0000000+00:00</time></trkpt><trkpt lat="42.450081" lon="18.537647"><ele>26.6</ele><time>2012-05-02T16:22:38.0000000+00:00</time></trkpt><trkpt lat="42.450027" lon="18.537416"><ele>26.5</ele><time>2012-05-02T16:22:43.0000000+00:00</time></trkpt><trkpt lat="42.450001" lon="18.537228"><ele>29.3</ele><time>2012-05-02T16:22:48.0000000+00:00</time></trkpt><trkpt lat="42.450092" lon="18.536987"><ele>22.8</ele><time>2012-05-02T16:22:53.0000000+00:00</time></trkpt><trkpt lat="42.450138" lon="18.53685"><ele>22.6</ele><time>2012-05-02T16:22:58.0000000+00:00</time></trkpt><trkpt lat="42.450138" lon="18.536846"><ele>22.2</ele><time>2012-05-02T16:23:03.0000000+00:00</time></trkpt><trkpt lat="42.45013" lon="18.536835"><ele>22.2</ele><time>2012-05-02T16:23:08.0000000+00:00</time></trkpt><trkpt lat="42.45013" lon="18.536823"><ele>22.3</ele><time>2012-05-02T16:23:13.0000000+00:00</time></trkpt><trkpt lat="42.450134" lon="18.53677"><ele>23.0</ele><time>2012-05-02T16:23:18.0000000+00:00</time></trkpt><trkpt lat="42.45023" lon="18.536549"><ele>27.9</ele><time>2012-05-02T16:23:23.0000000+00:00</time></trkpt><trkpt lat="42.450363" lon="18.536394"><ele>28.8</ele><time>2012-05-02T16:23:28.0000000+00:00</time></trkpt><trkpt lat="42.450584" lon="18.536453"><ele>32.5</ele><time>2012-05-02T16:23:33.0000000+00:00</time></trkpt><trkpt lat="42.450748" lon="18.536535"><ele>36.3</ele><time>2012-05-02T16:23:38.0000000+00:00</time></trkpt><trkpt lat="42.450916" lon="18.536644"><ele>39.1</ele><time>2012-05-02T16:23:43.0000000+00:00</time></trkpt><trkpt lat="42.451027" lon="18.536709"><ele>45.0</ele><time>2012-05-02T16:23:48.0000000+00:00</time></trkpt><trkpt lat="42.451221" lon="18.536554"><ele>48.6</ele><time>2012-05-02T16:23:53.0000000+00:00</time></trkpt><trkpt lat="42.451298" lon="18.536266"><ele>52.3</ele><time>2012-05-02T16:23:58.0000000+00:00</time></trkpt><trkpt lat="42.451347" lon="18.535959"><ele>57.5</ele><time>2012-05-02T16:24:03.0000000+00:00</time></trkpt><trkpt lat="42.451378" lon="18.535812"><ele>62.6</ele><time>2012-05-02T16:24:08.0000000+00:00</time></trkpt><trkpt lat="42.451492" lon="18.535645"><ele>66.2</ele><time>2012-05-02T16:24:13.0000000+00:00</time></trkpt><trkpt lat="42.451595" lon="18.535454"><ele>58.6</ele><time>2012-05-02T16:24:18.0000000+00:00</time></trkpt><trkpt lat="42.451706" lon="18.535358"><ele>59.9</ele><time>2012-05-02T16:24:23.0000000+00:00</time></trkpt><trkpt lat="42.45179" lon="18.535175"><ele>59.0</ele><time>2012-05-02T16:24:28.0000000+00:00</time></trkpt><trkpt lat="42.45182" lon="18.534948"><ele>61.1</ele><time>2012-05-02T16:24:33.0000000+00:00</time></trkpt><trkpt lat="42.451809" lon="18.534706"><ele>62.0</ele><time>2012-05-02T16:24:38.0000000+00:00</time></trkpt><trkpt lat="42.451847" lon="18.534407"><ele>60.9</ele><time>2012-05-02T16:24:43.0000000+00:00</time></trkpt><trkpt lat="42.451885" lon="18.534132"><ele>59.9</ele><time>2012-05-02T16:24:48.0000000+00:00</time></trkpt><trkpt lat="42.452042" lon="18.533909"><ele>58.8</ele><time>2012-05-02T16:24:53.0000000+00:00</time></trkpt><trkpt lat="42.452187" lon="18.533691"><ele>57.0</ele><time>2012-05-02T16:24:58.0000000+00:00</time></trkpt><trkpt lat="42.452354" lon="18.53347"><ele>53.7</ele><time>2012-05-02T16:25:03.0000000+00:00</time></trkpt><trkpt lat="42.452515" lon="18.533152"><ele>50.3</ele><time>2012-05-02T16:25:08.0000000+00:00</time></trkpt><trkpt lat="42.452675" lon="18.5329"><ele>48.6</ele><time>2012-05-02T16:25:13.0000000+00:00</time></trkpt><trkpt lat="42.45277" lon="18.532751"><ele>49.9</ele><time>2012-05-02T16:25:18.0000000+00:00</time></trkpt><trkpt lat="42.452808" lon="18.532547"><ele>49.5</ele><time>2012-05-02T16:25:23.0000000+00:00</time></trkpt><trkpt lat="42.452862" lon="18.532436"><ele>48.7</ele><time>2012-05-02T16:25:28.0000000+00:00</time></trkpt><trkpt lat="42.452885" lon="18.532431"><ele>49.9</ele><time>2012-05-02T16:25:33.0000000+00:00</time></trkpt><trkpt lat="42.452892" lon="18.532417"><ele>50.0</ele><time>2012-05-02T16:25:38.0000000+00:00</time></trkpt><trkpt lat="42.452782" lon="18.532427"><ele>52.7</ele><time>2012-05-02T16:25:43.0000000+00:00</time></trkpt><trkpt lat="42.452625" lon="18.532663"><ele>53.8</ele><time>2012-05-02T16:25:48.0000000+00:00</time></trkpt><trkpt lat="42.452454" lon="18.53297"><ele>54.7</ele><time>2012-05-02T16:25:53.0000000+00:00</time></trkpt><trkpt lat="42.452316" lon="18.533319"><ele>52.6</ele><time>2012-05-02T16:25:58.0000000+00:00</time></trkpt><trkpt lat="42.452141" lon="18.533607"><ele>51.1</ele><time>2012-05-02T16:26:03.0000000+00:00</time></trkpt><trkpt lat="42.451939" lon="18.533857"><ele>52.5</ele><time>2012-05-02T16:26:08.0000000+00:00</time></trkpt><trkpt lat="42.451862" lon="18.534256"><ele>50.6</ele><time>2012-05-02T16:26:13.0000000+00:00</time></trkpt><trkpt lat="42.451782" lon="18.534565"><ele>48.4</ele><time>2012-05-02T16:26:18.0000000+00:00</time></trkpt><trkpt lat="42.451797" lon="18.534676"><ele>49.6</ele><time>2012-05-02T16:26:23.0000000+00:00</time></trkpt><trkpt lat="42.451828" lon="18.534832"><ele>46.9</ele><time>2012-05-02T16:26:28.0000000+00:00</time></trkpt><trkpt lat="42.451904" lon="18.53508"><ele>44.8</ele><time>2012-05-02T16:26:33.0000000+00:00</time></trkpt><trkpt lat="42.45187" lon="18.535435"><ele>48.5</ele><time>2012-05-02T16:26:38.0000000+00:00</time></trkpt><trkpt lat="42.451797" lon="18.535736"><ele>49.2</ele><time>2012-05-02T16:26:43.0000000+00:00</time></trkpt><trkpt lat="42.451763" lon="18.536053"><ele>49.3</ele><time>2012-05-02T16:26:48.0000000+00:00</time></trkpt><trkpt lat="42.451759" lon="18.536339"><ele>49.4</ele><time>2012-05-02T16:26:53.0000000+00:00</time></trkpt><trkpt lat="42.451744" lon="18.536516"><ele>52.1</ele><time>2012-05-02T16:26:58.0000000+00:00</time></trkpt><trkpt lat="42.451832" lon="18.536549"><ele>54.0</ele><time>2012-05-02T16:27:03.0000000+00:00</time></trkpt><trkpt lat="42.451889" lon="18.536598"><ele>55.1</ele><time>2012-05-02T16:27:08.0000000+00:00</time></trkpt><trkpt lat="42.45192" lon="18.536581"><ele>56.1</ele><time>2012-05-02T16:27:13.0000000+00:00</time></trkpt><trkpt lat="42.45195" lon="18.536369"><ele>57.5</ele><time>2012-05-02T16:27:18.0000000+00:00</time></trkpt><trkpt lat="42.45219" lon="18.536154"><ele>58.7</ele><time>2012-05-02T16:27:23.0000000+00:00</time></trkpt><trkpt lat="42.452312" lon="18.535952"><ele>60.6</ele><time>2012-05-02T16:27:28.0000000+00:00</time></trkpt><trkpt lat="42.45245" lon="18.535782"><ele>60.9</ele><time>2012-05-02T16:27:33.0000000+00:00</time></trkpt><trkpt lat="42.452564" lon="18.535595"><ele>60.0</ele><time>2012-05-02T16:27:38.0000000+00:00</time></trkpt><trkpt lat="42.452633" lon="18.535355"><ele>64.3</ele><time>2012-05-02T16:27:43.0000000+00:00</time></trkpt><trkpt lat="42.452663" lon="18.535139"><ele>66.4</ele><time>2012-05-02T16:27:48.0000000+00:00</time></trkpt><trkpt lat="42.452667" lon="18.534966"><ele>68.3</ele><time>2012-05-02T16:27:53.0000000+00:00</time></trkpt><trkpt lat="42.452633" lon="18.534798"><ele>70.4</ele><time>2012-05-02T16:27:58.0000000+00:00</time></trkpt><trkpt lat="42.452705" lon="18.534626"><ele>74.3</ele><time>2012-05-02T16:28:03.0000000+00:00</time></trkpt><trkpt lat="42.452816" lon="18.534536"><ele>74.2</ele><time>2012-05-02T16:28:08.0000000+00:00</time></trkpt><trkpt lat="42.452869" lon="18.534458"><ele>74.8</ele><time>2012-05-02T16:28:13.0000000+00:00</time></trkpt><trkpt lat="42.452881" lon="18.534424"><ele>74.8</ele><time>2012-05-02T16:28:18.0000000+00:00</time></trkpt><trkpt lat="42.452908" lon="18.534277"><ele>76.7</ele><time>2012-05-02T16:28:23.0000000+00:00</time></trkpt><trkpt lat="42.452953" lon="18.534172"><ele>80.9</ele><time>2012-05-02T16:28:28.0000000+00:00</time></trkpt><trkpt lat="42.452969" lon="18.534101"><ele>81.6</ele><time>2012-05-02T16:28:33.0000000+00:00</time></trkpt><trkpt lat="42.452953" lon="18.534098"><ele>82.1</ele><time>2012-05-02T16:28:38.0000000+00:00</time></trkpt><trkpt lat="42.452953" lon="18.534098"><ele>82.1</ele><time>2012-05-02T16:28:43.0000000+00:00</time></trkpt><trkpt lat="42.45295" lon="18.534094"><ele>82.1</ele><time>2012-05-02T16:28:48.0000000+00:00</time></trkpt><trkpt lat="42.45295" lon="18.534092"><ele>82.2</ele><time>2012-05-02T16:28:53.0000000+00:00</time></trkpt><trkpt lat="42.45295" lon="18.534092"><ele>82.1</ele><time>2012-05-02T16:28:58.0000000+00:00</time></trkpt><trkpt lat="42.45295" lon="18.534092"><ele>82.1</ele><time>2012-05-02T16:29:03.0000000+00:00</time></trkpt><trkpt lat="42.452946" lon="18.534094"><ele>82.1</ele><time>2012-05-02T16:29:08.0000000+00:00</time></trkpt><trkpt lat="42.45295" lon="18.534094"><ele>82.1</ele><time>2012-05-02T16:29:13.0000000+00:00</time></trkpt><trkpt lat="42.453014" lon="18.534126"><ele>80.4</ele><time>2012-05-02T16:29:18.0000000+00:00</time></trkpt><trkpt lat="42.453014" lon="18.534336"><ele>79.1</ele><time>2012-05-02T16:29:23.0000000+00:00</time></trkpt><trkpt lat="42.453007" lon="18.534576"><ele>77.5</ele><time>2012-05-02T16:29:28.0000000+00:00</time></trkpt><trkpt lat="42.45303" lon="18.534912"><ele>76.4</ele><time>2012-05-02T16:29:33.0000000+00:00</time></trkpt><trkpt lat="42.453056" lon="18.535267"><ele>77.0</ele><time>2012-05-02T16:29:38.0000000+00:00</time></trkpt><trkpt lat="42.453079" lon="18.535597"><ele>77.8</ele><time>2012-05-02T16:29:43.0000000+00:00</time></trkpt><trkpt lat="42.45311" lon="18.5359"><ele>77.3</ele><time>2012-05-02T16:29:48.0000000+00:00</time></trkpt><trkpt lat="42.453117" lon="18.536217"><ele>77.3</ele><time>2012-05-02T16:29:53.0000000+00:00</time></trkpt><trkpt lat="42.453129" lon="18.536531"><ele>77.9</ele><time>2012-05-02T16:29:58.0000000+00:00</time></trkpt><trkpt lat="42.453114" lon="18.536898"><ele>79.4</ele><time>2012-05-02T16:30:03.0000000+00:00</time></trkpt><trkpt lat="42.453049" lon="18.537195"><ele>80.6</ele><time>2012-05-02T16:30:08.0000000+00:00</time></trkpt><trkpt lat="42.452976" lon="18.53751"><ele>81.3</ele><time>2012-05-02T16:30:13.0000000+00:00</time></trkpt><trkpt lat="42.452946" lon="18.537836"><ele>83.3</ele><time>2012-05-02T16:30:18.0000000+00:00</time></trkpt><trkpt lat="42.452976" lon="18.538097"><ele>83.3</ele><time>2012-05-02T16:30:23.0000000+00:00</time></trkpt><trkpt lat="42.453026" lon="18.538324"><ele>82.7</ele><time>2012-05-02T16:30:28.0000000+00:00</time></trkpt><trkpt lat="42.453056" lon="18.538465"><ele>81.5</ele><time>2012-05-02T16:30:33.0000000+00:00</time></trkpt><trkpt lat="42.45306" lon="18.538544"><ele>82.6</ele><time>2012-05-02T16:30:38.0000000+00:00</time></trkpt><trkpt lat="42.453056" lon="18.538622"><ele>84.7</ele><time>2012-05-02T16:30:43.0000000+00:00</time></trkpt><trkpt lat="42.453114" lon="18.538704"><ele>82.1</ele><time>2012-05-02T16:30:48.0000000+00:00</time></trkpt><trkpt lat="42.453129" lon="18.538551"><ele>82.1</ele><time>2012-05-02T16:30:53.0000000+00:00</time></trkpt><trkpt lat="42.453148" lon="18.538311"><ele>82.5</ele><time>2012-05-02T16:30:58.0000000+00:00</time></trkpt><trkpt lat="42.453224" lon="18.5382"><ele>81.9</ele><time>2012-05-02T16:31:03.0000000+00:00</time></trkpt><trkpt lat="42.453304" lon="18.538118"><ele>81.9</ele><time>2012-05-02T16:31:08.0000000+00:00</time></trkpt><trkpt lat="42.45332" lon="18.538094"><ele>82.1</ele><time>2012-05-02T16:31:13.0000000+00:00</time></trkpt><trkpt lat="42.453331" lon="18.538088"><ele>82.1</ele><time>2012-05-02T16:31:18.0000000+00:00</time></trkpt><trkpt lat="42.453281" lon="18.538145"><ele>82.4</ele><time>2012-05-02T16:31:23.0000000+00:00</time></trkpt><trkpt lat="42.453201" lon="18.538364"><ele>82.3</ele><time>2012-05-02T16:31:28.0000000+00:00</time></trkpt><trkpt lat="42.453186" lon="18.538633"><ele>82.1</ele><time>2012-05-02T16:31:33.0000000+00:00</time></trkpt><trkpt lat="42.45322" lon="18.53879"><ele>81.1</ele><time>2012-05-02T16:31:38.0000000+00:00</time></trkpt><trkpt lat="42.453224" lon="18.538923"><ele>81.1</ele><time>2012-05-02T16:31:43.0000000+00:00</time></trkpt><trkpt lat="42.453262" lon="18.539074"><ele>80.6</ele><time>2012-05-02T16:31:48.0000000+00:00</time></trkpt><trkpt lat="42.453316" lon="18.539297"><ele>80.2</ele><time>2012-05-02T16:31:53.0000000+00:00</time></trkpt><trkpt lat="42.45335" lon="18.539454"><ele>79.7</ele><time>2012-05-02T16:31:58.0000000+00:00</time></trkpt><trkpt lat="42.453373" lon="18.539673"><ele>79.3</ele><time>2012-05-02T16:32:03.0000000+00:00</time></trkpt><trkpt lat="42.453403" lon="18.539902"><ele>77.7</ele><time>2012-05-02T16:32:08.0000000+00:00</time></trkpt><trkpt lat="42.453438" lon="18.540167"><ele>76.7</ele><time>2012-05-02T16:32:13.0000000+00:00</time></trkpt><trkpt lat="42.453503" lon="18.540401"><ele>73.7</ele><time>2012-05-02T16:32:18.0000000+00:00</time></trkpt><trkpt lat="42.45359" lon="18.540588"><ele>71.6</ele><time>2012-05-02T16:32:23.0000000+00:00</time></trkpt><trkpt lat="42.453743" lon="18.540768"><ele>71.0</ele><time>2012-05-02T16:32:28.0000000+00:00</time></trkpt><trkpt lat="42.453941" lon="18.54105"><ele>68.7</ele><time>2012-05-02T16:32:33.0000000+00:00</time></trkpt><trkpt lat="42.454166" lon="18.541199"><ele>67.7</ele><time>2012-05-02T16:32:38.0000000+00:00</time></trkpt><trkpt lat="42.454304" lon="18.54122"><ele>65.4</ele><time>2012-05-02T16:32:43.0000000+00:00</time></trkpt><trkpt lat="42.454483" lon="18.541229"><ele>64.8</ele><time>2012-05-02T16:32:48.0000000+00:00</time></trkpt><trkpt lat="42.454609" lon="18.541201"><ele>60.9</ele><time>2012-05-02T16:32:53.0000000+00:00</time></trkpt><trkpt lat="42.454697" lon="18.541117"><ele>58.2</ele><time>2012-05-02T16:32:58.0000000+00:00</time></trkpt><trkpt lat="42.454849" lon="18.540953"><ele>55.7</ele><time>2012-05-02T16:33:03.0000000+00:00</time></trkpt><trkpt lat="42.454903" lon="18.540863"><ele>54.3</ele><time>2012-05-02T16:33:08.0000000+00:00</time></trkpt><trkpt lat="42.454952" lon="18.540895"><ele>52.9</ele><time>2012-05-02T16:33:13.0000000+00:00</time></trkpt><trkpt lat="42.454849" lon="18.540949"><ele>51.6</ele><time>2012-05-02T16:33:18.0000000+00:00</time></trkpt><trkpt lat="42.454735" lon="18.540953"><ele>49.4</ele><time>2012-05-02T16:33:23.0000000+00:00</time></trkpt><trkpt lat="42.454609" lon="18.541008"><ele>47.0</ele><time>2012-05-02T16:33:28.0000000+00:00</time></trkpt><trkpt lat="42.454491" lon="18.541042"><ele>45.1</ele><time>2012-05-02T16:33:33.0000000+00:00</time></trkpt><trkpt lat="42.454384" lon="18.541021"><ele>44.4</ele><time>2012-05-02T16:33:38.0000000+00:00</time></trkpt><trkpt lat="42.454243" lon="18.540968"><ele>43.2</ele><time>2012-05-02T16:33:43.0000000+00:00</time></trkpt><trkpt lat="42.454082" lon="18.540899"><ele>43.1</ele><time>2012-05-02T16:33:48.0000000+00:00</time></trkpt><trkpt lat="42.454098" lon="18.540901"><ele>44.0</ele><time>2012-05-02T16:33:53.0000000+00:00</time></trkpt><trkpt lat="42.454098" lon="18.540901"><ele>43.5</ele><time>2012-05-02T16:33:58.0000000+00:00</time></trkpt><trkpt lat="42.454102" lon="18.540901"><ele>43.5</ele><time>2012-05-02T16:34:03.0000000+00:00</time></trkpt><trkpt lat="42.454102" lon="18.540899"><ele>43.5</ele><time>2012-05-02T16:34:08.0000000+00:00</time></trkpt><trkpt lat="42.454102" lon="18.540897"><ele>43.5</ele><time>2012-05-02T16:34:13.0000000+00:00</time></trkpt><trkpt lat="42.454102" lon="18.540894"><ele>43.6</ele><time>2012-05-02T16:34:18.0000000+00:00</time></trkpt><trkpt lat="42.454098" lon="18.540897"><ele>43.7</ele><time>2012-05-02T16:34:23.0000000+00:00</time></trkpt><trkpt lat="42.454063" lon="18.540892"><ele>43.8</ele><time>2012-05-02T16:34:28.0000000+00:00</time></trkpt><trkpt lat="42.454029" lon="18.540892"><ele>43.8</ele><time>2012-05-02T16:34:33.0000000+00:00</time></trkpt><trkpt lat="42.453979" lon="18.54088"><ele>45.7</ele><time>2012-05-02T16:34:38.0000000+00:00</time></trkpt><trkpt lat="42.453941" lon="18.540894"><ele>47.9</ele><time>2012-05-02T16:34:43.0000000+00:00</time></trkpt><trkpt lat="42.45393" lon="18.540913"><ele>49.4</ele><time>2012-05-02T16:34:48.0000000+00:00</time></trkpt><trkpt lat="42.453922" lon="18.540924"><ele>49.3</ele><time>2012-05-02T16:34:53.0000000+00:00</time></trkpt><trkpt lat="42.453918" lon="18.540932"><ele>49.0</ele><time>2012-05-02T16:34:58.0000000+00:00</time></trkpt><trkpt lat="42.453915" lon="18.540943"><ele>48.8</ele><time>2012-05-02T16:35:03.0000000+00:00</time></trkpt><trkpt lat="42.453911" lon="18.540951"><ele>48.6</ele><time>2012-05-02T16:35:08.0000000+00:00</time></trkpt><trkpt lat="42.453911" lon="18.540951"><ele>48.7</ele><time>2012-05-02T16:35:13.0000000+00:00</time></trkpt><trkpt lat="42.453911" lon="18.540951"><ele>48.8</ele><time>2012-05-02T16:35:18.0000000+00:00</time></trkpt><trkpt lat="42.453911" lon="18.540953"><ele>48.8</ele><time>2012-05-02T16:35:23.0000000+00:00</time></trkpt><trkpt lat="42.453911" lon="18.540953"><ele>48.8</ele><time>2012-05-02T16:35:28.0000000+00:00</time></trkpt><trkpt lat="42.453911" lon="18.540953"><ele>48.9</ele><time>2012-05-02T16:35:33.0000000+00:00</time></trkpt><trkpt lat="42.453911" lon="18.540953"><ele>48.9</ele><time>2012-05-02T16:35:38.0000000+00:00</time></trkpt><trkpt lat="42.453899" lon="18.540976"><ele>49.4</ele><time>2012-05-02T16:35:43.0000000+00:00</time></trkpt><trkpt lat="42.45388" lon="18.541183"><ele>51.0</ele><time>2012-05-02T16:35:48.0000000+00:00</time></trkpt><trkpt lat="42.454018" lon="18.541517"><ele>53.0</ele><time>2012-05-02T16:35:53.0000000+00:00</time></trkpt><trkpt lat="42.45414" lon="18.542015"><ele>52.1</ele><time>2012-05-02T16:35:58.0000000+00:00</time></trkpt><trkpt lat="42.454048" lon="18.542559"><ele>49.5</ele><time>2012-05-02T16:36:03.0000000+00:00</time></trkpt><trkpt lat="42.453892" lon="18.543106"><ele>46.6</ele><time>2012-05-02T16:36:08.0000000+00:00</time></trkpt><trkpt lat="42.453777" lon="18.54369"><ele>45.2</ele><time>2012-05-02T16:36:13.0000000+00:00</time></trkpt><trkpt lat="42.453754" lon="18.544203"><ele>44.7</ele><time>2012-05-02T16:36:18.0000000+00:00</time></trkpt><trkpt lat="42.453823" lon="18.544769"><ele>44.2</ele><time>2012-05-02T16:36:23.0000000+00:00</time></trkpt><trkpt lat="42.453938" lon="18.545284"><ele>44.6</ele><time>2012-05-02T16:36:28.0000000+00:00</time></trkpt><trkpt lat="42.454056" lon="18.545637"><ele>46.7</ele><time>2012-05-02T16:36:33.0000000+00:00</time></trkpt><trkpt lat="42.454102" lon="18.545824"><ele>43.3</ele><time>2012-05-02T16:36:38.0000000+00:00</time></trkpt><trkpt lat="42.454151" lon="18.545998"><ele>42.2</ele><time>2012-05-02T16:36:43.0000000+00:00</time></trkpt><trkpt lat="42.454166" lon="18.546072"><ele>43.1</ele><time>2012-05-02T16:36:48.0000000+00:00</time></trkpt><trkpt lat="42.454166" lon="18.546072"><ele>41.8</ele><time>2012-05-02T16:36:53.0000000+00:00</time></trkpt><trkpt lat="42.454166" lon="18.546072"><ele>41.3</ele><time>2012-05-02T16:36:58.0000000+00:00</time></trkpt><trkpt lat="42.454166" lon="18.546072"><ele>41.2</ele><time>2012-05-02T16:37:03.0000000+00:00</time></trkpt><trkpt lat="42.454166" lon="18.546072"><ele>41.3</ele><time>2012-05-02T16:37:08.0000000+00:00</time></trkpt><trkpt lat="42.454166" lon="18.546072"><ele>41.3</ele><time>2012-05-02T16:37:13.0000000+00:00</time></trkpt><trkpt lat="42.45417" lon="18.546082"><ele>41.3</ele><time>2012-05-02T16:37:18.0000000+00:00</time></trkpt><trkpt lat="42.454277" lon="18.546274"><ele>43.0</ele><time>2012-05-02T16:37:23.0000000+00:00</time></trkpt><trkpt lat="42.454433" lon="18.546675"><ele>42.9</ele><time>2012-05-02T16:37:28.0000000+00:00</time></trkpt><trkpt lat="42.454636" lon="18.547199"><ele>41.6</ele><time>2012-05-02T16:37:33.0000000+00:00</time></trkpt><trkpt lat="42.454849" lon="18.547792"><ele>37.9</ele><time>2012-05-02T16:37:38.0000000+00:00</time></trkpt><trkpt lat="42.454937" lon="18.548452"><ele>35.2</ele><time>2012-05-02T16:37:43.0000000+00:00</time></trkpt><trkpt lat="42.454971" lon="18.549097"><ele>32.6</ele><time>2012-05-02T16:37:48.0000000+00:00</time></trkpt><trkpt lat="42.455025" lon="18.549673"><ele>30.4</ele><time>2012-05-02T16:37:53.0000000+00:00</time></trkpt><trkpt lat="42.455181" lon="18.550169"><ele>27.1</ele><time>2012-05-02T16:37:58.0000000+00:00</time></trkpt><trkpt lat="42.455425" lon="18.550699"><ele>23.8</ele><time>2012-05-02T16:38:03.0000000+00:00</time></trkpt><trkpt lat="42.455589" lon="18.551334"><ele>20.8</ele><time>2012-05-02T16:38:08.0000000+00:00</time></trkpt><trkpt lat="42.455563" lon="18.552029"><ele>17.9</ele><time>2012-05-02T16:38:13.0000000+00:00</time></trkpt><trkpt lat="42.455379" lon="18.552677"><ele>14.0</ele><time>2012-05-02T16:38:18.0000000+00:00</time></trkpt><trkpt lat="42.455151" lon="18.553293"><ele>10.2</ele><time>2012-05-02T16:38:23.0000000+00:00</time></trkpt><trkpt lat="42.454899" lon="18.553907"><ele>6.0</ele><time>2012-05-02T16:38:28.0000000+00:00</time></trkpt><trkpt lat="42.454716" lon="18.554617"><ele>1.2</ele><time>2012-05-02T16:38:33.0000000+00:00</time></trkpt><trkpt lat="42.454613" lon="18.555302"><ele>-3.2</ele><time>2012-05-02T16:38:38.0000000+00:00</time></trkpt><trkpt lat="42.454559" lon="18.555727"><ele>-8.3</ele><time>2012-05-02T16:38:43.0000000+00:00</time></trkpt><trkpt lat="42.454506" lon="18.55608"><ele>-14.7</ele><time>2012-05-02T16:38:48.0000000+00:00</time></trkpt><trkpt lat="42.454624" lon="18.556517"><ele>-13.9</ele><time>2012-05-02T16:38:53.0000000+00:00</time></trkpt><trkpt lat="42.454739" lon="18.556896"><ele>-9.4</ele><time>2012-05-02T16:38:58.0000000+00:00</time></trkpt><trkpt lat="42.454823" lon="18.557255"><ele>-7.5</ele><time>2012-05-02T16:39:03.0000000+00:00</time></trkpt><trkpt lat="42.454906" lon="18.557587"><ele>-5.2</ele><time>2012-05-02T16:39:08.0000000+00:00</time></trkpt><trkpt lat="42.454964" lon="18.557983"><ele>-4.1</ele><time>2012-05-02T16:39:13.0000000+00:00</time></trkpt><trkpt lat="42.45491" lon="18.558352"><ele>-3.0</ele><time>2012-05-02T16:39:18.0000000+00:00</time></trkpt><trkpt lat="42.454609" lon="18.558521"><ele>-3.7</ele><time>2012-05-02T16:39:23.0000000+00:00</time></trkpt><trkpt lat="42.454273" lon="18.558537"><ele>-3.6</ele><time>2012-05-02T16:39:28.0000000+00:00</time></trkpt><trkpt lat="42.453995" lon="18.558544"><ele>-3.8</ele><time>2012-05-02T16:39:33.0000000+00:00</time></trkpt><trkpt lat="42.453743" lon="18.558422"><ele>-2.6</ele><time>2012-05-02T16:39:38.0000000+00:00</time></trkpt><trkpt lat="42.453503" lon="18.558237"><ele>-2.2</ele><time>2012-05-02T16:39:43.0000000+00:00</time></trkpt><trkpt lat="42.45327" lon="18.558071"><ele>-1.2</ele><time>2012-05-02T16:39:48.0000000+00:00</time></trkpt><trkpt lat="42.453098" lon="18.557871"><ele>-0.4</ele><time>2012-05-02T16:39:53.0000000+00:00</time></trkpt><trkpt lat="42.452942" lon="18.557623"><ele>0.4</ele><time>2012-05-02T16:39:58.0000000+00:00</time></trkpt><trkpt lat="42.452824" lon="18.557369"><ele>2.3</ele><time>2012-05-02T16:40:03.0000000+00:00</time></trkpt><trkpt lat="42.452744" lon="18.557163"><ele>5.8</ele><time>2012-05-02T16:40:08.0000000+00:00</time></trkpt><trkpt lat="42.452652" lon="18.556913"><ele>5.7</ele><time>2012-05-02T16:40:13.0000000+00:00</time></trkpt><trkpt lat="42.452473" lon="18.556614"><ele>8.6</ele><time>2012-05-02T16:40:18.0000000+00:00</time></trkpt><trkpt lat="42.452316" lon="18.55636"><ele>11.2</ele><time>2012-05-02T16:40:23.0000000+00:00</time></trkpt><trkpt lat="42.452091" lon="18.55607"><ele>13.0</ele><time>2012-05-02T16:40:28.0000000+00:00</time></trkpt><trkpt lat="42.451916" lon="18.555763"><ele>12.4</ele><time>2012-05-02T16:40:33.0000000+00:00</time></trkpt><trkpt lat="42.451843" lon="18.55546"><ele>13.4</ele><time>2012-05-02T16:40:38.0000000+00:00</time></trkpt><trkpt lat="42.451801" lon="18.555292"><ele>14.1</ele><time>2012-05-02T16:40:43.0000000+00:00</time></trkpt><trkpt lat="42.451809" lon="18.555294"><ele>13.8</ele><time>2012-05-02T16:40:48.0000000+00:00</time></trkpt><trkpt lat="42.451809" lon="18.555286"><ele>13.8</ele><time>2012-05-02T16:40:53.0000000+00:00</time></trkpt><trkpt lat="42.451801" lon="18.555189"><ele>14.2</ele><time>2012-05-02T16:40:58.0000000+00:00</time></trkpt><trkpt lat="42.451828" lon="18.554935"><ele>15.3</ele><time>2012-05-02T16:41:03.0000000+00:00</time></trkpt><trkpt lat="42.451813" lon="18.554647"><ele>17.3</ele><time>2012-05-02T16:41:08.0000000+00:00</time></trkpt><trkpt lat="42.451828" lon="18.554379"><ele>19.1</ele><time>2012-05-02T16:41:13.0000000+00:00</time></trkpt><trkpt lat="42.451752" lon="18.554085"><ele>19.7</ele><time>2012-05-02T16:41:18.0000000+00:00</time></trkpt><trkpt lat="42.451706" lon="18.553801"><ele>20.3</ele><time>2012-05-02T16:41:23.0000000+00:00</time></trkpt><trkpt lat="42.451683" lon="18.553612"><ele>21.2</ele><time>2012-05-02T16:41:28.0000000+00:00</time></trkpt><trkpt lat="42.451683" lon="18.553423"><ele>25.0</ele><time>2012-05-02T16:41:33.0000000+00:00</time></trkpt><trkpt lat="42.451599" lon="18.553207"><ele>27.7</ele><time>2012-05-02T16:41:38.0000000+00:00</time></trkpt><trkpt lat="42.45158" lon="18.55303"><ele>29.4</ele><time>2012-05-02T16:41:43.0000000+00:00</time></trkpt><trkpt lat="42.451588" lon="18.552876"><ele>31.1</ele><time>2012-05-02T16:41:48.0000000+00:00</time></trkpt><trkpt lat="42.451614" lon="18.552746"><ele>33.7</ele><time>2012-05-02T16:41:53.0000000+00:00</time></trkpt><trkpt lat="42.451584" lon="18.55258"><ele>35.7</ele><time>2012-05-02T16:41:58.0000000+00:00</time></trkpt><trkpt lat="42.451561" lon="18.552401"><ele>37.4</ele><time>2012-05-02T16:42:03.0000000+00:00</time></trkpt><trkpt lat="42.451534" lon="18.552214"><ele>40.4</ele><time>2012-05-02T16:42:08.0000000+00:00</time></trkpt><trkpt lat="42.451523" lon="18.55213"><ele>43.4</ele><time>2012-05-02T16:42:13.0000000+00:00</time></trkpt><trkpt lat="42.451523" lon="18.552124"><ele>45.1</ele><time>2012-05-02T16:42:18.0000000+00:00</time></trkpt><trkpt lat="42.451515" lon="18.552116"><ele>45.4</ele><time>2012-05-02T16:42:23.0000000+00:00</time></trkpt><trkpt lat="42.4515" lon="18.552029"><ele>47.5</ele><time>2012-05-02T16:42:28.0000000+00:00</time></trkpt><trkpt lat="42.451542" lon="18.5518"><ele>46.0</ele><time>2012-05-02T16:42:33.0000000+00:00</time></trkpt><trkpt lat="42.451561" lon="18.551468"><ele>48.6</ele><time>2012-05-02T16:42:38.0000000+00:00</time></trkpt><trkpt lat="42.451553" lon="18.551203"><ele>48.5</ele><time>2012-05-02T16:42:43.0000000+00:00</time></trkpt><trkpt lat="42.451565" lon="18.55101"><ele>48.5</ele><time>2012-05-02T16:42:48.0000000+00:00</time></trkpt><trkpt lat="42.451633" lon="18.550781"><ele>48.4</ele><time>2012-05-02T16:42:53.0000000+00:00</time></trkpt><trkpt lat="42.451664" lon="18.55048"><ele>47.5</ele><time>2012-05-02T16:42:58.0000000+00:00</time></trkpt><trkpt lat="42.451653" lon="18.550127"><ele>48.7</ele><time>2012-05-02T16:43:03.0000000+00:00</time></trkpt><trkpt lat="42.451672" lon="18.54987"><ele>49.6</ele><time>2012-05-02T16:43:08.0000000+00:00</time></trkpt><trkpt lat="42.451668" lon="18.549665"><ele>49.8</ele><time>2012-05-02T16:43:13.0000000+00:00</time></trkpt><trkpt lat="42.451714" lon="18.549593"><ele>52.0</ele><time>2012-05-02T16:43:18.0000000+00:00</time></trkpt><trkpt lat="42.451736" lon="18.54952"><ele>54.0</ele><time>2012-05-02T16:43:23.0000000+00:00</time></trkpt><trkpt lat="42.45174" lon="18.549519"><ele>54.0</ele><time>2012-05-02T16:43:28.0000000+00:00</time></trkpt><trkpt lat="42.451691" lon="18.549492"><ele>54.6</ele><time>2012-05-02T16:43:33.0000000+00:00</time></trkpt><trkpt lat="42.451599" lon="18.549406"><ele>54.7</ele><time>2012-05-02T16:43:38.0000000+00:00</time></trkpt><trkpt lat="42.451477" lon="18.549337"><ele>54.5</ele><time>2012-05-02T16:43:43.0000000+00:00</time></trkpt><trkpt lat="42.45137" lon="18.549255"><ele>52.4</ele><time>2012-05-02T16:43:48.0000000+00:00</time></trkpt><trkpt lat="42.451347" lon="18.549135"><ele>50.5</ele><time>2012-05-02T16:43:53.0000000+00:00</time></trkpt><trkpt lat="42.451347" lon="18.549139"><ele>50.2</ele><time>2012-05-02T16:43:58.0000000+00:00</time></trkpt><trkpt lat="42.451366" lon="18.549088"><ele>50.2</ele><time>2012-05-02T16:44:03.0000000+00:00</time></trkpt><trkpt lat="42.451466" lon="18.548914"><ele>51.0</ele><time>2012-05-02T16:44:08.0000000+00:00</time></trkpt><trkpt lat="42.451542" lon="18.548733"><ele>50.7</ele><time>2012-05-02T16:44:13.0000000+00:00</time></trkpt><trkpt lat="42.451492" lon="18.548746"><ele>51.7</ele><time>2012-05-02T16:44:18.0000000+00:00</time></trkpt><trkpt lat="42.451366" lon="18.548929"><ele>51.6</ele><time>2012-05-02T16:44:23.0000000+00:00</time></trkpt><trkpt lat="42.451298" lon="18.549192"><ele>51.8</ele><time>2012-05-02T16:44:28.0000000+00:00</time></trkpt><trkpt lat="42.451363" lon="18.549274"><ele>52.1</ele><time>2012-05-02T16:44:33.0000000+00:00</time></trkpt><trkpt lat="42.451454" lon="18.549305"><ele>52.7</ele><time>2012-05-02T16:44:38.0000000+00:00</time></trkpt><trkpt lat="42.451546" lon="18.549356"><ele>54.1</ele><time>2012-05-02T16:44:43.0000000+00:00</time></trkpt><trkpt lat="42.45163" lon="18.549423"><ele>55.7</ele><time>2012-05-02T16:44:48.0000000+00:00</time></trkpt><trkpt lat="42.451675" lon="18.549467"><ele>57.1</ele><time>2012-05-02T16:44:53.0000000+00:00</time></trkpt><trkpt lat="42.451721" lon="18.549494"><ele>58.0</ele><time>2012-05-02T16:44:58.0000000+00:00</time></trkpt><trkpt lat="42.451817" lon="18.549383"><ele>59.4</ele><time>2012-05-02T16:45:03.0000000+00:00</time></trkpt><trkpt lat="42.45192" lon="18.549162"><ele>59.8</ele><time>2012-05-02T16:45:08.0000000+00:00</time></trkpt><trkpt lat="42.451939" lon="18.548939"><ele>59.2</ele><time>2012-05-02T16:45:13.0000000+00:00</time></trkpt><trkpt lat="42.451942" lon="18.548702"><ele>60.4</ele><time>2012-05-02T16:45:18.0000000+00:00</time></trkpt><trkpt lat="42.451977" lon="18.548532"><ele>62.5</ele><time>2012-05-02T16:45:23.0000000+00:00</time></trkpt><trkpt lat="42.452019" lon="18.548269"><ele>63.5</ele><time>2012-05-02T16:45:28.0000000+00:00</time></trkpt><trkpt lat="42.452057" lon="18.54804"><ele>65.0</ele><time>2012-05-02T16:45:33.0000000+00:00</time></trkpt><trkpt lat="42.452106" lon="18.547882"><ele>65.4</ele><time>2012-05-02T16:45:38.0000000+00:00</time></trkpt><trkpt lat="42.452175" lon="18.547764"><ele>68.6</ele><time>2012-05-02T16:45:43.0000000+00:00</time></trkpt><trkpt lat="42.452106" lon="18.547764"><ele>69.7</ele><time>2012-05-02T16:45:48.0000000+00:00</time></trkpt><trkpt lat="42.452023" lon="18.548021"><ele>69.4</ele><time>2012-05-02T16:45:53.0000000+00:00</time></trkpt><trkpt lat="42.451954" lon="18.548365"><ele>69.4</ele><time>2012-05-02T16:45:58.0000000+00:00</time></trkpt><trkpt lat="42.451923" lon="18.548349"><ele>65.4</ele><time>2012-05-02T16:46:03.0000000+00:00</time></trkpt><trkpt lat="42.451965" lon="18.547911"><ele>60.5</ele><time>2012-05-02T16:46:08.0000000+00:00</time></trkpt><trkpt lat="42.451885" lon="18.547495"><ele>59.4</ele><time>2012-05-02T16:46:13.0000000+00:00</time></trkpt><trkpt lat="42.451828" lon="18.547157"><ele>57.3</ele><time>2012-05-02T16:46:18.0000000+00:00</time></trkpt><trkpt lat="42.451786" lon="18.546911"><ele>55.1</ele><time>2012-05-02T16:46:23.0000000+00:00</time></trkpt><trkpt lat="42.451633" lon="18.546608"><ele>52.9</ele><time>2012-05-02T16:46:28.0000000+00:00</time></trkpt><trkpt lat="42.451508" lon="18.546452"><ele>49.8</ele><time>2012-05-02T16:46:33.0000000+00:00</time></trkpt><trkpt lat="42.451283" lon="18.546434"><ele>46.3</ele><time>2012-05-02T16:46:38.0000000+00:00</time></trkpt><trkpt lat="42.451141" lon="18.546394"><ele>45.8</ele><time>2012-05-02T16:46:43.0000000+00:00</time></trkpt><trkpt lat="42.451111" lon="18.546383"><ele>45.7</ele><time>2012-05-02T16:46:48.0000000+00:00</time></trkpt><trkpt lat="42.451054" lon="18.546452"><ele>44.9</ele><time>2012-05-02T16:46:53.0000000+00:00</time></trkpt><trkpt lat="42.45097" lon="18.546684"><ele>44.6</ele><time>2012-05-02T16:46:58.0000000+00:00</time></trkpt><trkpt lat="42.450924" lon="18.546652"><ele>42.5</ele><time>2012-05-02T16:47:03.0000000+00:00</time></trkpt><trkpt lat="42.450909" lon="18.546532"><ele>42.3</ele><time>2012-05-02T16:47:08.0000000+00:00</time></trkpt><trkpt lat="42.450924" lon="18.546453"><ele>44.6</ele><time>2012-05-02T16:47:13.0000000+00:00</time></trkpt><trkpt lat="42.450932" lon="18.546364"><ele>45.4</ele><time>2012-05-02T16:47:18.0000000+00:00</time></trkpt><trkpt lat="42.451019" lon="18.546227"><ele>45.2</ele><time>2012-05-02T16:47:23.0000000+00:00</time></trkpt><trkpt lat="42.451027" lon="18.546032"><ele>45.4</ele><time>2012-05-02T16:47:28.0000000+00:00</time></trkpt><trkpt lat="42.45105" lon="18.545776"><ele>44.3</ele><time>2012-05-02T16:47:33.0000000+00:00</time></trkpt><trkpt lat="42.451077" lon="18.545448"><ele>45.1</ele><time>2012-05-02T16:47:38.0000000+00:00</time></trkpt><trkpt lat="42.451077" lon="18.545193"><ele>46.4</ele><time>2012-05-02T16:47:43.0000000+00:00</time></trkpt><trkpt lat="42.451141" lon="18.544897"><ele>47.1</ele><time>2012-05-02T16:47:48.0000000+00:00</time></trkpt><trkpt lat="42.45121" lon="18.544647"><ele>46.3</ele><time>2012-05-02T16:47:53.0000000+00:00</time></trkpt><trkpt lat="42.451256" lon="18.544476"><ele>45.2</ele><time>2012-05-02T16:47:58.0000000+00:00</time></trkpt><trkpt lat="42.451332" lon="18.544334"><ele>43.2</ele><time>2012-05-02T16:48:03.0000000+00:00</time></trkpt><trkpt lat="42.451439" lon="18.544092"><ele>41.7</ele><time>2012-05-02T16:48:08.0000000+00:00</time></trkpt><trkpt lat="42.451534" lon="18.543993"><ele>43.1</ele><time>2012-05-02T16:48:13.0000000+00:00</time></trkpt><trkpt lat="42.451599" lon="18.543896"><ele>45.1</ele><time>2012-05-02T16:48:18.0000000+00:00</time></trkpt><trkpt lat="42.451653" lon="18.543737"><ele>48.4</ele><time>2012-05-02T16:48:23.0000000+00:00</time></trkpt><trkpt lat="42.45166" lon="18.543545"><ele>51.8</ele><time>2012-05-02T16:48:28.0000000+00:00</time></trkpt><trkpt lat="42.451752" lon="18.543379"><ele>51.9</ele><time>2012-05-02T16:48:33.0000000+00:00</time></trkpt><trkpt lat="42.451839" lon="18.543253"><ele>53.0</ele><time>2012-05-02T16:48:38.0000000+00:00</time></trkpt><trkpt lat="42.451935" lon="18.543139"><ele>53.3</ele><time>2012-05-02T16:48:43.0000000+00:00</time></trkpt><trkpt lat="42.452003" lon="18.543015"><ele>54.8</ele><time>2012-05-02T16:48:48.0000000+00:00</time></trkpt><trkpt lat="42.452057" lon="18.542883"><ele>56.3</ele><time>2012-05-02T16:48:53.0000000+00:00</time></trkpt><trkpt lat="42.452122" lon="18.542786"><ele>55.6</ele><time>2012-05-02T16:48:58.0000000+00:00</time></trkpt><trkpt lat="42.452156" lon="18.542707"><ele>53.6</ele><time>2012-05-02T16:49:03.0000000+00:00</time></trkpt><trkpt lat="42.452187" lon="18.542557"><ele>53.8</ele><time>2012-05-02T16:49:08.0000000+00:00</time></trkpt><trkpt lat="42.452217" lon="18.542372"><ele>55.8</ele><time>2012-05-02T16:49:13.0000000+00:00</time></trkpt><trkpt lat="42.452236" lon="18.542173"><ele>59.5</ele><time>2012-05-02T16:49:18.0000000+00:00</time></trkpt><trkpt lat="42.45232" lon="18.541939"><ele>59.1</ele><time>2012-05-02T16:49:23.0000000+00:00</time></trkpt><trkpt lat="42.45248" lon="18.541765"><ele>56.3</ele><time>2012-05-02T16:49:28.0000000+00:00</time></trkpt><trkpt lat="42.45253" lon="18.541624"><ele>63.1</ele><time>2012-05-02T16:49:33.0000000+00:00</time></trkpt><trkpt lat="42.452545" lon="18.5415"><ele>67.7</ele><time>2012-05-02T16:49:38.0000000+00:00</time></trkpt><trkpt lat="42.452538" lon="18.541483"><ele>70.7</ele><time>2012-05-02T16:49:43.0000000+00:00</time></trkpt><trkpt lat="42.452538" lon="18.541483"><ele>71.7</ele><time>2012-05-02T16:49:48.0000000+00:00</time></trkpt><trkpt lat="42.452549" lon="18.541494"><ele>72.3</ele><time>2012-05-02T16:49:53.0000000+00:00</time></trkpt><trkpt lat="42.452564" lon="18.541519"><ele>72.8</ele><time>2012-05-02T16:49:58.0000000+00:00</time></trkpt><trkpt lat="42.452583" lon="18.541533"><ele>73.2</ele><time>2012-05-02T16:50:03.0000000+00:00</time></trkpt><trkpt lat="42.452602" lon="18.541531"><ele>73.6</ele><time>2012-05-02T16:50:08.0000000+00:00</time></trkpt><trkpt lat="42.452614" lon="18.541527"><ele>74.0</ele><time>2012-05-02T16:50:13.0000000+00:00</time></trkpt><trkpt lat="42.452625" lon="18.541525"><ele>74.3</ele><time>2012-05-02T16:50:18.0000000+00:00</time></trkpt><trkpt lat="42.452644" lon="18.541527"><ele>74.5</ele><time>2012-05-02T16:50:23.0000000+00:00</time></trkpt><trkpt lat="42.452644" lon="18.541521"><ele>74.6</ele><time>2012-05-02T16:50:28.0000000+00:00</time></trkpt><trkpt lat="42.452644" lon="18.541517"><ele>74.6</ele><time>2012-05-02T16:50:33.0000000+00:00</time></trkpt><trkpt lat="42.452652" lon="18.541506"><ele>74.6</ele><time>2012-05-02T16:50:38.0000000+00:00</time></trkpt><trkpt lat="42.452652" lon="18.541506"><ele>74.6</ele><time>2012-05-02T16:50:43.0000000+00:00</time></trkpt><trkpt lat="42.452648" lon="18.54151"><ele>74.5</ele><time>2012-05-02T16:50:48.0000000+00:00</time></trkpt><trkpt lat="42.452644" lon="18.541506"><ele>74.4</ele><time>2012-05-02T16:50:53.0000000+00:00</time></trkpt></trkseg><trkseg><trkpt lat="42.666775" lon="18.97587"><ele>389.6</ele><time>2012-05-02T22:48:05.0000000+00:00</time></trkpt><trkpt lat="42.667381" lon="18.974998"><ele>393.6</ele><time>2012-05-02T22:48:10.0000000+00:00</time></trkpt><trkpt lat="42.668098" lon="18.97431"><ele>395.4</ele><time>2012-05-02T22:48:15.0000000+00:00</time></trkpt><trkpt lat="42.66885" lon="18.973841"><ele>400.3</ele><time>2012-05-02T22:48:20.0000000+00:00</time></trkpt><trkpt lat="42.669601" lon="18.973663"><ele>408.5</ele><time>2012-05-02T22:48:25.0000000+00:00</time></trkpt><trkpt lat="42.670391" lon="18.973747"><ele>413.2</ele><time>2012-05-02T22:48:30.0000000+00:00</time></trkpt><trkpt lat="42.671223" lon="18.97411"><ele>415.7</ele><time>2012-05-02T22:48:35.0000000+00:00</time></trkpt><trkpt lat="42.672028" lon="18.974638"><ele>418.0</ele><time>2012-05-02T22:48:40.0000000+00:00</time></trkpt><trkpt lat="42.672878" lon="18.975185"><ele>420.3</ele><time>2012-05-02T22:48:45.0000000+00:00</time></trkpt><trkpt lat="42.673752" lon="18.975636"><ele>422.1</ele><time>2012-05-02T22:48:50.0000000+00:00</time></trkpt><trkpt lat="42.674686" lon="18.975832"><ele>421.5</ele><time>2012-05-02T22:48:55.0000000+00:00</time></trkpt><trkpt lat="42.675659" lon="18.975807"><ele>423.0</ele><time>2012-05-02T22:49:00.0000000+00:00</time></trkpt><trkpt lat="42.676605" lon="18.975521"><ele>424.1</ele><time>2012-05-02T22:49:05.0000000+00:00</time></trkpt><trkpt lat="42.677422" lon="18.975018"><ele>424.9</ele><time>2012-05-02T22:49:10.0000000+00:00</time></trkpt><trkpt lat="42.678078" lon="18.974392"><ele>427.6</ele><time>2012-05-02T22:49:15.0000000+00:00</time></trkpt><trkpt lat="42.678638" lon="18.973602"><ele>428.0</ele><time>2012-05-02T22:49:20.0000000+00:00</time></trkpt><trkpt lat="42.679127" lon="18.972591"><ele>429.3</ele><time>2012-05-02T22:49:25.0000000+00:00</time></trkpt><trkpt lat="42.67947" lon="18.971376"><ele>428.6</ele><time>2012-05-02T22:49:30.0000000+00:00</time></trkpt><trkpt lat="42.679726" lon="18.970062"><ele>431.4</ele><time>2012-05-02T22:49:35.0000000+00:00</time></trkpt><trkpt lat="42.680038" lon="18.968763"><ele>434.8</ele><time>2012-05-02T22:49:40.0000000+00:00</time></trkpt><trkpt lat="42.680408" lon="18.967505"><ele>435.8</ele><time>2012-05-02T22:49:45.0000000+00:00</time></trkpt><trkpt lat="42.680931" lon="18.966326"><ele>439.0</ele><time>2012-05-02T22:49:50.0000000+00:00</time></trkpt><trkpt lat="42.68158" lon="18.965258"><ele>443.8</ele><time>2012-05-02T22:49:55.0000000+00:00</time></trkpt><trkpt lat="42.682369" lon="18.964394"><ele>447.3</ele><time>2012-05-02T22:50:00.0000000+00:00</time></trkpt><trkpt lat="42.683247" lon="18.963737"><ele>450.6</ele><time>2012-05-02T22:50:05.0000000+00:00</time></trkpt><trkpt lat="42.684151" lon="18.963285"><ele>456.3</ele><time>2012-05-02T22:50:10.0000000+00:00</time></trkpt><trkpt lat="42.685173" lon="18.96311"><ele>458.5</ele><time>2012-05-02T22:50:15.0000000+00:00</time></trkpt><trkpt lat="42.686211" lon="18.962988"><ele>462.9</ele><time>2012-05-02T22:50:20.0000000+00:00</time></trkpt><trkpt lat="42.687267" lon="18.962791"><ele>468.7</ele><time>2012-05-02T22:50:25.0000000+00:00</time></trkpt><trkpt lat="42.688187" lon="18.962326"><ele>473.1</ele><time>2012-05-02T22:50:30.0000000+00:00</time></trkpt><trkpt lat="42.689117" lon="18.961794"><ele>479.1</ele><time>2012-05-02T22:50:35.0000000+00:00</time></trkpt><trkpt lat="42.69009" lon="18.961407"><ele>485.5</ele><time>2012-05-02T22:50:40.0000000+00:00</time></trkpt><trkpt lat="42.691044" lon="18.961155"><ele>488.6</ele><time>2012-05-02T22:50:45.0000000+00:00</time></trkpt><trkpt lat="42.692001" lon="18.9611"><ele>491.6</ele><time>2012-05-02T22:50:50.0000000+00:00</time></trkpt><trkpt lat="42.69294" lon="18.961124"><ele>493.1</ele><time>2012-05-02T22:50:55.0000000+00:00</time></trkpt><trkpt lat="42.693928" lon="18.961319"><ele>495.7</ele><time>2012-05-02T22:51:00.0000000+00:00</time></trkpt><trkpt lat="42.694916" lon="18.961596"><ele>498.8</ele><time>2012-05-02T22:51:05.0000000+00:00</time></trkpt><trkpt lat="42.696415" lon="18.96174"><ele>515.5</ele><time>2012-05-02T22:51:12.0000000+00:00</time></trkpt><trkpt lat="42.697403" lon="18.961775"><ele>509.6</ele><time>2012-05-02T22:51:17.0000000+00:00</time></trkpt><trkpt lat="42.698479" lon="18.96166"><ele>509.9</ele><time>2012-05-02T22:51:22.0000000+00:00</time></trkpt><trkpt lat="42.699558" lon="18.96147"><ele>524.8</ele><time>2012-05-02T22:51:27.0000000+00:00</time></trkpt><trkpt lat="42.700546" lon="18.961082"><ele>529.8</ele><time>2012-05-02T22:51:32.0000000+00:00</time></trkpt><trkpt lat="42.701576" lon="18.960815"><ele>534.8</ele><time>2012-05-02T22:51:37.0000000+00:00</time></trkpt><trkpt lat="42.70261" lon="18.960726"><ele>537.3</ele><time>2012-05-02T22:51:42.0000000+00:00</time></trkpt><trkpt lat="42.703636" lon="18.960697"><ele>536.9</ele><time>2012-05-02T22:51:47.0000000+00:00</time></trkpt><trkpt lat="42.704689" lon="18.960545"><ele>540.6</ele><time>2012-05-02T22:51:52.0000000+00:00</time></trkpt><trkpt lat="42.705715" lon="18.960081"><ele>547.7</ele><time>2012-05-02T22:51:57.0000000+00:00</time></trkpt><trkpt lat="42.706596" lon="18.959215"><ele>553.5</ele><time>2012-05-02T22:52:02.0000000+00:00</time></trkpt><trkpt lat="42.707294" lon="18.958052"><ele>556.3</ele><time>2012-05-02T22:52:07.0000000+00:00</time></trkpt><trkpt lat="42.707912" lon="18.956781"><ele>556.5</ele><time>2012-05-02T22:52:12.0000000+00:00</time></trkpt><trkpt lat="42.708584" lon="18.955544"><ele>559.7</ele><time>2012-05-02T22:52:17.0000000+00:00</time></trkpt><trkpt lat="42.709305" lon="18.954355"><ele>565.3</ele><time>2012-05-02T22:52:22.0000000+00:00</time></trkpt><trkpt lat="42.710068" lon="18.953247"><ele>570.1</ele><time>2012-05-02T22:52:27.0000000+00:00</time></trkpt><trkpt lat="42.71088" lon="18.952295"><ele>573.9</ele><time>2012-05-02T22:52:32.0000000+00:00</time></trkpt><trkpt lat="42.711769" lon="18.951481"><ele>577.6</ele><time>2012-05-02T22:52:37.0000000+00:00</time></trkpt><trkpt lat="42.712681" lon="18.950768"><ele>581.9</ele><time>2012-05-02T22:52:42.0000000+00:00</time></trkpt><trkpt lat="42.713642" lon="18.950047"><ele>585.0</ele><time>2012-05-02T22:52:47.0000000+00:00</time></trkpt><trkpt lat="42.714546" lon="18.949131"><ele>589.5</ele><time>2012-05-02T22:52:52.0000000+00:00</time></trkpt><trkpt lat="42.715343" lon="18.948008"><ele>594.1</ele><time>2012-05-02T22:52:57.0000000+00:00</time></trkpt><trkpt lat="42.716133" lon="18.946844"><ele>598.9</ele><time>2012-05-02T22:53:02.0000000+00:00</time></trkpt><trkpt lat="42.716969" lon="18.94573"><ele>603.3</ele><time>2012-05-02T22:53:07.0000000+00:00</time></trkpt><trkpt lat="42.71785" lon="18.944685"><ele>607.5</ele><time>2012-05-02T22:53:12.0000000+00:00</time></trkpt><trkpt lat="42.718731" lon="18.94363"><ele>609.7</ele><time>2012-05-02T22:53:17.0000000+00:00</time></trkpt><trkpt lat="42.719601" lon="18.942791"><ele>612.9</ele><time>2012-05-02T22:53:22.0000000+00:00</time></trkpt><trkpt lat="42.720493" lon="18.941986"><ele>616.0</ele><time>2012-05-02T22:53:27.0000000+00:00</time></trkpt><trkpt lat="42.721424" lon="18.941248"><ele>618.9</ele><time>2012-05-02T22:53:32.0000000+00:00</time></trkpt><trkpt lat="42.722351" lon="18.940533"><ele>621.7</ele><time>2012-05-02T22:53:37.0000000+00:00</time></trkpt><trkpt lat="42.730865" lon="18.936895"><ele>695.8</ele><time>2012-05-02T22:54:33.0000000+00:00</time></trkpt><trkpt lat="42.731995" lon="18.937204"><ele>632.8</ele><time>2012-05-02T22:54:38.0000000+00:00</time></trkpt><trkpt lat="42.733028" lon="18.937244"><ele>629.3</ele><time>2012-05-02T22:54:43.0000000+00:00</time></trkpt><trkpt lat="42.734047" lon="18.937258"><ele>625.0</ele><time>2012-05-02T22:54:48.0000000+00:00</time></trkpt><trkpt lat="42.735054" lon="18.937296"><ele>622.6</ele><time>2012-05-02T22:54:53.0000000+00:00</time></trkpt><trkpt lat="42.736027" lon="18.937313"><ele>617.6</ele><time>2012-05-02T22:54:58.0000000+00:00</time></trkpt><trkpt lat="42.737026" lon="18.937344"><ele>617.3</ele><time>2012-05-02T22:55:03.0000000+00:00</time></trkpt><trkpt lat="42.738041" lon="18.937407"><ele>616.3</ele><time>2012-05-02T22:55:08.0000000+00:00</time></trkpt><trkpt lat="42.739048" lon="18.937498"><ele>615.7</ele><time>2012-05-02T22:55:13.0000000+00:00</time></trkpt><trkpt lat="42.740051" lon="18.937622"><ele>615.6</ele><time>2012-05-02T22:55:18.0000000+00:00</time></trkpt><trkpt lat="42.741032" lon="18.937773"><ele>616.0</ele><time>2012-05-02T22:55:23.0000000+00:00</time></trkpt><trkpt lat="42.741951" lon="18.937956"><ele>616.2</ele><time>2012-05-02T22:55:28.0000000+00:00</time></trkpt><trkpt lat="42.742836" lon="18.938162"><ele>616.3</ele><time>2012-05-02T22:55:33.0000000+00:00</time></trkpt><trkpt lat="42.743687" lon="18.938396"><ele>616.8</ele><time>2012-05-02T22:55:38.0000000+00:00</time></trkpt><trkpt lat="42.744545" lon="18.938662"><ele>616.7</ele><time>2012-05-02T22:55:43.0000000+00:00</time></trkpt><trkpt lat="42.74538" lon="18.938931"><ele>616.5</ele><time>2012-05-02T22:55:48.0000000+00:00</time></trkpt><trkpt lat="42.746159" lon="18.939169"><ele>617.4</ele><time>2012-05-02T22:55:53.0000000+00:00</time></trkpt><trkpt lat="42.746902" lon="18.939426"><ele>618.2</ele><time>2012-05-02T22:55:58.0000000+00:00</time></trkpt><trkpt lat="42.747589" lon="18.93965"><ele>618.5</ele><time>2012-05-02T22:56:03.0000000+00:00</time></trkpt><trkpt lat="42.748222" lon="18.939848"><ele>619.2</ele><time>2012-05-02T22:56:08.0000000+00:00</time></trkpt><trkpt lat="42.748882" lon="18.940046"><ele>619.6</ele><time>2012-05-02T22:56:13.0000000+00:00</time></trkpt><trkpt lat="42.749619" lon="18.940239"><ele>620.3</ele><time>2012-05-02T22:56:18.0000000+00:00</time></trkpt><trkpt lat="42.750389" lon="18.940424"><ele>621.3</ele><time>2012-05-02T22:56:23.0000000+00:00</time></trkpt><trkpt lat="42.751114" lon="18.940567"><ele>623.0</ele><time>2012-05-02T22:56:28.0000000+00:00</time></trkpt><trkpt lat="42.751873" lon="18.94072"><ele>624.1</ele><time>2012-05-02T22:56:33.0000000+00:00</time></trkpt><trkpt lat="42.752647" lon="18.940842"><ele>626.1</ele><time>2012-05-02T22:56:38.0000000+00:00</time></trkpt><trkpt lat="42.753399" lon="18.940924"><ele>627.1</ele><time>2012-05-02T22:56:43.0000000+00:00</time></trkpt><trkpt lat="42.754131" lon="18.940912"><ele>627.3</ele><time>2012-05-02T22:56:48.0000000+00:00</time></trkpt><trkpt lat="42.754883" lon="18.940809"><ele>628.9</ele><time>2012-05-02T22:56:53.0000000+00:00</time></trkpt><trkpt lat="42.755669" lon="18.940573"><ele>630.8</ele><time>2012-05-02T22:56:58.0000000+00:00</time></trkpt><trkpt lat="42.756432" lon="18.940264"><ele>633.8</ele><time>2012-05-02T22:57:03.0000000+00:00</time></trkpt><trkpt lat="42.757141" lon="18.93996"><ele>636.2</ele><time>2012-05-02T22:57:08.0000000+00:00</time></trkpt><trkpt lat="42.757847" lon="18.939709"><ele>638.6</ele><time>2012-05-02T22:57:13.0000000+00:00</time></trkpt><trkpt lat="42.758564" lon="18.939516"><ele>640.3</ele><time>2012-05-02T22:57:18.0000000+00:00</time></trkpt><trkpt lat="42.759281" lon="18.939413"><ele>640.9</ele><time>2012-05-02T22:57:23.0000000+00:00</time></trkpt><trkpt lat="42.759987" lon="18.939381"><ele>640.2</ele><time>2012-05-02T22:57:28.0000000+00:00</time></trkpt><trkpt lat="42.760708" lon="18.939415"><ele>640.4</ele><time>2012-05-02T22:57:33.0000000+00:00</time></trkpt><trkpt lat="42.761406" lon="18.939537"><ele>641.3</ele><time>2012-05-02T22:57:38.0000000+00:00</time></trkpt><trkpt lat="42.762081" lon="18.939713"><ele>642.6</ele><time>2012-05-02T22:57:43.0000000+00:00</time></trkpt><trkpt lat="42.762768" lon="18.939928"><ele>643.7</ele><time>2012-05-02T22:57:48.0000000+00:00</time></trkpt><trkpt lat="42.763462" lon="18.940142"><ele>644.8</ele><time>2012-05-02T22:57:53.0000000+00:00</time></trkpt><trkpt lat="42.764175" lon="18.940365"><ele>645.7</ele><time>2012-05-02T22:57:58.0000000+00:00</time></trkpt><trkpt lat="42.764908" lon="18.94059"><ele>646.4</ele><time>2012-05-02T22:58:03.0000000+00:00</time></trkpt><trkpt lat="42.765644" lon="18.940784"><ele>648.6</ele><time>2012-05-02T22:58:08.0000000+00:00</time></trkpt><trkpt lat="42.766441" lon="18.940975"><ele>650.7</ele><time>2012-05-02T22:58:13.0000000+00:00</time></trkpt><trkpt lat="42.767296" lon="18.941072"><ele>653.0</ele><time>2012-05-02T22:58:18.0000000+00:00</time></trkpt><trkpt lat="42.768162" lon="18.941071"><ele>655.3</ele><time>2012-05-02T22:58:23.0000000+00:00</time></trkpt><trkpt lat="42.769058" lon="18.940958"><ele>657.8</ele><time>2012-05-02T22:58:28.0000000+00:00</time></trkpt><trkpt lat="42.769962" lon="18.940779"><ele>660.6</ele><time>2012-05-02T22:58:33.0000000+00:00</time></trkpt><trkpt lat="42.770874" lon="18.94058"><ele>662.4</ele><time>2012-05-02T22:58:38.0000000+00:00</time></trkpt><trkpt lat="42.77179" lon="18.940399"><ele>663.6</ele><time>2012-05-02T22:58:43.0000000+00:00</time></trkpt><trkpt lat="42.772633" lon="18.94017"><ele>661.2</ele><time>2012-05-02T22:58:48.0000000+00:00</time></trkpt><trkpt lat="42.773506" lon="18.939793"><ele>659.9</ele><time>2012-05-02T22:58:53.0000000+00:00</time></trkpt><trkpt lat="42.774353" lon="18.939135"><ele>657.2</ele><time>2012-05-02T22:58:58.0000000+00:00</time></trkpt><trkpt lat="42.775177" lon="18.938301"><ele>657.6</ele><time>2012-05-02T22:59:03.0000000+00:00</time></trkpt><trkpt lat="42.775982" lon="18.937523"><ele>657.2</ele><time>2012-05-02T22:59:08.0000000+00:00</time></trkpt><trkpt lat="42.776798" lon="18.936832"><ele>656.9</ele><time>2012-05-02T22:59:13.0000000+00:00</time></trkpt><trkpt lat="42.777691" lon="18.936289"><ele>657.9</ele><time>2012-05-02T22:59:18.0000000+00:00</time></trkpt><trkpt lat="42.778587" lon="18.935734"><ele>658.1</ele><time>2012-05-02T22:59:23.0000000+00:00</time></trkpt><trkpt lat="42.779461" lon="18.935183"><ele>656.5</ele><time>2012-05-02T22:59:28.0000000+00:00</time></trkpt><trkpt lat="42.780273" lon="18.934523"><ele>656.8</ele><time>2012-05-02T22:59:33.0000000+00:00</time></trkpt><trkpt lat="42.780956" lon="18.933638"><ele>656.1</ele><time>2012-05-02T22:59:38.0000000+00:00</time></trkpt><trkpt lat="42.781418" lon="18.932528"><ele>653.3</ele><time>2012-05-02T22:59:43.0000000+00:00</time></trkpt><trkpt lat="42.781723" lon="18.931328"><ele>650.4</ele><time>2012-05-02T22:59:48.0000000+00:00</time></trkpt><trkpt lat="42.782085" lon="18.930155"><ele>649.1</ele><time>2012-05-02T22:59:53.0000000+00:00</time></trkpt><trkpt lat="42.782593" lon="18.92923"><ele>648.0</ele><time>2012-05-02T22:59:58.0000000+00:00</time></trkpt><trkpt lat="42.783184" lon="18.928656"><ele>646.4</ele><time>2012-05-02T23:00:03.0000000+00:00</time></trkpt><trkpt lat="42.783901" lon="18.928366"><ele>644.0</ele><time>2012-05-02T23:00:08.0000000+00:00</time></trkpt><trkpt lat="42.784683" lon="18.928288"><ele>640.6</ele><time>2012-05-02T23:00:13.0000000+00:00</time></trkpt><trkpt lat="42.785488" lon="18.92828"><ele>633.9</ele><time>2012-05-02T23:00:18.0000000+00:00</time></trkpt><trkpt lat="42.786316" lon="18.928329"><ele>633.8</ele><time>2012-05-02T23:00:23.0000000+00:00</time></trkpt><trkpt lat="42.787117" lon="18.928358"><ele>632.2</ele><time>2012-05-02T23:00:28.0000000+00:00</time></trkpt><trkpt lat="42.787907" lon="18.928387"><ele>631.3</ele><time>2012-05-02T23:00:33.0000000+00:00</time></trkpt><trkpt lat="42.788677" lon="18.92841"><ele>631.2</ele><time>2012-05-02T23:00:38.0000000+00:00</time></trkpt><trkpt lat="42.789436" lon="18.928347"><ele>630.1</ele><time>2012-05-02T23:00:43.0000000+00:00</time></trkpt><trkpt lat="42.790188" lon="18.928026"><ele>630.3</ele><time>2012-05-02T23:00:48.0000000+00:00</time></trkpt><trkpt lat="42.790852" lon="18.927435"><ele>631.1</ele><time>2012-05-02T23:00:53.0000000+00:00</time></trkpt><trkpt lat="42.7915" lon="18.926748"><ele>633.1</ele><time>2012-05-02T23:00:58.0000000+00:00</time></trkpt><trkpt lat="42.792126" lon="18.926125"><ele>635.5</ele><time>2012-05-02T23:01:03.0000000+00:00</time></trkpt><trkpt lat="42.79269" lon="18.925508"><ele>634.9</ele><time>2012-05-02T23:01:08.0000000+00:00</time></trkpt><trkpt lat="42.793194" lon="18.92502"><ele>634.8</ele><time>2012-05-02T23:01:13.0000000+00:00</time></trkpt><trkpt lat="42.793587" lon="18.924738"><ele>636.1</ele><time>2012-05-02T23:01:18.0000000+00:00</time></trkpt><trkpt lat="42.793964" lon="18.924852"><ele>635.5</ele><time>2012-05-02T23:01:23.0000000+00:00</time></trkpt><trkpt lat="42.794296" lon="18.925035"><ele>634.6</ele><time>2012-05-02T23:01:28.0000000+00:00</time></trkpt><trkpt lat="42.794449" lon="18.925177"><ele>633.8</ele><time>2012-05-02T23:01:33.0000000+00:00</time></trkpt><trkpt lat="42.79451" lon="18.925579"><ele>632.9</ele><time>2012-05-02T23:01:38.0000000+00:00</time></trkpt><trkpt lat="42.794353" lon="18.926218"><ele>631.5</ele><time>2012-05-02T23:01:43.0000000+00:00</time></trkpt><trkpt lat="42.794048" lon="18.926792"><ele>631.8</ele><time>2012-05-02T23:01:48.0000000+00:00</time></trkpt><trkpt lat="42.7938" lon="18.927467"><ele>630.6</ele><time>2012-05-02T23:01:53.0000000+00:00</time></trkpt><trkpt lat="42.793571" lon="18.928246"><ele>628.6</ele><time>2012-05-02T23:01:58.0000000+00:00</time></trkpt><trkpt lat="42.793331" lon="18.929064"><ele>628.4</ele><time>2012-05-02T23:02:03.0000000+00:00</time></trkpt><trkpt lat="42.793102" lon="18.929876"><ele>628.3</ele><time>2012-05-02T23:02:08.0000000+00:00</time></trkpt><trkpt lat="42.792908" lon="18.930649"><ele>628.6</ele><time>2012-05-02T23:02:13.0000000+00:00</time></trkpt><trkpt lat="42.792732" lon="18.931437"><ele>629.9</ele><time>2012-05-02T23:02:18.0000000+00:00</time></trkpt><trkpt lat="42.79261" lon="18.932207"><ele>629.6</ele><time>2012-05-02T23:02:23.0000000+00:00</time></trkpt><trkpt lat="42.792736" lon="18.932932"><ele>627.9</ele><time>2012-05-02T23:02:28.0000000+00:00</time></trkpt><trkpt lat="42.793121" lon="18.933558"><ele>627.2</ele><time>2012-05-02T23:02:33.0000000+00:00</time></trkpt><trkpt lat="42.793564" lon="18.934013"><ele>629.1</ele><time>2012-05-02T23:02:38.0000000+00:00</time></trkpt><trkpt lat="42.793682" lon="18.934378"><ele>629.8</ele><time>2012-05-02T23:02:43.0000000+00:00</time></trkpt><trkpt lat="42.793781" lon="18.934559"><ele>630.2</ele><time>2012-05-02T23:02:48.0000000+00:00</time></trkpt><trkpt lat="42.794098" lon="18.934656"><ele>630.5</ele><time>2012-05-02T23:02:53.0000000+00:00</time></trkpt><trkpt lat="42.794395" lon="18.935089"><ele>632.1</ele><time>2012-05-02T23:02:58.0000000+00:00</time></trkpt><trkpt lat="42.794853" lon="18.93544"><ele>631.9</ele><time>2012-05-02T23:03:03.0000000+00:00</time></trkpt><trkpt lat="42.795437" lon="18.93564"><ele>631.1</ele><time>2012-05-02T23:03:08.0000000+00:00</time></trkpt><trkpt lat="42.796146" lon="18.935801"><ele>631.9</ele><time>2012-05-02T23:03:13.0000000+00:00</time></trkpt><trkpt lat="42.796852" lon="18.935804"><ele>630.6</ele><time>2012-05-02T23:03:18.0000000+00:00</time></trkpt><trkpt lat="42.797543" lon="18.935747"><ele>630.0</ele><time>2012-05-02T23:03:23.0000000+00:00</time></trkpt><trkpt lat="42.79821" lon="18.9356"><ele>630.1</ele><time>2012-05-02T23:03:28.0000000+00:00</time></trkpt><trkpt lat="42.798874" lon="18.935471"><ele>631.2</ele><time>2012-05-02T23:03:33.0000000+00:00</time></trkpt><trkpt lat="42.799534" lon="18.935341"><ele>632.3</ele><time>2012-05-02T23:03:38.0000000+00:00</time></trkpt><trkpt lat="42.800205" lon="18.935196"><ele>632.9</ele><time>2012-05-02T23:03:43.0000000+00:00</time></trkpt><trkpt lat="42.800865" lon="18.935061"><ele>633.6</ele><time>2012-05-02T23:03:48.0000000+00:00</time></trkpt><trkpt lat="42.801517" lon="18.934927"><ele>634.6</ele><time>2012-05-02T23:03:53.0000000+00:00</time></trkpt><trkpt lat="42.802162" lon="18.93474"><ele>633.8</ele><time>2012-05-02T23:03:58.0000000+00:00</time></trkpt><trkpt lat="42.80278" lon="18.934433"><ele>634.4</ele><time>2012-05-02T23:04:03.0000000+00:00</time></trkpt><trkpt lat="42.803371" lon="18.934082"><ele>637.0</ele><time>2012-05-02T23:04:08.0000000+00:00</time></trkpt><trkpt lat="42.803913" lon="18.933744"><ele>637.7</ele><time>2012-05-02T23:04:13.0000000+00:00</time></trkpt><trkpt lat="42.804424" lon="18.933432"><ele>638.3</ele><time>2012-05-02T23:04:18.0000000+00:00</time></trkpt><trkpt lat="42.804897" lon="18.93314"><ele>639.3</ele><time>2012-05-02T23:04:23.0000000+00:00</time></trkpt><trkpt lat="42.80534" lon="18.93285"><ele>640.5</ele><time>2012-05-02T23:04:28.0000000+00:00</time></trkpt><trkpt lat="42.805794" lon="18.932484"><ele>641.1</ele><time>2012-05-02T23:04:33.0000000+00:00</time></trkpt><trkpt lat="42.80632" lon="18.932077"><ele>642.0</ele><time>2012-05-02T23:04:38.0000000+00:00</time></trkpt><trkpt lat="42.806866" lon="18.931555"><ele>640.6</ele><time>2012-05-02T23:04:43.0000000+00:00</time></trkpt><trkpt lat="42.807327" lon="18.930782"><ele>640.5</ele><time>2012-05-02T23:04:48.0000000+00:00</time></trkpt><trkpt lat="42.807766" lon="18.929981"><ele>638.7</ele><time>2012-05-02T23:04:53.0000000+00:00</time></trkpt><trkpt lat="42.80822" lon="18.929213"><ele>637.6</ele><time>2012-05-02T23:04:58.0000000+00:00</time></trkpt><trkpt lat="42.808739" lon="18.928547"><ele>636.6</ele><time>2012-05-02T23:05:03.0000000+00:00</time></trkpt><trkpt lat="42.809269" lon="18.927917"><ele>637.2</ele><time>2012-05-02T23:05:08.0000000+00:00</time></trkpt><trkpt lat="42.809742" lon="18.927359"><ele>637.5</ele><time>2012-05-02T23:05:13.0000000+00:00</time></trkpt><trkpt lat="42.81012" lon="18.926748"><ele>637.4</ele><time>2012-05-02T23:05:18.0000000+00:00</time></trkpt><trkpt lat="42.810307" lon="18.926105"><ele>635.2</ele><time>2012-05-02T23:05:23.0000000+00:00</time></trkpt><trkpt lat="42.810589" lon="18.925793"><ele>637.1</ele><time>2012-05-02T23:05:28.0000000+00:00</time></trkpt><trkpt lat="42.811001" lon="18.925831"><ele>635.1</ele><time>2012-05-02T23:05:33.0000000+00:00</time></trkpt><trkpt lat="42.811401" lon="18.925842"><ele>635.3</ele><time>2012-05-02T23:05:38.0000000+00:00</time></trkpt><trkpt lat="42.811806" lon="18.925499"><ele>636.2</ele><time>2012-05-02T23:05:43.0000000+00:00</time></trkpt><trkpt lat="42.812248" lon="18.924879"><ele>635.2</ele><time>2012-05-02T23:05:48.0000000+00:00</time></trkpt><trkpt lat="42.812813" lon="18.924244"><ele>635.7</ele><time>2012-05-02T23:05:53.0000000+00:00</time></trkpt><trkpt lat="42.813454" lon="18.923668"><ele>634.7</ele><time>2012-05-02T23:05:58.0000000+00:00</time></trkpt><trkpt lat="42.814091" lon="18.92312"><ele>634.9</ele><time>2012-05-02T23:06:03.0000000+00:00</time></trkpt><trkpt lat="42.814758" lon="18.92256"><ele>635.1</ele><time>2012-05-02T23:06:08.0000000+00:00</time></trkpt><trkpt lat="42.815441" lon="18.921993"><ele>636.2</ele><time>2012-05-02T23:06:13.0000000+00:00</time></trkpt><trkpt lat="42.816105" lon="18.921432"><ele>637.6</ele><time>2012-05-02T23:06:18.0000000+00:00</time></trkpt><trkpt lat="42.816757" lon="18.920885"><ele>637.7</ele><time>2012-05-02T23:06:23.0000000+00:00</time></trkpt><trkpt lat="42.817402" lon="18.920349"><ele>638.9</ele><time>2012-05-02T23:06:28.0000000+00:00</time></trkpt><trkpt lat="42.818043" lon="18.919834"><ele>639.3</ele><time>2012-05-02T23:06:33.0000000+00:00</time></trkpt><trkpt lat="42.81868" lon="18.919292"><ele>639.0</ele><time>2012-05-02T23:06:38.0000000+00:00</time></trkpt><trkpt lat="42.819344" lon="18.918743"><ele>638.7</ele><time>2012-05-02T23:06:43.0000000+00:00</time></trkpt><trkpt lat="42.820019" lon="18.918169"><ele>637.9</ele><time>2012-05-02T23:06:48.0000000+00:00</time></trkpt><trkpt lat="42.820736" lon="18.91758"><ele>639.5</ele><time>2012-05-02T23:06:53.0000000+00:00</time></trkpt><trkpt lat="42.821423" lon="18.917004"><ele>638.5</ele><time>2012-05-02T23:06:58.0000000+00:00</time></trkpt><trkpt lat="42.822075" lon="18.916456"><ele>638.3</ele><time>2012-05-02T23:07:03.0000000+00:00</time></trkpt><trkpt lat="42.822701" lon="18.915936"><ele>639.5</ele><time>2012-05-02T23:07:08.0000000+00:00</time></trkpt><trkpt lat="42.823326" lon="18.915529"><ele>641.3</ele><time>2012-05-02T23:07:13.0000000+00:00</time></trkpt><trkpt lat="42.823971" lon="18.915613"><ele>641.0</ele><time>2012-05-02T23:07:18.0000000+00:00</time></trkpt><trkpt lat="42.824577" lon="18.916023"><ele>641.1</ele><time>2012-05-02T23:07:23.0000000+00:00</time></trkpt><trkpt lat="42.825218" lon="18.916382"><ele>641.1</ele><time>2012-05-02T23:07:28.0000000+00:00</time></trkpt><trkpt lat="42.82589" lon="18.916754"><ele>640.9</ele><time>2012-05-02T23:07:33.0000000+00:00</time></trkpt><trkpt lat="42.826572" lon="18.917135"><ele>641.4</ele><time>2012-05-02T23:07:38.0000000+00:00</time></trkpt><trkpt lat="42.827225" lon="18.917507"><ele>642.3</ele><time>2012-05-02T23:07:43.0000000+00:00</time></trkpt><trkpt lat="42.827892" lon="18.917875"><ele>641.5</ele><time>2012-05-02T23:07:48.0000000+00:00</time></trkpt><trkpt lat="42.828537" lon="18.918287"><ele>641.3</ele><time>2012-05-02T23:07:53.0000000+00:00</time></trkpt><trkpt lat="42.829185" lon="18.918707"><ele>639.9</ele><time>2012-05-02T23:07:58.0000000+00:00</time></trkpt><trkpt lat="42.829842" lon="18.919134"><ele>640.6</ele><time>2012-05-02T23:08:03.0000000+00:00</time></trkpt><trkpt lat="42.83041" lon="18.919495"><ele>642.1</ele><time>2012-05-02T23:08:08.0000000+00:00</time></trkpt><trkpt lat="42.830994" lon="18.919775"><ele>645.2</ele><time>2012-05-02T23:08:13.0000000+00:00</time></trkpt><trkpt lat="42.831573" lon="18.920013"><ele>647.1</ele><time>2012-05-02T23:08:18.0000000+00:00</time></trkpt><trkpt lat="42.832176" lon="18.920267"><ele>649.3</ele><time>2012-05-02T23:08:23.0000000+00:00</time></trkpt><trkpt lat="42.832775" lon="18.920509"><ele>649.1</ele><time>2012-05-02T23:08:28.0000000+00:00</time></trkpt><trkpt lat="42.833359" lon="18.920828"><ele>649.6</ele><time>2012-05-02T23:08:33.0000000+00:00</time></trkpt><trkpt lat="42.833942" lon="18.921175"><ele>651.7</ele><time>2012-05-02T23:08:38.0000000+00:00</time></trkpt><trkpt lat="42.834564" lon="18.92157"><ele>652.7</ele><time>2012-05-02T23:08:43.0000000+00:00</time></trkpt><trkpt lat="42.835205" lon="18.921953"><ele>651.9</ele><time>2012-05-02T23:08:48.0000000+00:00</time></trkpt><trkpt lat="42.835823" lon="18.922337"><ele>651.5</ele><time>2012-05-02T23:08:53.0000000+00:00</time></trkpt><trkpt lat="42.836452" lon="18.922762"><ele>652.6</ele><time>2012-05-02T23:08:58.0000000+00:00</time></trkpt><trkpt lat="42.83707" lon="18.923262"><ele>653.1</ele><time>2012-05-02T23:09:03.0000000+00:00</time></trkpt><trkpt lat="42.837719" lon="18.92379"><ele>654.5</ele><time>2012-05-02T23:09:08.0000000+00:00</time></trkpt><trkpt lat="42.838371" lon="18.924318"><ele>656.6</ele><time>2012-05-02T23:09:13.0000000+00:00</time></trkpt><trkpt lat="42.83902" lon="18.924822"><ele>654.9</ele><time>2012-05-02T23:09:18.0000000+00:00</time></trkpt><trkpt lat="42.839664" lon="18.925268"><ele>655.3</ele><time>2012-05-02T23:09:23.0000000+00:00</time></trkpt><trkpt lat="42.840271" lon="18.92584"><ele>656.2</ele><time>2012-05-02T23:09:28.0000000+00:00</time></trkpt><trkpt lat="42.840881" lon="18.926435"><ele>657.1</ele><time>2012-05-02T23:09:33.0000000+00:00</time></trkpt><trkpt lat="42.84148" lon="18.927031"><ele>658.6</ele><time>2012-05-02T23:09:38.0000000+00:00</time></trkpt><trkpt lat="42.842064" lon="18.927631"><ele>659.4</ele><time>2012-05-02T23:09:43.0000000+00:00</time></trkpt><trkpt lat="42.842609" lon="18.928232"><ele>660.6</ele><time>2012-05-02T23:09:48.0000000+00:00</time></trkpt><trkpt lat="42.843151" lon="18.928829"><ele>662.1</ele><time>2012-05-02T23:09:53.0000000+00:00</time></trkpt><trkpt lat="42.843678" lon="18.929462"><ele>662.4</ele><time>2012-05-02T23:09:58.0000000+00:00</time></trkpt><trkpt lat="42.844196" lon="18.930126"><ele>662.5</ele><time>2012-05-02T23:10:03.0000000+00:00</time></trkpt><trkpt lat="42.844715" lon="18.930805"><ele>661.3</ele><time>2012-05-02T23:10:08.0000000+00:00</time></trkpt><trkpt lat="42.845219" lon="18.931471"><ele>663.3</ele><time>2012-05-02T23:10:13.0000000+00:00</time></trkpt><trkpt lat="42.845715" lon="18.932152"><ele>664.0</ele><time>2012-05-02T23:10:18.0000000+00:00</time></trkpt><trkpt lat="42.846188" lon="18.932898"><ele>666.1</ele><time>2012-05-02T23:10:23.0000000+00:00</time></trkpt><trkpt lat="42.846687" lon="18.933655"><ele>667.1</ele><time>2012-05-02T23:10:28.0000000+00:00</time></trkpt><trkpt lat="42.847248" lon="18.934326"><ele>666.3</ele><time>2012-05-02T23:10:33.0000000+00:00</time></trkpt><trkpt lat="42.8479" lon="18.934771"><ele>667.8</ele><time>2012-05-02T23:10:38.0000000+00:00</time></trkpt><trkpt lat="42.848587" lon="18.935139"><ele>668.9</ele><time>2012-05-02T23:10:43.0000000+00:00</time></trkpt><trkpt lat="42.849251" lon="18.935587"><ele>670.5</ele><time>2012-05-02T23:10:48.0000000+00:00</time></trkpt><trkpt lat="42.849846" lon="18.936188"><ele>671.7</ele><time>2012-05-02T23:10:53.0000000+00:00</time></trkpt><trkpt lat="42.850403" lon="18.936869"><ele>672.4</ele><time>2012-05-02T23:10:58.0000000+00:00</time></trkpt><trkpt lat="42.85088" lon="18.937609"><ele>673.8</ele><time>2012-05-02T23:11:03.0000000+00:00</time></trkpt><trkpt lat="42.851254" lon="18.938351"><ele>674.0</ele><time>2012-05-02T23:11:08.0000000+00:00</time></trkpt><trkpt lat="42.851734" lon="18.938816"><ele>671.1</ele><time>2012-05-02T23:11:13.0000000+00:00</time></trkpt><trkpt lat="42.852348" lon="18.939068"><ele>668.9</ele><time>2012-05-02T23:11:18.0000000+00:00</time></trkpt><trkpt lat="42.852894" lon="18.939491"><ele>666.6</ele><time>2012-05-02T23:11:23.0000000+00:00</time></trkpt><trkpt lat="42.85323" lon="18.939995"><ele>665.1</ele><time>2012-05-02T23:11:28.0000000+00:00</time></trkpt><trkpt lat="42.853436" lon="18.940638"><ele>663.4</ele><time>2012-05-02T23:11:33.0000000+00:00</time></trkpt><trkpt lat="42.853535" lon="18.941397"><ele>662.3</ele><time>2012-05-02T23:11:38.0000000+00:00</time></trkpt><trkpt lat="42.853592" lon="18.942179"><ele>661.5</ele><time>2012-05-02T23:11:43.0000000+00:00</time></trkpt><trkpt lat="42.853889" lon="18.942795"><ele>660.9</ele><time>2012-05-02T23:11:48.0000000+00:00</time></trkpt><trkpt lat="42.854416" lon="18.94311"><ele>661.8</ele><time>2012-05-02T23:11:53.0000000+00:00</time></trkpt><trkpt lat="42.855007" lon="18.943331"><ele>664.3</ele><time>2012-05-02T23:11:58.0000000+00:00</time></trkpt><trkpt lat="42.855576" lon="18.943539"><ele>666.6</ele><time>2012-05-02T23:12:03.0000000+00:00</time></trkpt><trkpt lat="42.855988" lon="18.943594"><ele>669.4</ele><time>2012-05-02T23:12:08.0000000+00:00</time></trkpt><trkpt lat="42.856293" lon="18.94334"><ele>671.4</ele><time>2012-05-02T23:12:13.0000000+00:00</time></trkpt><trkpt lat="42.856564" lon="18.942984"><ele>672.5</ele><time>2012-05-02T23:12:18.0000000+00:00</time></trkpt><trkpt lat="42.856918" lon="18.942928"><ele>673.4</ele><time>2012-05-02T23:12:23.0000000+00:00</time></trkpt><trkpt lat="42.857388" lon="18.943167"><ele>677.7</ele><time>2012-05-02T23:12:28.0000000+00:00</time></trkpt><trkpt lat="42.857891" lon="18.943066"><ele>682.5</ele><time>2012-05-02T23:12:33.0000000+00:00</time></trkpt><trkpt lat="42.858292" lon="18.942513"><ele>685.6</ele><time>2012-05-02T23:12:38.0000000+00:00</time></trkpt><trkpt lat="42.858585" lon="18.941763"><ele>689.1</ele><time>2012-05-02T23:12:43.0000000+00:00</time></trkpt><trkpt lat="42.858852" lon="18.940958"><ele>692.7</ele><time>2012-05-02T23:12:48.0000000+00:00</time></trkpt><trkpt lat="42.859207" lon="18.940193"><ele>698.0</ele><time>2012-05-02T23:12:53.0000000+00:00</time></trkpt><trkpt lat="42.859711" lon="18.939648"><ele>703.7</ele><time>2012-05-02T23:12:58.0000000+00:00</time></trkpt><trkpt lat="42.860313" lon="18.939381"><ele>709.5</ele><time>2012-05-02T23:13:03.0000000+00:00</time></trkpt><trkpt lat="42.860985" lon="18.939297"><ele>713.1</ele><time>2012-05-02T23:13:08.0000000+00:00</time></trkpt><trkpt lat="42.861694" lon="18.939129"><ele>717.7</ele><time>2012-05-02T23:13:13.0000000+00:00</time></trkpt><trkpt lat="42.862335" lon="18.938675"><ele>723.8</ele><time>2012-05-02T23:13:18.0000000+00:00</time></trkpt><trkpt lat="42.862808" lon="18.937912"><ele>728.0</ele><time>2012-05-02T23:13:23.0000000+00:00</time></trkpt><trkpt lat="42.863071" lon="18.936991"><ele>733.0</ele><time>2012-05-02T23:13:28.0000000+00:00</time></trkpt><trkpt lat="42.863113" lon="18.935999"><ele>739.9</ele><time>2012-05-02T23:13:33.0000000+00:00</time></trkpt><trkpt lat="42.863071" lon="18.935022"><ele>742.6</ele><time>2012-05-02T23:13:38.0000000+00:00</time></trkpt><trkpt lat="42.863365" lon="18.93446"><ele>744.9</ele><time>2012-05-02T23:13:43.0000000+00:00</time></trkpt><trkpt lat="42.863831" lon="18.934196"><ele>746.9</ele><time>2012-05-02T23:13:48.0000000+00:00</time></trkpt><trkpt lat="42.864471" lon="18.933849"><ele>747.6</ele><time>2012-05-02T23:13:53.0000000+00:00</time></trkpt><trkpt lat="42.865181" lon="18.933447"><ele>749.9</ele><time>2012-05-02T23:13:58.0000000+00:00</time></trkpt><trkpt lat="42.866001" lon="18.93314"><ele>752.4</ele><time>2012-05-02T23:14:03.0000000+00:00</time></trkpt><trkpt lat="42.866798" lon="18.933132"><ele>755.5</ele><time>2012-05-02T23:14:08.0000000+00:00</time></trkpt><trkpt lat="42.867584" lon="18.93343"><ele>758.1</ele><time>2012-05-02T23:14:13.0000000+00:00</time></trkpt><trkpt lat="42.868313" lon="18.93395"><ele>760.2</ele><time>2012-05-02T23:14:18.0000000+00:00</time></trkpt><trkpt lat="42.869061" lon="18.934559"><ele>765.9</ele><time>2012-05-02T23:14:23.0000000+00:00</time></trkpt><trkpt lat="42.869843" lon="18.935194"><ele>772.0</ele><time>2012-05-02T23:14:28.0000000+00:00</time></trkpt><trkpt lat="42.870617" lon="18.935827"><ele>778.2</ele><time>2012-05-02T23:14:33.0000000+00:00</time></trkpt><trkpt lat="42.871414" lon="18.936388"><ele>783.9</ele><time>2012-05-02T23:14:38.0000000+00:00</time></trkpt><trkpt lat="42.872261" lon="18.936749"><ele>789.6</ele><time>2012-05-02T23:14:43.0000000+00:00</time></trkpt><trkpt lat="42.872963" lon="18.937229"><ele>794.4</ele><time>2012-05-02T23:14:48.0000000+00:00</time></trkpt><trkpt lat="42.873631" lon="18.937862"><ele>799.1</ele><time>2012-05-02T23:14:53.0000000+00:00</time></trkpt><trkpt lat="42.874298" lon="18.938259"><ele>802.8</ele><time>2012-05-02T23:14:58.0000000+00:00</time></trkpt><trkpt lat="42.87495" lon="18.93857"><ele>807.2</ele><time>2012-05-02T23:15:03.0000000+00:00</time></trkpt><trkpt lat="42.875523" lon="18.93894"><ele>812.3</ele><time>2012-05-02T23:15:08.0000000+00:00</time></trkpt><trkpt lat="42.876163" lon="18.939379"><ele>816.5</ele><time>2012-05-02T23:15:13.0000000+00:00</time></trkpt><trkpt lat="42.876835" lon="18.939651"><ele>821.0</ele><time>2012-05-02T23:15:18.0000000+00:00</time></trkpt><trkpt lat="42.87746" lon="18.939882"><ele>823.0</ele><time>2012-05-02T23:15:23.0000000+00:00</time></trkpt><trkpt lat="42.878078" lon="18.940264"><ele>827.5</ele><time>2012-05-02T23:15:28.0000000+00:00</time></trkpt><trkpt lat="42.878643" lon="18.940882"><ele>830.4</ele><time>2012-05-02T23:15:33.0000000+00:00</time></trkpt><trkpt lat="42.879158" lon="18.941584"><ele>831.4</ele><time>2012-05-02T23:15:38.0000000+00:00</time></trkpt><trkpt lat="42.87978" lon="18.942186"><ele>833.3</ele><time>2012-05-02T23:15:43.0000000+00:00</time></trkpt><trkpt lat="42.880375" lon="18.94278"><ele>835.9</ele><time>2012-05-02T23:15:48.0000000+00:00</time></trkpt><trkpt lat="42.880791" lon="18.943617"><ele>836.8</ele><time>2012-05-02T23:15:53.0000000+00:00</time></trkpt><trkpt lat="42.88105" lon="18.944649"><ele>837.6</ele><time>2012-05-02T23:15:58.0000000+00:00</time></trkpt><trkpt lat="42.88131" lon="18.94574"><ele>840.2</ele><time>2012-05-02T23:16:03.0000000+00:00</time></trkpt><trkpt lat="42.881718" lon="18.946674"><ele>845.9</ele><time>2012-05-02T23:16:08.0000000+00:00</time></trkpt><trkpt lat="42.882294" lon="18.947433"><ele>849.8</ele><time>2012-05-02T23:16:13.0000000+00:00</time></trkpt><trkpt lat="42.882889" lon="18.94816"><ele>853.9</ele><time>2012-05-02T23:16:18.0000000+00:00</time></trkpt><trkpt lat="42.883484" lon="18.948898"><ele>857.9</ele><time>2012-05-02T23:16:23.0000000+00:00</time></trkpt><trkpt lat="42.884106" lon="18.949654"><ele>861.6</ele><time>2012-05-02T23:16:28.0000000+00:00</time></trkpt><trkpt lat="42.884743" lon="18.950434"><ele>866.3</ele><time>2012-05-02T23:16:33.0000000+00:00</time></trkpt><trkpt lat="42.885376" lon="18.951216"><ele>871.0</ele><time>2012-05-02T23:16:38.0000000+00:00</time></trkpt><trkpt lat="42.885872" lon="18.952175"><ele>881.0</ele><time>2012-05-02T23:16:43.0000000+00:00</time></trkpt><trkpt lat="42.886147" lon="18.953257"><ele>888.3</ele><time>2012-05-02T23:16:48.0000000+00:00</time></trkpt><trkpt lat="42.886467" lon="18.954193"><ele>896.1</ele><time>2012-05-02T23:16:53.0000000+00:00</time></trkpt><trkpt lat="42.886917" lon="18.954983"><ele>900.9</ele><time>2012-05-02T23:16:58.0000000+00:00</time></trkpt><trkpt lat="42.887398" lon="18.95587"><ele>907.8</ele><time>2012-05-02T23:17:03.0000000+00:00</time></trkpt><trkpt lat="42.887821" lon="18.956766"><ele>913.3</ele><time>2012-05-02T23:17:08.0000000+00:00</time></trkpt><trkpt lat="42.888039" lon="18.95776"><ele>916.6</ele><time>2012-05-02T23:17:13.0000000+00:00</time></trkpt><trkpt lat="42.888035" lon="18.958815"><ele>917.8</ele><time>2012-05-02T23:17:18.0000000+00:00</time></trkpt><trkpt lat="42.888142" lon="18.95981"><ele>917.2</ele><time>2012-05-02T23:17:23.0000000+00:00</time></trkpt><trkpt lat="42.888554" lon="18.960714"><ele>916.0</ele><time>2012-05-02T23:17:28.0000000+00:00</time></trkpt><trkpt lat="42.889275" lon="18.961334"><ele>913.4</ele><time>2012-05-02T23:17:33.0000000+00:00</time></trkpt><trkpt lat="42.890148" lon="18.961578"><ele>912.2</ele><time>2012-05-02T23:17:38.0000000+00:00</time></trkpt><trkpt lat="42.891068" lon="18.961781"><ele>913.4</ele><time>2012-05-02T23:17:43.0000000+00:00</time></trkpt><trkpt lat="42.892014" lon="18.962059"><ele>913.6</ele><time>2012-05-02T23:17:48.0000000+00:00</time></trkpt><trkpt lat="42.892941" lon="18.962416"><ele>912.9</ele><time>2012-05-02T23:17:53.0000000+00:00</time></trkpt><trkpt lat="42.893852" lon="18.962831"><ele>913.5</ele><time>2012-05-02T23:17:58.0000000+00:00</time></trkpt><trkpt lat="42.894741" lon="18.963236"><ele>914.2</ele><time>2012-05-02T23:18:03.0000000+00:00</time></trkpt><trkpt lat="42.89558" lon="18.963606"><ele>915.2</ele><time>2012-05-02T23:18:08.0000000+00:00</time></trkpt><trkpt lat="42.896404" lon="18.963882"><ele>918.4</ele><time>2012-05-02T23:18:13.0000000+00:00</time></trkpt><trkpt lat="42.897282" lon="18.963959"><ele>922.4</ele><time>2012-05-02T23:18:18.0000000+00:00</time></trkpt><trkpt lat="42.898178" lon="18.963781"><ele>924.3</ele><time>2012-05-02T23:18:23.0000000+00:00</time></trkpt><trkpt lat="42.89904" lon="18.963377"><ele>928.5</ele><time>2012-05-02T23:18:28.0000000+00:00</time></trkpt><trkpt lat="42.899769" lon="18.962765"><ele>931.6</ele><time>2012-05-02T23:18:33.0000000+00:00</time></trkpt><trkpt lat="42.900326" lon="18.962057"><ele>934.7</ele><time>2012-05-02T23:18:38.0000000+00:00</time></trkpt><trkpt lat="42.900753" lon="18.961346"><ele>939.0</ele><time>2012-05-02T23:18:43.0000000+00:00</time></trkpt><trkpt lat="42.901073" lon="18.960602"><ele>942.9</ele><time>2012-05-02T23:18:48.0000000+00:00</time></trkpt><trkpt lat="42.90126" lon="18.960133"><ele>945.4</ele><time>2012-05-02T23:18:53.0000000+00:00</time></trkpt><trkpt lat="42.901524" lon="18.960135"><ele>948.1</ele><time>2012-05-02T23:18:58.0000000+00:00</time></trkpt><trkpt lat="42.901958" lon="18.960333"><ele>948.5</ele><time>2012-05-02T23:19:03.0000000+00:00</time></trkpt><trkpt lat="42.902332" lon="18.960922"><ele>949.6</ele><time>2012-05-02T23:19:08.0000000+00:00</time></trkpt><trkpt lat="42.902435" lon="18.96191"><ele>950.5</ele><time>2012-05-02T23:19:13.0000000+00:00</time></trkpt><trkpt lat="42.902485" lon="18.963051"><ele>951.1</ele><time>2012-05-02T23:19:18.0000000+00:00</time></trkpt><trkpt lat="42.90255" lon="18.96431"><ele>952.8</ele><time>2012-05-02T23:19:23.0000000+00:00</time></trkpt><trkpt lat="42.902763" lon="18.965576"><ele>956.9</ele><time>2012-05-02T23:19:28.0000000+00:00</time></trkpt><trkpt lat="42.90316" lon="18.966784"><ele>966.0</ele><time>2012-05-02T23:19:33.0000000+00:00</time></trkpt><trkpt lat="42.903553" lon="18.967949"><ele>973.4</ele><time>2012-05-02T23:19:38.0000000+00:00</time></trkpt><trkpt lat="42.903889" lon="18.968925"><ele>980.0</ele><time>2012-05-02T23:19:43.0000000+00:00</time></trkpt><trkpt lat="42.904137" lon="18.969849"><ele>987.0</ele><time>2012-05-02T23:19:48.0000000+00:00</time></trkpt><trkpt lat="42.904186" lon="18.970844"><ele>992.0</ele><time>2012-05-02T23:19:53.0000000+00:00</time></trkpt><trkpt lat="42.903984" lon="18.971886"><ele>993.8</ele><time>2012-05-02T23:19:58.0000000+00:00</time></trkpt><trkpt lat="42.903683" lon="18.972916"><ele>998.4</ele><time>2012-05-02T23:20:03.0000000+00:00</time></trkpt><trkpt lat="42.903503" lon="18.973957"><ele>1002.8</ele><time>2012-05-02T23:20:08.0000000+00:00</time></trkpt><trkpt lat="42.903507" lon="18.975014"><ele>1008.0</ele><time>2012-05-02T23:20:13.0000000+00:00</time></trkpt><trkpt lat="42.903519" lon="18.976049"><ele>1013.3</ele><time>2012-05-02T23:20:18.0000000+00:00</time></trkpt><trkpt lat="42.9034" lon="18.977083"><ele>1018.0</ele><time>2012-05-02T23:20:23.0000000+00:00</time></trkpt><trkpt lat="42.903172" lon="18.978064"><ele>1020.2</ele><time>2012-05-02T23:20:28.0000000+00:00</time></trkpt><trkpt lat="42.902924" lon="18.979008"><ele>1023.5</ele><time>2012-05-02T23:20:33.0000000+00:00</time></trkpt><trkpt lat="42.902847" lon="18.979971"><ele>1027.9</ele><time>2012-05-02T23:20:38.0000000+00:00</time></trkpt><trkpt lat="42.902996" lon="18.980888"><ele>1029.8</ele><time>2012-05-02T23:20:43.0000000+00:00</time></trkpt><trkpt lat="42.903145" lon="18.981878"><ele>1034.0</ele><time>2012-05-02T23:20:48.0000000+00:00</time></trkpt><trkpt lat="42.903027" lon="18.982893"><ele>1038.3</ele><time>2012-05-02T23:20:53.0000000+00:00</time></trkpt><trkpt lat="42.902714" lon="18.983816"><ele>1044.6</ele><time>2012-05-02T23:20:58.0000000+00:00</time></trkpt><trkpt lat="42.902542" lon="18.984739"><ele>1048.5</ele><time>2012-05-02T23:21:03.0000000+00:00</time></trkpt><trkpt lat="42.902672" lon="18.98568"><ele>1051.4</ele><time>2012-05-02T23:21:08.0000000+00:00</time></trkpt><trkpt lat="42.902584" lon="18.986643"><ele>1056.8</ele><time>2012-05-02T23:21:13.0000000+00:00</time></trkpt><trkpt lat="42.902115" lon="18.987278"><ele>1064.5</ele><time>2012-05-02T23:21:18.0000000+00:00</time></trkpt><trkpt lat="42.901573" lon="18.987822"><ele>1069.4</ele><time>2012-05-02T23:21:23.0000000+00:00</time></trkpt><trkpt lat="42.90115" lon="18.988556"><ele>1074.0</ele><time>2012-05-02T23:21:28.0000000+00:00</time></trkpt><trkpt lat="42.901161" lon="18.989454"><ele>1075.4</ele><time>2012-05-02T23:21:33.0000000+00:00</time></trkpt><trkpt lat="42.901493" lon="18.990351"><ele>1086.3</ele><time>2012-05-02T23:21:38.0000000+00:00</time></trkpt><trkpt lat="42.901615" lon="18.991293"><ele>1092.0</ele><time>2012-05-02T23:21:43.0000000+00:00</time></trkpt><trkpt lat="42.901306" lon="18.992155"><ele>1097.5</ele><time>2012-05-02T23:21:48.0000000+00:00</time></trkpt><trkpt lat="42.900925" lon="18.993036"><ele>1103.3</ele><time>2012-05-02T23:21:53.0000000+00:00</time></trkpt><trkpt lat="42.900814" lon="18.994074"><ele>1107.3</ele><time>2012-05-02T23:21:58.0000000+00:00</time></trkpt><trkpt lat="42.900574" lon="18.995045"><ele>1112.5</ele><time>2012-05-02T23:22:03.0000000+00:00</time></trkpt><trkpt lat="42.900143" lon="18.99588"><ele>1117.4</ele><time>2012-05-02T23:22:08.0000000+00:00</time></trkpt><trkpt lat="42.899857" lon="18.996843"><ele>1121.4</ele><time>2012-05-02T23:22:13.0000000+00:00</time></trkpt><trkpt lat="42.899677" lon="18.997889"><ele>1125.1</ele><time>2012-05-02T23:22:18.0000000+00:00</time></trkpt><trkpt lat="42.899387" lon="18.99884"><ele>1133.5</ele><time>2012-05-02T23:22:23.0000000+00:00</time></trkpt><trkpt lat="42.899105" lon="18.999828"><ele>1138.7</ele><time>2012-05-02T23:22:28.0000000+00:00</time></trkpt><trkpt lat="42.899101" lon="19.000847"><ele>1140.5</ele><time>2012-05-02T23:22:33.0000000+00:00</time></trkpt><trkpt lat="42.899387" lon="19.001842"><ele>1146.4</ele><time>2012-05-02T23:22:38.0000000+00:00</time></trkpt><trkpt lat="42.899818" lon="19.002735"><ele>1155.6</ele><time>2012-05-02T23:22:43.0000000+00:00</time></trkpt><trkpt lat="42.900135" lon="19.003712"><ele>1161.8</ele><time>2012-05-02T23:22:48.0000000+00:00</time></trkpt><trkpt lat="42.900398" lon="19.004738"><ele>1168.5</ele><time>2012-05-02T23:22:53.0000000+00:00</time></trkpt><trkpt lat="42.900848" lon="19.005638"><ele>1176.6</ele><time>2012-05-02T23:22:58.0000000+00:00</time></trkpt><trkpt lat="42.90144" lon="19.006378"><ele>1182.6</ele><time>2012-05-02T23:23:03.0000000+00:00</time></trkpt><trkpt lat="42.901825" lon="19.007278"><ele>1188.8</ele><time>2012-05-02T23:23:08.0000000+00:00</time></trkpt><trkpt lat="42.901814" lon="19.008327"><ele>1193.9</ele><time>2012-05-02T23:23:13.0000000+00:00</time></trkpt><trkpt lat="42.901756" lon="19.009405"><ele>1197.1</ele><time>2012-05-02T23:23:18.0000000+00:00</time></trkpt><trkpt lat="42.901974" lon="19.01041"><ele>1199.5</ele><time>2012-05-02T23:23:23.0000000+00:00</time></trkpt><trkpt lat="42.902481" lon="19.011223"><ele>1203.2</ele><time>2012-05-02T23:23:28.0000000+00:00</time></trkpt><trkpt lat="42.903107" lon="19.01198"><ele>1206.8</ele><time>2012-05-02T23:23:33.0000000+00:00</time></trkpt><trkpt lat="42.903706" lon="19.012682"><ele>1209.9</ele><time>2012-05-02T23:23:38.0000000+00:00</time></trkpt><trkpt lat="42.904263" lon="19.013437"><ele>1214.2</ele><time>2012-05-02T23:23:43.0000000+00:00</time></trkpt><trkpt lat="42.904587" lon="19.014339"><ele>1216.3</ele><time>2012-05-02T23:23:48.0000000+00:00</time></trkpt><trkpt lat="42.904629" lon="19.015373"><ele>1219.5</ele><time>2012-05-02T23:23:53.0000000+00:00</time></trkpt><trkpt lat="42.904392" lon="19.016329"><ele>1223.5</ele><time>2012-05-02T23:23:58.0000000+00:00</time></trkpt><trkpt lat="42.903915" lon="19.01713"><ele>1229.3</ele><time>2012-05-02T23:24:03.0000000+00:00</time></trkpt><trkpt lat="42.903397" lon="19.017849"><ele>1235.4</ele><time>2012-05-02T23:24:08.0000000+00:00</time></trkpt><trkpt lat="42.902992" lon="19.018715"><ele>1241.2</ele><time>2012-05-02T23:24:13.0000000+00:00</time></trkpt><trkpt lat="42.902626" lon="19.019644"><ele>1246.8</ele><time>2012-05-02T23:24:18.0000000+00:00</time></trkpt><trkpt lat="42.902134" lon="19.020426"><ele>1252.4</ele><time>2012-05-02T23:24:23.0000000+00:00</time></trkpt><trkpt lat="42.901505" lon="19.021048"><ele>1260.0</ele><time>2012-05-02T23:24:28.0000000+00:00</time></trkpt><trkpt lat="42.900852" lon="19.021637"><ele>1268.1</ele><time>2012-05-02T23:24:33.0000000+00:00</time></trkpt><trkpt lat="42.900284" lon="19.022345"><ele>1274.4</ele><time>2012-05-02T23:24:38.0000000+00:00</time></trkpt><trkpt lat="42.89986" lon="19.023233"><ele>1281.7</ele><time>2012-05-02T23:24:43.0000000+00:00</time></trkpt><trkpt lat="42.899612" lon="19.024246"><ele>1289.0</ele><time>2012-05-02T23:24:48.0000000+00:00</time></trkpt><trkpt lat="42.899536" lon="19.025259"><ele>1294.0</ele><time>2012-05-02T23:24:53.0000000+00:00</time></trkpt><trkpt lat="42.899666" lon="19.026333"><ele>1294.9</ele><time>2012-05-02T23:24:58.0000000+00:00</time></trkpt><trkpt lat="42.899906" lon="19.027491"><ele>1295.9</ele><time>2012-05-02T23:25:03.0000000+00:00</time></trkpt><trkpt lat="42.900154" lon="19.028681"><ele>1298.7</ele><time>2012-05-02T23:25:08.0000000+00:00</time></trkpt><trkpt lat="42.900387" lon="19.029814"><ele>1301.7</ele><time>2012-05-02T23:25:13.0000000+00:00</time></trkpt><trkpt lat="42.900528" lon="19.03091"><ele>1304.4</ele><time>2012-05-02T23:25:18.0000000+00:00</time></trkpt><trkpt lat="42.900368" lon="19.031944"><ele>1306.5</ele><time>2012-05-02T23:25:23.0000000+00:00</time></trkpt><trkpt lat="42.89994" lon="19.032917"><ele>1308.4</ele><time>2012-05-02T23:25:28.0000000+00:00</time></trkpt><trkpt lat="42.899719" lon="19.033993"><ele>1310.1</ele><time>2012-05-02T23:25:33.0000000+00:00</time></trkpt><trkpt lat="42.899467" lon="19.035038"><ele>1313.6</ele><time>2012-05-02T23:25:38.0000000+00:00</time></trkpt><trkpt lat="42.898979" lon="19.035742"><ele>1317.4</ele><time>2012-05-02T23:25:43.0000000+00:00</time></trkpt><trkpt lat="42.898277" lon="19.036201"><ele>1324.0</ele><time>2012-05-02T23:25:48.0000000+00:00</time></trkpt><trkpt lat="42.897499" lon="19.036661"><ele>1328.6</ele><time>2012-05-02T23:25:53.0000000+00:00</time></trkpt><trkpt lat="42.89682" lon="19.037354"><ele>1332.8</ele><time>2012-05-02T23:25:58.0000000+00:00</time></trkpt><trkpt lat="42.896381" lon="19.038332"><ele>1337.0</ele><time>2012-05-02T23:26:03.0000000+00:00</time></trkpt><trkpt lat="42.896236" lon="19.039469"><ele>1342.6</ele><time>2012-05-02T23:26:08.0000000+00:00</time></trkpt><trkpt lat="42.896385" lon="19.040508"><ele>1346.8</ele><time>2012-05-02T23:26:13.0000000+00:00</time></trkpt><trkpt lat="42.896793" lon="19.041422"><ele>1352.9</ele><time>2012-05-02T23:26:18.0000000+00:00</time></trkpt><trkpt lat="42.897442" lon="19.04213"><ele>1361.2</ele><time>2012-05-02T23:26:23.0000000+00:00</time></trkpt><trkpt lat="42.898167" lon="19.042768"><ele>1368.0</ele><time>2012-05-02T23:26:28.0000000+00:00</time></trkpt><trkpt lat="42.898762" lon="19.043444"><ele>1373.7</ele><time>2012-05-02T23:26:33.0000000+00:00</time></trkpt><trkpt lat="42.899246" lon="19.044306"><ele>1376.5</ele><time>2012-05-02T23:26:38.0000000+00:00</time></trkpt><trkpt lat="42.899586" lon="19.045359"><ele>1375.4</ele><time>2012-05-02T23:26:43.0000000+00:00</time></trkpt><trkpt lat="42.899887" lon="19.046431"><ele>1376.2</ele><time>2012-05-02T23:26:48.0000000+00:00</time></trkpt><trkpt lat="42.900364" lon="19.047455"><ele>1378.7</ele><time>2012-05-02T23:26:53.0000000+00:00</time></trkpt><trkpt lat="42.900829" lon="19.048414"><ele>1380.3</ele><time>2012-05-02T23:26:58.0000000+00:00</time></trkpt><trkpt lat="42.90107" lon="19.049528"><ele>1381.3</ele><time>2012-05-02T23:27:03.0000000+00:00</time></trkpt><trkpt lat="42.901119" lon="19.050713"><ele>1381.6</ele><time>2012-05-02T23:27:08.0000000+00:00</time></trkpt><trkpt lat="42.901199" lon="19.051815"><ele>1382.0</ele><time>2012-05-02T23:27:13.0000000+00:00</time></trkpt><trkpt lat="42.901493" lon="19.052917"><ele>1385.0</ele><time>2012-05-02T23:27:18.0000000+00:00</time></trkpt><trkpt lat="42.901806" lon="19.054008"><ele>1388.1</ele><time>2012-05-02T23:27:23.0000000+00:00</time></trkpt><trkpt lat="42.901913" lon="19.055117"><ele>1391.3</ele><time>2012-05-02T23:27:28.0000000+00:00</time></trkpt><trkpt lat="42.901894" lon="19.056261"><ele>1394.1</ele><time>2012-05-02T23:27:33.0000000+00:00</time></trkpt><trkpt lat="42.901852" lon="19.057417"><ele>1397.7</ele><time>2012-05-02T23:27:38.0000000+00:00</time></trkpt><trkpt lat="42.901806" lon="19.058554"><ele>1401.3</ele><time>2012-05-02T23:27:43.0000000+00:00</time></trkpt><trkpt lat="42.90176" lon="19.059702"><ele>1405.0</ele><time>2012-05-02T23:27:48.0000000+00:00</time></trkpt><trkpt lat="42.901691" lon="19.060877"><ele>1410.1</ele><time>2012-05-02T23:27:53.0000000+00:00</time></trkpt><trkpt lat="42.901493" lon="19.061947"><ele>1413.0</ele><time>2012-05-02T23:27:58.0000000+00:00</time></trkpt><trkpt lat="42.901039" lon="19.062716"><ele>1415.4</ele><time>2012-05-02T23:28:03.0000000+00:00</time></trkpt><trkpt lat="42.900452" lon="19.063286"><ele>1417.6</ele><time>2012-05-02T23:28:08.0000000+00:00</time></trkpt><trkpt lat="42.899776" lon="19.063797"><ele>1419.6</ele><time>2012-05-02T23:28:13.0000000+00:00</time></trkpt><trkpt lat="42.899036" lon="19.064001"><ele>1420.3</ele><time>2012-05-02T23:28:18.0000000+00:00</time></trkpt><trkpt lat="42.898232" lon="19.063805"><ele>1418.7</ele><time>2012-05-02T23:28:23.0000000+00:00</time></trkpt><trkpt lat="42.897457" lon="19.063951"><ele>1421.0</ele><time>2012-05-02T23:28:28.0000000+00:00</time></trkpt><trkpt lat="42.896809" lon="19.06459"><ele>1424.5</ele><time>2012-05-02T23:28:33.0000000+00:00</time></trkpt><trkpt lat="42.896206" lon="19.065325"><ele>1426.2</ele><time>2012-05-02T23:28:38.0000000+00:00</time></trkpt><trkpt lat="42.89558" lon="19.065966"><ele>1430.0</ele><time>2012-05-02T23:28:43.0000000+00:00</time></trkpt><trkpt lat="42.895084" lon="19.066843"><ele>1432.7</ele><time>2012-05-02T23:28:48.0000000+00:00</time></trkpt><trkpt lat="42.894878" lon="19.067905"><ele>1434.5</ele><time>2012-05-02T23:28:53.0000000+00:00</time></trkpt><trkpt lat="42.894947" lon="19.069"><ele>1429.7</ele><time>2012-05-02T23:28:58.0000000+00:00</time></trkpt><trkpt lat="42.895035" lon="19.070148"><ele>1427.4</ele><time>2012-05-02T23:29:03.0000000+00:00</time></trkpt><trkpt lat="42.895031" lon="19.071295"><ele>1429.6</ele><time>2012-05-02T23:29:08.0000000+00:00</time></trkpt><trkpt lat="42.894829" lon="19.07242"><ele>1436.0</ele><time>2012-05-02T23:29:13.0000000+00:00</time></trkpt><trkpt lat="42.894444" lon="19.073412"><ele>1442.3</ele><time>2012-05-02T23:29:18.0000000+00:00</time></trkpt><trkpt lat="42.894035" lon="19.074356"><ele>1447.5</ele><time>2012-05-02T23:29:23.0000000+00:00</time></trkpt><trkpt lat="42.893764" lon="19.075377"><ele>1457.0</ele><time>2012-05-02T23:29:28.0000000+00:00</time></trkpt><trkpt lat="42.893707" lon="19.07638"><ele>1458.4</ele><time>2012-05-02T23:29:33.0000000+00:00</time></trkpt><trkpt lat="42.893848" lon="19.077328"><ele>1456.6</ele><time>2012-05-02T23:29:38.0000000+00:00</time></trkpt><trkpt lat="42.894157" lon="19.078239"><ele>1455.1</ele><time>2012-05-02T23:29:43.0000000+00:00</time></trkpt><trkpt lat="42.894642" lon="19.079029"><ele>1461.6</ele><time>2012-05-02T23:29:48.0000000+00:00</time></trkpt><trkpt lat="42.895233" lon="19.079647"><ele>1464.9</ele><time>2012-05-02T23:29:53.0000000+00:00</time></trkpt><trkpt lat="42.895893" lon="19.080076"><ele>1464.9</ele><time>2012-05-02T23:29:58.0000000+00:00</time></trkpt><trkpt lat="42.897442" lon="19.080818"><ele>1497.0</ele><time>2012-05-02T23:30:09.0000000+00:00</time></trkpt><trkpt lat="42.898067" lon="19.081364"><ele>1477.0</ele><time>2012-05-02T23:30:14.0000000+00:00</time></trkpt><trkpt lat="42.898567" lon="19.081999"><ele>1469.3</ele><time>2012-05-02T23:30:19.0000000+00:00</time></trkpt><trkpt lat="42.898994" lon="19.082853"><ele>1458.8</ele><time>2012-05-02T23:30:24.0000000+00:00</time></trkpt><trkpt lat="42.899273" lon="19.083776"><ele>1448.2</ele><time>2012-05-02T23:30:29.0000000+00:00</time></trkpt><trkpt lat="42.89941" lon="19.084702"><ele>1440.8</ele><time>2012-05-02T23:30:34.0000000+00:00</time></trkpt><trkpt lat="42.899422" lon="19.085629"><ele>1432.5</ele><time>2012-05-02T23:30:39.0000000+00:00</time></trkpt><trkpt lat="42.899323" lon="19.086565"><ele>1427.4</ele><time>2012-05-02T23:30:44.0000000+00:00</time></trkpt><trkpt lat="42.899281" lon="19.087517"><ele>1420.7</ele><time>2012-05-02T23:30:49.0000000+00:00</time></trkpt><trkpt lat="42.899372" lon="19.088451"><ele>1410.4</ele><time>2012-05-02T23:30:54.0000000+00:00</time></trkpt><trkpt lat="42.899509" lon="19.089354"><ele>1405.4</ele><time>2012-05-02T23:30:59.0000000+00:00</time></trkpt><trkpt lat="42.899517" lon="19.090275"><ele>1400.9</ele><time>2012-05-02T23:31:04.0000000+00:00</time></trkpt><trkpt lat="42.899422" lon="19.091183"><ele>1394.9</ele><time>2012-05-02T23:31:09.0000000+00:00</time></trkpt><trkpt lat="42.899548" lon="19.091995"><ele>1389.5</ele><time>2012-05-02T23:31:14.0000000+00:00</time></trkpt><trkpt lat="42.899994" lon="19.092537"><ele>1388.5</ele><time>2012-05-02T23:31:19.0000000+00:00</time></trkpt><trkpt lat="42.900421" lon="19.093071"><ele>1388.4</ele><time>2012-05-02T23:31:24.0000000+00:00</time></trkpt><trkpt lat="42.900742" lon="19.093487"><ele>1389.2</ele><time>2012-05-02T23:31:29.0000000+00:00</time></trkpt><trkpt lat="42.901031" lon="19.093311"><ele>1390.2</ele><time>2012-05-02T23:31:34.0000000+00:00</time></trkpt><trkpt lat="42.900932" lon="19.093178"><ele>1386.4</ele><time>2012-05-02T23:31:39.0000000+00:00</time></trkpt><trkpt lat="42.900749" lon="19.092871"><ele>1382.5</ele><time>2012-05-02T23:31:44.0000000+00:00</time></trkpt><trkpt lat="42.900539" lon="19.092449"><ele>1379.5</ele><time>2012-05-02T23:31:49.0000000+00:00</time></trkpt><trkpt lat="42.900188" lon="19.092133"><ele>1376.5</ele><time>2012-05-02T23:31:54.0000000+00:00</time></trkpt><trkpt lat="42.899933" lon="19.091764"><ele>1374.4</ele><time>2012-05-02T23:31:59.0000000+00:00</time></trkpt><trkpt lat="42.899982" lon="19.091311"><ele>1373.4</ele><time>2012-05-02T23:32:04.0000000+00:00</time></trkpt><trkpt lat="42.900112" lon="19.09086"><ele>1371.8</ele><time>2012-05-02T23:32:09.0000000+00:00</time></trkpt><trkpt lat="42.900215" lon="19.090332"><ele>1370.8</ele><time>2012-05-02T23:32:14.0000000+00:00</time></trkpt><trkpt lat="42.900288" lon="19.089655"><ele>1369.9</ele><time>2012-05-02T23:32:19.0000000+00:00</time></trkpt><trkpt lat="42.900417" lon="19.089006"><ele>1368.9</ele><time>2012-05-02T23:32:24.0000000+00:00</time></trkpt><trkpt lat="42.900501" lon="19.088688"><ele>1368.8</ele><time>2012-05-02T23:32:29.0000000+00:00</time></trkpt><trkpt lat="42.900555" lon="19.088881"><ele>1364.7</ele><time>2012-05-02T23:32:34.0000000+00:00</time></trkpt><trkpt lat="42.900509" lon="19.089262"><ele>1361.7</ele><time>2012-05-02T23:32:39.0000000+00:00</time></trkpt><trkpt lat="42.900501" lon="19.08975"><ele>1358.9</ele><time>2012-05-02T23:32:44.0000000+00:00</time></trkpt><trkpt lat="42.90057" lon="19.090219"><ele>1357.5</ele><time>2012-05-02T23:32:49.0000000+00:00</time></trkpt><trkpt lat="42.900726" lon="19.090714"><ele>1354.5</ele><time>2012-05-02T23:32:54.0000000+00:00</time></trkpt><trkpt lat="42.900902" lon="19.091202"><ele>1351.9</ele><time>2012-05-02T23:32:59.0000000+00:00</time></trkpt><trkpt lat="42.901234" lon="19.091269"><ele>1349.0</ele><time>2012-05-02T23:33:04.0000000+00:00</time></trkpt><trkpt lat="42.901592" lon="19.091274"><ele>1345.9</ele><time>2012-05-02T23:33:09.0000000+00:00</time></trkpt><trkpt lat="42.901897" lon="19.09145"><ele>1342.9</ele><time>2012-05-02T23:33:14.0000000+00:00</time></trkpt><trkpt lat="42.902191" lon="19.091255"><ele>1340.1</ele><time>2012-05-02T23:33:19.0000000+00:00</time></trkpt><trkpt lat="42.902523" lon="19.091135"><ele>1338.8</ele><time>2012-05-02T23:33:24.0000000+00:00</time></trkpt><trkpt lat="42.902878" lon="19.091242"><ele>1337.0</ele><time>2012-05-02T23:33:29.0000000+00:00</time></trkpt><trkpt lat="42.903263" lon="19.091127"><ele>1335.5</ele><time>2012-05-02T23:33:34.0000000+00:00</time></trkpt><trkpt lat="42.903427" lon="19.090693"><ele>1333.8</ele><time>2012-05-02T23:33:39.0000000+00:00</time></trkpt><trkpt lat="42.903431" lon="19.090252"><ele>1333.6</ele><time>2012-05-02T23:33:44.0000000+00:00</time></trkpt><trkpt lat="42.903671" lon="19.089918"><ele>1333.6</ele><time>2012-05-02T23:33:49.0000000+00:00</time></trkpt><trkpt lat="42.904018" lon="19.089737"><ele>1333.7</ele><time>2012-05-02T23:33:54.0000000+00:00</time></trkpt><trkpt lat="42.904404" lon="19.089876"><ele>1332.5</ele><time>2012-05-02T23:33:59.0000000+00:00</time></trkpt><trkpt lat="42.904831" lon="19.090189"><ele>1329.5</ele><time>2012-05-02T23:34:04.0000000+00:00</time></trkpt><trkpt lat="42.905037" lon="19.090622"><ele>1326.4</ele><time>2012-05-02T23:34:09.0000000+00:00</time></trkpt><trkpt lat="42.9053" lon="19.091206"><ele>1323.1</ele><time>2012-05-02T23:34:14.0000000+00:00</time></trkpt><trkpt lat="42.905567" lon="19.091734"><ele>1320.0</ele><time>2012-05-02T23:34:19.0000000+00:00</time></trkpt><trkpt lat="42.90588" lon="19.091871"><ele>1318.8</ele><time>2012-05-02T23:34:24.0000000+00:00</time></trkpt><trkpt lat="42.906239" lon="19.091902"><ele>1318.8</ele><time>2012-05-02T23:34:29.0000000+00:00</time></trkpt><trkpt lat="42.906445" lon="19.092197"><ele>1316.7</ele><time>2012-05-02T23:34:34.0000000+00:00</time></trkpt><trkpt lat="42.906597" lon="19.092142"><ele>1314.2</ele><time>2012-05-02T23:34:39.0000000+00:00</time></trkpt><trkpt lat="42.906506" lon="19.091833"><ele>1313.8</ele><time>2012-05-02T23:34:44.0000000+00:00</time></trkpt><trkpt lat="42.906265" lon="19.091614"><ele>1313.4</ele><time>2012-05-02T23:34:49.0000000+00:00</time></trkpt><trkpt lat="42.905972" lon="19.091375"><ele>1312.6</ele><time>2012-05-02T23:34:54.0000000+00:00</time></trkpt><trkpt lat="42.905846" lon="19.090899"><ele>1312.5</ele><time>2012-05-02T23:34:59.0000000+00:00</time></trkpt><trkpt lat="42.905754" lon="19.090324"><ele>1313.1</ele><time>2012-05-02T23:35:04.0000000+00:00</time></trkpt><trkpt lat="42.90583" lon="19.089708"><ele>1314.5</ele><time>2012-05-02T23:35:09.0000000+00:00</time></trkpt><trkpt lat="42.906086" lon="19.089151"><ele>1310.5</ele><time>2012-05-02T23:35:14.0000000+00:00</time></trkpt><trkpt lat="42.906219" lon="19.088743"><ele>1307.5</ele><time>2012-05-02T23:35:19.0000000+00:00</time></trkpt><trkpt lat="42.906021" lon="19.088539"><ele>1304.0</ele><time>2012-05-02T23:35:24.0000000+00:00</time></trkpt><trkpt lat="42.905754" lon="19.088287"><ele>1302.6</ele><time>2012-05-02T23:35:29.0000000+00:00</time></trkpt><trkpt lat="42.905479" lon="19.088306"><ele>1300.6</ele><time>2012-05-02T23:35:34.0000000+00:00</time></trkpt><trkpt lat="42.905239" lon="19.088507"><ele>1298.0</ele><time>2012-05-02T23:35:39.0000000+00:00</time></trkpt><trkpt lat="42.905048" lon="19.088436"><ele>1296.3</ele><time>2012-05-02T23:35:44.0000000+00:00</time></trkpt><trkpt lat="42.905178" lon="19.088318"><ele>1296.1</ele><time>2012-05-02T23:35:49.0000000+00:00</time></trkpt><trkpt lat="42.905407" lon="19.088137"><ele>1295.7</ele><time>2012-05-02T23:35:54.0000000+00:00</time></trkpt><trkpt lat="42.905647" lon="19.087866"><ele>1293.0</ele><time>2012-05-02T23:35:59.0000000+00:00</time></trkpt><trkpt lat="42.905933" lon="19.087984"><ele>1291.7</ele><time>2012-05-02T23:36:04.0000000+00:00</time></trkpt><trkpt lat="42.906235" lon="19.088125"><ele>1290.3</ele><time>2012-05-02T23:36:09.0000000+00:00</time></trkpt><trkpt lat="42.906586" lon="19.088018"><ele>1290.0</ele><time>2012-05-02T23:36:14.0000000+00:00</time></trkpt><trkpt lat="42.906975" lon="19.088104"><ele>1289.4</ele><time>2012-05-02T23:36:19.0000000+00:00</time></trkpt><trkpt lat="42.907112" lon="19.088509"><ele>1289.7</ele><time>2012-05-02T23:36:24.0000000+00:00</time></trkpt><trkpt lat="42.907055" lon="19.088896"><ele>1290.2</ele><time>2012-05-02T23:36:29.0000000+00:00</time></trkpt><trkpt lat="42.907104" lon="19.089304"><ele>1287.7</ele><time>2012-05-02T23:36:34.0000000+00:00</time></trkpt><trkpt lat="42.907516" lon="19.089466"><ele>1288.3</ele><time>2012-05-02T23:36:39.0000000+00:00</time></trkpt><trkpt lat="42.908035" lon="19.089447"><ele>1289.4</ele><time>2012-05-02T23:36:44.0000000+00:00</time></trkpt><trkpt lat="42.908524" lon="19.089458"><ele>1289.3</ele><time>2012-05-02T23:36:49.0000000+00:00</time></trkpt><trkpt lat="42.908871" lon="19.089842"><ele>1274.9</ele><time>2012-05-02T23:36:54.0000000+00:00</time></trkpt><trkpt lat="42.909267" lon="19.090204"><ele>1270.5</ele><time>2012-05-02T23:36:59.0000000+00:00</time></trkpt><trkpt lat="42.90976" lon="19.090256"><ele>1267.9</ele><time>2012-05-02T23:37:04.0000000+00:00</time></trkpt><trkpt lat="42.910202" lon="19.090034"><ele>1263.6</ele><time>2012-05-02T23:37:09.0000000+00:00</time></trkpt><trkpt lat="42.910553" lon="19.090002"><ele>1259.1</ele><time>2012-05-02T23:37:14.0000000+00:00</time></trkpt><trkpt lat="42.910686" lon="19.09034"><ele>1254.7</ele><time>2012-05-02T23:37:19.0000000+00:00</time></trkpt><trkpt lat="42.910828" lon="19.090807"><ele>1247.5</ele><time>2012-05-02T23:37:24.0000000+00:00</time></trkpt><trkpt lat="42.911274" lon="19.090906"><ele>1236.2</ele><time>2012-05-02T23:37:29.0000000+00:00</time></trkpt><trkpt lat="42.91177" lon="19.090689"><ele>1229.8</ele><time>2012-05-02T23:37:34.0000000+00:00</time></trkpt><trkpt lat="42.912251" lon="19.090473"><ele>1224.7</ele><time>2012-05-02T23:37:39.0000000+00:00</time></trkpt><trkpt lat="42.912754" lon="19.090302"><ele>1218.5</ele><time>2012-05-02T23:37:44.0000000+00:00</time></trkpt><trkpt lat="42.913265" lon="19.090214"><ele>1215.9</ele><time>2012-05-02T23:37:49.0000000+00:00</time></trkpt><trkpt lat="42.91383" lon="19.0903"><ele>1213.1</ele><time>2012-05-02T23:37:54.0000000+00:00</time></trkpt><trkpt lat="42.914459" lon="19.090456"><ele>1210.1</ele><time>2012-05-02T23:37:59.0000000+00:00</time></trkpt><trkpt lat="42.915085" lon="19.090614"><ele>1206.9</ele><time>2012-05-02T23:38:04.0000000+00:00</time></trkpt><trkpt lat="42.915684" lon="19.090769"><ele>1203.8</ele><time>2012-05-02T23:38:09.0000000+00:00</time></trkpt><trkpt lat="42.916203" lon="19.090841"><ele>1201.8</ele><time>2012-05-02T23:38:14.0000000+00:00</time></trkpt><trkpt lat="42.916466" lon="19.09042"><ele>1198.4</ele><time>2012-05-02T23:38:19.0000000+00:00</time></trkpt><trkpt lat="42.916576" lon="19.089882"><ele>1196.2</ele><time>2012-05-02T23:38:24.0000000+00:00</time></trkpt><trkpt lat="42.916897" lon="19.089584"><ele>1193.1</ele><time>2012-05-02T23:38:29.0000000+00:00</time></trkpt><trkpt lat="42.917328" lon="19.089302"><ele>1190.4</ele><time>2012-05-02T23:38:34.0000000+00:00</time></trkpt><trkpt lat="42.917656" lon="19.088793"><ele>1188.2</ele><time>2012-05-02T23:38:39.0000000+00:00</time></trkpt><trkpt lat="42.917812" lon="19.088167"><ele>1186.3</ele><time>2012-05-02T23:38:44.0000000+00:00</time></trkpt><trkpt lat="42.918159" lon="19.087698"><ele>1182.8</ele><time>2012-05-02T23:38:49.0000000+00:00</time></trkpt><trkpt lat="42.918407" lon="19.087238"><ele>1179.5</ele><time>2012-05-02T23:38:54.0000000+00:00</time></trkpt><trkpt lat="42.918438" lon="19.086721"><ele>1177.9</ele><time>2012-05-02T23:38:59.0000000+00:00</time></trkpt><trkpt lat="42.918686" lon="19.086166"><ele>1174.8</ele><time>2012-05-02T23:39:04.0000000+00:00</time></trkpt><trkpt lat="42.919018" lon="19.085466"><ele>1171.2</ele><time>2012-05-02T23:39:09.0000000+00:00</time></trkpt><trkpt lat="42.91943" lon="19.084808"><ele>1167.6</ele><time>2012-05-02T23:39:14.0000000+00:00</time></trkpt><trkpt lat="42.919689" lon="19.084044"><ele>1162.7</ele><time>2012-05-02T23:39:19.0000000+00:00</time></trkpt><trkpt lat="42.919914" lon="19.083273"><ele>1159.1</ele><time>2012-05-02T23:39:24.0000000+00:00</time></trkpt><trkpt lat="42.920235" lon="19.082806"><ele>1156.8</ele><time>2012-05-02T23:39:29.0000000+00:00</time></trkpt><trkpt lat="42.920628" lon="19.082573"><ele>1153.6</ele><time>2012-05-02T23:39:34.0000000+00:00</time></trkpt><trkpt lat="42.920982" lon="19.082195"><ele>1151.4</ele><time>2012-05-02T23:39:39.0000000+00:00</time></trkpt><trkpt lat="42.92141" lon="19.081945"><ele>1150.0</ele><time>2012-05-02T23:39:44.0000000+00:00</time></trkpt><trkpt lat="42.921883" lon="19.081835"><ele>1149.6</ele><time>2012-05-02T23:39:49.0000000+00:00</time></trkpt><trkpt lat="42.922382" lon="19.081783"><ele>1145.6</ele><time>2012-05-02T23:39:54.0000000+00:00</time></trkpt><trkpt lat="42.922852" lon="19.08148"><ele>1142.5</ele><time>2012-05-02T23:39:59.0000000+00:00</time></trkpt><trkpt lat="42.923225" lon="19.081022"><ele>1138.8</ele><time>2012-05-02T23:40:04.0000000+00:00</time></trkpt><trkpt lat="42.923615" lon="19.080563"><ele>1137.9</ele><time>2012-05-02T23:40:09.0000000+00:00</time></trkpt><trkpt lat="42.923824" lon="19.080015"><ele>1135.6</ele><time>2012-05-02T23:40:14.0000000+00:00</time></trkpt><trkpt lat="42.924004" lon="19.079479"><ele>1133.3</ele><time>2012-05-02T23:40:19.0000000+00:00</time></trkpt><trkpt lat="42.924187" lon="19.078899"><ele>1130.6</ele><time>2012-05-02T23:40:24.0000000+00:00</time></trkpt><trkpt lat="42.924313" lon="19.078262"><ele>1128.4</ele><time>2012-05-02T23:40:29.0000000+00:00</time></trkpt><trkpt lat="42.924351" lon="19.077591"><ele>1123.3</ele><time>2012-05-02T23:40:34.0000000+00:00</time></trkpt><trkpt lat="42.924255" lon="19.076923"><ele>1120.0</ele><time>2012-05-02T23:40:39.0000000+00:00</time></trkpt><trkpt lat="42.924431" lon="19.076271"><ele>1117.0</ele><time>2012-05-02T23:40:44.0000000+00:00</time></trkpt><trkpt lat="42.924744" lon="19.07571"><ele>1114.5</ele><time>2012-05-02T23:40:49.0000000+00:00</time></trkpt><trkpt lat="42.92503" lon="19.075113"><ele>1110.3</ele><time>2012-05-02T23:40:54.0000000+00:00</time></trkpt><trkpt lat="42.925236" lon="19.074446"><ele>1106.9</ele><time>2012-05-02T23:40:59.0000000+00:00</time></trkpt><trkpt lat="42.925411" lon="19.073757"><ele>1103.1</ele><time>2012-05-02T23:41:04.0000000+00:00</time></trkpt><trkpt lat="42.925762" lon="19.073395"><ele>1101.7</ele><time>2012-05-02T23:41:09.0000000+00:00</time></trkpt><trkpt lat="42.926212" lon="19.073204"><ele>1099.5</ele><time>2012-05-02T23:41:14.0000000+00:00</time></trkpt><trkpt lat="42.92651" lon="19.072687"><ele>1098.8</ele><time>2012-05-02T23:41:19.0000000+00:00</time></trkpt><trkpt lat="42.926609" lon="19.072083"><ele>1098.5</ele><time>2012-05-02T23:41:24.0000000+00:00</time></trkpt><trkpt lat="42.926849" lon="19.071581"><ele>1095.1</ele><time>2012-05-02T23:41:29.0000000+00:00</time></trkpt><trkpt lat="42.927147" lon="19.071249"><ele>1093.0</ele><time>2012-05-02T23:41:34.0000000+00:00</time></trkpt><trkpt lat="42.92762" lon="19.07115"><ele>1091.3</ele><time>2012-05-02T23:41:39.0000000+00:00</time></trkpt><trkpt lat="42.92815" lon="19.070982"><ele>1087.0</ele><time>2012-05-02T23:41:44.0000000+00:00</time></trkpt><trkpt lat="42.928661" lon="19.070717"><ele>1083.3</ele><time>2012-05-02T23:41:49.0000000+00:00</time></trkpt><trkpt lat="42.92918" lon="19.070362"><ele>1079.4</ele><time>2012-05-02T23:41:54.0000000+00:00</time></trkpt><trkpt lat="42.929668" lon="19.069901"><ele>1075.7</ele><time>2012-05-02T23:41:59.0000000+00:00</time></trkpt><trkpt lat="42.930061" lon="19.069611"><ele>1072.2</ele><time>2012-05-02T23:42:04.0000000+00:00</time></trkpt><trkpt lat="42.930347" lon="19.069767"><ele>1070.4</ele><time>2012-05-02T23:42:09.0000000+00:00</time></trkpt><trkpt lat="42.930595" lon="19.070093"><ele>1068.1</ele><time>2012-05-02T23:42:14.0000000+00:00</time></trkpt><trkpt lat="42.930969" lon="19.070152"><ele>1066.0</ele><time>2012-05-02T23:42:19.0000000+00:00</time></trkpt><trkpt lat="42.931393" lon="19.070314"><ele>1062.8</ele><time>2012-05-02T23:42:24.0000000+00:00</time></trkpt><trkpt lat="42.931828" lon="19.07032"><ele>1059.1</ele><time>2012-05-02T23:42:29.0000000+00:00</time></trkpt><trkpt lat="42.932285" lon="19.070148"><ele>1055.6</ele><time>2012-05-02T23:42:34.0000000+00:00</time></trkpt><trkpt lat="42.932781" lon="19.070213"><ele>1054.6</ele><time>2012-05-02T23:42:39.0000000+00:00</time></trkpt><trkpt lat="42.93325" lon="19.07023"><ele>1052.4</ele><time>2012-05-02T23:42:44.0000000+00:00</time></trkpt><trkpt lat="42.933697" lon="19.070063"><ele>1050.4</ele><time>2012-05-02T23:42:49.0000000+00:00</time></trkpt><trkpt lat="42.934155" lon="19.069872"><ele>1048.9</ele><time>2012-05-02T23:42:54.0000000+00:00</time></trkpt><trkpt lat="42.934643" lon="19.070005"><ele>1046.5</ele><time>2012-05-02T23:42:59.0000000+00:00</time></trkpt><trkpt lat="42.935169" lon="19.070347"><ele>1043.7</ele><time>2012-05-02T23:43:04.0000000+00:00</time></trkpt><trkpt lat="42.935776" lon="19.070593"><ele>1042.2</ele><time>2012-05-02T23:43:09.0000000+00:00</time></trkpt><trkpt lat="42.936359" lon="19.070917"><ele>1040.3</ele><time>2012-05-02T23:43:14.0000000+00:00</time></trkpt><trkpt lat="42.937004" lon="19.071249"><ele>1039.3</ele><time>2012-05-02T23:43:19.0000000+00:00</time></trkpt><trkpt lat="42.937691" lon="19.071564"><ele>1040.0</ele><time>2012-05-02T23:43:24.0000000+00:00</time></trkpt><trkpt lat="42.938362" lon="19.071842"><ele>1043.9</ele><time>2012-05-02T23:43:29.0000000+00:00</time></trkpt><trkpt lat="42.939068" lon="19.071926"><ele>1043.8</ele><time>2012-05-02T23:43:34.0000000+00:00</time></trkpt><trkpt lat="42.9398" lon="19.071865"><ele>1040.0</ele><time>2012-05-02T23:43:39.0000000+00:00</time></trkpt><trkpt lat="42.940598" lon="19.071787"><ele>1038.9</ele><time>2012-05-02T23:43:44.0000000+00:00</time></trkpt><trkpt lat="42.941349" lon="19.071711"><ele>1039.0</ele><time>2012-05-02T23:43:49.0000000+00:00</time></trkpt><trkpt lat="42.942013" lon="19.071787"><ele>1040.5</ele><time>2012-05-02T23:43:54.0000000+00:00</time></trkpt><trkpt lat="42.942558" lon="19.072208"><ele>1042.1</ele><time>2012-05-02T23:43:59.0000000+00:00</time></trkpt><trkpt lat="42.942982" lon="19.072868"><ele>1045.3</ele><time>2012-05-02T23:44:04.0000000+00:00</time></trkpt><trkpt lat="42.943428" lon="19.073483"><ele>1049.3</ele><time>2012-05-02T23:44:09.0000000+00:00</time></trkpt><trkpt lat="42.943901" lon="19.073513"><ele>1053.1</ele><time>2012-05-02T23:44:14.0000000+00:00</time></trkpt><trkpt lat="42.94421" lon="19.073191"><ele>1056.4</ele><time>2012-05-02T23:44:19.0000000+00:00</time></trkpt><trkpt lat="42.944588" lon="19.073221"><ele>1057.4</ele><time>2012-05-02T23:44:24.0000000+00:00</time></trkpt><trkpt lat="42.945065" lon="19.073462"><ele>1060.5</ele><time>2012-05-02T23:44:29.0000000+00:00</time></trkpt><trkpt lat="42.945538" lon="19.073658"><ele>1062.5</ele><time>2012-05-02T23:44:34.0000000+00:00</time></trkpt><trkpt lat="42.945786" lon="19.074156"><ele>1064.7</ele><time>2012-05-02T23:44:39.0000000+00:00</time></trkpt><trkpt lat="42.945816" lon="19.074797"><ele>1067.3</ele><time>2012-05-02T23:44:44.0000000+00:00</time></trkpt><trkpt lat="42.945705" lon="19.075457"><ele>1069.5</ele><time>2012-05-02T23:44:49.0000000+00:00</time></trkpt><trkpt lat="42.945534" lon="19.076097"><ele>1070.6</ele><time>2012-05-02T23:44:54.0000000+00:00</time></trkpt><trkpt lat="42.945511" lon="19.076796"><ele>1071.4</ele><time>2012-05-02T23:44:59.0000000+00:00</time></trkpt><trkpt lat="42.945789" lon="19.077213"><ele>1072.2</ele><time>2012-05-02T23:45:04.0000000+00:00</time></trkpt><trkpt lat="42.946198" lon="19.077108"><ele>1073.0</ele><time>2012-05-02T23:45:09.0000000+00:00</time></trkpt><trkpt lat="42.946522" lon="19.077314"><ele>1073.7</ele><time>2012-05-02T23:45:14.0000000+00:00</time></trkpt><trkpt lat="42.946644" lon="19.077896"><ele>1075.3</ele><time>2012-05-02T23:45:19.0000000+00:00</time></trkpt><trkpt lat="42.946743" lon="19.078472"><ele>1077.5</ele><time>2012-05-02T23:45:24.0000000+00:00</time></trkpt><trkpt lat="42.947155" lon="19.078718"><ele>1080.5</ele><time>2012-05-02T23:45:29.0000000+00:00</time></trkpt><trkpt lat="42.947453" lon="19.079056"><ele>1082.0</ele><time>2012-05-02T23:45:34.0000000+00:00</time></trkpt><trkpt lat="42.947628" lon="19.079638"><ele>1080.3</ele><time>2012-05-02T23:45:39.0000000+00:00</time></trkpt><trkpt lat="42.947933" lon="19.080196"><ele>1078.9</ele><time>2012-05-02T23:45:44.0000000+00:00</time></trkpt><trkpt lat="42.948215" lon="19.080853"><ele>1077.6</ele><time>2012-05-02T23:45:49.0000000+00:00</time></trkpt><trkpt lat="42.948643" lon="19.081455"><ele>1077.7</ele><time>2012-05-02T23:45:54.0000000+00:00</time></trkpt><trkpt lat="42.949074" lon="19.081968"><ele>1077.6</ele><time>2012-05-02T23:45:59.0000000+00:00</time></trkpt><trkpt lat="42.949162" lon="19.082466"><ele>1078.7</ele><time>2012-05-02T23:46:04.0000000+00:00</time></trkpt><trkpt lat="42.94915" lon="19.083193"><ele>1079.0</ele><time>2012-05-02T23:46:09.0000000+00:00</time></trkpt><trkpt lat="42.949249" lon="19.08404"><ele>1080.5</ele><time>2012-05-02T23:46:14.0000000+00:00</time></trkpt><trkpt lat="42.949379" lon="19.084829"><ele>1081.5</ele><time>2012-05-02T23:46:19.0000000+00:00</time></trkpt><trkpt lat="42.949394" lon="19.085573"><ele>1083.0</ele><time>2012-05-02T23:46:24.0000000+00:00</time></trkpt><trkpt lat="42.949661" lon="19.085962"><ele>1083.0</ele><time>2012-05-02T23:46:29.0000000+00:00</time></trkpt><trkpt lat="42.949978" lon="19.086266"><ele>1083.2</ele><time>2012-05-02T23:46:34.0000000+00:00</time></trkpt><trkpt lat="42.950089" lon="19.086891"><ele>1084.2</ele><time>2012-05-02T23:46:39.0000000+00:00</time></trkpt><trkpt lat="42.950245" lon="19.087568"><ele>1083.3</ele><time>2012-05-02T23:46:44.0000000+00:00</time></trkpt><trkpt lat="42.950436" lon="19.088234"><ele>1082.0</ele><time>2012-05-02T23:46:49.0000000+00:00</time></trkpt><trkpt lat="42.950596" lon="19.08884"><ele>1080.8</ele><time>2012-05-02T23:46:54.0000000+00:00</time></trkpt><trkpt lat="42.950424" lon="19.089319"><ele>1078.8</ele><time>2012-05-02T23:46:59.0000000+00:00</time></trkpt><trkpt lat="42.949997" lon="19.089409"><ele>1079.9</ele><time>2012-05-02T23:47:04.0000000+00:00</time></trkpt><trkpt lat="42.949558" lon="19.089371"><ele>1080.8</ele><time>2012-05-02T23:47:09.0000000+00:00</time></trkpt><trkpt lat="42.949112" lon="19.089291"><ele>1082.1</ele><time>2012-05-02T23:47:14.0000000+00:00</time></trkpt><trkpt lat="42.948784" lon="19.089598"><ele>1082.4</ele><time>2012-05-02T23:47:19.0000000+00:00</time></trkpt><trkpt lat="42.948616" lon="19.090115"><ele>1082.2</ele><time>2012-05-02T23:47:24.0000000+00:00</time></trkpt><trkpt lat="42.948223" lon="19.090324"><ele>1082.1</ele><time>2012-05-02T23:47:29.0000000+00:00</time></trkpt><trkpt lat="42.947819" lon="19.090658"><ele>1076.5</ele><time>2012-05-02T23:47:34.0000000+00:00</time></trkpt><trkpt lat="42.947529" lon="19.091209"><ele>1072.8</ele><time>2012-05-02T23:47:39.0000000+00:00</time></trkpt><trkpt lat="42.947262" lon="19.091747"><ele>1069.3</ele><time>2012-05-02T23:47:44.0000000+00:00</time></trkpt><trkpt lat="42.946938" lon="19.092201"><ele>1066.8</ele><time>2012-05-02T23:47:49.0000000+00:00</time></trkpt><trkpt lat="42.946518" lon="19.092392"><ele>1063.6</ele><time>2012-05-02T23:47:54.0000000+00:00</time></trkpt><trkpt lat="42.946117" lon="19.092546"><ele>1061.0</ele><time>2012-05-02T23:47:59.0000000+00:00</time></trkpt><trkpt lat="42.945919" lon="19.093021"><ele>1057.4</ele><time>2012-05-02T23:48:04.0000000+00:00</time></trkpt><trkpt lat="42.945919" lon="19.093359"><ele>1054.2</ele><time>2012-05-02T23:48:09.0000000+00:00</time></trkpt><trkpt lat="42.946091" lon="19.093081"><ele>1049.7</ele><time>2012-05-02T23:48:14.0000000+00:00</time></trkpt><trkpt lat="42.946308" lon="19.092899"><ele>1049.5</ele><time>2012-05-02T23:48:19.0000000+00:00</time></trkpt><trkpt lat="42.946625" lon="19.092909"><ele>1047.7</ele><time>2012-05-02T23:48:24.0000000+00:00</time></trkpt><trkpt lat="42.947014" lon="19.092834"><ele>1047.2</ele><time>2012-05-02T23:48:29.0000000+00:00</time></trkpt><trkpt lat="42.947472" lon="19.092684"><ele>1044.2</ele><time>2012-05-02T23:48:34.0000000+00:00</time></trkpt><trkpt lat="42.947891" lon="19.092339"><ele>1040.2</ele><time>2012-05-02T23:48:39.0000000+00:00</time></trkpt><trkpt lat="42.948238" lon="19.091896"><ele>1036.7</ele><time>2012-05-02T23:48:44.0000000+00:00</time></trkpt><trkpt lat="42.948597" lon="19.091591"><ele>1036.1</ele><time>2012-05-02T23:48:49.0000000+00:00</time></trkpt><trkpt lat="42.948818" lon="19.091652"><ele>1035.0</ele><time>2012-05-02T23:48:54.0000000+00:00</time></trkpt><trkpt lat="42.94865" lon="19.091824"><ele>1035.2</ele><time>2012-05-02T23:48:59.0000000+00:00</time></trkpt><trkpt lat="42.948433" lon="19.092066"><ele>1032.6</ele><time>2012-05-02T23:49:04.0000000+00:00</time></trkpt><trkpt lat="42.948254" lon="19.092516"><ele>1030.5</ele><time>2012-05-02T23:49:09.0000000+00:00</time></trkpt><trkpt lat="42.948009" lon="19.093"><ele>1028.4</ele><time>2012-05-02T23:49:14.0000000+00:00</time></trkpt><trkpt lat="42.947662" lon="19.093462"><ele>1025.2</ele><time>2012-05-02T23:49:19.0000000+00:00</time></trkpt><trkpt lat="42.947262" lon="19.093861"><ele>1023.1</ele><time>2012-05-02T23:49:24.0000000+00:00</time></trkpt><trkpt lat="42.946976" lon="19.094368"><ele>1018.6</ele><time>2012-05-02T23:49:29.0000000+00:00</time></trkpt><trkpt lat="42.946815" lon="19.094734"><ele>1017.2</ele><time>2012-05-02T23:49:34.0000000+00:00</time></trkpt><trkpt lat="42.946968" lon="19.094809"><ele>1013.8</ele><time>2012-05-02T23:49:39.0000000+00:00</time></trkpt><trkpt lat="42.947098" lon="19.094542"><ele>1010.6</ele><time>2012-05-02T23:49:44.0000000+00:00</time></trkpt><trkpt lat="42.947365" lon="19.094437"><ele>1008.4</ele><time>2012-05-02T23:49:49.0000000+00:00</time></trkpt><trkpt lat="42.947708" lon="19.09424"><ele>1006.9</ele><time>2012-05-02T23:49:54.0000000+00:00</time></trkpt><trkpt lat="42.948074" lon="19.093849"><ele>1004.4</ele><time>2012-05-02T23:49:59.0000000+00:00</time></trkpt><trkpt lat="42.948509" lon="19.093655"><ele>1001.8</ele><time>2012-05-02T23:50:04.0000000+00:00</time></trkpt><trkpt lat="42.948929" lon="19.093372"><ele>1000.4</ele><time>2012-05-02T23:50:09.0000000+00:00</time></trkpt><trkpt lat="42.949245" lon="19.093037"><ele>999.7</ele><time>2012-05-02T23:50:14.0000000+00:00</time></trkpt><trkpt lat="42.949505" lon="19.092962"><ele>998.9</ele><time>2012-05-02T23:50:19.0000000+00:00</time></trkpt><trkpt lat="42.949421" lon="19.093161"><ele>997.9</ele><time>2012-05-02T23:50:24.0000000+00:00</time></trkpt><trkpt lat="42.949184" lon="19.093359"><ele>997.0</ele><time>2012-05-02T23:50:29.0000000+00:00</time></trkpt><trkpt lat="42.949055" lon="19.093697"><ele>993.3</ele><time>2012-05-02T23:50:34.0000000+00:00</time></trkpt><trkpt lat="42.948814" lon="19.094078"><ele>992.1</ele><time>2012-05-02T23:50:39.0000000+00:00</time></trkpt><trkpt lat="42.948444" lon="19.094397"><ele>990.7</ele><time>2012-05-02T23:50:44.0000000+00:00</time></trkpt><trkpt lat="42.948109" lon="19.094864"><ele>987.7</ele><time>2012-05-02T23:50:49.0000000+00:00</time></trkpt><trkpt lat="42.947777" lon="19.095257"><ele>985.5</ele><time>2012-05-02T23:50:54.0000000+00:00</time></trkpt><trkpt lat="42.947678" lon="19.095539"><ele>983.0</ele><time>2012-05-02T23:50:59.0000000+00:00</time></trkpt><trkpt lat="42.947865" lon="19.095451"><ele>978.9</ele><time>2012-05-02T23:51:04.0000000+00:00</time></trkpt><trkpt lat="42.948059" lon="19.095198"><ele>976.9</ele><time>2012-05-02T23:51:09.0000000+00:00</time></trkpt><trkpt lat="42.948357" lon="19.095024"><ele>976.5</ele><time>2012-05-02T23:51:14.0000000+00:00</time></trkpt><trkpt lat="42.948692" lon="19.094866"><ele>974.1</ele><time>2012-05-02T23:51:19.0000000+00:00</time></trkpt><trkpt lat="42.949055" lon="19.09506"><ele>969.8</ele><time>2012-05-02T23:51:24.0000000+00:00</time></trkpt><trkpt lat="42.949345" lon="19.094986"><ele>967.5</ele><time>2012-05-02T23:51:29.0000000+00:00</time></trkpt><trkpt lat="42.949497" lon="19.095041"><ele>967.1</ele><time>2012-05-02T23:51:34.0000000+00:00</time></trkpt><trkpt lat="42.949326" lon="19.095251"><ele>965.5</ele><time>2012-05-02T23:51:39.0000000+00:00</time></trkpt><trkpt lat="42.949039" lon="19.095343"><ele>963.9</ele><time>2012-05-02T23:51:44.0000000+00:00</time></trkpt><trkpt lat="42.948734" lon="19.09535"><ele>962.2</ele><time>2012-05-02T23:51:49.0000000+00:00</time></trkpt><trkpt lat="42.948467" lon="19.095598"><ele>960.3</ele><time>2012-05-02T23:51:54.0000000+00:00</time></trkpt><trkpt lat="42.948193" lon="19.096003"><ele>957.4</ele><time>2012-05-02T23:51:59.0000000+00:00</time></trkpt><trkpt lat="42.947941" lon="19.096493"><ele>955.7</ele><time>2012-05-02T23:52:04.0000000+00:00</time></trkpt><trkpt lat="42.947693" lon="19.097048"><ele>953.9</ele><time>2012-05-02T23:52:09.0000000+00:00</time></trkpt><trkpt lat="42.947475" lon="19.097496"><ele>951.4</ele><time>2012-05-02T23:52:14.0000000+00:00</time></trkpt><trkpt lat="42.947414" lon="19.098127"><ele>946.6</ele><time>2012-05-02T23:52:19.0000000+00:00</time></trkpt><trkpt lat="42.947281" lon="19.0987"><ele>943.8</ele><time>2012-05-02T23:52:24.0000000+00:00</time></trkpt><trkpt lat="42.947277" lon="19.09936"><ele>938.3</ele><time>2012-05-02T23:52:29.0000000+00:00</time></trkpt><trkpt lat="42.94725" lon="19.09981"><ele>936.6</ele><time>2012-05-02T23:52:34.0000000+00:00</time></trkpt><trkpt lat="42.947372" lon="19.099936"><ele>934.3</ele><time>2012-05-02T23:52:39.0000000+00:00</time></trkpt><trkpt lat="42.947403" lon="19.099663"><ele>931.4</ele><time>2012-05-02T23:52:44.0000000+00:00</time></trkpt><trkpt lat="42.94743" lon="19.099308"><ele>928.8</ele><time>2012-05-02T23:52:49.0000000+00:00</time></trkpt><trkpt lat="42.947628" lon="19.09901"><ele>928.9</ele><time>2012-05-02T23:52:54.0000000+00:00</time></trkpt><trkpt lat="42.947918" lon="19.098671"><ele>926.6</ele><time>2012-05-02T23:52:59.0000000+00:00</time></trkpt><trkpt lat="42.948208" lon="19.098251"><ele>924.7</ele><time>2012-05-02T23:53:04.0000000+00:00</time></trkpt><trkpt lat="42.948322" lon="19.097719"><ele>922.0</ele><time>2012-05-02T23:53:09.0000000+00:00</time></trkpt><trkpt lat="42.948597" lon="19.097342"><ele>919.7</ele><time>2012-05-02T23:53:14.0000000+00:00</time></trkpt><trkpt lat="42.949017" lon="19.097168"><ele>918.5</ele><time>2012-05-02T23:53:19.0000000+00:00</time></trkpt><trkpt lat="42.949478" lon="19.097185"><ele>917.1</ele><time>2012-05-02T23:53:24.0000000+00:00</time></trkpt><trkpt lat="42.949936" lon="19.097124"><ele>916.6</ele><time>2012-05-02T23:53:29.0000000+00:00</time></trkpt><trkpt lat="42.950283" lon="19.096947"><ele>921.2</ele><time>2012-05-02T23:53:34.0000000+00:00</time></trkpt><trkpt lat="42.950737" lon="19.096802"><ele>923.2</ele><time>2012-05-02T23:53:39.0000000+00:00</time></trkpt><trkpt lat="42.950932" lon="19.096384"><ele>909.4</ele><time>2012-05-02T23:53:44.0000000+00:00</time></trkpt><trkpt lat="42.951134" lon="19.09602"><ele>905.1</ele><time>2012-05-02T23:53:49.0000000+00:00</time></trkpt><trkpt lat="42.951412" lon="19.095913"><ele>905.1</ele><time>2012-05-02T23:53:54.0000000+00:00</time></trkpt><trkpt lat="42.951721" lon="19.095659"><ele>904.4</ele><time>2012-05-02T23:53:59.0000000+00:00</time></trkpt><trkpt lat="42.952015" lon="19.095236"><ele>902.3</ele><time>2012-05-02T23:54:04.0000000+00:00</time></trkpt><trkpt lat="42.952003" lon="19.094658"><ele>899.2</ele><time>2012-05-02T23:54:09.0000000+00:00</time></trkpt><trkpt lat="42.952" lon="19.09429"><ele>897.5</ele><time>2012-05-02T23:54:14.0000000+00:00</time></trkpt><trkpt lat="42.952175" lon="19.094362"><ele>895.2</ele><time>2012-05-02T23:54:19.0000000+00:00</time></trkpt><trkpt lat="42.952232" lon="19.094763"><ele>892.8</ele><time>2012-05-02T23:54:24.0000000+00:00</time></trkpt><trkpt lat="42.952385" lon="19.09523"><ele>890.2</ele><time>2012-05-02T23:54:29.0000000+00:00</time></trkpt><trkpt lat="42.952412" lon="19.095734"><ele>887.9</ele><time>2012-05-02T23:54:34.0000000+00:00</time></trkpt><trkpt lat="42.952175" lon="19.096157"><ele>884.5</ele><time>2012-05-02T23:54:39.0000000+00:00</time></trkpt><trkpt lat="42.951912" lon="19.096611"><ele>882.6</ele><time>2012-05-02T23:54:44.0000000+00:00</time></trkpt><trkpt lat="42.951721" lon="19.097168"><ele>879.7</ele><time>2012-05-02T23:54:49.0000000+00:00</time></trkpt><trkpt lat="42.95163" lon="19.097809"><ele>876.9</ele><time>2012-05-02T23:54:54.0000000+00:00</time></trkpt><trkpt lat="42.951366" lon="19.09823"><ele>874.2</ele><time>2012-05-02T23:54:59.0000000+00:00</time></trkpt><trkpt lat="42.951042" lon="19.098488"><ele>870.7</ele><time>2012-05-02T23:55:04.0000000+00:00</time></trkpt><trkpt lat="42.950809" lon="19.098871"><ele>868.1</ele><time>2012-05-02T23:55:09.0000000+00:00</time></trkpt><trkpt lat="42.950527" lon="19.099146"><ele>865.6</ele><time>2012-05-02T23:55:14.0000000+00:00</time></trkpt><trkpt lat="42.950191" lon="19.09919"><ele>863.0</ele><time>2012-05-02T23:55:19.0000000+00:00</time></trkpt><trkpt lat="42.949913" lon="19.099363"><ele>860.8</ele><time>2012-05-02T23:55:24.0000000+00:00</time></trkpt><trkpt lat="42.949917" lon="19.099733"><ele>859.0</ele><time>2012-05-02T23:55:29.0000000+00:00</time></trkpt><trkpt lat="42.950245" lon="19.099964"><ele>858.2</ele><time>2012-05-02T23:55:34.0000000+00:00</time></trkpt><trkpt lat="42.950672" lon="19.09989"><ele>857.0</ele><time>2012-05-02T23:55:39.0000000+00:00</time></trkpt><trkpt lat="42.951145" lon="19.099546"><ele>856.6</ele><time>2012-05-02T23:55:44.0000000+00:00</time></trkpt><trkpt lat="42.951679" lon="19.099247"><ele>857.6</ele><time>2012-05-02T23:55:49.0000000+00:00</time></trkpt><trkpt lat="42.952183" lon="19.098925"><ele>860.1</ele><time>2012-05-02T23:55:54.0000000+00:00</time></trkpt><trkpt lat="42.952557" lon="19.098497"><ele>858.7</ele><time>2012-05-02T23:55:59.0000000+00:00</time></trkpt><trkpt lat="42.952965" lon="19.098217"><ele>857.3</ele><time>2012-05-02T23:56:04.0000000+00:00</time></trkpt><trkpt lat="42.953354" lon="19.097954"><ele>857.8</ele><time>2012-05-02T23:56:09.0000000+00:00</time></trkpt><trkpt lat="42.953781" lon="19.098061"><ele>855.1</ele><time>2012-05-02T23:56:14.0000000+00:00</time></trkpt><trkpt lat="42.954243" lon="19.097973"><ele>852.2</ele><time>2012-05-02T23:56:19.0000000+00:00</time></trkpt><trkpt lat="42.954685" lon="19.097769"><ele>850.3</ele><time>2012-05-02T23:56:24.0000000+00:00</time></trkpt><trkpt lat="42.95509" lon="19.097488"><ele>849.3</ele><time>2012-05-02T23:56:29.0000000+00:00</time></trkpt><trkpt lat="42.955482" lon="19.097239"><ele>850.3</ele><time>2012-05-02T23:56:34.0000000+00:00</time></trkpt><trkpt lat="42.955856" lon="19.096905"><ele>848.6</ele><time>2012-05-02T23:56:39.0000000+00:00</time></trkpt><trkpt lat="42.956234" lon="19.096531"><ele>848.6</ele><time>2012-05-02T23:56:44.0000000+00:00</time></trkpt><trkpt lat="42.956619" lon="19.096163"><ele>849.0</ele><time>2012-05-02T23:56:49.0000000+00:00</time></trkpt><trkpt lat="42.957008" lon="19.096121"><ele>849.8</ele><time>2012-05-02T23:56:54.0000000+00:00</time></trkpt><trkpt lat="42.957256" lon="19.09646"><ele>849.7</ele><time>2012-05-02T23:56:59.0000000+00:00</time></trkpt><trkpt lat="42.957466" lon="19.096603"><ele>849.7</ele><time>2012-05-02T23:57:04.0000000+00:00</time></trkpt><trkpt lat="42.95771" lon="19.096378"><ele>850.2</ele><time>2012-05-02T23:57:09.0000000+00:00</time></trkpt><trkpt lat="42.957695" lon="19.095863"><ele>850.1</ele><time>2012-05-02T23:57:14.0000000+00:00</time></trkpt><trkpt lat="42.957687" lon="19.095341"><ele>850.7</ele><time>2012-05-02T23:57:19.0000000+00:00</time></trkpt><trkpt lat="42.957802" lon="19.094988"><ele>850.6</ele><time>2012-05-02T23:57:24.0000000+00:00</time></trkpt><trkpt lat="42.958176" lon="19.094749"><ele>852.3</ele><time>2012-05-02T23:57:29.0000000+00:00</time></trkpt><trkpt lat="42.958588" lon="19.094479"><ele>854.7</ele><time>2012-05-02T23:57:34.0000000+00:00</time></trkpt><trkpt lat="42.958961" lon="19.094185"><ele>857.8</ele><time>2012-05-02T23:57:39.0000000+00:00</time></trkpt><trkpt lat="42.95937" lon="19.093847"><ele>859.5</ele><time>2012-05-02T23:57:44.0000000+00:00</time></trkpt><trkpt lat="42.959827" lon="19.093515"><ele>860.5</ele><time>2012-05-02T23:57:49.0000000+00:00</time></trkpt><trkpt lat="42.960411" lon="19.093332"><ele>861.9</ele><time>2012-05-02T23:57:54.0000000+00:00</time></trkpt><trkpt lat="42.961063" lon="19.093254"><ele>864.1</ele><time>2012-05-02T23:57:59.0000000+00:00</time></trkpt><trkpt lat="42.961697" lon="19.092957"><ele>865.5</ele><time>2012-05-02T23:58:04.0000000+00:00</time></trkpt><trkpt lat="42.962193" lon="19.092337"><ele>867.1</ele><time>2012-05-02T23:58:09.0000000+00:00</time></trkpt><trkpt lat="42.962708" lon="19.09173"><ele>871.4</ele><time>2012-05-02T23:58:14.0000000+00:00</time></trkpt><trkpt lat="42.963352" lon="19.091404"><ele>875.1</ele><time>2012-05-02T23:58:19.0000000+00:00</time></trkpt><trkpt lat="42.963982" lon="19.091059"><ele>880.2</ele><time>2012-05-02T23:58:24.0000000+00:00</time></trkpt><trkpt lat="42.964573" lon="19.09045"><ele>884.8</ele><time>2012-05-02T23:58:29.0000000+00:00</time></trkpt><trkpt lat="42.965202" lon="19.089867"><ele>888.4</ele><time>2012-05-02T23:58:34.0000000+00:00</time></trkpt><trkpt lat="42.965965" lon="19.089621"><ele>893.1</ele><time>2012-05-02T23:58:39.0000000+00:00</time></trkpt><trkpt lat="42.966774" lon="19.089523"><ele>896.0</ele><time>2012-05-02T23:58:44.0000000+00:00</time></trkpt><trkpt lat="42.967567" lon="19.089205"><ele>901.6</ele><time>2012-05-02T23:58:49.0000000+00:00</time></trkpt><trkpt lat="42.9683" lon="19.08861"><ele>905.9</ele><time>2012-05-02T23:58:54.0000000+00:00</time></trkpt><trkpt lat="42.968941" lon="19.087942"><ele>910.1</ele><time>2012-05-02T23:58:59.0000000+00:00</time></trkpt><trkpt lat="42.96957" lon="19.087261"><ele>913.7</ele><time>2012-05-02T23:59:04.0000000+00:00</time></trkpt><trkpt lat="42.970203" lon="19.08658"><ele>918.5</ele><time>2012-05-02T23:59:09.0000000+00:00</time></trkpt><trkpt lat="42.970894" lon="19.086077"><ele>923.6</ele><time>2012-05-02T23:59:14.0000000+00:00</time></trkpt><trkpt lat="42.971672" lon="19.085833"><ele>928.4</ele><time>2012-05-02T23:59:19.0000000+00:00</time></trkpt><trkpt lat="42.97245" lon="19.08559"><ele>933.6</ele><time>2012-05-02T23:59:24.0000000+00:00</time></trkpt><trkpt lat="42.973076" lon="19.085196"><ele>938.1</ele><time>2012-05-02T23:59:29.0000000+00:00</time></trkpt><trkpt lat="42.973709" lon="19.084688"><ele>942.7</ele><time>2012-05-02T23:59:34.0000000+00:00</time></trkpt><trkpt lat="42.974457" lon="19.084232"><ele>949.5</ele><time>2012-05-02T23:59:39.0000000+00:00</time></trkpt><trkpt lat="42.975174" lon="19.083891"><ele>955.1</ele><time>2012-05-02T23:59:44.0000000+00:00</time></trkpt><trkpt lat="42.975834" lon="19.083836"><ele>959.1</ele><time>2012-05-02T23:59:49.0000000+00:00</time></trkpt><trkpt lat="42.976475" lon="19.083864"><ele>962.5</ele><time>2012-05-02T23:59:54.0000000+00:00</time></trkpt><trkpt lat="42.977062" lon="19.083729"><ele>966.0</ele><time>2012-05-02T23:59:59.0000000+00:00</time></trkpt><trkpt lat="42.977722" lon="19.083458"><ele>971.1</ele><time>2012-05-03T00:00:04.0000000+00:00</time></trkpt><trkpt lat="42.978416" lon="19.083166"><ele>976.9</ele><time>2012-05-03T00:00:09.0000000+00:00</time></trkpt><trkpt lat="42.979115" lon="19.082844"><ele>982.1</ele><time>2012-05-03T00:00:14.0000000+00:00</time></trkpt><trkpt lat="42.979656" lon="19.082384"><ele>986.7</ele><time>2012-05-03T00:00:19.0000000+00:00</time></trkpt><trkpt lat="42.980049" lon="19.081696"><ele>992.7</ele><time>2012-05-03T00:00:24.0000000+00:00</time></trkpt><trkpt lat="42.980247" lon="19.080807"><ele>997.2</ele><time>2012-05-03T00:00:29.0000000+00:00</time></trkpt><trkpt lat="42.980202" lon="19.079844"><ele>1000.5</ele><time>2012-05-03T00:00:34.0000000+00:00</time></trkpt><trkpt lat="42.980068" lon="19.078901"><ele>1003.7</ele><time>2012-05-03T00:00:39.0000000+00:00</time></trkpt><trkpt lat="42.979958" lon="19.077929"><ele>1006.3</ele><time>2012-05-03T00:00:44.0000000+00:00</time></trkpt><trkpt lat="42.980038" lon="19.076958"><ele>1010.1</ele><time>2012-05-03T00:00:49.0000000+00:00</time></trkpt><trkpt lat="42.980385" lon="19.076067"><ele>1014.9</ele><time>2012-05-03T00:00:54.0000000+00:00</time></trkpt><trkpt lat="42.980938" lon="19.07542"><ele>1020.7</ele><time>2012-05-03T00:00:59.0000000+00:00</time></trkpt><trkpt lat="42.981609" lon="19.074932"><ele>1026.3</ele><time>2012-05-03T00:01:04.0000000+00:00</time></trkpt><trkpt lat="42.982304" lon="19.07445"><ele>1030.4</ele><time>2012-05-03T00:01:09.0000000+00:00</time></trkpt><trkpt lat="42.98299" lon="19.073969"><ele>1035.3</ele><time>2012-05-03T00:01:14.0000000+00:00</time></trkpt><trkpt lat="42.983688" lon="19.073515"><ele>1039.7</ele><time>2012-05-03T00:01:19.0000000+00:00</time></trkpt><trkpt lat="42.984398" lon="19.073141"><ele>1043.9</ele><time>2012-05-03T00:01:24.0000000+00:00</time></trkpt><trkpt lat="42.985008" lon="19.072792"><ele>1048.0</ele><time>2012-05-03T00:01:29.0000000+00:00</time></trkpt><trkpt lat="42.985558" lon="19.072254"><ele>1051.4</ele><time>2012-05-03T00:01:34.0000000+00:00</time></trkpt><trkpt lat="42.986053" lon="19.071621"><ele>1055.5</ele><time>2012-05-03T00:01:39.0000000+00:00</time></trkpt><trkpt lat="42.986603" lon="19.071159"><ele>1059.6</ele><time>2012-05-03T00:01:44.0000000+00:00</time></trkpt><trkpt lat="42.987278" lon="19.071182"><ele>1064.9</ele><time>2012-05-03T00:01:49.0000000+00:00</time></trkpt><trkpt lat="42.987957" lon="19.071503"><ele>1068.4</ele><time>2012-05-03T00:01:54.0000000+00:00</time></trkpt><trkpt lat="42.988552" lon="19.072058"><ele>1075.5</ele><time>2012-05-03T00:01:59.0000000+00:00</time></trkpt><trkpt lat="42.989029" lon="19.072849"><ele>1081.8</ele><time>2012-05-03T00:02:04.0000000+00:00</time></trkpt><trkpt lat="42.989563" lon="19.073565"><ele>1085.7</ele><time>2012-05-03T00:02:09.0000000+00:00</time></trkpt><trkpt lat="42.990292" lon="19.073839"><ele>1090.6</ele><time>2012-05-03T00:02:14.0000000+00:00</time></trkpt><trkpt lat="42.991108" lon="19.07382"><ele>1093.8</ele><time>2012-05-03T00:02:19.0000000+00:00</time></trkpt><trkpt lat="42.991962" lon="19.07378"><ele>1097.5</ele><time>2012-05-03T00:02:24.0000000+00:00</time></trkpt><trkpt lat="42.992802" lon="19.073841"><ele>1100.8</ele><time>2012-05-03T00:02:29.0000000+00:00</time></trkpt><trkpt lat="42.993546" lon="19.074306"><ele>1108.5</ele><time>2012-05-03T00:02:34.0000000+00:00</time></trkpt><trkpt lat="42.994259" lon="19.074886"><ele>1117.2</ele><time>2012-05-03T00:02:39.0000000+00:00</time></trkpt><trkpt lat="42.995018" lon="19.075195"><ele>1124.2</ele><time>2012-05-03T00:02:44.0000000+00:00</time></trkpt><trkpt lat="42.995785" lon="19.075388"><ele>1130.9</ele><time>2012-05-03T00:02:49.0000000+00:00</time></trkpt><trkpt lat="42.996532" lon="19.075689"><ele>1136.4</ele><time>2012-05-03T00:02:54.0000000+00:00</time></trkpt><trkpt lat="42.997284" lon="19.076057"><ele>1142.8</ele><time>2012-05-03T00:02:59.0000000+00:00</time></trkpt><trkpt lat="42.998055" lon="19.076326"><ele>1148.5</ele><time>2012-05-03T00:03:04.0000000+00:00</time></trkpt><trkpt lat="42.998856" lon="19.076426"><ele>1153.5</ele><time>2012-05-03T00:03:09.0000000+00:00</time></trkpt><trkpt lat="42.999645" lon="19.076473"><ele>1157.3</ele><time>2012-05-03T00:03:14.0000000+00:00</time></trkpt><trkpt lat="43.00042" lon="19.076582"><ele>1161.0</ele><time>2012-05-03T00:03:19.0000000+00:00</time></trkpt><trkpt lat="43.001202" lon="19.076834"><ele>1165.1</ele><time>2012-05-03T00:03:24.0000000+00:00</time></trkpt><trkpt lat="43.002014" lon="19.077148"><ele>1171.2</ele><time>2012-05-03T00:03:29.0000000+00:00</time></trkpt><trkpt lat="43.002853" lon="19.077488"><ele>1176.4</ele><time>2012-05-03T00:03:34.0000000+00:00</time></trkpt><trkpt lat="43.003693" lon="19.077824"><ele>1181.3</ele><time>2012-05-03T00:03:39.0000000+00:00</time></trkpt><trkpt lat="43.004547" lon="19.078075"><ele>1186.2</ele><time>2012-05-03T00:03:44.0000000+00:00</time></trkpt><trkpt lat="43.005421" lon="19.078138"><ele>1190.8</ele><time>2012-05-03T00:03:49.0000000+00:00</time></trkpt><trkpt lat="43.006313" lon="19.078047"><ele>1195.9</ele><time>2012-05-03T00:03:54.0000000+00:00</time></trkpt><trkpt lat="43.007248" lon="19.077936"><ele>1201.5</ele><time>2012-05-03T00:03:59.0000000+00:00</time></trkpt><trkpt lat="43.008186" lon="19.077831"><ele>1209.2</ele><time>2012-05-03T00:04:04.0000000+00:00</time></trkpt><trkpt lat="43.009113" lon="19.077671"><ele>1215.5</ele><time>2012-05-03T00:04:09.0000000+00:00</time></trkpt><trkpt lat="43.009926" lon="19.07724"><ele>1224.1</ele><time>2012-05-03T00:04:14.0000000+00:00</time></trkpt><trkpt lat="43.010586" lon="19.076603"><ele>1230.5</ele><time>2012-05-03T00:04:19.0000000+00:00</time></trkpt><trkpt lat="43.011204" lon="19.076199"><ele>1235.4</ele><time>2012-05-03T00:04:24.0000000+00:00</time></trkpt><trkpt lat="43.011845" lon="19.076231"><ele>1237.4</ele><time>2012-05-03T00:04:29.0000000+00:00</time></trkpt><trkpt lat="43.012444" lon="19.076773"><ele>1240.8</ele><time>2012-05-03T00:04:34.0000000+00:00</time></trkpt><trkpt lat="43.012856" lon="19.077793"><ele>1244.9</ele><time>2012-05-03T00:04:39.0000000+00:00</time></trkpt><trkpt lat="43.013165" lon="19.078897"><ele>1247.5</ele><time>2012-05-03T00:04:44.0000000+00:00</time></trkpt><trkpt lat="43.013302" lon="19.080111"><ele>1253.9</ele><time>2012-05-03T00:04:49.0000000+00:00</time></trkpt><trkpt lat="43.013355" lon="19.081388"><ele>1258.3</ele><time>2012-05-03T00:04:54.0000000+00:00</time></trkpt><trkpt lat="43.013485" lon="19.082493"><ele>1261.6</ele><time>2012-05-03T00:04:59.0000000+00:00</time></trkpt><trkpt lat="43.013966" lon="19.083298"><ele>1263.5</ele><time>2012-05-03T00:05:04.0000000+00:00</time></trkpt><trkpt lat="43.014767" lon="19.083614"><ele>1264.9</ele><time>2012-05-03T00:05:09.0000000+00:00</time></trkpt><trkpt lat="43.015648" lon="19.083538"><ele>1268.4</ele><time>2012-05-03T00:05:14.0000000+00:00</time></trkpt><trkpt lat="43.016468" lon="19.08363"><ele>1271.6</ele><time>2012-05-03T00:05:19.0000000+00:00</time></trkpt><trkpt lat="43.017227" lon="19.083925"><ele>1275.0</ele><time>2012-05-03T00:05:24.0000000+00:00</time></trkpt><trkpt lat="43.01807" lon="19.084574"><ele>1279.1</ele><time>2012-05-03T00:05:30.0000000+00:00</time></trkpt><trkpt lat="43.018738" lon="19.085365"><ele>1282.1</ele><time>2012-05-03T00:05:35.0000000+00:00</time></trkpt><trkpt lat="43.019562" lon="19.085854"><ele>1285.9</ele><time>2012-05-03T00:05:40.0000000+00:00</time></trkpt><trkpt lat="43.020424" lon="19.086365"><ele>1290.0</ele><time>2012-05-03T00:05:45.0000000+00:00</time></trkpt><trkpt lat="43.021355" lon="19.086901"><ele>1295.5</ele><time>2012-05-03T00:05:50.0000000+00:00</time></trkpt><trkpt lat="43.022335" lon="19.087461"><ele>1301.5</ele><time>2012-05-03T00:05:55.0000000+00:00</time></trkpt><trkpt lat="43.023335" lon="19.088032"><ele>1307.1</ele><time>2012-05-03T00:06:00.0000000+00:00</time></trkpt><trkpt lat="43.024342" lon="19.088604"><ele>1312.3</ele><time>2012-05-03T00:06:05.0000000+00:00</time></trkpt><trkpt lat="43.025276" lon="19.089142"><ele>1316.1</ele><time>2012-05-03T00:06:10.0000000+00:00</time></trkpt><trkpt lat="43.026199" lon="19.089663"><ele>1318.7</ele><time>2012-05-03T00:06:15.0000000+00:00</time></trkpt><trkpt lat="43.027138" lon="19.090036"><ele>1321.0</ele><time>2012-05-03T00:06:20.0000000+00:00</time></trkpt><trkpt lat="43.028111" lon="19.090048"><ele>1324.5</ele><time>2012-05-03T00:06:25.0000000+00:00</time></trkpt><trkpt lat="43.029003" lon="19.089748"><ele>1327.7</ele><time>2012-05-03T00:06:30.0000000+00:00</time></trkpt><trkpt lat="43.029785" lon="19.089119"><ele>1331.3</ele><time>2012-05-03T00:06:35.0000000+00:00</time></trkpt><trkpt lat="43.03043" lon="19.088253"><ele>1335.8</ele><time>2012-05-03T00:06:40.0000000+00:00</time></trkpt><trkpt lat="43.030968" lon="19.087278"><ele>1341.3</ele><time>2012-05-03T00:06:45.0000000+00:00</time></trkpt><trkpt lat="43.03149" lon="19.086309"><ele>1347.6</ele><time>2012-05-03T00:06:50.0000000+00:00</time></trkpt><trkpt lat="43.03207" lon="19.08543"><ele>1353.8</ele><time>2012-05-03T00:06:55.0000000+00:00</time></trkpt><trkpt lat="43.032749" lon="19.084669"><ele>1359.5</ele><time>2012-05-03T00:07:00.0000000+00:00</time></trkpt><trkpt lat="43.033451" lon="19.083971"><ele>1364.2</ele><time>2012-05-03T00:07:05.0000000+00:00</time></trkpt><trkpt lat="43.034138" lon="19.083307"><ele>1367.8</ele><time>2012-05-03T00:07:10.0000000+00:00</time></trkpt><trkpt lat="43.034843" lon="19.082676"><ele>1373.1</ele><time>2012-05-03T00:07:15.0000000+00:00</time></trkpt><trkpt lat="43.035618" lon="19.082129"><ele>1378.7</ele><time>2012-05-03T00:07:20.0000000+00:00</time></trkpt><trkpt lat="43.036472" lon="19.081688"><ele>1385.2</ele><time>2012-05-03T00:07:25.0000000+00:00</time></trkpt><trkpt lat="43.037376" lon="19.081354"><ele>1392.7</ele><time>2012-05-03T00:07:30.0000000+00:00</time></trkpt><trkpt lat="43.038288" lon="19.08103"><ele>1401.0</ele><time>2012-05-03T00:07:35.0000000+00:00</time></trkpt><trkpt lat="43.039188" lon="19.080711"><ele>1409.4</ele><time>2012-05-03T00:07:40.0000000+00:00</time></trkpt><trkpt lat="43.040066" lon="19.080301"><ele>1412.9</ele><time>2012-05-03T00:07:45.0000000+00:00</time></trkpt><trkpt lat="43.040897" lon="19.079861"><ele>1417.5</ele><time>2012-05-03T00:07:50.0000000+00:00</time></trkpt><trkpt lat="43.04174" lon="19.079515"><ele>1422.7</ele><time>2012-05-03T00:07:55.0000000+00:00</time></trkpt><trkpt lat="43.042561" lon="19.079359"><ele>1428.4</ele><time>2012-05-03T00:08:00.0000000+00:00</time></trkpt><trkpt lat="43.043304" lon="19.079393"><ele>1431.7</ele><time>2012-05-03T00:08:05.0000000+00:00</time></trkpt><trkpt lat="43.044079" lon="19.079657"><ele>1431.9</ele><time>2012-05-03T00:08:10.0000000+00:00</time></trkpt><trkpt lat="43.044907" lon="19.079939"><ele>1431.7</ele><time>2012-05-03T00:08:15.0000000+00:00</time></trkpt><trkpt lat="43.05545" lon="19.101355"><ele>1443.3</ele><time>2012-05-03T00:09:45.0000000+00:00</time></trkpt><trkpt lat="43.056091" lon="19.102453"><ele>1461.4</ele><time>2012-05-03T00:09:50.0000000+00:00</time></trkpt><trkpt lat="43.056889" lon="19.103041"><ele>1461.4</ele><time>2012-05-03T00:09:55.0000000+00:00</time></trkpt><trkpt lat="43.057758" lon="19.103504"><ele>1457.7</ele><time>2012-05-03T00:10:00.0000000+00:00</time></trkpt><trkpt lat="43.058514" lon="19.104118"><ele>1453.9</ele><time>2012-05-03T00:10:05.0000000+00:00</time></trkpt><trkpt lat="43.05904" lon="19.10523"><ele>1452.5</ele><time>2012-05-03T00:10:10.0000000+00:00</time></trkpt><trkpt lat="43.059608" lon="19.106304"><ele>1449.6</ele><time>2012-05-03T00:10:15.0000000+00:00</time></trkpt><trkpt lat="43.06041" lon="19.10701"><ele>1447.3</ele><time>2012-05-03T00:10:20.0000000+00:00</time></trkpt><trkpt lat="43.061329" lon="19.107239"><ele>1444.4</ele><time>2012-05-03T00:10:25.0000000+00:00</time></trkpt><trkpt lat="43.062229" lon="19.107355"><ele>1443.1</ele><time>2012-05-03T00:10:30.0000000+00:00</time></trkpt><trkpt lat="43.063061" lon="19.107702"><ele>1442.5</ele><time>2012-05-03T00:10:35.0000000+00:00</time></trkpt><trkpt lat="43.063877" lon="19.108139"><ele>1441.6</ele><time>2012-05-03T00:10:40.0000000+00:00</time></trkpt><trkpt lat="43.064686" lon="19.108221"><ele>1439.1</ele><time>2012-05-03T00:10:45.0000000+00:00</time></trkpt><trkpt lat="43.065506" lon="19.107853"><ele>1439.1</ele><time>2012-05-03T00:10:50.0000000+00:00</time></trkpt><trkpt lat="43.066372" lon="19.107336"><ele>1439.3</ele><time>2012-05-03T00:10:55.0000000+00:00</time></trkpt><trkpt lat="43.067234" lon="19.10681"><ele>1440.6</ele><time>2012-05-03T00:11:00.0000000+00:00</time></trkpt><trkpt lat="43.068024" lon="19.10631"><ele>1441.1</ele><time>2012-05-03T00:11:05.0000000+00:00</time></trkpt><trkpt lat="43.068615" lon="19.105631"><ele>1441.6</ele><time>2012-05-03T00:11:10.0000000+00:00</time></trkpt><trkpt lat="43.069111" lon="19.104731"><ele>1442.5</ele><time>2012-05-03T00:11:15.0000000+00:00</time></trkpt><trkpt lat="43.069725" lon="19.103937"><ele>1445.4</ele><time>2012-05-03T00:11:20.0000000+00:00</time></trkpt><trkpt lat="43.070503" lon="19.10343"><ele>1450.0</ele><time>2012-05-03T00:11:25.0000000+00:00</time></trkpt><trkpt lat="43.071331" lon="19.103031"><ele>1456.6</ele><time>2012-05-03T00:11:30.0000000+00:00</time></trkpt><trkpt lat="43.072151" lon="19.102644"><ele>1463.2</ele><time>2012-05-03T00:11:35.0000000+00:00</time></trkpt><trkpt lat="43.072971" lon="19.102238"><ele>1469.5</ele><time>2012-05-03T00:11:40.0000000+00:00</time></trkpt><trkpt lat="43.073708" lon="19.101654"><ele>1475.3</ele><time>2012-05-03T00:11:45.0000000+00:00</time></trkpt><trkpt lat="43.074394" lon="19.10095"><ele>1481.6</ele><time>2012-05-03T00:11:50.0000000+00:00</time></trkpt><trkpt lat="43.075142" lon="19.100418"><ele>1487.3</ele><time>2012-05-03T00:11:55.0000000+00:00</time></trkpt><trkpt lat="43.075996" lon="19.100437"><ele>1494.1</ele><time>2012-05-03T00:12:00.0000000+00:00</time></trkpt><trkpt lat="43.076729" lon="19.101082"><ele>1500.9</ele><time>2012-05-03T00:12:05.0000000+00:00</time></trkpt><trkpt lat="43.077206" lon="19.102148"><ele>1506.1</ele><time>2012-05-03T00:12:10.0000000+00:00</time></trkpt><trkpt lat="43.077621" lon="19.103281"><ele>1513.0</ele><time>2012-05-03T00:12:15.0000000+00:00</time></trkpt><trkpt lat="43.078056" lon="19.104296"><ele>1519.7</ele><time>2012-05-03T00:12:20.0000000+00:00</time></trkpt><trkpt lat="43.078732" lon="19.104933"><ele>1522.4</ele><time>2012-05-03T00:12:25.0000000+00:00</time></trkpt><trkpt lat="43.079556" lon="19.105001"><ele>1520.5</ele><time>2012-05-03T00:12:30.0000000+00:00</time></trkpt><trkpt lat="43.080345" lon="19.104507"><ele>1519.5</ele><time>2012-05-03T00:12:35.0000000+00:00</time></trkpt><trkpt lat="43.081059" lon="19.103762"><ele>1517.4</ele><time>2012-05-03T00:12:40.0000000+00:00</time></trkpt><trkpt lat="43.081757" lon="19.103186"><ele>1515.9</ele><time>2012-05-03T00:12:45.0000000+00:00</time></trkpt><trkpt lat="43.082481" lon="19.102942"><ele>1515.8</ele><time>2012-05-03T00:12:50.0000000+00:00</time></trkpt><trkpt lat="43.083221" lon="19.103058"><ele>1514.4</ele><time>2012-05-03T00:12:55.0000000+00:00</time></trkpt><trkpt lat="43.083981" lon="19.10347"><ele>1514.0</ele><time>2012-05-03T00:13:00.0000000+00:00</time></trkpt><trkpt lat="43.084782" lon="19.103857"><ele>1514.7</ele><time>2012-05-03T00:13:05.0000000+00:00</time></trkpt><trkpt lat="43.085625" lon="19.103941"><ele>1516.0</ele><time>2012-05-03T00:13:10.0000000+00:00</time></trkpt><trkpt lat="43.086475" lon="19.104017"><ele>1516.7</ele><time>2012-05-03T00:13:15.0000000+00:00</time></trkpt><trkpt lat="43.087261" lon="19.104385"><ele>1518.2</ele><time>2012-05-03T00:13:20.0000000+00:00</time></trkpt><trkpt lat="43.088005" lon="19.104994"><ele>1519.4</ele><time>2012-05-03T00:13:25.0000000+00:00</time></trkpt><trkpt lat="43.088818" lon="19.105204"><ele>1519.9</ele><time>2012-05-03T00:13:30.0000000+00:00</time></trkpt><trkpt lat="43.089718" lon="19.105099"><ele>1519.0</ele><time>2012-05-03T00:13:35.0000000+00:00</time></trkpt><trkpt lat="43.090603" lon="19.105026"><ele>1518.7</ele><time>2012-05-03T00:13:40.0000000+00:00</time></trkpt><trkpt lat="43.091442" lon="19.105207"><ele>1518.2</ele><time>2012-05-03T00:13:45.0000000+00:00</time></trkpt><trkpt lat="43.092186" lon="19.10577"><ele>1518.3</ele><time>2012-05-03T00:13:50.0000000+00:00</time></trkpt><trkpt lat="43.09277" lon="19.106659"><ele>1518.5</ele><time>2012-05-03T00:13:55.0000000+00:00</time></trkpt><trkpt lat="43.093254" lon="19.107754"><ele>1520.9</ele><time>2012-05-03T00:14:00.0000000+00:00</time></trkpt><trkpt lat="43.093765" lon="19.108803"><ele>1524.0</ele><time>2012-05-03T00:14:05.0000000+00:00</time></trkpt><trkpt lat="43.09444" lon="19.109623"><ele>1527.0</ele><time>2012-05-03T00:14:10.0000000+00:00</time></trkpt><trkpt lat="43.095287" lon="19.110119"><ele>1529.4</ele><time>2012-05-03T00:14:15.0000000+00:00</time></trkpt><trkpt lat="43.096237" lon="19.110308"><ele>1531.7</ele><time>2012-05-03T00:14:20.0000000+00:00</time></trkpt><trkpt lat="43.097218" lon="19.110388"><ele>1533.9</ele><time>2012-05-03T00:14:25.0000000+00:00</time></trkpt><trkpt lat="43.098114" lon="19.110468"><ele>1533.9</ele><time>2012-05-03T00:14:30.0000000+00:00</time></trkpt><trkpt lat="43.098949" lon="19.11063"><ele>1532.2</ele><time>2012-05-03T00:14:35.0000000+00:00</time></trkpt><trkpt lat="43.099712" lon="19.111189"><ele>1529.8</ele><time>2012-05-03T00:14:40.0000000+00:00</time></trkpt><trkpt lat="43.100315" lon="19.112141"><ele>1526.7</ele><time>2012-05-03T00:14:45.0000000+00:00</time></trkpt><trkpt lat="43.100887" lon="19.113192"><ele>1523.8</ele><time>2012-05-03T00:14:50.0000000+00:00</time></trkpt><trkpt lat="43.10146" lon="19.11426"><ele>1521.0</ele><time>2012-05-03T00:14:55.0000000+00:00</time></trkpt><trkpt lat="43.102043" lon="19.115351"><ele>1516.5</ele><time>2012-05-03T00:15:00.0000000+00:00</time></trkpt><trkpt lat="43.102654" lon="19.11644"><ele>1511.0</ele><time>2012-05-03T00:15:05.0000000+00:00</time></trkpt><trkpt lat="43.103394" lon="19.117373"><ele>1506.1</ele><time>2012-05-03T00:15:10.0000000+00:00</time></trkpt><trkpt lat="43.104259" lon="19.118019"><ele>1504.1</ele><time>2012-05-03T00:15:15.0000000+00:00</time></trkpt><trkpt lat="43.105152" lon="19.118559"><ele>1503.0</ele><time>2012-05-03T00:15:20.0000000+00:00</time></trkpt><trkpt lat="43.10606" lon="19.119118"><ele>1502.0</ele><time>2012-05-03T00:15:25.0000000+00:00</time></trkpt><trkpt lat="43.106964" lon="19.119671"><ele>1499.2</ele><time>2012-05-03T00:15:30.0000000+00:00</time></trkpt><trkpt lat="43.107895" lon="19.120232"><ele>1494.1</ele><time>2012-05-03T00:15:35.0000000+00:00</time></trkpt><trkpt lat="43.108849" lon="19.120827"><ele>1488.6</ele><time>2012-05-03T00:15:40.0000000+00:00</time></trkpt><trkpt lat="43.109806" lon="19.12141"><ele>1485.2</ele><time>2012-05-03T00:15:45.0000000+00:00</time></trkpt><trkpt lat="43.110756" lon="19.121902"><ele>1483.5</ele><time>2012-05-03T00:15:50.0000000+00:00</time></trkpt><trkpt lat="43.111771" lon="19.122164"><ele>1481.6</ele><time>2012-05-03T00:15:55.0000000+00:00</time></trkpt><trkpt lat="43.112835" lon="19.1222"><ele>1477.8</ele><time>2012-05-03T00:16:00.0000000+00:00</time></trkpt><trkpt lat="43.113911" lon="19.122183"><ele>1474.0</ele><time>2012-05-03T00:16:05.0000000+00:00</time></trkpt><trkpt lat="43.114983" lon="19.122152"><ele>1472.3</ele><time>2012-05-03T00:16:10.0000000+00:00</time></trkpt><trkpt lat="43.116016" lon="19.122141"><ele>1471.4</ele><time>2012-05-03T00:16:15.0000000+00:00</time></trkpt><trkpt lat="43.117062" lon="19.12212"><ele>1471.0</ele><time>2012-05-03T00:16:20.0000000+00:00</time></trkpt><trkpt lat="43.118076" lon="19.122246"><ele>1469.6</ele><time>2012-05-03T00:16:25.0000000+00:00</time></trkpt><trkpt lat="43.119026" lon="19.122715"><ele>1467.2</ele><time>2012-05-03T00:16:30.0000000+00:00</time></trkpt><trkpt lat="43.119907" lon="19.123552"><ele>1465.8</ele><time>2012-05-03T00:16:35.0000000+00:00</time></trkpt><trkpt lat="43.120766" lon="19.124405"><ele>1465.2</ele><time>2012-05-03T00:16:40.0000000+00:00</time></trkpt><trkpt lat="43.121723" lon="19.124844"><ele>1464.8</ele><time>2012-05-03T00:16:45.0000000+00:00</time></trkpt><trkpt lat="43.122746" lon="19.124813"><ele>1464.6</ele><time>2012-05-03T00:16:50.0000000+00:00</time></trkpt><trkpt lat="43.123798" lon="19.124645"><ele>1464.5</ele><time>2012-05-03T00:16:55.0000000+00:00</time></trkpt><trkpt lat="43.124825" lon="19.12455"><ele>1463.1</ele><time>2012-05-03T00:17:00.0000000+00:00</time></trkpt><trkpt lat="43.125786" lon="19.124834"><ele>1462.7</ele><time>2012-05-03T00:17:05.0000000+00:00</time></trkpt><trkpt lat="43.126789" lon="19.125263"><ele>1461.8</ele><time>2012-05-03T00:17:10.0000000+00:00</time></trkpt><trkpt lat="43.127766" lon="19.125668"><ele>1460.5</ele><time>2012-05-03T00:17:15.0000000+00:00</time></trkpt><trkpt lat="43.128723" lon="19.125805"><ele>1457.8</ele><time>2012-05-03T00:17:20.0000000+00:00</time></trkpt><trkpt lat="43.129616" lon="19.125523"><ele>1455.6</ele><time>2012-05-03T00:17:25.0000000+00:00</time></trkpt><trkpt lat="43.130386" lon="19.124975"><ele>1456.3</ele><time>2012-05-03T00:17:30.0000000+00:00</time></trkpt><trkpt lat="43.131134" lon="19.124407"><ele>1458.2</ele><time>2012-05-03T00:17:35.0000000+00:00</time></trkpt><trkpt lat="43.131897" lon="19.123997"><ele>1461.5</ele><time>2012-05-03T00:17:40.0000000+00:00</time></trkpt><trkpt lat="43.132713" lon="19.123692"><ele>1463.6</ele><time>2012-05-03T00:17:45.0000000+00:00</time></trkpt><trkpt lat="43.133568" lon="19.123379"><ele>1464.4</ele><time>2012-05-03T00:17:50.0000000+00:00</time></trkpt><trkpt lat="43.134491" lon="19.123035"><ele>1465.4</ele><time>2012-05-03T00:17:55.0000000+00:00</time></trkpt><trkpt lat="43.135475" lon="19.122671"><ele>1467.3</ele><time>2012-05-03T00:18:00.0000000+00:00</time></trkpt><trkpt lat="43.136475" lon="19.122293"><ele>1470.9</ele><time>2012-05-03T00:18:05.0000000+00:00</time></trkpt><trkpt lat="43.137493" lon="19.121914"><ele>1475.2</ele><time>2012-05-03T00:18:10.0000000+00:00</time></trkpt><trkpt lat="43.138515" lon="19.121634"><ele>1478.9</ele><time>2012-05-03T00:18:15.0000000+00:00</time></trkpt><trkpt lat="43.139545" lon="19.121445"><ele>1483.5</ele><time>2012-05-03T00:18:20.0000000+00:00</time></trkpt><trkpt lat="43.140545" lon="19.121267"><ele>1489.7</ele><time>2012-05-03T00:18:25.0000000+00:00</time></trkpt><trkpt lat="43.141438" lon="19.121155"><ele>1492.9</ele><time>2012-05-03T00:18:30.0000000+00:00</time></trkpt><trkpt lat="43.142216" lon="19.12118"><ele>1490.7</ele><time>2012-05-03T00:18:35.0000000+00:00</time></trkpt><trkpt lat="43.143005" lon="19.121307"><ele>1487.5</ele><time>2012-05-03T00:18:40.0000000+00:00</time></trkpt><trkpt lat="43.14381" lon="19.121546"><ele>1484.3</ele><time>2012-05-03T00:18:45.0000000+00:00</time></trkpt><trkpt lat="43.144642" lon="19.121817"><ele>1481.9</ele><time>2012-05-03T00:18:50.0000000+00:00</time></trkpt><trkpt lat="43.145485" lon="19.122091"><ele>1479.3</ele><time>2012-05-03T00:18:55.0000000+00:00</time></trkpt><trkpt lat="43.146336" lon="19.122353"><ele>1478.0</ele><time>2012-05-03T00:19:00.0000000+00:00</time></trkpt><trkpt lat="43.147106" lon="19.122757"><ele>1478.0</ele><time>2012-05-03T00:19:05.0000000+00:00</time></trkpt><trkpt lat="43.147736" lon="19.123381"><ele>1477.3</ele><time>2012-05-03T00:19:10.0000000+00:00</time></trkpt><trkpt lat="43.148335" lon="19.124025"><ele>1474.1</ele><time>2012-05-03T00:19:15.0000000+00:00</time></trkpt><trkpt lat="43.148941" lon="19.124708"><ele>1470.0</ele><time>2012-05-03T00:19:20.0000000+00:00</time></trkpt><trkpt lat="43.149597" lon="19.125298"><ele>1467.9</ele><time>2012-05-03T00:19:25.0000000+00:00</time></trkpt><trkpt lat="43.15015" lon="19.125961"><ele>1462.4</ele><time>2012-05-03T00:19:30.0000000+00:00</time></trkpt><trkpt lat="43.15052" lon="19.126501"><ele>1460.4</ele><time>2012-05-03T00:19:35.0000000+00:00</time></trkpt><trkpt lat="43.15078" lon="19.126986"><ele>1458.2</ele><time>2012-05-03T00:19:40.0000000+00:00</time></trkpt><trkpt lat="43.151031" lon="19.127579"><ele>1455.1</ele><time>2012-05-03T00:19:45.0000000+00:00</time></trkpt><trkpt lat="43.151352" lon="19.128319"><ele>1451.2</ele><time>2012-05-03T00:19:50.0000000+00:00</time></trkpt><trkpt lat="43.151711" lon="19.129122"><ele>1447.9</ele><time>2012-05-03T00:19:55.0000000+00:00</time></trkpt><trkpt lat="43.152016" lon="19.12978"><ele>1446.1</ele><time>2012-05-03T00:20:00.0000000+00:00</time></trkpt><trkpt lat="43.152298" lon="19.130306"><ele>1445.4</ele><time>2012-05-03T00:20:05.0000000+00:00</time></trkpt><trkpt lat="43.152691" lon="19.130768"><ele>1445.1</ele><time>2012-05-03T00:20:10.0000000+00:00</time></trkpt><trkpt lat="43.153206" lon="19.131092"><ele>1444.8</ele><time>2012-05-03T00:20:15.0000000+00:00</time></trkpt><trkpt lat="43.153828" lon="19.131237"><ele>1444.0</ele><time>2012-05-03T00:20:20.0000000+00:00</time></trkpt><trkpt lat="43.154476" lon="19.131248"><ele>1441.2</ele><time>2012-05-03T00:20:25.0000000+00:00</time></trkpt><trkpt lat="43.155128" lon="19.131327"><ele>1438.8</ele><time>2012-05-03T00:20:30.0000000+00:00</time></trkpt><trkpt lat="43.155708" lon="19.131744"><ele>1436.0</ele><time>2012-05-03T00:20:35.0000000+00:00</time></trkpt><trkpt lat="43.156216" lon="19.132345"><ele>1432.7</ele><time>2012-05-03T00:20:40.0000000+00:00</time></trkpt><trkpt lat="43.156746" lon="19.132963"><ele>1429.7</ele><time>2012-05-03T00:20:45.0000000+00:00</time></trkpt><trkpt lat="43.157272" lon="19.133572"><ele>1427.6</ele><time>2012-05-03T00:20:50.0000000+00:00</time></trkpt><trkpt lat="43.157776" lon="19.134169"><ele>1426.2</ele><time>2012-05-03T00:20:55.0000000+00:00</time></trkpt><trkpt lat="43.158325" lon="19.134638"><ele>1424.3</ele><time>2012-05-03T00:21:00.0000000+00:00</time></trkpt><trkpt lat="43.15892" lon="19.135027"><ele>1422.6</ele><time>2012-05-03T00:21:05.0000000+00:00</time></trkpt><trkpt lat="43.159515" lon="19.135399"><ele>1421.1</ele><time>2012-05-03T00:21:10.0000000+00:00</time></trkpt><trkpt lat="43.160107" lon="19.135675"><ele>1418.8</ele><time>2012-05-03T00:21:15.0000000+00:00</time></trkpt><trkpt lat="43.160568" lon="19.135702"><ele>1417.8</ele><time>2012-05-03T00:21:20.0000000+00:00</time></trkpt><trkpt lat="43.160778" lon="19.135775"><ele>1418.0</ele><time>2012-05-03T00:21:25.0000000+00:00</time></trkpt><trkpt lat="43.16098" lon="19.136229"><ele>1417.6</ele><time>2012-05-03T00:21:30.0000000+00:00</time></trkpt><trkpt lat="43.161335" lon="19.136778"><ele>1417.2</ele><time>2012-05-03T00:21:35.0000000+00:00</time></trkpt><trkpt lat="43.161762" lon="19.137228"><ele>1417.2</ele><time>2012-05-03T00:21:40.0000000+00:00</time></trkpt><trkpt lat="43.162174" lon="19.137711"><ele>1416.5</ele><time>2012-05-03T00:21:45.0000000+00:00</time></trkpt><trkpt lat="43.16254" lon="19.1383"><ele>1414.9</ele><time>2012-05-03T00:21:50.0000000+00:00</time></trkpt><trkpt lat="43.162846" lon="19.139015"><ele>1412.6</ele><time>2012-05-03T00:21:55.0000000+00:00</time></trkpt><trkpt lat="43.163052" lon="19.139851"><ele>1409.0</ele><time>2012-05-03T00:22:00.0000000+00:00</time></trkpt><trkpt lat="43.163124" lon="19.140751"><ele>1404.3</ele><time>2012-05-03T00:22:05.0000000+00:00</time></trkpt><trkpt lat="43.16309" lon="19.141729"><ele>1399.5</ele><time>2012-05-03T00:22:10.0000000+00:00</time></trkpt><trkpt lat="43.163071" lon="19.142759"><ele>1394.3</ele><time>2012-05-03T00:22:15.0000000+00:00</time></trkpt><trkpt lat="43.163136" lon="19.143835"><ele>1389.5</ele><time>2012-05-03T00:22:20.0000000+00:00</time></trkpt><trkpt lat="43.163284" lon="19.144928"><ele>1385.3</ele><time>2012-05-03T00:22:25.0000000+00:00</time></trkpt><trkpt lat="43.163467" lon="19.145994"><ele>1382.3</ele><time>2012-05-03T00:22:30.0000000+00:00</time></trkpt><trkpt lat="43.163643" lon="19.147053"><ele>1378.4</ele><time>2012-05-03T00:22:35.0000000+00:00</time></trkpt><trkpt lat="43.163822" lon="19.148113"><ele>1375.4</ele><time>2012-05-03T00:22:40.0000000+00:00</time></trkpt><trkpt lat="43.16396" lon="19.149168"><ele>1373.6</ele><time>2012-05-03T00:22:45.0000000+00:00</time></trkpt><trkpt lat="43.164032" lon="19.150269"><ele>1371.1</ele><time>2012-05-03T00:22:50.0000000+00:00</time></trkpt><trkpt lat="43.163986" lon="19.151335"><ele>1367.8</ele><time>2012-05-03T00:22:55.0000000+00:00</time></trkpt><trkpt lat="43.163925" lon="19.152411"><ele>1364.2</ele><time>2012-05-03T00:23:00.0000000+00:00</time></trkpt><trkpt lat="43.16386" lon="19.153463"><ele>1362.0</ele><time>2012-05-03T00:23:05.0000000+00:00</time></trkpt><trkpt lat="43.163807" lon="19.15448"><ele>1360.3</ele><time>2012-05-03T00:23:10.0000000+00:00</time></trkpt><trkpt lat="43.163799" lon="19.155451"><ele>1358.5</ele><time>2012-05-03T00:23:15.0000000+00:00</time></trkpt><trkpt lat="43.163933" lon="19.156418"><ele>1356.1</ele><time>2012-05-03T00:23:20.0000000+00:00</time></trkpt><trkpt lat="43.164135" lon="19.157475"><ele>1354.1</ele><time>2012-05-03T00:23:25.0000000+00:00</time></trkpt><trkpt lat="43.164349" lon="19.158598"><ele>1352.7</ele><time>2012-05-03T00:23:30.0000000+00:00</time></trkpt><trkpt lat="43.164516" lon="19.159754"><ele>1351.6</ele><time>2012-05-03T00:23:35.0000000+00:00</time></trkpt><trkpt lat="43.1646" lon="19.160915"><ele>1350.3</ele><time>2012-05-03T00:23:40.0000000+00:00</time></trkpt><trkpt lat="43.164669" lon="19.162029"><ele>1349.2</ele><time>2012-05-03T00:23:45.0000000+00:00</time></trkpt><trkpt lat="43.16473" lon="19.163116"><ele>1347.5</ele><time>2012-05-03T00:23:50.0000000+00:00</time></trkpt><trkpt lat="43.164822" lon="19.164223"><ele>1345.9</ele><time>2012-05-03T00:23:55.0000000+00:00</time></trkpt><trkpt lat="43.164955" lon="19.165329"><ele>1345.0</ele><time>2012-05-03T00:24:00.0000000+00:00</time></trkpt><trkpt lat="43.165096" lon="19.166399"><ele>1343.5</ele><time>2012-05-03T00:24:05.0000000+00:00</time></trkpt><trkpt lat="43.165199" lon="19.167431"><ele>1340.5</ele><time>2012-05-03T00:24:10.0000000+00:00</time></trkpt><trkpt lat="43.165165" lon="19.168457"><ele>1337.6</ele><time>2012-05-03T00:24:15.0000000+00:00</time></trkpt><trkpt lat="43.165092" lon="19.169466"><ele>1335.7</ele><time>2012-05-03T00:24:20.0000000+00:00</time></trkpt><trkpt lat="43.165024" lon="19.170444"><ele>1335.1</ele><time>2012-05-03T00:24:25.0000000+00:00</time></trkpt><trkpt lat="43.16494" lon="19.171425"><ele>1331.9</ele><time>2012-05-03T00:24:30.0000000+00:00</time></trkpt><trkpt lat="43.164837" lon="19.172419"><ele>1328.2</ele><time>2012-05-03T00:24:35.0000000+00:00</time></trkpt><trkpt lat="43.164726" lon="19.17342"><ele>1326.0</ele><time>2012-05-03T00:24:40.0000000+00:00</time></trkpt><trkpt lat="43.164642" lon="19.174473"><ele>1328.2</ele><time>2012-05-03T00:24:45.0000000+00:00</time></trkpt><trkpt lat="43.164646" lon="19.175476"><ele>1329.2</ele><time>2012-05-03T00:24:50.0000000+00:00</time></trkpt><trkpt lat="43.164753" lon="19.176462"><ele>1326.5</ele><time>2012-05-03T00:24:55.0000000+00:00</time></trkpt><trkpt lat="43.164898" lon="19.177469"><ele>1323.3</ele><time>2012-05-03T00:25:00.0000000+00:00</time></trkpt><trkpt lat="43.165051" lon="19.178495"><ele>1320.7</ele><time>2012-05-03T00:25:05.0000000+00:00</time></trkpt><trkpt lat="43.165203" lon="19.179525"><ele>1318.5</ele><time>2012-05-03T00:25:10.0000000+00:00</time></trkpt><trkpt lat="43.165352" lon="19.18055"><ele>1317.1</ele><time>2012-05-03T00:25:15.0000000+00:00</time></trkpt><trkpt lat="43.165508" lon="19.181549"><ele>1316.2</ele><time>2012-05-03T00:25:20.0000000+00:00</time></trkpt><trkpt lat="43.165623" lon="19.182508"><ele>1315.0</ele><time>2012-05-03T00:25:25.0000000+00:00</time></trkpt><trkpt lat="43.165474" lon="19.183407"><ele>1315.6</ele><time>2012-05-03T00:25:30.0000000+00:00</time></trkpt><trkpt lat="43.16515" lon="19.184198"><ele>1317.4</ele><time>2012-05-03T00:25:35.0000000+00:00</time></trkpt><trkpt lat="43.164955" lon="19.185072"><ele>1319.3</ele><time>2012-05-03T00:25:40.0000000+00:00</time></trkpt><trkpt lat="43.16481" lon="19.185989"><ele>1319.3</ele><time>2012-05-03T00:25:45.0000000+00:00</time></trkpt><trkpt lat="43.164619" lon="19.186958"><ele>1319.5</ele><time>2012-05-03T00:25:50.0000000+00:00</time></trkpt><trkpt lat="43.16431" lon="19.187786"><ele>1320.9</ele><time>2012-05-03T00:25:55.0000000+00:00</time></trkpt><trkpt lat="43.16415" lon="19.188618"><ele>1320.8</ele><time>2012-05-03T00:26:00.0000000+00:00</time></trkpt><trkpt lat="43.164158" lon="19.189564"><ele>1317.7</ele><time>2012-05-03T00:26:05.0000000+00:00</time></trkpt><trkpt lat="43.163948" lon="19.190495"><ele>1315.0</ele><time>2012-05-03T00:26:10.0000000+00:00</time></trkpt><trkpt lat="43.163704" lon="19.191446"><ele>1312.9</ele><time>2012-05-03T00:26:15.0000000+00:00</time></trkpt><trkpt lat="43.16354" lon="19.19245"><ele>1310.8</ele><time>2012-05-03T00:26:20.0000000+00:00</time></trkpt><trkpt lat="43.163387" lon="19.193476"><ele>1308.7</ele><time>2012-05-03T00:26:25.0000000+00:00</time></trkpt><trkpt lat="43.163216" lon="19.194588"><ele>1306.8</ele><time>2012-05-03T00:26:30.0000000+00:00</time></trkpt><trkpt lat="43.163052" lon="19.195684"><ele>1304.8</ele><time>2012-05-03T00:26:35.0000000+00:00</time></trkpt><trkpt lat="43.162888" lon="19.19673"><ele>1304.2</ele><time>2012-05-03T00:26:40.0000000+00:00</time></trkpt><trkpt lat="43.162735" lon="19.197699"><ele>1304.7</ele><time>2012-05-03T00:26:45.0000000+00:00</time></trkpt><trkpt lat="43.162579" lon="19.19865"><ele>1304.6</ele><time>2012-05-03T00:26:50.0000000+00:00</time></trkpt><trkpt lat="43.162373" lon="19.199614"><ele>1303.0</ele><time>2012-05-03T00:26:55.0000000+00:00</time></trkpt><trkpt lat="43.162121" lon="19.200602"><ele>1302.4</ele><time>2012-05-03T00:27:00.0000000+00:00</time></trkpt><trkpt lat="43.161861" lon="19.201607"><ele>1301.3</ele><time>2012-05-03T00:27:05.0000000+00:00</time></trkpt><trkpt lat="43.161579" lon="19.20265"><ele>1302.2</ele><time>2012-05-03T00:27:10.0000000+00:00</time></trkpt><trkpt lat="43.161175" lon="19.20364"><ele>1302.8</ele><time>2012-05-03T00:27:15.0000000+00:00</time></trkpt><trkpt lat="43.160759" lon="19.204641"><ele>1303.4</ele><time>2012-05-03T00:27:20.0000000+00:00</time></trkpt><trkpt lat="43.160408" lon="19.20562"><ele>1303.3</ele><time>2012-05-03T00:27:25.0000000+00:00</time></trkpt><trkpt lat="43.160057" lon="19.20653"><ele>1303.8</ele><time>2012-05-03T00:27:30.0000000+00:00</time></trkpt><trkpt lat="43.159622" lon="19.207409"><ele>1303.3</ele><time>2012-05-03T00:27:35.0000000+00:00</time></trkpt><trkpt lat="43.159275" lon="19.208355"><ele>1302.9</ele><time>2012-05-03T00:27:40.0000000+00:00</time></trkpt><trkpt lat="43.159073" lon="19.20936"><ele>1302.6</ele><time>2012-05-03T00:27:45.0000000+00:00</time></trkpt><trkpt lat="43.158688" lon="19.210194"><ele>1300.9</ele><time>2012-05-03T00:27:50.0000000+00:00</time></trkpt><trkpt lat="43.158157" lon="19.21097"><ele>1301.0</ele><time>2012-05-03T00:27:55.0000000+00:00</time></trkpt><trkpt lat="43.157661" lon="19.211641"><ele>1302.8</ele><time>2012-05-03T00:28:00.0000000+00:00</time></trkpt><trkpt lat="43.157063" lon="19.211868"><ele>1305.8</ele><time>2012-05-03T00:28:05.0000000+00:00</time></trkpt><trkpt lat="43.156429" lon="19.212063"><ele>1310.2</ele><time>2012-05-03T00:28:10.0000000+00:00</time></trkpt><trkpt lat="43.155899" lon="19.212444"><ele>1314.4</ele><time>2012-05-03T00:28:15.0000000+00:00</time></trkpt><trkpt lat="43.155315" lon="19.212757"><ele>1320.3</ele><time>2012-05-03T00:28:20.0000000+00:00</time></trkpt><trkpt lat="43.154682" lon="19.212887"><ele>1323.5</ele><time>2012-05-03T00:28:25.0000000+00:00</time></trkpt><trkpt lat="43.154026" lon="19.213219"><ele>1324.7</ele><time>2012-05-03T00:28:30.0000000+00:00</time></trkpt><trkpt lat="43.153587" lon="19.213953"><ele>1323.2</ele><time>2012-05-03T00:28:35.0000000+00:00</time></trkpt><trkpt lat="43.153191" lon="19.214727"><ele>1320.4</ele><time>2012-05-03T00:28:40.0000000+00:00</time></trkpt><trkpt lat="43.152718" lon="19.21545"><ele>1317.8</ele><time>2012-05-03T00:28:45.0000000+00:00</time></trkpt><trkpt lat="43.152119" lon="19.215952"><ele>1316.0</ele><time>2012-05-03T00:28:50.0000000+00:00</time></trkpt><trkpt lat="43.15147" lon="19.216381"><ele>1314.3</ele><time>2012-05-03T00:28:55.0000000+00:00</time></trkpt><trkpt lat="43.150852" lon="19.216801"><ele>1312.8</ele><time>2012-05-03T00:29:00.0000000+00:00</time></trkpt><trkpt lat="43.150345" lon="19.217398"><ele>1311.6</ele><time>2012-05-03T00:29:05.0000000+00:00</time></trkpt><trkpt lat="43.149918" lon="19.218159"><ele>1308.6</ele><time>2012-05-03T00:29:10.0000000+00:00</time></trkpt><trkpt lat="43.149487" lon="19.218952"><ele>1307.7</ele><time>2012-05-03T00:29:15.0000000+00:00</time></trkpt><trkpt lat="43.148949" lon="19.219612"><ele>1310.2</ele><time>2012-05-03T00:29:20.0000000+00:00</time></trkpt><trkpt lat="43.148296" lon="19.220024"><ele>1312.5</ele><time>2012-05-03T00:29:25.0000000+00:00</time></trkpt><trkpt lat="43.147675" lon="19.220459"><ele>1313.0</ele><time>2012-05-03T00:29:30.0000000+00:00</time></trkpt><trkpt lat="43.147243" lon="19.221167"><ele>1313.4</ele><time>2012-05-03T00:29:35.0000000+00:00</time></trkpt><trkpt lat="43.146938" lon="19.222048"><ele>1314.1</ele><time>2012-05-03T00:29:40.0000000+00:00</time></trkpt><trkpt lat="43.146507" lon="19.222738"><ele>1316.2</ele><time>2012-05-03T00:29:45.0000000+00:00</time></trkpt><trkpt lat="43.145916" lon="19.223196"><ele>1319.3</ele><time>2012-05-03T00:29:50.0000000+00:00</time></trkpt><trkpt lat="43.145329" lon="19.223671"><ele>1320.2</ele><time>2012-05-03T00:29:55.0000000+00:00</time></trkpt><trkpt lat="43.144753" lon="19.224321"><ele>1318.2</ele><time>2012-05-03T00:30:00.0000000+00:00</time></trkpt><trkpt lat="43.144165" lon="19.225042"><ele>1315.4</ele><time>2012-05-03T00:30:05.0000000+00:00</time></trkpt><trkpt lat="43.143631" lon="19.225828"><ele>1313.4</ele><time>2012-05-03T00:30:10.0000000+00:00</time></trkpt><trkpt lat="43.143307" lon="19.226782"><ele>1313.6</ele><time>2012-05-03T00:30:15.0000000+00:00</time></trkpt><trkpt lat="43.143227" lon="19.227867"><ele>1312.2</ele><time>2012-05-03T00:30:20.0000000+00:00</time></trkpt><trkpt lat="43.143429" lon="19.228962"><ele>1311.4</ele><time>2012-05-03T00:30:25.0000000+00:00</time></trkpt><trkpt lat="43.143723" lon="19.230062"><ele>1312.0</ele><time>2012-05-03T00:30:30.0000000+00:00</time></trkpt><trkpt lat="43.144012" lon="19.231142"><ele>1312.6</ele><time>2012-05-03T00:30:35.0000000+00:00</time></trkpt><trkpt lat="43.144268" lon="19.232119"><ele>1313.6</ele><time>2012-05-03T00:30:40.0000000+00:00</time></trkpt><trkpt lat="43.144516" lon="19.232983"><ele>1315.7</ele><time>2012-05-03T00:30:45.0000000+00:00</time></trkpt><trkpt lat="43.144897" lon="19.233725"><ele>1318.3</ele><time>2012-05-03T00:30:50.0000000+00:00</time></trkpt><trkpt lat="43.145458" lon="19.23424"><ele>1322.8</ele><time>2012-05-03T00:30:55.0000000+00:00</time></trkpt><trkpt lat="43.146126" lon="19.2346"><ele>1326.8</ele><time>2012-05-03T00:31:00.0000000+00:00</time></trkpt><trkpt lat="43.146797" lon="19.234949"><ele>1331.1</ele><time>2012-05-03T00:31:05.0000000+00:00</time></trkpt><trkpt lat="43.147438" lon="19.235281"><ele>1335.5</ele><time>2012-05-03T00:31:10.0000000+00:00</time></trkpt><trkpt lat="43.147995" lon="19.235725"><ele>1338.8</ele><time>2012-05-03T00:31:15.0000000+00:00</time></trkpt><trkpt lat="43.148357" lon="19.236452"><ele>1341.0</ele><time>2012-05-03T00:31:20.0000000+00:00</time></trkpt><trkpt lat="43.148422" lon="19.237303"><ele>1342.1</ele><time>2012-05-03T00:31:25.0000000+00:00</time></trkpt><trkpt lat="43.148251" lon="19.23818"><ele>1342.4</ele><time>2012-05-03T00:31:30.0000000+00:00</time></trkpt><trkpt lat="43.148033" lon="19.23905"><ele>1343.4</ele><time>2012-05-03T00:31:35.0000000+00:00</time></trkpt><trkpt lat="43.148003" lon="19.239954"><ele>1343.8</ele><time>2012-05-03T00:31:40.0000000+00:00</time></trkpt><trkpt lat="43.148197" lon="19.240822"><ele>1344.0</ele><time>2012-05-03T00:31:45.0000000+00:00</time></trkpt><trkpt lat="43.1483" lon="19.241768"><ele>1344.5</ele><time>2012-05-03T00:31:50.0000000+00:00</time></trkpt><trkpt lat="43.148331" lon="19.242773"><ele>1344.1</ele><time>2012-05-03T00:31:55.0000000+00:00</time></trkpt><trkpt lat="43.1483" lon="19.2437"><ele>1343.3</ele><time>2012-05-03T00:32:00.0000000+00:00</time></trkpt><trkpt lat="43.148075" lon="19.244476"><ele>1343.7</ele><time>2012-05-03T00:32:05.0000000+00:00</time></trkpt><trkpt lat="43.14777" lon="19.245253"><ele>1344.2</ele><time>2012-05-03T00:32:10.0000000+00:00</time></trkpt><trkpt lat="43.147625" lon="19.246078"><ele>1345.1</ele><time>2012-05-03T00:32:15.0000000+00:00</time></trkpt><trkpt lat="43.147652" lon="19.246941"><ele>1344.5</ele><time>2012-05-03T00:32:20.0000000+00:00</time></trkpt><trkpt lat="43.147892" lon="19.247747"><ele>1344.2</ele><time>2012-05-03T00:32:25.0000000+00:00</time></trkpt><trkpt lat="43.148315" lon="19.248417"><ele>1345.2</ele><time>2012-05-03T00:32:30.0000000+00:00</time></trkpt><trkpt lat="43.148914" lon="19.248926"><ele>1345.9</ele><time>2012-05-03T00:32:35.0000000+00:00</time></trkpt><trkpt lat="43.149544" lon="19.249363"><ele>1346.6</ele><time>2012-05-03T00:32:40.0000000+00:00</time></trkpt><trkpt lat="43.150089" lon="19.249937"><ele>1347.5</ele><time>2012-05-03T00:32:45.0000000+00:00</time></trkpt><trkpt lat="43.150356" lon="19.250771"><ele>1348.4</ele><time>2012-05-03T00:32:50.0000000+00:00</time></trkpt><trkpt lat="43.150299" lon="19.251665"><ele>1349.8</ele><time>2012-05-03T00:32:55.0000000+00:00</time></trkpt><trkpt lat="43.150154" lon="19.25248"><ele>1348.7</ele><time>2012-05-03T00:33:00.0000000+00:00</time></trkpt><trkpt lat="43.150238" lon="19.253214"><ele>1345.6</ele><time>2012-05-03T00:33:05.0000000+00:00</time></trkpt><trkpt lat="43.150604" lon="19.253805"><ele>1341.2</ele><time>2012-05-03T00:33:10.0000000+00:00</time></trkpt><trkpt lat="43.150845" lon="19.25444"><ele>1337.4</ele><time>2012-05-03T00:33:15.0000000+00:00</time></trkpt><trkpt lat="43.150826" lon="19.255077"><ele>1334.6</ele><time>2012-05-03T00:33:20.0000000+00:00</time></trkpt><trkpt lat="43.150829" lon="19.255693"><ele>1331.4</ele><time>2012-05-03T00:33:25.0000000+00:00</time></trkpt><trkpt lat="43.151058" lon="19.256203"><ele>1327.4</ele><time>2012-05-03T00:33:30.0000000+00:00</time></trkpt><trkpt lat="43.151432" lon="19.256506"><ele>1323.5</ele><time>2012-05-03T00:33:35.0000000+00:00</time></trkpt><trkpt lat="43.151791" lon="19.25684"><ele>1320.0</ele><time>2012-05-03T00:33:40.0000000+00:00</time></trkpt><trkpt lat="43.152035" lon="19.257318"><ele>1315.6</ele><time>2012-05-03T00:33:45.0000000+00:00</time></trkpt><trkpt lat="43.152191" lon="19.257874"><ele>1312.2</ele><time>2012-05-03T00:33:50.0000000+00:00</time></trkpt><trkpt lat="43.152447" lon="19.258318"><ele>1309.7</ele><time>2012-05-03T00:33:55.0000000+00:00</time></trkpt><trkpt lat="43.152782" lon="19.25853"><ele>1306.7</ele><time>2012-05-03T00:34:00.0000000+00:00</time></trkpt><trkpt lat="43.152847" lon="19.25882"><ele>1304.1</ele><time>2012-05-03T00:34:05.0000000+00:00</time></trkpt><trkpt lat="43.152599" lon="19.258846"><ele>1301.3</ele><time>2012-05-03T00:34:10.0000000+00:00</time></trkpt><trkpt lat="43.152256" lon="19.258684"><ele>1299.2</ele><time>2012-05-03T00:34:15.0000000+00:00</time></trkpt><trkpt lat="43.151955" lon="19.258307"><ele>1296.1</ele><time>2012-05-03T00:34:20.0000000+00:00</time></trkpt><trkpt lat="43.151596" lon="19.25786"><ele>1292.1</ele><time>2012-05-03T00:34:25.0000000+00:00</time></trkpt><trkpt lat="43.151073" lon="19.257486"><ele>1288.1</ele><time>2012-05-03T00:34:30.0000000+00:00</time></trkpt><trkpt lat="43.150547" lon="19.257076"><ele>1285.2</ele><time>2012-05-03T00:34:35.0000000+00:00</time></trkpt><trkpt lat="43.15015" lon="19.256693"><ele>1282.8</ele><time>2012-05-03T00:34:40.0000000+00:00</time></trkpt><trkpt lat="43.149929" lon="19.256769"><ele>1280.0</ele><time>2012-05-03T00:34:45.0000000+00:00</time></trkpt><trkpt lat="43.15015" lon="19.257059"><ele>1277.1</ele><time>2012-05-03T00:34:50.0000000+00:00</time></trkpt><trkpt lat="43.150524" lon="19.257479"><ele>1274.5</ele><time>2012-05-03T00:34:55.0000000+00:00</time></trkpt><trkpt lat="43.150921" lon="19.258051"><ele>1270.6</ele><time>2012-05-03T00:35:00.0000000+00:00</time></trkpt><trkpt lat="43.151291" lon="19.258671"><ele>1267.0</ele><time>2012-05-03T00:35:05.0000000+00:00</time></trkpt><trkpt lat="43.151554" lon="19.259386"><ele>1264.3</ele><time>2012-05-03T00:35:10.0000000+00:00</time></trkpt><trkpt lat="43.151821" lon="19.260105"><ele>1260.7</ele><time>2012-05-03T00:35:15.0000000+00:00</time></trkpt><trkpt lat="43.152267" lon="19.260685"><ele>1255.8</ele><time>2012-05-03T00:35:20.0000000+00:00</time></trkpt><trkpt lat="43.152782" lon="19.261185"><ele>1251.8</ele><time>2012-05-03T00:35:25.0000000+00:00</time></trkpt><trkpt lat="43.153305" lon="19.261568"><ele>1248.9</ele><time>2012-05-03T00:35:30.0000000+00:00</time></trkpt><trkpt lat="43.153599" lon="19.262016"><ele>1246.1</ele><time>2012-05-03T00:35:35.0000000+00:00</time></trkpt><trkpt lat="43.153526" lon="19.262548"><ele>1244.0</ele><time>2012-05-03T00:35:40.0000000+00:00</time></trkpt><trkpt lat="43.153168" lon="19.262894"><ele>1241.1</ele><time>2012-05-03T00:35:45.0000000+00:00</time></trkpt><trkpt lat="43.152699" lon="19.262871"><ele>1237.8</ele><time>2012-05-03T00:35:50.0000000+00:00</time></trkpt><trkpt lat="43.152248" lon="19.26251"><ele>1234.6</ele><time>2012-05-03T00:35:55.0000000+00:00</time></trkpt><trkpt lat="43.151901" lon="19.262009"><ele>1230.8</ele><time>2012-05-03T00:36:00.0000000+00:00</time></trkpt><trkpt lat="43.151436" lon="19.261562"><ele>1227.5</ele><time>2012-05-03T00:36:05.0000000+00:00</time></trkpt><trkpt lat="43.150894" lon="19.261379"><ele>1224.1</ele><time>2012-05-03T00:36:10.0000000+00:00</time></trkpt><trkpt lat="43.150433" lon="19.261786"><ele>1220.3</ele><time>2012-05-03T00:36:15.0000000+00:00</time></trkpt><trkpt lat="43.150471" lon="19.262568"><ele>1215.6</ele><time>2012-05-03T00:36:20.0000000+00:00</time></trkpt><trkpt lat="43.150669" lon="19.263365"><ele>1211.5</ele><time>2012-05-03T00:36:25.0000000+00:00</time></trkpt><trkpt lat="43.150635" lon="19.264214"><ele>1208.0</ele><time>2012-05-03T00:36:30.0000000+00:00</time></trkpt><trkpt lat="43.150391" lon="19.265017"><ele>1204.6</ele><time>2012-05-03T00:36:35.0000000+00:00</time></trkpt><trkpt lat="43.150154" lon="19.265835"><ele>1201.5</ele><time>2012-05-03T00:36:40.0000000+00:00</time></trkpt><trkpt lat="43.150024" lon="19.266708"><ele>1197.8</ele><time>2012-05-03T00:36:45.0000000+00:00</time></trkpt><trkpt lat="43.149849" lon="19.267529"><ele>1196.6</ele><time>2012-05-03T00:36:50.0000000+00:00</time></trkpt><trkpt lat="43.149467" lon="19.26816"><ele>1194.0</ele><time>2012-05-03T00:36:55.0000000+00:00</time></trkpt><trkpt lat="43.149006" lon="19.268667"><ele>1189.6</ele><time>2012-05-03T00:37:00.0000000+00:00</time></trkpt><trkpt lat="43.148495" lon="19.268661"><ele>1184.9</ele><time>2012-05-03T00:37:05.0000000+00:00</time></trkpt><trkpt lat="43.148163" lon="19.268124"><ele>1181.8</ele><time>2012-05-03T00:37:10.0000000+00:00</time></trkpt><trkpt lat="43.147888" lon="19.268"><ele>1178.0</ele><time>2012-05-03T00:37:15.0000000+00:00</time></trkpt><trkpt lat="43.14793" lon="19.268324"><ele>1174.1</ele><time>2012-05-03T00:37:20.0000000+00:00</time></trkpt><trkpt lat="43.14822" lon="19.268696"><ele>1172.0</ele><time>2012-05-03T00:37:25.0000000+00:00</time></trkpt><trkpt lat="43.14859" lon="19.269129"><ele>1169.0</ele><time>2012-05-03T00:37:30.0000000+00:00</time></trkpt><trkpt lat="43.149082" lon="19.269255"><ele>1165.7</ele><time>2012-05-03T00:37:35.0000000+00:00</time></trkpt><trkpt lat="43.149582" lon="19.269005"><ele>1161.5</ele><time>2012-05-03T00:37:40.0000000+00:00</time></trkpt><trkpt lat="43.150021" lon="19.268553"><ele>1156.8</ele><time>2012-05-03T00:37:45.0000000+00:00</time></trkpt><trkpt lat="43.150345" lon="19.267906"><ele>1152.6</ele><time>2012-05-03T00:37:50.0000000+00:00</time></trkpt><trkpt lat="43.150642" lon="19.267235"><ele>1149.9</ele><time>2012-05-03T00:37:55.0000000+00:00</time></trkpt><trkpt lat="43.151039" lon="19.266647"><ele>1147.4</ele><time>2012-05-03T00:38:00.0000000+00:00</time></trkpt><trkpt lat="43.151524" lon="19.26622"><ele>1144.3</ele><time>2012-05-03T00:38:05.0000000+00:00</time></trkpt><trkpt lat="43.151993" lon="19.266134"><ele>1141.5</ele><time>2012-05-03T00:38:10.0000000+00:00</time></trkpt><trkpt lat="43.152542" lon="19.266216"><ele>1138.0</ele><time>2012-05-03T00:38:15.0000000+00:00</time></trkpt><trkpt lat="43.153137" lon="19.266361"><ele>1134.6</ele><time>2012-05-03T00:38:20.0000000+00:00</time></trkpt><trkpt lat="43.153717" lon="19.266197"><ele>1129.6</ele><time>2012-05-03T00:38:25.0000000+00:00</time></trkpt><trkpt lat="43.154274" lon="19.265802"><ele>1128.4</ele><time>2012-05-03T00:38:30.0000000+00:00</time></trkpt><trkpt lat="43.154888" lon="19.26548"><ele>1124.2</ele><time>2012-05-03T00:38:35.0000000+00:00</time></trkpt><trkpt lat="43.155384" lon="19.264938"><ele>1119.3</ele><time>2012-05-03T00:38:40.0000000+00:00</time></trkpt><trkpt lat="43.15588" lon="19.264387"><ele>1115.7</ele><time>2012-05-03T00:38:45.0000000+00:00</time></trkpt><trkpt lat="43.156487" lon="19.264019"><ele>1112.7</ele><time>2012-05-03T00:38:50.0000000+00:00</time></trkpt><trkpt lat="43.156849" lon="19.263441"><ele>1110.8</ele><time>2012-05-03T00:38:55.0000000+00:00</time></trkpt><trkpt lat="43.15731" lon="19.263109"><ele>1108.5</ele><time>2012-05-03T00:39:00.0000000+00:00</time></trkpt><trkpt lat="43.157818" lon="19.262774"><ele>1103.3</ele><time>2012-05-03T00:39:05.0000000+00:00</time></trkpt><trkpt lat="43.158298" lon="19.262375"><ele>1100.0</ele><time>2012-05-03T00:39:10.0000000+00:00</time></trkpt><trkpt lat="43.158821" lon="19.262108"><ele>1097.3</ele><time>2012-05-03T00:39:15.0000000+00:00</time></trkpt><trkpt lat="43.159386" lon="19.262053"><ele>1093.4</ele><time>2012-05-03T00:39:20.0000000+00:00</time></trkpt><trkpt lat="43.15992" lon="19.262026"><ele>1088.9</ele><time>2012-05-03T00:39:25.0000000+00:00</time></trkpt><trkpt lat="43.160347" lon="19.261801"><ele>1085.6</ele><time>2012-05-03T00:39:30.0000000+00:00</time></trkpt><trkpt lat="43.160629" lon="19.261597"><ele>1081.6</ele><time>2012-05-03T00:39:35.0000000+00:00</time></trkpt><trkpt lat="43.160591" lon="19.261892"><ele>1078.6</ele><time>2012-05-03T00:39:40.0000000+00:00</time></trkpt><trkpt lat="43.160229" lon="19.262148"><ele>1075.7</ele><time>2012-05-03T00:39:45.0000000+00:00</time></trkpt><trkpt lat="43.159695" lon="19.262518"><ele>1072.2</ele><time>2012-05-03T00:39:50.0000000+00:00</time></trkpt><trkpt lat="43.159134" lon="19.262949"><ele>1068.0</ele><time>2012-05-03T00:39:55.0000000+00:00</time></trkpt><trkpt lat="43.158779" lon="19.26366"><ele>1063.6</ele><time>2012-05-03T00:40:00.0000000+00:00</time></trkpt><trkpt lat="43.158409" lon="19.264376"><ele>1059.6</ele><time>2012-05-03T00:40:05.0000000+00:00</time></trkpt><trkpt lat="43.158379" lon="19.265163"><ele>1056.8</ele><time>2012-05-03T00:40:10.0000000+00:00</time></trkpt><trkpt lat="43.158516" lon="19.265976"><ele>1053.7</ele><time>2012-05-03T00:40:15.0000000+00:00</time></trkpt><trkpt lat="43.158344" lon="19.2668"><ele>1048.1</ele><time>2012-05-03T00:40:20.0000000+00:00</time></trkpt><trkpt lat="43.158047" lon="19.267527"><ele>1043.9</ele><time>2012-05-03T00:40:25.0000000+00:00</time></trkpt><trkpt lat="43.157764" lon="19.268221"><ele>1039.9</ele><time>2012-05-03T00:40:30.0000000+00:00</time></trkpt><trkpt lat="43.157284" lon="19.268681"><ele>1037.5</ele><time>2012-05-03T00:40:35.0000000+00:00</time></trkpt><trkpt lat="43.156811" lon="19.269247"><ele>1031.9</ele><time>2012-05-03T00:40:40.0000000+00:00</time></trkpt><trkpt lat="43.156265" lon="19.269802"><ele>1028.0</ele><time>2012-05-03T00:40:45.0000000+00:00</time></trkpt><trkpt lat="43.155704" lon="19.270426"><ele>1023.4</ele><time>2012-05-03T00:40:50.0000000+00:00</time></trkpt><trkpt lat="43.155186" lon="19.271097"><ele>1017.5</ele><time>2012-05-03T00:40:55.0000000+00:00</time></trkpt><trkpt lat="43.154514" lon="19.271664"><ele>1011.2</ele><time>2012-05-03T00:41:00.0000000+00:00</time></trkpt><trkpt lat="43.153885" lon="19.272104"><ele>1005.4</ele><time>2012-05-03T00:41:05.0000000+00:00</time></trkpt><trkpt lat="43.153286" lon="19.27232"><ele>1000.9</ele><time>2012-05-03T00:41:10.0000000+00:00</time></trkpt><trkpt lat="43.152676" lon="19.272352"><ele>996.4</ele><time>2012-05-03T00:41:15.0000000+00:00</time></trkpt><trkpt lat="43.152237" lon="19.27261"><ele>992.9</ele><time>2012-05-03T00:41:20.0000000+00:00</time></trkpt><trkpt lat="43.151848" lon="19.273104"><ele>989.3</ele><time>2012-05-03T00:41:25.0000000+00:00</time></trkpt><trkpt lat="43.151459" lon="19.273796"><ele>984.7</ele><time>2012-05-03T00:41:30.0000000+00:00</time></trkpt><trkpt lat="43.151188" lon="19.274582"><ele>981.0</ele><time>2012-05-03T00:41:35.0000000+00:00</time></trkpt><trkpt lat="43.150917" lon="19.275152"><ele>977.1</ele><time>2012-05-03T00:41:40.0000000+00:00</time></trkpt><trkpt lat="43.150524" lon="19.275646"><ele>973.9</ele><time>2012-05-03T00:41:45.0000000+00:00</time></trkpt><trkpt lat="43.150291" lon="19.276363"><ele>971.8</ele><time>2012-05-03T00:41:50.0000000+00:00</time></trkpt><trkpt lat="43.150108" lon="19.277136"><ele>968.7</ele><time>2012-05-03T00:41:55.0000000+00:00</time></trkpt><trkpt lat="43.149994" lon="19.277956"><ele>964.0</ele><time>2012-05-03T00:42:00.0000000+00:00</time></trkpt><trkpt lat="43.150085" lon="19.278788"><ele>959.4</ele><time>2012-05-03T00:42:05.0000000+00:00</time></trkpt><trkpt lat="43.150078" lon="19.279615"><ele>955.1</ele><time>2012-05-03T00:42:10.0000000+00:00</time></trkpt><trkpt lat="43.150234" lon="19.280371"><ele>950.9</ele><time>2012-05-03T00:42:15.0000000+00:00</time></trkpt><trkpt lat="43.150444" lon="19.281147"><ele>944.5</ele><time>2012-05-03T00:42:20.0000000+00:00</time></trkpt><trkpt lat="43.150528" lon="19.281973"><ele>940.4</ele><time>2012-05-03T00:42:25.0000000+00:00</time></trkpt><trkpt lat="43.150452" lon="19.282837"><ele>936.2</ele><time>2012-05-03T00:42:30.0000000+00:00</time></trkpt><trkpt lat="43.150238" lon="19.283697"><ele>932.4</ele><time>2012-05-03T00:42:35.0000000+00:00</time></trkpt><trkpt lat="43.150188" lon="19.284534"><ele>928.4</ele><time>2012-05-03T00:42:40.0000000+00:00</time></trkpt><trkpt lat="43.150276" lon="19.285387"><ele>921.9</ele><time>2012-05-03T00:42:45.0000000+00:00</time></trkpt><trkpt lat="43.15036" lon="19.286245"><ele>917.2</ele><time>2012-05-03T00:42:50.0000000+00:00</time></trkpt><trkpt lat="43.150497" lon="19.287003"><ele>912.2</ele><time>2012-05-03T00:42:55.0000000+00:00</time></trkpt><trkpt lat="43.150604" lon="19.287434"><ele>906.4</ele><time>2012-05-03T00:43:00.0000000+00:00</time></trkpt><trkpt lat="43.15073" lon="19.287146"><ele>904.0</ele><time>2012-05-03T00:43:05.0000000+00:00</time></trkpt><trkpt lat="43.150585" lon="19.286695"><ele>901.6</ele><time>2012-05-03T00:43:10.0000000+00:00</time></trkpt><trkpt lat="43.150513" lon="19.286091"><ele>899.9</ele><time>2012-05-03T00:43:15.0000000+00:00</time></trkpt><trkpt lat="43.150482" lon="19.285435"><ele>897.4</ele><time>2012-05-03T00:43:20.0000000+00:00</time></trkpt><trkpt lat="43.150524" lon="19.284756"><ele>892.5</ele><time>2012-05-03T00:43:25.0000000+00:00</time></trkpt><trkpt lat="43.150635" lon="19.284033"><ele>890.6</ele><time>2012-05-03T00:43:30.0000000+00:00</time></trkpt><trkpt lat="43.150852" lon="19.283318"><ele>887.5</ele><time>2012-05-03T00:43:35.0000000+00:00</time></trkpt><trkpt lat="43.151154" lon="19.282696"><ele>885.0</ele><time>2012-05-03T00:43:40.0000000+00:00</time></trkpt><trkpt lat="43.15126" lon="19.282009"><ele>881.8</ele><time>2012-05-03T00:43:45.0000000+00:00</time></trkpt><trkpt lat="43.151211" lon="19.281273"><ele>877.6</ele><time>2012-05-03T00:43:50.0000000+00:00</time></trkpt><trkpt lat="43.151211" lon="19.280499"><ele>875.1</ele><time>2012-05-03T00:43:55.0000000+00:00</time></trkpt><trkpt lat="43.151314" lon="19.279699"><ele>873.0</ele><time>2012-05-03T00:44:00.0000000+00:00</time></trkpt><trkpt lat="43.151455" lon="19.278887"><ele>870.2</ele><time>2012-05-03T00:44:05.0000000+00:00</time></trkpt><trkpt lat="43.151566" lon="19.278114"><ele>867.1</ele><time>2012-05-03T00:44:10.0000000+00:00</time></trkpt><trkpt lat="43.151775" lon="19.277605"><ele>865.1</ele><time>2012-05-03T00:44:15.0000000+00:00</time></trkpt><trkpt lat="43.152031" lon="19.277241"><ele>863.2</ele><time>2012-05-03T00:44:20.0000000+00:00</time></trkpt><trkpt lat="43.152191" lon="19.277365"><ele>858.5</ele><time>2012-05-03T00:44:25.0000000+00:00</time></trkpt><trkpt lat="43.151951" lon="19.277601"><ele>854.4</ele><time>2012-05-03T00:44:30.0000000+00:00</time></trkpt><trkpt lat="43.151695" lon="19.27803"><ele>852.8</ele><time>2012-05-03T00:44:35.0000000+00:00</time></trkpt><trkpt lat="43.151569" lon="19.278767"><ele>849.8</ele><time>2012-05-03T00:44:40.0000000+00:00</time></trkpt><trkpt lat="43.151546" lon="19.279531"><ele>847.4</ele><time>2012-05-03T00:44:45.0000000+00:00</time></trkpt><trkpt lat="43.151485" lon="19.280264"><ele>844.9</ele><time>2012-05-03T00:44:50.0000000+00:00</time></trkpt><trkpt lat="43.151474" lon="19.281012"><ele>843.2</ele><time>2012-05-03T00:44:55.0000000+00:00</time></trkpt><trkpt lat="43.151676" lon="19.281782"><ele>840.2</ele><time>2012-05-03T00:45:00.0000000+00:00</time></trkpt><trkpt lat="43.15176" lon="19.282534"><ele>836.5</ele><time>2012-05-03T00:45:05.0000000+00:00</time></trkpt><trkpt lat="43.151604" lon="19.283173"><ele>834.2</ele><time>2012-05-03T00:45:10.0000000+00:00</time></trkpt><trkpt lat="43.151592" lon="19.283833"><ele>830.6</ele><time>2012-05-03T00:45:15.0000000+00:00</time></trkpt><trkpt lat="43.1516" lon="19.284533"><ele>830.6</ele><time>2012-05-03T00:45:20.0000000+00:00</time></trkpt><trkpt lat="43.151409" lon="19.285225"><ele>827.0</ele><time>2012-05-03T00:45:25.0000000+00:00</time></trkpt><trkpt lat="43.151485" lon="19.28595"><ele>823.6</ele><time>2012-05-03T00:45:30.0000000+00:00</time></trkpt><trkpt lat="43.151691" lon="19.286669"><ele>820.0</ele><time>2012-05-03T00:45:35.0000000+00:00</time></trkpt><trkpt lat="43.151955" lon="19.287319"><ele>816.4</ele><time>2012-05-03T00:45:40.0000000+00:00</time></trkpt><trkpt lat="43.151958" lon="19.287985"><ele>812.2</ele><time>2012-05-03T00:45:45.0000000+00:00</time></trkpt><trkpt lat="43.151642" lon="19.288542"><ele>809.6</ele><time>2012-05-03T00:45:50.0000000+00:00</time></trkpt><trkpt lat="43.15131" lon="19.289139"><ele>805.2</ele><time>2012-05-03T00:45:55.0000000+00:00</time></trkpt><trkpt lat="43.150871" lon="19.289564"><ele>802.6</ele><time>2012-05-03T00:46:00.0000000+00:00</time></trkpt><trkpt lat="43.150303" lon="19.289614"><ele>799.4</ele><time>2012-05-03T00:46:05.0000000+00:00</time></trkpt><trkpt lat="43.149761" lon="19.289486"><ele>797.5</ele><time>2012-05-03T00:46:10.0000000+00:00</time></trkpt><trkpt lat="43.149246" lon="19.289474"><ele>794.6</ele><time>2012-05-03T00:46:15.0000000+00:00</time></trkpt><trkpt lat="43.148907" lon="19.289921"><ele>791.4</ele><time>2012-05-03T00:46:20.0000000+00:00</time></trkpt><trkpt lat="43.148766" lon="19.290609"><ele>788.7</ele><time>2012-05-03T00:46:25.0000000+00:00</time></trkpt><trkpt lat="43.14864" lon="19.291296"><ele>785.4</ele><time>2012-05-03T00:46:30.0000000+00:00</time></trkpt><trkpt lat="43.148548" lon="19.291862"><ele>782.4</ele><time>2012-05-03T00:46:35.0000000+00:00</time></trkpt><trkpt lat="43.148624" lon="19.292381"><ele>779.4</ele><time>2012-05-03T00:46:40.0000000+00:00</time></trkpt><trkpt lat="43.148865" lon="19.293056"><ele>776.7</ele><time>2012-05-03T00:46:45.0000000+00:00</time></trkpt><trkpt lat="43.149227" lon="19.293777"><ele>776.0</ele><time>2012-05-03T00:46:50.0000000+00:00</time></trkpt><trkpt lat="43.149693" lon="19.294468"><ele>775.1</ele><time>2012-05-03T00:46:55.0000000+00:00</time></trkpt><trkpt lat="43.150219" lon="19.295103"><ele>774.9</ele><time>2012-05-03T00:47:00.0000000+00:00</time></trkpt><trkpt lat="43.150696" lon="19.295664"><ele>774.9</ele><time>2012-05-03T00:47:05.0000000+00:00</time></trkpt><trkpt lat="43.15123" lon="19.296005"><ele>777.3</ele><time>2012-05-03T00:47:10.0000000+00:00</time></trkpt><trkpt lat="43.15192" lon="19.296078"><ele>779.1</ele><time>2012-05-03T00:47:15.0000000+00:00</time></trkpt><trkpt lat="43.152573" lon="19.296242"><ele>781.8</ele><time>2012-05-03T00:47:20.0000000+00:00</time></trkpt><trkpt lat="43.153179" lon="19.29608"><ele>784.9</ele><time>2012-05-03T00:47:25.0000000+00:00</time></trkpt><trkpt lat="43.153728" lon="19.295641"><ele>792.1</ele><time>2012-05-03T00:47:30.0000000+00:00</time></trkpt><trkpt lat="43.154278" lon="19.295502"><ele>797.2</ele><time>2012-05-03T00:47:35.0000000+00:00</time></trkpt><trkpt lat="43.154827" lon="19.295753"><ele>801.6</ele><time>2012-05-03T00:47:40.0000000+00:00</time></trkpt><trkpt lat="43.15535" lon="19.296129"><ele>806.9</ele><time>2012-05-03T00:47:45.0000000+00:00</time></trkpt><trkpt lat="43.155914" lon="19.296352"><ele>810.6</ele><time>2012-05-03T00:47:50.0000000+00:00</time></trkpt><trkpt lat="43.156479" lon="19.296415"><ele>813.3</ele><time>2012-05-03T00:47:55.0000000+00:00</time></trkpt><trkpt lat="43.157017" lon="19.296261"><ele>816.9</ele><time>2012-05-03T00:48:00.0000000+00:00</time></trkpt><trkpt lat="43.157444" lon="19.295742"><ele>821.8</ele><time>2012-05-03T00:48:05.0000000+00:00</time></trkpt><trkpt lat="43.157661" lon="19.295013"><ele>825.5</ele><time>2012-05-03T00:48:10.0000000+00:00</time></trkpt><trkpt lat="43.157921" lon="19.294395"><ele>829.9</ele><time>2012-05-03T00:48:15.0000000+00:00</time></trkpt><trkpt lat="43.158344" lon="19.293978"><ele>835.8</ele><time>2012-05-03T00:48:20.0000000+00:00</time></trkpt><trkpt lat="43.158772" lon="19.293901"><ele>839.5</ele><time>2012-05-03T00:48:25.0000000+00:00</time></trkpt><trkpt lat="43.158936" lon="19.29394"><ele>841.3</ele><time>2012-05-03T00:48:30.0000000+00:00</time></trkpt><trkpt lat="43.158985" lon="19.293913"><ele>842.2</ele><time>2012-05-03T00:48:35.0000000+00:00</time></trkpt><trkpt lat="43.158981" lon="19.293892"><ele>842.5</ele><time>2012-05-03T00:48:40.0000000+00:00</time></trkpt><trkpt lat="43.15897" lon="19.293812"><ele>841.8</ele><time>2012-05-03T00:48:45.0000000+00:00</time></trkpt><trkpt lat="43.158932" lon="19.293697"><ele>841.4</ele><time>2012-05-03T00:48:50.0000000+00:00</time></trkpt><trkpt lat="43.15892" lon="19.293633"><ele>841.9</ele><time>2012-05-03T00:48:55.0000000+00:00</time></trkpt><trkpt lat="43.158913" lon="19.293552"><ele>841.5</ele><time>2012-05-03T00:49:00.0000000+00:00</time></trkpt><trkpt lat="43.15892" lon="19.2934"><ele>839.0</ele><time>2012-05-03T00:49:05.0000000+00:00</time></trkpt><trkpt lat="43.158939" lon="19.293236"><ele>836.7</ele><time>2012-05-03T00:49:10.0000000+00:00</time></trkpt><trkpt lat="43.158958" lon="19.293058"><ele>834.5</ele><time>2012-05-03T00:49:15.0000000+00:00</time></trkpt><trkpt lat="43.158981" lon="19.292892"><ele>832.6</ele><time>2012-05-03T00:49:20.0000000+00:00</time></trkpt><trkpt lat="43.158981" lon="19.292774"><ele>832.7</ele><time>2012-05-03T00:49:25.0000000+00:00</time></trkpt><trkpt lat="43.158989" lon="19.292679"><ele>831.8</ele><time>2012-05-03T00:49:30.0000000+00:00</time></trkpt><trkpt lat="43.158993" lon="19.292665"><ele>831.7</ele><time>2012-05-03T00:49:35.0000000+00:00</time></trkpt><trkpt lat="43.158985" lon="19.292688"><ele>831.7</ele><time>2012-05-03T00:49:40.0000000+00:00</time></trkpt><trkpt lat="43.158985" lon="19.29269"><ele>831.4</ele><time>2012-05-03T00:49:45.0000000+00:00</time></trkpt><trkpt lat="43.158989" lon="19.292688"><ele>831.3</ele><time>2012-05-03T00:49:50.0000000+00:00</time></trkpt><trkpt lat="43.158993" lon="19.292681"><ele>831.2</ele><time>2012-05-03T00:49:55.0000000+00:00</time></trkpt><trkpt lat="43.159" lon="19.292673"><ele>831.1</ele><time>2012-05-03T00:50:00.0000000+00:00</time></trkpt><trkpt lat="43.159" lon="19.292671"><ele>831.0</ele><time>2012-05-03T00:50:05.0000000+00:00</time></trkpt><trkpt lat="43.159" lon="19.292673"><ele>831.1</ele><time>2012-05-03T00:50:10.0000000+00:00</time></trkpt><trkpt lat="43.159" lon="19.292671"><ele>831.1</ele><time>2012-05-03T00:50:15.0000000+00:00</time></trkpt><trkpt lat="43.159" lon="19.292671"><ele>831.1</ele><time>2012-05-03T00:50:20.0000000+00:00</time></trkpt><trkpt lat="43.159" lon="19.292671"><ele>831.2</ele><time>2012-05-03T00:50:25.0000000+00:00</time></trkpt><trkpt lat="43.159" lon="19.292671"><ele>831.2</ele><time>2012-05-03T00:50:30.0000000+00:00</time></trkpt><trkpt lat="43.159004" lon="19.292671"><ele>831.2</ele><time>2012-05-03T00:50:35.0000000+00:00</time></trkpt><trkpt lat="43.159004" lon="19.292671"><ele>831.3</ele><time>2012-05-03T00:50:40.0000000+00:00</time></trkpt><trkpt lat="43.159004" lon="19.292671"><ele>831.3</ele><time>2012-05-03T00:50:45.0000000+00:00</time></trkpt><trkpt lat="43.159004" lon="19.292671"><ele>831.3</ele><time>2012-05-03T00:50:50.0000000+00:00</time></trkpt></trkseg><trkseg><trkpt lat="43.146038" lon="19.298264"><ele>113.2</ele><time>2012-05-03T10:34:31.0000000+00:00</time></trkpt><trkpt lat="43.149395" lon="19.299833"><ele>827.5</ele><time>2012-05-03T10:34:36.0000000+00:00</time></trkpt><trkpt lat="43.149342" lon="19.299761"><ele>826.0</ele><time>2012-05-03T10:34:41.0000000+00:00</time></trkpt><trkpt lat="43.149311" lon="19.299726"><ele>826.0</ele><time>2012-05-03T10:34:46.0000000+00:00</time></trkpt><trkpt lat="43.149311" lon="19.299715"><ele>825.5</ele><time>2012-05-03T10:34:51.0000000+00:00</time></trkpt><trkpt lat="43.149315" lon="19.299723"><ele>825.2</ele><time>2012-05-03T10:34:56.0000000+00:00</time></trkpt><trkpt lat="43.149296" lon="19.299711"><ele>824.7</ele><time>2012-05-03T10:35:01.0000000+00:00</time></trkpt><trkpt lat="43.1493" lon="19.299721"><ele>824.3</ele><time>2012-05-03T10:35:06.0000000+00:00</time></trkpt><trkpt lat="43.149296" lon="19.299732"><ele>823.4</ele><time>2012-05-03T10:35:11.0000000+00:00</time></trkpt><trkpt lat="43.1493" lon="19.299753"><ele>823.4</ele><time>2012-05-03T10:35:16.0000000+00:00</time></trkpt><trkpt lat="43.1493" lon="19.299757"><ele>823.4</ele><time>2012-05-03T10:35:21.0000000+00:00</time></trkpt><trkpt lat="43.149303" lon="19.299761"><ele>823.4</ele><time>2012-05-03T10:35:26.0000000+00:00</time></trkpt><trkpt lat="43.1493" lon="19.299755"><ele>823.3</ele><time>2012-05-03T10:35:31.0000000+00:00</time></trkpt><trkpt lat="43.149296" lon="19.299753"><ele>823.3</ele><time>2012-05-03T10:35:36.0000000+00:00</time></trkpt><trkpt lat="43.149296" lon="19.299763"><ele>823.3</ele><time>2012-05-03T10:35:41.0000000+00:00</time></trkpt><trkpt lat="43.1493" lon="19.299772"><ele>823.3</ele><time>2012-05-03T10:35:46.0000000+00:00</time></trkpt><trkpt lat="43.149307" lon="19.299772"><ele>823.3</ele><time>2012-05-03T10:35:51.0000000+00:00</time></trkpt><trkpt lat="43.149307" lon="19.299765"><ele>823.3</ele><time>2012-05-03T10:35:56.0000000+00:00</time></trkpt><trkpt lat="43.149307" lon="19.299768"><ele>823.3</ele><time>2012-05-03T10:36:01.0000000+00:00</time></trkpt><trkpt lat="43.149311" lon="19.299778"><ele>823.3</ele><time>2012-05-03T10:36:06.0000000+00:00</time></trkpt><trkpt lat="43.149307" lon="19.299786"><ele>823.3</ele><time>2012-05-03T10:36:11.0000000+00:00</time></trkpt><trkpt lat="43.1493" lon="19.299793"><ele>823.4</ele><time>2012-05-03T10:36:16.0000000+00:00</time></trkpt><trkpt lat="43.149288" lon="19.299784"><ele>823.4</ele><time>2012-05-03T10:36:21.0000000+00:00</time></trkpt><trkpt lat="43.149055" lon="19.299789"><ele>814.0</ele><time>2012-05-03T10:36:26.0000000+00:00</time></trkpt><trkpt lat="43.148983" lon="19.299707"><ele>810.4</ele><time>2012-05-03T10:36:31.0000000+00:00</time></trkpt><trkpt lat="43.148903" lon="19.299736"><ele>801.7</ele><time>2012-05-03T10:36:36.0000000+00:00</time></trkpt><trkpt lat="43.148907" lon="19.299717"><ele>792.0</ele><time>2012-05-03T10:36:41.0000000+00:00</time></trkpt><trkpt lat="43.148937" lon="19.29961"><ele>784.8</ele><time>2012-05-03T10:36:46.0000000+00:00</time></trkpt><trkpt lat="43.148922" lon="19.299547"><ele>780.4</ele><time>2012-05-03T10:36:51.0000000+00:00</time></trkpt><trkpt lat="43.148918" lon="19.299503"><ele>775.1</ele><time>2012-05-03T10:36:56.0000000+00:00</time></trkpt><trkpt lat="43.148926" lon="19.299471"><ele>773.8</ele><time>2012-05-03T10:37:01.0000000+00:00</time></trkpt><trkpt lat="43.148945" lon="19.29954"><ele>773.6</ele><time>2012-05-03T10:37:06.0000000+00:00</time></trkpt><trkpt lat="43.148983" lon="19.299488"><ele>773.0</ele><time>2012-05-03T10:37:11.0000000+00:00</time></trkpt><trkpt lat="43.148998" lon="19.299517"><ele>772.2</ele><time>2012-05-03T10:37:16.0000000+00:00</time></trkpt><trkpt lat="43.149021" lon="19.299528"><ele>771.7</ele><time>2012-05-03T10:37:21.0000000+00:00</time></trkpt><trkpt lat="43.149025" lon="19.299528"><ele>771.9</ele><time>2012-05-03T10:37:26.0000000+00:00</time></trkpt><trkpt lat="43.149025" lon="19.299564"><ele>771.7</ele><time>2012-05-03T10:37:31.0000000+00:00</time></trkpt><trkpt lat="43.149048" lon="19.299589"><ele>771.6</ele><time>2012-05-03T10:37:36.0000000+00:00</time></trkpt><trkpt lat="43.149029" lon="19.299623"><ele>771.3</ele><time>2012-05-03T10:37:41.0000000+00:00</time></trkpt><trkpt lat="43.149025" lon="19.299643"><ele>770.9</ele><time>2012-05-03T10:37:46.0000000+00:00</time></trkpt><trkpt lat="43.149025" lon="19.299654"><ele>770.9</ele><time>2012-05-03T10:37:51.0000000+00:00</time></trkpt><trkpt lat="43.149021" lon="19.299667"><ele>770.9</ele><time>2012-05-03T10:37:56.0000000+00:00</time></trkpt><trkpt lat="43.149014" lon="19.29969"><ele>770.6</ele><time>2012-05-03T10:38:01.0000000+00:00</time></trkpt><trkpt lat="43.149033" lon="19.299692"><ele>769.4</ele><time>2012-05-03T10:38:06.0000000+00:00</time></trkpt><trkpt lat="43.149044" lon="19.299671"><ele>768.9</ele><time>2012-05-03T10:38:11.0000000+00:00</time></trkpt><trkpt lat="43.149052" lon="19.299679"><ele>769.0</ele><time>2012-05-03T10:38:16.0000000+00:00</time></trkpt><trkpt lat="43.149067" lon="19.29969"><ele>769.2</ele><time>2012-05-03T10:38:21.0000000+00:00</time></trkpt><trkpt lat="43.149055" lon="19.299715"><ele>768.1</ele><time>2012-05-03T10:38:26.0000000+00:00</time></trkpt><trkpt lat="43.149052" lon="19.299726"><ele>768.1</ele><time>2012-05-03T10:38:31.0000000+00:00</time></trkpt><trkpt lat="43.149048" lon="19.299738"><ele>768.2</ele><time>2012-05-03T10:38:36.0000000+00:00</time></trkpt><trkpt lat="43.149048" lon="19.299707"><ele>767.4</ele><time>2012-05-03T10:38:41.0000000+00:00</time></trkpt><trkpt lat="43.14904" lon="19.299677"><ele>767.2</ele><time>2012-05-03T10:38:46.0000000+00:00</time></trkpt><trkpt lat="43.149044" lon="19.299679"><ele>767.2</ele><time>2012-05-03T10:38:51.0000000+00:00</time></trkpt><trkpt lat="43.149044" lon="19.299685"><ele>767.2</ele><time>2012-05-03T10:38:56.0000000+00:00</time></trkpt><trkpt lat="43.149044" lon="19.299692"><ele>767.2</ele><time>2012-05-03T10:39:01.0000000+00:00</time></trkpt><trkpt lat="43.149044" lon="19.299704"><ele>767.2</ele><time>2012-05-03T10:39:06.0000000+00:00</time></trkpt><trkpt lat="43.149044" lon="19.299713"><ele>767.2</ele><time>2012-05-03T10:39:11.0000000+00:00</time></trkpt><trkpt lat="43.14904" lon="19.299713"><ele>767.1</ele><time>2012-05-03T10:39:16.0000000+00:00</time></trkpt><trkpt lat="43.149044" lon="19.299726"><ele>767.1</ele><time>2012-05-03T10:39:21.0000000+00:00</time></trkpt><trkpt lat="43.149048" lon="19.299738"><ele>767.1</ele><time>2012-05-03T10:39:26.0000000+00:00</time></trkpt><trkpt lat="43.149025" lon="19.299728"><ele>767.1</ele><time>2012-05-03T10:39:31.0000000+00:00</time></trkpt><trkpt lat="43.14901" lon="19.299711"><ele>767.0</ele><time>2012-05-03T10:39:36.0000000+00:00</time></trkpt><trkpt lat="43.149025" lon="19.299692"><ele>766.9</ele><time>2012-05-03T10:39:41.0000000+00:00</time></trkpt><trkpt lat="43.149025" lon="19.299698"><ele>766.9</ele><time>2012-05-03T10:39:46.0000000+00:00</time></trkpt><trkpt lat="43.149029" lon="19.299696"><ele>766.9</ele><time>2012-05-03T10:39:51.0000000+00:00</time></trkpt><trkpt lat="43.149036" lon="19.299707"><ele>767.0</ele><time>2012-05-03T10:39:56.0000000+00:00</time></trkpt><trkpt lat="43.149021" lon="19.299698"><ele>766.6</ele><time>2012-05-03T10:40:01.0000000+00:00</time></trkpt><trkpt lat="43.149033" lon="19.299706"><ele>766.6</ele><time>2012-05-03T10:40:06.0000000+00:00</time></trkpt><trkpt lat="43.14904" lon="19.299715"><ele>766.4</ele><time>2012-05-03T10:40:11.0000000+00:00</time></trkpt><trkpt lat="43.149071" lon="19.299704"><ele>766.2</ele><time>2012-05-03T10:40:16.0000000+00:00</time></trkpt><trkpt lat="43.149078" lon="19.299713"><ele>766.2</ele><time>2012-05-03T10:40:21.0000000+00:00</time></trkpt><trkpt lat="43.149067" lon="19.299719"><ele>766.2</ele><time>2012-05-03T10:40:26.0000000+00:00</time></trkpt><trkpt lat="43.149059" lon="19.299765"><ele>766.2</ele><time>2012-05-03T10:40:31.0000000+00:00</time></trkpt><trkpt lat="43.148998" lon="19.299801"><ele>766.0</ele><time>2012-05-03T10:40:36.0000000+00:00</time></trkpt><trkpt lat="43.14896" lon="19.299805"><ele>765.8</ele><time>2012-05-03T10:40:41.0000000+00:00</time></trkpt><trkpt lat="43.148956" lon="19.299793"><ele>765.4</ele><time>2012-05-03T10:40:46.0000000+00:00</time></trkpt><trkpt lat="43.148964" lon="19.299797"><ele>765.4</ele><time>2012-05-03T10:40:51.0000000+00:00</time></trkpt><trkpt lat="43.148983" lon="19.299713"><ele>764.8</ele><time>2012-05-03T10:40:56.0000000+00:00</time></trkpt><trkpt lat="43.148983" lon="19.29969"><ele>764.1</ele><time>2012-05-03T10:41:01.0000000+00:00</time></trkpt><trkpt lat="43.148972" lon="19.299633"><ele>762.6</ele><time>2012-05-03T10:41:06.0000000+00:00</time></trkpt><trkpt lat="43.148975" lon="19.299637"><ele>762.3</ele><time>2012-05-03T10:41:11.0000000+00:00</time></trkpt><trkpt lat="43.148983" lon="19.299639"><ele>762.3</ele><time>2012-05-03T10:41:16.0000000+00:00</time></trkpt><trkpt lat="43.148979" lon="19.299641"><ele>762.3</ele><time>2012-05-03T10:41:21.0000000+00:00</time></trkpt><trkpt lat="43.148964" lon="19.299631"><ele>762.3</ele><time>2012-05-03T10:41:26.0000000+00:00</time></trkpt><trkpt lat="43.14896" lon="19.299616"><ele>761.8</ele><time>2012-05-03T10:41:31.0000000+00:00</time></trkpt><trkpt lat="43.148945" lon="19.29961"><ele>761.8</ele><time>2012-05-03T10:41:36.0000000+00:00</time></trkpt><trkpt lat="43.148937" lon="19.299587"><ele>761.7</ele><time>2012-05-03T10:41:41.0000000+00:00</time></trkpt><trkpt lat="43.148926" lon="19.299551"><ele>761.5</ele><time>2012-05-03T10:41:46.0000000+00:00</time></trkpt><trkpt lat="43.148918" lon="19.299526"><ele>761.3</ele><time>2012-05-03T10:41:51.0000000+00:00</time></trkpt><trkpt lat="43.148926" lon="19.29952"><ele>761.0</ele><time>2012-05-03T10:41:56.0000000+00:00</time></trkpt><trkpt lat="43.148918" lon="19.299534"><ele>761.0</ele><time>2012-05-03T10:42:01.0000000+00:00</time></trkpt><trkpt lat="43.148918" lon="19.299528"><ele>761.1</ele><time>2012-05-03T10:42:06.0000000+00:00</time></trkpt><trkpt lat="43.148918" lon="19.29953"><ele>761.1</ele><time>2012-05-03T10:42:11.0000000+00:00</time></trkpt><trkpt lat="43.148914" lon="19.299526"><ele>761.1</ele><time>2012-05-03T10:42:16.0000000+00:00</time></trkpt><trkpt lat="43.148922" lon="19.299599"><ele>761.0</ele><time>2012-05-03T10:42:21.0000000+00:00</time></trkpt><trkpt lat="43.148907" lon="19.299614"><ele>760.8</ele><time>2012-05-03T10:42:26.0000000+00:00</time></trkpt><trkpt lat="43.148865" lon="19.299654"><ele>760.5</ele><time>2012-05-03T10:42:31.0000000+00:00</time></trkpt><trkpt lat="43.148869" lon="19.299646"><ele>760.5</ele><time>2012-05-03T10:42:36.0000000+00:00</time></trkpt><trkpt lat="43.148872" lon="19.299641"><ele>760.2</ele><time>2012-05-03T10:42:41.0000000+00:00</time></trkpt><trkpt lat="43.14888" lon="19.299627"><ele>760.1</ele><time>2012-05-03T10:42:46.0000000+00:00</time></trkpt><trkpt lat="43.14896" lon="19.299713"><ele>760.0</ele><time>2012-05-03T10:42:51.0000000+00:00</time></trkpt><trkpt lat="43.148972" lon="19.29973"><ele>760.0</ele><time>2012-05-03T10:42:56.0000000+00:00</time></trkpt><trkpt lat="43.148956" lon="19.299774"><ele>759.3</ele><time>2012-05-03T10:43:01.0000000+00:00</time></trkpt><trkpt lat="43.148952" lon="19.299757"><ele>759.6</ele><time>2012-05-03T10:43:06.0000000+00:00</time></trkpt><trkpt lat="43.148972" lon="19.299692"><ele>759.0</ele><time>2012-05-03T10:43:11.0000000+00:00</time></trkpt><trkpt lat="43.148998" lon="19.299635"><ele>758.7</ele><time>2012-05-03T10:43:16.0000000+00:00</time></trkpt><trkpt lat="43.148979" lon="19.299585"><ele>758.7</ele><time>2012-05-03T10:43:21.0000000+00:00</time></trkpt><trkpt lat="43.148964" lon="19.299549"><ele>758.8</ele><time>2012-05-03T10:43:26.0000000+00:00</time></trkpt><trkpt lat="43.148949" lon="19.299549"><ele>758.6</ele><time>2012-05-03T10:43:31.0000000+00:00</time></trkpt><trkpt lat="43.148952" lon="19.299614"><ele>758.7</ele><time>2012-05-03T10:43:36.0000000+00:00</time></trkpt><trkpt lat="43.148956" lon="19.299643"><ele>758.9</ele><time>2012-05-03T10:43:41.0000000+00:00</time></trkpt><trkpt lat="43.148968" lon="19.299664"><ele>759.1</ele><time>2012-05-03T10:43:46.0000000+00:00</time></trkpt><trkpt lat="43.14896" lon="19.299683"><ele>758.8</ele><time>2012-05-03T10:43:51.0000000+00:00</time></trkpt><trkpt lat="43.148987" lon="19.299686"><ele>758.6</ele><time>2012-05-03T10:43:56.0000000+00:00</time></trkpt><trkpt lat="43.149014" lon="19.299702"><ele>758.5</ele><time>2012-05-03T10:44:01.0000000+00:00</time></trkpt><trkpt lat="43.149029" lon="19.299709"><ele>757.7</ele><time>2012-05-03T10:44:06.0000000+00:00</time></trkpt><trkpt lat="43.14904" lon="19.299696"><ele>757.6</ele><time>2012-05-03T10:44:11.0000000+00:00</time></trkpt><trkpt lat="43.14904" lon="19.299688"><ele>757.6</ele><time>2012-05-03T10:44:16.0000000+00:00</time></trkpt><trkpt lat="43.149059" lon="19.29969"><ele>757.3</ele><time>2012-05-03T10:44:21.0000000+00:00</time></trkpt><trkpt lat="43.149063" lon="19.299719"><ele>756.4</ele><time>2012-05-03T10:44:26.0000000+00:00</time></trkpt><trkpt lat="43.149052" lon="19.29973"><ele>755.9</ele><time>2012-05-03T10:44:31.0000000+00:00</time></trkpt><trkpt lat="43.149048" lon="19.299723"><ele>755.9</ele><time>2012-05-03T10:44:36.0000000+00:00</time></trkpt><trkpt lat="43.149048" lon="19.299728"><ele>755.8</ele><time>2012-05-03T10:44:41.0000000+00:00</time></trkpt><trkpt lat="43.149017" lon="19.299686"><ele>755.7</ele><time>2012-05-03T10:44:46.0000000+00:00</time></trkpt><trkpt lat="43.149048" lon="19.299646"><ele>755.8</ele><time>2012-05-03T10:44:51.0000000+00:00</time></trkpt><trkpt lat="43.149052" lon="19.29965"><ele>755.1</ele><time>2012-05-03T10:44:56.0000000+00:00</time></trkpt><trkpt lat="43.14904" lon="19.299671"><ele>754.4</ele><time>2012-05-03T10:45:01.0000000+00:00</time></trkpt><trkpt lat="43.14904" lon="19.299673"><ele>754.4</ele><time>2012-05-03T10:45:06.0000000+00:00</time></trkpt><trkpt lat="43.149025" lon="19.299685"><ele>754.6</ele><time>2012-05-03T10:45:11.0000000+00:00</time></trkpt><trkpt lat="43.149017" lon="19.299694"><ele>754.6</ele><time>2012-05-03T10:45:16.0000000+00:00</time></trkpt><trkpt lat="43.149017" lon="19.299706"><ele>754.6</ele><time>2012-05-03T10:45:21.0000000+00:00</time></trkpt><trkpt lat="43.149014" lon="19.299706"><ele>754.4</ele><time>2012-05-03T10:45:26.0000000+00:00</time></trkpt><trkpt lat="43.14901" lon="19.2997"><ele>754.4</ele><time>2012-05-03T10:45:31.0000000+00:00</time></trkpt><trkpt lat="43.149017" lon="19.299679"><ele>754.3</ele><time>2012-05-03T10:45:36.0000000+00:00</time></trkpt><trkpt lat="43.148991" lon="19.29962"><ele>754.3</ele><time>2012-05-03T10:45:41.0000000+00:00</time></trkpt><trkpt lat="43.148994" lon="19.299595"><ele>754.2</ele><time>2012-05-03T10:45:46.0000000+00:00</time></trkpt><trkpt lat="43.148994" lon="19.299603"><ele>754.2</ele><time>2012-05-03T10:45:51.0000000+00:00</time></trkpt><trkpt lat="43.148991" lon="19.299603"><ele>754.2</ele><time>2012-05-03T10:45:56.0000000+00:00</time></trkpt><trkpt lat="43.148994" lon="19.299597"><ele>754.2</ele><time>2012-05-03T10:46:01.0000000+00:00</time></trkpt><trkpt lat="43.149029" lon="19.299593"><ele>754.1</ele><time>2012-05-03T10:46:06.0000000+00:00</time></trkpt><trkpt lat="43.149033" lon="19.299606"><ele>754.1</ele><time>2012-05-03T10:46:11.0000000+00:00</time></trkpt><trkpt lat="43.149036" lon="19.299606"><ele>754.1</ele><time>2012-05-03T10:46:16.0000000+00:00</time></trkpt><trkpt lat="43.149059" lon="19.299599"><ele>754.2</ele><time>2012-05-03T10:46:21.0000000+00:00</time></trkpt><trkpt lat="43.149052" lon="19.299604"><ele>754.3</ele><time>2012-05-03T10:46:26.0000000+00:00</time></trkpt><trkpt lat="43.149063" lon="19.299595"><ele>754.4</ele><time>2012-05-03T10:46:31.0000000+00:00</time></trkpt><trkpt lat="43.149059" lon="19.299576"><ele>754.6</ele><time>2012-05-03T10:46:36.0000000+00:00</time></trkpt><trkpt lat="43.149025" lon="19.299536"><ele>754.6</ele><time>2012-05-03T10:46:41.0000000+00:00</time></trkpt><trkpt lat="43.149044" lon="19.29954"><ele>754.6</ele><time>2012-05-03T10:46:46.0000000+00:00</time></trkpt><trkpt lat="43.149055" lon="19.299524"><ele>754.6</ele><time>2012-05-03T10:46:51.0000000+00:00</time></trkpt><trkpt lat="43.149055" lon="19.299524"><ele>754.8</ele><time>2012-05-03T10:46:56.0000000+00:00</time></trkpt><trkpt lat="43.149082" lon="19.2995"><ele>754.9</ele><time>2012-05-03T10:47:01.0000000+00:00</time></trkpt><trkpt lat="43.149094" lon="19.299498"><ele>755.0</ele><time>2012-05-03T10:47:06.0000000+00:00</time></trkpt><trkpt lat="43.149097" lon="19.299501"><ele>755.1</ele><time>2012-05-03T10:47:11.0000000+00:00</time></trkpt><trkpt lat="43.149036" lon="19.29965"><ele>753.5</ele><time>2012-05-03T10:47:16.0000000+00:00</time></trkpt><trkpt lat="43.149025" lon="19.299706"><ele>753.1</ele><time>2012-05-03T10:47:21.0000000+00:00</time></trkpt><trkpt lat="43.149021" lon="19.299688"><ele>752.4</ele><time>2012-05-03T10:47:26.0000000+00:00</time></trkpt><trkpt lat="43.149002" lon="19.299639"><ele>752.5</ele><time>2012-05-03T10:47:31.0000000+00:00</time></trkpt><trkpt lat="43.149014" lon="19.299629"><ele>752.7</ele><time>2012-05-03T10:47:36.0000000+00:00</time></trkpt><trkpt lat="43.149014" lon="19.299641"><ele>752.5</ele><time>2012-05-03T10:47:41.0000000+00:00</time></trkpt><trkpt lat="43.14901" lon="19.29966"><ele>752.3</ele><time>2012-05-03T10:47:46.0000000+00:00</time></trkpt><trkpt lat="43.149017" lon="19.299692"><ele>751.9</ele><time>2012-05-03T10:47:51.0000000+00:00</time></trkpt><trkpt lat="43.149017" lon="19.299732"><ele>752.1</ele><time>2012-05-03T10:47:56.0000000+00:00</time></trkpt><trkpt lat="43.148998" lon="19.299732"><ele>752.2</ele><time>2012-05-03T10:48:01.0000000+00:00</time></trkpt><trkpt lat="43.148987" lon="19.299709"><ele>752.2</ele><time>2012-05-03T10:48:06.0000000+00:00</time></trkpt><trkpt lat="43.148983" lon="19.299704"><ele>752.2</ele><time>2012-05-03T10:48:11.0000000+00:00</time></trkpt><trkpt lat="43.148983" lon="19.299709"><ele>752.2</ele><time>2012-05-03T10:48:16.0000000+00:00</time></trkpt><trkpt lat="43.148987" lon="19.299721"><ele>752.1</ele><time>2012-05-03T10:48:21.0000000+00:00</time></trkpt><trkpt lat="43.148991" lon="19.299723"><ele>752.1</ele><time>2012-05-03T10:48:26.0000000+00:00</time></trkpt><trkpt lat="43.148987" lon="19.299725"><ele>752.1</ele><time>2012-05-03T10:48:31.0000000+00:00</time></trkpt><trkpt lat="43.148987" lon="19.299728"><ele>752.2</ele><time>2012-05-03T10:48:36.0000000+00:00</time></trkpt><trkpt lat="43.148979" lon="19.299732"><ele>752.2</ele><time>2012-05-03T10:48:41.0000000+00:00</time></trkpt><trkpt lat="43.148975" lon="19.29973"><ele>752.2</ele><time>2012-05-03T10:48:46.0000000+00:00</time></trkpt><trkpt lat="43.148979" lon="19.29973"><ele>752.2</ele><time>2012-05-03T10:48:51.0000000+00:00</time></trkpt><trkpt lat="43.148972" lon="19.299732"><ele>752.2</ele><time>2012-05-03T10:48:56.0000000+00:00</time></trkpt><trkpt lat="43.148975" lon="19.299696"><ele>752.4</ele><time>2012-05-03T10:49:01.0000000+00:00</time></trkpt><trkpt lat="43.14901" lon="19.299681"><ele>752.6</ele><time>2012-05-03T10:49:06.0000000+00:00</time></trkpt><trkpt lat="43.149036" lon="19.299677"><ele>752.8</ele><time>2012-05-03T10:49:11.0000000+00:00</time></trkpt><trkpt lat="43.14909" lon="19.299574"><ele>753.0</ele><time>2012-05-03T10:49:16.0000000+00:00</time></trkpt><trkpt lat="43.149101" lon="19.299538"><ele>753.4</ele><time>2012-05-03T10:49:21.0000000+00:00</time></trkpt><trkpt lat="43.149052" lon="19.299496"><ele>753.9</ele><time>2012-05-03T10:49:26.0000000+00:00</time></trkpt><trkpt lat="43.148991" lon="19.299505"><ele>754.0</ele><time>2012-05-03T10:49:31.0000000+00:00</time></trkpt><trkpt lat="43.148998" lon="19.299541"><ele>754.4</ele><time>2012-05-03T10:49:36.0000000+00:00</time></trkpt><trkpt lat="43.149044" lon="19.299622"><ele>755.4</ele><time>2012-05-03T10:49:41.0000000+00:00</time></trkpt><trkpt lat="43.149033" lon="19.299637"><ele>756.9</ele><time>2012-05-03T10:49:46.0000000+00:00</time></trkpt><trkpt lat="43.14912" lon="19.299574"><ele>757.7</ele><time>2012-05-03T10:49:51.0000000+00:00</time></trkpt><trkpt lat="43.149307" lon="19.299446"><ele>757.2</ele><time>2012-05-03T10:49:56.0000000+00:00</time></trkpt><trkpt lat="43.14949" lon="19.299204"><ele>755.7</ele><time>2012-05-03T10:50:01.0000000+00:00</time></trkpt><trkpt lat="43.149639" lon="19.298904"><ele>754.7</ele><time>2012-05-03T10:50:06.0000000+00:00</time></trkpt><trkpt lat="43.149799" lon="19.298647"><ele>753.8</ele><time>2012-05-03T10:50:11.0000000+00:00</time></trkpt><trkpt lat="43.149982" lon="19.298521"><ele>753.0</ele><time>2012-05-03T10:50:16.0000000+00:00</time></trkpt><trkpt lat="43.150047" lon="19.298307"><ele>752.8</ele><time>2012-05-03T10:50:21.0000000+00:00</time></trkpt><trkpt lat="43.150085" lon="19.298149"><ele>754.1</ele><time>2012-05-03T10:50:26.0000000+00:00</time></trkpt><trkpt lat="43.150131" lon="19.298002"><ele>754.3</ele><time>2012-05-03T10:50:31.0000000+00:00</time></trkpt><trkpt lat="43.150227" lon="19.297852"><ele>754.8</ele><time>2012-05-03T10:50:36.0000000+00:00</time></trkpt><trkpt lat="43.150303" lon="19.297703"><ele>756.8</ele><time>2012-05-03T10:50:41.0000000+00:00</time></trkpt><trkpt lat="43.15036" lon="19.29751"><ele>757.7</ele><time>2012-05-03T10:50:46.0000000+00:00</time></trkpt><trkpt lat="43.150402" lon="19.297268"><ele>759.0</ele><time>2012-05-03T10:50:51.0000000+00:00</time></trkpt><trkpt lat="43.150467" lon="19.297014"><ele>759.5</ele><time>2012-05-03T10:50:56.0000000+00:00</time></trkpt><trkpt lat="43.150585" lon="19.296843"><ele>761.7</ele><time>2012-05-03T10:51:01.0000000+00:00</time></trkpt><trkpt lat="43.150696" lon="19.296659"><ele>764.9</ele><time>2012-05-03T10:51:06.0000000+00:00</time></trkpt><trkpt lat="43.150764" lon="19.296436"><ele>767.7</ele><time>2012-05-03T10:51:11.0000000+00:00</time></trkpt><trkpt lat="43.150791" lon="19.296213"><ele>768.4</ele><time>2012-05-03T10:51:16.0000000+00:00</time></trkpt><trkpt lat="43.150818" lon="19.296007"><ele>769.7</ele><time>2012-05-03T10:51:21.0000000+00:00</time></trkpt><trkpt lat="43.150799" lon="19.295923"><ele>769.3</ele><time>2012-05-03T10:51:26.0000000+00:00</time></trkpt><trkpt lat="43.150715" lon="19.295734"><ele>770.0</ele><time>2012-05-03T10:51:31.0000000+00:00</time></trkpt><trkpt lat="43.150528" lon="19.29541"><ele>771.2</ele><time>2012-05-03T10:51:36.0000000+00:00</time></trkpt><trkpt lat="43.150265" lon="19.295088"><ele>772.5</ele><time>2012-05-03T10:51:41.0000000+00:00</time></trkpt><trkpt lat="43.149982" lon="19.294777"><ele>771.1</ele><time>2012-05-03T10:51:46.0000000+00:00</time></trkpt><trkpt lat="43.1497" lon="19.29447"><ele>771.9</ele><time>2012-05-03T10:51:51.0000000+00:00</time></trkpt><trkpt lat="43.149437" lon="19.294073"><ele>772.5</ele><time>2012-05-03T10:51:56.0000000+00:00</time></trkpt><trkpt lat="43.149197" lon="19.293652"><ele>772.2</ele><time>2012-05-03T10:52:01.0000000+00:00</time></trkpt><trkpt lat="43.148975" lon="19.293198"><ele>773.0</ele><time>2012-05-03T10:52:06.0000000+00:00</time></trkpt><trkpt lat="43.148804" lon="19.292768"><ele>773.3</ele><time>2012-05-03T10:52:11.0000000+00:00</time></trkpt><trkpt lat="43.148659" lon="19.292341"><ele>773.2</ele><time>2012-05-03T10:52:16.0000000+00:00</time></trkpt><trkpt lat="43.148582" lon="19.292086"><ele>774.0</ele><time>2012-05-03T10:52:21.0000000+00:00</time></trkpt><trkpt lat="43.148453" lon="19.29204"><ele>775.4</ele><time>2012-05-03T10:52:26.0000000+00:00</time></trkpt><trkpt lat="43.148281" lon="19.29207"><ele>775.8</ele><time>2012-05-03T10:52:31.0000000+00:00</time></trkpt><trkpt lat="43.148033" lon="19.292091"><ele>775.9</ele><time>2012-05-03T10:52:36.0000000+00:00</time></trkpt><trkpt lat="43.147717" lon="19.292049"><ele>775.7</ele><time>2012-05-03T10:52:41.0000000+00:00</time></trkpt><trkpt lat="43.147377" lon="19.291998"><ele>774.8</ele><time>2012-05-03T10:52:46.0000000+00:00</time></trkpt><trkpt lat="43.146969" lon="19.291948"><ele>772.9</ele><time>2012-05-03T10:52:51.0000000+00:00</time></trkpt><trkpt lat="43.146557" lon="19.29196"><ele>771.3</ele><time>2012-05-03T10:52:56.0000000+00:00</time></trkpt><trkpt lat="43.146206" lon="19.292093"><ele>771.5</ele><time>2012-05-03T10:53:01.0000000+00:00</time></trkpt><trkpt lat="43.14584" lon="19.292391"><ele>771.6</ele><time>2012-05-03T10:53:06.0000000+00:00</time></trkpt><trkpt lat="43.14539" lon="19.292711"><ele>771.6</ele><time>2012-05-03T10:53:11.0000000+00:00</time></trkpt><trkpt lat="43.145031" lon="19.293024"><ele>772.0</ele><time>2012-05-03T10:53:16.0000000+00:00</time></trkpt><trkpt lat="43.144627" lon="19.293316"><ele>770.5</ele><time>2012-05-03T10:53:21.0000000+00:00</time></trkpt><trkpt lat="43.144253" lon="19.293736"><ele>768.9</ele><time>2012-05-03T10:53:26.0000000+00:00</time></trkpt><trkpt lat="43.143951" lon="19.294218"><ele>769.7</ele><time>2012-05-03T10:53:31.0000000+00:00</time></trkpt><trkpt lat="43.143547" lon="19.294735"><ele>768.0</ele><time>2012-05-03T10:53:36.0000000+00:00</time></trkpt><trkpt lat="43.142929" lon="19.295126"><ele>766.6</ele><time>2012-05-03T10:53:41.0000000+00:00</time></trkpt><trkpt lat="43.142475" lon="19.295559"><ele>764.8</ele><time>2012-05-03T10:53:46.0000000+00:00</time></trkpt><trkpt lat="43.142151" lon="19.296139"><ele>763.2</ele><time>2012-05-03T10:53:51.0000000+00:00</time></trkpt><trkpt lat="43.141872" lon="19.29669"><ele>762.1</ele><time>2012-05-03T10:53:56.0000000+00:00</time></trkpt><trkpt lat="43.141537" lon="19.297203"><ele>760.3</ele><time>2012-05-03T10:54:01.0000000+00:00</time></trkpt><trkpt lat="43.14114" lon="19.29768"><ele>758.8</ele><time>2012-05-03T10:54:06.0000000+00:00</time></trkpt><trkpt lat="43.140831" lon="19.298084"><ele>758.7</ele><time>2012-05-03T10:54:11.0000000+00:00</time></trkpt><trkpt lat="43.140526" lon="19.298536"><ele>757.9</ele><time>2012-05-03T10:54:16.0000000+00:00</time></trkpt><trkpt lat="43.140011" lon="19.298977"><ele>752.0</ele><time>2012-05-03T10:54:21.0000000+00:00</time></trkpt><trkpt lat="43.13953" lon="19.299097"><ele>751.9</ele><time>2012-05-03T10:54:26.0000000+00:00</time></trkpt><trkpt lat="43.139103" lon="19.299219"><ele>750.5</ele><time>2012-05-03T10:54:31.0000000+00:00</time></trkpt><trkpt lat="43.138767" lon="19.299448"><ele>749.1</ele><time>2012-05-03T10:54:36.0000000+00:00</time></trkpt><trkpt lat="43.138489" lon="19.299591"><ele>746.9</ele><time>2012-05-03T10:54:41.0000000+00:00</time></trkpt><trkpt lat="43.138306" lon="19.299698"><ele>746.3</ele><time>2012-05-03T10:54:46.0000000+00:00</time></trkpt><trkpt lat="43.134289" lon="19.307655"><ele>625.5</ele><time>2012-05-03T10:55:59.0000000+00:00</time></trkpt><trkpt lat="43.134052" lon="19.30806"><ele>578.9</ele><time>2012-05-03T10:56:04.0000000+00:00</time></trkpt><trkpt lat="43.133671" lon="19.308575"><ele>584.1</ele><time>2012-05-03T10:56:09.0000000+00:00</time></trkpt><trkpt lat="43.132881" lon="19.309017"><ele>598.9</ele><time>2012-05-03T10:56:14.0000000+00:00</time></trkpt><trkpt lat="43.132221" lon="19.309195"><ele>608.5</ele><time>2012-05-03T10:56:19.0000000+00:00</time></trkpt><trkpt lat="43.131615" lon="19.309139"><ele>608.3</ele><time>2012-05-03T10:56:24.0000000+00:00</time></trkpt><trkpt lat="43.130989" lon="19.308952"><ele>605.6</ele><time>2012-05-03T10:56:29.0000000+00:00</time></trkpt><trkpt lat="43.130329" lon="19.308973"><ele>605.1</ele><time>2012-05-03T10:56:34.0000000+00:00</time></trkpt><trkpt lat="43.129585" lon="19.309053"><ele>611.9</ele><time>2012-05-03T10:56:39.0000000+00:00</time></trkpt><trkpt lat="43.129002" lon="19.30941"><ele>618.4</ele><time>2012-05-03T10:56:44.0000000+00:00</time></trkpt><trkpt lat="43.128548" lon="19.309885"><ele>622.3</ele><time>2012-05-03T10:56:49.0000000+00:00</time></trkpt><trkpt lat="43.12822" lon="19.310204"><ele>622.8</ele><time>2012-05-03T10:56:54.0000000+00:00</time></trkpt><trkpt lat="43.127979" lon="19.310495"><ele>625.0</ele><time>2012-05-03T10:56:59.0000000+00:00</time></trkpt><trkpt lat="43.127846" lon="19.310623"><ele>625.8</ele><time>2012-05-03T10:57:04.0000000+00:00</time></trkpt><trkpt lat="43.127796" lon="19.310631"><ele>629.3</ele><time>2012-05-03T10:57:09.0000000+00:00</time></trkpt><trkpt lat="43.127796" lon="19.310627"><ele>632.3</ele><time>2012-05-03T10:57:14.0000000+00:00</time></trkpt><trkpt lat="43.127792" lon="19.310644"><ele>635.0</ele><time>2012-05-03T10:57:19.0000000+00:00</time></trkpt><trkpt lat="43.127792" lon="19.310602"><ele>636.6</ele><time>2012-05-03T10:57:24.0000000+00:00</time></trkpt><trkpt lat="43.127945" lon="19.310478"><ele>639.8</ele><time>2012-05-03T10:57:29.0000000+00:00</time></trkpt><trkpt lat="43.12825" lon="19.310083"><ele>636.7</ele><time>2012-05-03T10:57:34.0000000+00:00</time></trkpt><trkpt lat="43.128384" lon="19.309917"><ele>636.6</ele><time>2012-05-03T10:57:39.0000000+00:00</time></trkpt><trkpt lat="43.128365" lon="19.30986"><ele>637.7</ele><time>2012-05-03T10:57:44.0000000+00:00</time></trkpt><trkpt lat="43.128414" lon="19.309883"><ele>638.5</ele><time>2012-05-03T10:57:49.0000000+00:00</time></trkpt><trkpt lat="43.128456" lon="19.309998"><ele>638.9</ele><time>2012-05-03T10:57:54.0000000+00:00</time></trkpt><trkpt lat="43.128452" lon="19.309996"><ele>640.6</ele><time>2012-05-03T10:57:59.0000000+00:00</time></trkpt><trkpt lat="43.128456" lon="19.310013"><ele>641.1</ele><time>2012-05-03T10:58:04.0000000+00:00</time></trkpt><trkpt lat="43.128464" lon="19.310049"><ele>641.4</ele><time>2012-05-03T10:58:09.0000000+00:00</time></trkpt><trkpt lat="43.128468" lon="19.310078"><ele>641.9</ele><time>2012-05-03T10:58:14.0000000+00:00</time></trkpt><trkpt lat="43.12846" lon="19.310104"><ele>642.1</ele><time>2012-05-03T10:58:19.0000000+00:00</time></trkpt><trkpt lat="43.128445" lon="19.310122"><ele>642.6</ele><time>2012-05-03T10:58:24.0000000+00:00</time></trkpt><trkpt lat="43.128429" lon="19.310133"><ele>643.2</ele><time>2012-05-03T10:58:29.0000000+00:00</time></trkpt><trkpt lat="43.12841" lon="19.310146"><ele>643.8</ele><time>2012-05-03T10:58:34.0000000+00:00</time></trkpt><trkpt lat="43.128399" lon="19.310146"><ele>644.1</ele><time>2012-05-03T10:58:39.0000000+00:00</time></trkpt><trkpt lat="43.128384" lon="19.310154"><ele>644.4</ele><time>2012-05-03T10:58:44.0000000+00:00</time></trkpt><trkpt lat="43.128376" lon="19.310162"><ele>644.6</ele><time>2012-05-03T10:58:49.0000000+00:00</time></trkpt><trkpt lat="43.128361" lon="19.310163"><ele>644.8</ele><time>2012-05-03T10:58:54.0000000+00:00</time></trkpt><trkpt lat="43.128349" lon="19.310156"><ele>645.0</ele><time>2012-05-03T10:58:59.0000000+00:00</time></trkpt><trkpt lat="43.128338" lon="19.310148"><ele>645.1</ele><time>2012-05-03T10:59:04.0000000+00:00</time></trkpt><trkpt lat="43.128319" lon="19.310129"><ele>645.1</ele><time>2012-05-03T10:59:09.0000000+00:00</time></trkpt><trkpt lat="43.128311" lon="19.310104"><ele>645.2</ele><time>2012-05-03T10:59:14.0000000+00:00</time></trkpt><trkpt lat="43.128323" lon="19.31008"><ele>645.2</ele><time>2012-05-03T10:59:19.0000000+00:00</time></trkpt><trkpt lat="43.12833" lon="19.310072"><ele>645.2</ele><time>2012-05-03T10:59:24.0000000+00:00</time></trkpt><trkpt lat="43.128349" lon="19.310072"><ele>645.2</ele><time>2012-05-03T10:59:29.0000000+00:00</time></trkpt><trkpt lat="43.128387" lon="19.310019"><ele>644.8</ele><time>2012-05-03T10:59:34.0000000+00:00</time></trkpt><trkpt lat="43.128437" lon="19.309986"><ele>646.1</ele><time>2012-05-03T10:59:39.0000000+00:00</time></trkpt><trkpt lat="43.12849" lon="19.309971"><ele>646.5</ele><time>2012-05-03T10:59:44.0000000+00:00</time></trkpt><trkpt lat="43.128521" lon="19.309946"><ele>646.4</ele><time>2012-05-03T10:59:49.0000000+00:00</time></trkpt><trkpt lat="43.128548" lon="19.309927"><ele>646.2</ele><time>2012-05-03T10:59:54.0000000+00:00</time></trkpt><trkpt lat="43.128551" lon="19.309944"><ele>645.5</ele><time>2012-05-03T10:59:59.0000000+00:00</time></trkpt><trkpt lat="43.128567" lon="19.309944"><ele>645.3</ele><time>2012-05-03T11:00:04.0000000+00:00</time></trkpt><trkpt lat="43.128571" lon="19.30994"><ele>645.4</ele><time>2012-05-03T11:00:09.0000000+00:00</time></trkpt><trkpt lat="43.128601" lon="19.309956"><ele>645.2</ele><time>2012-05-03T11:00:14.0000000+00:00</time></trkpt><trkpt lat="43.128654" lon="19.309978"><ele>644.6</ele><time>2012-05-03T11:00:19.0000000+00:00</time></trkpt><trkpt lat="43.128681" lon="19.310015"><ele>644.2</ele><time>2012-05-03T11:00:24.0000000+00:00</time></trkpt><trkpt lat="43.12867" lon="19.310017"><ele>643.5</ele><time>2012-05-03T11:00:29.0000000+00:00</time></trkpt><trkpt lat="43.128712" lon="19.310024"><ele>642.2</ele><time>2012-05-03T11:00:34.0000000+00:00</time></trkpt><trkpt lat="43.128704" lon="19.310024"><ele>641.6</ele><time>2012-05-03T11:00:39.0000000+00:00</time></trkpt><trkpt lat="43.128677" lon="19.310011"><ele>641.7</ele><time>2012-05-03T11:00:44.0000000+00:00</time></trkpt><trkpt lat="43.128681" lon="19.310017"><ele>641.7</ele><time>2012-05-03T11:00:49.0000000+00:00</time></trkpt><trkpt lat="43.128681" lon="19.310013"><ele>641.8</ele><time>2012-05-03T11:00:54.0000000+00:00</time></trkpt><trkpt lat="43.128689" lon="19.310009"><ele>641.9</ele><time>2012-05-03T11:00:59.0000000+00:00</time></trkpt><trkpt lat="43.128658" lon="19.310068"><ele>640.1</ele><time>2012-05-03T11:01:04.0000000+00:00</time></trkpt><trkpt lat="43.128681" lon="19.310061"><ele>638.8</ele><time>2012-05-03T11:01:09.0000000+00:00</time></trkpt><trkpt lat="43.128666" lon="19.310114"><ele>637.6</ele><time>2012-05-03T11:01:14.0000000+00:00</time></trkpt><trkpt lat="43.128696" lon="19.310143"><ele>636.2</ele><time>2012-05-03T11:01:19.0000000+00:00</time></trkpt><trkpt lat="43.128704" lon="19.310141"><ele>636.0</ele><time>2012-05-03T11:01:24.0000000+00:00</time></trkpt><trkpt lat="43.128735" lon="19.310152"><ele>635.3</ele><time>2012-05-03T11:01:29.0000000+00:00</time></trkpt><trkpt lat="43.128761" lon="19.310205"><ele>634.0</ele><time>2012-05-03T11:01:34.0000000+00:00</time></trkpt><trkpt lat="43.128784" lon="19.310284"><ele>630.0</ele><time>2012-05-03T11:01:39.0000000+00:00</time></trkpt><trkpt lat="43.128773" lon="19.310307"><ele>629.2</ele><time>2012-05-03T11:01:44.0000000+00:00</time></trkpt><trkpt lat="43.128803" lon="19.310314"><ele>628.5</ele><time>2012-05-03T11:01:49.0000000+00:00</time></trkpt><trkpt lat="43.128853" lon="19.310314"><ele>628.1</ele><time>2012-05-03T11:01:54.0000000+00:00</time></trkpt><trkpt lat="43.128883" lon="19.310318"><ele>627.7</ele><time>2012-05-03T11:01:59.0000000+00:00</time></trkpt><trkpt lat="43.128887" lon="19.310337"><ele>625.8</ele><time>2012-05-03T11:02:04.0000000+00:00</time></trkpt><trkpt lat="43.128918" lon="19.310316"><ele>624.3</ele><time>2012-05-03T11:02:09.0000000+00:00</time></trkpt><trkpt lat="43.128963" lon="19.310278"><ele>623.6</ele><time>2012-05-03T11:02:14.0000000+00:00</time></trkpt><trkpt lat="43.128986" lon="19.310257"><ele>623.1</ele><time>2012-05-03T11:02:19.0000000+00:00</time></trkpt><trkpt lat="43.128941" lon="19.310287"><ele>622.9</ele><time>2012-05-03T11:02:24.0000000+00:00</time></trkpt><trkpt lat="43.128941" lon="19.310343"><ele>622.0</ele><time>2012-05-03T11:02:29.0000000+00:00</time></trkpt><trkpt lat="43.128899" lon="19.3104"><ele>620.6</ele><time>2012-05-03T11:02:34.0000000+00:00</time></trkpt><trkpt lat="43.128948" lon="19.310427"><ele>620.5</ele><time>2012-05-03T11:02:39.0000000+00:00</time></trkpt><trkpt lat="43.129002" lon="19.310465"><ele>619.5</ele><time>2012-05-03T11:02:44.0000000+00:00</time></trkpt><trkpt lat="43.129032" lon="19.310461"><ele>618.7</ele><time>2012-05-03T11:02:49.0000000+00:00</time></trkpt><trkpt lat="43.129021" lon="19.310402"><ele>618.4</ele><time>2012-05-03T11:02:54.0000000+00:00</time></trkpt><trkpt lat="43.128983" lon="19.310402"><ele>618.0</ele><time>2012-05-03T11:02:59.0000000+00:00</time></trkpt><trkpt lat="43.128872" lon="19.310387"><ele>616.7</ele><time>2012-05-03T11:03:04.0000000+00:00</time></trkpt><trkpt lat="43.12883" lon="19.3104"><ele>616.3</ele><time>2012-05-03T11:03:09.0000000+00:00</time></trkpt><trkpt lat="43.128811" lon="19.310387"><ele>616.2</ele><time>2012-05-03T11:03:14.0000000+00:00</time></trkpt><trkpt lat="43.128834" lon="19.310377"><ele>616.2</ele><time>2012-05-03T11:03:19.0000000+00:00</time></trkpt><trkpt lat="43.128876" lon="19.310373"><ele>615.2</ele><time>2012-05-03T11:03:24.0000000+00:00</time></trkpt><trkpt lat="43.12888" lon="19.310335"><ele>614.7</ele><time>2012-05-03T11:03:29.0000000+00:00</time></trkpt><trkpt lat="43.128864" lon="19.310287"><ele>613.5</ele><time>2012-05-03T11:03:34.0000000+00:00</time></trkpt><trkpt lat="43.128864" lon="19.310274"><ele>613.5</ele><time>2012-05-03T11:03:39.0000000+00:00</time></trkpt><trkpt lat="43.128872" lon="19.31027"><ele>613.5</ele><time>2012-05-03T11:03:44.0000000+00:00</time></trkpt><trkpt lat="43.128872" lon="19.31027"><ele>613.4</ele><time>2012-05-03T11:03:49.0000000+00:00</time></trkpt><trkpt lat="43.128864" lon="19.310249"><ele>612.9</ele><time>2012-05-03T11:03:54.0000000+00:00</time></trkpt><trkpt lat="43.128864" lon="19.310226"><ele>612.3</ele><time>2012-05-03T11:03:59.0000000+00:00</time></trkpt><trkpt lat="43.128857" lon="19.31023"><ele>612.0</ele><time>2012-05-03T11:04:04.0000000+00:00</time></trkpt><trkpt lat="43.128765" lon="19.310205"><ele>612.5</ele><time>2012-05-03T11:04:09.0000000+00:00</time></trkpt><trkpt lat="43.128674" lon="19.310188"><ele>613.5</ele><time>2012-05-03T11:04:14.0000000+00:00</time></trkpt><trkpt lat="43.128651" lon="19.310165"><ele>614.4</ele><time>2012-05-03T11:04:19.0000000+00:00</time></trkpt><trkpt lat="43.128651" lon="19.310141"><ele>614.5</ele><time>2012-05-03T11:04:24.0000000+00:00</time></trkpt><trkpt lat="43.128666" lon="19.310125"><ele>614.3</ele><time>2012-05-03T11:04:29.0000000+00:00</time></trkpt><trkpt lat="43.128654" lon="19.310122"><ele>614.3</ele><time>2012-05-03T11:04:34.0000000+00:00</time></trkpt><trkpt lat="43.128643" lon="19.310125"><ele>614.3</ele><time>2012-05-03T11:04:39.0000000+00:00</time></trkpt><trkpt lat="43.128616" lon="19.310089"><ele>614.1</ele><time>2012-05-03T11:04:44.0000000+00:00</time></trkpt><trkpt lat="43.128578" lon="19.310038"><ele>613.7</ele><time>2012-05-03T11:04:49.0000000+00:00</time></trkpt><trkpt lat="43.128544" lon="19.310019"><ele>614.2</ele><time>2012-05-03T11:04:54.0000000+00:00</time></trkpt><trkpt lat="43.128571" lon="19.310047"><ele>614.8</ele><time>2012-05-03T11:04:59.0000000+00:00</time></trkpt><trkpt lat="43.128635" lon="19.310123"><ele>615.7</ele><time>2012-05-03T11:05:04.0000000+00:00</time></trkpt><trkpt lat="43.128677" lon="19.310198"><ele>615.3</ele><time>2012-05-03T11:05:09.0000000+00:00</time></trkpt><trkpt lat="43.1287" lon="19.310221"><ele>615.3</ele><time>2012-05-03T11:05:14.0000000+00:00</time></trkpt><trkpt lat="43.128765" lon="19.310196"><ele>614.8</ele><time>2012-05-03T11:05:19.0000000+00:00</time></trkpt><trkpt lat="43.128819" lon="19.31016"><ele>614.4</ele><time>2012-05-03T11:05:24.0000000+00:00</time></trkpt><trkpt lat="43.128773" lon="19.310129"><ele>614.7</ele><time>2012-05-03T11:05:29.0000000+00:00</time></trkpt><trkpt lat="43.128719" lon="19.310059"><ele>614.8</ele><time>2012-05-03T11:05:34.0000000+00:00</time></trkpt><trkpt lat="43.128674" lon="19.310043"><ele>615.3</ele><time>2012-05-03T11:05:39.0000000+00:00</time></trkpt><trkpt lat="43.128658" lon="19.310087"><ele>615.8</ele><time>2012-05-03T11:05:44.0000000+00:00</time></trkpt><trkpt lat="43.128685" lon="19.310112"><ele>616.1</ele><time>2012-05-03T11:05:49.0000000+00:00</time></trkpt><trkpt lat="43.128693" lon="19.310112"><ele>616.1</ele><time>2012-05-03T11:05:54.0000000+00:00</time></trkpt><trkpt lat="43.128696" lon="19.31011"><ele>616.2</ele><time>2012-05-03T11:05:59.0000000+00:00</time></trkpt><trkpt lat="43.1287" lon="19.310116"><ele>616.2</ele><time>2012-05-03T11:06:04.0000000+00:00</time></trkpt><trkpt lat="43.128761" lon="19.310093"><ele>616.2</ele><time>2012-05-03T11:06:09.0000000+00:00</time></trkpt><trkpt lat="43.12878" lon="19.310066"><ele>615.4</ele><time>2012-05-03T11:06:14.0000000+00:00</time></trkpt><trkpt lat="43.128822" lon="19.310026"><ele>615.1</ele><time>2012-05-03T11:06:19.0000000+00:00</time></trkpt><trkpt lat="43.128841" lon="19.309944"><ele>615.0</ele><time>2012-05-03T11:06:24.0000000+00:00</time></trkpt><trkpt lat="43.12886" lon="19.309923"><ele>615.4</ele><time>2012-05-03T11:06:29.0000000+00:00</time></trkpt><trkpt lat="43.128849" lon="19.309954"><ele>616.3</ele><time>2012-05-03T11:06:34.0000000+00:00</time></trkpt><trkpt lat="43.128838" lon="19.30995"><ele>616.6</ele><time>2012-05-03T11:06:39.0000000+00:00</time></trkpt><trkpt lat="43.128834" lon="19.31002"><ele>616.6</ele><time>2012-05-03T11:06:44.0000000+00:00</time></trkpt><trkpt lat="43.128803" lon="19.310043"><ele>616.4</ele><time>2012-05-03T11:06:49.0000000+00:00</time></trkpt><trkpt lat="43.128788" lon="19.310099"><ele>615.5</ele><time>2012-05-03T11:06:54.0000000+00:00</time></trkpt><trkpt lat="43.12883" lon="19.310156"><ele>614.8</ele><time>2012-05-03T11:06:59.0000000+00:00</time></trkpt><trkpt lat="43.128887" lon="19.310207"><ele>614.1</ele><time>2012-05-03T11:07:04.0000000+00:00</time></trkpt><trkpt lat="43.12896" lon="19.310259"><ele>613.7</ele><time>2012-05-03T11:07:09.0000000+00:00</time></trkpt><trkpt lat="43.12899" lon="19.310322"><ele>613.3</ele><time>2012-05-03T11:07:14.0000000+00:00</time></trkpt><trkpt lat="43.129021" lon="19.310349"><ele>612.9</ele><time>2012-05-03T11:07:19.0000000+00:00</time></trkpt><trkpt lat="43.129044" lon="19.310228"><ele>611.6</ele><time>2012-05-03T11:07:24.0000000+00:00</time></trkpt><trkpt lat="43.129047" lon="19.310167"><ele>611.4</ele><time>2012-05-03T11:07:29.0000000+00:00</time></trkpt><trkpt lat="43.12904" lon="19.310137"><ele>611.9</ele><time>2012-05-03T11:07:34.0000000+00:00</time></trkpt><trkpt lat="43.129021" lon="19.31012"><ele>612.0</ele><time>2012-05-03T11:07:39.0000000+00:00</time></trkpt><trkpt lat="43.129005" lon="19.310034"><ele>612.0</ele><time>2012-05-03T11:07:44.0000000+00:00</time></trkpt><trkpt lat="43.129013" lon="19.309999"><ele>612.6</ele><time>2012-05-03T11:07:49.0000000+00:00</time></trkpt><trkpt lat="43.129028" lon="19.310017"><ele>613.1</ele><time>2012-05-03T11:07:54.0000000+00:00</time></trkpt><trkpt lat="43.129021" lon="19.309982"><ele>613.1</ele><time>2012-05-03T11:07:59.0000000+00:00</time></trkpt><trkpt lat="43.129002" lon="19.309999"><ele>613.2</ele><time>2012-05-03T11:08:04.0000000+00:00</time></trkpt><trkpt lat="43.129002" lon="19.310005"><ele>613.1</ele><time>2012-05-03T11:08:09.0000000+00:00</time></trkpt><trkpt lat="43.128979" lon="19.310017"><ele>613.1</ele><time>2012-05-03T11:08:14.0000000+00:00</time></trkpt><trkpt lat="43.128872" lon="19.310003"><ele>613.3</ele><time>2012-05-03T11:08:19.0000000+00:00</time></trkpt><trkpt lat="43.128811" lon="19.309998"><ele>613.3</ele><time>2012-05-03T11:08:24.0000000+00:00</time></trkpt><trkpt lat="43.128754" lon="19.310024"><ele>613.4</ele><time>2012-05-03T11:08:29.0000000+00:00</time></trkpt><trkpt lat="43.128704" lon="19.310036"><ele>613.4</ele><time>2012-05-03T11:08:34.0000000+00:00</time></trkpt><trkpt lat="43.128597" lon="19.310022"><ele>613.5</ele><time>2012-05-03T11:08:39.0000000+00:00</time></trkpt><trkpt lat="43.128544" lon="19.309961"><ele>613.4</ele><time>2012-05-03T11:08:44.0000000+00:00</time></trkpt><trkpt lat="43.128532" lon="19.309971"><ele>613.6</ele><time>2012-05-03T11:08:49.0000000+00:00</time></trkpt><trkpt lat="43.128536" lon="19.309977"><ele>613.8</ele><time>2012-05-03T11:08:54.0000000+00:00</time></trkpt><trkpt lat="43.128532" lon="19.309988"><ele>614.3</ele><time>2012-05-03T11:08:59.0000000+00:00</time></trkpt><trkpt lat="43.128571" lon="19.309992"><ele>614.3</ele><time>2012-05-03T11:09:04.0000000+00:00</time></trkpt><trkpt lat="43.128597" lon="19.309952"><ele>614.6</ele><time>2012-05-03T11:09:09.0000000+00:00</time></trkpt><trkpt lat="43.128651" lon="19.309963"><ele>614.8</ele><time>2012-05-03T11:09:14.0000000+00:00</time></trkpt><trkpt lat="43.128643" lon="19.309988"><ele>615.0</ele><time>2012-05-03T11:09:19.0000000+00:00</time></trkpt><trkpt lat="43.128601" lon="19.309998"><ele>615.5</ele><time>2012-05-03T11:09:24.0000000+00:00</time></trkpt><trkpt lat="43.128597" lon="19.310005"><ele>615.6</ele><time>2012-05-03T11:09:29.0000000+00:00</time></trkpt><trkpt lat="43.128593" lon="19.310005"><ele>615.6</ele><time>2012-05-03T11:09:34.0000000+00:00</time></trkpt><trkpt lat="43.128597" lon="19.310005"><ele>615.6</ele><time>2012-05-03T11:09:39.0000000+00:00</time></trkpt><trkpt lat="43.128601" lon="19.310015"><ele>615.6</ele><time>2012-05-03T11:09:44.0000000+00:00</time></trkpt><trkpt lat="43.128616" lon="19.310087"><ele>615.1</ele><time>2012-05-03T11:09:49.0000000+00:00</time></trkpt><trkpt lat="43.128654" lon="19.310078"><ele>614.7</ele><time>2012-05-03T11:09:54.0000000+00:00</time></trkpt><trkpt lat="43.128677" lon="19.310034"><ele>614.6</ele><time>2012-05-03T11:09:59.0000000+00:00</time></trkpt><trkpt lat="43.128712" lon="19.310005"><ele>614.6</ele><time>2012-05-03T11:10:04.0000000+00:00</time></trkpt><trkpt lat="43.128761" lon="19.310019"><ele>614.5</ele><time>2012-05-03T11:10:09.0000000+00:00</time></trkpt><trkpt lat="43.128792" lon="19.310047"><ele>613.9</ele><time>2012-05-03T11:10:14.0000000+00:00</time></trkpt><trkpt lat="43.128784" lon="19.310074"><ele>613.6</ele><time>2012-05-03T11:10:19.0000000+00:00</time></trkpt><trkpt lat="43.128807" lon="19.310106"><ele>613.4</ele><time>2012-05-03T11:10:24.0000000+00:00</time></trkpt><trkpt lat="43.12883" lon="19.310125"><ele>614.0</ele><time>2012-05-03T11:10:29.0000000+00:00</time></trkpt><trkpt lat="43.128849" lon="19.310104"><ele>615.4</ele><time>2012-05-03T11:10:34.0000000+00:00</time></trkpt><trkpt lat="43.128853" lon="19.310076"><ele>616.0</ele><time>2012-05-03T11:10:39.0000000+00:00</time></trkpt><trkpt lat="43.129063" lon="19.309994"><ele>616.8</ele><time>2012-05-03T11:10:44.0000000+00:00</time></trkpt><trkpt lat="43.129158" lon="19.309954"><ele>618.1</ele><time>2012-05-03T11:10:49.0000000+00:00</time></trkpt><trkpt lat="43.129234" lon="19.309912"><ele>619.1</ele><time>2012-05-03T11:10:54.0000000+00:00</time></trkpt><trkpt lat="43.129246" lon="19.309896"><ele>620.4</ele><time>2012-05-03T11:10:59.0000000+00:00</time></trkpt><trkpt lat="43.129272" lon="19.309799"><ele>622.0</ele><time>2012-05-03T11:11:04.0000000+00:00</time></trkpt><trkpt lat="43.129257" lon="19.309809"><ele>623.6</ele><time>2012-05-03T11:11:09.0000000+00:00</time></trkpt><trkpt lat="43.129246" lon="19.309813"><ele>624.7</ele><time>2012-05-03T11:11:14.0000000+00:00</time></trkpt><trkpt lat="43.129238" lon="19.309809"><ele>625.6</ele><time>2012-05-03T11:11:19.0000000+00:00</time></trkpt><trkpt lat="43.129269" lon="19.309814"><ele>627.2</ele><time>2012-05-03T11:11:24.0000000+00:00</time></trkpt><trkpt lat="43.129295" lon="19.309885"><ele>629.5</ele><time>2012-05-03T11:11:29.0000000+00:00</time></trkpt><trkpt lat="43.129292" lon="19.309917"><ele>630.0</ele><time>2012-05-03T11:11:34.0000000+00:00</time></trkpt><trkpt lat="43.129288" lon="19.309933"><ele>630.2</ele><time>2012-05-03T11:11:39.0000000+00:00</time></trkpt><trkpt lat="43.129303" lon="19.309944"><ele>630.3</ele><time>2012-05-03T11:11:44.0000000+00:00</time></trkpt><trkpt lat="43.129288" lon="19.309978"><ele>630.6</ele><time>2012-05-03T11:11:49.0000000+00:00</time></trkpt><trkpt lat="43.129288" lon="19.309971"><ele>630.8</ele><time>2012-05-03T11:11:54.0000000+00:00</time></trkpt><trkpt lat="43.129292" lon="19.309978"><ele>630.9</ele><time>2012-05-03T11:11:59.0000000+00:00</time></trkpt><trkpt lat="43.129261" lon="19.309969"><ele>631.1</ele><time>2012-05-03T11:12:04.0000000+00:00</time></trkpt><trkpt lat="43.129238" lon="19.309986"><ele>630.9</ele><time>2012-05-03T11:12:09.0000000+00:00</time></trkpt><trkpt lat="43.129227" lon="19.30999"><ele>630.9</ele><time>2012-05-03T11:12:14.0000000+00:00</time></trkpt><trkpt lat="43.129177" lon="19.309999"><ele>631.3</ele><time>2012-05-03T11:12:19.0000000+00:00</time></trkpt><trkpt lat="43.129158" lon="19.30994"><ele>631.3</ele><time>2012-05-03T11:12:24.0000000+00:00</time></trkpt><trkpt lat="43.129162" lon="19.309916"><ele>631.3</ele><time>2012-05-03T11:12:29.0000000+00:00</time></trkpt><trkpt lat="43.129135" lon="19.309862"><ele>632.1</ele><time>2012-05-03T11:12:34.0000000+00:00</time></trkpt><trkpt lat="43.129131" lon="19.309813"><ele>632.8</ele><time>2012-05-03T11:12:39.0000000+00:00</time></trkpt><trkpt lat="43.129147" lon="19.309809"><ele>633.5</ele><time>2012-05-03T11:12:44.0000000+00:00</time></trkpt><trkpt lat="43.129189" lon="19.309847"><ele>634.5</ele><time>2012-05-03T11:12:49.0000000+00:00</time></trkpt><trkpt lat="43.129154" lon="19.309896"><ele>635.5</ele><time>2012-05-03T11:12:54.0000000+00:00</time></trkpt><trkpt lat="43.129162" lon="19.309916"><ele>635.7</ele><time>2012-05-03T11:12:59.0000000+00:00</time></trkpt><trkpt lat="43.129139" lon="19.309904"><ele>635.8</ele><time>2012-05-03T11:13:04.0000000+00:00</time></trkpt><trkpt lat="43.129063" lon="19.30987"><ele>636.2</ele><time>2012-05-03T11:13:09.0000000+00:00</time></trkpt><trkpt lat="43.129021" lon="19.309855"><ele>636.8</ele><time>2012-05-03T11:13:14.0000000+00:00</time></trkpt><trkpt lat="43.128994" lon="19.309832"><ele>637.4</ele><time>2012-05-03T11:13:19.0000000+00:00</time></trkpt><trkpt lat="43.128963" lon="19.309832"><ele>637.6</ele><time>2012-05-03T11:13:24.0000000+00:00</time></trkpt><trkpt lat="43.128971" lon="19.309786"><ele>637.9</ele><time>2012-05-03T11:13:29.0000000+00:00</time></trkpt><trkpt lat="43.128998" lon="19.309729"><ele>638.2</ele><time>2012-05-03T11:13:34.0000000+00:00</time></trkpt><trkpt lat="43.129063" lon="19.309689"><ele>638.3</ele><time>2012-05-03T11:13:39.0000000+00:00</time></trkpt><trkpt lat="43.129128" lon="19.309649"><ele>638.2</ele><time>2012-05-03T11:13:44.0000000+00:00</time></trkpt><trkpt lat="43.129196" lon="19.309586"><ele>638.6</ele><time>2012-05-03T11:13:49.0000000+00:00</time></trkpt><trkpt lat="43.129269" lon="19.309509"><ele>638.2</ele><time>2012-05-03T11:13:54.0000000+00:00</time></trkpt><trkpt lat="43.129356" lon="19.309519"><ele>638.2</ele><time>2012-05-03T11:13:59.0000000+00:00</time></trkpt><trkpt lat="43.129467" lon="19.309528"><ele>638.0</ele><time>2012-05-03T11:14:04.0000000+00:00</time></trkpt><trkpt lat="43.129543" lon="19.309462"><ele>637.5</ele><time>2012-05-03T11:14:09.0000000+00:00</time></trkpt><trkpt lat="43.129581" lon="19.309385"><ele>636.9</ele><time>2012-05-03T11:14:14.0000000+00:00</time></trkpt><trkpt lat="43.129669" lon="19.309267"><ele>637.2</ele><time>2012-05-03T11:14:19.0000000+00:00</time></trkpt><trkpt lat="43.129745" lon="19.309246"><ele>637.4</ele><time>2012-05-03T11:14:24.0000000+00:00</time></trkpt><trkpt lat="43.129833" lon="19.309196"><ele>638.1</ele><time>2012-05-03T11:14:29.0000000+00:00</time></trkpt><trkpt lat="43.129948" lon="19.309132"><ele>638.5</ele><time>2012-05-03T11:14:34.0000000+00:00</time></trkpt><trkpt lat="43.130043" lon="19.309061"><ele>638.6</ele><time>2012-05-03T11:14:39.0000000+00:00</time></trkpt><trkpt lat="43.130157" lon="19.309002"><ele>639.1</ele><time>2012-05-03T11:14:44.0000000+00:00</time></trkpt><trkpt lat="43.130325" lon="19.308987"><ele>640.9</ele><time>2012-05-03T11:14:49.0000000+00:00</time></trkpt><trkpt lat="43.130474" lon="19.308985"><ele>643.1</ele><time>2012-05-03T11:14:54.0000000+00:00</time></trkpt><trkpt lat="43.130608" lon="19.30908"><ele>645.5</ele><time>2012-05-03T11:14:59.0000000+00:00</time></trkpt><trkpt lat="43.130749" lon="19.309107"><ele>646.8</ele><time>2012-05-03T11:15:04.0000000+00:00</time></trkpt><trkpt lat="43.130894" lon="19.3092"><ele>649.1</ele><time>2012-05-03T11:15:09.0000000+00:00</time></trkpt><trkpt lat="43.131027" lon="19.309294"><ele>650.5</ele><time>2012-05-03T11:15:14.0000000+00:00</time></trkpt><trkpt lat="43.131142" lon="19.309364"><ele>652.2</ele><time>2012-05-03T11:15:19.0000000+00:00</time></trkpt><trkpt lat="43.131256" lon="19.309467"><ele>651.8</ele><time>2012-05-03T11:15:24.0000000+00:00</time></trkpt><trkpt lat="43.131378" lon="19.309513"><ele>650.4</ele><time>2012-05-03T11:15:29.0000000+00:00</time></trkpt><trkpt lat="43.131481" lon="19.30954"><ele>650.4</ele><time>2012-05-03T11:15:34.0000000+00:00</time></trkpt><trkpt lat="43.13155" lon="19.30953"><ele>649.2</ele><time>2012-05-03T11:15:39.0000000+00:00</time></trkpt><trkpt lat="43.131607" lon="19.309462"><ele>646.2</ele><time>2012-05-03T11:15:44.0000000+00:00</time></trkpt><trkpt lat="43.131687" lon="19.309397"><ele>643.5</ele><time>2012-05-03T11:15:49.0000000+00:00</time></trkpt><trkpt lat="43.131821" lon="19.309351"><ele>642.8</ele><time>2012-05-03T11:15:54.0000000+00:00</time></trkpt><trkpt lat="43.131931" lon="19.309301"><ele>642.1</ele><time>2012-05-03T11:15:59.0000000+00:00</time></trkpt><trkpt lat="43.132023" lon="19.309258"><ele>643.1</ele><time>2012-05-03T11:16:04.0000000+00:00</time></trkpt><trkpt lat="43.132084" lon="19.309177"><ele>647.5</ele><time>2012-05-03T11:16:09.0000000+00:00</time></trkpt><trkpt lat="43.132225" lon="19.309155"><ele>650.5</ele><time>2012-05-03T11:16:14.0000000+00:00</time></trkpt><trkpt lat="43.13237" lon="19.309132"><ele>653.5</ele><time>2012-05-03T11:16:19.0000000+00:00</time></trkpt><trkpt lat="43.132538" lon="19.309111"><ele>654.4</ele><time>2012-05-03T11:16:24.0000000+00:00</time></trkpt><trkpt lat="43.13266" lon="19.309092"><ele>648.3</ele><time>2012-05-03T11:16:29.0000000+00:00</time></trkpt><trkpt lat="43.132843" lon="19.309059"><ele>645.9</ele><time>2012-05-03T11:16:34.0000000+00:00</time></trkpt><trkpt lat="43.133011" lon="19.309004"><ele>645.4</ele><time>2012-05-03T11:16:39.0000000+00:00</time></trkpt><trkpt lat="43.133156" lon="19.308966"><ele>646.4</ele><time>2012-05-03T11:16:44.0000000+00:00</time></trkpt><trkpt lat="43.133293" lon="19.308905"><ele>646.5</ele><time>2012-05-03T11:16:49.0000000+00:00</time></trkpt><trkpt lat="43.133389" lon="19.308872"><ele>645.5</ele><time>2012-05-03T11:16:54.0000000+00:00</time></trkpt><trkpt lat="43.133507" lon="19.308861"><ele>644.0</ele><time>2012-05-03T11:16:59.0000000+00:00</time></trkpt><trkpt lat="43.133625" lon="19.308817"><ele>643.3</ele><time>2012-05-03T11:17:04.0000000+00:00</time></trkpt><trkpt lat="43.133717" lon="19.308716"><ele>642.8</ele><time>2012-05-03T11:17:09.0000000+00:00</time></trkpt><trkpt lat="43.133789" lon="19.308634"><ele>641.7</ele><time>2012-05-03T11:17:14.0000000+00:00</time></trkpt><trkpt lat="43.133835" lon="19.308546"><ele>641.6</ele><time>2012-05-03T11:17:19.0000000+00:00</time></trkpt><trkpt lat="43.133896" lon="19.30842"><ele>640.3</ele><time>2012-05-03T11:17:24.0000000+00:00</time></trkpt><trkpt lat="43.133949" lon="19.308239"><ele>639.6</ele><time>2012-05-03T11:17:29.0000000+00:00</time></trkpt><trkpt lat="43.134003" lon="19.308079"><ele>639.9</ele><time>2012-05-03T11:17:34.0000000+00:00</time></trkpt><trkpt lat="43.134094" lon="19.307976"><ele>640.4</ele><time>2012-05-03T11:17:39.0000000+00:00</time></trkpt><trkpt lat="43.134193" lon="19.30789"><ele>640.9</ele><time>2012-05-03T11:17:44.0000000+00:00</time></trkpt><trkpt lat="43.134289" lon="19.307802"><ele>640.0</ele><time>2012-05-03T11:17:49.0000000+00:00</time></trkpt><trkpt lat="43.134388" lon="19.307737"><ele>639.6</ele><time>2012-05-03T11:17:54.0000000+00:00</time></trkpt><trkpt lat="43.134487" lon="19.307619"><ele>638.4</ele><time>2012-05-03T11:17:59.0000000+00:00</time></trkpt><trkpt lat="43.134586" lon="19.307514"><ele>639.5</ele><time>2012-05-03T11:18:04.0000000+00:00</time></trkpt><trkpt lat="43.134682" lon="19.307446"><ele>638.3</ele><time>2012-05-03T11:18:09.0000000+00:00</time></trkpt><trkpt lat="43.13475" lon="19.307306"><ele>638.6</ele><time>2012-05-03T11:18:14.0000000+00:00</time></trkpt><trkpt lat="43.134827" lon="19.307167"><ele>638.8</ele><time>2012-05-03T11:18:19.0000000+00:00</time></trkpt><trkpt lat="43.134892" lon="19.306978"><ele>639.7</ele><time>2012-05-03T11:18:24.0000000+00:00</time></trkpt><trkpt lat="43.134991" lon="19.306839"><ele>640.6</ele><time>2012-05-03T11:18:29.0000000+00:00</time></trkpt><trkpt lat="43.135105" lon="19.306614"><ele>641.2</ele><time>2012-05-03T11:18:34.0000000+00:00</time></trkpt><trkpt lat="43.13517" lon="19.306412"><ele>640.4</ele><time>2012-05-03T11:18:39.0000000+00:00</time></trkpt><trkpt lat="43.135246" lon="19.306232"><ele>640.7</ele><time>2012-05-03T11:18:44.0000000+00:00</time></trkpt><trkpt lat="43.13538" lon="19.306093"><ele>639.7</ele><time>2012-05-03T11:18:49.0000000+00:00</time></trkpt><trkpt lat="43.135509" lon="19.305923"><ele>640.2</ele><time>2012-05-03T11:18:54.0000000+00:00</time></trkpt><trkpt lat="43.135651" lon="19.305765"><ele>638.2</ele><time>2012-05-03T11:18:59.0000000+00:00</time></trkpt><trkpt lat="43.135708" lon="19.305624"><ele>637.0</ele><time>2012-05-03T11:19:04.0000000+00:00</time></trkpt><trkpt lat="43.135788" lon="19.305487"><ele>634.7</ele><time>2012-05-03T11:19:09.0000000+00:00</time></trkpt><trkpt lat="43.135849" lon="19.305355"><ele>635.3</ele><time>2012-05-03T11:19:14.0000000+00:00</time></trkpt><trkpt lat="43.135937" lon="19.30521"><ele>636.8</ele><time>2012-05-03T11:19:19.0000000+00:00</time></trkpt><trkpt lat="43.136024" lon="19.305098"><ele>637.9</ele><time>2012-05-03T11:19:24.0000000+00:00</time></trkpt><trkpt lat="43.136089" lon="19.304974"><ele>638.5</ele><time>2012-05-03T11:19:29.0000000+00:00</time></trkpt><trkpt lat="43.136158" lon="19.304865"><ele>637.9</ele><time>2012-05-03T11:19:34.0000000+00:00</time></trkpt><trkpt lat="43.1362" lon="19.304739"><ele>638.9</ele><time>2012-05-03T11:19:39.0000000+00:00</time></trkpt><trkpt lat="43.13625" lon="19.304621"><ele>638.0</ele><time>2012-05-03T11:19:44.0000000+00:00</time></trkpt><trkpt lat="43.136322" lon="19.30456"><ele>637.4</ele><time>2012-05-03T11:19:49.0000000+00:00</time></trkpt><trkpt lat="43.136414" lon="19.304499"><ele>635.3</ele><time>2012-05-03T11:19:54.0000000+00:00</time></trkpt><trkpt lat="43.136494" lon="19.304426"><ele>634.0</ele><time>2012-05-03T11:19:59.0000000+00:00</time></trkpt><trkpt lat="43.13657" lon="19.304319"><ele>631.9</ele><time>2012-05-03T11:20:04.0000000+00:00</time></trkpt><trkpt lat="43.136627" lon="19.304235"><ele>630.8</ele><time>2012-05-03T11:20:09.0000000+00:00</time></trkpt><trkpt lat="43.136719" lon="19.304134"><ele>629.5</ele><time>2012-05-03T11:20:14.0000000+00:00</time></trkpt><trkpt lat="43.136795" lon="19.304049"><ele>630.5</ele><time>2012-05-03T11:20:19.0000000+00:00</time></trkpt><trkpt lat="43.136871" lon="19.303934"><ele>631.3</ele><time>2012-05-03T11:20:24.0000000+00:00</time></trkpt><trkpt lat="43.13694" lon="19.30386"><ele>631.7</ele><time>2012-05-03T11:20:29.0000000+00:00</time></trkpt><trkpt lat="43.137001" lon="19.303764"><ele>633.7</ele><time>2012-05-03T11:20:34.0000000+00:00</time></trkpt><trkpt lat="43.137062" lon="19.303631"><ele>635.9</ele><time>2012-05-03T11:20:39.0000000+00:00</time></trkpt><trkpt lat="43.137119" lon="19.303486"><ele>639.2</ele><time>2012-05-03T11:20:44.0000000+00:00</time></trkpt><trkpt lat="43.137203" lon="19.303387"><ele>638.2</ele><time>2012-05-03T11:20:49.0000000+00:00</time></trkpt><trkpt lat="43.137276" lon="19.303274"><ele>637.8</ele><time>2012-05-03T11:20:54.0000000+00:00</time></trkpt><trkpt lat="43.137341" lon="19.303226"><ele>641.8</ele><time>2012-05-03T11:20:59.0000000+00:00</time></trkpt><trkpt lat="43.137444" lon="19.303131"><ele>643.4</ele><time>2012-05-03T11:21:04.0000000+00:00</time></trkpt><trkpt lat="43.137539" lon="19.303032"><ele>644.5</ele><time>2012-05-03T11:21:09.0000000+00:00</time></trkpt><trkpt lat="43.137623" lon="19.30286"><ele>646.9</ele><time>2012-05-03T11:21:14.0000000+00:00</time></trkpt><trkpt lat="43.137756" lon="19.302681"><ele>648.3</ele><time>2012-05-03T11:21:19.0000000+00:00</time></trkpt><trkpt lat="43.137894" lon="19.302507"><ele>648.2</ele><time>2012-05-03T11:21:24.0000000+00:00</time></trkpt><trkpt lat="43.138008" lon="19.302372"><ele>646.9</ele><time>2012-05-03T11:21:29.0000000+00:00</time></trkpt><trkpt lat="43.1381" lon="19.302219"><ele>644.3</ele><time>2012-05-03T11:21:34.0000000+00:00</time></trkpt><trkpt lat="43.138237" lon="19.302109"><ele>638.3</ele><time>2012-05-03T11:21:39.0000000+00:00</time></trkpt><trkpt lat="43.138306" lon="19.302006"><ele>636.0</ele><time>2012-05-03T11:21:44.0000000+00:00</time></trkpt><trkpt lat="43.138321" lon="19.301962"><ele>635.9</ele><time>2012-05-03T11:21:49.0000000+00:00</time></trkpt><trkpt lat="43.138329" lon="19.301933"><ele>635.8</ele><time>2012-05-03T11:21:54.0000000+00:00</time></trkpt><trkpt lat="43.138321" lon="19.301853"><ele>635.2</ele><time>2012-05-03T11:21:59.0000000+00:00</time></trkpt><trkpt lat="43.138313" lon="19.301796"><ele>635.5</ele><time>2012-05-03T11:22:04.0000000+00:00</time></trkpt><trkpt lat="43.138306" lon="19.301805"><ele>635.0</ele><time>2012-05-03T11:22:09.0000000+00:00</time></trkpt><trkpt lat="43.13829" lon="19.301815"><ele>634.6</ele><time>2012-05-03T11:22:14.0000000+00:00</time></trkpt><trkpt lat="43.13829" lon="19.301821"><ele>634.6</ele><time>2012-05-03T11:22:19.0000000+00:00</time></trkpt><trkpt lat="43.13829" lon="19.301819"><ele>634.6</ele><time>2012-05-03T11:22:24.0000000+00:00</time></trkpt><trkpt lat="43.13829" lon="19.301821"><ele>634.6</ele><time>2012-05-03T11:22:29.0000000+00:00</time></trkpt><trkpt lat="43.13829" lon="19.301821"><ele>634.6</ele><time>2012-05-03T11:22:34.0000000+00:00</time></trkpt><trkpt lat="43.138302" lon="19.301832"><ele>634.6</ele><time>2012-05-03T11:22:39.0000000+00:00</time></trkpt><trkpt lat="43.138306" lon="19.301849"><ele>634.5</ele><time>2012-05-03T11:22:44.0000000+00:00</time></trkpt><trkpt lat="43.138332" lon="19.301863"><ele>634.9</ele><time>2012-05-03T11:22:49.0000000+00:00</time></trkpt><trkpt lat="43.138351" lon="19.301872"><ele>635.0</ele><time>2012-05-03T11:22:54.0000000+00:00</time></trkpt><trkpt lat="43.138355" lon="19.30187"><ele>635.0</ele><time>2012-05-03T11:22:59.0000000+00:00</time></trkpt><trkpt lat="43.138355" lon="19.301886"><ele>635.0</ele><time>2012-05-03T11:23:04.0000000+00:00</time></trkpt><trkpt lat="43.138348" lon="19.301964"><ele>635.8</ele><time>2012-05-03T11:23:09.0000000+00:00</time></trkpt><trkpt lat="43.13834" lon="19.302046"><ele>636.7</ele><time>2012-05-03T11:23:14.0000000+00:00</time></trkpt><trkpt lat="43.138332" lon="19.302061"><ele>638.4</ele><time>2012-05-03T11:23:19.0000000+00:00</time></trkpt><trkpt lat="43.138336" lon="19.302078"><ele>639.3</ele><time>2012-05-03T11:23:24.0000000+00:00</time></trkpt><trkpt lat="43.138367" lon="19.302067"><ele>639.9</ele><time>2012-05-03T11:23:29.0000000+00:00</time></trkpt><trkpt lat="43.138382" lon="19.30208"><ele>640.0</ele><time>2012-05-03T11:23:34.0000000+00:00</time></trkpt><trkpt lat="43.138397" lon="19.302036"><ele>640.1</ele><time>2012-05-03T11:23:39.0000000+00:00</time></trkpt><trkpt lat="43.138344" lon="19.302019"><ele>639.9</ele><time>2012-05-03T11:23:44.0000000+00:00</time></trkpt><trkpt lat="43.138241" lon="19.302038"><ele>639.4</ele><time>2012-05-03T11:23:49.0000000+00:00</time></trkpt><trkpt lat="43.138191" lon="19.302027"><ele>639.4</ele><time>2012-05-03T11:23:54.0000000+00:00</time></trkpt><trkpt lat="43.138157" lon="19.30201"><ele>639.4</ele><time>2012-05-03T11:23:59.0000000+00:00</time></trkpt><trkpt lat="43.138145" lon="19.301952"><ele>639.4</ele><time>2012-05-03T11:24:04.0000000+00:00</time></trkpt><trkpt lat="43.138157" lon="19.301811"><ele>640.6</ele><time>2012-05-03T11:24:09.0000000+00:00</time></trkpt><trkpt lat="43.138126" lon="19.30176"><ele>641.1</ele><time>2012-05-03T11:24:14.0000000+00:00</time></trkpt><trkpt lat="43.138062" lon="19.301733"><ele>640.7</ele><time>2012-05-03T11:24:19.0000000+00:00</time></trkpt><trkpt lat="43.138008" lon="19.301714"><ele>640.7</ele><time>2012-05-03T11:24:24.0000000+00:00</time></trkpt><trkpt lat="43.137985" lon="19.301647"><ele>640.9</ele><time>2012-05-03T11:24:29.0000000+00:00</time></trkpt><trkpt lat="43.137943" lon="19.30158"><ele>640.7</ele><time>2012-05-03T11:24:34.0000000+00:00</time></trkpt><trkpt lat="43.137905" lon="19.301519"><ele>640.5</ele><time>2012-05-03T11:24:39.0000000+00:00</time></trkpt><trkpt lat="43.137863" lon="19.301437"><ele>640.3</ele><time>2012-05-03T11:24:44.0000000+00:00</time></trkpt><trkpt lat="43.137817" lon="19.301325"><ele>639.8</ele><time>2012-05-03T11:24:49.0000000+00:00</time></trkpt><trkpt lat="43.13784" lon="19.301229"><ele>639.6</ele><time>2012-05-03T11:24:54.0000000+00:00</time></trkpt><trkpt lat="43.137863" lon="19.301195"><ele>639.5</ele><time>2012-05-03T11:24:59.0000000+00:00</time></trkpt><trkpt lat="43.13789" lon="19.301184"><ele>639.4</ele><time>2012-05-03T11:25:04.0000000+00:00</time></trkpt><trkpt lat="43.137886" lon="19.30118"><ele>639.6</ele><time>2012-05-03T11:25:09.0000000+00:00</time></trkpt><trkpt lat="43.137913" lon="19.301136"><ele>639.5</ele><time>2012-05-03T11:25:14.0000000+00:00</time></trkpt><trkpt lat="43.137936" lon="19.301109"><ele>639.7</ele><time>2012-05-03T11:25:19.0000000+00:00</time></trkpt><trkpt lat="43.137878" lon="19.301144"><ele>640.4</ele><time>2012-05-03T11:25:24.0000000+00:00</time></trkpt><trkpt lat="43.137867" lon="19.301188"><ele>640.7</ele><time>2012-05-03T11:25:29.0000000+00:00</time></trkpt><trkpt lat="43.137875" lon="19.301142"><ele>641.1</ele><time>2012-05-03T11:25:34.0000000+00:00</time></trkpt><trkpt lat="43.137886" lon="19.301065"><ele>641.1</ele><time>2012-05-03T11:25:39.0000000+00:00</time></trkpt><trkpt lat="43.137829" lon="19.301031"><ele>641.5</ele><time>2012-05-03T11:25:44.0000000+00:00</time></trkpt><trkpt lat="43.137756" lon="19.30093"><ele>642.0</ele><time>2012-05-03T11:25:49.0000000+00:00</time></trkpt><trkpt lat="43.138004" lon="19.300888"><ele>641.8</ele><time>2012-05-03T11:25:54.0000000+00:00</time></trkpt><trkpt lat="43.138119" lon="19.300892"><ele>642.0</ele><time>2012-05-03T11:25:59.0000000+00:00</time></trkpt><trkpt lat="43.138241" lon="19.300917"><ele>642.2</ele><time>2012-05-03T11:26:09.0000000+00:00</time></trkpt><trkpt lat="43.138302" lon="19.300924"><ele>642.2</ele><time>2012-05-03T11:26:14.0000000+00:00</time></trkpt><trkpt lat="43.138168" lon="19.301119"><ele>641.6</ele><time>2012-05-03T11:26:22.0000000+00:00</time></trkpt><trkpt lat="43.137897" lon="19.301241"><ele>641.3</ele><time>2012-05-03T11:26:27.0000000+00:00</time></trkpt><trkpt lat="43.137894" lon="19.301229"><ele>641.4</ele><time>2012-05-03T11:26:32.0000000+00:00</time></trkpt><trkpt lat="43.137966" lon="19.301147"><ele>641.4</ele><time>2012-05-03T11:26:37.0000000+00:00</time></trkpt><trkpt lat="43.138058" lon="19.301016"><ele>641.3</ele><time>2012-05-03T11:26:42.0000000+00:00</time></trkpt><trkpt lat="43.138149" lon="19.30088"><ele>641.3</ele><time>2012-05-03T11:26:47.0000000+00:00</time></trkpt><trkpt lat="43.139763" lon="19.300703"><ele>764.3</ele><time>2012-05-03T11:30:03.0000000+00:00</time></trkpt><trkpt lat="43.137436" lon="19.301668"><ele>768.6</ele><time>2012-05-03T11:30:09.0000000+00:00</time></trkpt><trkpt lat="43.136917" lon="19.301989"><ele>750.7</ele><time>2012-05-03T11:30:14.0000000+00:00</time></trkpt><trkpt lat="43.136883" lon="19.301996"><ele>739.9</ele><time>2012-05-03T11:30:19.0000000+00:00</time></trkpt><trkpt lat="43.136894" lon="19.301994"><ele>738.2</ele><time>2012-05-03T11:30:24.0000000+00:00</time></trkpt><trkpt lat="43.13689" lon="19.301968"><ele>724.0</ele><time>2012-05-03T11:30:29.0000000+00:00</time></trkpt><trkpt lat="43.136845" lon="19.301924"><ele>705.9</ele><time>2012-05-03T11:30:34.0000000+00:00</time></trkpt><trkpt lat="43.136784" lon="19.301815"><ele>682.7</ele><time>2012-05-03T11:30:39.0000000+00:00</time></trkpt><trkpt lat="43.137596" lon="19.301107"><ele>647.1</ele><time>2012-05-03T11:31:12.0000000+00:00</time></trkpt><trkpt lat="43.137859" lon="19.300987"><ele>648.0</ele><time>2012-05-03T11:31:17.0000000+00:00</time></trkpt><trkpt lat="43.137897" lon="19.300989"><ele>647.5</ele><time>2012-05-03T11:31:22.0000000+00:00</time></trkpt><trkpt lat="43.137875" lon="19.301081"><ele>647.0</ele><time>2012-05-03T11:31:27.0000000+00:00</time></trkpt><trkpt lat="43.137852" lon="19.301125"><ele>647.1</ele><time>2012-05-03T11:31:32.0000000+00:00</time></trkpt><trkpt lat="43.137863" lon="19.301174"><ele>645.7</ele><time>2012-05-03T11:31:37.0000000+00:00</time></trkpt><trkpt lat="43.137848" lon="19.301216"><ele>645.7</ele><time>2012-05-03T11:31:42.0000000+00:00</time></trkpt><trkpt lat="43.137894" lon="19.301258"><ele>644.6</ele><time>2012-05-03T11:31:47.0000000+00:00</time></trkpt><trkpt lat="43.137928" lon="19.301317"><ele>644.6</ele><time>2012-05-03T11:31:52.0000000+00:00</time></trkpt><trkpt lat="43.137936" lon="19.301357"><ele>644.6</ele><time>2012-05-03T11:31:57.0000000+00:00</time></trkpt><trkpt lat="43.137939" lon="19.301392"><ele>645.1</ele><time>2012-05-03T11:32:02.0000000+00:00</time></trkpt><trkpt lat="43.137947" lon="19.301414"><ele>644.9</ele><time>2012-05-03T11:32:07.0000000+00:00</time></trkpt><trkpt lat="43.137974" lon="19.301477"><ele>644.3</ele><time>2012-05-03T11:32:12.0000000+00:00</time></trkpt><trkpt lat="43.137989" lon="19.301498"><ele>644.4</ele><time>2012-05-03T11:32:17.0000000+00:00</time></trkpt><trkpt lat="43.138016" lon="19.301538"><ele>644.3</ele><time>2012-05-03T11:32:22.0000000+00:00</time></trkpt><trkpt lat="43.138035" lon="19.301577"><ele>644.5</ele><time>2012-05-03T11:32:27.0000000+00:00</time></trkpt><trkpt lat="43.138084" lon="19.301613"><ele>644.4</ele><time>2012-05-03T11:32:32.0000000+00:00</time></trkpt><trkpt lat="43.138138" lon="19.301647"><ele>644.6</ele><time>2012-05-03T11:32:37.0000000+00:00</time></trkpt><trkpt lat="43.138149" lon="19.301689"><ele>644.8</ele><time>2012-05-03T11:32:42.0000000+00:00</time></trkpt><trkpt lat="43.138134" lon="19.301722"><ele>645.3</ele><time>2012-05-03T11:32:47.0000000+00:00</time></trkpt><trkpt lat="43.138126" lon="19.301769"><ele>645.1</ele><time>2012-05-03T11:32:52.0000000+00:00</time></trkpt><trkpt lat="43.13813" lon="19.301798"><ele>644.8</ele><time>2012-05-03T11:32:57.0000000+00:00</time></trkpt><trkpt lat="43.138161" lon="19.301828"><ele>644.2</ele><time>2012-05-03T11:33:02.0000000+00:00</time></trkpt><trkpt lat="43.138199" lon="19.30184"><ele>643.7</ele><time>2012-05-03T11:33:07.0000000+00:00</time></trkpt><trkpt lat="43.138218" lon="19.301815"><ele>643.7</ele><time>2012-05-03T11:33:12.0000000+00:00</time></trkpt><trkpt lat="43.138218" lon="19.301846"><ele>643.1</ele><time>2012-05-03T11:33:17.0000000+00:00</time></trkpt><trkpt lat="43.138218" lon="19.301846"><ele>643.2</ele><time>2012-05-03T11:33:22.0000000+00:00</time></trkpt><trkpt lat="43.138241" lon="19.301842"><ele>643.2</ele><time>2012-05-03T11:33:27.0000000+00:00</time></trkpt><trkpt lat="43.138306" lon="19.301872"><ele>642.9</ele><time>2012-05-03T11:33:32.0000000+00:00</time></trkpt><trkpt lat="43.138325" lon="19.301901"><ele>643.0</ele><time>2012-05-03T11:33:37.0000000+00:00</time></trkpt><trkpt lat="43.138321" lon="19.301916"><ele>641.1</ele><time>2012-05-03T11:33:42.0000000+00:00</time></trkpt><trkpt lat="43.138321" lon="19.30197"><ele>640.4</ele><time>2012-05-03T11:33:47.0000000+00:00</time></trkpt><trkpt lat="43.138302" lon="19.302025"><ele>638.4</ele><time>2012-05-03T11:33:52.0000000+00:00</time></trkpt><trkpt lat="43.138321" lon="19.302044"><ele>637.7</ele><time>2012-05-03T11:33:57.0000000+00:00</time></trkpt><trkpt lat="43.138344" lon="19.302057"><ele>637.9</ele><time>2012-05-03T11:34:02.0000000+00:00</time></trkpt><trkpt lat="43.138332" lon="19.302076"><ele>638.3</ele><time>2012-05-03T11:34:07.0000000+00:00</time></trkpt><trkpt lat="43.138329" lon="19.302067"><ele>638.3</ele><time>2012-05-03T11:34:12.0000000+00:00</time></trkpt><trkpt lat="43.138359" lon="19.302025"><ele>637.9</ele><time>2012-05-03T11:34:17.0000000+00:00</time></trkpt><trkpt lat="43.138409" lon="19.301996"><ele>638.1</ele><time>2012-05-03T11:34:22.0000000+00:00</time></trkpt><trkpt lat="43.138424" lon="19.301939"><ele>639.6</ele><time>2012-05-03T11:34:27.0000000+00:00</time></trkpt><trkpt lat="43.138412" lon="19.301924"><ele>640.2</ele><time>2012-05-03T11:34:32.0000000+00:00</time></trkpt><trkpt lat="43.13842" lon="19.301914"><ele>640.3</ele><time>2012-05-03T11:34:37.0000000+00:00</time></trkpt><trkpt lat="43.138412" lon="19.301901"><ele>640.3</ele><time>2012-05-03T11:34:42.0000000+00:00</time></trkpt><trkpt lat="43.138412" lon="19.301897"><ele>640.3</ele><time>2012-05-03T11:34:47.0000000+00:00</time></trkpt><trkpt lat="43.138412" lon="19.301908"><ele>640.3</ele><time>2012-05-03T11:34:52.0000000+00:00</time></trkpt><trkpt lat="43.138405" lon="19.301926"><ele>640.5</ele><time>2012-05-03T11:34:57.0000000+00:00</time></trkpt><trkpt lat="43.138432" lon="19.301949"><ele>640.8</ele><time>2012-05-03T11:35:02.0000000+00:00</time></trkpt><trkpt lat="43.138489" lon="19.301872"><ele>640.2</ele><time>2012-05-03T11:35:07.0000000+00:00</time></trkpt><trkpt lat="43.138508" lon="19.301863"><ele>640.3</ele><time>2012-05-03T11:35:12.0000000+00:00</time></trkpt><trkpt lat="43.138512" lon="19.301863"><ele>640.3</ele><time>2012-05-03T11:35:17.0000000+00:00</time></trkpt><trkpt lat="43.138515" lon="19.301868"><ele>640.3</ele><time>2012-05-03T11:35:22.0000000+00:00</time></trkpt><trkpt lat="43.138561" lon="19.301851"><ele>640.5</ele><time>2012-05-03T11:35:27.0000000+00:00</time></trkpt><trkpt lat="43.138573" lon="19.301847"><ele>638.6</ele><time>2012-05-03T11:35:32.0000000+00:00</time></trkpt><trkpt lat="43.138577" lon="19.301853"><ele>638.9</ele><time>2012-05-03T11:35:37.0000000+00:00</time></trkpt><trkpt lat="43.138577" lon="19.301842"><ele>639.3</ele><time>2012-05-03T11:35:42.0000000+00:00</time></trkpt><trkpt lat="43.138561" lon="19.301847"><ele>639.5</ele><time>2012-05-03T11:35:47.0000000+00:00</time></trkpt><trkpt lat="43.138554" lon="19.301872"><ele>639.8</ele><time>2012-05-03T11:35:52.0000000+00:00</time></trkpt><trkpt lat="43.138577" lon="19.301886"><ele>638.9</ele><time>2012-05-03T11:35:57.0000000+00:00</time></trkpt><trkpt lat="43.138546" lon="19.301878"><ele>639.0</ele><time>2012-05-03T11:36:02.0000000+00:00</time></trkpt><trkpt lat="43.138496" lon="19.301865"><ele>638.6</ele><time>2012-05-03T11:36:07.0000000+00:00</time></trkpt><trkpt lat="43.138416" lon="19.30184"><ele>639.1</ele><time>2012-05-03T11:36:12.0000000+00:00</time></trkpt><trkpt lat="43.138355" lon="19.301823"><ele>637.7</ele><time>2012-05-03T11:36:17.0000000+00:00</time></trkpt><trkpt lat="43.138332" lon="19.301819"><ele>638.1</ele><time>2012-05-03T11:36:22.0000000+00:00</time></trkpt><trkpt lat="43.138321" lon="19.301802"><ele>637.7</ele><time>2012-05-03T11:36:27.0000000+00:00</time></trkpt><trkpt lat="43.138332" lon="19.301813"><ele>637.9</ele><time>2012-05-03T11:36:32.0000000+00:00</time></trkpt><trkpt lat="43.138397" lon="19.301897"><ele>637.0</ele><time>2012-05-03T11:36:37.0000000+00:00</time></trkpt><trkpt lat="43.138424" lon="19.301952"><ele>636.4</ele><time>2012-05-03T11:36:42.0000000+00:00</time></trkpt><trkpt lat="43.138393" lon="19.301973"><ele>636.0</ele><time>2012-05-03T11:36:47.0000000+00:00</time></trkpt><trkpt lat="43.138378" lon="19.302023"><ele>635.6</ele><time>2012-05-03T11:36:52.0000000+00:00</time></trkpt><trkpt lat="43.138424" lon="19.302048"><ele>635.8</ele><time>2012-05-03T11:36:57.0000000+00:00</time></trkpt><trkpt lat="43.138531" lon="19.301981"><ele>635.7</ele><time>2012-05-03T11:37:02.0000000+00:00</time></trkpt><trkpt lat="43.138653" lon="19.301865"><ele>635.1</ele><time>2012-05-03T11:37:07.0000000+00:00</time></trkpt><trkpt lat="43.138744" lon="19.30176"><ele>636.4</ele><time>2012-05-03T11:37:12.0000000+00:00</time></trkpt><trkpt lat="43.13884" lon="19.301666"><ele>635.8</ele><time>2012-05-03T11:37:17.0000000+00:00</time></trkpt><trkpt lat="43.138962" lon="19.301584"><ele>635.3</ele><time>2012-05-03T11:37:22.0000000+00:00</time></trkpt><trkpt lat="43.139057" lon="19.301474"><ele>635.0</ele><time>2012-05-03T11:37:27.0000000+00:00</time></trkpt><trkpt lat="43.139149" lon="19.301394"><ele>634.9</ele><time>2012-05-03T11:37:32.0000000+00:00</time></trkpt><trkpt lat="43.139256" lon="19.301321"><ele>634.9</ele><time>2012-05-03T11:37:37.0000000+00:00</time></trkpt><trkpt lat="43.13937" lon="19.301279"><ele>634.9</ele><time>2012-05-03T11:37:42.0000000+00:00</time></trkpt><trkpt lat="43.139545" lon="19.301254"><ele>635.6</ele><time>2012-05-03T11:37:47.0000000+00:00</time></trkpt><trkpt lat="43.139717" lon="19.301201"><ele>636.3</ele><time>2012-05-03T11:37:52.0000000+00:00</time></trkpt><trkpt lat="43.13987" lon="19.301132"><ele>635.9</ele><time>2012-05-03T11:37:57.0000000+00:00</time></trkpt><trkpt lat="43.140022" lon="19.301104"><ele>634.5</ele><time>2012-05-03T11:38:02.0000000+00:00</time></trkpt><trkpt lat="43.140137" lon="19.300982"><ele>635.4</ele><time>2012-05-03T11:38:07.0000000+00:00</time></trkpt><trkpt lat="43.140259" lon="19.300915"><ele>635.5</ele><time>2012-05-03T11:38:12.0000000+00:00</time></trkpt><trkpt lat="43.140392" lon="19.300863"><ele>635.4</ele><time>2012-05-03T11:38:17.0000000+00:00</time></trkpt><trkpt lat="43.140491" lon="19.3008"><ele>635.4</ele><time>2012-05-03T11:38:22.0000000+00:00</time></trkpt><trkpt lat="43.140575" lon="19.300667"><ele>635.8</ele><time>2012-05-03T11:38:27.0000000+00:00</time></trkpt><trkpt lat="43.140678" lon="19.300579"><ele>636.7</ele><time>2012-05-03T11:38:32.0000000+00:00</time></trkpt><trkpt lat="43.140835" lon="19.300575"><ele>638.1</ele><time>2012-05-03T11:38:37.0000000+00:00</time></trkpt><trkpt lat="43.141003" lon="19.300541"><ele>639.0</ele><time>2012-05-03T11:38:42.0000000+00:00</time></trkpt><trkpt lat="43.141163" lon="19.300467"><ele>641.3</ele><time>2012-05-03T11:38:47.0000000+00:00</time></trkpt><trkpt lat="43.141315" lon="19.300344"><ele>643.0</ele><time>2012-05-03T11:38:52.0000000+00:00</time></trkpt><trkpt lat="43.141438" lon="19.300165"><ele>644.4</ele><time>2012-05-03T11:38:57.0000000+00:00</time></trkpt><trkpt lat="43.141563" lon="19.299992"><ele>645.4</ele><time>2012-05-03T11:39:02.0000000+00:00</time></trkpt><trkpt lat="43.141685" lon="19.299809"><ele>645.9</ele><time>2012-05-03T11:39:07.0000000+00:00</time></trkpt><trkpt lat="43.1418" lon="19.299639"><ele>649.6</ele><time>2012-05-03T11:39:12.0000000+00:00</time></trkpt><trkpt lat="43.141941" lon="19.299488"><ele>651.8</ele><time>2012-05-03T11:39:17.0000000+00:00</time></trkpt><trkpt lat="43.142063" lon="19.299374"><ele>652.7</ele><time>2012-05-03T11:39:22.0000000+00:00</time></trkpt><trkpt lat="43.142166" lon="19.299286"><ele>653.4</ele><time>2012-05-03T11:39:27.0000000+00:00</time></trkpt><trkpt lat="43.14225" lon="19.299149"><ele>654.0</ele><time>2012-05-03T11:39:32.0000000+00:00</time></trkpt><trkpt lat="43.142338" lon="19.299044"><ele>655.4</ele><time>2012-05-03T11:39:37.0000000+00:00</time></trkpt><trkpt lat="43.142437" lon="19.298971"><ele>654.5</ele><time>2012-05-03T11:39:42.0000000+00:00</time></trkpt><trkpt lat="43.142559" lon="19.298943"><ele>652.8</ele><time>2012-05-03T11:39:47.0000000+00:00</time></trkpt><trkpt lat="43.142666" lon="19.298912"><ele>652.8</ele><time>2012-05-03T11:39:52.0000000+00:00</time></trkpt><trkpt lat="43.14278" lon="19.298895"><ele>653.1</ele><time>2012-05-03T11:39:57.0000000+00:00</time></trkpt><trkpt lat="43.142872" lon="19.298866"><ele>652.3</ele><time>2012-05-03T11:40:02.0000000+00:00</time></trkpt><trkpt lat="43.142975" lon="19.298885"><ele>652.6</ele><time>2012-05-03T11:40:07.0000000+00:00</time></trkpt><trkpt lat="43.143097" lon="19.298862"><ele>651.5</ele><time>2012-05-03T11:40:12.0000000+00:00</time></trkpt><trkpt lat="43.143223" lon="19.298811"><ele>651.4</ele><time>2012-05-03T11:40:17.0000000+00:00</time></trkpt><trkpt lat="43.143333" lon="19.298834"><ele>651.3</ele><time>2012-05-03T11:40:22.0000000+00:00</time></trkpt><trkpt lat="43.143421" lon="19.298864"><ele>649.6</ele><time>2012-05-03T11:40:27.0000000+00:00</time></trkpt><trkpt lat="43.14349" lon="19.298901"><ele>649.6</ele><time>2012-05-03T11:40:32.0000000+00:00</time></trkpt><trkpt lat="43.143578" lon="19.298935"><ele>649.7</ele><time>2012-05-03T11:40:37.0000000+00:00</time></trkpt><trkpt lat="43.14365" lon="19.298985"><ele>649.9</ele><time>2012-05-03T11:40:42.0000000+00:00</time></trkpt><trkpt lat="43.143696" lon="19.299036"><ele>649.9</ele><time>2012-05-03T11:40:47.0000000+00:00</time></trkpt><trkpt lat="43.143726" lon="19.299034"><ele>649.6</ele><time>2012-05-03T11:40:52.0000000+00:00</time></trkpt><trkpt lat="43.143787" lon="19.298874"><ele>649.6</ele><time>2012-05-03T11:40:57.0000000+00:00</time></trkpt><trkpt lat="43.143852" lon="19.298697"><ele>650.3</ele><time>2012-05-03T11:41:02.0000000+00:00</time></trkpt><trkpt lat="43.143913" lon="19.298578"><ele>651.7</ele><time>2012-05-03T11:41:07.0000000+00:00</time></trkpt><trkpt lat="43.143993" lon="19.298376"><ele>653.8</ele><time>2012-05-03T11:41:12.0000000+00:00</time></trkpt><trkpt lat="43.144054" lon="19.298103"><ele>656.5</ele><time>2012-05-03T11:41:17.0000000+00:00</time></trkpt><trkpt lat="43.144272" lon="19.297932"><ele>644.3</ele><time>2012-05-03T11:41:22.0000000+00:00</time></trkpt><trkpt lat="43.144314" lon="19.297888"><ele>645.2</ele><time>2012-05-03T11:41:27.0000000+00:00</time></trkpt><trkpt lat="43.144424" lon="19.297857"><ele>645.5</ele><time>2012-05-03T11:41:32.0000000+00:00</time></trkpt><trkpt lat="43.144508" lon="19.297852"><ele>644.9</ele><time>2012-05-03T11:41:37.0000000+00:00</time></trkpt><trkpt lat="43.144562" lon="19.29781"><ele>645.2</ele><time>2012-05-03T11:41:42.0000000+00:00</time></trkpt><trkpt lat="43.144684" lon="19.297766"><ele>645.1</ele><time>2012-05-03T11:41:47.0000000+00:00</time></trkpt><trkpt lat="43.144806" lon="19.297705"><ele>646.4</ele><time>2012-05-03T11:41:52.0000000+00:00</time></trkpt><trkpt lat="43.144878" lon="19.297625"><ele>646.0</ele><time>2012-05-03T11:41:57.0000000+00:00</time></trkpt><trkpt lat="43.144962" lon="19.297565"><ele>645.2</ele><time>2012-05-03T11:42:02.0000000+00:00</time></trkpt><trkpt lat="43.14505" lon="19.297537"><ele>645.5</ele><time>2012-05-03T11:42:07.0000000+00:00</time></trkpt><trkpt lat="43.145126" lon="19.297483"><ele>644.6</ele><time>2012-05-03T11:42:12.0000000+00:00</time></trkpt><trkpt lat="43.145229" lon="19.297396"><ele>644.3</ele><time>2012-05-03T11:42:17.0000000+00:00</time></trkpt><trkpt lat="43.145325" lon="19.297266"><ele>642.2</ele><time>2012-05-03T11:42:22.0000000+00:00</time></trkpt><trkpt lat="43.145439" lon="19.297192"><ele>642.1</ele><time>2012-05-03T11:42:27.0000000+00:00</time></trkpt><trkpt lat="43.145535" lon="19.297085"><ele>642.8</ele><time>2012-05-03T11:42:32.0000000+00:00</time></trkpt><trkpt lat="43.145634" lon="19.296961"><ele>643.0</ele><time>2012-05-03T11:42:37.0000000+00:00</time></trkpt><trkpt lat="43.14571" lon="19.296843"><ele>644.3</ele><time>2012-05-03T11:42:42.0000000+00:00</time></trkpt><trkpt lat="43.145794" lon="19.296738"><ele>644.8</ele><time>2012-05-03T11:42:47.0000000+00:00</time></trkpt><trkpt lat="43.145985" lon="19.296591"><ele>642.0</ele><time>2012-05-03T11:42:52.0000000+00:00</time></trkpt><trkpt lat="43.146145" lon="19.296427"><ele>641.2</ele><time>2012-05-03T11:42:57.0000000+00:00</time></trkpt><trkpt lat="43.14632" lon="19.296274"><ele>638.9</ele><time>2012-05-03T11:43:02.0000000+00:00</time></trkpt><trkpt lat="43.146477" lon="19.296238"><ele>638.3</ele><time>2012-05-03T11:43:07.0000000+00:00</time></trkpt><trkpt lat="43.146603" lon="19.296276"><ele>634.9</ele><time>2012-05-03T11:43:12.0000000+00:00</time></trkpt><trkpt lat="43.146748" lon="19.296333"><ele>630.1</ele><time>2012-05-03T11:43:17.0000000+00:00</time></trkpt><trkpt lat="43.146881" lon="19.296455"><ele>627.9</ele><time>2012-05-03T11:43:22.0000000+00:00</time></trkpt><trkpt lat="43.146988" lon="19.296585"><ele>628.6</ele><time>2012-05-03T11:43:27.0000000+00:00</time></trkpt><trkpt lat="43.14711" lon="19.296682"><ele>629.9</ele><time>2012-05-03T11:43:32.0000000+00:00</time></trkpt><trkpt lat="43.147247" lon="19.296799"><ele>630.1</ele><time>2012-05-03T11:43:37.0000000+00:00</time></trkpt><trkpt lat="43.147385" lon="19.29693"><ele>630.1</ele><time>2012-05-03T11:43:42.0000000+00:00</time></trkpt><trkpt lat="43.147499" lon="19.297028"><ele>631.5</ele><time>2012-05-03T11:43:47.0000000+00:00</time></trkpt><trkpt lat="43.147587" lon="19.297071"><ele>632.6</ele><time>2012-05-03T11:43:52.0000000+00:00</time></trkpt><trkpt lat="43.147675" lon="19.297047"><ele>633.6</ele><time>2012-05-03T11:43:57.0000000+00:00</time></trkpt><trkpt lat="43.147797" lon="19.296997"><ele>633.8</ele><time>2012-05-03T11:44:02.0000000+00:00</time></trkpt><trkpt lat="43.147923" lon="19.296949"><ele>633.1</ele><time>2012-05-03T11:44:07.0000000+00:00</time></trkpt><trkpt lat="43.148075" lon="19.296919"><ele>633.6</ele><time>2012-05-03T11:44:12.0000000+00:00</time></trkpt><trkpt lat="43.148212" lon="19.296896"><ele>636.6</ele><time>2012-05-03T11:44:17.0000000+00:00</time></trkpt><trkpt lat="43.148346" lon="19.296919"><ele>638.7</ele><time>2012-05-03T11:44:22.0000000+00:00</time></trkpt><trkpt lat="43.148487" lon="19.296848"><ele>640.5</ele><time>2012-05-03T11:44:27.0000000+00:00</time></trkpt><trkpt lat="43.148621" lon="19.296751"><ele>641.4</ele><time>2012-05-03T11:44:32.0000000+00:00</time></trkpt><trkpt lat="43.148777" lon="19.296709"><ele>640.6</ele><time>2012-05-03T11:44:37.0000000+00:00</time></trkpt><trkpt lat="43.148952" lon="19.296682"><ele>639.4</ele><time>2012-05-03T11:44:42.0000000+00:00</time></trkpt><trkpt lat="43.149105" lon="19.296663"><ele>638.0</ele><time>2012-05-03T11:44:47.0000000+00:00</time></trkpt><trkpt lat="43.149281" lon="19.296604"><ele>638.1</ele><time>2012-05-03T11:44:52.0000000+00:00</time></trkpt><trkpt lat="43.149456" lon="19.296518"><ele>638.0</ele><time>2012-05-03T11:44:57.0000000+00:00</time></trkpt><trkpt lat="43.149612" lon="19.296474"><ele>638.0</ele><time>2012-05-03T11:45:02.0000000+00:00</time></trkpt><trkpt lat="43.149742" lon="19.2964"><ele>638.0</ele><time>2012-05-03T11:45:07.0000000+00:00</time></trkpt><trkpt lat="43.149891" lon="19.296265"><ele>638.5</ele><time>2012-05-03T11:45:12.0000000+00:00</time></trkpt><trkpt lat="43.150013" lon="19.29612"><ele>641.0</ele><time>2012-05-03T11:45:17.0000000+00:00</time></trkpt><trkpt lat="43.150089" lon="19.295914"><ele>641.7</ele><time>2012-05-03T11:45:22.0000000+00:00</time></trkpt><trkpt lat="43.15015" lon="19.295717"><ele>642.3</ele><time>2012-05-03T11:45:27.0000000+00:00</time></trkpt><trkpt lat="43.150219" lon="19.295525"><ele>642.6</ele><time>2012-05-03T11:45:32.0000000+00:00</time></trkpt><trkpt lat="43.15033" lon="19.295439"><ele>642.1</ele><time>2012-05-03T11:45:37.0000000+00:00</time></trkpt><trkpt lat="43.150505" lon="19.29529"><ele>642.3</ele><time>2012-05-03T11:45:42.0000000+00:00</time></trkpt><trkpt lat="43.150684" lon="19.295095"><ele>642.9</ele><time>2012-05-03T11:45:47.0000000+00:00</time></trkpt><trkpt lat="43.150749" lon="19.294872"><ele>643.6</ele><time>2012-05-03T11:45:52.0000000+00:00</time></trkpt><trkpt lat="43.150822" lon="19.294621"><ele>644.8</ele><time>2012-05-03T11:45:57.0000000+00:00</time></trkpt><trkpt lat="43.150948" lon="19.294489"><ele>645.3</ele><time>2012-05-03T11:46:02.0000000+00:00</time></trkpt><trkpt lat="43.151043" lon="19.294342"><ele>646.2</ele><time>2012-05-03T11:46:07.0000000+00:00</time></trkpt><trkpt lat="43.151169" lon="19.294218"><ele>647.1</ele><time>2012-05-03T11:46:12.0000000+00:00</time></trkpt><trkpt lat="43.151302" lon="19.294123"><ele>648.2</ele><time>2012-05-03T11:46:17.0000000+00:00</time></trkpt><trkpt lat="43.151432" lon="19.294044"><ele>649.0</ele><time>2012-05-03T11:46:22.0000000+00:00</time></trkpt><trkpt lat="43.151573" lon="19.293964"><ele>650.1</ele><time>2012-05-03T11:46:27.0000000+00:00</time></trkpt><trkpt lat="43.151722" lon="19.29384"><ele>650.6</ele><time>2012-05-03T11:46:32.0000000+00:00</time></trkpt><trkpt lat="43.15184" lon="19.293741"><ele>652.0</ele><time>2012-05-03T11:46:37.0000000+00:00</time></trkpt><trkpt lat="43.151947" lon="19.293655"><ele>653.2</ele><time>2012-05-03T11:46:42.0000000+00:00</time></trkpt><trkpt lat="43.152077" lon="19.293537"><ele>654.4</ele><time>2012-05-03T11:46:47.0000000+00:00</time></trkpt><trkpt lat="43.152203" lon="19.293484"><ele>655.0</ele><time>2012-05-03T11:46:52.0000000+00:00</time></trkpt><trkpt lat="43.152279" lon="19.293316"><ele>656.4</ele><time>2012-05-03T11:46:57.0000000+00:00</time></trkpt><trkpt lat="43.152431" lon="19.293127"><ele>658.2</ele><time>2012-05-03T11:47:02.0000000+00:00</time></trkpt><trkpt lat="43.152573" lon="19.292938"><ele>660.4</ele><time>2012-05-03T11:47:07.0000000+00:00</time></trkpt><trkpt lat="43.152725" lon="19.292738"><ele>661.9</ele><time>2012-05-03T11:47:12.0000000+00:00</time></trkpt><trkpt lat="43.152988" lon="19.292738"><ele>660.1</ele><time>2012-05-03T11:47:17.0000000+00:00</time></trkpt><trkpt lat="43.15313" lon="19.292654"><ele>660.4</ele><time>2012-05-03T11:47:22.0000000+00:00</time></trkpt><trkpt lat="43.153328" lon="19.292595"><ele>660.4</ele><time>2012-05-03T11:47:27.0000000+00:00</time></trkpt><trkpt lat="43.153465" lon="19.292398"><ele>661.9</ele><time>2012-05-03T11:47:32.0000000+00:00</time></trkpt><trkpt lat="43.153606" lon="19.292274"><ele>663.2</ele><time>2012-05-03T11:47:37.0000000+00:00</time></trkpt><trkpt lat="43.153767" lon="19.292118"><ele>663.3</ele><time>2012-05-03T11:47:42.0000000+00:00</time></trkpt><trkpt lat="43.153931" lon="19.291983"><ele>662.0</ele><time>2012-05-03T11:47:47.0000000+00:00</time></trkpt><trkpt lat="43.154076" lon="19.291872"><ele>661.0</ele><time>2012-05-03T11:47:52.0000000+00:00</time></trkpt><trkpt lat="43.154213" lon="19.291773"><ele>661.5</ele><time>2012-05-03T11:47:57.0000000+00:00</time></trkpt><trkpt lat="43.15432" lon="19.2917"><ele>660.8</ele><time>2012-05-03T11:48:02.0000000+00:00</time></trkpt><trkpt lat="43.154461" lon="19.291679"><ele>661.3</ele><time>2012-05-03T11:48:07.0000000+00:00</time></trkpt><trkpt lat="43.154594" lon="19.291613"><ele>661.4</ele><time>2012-05-03T11:48:12.0000000+00:00</time></trkpt><trkpt lat="43.154774" lon="19.291584"><ele>659.0</ele><time>2012-05-03T11:48:17.0000000+00:00</time></trkpt><trkpt lat="43.154934" lon="19.291485"><ele>659.0</ele><time>2012-05-03T11:48:22.0000000+00:00</time></trkpt><trkpt lat="43.155106" lon="19.291422"><ele>657.6</ele><time>2012-05-03T11:48:27.0000000+00:00</time></trkpt><trkpt lat="43.155304" lon="19.291351"><ele>655.3</ele><time>2012-05-03T11:48:32.0000000+00:00</time></trkpt><trkpt lat="43.155502" lon="19.291258"><ele>654.5</ele><time>2012-05-03T11:48:37.0000000+00:00</time></trkpt><trkpt lat="43.155693" lon="19.291136"><ele>654.4</ele><time>2012-05-03T11:48:42.0000000+00:00</time></trkpt><trkpt lat="43.155823" lon="19.290947"><ele>655.1</ele><time>2012-05-03T11:48:47.0000000+00:00</time></trkpt><trkpt lat="43.155899" lon="19.290745"><ele>654.7</ele><time>2012-05-03T11:48:52.0000000+00:00</time></trkpt><trkpt lat="43.155972" lon="19.290497"><ele>654.2</ele><time>2012-05-03T11:48:57.0000000+00:00</time></trkpt><trkpt lat="43.15601" lon="19.29026"><ele>653.8</ele><time>2012-05-03T11:49:02.0000000+00:00</time></trkpt><trkpt lat="43.156048" lon="19.290049"><ele>654.0</ele><time>2012-05-03T11:49:07.0000000+00:00</time></trkpt><trkpt lat="43.156071" lon="19.289833"><ele>653.6</ele><time>2012-05-03T11:49:12.0000000+00:00</time></trkpt><trkpt lat="43.156136" lon="19.289618"><ele>652.8</ele><time>2012-05-03T11:49:17.0000000+00:00</time></trkpt><trkpt lat="43.156132" lon="19.289354"><ele>653.0</ele><time>2012-05-03T11:49:22.0000000+00:00</time></trkpt><trkpt lat="43.156067" lon="19.289066"><ele>653.0</ele><time>2012-05-03T11:49:27.0000000+00:00</time></trkpt><trkpt lat="43.155983" lon="19.288839"><ele>653.8</ele><time>2012-05-03T11:49:32.0000000+00:00</time></trkpt><trkpt lat="43.155899" lon="19.288601"><ele>654.6</ele><time>2012-05-03T11:49:37.0000000+00:00</time></trkpt><trkpt lat="43.15591" lon="19.288355"><ele>654.6</ele><time>2012-05-03T11:49:42.0000000+00:00</time></trkpt><trkpt lat="43.155853" lon="19.288168"><ele>655.7</ele><time>2012-05-03T11:49:47.0000000+00:00</time></trkpt><trkpt lat="43.155766" lon="19.287996"><ele>657.0</ele><time>2012-05-03T11:49:52.0000000+00:00</time></trkpt><trkpt lat="43.155739" lon="19.287807"><ele>658.3</ele><time>2012-05-03T11:49:57.0000000+00:00</time></trkpt><trkpt lat="43.155716" lon="19.287636"><ele>658.8</ele><time>2012-05-03T11:50:02.0000000+00:00</time></trkpt><trkpt lat="43.155701" lon="19.287449"><ele>659.3</ele><time>2012-05-03T11:50:07.0000000+00:00</time></trkpt><trkpt lat="43.155659" lon="19.287264"><ele>658.0</ele><time>2012-05-03T11:50:12.0000000+00:00</time></trkpt><trkpt lat="43.155605" lon="19.287031"><ele>656.4</ele><time>2012-05-03T11:50:17.0000000+00:00</time></trkpt><trkpt lat="43.155602" lon="19.286886"><ele>656.7</ele><time>2012-05-03T11:50:22.0000000+00:00</time></trkpt><trkpt lat="43.155567" lon="19.286695"><ele>654.4</ele><time>2012-05-03T11:50:27.0000000+00:00</time></trkpt><trkpt lat="43.155495" lon="19.286503"><ele>651.2</ele><time>2012-05-03T11:50:32.0000000+00:00</time></trkpt><trkpt lat="43.155476" lon="19.28635"><ele>650.6</ele><time>2012-05-03T11:50:37.0000000+00:00</time></trkpt><trkpt lat="43.155441" lon="19.286156"><ele>648.7</ele><time>2012-05-03T11:50:42.0000000+00:00</time></trkpt><trkpt lat="43.155399" lon="19.285969"><ele>645.9</ele><time>2012-05-03T11:50:47.0000000+00:00</time></trkpt><trkpt lat="43.155392" lon="19.285805"><ele>645.7</ele><time>2012-05-03T11:50:52.0000000+00:00</time></trkpt><trkpt lat="43.155384" lon="19.285648"><ele>645.9</ele><time>2012-05-03T11:50:57.0000000+00:00</time></trkpt><trkpt lat="43.155449" lon="19.285442"><ele>645.3</ele><time>2012-05-03T11:51:02.0000000+00:00</time></trkpt><trkpt lat="43.15554" lon="19.285238"><ele>645.4</ele><time>2012-05-03T11:51:07.0000000+00:00</time></trkpt><trkpt lat="43.155663" lon="19.285049"><ele>644.8</ele><time>2012-05-03T11:51:12.0000000+00:00</time></trkpt><trkpt lat="43.155804" lon="19.284809"><ele>641.6</ele><time>2012-05-03T11:51:17.0000000+00:00</time></trkpt><trkpt lat="43.155926" lon="19.284664"><ele>641.1</ele><time>2012-05-03T11:51:22.0000000+00:00</time></trkpt><trkpt lat="43.155975" lon="19.284527"><ele>639.7</ele><time>2012-05-03T11:51:27.0000000+00:00</time></trkpt><trkpt lat="43.156082" lon="19.284386"><ele>638.3</ele><time>2012-05-03T11:51:32.0000000+00:00</time></trkpt><trkpt lat="43.156208" lon="19.284254"><ele>637.2</ele><time>2012-05-03T11:51:37.0000000+00:00</time></trkpt><trkpt lat="43.15625" lon="19.284109"><ele>637.0</ele><time>2012-05-03T11:51:42.0000000+00:00</time></trkpt><trkpt lat="43.156288" lon="19.284008"><ele>635.6</ele><time>2012-05-03T11:51:47.0000000+00:00</time></trkpt><trkpt lat="43.156349" lon="19.283865"><ele>634.9</ele><time>2012-05-03T11:51:52.0000000+00:00</time></trkpt><trkpt lat="43.156418" lon="19.283701"><ele>635.0</ele><time>2012-05-03T11:51:57.0000000+00:00</time></trkpt><trkpt lat="43.156448" lon="19.283556"><ele>635.2</ele><time>2012-05-03T11:52:02.0000000+00:00</time></trkpt><trkpt lat="43.156498" lon="19.283384"><ele>636.0</ele><time>2012-05-03T11:52:07.0000000+00:00</time></trkpt><trkpt lat="43.156513" lon="19.283251"><ele>637.1</ele><time>2012-05-03T11:52:12.0000000+00:00</time></trkpt><trkpt lat="43.15657" lon="19.283079"><ele>637.3</ele><time>2012-05-03T11:52:17.0000000+00:00</time></trkpt><trkpt lat="43.156631" lon="19.2829"><ele>637.7</ele><time>2012-05-03T11:52:22.0000000+00:00</time></trkpt><trkpt lat="43.156677" lon="19.28273"><ele>638.5</ele><time>2012-05-03T11:52:27.0000000+00:00</time></trkpt><trkpt lat="43.156761" lon="19.282583"><ele>639.8</ele><time>2012-05-03T11:52:32.0000000+00:00</time></trkpt><trkpt lat="43.156822" lon="19.282444"><ele>640.8</ele><time>2012-05-03T11:52:37.0000000+00:00</time></trkpt><trkpt lat="43.156879" lon="19.282362"><ele>642.1</ele><time>2012-05-03T11:52:42.0000000+00:00</time></trkpt><trkpt lat="43.15696" lon="19.282169"><ele>643.4</ele><time>2012-05-03T11:52:47.0000000+00:00</time></trkpt><trkpt lat="43.157078" lon="19.282047"><ele>644.4</ele><time>2012-05-03T11:52:52.0000000+00:00</time></trkpt><trkpt lat="43.157188" lon="19.281937"><ele>645.5</ele><time>2012-05-03T11:52:57.0000000+00:00</time></trkpt><trkpt lat="43.157238" lon="19.281776"><ele>647.8</ele><time>2012-05-03T11:53:02.0000000+00:00</time></trkpt><trkpt lat="43.157265" lon="19.281622"><ele>650.0</ele><time>2012-05-03T11:53:07.0000000+00:00</time></trkpt><trkpt lat="43.157272" lon="19.281504"><ele>651.7</ele><time>2012-05-03T11:53:12.0000000+00:00</time></trkpt><trkpt lat="43.157299" lon="19.281435"><ele>653.7</ele><time>2012-05-03T11:53:17.0000000+00:00</time></trkpt><trkpt lat="43.157345" lon="19.281282"><ele>655.7</ele><time>2012-05-03T11:53:22.0000000+00:00</time></trkpt><trkpt lat="43.157375" lon="19.281088"><ele>657.5</ele><time>2012-05-03T11:53:27.0000000+00:00</time></trkpt><trkpt lat="43.157425" lon="19.280968"><ele>660.2</ele><time>2012-05-03T11:53:32.0000000+00:00</time></trkpt><trkpt lat="43.157467" lon="19.28087"><ele>663.2</ele><time>2012-05-03T11:53:37.0000000+00:00</time></trkpt><trkpt lat="43.157524" lon="19.280704"><ele>665.8</ele><time>2012-05-03T11:53:42.0000000+00:00</time></trkpt><trkpt lat="43.157608" lon="19.280502"><ele>667.6</ele><time>2012-05-03T11:53:47.0000000+00:00</time></trkpt><trkpt lat="43.157681" lon="19.280312"><ele>668.4</ele><time>2012-05-03T11:53:52.0000000+00:00</time></trkpt><trkpt lat="43.157692" lon="19.280022"><ele>662.9</ele><time>2012-05-03T11:53:57.0000000+00:00</time></trkpt><trkpt lat="43.157761" lon="19.279802"><ele>664.4</ele><time>2012-05-03T11:54:02.0000000+00:00</time></trkpt><trkpt lat="43.157776" lon="19.279606"><ele>664.1</ele><time>2012-05-03T11:54:07.0000000+00:00</time></trkpt><trkpt lat="43.157757" lon="19.279406"><ele>662.0</ele><time>2012-05-03T11:54:12.0000000+00:00</time></trkpt><trkpt lat="43.157761" lon="19.279119"><ele>657.6</ele><time>2012-05-03T11:54:17.0000000+00:00</time></trkpt><trkpt lat="43.157745" lon="19.27894"><ele>657.0</ele><time>2012-05-03T11:54:22.0000000+00:00</time></trkpt><trkpt lat="43.157726" lon="19.278746"><ele>654.8</ele><time>2012-05-03T11:54:27.0000000+00:00</time></trkpt><trkpt lat="43.157745" lon="19.27858"><ele>654.1</ele><time>2012-05-03T11:54:32.0000000+00:00</time></trkpt><trkpt lat="43.157745" lon="19.278391"><ele>652.8</ele><time>2012-05-03T11:54:37.0000000+00:00</time></trkpt><trkpt lat="43.157745" lon="19.278194"><ele>650.3</ele><time>2012-05-03T11:54:42.0000000+00:00</time></trkpt><trkpt lat="43.15778" lon="19.278027"><ele>648.0</ele><time>2012-05-03T11:54:47.0000000+00:00</time></trkpt><trkpt lat="43.157799" lon="19.27783"><ele>646.8</ele><time>2012-05-03T11:54:52.0000000+00:00</time></trkpt><trkpt lat="43.157803" lon="19.277647"><ele>646.9</ele><time>2012-05-03T11:54:57.0000000+00:00</time></trkpt><trkpt lat="43.157784" lon="19.277399"><ele>640.6</ele><time>2012-05-03T11:55:02.0000000+00:00</time></trkpt><trkpt lat="43.157814" lon="19.277185"><ele>639.7</ele><time>2012-05-03T11:55:07.0000000+00:00</time></trkpt><trkpt lat="43.15786" lon="19.276989"><ele>633.6</ele><time>2012-05-03T11:55:12.0000000+00:00</time></trkpt><trkpt lat="43.157932" lon="19.276793"><ele>631.5</ele><time>2012-05-03T11:55:17.0000000+00:00</time></trkpt><trkpt lat="43.157986" lon="19.276617"><ele>631.2</ele><time>2012-05-03T11:55:22.0000000+00:00</time></trkpt><trkpt lat="43.158028" lon="19.276455"><ele>627.4</ele><time>2012-05-03T11:55:27.0000000+00:00</time></trkpt><trkpt lat="43.158096" lon="19.276226"><ele>624.0</ele><time>2012-05-03T11:55:32.0000000+00:00</time></trkpt><trkpt lat="43.158138" lon="19.275997"><ele>622.0</ele><time>2012-05-03T11:55:37.0000000+00:00</time></trkpt><trkpt lat="43.158165" lon="19.275843"><ele>621.6</ele><time>2012-05-03T11:55:42.0000000+00:00</time></trkpt><trkpt lat="43.158222" lon="19.275675"><ele>618.9</ele><time>2012-05-03T11:55:47.0000000+00:00</time></trkpt><trkpt lat="43.158302" lon="19.275482"><ele>624.7</ele><time>2012-05-03T11:55:52.0000000+00:00</time></trkpt><trkpt lat="43.158348" lon="19.275288"><ele>625.8</ele><time>2012-05-03T11:55:57.0000000+00:00</time></trkpt><trkpt lat="43.158421" lon="19.275072"><ele>626.5</ele><time>2012-05-03T11:56:02.0000000+00:00</time></trkpt><trkpt lat="43.158543" lon="19.274841"><ele>627.5</ele><time>2012-05-03T11:56:07.0000000+00:00</time></trkpt><trkpt lat="43.158657" lon="19.274639"><ele>626.6</ele><time>2012-05-03T11:56:12.0000000+00:00</time></trkpt><trkpt lat="43.158741" lon="19.274477"><ele>627.3</ele><time>2012-05-03T11:56:17.0000000+00:00</time></trkpt><trkpt lat="43.158913" lon="19.274347"><ele>629.2</ele><time>2012-05-03T11:56:22.0000000+00:00</time></trkpt><trkpt lat="43.159077" lon="19.274235"><ele>631.6</ele><time>2012-05-03T11:56:27.0000000+00:00</time></trkpt><trkpt lat="43.159286" lon="19.274069"><ele>634.5</ele><time>2012-05-03T11:56:32.0000000+00:00</time></trkpt><trkpt lat="43.159527" lon="19.273964"><ele>636.1</ele><time>2012-05-03T11:56:37.0000000+00:00</time></trkpt><trkpt lat="43.159657" lon="19.273819"><ele>638.4</ele><time>2012-05-03T11:56:42.0000000+00:00</time></trkpt><trkpt lat="43.15979" lon="19.273642"><ele>640.8</ele><time>2012-05-03T11:56:47.0000000+00:00</time></trkpt><trkpt lat="43.159912" lon="19.273514"><ele>642.8</ele><time>2012-05-03T11:56:52.0000000+00:00</time></trkpt><trkpt lat="43.160053" lon="19.273367"><ele>645.2</ele><time>2012-05-03T11:56:57.0000000+00:00</time></trkpt><trkpt lat="43.160137" lon="19.273212"><ele>648.2</ele><time>2012-05-03T11:57:02.0000000+00:00</time></trkpt><trkpt lat="43.160233" lon="19.273037"><ele>650.3</ele><time>2012-05-03T11:57:07.0000000+00:00</time></trkpt><trkpt lat="43.160275" lon="19.272949"><ele>651.6</ele><time>2012-05-03T11:57:12.0000000+00:00</time></trkpt><trkpt lat="43.16032" lon="19.272848"><ele>653.2</ele><time>2012-05-03T11:57:17.0000000+00:00</time></trkpt><trkpt lat="43.160362" lon="19.272713"><ele>654.9</ele><time>2012-05-03T11:57:22.0000000+00:00</time></trkpt><trkpt lat="43.160465" lon="19.272596"><ele>656.3</ele><time>2012-05-03T11:57:27.0000000+00:00</time></trkpt><trkpt lat="43.160568" lon="19.27247"><ele>658.7</ele><time>2012-05-03T11:57:32.0000000+00:00</time></trkpt><trkpt lat="43.160671" lon="19.272369"><ele>660.9</ele><time>2012-05-03T11:57:37.0000000+00:00</time></trkpt><trkpt lat="43.160805" lon="19.272209"><ele>663.4</ele><time>2012-05-03T11:57:42.0000000+00:00</time></trkpt><trkpt lat="43.160938" lon="19.272097"><ele>665.7</ele><time>2012-05-03T11:57:47.0000000+00:00</time></trkpt><trkpt lat="43.16103" lon="19.271927"><ele>666.9</ele><time>2012-05-03T11:57:52.0000000+00:00</time></trkpt><trkpt lat="43.161175" lon="19.271847"><ele>668.7</ele><time>2012-05-03T11:57:57.0000000+00:00</time></trkpt><trkpt lat="43.161335" lon="19.271791"><ele>671.0</ele><time>2012-05-03T11:58:02.0000000+00:00</time></trkpt><trkpt lat="43.161503" lon="19.271765"><ele>673.5</ele><time>2012-05-03T11:58:07.0000000+00:00</time></trkpt><trkpt lat="43.161636" lon="19.271658"><ele>675.7</ele><time>2012-05-03T11:58:12.0000000+00:00</time></trkpt><trkpt lat="43.161751" lon="19.271534"><ele>677.5</ele><time>2012-05-03T11:58:17.0000000+00:00</time></trkpt><trkpt lat="43.161861" lon="19.27149"><ele>679.6</ele><time>2012-05-03T11:58:22.0000000+00:00</time></trkpt><trkpt lat="43.161961" lon="19.271452"><ele>681.6</ele><time>2012-05-03T11:58:27.0000000+00:00</time></trkpt><trkpt lat="43.162048" lon="19.271358"><ele>683.9</ele><time>2012-05-03T11:58:32.0000000+00:00</time></trkpt><trkpt lat="43.162159" lon="19.271303"><ele>685.7</ele><time>2012-05-03T11:58:37.0000000+00:00</time></trkpt><trkpt lat="43.162292" lon="19.271219"><ele>687.7</ele><time>2012-05-03T11:58:42.0000000+00:00</time></trkpt><trkpt lat="43.162399" lon="19.271219"><ele>689.6</ele><time>2012-05-03T11:58:47.0000000+00:00</time></trkpt><trkpt lat="43.162487" lon="19.271135"><ele>691.8</ele><time>2012-05-03T11:58:52.0000000+00:00</time></trkpt><trkpt lat="43.162575" lon="19.271046"><ele>693.6</ele><time>2012-05-03T11:58:57.0000000+00:00</time></trkpt><trkpt lat="43.162682" lon="19.270948"><ele>694.9</ele><time>2012-05-03T11:59:02.0000000+00:00</time></trkpt><trkpt lat="43.162712" lon="19.270788"><ele>695.1</ele><time>2012-05-03T11:59:07.0000000+00:00</time></trkpt><trkpt lat="43.16275" lon="19.27058"><ele>696.7</ele><time>2012-05-03T11:59:12.0000000+00:00</time></trkpt><trkpt lat="43.162846" lon="19.270353"><ele>697.4</ele><time>2012-05-03T11:59:17.0000000+00:00</time></trkpt><trkpt lat="43.16296" lon="19.270138"><ele>697.7</ele><time>2012-05-03T11:59:22.0000000+00:00</time></trkpt><trkpt lat="43.163029" lon="19.26992"><ele>700.9</ele><time>2012-05-03T11:59:27.0000000+00:00</time></trkpt><trkpt lat="43.163143" lon="19.26972"><ele>704.5</ele><time>2012-05-03T11:59:32.0000000+00:00</time></trkpt><trkpt lat="43.163212" lon="19.269497"><ele>707.9</ele><time>2012-05-03T11:59:37.0000000+00:00</time></trkpt><trkpt lat="43.163311" lon="19.269283"><ele>711.1</ele><time>2012-05-03T11:59:42.0000000+00:00</time></trkpt><trkpt lat="43.163441" lon="19.269041"><ele>713.0</ele><time>2012-05-03T11:59:47.0000000+00:00</time></trkpt><trkpt lat="43.16354" lon="19.268787"><ele>714.3</ele><time>2012-05-03T11:59:52.0000000+00:00</time></trkpt><trkpt lat="43.163681" lon="19.268578"><ele>716.9</ele><time>2012-05-03T11:59:57.0000000+00:00</time></trkpt><trkpt lat="43.163784" lon="19.268398"><ele>719.3</ele><time>2012-05-03T12:00:02.0000000+00:00</time></trkpt><trkpt lat="43.16383" lon="19.268183"><ele>722.6</ele><time>2012-05-03T12:00:07.0000000+00:00</time></trkpt><trkpt lat="43.163872" lon="19.268005"><ele>725.6</ele><time>2012-05-03T12:00:12.0000000+00:00</time></trkpt><trkpt lat="43.163933" lon="19.267794"><ele>726.8</ele><time>2012-05-03T12:00:17.0000000+00:00</time></trkpt><trkpt lat="43.163944" lon="19.267591"><ele>728.6</ele><time>2012-05-03T12:00:22.0000000+00:00</time></trkpt><trkpt lat="43.163933" lon="19.267345"><ele>731.5</ele><time>2012-05-03T12:00:27.0000000+00:00</time></trkpt><trkpt lat="43.16394" lon="19.267145"><ele>733.9</ele><time>2012-05-03T12:00:32.0000000+00:00</time></trkpt><trkpt lat="43.163948" lon="19.266994"><ele>735.7</ele><time>2012-05-03T12:00:37.0000000+00:00</time></trkpt><trkpt lat="43.163982" lon="19.266817"><ele>738.2</ele><time>2012-05-03T12:00:42.0000000+00:00</time></trkpt><trkpt lat="43.164036" lon="19.26656"><ele>740.4</ele><time>2012-05-03T12:00:47.0000000+00:00</time></trkpt><trkpt lat="43.164135" lon="19.266319"><ele>741.4</ele><time>2012-05-03T12:00:52.0000000+00:00</time></trkpt><trkpt lat="43.164169" lon="19.266111"><ele>743.1</ele><time>2012-05-03T12:00:57.0000000+00:00</time></trkpt><trkpt lat="43.164242" lon="19.265915"><ele>744.9</ele><time>2012-05-03T12:01:02.0000000+00:00</time></trkpt><trkpt lat="43.164322" lon="19.265684"><ele>746.6</ele><time>2012-05-03T12:01:07.0000000+00:00</time></trkpt><trkpt lat="43.164391" lon="19.265469"><ele>748.4</ele><time>2012-05-03T12:01:12.0000000+00:00</time></trkpt><trkpt lat="43.164471" lon="19.265306"><ele>750.6</ele><time>2012-05-03T12:01:17.0000000+00:00</time></trkpt><trkpt lat="43.164486" lon="19.265108"><ele>752.0</ele><time>2012-05-03T12:01:22.0000000+00:00</time></trkpt><trkpt lat="43.164501" lon="19.264975"><ele>754.4</ele><time>2012-05-03T12:01:27.0000000+00:00</time></trkpt><trkpt lat="43.164562" lon="19.264866"><ele>756.5</ele><time>2012-05-03T12:01:32.0000000+00:00</time></trkpt><trkpt lat="43.164616" lon="19.26469"><ele>759.6</ele><time>2012-05-03T12:01:37.0000000+00:00</time></trkpt><trkpt lat="43.164692" lon="19.264498"><ele>762.3</ele><time>2012-05-03T12:01:42.0000000+00:00</time></trkpt><trkpt lat="43.164738" lon="19.264334"><ele>764.5</ele><time>2012-05-03T12:01:47.0000000+00:00</time></trkpt><trkpt lat="43.164787" lon="19.264227"><ele>767.3</ele><time>2012-05-03T12:01:52.0000000+00:00</time></trkpt><trkpt lat="43.164806" lon="19.264065"><ele>770.4</ele><time>2012-05-03T12:01:57.0000000+00:00</time></trkpt><trkpt lat="43.164879" lon="19.263912"><ele>773.4</ele><time>2012-05-03T12:02:02.0000000+00:00</time></trkpt><trkpt lat="43.164993" lon="19.263826"><ele>776.6</ele><time>2012-05-03T12:02:07.0000000+00:00</time></trkpt><trkpt lat="43.165062" lon="19.263706"><ele>780.4</ele><time>2012-05-03T12:02:12.0000000+00:00</time></trkpt><trkpt lat="43.165108" lon="19.263592"><ele>783.9</ele><time>2012-05-03T12:02:17.0000000+00:00</time></trkpt><trkpt lat="43.165176" lon="19.263439"><ele>787.4</ele><time>2012-05-03T12:02:22.0000000+00:00</time></trkpt><trkpt lat="43.165241" lon="19.263371"><ele>791.5</ele><time>2012-05-03T12:02:27.0000000+00:00</time></trkpt><trkpt lat="43.165344" lon="19.263281"><ele>795.2</ele><time>2012-05-03T12:02:32.0000000+00:00</time></trkpt><trkpt lat="43.165413" lon="19.263197"><ele>798.8</ele><time>2012-05-03T12:02:37.0000000+00:00</time></trkpt><trkpt lat="43.165466" lon="19.263088"><ele>803.0</ele><time>2012-05-03T12:02:42.0000000+00:00</time></trkpt><trkpt lat="43.165512" lon="19.263018"><ele>807.0</ele><time>2012-05-03T12:02:47.0000000+00:00</time></trkpt><trkpt lat="43.165546" lon="19.26292"><ele>810.5</ele><time>2012-05-03T12:02:52.0000000+00:00</time></trkpt><trkpt lat="43.165638" lon="19.262835"><ele>813.8</ele><time>2012-05-03T12:02:57.0000000+00:00</time></trkpt><trkpt lat="43.16571" lon="19.262774"><ele>817.5</ele><time>2012-05-03T12:03:02.0000000+00:00</time></trkpt><trkpt lat="43.165768" lon="19.26269"><ele>821.4</ele><time>2012-05-03T12:03:07.0000000+00:00</time></trkpt><trkpt lat="43.165882" lon="19.262619"><ele>825.5</ele><time>2012-05-03T12:03:12.0000000+00:00</time></trkpt><trkpt lat="43.166016" lon="19.262533"><ele>829.7</ele><time>2012-05-03T12:03:17.0000000+00:00</time></trkpt><trkpt lat="43.166187" lon="19.262453"><ele>834.3</ele><time>2012-05-03T12:03:22.0000000+00:00</time></trkpt><trkpt lat="43.166302" lon="19.262384"><ele>838.8</ele><time>2012-05-03T12:03:27.0000000+00:00</time></trkpt><trkpt lat="43.166401" lon="19.2624"><ele>844.4</ele><time>2012-05-03T12:03:32.0000000+00:00</time></trkpt><trkpt lat="43.166557" lon="19.262478"><ele>849.0</ele><time>2012-05-03T12:03:37.0000000+00:00</time></trkpt><trkpt lat="43.166683" lon="19.262449"><ele>854.4</ele><time>2012-05-03T12:03:42.0000000+00:00</time></trkpt><trkpt lat="43.166824" lon="19.2624"><ele>857.9</ele><time>2012-05-03T12:03:47.0000000+00:00</time></trkpt><trkpt lat="43.166973" lon="19.262362"><ele>863.0</ele><time>2012-05-03T12:03:52.0000000+00:00</time></trkpt><trkpt lat="43.167091" lon="19.2623"><ele>868.0</ele><time>2012-05-03T12:03:57.0000000+00:00</time></trkpt><trkpt lat="43.167213" lon="19.262199"><ele>869.1</ele><time>2012-05-03T12:04:02.0000000+00:00</time></trkpt><trkpt lat="43.167404" lon="19.262144"><ele>872.2</ele><time>2012-05-03T12:04:07.0000000+00:00</time></trkpt><trkpt lat="43.16745" lon="19.262079"><ele>874.3</ele><time>2012-05-03T12:04:12.0000000+00:00</time></trkpt><trkpt lat="43.167576" lon="19.262024"><ele>879.5</ele><time>2012-05-03T12:04:17.0000000+00:00</time></trkpt><trkpt lat="43.167713" lon="19.261986"><ele>883.5</ele><time>2012-05-03T12:04:22.0000000+00:00</time></trkpt><trkpt lat="43.167892" lon="19.26202"><ele>887.7</ele><time>2012-05-03T12:04:27.0000000+00:00</time></trkpt><trkpt lat="43.167999" lon="19.261909"><ele>893.9</ele><time>2012-05-03T12:04:32.0000000+00:00</time></trkpt><trkpt lat="43.168114" lon="19.261806"><ele>897.5</ele><time>2012-05-03T12:04:37.0000000+00:00</time></trkpt><trkpt lat="43.168316" lon="19.261711"><ele>900.2</ele><time>2012-05-03T12:04:42.0000000+00:00</time></trkpt><trkpt lat="43.168468" lon="19.26161"><ele>904.1</ele><time>2012-05-03T12:04:47.0000000+00:00</time></trkpt><trkpt lat="43.168575" lon="19.261614"><ele>908.1</ele><time>2012-05-03T12:04:52.0000000+00:00</time></trkpt><trkpt lat="43.168709" lon="19.261581"><ele>913.2</ele><time>2012-05-03T12:04:57.0000000+00:00</time></trkpt><trkpt lat="43.168861" lon="19.261484"><ele>918.6</ele><time>2012-05-03T12:05:02.0000000+00:00</time></trkpt><trkpt lat="43.168972" lon="19.26141"><ele>923.7</ele><time>2012-05-03T12:05:07.0000000+00:00</time></trkpt><trkpt lat="43.169083" lon="19.261366"><ele>929.3</ele><time>2012-05-03T12:05:12.0000000+00:00</time></trkpt><trkpt lat="43.16922" lon="19.261318"><ele>934.8</ele><time>2012-05-03T12:05:17.0000000+00:00</time></trkpt><trkpt lat="43.169376" lon="19.261303"><ele>940.4</ele><time>2012-05-03T12:05:22.0000000+00:00</time></trkpt><trkpt lat="43.169582" lon="19.261284"><ele>944.2</ele><time>2012-05-03T12:05:27.0000000+00:00</time></trkpt><trkpt lat="43.169754" lon="19.261274"><ele>949.3</ele><time>2012-05-03T12:05:32.0000000+00:00</time></trkpt><trkpt lat="43.169926" lon="19.261173"><ele>952.5</ele><time>2012-05-03T12:05:37.0000000+00:00</time></trkpt><trkpt lat="43.170059" lon="19.26116"><ele>955.0</ele><time>2012-05-03T12:05:42.0000000+00:00</time></trkpt><trkpt lat="43.170155" lon="19.261147"><ele>958.4</ele><time>2012-05-03T12:05:47.0000000+00:00</time></trkpt><trkpt lat="43.170315" lon="19.261072"><ele>959.3</ele><time>2012-05-03T12:05:52.0000000+00:00</time></trkpt><trkpt lat="43.170437" lon="19.260958"><ele>963.0</ele><time>2012-05-03T12:05:57.0000000+00:00</time></trkpt><trkpt lat="43.170528" lon="19.260876"><ele>967.1</ele><time>2012-05-03T12:06:02.0000000+00:00</time></trkpt><trkpt lat="43.170597" lon="19.260805"><ele>967.3</ele><time>2012-05-03T12:06:07.0000000+00:00</time></trkpt><trkpt lat="43.170662" lon="19.260666"><ele>971.8</ele><time>2012-05-03T12:06:12.0000000+00:00</time></trkpt><trkpt lat="43.170742" lon="19.260509"><ele>976.0</ele><time>2012-05-03T12:06:17.0000000+00:00</time></trkpt><trkpt lat="43.170799" lon="19.260368"><ele>980.1</ele><time>2012-05-03T12:06:22.0000000+00:00</time></trkpt><trkpt lat="43.170933" lon="19.260286"><ele>983.8</ele><time>2012-05-03T12:06:27.0000000+00:00</time></trkpt><trkpt lat="43.171032" lon="19.260204"><ele>987.9</ele><time>2012-05-03T12:06:32.0000000+00:00</time></trkpt><trkpt lat="43.171143" lon="19.260105"><ele>991.7</ele><time>2012-05-03T12:06:37.0000000+00:00</time></trkpt><trkpt lat="43.171257" lon="19.259991"><ele>995.9</ele><time>2012-05-03T12:06:42.0000000+00:00</time></trkpt><trkpt lat="43.171379" lon="19.259895"><ele>1000.0</ele><time>2012-05-03T12:06:47.0000000+00:00</time></trkpt><trkpt lat="43.171524" lon="19.259802"><ele>1004.3</ele><time>2012-05-03T12:06:52.0000000+00:00</time></trkpt><trkpt lat="43.1717" lon="19.259716"><ele>1008.0</ele><time>2012-05-03T12:06:57.0000000+00:00</time></trkpt><trkpt lat="43.171829" lon="19.259686"><ele>1011.7</ele><time>2012-05-03T12:07:02.0000000+00:00</time></trkpt><trkpt lat="43.17202" lon="19.259605"><ele>1015.6</ele><time>2012-05-03T12:07:07.0000000+00:00</time></trkpt><trkpt lat="43.172092" lon="19.259508"><ele>1009.8</ele><time>2012-05-03T12:07:12.0000000+00:00</time></trkpt><trkpt lat="43.172195" lon="19.259424"><ele>1013.1</ele><time>2012-05-03T12:07:17.0000000+00:00</time></trkpt><trkpt lat="43.17231" lon="19.25934"><ele>1016.2</ele><time>2012-05-03T12:07:22.0000000+00:00</time></trkpt><trkpt lat="43.172386" lon="19.259344"><ele>972.2</ele><time>2012-05-03T12:07:27.0000000+00:00</time></trkpt><trkpt lat="43.172394" lon="19.259378"><ele>951.9</ele><time>2012-05-03T12:07:32.0000000+00:00</time></trkpt><trkpt lat="43.172058" lon="19.259182"><ele>936.7</ele><time>2012-05-03T12:07:37.0000000+00:00</time></trkpt><trkpt lat="43.1721" lon="19.258963"><ele>929.6</ele><time>2012-05-03T12:07:42.0000000+00:00</time></trkpt><trkpt lat="43.172161" lon="19.258913"><ele>926.3</ele><time>2012-05-03T12:07:47.0000000+00:00</time></trkpt><trkpt lat="43.17223" lon="19.258862"><ele>918.6</ele><time>2012-05-03T12:07:52.0000000+00:00</time></trkpt><trkpt lat="43.172264" lon="19.258873"><ele>917.6</ele><time>2012-05-03T12:07:57.0000000+00:00</time></trkpt><trkpt lat="43.172344" lon="19.258827"><ele>913.9</ele><time>2012-05-03T12:08:02.0000000+00:00</time></trkpt><trkpt lat="43.172386" lon="19.258749"><ele>915.6</ele><time>2012-05-03T12:08:07.0000000+00:00</time></trkpt><trkpt lat="43.172432" lon="19.258665"><ele>917.2</ele><time>2012-05-03T12:08:12.0000000+00:00</time></trkpt><trkpt lat="43.172523" lon="19.258574"><ele>918.9</ele><time>2012-05-03T12:08:17.0000000+00:00</time></trkpt><trkpt lat="43.172596" lon="19.258465"><ele>920.4</ele><time>2012-05-03T12:08:22.0000000+00:00</time></trkpt><trkpt lat="43.17263" lon="19.258362"><ele>921.3</ele><time>2012-05-03T12:08:27.0000000+00:00</time></trkpt><trkpt lat="43.172722" lon="19.258244"><ele>922.5</ele><time>2012-05-03T12:08:32.0000000+00:00</time></trkpt><trkpt lat="43.173744" lon="19.259092"><ele>903.2</ele><time>2012-05-03T12:08:37.0000000+00:00</time></trkpt><trkpt lat="43.173977" lon="19.258427"><ele>899.0</ele><time>2012-05-03T12:08:42.0000000+00:00</time></trkpt><trkpt lat="43.173996" lon="19.258202"><ele>897.5</ele><time>2012-05-03T12:08:47.0000000+00:00</time></trkpt><trkpt lat="43.174046" lon="19.258123"><ele>895.7</ele><time>2012-05-03T12:08:52.0000000+00:00</time></trkpt><trkpt lat="43.174129" lon="19.257948"><ele>897.7</ele><time>2012-05-03T12:08:57.0000000+00:00</time></trkpt><trkpt lat="43.174255" lon="19.257782"><ele>900.9</ele><time>2012-05-03T12:09:02.0000000+00:00</time></trkpt><trkpt lat="43.174416" lon="19.257599"><ele>904.5</ele><time>2012-05-03T12:09:07.0000000+00:00</time></trkpt><trkpt lat="43.174511" lon="19.257441"><ele>908.1</ele><time>2012-05-03T12:09:12.0000000+00:00</time></trkpt><trkpt lat="43.174541" lon="19.257296"><ele>911.8</ele><time>2012-05-03T12:09:17.0000000+00:00</time></trkpt><trkpt lat="43.174644" lon="19.257147"><ele>915.7</ele><time>2012-05-03T12:09:22.0000000+00:00</time></trkpt><trkpt lat="43.17474" lon="19.257015"><ele>920.0</ele><time>2012-05-03T12:09:27.0000000+00:00</time></trkpt><trkpt lat="43.174839" lon="19.256922"><ele>924.2</ele><time>2012-05-03T12:09:32.0000000+00:00</time></trkpt><trkpt lat="43.174938" lon="19.256823"><ele>928.6</ele><time>2012-05-03T12:09:37.0000000+00:00</time></trkpt><trkpt lat="43.175026" lon="19.256754"><ele>933.0</ele><time>2012-05-03T12:09:42.0000000+00:00</time></trkpt><trkpt lat="43.175095" lon="19.256685"><ele>937.3</ele><time>2012-05-03T12:09:47.0000000+00:00</time></trkpt><trkpt lat="43.175148" lon="19.256624"><ele>941.5</ele><time>2012-05-03T12:09:52.0000000+00:00</time></trkpt><trkpt lat="43.175179" lon="19.256504"><ele>949.4</ele><time>2012-05-03T12:09:57.0000000+00:00</time></trkpt><trkpt lat="43.175293" lon="19.256506"><ele>955.5</ele><time>2012-05-03T12:10:02.0000000+00:00</time></trkpt><trkpt lat="43.1754" lon="19.256403"><ele>961.7</ele><time>2012-05-03T12:10:07.0000000+00:00</time></trkpt><trkpt lat="43.17551" lon="19.256317"><ele>967.7</ele><time>2012-05-03T12:10:12.0000000+00:00</time></trkpt><trkpt lat="43.175602" lon="19.256229"><ele>973.2</ele><time>2012-05-03T12:10:17.0000000+00:00</time></trkpt><trkpt lat="43.175713" lon="19.25621"><ele>977.2</ele><time>2012-05-03T12:10:22.0000000+00:00</time></trkpt><trkpt lat="43.175808" lon="19.256197"><ele>981.6</ele><time>2012-05-03T12:10:27.0000000+00:00</time></trkpt><trkpt lat="43.175827" lon="19.256144"><ele>986.0</ele><time>2012-05-03T12:10:32.0000000+00:00</time></trkpt><trkpt lat="43.175777" lon="19.256044"><ele>989.5</ele><time>2012-05-03T12:10:37.0000000+00:00</time></trkpt><trkpt lat="43.175823" lon="19.255819"><ele>993.2</ele><time>2012-05-03T12:10:42.0000000+00:00</time></trkpt><trkpt lat="43.175938" lon="19.25564"><ele>997.3</ele><time>2012-05-03T12:10:47.0000000+00:00</time></trkpt><trkpt lat="43.176048" lon="19.255537"><ele>1001.8</ele><time>2012-05-03T12:10:52.0000000+00:00</time></trkpt><trkpt lat="43.176243" lon="19.25544"><ele>1006.8</ele><time>2012-05-03T12:10:57.0000000+00:00</time></trkpt><trkpt lat="43.176384" lon="19.255348"><ele>1011.9</ele><time>2012-05-03T12:11:02.0000000+00:00</time></trkpt><trkpt lat="43.17651" lon="19.255243"><ele>1016.8</ele><time>2012-05-03T12:11:07.0000000+00:00</time></trkpt><trkpt lat="43.176624" lon="19.255117"><ele>1021.6</ele><time>2012-05-03T12:11:12.0000000+00:00</time></trkpt><trkpt lat="43.176689" lon="19.254972"><ele>1025.7</ele><time>2012-05-03T12:11:17.0000000+00:00</time></trkpt><trkpt lat="43.176804" lon="19.25486"><ele>1030.0</ele><time>2012-05-03T12:11:22.0000000+00:00</time></trkpt><trkpt lat="43.176849" lon="19.254725"><ele>1034.3</ele><time>2012-05-03T12:11:27.0000000+00:00</time></trkpt><trkpt lat="43.176903" lon="19.254555"><ele>1038.7</ele><time>2012-05-03T12:11:32.0000000+00:00</time></trkpt><trkpt lat="43.176987" lon="19.25437"><ele>1043.0</ele><time>2012-05-03T12:11:37.0000000+00:00</time></trkpt><trkpt lat="43.176994" lon="19.254181"><ele>1046.9</ele><time>2012-05-03T12:11:42.0000000+00:00</time></trkpt><trkpt lat="43.176933" lon="19.254019"><ele>1051.3</ele><time>2012-05-03T12:11:47.0000000+00:00</time></trkpt><trkpt lat="43.176891" lon="19.25382"><ele>1056.1</ele><time>2012-05-03T12:11:52.0000000+00:00</time></trkpt><trkpt lat="43.176815" lon="19.253609"><ele>1061.0</ele><time>2012-05-03T12:11:57.0000000+00:00</time></trkpt><trkpt lat="43.17672" lon="19.253395"><ele>1064.2</ele><time>2012-05-03T12:12:02.0000000+00:00</time></trkpt><trkpt lat="43.176651" lon="19.253216"><ele>1067.1</ele><time>2012-05-03T12:12:07.0000000+00:00</time></trkpt><trkpt lat="43.176563" lon="19.253042"><ele>1069.1</ele><time>2012-05-03T12:12:12.0000000+00:00</time></trkpt><trkpt lat="43.176449" lon="19.252926"><ele>1072.1</ele><time>2012-05-03T12:12:17.0000000+00:00</time></trkpt><trkpt lat="43.17646" lon="19.252909"><ele>1073.7</ele><time>2012-05-03T12:12:22.0000000+00:00</time></trkpt><trkpt lat="43.176529" lon="19.252934"><ele>1076.4</ele><time>2012-05-03T12:12:27.0000000+00:00</time></trkpt><trkpt lat="43.176563" lon="19.252924"><ele>1078.0</ele><time>2012-05-03T12:12:32.0000000+00:00</time></trkpt><trkpt lat="43.176575" lon="19.252922"><ele>1079.6</ele><time>2012-05-03T12:12:37.0000000+00:00</time></trkpt><trkpt lat="43.176586" lon="19.25293"><ele>1081.0</ele><time>2012-05-03T12:12:42.0000000+00:00</time></trkpt><trkpt lat="43.176594" lon="19.252949"><ele>1082.2</ele><time>2012-05-03T12:12:47.0000000+00:00</time></trkpt><trkpt lat="43.176598" lon="19.252949"><ele>1083.1</ele><time>2012-05-03T12:12:52.0000000+00:00</time></trkpt><trkpt lat="43.176598" lon="19.252964"><ele>1083.7</ele><time>2012-05-03T12:12:57.0000000+00:00</time></trkpt><trkpt lat="43.17659" lon="19.252972"><ele>1084.0</ele><time>2012-05-03T12:13:02.0000000+00:00</time></trkpt><trkpt lat="43.176582" lon="19.252981"><ele>1084.1</ele><time>2012-05-03T12:13:07.0000000+00:00</time></trkpt><trkpt lat="43.176571" lon="19.252998"><ele>1084.2</ele><time>2012-05-03T12:13:12.0000000+00:00</time></trkpt><trkpt lat="43.176563" lon="19.253012"><ele>1084.3</ele><time>2012-05-03T12:13:17.0000000+00:00</time></trkpt><trkpt lat="43.176579" lon="19.253035"><ele>1084.3</ele><time>2012-05-03T12:13:22.0000000+00:00</time></trkpt><trkpt lat="43.176613" lon="19.253063"><ele>1084.5</ele><time>2012-05-03T12:13:27.0000000+00:00</time></trkpt><trkpt lat="43.176674" lon="19.25313"><ele>1083.9</ele><time>2012-05-03T12:13:32.0000000+00:00</time></trkpt><trkpt lat="43.176746" lon="19.253185"><ele>1083.5</ele><time>2012-05-03T12:13:37.0000000+00:00</time></trkpt><trkpt lat="43.176842" lon="19.253197"><ele>1083.2</ele><time>2012-05-03T12:13:42.0000000+00:00</time></trkpt><trkpt lat="43.176926" lon="19.253237"><ele>1082.8</ele><time>2012-05-03T12:13:47.0000000+00:00</time></trkpt><trkpt lat="43.176987" lon="19.253254"><ele>1082.2</ele><time>2012-05-03T12:13:52.0000000+00:00</time></trkpt><trkpt lat="43.176941" lon="19.253252"><ele>1081.5</ele><time>2012-05-03T12:13:57.0000000+00:00</time></trkpt><trkpt lat="43.176918" lon="19.253242"><ele>1081.3</ele><time>2012-05-03T12:14:02.0000000+00:00</time></trkpt><trkpt lat="43.17691" lon="19.253248"><ele>1081.3</ele><time>2012-05-03T12:14:07.0000000+00:00</time></trkpt><trkpt lat="43.17683" lon="19.253279"><ele>1080.3</ele><time>2012-05-03T12:14:12.0000000+00:00</time></trkpt><trkpt lat="43.176815" lon="19.253269"><ele>1079.0</ele><time>2012-05-03T12:14:17.0000000+00:00</time></trkpt><trkpt lat="43.176785" lon="19.253239"><ele>1078.0</ele><time>2012-05-03T12:14:22.0000000+00:00</time></trkpt><trkpt lat="43.176777" lon="19.253225"><ele>1077.6</ele><time>2012-05-03T12:14:27.0000000+00:00</time></trkpt><trkpt lat="43.176773" lon="19.253199"><ele>1077.2</ele><time>2012-05-03T12:14:32.0000000+00:00</time></trkpt><trkpt lat="43.176727" lon="19.253225"><ele>1076.7</ele><time>2012-05-03T12:14:37.0000000+00:00</time></trkpt><trkpt lat="43.176731" lon="19.25317"><ele>1076.3</ele><time>2012-05-03T12:14:42.0000000+00:00</time></trkpt><trkpt lat="43.176765" lon="19.253099"><ele>1075.8</ele><time>2012-05-03T12:14:47.0000000+00:00</time></trkpt><trkpt lat="43.176743" lon="19.253103"><ele>1075.0</ele><time>2012-05-03T12:14:52.0000000+00:00</time></trkpt><trkpt lat="43.176743" lon="19.253088"><ele>1074.6</ele><time>2012-05-03T12:14:57.0000000+00:00</time></trkpt><trkpt lat="43.176765" lon="19.253029"><ele>1074.2</ele><time>2012-05-03T12:15:02.0000000+00:00</time></trkpt><trkpt lat="43.176727" lon="19.253006"><ele>1073.0</ele><time>2012-05-03T12:15:07.0000000+00:00</time></trkpt><trkpt lat="43.176743" lon="19.252966"><ele>1072.4</ele><time>2012-05-03T12:15:12.0000000+00:00</time></trkpt><trkpt lat="43.176731" lon="19.252935"><ele>1071.7</ele><time>2012-05-03T12:15:17.0000000+00:00</time></trkpt><trkpt lat="43.17675" lon="19.252827"><ele>1071.4</ele><time>2012-05-03T12:15:22.0000000+00:00</time></trkpt><trkpt lat="43.176727" lon="19.252825"><ele>1071.0</ele><time>2012-05-03T12:15:27.0000000+00:00</time></trkpt><trkpt lat="43.176712" lon="19.252817"><ele>1070.4</ele><time>2012-05-03T12:15:32.0000000+00:00</time></trkpt><trkpt lat="43.176727" lon="19.252789"><ele>1069.9</ele><time>2012-05-03T12:15:37.0000000+00:00</time></trkpt><trkpt lat="43.176727" lon="19.25279"><ele>1069.7</ele><time>2012-05-03T12:15:42.0000000+00:00</time></trkpt><trkpt lat="43.176727" lon="19.252787"><ele>1069.7</ele><time>2012-05-03T12:15:47.0000000+00:00</time></trkpt><trkpt lat="43.17675" lon="19.252937"><ele>1069.4</ele><time>2012-05-03T12:15:52.0000000+00:00</time></trkpt><trkpt lat="43.176758" lon="19.253029"><ele>1070.0</ele><time>2012-05-03T12:15:57.0000000+00:00</time></trkpt><trkpt lat="43.176781" lon="19.252995"><ele>1070.1</ele><time>2012-05-03T12:16:02.0000000+00:00</time></trkpt><trkpt lat="43.176891" lon="19.253025"><ele>1069.8</ele><time>2012-05-03T12:16:07.0000000+00:00</time></trkpt><trkpt lat="43.177006" lon="19.253044"><ele>1069.0</ele><time>2012-05-03T12:16:12.0000000+00:00</time></trkpt><trkpt lat="43.177086" lon="19.25301"><ele>1068.5</ele><time>2012-05-03T12:16:17.0000000+00:00</time></trkpt><trkpt lat="43.177113" lon="19.253016"><ele>1068.2</ele><time>2012-05-03T12:16:22.0000000+00:00</time></trkpt><trkpt lat="43.177105" lon="19.252958"><ele>1067.9</ele><time>2012-05-03T12:16:27.0000000+00:00</time></trkpt><trkpt lat="43.176998" lon="19.25289"><ele>1066.6</ele><time>2012-05-03T12:16:32.0000000+00:00</time></trkpt><trkpt lat="43.176991" lon="19.252804"><ele>1065.6</ele><time>2012-05-03T12:16:37.0000000+00:00</time></trkpt><trkpt lat="43.177006" lon="19.25275"><ele>1062.4</ele><time>2012-05-03T12:16:42.0000000+00:00</time></trkpt><trkpt lat="43.176971" lon="19.252781"><ele>1058.8</ele><time>2012-05-03T12:16:47.0000000+00:00</time></trkpt><trkpt lat="43.176865" lon="19.252806"><ele>1051.8</ele><time>2012-05-03T12:16:52.0000000+00:00</time></trkpt><trkpt lat="43.176861" lon="19.25276"><ele>1046.9</ele><time>2012-05-03T12:16:57.0000000+00:00</time></trkpt><trkpt lat="43.176811" lon="19.252735"><ele>1040.0</ele><time>2012-05-03T12:17:02.0000000+00:00</time></trkpt><trkpt lat="43.176727" lon="19.25288"><ele>1032.6</ele><time>2012-05-03T12:17:07.0000000+00:00</time></trkpt><trkpt lat="43.17664" lon="19.252838"><ele>1027.0</ele><time>2012-05-03T12:17:12.0000000+00:00</time></trkpt><trkpt lat="43.176605" lon="19.252796"><ele>1023.7</ele><time>2012-05-03T12:17:17.0000000+00:00</time></trkpt><trkpt lat="43.176601" lon="19.252798"><ele>1022.8</ele><time>2012-05-03T12:17:22.0000000+00:00</time></trkpt><trkpt lat="43.176601" lon="19.252783"><ele>1022.2</ele><time>2012-05-03T12:17:27.0000000+00:00</time></trkpt><trkpt lat="43.17659" lon="19.252783"><ele>1017.0</ele><time>2012-05-03T12:17:32.0000000+00:00</time></trkpt><trkpt lat="43.17659" lon="19.252783"><ele>1016.3</ele><time>2012-05-03T12:17:37.0000000+00:00</time></trkpt><trkpt lat="43.17659" lon="19.252783"><ele>1015.7</ele><time>2012-05-03T12:17:42.0000000+00:00</time></trkpt><trkpt lat="43.17659" lon="19.252783"><ele>1015.2</ele><time>2012-05-03T12:17:47.0000000+00:00</time></trkpt><trkpt lat="43.17659" lon="19.252785"><ele>1014.7</ele><time>2012-05-03T12:17:52.0000000+00:00</time></trkpt><trkpt lat="43.17659" lon="19.252785"><ele>1014.3</ele><time>2012-05-03T12:17:57.0000000+00:00</time></trkpt><trkpt lat="43.17659" lon="19.252787"><ele>1013.9</ele><time>2012-05-03T12:18:02.0000000+00:00</time></trkpt><trkpt lat="43.17659" lon="19.252787"><ele>1013.4</ele><time>2012-05-03T12:18:07.0000000+00:00</time></trkpt><trkpt lat="43.17659" lon="19.252789"><ele>1012.9</ele><time>2012-05-03T12:18:12.0000000+00:00</time></trkpt><trkpt lat="43.17659" lon="19.252789"><ele>1012.4</ele><time>2012-05-03T12:18:17.0000000+00:00</time></trkpt><trkpt lat="43.17659" lon="19.252789"><ele>1011.9</ele><time>2012-05-03T12:18:22.0000000+00:00</time></trkpt><trkpt lat="43.17659" lon="19.25279"><ele>1011.5</ele><time>2012-05-03T12:18:27.0000000+00:00</time></trkpt><trkpt lat="43.17659" lon="19.25279"><ele>1011.0</ele><time>2012-05-03T12:18:32.0000000+00:00</time></trkpt><trkpt lat="43.17659" lon="19.252794"><ele>1010.6</ele><time>2012-05-03T12:18:37.0000000+00:00</time></trkpt><trkpt lat="43.17659" lon="19.252794"><ele>1010.1</ele><time>2012-05-03T12:18:42.0000000+00:00</time></trkpt><trkpt lat="43.17659" lon="19.252796"><ele>1009.6</ele><time>2012-05-03T12:18:47.0000000+00:00</time></trkpt><trkpt lat="43.17659" lon="19.252798"><ele>1009.0</ele><time>2012-05-03T12:18:52.0000000+00:00</time></trkpt><trkpt lat="43.17659" lon="19.252798"><ele>1008.6</ele><time>2012-05-03T12:18:57.0000000+00:00</time></trkpt><trkpt lat="43.17659" lon="19.2528"><ele>1008.1</ele><time>2012-05-03T12:19:02.0000000+00:00</time></trkpt><trkpt lat="43.17659" lon="19.252804"><ele>1007.6</ele><time>2012-05-03T12:19:07.0000000+00:00</time></trkpt><trkpt lat="43.17659" lon="19.252808"><ele>1007.1</ele><time>2012-05-03T12:19:12.0000000+00:00</time></trkpt><trkpt lat="43.17659" lon="19.252811"><ele>1006.6</ele><time>2012-05-03T12:19:17.0000000+00:00</time></trkpt><trkpt lat="43.17659" lon="19.252813"><ele>1006.2</ele><time>2012-05-03T12:19:22.0000000+00:00</time></trkpt><trkpt lat="43.17659" lon="19.252817"><ele>1005.8</ele><time>2012-05-03T12:19:27.0000000+00:00</time></trkpt><trkpt lat="43.17659" lon="19.252819"><ele>1005.3</ele><time>2012-05-03T12:19:32.0000000+00:00</time></trkpt><trkpt lat="43.17659" lon="19.252823"><ele>1004.8</ele><time>2012-05-03T12:19:37.0000000+00:00</time></trkpt><trkpt lat="43.176594" lon="19.252825"><ele>1004.4</ele><time>2012-05-03T12:19:42.0000000+00:00</time></trkpt><trkpt lat="43.176594" lon="19.252827"><ele>1003.9</ele><time>2012-05-03T12:19:47.0000000+00:00</time></trkpt><trkpt lat="43.176594" lon="19.252829"><ele>1003.4</ele><time>2012-05-03T12:19:52.0000000+00:00</time></trkpt><trkpt lat="43.176594" lon="19.252832"><ele>1002.8</ele><time>2012-05-03T12:19:57.0000000+00:00</time></trkpt><trkpt lat="43.176594" lon="19.252836"><ele>1002.2</ele><time>2012-05-03T12:20:02.0000000+00:00</time></trkpt><trkpt lat="43.176594" lon="19.25284"><ele>1001.7</ele><time>2012-05-03T12:20:07.0000000+00:00</time></trkpt><trkpt lat="43.176598" lon="19.252842"><ele>1001.2</ele><time>2012-05-03T12:20:12.0000000+00:00</time></trkpt><trkpt lat="43.176598" lon="19.252846"><ele>1000.8</ele><time>2012-05-03T12:20:17.0000000+00:00</time></trkpt><trkpt lat="43.176598" lon="19.252848"><ele>1000.3</ele><time>2012-05-03T12:20:22.0000000+00:00</time></trkpt><trkpt lat="43.176598" lon="19.252851"><ele>999.8</ele><time>2012-05-03T12:20:27.0000000+00:00</time></trkpt><trkpt lat="43.176598" lon="19.252853"><ele>999.3</ele><time>2012-05-03T12:20:32.0000000+00:00</time></trkpt><trkpt lat="43.176598" lon="19.252855"><ele>998.8</ele><time>2012-05-03T12:20:37.0000000+00:00</time></trkpt><trkpt lat="43.176598" lon="19.252857"><ele>998.3</ele><time>2012-05-03T12:20:42.0000000+00:00</time></trkpt><trkpt lat="43.176598" lon="19.252857"><ele>997.7</ele><time>2012-05-03T12:20:47.0000000+00:00</time></trkpt><trkpt lat="43.176598" lon="19.252859"><ele>997.0</ele><time>2012-05-03T12:20:52.0000000+00:00</time></trkpt><trkpt lat="43.176598" lon="19.252861"><ele>996.3</ele><time>2012-05-03T12:20:57.0000000+00:00</time></trkpt><trkpt lat="43.176598" lon="19.252865"><ele>995.7</ele><time>2012-05-03T12:21:02.0000000+00:00</time></trkpt><trkpt lat="43.176598" lon="19.252869"><ele>995.0</ele><time>2012-05-03T12:21:07.0000000+00:00</time></trkpt><trkpt lat="43.176598" lon="19.252872"><ele>994.4</ele><time>2012-05-03T12:21:12.0000000+00:00</time></trkpt><trkpt lat="43.176594" lon="19.252874"><ele>993.7</ele><time>2012-05-03T12:21:17.0000000+00:00</time></trkpt><trkpt lat="43.176598" lon="19.252878"><ele>992.9</ele><time>2012-05-03T12:21:22.0000000+00:00</time></trkpt><trkpt lat="43.176594" lon="19.252882"><ele>992.2</ele><time>2012-05-03T12:21:27.0000000+00:00</time></trkpt><trkpt lat="43.176594" lon="19.25289"><ele>991.5</ele><time>2012-05-03T12:21:32.0000000+00:00</time></trkpt><trkpt lat="43.176594" lon="19.252897"><ele>990.7</ele><time>2012-05-03T12:21:37.0000000+00:00</time></trkpt><trkpt lat="43.176594" lon="19.252901"><ele>989.9</ele><time>2012-05-03T12:21:42.0000000+00:00</time></trkpt><trkpt lat="43.176594" lon="19.252907"><ele>989.1</ele><time>2012-05-03T12:21:47.0000000+00:00</time></trkpt><trkpt lat="43.17659" lon="19.252909"><ele>988.2</ele><time>2012-05-03T12:21:52.0000000+00:00</time></trkpt><trkpt lat="43.17659" lon="19.252914"><ele>987.4</ele><time>2012-05-03T12:21:57.0000000+00:00</time></trkpt><trkpt lat="43.17659" lon="19.252916"><ele>986.5</ele><time>2012-05-03T12:22:02.0000000+00:00</time></trkpt><trkpt lat="43.17659" lon="19.252913"><ele>985.7</ele><time>2012-05-03T12:22:07.0000000+00:00</time></trkpt><trkpt lat="43.176586" lon="19.252911"><ele>985.0</ele><time>2012-05-03T12:22:12.0000000+00:00</time></trkpt><trkpt lat="43.176582" lon="19.252907"><ele>984.1</ele><time>2012-05-03T12:22:17.0000000+00:00</time></trkpt><trkpt lat="43.176579" lon="19.252903"><ele>983.4</ele><time>2012-05-03T12:22:22.0000000+00:00</time></trkpt><trkpt lat="43.176575" lon="19.252901"><ele>982.7</ele><time>2012-05-03T12:22:27.0000000+00:00</time></trkpt><trkpt lat="43.176575" lon="19.252901"><ele>982.0</ele><time>2012-05-03T12:22:32.0000000+00:00</time></trkpt><trkpt lat="43.176571" lon="19.252905"><ele>981.2</ele><time>2012-05-03T12:22:37.0000000+00:00</time></trkpt><trkpt lat="43.176571" lon="19.252913"><ele>980.1</ele><time>2012-05-03T12:22:42.0000000+00:00</time></trkpt><trkpt lat="43.176556" lon="19.252869"><ele>979.6</ele><time>2012-05-03T12:22:47.0000000+00:00</time></trkpt><trkpt lat="43.176586" lon="19.25288"><ele>979.4</ele><time>2012-05-03T12:22:52.0000000+00:00</time></trkpt><trkpt lat="43.176563" lon="19.253019"><ele>977.3</ele><time>2012-05-03T12:22:57.0000000+00:00</time></trkpt></trkseg></trk></gpx>